<?xml version="1.0" encoding="UTF-8"?>
<gpx version="1.1" creator="https://www.youtrack.es" xsi:schemaLocation="http://www.topografix.com/GPX/1/1 http://www.topografix.com/GPX/1/1/gpx.xsd http://www.garmin.com/xmlschemas/GpxExtensions/v3 http://www.garmin.com/xmlschemas/GpxExtensionsv3.xsd http://www.garmin.com/xmlschemas/TrackPointExtension/v1 http://www.garmin.com/xmlschemas/TrackPointExtensionv1.xsd" xmlns:gpxtpx="http://www.garmin.com/xmlschemas/TrackPointExtension/v1" xmlns:gpxx="http://www.garmin.com/xmlschemas/GpxExtensions/v3" xmlns:xsi="http://www.w3.org/2001/XMLSchema-instance">
  <metadata>
    <link href="https://www.youtrack.es">
      <text>YouTrack.es</text>
    </link>
    <time>2026-05-08T01:05:38Z</time>
  </metadata>
  <trk>
    <src>https://www.youtrack.es</src>
    <link href="https://www.youtrack.es/ruta/39409-parteunoalpes">
      <text>YouTrack.es</text>
    </link>
    <trkseg>
      <trkpt lat="45.658152" lon="13.772244">
        <ele>-12.474</ele>
        <time>2018-09-04T12:54:26Z</time>
      </trkpt>
      <trkpt lat="45.658144" lon="13.772279">
        <ele>-11.456</ele>
        <time>2018-09-04T12:54:50Z</time>
      </trkpt>
      <trkpt lat="45.658068" lon="13.772352">
        <ele>-7.121</ele>
        <time>2018-09-04T12:54:57Z</time>
      </trkpt>
      <trkpt lat="45.657673" lon="13.772560">
        <ele>-6.208</ele>
        <time>2018-09-04T12:55:14Z</time>
      </trkpt>
      <trkpt lat="45.657420" lon="13.772636">
        <ele>-5.291</ele>
        <time>2018-09-04T12:55:22Z</time>
      </trkpt>
      <trkpt lat="45.657397" lon="13.772614">
        <ele>-5.213</ele>
        <time>2018-09-04T12:55:23Z</time>
      </trkpt>
      <trkpt lat="45.657370" lon="13.772577">
        <ele>-4.759</ele>
        <time>2018-09-04T12:55:24Z</time>
      </trkpt>
      <trkpt lat="45.657172" lon="13.771981">
        <ele>-5.735</ele>
        <time>2018-09-04T12:55:37Z</time>
      </trkpt>
      <trkpt lat="45.656761" lon="13.771609">
        <ele>-6.640</ele>
        <time>2018-09-04T12:55:50Z</time>
      </trkpt>
      <trkpt lat="45.656187" lon="13.771299">
        <ele>-8.674</ele>
        <time>2018-09-04T12:56:06Z</time>
      </trkpt>
      <trkpt lat="45.656040" lon="13.771230">
        <ele>-6.674</ele>
        <time>2018-09-04T12:56:17Z</time>
      </trkpt>
      <trkpt lat="45.655801" lon="13.771126">
        <ele>-7.168</ele>
        <time>2018-09-04T12:56:28Z</time>
      </trkpt>
      <trkpt lat="45.655248" lon="13.770781">
        <ele>-4.789</ele>
        <time>2018-09-04T12:56:43Z</time>
      </trkpt>
      <trkpt lat="45.654848" lon="13.770579">
        <ele>-4.206</ele>
        <time>2018-09-04T12:56:53Z</time>
      </trkpt>
      <trkpt lat="45.654146" lon="13.770217">
        <ele>-5.226</ele>
        <time>2018-09-04T12:57:10Z</time>
      </trkpt>
      <trkpt lat="45.653453" lon="13.769871">
        <ele>-5.208</ele>
        <time>2018-09-04T12:57:26Z</time>
      </trkpt>
      <trkpt lat="45.652617" lon="13.769419">
        <ele>-6.252</ele>
        <time>2018-09-04T12:57:46Z</time>
      </trkpt>
      <trkpt lat="45.652044" lon="13.768993">
        <ele>-7.114</ele>
        <time>2018-09-04T12:58:02Z</time>
      </trkpt>
      <trkpt lat="45.652033" lon="13.768938">
        <ele>-7.110</ele>
        <time>2018-09-04T12:58:04Z</time>
      </trkpt>
      <trkpt lat="45.652019" lon="13.768912">
        <ele>-7.166</ele>
        <time>2018-09-04T12:58:05Z</time>
      </trkpt>
      <trkpt lat="45.652003" lon="13.768885">
        <ele>-7.141</ele>
        <time>2018-09-04T12:58:06Z</time>
      </trkpt>
      <trkpt lat="45.651982" lon="13.768862">
        <ele>-7.195</ele>
        <time>2018-09-04T12:58:07Z</time>
      </trkpt>
      <trkpt lat="45.651958" lon="13.768835">
        <ele>-7.185</ele>
        <time>2018-09-04T12:58:08Z</time>
      </trkpt>
      <trkpt lat="45.651933" lon="13.768812">
        <ele>-7.139</ele>
        <time>2018-09-04T12:58:09Z</time>
      </trkpt>
      <trkpt lat="45.651618" lon="13.768417">
        <ele>-8.611</ele>
        <time>2018-09-04T12:58:22Z</time>
      </trkpt>
      <trkpt lat="45.651257" lon="13.767821">
        <ele>-8.121</ele>
        <time>2018-09-04T12:58:38Z</time>
      </trkpt>
      <trkpt lat="45.651251" lon="13.767798">
        <ele>-8.103</ele>
        <time>2018-09-04T12:58:39Z</time>
      </trkpt>
      <trkpt lat="45.651248" lon="13.767781">
        <ele>-8.108</ele>
        <time>2018-09-04T12:58:40Z</time>
      </trkpt>
      <trkpt lat="45.651249" lon="13.767764">
        <ele>-8.185</ele>
        <time>2018-09-04T12:58:41Z</time>
      </trkpt>
      <trkpt lat="45.651244" lon="13.767747">
        <ele>-8.187</ele>
        <time>2018-09-04T12:58:42Z</time>
      </trkpt>
      <trkpt lat="45.651236" lon="13.767730">
        <ele>-7.673</ele>
        <time>2018-09-04T12:58:43Z</time>
      </trkpt>
      <trkpt lat="45.651232" lon="13.767713">
        <ele>-7.699</ele>
        <time>2018-09-04T12:58:44Z</time>
      </trkpt>
      <trkpt lat="45.651223" lon="13.767693">
        <ele>-7.144</ele>
        <time>2018-09-04T12:58:45Z</time>
      </trkpt>
      <trkpt lat="45.651212" lon="13.767677">
        <ele>-6.668</ele>
        <time>2018-09-04T12:58:46Z</time>
      </trkpt>
      <trkpt lat="45.651201" lon="13.767659">
        <ele>-6.228</ele>
        <time>2018-09-04T12:58:47Z</time>
      </trkpt>
      <trkpt lat="45.651188" lon="13.767637">
        <ele>-5.752</ele>
        <time>2018-09-04T12:58:48Z</time>
      </trkpt>
      <trkpt lat="45.651171" lon="13.767613">
        <ele>-5.222</ele>
        <time>2018-09-04T12:58:49Z</time>
      </trkpt>
      <trkpt lat="45.650934" lon="13.767277">
        <ele>-4.762</ele>
        <time>2018-09-04T12:59:03Z</time>
      </trkpt>
      <trkpt lat="45.650887" lon="13.767230">
        <ele>-3.308</ele>
        <time>2018-09-04T12:59:14Z</time>
      </trkpt>
      <trkpt lat="45.650875" lon="13.767233">
        <ele>-0.908</ele>
        <time>2018-09-04T12:59:47Z</time>
      </trkpt>
      <trkpt lat="45.650857" lon="13.767215">
        <ele>-0.426</ele>
        <time>2018-09-04T12:59:50Z</time>
      </trkpt>
      <trkpt lat="45.650852" lon="13.767201">
        <ele>-0.478</ele>
        <time>2018-09-04T12:59:51Z</time>
      </trkpt>
      <trkpt lat="45.650716" lon="13.766887">
        <ele>0.194</ele>
        <time>2018-09-04T13:00:04Z</time>
      </trkpt>
      <trkpt lat="45.650533" lon="13.766696">
        <ele>0.170</ele>
        <time>2018-09-04T13:00:18Z</time>
      </trkpt>
      <trkpt lat="45.650534" lon="13.766712">
        <ele>1.155</ele>
        <time>2018-09-04T13:00:41Z</time>
      </trkpt>
      <trkpt lat="45.650524" lon="13.766716">
        <ele>1.199</ele>
        <time>2018-09-04T13:00:44Z</time>
      </trkpt>
      <trkpt lat="45.650473" lon="13.766783">
        <ele>1.569</ele>
        <time>2018-09-04T13:00:56Z</time>
      </trkpt>
      <trkpt lat="45.650482" lon="13.766770">
        <ele>3.053</ele>
        <time>2018-09-04T13:01:22Z</time>
      </trkpt>
      <trkpt lat="45.650411" lon="13.766864">
        <ele>3.562</ele>
        <time>2018-09-04T13:01:35Z</time>
      </trkpt>
      <trkpt lat="45.650409" lon="13.766892">
        <ele>3.983</ele>
        <time>2018-09-04T13:01:36Z</time>
      </trkpt>
      <trkpt lat="45.650413" lon="13.766920">
        <ele>3.911</ele>
        <time>2018-09-04T13:01:37Z</time>
      </trkpt>
      <trkpt lat="45.650417" lon="13.766948">
        <ele>3.908</ele>
        <time>2018-09-04T13:01:38Z</time>
      </trkpt>
      <trkpt lat="45.650417" lon="13.766975">
        <ele>3.910</ele>
        <time>2018-09-04T13:01:39Z</time>
      </trkpt>
      <trkpt lat="45.650416" lon="13.767003">
        <ele>3.992</ele>
        <time>2018-09-04T13:01:40Z</time>
      </trkpt>
      <trkpt lat="45.650268" lon="13.767309">
        <ele>3.098</ele>
        <time>2018-09-04T13:01:56Z</time>
      </trkpt>
      <trkpt lat="45.650250" lon="13.767308">
        <ele>1.554</ele>
        <time>2018-09-04T13:02:10Z</time>
      </trkpt>
      <trkpt lat="45.650237" lon="13.767322">
        <ele>1.119</ele>
        <time>2018-09-04T13:02:19Z</time>
      </trkpt>
      <trkpt lat="45.650190" lon="13.767375">
        <ele>1.143</ele>
        <time>2018-09-04T13:02:23Z</time>
      </trkpt>
      <trkpt lat="45.650169" lon="13.767391">
        <ele>1.113</ele>
        <time>2018-09-04T13:02:24Z</time>
      </trkpt>
      <trkpt lat="45.649786" lon="13.767660">
        <ele>1.157</ele>
        <time>2018-09-04T13:02:38Z</time>
      </trkpt>
      <trkpt lat="45.649484" lon="13.767995">
        <ele>0.698</ele>
        <time>2018-09-04T13:02:53Z</time>
      </trkpt>
      <trkpt lat="45.649490" lon="13.768020">
        <ele>0.615</ele>
        <time>2018-09-04T13:02:54Z</time>
      </trkpt>
      <trkpt lat="45.649523" lon="13.768070">
        <ele>0.126</ele>
        <time>2018-09-04T13:03:07Z</time>
      </trkpt>
      <trkpt lat="45.649517" lon="13.768065">
        <ele>-0.408</ele>
        <time>2018-09-04T13:03:31Z</time>
      </trkpt>
      <trkpt lat="45.649519" lon="13.768085">
        <ele>0.113</ele>
        <time>2018-09-04T13:03:46Z</time>
      </trkpt>
      <trkpt lat="45.649508" lon="13.768100">
        <ele>0.185</ele>
        <time>2018-09-04T13:03:47Z</time>
      </trkpt>
      <trkpt lat="45.649494" lon="13.768111">
        <ele>0.151</ele>
        <time>2018-09-04T13:03:48Z</time>
      </trkpt>
      <trkpt lat="45.649473" lon="13.768104">
        <ele>0.167</ele>
        <time>2018-09-04T13:03:49Z</time>
      </trkpt>
      <trkpt lat="45.649454" lon="13.768084">
        <ele>-0.482</ele>
        <time>2018-09-04T13:03:50Z</time>
      </trkpt>
      <trkpt lat="45.649437" lon="13.768067">
        <ele>0.176</ele>
        <time>2018-09-04T13:03:51Z</time>
      </trkpt>
      <trkpt lat="45.649203" lon="13.767752">
        <ele>-1.336</ele>
        <time>2018-09-04T13:04:05Z</time>
      </trkpt>
      <trkpt lat="45.649183" lon="13.767750">
        <ele>-1.370</ele>
        <time>2018-09-04T13:04:06Z</time>
      </trkpt>
      <trkpt lat="45.649169" lon="13.767715">
        <ele>4.959</ele>
        <time>2018-09-04T13:04:57Z</time>
      </trkpt>
      <trkpt lat="45.649117" lon="13.767625">
        <ele>4.403</ele>
        <time>2018-09-04T13:05:02Z</time>
      </trkpt>
      <trkpt lat="45.649091" lon="13.767604">
        <ele>4.423</ele>
        <time>2018-09-04T13:05:03Z</time>
      </trkpt>
      <trkpt lat="45.649076" lon="13.767587">
        <ele>4.408</ele>
        <time>2018-09-04T13:05:04Z</time>
      </trkpt>
      <trkpt lat="45.649059" lon="13.767566">
        <ele>4.419</ele>
        <time>2018-09-04T13:05:05Z</time>
      </trkpt>
      <trkpt lat="45.649040" lon="13.767546">
        <ele>4.961</ele>
        <time>2018-09-04T13:05:06Z</time>
      </trkpt>
      <trkpt lat="45.648722" lon="13.767376">
        <ele>11.657</ele>
        <time>2018-09-04T13:05:20Z</time>
      </trkpt>
      <trkpt lat="45.648727" lon="13.767369">
        <ele>15.523</ele>
        <time>2018-09-04T13:05:43Z</time>
      </trkpt>
      <trkpt lat="45.648716" lon="13.767336">
        <ele>16.438</ele>
        <time>2018-09-04T13:06:11Z</time>
      </trkpt>
      <trkpt lat="45.648702" lon="13.767347">
        <ele>16.492</ele>
        <time>2018-09-04T13:06:24Z</time>
      </trkpt>
      <trkpt lat="45.648585" lon="13.767288">
        <ele>12.152</ele>
        <time>2018-09-04T13:06:34Z</time>
      </trkpt>
      <trkpt lat="45.648570" lon="13.767276">
        <ele>12.166</ele>
        <time>2018-09-04T13:06:35Z</time>
      </trkpt>
      <trkpt lat="45.648552" lon="13.767256">
        <ele>11.672</ele>
        <time>2018-09-04T13:06:36Z</time>
      </trkpt>
      <trkpt lat="45.648448" lon="13.767150">
        <ele>10.213</ele>
        <time>2018-09-04T13:06:42Z</time>
      </trkpt>
      <trkpt lat="45.648431" lon="13.767126">
        <ele>10.214</ele>
        <time>2018-09-04T13:06:43Z</time>
      </trkpt>
      <trkpt lat="45.648413" lon="13.767099">
        <ele>10.208</ele>
        <time>2018-09-04T13:06:44Z</time>
      </trkpt>
      <trkpt lat="45.648388" lon="13.767079">
        <ele>10.751</ele>
        <time>2018-09-04T13:06:45Z</time>
      </trkpt>
      <trkpt lat="45.648358" lon="13.767063">
        <ele>11.143</ele>
        <time>2018-09-04T13:06:46Z</time>
      </trkpt>
      <trkpt lat="45.648331" lon="13.767043">
        <ele>12.649</ele>
        <time>2018-09-04T13:06:47Z</time>
      </trkpt>
      <trkpt lat="45.648305" lon="13.767019">
        <ele>13.615</ele>
        <time>2018-09-04T13:06:48Z</time>
      </trkpt>
      <trkpt lat="45.648212" lon="13.766754">
        <ele>0.680</ele>
        <time>2018-09-04T13:07:37Z</time>
      </trkpt>
      <trkpt lat="45.648211" lon="13.766787">
        <ele>0.694</ele>
        <time>2018-09-04T13:07:38Z</time>
      </trkpt>
      <trkpt lat="45.648198" lon="13.766816">
        <ele>0.674</ele>
        <time>2018-09-04T13:07:39Z</time>
      </trkpt>
      <trkpt lat="45.648187" lon="13.766838">
        <ele>0.148</ele>
        <time>2018-09-04T13:07:40Z</time>
      </trkpt>
      <trkpt lat="45.648174" lon="13.766864">
        <ele>0.153</ele>
        <time>2018-09-04T13:07:41Z</time>
      </trkpt>
      <trkpt lat="45.648160" lon="13.766913">
        <ele>0.604</ele>
        <time>2018-09-04T13:07:43Z</time>
      </trkpt>
      <trkpt lat="45.648156" lon="13.766939">
        <ele>0.114</ele>
        <time>2018-09-04T13:07:44Z</time>
      </trkpt>
      <trkpt lat="45.648113" lon="13.767358">
        <ele>-1.808</ele>
        <time>2018-09-04T13:07:58Z</time>
      </trkpt>
      <trkpt lat="45.648015" lon="13.767758">
        <ele>4.979</ele>
        <time>2018-09-04T13:08:11Z</time>
      </trkpt>
      <trkpt lat="45.647975" lon="13.768190">
        <ele>12.151</ele>
        <time>2018-09-04T13:08:25Z</time>
      </trkpt>
      <trkpt lat="45.647823" lon="13.768473">
        <ele>14.567</ele>
        <time>2018-09-04T13:08:41Z</time>
      </trkpt>
      <trkpt lat="45.647741" lon="13.768627">
        <ele>20.313</ele>
        <time>2018-09-04T13:08:52Z</time>
      </trkpt>
      <trkpt lat="45.647740" lon="13.768658">
        <ele>21.228</ele>
        <time>2018-09-04T13:08:54Z</time>
      </trkpt>
      <trkpt lat="45.647749" lon="13.768702">
        <ele>22.232</ele>
        <time>2018-09-04T13:08:56Z</time>
      </trkpt>
      <trkpt lat="45.647782" lon="13.768729">
        <ele>25.142</ele>
        <time>2018-09-04T13:09:01Z</time>
      </trkpt>
      <trkpt lat="45.647790" lon="13.768740">
        <ele>26.096</ele>
        <time>2018-09-04T13:09:02Z</time>
      </trkpt>
      <trkpt lat="45.647812" lon="13.768822">
        <ele>28.028</ele>
        <time>2018-09-04T13:09:16Z</time>
      </trkpt>
      <trkpt lat="45.647787" lon="13.768839">
        <ele>23.689</ele>
        <time>2018-09-04T13:09:30Z</time>
      </trkpt>
      <trkpt lat="45.647798" lon="13.768858">
        <ele>17.917</ele>
        <time>2018-09-04T13:09:56Z</time>
      </trkpt>
      <trkpt lat="45.647828" lon="13.768960">
        <ele>17.408</ele>
        <time>2018-09-04T13:10:05Z</time>
      </trkpt>
      <trkpt lat="45.647817" lon="13.768977">
        <ele>17.456</ele>
        <time>2018-09-04T13:10:06Z</time>
      </trkpt>
      <trkpt lat="45.647809" lon="13.768999">
        <ele>16.968</ele>
        <time>2018-09-04T13:10:08Z</time>
      </trkpt>
      <trkpt lat="45.647811" lon="13.769022">
        <ele>16.954</ele>
        <time>2018-09-04T13:10:09Z</time>
      </trkpt>
      <trkpt lat="45.647811" lon="13.769043">
        <ele>16.490</ele>
        <time>2018-09-04T13:10:10Z</time>
      </trkpt>
      <trkpt lat="45.647810" lon="13.769054">
        <ele>16.425</ele>
        <time>2018-09-04T13:10:11Z</time>
      </trkpt>
      <trkpt lat="45.647809" lon="13.769070">
        <ele>16.439</ele>
        <time>2018-09-04T13:10:12Z</time>
      </trkpt>
      <trkpt lat="45.647809" lon="13.769085">
        <ele>16.989</ele>
        <time>2018-09-04T13:10:13Z</time>
      </trkpt>
      <trkpt lat="45.647815" lon="13.769174">
        <ele>9.763</ele>
        <time>2018-09-04T13:10:26Z</time>
      </trkpt>
      <trkpt lat="45.647799" lon="13.769311">
        <ele>6.359</ele>
        <time>2018-09-04T13:10:38Z</time>
      </trkpt>
      <trkpt lat="45.647800" lon="13.769330">
        <ele>6.803</ele>
        <time>2018-09-04T13:10:39Z</time>
      </trkpt>
      <trkpt lat="45.647821" lon="13.769499">
        <ele>16.023</ele>
        <time>2018-09-04T13:10:53Z</time>
      </trkpt>
      <trkpt lat="45.647841" lon="13.769639">
        <ele>27.008</ele>
        <time>2018-09-04T13:11:08Z</time>
      </trkpt>
      <trkpt lat="45.647759" lon="13.769654">
        <ele>30.919</ele>
        <time>2018-09-04T13:11:15Z</time>
      </trkpt>
      <trkpt lat="45.647686" lon="13.769662">
        <ele>32.391</ele>
        <time>2018-09-04T13:11:21Z</time>
      </trkpt>
      <trkpt lat="45.647645" lon="13.769671">
        <ele>33.367</ele>
        <time>2018-09-04T13:11:25Z</time>
      </trkpt>
      <trkpt lat="45.647454" lon="13.769675">
        <ele>35.253</ele>
        <time>2018-09-04T13:11:43Z</time>
      </trkpt>
      <trkpt lat="45.647373" lon="13.769726">
        <ele>38.118</ele>
        <time>2018-09-04T13:11:53Z</time>
      </trkpt>
      <trkpt lat="45.647365" lon="13.769733">
        <ele>38.572</ele>
        <time>2018-09-04T13:11:54Z</time>
      </trkpt>
      <trkpt lat="45.647337" lon="13.769767">
        <ele>38.542</ele>
        <time>2018-09-04T13:11:58Z</time>
      </trkpt>
      <trkpt lat="45.647229" lon="13.769946">
        <ele>40.966</ele>
        <time>2018-09-04T13:12:14Z</time>
      </trkpt>
      <trkpt lat="45.647167" lon="13.770042">
        <ele>41.445</ele>
        <time>2018-09-04T13:12:23Z</time>
      </trkpt>
      <trkpt lat="45.647145" lon="13.770237">
        <ele>42.447</ele>
        <time>2018-09-04T13:12:39Z</time>
      </trkpt>
      <trkpt lat="45.647139" lon="13.770293">
        <ele>42.911</ele>
        <time>2018-09-04T13:12:45Z</time>
      </trkpt>
      <trkpt lat="45.647100" lon="13.770331">
        <ele>41.908</ele>
        <time>2018-09-04T13:12:56Z</time>
      </trkpt>
      <trkpt lat="45.647095" lon="13.770344">
        <ele>43.468</ele>
        <time>2018-09-04T13:13:12Z</time>
      </trkpt>
      <trkpt lat="45.647086" lon="13.770312">
        <ele>40.950</ele>
        <time>2018-09-04T13:13:38Z</time>
      </trkpt>
      <trkpt lat="45.647077" lon="13.770317">
        <ele>40.516</ele>
        <time>2018-09-04T13:14:11Z</time>
      </trkpt>
      <trkpt lat="45.647137" lon="13.770322">
        <ele>41.962</ele>
        <time>2018-09-04T13:14:23Z</time>
      </trkpt>
      <trkpt lat="45.647166" lon="13.770420">
        <ele>46.797</ele>
        <time>2018-09-04T13:14:37Z</time>
      </trkpt>
      <trkpt lat="45.647177" lon="13.770664">
        <ele>54.421</ele>
        <time>2018-09-04T13:14:55Z</time>
      </trkpt>
      <trkpt lat="45.647177" lon="13.770678">
        <ele>54.921</ele>
        <time>2018-09-04T13:14:56Z</time>
      </trkpt>
      <trkpt lat="45.647178" lon="13.770712">
        <ele>55.875</ele>
        <time>2018-09-04T13:14:58Z</time>
      </trkpt>
      <trkpt lat="45.647181" lon="13.770729">
        <ele>56.367</ele>
        <time>2018-09-04T13:14:59Z</time>
      </trkpt>
      <trkpt lat="45.647192" lon="13.770804">
        <ele>57.881</ele>
        <time>2018-09-04T13:15:04Z</time>
      </trkpt>
      <trkpt lat="45.647204" lon="13.771024">
        <ele>62.119</ele>
        <time>2018-09-04T13:15:21Z</time>
      </trkpt>
      <trkpt lat="45.647188" lon="13.771277">
        <ele>64.008</ele>
        <time>2018-09-04T13:15:41Z</time>
      </trkpt>
      <trkpt lat="45.647184" lon="13.771524">
        <ele>65.990</ele>
        <time>2018-09-04T13:16:00Z</time>
      </trkpt>
      <trkpt lat="45.647190" lon="13.771566">
        <ele>66.422</ele>
        <time>2018-09-04T13:16:03Z</time>
      </trkpt>
      <trkpt lat="45.647137" lon="13.771663">
        <ele>66.488</ele>
        <time>2018-09-04T13:16:11Z</time>
      </trkpt>
      <trkpt lat="45.647124" lon="13.771667">
        <ele>65.984</ele>
        <time>2018-09-04T13:16:12Z</time>
      </trkpt>
      <trkpt lat="45.646932" lon="13.771673">
        <ele>66.949</ele>
        <time>2018-09-04T13:16:31Z</time>
      </trkpt>
      <trkpt lat="45.646871" lon="13.771678">
        <ele>66.973</ele>
        <time>2018-09-04T13:16:54Z</time>
      </trkpt>
      <trkpt lat="45.646859" lon="13.771686">
        <ele>66.963</ele>
        <time>2018-09-04T13:16:56Z</time>
      </trkpt>
      <trkpt lat="45.646851" lon="13.771692">
        <ele>66.977</ele>
        <time>2018-09-04T13:16:57Z</time>
      </trkpt>
      <trkpt lat="45.646844" lon="13.771704">
        <ele>66.984</ele>
        <time>2018-09-04T13:16:58Z</time>
      </trkpt>
      <trkpt lat="45.646796" lon="13.772111">
        <ele>64.007</ele>
        <time>2018-09-04T13:17:13Z</time>
      </trkpt>
      <trkpt lat="45.646828" lon="13.772597">
        <ele>63.517</ele>
        <time>2018-09-04T13:17:27Z</time>
      </trkpt>
      <trkpt lat="45.646616" lon="13.772885">
        <ele>61.108</ele>
        <time>2018-09-04T13:17:39Z</time>
      </trkpt>
      <trkpt lat="45.646530" lon="13.772895">
        <ele>60.762</ele>
        <time>2018-09-04T13:17:41Z</time>
      </trkpt>
      <trkpt lat="45.646488" lon="13.772882">
        <ele>60.744</ele>
        <time>2018-09-04T13:17:42Z</time>
      </trkpt>
      <trkpt lat="45.646447" lon="13.772863">
        <ele>60.720</ele>
        <time>2018-09-04T13:17:43Z</time>
      </trkpt>
      <trkpt lat="45.646407" lon="13.772838">
        <ele>60.766</ele>
        <time>2018-09-04T13:17:44Z</time>
      </trkpt>
      <trkpt lat="45.646367" lon="13.772812">
        <ele>60.781</ele>
        <time>2018-09-04T13:17:45Z</time>
      </trkpt>
      <trkpt lat="45.646325" lon="13.772790">
        <ele>60.235</ele>
        <time>2018-09-04T13:17:46Z</time>
      </trkpt>
      <trkpt lat="45.646279" lon="13.772776">
        <ele>60.725</ele>
        <time>2018-09-04T13:17:47Z</time>
      </trkpt>
      <trkpt lat="45.646230" lon="13.772778">
        <ele>60.749</ele>
        <time>2018-09-04T13:17:48Z</time>
      </trkpt>
      <trkpt lat="45.646183" lon="13.772785">
        <ele>60.218</ele>
        <time>2018-09-04T13:17:49Z</time>
      </trkpt>
      <trkpt lat="45.646145" lon="13.772810">
        <ele>59.798</ele>
        <time>2018-09-04T13:17:50Z</time>
      </trkpt>
      <trkpt lat="45.646127" lon="13.772847">
        <ele>58.717</ele>
        <time>2018-09-04T13:17:51Z</time>
      </trkpt>
      <trkpt lat="45.646120" lon="13.772894">
        <ele>58.308</ele>
        <time>2018-09-04T13:17:52Z</time>
      </trkpt>
      <trkpt lat="45.646124" lon="13.772949">
        <ele>57.325</ele>
        <time>2018-09-04T13:17:53Z</time>
      </trkpt>
      <trkpt lat="45.646135" lon="13.773009">
        <ele>56.887</ele>
        <time>2018-09-04T13:17:54Z</time>
      </trkpt>
      <trkpt lat="45.646144" lon="13.773069">
        <ele>55.893</ele>
        <time>2018-09-04T13:17:55Z</time>
      </trkpt>
      <trkpt lat="45.646148" lon="13.773133">
        <ele>55.499</ele>
        <time>2018-09-04T13:17:56Z</time>
      </trkpt>
      <trkpt lat="45.646143" lon="13.773197">
        <ele>54.464</ele>
        <time>2018-09-04T13:17:57Z</time>
      </trkpt>
      <trkpt lat="45.646133" lon="13.773256">
        <ele>53.918</ele>
        <time>2018-09-04T13:17:58Z</time>
      </trkpt>
      <trkpt lat="45.646090" lon="13.773398">
        <ele>52.568</ele>
        <time>2018-09-04T13:18:02Z</time>
      </trkpt>
      <trkpt lat="45.646073" lon="13.773403">
        <ele>52.572</ele>
        <time>2018-09-04T13:18:03Z</time>
      </trkpt>
      <trkpt lat="45.646053" lon="13.773387">
        <ele>52.042</ele>
        <time>2018-09-04T13:18:04Z</time>
      </trkpt>
      <trkpt lat="45.646036" lon="13.773367">
        <ele>51.522</ele>
        <time>2018-09-04T13:18:05Z</time>
      </trkpt>
      <trkpt lat="45.646018" lon="13.773335">
        <ele>51.014</ele>
        <time>2018-09-04T13:18:06Z</time>
      </trkpt>
      <trkpt lat="45.646001" lon="13.773286">
        <ele>50.608</ele>
        <time>2018-09-04T13:18:07Z</time>
      </trkpt>
      <trkpt lat="45.645984" lon="13.773232">
        <ele>50.138</ele>
        <time>2018-09-04T13:18:08Z</time>
      </trkpt>
      <trkpt lat="45.645965" lon="13.773175">
        <ele>49.120</ele>
        <time>2018-09-04T13:18:09Z</time>
      </trkpt>
      <trkpt lat="45.645906" lon="13.772997">
        <ele>46.756</ele>
        <time>2018-09-04T13:18:12Z</time>
      </trkpt>
      <trkpt lat="45.645877" lon="13.772947">
        <ele>46.232</ele>
        <time>2018-09-04T13:18:13Z</time>
      </trkpt>
      <trkpt lat="45.645842" lon="13.772911">
        <ele>45.357</ele>
        <time>2018-09-04T13:18:14Z</time>
      </trkpt>
      <trkpt lat="45.645801" lon="13.772892">
        <ele>45.381</ele>
        <time>2018-09-04T13:18:15Z</time>
      </trkpt>
      <trkpt lat="45.645768" lon="13.772890">
        <ele>45.341</ele>
        <time>2018-09-04T13:18:16Z</time>
      </trkpt>
      <trkpt lat="45.645744" lon="13.772915">
        <ele>45.365</ele>
        <time>2018-09-04T13:18:17Z</time>
      </trkpt>
      <trkpt lat="45.645729" lon="13.772964">
        <ele>45.339</ele>
        <time>2018-09-04T13:18:18Z</time>
      </trkpt>
      <trkpt lat="45.645719" lon="13.773005">
        <ele>45.301</ele>
        <time>2018-09-04T13:18:19Z</time>
      </trkpt>
      <trkpt lat="45.645703" lon="13.773072">
        <ele>45.321</ele>
        <time>2018-09-04T13:18:20Z</time>
      </trkpt>
      <trkpt lat="45.645693" lon="13.773147">
        <ele>45.308</ele>
        <time>2018-09-04T13:18:21Z</time>
      </trkpt>
      <trkpt lat="45.645682" lon="13.773223">
        <ele>45.347</ele>
        <time>2018-09-04T13:18:22Z</time>
      </trkpt>
      <trkpt lat="45.645396" lon="13.774377">
        <ele>44.329</ele>
        <time>2018-09-04T13:18:34Z</time>
      </trkpt>
      <trkpt lat="45.645050" lon="13.775564">
        <ele>47.225</ele>
        <time>2018-09-04T13:18:46Z</time>
      </trkpt>
      <trkpt lat="45.644870" lon="13.776204">
        <ele>48.641</ele>
        <time>2018-09-04T13:19:00Z</time>
      </trkpt>
      <trkpt lat="45.644660" lon="13.776950">
        <ele>51.546</ele>
        <time>2018-09-04T13:19:19Z</time>
      </trkpt>
      <trkpt lat="45.644522" lon="13.777340">
        <ele>52.510</ele>
        <time>2018-09-04T13:19:30Z</time>
      </trkpt>
      <trkpt lat="45.644241" lon="13.777714">
        <ele>57.860</ele>
        <time>2018-09-04T13:19:46Z</time>
      </trkpt>
      <trkpt lat="45.644008" lon="13.777860">
        <ele>57.354</ele>
        <time>2018-09-04T13:19:57Z</time>
      </trkpt>
      <trkpt lat="45.643992" lon="13.777866">
        <ele>57.383</ele>
        <time>2018-09-04T13:19:58Z</time>
      </trkpt>
      <trkpt lat="45.643978" lon="13.777876">
        <ele>57.325</ele>
        <time>2018-09-04T13:19:59Z</time>
      </trkpt>
      <trkpt lat="45.643960" lon="13.777887">
        <ele>57.817</ele>
        <time>2018-09-04T13:20:00Z</time>
      </trkpt>
      <trkpt lat="45.643941" lon="13.777901">
        <ele>57.808</ele>
        <time>2018-09-04T13:20:01Z</time>
      </trkpt>
      <trkpt lat="45.643924" lon="13.777918">
        <ele>57.892</ele>
        <time>2018-09-04T13:20:02Z</time>
      </trkpt>
      <trkpt lat="45.643906" lon="13.777937">
        <ele>57.864</ele>
        <time>2018-09-04T13:20:03Z</time>
      </trkpt>
      <trkpt lat="45.643526" lon="13.778278">
        <ele>56.310</ele>
        <time>2018-09-04T13:20:16Z</time>
      </trkpt>
      <trkpt lat="45.643093" lon="13.778563">
        <ele>58.326</ele>
        <time>2018-09-04T13:20:27Z</time>
      </trkpt>
      <trkpt lat="45.642538" lon="13.779003">
        <ele>58.761</ele>
        <time>2018-09-04T13:20:42Z</time>
      </trkpt>
      <trkpt lat="45.642158" lon="13.779309">
        <ele>61.185</ele>
        <time>2018-09-04T13:20:53Z</time>
      </trkpt>
      <trkpt lat="45.642118" lon="13.779333">
        <ele>61.115</ele>
        <time>2018-09-04T13:20:54Z</time>
      </trkpt>
      <trkpt lat="45.642082" lon="13.779366">
        <ele>61.199</ele>
        <time>2018-09-04T13:20:55Z</time>
      </trkpt>
      <trkpt lat="45.642041" lon="13.779398">
        <ele>60.791</ele>
        <time>2018-09-04T13:20:56Z</time>
      </trkpt>
      <trkpt lat="45.641995" lon="13.779445">
        <ele>60.781</ele>
        <time>2018-09-04T13:20:57Z</time>
      </trkpt>
      <trkpt lat="45.641967" lon="13.779487">
        <ele>60.719</ele>
        <time>2018-09-04T13:20:58Z</time>
      </trkpt>
      <trkpt lat="45.641471" lon="13.780075">
        <ele>63.108</ele>
        <time>2018-09-04T13:21:12Z</time>
      </trkpt>
      <trkpt lat="45.641441" lon="13.780122">
        <ele>63.543</ele>
        <time>2018-09-04T13:21:13Z</time>
      </trkpt>
      <trkpt lat="45.641184" lon="13.780680">
        <ele>65.945</ele>
        <time>2018-09-04T13:21:26Z</time>
      </trkpt>
      <trkpt lat="45.640996" lon="13.781010">
        <ele>64.591</ele>
        <time>2018-09-04T13:21:37Z</time>
      </trkpt>
      <trkpt lat="45.640979" lon="13.781037">
        <ele>64.577</ele>
        <time>2018-09-04T13:21:38Z</time>
      </trkpt>
      <trkpt lat="45.640968" lon="13.781067">
        <ele>64.552</ele>
        <time>2018-09-04T13:21:39Z</time>
      </trkpt>
      <trkpt lat="45.640891" lon="13.781176">
        <ele>65.576</ele>
        <time>2018-09-04T13:21:43Z</time>
      </trkpt>
      <trkpt lat="45.640858" lon="13.781181">
        <ele>65.576</ele>
        <time>2018-09-04T13:21:44Z</time>
      </trkpt>
      <trkpt lat="45.640838" lon="13.781184">
        <ele>65.580</ele>
        <time>2018-09-04T13:21:45Z</time>
      </trkpt>
      <trkpt lat="45.640807" lon="13.781186">
        <ele>65.582</ele>
        <time>2018-09-04T13:21:46Z</time>
      </trkpt>
      <trkpt lat="45.640774" lon="13.781189">
        <ele>65.543</ele>
        <time>2018-09-04T13:21:47Z</time>
      </trkpt>
      <trkpt lat="45.640335" lon="13.781150">
        <ele>62.117</ele>
        <time>2018-09-04T13:22:01Z</time>
      </trkpt>
      <trkpt lat="45.640260" lon="13.781130">
        <ele>61.608</ele>
        <time>2018-09-04T13:22:04Z</time>
      </trkpt>
      <trkpt lat="45.640235" lon="13.781148">
        <ele>61.612</ele>
        <time>2018-09-04T13:22:05Z</time>
      </trkpt>
      <trkpt lat="45.640210" lon="13.781171">
        <ele>61.614</ele>
        <time>2018-09-04T13:22:06Z</time>
      </trkpt>
      <trkpt lat="45.640183" lon="13.781214">
        <ele>59.720</ele>
        <time>2018-09-04T13:22:16Z</time>
      </trkpt>
      <trkpt lat="45.640011" lon="13.781407">
        <ele>56.366</ele>
        <time>2018-09-04T13:22:25Z</time>
      </trkpt>
      <trkpt lat="45.639940" lon="13.781474">
        <ele>54.911</ele>
        <time>2018-09-04T13:22:29Z</time>
      </trkpt>
      <trkpt lat="45.640021" lon="13.781516">
        <ele>53.045</ele>
        <time>2018-09-04T13:22:40Z</time>
      </trkpt>
      <trkpt lat="45.640079" lon="13.781482">
        <ele>51.045</ele>
        <time>2018-09-04T13:22:55Z</time>
      </trkpt>
      <trkpt lat="45.640095" lon="13.781533">
        <ele>49.159</ele>
        <time>2018-09-04T13:23:03Z</time>
      </trkpt>
      <trkpt lat="45.640021" lon="13.781622">
        <ele>49.166</ele>
        <time>2018-09-04T13:23:11Z</time>
      </trkpt>
      <trkpt lat="45.639771" lon="13.781787">
        <ele>50.629</ele>
        <time>2018-09-04T13:23:22Z</time>
      </trkpt>
      <trkpt lat="45.639289" lon="13.782121">
        <ele>53.421</ele>
        <time>2018-09-04T13:23:36Z</time>
      </trkpt>
      <trkpt lat="45.638684" lon="13.782657">
        <ele>52.508</ele>
        <time>2018-09-04T13:23:58Z</time>
      </trkpt>
      <trkpt lat="45.638331" lon="13.782969">
        <ele>53.010</ele>
        <time>2018-09-04T13:24:13Z</time>
      </trkpt>
      <trkpt lat="45.638013" lon="13.783294">
        <ele>55.442</ele>
        <time>2018-09-04T13:24:26Z</time>
      </trkpt>
      <trkpt lat="45.637603" lon="13.783680">
        <ele>58.788</ele>
        <time>2018-09-04T13:24:41Z</time>
      </trkpt>
      <trkpt lat="45.637323" lon="13.783941">
        <ele>61.684</ele>
        <time>2018-09-04T13:24:52Z</time>
      </trkpt>
      <trkpt lat="45.636853" lon="13.784340">
        <ele>62.689</ele>
        <time>2018-09-04T13:25:09Z</time>
      </trkpt>
      <trkpt lat="45.636356" lon="13.784772">
        <ele>64.583</ele>
        <time>2018-09-04T13:25:27Z</time>
      </trkpt>
      <trkpt lat="45.635855" lon="13.785301">
        <ele>65.973</ele>
        <time>2018-09-04T13:25:46Z</time>
      </trkpt>
      <trkpt lat="45.635553" lon="13.785791">
        <ele>66.957</ele>
        <time>2018-09-04T13:26:02Z</time>
      </trkpt>
      <trkpt lat="45.635290" lon="13.786544">
        <ele>67.958</ele>
        <time>2018-09-04T13:26:20Z</time>
      </trkpt>
      <trkpt lat="45.635122" lon="13.787580">
        <ele>71.752</ele>
        <time>2018-09-04T13:26:41Z</time>
      </trkpt>
      <trkpt lat="45.635017" lon="13.788467">
        <ele>73.217</ele>
        <time>2018-09-04T13:26:59Z</time>
      </trkpt>
      <trkpt lat="45.635070" lon="13.788674">
        <ele>74.608</ele>
        <time>2018-09-04T13:27:05Z</time>
      </trkpt>
      <trkpt lat="45.635074" lon="13.788720">
        <ele>75.129</ele>
        <time>2018-09-04T13:27:06Z</time>
      </trkpt>
      <trkpt lat="45.635075" lon="13.788745">
        <ele>75.151</ele>
        <time>2018-09-04T13:27:07Z</time>
      </trkpt>
      <trkpt lat="45.635074" lon="13.788782">
        <ele>75.647</ele>
        <time>2018-09-04T13:27:08Z</time>
      </trkpt>
      <trkpt lat="45.635070" lon="13.788822">
        <ele>76.043</ele>
        <time>2018-09-04T13:27:09Z</time>
      </trkpt>
      <trkpt lat="45.635066" lon="13.788860">
        <ele>76.088</ele>
        <time>2018-09-04T13:27:10Z</time>
      </trkpt>
      <trkpt lat="45.634995" lon="13.789434">
        <ele>78.912</ele>
        <time>2018-09-04T13:27:24Z</time>
      </trkpt>
      <trkpt lat="45.634930" lon="13.789713">
        <ele>77.542</ele>
        <time>2018-09-04T13:27:30Z</time>
      </trkpt>
      <trkpt lat="45.634942" lon="13.789766">
        <ele>77.576</ele>
        <time>2018-09-04T13:27:31Z</time>
      </trkpt>
      <trkpt lat="45.634929" lon="13.790109">
        <ele>78.964</ele>
        <time>2018-09-04T13:27:40Z</time>
      </trkpt>
      <trkpt lat="45.634810" lon="13.790923">
        <ele>79.906</ele>
        <time>2018-09-04T13:27:59Z</time>
      </trkpt>
      <trkpt lat="45.634738" lon="13.791706">
        <ele>80.816</ele>
        <time>2018-09-04T13:28:17Z</time>
      </trkpt>
      <trkpt lat="45.634737" lon="13.792498">
        <ele>82.808</ele>
        <time>2018-09-04T13:28:35Z</time>
      </trkpt>
      <trkpt lat="45.634758" lon="13.793148">
        <ele>82.850</ele>
        <time>2018-09-04T13:28:49Z</time>
      </trkpt>
      <trkpt lat="45.634801" lon="13.793488">
        <ele>82.822</ele>
        <time>2018-09-04T13:28:55Z</time>
      </trkpt>
      <trkpt lat="45.634810" lon="13.793544">
        <ele>83.288</ele>
        <time>2018-09-04T13:28:56Z</time>
      </trkpt>
      <trkpt lat="45.634915" lon="13.794601">
        <ele>87.674</ele>
        <time>2018-09-04T13:29:13Z</time>
      </trkpt>
      <trkpt lat="45.634946" lon="13.795066">
        <ele>88.519</ele>
        <time>2018-09-04T13:29:20Z</time>
      </trkpt>
      <trkpt lat="45.634943" lon="13.795201">
        <ele>88.133</ele>
        <time>2018-09-04T13:29:22Z</time>
      </trkpt>
      <trkpt lat="45.635081" lon="13.796289">
        <ele>85.223</ele>
        <time>2018-09-04T13:29:38Z</time>
      </trkpt>
      <trkpt lat="45.635196" lon="13.797442">
        <ele>85.677</ele>
        <time>2018-09-04T13:29:55Z</time>
      </trkpt>
      <trkpt lat="45.635214" lon="13.797650">
        <ele>86.197</ele>
        <time>2018-09-04T13:29:58Z</time>
      </trkpt>
      <trkpt lat="45.635312" lon="13.798660">
        <ele>87.623</ele>
        <time>2018-09-04T13:30:14Z</time>
      </trkpt>
      <trkpt lat="45.635349" lon="13.799382">
        <ele>91.425</ele>
        <time>2018-09-04T13:30:28Z</time>
      </trkpt>
      <trkpt lat="45.635280" lon="13.800083">
        <ele>94.308</ele>
        <time>2018-09-04T13:30:41Z</time>
      </trkpt>
      <trkpt lat="45.635147" lon="13.800740">
        <ele>99.123</ele>
        <time>2018-09-04T13:30:55Z</time>
      </trkpt>
      <trkpt lat="45.634925" lon="13.801547">
        <ele>94.865</ele>
        <time>2018-09-04T13:31:09Z</time>
      </trkpt>
      <trkpt lat="45.634610" lon="13.802164">
        <ele>94.351</ele>
        <time>2018-09-04T13:31:23Z</time>
      </trkpt>
      <trkpt lat="45.634216" lon="13.802610">
        <ele>96.267</ele>
        <time>2018-09-04T13:31:38Z</time>
      </trkpt>
      <trkpt lat="45.633867" lon="13.803056">
        <ele>99.692</ele>
        <time>2018-09-04T13:31:53Z</time>
      </trkpt>
      <trkpt lat="45.633608" lon="13.803535">
        <ele>103.076</ele>
        <time>2018-09-04T13:32:06Z</time>
      </trkpt>
      <trkpt lat="45.633291" lon="13.804190">
        <ele>104.976</ele>
        <time>2018-09-04T13:32:22Z</time>
      </trkpt>
      <trkpt lat="45.632836" lon="13.804728">
        <ele>103.930</ele>
        <time>2018-09-04T13:32:38Z</time>
      </trkpt>
      <trkpt lat="45.632069" lon="13.805019">
        <ele>104.989</ele>
        <time>2018-09-04T13:33:00Z</time>
      </trkpt>
      <trkpt lat="45.631452" lon="13.804999">
        <ele>107.306</ele>
        <time>2018-09-04T13:33:19Z</time>
      </trkpt>
      <trkpt lat="45.630902" lon="13.805175">
        <ele>109.726</ele>
        <time>2018-09-04T13:33:37Z</time>
      </trkpt>
      <trkpt lat="45.630356" lon="13.805701">
        <ele>111.608</ele>
        <time>2018-09-04T13:33:58Z</time>
      </trkpt>
      <trkpt lat="45.630107" lon="13.806165">
        <ele>112.632</ele>
        <time>2018-09-04T13:34:11Z</time>
      </trkpt>
      <trkpt lat="45.629970" lon="13.806723">
        <ele>115.964</ele>
        <time>2018-09-04T13:34:24Z</time>
      </trkpt>
      <trkpt lat="45.629891" lon="13.807569">
        <ele>117.960</ele>
        <time>2018-09-04T13:34:42Z</time>
      </trkpt>
      <trkpt lat="45.629824" lon="13.808114">
        <ele>121.726</ele>
        <time>2018-09-04T13:34:54Z</time>
      </trkpt>
      <trkpt lat="45.629676" lon="13.808782">
        <ele>124.181</ele>
        <time>2018-09-04T13:35:09Z</time>
      </trkpt>
      <trkpt lat="45.629567" lon="13.809288">
        <ele>125.585</ele>
        <time>2018-09-04T13:35:21Z</time>
      </trkpt>
      <trkpt lat="45.629525" lon="13.809892">
        <ele>127.955</ele>
        <time>2018-09-04T13:35:34Z</time>
      </trkpt>
      <trkpt lat="45.629622" lon="13.810611">
        <ele>125.169</ele>
        <time>2018-09-04T13:35:49Z</time>
      </trkpt>
      <trkpt lat="45.629909" lon="13.811485">
        <ele>124.136</ele>
        <time>2018-09-04T13:36:09Z</time>
      </trkpt>
      <trkpt lat="45.630134" lon="13.812265">
        <ele>127.917</ele>
        <time>2018-09-04T13:36:28Z</time>
      </trkpt>
      <trkpt lat="45.630306" lon="13.813087">
        <ele>129.918</ele>
        <time>2018-09-04T13:36:47Z</time>
      </trkpt>
      <trkpt lat="45.630419" lon="13.813684">
        <ele>131.308</ele>
        <time>2018-09-04T13:37:01Z</time>
      </trkpt>
      <trkpt lat="45.630548" lon="13.814417">
        <ele>132.387</ele>
        <time>2018-09-04T13:37:17Z</time>
      </trkpt>
      <trkpt lat="45.630664" lon="13.815077">
        <ele>133.799</ele>
        <time>2018-09-04T13:37:32Z</time>
      </trkpt>
      <trkpt lat="45.630679" lon="13.815823">
        <ele>138.585</ele>
        <time>2018-09-04T13:37:48Z</time>
      </trkpt>
      <trkpt lat="45.630612" lon="13.816188">
        <ele>139.051</ele>
        <time>2018-09-04T13:37:56Z</time>
      </trkpt>
      <trkpt lat="45.630587" lon="13.816238">
        <ele>139.016</ele>
        <time>2018-09-04T13:37:58Z</time>
      </trkpt>
      <trkpt lat="45.630415" lon="13.816754">
        <ele>139.060</ele>
        <time>2018-09-04T13:38:11Z</time>
      </trkpt>
      <trkpt lat="45.629950" lon="13.817430">
        <ele>139.020</ele>
        <time>2018-09-04T13:38:31Z</time>
      </trkpt>
      <trkpt lat="45.629592" lon="13.817784">
        <ele>140.914</ele>
        <time>2018-09-04T13:38:45Z</time>
      </trkpt>
      <trkpt lat="45.629200" lon="13.818304">
        <ele>145.321</ele>
        <time>2018-09-04T13:39:02Z</time>
      </trkpt>
      <trkpt lat="45.628967" lon="13.818982">
        <ele>149.641</ele>
        <time>2018-09-04T13:39:17Z</time>
      </trkpt>
      <trkpt lat="45.628875" lon="13.819741">
        <ele>150.105</ele>
        <time>2018-09-04T13:39:32Z</time>
      </trkpt>
      <trkpt lat="45.629021" lon="13.820637">
        <ele>150.508</ele>
        <time>2018-09-04T13:39:49Z</time>
      </trkpt>
      <trkpt lat="45.629282" lon="13.821520">
        <ele>152.556</ele>
        <time>2018-09-04T13:40:08Z</time>
      </trkpt>
      <trkpt lat="45.629524" lon="13.822283">
        <ele>155.388</ele>
        <time>2018-09-04T13:40:25Z</time>
      </trkpt>
      <trkpt lat="45.629759" lon="13.823024">
        <ele>156.844</ele>
        <time>2018-09-04T13:40:42Z</time>
      </trkpt>
      <trkpt lat="45.629898" lon="13.823612">
        <ele>156.810</ele>
        <time>2018-09-04T13:40:54Z</time>
      </trkpt>
      <trkpt lat="45.629754" lon="13.824105">
        <ele>157.335</ele>
        <time>2018-09-04T13:41:04Z</time>
      </trkpt>
      <trkpt lat="45.629432" lon="13.824579">
        <ele>159.739</ele>
        <time>2018-09-04T13:41:17Z</time>
      </trkpt>
      <trkpt lat="45.629496" lon="13.824926">
        <ele>161.699</ele>
        <time>2018-09-04T13:41:28Z</time>
      </trkpt>
      <trkpt lat="45.629438" lon="13.825324">
        <ele>165.023</ele>
        <time>2018-09-04T13:41:41Z</time>
      </trkpt>
      <trkpt lat="45.629479" lon="13.825620">
        <ele>166.932</ele>
        <time>2018-09-04T13:41:53Z</time>
      </trkpt>
      <trkpt lat="45.629892" lon="13.825647">
        <ele>168.892</ele>
        <time>2018-09-04T13:42:11Z</time>
      </trkpt>
      <trkpt lat="45.630177" lon="13.825768">
        <ele>168.311</ele>
        <time>2018-09-04T13:42:23Z</time>
      </trkpt>
      <trkpt lat="45.630218" lon="13.825976">
        <ele>167.408</ele>
        <time>2018-09-04T13:42:27Z</time>
      </trkpt>
      <trkpt lat="45.630209" lon="13.826050">
        <ele>166.957</ele>
        <time>2018-09-04T13:42:28Z</time>
      </trkpt>
      <trkpt lat="45.630206" lon="13.826130">
        <ele>166.489</ele>
        <time>2018-09-04T13:42:29Z</time>
      </trkpt>
      <trkpt lat="45.630213" lon="13.826218">
        <ele>165.925</ele>
        <time>2018-09-04T13:42:30Z</time>
      </trkpt>
      <trkpt lat="45.630234" lon="13.826312">
        <ele>165.461</ele>
        <time>2018-09-04T13:42:31Z</time>
      </trkpt>
      <trkpt lat="45.630269" lon="13.826406">
        <ele>165.016</ele>
        <time>2018-09-04T13:42:32Z</time>
      </trkpt>
      <trkpt lat="45.630307" lon="13.826491">
        <ele>164.580</ele>
        <time>2018-09-04T13:42:33Z</time>
      </trkpt>
      <trkpt lat="45.630453" lon="13.826855">
        <ele>164.530</ele>
        <time>2018-09-04T13:42:38Z</time>
      </trkpt>
      <trkpt lat="45.630575" lon="13.827670">
        <ele>165.464</ele>
        <time>2018-09-04T13:42:53Z</time>
      </trkpt>
      <trkpt lat="45.630531" lon="13.828286">
        <ele>168.376</ele>
        <time>2018-09-04T13:43:06Z</time>
      </trkpt>
      <trkpt lat="45.630401" lon="13.828937">
        <ele>173.690</ele>
        <time>2018-09-04T13:43:20Z</time>
      </trkpt>
      <trkpt lat="45.630342" lon="13.829707">
        <ele>174.619</ele>
        <time>2018-09-04T13:43:36Z</time>
      </trkpt>
      <trkpt lat="45.630395" lon="13.830427">
        <ele>174.108</ele>
        <time>2018-09-04T13:43:51Z</time>
      </trkpt>
      <trkpt lat="45.630575" lon="13.831172">
        <ele>174.651</ele>
        <time>2018-09-04T13:44:08Z</time>
      </trkpt>
      <trkpt lat="45.630854" lon="13.831834">
        <ele>177.963</ele>
        <time>2018-09-04T13:44:25Z</time>
      </trkpt>
      <trkpt lat="45.631146" lon="13.832472">
        <ele>179.999</ele>
        <time>2018-09-04T13:44:42Z</time>
      </trkpt>
      <trkpt lat="45.631309" lon="13.833156">
        <ele>182.375</ele>
        <time>2018-09-04T13:44:57Z</time>
      </trkpt>
      <trkpt lat="45.631293" lon="13.833998">
        <ele>182.770</ele>
        <time>2018-09-04T13:45:15Z</time>
      </trkpt>
      <trkpt lat="45.631062" lon="13.834734">
        <ele>184.714</ele>
        <time>2018-09-04T13:45:33Z</time>
      </trkpt>
      <trkpt lat="45.630769" lon="13.835182">
        <ele>187.124</ele>
        <time>2018-09-04T13:45:46Z</time>
      </trkpt>
      <trkpt lat="45.630405" lon="13.835550">
        <ele>188.578</ele>
        <time>2018-09-04T13:46:00Z</time>
      </trkpt>
      <trkpt lat="45.630018" lon="13.835825">
        <ele>192.474</ele>
        <time>2018-09-04T13:46:14Z</time>
      </trkpt>
      <trkpt lat="45.629840" lon="13.836058">
        <ele>194.856</ele>
        <time>2018-09-04T13:46:26Z</time>
      </trkpt>
      <trkpt lat="45.629367" lon="13.838763">
        <ele>215.921</ele>
        <time>2018-09-04T13:47:23Z</time>
      </trkpt>
      <trkpt lat="45.629332" lon="13.838782">
        <ele>214.908</ele>
        <time>2018-09-04T13:47:24Z</time>
      </trkpt>
      <trkpt lat="45.629340" lon="13.838822">
        <ele>214.571</ele>
        <time>2018-09-04T13:47:25Z</time>
      </trkpt>
      <trkpt lat="45.629346" lon="13.838840">
        <ele>212.593</ele>
        <time>2018-09-04T13:47:26Z</time>
      </trkpt>
      <trkpt lat="45.629428" lon="13.839359">
        <ele>204.489</ele>
        <time>2018-09-04T13:47:38Z</time>
      </trkpt>
      <trkpt lat="45.629468" lon="13.839900">
        <ele>204.955</ele>
        <time>2018-09-04T13:47:51Z</time>
      </trkpt>
      <trkpt lat="45.629358" lon="13.840654">
        <ele>203.980</ele>
        <time>2018-09-04T13:48:06Z</time>
      </trkpt>
      <trkpt lat="45.629084" lon="13.841297">
        <ele>202.444</ele>
        <time>2018-09-04T13:48:22Z</time>
      </trkpt>
      <trkpt lat="45.628694" lon="13.841799">
        <ele>205.354</ele>
        <time>2018-09-04T13:48:39Z</time>
      </trkpt>
      <trkpt lat="45.628327" lon="13.842092">
        <ele>207.318</ele>
        <time>2018-09-04T13:48:54Z</time>
      </trkpt>
      <trkpt lat="45.627966" lon="13.842361">
        <ele>207.363</ele>
        <time>2018-09-04T13:49:08Z</time>
      </trkpt>
      <trkpt lat="45.627553" lon="13.842720">
        <ele>207.344</ele>
        <time>2018-09-04T13:49:24Z</time>
      </trkpt>
      <trkpt lat="45.627095" lon="13.843123">
        <ele>209.218</ele>
        <time>2018-09-04T13:49:42Z</time>
      </trkpt>
      <trkpt lat="45.626864" lon="13.843330">
        <ele>214.508</ele>
        <time>2018-09-04T13:49:54Z</time>
      </trkpt>
      <trkpt lat="45.626842" lon="13.843354">
        <ele>214.940</ele>
        <time>2018-09-04T13:49:56Z</time>
      </trkpt>
      <trkpt lat="45.626835" lon="13.843380">
        <ele>214.932</ele>
        <time>2018-09-04T13:49:57Z</time>
      </trkpt>
      <trkpt lat="45.626820" lon="13.843409">
        <ele>214.958</ele>
        <time>2018-09-04T13:49:58Z</time>
      </trkpt>
      <trkpt lat="45.626804" lon="13.843432">
        <ele>214.964</ele>
        <time>2018-09-04T13:49:59Z</time>
      </trkpt>
      <trkpt lat="45.626787" lon="13.843451">
        <ele>215.499</ele>
        <time>2018-09-04T13:50:00Z</time>
      </trkpt>
      <trkpt lat="45.626519" lon="13.843914">
        <ele>215.423</ele>
        <time>2018-09-04T13:50:13Z</time>
      </trkpt>
      <trkpt lat="45.626415" lon="13.844133">
        <ele>214.993</ele>
        <time>2018-09-04T13:50:17Z</time>
      </trkpt>
      <trkpt lat="45.626401" lon="13.844197">
        <ele>214.587</ele>
        <time>2018-09-04T13:50:18Z</time>
      </trkpt>
      <trkpt lat="45.626409" lon="13.844257">
        <ele>214.569</ele>
        <time>2018-09-04T13:50:19Z</time>
      </trkpt>
      <trkpt lat="45.626432" lon="13.844322">
        <ele>214.004</ele>
        <time>2018-09-04T13:50:20Z</time>
      </trkpt>
      <trkpt lat="45.626436" lon="13.844371">
        <ele>214.024</ele>
        <time>2018-09-04T13:50:21Z</time>
      </trkpt>
      <trkpt lat="45.626427" lon="13.844421">
        <ele>214.008</ele>
        <time>2018-09-04T13:50:22Z</time>
      </trkpt>
      <trkpt lat="45.626411" lon="13.844459">
        <ele>214.570</ele>
        <time>2018-09-04T13:50:23Z</time>
      </trkpt>
      <trkpt lat="45.626396" lon="13.844494">
        <ele>214.512</ele>
        <time>2018-09-04T13:50:24Z</time>
      </trkpt>
      <trkpt lat="45.626223" lon="13.844841">
        <ele>215.928</ele>
        <time>2018-09-04T13:50:35Z</time>
      </trkpt>
      <trkpt lat="45.626207" lon="13.844865">
        <ele>215.984</ele>
        <time>2018-09-04T13:50:36Z</time>
      </trkpt>
      <trkpt lat="45.626193" lon="13.844893">
        <ele>216.449</ele>
        <time>2018-09-04T13:50:37Z</time>
      </trkpt>
      <trkpt lat="45.626179" lon="13.844922">
        <ele>216.913</ele>
        <time>2018-09-04T13:50:38Z</time>
      </trkpt>
      <trkpt lat="45.626165" lon="13.844950">
        <ele>217.473</ele>
        <time>2018-09-04T13:50:39Z</time>
      </trkpt>
      <trkpt lat="45.625941" lon="13.845422">
        <ele>223.147</ele>
        <time>2018-09-04T13:50:55Z</time>
      </trkpt>
      <trkpt lat="45.625673" lon="13.845849">
        <ele>228.494</ele>
        <time>2018-09-04T13:51:08Z</time>
      </trkpt>
      <trkpt lat="45.625404" lon="13.846365">
        <ele>230.357</ele>
        <time>2018-09-04T13:51:21Z</time>
      </trkpt>
      <trkpt lat="45.625226" lon="13.846969">
        <ele>231.822</ele>
        <time>2018-09-04T13:51:34Z</time>
      </trkpt>
      <trkpt lat="45.625163" lon="13.847661">
        <ele>231.308</ele>
        <time>2018-09-04T13:51:47Z</time>
      </trkpt>
      <trkpt lat="45.625234" lon="13.848432">
        <ele>227.963</ele>
        <time>2018-09-04T13:52:00Z</time>
      </trkpt>
      <trkpt lat="45.625283" lon="13.848855">
        <ele>227.075</ele>
        <time>2018-09-04T13:52:07Z</time>
      </trkpt>
      <trkpt lat="45.625410" lon="13.849865">
        <ele>226.021</ele>
        <time>2018-09-04T13:52:23Z</time>
      </trkpt>
      <trkpt lat="45.625546" lon="13.850987">
        <ele>223.117</ele>
        <time>2018-09-04T13:52:39Z</time>
      </trkpt>
      <trkpt lat="45.625646" lon="13.852165">
        <ele>222.282</ele>
        <time>2018-09-04T13:52:56Z</time>
      </trkpt>
      <trkpt lat="45.625689" lon="13.852530">
        <ele>221.286</ele>
        <time>2018-09-04T13:53:01Z</time>
      </trkpt>
      <trkpt lat="45.625700" lon="13.852600">
        <ele>221.296</ele>
        <time>2018-09-04T13:53:02Z</time>
      </trkpt>
      <trkpt lat="45.625794" lon="13.853659">
        <ele>221.720</ele>
        <time>2018-09-04T13:53:18Z</time>
      </trkpt>
      <trkpt lat="45.625829" lon="13.854436">
        <ele>222.299</ele>
        <time>2018-09-04T13:53:32Z</time>
      </trkpt>
      <trkpt lat="45.625847" lon="13.855078">
        <ele>223.107</ele>
        <time>2018-09-04T13:53:46Z</time>
      </trkpt>
      <trkpt lat="45.625837" lon="13.855775">
        <ele>226.527</ele>
        <time>2018-09-04T13:54:01Z</time>
      </trkpt>
      <trkpt lat="45.625758" lon="13.856399">
        <ele>229.408</ele>
        <time>2018-09-04T13:54:15Z</time>
      </trkpt>
      <trkpt lat="45.625632" lon="13.856989">
        <ele>234.723</ele>
        <time>2018-09-04T13:54:29Z</time>
      </trkpt>
      <trkpt lat="45.625579" lon="13.857752">
        <ele>239.055</ele>
        <time>2018-09-04T13:54:47Z</time>
      </trkpt>
      <trkpt lat="45.625556" lon="13.858357">
        <ele>239.541</ele>
        <time>2018-09-04T13:55:02Z</time>
      </trkpt>
      <trkpt lat="45.625543" lon="13.858903">
        <ele>240.497</ele>
        <time>2018-09-04T13:55:15Z</time>
      </trkpt>
      <trkpt lat="45.625543" lon="13.859507">
        <ele>238.562</ele>
        <time>2018-09-04T13:55:29Z</time>
      </trkpt>
      <trkpt lat="45.625546" lon="13.860144">
        <ele>236.686</ele>
        <time>2018-09-04T13:55:44Z</time>
      </trkpt>
      <trkpt lat="45.625525" lon="13.860907">
        <ele>238.056</ele>
        <time>2018-09-04T13:56:02Z</time>
      </trkpt>
      <trkpt lat="45.625505" lon="13.861474">
        <ele>240.480</ele>
        <time>2018-09-04T13:56:16Z</time>
      </trkpt>
      <trkpt lat="45.625482" lon="13.862011">
        <ele>242.879</ele>
        <time>2018-09-04T13:56:29Z</time>
      </trkpt>
      <trkpt lat="45.625463" lon="13.862501">
        <ele>244.305</ele>
        <time>2018-09-04T13:56:41Z</time>
      </trkpt>
      <trkpt lat="45.625469" lon="13.862907">
        <ele>244.725</ele>
        <time>2018-09-04T13:56:51Z</time>
      </trkpt>
      <trkpt lat="45.625505" lon="13.863488">
        <ele>245.208</ele>
        <time>2018-09-04T13:57:06Z</time>
      </trkpt>
      <trkpt lat="45.625508" lon="13.863970">
        <ele>247.691</ele>
        <time>2018-09-04T13:57:18Z</time>
      </trkpt>
      <trkpt lat="45.625400" lon="13.864569">
        <ele>251.583</ele>
        <time>2018-09-04T13:57:31Z</time>
      </trkpt>
      <trkpt lat="45.625156" lon="13.865127">
        <ele>252.969</ele>
        <time>2018-09-04T13:57:45Z</time>
      </trkpt>
      <trkpt lat="45.624844" lon="13.865601">
        <ele>256.865</ele>
        <time>2018-09-04T13:57:59Z</time>
      </trkpt>
      <trkpt lat="45.624570" lon="13.866022">
        <ele>256.820</ele>
        <time>2018-09-04T13:58:12Z</time>
      </trkpt>
      <trkpt lat="45.624398" lon="13.866471">
        <ele>254.484</ele>
        <time>2018-09-04T13:58:24Z</time>
      </trkpt>
      <trkpt lat="45.624283" lon="13.866978">
        <ele>254.874</ele>
        <time>2018-09-04T13:58:36Z</time>
      </trkpt>
      <trkpt lat="45.624243" lon="13.867452">
        <ele>258.268</ele>
        <time>2018-09-04T13:58:47Z</time>
      </trkpt>
      <trkpt lat="45.624288" lon="13.868101">
        <ele>261.153</ele>
        <time>2018-09-04T13:59:01Z</time>
      </trkpt>
      <trkpt lat="45.624343" lon="13.868583">
        <ele>262.104</ele>
        <time>2018-09-04T13:59:11Z</time>
      </trkpt>
      <trkpt lat="45.624475" lon="13.869267">
        <ele>257.714</ele>
        <time>2018-09-04T13:59:26Z</time>
      </trkpt>
      <trkpt lat="45.624596" lon="13.869948">
        <ele>257.708</ele>
        <time>2018-09-04T13:59:41Z</time>
      </trkpt>
      <trkpt lat="45.624627" lon="13.870493">
        <ele>260.159</ele>
        <time>2018-09-04T13:59:53Z</time>
      </trkpt>
      <trkpt lat="45.624550" lon="13.871109">
        <ele>266.411</ele>
        <time>2018-09-04T14:00:06Z</time>
      </trkpt>
      <trkpt lat="45.624333" lon="13.871770">
        <ele>267.877</ele>
        <time>2018-09-04T14:00:21Z</time>
      </trkpt>
      <trkpt lat="45.624012" lon="13.872242">
        <ele>269.733</ele>
        <time>2018-09-04T14:00:35Z</time>
      </trkpt>
      <trkpt lat="45.623623" lon="13.872644">
        <ele>270.288</ele>
        <time>2018-09-04T14:00:50Z</time>
      </trkpt>
      <trkpt lat="45.623244" lon="13.873135">
        <ele>272.682</ele>
        <time>2018-09-04T14:01:06Z</time>
      </trkpt>
      <trkpt lat="45.622651" lon="13.874369">
        <ele>275.022</ele>
        <time>2018-09-04T14:01:39Z</time>
      </trkpt>
      <trkpt lat="45.622624" lon="13.874399">
        <ele>275.046</ele>
        <time>2018-09-04T14:01:40Z</time>
      </trkpt>
      <trkpt lat="45.622602" lon="13.874426">
        <ele>275.533</ele>
        <time>2018-09-04T14:01:41Z</time>
      </trkpt>
      <trkpt lat="45.622581" lon="13.874464">
        <ele>275.023</ele>
        <time>2018-09-04T14:01:42Z</time>
      </trkpt>
      <trkpt lat="45.622181" lon="13.874861">
        <ele>278.915</ele>
        <time>2018-09-04T14:01:57Z</time>
      </trkpt>
      <trkpt lat="45.621772" lon="13.875251">
        <ele>280.808</ele>
        <time>2018-09-04T14:02:13Z</time>
      </trkpt>
      <trkpt lat="45.621536" lon="13.875620">
        <ele>280.837</ele>
        <time>2018-09-04T14:02:27Z</time>
      </trkpt>
      <trkpt lat="45.621019" lon="13.876421">
        <ele>284.229</ele>
        <time>2018-09-04T14:02:49Z</time>
      </trkpt>
      <trkpt lat="45.620688" lon="13.877125">
        <ele>284.675</ele>
        <time>2018-09-04T14:03:07Z</time>
      </trkpt>
      <trkpt lat="45.620479" lon="13.877804">
        <ele>288.021</ele>
        <time>2018-09-04T14:03:24Z</time>
      </trkpt>
      <trkpt lat="45.620347" lon="13.878349">
        <ele>289.036</ele>
        <time>2018-09-04T14:03:38Z</time>
      </trkpt>
      <trkpt lat="45.620156" lon="13.878917">
        <ele>297.180</ele>
        <time>2018-09-04T14:03:53Z</time>
      </trkpt>
      <trkpt lat="45.619897" lon="13.879477">
        <ele>300.040</ele>
        <time>2018-09-04T14:04:09Z</time>
      </trkpt>
      <trkpt lat="45.619609" lon="13.879898">
        <ele>297.684</ele>
        <time>2018-09-04T14:04:23Z</time>
      </trkpt>
      <trkpt lat="45.619292" lon="13.880312">
        <ele>295.299</ele>
        <time>2018-09-04T14:04:38Z</time>
      </trkpt>
      <trkpt lat="45.619057" lon="13.880791">
        <ele>293.307</ele>
        <time>2018-09-04T14:04:50Z</time>
      </trkpt>
      <trkpt lat="45.618719" lon="13.881358">
        <ele>295.727</ele>
        <time>2018-09-04T14:05:07Z</time>
      </trkpt>
      <trkpt lat="45.618267" lon="13.881807">
        <ele>297.608</ele>
        <time>2018-09-04T14:05:25Z</time>
      </trkpt>
      <trkpt lat="45.617838" lon="13.882226">
        <ele>297.673</ele>
        <time>2018-09-04T14:05:42Z</time>
      </trkpt>
      <trkpt lat="45.617552" lon="13.882706">
        <ele>299.555</ele>
        <time>2018-09-04T14:05:57Z</time>
      </trkpt>
      <trkpt lat="45.617351" lon="13.883299">
        <ele>300.011</ele>
        <time>2018-09-04T14:06:13Z</time>
      </trkpt>
      <trkpt lat="45.617308" lon="13.883898">
        <ele>301.967</ele>
        <time>2018-09-04T14:06:28Z</time>
      </trkpt>
      <trkpt lat="45.617102" lon="13.884228">
        <ele>301.952</ele>
        <time>2018-09-04T14:06:39Z</time>
      </trkpt>
      <trkpt lat="45.617026" lon="13.884634">
        <ele>303.966</ele>
        <time>2018-09-04T14:06:49Z</time>
      </trkpt>
      <trkpt lat="45.616989" lon="13.884945">
        <ele>306.386</ele>
        <time>2018-09-04T14:06:57Z</time>
      </trkpt>
      <trkpt lat="45.616999" lon="13.885453">
        <ele>308.740</ele>
        <time>2018-09-04T14:07:12Z</time>
      </trkpt>
      <trkpt lat="45.616690" lon="13.886120">
        <ele>314.078</ele>
        <time>2018-09-04T14:07:27Z</time>
      </trkpt>
      <trkpt lat="45.616489" lon="13.886647">
        <ele>321.233</ele>
        <time>2018-09-04T14:07:41Z</time>
      </trkpt>
      <trkpt lat="45.616415" lon="13.887064">
        <ele>323.626</ele>
        <time>2018-09-04T14:07:53Z</time>
      </trkpt>
      <trkpt lat="45.616249" lon="13.887275">
        <ele>322.608</ele>
        <time>2018-09-04T14:08:03Z</time>
      </trkpt>
      <trkpt lat="45.616266" lon="13.887278">
        <ele>316.841</ele>
        <time>2018-09-04T14:08:14Z</time>
      </trkpt>
      <trkpt lat="45.616281" lon="13.887288">
        <ele>310.193</ele>
        <time>2018-09-04T14:08:50Z</time>
      </trkpt>
      <trkpt lat="45.616303" lon="13.887245">
        <ele>309.289</ele>
        <time>2018-09-04T14:09:23Z</time>
      </trkpt>
      <trkpt lat="45.616293" lon="13.887260">
        <ele>310.665</ele>
        <time>2018-09-04T14:09:58Z</time>
      </trkpt>
      <trkpt lat="45.616302" lon="13.887337">
        <ele>310.110</ele>
        <time>2018-09-04T14:10:12Z</time>
      </trkpt>
      <trkpt lat="45.616228" lon="13.887731">
        <ele>312.594</ele>
        <time>2018-09-04T14:10:24Z</time>
      </trkpt>
      <trkpt lat="45.616215" lon="13.888325">
        <ele>315.914</ele>
        <time>2018-09-04T14:10:39Z</time>
      </trkpt>
      <trkpt lat="45.616304" lon="13.888948">
        <ele>316.888</ele>
        <time>2018-09-04T14:10:55Z</time>
      </trkpt>
      <trkpt lat="45.616442" lon="13.889414">
        <ele>319.323</ele>
        <time>2018-09-04T14:11:08Z</time>
      </trkpt>
      <trkpt lat="45.616655" lon="13.889870">
        <ele>321.283</ele>
        <time>2018-09-04T14:11:22Z</time>
      </trkpt>
      <trkpt lat="45.616958" lon="13.890447">
        <ele>321.211</ele>
        <time>2018-09-04T14:11:39Z</time>
      </trkpt>
      <trkpt lat="45.617179" lon="13.890780">
        <ele>320.208</ele>
        <time>2018-09-04T14:11:51Z</time>
      </trkpt>
      <trkpt lat="45.617437" lon="13.891073">
        <ele>318.866</ele>
        <time>2018-09-04T14:12:03Z</time>
      </trkpt>
      <trkpt lat="45.617778" lon="13.891341">
        <ele>321.298</ele>
        <time>2018-09-04T14:12:15Z</time>
      </trkpt>
      <trkpt lat="45.618158" lon="13.891606">
        <ele>322.684</ele>
        <time>2018-09-04T14:12:29Z</time>
      </trkpt>
      <trkpt lat="45.618545" lon="13.891780">
        <ele>324.540</ele>
        <time>2018-09-04T14:12:43Z</time>
      </trkpt>
      <trkpt lat="45.618873" lon="13.891828">
        <ele>325.585</ele>
        <time>2018-09-04T14:12:55Z</time>
      </trkpt>
      <trkpt lat="45.619292" lon="13.891746">
        <ele>329.379</ele>
        <time>2018-09-04T14:13:09Z</time>
      </trkpt>
      <trkpt lat="45.619661" lon="13.891514">
        <ele>329.829</ele>
        <time>2018-09-04T14:13:23Z</time>
      </trkpt>
      <trkpt lat="45.620001" lon="13.891125">
        <ele>329.353</ele>
        <time>2018-09-04T14:13:37Z</time>
      </trkpt>
      <trkpt lat="45.620359" lon="13.890629">
        <ele>331.338</ele>
        <time>2018-09-04T14:13:53Z</time>
      </trkpt>
      <trkpt lat="45.620675" lon="13.890150">
        <ele>334.270</ele>
        <time>2018-09-04T14:14:09Z</time>
      </trkpt>
      <trkpt lat="45.620890" lon="13.889681">
        <ele>335.117</ele>
        <time>2018-09-04T14:14:25Z</time>
      </trkpt>
      <trkpt lat="45.620877" lon="13.889654">
        <ele>335.108</ele>
        <time>2018-09-04T14:14:26Z</time>
      </trkpt>
      <trkpt lat="45.620864" lon="13.889634">
        <ele>334.687</ele>
        <time>2018-09-04T14:14:27Z</time>
      </trkpt>
      <trkpt lat="45.620640" lon="13.889318">
        <ele>337.049</ele>
        <time>2018-09-04T14:14:41Z</time>
      </trkpt>
      <trkpt lat="45.620425" lon="13.889074">
        <ele>339.495</ele>
        <time>2018-09-04T14:14:54Z</time>
      </trkpt>
      <trkpt lat="45.620415" lon="13.889051">
        <ele>339.421</ele>
        <time>2018-09-04T14:14:55Z</time>
      </trkpt>
      <trkpt lat="45.620414" lon="13.889024">
        <ele>339.996</ele>
        <time>2018-09-04T14:14:56Z</time>
      </trkpt>
      <trkpt lat="45.620420" lon="13.888994">
        <ele>340.470</ele>
        <time>2018-09-04T14:14:57Z</time>
      </trkpt>
      <trkpt lat="45.620427" lon="13.888975">
        <ele>340.460</ele>
        <time>2018-09-04T14:14:58Z</time>
      </trkpt>
      <trkpt lat="45.620439" lon="13.888955">
        <ele>340.984</ele>
        <time>2018-09-04T14:14:59Z</time>
      </trkpt>
      <trkpt lat="45.620595" lon="13.888707">
        <ele>342.365</ele>
        <time>2018-09-04T14:15:11Z</time>
      </trkpt>
      <trkpt lat="45.620739" lon="13.888384">
        <ele>345.268</ele>
        <time>2018-09-04T14:15:26Z</time>
      </trkpt>
      <trkpt lat="45.620919" lon="13.888032">
        <ele>348.114</ele>
        <time>2018-09-04T14:15:42Z</time>
      </trkpt>
      <trkpt lat="45.621077" lon="13.887747">
        <ele>351.508</ele>
        <time>2018-09-04T14:15:56Z</time>
      </trkpt>
      <trkpt lat="45.621321" lon="13.887393">
        <ele>355.880</ele>
        <time>2018-09-04T14:16:14Z</time>
      </trkpt>
      <trkpt lat="45.621564" lon="13.886965">
        <ele>358.272</ele>
        <time>2018-09-04T14:16:29Z</time>
      </trkpt>
      <trkpt lat="45.621792" lon="13.886640">
        <ele>359.188</ele>
        <time>2018-09-04T14:16:42Z</time>
      </trkpt>
      <trkpt lat="45.622063" lon="13.886156">
        <ele>357.724</ele>
        <time>2018-09-04T14:16:57Z</time>
      </trkpt>
      <trkpt lat="45.622390" lon="13.885805">
        <ele>360.659</ele>
        <time>2018-09-04T14:17:12Z</time>
      </trkpt>
      <trkpt lat="45.622751" lon="13.885436">
        <ele>364.033</ele>
        <time>2018-09-04T14:17:27Z</time>
      </trkpt>
      <trkpt lat="45.623113" lon="13.885131">
        <ele>367.893</ele>
        <time>2018-09-04T14:17:43Z</time>
      </trkpt>
      <trkpt lat="45.623473" lon="13.885078">
        <ele>370.257</ele>
        <time>2018-09-04T14:17:59Z</time>
      </trkpt>
      <trkpt lat="45.623796" lon="13.885046">
        <ele>372.663</ele>
        <time>2018-09-04T14:18:13Z</time>
      </trkpt>
      <trkpt lat="45.624092" lon="13.885022">
        <ele>374.544</ele>
        <time>2018-09-04T14:18:28Z</time>
      </trkpt>
      <trkpt lat="45.624392" lon="13.884991">
        <ele>376.918</ele>
        <time>2018-09-04T14:18:42Z</time>
      </trkpt>
      <trkpt lat="45.624620" lon="13.884951">
        <ele>380.308</ele>
        <time>2018-09-04T14:18:55Z</time>
      </trkpt>
      <trkpt lat="45.624893" lon="13.884905">
        <ele>384.650</ele>
        <time>2018-09-04T14:19:10Z</time>
      </trkpt>
      <trkpt lat="45.625173" lon="13.884830">
        <ele>387.522</ele>
        <time>2018-09-04T14:19:25Z</time>
      </trkpt>
      <trkpt lat="45.625495" lon="13.884694">
        <ele>389.488</ele>
        <time>2018-09-04T14:19:41Z</time>
      </trkpt>
      <trkpt lat="45.625783" lon="13.884535">
        <ele>390.464</ele>
        <time>2018-09-04T14:19:55Z</time>
      </trkpt>
      <trkpt lat="45.626113" lon="13.884267">
        <ele>396.249</ele>
        <time>2018-09-04T14:20:13Z</time>
      </trkpt>
      <trkpt lat="45.626380" lon="13.884042">
        <ele>395.763</ele>
        <time>2018-09-04T14:20:27Z</time>
      </trkpt>
      <trkpt lat="45.626661" lon="13.883738">
        <ele>398.693</ele>
        <time>2018-09-04T14:20:43Z</time>
      </trkpt>
      <trkpt lat="45.626959" lon="13.883329">
        <ele>400.597</ele>
        <time>2018-09-04T14:21:02Z</time>
      </trkpt>
      <trkpt lat="45.627196" lon="13.882953">
        <ele>402.928</ele>
        <time>2018-09-04T14:21:16Z</time>
      </trkpt>
      <trkpt lat="45.627472" lon="13.882348">
        <ele>398.189</ele>
        <time>2018-09-04T14:21:34Z</time>
      </trkpt>
      <trkpt lat="45.627655" lon="13.881941">
        <ele>401.417</ele>
        <time>2018-09-04T14:21:47Z</time>
      </trkpt>
      <trkpt lat="45.627853" lon="13.881550">
        <ele>408.708</ele>
        <time>2018-09-04T14:22:02Z</time>
      </trkpt>
      <trkpt lat="45.628065" lon="13.881139">
        <ele>411.556</ele>
        <time>2018-09-04T14:22:18Z</time>
      </trkpt>
      <trkpt lat="45.628276" lon="13.880891">
        <ele>416.398</ele>
        <time>2018-09-04T14:22:31Z</time>
      </trkpt>
      <trkpt lat="45.628264" lon="13.880866">
        <ele>416.824</ele>
        <time>2018-09-04T14:22:34Z</time>
      </trkpt>
      <trkpt lat="45.628252" lon="13.880873">
        <ele>416.390</ele>
        <time>2018-09-04T14:22:35Z</time>
      </trkpt>
      <trkpt lat="45.628241" lon="13.880892">
        <ele>416.365</ele>
        <time>2018-09-04T14:22:36Z</time>
      </trkpt>
      <trkpt lat="45.628061" lon="13.881103">
        <ele>413.929</ele>
        <time>2018-09-04T14:22:47Z</time>
      </trkpt>
      <trkpt lat="45.628045" lon="13.881095">
        <ele>414.419</ele>
        <time>2018-09-04T14:22:48Z</time>
      </trkpt>
      <trkpt lat="45.628037" lon="13.881069">
        <ele>413.933</ele>
        <time>2018-09-04T14:22:50Z</time>
      </trkpt>
      <trkpt lat="45.628040" lon="13.881051">
        <ele>413.976</ele>
        <time>2018-09-04T14:22:51Z</time>
      </trkpt>
      <trkpt lat="45.628033" lon="13.880731">
        <ele>412.090</ele>
        <time>2018-09-04T14:23:04Z</time>
      </trkpt>
      <trkpt lat="45.627939" lon="13.880481">
        <ele>413.519</ele>
        <time>2018-09-04T14:23:14Z</time>
      </trkpt>
      <trkpt lat="45.627900" lon="13.880330">
        <ele>414.408</ele>
        <time>2018-09-04T14:23:19Z</time>
      </trkpt>
      <trkpt lat="45.627891" lon="13.880306">
        <ele>414.931</ele>
        <time>2018-09-04T14:23:20Z</time>
      </trkpt>
      <trkpt lat="45.627882" lon="13.880281">
        <ele>415.493</ele>
        <time>2018-09-04T14:23:21Z</time>
      </trkpt>
      <trkpt lat="45.627870" lon="13.880253">
        <ele>415.479</ele>
        <time>2018-09-04T14:23:22Z</time>
      </trkpt>
      <trkpt lat="45.627859" lon="13.880219">
        <ele>415.945</ele>
        <time>2018-09-04T14:23:23Z</time>
      </trkpt>
      <trkpt lat="45.627850" lon="13.880180">
        <ele>416.350</ele>
        <time>2018-09-04T14:23:24Z</time>
      </trkpt>
      <trkpt lat="45.627772" lon="13.879566">
        <ele>418.334</ele>
        <time>2018-09-04T14:23:39Z</time>
      </trkpt>
      <trkpt lat="45.627720" lon="13.878998">
        <ele>414.484</ele>
        <time>2018-09-04T14:23:51Z</time>
      </trkpt>
      <trkpt lat="45.627748" lon="13.878366">
        <ele>412.028</ele>
        <time>2018-09-04T14:24:05Z</time>
      </trkpt>
      <trkpt lat="45.627890" lon="13.877780">
        <ele>410.693</ele>
        <time>2018-09-04T14:24:18Z</time>
      </trkpt>
      <trkpt lat="45.627959" lon="13.877478">
        <ele>409.165</ele>
        <time>2018-09-04T14:24:29Z</time>
      </trkpt>
      <trkpt lat="45.627981" lon="13.877234">
        <ele>409.121</ele>
        <time>2018-09-04T14:24:44Z</time>
      </trkpt>
      <trkpt lat="45.628009" lon="13.876722">
        <ele>406.208</ele>
        <time>2018-09-04T14:24:54Z</time>
      </trkpt>
      <trkpt lat="45.628014" lon="13.876285">
        <ele>403.413</ele>
        <time>2018-09-04T14:25:03Z</time>
      </trkpt>
      <trkpt lat="45.628021" lon="13.876242">
        <ele>403.485</ele>
        <time>2018-09-04T14:25:04Z</time>
      </trkpt>
      <trkpt lat="45.627988" lon="13.875651">
        <ele>402.431</ele>
        <time>2018-09-04T14:25:16Z</time>
      </trkpt>
      <trkpt lat="45.627866" lon="13.874993">
        <ele>398.667</ele>
        <time>2018-09-04T14:25:29Z</time>
      </trkpt>
      <trkpt lat="45.627786" lon="13.874761">
        <ele>396.672</ele>
        <time>2018-09-04T14:25:37Z</time>
      </trkpt>
      <trkpt lat="45.627778" lon="13.874732">
        <ele>396.236</ele>
        <time>2018-09-04T14:25:38Z</time>
      </trkpt>
      <trkpt lat="45.627763" lon="13.874703">
        <ele>395.766</ele>
        <time>2018-09-04T14:25:39Z</time>
      </trkpt>
      <trkpt lat="45.627744" lon="13.874673">
        <ele>395.740</ele>
        <time>2018-09-04T14:25:40Z</time>
      </trkpt>
      <trkpt lat="45.627721" lon="13.874641">
        <ele>395.257</ele>
        <time>2018-09-04T14:25:41Z</time>
      </trkpt>
      <trkpt lat="45.627693" lon="13.874612">
        <ele>394.700</ele>
        <time>2018-09-04T14:25:42Z</time>
      </trkpt>
      <trkpt lat="45.627668" lon="13.874582">
        <ele>394.720</ele>
        <time>2018-09-04T14:25:43Z</time>
      </trkpt>
      <trkpt lat="45.627648" lon="13.874545">
        <ele>394.208</ele>
        <time>2018-09-04T14:25:44Z</time>
      </trkpt>
      <trkpt lat="45.627637" lon="13.874501">
        <ele>393.899</ele>
        <time>2018-09-04T14:25:45Z</time>
      </trkpt>
      <trkpt lat="45.627628" lon="13.874453">
        <ele>393.391</ele>
        <time>2018-09-04T14:25:46Z</time>
      </trkpt>
      <trkpt lat="45.627618" lon="13.874404">
        <ele>393.387</ele>
        <time>2018-09-04T14:25:47Z</time>
      </trkpt>
      <trkpt lat="45.627510" lon="13.873857">
        <ele>390.933</ele>
        <time>2018-09-04T14:25:58Z</time>
      </trkpt>
      <trkpt lat="45.627566" lon="13.873238">
        <ele>388.088</ele>
        <time>2018-09-04T14:26:10Z</time>
      </trkpt>
      <trkpt lat="45.627663" lon="13.872792">
        <ele>386.182</ele>
        <time>2018-09-04T14:26:24Z</time>
      </trkpt>
      <trkpt lat="45.627699" lon="13.872448">
        <ele>383.282</ele>
        <time>2018-09-04T14:26:36Z</time>
      </trkpt>
      <trkpt lat="45.627749" lon="13.872271">
        <ele>381.786</ele>
        <time>2018-09-04T14:26:47Z</time>
      </trkpt>
      <trkpt lat="45.627745" lon="13.872235">
        <ele>382.233</ele>
        <time>2018-09-04T14:26:51Z</time>
      </trkpt>
      <trkpt lat="45.627737" lon="13.872217">
        <ele>382.223</ele>
        <time>2018-09-04T14:26:52Z</time>
      </trkpt>
      <trkpt lat="45.627726" lon="13.872144">
        <ele>382.715</ele>
        <time>2018-09-04T14:26:55Z</time>
      </trkpt>
      <trkpt lat="45.627728" lon="13.872115">
        <ele>382.708</ele>
        <time>2018-09-04T14:26:56Z</time>
      </trkpt>
      <trkpt lat="45.627729" lon="13.872086">
        <ele>382.747</ele>
        <time>2018-09-04T14:26:57Z</time>
      </trkpt>
      <trkpt lat="45.627736" lon="13.872052">
        <ele>382.749</ele>
        <time>2018-09-04T14:26:58Z</time>
      </trkpt>
      <trkpt lat="45.627747" lon="13.872022">
        <ele>382.785</ele>
        <time>2018-09-04T14:26:59Z</time>
      </trkpt>
      <trkpt lat="45.627962" lon="13.871625">
        <ele>381.371</ele>
        <time>2018-09-04T14:27:10Z</time>
      </trkpt>
      <trkpt lat="45.627982" lon="13.871611">
        <ele>381.356</ele>
        <time>2018-09-04T14:27:11Z</time>
      </trkpt>
      <trkpt lat="45.628003" lon="13.871612">
        <ele>381.790</ele>
        <time>2018-09-04T14:27:12Z</time>
      </trkpt>
      <trkpt lat="45.628019" lon="13.871624">
        <ele>381.760</ele>
        <time>2018-09-04T14:27:13Z</time>
      </trkpt>
      <trkpt lat="45.628053" lon="13.871617">
        <ele>382.284</ele>
        <time>2018-09-04T14:27:24Z</time>
      </trkpt>
      <trkpt lat="45.628068" lon="13.871597">
        <ele>382.296</ele>
        <time>2018-09-04T14:27:26Z</time>
      </trkpt>
      <trkpt lat="45.628076" lon="13.871585">
        <ele>381.731</ele>
        <time>2018-09-04T14:27:27Z</time>
      </trkpt>
      <trkpt lat="45.628081" lon="13.871573">
        <ele>381.724</ele>
        <time>2018-09-04T14:27:28Z</time>
      </trkpt>
      <trkpt lat="45.628086" lon="13.871559">
        <ele>381.708</ele>
        <time>2018-09-04T14:27:29Z</time>
      </trkpt>
      <trkpt lat="45.628108" lon="13.871508">
        <ele>381.783</ele>
        <time>2018-09-04T14:27:37Z</time>
      </trkpt>
      <trkpt lat="45.628141" lon="13.871475">
        <ele>382.265</ele>
        <time>2018-09-04T14:27:40Z</time>
      </trkpt>
      <trkpt lat="45.628320" lon="13.871092">
        <ele>382.741</ele>
        <time>2018-09-04T14:27:53Z</time>
      </trkpt>
      <trkpt lat="45.628497" lon="13.870538">
        <ele>384.627</ele>
        <time>2018-09-04T14:28:09Z</time>
      </trkpt>
      <trkpt lat="45.628728" lon="13.869939">
        <ele>386.182</ele>
        <time>2018-09-04T14:28:26Z</time>
      </trkpt>
      <trkpt lat="45.628909" lon="13.869197">
        <ele>387.546</ele>
        <time>2018-09-04T14:28:44Z</time>
      </trkpt>
      <trkpt lat="45.628997" lon="13.868580">
        <ele>388.936</ele>
        <time>2018-09-04T14:28:58Z</time>
      </trkpt>
      <trkpt lat="45.629168" lon="13.867592">
        <ele>390.970</ele>
        <time>2018-09-04T14:29:19Z</time>
      </trkpt>
      <trkpt lat="45.629492" lon="13.867158">
        <ele>391.354</ele>
        <time>2018-09-04T14:29:32Z</time>
      </trkpt>
      <trkpt lat="45.630106" lon="13.866604">
        <ele>389.956</ele>
        <time>2018-09-04T14:29:50Z</time>
      </trkpt>
      <trkpt lat="45.630843" lon="13.866197">
        <ele>388.911</ele>
        <time>2018-09-04T14:30:03Z</time>
      </trkpt>
      <trkpt lat="45.631578" lon="13.865830">
        <ele>390.908</ele>
        <time>2018-09-04T14:30:18Z</time>
      </trkpt>
      <trkpt lat="45.632340" lon="13.865445">
        <ele>390.959</ele>
        <time>2018-09-04T14:30:33Z</time>
      </trkpt>
      <trkpt lat="45.633303" lon="13.865020">
        <ele>388.531</ele>
        <time>2018-09-04T14:30:48Z</time>
      </trkpt>
      <trkpt lat="45.633759" lon="13.864791">
        <ele>389.927</ele>
        <time>2018-09-04T14:31:00Z</time>
      </trkpt>
      <trkpt lat="45.634376" lon="13.864497">
        <ele>390.973</ele>
        <time>2018-09-04T14:31:16Z</time>
      </trkpt>
      <trkpt lat="45.634686" lon="13.864316">
        <ele>392.318</ele>
        <time>2018-09-04T14:31:29Z</time>
      </trkpt>
      <trkpt lat="45.634754" lon="13.864277">
        <ele>392.342</ele>
        <time>2018-09-04T14:31:33Z</time>
      </trkpt>
      <trkpt lat="45.634765" lon="13.864259">
        <ele>392.342</ele>
        <time>2018-09-04T14:31:34Z</time>
      </trkpt>
      <trkpt lat="45.634782" lon="13.864215">
        <ele>391.896</ele>
        <time>2018-09-04T14:31:38Z</time>
      </trkpt>
      <trkpt lat="45.634793" lon="13.864216">
        <ele>391.823</ele>
        <time>2018-09-04T14:31:39Z</time>
      </trkpt>
      <trkpt lat="45.634805" lon="13.864225">
        <ele>391.883</ele>
        <time>2018-09-04T14:31:40Z</time>
      </trkpt>
      <trkpt lat="45.634821" lon="13.864231">
        <ele>391.811</ele>
        <time>2018-09-04T14:31:41Z</time>
      </trkpt>
      <trkpt lat="45.634841" lon="13.864234">
        <ele>391.808</ele>
        <time>2018-09-04T14:31:42Z</time>
      </trkpt>
      <trkpt lat="45.635087" lon="13.864057">
        <ele>391.836</ele>
        <time>2018-09-04T14:31:53Z</time>
      </trkpt>
      <trkpt lat="45.635087" lon="13.863991">
        <ele>391.848</ele>
        <time>2018-09-04T14:31:56Z</time>
      </trkpt>
      <trkpt lat="45.635119" lon="13.864012">
        <ele>391.314</ele>
        <time>2018-09-04T14:32:05Z</time>
      </trkpt>
      <trkpt lat="45.635113" lon="13.864000">
        <ele>390.920</ele>
        <time>2018-09-04T14:32:30Z</time>
      </trkpt>
      <trkpt lat="45.635092" lon="13.864020">
        <ele>390.935</ele>
        <time>2018-09-04T14:32:50Z</time>
      </trkpt>
      <trkpt lat="45.635090" lon="13.864034">
        <ele>390.969</ele>
        <time>2018-09-04T14:32:51Z</time>
      </trkpt>
      <trkpt lat="45.635121" lon="13.864051">
        <ele>389.469</ele>
        <time>2018-09-04T14:32:59Z</time>
      </trkpt>
      <trkpt lat="45.635136" lon="13.864052">
        <ele>389.493</ele>
        <time>2018-09-04T14:33:00Z</time>
      </trkpt>
      <trkpt lat="45.635147" lon="13.864056">
        <ele>389.912</ele>
        <time>2018-09-04T14:33:01Z</time>
      </trkpt>
      <trkpt lat="45.635162" lon="13.864067">
        <ele>389.932</ele>
        <time>2018-09-04T14:33:02Z</time>
      </trkpt>
      <trkpt lat="45.635181" lon="13.864073">
        <ele>389.905</ele>
        <time>2018-09-04T14:33:03Z</time>
      </trkpt>
      <trkpt lat="45.635200" lon="13.864069">
        <ele>389.908</ele>
        <time>2018-09-04T14:33:04Z</time>
      </trkpt>
      <trkpt lat="45.635223" lon="13.864059">
        <ele>390.445</ele>
        <time>2018-09-04T14:33:05Z</time>
      </trkpt>
      <trkpt lat="45.635252" lon="13.864051">
        <ele>390.447</ele>
        <time>2018-09-04T14:33:06Z</time>
      </trkpt>
      <trkpt lat="45.635568" lon="13.863902">
        <ele>390.933</ele>
        <time>2018-09-04T14:33:19Z</time>
      </trkpt>
      <trkpt lat="45.635577" lon="13.863527">
        <ele>389.499</ele>
        <time>2018-09-04T14:33:29Z</time>
      </trkpt>
      <trkpt lat="45.635541" lon="13.863332">
        <ele>388.544</ele>
        <time>2018-09-04T14:33:35Z</time>
      </trkpt>
      <trkpt lat="45.635525" lon="13.863325">
        <ele>388.578</ele>
        <time>2018-09-04T14:33:36Z</time>
      </trkpt>
      <trkpt lat="45.635503" lon="13.863327">
        <ele>388.528</ele>
        <time>2018-09-04T14:33:37Z</time>
      </trkpt>
      <trkpt lat="45.635491" lon="13.863337">
        <ele>388.022</ele>
        <time>2018-09-04T14:33:38Z</time>
      </trkpt>
      <trkpt lat="45.635472" lon="13.863361">
        <ele>388.036</ele>
        <time>2018-09-04T14:33:39Z</time>
      </trkpt>
      <trkpt lat="45.635455" lon="13.863382">
        <ele>388.017</ele>
        <time>2018-09-04T14:33:40Z</time>
      </trkpt>
      <trkpt lat="45.635430" lon="13.863403">
        <ele>388.018</ele>
        <time>2018-09-04T14:33:41Z</time>
      </trkpt>
      <trkpt lat="45.635406" lon="13.863421">
        <ele>388.008</ele>
        <time>2018-09-04T14:33:42Z</time>
      </trkpt>
      <trkpt lat="45.635036" lon="13.863461">
        <ele>388.557</ele>
        <time>2018-09-04T14:33:55Z</time>
      </trkpt>
      <trkpt lat="45.634929" lon="13.863337">
        <ele>388.549</ele>
        <time>2018-09-04T14:34:03Z</time>
      </trkpt>
      <trkpt lat="45.634920" lon="13.863358">
        <ele>388.935</ele>
        <time>2018-09-04T14:34:04Z</time>
      </trkpt>
      <trkpt lat="45.634921" lon="13.863378">
        <ele>388.971</ele>
        <time>2018-09-04T14:34:05Z</time>
      </trkpt>
      <trkpt lat="45.634925" lon="13.863394">
        <ele>388.996</ele>
        <time>2018-09-04T14:34:06Z</time>
      </trkpt>
      <trkpt lat="45.634932" lon="13.863413">
        <ele>388.940</ele>
        <time>2018-09-04T14:34:07Z</time>
      </trkpt>
      <trkpt lat="45.634943" lon="13.863431">
        <ele>388.990</ele>
        <time>2018-09-04T14:34:08Z</time>
      </trkpt>
      <trkpt lat="45.634962" lon="13.863446">
        <ele>388.994</ele>
        <time>2018-09-04T14:34:09Z</time>
      </trkpt>
      <trkpt lat="45.634985" lon="13.863457">
        <ele>388.991</ele>
        <time>2018-09-04T14:34:10Z</time>
      </trkpt>
      <trkpt lat="45.635012" lon="13.863469">
        <ele>388.981</ele>
        <time>2018-09-04T14:34:11Z</time>
      </trkpt>
      <trkpt lat="45.635037" lon="13.863483">
        <ele>388.919</ele>
        <time>2018-09-04T14:34:12Z</time>
      </trkpt>
      <trkpt lat="45.635064" lon="13.863498">
        <ele>388.908</ele>
        <time>2018-09-04T14:34:13Z</time>
      </trkpt>
      <trkpt lat="45.635093" lon="13.863511">
        <ele>388.933</ele>
        <time>2018-09-04T14:34:14Z</time>
      </trkpt>
      <trkpt lat="45.634723" lon="13.863186">
        <ele>387.555</ele>
        <time>2018-09-04T14:36:24Z</time>
      </trkpt>
      <trkpt lat="45.634363" lon="13.862974">
        <ele>386.561</ele>
        <time>2018-09-04T14:36:36Z</time>
      </trkpt>
      <trkpt lat="45.634152" lon="13.862544">
        <ele>384.157</ele>
        <time>2018-09-04T14:36:47Z</time>
      </trkpt>
      <trkpt lat="45.633960" lon="13.861871">
        <ele>383.282</ele>
        <time>2018-09-04T14:37:00Z</time>
      </trkpt>
      <trkpt lat="45.633888" lon="13.861613">
        <ele>382.786</ele>
        <time>2018-09-04T14:37:05Z</time>
      </trkpt>
      <trkpt lat="45.633878" lon="13.861560">
        <ele>382.756</ele>
        <time>2018-09-04T14:37:06Z</time>
      </trkpt>
      <trkpt lat="45.633821" lon="13.860916">
        <ele>382.730</ele>
        <time>2018-09-04T14:37:18Z</time>
      </trkpt>
      <trkpt lat="45.633757" lon="13.860138">
        <ele>379.397</ele>
        <time>2018-09-04T14:37:33Z</time>
      </trkpt>
      <trkpt lat="45.633752" lon="13.860030">
        <ele>378.423</ele>
        <time>2018-09-04T14:37:35Z</time>
      </trkpt>
      <trkpt lat="45.633699" lon="13.859786">
        <ele>377.425</ele>
        <time>2018-09-04T14:37:39Z</time>
      </trkpt>
      <trkpt lat="45.633677" lon="13.859730">
        <ele>377.408</ele>
        <time>2018-09-04T14:37:40Z</time>
      </trkpt>
      <trkpt lat="45.633315" lon="13.859031">
        <ele>376.983</ele>
        <time>2018-09-04T14:37:55Z</time>
      </trkpt>
      <trkpt lat="45.633191" lon="13.858532">
        <ele>376.915</ele>
        <time>2018-09-04T14:38:06Z</time>
      </trkpt>
      <trkpt lat="45.633172" lon="13.857844">
        <ele>373.621</ele>
        <time>2018-09-04T14:38:19Z</time>
      </trkpt>
      <trkpt lat="45.633144" lon="13.857245">
        <ele>373.687</ele>
        <time>2018-09-04T14:38:30Z</time>
      </trkpt>
      <trkpt lat="45.633129" lon="13.856491">
        <ele>374.512</ele>
        <time>2018-09-04T14:38:43Z</time>
      </trkpt>
      <trkpt lat="45.633060" lon="13.856119">
        <ele>378.446</ele>
        <time>2018-09-04T14:38:53Z</time>
      </trkpt>
      <trkpt lat="45.632955" lon="13.855561">
        <ele>386.176</ele>
        <time>2018-09-04T14:39:05Z</time>
      </trkpt>
      <trkpt lat="45.632918" lon="13.854964">
        <ele>383.760</ele>
        <time>2018-09-04T14:39:17Z</time>
      </trkpt>
      <trkpt lat="45.632800" lon="13.854362">
        <ele>378.964</ele>
        <time>2018-09-04T14:39:30Z</time>
      </trkpt>
      <trkpt lat="45.632755" lon="13.853931">
        <ele>382.206</ele>
        <time>2018-09-04T14:39:41Z</time>
      </trkpt>
      <trkpt lat="45.632810" lon="13.853341">
        <ele>381.316</ele>
        <time>2018-09-04T14:39:54Z</time>
      </trkpt>
      <trkpt lat="45.632912" lon="13.852656">
        <ele>380.308</ele>
        <time>2018-09-04T14:40:07Z</time>
      </trkpt>
      <trkpt lat="45.632924" lon="13.852590">
        <ele>380.370</ele>
        <time>2018-09-04T14:40:08Z</time>
      </trkpt>
      <trkpt lat="45.632935" lon="13.852527">
        <ele>379.872</ele>
        <time>2018-09-04T14:40:09Z</time>
      </trkpt>
      <trkpt lat="45.633048" lon="13.851857">
        <ele>379.848</ele>
        <time>2018-09-04T14:40:21Z</time>
      </trkpt>
      <trkpt lat="45.633220" lon="13.851295">
        <ele>381.314</ele>
        <time>2018-09-04T14:40:35Z</time>
      </trkpt>
      <trkpt lat="45.633353" lon="13.851049">
        <ele>382.789</ele>
        <time>2018-09-04T14:40:45Z</time>
      </trkpt>
      <trkpt lat="45.633535" lon="13.850667">
        <ele>384.183</ele>
        <time>2018-09-04T14:40:56Z</time>
      </trkpt>
      <trkpt lat="45.633690" lon="13.850252">
        <ele>381.773</ele>
        <time>2018-09-04T14:41:06Z</time>
      </trkpt>
      <trkpt lat="45.633864" lon="13.849693">
        <ele>380.887</ele>
        <time>2018-09-04T14:41:17Z</time>
      </trkpt>
      <trkpt lat="45.634081" lon="13.848967">
        <ele>380.879</ele>
        <time>2018-09-04T14:41:31Z</time>
      </trkpt>
      <trkpt lat="45.634142" lon="13.848636">
        <ele>379.305</ele>
        <time>2018-09-04T14:41:37Z</time>
      </trkpt>
      <trkpt lat="45.634174" lon="13.848362">
        <ele>377.925</ele>
        <time>2018-09-04T14:41:46Z</time>
      </trkpt>
      <trkpt lat="45.634210" lon="13.848378">
        <ele>378.908</ele>
        <time>2018-09-04T14:42:00Z</time>
      </trkpt>
      <trkpt lat="45.634219" lon="13.848369">
        <ele>379.391</ele>
        <time>2018-09-04T14:42:01Z</time>
      </trkpt>
      <trkpt lat="45.634236" lon="13.848358">
        <ele>379.863</ele>
        <time>2018-09-04T14:42:02Z</time>
      </trkpt>
      <trkpt lat="45.634249" lon="13.848354">
        <ele>380.369</ele>
        <time>2018-09-04T14:42:03Z</time>
      </trkpt>
      <trkpt lat="45.634346" lon="13.848411">
        <ele>382.745</ele>
        <time>2018-09-04T14:42:11Z</time>
      </trkpt>
      <trkpt lat="45.634404" lon="13.848446">
        <ele>383.740</ele>
        <time>2018-09-04T14:42:15Z</time>
      </trkpt>
      <trkpt lat="45.634417" lon="13.848460">
        <ele>384.124</ele>
        <time>2018-09-04T14:42:16Z</time>
      </trkpt>
      <trkpt lat="45.634432" lon="13.848468">
        <ele>384.174</ele>
        <time>2018-09-04T14:42:17Z</time>
      </trkpt>
      <trkpt lat="45.634450" lon="13.848469">
        <ele>384.698</ele>
        <time>2018-09-04T14:42:18Z</time>
      </trkpt>
      <trkpt lat="45.634467" lon="13.848464">
        <ele>384.621</ele>
        <time>2018-09-04T14:42:19Z</time>
      </trkpt>
      <trkpt lat="45.634484" lon="13.848459">
        <ele>385.141</ele>
        <time>2018-09-04T14:42:20Z</time>
      </trkpt>
      <trkpt lat="45.634496" lon="13.848455">
        <ele>385.605</ele>
        <time>2018-09-04T14:42:21Z</time>
      </trkpt>
      <trkpt lat="45.634509" lon="13.848453">
        <ele>385.608</ele>
        <time>2018-09-04T14:42:22Z</time>
      </trkpt>
      <trkpt lat="45.634525" lon="13.848452">
        <ele>385.646</ele>
        <time>2018-09-04T14:42:23Z</time>
      </trkpt>
      <trkpt lat="45.634668" lon="13.848253">
        <ele>384.158</ele>
        <time>2018-09-04T14:42:35Z</time>
      </trkpt>
      <trkpt lat="45.634678" lon="13.848231">
        <ele>384.184</ele>
        <time>2018-09-04T14:42:36Z</time>
      </trkpt>
      <trkpt lat="45.634693" lon="13.848216">
        <ele>383.770</ele>
        <time>2018-09-04T14:42:37Z</time>
      </trkpt>
      <trkpt lat="45.634712" lon="13.848208">
        <ele>383.755</ele>
        <time>2018-09-04T14:42:38Z</time>
      </trkpt>
      <trkpt lat="45.634730" lon="13.848198">
        <ele>383.739</ele>
        <time>2018-09-04T14:42:39Z</time>
      </trkpt>
      <trkpt lat="45.634747" lon="13.848183">
        <ele>383.739</ele>
        <time>2018-09-04T14:42:40Z</time>
      </trkpt>
      <trkpt lat="45.634762" lon="13.848165">
        <ele>383.763</ele>
        <time>2018-09-04T14:42:41Z</time>
      </trkpt>
      <trkpt lat="45.634774" lon="13.848147">
        <ele>383.724</ele>
        <time>2018-09-04T14:42:42Z</time>
      </trkpt>
      <trkpt lat="45.634935" lon="13.847798">
        <ele>381.704</ele>
        <time>2018-09-04T14:42:53Z</time>
      </trkpt>
      <trkpt lat="45.635173" lon="13.847341">
        <ele>379.314</ele>
        <time>2018-09-04T14:43:03Z</time>
      </trkpt>
      <trkpt lat="45.635199" lon="13.847292">
        <ele>378.908</ele>
        <time>2018-09-04T14:43:04Z</time>
      </trkpt>
      <trkpt lat="45.635228" lon="13.847241">
        <ele>378.496</ele>
        <time>2018-09-04T14:43:05Z</time>
      </trkpt>
      <trkpt lat="45.635305" lon="13.847097">
        <ele>377.488</ele>
        <time>2018-09-04T14:43:13Z</time>
      </trkpt>
      <trkpt lat="45.635359" lon="13.847015">
        <ele>377.424</ele>
        <time>2018-09-04T14:43:19Z</time>
      </trkpt>
      <trkpt lat="45.635378" lon="13.847015">
        <ele>376.920</ele>
        <time>2018-09-04T14:43:20Z</time>
      </trkpt>
      <trkpt lat="45.635390" lon="13.847015">
        <ele>376.945</ele>
        <time>2018-09-04T14:43:21Z</time>
      </trkpt>
      <trkpt lat="45.635408" lon="13.847009">
        <ele>376.949</ele>
        <time>2018-09-04T14:43:22Z</time>
      </trkpt>
      <trkpt lat="45.635427" lon="13.846997">
        <ele>376.449</ele>
        <time>2018-09-04T14:43:23Z</time>
      </trkpt>
      <trkpt lat="45.635450" lon="13.846978">
        <ele>376.413</ele>
        <time>2018-09-04T14:43:24Z</time>
      </trkpt>
      <trkpt lat="45.635871" lon="13.846778">
        <ele>375.074</ele>
        <time>2018-09-04T14:43:38Z</time>
      </trkpt>
      <trkpt lat="45.636303" lon="13.846616">
        <ele>374.056</ele>
        <time>2018-09-04T14:43:53Z</time>
      </trkpt>
      <trkpt lat="45.636813" lon="13.846428">
        <ele>369.721</ele>
        <time>2018-09-04T14:44:07Z</time>
      </trkpt>
      <trkpt lat="45.636957" lon="13.846321">
        <ele>369.708</ele>
        <time>2018-09-04T14:44:12Z</time>
      </trkpt>
      <trkpt lat="45.636972" lon="13.846279">
        <ele>369.771</ele>
        <time>2018-09-04T14:44:13Z</time>
      </trkpt>
      <trkpt lat="45.636982" lon="13.846231">
        <ele>369.753</ele>
        <time>2018-09-04T14:44:14Z</time>
      </trkpt>
      <trkpt lat="45.636988" lon="13.846189">
        <ele>369.779</ele>
        <time>2018-09-04T14:44:15Z</time>
      </trkpt>
      <trkpt lat="45.636993" lon="13.846160">
        <ele>369.715</ele>
        <time>2018-09-04T14:44:16Z</time>
      </trkpt>
      <trkpt lat="45.636999" lon="13.846127">
        <ele>369.790</ele>
        <time>2018-09-04T14:44:17Z</time>
      </trkpt>
      <trkpt lat="45.637235" lon="13.845756">
        <ele>367.884</ele>
        <time>2018-09-04T14:44:29Z</time>
      </trkpt>
      <trkpt lat="45.637492" lon="13.845544">
        <ele>366.844</ele>
        <time>2018-09-04T14:44:39Z</time>
      </trkpt>
      <trkpt lat="45.637542" lon="13.845550">
        <ele>367.388</ele>
        <time>2018-09-04T14:44:43Z</time>
      </trkpt>
      <trkpt lat="45.637593" lon="13.845498">
        <ele>367.891</ele>
        <time>2018-09-04T14:44:48Z</time>
      </trkpt>
      <trkpt lat="45.637601" lon="13.845472">
        <ele>367.881</ele>
        <time>2018-09-04T14:44:49Z</time>
      </trkpt>
      <trkpt lat="45.637617" lon="13.845407">
        <ele>367.319</ele>
        <time>2018-09-04T14:44:52Z</time>
      </trkpt>
      <trkpt lat="45.637630" lon="13.845395">
        <ele>367.308</ele>
        <time>2018-09-04T14:44:53Z</time>
      </trkpt>
      <trkpt lat="45.637878" lon="13.845135">
        <ele>367.373</ele>
        <time>2018-09-04T14:45:04Z</time>
      </trkpt>
      <trkpt lat="45.637898" lon="13.845126">
        <ele>367.835</ele>
        <time>2018-09-04T14:45:05Z</time>
      </trkpt>
      <trkpt lat="45.637912" lon="13.845124">
        <ele>368.321</ele>
        <time>2018-09-04T14:45:06Z</time>
      </trkpt>
      <trkpt lat="45.637925" lon="13.845122">
        <ele>368.377</ele>
        <time>2018-09-04T14:45:07Z</time>
      </trkpt>
      <trkpt lat="45.637941" lon="13.845119">
        <ele>368.392</ele>
        <time>2018-09-04T14:45:08Z</time>
      </trkpt>
      <trkpt lat="45.637957" lon="13.845111">
        <ele>368.366</ele>
        <time>2018-09-04T14:45:09Z</time>
      </trkpt>
      <trkpt lat="45.637973" lon="13.845100">
        <ele>368.366</ele>
        <time>2018-09-04T14:45:10Z</time>
      </trkpt>
      <trkpt lat="45.637990" lon="13.845094">
        <ele>368.880</ele>
        <time>2018-09-04T14:45:11Z</time>
      </trkpt>
      <trkpt lat="45.638006" lon="13.845093">
        <ele>368.822</ele>
        <time>2018-09-04T14:45:12Z</time>
      </trkpt>
      <trkpt lat="45.638019" lon="13.845088">
        <ele>368.862</ele>
        <time>2018-09-04T14:45:13Z</time>
      </trkpt>
      <trkpt lat="45.638032" lon="13.845076">
        <ele>368.808</ele>
        <time>2018-09-04T14:45:14Z</time>
      </trkpt>
      <trkpt lat="45.638065" lon="13.845050">
        <ele>368.808</ele>
        <time>2018-09-04T14:45:16Z</time>
      </trkpt>
      <trkpt lat="45.638087" lon="13.845041">
        <ele>368.856</ele>
        <time>2018-09-04T14:45:17Z</time>
      </trkpt>
      <trkpt lat="45.638445" lon="13.844763">
        <ele>370.298</ele>
        <time>2018-09-04T14:45:29Z</time>
      </trkpt>
      <trkpt lat="45.638545" lon="13.844343">
        <ele>373.124</ele>
        <time>2018-09-04T14:45:40Z</time>
      </trkpt>
      <trkpt lat="45.638369" lon="13.843685">
        <ele>371.680</ele>
        <time>2018-09-04T14:45:53Z</time>
      </trkpt>
      <trkpt lat="45.638173" lon="13.842872">
        <ele>369.765</ele>
        <time>2018-09-04T14:46:08Z</time>
      </trkpt>
      <trkpt lat="45.638038" lon="13.842072">
        <ele>367.379</ele>
        <time>2018-09-04T14:46:24Z</time>
      </trkpt>
      <trkpt lat="45.638048" lon="13.841344">
        <ele>362.059</ele>
        <time>2018-09-04T14:46:37Z</time>
      </trkpt>
      <trkpt lat="45.638041" lon="13.840735">
        <ele>357.233</ele>
        <time>2018-09-04T14:46:49Z</time>
      </trkpt>
      <trkpt lat="45.638065" lon="13.840185">
        <ele>351.994</ele>
        <time>2018-09-04T14:47:01Z</time>
      </trkpt>
      <trkpt lat="45.638079" lon="13.839592">
        <ele>346.657</ele>
        <time>2018-09-04T14:47:14Z</time>
      </trkpt>
      <trkpt lat="45.638128" lon="13.839386">
        <ele>345.222</ele>
        <time>2018-09-04T14:47:18Z</time>
      </trkpt>
      <trkpt lat="45.638169" lon="13.839335">
        <ele>344.708</ele>
        <time>2018-09-04T14:47:19Z</time>
      </trkpt>
      <trkpt lat="45.638601" lon="13.838830">
        <ele>346.253</ele>
        <time>2018-09-04T14:47:33Z</time>
      </trkpt>
      <trkpt lat="45.639030" lon="13.838312">
        <ele>347.665</ele>
        <time>2018-09-04T14:47:52Z</time>
      </trkpt>
      <trkpt lat="45.639404" lon="13.837927">
        <ele>350.031</ele>
        <time>2018-09-04T14:48:08Z</time>
      </trkpt>
      <trkpt lat="45.639867" lon="13.837427">
        <ele>348.137</ele>
        <time>2018-09-04T14:48:22Z</time>
      </trkpt>
      <trkpt lat="45.640326" lon="13.836860">
        <ele>347.662</ele>
        <time>2018-09-04T14:48:33Z</time>
      </trkpt>
      <trkpt lat="45.640750" lon="13.836301">
        <ele>351.026</ele>
        <time>2018-09-04T14:48:50Z</time>
      </trkpt>
      <trkpt lat="45.641006" lon="13.835896">
        <ele>350.076</ele>
        <time>2018-09-04T14:49:02Z</time>
      </trkpt>
      <trkpt lat="45.641182" lon="13.835670">
        <ele>348.120</ele>
        <time>2018-09-04T14:49:12Z</time>
      </trkpt>
      <trkpt lat="45.641182" lon="13.835645">
        <ele>347.642</ele>
        <time>2018-09-04T14:49:18Z</time>
      </trkpt>
      <trkpt lat="45.641243" lon="13.835544">
        <ele>347.622</ele>
        <time>2018-09-04T14:49:32Z</time>
      </trkpt>
      <trkpt lat="45.641248" lon="13.835543">
        <ele>347.614</ele>
        <time>2018-09-04T14:49:33Z</time>
      </trkpt>
      <trkpt lat="45.641270" lon="13.835535">
        <ele>347.608</ele>
        <time>2018-09-04T14:49:35Z</time>
      </trkpt>
      <trkpt lat="45.641428" lon="13.835440">
        <ele>350.068</ele>
        <time>2018-09-04T14:49:49Z</time>
      </trkpt>
      <trkpt lat="45.641519" lon="13.835408">
        <ele>351.090</ele>
        <time>2018-09-04T14:49:56Z</time>
      </trkpt>
      <trkpt lat="45.641664" lon="13.835291">
        <ele>352.416</ele>
        <time>2018-09-04T14:50:06Z</time>
      </trkpt>
      <trkpt lat="45.641696" lon="13.835275">
        <ele>352.982</ele>
        <time>2018-09-04T14:50:09Z</time>
      </trkpt>
      <trkpt lat="45.641710" lon="13.835268">
        <ele>353.467</ele>
        <time>2018-09-04T14:50:10Z</time>
      </trkpt>
      <trkpt lat="45.641899" lon="13.835254">
        <ele>356.391</ele>
        <time>2018-09-04T14:50:24Z</time>
      </trkpt>
      <trkpt lat="45.642006" lon="13.835209">
        <ele>357.261</ele>
        <time>2018-09-04T14:50:32Z</time>
      </trkpt>
      <trkpt lat="45.642019" lon="13.835208">
        <ele>357.275</ele>
        <time>2018-09-04T14:50:33Z</time>
      </trkpt>
      <trkpt lat="45.642032" lon="13.835198">
        <ele>357.763</ele>
        <time>2018-09-04T14:50:34Z</time>
      </trkpt>
      <trkpt lat="45.642045" lon="13.835190">
        <ele>357.744</ele>
        <time>2018-09-04T14:50:35Z</time>
      </trkpt>
      <trkpt lat="45.642060" lon="13.835185">
        <ele>357.718</ele>
        <time>2018-09-04T14:50:36Z</time>
      </trkpt>
      <trkpt lat="45.642073" lon="13.835182">
        <ele>358.208</ele>
        <time>2018-09-04T14:50:37Z</time>
      </trkpt>
      <trkpt lat="45.642086" lon="13.835178">
        <ele>358.230</ele>
        <time>2018-09-04T14:50:38Z</time>
      </trkpt>
      <trkpt lat="45.642099" lon="13.835174">
        <ele>358.252</ele>
        <time>2018-09-04T14:50:39Z</time>
      </trkpt>
      <trkpt lat="45.642114" lon="13.835170">
        <ele>358.788</ele>
        <time>2018-09-04T14:50:40Z</time>
      </trkpt>
      <trkpt lat="45.642129" lon="13.835166">
        <ele>358.714</ele>
        <time>2018-09-04T14:50:41Z</time>
      </trkpt>
      <trkpt lat="45.642145" lon="13.835160">
        <ele>359.169</ele>
        <time>2018-09-04T14:50:42Z</time>
      </trkpt>
      <trkpt lat="45.642377" lon="13.835110">
        <ele>362.573</ele>
        <time>2018-09-04T14:50:57Z</time>
      </trkpt>
      <trkpt lat="45.642692" lon="13.835026">
        <ele>365.443</ele>
        <time>2018-09-04T14:51:16Z</time>
      </trkpt>
      <trkpt lat="45.642884" lon="13.834897">
        <ele>366.417</ele>
        <time>2018-09-04T14:51:29Z</time>
      </trkpt>
      <trkpt lat="45.642897" lon="13.834881">
        <ele>366.464</ele>
        <time>2018-09-04T14:51:30Z</time>
      </trkpt>
      <trkpt lat="45.642911" lon="13.834868">
        <ele>366.406</ele>
        <time>2018-09-04T14:51:31Z</time>
      </trkpt>
      <trkpt lat="45.642925" lon="13.834855">
        <ele>365.916</ele>
        <time>2018-09-04T14:51:32Z</time>
      </trkpt>
      <trkpt lat="45.642940" lon="13.834841">
        <ele>366.408</ele>
        <time>2018-09-04T14:51:33Z</time>
      </trkpt>
      <trkpt lat="45.643104" lon="13.834642">
        <ele>368.370</ele>
        <time>2018-09-04T14:51:47Z</time>
      </trkpt>
      <trkpt lat="45.643188" lon="13.834550">
        <ele>371.242</ele>
        <time>2018-09-04T14:51:55Z</time>
      </trkpt>
      <trkpt lat="45.643198" lon="13.834538">
        <ele>371.288</ele>
        <time>2018-09-04T14:51:56Z</time>
      </trkpt>
      <trkpt lat="45.643383" lon="13.834296">
        <ele>374.044</ele>
        <time>2018-09-04T14:52:12Z</time>
      </trkpt>
      <trkpt lat="45.643644" lon="13.834043">
        <ele>376.029</ele>
        <time>2018-09-04T14:52:26Z</time>
      </trkpt>
      <trkpt lat="45.643845" lon="13.833772">
        <ele>377.963</ele>
        <time>2018-09-04T14:52:39Z</time>
      </trkpt>
      <trkpt lat="45.644105" lon="13.833393">
        <ele>379.323</ele>
        <time>2018-09-04T14:52:56Z</time>
      </trkpt>
      <trkpt lat="45.644278" lon="13.833107">
        <ele>381.787</ele>
        <time>2018-09-04T14:53:11Z</time>
      </trkpt>
      <trkpt lat="45.644496" lon="13.832641">
        <ele>381.351</ele>
        <time>2018-09-04T14:53:24Z</time>
      </trkpt>
      <trkpt lat="45.644566" lon="13.832493">
        <ele>380.301</ele>
        <time>2018-09-04T14:53:26Z</time>
      </trkpt>
      <trkpt lat="45.644701" lon="13.832257">
        <ele>380.811</ele>
        <time>2018-09-04T14:53:33Z</time>
      </trkpt>
      <trkpt lat="45.644899" lon="13.831988">
        <ele>384.608</ele>
        <time>2018-09-04T14:53:50Z</time>
      </trkpt>
      <trkpt lat="45.645018" lon="13.831844">
        <ele>388.989</ele>
        <time>2018-09-04T14:54:01Z</time>
      </trkpt>
      <trkpt lat="45.645062" lon="13.831776">
        <ele>389.431</ele>
        <time>2018-09-04T14:54:06Z</time>
      </trkpt>
      <trkpt lat="45.645070" lon="13.831765">
        <ele>389.987</ele>
        <time>2018-09-04T14:54:07Z</time>
      </trkpt>
      <trkpt lat="45.645079" lon="13.831753">
        <ele>389.953</ele>
        <time>2018-09-04T14:54:08Z</time>
      </trkpt>
      <trkpt lat="45.645088" lon="13.831741">
        <ele>389.978</ele>
        <time>2018-09-04T14:54:09Z</time>
      </trkpt>
      <trkpt lat="45.645096" lon="13.831726">
        <ele>389.962</ele>
        <time>2018-09-04T14:54:10Z</time>
      </trkpt>
      <trkpt lat="45.645106" lon="13.831711">
        <ele>390.492</ele>
        <time>2018-09-04T14:54:11Z</time>
      </trkpt>
      <trkpt lat="45.645117" lon="13.831698">
        <ele>390.456</ele>
        <time>2018-09-04T14:54:12Z</time>
      </trkpt>
      <trkpt lat="45.645129" lon="13.831684">
        <ele>390.426</ele>
        <time>2018-09-04T14:54:13Z</time>
      </trkpt>
      <trkpt lat="45.645138" lon="13.831671">
        <ele>390.947</ele>
        <time>2018-09-04T14:54:14Z</time>
      </trkpt>
      <trkpt lat="45.645149" lon="13.831657">
        <ele>390.911</ele>
        <time>2018-09-04T14:54:15Z</time>
      </trkpt>
      <trkpt lat="45.645160" lon="13.831642">
        <ele>390.908</ele>
        <time>2018-09-04T14:54:16Z</time>
      </trkpt>
      <trkpt lat="45.645170" lon="13.831626">
        <ele>390.916</ele>
        <time>2018-09-04T14:54:17Z</time>
      </trkpt>
      <trkpt lat="45.645179" lon="13.831609">
        <ele>390.958</ele>
        <time>2018-09-04T14:54:18Z</time>
      </trkpt>
      <trkpt lat="45.645189" lon="13.831591">
        <ele>390.954</ele>
        <time>2018-09-04T14:54:19Z</time>
      </trkpt>
      <trkpt lat="45.645201" lon="13.831576">
        <ele>390.910</ele>
        <time>2018-09-04T14:54:20Z</time>
      </trkpt>
      <trkpt lat="45.645212" lon="13.831561">
        <ele>390.975</ele>
        <time>2018-09-04T14:54:21Z</time>
      </trkpt>
      <trkpt lat="45.645223" lon="13.831547">
        <ele>391.379</ele>
        <time>2018-09-04T14:54:22Z</time>
      </trkpt>
      <trkpt lat="45.645233" lon="13.831534">
        <ele>391.379</ele>
        <time>2018-09-04T14:54:23Z</time>
      </trkpt>
      <trkpt lat="45.645245" lon="13.831521">
        <ele>391.393</ele>
        <time>2018-09-04T14:54:24Z</time>
      </trkpt>
      <trkpt lat="45.645258" lon="13.831508">
        <ele>391.395</ele>
        <time>2018-09-04T14:54:25Z</time>
      </trkpt>
      <trkpt lat="45.645271" lon="13.831497">
        <ele>391.849</ele>
        <time>2018-09-04T14:54:26Z</time>
      </trkpt>
      <trkpt lat="45.645283" lon="13.831483">
        <ele>391.823</ele>
        <time>2018-09-04T14:54:27Z</time>
      </trkpt>
      <trkpt lat="45.645294" lon="13.831467">
        <ele>391.808</ele>
        <time>2018-09-04T14:54:28Z</time>
      </trkpt>
      <trkpt lat="45.645304" lon="13.831451">
        <ele>392.353</ele>
        <time>2018-09-04T14:54:29Z</time>
      </trkpt>
      <trkpt lat="45.645314" lon="13.831434">
        <ele>392.365</ele>
        <time>2018-09-04T14:54:30Z</time>
      </trkpt>
      <trkpt lat="45.645324" lon="13.831418">
        <ele>392.381</ele>
        <time>2018-09-04T14:54:31Z</time>
      </trkpt>
      <trkpt lat="45.645334" lon="13.831405">
        <ele>392.327</ele>
        <time>2018-09-04T14:54:32Z</time>
      </trkpt>
      <trkpt lat="45.645507" lon="13.831141">
        <ele>394.282</ele>
        <time>2018-09-04T14:54:48Z</time>
      </trkpt>
      <trkpt lat="45.645717" lon="13.830852">
        <ele>395.246</ele>
        <time>2018-09-04T14:55:04Z</time>
      </trkpt>
      <trkpt lat="45.645957" lon="13.830529">
        <ele>397.126</ele>
        <time>2018-09-04T14:55:21Z</time>
      </trkpt>
      <trkpt lat="45.646297" lon="13.830069">
        <ele>397.660</ele>
        <time>2018-09-04T14:55:40Z</time>
      </trkpt>
      <trkpt lat="45.646762" lon="13.829464">
        <ele>394.275</ele>
        <time>2018-09-04T14:55:55Z</time>
      </trkpt>
      <trkpt lat="45.646800" lon="13.829438">
        <ele>393.828</ele>
        <time>2018-09-04T14:55:56Z</time>
      </trkpt>
      <trkpt lat="45.646848" lon="13.829419">
        <ele>393.320</ele>
        <time>2018-09-04T14:55:57Z</time>
      </trkpt>
      <trkpt lat="45.647033" lon="13.829369">
        <ele>391.308</ele>
        <time>2018-09-04T14:56:01Z</time>
      </trkpt>
      <trkpt lat="45.647677" lon="13.829150">
        <ele>388.581</ele>
        <time>2018-09-04T14:56:14Z</time>
      </trkpt>
      <trkpt lat="45.647724" lon="13.829106">
        <ele>388.043</ele>
        <time>2018-09-04T14:56:15Z</time>
      </trkpt>
      <trkpt lat="45.647764" lon="13.829052">
        <ele>387.539</ele>
        <time>2018-09-04T14:56:16Z</time>
      </trkpt>
      <trkpt lat="45.648271" lon="13.828212">
        <ele>378.485</ele>
        <time>2018-09-04T14:56:30Z</time>
      </trkpt>
      <trkpt lat="45.648708" lon="13.827624">
        <ele>375.510</ele>
        <time>2018-09-04T14:56:42Z</time>
      </trkpt>
      <trkpt lat="45.648928" lon="13.827104">
        <ele>377.914</ele>
        <time>2018-09-04T14:56:58Z</time>
      </trkpt>
      <trkpt lat="45.649060" lon="13.826738">
        <ele>378.964</ele>
        <time>2018-09-04T14:57:12Z</time>
      </trkpt>
      <trkpt lat="45.649109" lon="13.826588">
        <ele>378.418</ele>
        <time>2018-09-04T14:57:23Z</time>
      </trkpt>
      <trkpt lat="45.649095" lon="13.826584">
        <ele>379.815</ele>
        <time>2018-09-04T14:57:57Z</time>
      </trkpt>
      <trkpt lat="45.649098" lon="13.826579">
        <ele>380.365</ele>
        <time>2018-09-04T14:58:35Z</time>
      </trkpt>
      <trkpt lat="45.649109" lon="13.826599">
        <ele>376.011</ele>
        <time>2018-09-04T14:59:08Z</time>
      </trkpt>
      <trkpt lat="45.649116" lon="13.826616">
        <ele>375.508</ele>
        <time>2018-09-04T14:59:47Z</time>
      </trkpt>
      <trkpt lat="45.649126" lon="13.826614">
        <ele>374.575</ele>
        <time>2018-09-04T15:00:18Z</time>
      </trkpt>
      <trkpt lat="45.649133" lon="13.826594">
        <ele>375.517</ele>
        <time>2018-09-04T15:00:35Z</time>
      </trkpt>
      <trkpt lat="45.649145" lon="13.826583">
        <ele>375.543</ele>
        <time>2018-09-04T15:00:41Z</time>
      </trkpt>
      <trkpt lat="45.649154" lon="13.826567">
        <ele>375.579</ele>
        <time>2018-09-04T15:00:42Z</time>
      </trkpt>
      <trkpt lat="45.649163" lon="13.826545">
        <ele>375.514</ele>
        <time>2018-09-04T15:00:43Z</time>
      </trkpt>
      <trkpt lat="45.649374" lon="13.826130">
        <ele>374.538</ele>
        <time>2018-09-04T15:00:53Z</time>
      </trkpt>
      <trkpt lat="45.649534" lon="13.825913">
        <ele>374.598</ele>
        <time>2018-09-04T15:00:58Z</time>
      </trkpt>
      <trkpt lat="45.649893" lon="13.825517">
        <ele>376.082</ele>
        <time>2018-09-04T15:01:12Z</time>
      </trkpt>
      <trkpt lat="45.650381" lon="13.825198">
        <ele>376.491</ele>
        <time>2018-09-04T15:01:29Z</time>
      </trkpt>
      <trkpt lat="45.650780" lon="13.824989">
        <ele>375.081</ele>
        <time>2018-09-04T15:01:38Z</time>
      </trkpt>
      <trkpt lat="45.651050" lon="13.824717">
        <ele>374.519</ele>
        <time>2018-09-04T15:01:45Z</time>
      </trkpt>
      <trkpt lat="45.651085" lon="13.824694">
        <ele>374.508</ele>
        <time>2018-09-04T15:01:46Z</time>
      </trkpt>
      <trkpt lat="45.651513" lon="13.824507">
        <ele>375.563</ele>
        <time>2018-09-04T15:01:59Z</time>
      </trkpt>
      <trkpt lat="45.651621" lon="13.824563">
        <ele>375.025</ele>
        <time>2018-09-04T15:02:02Z</time>
      </trkpt>
      <trkpt lat="45.651656" lon="13.824606">
        <ele>374.511</ele>
        <time>2018-09-04T15:02:03Z</time>
      </trkpt>
      <trkpt lat="45.651689" lon="13.824656">
        <ele>374.567</ele>
        <time>2018-09-04T15:02:04Z</time>
      </trkpt>
      <trkpt lat="45.652089" lon="13.825363">
        <ele>371.262</ele>
        <time>2018-09-04T15:02:15Z</time>
      </trkpt>
      <trkpt lat="45.652179" lon="13.825568">
        <ele>370.286</ele>
        <time>2018-09-04T15:02:18Z</time>
      </trkpt>
      <trkpt lat="45.652401" lon="13.826216">
        <ele>366.446</ele>
        <time>2018-09-04T15:02:29Z</time>
      </trkpt>
      <trkpt lat="45.652416" lon="13.826253">
        <ele>365.960</ele>
        <time>2018-09-04T15:02:30Z</time>
      </trkpt>
      <trkpt lat="45.652435" lon="13.826273">
        <ele>365.432</ele>
        <time>2018-09-04T15:02:31Z</time>
      </trkpt>
      <trkpt lat="45.652455" lon="13.826274">
        <ele>364.492</ele>
        <time>2018-09-04T15:02:32Z</time>
      </trkpt>
      <trkpt lat="45.652475" lon="13.826259">
        <ele>364.011</ele>
        <time>2018-09-04T15:02:33Z</time>
      </trkpt>
      <trkpt lat="45.652494" lon="13.826229">
        <ele>363.008</ele>
        <time>2018-09-04T15:02:34Z</time>
      </trkpt>
      <trkpt lat="45.652515" lon="13.826188">
        <ele>362.587</ele>
        <time>2018-09-04T15:02:35Z</time>
      </trkpt>
      <trkpt lat="45.652531" lon="13.826147">
        <ele>361.559</ele>
        <time>2018-09-04T15:02:36Z</time>
      </trkpt>
      <trkpt lat="45.652727" lon="13.825783">
        <ele>355.895</ele>
        <time>2018-09-04T15:02:47Z</time>
      </trkpt>
      <trkpt lat="45.652818" lon="13.825611">
        <ele>353.981</ele>
        <time>2018-09-04T15:02:53Z</time>
      </trkpt>
      <trkpt lat="45.652849" lon="13.825559">
        <ele>353.446</ele>
        <time>2018-09-04T15:02:54Z</time>
      </trkpt>
      <trkpt lat="45.652884" lon="13.825506">
        <ele>353.460</ele>
        <time>2018-09-04T15:02:55Z</time>
      </trkpt>
      <trkpt lat="45.653025" lon="13.825313">
        <ele>352.990</ele>
        <time>2018-09-04T15:02:59Z</time>
      </trkpt>
      <trkpt lat="45.653062" lon="13.825280">
        <ele>352.924</ele>
        <time>2018-09-04T15:03:00Z</time>
      </trkpt>
      <trkpt lat="45.653097" lon="13.825269">
        <ele>353.494</ele>
        <time>2018-09-04T15:03:01Z</time>
      </trkpt>
      <trkpt lat="45.653125" lon="13.825274">
        <ele>353.457</ele>
        <time>2018-09-04T15:03:02Z</time>
      </trkpt>
      <trkpt lat="45.653143" lon="13.825284">
        <ele>353.422</ele>
        <time>2018-09-04T15:03:03Z</time>
      </trkpt>
      <trkpt lat="45.653161" lon="13.825298">
        <ele>353.908</ele>
        <time>2018-09-04T15:03:04Z</time>
      </trkpt>
      <trkpt lat="45.653370" lon="13.825393">
        <ele>357.263</ele>
        <time>2018-09-04T15:03:19Z</time>
      </trkpt>
      <trkpt lat="45.653414" lon="13.825401">
        <ele>358.225</ele>
        <time>2018-09-04T15:03:23Z</time>
      </trkpt>
      <trkpt lat="45.653432" lon="13.825420">
        <ele>358.791</ele>
        <time>2018-09-04T15:03:25Z</time>
      </trkpt>
      <trkpt lat="45.653438" lon="13.825435">
        <ele>358.777</ele>
        <time>2018-09-04T15:03:26Z</time>
      </trkpt>
      <trkpt lat="45.653447" lon="13.825429">
        <ele>358.742</ele>
        <time>2018-09-04T15:03:43Z</time>
      </trkpt>
      <trkpt lat="45.653460" lon="13.825454">
        <ele>360.116</ele>
        <time>2018-09-04T15:04:03Z</time>
      </trkpt>
      <trkpt lat="45.653513" lon="13.825477">
        <ele>359.126</ele>
        <time>2018-09-04T15:04:28Z</time>
      </trkpt>
      <trkpt lat="45.653523" lon="13.825464">
        <ele>359.130</ele>
        <time>2018-09-04T15:04:31Z</time>
      </trkpt>
      <trkpt lat="45.653535" lon="13.825418">
        <ele>359.631</ele>
        <time>2018-09-04T15:04:35Z</time>
      </trkpt>
      <trkpt lat="45.653579" lon="13.825300">
        <ele>365.461</ele>
        <time>2018-09-04T15:04:50Z</time>
      </trkpt>
      <trkpt lat="45.653577" lon="13.825271">
        <ele>364.907</ele>
        <time>2018-09-04T15:04:53Z</time>
      </trkpt>
      <trkpt lat="45.653569" lon="13.825258">
        <ele>364.908</ele>
        <time>2018-09-04T15:04:54Z</time>
      </trkpt>
      <trkpt lat="45.653557" lon="13.825245">
        <ele>364.447</ele>
        <time>2018-09-04T15:04:55Z</time>
      </trkpt>
      <trkpt lat="45.653543" lon="13.825229">
        <ele>364.429</ele>
        <time>2018-09-04T15:04:56Z</time>
      </trkpt>
      <trkpt lat="45.653534" lon="13.825219">
        <ele>364.425</ele>
        <time>2018-09-04T15:04:57Z</time>
      </trkpt>
      <trkpt lat="45.653524" lon="13.825201">
        <ele>364.491</ele>
        <time>2018-09-04T15:04:58Z</time>
      </trkpt>
      <trkpt lat="45.653512" lon="13.825182">
        <ele>364.476</ele>
        <time>2018-09-04T15:04:59Z</time>
      </trkpt>
      <trkpt lat="45.653501" lon="13.825165">
        <ele>364.410</ele>
        <time>2018-09-04T15:05:00Z</time>
      </trkpt>
      <trkpt lat="45.653485" lon="13.825147">
        <ele>364.090</ele>
        <time>2018-09-04T15:05:01Z</time>
      </trkpt>
      <trkpt lat="45.653471" lon="13.825125">
        <ele>364.064</ele>
        <time>2018-09-04T15:05:02Z</time>
      </trkpt>
      <trkpt lat="45.653277" lon="13.824724">
        <ele>362.525</ele>
        <time>2018-09-04T15:05:15Z</time>
      </trkpt>
      <trkpt lat="45.653122" lon="13.824152">
        <ele>362.526</ele>
        <time>2018-09-04T15:05:29Z</time>
      </trkpt>
      <trkpt lat="45.653109" lon="13.823541">
        <ele>365.408</ele>
        <time>2018-09-04T15:05:43Z</time>
      </trkpt>
      <trkpt lat="45.653183" lon="13.823137">
        <ele>366.808</ele>
        <time>2018-09-04T15:05:56Z</time>
      </trkpt>
      <trkpt lat="45.653289" lon="13.822569">
        <ele>365.996</ele>
        <time>2018-09-04T15:06:12Z</time>
      </trkpt>
      <trkpt lat="45.653390" lon="13.822160">
        <ele>367.898</ele>
        <time>2018-09-04T15:06:24Z</time>
      </trkpt>
      <trkpt lat="45.653405" lon="13.822158">
        <ele>366.824</ele>
        <time>2018-09-04T15:06:42Z</time>
      </trkpt>
      <trkpt lat="45.653394" lon="13.822135">
        <ele>367.850</ele>
        <time>2018-09-04T15:06:54Z</time>
      </trkpt>
      <trkpt lat="45.653403" lon="13.822125">
        <ele>367.355</ele>
        <time>2018-09-04T15:06:55Z</time>
      </trkpt>
      <trkpt lat="45.653414" lon="13.822119">
        <ele>367.359</ele>
        <time>2018-09-04T15:06:56Z</time>
      </trkpt>
      <trkpt lat="45.653428" lon="13.822111">
        <ele>367.369</ele>
        <time>2018-09-04T15:06:57Z</time>
      </trkpt>
      <trkpt lat="45.653447" lon="13.822090">
        <ele>367.373</ele>
        <time>2018-09-04T15:06:58Z</time>
      </trkpt>
      <trkpt lat="45.653472" lon="13.822065">
        <ele>367.326</ele>
        <time>2018-09-04T15:06:59Z</time>
      </trkpt>
      <trkpt lat="45.653503" lon="13.822041">
        <ele>367.347</ele>
        <time>2018-09-04T15:07:00Z</time>
      </trkpt>
      <trkpt lat="45.653535" lon="13.822017">
        <ele>366.811</ele>
        <time>2018-09-04T15:07:01Z</time>
      </trkpt>
      <trkpt lat="45.653570" lon="13.821987">
        <ele>366.808</ele>
        <time>2018-09-04T15:07:02Z</time>
      </trkpt>
      <trkpt lat="45.653601" lon="13.821949">
        <ele>366.856</ele>
        <time>2018-09-04T15:07:03Z</time>
      </trkpt>
      <trkpt lat="45.653631" lon="13.821900">
        <ele>366.848</ele>
        <time>2018-09-04T15:07:04Z</time>
      </trkpt>
      <trkpt lat="45.653697" lon="13.821798">
        <ele>366.444</ele>
        <time>2018-09-04T15:07:06Z</time>
      </trkpt>
      <trkpt lat="45.654189" lon="13.821115">
        <ele>364.980</ele>
        <time>2018-09-04T15:07:20Z</time>
      </trkpt>
      <trkpt lat="45.654343" lon="13.820959">
        <ele>364.455</ele>
        <time>2018-09-04T15:07:26Z</time>
      </trkpt>
      <trkpt lat="45.654658" lon="13.820837">
        <ele>362.079</ele>
        <time>2018-09-04T15:07:33Z</time>
      </trkpt>
      <trkpt lat="45.654748" lon="13.820769">
        <ele>361.549</ele>
        <time>2018-09-04T15:07:35Z</time>
      </trkpt>
      <trkpt lat="45.654797" lon="13.820743">
        <ele>361.193</ele>
        <time>2018-09-04T15:07:36Z</time>
      </trkpt>
      <trkpt lat="45.654849" lon="13.820719">
        <ele>361.121</ele>
        <time>2018-09-04T15:07:37Z</time>
      </trkpt>
      <trkpt lat="45.655169" lon="13.820544">
        <ele>358.241</ele>
        <time>2018-09-04T15:07:43Z</time>
      </trkpt>
      <trkpt lat="45.655217" lon="13.820493">
        <ele>357.705</ele>
        <time>2018-09-04T15:07:44Z</time>
      </trkpt>
      <trkpt lat="45.655452" lon="13.820214">
        <ele>355.808</ele>
        <time>2018-09-04T15:07:50Z</time>
      </trkpt>
      <trkpt lat="45.655486" lon="13.820169">
        <ele>355.876</ele>
        <time>2018-09-04T15:07:51Z</time>
      </trkpt>
      <trkpt lat="45.655942" lon="13.819718">
        <ele>353.928</ele>
        <time>2018-09-04T15:08:02Z</time>
      </trkpt>
      <trkpt lat="45.656671" lon="13.819410">
        <ele>352.974</ele>
        <time>2018-09-04T15:08:18Z</time>
      </trkpt>
      <trkpt lat="45.657319" lon="13.819038">
        <ele>352.990</ele>
        <time>2018-09-04T15:08:35Z</time>
      </trkpt>
      <trkpt lat="45.657358" lon="13.819013">
        <ele>352.965</ele>
        <time>2018-09-04T15:08:36Z</time>
      </trkpt>
      <trkpt lat="45.657399" lon="13.818988">
        <ele>352.989</ele>
        <time>2018-09-04T15:08:37Z</time>
      </trkpt>
      <trkpt lat="45.657440" lon="13.818957">
        <ele>352.969</ele>
        <time>2018-09-04T15:08:38Z</time>
      </trkpt>
      <trkpt lat="45.657481" lon="13.818928">
        <ele>352.913</ele>
        <time>2018-09-04T15:08:39Z</time>
      </trkpt>
      <trkpt lat="45.657526" lon="13.818904">
        <ele>352.929</ele>
        <time>2018-09-04T15:08:40Z</time>
      </trkpt>
      <trkpt lat="45.657573" lon="13.818886">
        <ele>352.900</ele>
        <time>2018-09-04T15:08:41Z</time>
      </trkpt>
      <trkpt lat="45.657619" lon="13.818876">
        <ele>352.920</ele>
        <time>2018-09-04T15:08:42Z</time>
      </trkpt>
      <trkpt lat="45.657659" lon="13.818872">
        <ele>352.408</ele>
        <time>2018-09-04T15:08:43Z</time>
      </trkpt>
      <trkpt lat="45.657897" lon="13.818840">
        <ele>354.876</ele>
        <time>2018-09-04T15:08:54Z</time>
      </trkpt>
      <trkpt lat="45.658103" lon="13.818814">
        <ele>358.248</ele>
        <time>2018-09-04T15:09:04Z</time>
      </trkpt>
      <trkpt lat="45.658523" lon="13.818724">
        <ele>360.154</ele>
        <time>2018-09-04T15:09:19Z</time>
      </trkpt>
      <trkpt lat="45.658891" lon="13.818700">
        <ele>361.170</ele>
        <time>2018-09-04T15:09:33Z</time>
      </trkpt>
      <trkpt lat="45.659209" lon="13.818629">
        <ele>361.125</ele>
        <time>2018-09-04T15:09:44Z</time>
      </trkpt>
      <trkpt lat="45.659246" lon="13.818595">
        <ele>360.629</ele>
        <time>2018-09-04T15:09:45Z</time>
      </trkpt>
      <trkpt lat="45.659360" lon="13.818458">
        <ele>359.639</ele>
        <time>2018-09-04T15:09:48Z</time>
      </trkpt>
      <trkpt lat="45.659398" lon="13.818400">
        <ele>359.123</ele>
        <time>2018-09-04T15:09:49Z</time>
      </trkpt>
      <trkpt lat="45.659639" lon="13.818000">
        <ele>356.788</ele>
        <time>2018-09-04T15:09:55Z</time>
      </trkpt>
      <trkpt lat="45.660250" lon="13.817235">
        <ele>353.424</ele>
        <time>2018-09-04T15:10:08Z</time>
      </trkpt>
      <trkpt lat="45.660881" lon="13.816591">
        <ele>346.226</ele>
        <time>2018-09-04T15:10:23Z</time>
      </trkpt>
      <trkpt lat="45.661380" lon="13.816234">
        <ele>341.808</ele>
        <time>2018-09-04T15:10:33Z</time>
      </trkpt>
      <trkpt lat="45.661433" lon="13.816201">
        <ele>341.432</ele>
        <time>2018-09-04T15:10:34Z</time>
      </trkpt>
      <trkpt lat="45.661484" lon="13.816160">
        <ele>340.964</ele>
        <time>2018-09-04T15:10:35Z</time>
      </trkpt>
      <trkpt lat="45.661622" lon="13.816042">
        <ele>340.420</ele>
        <time>2018-09-04T15:10:38Z</time>
      </trkpt>
      <trkpt lat="45.661975" lon="13.815803">
        <ele>341.456</ele>
        <time>2018-09-04T15:10:51Z</time>
      </trkpt>
      <trkpt lat="45.662091" lon="13.815693">
        <ele>340.421</ele>
        <time>2018-09-04T15:10:55Z</time>
      </trkpt>
      <trkpt lat="45.662115" lon="13.815635">
        <ele>339.915</ele>
        <time>2018-09-04T15:10:56Z</time>
      </trkpt>
      <trkpt lat="45.662166" lon="13.815488">
        <ele>339.495</ele>
        <time>2018-09-04T15:10:59Z</time>
      </trkpt>
      <trkpt lat="45.662190" lon="13.815441">
        <ele>339.479</ele>
        <time>2018-09-04T15:11:00Z</time>
      </trkpt>
      <trkpt lat="45.662216" lon="13.815398">
        <ele>339.416</ele>
        <time>2018-09-04T15:11:01Z</time>
      </trkpt>
      <trkpt lat="45.662240" lon="13.815364">
        <ele>339.476</ele>
        <time>2018-09-04T15:11:02Z</time>
      </trkpt>
      <trkpt lat="45.662261" lon="13.815336">
        <ele>339.413</ele>
        <time>2018-09-04T15:11:03Z</time>
      </trkpt>
      <trkpt lat="45.662603" lon="13.814855">
        <ele>341.408</ele>
        <time>2018-09-04T15:11:19Z</time>
      </trkpt>
      <trkpt lat="45.662953" lon="13.814462">
        <ele>342.835</ele>
        <time>2018-09-04T15:11:34Z</time>
      </trkpt>
      <trkpt lat="45.663242" lon="13.814030">
        <ele>344.787</ele>
        <time>2018-09-04T15:11:49Z</time>
      </trkpt>
      <trkpt lat="45.663450" lon="13.813530">
        <ele>345.763</ele>
        <time>2018-09-04T15:12:01Z</time>
      </trkpt>
      <trkpt lat="45.663598" lon="13.813023">
        <ele>344.759</ele>
        <time>2018-09-04T15:12:12Z</time>
      </trkpt>
      <trkpt lat="45.663763" lon="13.812220">
        <ele>343.814</ele>
        <time>2018-09-04T15:12:28Z</time>
      </trkpt>
      <trkpt lat="45.663913" lon="13.811613">
        <ele>342.398</ele>
        <time>2018-09-04T15:12:39Z</time>
      </trkpt>
      <trkpt lat="45.664195" lon="13.811099">
        <ele>340.918</ele>
        <time>2018-09-04T15:12:51Z</time>
      </trkpt>
      <trkpt lat="45.664456" lon="13.810688">
        <ele>342.892</ele>
        <time>2018-09-04T15:13:05Z</time>
      </trkpt>
      <trkpt lat="45.664679" lon="13.810343">
        <ele>345.221</ele>
        <time>2018-09-04T15:13:20Z</time>
      </trkpt>
      <trkpt lat="45.664877" lon="13.810082">
        <ele>347.641</ele>
        <time>2018-09-04T15:13:34Z</time>
      </trkpt>
      <trkpt lat="45.665115" lon="13.809745">
        <ele>349.505</ele>
        <time>2018-09-04T15:13:49Z</time>
      </trkpt>
      <trkpt lat="45.665356" lon="13.809404">
        <ele>350.508</ele>
        <time>2018-09-04T15:14:02Z</time>
      </trkpt>
      <trkpt lat="45.665581" lon="13.809181">
        <ele>350.596</ele>
        <time>2018-09-04T15:14:12Z</time>
      </trkpt>
      <trkpt lat="45.665878" lon="13.808802">
        <ele>351.028</ele>
        <time>2018-09-04T15:14:24Z</time>
      </trkpt>
      <trkpt lat="45.666149" lon="13.808376">
        <ele>351.554</ele>
        <time>2018-09-04T15:14:37Z</time>
      </trkpt>
      <trkpt lat="45.666516" lon="13.807870">
        <ele>350.510</ele>
        <time>2018-09-04T15:14:52Z</time>
      </trkpt>
      <trkpt lat="45.666685" lon="13.807657">
        <ele>348.645</ele>
        <time>2018-09-04T15:14:58Z</time>
      </trkpt>
      <trkpt lat="45.666724" lon="13.807623">
        <ele>348.199</ele>
        <time>2018-09-04T15:14:59Z</time>
      </trkpt>
      <trkpt lat="45.667079" lon="13.807369">
        <ele>346.689</ele>
        <time>2018-09-04T15:15:07Z</time>
      </trkpt>
      <trkpt lat="45.667120" lon="13.807333">
        <ele>346.683</ele>
        <time>2018-09-04T15:15:08Z</time>
      </trkpt>
      <trkpt lat="45.667157" lon="13.807299">
        <ele>346.696</ele>
        <time>2018-09-04T15:15:09Z</time>
      </trkpt>
      <trkpt lat="45.667192" lon="13.807267">
        <ele>346.631</ele>
        <time>2018-09-04T15:15:10Z</time>
      </trkpt>
      <trkpt lat="45.667224" lon="13.807240">
        <ele>346.624</ele>
        <time>2018-09-04T15:15:11Z</time>
      </trkpt>
      <trkpt lat="45.667727" lon="13.806764">
        <ele>347.108</ele>
        <time>2018-09-04T15:15:27Z</time>
      </trkpt>
      <trkpt lat="45.668016" lon="13.806436">
        <ele>347.153</ele>
        <time>2018-09-04T15:15:38Z</time>
      </trkpt>
      <trkpt lat="45.668180" lon="13.806040">
        <ele>348.685</ele>
        <time>2018-09-04T15:15:48Z</time>
      </trkpt>
      <trkpt lat="45.668200" lon="13.805983">
        <ele>348.641</ele>
        <time>2018-09-04T15:15:49Z</time>
      </trkpt>
      <trkpt lat="45.668221" lon="13.805929">
        <ele>348.617</ele>
        <time>2018-09-04T15:15:50Z</time>
      </trkpt>
      <trkpt lat="45.668239" lon="13.805873">
        <ele>348.682</ele>
        <time>2018-09-04T15:15:51Z</time>
      </trkpt>
      <trkpt lat="45.668255" lon="13.805815">
        <ele>348.186</ele>
        <time>2018-09-04T15:15:52Z</time>
      </trkpt>
      <trkpt lat="45.668273" lon="13.805758">
        <ele>348.126</ele>
        <time>2018-09-04T15:15:53Z</time>
      </trkpt>
      <trkpt lat="45.668288" lon="13.805700">
        <ele>347.660</ele>
        <time>2018-09-04T15:15:54Z</time>
      </trkpt>
      <trkpt lat="45.668319" lon="13.805581">
        <ele>347.655</ele>
        <time>2018-09-04T15:15:56Z</time>
      </trkpt>
      <trkpt lat="45.668507" lon="13.805081">
        <ele>344.707</ele>
        <time>2018-09-04T15:16:04Z</time>
      </trkpt>
      <trkpt lat="45.668544" lon="13.805020">
        <ele>344.717</ele>
        <time>2018-09-04T15:16:05Z</time>
      </trkpt>
      <trkpt lat="45.668576" lon="13.804971">
        <ele>344.708</ele>
        <time>2018-09-04T15:16:06Z</time>
      </trkpt>
      <trkpt lat="45.668658" lon="13.804813">
        <ele>344.719</ele>
        <time>2018-09-04T15:16:09Z</time>
      </trkpt>
      <trkpt lat="45.668682" lon="13.804762">
        <ele>344.741</ele>
        <time>2018-09-04T15:16:10Z</time>
      </trkpt>
      <trkpt lat="45.668704" lon="13.804729">
        <ele>345.267</ele>
        <time>2018-09-04T15:16:11Z</time>
      </trkpt>
      <trkpt lat="45.668773" lon="13.804612">
        <ele>344.233</ele>
        <time>2018-09-04T15:16:14Z</time>
      </trkpt>
      <trkpt lat="45.668796" lon="13.804560">
        <ele>343.868</ele>
        <time>2018-09-04T15:16:15Z</time>
      </trkpt>
      <trkpt lat="45.668814" lon="13.804507">
        <ele>343.882</ele>
        <time>2018-09-04T15:16:16Z</time>
      </trkpt>
      <trkpt lat="45.668844" lon="13.804398">
        <ele>343.362</ele>
        <time>2018-09-04T15:16:18Z</time>
      </trkpt>
      <trkpt lat="45.669008" lon="13.803474">
        <ele>341.426</ele>
        <time>2018-09-04T15:16:32Z</time>
      </trkpt>
      <trkpt lat="45.669025" lon="13.803409">
        <ele>341.449</ele>
        <time>2018-09-04T15:16:33Z</time>
      </trkpt>
      <trkpt lat="45.669045" lon="13.803351">
        <ele>340.902</ele>
        <time>2018-09-04T15:16:34Z</time>
      </trkpt>
      <trkpt lat="45.669189" lon="13.803034">
        <ele>342.322</ele>
        <time>2018-09-04T15:16:42Z</time>
      </trkpt>
      <trkpt lat="45.669197" lon="13.803006">
        <ele>342.808</ele>
        <time>2018-09-04T15:16:43Z</time>
      </trkpt>
      <trkpt lat="45.669204" lon="13.802979">
        <ele>342.848</ele>
        <time>2018-09-04T15:16:44Z</time>
      </trkpt>
      <trkpt lat="45.669210" lon="13.802956">
        <ele>342.870</ele>
        <time>2018-09-04T15:16:45Z</time>
      </trkpt>
      <trkpt lat="45.669219" lon="13.802927">
        <ele>343.336</ele>
        <time>2018-09-04T15:16:46Z</time>
      </trkpt>
      <trkpt lat="45.669345" lon="13.802495">
        <ele>346.282</ele>
        <time>2018-09-04T15:17:00Z</time>
      </trkpt>
      <trkpt lat="45.669536" lon="13.802160">
        <ele>353.977</ele>
        <time>2018-09-04T15:17:16Z</time>
      </trkpt>
      <trkpt lat="45.669691" lon="13.801843">
        <ele>358.211</ele>
        <time>2018-09-04T15:17:30Z</time>
      </trkpt>
      <trkpt lat="45.669768" lon="13.801680">
        <ele>361.141</ele>
        <time>2018-09-04T15:17:38Z</time>
      </trkpt>
      <trkpt lat="45.669774" lon="13.801658">
        <ele>361.195</ele>
        <time>2018-09-04T15:17:39Z</time>
      </trkpt>
      <trkpt lat="45.669783" lon="13.801639">
        <ele>361.139</ele>
        <time>2018-09-04T15:17:40Z</time>
      </trkpt>
      <trkpt lat="45.669794" lon="13.801619">
        <ele>361.501</ele>
        <time>2018-09-04T15:17:41Z</time>
      </trkpt>
      <trkpt lat="45.669804" lon="13.801600">
        <ele>361.521</ele>
        <time>2018-09-04T15:17:42Z</time>
      </trkpt>
      <trkpt lat="45.669922" lon="13.801365">
        <ele>364.408</ele>
        <time>2018-09-04T15:17:55Z</time>
      </trkpt>
      <trkpt lat="45.670088" lon="13.801091">
        <ele>364.917</ele>
        <time>2018-09-04T15:18:09Z</time>
      </trkpt>
      <trkpt lat="45.670296" lon="13.800725">
        <ele>364.069</ele>
        <time>2018-09-04T15:18:26Z</time>
      </trkpt>
      <trkpt lat="45.670540" lon="13.800559">
        <ele>364.925</ele>
        <time>2018-09-04T15:18:40Z</time>
      </trkpt>
      <trkpt lat="45.670780" lon="13.800484">
        <ele>372.171</ele>
        <time>2018-09-04T15:18:56Z</time>
      </trkpt>
      <trkpt lat="45.670960" lon="13.800290">
        <ele>377.486</ele>
        <time>2018-09-04T15:19:11Z</time>
      </trkpt>
      <trkpt lat="45.671031" lon="13.800211">
        <ele>377.480</ele>
        <time>2018-09-04T15:19:18Z</time>
      </trkpt>
      <trkpt lat="45.671042" lon="13.800199">
        <ele>377.420</ele>
        <time>2018-09-04T15:19:19Z</time>
      </trkpt>
      <trkpt lat="45.671051" lon="13.800188">
        <ele>377.994</ele>
        <time>2018-09-04T15:19:20Z</time>
      </trkpt>
      <trkpt lat="45.671059" lon="13.800174">
        <ele>377.937</ele>
        <time>2018-09-04T15:19:21Z</time>
      </trkpt>
      <trkpt lat="45.671068" lon="13.800161">
        <ele>378.449</ele>
        <time>2018-09-04T15:19:22Z</time>
      </trkpt>
      <trkpt lat="45.671077" lon="13.800149">
        <ele>378.413</ele>
        <time>2018-09-04T15:19:23Z</time>
      </trkpt>
      <trkpt lat="45.671154" lon="13.800056">
        <ele>378.408</ele>
        <time>2018-09-04T15:19:31Z</time>
      </trkpt>
      <trkpt lat="45.671161" lon="13.800042">
        <ele>378.417</ele>
        <time>2018-09-04T15:19:32Z</time>
      </trkpt>
      <trkpt lat="45.671200" lon="13.799971">
        <ele>378.969</ele>
        <time>2018-09-04T15:19:38Z</time>
      </trkpt>
      <trkpt lat="45.671259" lon="13.799902">
        <ele>378.955</ele>
        <time>2018-09-04T15:19:45Z</time>
      </trkpt>
      <trkpt lat="45.671266" lon="13.799891">
        <ele>378.951</ele>
        <time>2018-09-04T15:19:46Z</time>
      </trkpt>
      <trkpt lat="45.671381" lon="13.799748">
        <ele>382.286</ele>
        <time>2018-09-04T15:20:00Z</time>
      </trkpt>
      <trkpt lat="45.671387" lon="13.799736">
        <ele>382.740</ele>
        <time>2018-09-04T15:20:01Z</time>
      </trkpt>
      <trkpt lat="45.671392" lon="13.799722">
        <ele>383.240</ele>
        <time>2018-09-04T15:20:02Z</time>
      </trkpt>
      <trkpt lat="45.671397" lon="13.799709">
        <ele>383.754</ele>
        <time>2018-09-04T15:20:03Z</time>
      </trkpt>
      <trkpt lat="45.671403" lon="13.799698">
        <ele>383.797</ele>
        <time>2018-09-04T15:20:04Z</time>
      </trkpt>
      <trkpt lat="45.671421" lon="13.799681">
        <ele>384.623</ele>
        <time>2018-09-04T15:20:06Z</time>
      </trkpt>
      <trkpt lat="45.671446" lon="13.799655">
        <ele>384.625</ele>
        <time>2018-09-04T15:20:09Z</time>
      </trkpt>
      <trkpt lat="45.671453" lon="13.799645">
        <ele>384.608</ele>
        <time>2018-09-04T15:20:10Z</time>
      </trkpt>
      <trkpt lat="45.671549" lon="13.799426">
        <ele>386.513</ele>
        <time>2018-09-04T15:20:27Z</time>
      </trkpt>
      <trkpt lat="45.671604" lon="13.799264">
        <ele>388.515</ele>
        <time>2018-09-04T15:20:37Z</time>
      </trkpt>
      <trkpt lat="45.671610" lon="13.799248">
        <ele>388.521</ele>
        <time>2018-09-04T15:20:38Z</time>
      </trkpt>
      <trkpt lat="45.671619" lon="13.799230">
        <ele>388.537</ele>
        <time>2018-09-04T15:20:39Z</time>
      </trkpt>
      <trkpt lat="45.671626" lon="13.799212">
        <ele>388.562</ele>
        <time>2018-09-04T15:20:40Z</time>
      </trkpt>
      <trkpt lat="45.671633" lon="13.799195">
        <ele>388.536</ele>
        <time>2018-09-04T15:20:41Z</time>
      </trkpt>
      <trkpt lat="45.671640" lon="13.799178">
        <ele>388.576</ele>
        <time>2018-09-04T15:20:42Z</time>
      </trkpt>
      <trkpt lat="45.671801" lon="13.798924">
        <ele>389.930</ele>
        <time>2018-09-04T15:20:58Z</time>
      </trkpt>
      <trkpt lat="45.671852" lon="13.798881">
        <ele>389.925</ele>
        <time>2018-09-04T15:21:02Z</time>
      </trkpt>
      <trkpt lat="45.671864" lon="13.798874">
        <ele>389.426</ele>
        <time>2018-09-04T15:21:03Z</time>
      </trkpt>
      <trkpt lat="45.671875" lon="13.798861">
        <ele>389.908</ele>
        <time>2018-09-04T15:21:04Z</time>
      </trkpt>
      <trkpt lat="45.671887" lon="13.798847">
        <ele>389.908</ele>
        <time>2018-09-04T15:21:05Z</time>
      </trkpt>
      <trkpt lat="45.671901" lon="13.798835">
        <ele>389.936</ele>
        <time>2018-09-04T15:21:06Z</time>
      </trkpt>
      <trkpt lat="45.671914" lon="13.798826">
        <ele>390.458</ele>
        <time>2018-09-04T15:21:07Z</time>
      </trkpt>
      <trkpt lat="45.672060" lon="13.798577">
        <ele>398.124</ele>
        <time>2018-09-04T15:21:23Z</time>
      </trkpt>
      <trkpt lat="45.672025" lon="13.798266">
        <ele>402.960</ele>
        <time>2018-09-04T15:21:36Z</time>
      </trkpt>
      <trkpt lat="45.671996" lon="13.798112">
        <ele>402.955</ele>
        <time>2018-09-04T15:21:43Z</time>
      </trkpt>
      <trkpt lat="45.672004" lon="13.798094">
        <ele>402.999</ele>
        <time>2018-09-04T15:21:44Z</time>
      </trkpt>
      <trkpt lat="45.672010" lon="13.798074">
        <ele>402.919</ele>
        <time>2018-09-04T15:21:45Z</time>
      </trkpt>
      <trkpt lat="45.672015" lon="13.798056">
        <ele>402.913</ele>
        <time>2018-09-04T15:21:46Z</time>
      </trkpt>
      <trkpt lat="45.672018" lon="13.798037">
        <ele>403.413</ele>
        <time>2018-09-04T15:21:47Z</time>
      </trkpt>
      <trkpt lat="45.672023" lon="13.798013">
        <ele>403.443</ele>
        <time>2018-09-04T15:21:48Z</time>
      </trkpt>
      <trkpt lat="45.672029" lon="13.797991">
        <ele>403.407</ele>
        <time>2018-09-04T15:21:49Z</time>
      </trkpt>
      <trkpt lat="45.672037" lon="13.797966">
        <ele>403.808</ele>
        <time>2018-09-04T15:21:50Z</time>
      </trkpt>
      <trkpt lat="45.672041" lon="13.797947">
        <ele>403.885</ele>
        <time>2018-09-04T15:21:51Z</time>
      </trkpt>
      <trkpt lat="45.672042" lon="13.797927">
        <ele>403.837</ele>
        <time>2018-09-04T15:21:52Z</time>
      </trkpt>
      <trkpt lat="45.672047" lon="13.797886">
        <ele>404.883</ele>
        <time>2018-09-04T15:21:54Z</time>
      </trkpt>
      <trkpt lat="45.672108" lon="13.797698">
        <ele>406.279</ele>
        <time>2018-09-04T15:22:03Z</time>
      </trkpt>
      <trkpt lat="45.672109" lon="13.797678">
        <ele>406.264</ele>
        <time>2018-09-04T15:22:04Z</time>
      </trkpt>
      <trkpt lat="45.672124" lon="13.797611">
        <ele>406.738</ele>
        <time>2018-09-04T15:22:08Z</time>
      </trkpt>
      <trkpt lat="45.672130" lon="13.797592">
        <ele>407.288</ele>
        <time>2018-09-04T15:22:09Z</time>
      </trkpt>
      <trkpt lat="45.672135" lon="13.797576">
        <ele>407.762</ele>
        <time>2018-09-04T15:22:10Z</time>
      </trkpt>
      <trkpt lat="45.672141" lon="13.797558">
        <ele>408.243</ele>
        <time>2018-09-04T15:22:11Z</time>
      </trkpt>
      <trkpt lat="45.672147" lon="13.797538">
        <ele>408.764</ele>
        <time>2018-09-04T15:22:12Z</time>
      </trkpt>
      <trkpt lat="45.672155" lon="13.797520">
        <ele>409.110</ele>
        <time>2018-09-04T15:22:13Z</time>
      </trkpt>
      <trkpt lat="45.672200" lon="13.797416">
        <ele>411.508</ele>
        <time>2018-09-04T15:22:20Z</time>
      </trkpt>
      <trkpt lat="45.672205" lon="13.797399">
        <ele>412.048</ele>
        <time>2018-09-04T15:22:21Z</time>
      </trkpt>
      <trkpt lat="45.672257" lon="13.797281">
        <ele>413.050</ele>
        <time>2018-09-04T15:22:29Z</time>
      </trkpt>
      <trkpt lat="45.672274" lon="13.797258">
        <ele>412.526</ele>
        <time>2018-09-04T15:22:31Z</time>
      </trkpt>
      <trkpt lat="45.672400" lon="13.797038">
        <ele>414.432</ele>
        <time>2018-09-04T15:22:48Z</time>
      </trkpt>
      <trkpt lat="45.672451" lon="13.796932">
        <ele>416.857</ele>
        <time>2018-09-04T15:23:00Z</time>
      </trkpt>
      <trkpt lat="45.672453" lon="13.796911">
        <ele>416.821</ele>
        <time>2018-09-04T15:23:01Z</time>
      </trkpt>
      <trkpt lat="45.672455" lon="13.796894">
        <ele>416.391</ele>
        <time>2018-09-04T15:23:02Z</time>
      </trkpt>
      <trkpt lat="45.672461" lon="13.796871">
        <ele>416.355</ele>
        <time>2018-09-04T15:23:03Z</time>
      </trkpt>
      <trkpt lat="45.672473" lon="13.796851">
        <ele>415.927</ele>
        <time>2018-09-04T15:23:04Z</time>
      </trkpt>
      <trkpt lat="45.672485" lon="13.796828">
        <ele>414.968</ele>
        <time>2018-09-04T15:23:05Z</time>
      </trkpt>
      <trkpt lat="45.672494" lon="13.796798">
        <ele>414.414</ele>
        <time>2018-09-04T15:23:06Z</time>
      </trkpt>
      <trkpt lat="45.672601" lon="13.796349">
        <ele>410.608</ele>
        <time>2018-09-04T15:23:17Z</time>
      </trkpt>
      <trkpt lat="45.672620" lon="13.796332">
        <ele>409.676</ele>
        <time>2018-09-04T15:23:18Z</time>
      </trkpt>
      <trkpt lat="45.672654" lon="13.796333">
        <ele>408.758</ele>
        <time>2018-09-04T15:23:19Z</time>
      </trkpt>
      <trkpt lat="45.672682" lon="13.796353">
        <ele>408.244</ele>
        <time>2018-09-04T15:23:20Z</time>
      </trkpt>
      <trkpt lat="45.672701" lon="13.796374">
        <ele>407.750</ele>
        <time>2018-09-04T15:23:21Z</time>
      </trkpt>
      <trkpt lat="45.672717" lon="13.796393">
        <ele>406.755</ele>
        <time>2018-09-04T15:23:22Z</time>
      </trkpt>
      <trkpt lat="45.672735" lon="13.796410">
        <ele>406.729</ele>
        <time>2018-09-04T15:23:23Z</time>
      </trkpt>
      <trkpt lat="45.672756" lon="13.796430">
        <ele>406.249</ele>
        <time>2018-09-04T15:23:24Z</time>
      </trkpt>
      <trkpt lat="45.672779" lon="13.796448">
        <ele>406.293</ele>
        <time>2018-09-04T15:23:25Z</time>
      </trkpt>
      <trkpt lat="45.672803" lon="13.796462">
        <ele>405.867</ele>
        <time>2018-09-04T15:23:26Z</time>
      </trkpt>
      <trkpt lat="45.672824" lon="13.796473">
        <ele>405.881</ele>
        <time>2018-09-04T15:23:27Z</time>
      </trkpt>
      <trkpt lat="45.672846" lon="13.796486">
        <ele>405.819</ele>
        <time>2018-09-04T15:23:28Z</time>
      </trkpt>
      <trkpt lat="45.672870" lon="13.796497">
        <ele>405.808</ele>
        <time>2018-09-04T15:23:29Z</time>
      </trkpt>
      <trkpt lat="45.673089" lon="13.796564">
        <ele>411.160</ele>
        <time>2018-09-04T15:23:42Z</time>
      </trkpt>
      <trkpt lat="45.673282" lon="13.796426">
        <ele>412.532</ele>
        <time>2018-09-04T15:23:54Z</time>
      </trkpt>
      <trkpt lat="45.673394" lon="13.796320">
        <ele>410.148</ele>
        <time>2018-09-04T15:24:07Z</time>
      </trkpt>
      <trkpt lat="45.673422" lon="13.796284">
        <ele>409.694</ele>
        <time>2018-09-04T15:24:13Z</time>
      </trkpt>
      <trkpt lat="45.673427" lon="13.796264">
        <ele>409.659</ele>
        <time>2018-09-04T15:24:14Z</time>
      </trkpt>
      <trkpt lat="45.673436" lon="13.796249">
        <ele>409.683</ele>
        <time>2018-09-04T15:24:15Z</time>
      </trkpt>
      <trkpt lat="45.673453" lon="13.796230">
        <ele>409.633</ele>
        <time>2018-09-04T15:24:16Z</time>
      </trkpt>
      <trkpt lat="45.673470" lon="13.796210">
        <ele>409.617</ele>
        <time>2018-09-04T15:24:17Z</time>
      </trkpt>
      <trkpt lat="45.673490" lon="13.796187">
        <ele>409.166</ele>
        <time>2018-09-04T15:24:18Z</time>
      </trkpt>
      <trkpt lat="45.673511" lon="13.796162">
        <ele>409.129</ele>
        <time>2018-09-04T15:24:19Z</time>
      </trkpt>
      <trkpt lat="45.673534" lon="13.796134">
        <ele>408.721</ele>
        <time>2018-09-04T15:24:20Z</time>
      </trkpt>
      <trkpt lat="45.673555" lon="13.796109">
        <ele>408.708</ele>
        <time>2018-09-04T15:24:21Z</time>
      </trkpt>
      <trkpt lat="45.673576" lon="13.796080">
        <ele>408.770</ele>
        <time>2018-09-04T15:24:22Z</time>
      </trkpt>
      <trkpt lat="45.673877" lon="13.795679">
        <ele>408.762</ele>
        <time>2018-09-04T15:24:37Z</time>
      </trkpt>
      <trkpt lat="45.674123" lon="13.795279">
        <ele>408.778</ele>
        <time>2018-09-04T15:24:51Z</time>
      </trkpt>
      <trkpt lat="45.674433" lon="13.794784">
        <ele>409.684</ele>
        <time>2018-09-04T15:25:06Z</time>
      </trkpt>
      <trkpt lat="45.674731" lon="13.794194">
        <ele>408.239</ele>
        <time>2018-09-04T15:25:20Z</time>
      </trkpt>
      <trkpt lat="45.675068" lon="13.793673">
        <ele>407.233</ele>
        <time>2018-09-04T15:25:32Z</time>
      </trkpt>
      <trkpt lat="45.675105" lon="13.793624">
        <ele>406.793</ele>
        <time>2018-09-04T15:25:33Z</time>
      </trkpt>
      <trkpt lat="45.675149" lon="13.793579">
        <ele>406.717</ele>
        <time>2018-09-04T15:25:34Z</time>
      </trkpt>
      <trkpt lat="45.675200" lon="13.793544">
        <ele>406.276</ele>
        <time>2018-09-04T15:25:35Z</time>
      </trkpt>
      <trkpt lat="45.675253" lon="13.793523">
        <ele>405.890</ele>
        <time>2018-09-04T15:25:36Z</time>
      </trkpt>
      <trkpt lat="45.675301" lon="13.793506">
        <ele>405.319</ele>
        <time>2018-09-04T15:25:37Z</time>
      </trkpt>
      <trkpt lat="45.675340" lon="13.793483">
        <ele>404.808</ele>
        <time>2018-09-04T15:25:38Z</time>
      </trkpt>
      <trkpt lat="45.675370" lon="13.793451">
        <ele>404.311</ele>
        <time>2018-09-04T15:25:39Z</time>
      </trkpt>
      <trkpt lat="45.675394" lon="13.793416">
        <ele>403.883</ele>
        <time>2018-09-04T15:25:40Z</time>
      </trkpt>
      <trkpt lat="45.675414" lon="13.793377">
        <ele>402.959</ele>
        <time>2018-09-04T15:25:41Z</time>
      </trkpt>
      <trkpt lat="45.675432" lon="13.793330">
        <ele>402.435</ele>
        <time>2018-09-04T15:25:42Z</time>
      </trkpt>
      <trkpt lat="45.675455" lon="13.793272">
        <ele>401.990</ele>
        <time>2018-09-04T15:25:43Z</time>
      </trkpt>
      <trkpt lat="45.675479" lon="13.793202">
        <ele>401.044</ele>
        <time>2018-09-04T15:25:44Z</time>
      </trkpt>
      <trkpt lat="45.675503" lon="13.793122">
        <ele>400.584</ele>
        <time>2018-09-04T15:25:45Z</time>
      </trkpt>
      <trkpt lat="45.675535" lon="13.793042">
        <ele>400.098</ele>
        <time>2018-09-04T15:25:46Z</time>
      </trkpt>
      <trkpt lat="45.675570" lon="13.792966">
        <ele>399.554</ele>
        <time>2018-09-04T15:25:47Z</time>
      </trkpt>
      <trkpt lat="45.675605" lon="13.792894">
        <ele>399.556</ele>
        <time>2018-09-04T15:25:48Z</time>
      </trkpt>
      <trkpt lat="45.675733" lon="13.792633">
        <ele>399.511</ele>
        <time>2018-09-04T15:25:55Z</time>
      </trkpt>
      <trkpt lat="45.675823" lon="13.792277">
        <ele>400.008</ele>
        <time>2018-09-04T15:26:07Z</time>
      </trkpt>
      <trkpt lat="45.676083" lon="13.791608">
        <ele>404.379</ele>
        <time>2018-09-04T15:26:26Z</time>
      </trkpt>
      <trkpt lat="45.676394" lon="13.791056">
        <ele>404.841</ele>
        <time>2018-09-04T15:26:42Z</time>
      </trkpt>
      <trkpt lat="45.676786" lon="13.790451">
        <ele>402.487</ele>
        <time>2018-09-04T15:26:56Z</time>
      </trkpt>
      <trkpt lat="45.677279" lon="13.789609">
        <ele>400.053</ele>
        <time>2018-09-04T15:27:13Z</time>
      </trkpt>
      <trkpt lat="45.677528" lon="13.789160">
        <ele>400.058</ele>
        <time>2018-09-04T15:27:22Z</time>
      </trkpt>
      <trkpt lat="45.677595" lon="13.789056">
        <ele>399.562</ele>
        <time>2018-09-04T15:27:24Z</time>
      </trkpt>
      <trkpt lat="45.677626" lon="13.788999">
        <ele>399.062</ele>
        <time>2018-09-04T15:27:25Z</time>
      </trkpt>
      <trkpt lat="45.677659" lon="13.788935">
        <ele>398.646</ele>
        <time>2018-09-04T15:27:26Z</time>
      </trkpt>
      <trkpt lat="45.677847" lon="13.788564">
        <ele>395.226</ele>
        <time>2018-09-04T15:27:31Z</time>
      </trkpt>
      <trkpt lat="45.677934" lon="13.788438">
        <ele>393.347</ele>
        <time>2018-09-04T15:27:33Z</time>
      </trkpt>
      <trkpt lat="45.678141" lon="13.788111">
        <ele>387.011</ele>
        <time>2018-09-04T15:27:42Z</time>
      </trkpt>
      <trkpt lat="45.678171" lon="13.788003">
        <ele>385.608</ele>
        <time>2018-09-04T15:27:45Z</time>
      </trkpt>
      <trkpt lat="45.678175" lon="13.787969">
        <ele>385.116</ele>
        <time>2018-09-04T15:27:46Z</time>
      </trkpt>
      <trkpt lat="45.678181" lon="13.787931">
        <ele>384.698</ele>
        <time>2018-09-04T15:27:47Z</time>
      </trkpt>
      <trkpt lat="45.678193" lon="13.787893">
        <ele>384.144</ele>
        <time>2018-09-04T15:27:48Z</time>
      </trkpt>
      <trkpt lat="45.678210" lon="13.787851">
        <ele>383.730</ele>
        <time>2018-09-04T15:27:49Z</time>
      </trkpt>
      <trkpt lat="45.678224" lon="13.787799">
        <ele>382.775</ele>
        <time>2018-09-04T15:27:50Z</time>
      </trkpt>
      <trkpt lat="45.678241" lon="13.787734">
        <ele>382.249</ele>
        <time>2018-09-04T15:27:51Z</time>
      </trkpt>
      <trkpt lat="45.678262" lon="13.787657">
        <ele>381.379</ele>
        <time>2018-09-04T15:27:52Z</time>
      </trkpt>
      <trkpt lat="45.678343" lon="13.787376">
        <ele>378.973</ele>
        <time>2018-09-04T15:27:55Z</time>
      </trkpt>
      <trkpt lat="45.678363" lon="13.787272">
        <ele>377.927</ele>
        <time>2018-09-04T15:27:56Z</time>
      </trkpt>
      <trkpt lat="45.678378" lon="13.787167">
        <ele>377.468</ele>
        <time>2018-09-04T15:27:57Z</time>
      </trkpt>
      <trkpt lat="45.678410" lon="13.786908">
        <ele>377.414</ele>
        <time>2018-09-04T15:28:03Z</time>
      </trkpt>
      <trkpt lat="45.678400" lon="13.786893">
        <ele>377.408</ele>
        <time>2018-09-04T15:28:04Z</time>
      </trkpt>
      <trkpt lat="45.678389" lon="13.786876">
        <ele>377.466</ele>
        <time>2018-09-04T15:28:05Z</time>
      </trkpt>
      <trkpt lat="45.678374" lon="13.786876">
        <ele>377.938</ele>
        <time>2018-09-04T15:28:06Z</time>
      </trkpt>
      <trkpt lat="45.678373" lon="13.786870">
        <ele>378.964</ele>
        <time>2018-09-04T15:28:16Z</time>
      </trkpt>
      <trkpt lat="45.678360" lon="13.786866">
        <ele>382.780</ele>
        <time>2018-09-04T15:28:38Z</time>
      </trkpt>
      <trkpt lat="45.678369" lon="13.786839">
        <ele>384.695</ele>
        <time>2018-09-04T15:29:10Z</time>
      </trkpt>
      <trkpt lat="45.678379" lon="13.786819">
        <ele>385.629</ele>
        <time>2018-09-04T15:29:32Z</time>
      </trkpt>
      <trkpt lat="45.678399" lon="13.786805">
        <ele>385.699</ele>
        <time>2018-09-04T15:29:40Z</time>
      </trkpt>
      <trkpt lat="45.678447" lon="13.786783">
        <ele>385.183</ele>
        <time>2018-09-04T15:29:48Z</time>
      </trkpt>
      <trkpt lat="45.678456" lon="13.786772">
        <ele>385.192</ele>
        <time>2018-09-04T15:29:49Z</time>
      </trkpt>
      <trkpt lat="45.678467" lon="13.786754">
        <ele>385.173</ele>
        <time>2018-09-04T15:29:50Z</time>
      </trkpt>
      <trkpt lat="45.678642" lon="13.786460">
        <ele>382.720</ele>
        <time>2018-09-04T15:30:02Z</time>
      </trkpt>
      <trkpt lat="45.678870" lon="13.785997">
        <ele>382.708</ele>
        <time>2018-09-04T15:30:17Z</time>
      </trkpt>
      <trkpt lat="45.679110" lon="13.785495">
        <ele>384.633</ele>
        <time>2018-09-04T15:30:34Z</time>
      </trkpt>
      <trkpt lat="45.679343" lon="13.784969">
        <ele>383.785</ele>
        <time>2018-09-04T15:30:46Z</time>
      </trkpt>
      <trkpt lat="45.679359" lon="13.784910">
        <ele>383.271</ele>
        <time>2018-09-04T15:30:47Z</time>
      </trkpt>
      <trkpt lat="45.679372" lon="13.784852">
        <ele>382.747</ele>
        <time>2018-09-04T15:30:48Z</time>
      </trkpt>
      <trkpt lat="45.679397" lon="13.784733">
        <ele>382.272</ele>
        <time>2018-09-04T15:30:50Z</time>
      </trkpt>
      <trkpt lat="45.679413" lon="13.784673">
        <ele>381.716</ele>
        <time>2018-09-04T15:30:51Z</time>
      </trkpt>
      <trkpt lat="45.679426" lon="13.784616">
        <ele>381.346</ele>
        <time>2018-09-04T15:30:52Z</time>
      </trkpt>
      <trkpt lat="45.679438" lon="13.784563">
        <ele>380.360</ele>
        <time>2018-09-04T15:30:53Z</time>
      </trkpt>
      <trkpt lat="45.679448" lon="13.784509">
        <ele>379.816</ele>
        <time>2018-09-04T15:30:54Z</time>
      </trkpt>
      <trkpt lat="45.679529" lon="13.784197">
        <ele>375.076</ele>
        <time>2018-09-04T15:31:01Z</time>
      </trkpt>
      <trkpt lat="45.679529" lon="13.784181">
        <ele>374.013</ele>
        <time>2018-09-04T15:31:02Z</time>
      </trkpt>
      <trkpt lat="45.679536" lon="13.784165">
        <ele>374.008</ele>
        <time>2018-09-04T15:31:03Z</time>
      </trkpt>
      <trkpt lat="45.679551" lon="13.784147">
        <ele>374.035</ele>
        <time>2018-09-04T15:31:04Z</time>
      </trkpt>
      <trkpt lat="45.679567" lon="13.784129">
        <ele>373.687</ele>
        <time>2018-09-04T15:31:05Z</time>
      </trkpt>
      <trkpt lat="45.679581" lon="13.784105">
        <ele>373.673</ele>
        <time>2018-09-04T15:31:06Z</time>
      </trkpt>
      <trkpt lat="45.679595" lon="13.784073">
        <ele>373.649</ele>
        <time>2018-09-04T15:31:07Z</time>
      </trkpt>
      <trkpt lat="45.679613" lon="13.784023">
        <ele>373.144</ele>
        <time>2018-09-04T15:31:08Z</time>
      </trkpt>
      <trkpt lat="45.679654" lon="13.783905">
        <ele>372.118</ele>
        <time>2018-09-04T15:31:10Z</time>
      </trkpt>
      <trkpt lat="45.679691" lon="13.783786">
        <ele>371.698</ele>
        <time>2018-09-04T15:31:12Z</time>
      </trkpt>
      <trkpt lat="45.679928" lon="13.783065">
        <ele>364.412</ele>
        <time>2018-09-04T15:31:20Z</time>
      </trkpt>
      <trkpt lat="45.679936" lon="13.782973">
        <ele>363.562</ele>
        <time>2018-09-04T15:31:21Z</time>
      </trkpt>
      <trkpt lat="45.679926" lon="13.782905">
        <ele>362.583</ele>
        <time>2018-09-04T15:31:22Z</time>
      </trkpt>
      <trkpt lat="45.679899" lon="13.782840">
        <ele>361.111</ele>
        <time>2018-09-04T15:31:23Z</time>
      </trkpt>
      <trkpt lat="45.679861" lon="13.782789">
        <ele>360.108</ele>
        <time>2018-09-04T15:31:24Z</time>
      </trkpt>
      <trkpt lat="45.679817" lon="13.782729">
        <ele>359.150</ele>
        <time>2018-09-04T15:31:25Z</time>
      </trkpt>
      <trkpt lat="45.679794" lon="13.782668">
        <ele>358.232</ele>
        <time>2018-09-04T15:31:26Z</time>
      </trkpt>
      <trkpt lat="45.679784" lon="13.782581">
        <ele>357.288</ele>
        <time>2018-09-04T15:31:27Z</time>
      </trkpt>
      <trkpt lat="45.679783" lon="13.782498">
        <ele>356.364</ele>
        <time>2018-09-04T15:31:28Z</time>
      </trkpt>
      <trkpt lat="45.679772" lon="13.782402">
        <ele>355.359</ele>
        <time>2018-09-04T15:31:29Z</time>
      </trkpt>
      <trkpt lat="45.679745" lon="13.782327">
        <ele>354.393</ele>
        <time>2018-09-04T15:31:30Z</time>
      </trkpt>
      <trkpt lat="45.679697" lon="13.782258">
        <ele>353.423</ele>
        <time>2018-09-04T15:31:31Z</time>
      </trkpt>
      <trkpt lat="45.679645" lon="13.782217">
        <ele>352.447</ele>
        <time>2018-09-04T15:31:32Z</time>
      </trkpt>
      <trkpt lat="45.679576" lon="13.782199">
        <ele>351.073</ele>
        <time>2018-09-04T15:31:33Z</time>
      </trkpt>
      <trkpt lat="45.679529" lon="13.782215">
        <ele>350.085</ele>
        <time>2018-09-04T15:31:34Z</time>
      </trkpt>
      <trkpt lat="45.679486" lon="13.782258">
        <ele>349.113</ele>
        <time>2018-09-04T15:31:35Z</time>
      </trkpt>
      <trkpt lat="45.679457" lon="13.782310">
        <ele>348.608</ele>
        <time>2018-09-04T15:31:36Z</time>
      </trkpt>
      <trkpt lat="45.679437" lon="13.782368">
        <ele>347.651</ele>
        <time>2018-09-04T15:31:37Z</time>
      </trkpt>
      <trkpt lat="45.679425" lon="13.782410">
        <ele>347.153</ele>
        <time>2018-09-04T15:31:38Z</time>
      </trkpt>
      <trkpt lat="45.679414" lon="13.782459">
        <ele>346.289</ele>
        <time>2018-09-04T15:31:39Z</time>
      </trkpt>
      <trkpt lat="45.679406" lon="13.782501">
        <ele>345.275</ele>
        <time>2018-09-04T15:31:40Z</time>
      </trkpt>
      <trkpt lat="45.679399" lon="13.782541">
        <ele>344.740</ele>
        <time>2018-09-04T15:31:41Z</time>
      </trkpt>
      <trkpt lat="45.679380" lon="13.782606">
        <ele>343.364</ele>
        <time>2018-09-04T15:31:43Z</time>
      </trkpt>
      <trkpt lat="45.679358" lon="13.782620">
        <ele>343.324</ele>
        <time>2018-09-04T15:31:44Z</time>
      </trkpt>
      <trkpt lat="45.679341" lon="13.782620">
        <ele>343.388</ele>
        <time>2018-09-04T15:31:45Z</time>
      </trkpt>
      <trkpt lat="45.679327" lon="13.782612">
        <ele>342.848</ele>
        <time>2018-09-04T15:31:46Z</time>
      </trkpt>
      <trkpt lat="45.679320" lon="13.782579">
        <ele>343.361</ele>
        <time>2018-09-04T15:31:49Z</time>
      </trkpt>
      <trkpt lat="45.679327" lon="13.782553">
        <ele>343.317</ele>
        <time>2018-09-04T15:31:50Z</time>
      </trkpt>
      <trkpt lat="45.679449" lon="13.782008">
        <ele>344.708</ele>
        <time>2018-09-04T15:32:04Z</time>
      </trkpt>
      <trkpt lat="45.679611" lon="13.781463">
        <ele>348.628</ele>
        <time>2018-09-04T15:32:19Z</time>
      </trkpt>
      <trkpt lat="45.679689" lon="13.781355">
        <ele>348.640</ele>
        <time>2018-09-04T15:32:24Z</time>
      </trkpt>
      <trkpt lat="45.679715" lon="13.781316">
        <ele>349.156</ele>
        <time>2018-09-04T15:32:35Z</time>
      </trkpt>
      <trkpt lat="45.679754" lon="13.781264">
        <ele>349.192</ele>
        <time>2018-09-04T15:32:52Z</time>
      </trkpt>
      <trkpt lat="45.679783" lon="13.781229">
        <ele>348.687</ele>
        <time>2018-09-04T15:32:56Z</time>
      </trkpt>
      <trkpt lat="45.679784" lon="13.781192">
        <ele>348.681</ele>
        <time>2018-09-04T15:32:57Z</time>
      </trkpt>
      <trkpt lat="45.679778" lon="13.781163">
        <ele>349.191</ele>
        <time>2018-09-04T15:32:58Z</time>
      </trkpt>
      <trkpt lat="45.679771" lon="13.781135">
        <ele>349.175</ele>
        <time>2018-09-04T15:32:59Z</time>
      </trkpt>
      <trkpt lat="45.679762" lon="13.781115">
        <ele>349.162</ele>
        <time>2018-09-04T15:33:00Z</time>
      </trkpt>
      <trkpt lat="45.679754" lon="13.781085">
        <ele>349.183</ele>
        <time>2018-09-04T15:33:01Z</time>
      </trkpt>
      <trkpt lat="45.679751" lon="13.781061">
        <ele>348.611</ele>
        <time>2018-09-04T15:33:02Z</time>
      </trkpt>
      <trkpt lat="45.679746" lon="13.781034">
        <ele>348.608</ele>
        <time>2018-09-04T15:33:03Z</time>
      </trkpt>
      <trkpt lat="45.679738" lon="13.781005">
        <ele>348.640</ele>
        <time>2018-09-04T15:33:04Z</time>
      </trkpt>
      <trkpt lat="45.679731" lon="13.780976">
        <ele>348.672</ele>
        <time>2018-09-04T15:33:05Z</time>
      </trkpt>
      <trkpt lat="45.679674" lon="13.780560">
        <ele>346.638</ele>
        <time>2018-09-04T15:33:18Z</time>
      </trkpt>
      <trkpt lat="45.679671" lon="13.780511">
        <ele>346.294</ele>
        <time>2018-09-04T15:33:22Z</time>
      </trkpt>
      <trkpt lat="45.679665" lon="13.780489">
        <ele>345.799</ele>
        <time>2018-09-04T15:33:23Z</time>
      </trkpt>
      <trkpt lat="45.679665" lon="13.780470">
        <ele>345.743</ele>
        <time>2018-09-04T15:33:24Z</time>
      </trkpt>
      <trkpt lat="45.679667" lon="13.780448">
        <ele>345.713</ele>
        <time>2018-09-04T15:33:25Z</time>
      </trkpt>
      <trkpt lat="45.679658" lon="13.780349">
        <ele>346.697</ele>
        <time>2018-09-04T15:33:32Z</time>
      </trkpt>
      <trkpt lat="45.679644" lon="13.780223">
        <ele>346.269</ele>
        <time>2018-09-04T15:33:44Z</time>
      </trkpt>
      <trkpt lat="45.679631" lon="13.780276">
        <ele>346.204</ele>
        <time>2018-09-04T15:33:54Z</time>
      </trkpt>
      <trkpt lat="45.679636" lon="13.780295">
        <ele>346.224</ele>
        <time>2018-09-04T15:33:55Z</time>
      </trkpt>
      <trkpt lat="45.679642" lon="13.780318">
        <ele>346.208</ele>
        <time>2018-09-04T15:33:56Z</time>
      </trkpt>
      <trkpt lat="45.679708" lon="13.780796">
        <ele>349.130</ele>
        <time>2018-09-04T15:34:12Z</time>
      </trkpt>
      <trkpt lat="45.679722" lon="13.780810">
        <ele>349.562</ele>
        <time>2018-09-04T15:34:13Z</time>
      </trkpt>
      <trkpt lat="45.679740" lon="13.780803">
        <ele>349.598</ele>
        <time>2018-09-04T15:34:14Z</time>
      </trkpt>
      <trkpt lat="45.679743" lon="13.780787">
        <ele>350.034</ele>
        <time>2018-09-04T15:34:15Z</time>
      </trkpt>
      <trkpt lat="45.679744" lon="13.780770">
        <ele>350.549</ele>
        <time>2018-09-04T15:34:16Z</time>
      </trkpt>
      <trkpt lat="45.679745" lon="13.780750">
        <ele>350.583</ele>
        <time>2018-09-04T15:34:17Z</time>
      </trkpt>
      <trkpt lat="45.679742" lon="13.780725">
        <ele>350.553</ele>
        <time>2018-09-04T15:34:18Z</time>
      </trkpt>
      <trkpt lat="45.679737" lon="13.780695">
        <ele>350.557</ele>
        <time>2018-09-04T15:34:19Z</time>
      </trkpt>
      <trkpt lat="45.679764" lon="13.780508">
        <ele>351.549</ele>
        <time>2018-09-04T15:34:26Z</time>
      </trkpt>
      <trkpt lat="45.679762" lon="13.780484">
        <ele>351.902</ele>
        <time>2018-09-04T15:34:27Z</time>
      </trkpt>
      <trkpt lat="45.679762" lon="13.780462">
        <ele>351.922</ele>
        <time>2018-09-04T15:34:28Z</time>
      </trkpt>
      <trkpt lat="45.679763" lon="13.780436">
        <ele>352.408</ele>
        <time>2018-09-04T15:34:29Z</time>
      </trkpt>
      <trkpt lat="45.679762" lon="13.780408">
        <ele>352.938</ele>
        <time>2018-09-04T15:34:30Z</time>
      </trkpt>
      <trkpt lat="45.679763" lon="13.780377">
        <ele>352.960</ele>
        <time>2018-09-04T15:34:31Z</time>
      </trkpt>
      <trkpt lat="45.679791" lon="13.779957">
        <ele>356.386</ele>
        <time>2018-09-04T15:34:46Z</time>
      </trkpt>
      <trkpt lat="45.679833" lon="13.779486">
        <ele>356.712</ele>
        <time>2018-09-04T15:35:02Z</time>
      </trkpt>
      <trkpt lat="45.679898" lon="13.779034">
        <ele>358.217</ele>
        <time>2018-09-04T15:35:17Z</time>
      </trkpt>
      <trkpt lat="45.679944" lon="13.778482">
        <ele>357.721</ele>
        <time>2018-09-04T15:35:29Z</time>
      </trkpt>
      <trkpt lat="45.679954" lon="13.778420">
        <ele>357.261</ele>
        <time>2018-09-04T15:35:30Z</time>
      </trkpt>
      <trkpt lat="45.679969" lon="13.778360">
        <ele>357.215</ele>
        <time>2018-09-04T15:35:31Z</time>
      </trkpt>
      <trkpt lat="45.679986" lon="13.778305">
        <ele>357.242</ele>
        <time>2018-09-04T15:35:32Z</time>
      </trkpt>
      <trkpt lat="45.680003" lon="13.778258">
        <ele>357.222</ele>
        <time>2018-09-04T15:35:33Z</time>
      </trkpt>
      <trkpt lat="45.680257" lon="13.777593">
        <ele>354.814</ele>
        <time>2018-09-04T15:35:46Z</time>
      </trkpt>
      <trkpt lat="45.680637" lon="13.776746">
        <ele>348.108</ele>
        <time>2018-09-04T15:35:58Z</time>
      </trkpt>
      <trkpt lat="45.681005" lon="13.775953">
        <ele>342.348</ele>
        <time>2018-09-04T15:36:10Z</time>
      </trkpt>
      <trkpt lat="45.681283" lon="13.775423">
        <ele>340.470</ele>
        <time>2018-09-04T15:36:21Z</time>
      </trkpt>
      <trkpt lat="45.681697" lon="13.774564">
        <ele>340.916</ele>
        <time>2018-09-04T15:36:37Z</time>
      </trkpt>
      <trkpt lat="45.681973" lon="13.774019">
        <ele>340.922</ele>
        <time>2018-09-04T15:36:48Z</time>
      </trkpt>
      <trkpt lat="45.681999" lon="13.773959">
        <ele>340.437</ele>
        <time>2018-09-04T15:36:49Z</time>
      </trkpt>
      <trkpt lat="45.682453" lon="13.772989">
        <ele>338.031</ele>
        <time>2018-09-04T15:37:03Z</time>
      </trkpt>
      <trkpt lat="45.682928" lon="13.771903">
        <ele>332.771</ele>
        <time>2018-09-04T15:37:17Z</time>
      </trkpt>
      <trkpt lat="45.683287" lon="13.770999">
        <ele>326.085</ele>
        <time>2018-09-04T15:37:30Z</time>
      </trkpt>
      <trkpt lat="45.683458" lon="13.770584">
        <ele>320.713</ele>
        <time>2018-09-04T15:37:39Z</time>
      </trkpt>
      <trkpt lat="45.683465" lon="13.770564">
        <ele>322.643</ele>
        <time>2018-09-04T15:37:52Z</time>
      </trkpt>
      <trkpt lat="45.683463" lon="13.770547">
        <ele>322.607</ele>
        <time>2018-09-04T15:38:27Z</time>
      </trkpt>
      <trkpt lat="45.683501" lon="13.770443">
        <ele>323.108</ele>
        <time>2018-09-04T15:38:52Z</time>
      </trkpt>
      <trkpt lat="45.683694" lon="13.769936">
        <ele>321.245</ele>
        <time>2018-09-04T15:39:03Z</time>
      </trkpt>
      <trkpt lat="45.683759" lon="13.769781">
        <ele>320.777</ele>
        <time>2018-09-04T15:39:06Z</time>
      </trkpt>
      <trkpt lat="45.683929" lon="13.769341">
        <ele>318.373</ele>
        <time>2018-09-04T15:39:12Z</time>
      </trkpt>
      <trkpt lat="45.684257" lon="13.768517">
        <ele>314.099</ele>
        <time>2018-09-04T15:39:23Z</time>
      </trkpt>
      <trkpt lat="45.684299" lon="13.768440">
        <ele>313.564</ele>
        <time>2018-09-04T15:39:24Z</time>
      </trkpt>
      <trkpt lat="45.684560" lon="13.768029">
        <ele>311.658</ele>
        <time>2018-09-04T15:39:31Z</time>
      </trkpt>
      <trkpt lat="45.684608" lon="13.767984">
        <ele>311.158</ele>
        <time>2018-09-04T15:39:32Z</time>
      </trkpt>
      <trkpt lat="45.684820" lon="13.767841">
        <ele>311.682</ele>
        <time>2018-09-04T15:39:37Z</time>
      </trkpt>
      <trkpt lat="45.684849" lon="13.767790">
        <ele>311.648</ele>
        <time>2018-09-04T15:39:38Z</time>
      </trkpt>
      <trkpt lat="45.685236" lon="13.767056">
        <ele>308.761</ele>
        <time>2018-09-04T15:39:49Z</time>
      </trkpt>
      <trkpt lat="45.685356" lon="13.766768">
        <ele>305.317</ele>
        <time>2018-09-04T15:39:56Z</time>
      </trkpt>
      <trkpt lat="45.685548" lon="13.766449">
        <ele>303.908</ele>
        <time>2018-09-04T15:40:03Z</time>
      </trkpt>
      <trkpt lat="45.685804" lon="13.766054">
        <ele>302.998</ele>
        <time>2018-09-04T15:40:10Z</time>
      </trkpt>
      <trkpt lat="45.685834" lon="13.765986">
        <ele>302.970</ele>
        <time>2018-09-04T15:40:11Z</time>
      </trkpt>
      <trkpt lat="45.685861" lon="13.765915">
        <ele>302.936</ele>
        <time>2018-09-04T15:40:12Z</time>
      </trkpt>
      <trkpt lat="45.685885" lon="13.765837">
        <ele>302.982</ele>
        <time>2018-09-04T15:40:13Z</time>
      </trkpt>
      <trkpt lat="45.685905" lon="13.765755">
        <ele>302.977</ele>
        <time>2018-09-04T15:40:14Z</time>
      </trkpt>
      <trkpt lat="45.685924" lon="13.765671">
        <ele>302.471</ele>
        <time>2018-09-04T15:40:15Z</time>
      </trkpt>
      <trkpt lat="45.686279" lon="13.764446">
        <ele>300.011</ele>
        <time>2018-09-04T15:40:30Z</time>
      </trkpt>
      <trkpt lat="45.686307" lon="13.764369">
        <ele>299.515</ele>
        <time>2018-09-04T15:40:31Z</time>
      </trkpt>
      <trkpt lat="45.686795" lon="13.763288">
        <ele>297.622</ele>
        <time>2018-09-04T15:40:46Z</time>
      </trkpt>
      <trkpt lat="45.687144" lon="13.762181">
        <ele>296.762</ele>
        <time>2018-09-04T15:41:00Z</time>
      </trkpt>
      <trkpt lat="45.687575" lon="13.760970">
        <ele>294.308</ele>
        <time>2018-09-04T15:41:15Z</time>
      </trkpt>
      <trkpt lat="45.688107" lon="13.759769">
        <ele>291.908</ele>
        <time>2018-09-04T15:41:31Z</time>
      </trkpt>
      <trkpt lat="45.688301" lon="13.759427">
        <ele>289.966</ele>
        <time>2018-09-04T15:41:39Z</time>
      </trkpt>
      <trkpt lat="45.688323" lon="13.759378">
        <ele>289.928</ele>
        <time>2018-09-04T15:41:40Z</time>
      </trkpt>
      <trkpt lat="45.688597" lon="13.758801">
        <ele>288.044</ele>
        <time>2018-09-04T15:41:50Z</time>
      </trkpt>
      <trkpt lat="45.688618" lon="13.758735">
        <ele>288.060</ele>
        <time>2018-09-04T15:41:51Z</time>
      </trkpt>
      <trkpt lat="45.688636" lon="13.758666">
        <ele>288.025</ele>
        <time>2018-09-04T15:41:52Z</time>
      </trkpt>
      <trkpt lat="45.688780" lon="13.758104">
        <ele>287.099</ele>
        <time>2018-09-04T15:42:00Z</time>
      </trkpt>
      <trkpt lat="45.688892" lon="13.757750">
        <ele>284.619</ele>
        <time>2018-09-04T15:42:05Z</time>
      </trkpt>
      <trkpt lat="45.688920" lon="13.757677">
        <ele>283.773</ele>
        <time>2018-09-04T15:42:06Z</time>
      </trkpt>
      <trkpt lat="45.689432" lon="13.756446">
        <ele>277.911</ele>
        <time>2018-09-04T15:42:23Z</time>
      </trkpt>
      <trkpt lat="45.689907" lon="13.755208">
        <ele>275.521</ele>
        <time>2018-09-04T15:42:39Z</time>
      </trkpt>
      <trkpt lat="45.690065" lon="13.754571">
        <ele>273.603</ele>
        <time>2018-09-04T15:42:49Z</time>
      </trkpt>
      <trkpt lat="45.690090" lon="13.754529">
        <ele>272.608</ele>
        <time>2018-09-04T15:43:00Z</time>
      </trkpt>
      <trkpt lat="45.690087" lon="13.754529">
        <ele>271.715</ele>
        <time>2018-09-04T15:43:27Z</time>
      </trkpt>
      <trkpt lat="45.690095" lon="13.754516">
        <ele>271.727</ele>
        <time>2018-09-04T15:43:32Z</time>
      </trkpt>
      <trkpt lat="45.690105" lon="13.754505">
        <ele>271.243</ele>
        <time>2018-09-04T15:43:33Z</time>
      </trkpt>
      <trkpt lat="45.690114" lon="13.754490">
        <ele>271.219</ele>
        <time>2018-09-04T15:43:34Z</time>
      </trkpt>
      <trkpt lat="45.690275" lon="13.754123">
        <ele>269.724</ele>
        <time>2018-09-04T15:43:46Z</time>
      </trkpt>
      <trkpt lat="45.690453" lon="13.753526">
        <ele>269.338</ele>
        <time>2018-09-04T15:43:58Z</time>
      </trkpt>
      <trkpt lat="45.690454" lon="13.753489">
        <ele>268.848</ele>
        <time>2018-09-04T15:44:02Z</time>
      </trkpt>
      <trkpt lat="45.690465" lon="13.753476">
        <ele>268.312</ele>
        <time>2018-09-04T15:44:03Z</time>
      </trkpt>
      <trkpt lat="45.690476" lon="13.753456">
        <ele>267.887</ele>
        <time>2018-09-04T15:44:04Z</time>
      </trkpt>
      <trkpt lat="45.690485" lon="13.753430">
        <ele>267.842</ele>
        <time>2018-09-04T15:44:05Z</time>
      </trkpt>
      <trkpt lat="45.690492" lon="13.753397">
        <ele>267.826</ele>
        <time>2018-09-04T15:44:06Z</time>
      </trkpt>
      <trkpt lat="45.690499" lon="13.753358">
        <ele>267.308</ele>
        <time>2018-09-04T15:44:07Z</time>
      </trkpt>
      <trkpt lat="45.690510" lon="13.753317">
        <ele>267.342</ele>
        <time>2018-09-04T15:44:08Z</time>
      </trkpt>
      <trkpt lat="45.690645" lon="13.752858">
        <ele>266.424</ele>
        <time>2018-09-04T15:44:17Z</time>
      </trkpt>
      <trkpt lat="45.690709" lon="13.752685">
        <ele>265.410</ele>
        <time>2018-09-04T15:44:20Z</time>
      </trkpt>
      <trkpt lat="45.690725" lon="13.752621">
        <ele>265.486</ele>
        <time>2018-09-04T15:44:21Z</time>
      </trkpt>
      <trkpt lat="45.690771" lon="13.752413">
        <ele>265.491</ele>
        <time>2018-09-04T15:44:24Z</time>
      </trkpt>
      <trkpt lat="45.690803" lon="13.752271">
        <ele>264.935</ele>
        <time>2018-09-04T15:44:26Z</time>
      </trkpt>
      <trkpt lat="45.691090" lon="13.751287">
        <ele>263.585</ele>
        <time>2018-09-04T15:44:41Z</time>
      </trkpt>
      <trkpt lat="45.691288" lon="13.750373">
        <ele>261.119</ele>
        <time>2018-09-04T15:44:54Z</time>
      </trkpt>
      <trkpt lat="45.691308" lon="13.750229">
        <ele>261.186</ele>
        <time>2018-09-04T15:44:56Z</time>
      </trkpt>
      <trkpt lat="45.691321" lon="13.750171">
        <ele>260.660</ele>
        <time>2018-09-04T15:44:57Z</time>
      </trkpt>
      <trkpt lat="45.691339" lon="13.750077">
        <ele>260.126</ele>
        <time>2018-09-04T15:45:05Z</time>
      </trkpt>
      <trkpt lat="45.691344" lon="13.750071">
        <ele>259.608</ele>
        <time>2018-09-04T15:45:29Z</time>
      </trkpt>
      <trkpt lat="45.691352" lon="13.750072">
        <ele>259.692</ele>
        <time>2018-09-04T15:45:47Z</time>
      </trkpt>
      <trkpt lat="45.691376" lon="13.749970">
        <ele>259.614</ele>
        <time>2018-09-04T15:45:52Z</time>
      </trkpt>
      <trkpt lat="45.691518" lon="13.749514">
        <ele>259.690</ele>
        <time>2018-09-04T15:46:02Z</time>
      </trkpt>
      <trkpt lat="45.691540" lon="13.749455">
        <ele>259.226</ele>
        <time>2018-09-04T15:46:03Z</time>
      </trkpt>
      <trkpt lat="45.691894" lon="13.748541">
        <ele>258.241</ele>
        <time>2018-09-04T15:46:19Z</time>
      </trkpt>
      <trkpt lat="45.692436" lon="13.747457">
        <ele>252.085</ele>
        <time>2018-09-04T15:46:34Z</time>
      </trkpt>
      <trkpt lat="45.692751" lon="13.747044">
        <ele>250.595</ele>
        <time>2018-09-04T15:46:41Z</time>
      </trkpt>
      <trkpt lat="45.693192" lon="13.746732">
        <ele>250.069</ele>
        <time>2018-09-04T15:46:50Z</time>
      </trkpt>
      <trkpt lat="45.693699" lon="13.746412">
        <ele>250.593</ele>
        <time>2018-09-04T15:47:04Z</time>
      </trkpt>
      <trkpt lat="45.694021" lon="13.746098">
        <ele>249.665</ele>
        <time>2018-09-04T15:47:14Z</time>
      </trkpt>
      <trkpt lat="45.694179" lon="13.745880">
        <ele>250.521</ele>
        <time>2018-09-04T15:47:24Z</time>
      </trkpt>
      <trkpt lat="45.694193" lon="13.745885">
        <ele>250.008</ele>
        <time>2018-09-04T15:47:55Z</time>
      </trkpt>
      <trkpt lat="45.694202" lon="13.745875">
        <ele>250.013</ele>
        <time>2018-09-04T15:47:56Z</time>
      </trkpt>
      <trkpt lat="45.694352" lon="13.745722">
        <ele>251.535</ele>
        <time>2018-09-04T15:48:07Z</time>
      </trkpt>
      <trkpt lat="45.694669" lon="13.745432">
        <ele>254.891</ele>
        <time>2018-09-04T15:48:21Z</time>
      </trkpt>
      <trkpt lat="45.694937" lon="13.745166">
        <ele>257.257</ele>
        <time>2018-09-04T15:48:34Z</time>
      </trkpt>
      <trkpt lat="45.695189" lon="13.745017">
        <ele>261.182</ele>
        <time>2018-09-04T15:48:46Z</time>
      </trkpt>
      <trkpt lat="45.695499" lon="13.744808">
        <ele>262.156</ele>
        <time>2018-09-04T15:49:01Z</time>
      </trkpt>
      <trkpt lat="45.695756" lon="13.744607">
        <ele>261.686</ele>
        <time>2018-09-04T15:49:13Z</time>
      </trkpt>
      <trkpt lat="45.696083" lon="13.744151">
        <ele>263.510</ele>
        <time>2018-09-04T15:49:29Z</time>
      </trkpt>
      <trkpt lat="45.696391" lon="13.743518">
        <ele>266.487</ele>
        <time>2018-09-04T15:49:45Z</time>
      </trkpt>
      <trkpt lat="45.696758" lon="13.742993">
        <ele>268.342</ele>
        <time>2018-09-04T15:50:01Z</time>
      </trkpt>
      <trkpt lat="45.697241" lon="13.742484">
        <ele>269.726</ele>
        <time>2018-09-04T15:50:20Z</time>
      </trkpt>
      <trkpt lat="45.697622" lon="13.742041">
        <ele>272.608</ele>
        <time>2018-09-04T15:50:37Z</time>
      </trkpt>
      <trkpt lat="45.697945" lon="13.741673">
        <ele>273.632</ele>
        <time>2018-09-04T15:50:52Z</time>
      </trkpt>
      <trkpt lat="45.698357" lon="13.741265">
        <ele>272.664</ele>
        <time>2018-09-04T15:51:06Z</time>
      </trkpt>
      <trkpt lat="45.698933" lon="13.740799">
        <ele>270.760</ele>
        <time>2018-09-04T15:51:19Z</time>
      </trkpt>
      <trkpt lat="45.699302" lon="13.740532">
        <ele>271.246</ele>
        <time>2018-09-04T15:51:30Z</time>
      </trkpt>
      <trkpt lat="45.699598" lon="13.740241">
        <ele>270.231</ele>
        <time>2018-09-04T15:51:39Z</time>
      </trkpt>
      <trkpt lat="45.699639" lon="13.740209">
        <ele>270.295</ele>
        <time>2018-09-04T15:51:40Z</time>
      </trkpt>
      <trkpt lat="45.700351" lon="13.739626">
        <ele>268.815</ele>
        <time>2018-09-04T15:51:55Z</time>
      </trkpt>
      <trkpt lat="45.701018" lon="13.739068">
        <ele>268.389</ele>
        <time>2018-09-04T15:52:08Z</time>
      </trkpt>
      <trkpt lat="45.701846" lon="13.738391">
        <ele>265.927</ele>
        <time>2018-09-04T15:52:23Z</time>
      </trkpt>
      <trkpt lat="45.702006" lon="13.738261">
        <ele>265.968</ele>
        <time>2018-09-04T15:52:26Z</time>
      </trkpt>
      <trkpt lat="45.702063" lon="13.738213">
        <ele>265.914</ele>
        <time>2018-09-04T15:52:27Z</time>
      </trkpt>
      <trkpt lat="45.702112" lon="13.738170">
        <ele>266.408</ele>
        <time>2018-09-04T15:52:28Z</time>
      </trkpt>
      <trkpt lat="45.702920" lon="13.737510">
        <ele>276.086</ele>
        <time>2018-09-04T15:52:43Z</time>
      </trkpt>
      <trkpt lat="45.703139" lon="13.737328">
        <ele>277.488</ele>
        <time>2018-09-04T15:52:47Z</time>
      </trkpt>
      <trkpt lat="45.703856" lon="13.736743">
        <ele>277.024</ele>
        <time>2018-09-04T15:53:00Z</time>
      </trkpt>
      <trkpt lat="45.704597" lon="13.736161">
        <ele>273.130</ele>
        <time>2018-09-04T15:53:13Z</time>
      </trkpt>
      <trkpt lat="45.705479" lon="13.735456">
        <ele>264.035</ele>
        <time>2018-09-04T15:53:29Z</time>
      </trkpt>
      <trkpt lat="45.706359" lon="13.734737">
        <ele>259.629</ele>
        <time>2018-09-04T15:53:46Z</time>
      </trkpt>
      <trkpt lat="45.706989" lon="13.734222">
        <ele>258.249</ele>
        <time>2018-09-04T15:53:57Z</time>
      </trkpt>
      <trkpt lat="45.707546" lon="13.733819">
        <ele>256.373</ele>
        <time>2018-09-04T15:54:07Z</time>
      </trkpt>
      <trkpt lat="45.707594" lon="13.733802">
        <ele>256.346</ele>
        <time>2018-09-04T15:54:08Z</time>
      </trkpt>
      <trkpt lat="45.707839" lon="13.733766">
        <ele>255.888</ele>
        <time>2018-09-04T15:54:18Z</time>
      </trkpt>
      <trkpt lat="45.708085" lon="13.733775">
        <ele>258.216</ele>
        <time>2018-09-04T15:54:29Z</time>
      </trkpt>
      <trkpt lat="45.708100" lon="13.733743">
        <ele>258.708</ele>
        <time>2018-09-04T15:54:30Z</time>
      </trkpt>
      <trkpt lat="45.708107" lon="13.733702">
        <ele>258.748</ele>
        <time>2018-09-04T15:54:31Z</time>
      </trkpt>
      <trkpt lat="45.708107" lon="13.733675">
        <ele>258.730</ele>
        <time>2018-09-04T15:54:32Z</time>
      </trkpt>
      <trkpt lat="45.708105" lon="13.733643">
        <ele>258.726</ele>
        <time>2018-09-04T15:54:33Z</time>
      </trkpt>
      <trkpt lat="45.708101" lon="13.733597">
        <ele>259.282</ele>
        <time>2018-09-04T15:54:34Z</time>
      </trkpt>
      <trkpt lat="45.708131" lon="13.732795">
        <ele>256.337</ele>
        <time>2018-09-04T15:54:49Z</time>
      </trkpt>
      <trkpt lat="45.708137" lon="13.732728">
        <ele>256.811</ele>
        <time>2018-09-04T15:54:50Z</time>
      </trkpt>
      <trkpt lat="45.708155" lon="13.732383">
        <ele>256.871</ele>
        <time>2018-09-04T15:54:55Z</time>
      </trkpt>
      <trkpt lat="45.708411" lon="13.731128">
        <ele>254.425</ele>
        <time>2018-09-04T15:55:13Z</time>
      </trkpt>
      <trkpt lat="45.708445" lon="13.730989">
        <ele>253.973</ele>
        <time>2018-09-04T15:55:15Z</time>
      </trkpt>
      <trkpt lat="45.708467" lon="13.730853">
        <ele>253.485</ele>
        <time>2018-09-04T15:55:17Z</time>
      </trkpt>
      <trkpt lat="45.708480" lon="13.730786">
        <ele>253.413</ele>
        <time>2018-09-04T15:55:18Z</time>
      </trkpt>
      <trkpt lat="45.708487" lon="13.730719">
        <ele>253.408</ele>
        <time>2018-09-04T15:55:19Z</time>
      </trkpt>
      <trkpt lat="45.708485" lon="13.730629">
        <ele>253.491</ele>
        <time>2018-09-04T15:55:20Z</time>
      </trkpt>
      <trkpt lat="45.708470" lon="13.730576">
        <ele>252.993</ele>
        <time>2018-09-04T15:55:21Z</time>
      </trkpt>
      <trkpt lat="45.708454" lon="13.730535">
        <ele>252.919</ele>
        <time>2018-09-04T15:55:22Z</time>
      </trkpt>
      <trkpt lat="45.708431" lon="13.730488">
        <ele>252.915</ele>
        <time>2018-09-04T15:55:23Z</time>
      </trkpt>
      <trkpt lat="45.708410" lon="13.730449">
        <ele>252.960</ele>
        <time>2018-09-04T15:55:24Z</time>
      </trkpt>
      <trkpt lat="45.708394" lon="13.730413">
        <ele>252.984</ele>
        <time>2018-09-04T15:55:25Z</time>
      </trkpt>
      <trkpt lat="45.708380" lon="13.730370">
        <ele>252.484</ele>
        <time>2018-09-04T15:55:26Z</time>
      </trkpt>
      <trkpt lat="45.708375" lon="13.730328">
        <ele>252.458</ele>
        <time>2018-09-04T15:55:27Z</time>
      </trkpt>
      <trkpt lat="45.708375" lon="13.730299">
        <ele>252.456</ele>
        <time>2018-09-04T15:55:28Z</time>
      </trkpt>
      <trkpt lat="45.708379" lon="13.730265">
        <ele>252.459</ele>
        <time>2018-09-04T15:55:29Z</time>
      </trkpt>
      <trkpt lat="45.708387" lon="13.730231">
        <ele>252.414</ele>
        <time>2018-09-04T15:55:30Z</time>
      </trkpt>
      <trkpt lat="45.708389" lon="13.730211">
        <ele>252.408</ele>
        <time>2018-09-04T15:55:31Z</time>
      </trkpt>
      <trkpt lat="45.708386" lon="13.730195">
        <ele>252.449</ele>
        <time>2018-09-04T15:55:32Z</time>
      </trkpt>
      <trkpt lat="45.708382" lon="13.729942">
        <ele>252.461</ele>
        <time>2018-09-04T15:55:44Z</time>
      </trkpt>
      <trkpt lat="45.708517" lon="13.729479">
        <ele>250.077</ele>
        <time>2018-09-04T15:55:54Z</time>
      </trkpt>
      <trkpt lat="45.708542" lon="13.729427">
        <ele>250.073</ele>
        <time>2018-09-04T15:55:55Z</time>
      </trkpt>
      <trkpt lat="45.708987" lon="13.728545">
        <ele>249.148</ele>
        <time>2018-09-04T15:56:08Z</time>
      </trkpt>
      <trkpt lat="45.709162" lon="13.728229">
        <ele>248.162</ele>
        <time>2018-09-04T15:56:13Z</time>
      </trkpt>
      <trkpt lat="45.709356" lon="13.727558">
        <ele>244.742</ele>
        <time>2018-09-04T15:56:22Z</time>
      </trkpt>
      <trkpt lat="45.709385" lon="13.727483">
        <ele>244.786</ele>
        <time>2018-09-04T15:56:23Z</time>
      </trkpt>
      <trkpt lat="45.709418" lon="13.727414">
        <ele>244.772</ele>
        <time>2018-09-04T15:56:24Z</time>
      </trkpt>
      <trkpt lat="45.709522" lon="13.727226">
        <ele>244.713</ele>
        <time>2018-09-04T15:56:27Z</time>
      </trkpt>
      <trkpt lat="45.709579" lon="13.727103">
        <ele>244.314</ele>
        <time>2018-09-04T15:56:29Z</time>
      </trkpt>
      <trkpt lat="45.709623" lon="13.727052">
        <ele>244.308</ele>
        <time>2018-09-04T15:56:30Z</time>
      </trkpt>
      <trkpt lat="45.709715" lon="13.726985">
        <ele>243.831</ele>
        <time>2018-09-04T15:56:32Z</time>
      </trkpt>
      <trkpt lat="45.710165" lon="13.726662">
        <ele>244.753</ele>
        <time>2018-09-04T15:56:44Z</time>
      </trkpt>
      <trkpt lat="45.710313" lon="13.726431">
        <ele>246.229</ele>
        <time>2018-09-04T15:56:49Z</time>
      </trkpt>
      <trkpt lat="45.710348" lon="13.726394">
        <ele>246.795</ele>
        <time>2018-09-04T15:56:50Z</time>
      </trkpt>
      <trkpt lat="45.710491" lon="13.726236">
        <ele>247.680</ele>
        <time>2018-09-04T15:56:54Z</time>
      </trkpt>
      <trkpt lat="45.711090" lon="13.725421">
        <ele>244.344</ele>
        <time>2018-09-04T15:57:10Z</time>
      </trkpt>
      <trkpt lat="45.711489" lon="13.724845">
        <ele>244.334</ele>
        <time>2018-09-04T15:57:21Z</time>
      </trkpt>
      <trkpt lat="45.711655" lon="13.724378">
        <ele>244.338</ele>
        <time>2018-09-04T15:57:28Z</time>
      </trkpt>
      <trkpt lat="45.711695" lon="13.724311">
        <ele>244.343</ele>
        <time>2018-09-04T15:57:29Z</time>
      </trkpt>
      <trkpt lat="45.711726" lon="13.724272">
        <ele>244.364</ele>
        <time>2018-09-04T15:57:30Z</time>
      </trkpt>
      <trkpt lat="45.711772" lon="13.724230">
        <ele>243.810</ele>
        <time>2018-09-04T15:57:31Z</time>
      </trkpt>
      <trkpt lat="45.711817" lon="13.724202">
        <ele>243.808</ele>
        <time>2018-09-04T15:57:32Z</time>
      </trkpt>
      <trkpt lat="45.711864" lon="13.724172">
        <ele>243.858</ele>
        <time>2018-09-04T15:57:33Z</time>
      </trkpt>
      <trkpt lat="45.711907" lon="13.724139">
        <ele>243.370</ele>
        <time>2018-09-04T15:57:34Z</time>
      </trkpt>
      <trkpt lat="45.711947" lon="13.724104">
        <ele>243.896</ele>
        <time>2018-09-04T15:57:35Z</time>
      </trkpt>
      <trkpt lat="45.712025" lon="13.724032">
        <ele>243.322</ele>
        <time>2018-09-04T15:57:37Z</time>
      </trkpt>
      <trkpt lat="45.712288" lon="13.723796">
        <ele>246.267</ele>
        <time>2018-09-04T15:57:47Z</time>
      </trkpt>
      <trkpt lat="45.712735" lon="13.723430">
        <ele>251.031</ele>
        <time>2018-09-04T15:58:01Z</time>
      </trkpt>
      <trkpt lat="45.713128" lon="13.723179">
        <ele>254.491</ele>
        <time>2018-09-04T15:58:14Z</time>
      </trkpt>
      <trkpt lat="45.713493" lon="13.722837">
        <ele>258.715</ele>
        <time>2018-09-04T15:58:29Z</time>
      </trkpt>
      <trkpt lat="45.713768" lon="13.722483">
        <ele>259.227</ele>
        <time>2018-09-04T15:58:40Z</time>
      </trkpt>
      <trkpt lat="45.713838" lon="13.722324">
        <ele>258.768</ele>
        <time>2018-09-04T15:58:43Z</time>
      </trkpt>
      <trkpt lat="45.713968" lon="13.721982">
        <ele>257.214</ele>
        <time>2018-09-04T15:58:48Z</time>
      </trkpt>
      <trkpt lat="45.714027" lon="13.721865">
        <ele>257.208</ele>
        <time>2018-09-04T15:58:50Z</time>
      </trkpt>
      <trkpt lat="45.714048" lon="13.721811">
        <ele>257.296</ele>
        <time>2018-09-04T15:58:51Z</time>
      </trkpt>
      <trkpt lat="45.714061" lon="13.721772">
        <ele>257.278</ele>
        <time>2018-09-04T15:58:52Z</time>
      </trkpt>
      <trkpt lat="45.714070" lon="13.721738">
        <ele>256.814</ele>
        <time>2018-09-04T15:58:53Z</time>
      </trkpt>
      <trkpt lat="45.714077" lon="13.721700">
        <ele>256.350</ele>
        <time>2018-09-04T15:58:54Z</time>
      </trkpt>
      <trkpt lat="45.714309" lon="13.721171">
        <ele>254.825</ele>
        <time>2018-09-04T15:59:06Z</time>
      </trkpt>
      <trkpt lat="45.714593" lon="13.720460">
        <ele>251.579</ele>
        <time>2018-09-04T15:59:19Z</time>
      </trkpt>
      <trkpt lat="45.714975" lon="13.719521">
        <ele>249.119</ele>
        <time>2018-09-04T15:59:34Z</time>
      </trkpt>
      <trkpt lat="45.715066" lon="13.719350">
        <ele>248.623</ele>
        <time>2018-09-04T15:59:37Z</time>
      </trkpt>
      <trkpt lat="45.715164" lon="13.719124">
        <ele>248.669</ele>
        <time>2018-09-04T15:59:41Z</time>
      </trkpt>
      <trkpt lat="45.715187" lon="13.719071">
        <ele>249.104</ele>
        <time>2018-09-04T15:59:42Z</time>
      </trkpt>
      <trkpt lat="45.715214" lon="13.719014">
        <ele>249.624</ele>
        <time>2018-09-04T15:59:43Z</time>
      </trkpt>
      <trkpt lat="45.715235" lon="13.718955">
        <ele>250.008</ele>
        <time>2018-09-04T15:59:44Z</time>
      </trkpt>
      <trkpt lat="45.715256" lon="13.718891">
        <ele>250.060</ele>
        <time>2018-09-04T15:59:45Z</time>
      </trkpt>
      <trkpt lat="45.715569" lon="13.718316">
        <ele>250.592</ele>
        <time>2018-09-04T15:59:57Z</time>
      </trkpt>
      <trkpt lat="45.715911" lon="13.717982">
        <ele>249.638</ele>
        <time>2018-09-04T16:00:08Z</time>
      </trkpt>
      <trkpt lat="45.716164" lon="13.717766">
        <ele>255.884</ele>
        <time>2018-09-04T16:00:20Z</time>
      </trkpt>
      <trkpt lat="45.716356" lon="13.717490">
        <ele>263.079</ele>
        <time>2018-09-04T16:00:34Z</time>
      </trkpt>
      <trkpt lat="45.716449" lon="13.717329">
        <ele>264.063</ele>
        <time>2018-09-04T16:00:40Z</time>
      </trkpt>
      <trkpt lat="45.716463" lon="13.717305">
        <ele>264.053</ele>
        <time>2018-09-04T16:00:41Z</time>
      </trkpt>
      <trkpt lat="45.716695" lon="13.716923">
        <ele>264.967</ele>
        <time>2018-09-04T16:00:56Z</time>
      </trkpt>
      <trkpt lat="45.716874" lon="13.716591">
        <ele>264.085</ele>
        <time>2018-09-04T16:01:08Z</time>
      </trkpt>
      <trkpt lat="45.717075" lon="13.716129">
        <ele>262.589</ele>
        <time>2018-09-04T16:01:23Z</time>
      </trkpt>
      <trkpt lat="45.717388" lon="13.715443">
        <ele>260.617</ele>
        <time>2018-09-04T16:01:40Z</time>
      </trkpt>
      <trkpt lat="45.717608" lon="13.714960">
        <ele>259.608</ele>
        <time>2018-09-04T16:01:50Z</time>
      </trkpt>
      <trkpt lat="45.717634" lon="13.714912">
        <ele>259.632</ele>
        <time>2018-09-04T16:01:51Z</time>
      </trkpt>
      <trkpt lat="45.717684" lon="13.714805">
        <ele>259.264</ele>
        <time>2018-09-04T16:01:53Z</time>
      </trkpt>
      <trkpt lat="45.717747" lon="13.714637">
        <ele>258.750</ele>
        <time>2018-09-04T16:01:56Z</time>
      </trkpt>
      <trkpt lat="45.717861" lon="13.714329">
        <ele>257.226</ele>
        <time>2018-09-04T16:02:01Z</time>
      </trkpt>
      <trkpt lat="45.717876" lon="13.714270">
        <ele>256.881</ele>
        <time>2018-09-04T16:02:02Z</time>
      </trkpt>
      <trkpt lat="45.717920" lon="13.714086">
        <ele>255.875</ele>
        <time>2018-09-04T16:02:05Z</time>
      </trkpt>
      <trkpt lat="45.717946" lon="13.714028">
        <ele>255.855</ele>
        <time>2018-09-04T16:02:06Z</time>
      </trkpt>
      <trkpt lat="45.718391" lon="13.713353">
        <ele>252.929</ele>
        <time>2018-09-04T16:02:20Z</time>
      </trkpt>
      <trkpt lat="45.718428" lon="13.713318">
        <ele>252.483</ele>
        <time>2018-09-04T16:02:21Z</time>
      </trkpt>
      <trkpt lat="45.718479" lon="13.713284">
        <ele>252.425</ele>
        <time>2018-09-04T16:02:22Z</time>
      </trkpt>
      <trkpt lat="45.718519" lon="13.713266">
        <ele>252.017</ele>
        <time>2018-09-04T16:02:23Z</time>
      </trkpt>
      <trkpt lat="45.718555" lon="13.713253">
        <ele>251.508</ele>
        <time>2018-09-04T16:02:24Z</time>
      </trkpt>
      <trkpt lat="45.718584" lon="13.713243">
        <ele>251.522</ele>
        <time>2018-09-04T16:02:25Z</time>
      </trkpt>
      <trkpt lat="45.718611" lon="13.713231">
        <ele>251.534</ele>
        <time>2018-09-04T16:02:26Z</time>
      </trkpt>
      <trkpt lat="45.718636" lon="13.713216">
        <ele>251.570</ele>
        <time>2018-09-04T16:02:27Z</time>
      </trkpt>
      <trkpt lat="45.718670" lon="13.713193">
        <ele>252.056</ele>
        <time>2018-09-04T16:02:28Z</time>
      </trkpt>
      <trkpt lat="45.718941" lon="13.712840">
        <ele>252.081</ele>
        <time>2018-09-04T16:02:38Z</time>
      </trkpt>
      <trkpt lat="45.719106" lon="13.712832">
        <ele>252.955</ele>
        <time>2018-09-04T16:02:50Z</time>
      </trkpt>
      <trkpt lat="45.719119" lon="13.712847">
        <ele>252.955</ele>
        <time>2018-09-04T16:02:51Z</time>
      </trkpt>
      <trkpt lat="45.719128" lon="13.712862">
        <ele>253.499</ele>
        <time>2018-09-04T16:02:52Z</time>
      </trkpt>
      <trkpt lat="45.719138" lon="13.712883">
        <ele>253.447</ele>
        <time>2018-09-04T16:02:53Z</time>
      </trkpt>
      <trkpt lat="45.719148" lon="13.712899">
        <ele>252.929</ele>
        <time>2018-09-04T16:02:54Z</time>
      </trkpt>
      <trkpt lat="45.719158" lon="13.712914">
        <ele>252.921</ele>
        <time>2018-09-04T16:02:55Z</time>
      </trkpt>
      <trkpt lat="45.719174" lon="13.712920">
        <ele>252.908</ele>
        <time>2018-09-04T16:02:56Z</time>
      </trkpt>
      <trkpt lat="45.719187" lon="13.712919">
        <ele>252.948</ele>
        <time>2018-09-04T16:02:57Z</time>
      </trkpt>
      <trkpt lat="45.719197" lon="13.712905">
        <ele>252.930</ele>
        <time>2018-09-04T16:02:58Z</time>
      </trkpt>
      <trkpt lat="45.719346" lon="13.712717">
        <ele>257.746</ele>
        <time>2018-09-04T16:03:12Z</time>
      </trkpt>
      <trkpt lat="45.719408" lon="13.712596">
        <ele>259.622</ele>
        <time>2018-09-04T16:03:19Z</time>
      </trkpt>
      <trkpt lat="45.719416" lon="13.712580">
        <ele>260.157</ele>
        <time>2018-09-04T16:03:20Z</time>
      </trkpt>
      <trkpt lat="45.719462" lon="13.712490">
        <ele>260.131</ele>
        <time>2018-09-04T16:03:25Z</time>
      </trkpt>
      <trkpt lat="45.719472" lon="13.712469">
        <ele>260.121</ele>
        <time>2018-09-04T16:03:26Z</time>
      </trkpt>
      <trkpt lat="45.719481" lon="13.712451">
        <ele>260.155</ele>
        <time>2018-09-04T16:03:27Z</time>
      </trkpt>
      <trkpt lat="45.719494" lon="13.712430">
        <ele>260.661</ele>
        <time>2018-09-04T16:03:28Z</time>
      </trkpt>
      <trkpt lat="45.719508" lon="13.712410">
        <ele>260.121</ele>
        <time>2018-09-04T16:03:29Z</time>
      </trkpt>
      <trkpt lat="45.719669" lon="13.712154">
        <ele>262.513</ele>
        <time>2018-09-04T16:03:42Z</time>
      </trkpt>
      <trkpt lat="45.719804" lon="13.711927">
        <ele>264.008</ele>
        <time>2018-09-04T16:03:54Z</time>
      </trkpt>
      <trkpt lat="45.719935" lon="13.711734">
        <ele>264.570</ele>
        <time>2018-09-04T16:04:05Z</time>
      </trkpt>
      <trkpt lat="45.720084" lon="13.711482">
        <ele>267.322</ele>
        <time>2018-09-04T16:04:18Z</time>
      </trkpt>
      <trkpt lat="45.720227" lon="13.711251">
        <ele>268.358</ele>
        <time>2018-09-04T16:04:28Z</time>
      </trkpt>
      <trkpt lat="45.720240" lon="13.711230">
        <ele>268.364</ele>
        <time>2018-09-04T16:04:29Z</time>
      </trkpt>
      <trkpt lat="45.720252" lon="13.711204">
        <ele>268.389</ele>
        <time>2018-09-04T16:04:30Z</time>
      </trkpt>
      <trkpt lat="45.720380" lon="13.710916">
        <ele>271.223</ele>
        <time>2018-09-04T16:04:43Z</time>
      </trkpt>
      <trkpt lat="45.720596" lon="13.710496">
        <ele>269.313</ele>
        <time>2018-09-04T16:04:57Z</time>
      </trkpt>
      <trkpt lat="45.720778" lon="13.710073">
        <ele>267.337</ele>
        <time>2018-09-04T16:05:09Z</time>
      </trkpt>
      <trkpt lat="45.720942" lon="13.709714">
        <ele>265.454</ele>
        <time>2018-09-04T16:05:17Z</time>
      </trkpt>
      <trkpt lat="45.721012" lon="13.709469">
        <ele>265.456</ele>
        <time>2018-09-04T16:05:21Z</time>
      </trkpt>
      <trkpt lat="45.721021" lon="13.709398">
        <ele>265.411</ele>
        <time>2018-09-04T16:05:22Z</time>
      </trkpt>
      <trkpt lat="45.721024" lon="13.709327">
        <ele>265.908</ele>
        <time>2018-09-04T16:05:23Z</time>
      </trkpt>
      <trkpt lat="45.721028" lon="13.709256">
        <ele>265.959</ele>
        <time>2018-09-04T16:05:24Z</time>
      </trkpt>
      <trkpt lat="45.721041" lon="13.709184">
        <ele>265.411</ele>
        <time>2018-09-04T16:05:25Z</time>
      </trkpt>
      <trkpt lat="45.721060" lon="13.709115">
        <ele>265.427</ele>
        <time>2018-09-04T16:05:26Z</time>
      </trkpt>
      <trkpt lat="45.721080" lon="13.709056">
        <ele>265.413</ele>
        <time>2018-09-04T16:05:27Z</time>
      </trkpt>
      <trkpt lat="45.721102" lon="13.708996">
        <ele>265.928</ele>
        <time>2018-09-04T16:05:28Z</time>
      </trkpt>
      <trkpt lat="45.721128" lon="13.708928">
        <ele>265.942</ele>
        <time>2018-09-04T16:05:29Z</time>
      </trkpt>
      <trkpt lat="45.721154" lon="13.708858">
        <ele>265.932</ele>
        <time>2018-09-04T16:05:30Z</time>
      </trkpt>
      <trkpt lat="45.721200" lon="13.708721">
        <ele>265.986</ele>
        <time>2018-09-04T16:05:32Z</time>
      </trkpt>
      <trkpt lat="45.721233" lon="13.708662">
        <ele>265.965</ele>
        <time>2018-09-04T16:05:33Z</time>
      </trkpt>
      <trkpt lat="45.721267" lon="13.708617">
        <ele>265.468</ele>
        <time>2018-09-04T16:05:34Z</time>
      </trkpt>
      <trkpt lat="45.721295" lon="13.708583">
        <ele>264.914</ele>
        <time>2018-09-04T16:05:35Z</time>
      </trkpt>
      <trkpt lat="45.721315" lon="13.708560">
        <ele>264.508</ele>
        <time>2018-09-04T16:05:36Z</time>
      </trkpt>
      <trkpt lat="45.721330" lon="13.708540">
        <ele>264.050</ele>
        <time>2018-09-04T16:05:37Z</time>
      </trkpt>
      <trkpt lat="45.721345" lon="13.708523">
        <ele>264.042</ele>
        <time>2018-09-04T16:05:38Z</time>
      </trkpt>
      <trkpt lat="45.721363" lon="13.708512">
        <ele>263.598</ele>
        <time>2018-09-04T16:05:39Z</time>
      </trkpt>
      <trkpt lat="45.721384" lon="13.708499">
        <ele>263.024</ele>
        <time>2018-09-04T16:05:40Z</time>
      </trkpt>
      <trkpt lat="45.721405" lon="13.708489">
        <ele>262.539</ele>
        <time>2018-09-04T16:05:41Z</time>
      </trkpt>
      <trkpt lat="45.721425" lon="13.708475">
        <ele>262.563</ele>
        <time>2018-09-04T16:05:42Z</time>
      </trkpt>
      <trkpt lat="45.721446" lon="13.708458">
        <ele>262.543</ele>
        <time>2018-09-04T16:05:43Z</time>
      </trkpt>
      <trkpt lat="45.721473" lon="13.708439">
        <ele>263.057</ele>
        <time>2018-09-04T16:05:44Z</time>
      </trkpt>
      <trkpt lat="45.721498" lon="13.708415">
        <ele>263.067</ele>
        <time>2018-09-04T16:05:45Z</time>
      </trkpt>
      <trkpt lat="45.721521" lon="13.708393">
        <ele>263.581</ele>
        <time>2018-09-04T16:05:46Z</time>
      </trkpt>
      <trkpt lat="45.721541" lon="13.708377">
        <ele>263.019</ele>
        <time>2018-09-04T16:05:47Z</time>
      </trkpt>
      <trkpt lat="45.721804" lon="13.708147">
        <ele>262.108</ele>
        <time>2018-09-04T16:05:57Z</time>
      </trkpt>
      <trkpt lat="45.722023" lon="13.707832">
        <ele>260.140</ele>
        <time>2018-09-04T16:06:06Z</time>
      </trkpt>
      <trkpt lat="45.722180" lon="13.707525">
        <ele>258.292</ele>
        <time>2018-09-04T16:06:12Z</time>
      </trkpt>
      <trkpt lat="45.722212" lon="13.707466">
        <ele>257.738</ele>
        <time>2018-09-04T16:06:13Z</time>
      </trkpt>
      <trkpt lat="45.722240" lon="13.707409">
        <ele>257.774</ele>
        <time>2018-09-04T16:06:14Z</time>
      </trkpt>
      <trkpt lat="45.722269" lon="13.707354">
        <ele>257.739</ele>
        <time>2018-09-04T16:06:15Z</time>
      </trkpt>
      <trkpt lat="45.722296" lon="13.707300">
        <ele>257.753</ele>
        <time>2018-09-04T16:06:16Z</time>
      </trkpt>
      <trkpt lat="45.722329" lon="13.707255">
        <ele>257.733</ele>
        <time>2018-09-04T16:06:17Z</time>
      </trkpt>
      <trkpt lat="45.722363" lon="13.707214">
        <ele>257.777</ele>
        <time>2018-09-04T16:06:18Z</time>
      </trkpt>
      <trkpt lat="45.722577" lon="13.706941">
        <ele>258.757</ele>
        <time>2018-09-04T16:06:28Z</time>
      </trkpt>
      <trkpt lat="45.722612" lon="13.706908">
        <ele>259.600</ele>
        <time>2018-09-04T16:06:30Z</time>
      </trkpt>
      <trkpt lat="45.722627" lon="13.706890">
        <ele>260.120</ele>
        <time>2018-09-04T16:06:31Z</time>
      </trkpt>
      <trkpt lat="45.722840" lon="13.706694">
        <ele>264.508</ele>
        <time>2018-09-04T16:06:44Z</time>
      </trkpt>
      <trkpt lat="45.723068" lon="13.706536">
        <ele>268.319</ele>
        <time>2018-09-04T16:06:56Z</time>
      </trkpt>
      <trkpt lat="45.723231" lon="13.706491">
        <ele>268.821</ele>
        <time>2018-09-04T16:07:05Z</time>
      </trkpt>
      <trkpt lat="45.723249" lon="13.706492">
        <ele>268.837</ele>
        <time>2018-09-04T16:07:06Z</time>
      </trkpt>
      <trkpt lat="45.723268" lon="13.706492">
        <ele>268.843</ele>
        <time>2018-09-04T16:07:07Z</time>
      </trkpt>
      <trkpt lat="45.723505" lon="13.706518">
        <ele>271.728</ele>
        <time>2018-09-04T16:07:20Z</time>
      </trkpt>
      <trkpt lat="45.723789" lon="13.706640">
        <ele>270.752</ele>
        <time>2018-09-04T16:07:29Z</time>
      </trkpt>
      <trkpt lat="45.724066" lon="13.706863">
        <ele>268.832</ele>
        <time>2018-09-04T16:07:40Z</time>
      </trkpt>
      <trkpt lat="45.724098" lon="13.706860">
        <ele>268.336</ele>
        <time>2018-09-04T16:07:41Z</time>
      </trkpt>
      <trkpt lat="45.724134" lon="13.706834">
        <ele>267.826</ele>
        <time>2018-09-04T16:07:42Z</time>
      </trkpt>
      <trkpt lat="45.724166" lon="13.706790">
        <ele>266.947</ele>
        <time>2018-09-04T16:07:43Z</time>
      </trkpt>
      <trkpt lat="45.724186" lon="13.706756">
        <ele>265.911</ele>
        <time>2018-09-04T16:07:44Z</time>
      </trkpt>
      <trkpt lat="45.724401" lon="13.706381">
        <ele>259.208</ele>
        <time>2018-09-04T16:07:55Z</time>
      </trkpt>
      <trkpt lat="45.724734" lon="13.705879">
        <ele>253.926</ele>
        <time>2018-09-04T16:08:06Z</time>
      </trkpt>
      <trkpt lat="45.724757" lon="13.705837">
        <ele>253.938</ele>
        <time>2018-09-04T16:08:07Z</time>
      </trkpt>
      <trkpt lat="45.724995" lon="13.705523">
        <ele>253.444</ele>
        <time>2018-09-04T16:08:16Z</time>
      </trkpt>
      <trkpt lat="45.725015" lon="13.705494">
        <ele>253.470</ele>
        <time>2018-09-04T16:08:17Z</time>
      </trkpt>
      <trkpt lat="45.725032" lon="13.705461">
        <ele>253.965</ele>
        <time>2018-09-04T16:08:18Z</time>
      </trkpt>
      <trkpt lat="45.725046" lon="13.705427">
        <ele>254.899</ele>
        <time>2018-09-04T16:08:19Z</time>
      </trkpt>
      <trkpt lat="45.725058" lon="13.705395">
        <ele>255.369</ele>
        <time>2018-09-04T16:08:20Z</time>
      </trkpt>
      <trkpt lat="45.725070" lon="13.705365">
        <ele>255.833</ele>
        <time>2018-09-04T16:08:21Z</time>
      </trkpt>
      <trkpt lat="45.725264" lon="13.705036">
        <ele>259.653</ele>
        <time>2018-09-04T16:08:33Z</time>
      </trkpt>
      <trkpt lat="45.725389" lon="13.704815">
        <ele>260.604</ele>
        <time>2018-09-04T16:08:41Z</time>
      </trkpt>
      <trkpt lat="45.725405" lon="13.704790">
        <ele>260.614</ele>
        <time>2018-09-04T16:08:42Z</time>
      </trkpt>
      <trkpt lat="45.725703" lon="13.704415">
        <ele>261.108</ele>
        <time>2018-09-04T16:08:55Z</time>
      </trkpt>
      <trkpt lat="45.725887" lon="13.704053">
        <ele>259.659</ele>
        <time>2018-09-04T16:09:06Z</time>
      </trkpt>
      <trkpt lat="45.726149" lon="13.703667">
        <ele>256.891</ele>
        <time>2018-09-04T16:09:17Z</time>
      </trkpt>
      <trkpt lat="45.726253" lon="13.703360">
        <ele>255.847</ele>
        <time>2018-09-04T16:09:27Z</time>
      </trkpt>
      <trkpt lat="45.726356" lon="13.703141">
        <ele>254.893</ele>
        <time>2018-09-04T16:09:35Z</time>
      </trkpt>
      <trkpt lat="45.726366" lon="13.703101">
        <ele>254.898</ele>
        <time>2018-09-04T16:09:36Z</time>
      </trkpt>
      <trkpt lat="45.726377" lon="13.703060">
        <ele>254.892</ele>
        <time>2018-09-04T16:09:37Z</time>
      </trkpt>
      <trkpt lat="45.726389" lon="13.703020">
        <ele>254.862</ele>
        <time>2018-09-04T16:09:38Z</time>
      </trkpt>
      <trkpt lat="45.726400" lon="13.702977">
        <ele>254.876</ele>
        <time>2018-09-04T16:09:39Z</time>
      </trkpt>
      <trkpt lat="45.726417" lon="13.702936">
        <ele>255.358</ele>
        <time>2018-09-04T16:09:40Z</time>
      </trkpt>
      <trkpt lat="45.726437" lon="13.702899">
        <ele>255.352</ele>
        <time>2018-09-04T16:09:41Z</time>
      </trkpt>
      <trkpt lat="45.726457" lon="13.702850">
        <ele>255.317</ele>
        <time>2018-09-04T16:09:42Z</time>
      </trkpt>
      <trkpt lat="45.726482" lon="13.702804">
        <ele>255.308</ele>
        <time>2018-09-04T16:09:43Z</time>
      </trkpt>
      <trkpt lat="45.726544" lon="13.702706">
        <ele>254.829</ele>
        <time>2018-09-04T16:09:45Z</time>
      </trkpt>
      <trkpt lat="45.726826" lon="13.702329">
        <ele>252.011</ele>
        <time>2018-09-04T16:09:55Z</time>
      </trkpt>
      <trkpt lat="45.727001" lon="13.702033">
        <ele>251.537</ele>
        <time>2018-09-04T16:10:01Z</time>
      </trkpt>
      <trkpt lat="45.727069" lon="13.701927">
        <ele>251.573</ele>
        <time>2018-09-04T16:10:03Z</time>
      </trkpt>
      <trkpt lat="45.727114" lon="13.701866">
        <ele>251.538</ele>
        <time>2018-09-04T16:10:04Z</time>
      </trkpt>
      <trkpt lat="45.727151" lon="13.701804">
        <ele>251.522</ele>
        <time>2018-09-04T16:10:05Z</time>
      </trkpt>
      <trkpt lat="45.727180" lon="13.701741">
        <ele>251.092</ele>
        <time>2018-09-04T16:10:06Z</time>
      </trkpt>
      <trkpt lat="45.727201" lon="13.701683">
        <ele>250.526</ele>
        <time>2018-09-04T16:10:07Z</time>
      </trkpt>
      <trkpt lat="45.727221" lon="13.701634">
        <ele>250.548</ele>
        <time>2018-09-04T16:10:08Z</time>
      </trkpt>
      <trkpt lat="45.727245" lon="13.701582">
        <ele>250.561</ele>
        <time>2018-09-04T16:10:09Z</time>
      </trkpt>
      <trkpt lat="45.727271" lon="13.701528">
        <ele>250.017</ele>
        <time>2018-09-04T16:10:10Z</time>
      </trkpt>
      <trkpt lat="45.727576" lon="13.700797">
        <ele>244.308</ele>
        <time>2018-09-04T16:10:22Z</time>
      </trkpt>
      <trkpt lat="45.727631" lon="13.700676">
        <ele>243.378</ele>
        <time>2018-09-04T16:10:24Z</time>
      </trkpt>
      <trkpt lat="45.727661" lon="13.700625">
        <ele>242.820</ele>
        <time>2018-09-04T16:10:25Z</time>
      </trkpt>
      <trkpt lat="45.727693" lon="13.700571">
        <ele>242.336</ele>
        <time>2018-09-04T16:10:26Z</time>
      </trkpt>
      <trkpt lat="45.727912" lon="13.700221">
        <ele>238.532</ele>
        <time>2018-09-04T16:10:32Z</time>
      </trkpt>
      <trkpt lat="45.727941" lon="13.700157">
        <ele>238.097</ele>
        <time>2018-09-04T16:10:33Z</time>
      </trkpt>
      <trkpt lat="45.727964" lon="13.700087">
        <ele>237.521</ele>
        <time>2018-09-04T16:10:34Z</time>
      </trkpt>
      <trkpt lat="45.727984" lon="13.700016">
        <ele>237.151</ele>
        <time>2018-09-04T16:10:35Z</time>
      </trkpt>
      <trkpt lat="45.727996" lon="13.699942">
        <ele>236.635</ele>
        <time>2018-09-04T16:10:36Z</time>
      </trkpt>
      <trkpt lat="45.728001" lon="13.699866">
        <ele>236.133</ele>
        <time>2018-09-04T16:10:37Z</time>
      </trkpt>
      <trkpt lat="45.728002" lon="13.699801">
        <ele>235.623</ele>
        <time>2018-09-04T16:10:38Z</time>
      </trkpt>
      <trkpt lat="45.728007" lon="13.699734">
        <ele>235.115</ele>
        <time>2018-09-04T16:10:39Z</time>
      </trkpt>
      <trkpt lat="45.728022" lon="13.699671">
        <ele>234.708</ele>
        <time>2018-09-04T16:10:40Z</time>
      </trkpt>
      <trkpt lat="45.728040" lon="13.699615">
        <ele>234.267</ele>
        <time>2018-09-04T16:10:41Z</time>
      </trkpt>
      <trkpt lat="45.728059" lon="13.699564">
        <ele>233.789</ele>
        <time>2018-09-04T16:10:42Z</time>
      </trkpt>
      <trkpt lat="45.728077" lon="13.699511">
        <ele>233.285</ele>
        <time>2018-09-04T16:10:43Z</time>
      </trkpt>
      <trkpt lat="45.728285" lon="13.699107">
        <ele>232.371</ele>
        <time>2018-09-04T16:10:52Z</time>
      </trkpt>
      <trkpt lat="45.728322" lon="13.699058">
        <ele>231.896</ele>
        <time>2018-09-04T16:10:53Z</time>
      </trkpt>
      <trkpt lat="45.728358" lon="13.699006">
        <ele>231.860</ele>
        <time>2018-09-04T16:10:54Z</time>
      </trkpt>
      <trkpt lat="45.728394" lon="13.698953">
        <ele>231.350</ele>
        <time>2018-09-04T16:10:55Z</time>
      </trkpt>
      <trkpt lat="45.728426" lon="13.698897">
        <ele>230.854</ele>
        <time>2018-09-04T16:10:56Z</time>
      </trkpt>
      <trkpt lat="45.728451" lon="13.698842">
        <ele>230.351</ele>
        <time>2018-09-04T16:10:57Z</time>
      </trkpt>
      <trkpt lat="45.728474" lon="13.698786">
        <ele>230.301</ele>
        <time>2018-09-04T16:10:58Z</time>
      </trkpt>
      <trkpt lat="45.728641" lon="13.698533">
        <ele>228.911</ele>
        <time>2018-09-04T16:11:07Z</time>
      </trkpt>
      <trkpt lat="45.728870" lon="13.698259">
        <ele>228.908</ele>
        <time>2018-09-04T16:11:14Z</time>
      </trkpt>
      <trkpt lat="45.729097" lon="13.698040">
        <ele>229.449</ele>
        <time>2018-09-04T16:11:20Z</time>
      </trkpt>
      <trkpt lat="45.729128" lon="13.697995">
        <ele>229.471</ele>
        <time>2018-09-04T16:11:21Z</time>
      </trkpt>
      <trkpt lat="45.729255" lon="13.697810">
        <ele>228.917</ele>
        <time>2018-09-04T16:11:25Z</time>
      </trkpt>
      <trkpt lat="45.729344" lon="13.697730">
        <ele>228.483</ele>
        <time>2018-09-04T16:11:27Z</time>
      </trkpt>
      <trkpt lat="45.729492" lon="13.697639">
        <ele>227.988</ele>
        <time>2018-09-04T16:11:30Z</time>
      </trkpt>
      <trkpt lat="45.729541" lon="13.697613">
        <ele>227.992</ele>
        <time>2018-09-04T16:11:31Z</time>
      </trkpt>
      <trkpt lat="45.729861" lon="13.697399">
        <ele>227.952</ele>
        <time>2018-09-04T16:11:38Z</time>
      </trkpt>
      <trkpt lat="45.729943" lon="13.697319">
        <ele>228.446</ele>
        <time>2018-09-04T16:11:40Z</time>
      </trkpt>
      <trkpt lat="45.729981" lon="13.697268">
        <ele>228.947</ele>
        <time>2018-09-04T16:11:41Z</time>
      </trkpt>
      <trkpt lat="45.730014" lon="13.697211">
        <ele>229.429</ele>
        <time>2018-09-04T16:11:42Z</time>
      </trkpt>
      <trkpt lat="45.730160" lon="13.696916">
        <ele>229.821</ele>
        <time>2018-09-04T16:11:47Z</time>
      </trkpt>
      <trkpt lat="45.730183" lon="13.696857">
        <ele>229.808</ele>
        <time>2018-09-04T16:11:48Z</time>
      </trkpt>
      <trkpt lat="45.730200" lon="13.696795">
        <ele>229.868</ele>
        <time>2018-09-04T16:11:49Z</time>
      </trkpt>
      <trkpt lat="45.730213" lon="13.696728">
        <ele>229.860</ele>
        <time>2018-09-04T16:11:50Z</time>
      </trkpt>
      <trkpt lat="45.730221" lon="13.696664">
        <ele>229.856</ele>
        <time>2018-09-04T16:11:51Z</time>
      </trkpt>
      <trkpt lat="45.730231" lon="13.696596">
        <ele>229.432</ele>
        <time>2018-09-04T16:11:52Z</time>
      </trkpt>
      <trkpt lat="45.730249" lon="13.696534">
        <ele>229.487</ele>
        <time>2018-09-04T16:11:53Z</time>
      </trkpt>
      <trkpt lat="45.730277" lon="13.696464">
        <ele>228.991</ele>
        <time>2018-09-04T16:11:54Z</time>
      </trkpt>
      <trkpt lat="45.730303" lon="13.696410">
        <ele>228.971</ele>
        <time>2018-09-04T16:11:55Z</time>
      </trkpt>
      <trkpt lat="45.730342" lon="13.696344">
        <ele>228.495</ele>
        <time>2018-09-04T16:11:56Z</time>
      </trkpt>
      <trkpt lat="45.730383" lon="13.696279">
        <ele>227.944</ele>
        <time>2018-09-04T16:11:57Z</time>
      </trkpt>
      <trkpt lat="45.730430" lon="13.696203">
        <ele>227.405</ele>
        <time>2018-09-04T16:11:58Z</time>
      </trkpt>
      <trkpt lat="45.730470" lon="13.696129">
        <ele>226.515</ele>
        <time>2018-09-04T16:11:59Z</time>
      </trkpt>
      <trkpt lat="45.730515" lon="13.696057">
        <ele>225.508</ele>
        <time>2018-09-04T16:12:00Z</time>
      </trkpt>
      <trkpt lat="45.730570" lon="13.695991">
        <ele>224.628</ele>
        <time>2018-09-04T16:12:01Z</time>
      </trkpt>
      <trkpt lat="45.730622" lon="13.695949">
        <ele>224.130</ele>
        <time>2018-09-04T16:12:02Z</time>
      </trkpt>
      <trkpt lat="45.730678" lon="13.695899">
        <ele>222.626</ele>
        <time>2018-09-04T16:12:03Z</time>
      </trkpt>
      <trkpt lat="45.730735" lon="13.695836">
        <ele>221.772</ele>
        <time>2018-09-04T16:12:04Z</time>
      </trkpt>
      <trkpt lat="45.730784" lon="13.695757">
        <ele>221.277</ele>
        <time>2018-09-04T16:12:05Z</time>
      </trkpt>
      <trkpt lat="45.730825" lon="13.695677">
        <ele>220.261</ele>
        <time>2018-09-04T16:12:06Z</time>
      </trkpt>
      <trkpt lat="45.730862" lon="13.695590">
        <ele>219.821</ele>
        <time>2018-09-04T16:12:07Z</time>
      </trkpt>
      <trkpt lat="45.730901" lon="13.695485">
        <ele>218.895</ele>
        <time>2018-09-04T16:12:08Z</time>
      </trkpt>
      <trkpt lat="45.730933" lon="13.695385">
        <ele>217.843</ele>
        <time>2018-09-04T16:12:09Z</time>
      </trkpt>
      <trkpt lat="45.730957" lon="13.695273">
        <ele>216.964</ele>
        <time>2018-09-04T16:12:10Z</time>
      </trkpt>
      <trkpt lat="45.730969" lon="13.695157">
        <ele>215.910</ele>
        <time>2018-09-04T16:12:11Z</time>
      </trkpt>
      <trkpt lat="45.730970" lon="13.695052">
        <ele>214.908</ele>
        <time>2018-09-04T16:12:12Z</time>
      </trkpt>
      <trkpt lat="45.730964" lon="13.694957">
        <ele>214.598</ele>
        <time>2018-09-04T16:12:13Z</time>
      </trkpt>
      <trkpt lat="45.730973" lon="13.694869">
        <ele>213.580</ele>
        <time>2018-09-04T16:12:14Z</time>
      </trkpt>
      <trkpt lat="45.731007" lon="13.694805">
        <ele>213.526</ele>
        <time>2018-09-04T16:12:15Z</time>
      </trkpt>
      <trkpt lat="45.731052" lon="13.694781">
        <ele>213.532</ele>
        <time>2018-09-04T16:12:16Z</time>
      </trkpt>
      <trkpt lat="45.731105" lon="13.694790">
        <ele>213.587</ele>
        <time>2018-09-04T16:12:17Z</time>
      </trkpt>
      <trkpt lat="45.731152" lon="13.694807">
        <ele>213.571</ele>
        <time>2018-09-04T16:12:18Z</time>
      </trkpt>
      <trkpt lat="45.731186" lon="13.694813">
        <ele>213.581</ele>
        <time>2018-09-04T16:12:19Z</time>
      </trkpt>
      <trkpt lat="45.731226" lon="13.694811">
        <ele>213.525</ele>
        <time>2018-09-04T16:12:20Z</time>
      </trkpt>
      <trkpt lat="45.731262" lon="13.694800">
        <ele>213.563</ele>
        <time>2018-09-04T16:12:21Z</time>
      </trkpt>
      <trkpt lat="45.731293" lon="13.694783">
        <ele>214.044</ele>
        <time>2018-09-04T16:12:22Z</time>
      </trkpt>
      <trkpt lat="45.731317" lon="13.694760">
        <ele>214.018</ele>
        <time>2018-09-04T16:12:23Z</time>
      </trkpt>
      <trkpt lat="45.731336" lon="13.694732">
        <ele>214.008</ele>
        <time>2018-09-04T16:12:24Z</time>
      </trkpt>
      <trkpt lat="45.731353" lon="13.694700">
        <ele>214.030</ele>
        <time>2018-09-04T16:12:25Z</time>
      </trkpt>
      <trkpt lat="45.731676" lon="13.694472">
        <ele>215.992</ele>
        <time>2018-09-04T16:12:38Z</time>
      </trkpt>
      <trkpt lat="45.731910" lon="13.694234">
        <ele>216.958</ele>
        <time>2018-09-04T16:12:49Z</time>
      </trkpt>
      <trkpt lat="45.732161" lon="13.693918">
        <ele>221.234</ele>
        <time>2018-09-04T16:13:02Z</time>
      </trkpt>
      <trkpt lat="45.732394" lon="13.693231">
        <ele>219.839</ele>
        <time>2018-09-04T16:13:14Z</time>
      </trkpt>
      <trkpt lat="45.732483" lon="13.693015">
        <ele>216.923</ele>
        <time>2018-09-04T16:13:22Z</time>
      </trkpt>
      <trkpt lat="45.732541" lon="13.692892">
        <ele>213.573</ele>
        <time>2018-09-04T16:13:37Z</time>
      </trkpt>
      <trkpt lat="45.732581" lon="13.692848">
        <ele>213.037</ele>
        <time>2018-09-04T16:13:40Z</time>
      </trkpt>
      <trkpt lat="45.732587" lon="13.692831">
        <ele>213.026</ele>
        <time>2018-09-04T16:13:41Z</time>
      </trkpt>
      <trkpt lat="45.732597" lon="13.692817">
        <ele>213.047</ele>
        <time>2018-09-04T16:13:42Z</time>
      </trkpt>
      <trkpt lat="45.732607" lon="13.692791">
        <ele>213.511</ele>
        <time>2018-09-04T16:13:43Z</time>
      </trkpt>
      <trkpt lat="45.732617" lon="13.692759">
        <ele>213.008</ele>
        <time>2018-09-04T16:13:44Z</time>
      </trkpt>
      <trkpt lat="45.732505" lon="13.692338">
        <ele>208.776</ele>
        <time>2018-09-04T16:13:56Z</time>
      </trkpt>
      <trkpt lat="45.732433" lon="13.692285">
        <ele>208.258</ele>
        <time>2018-09-04T16:13:58Z</time>
      </trkpt>
      <trkpt lat="45.732332" lon="13.692239">
        <ele>208.764</ele>
        <time>2018-09-04T16:14:00Z</time>
      </trkpt>
      <trkpt lat="45.732285" lon="13.692199">
        <ele>209.290</ele>
        <time>2018-09-04T16:14:01Z</time>
      </trkpt>
      <trkpt lat="45.732240" lon="13.692161">
        <ele>209.715</ele>
        <time>2018-09-04T16:14:02Z</time>
      </trkpt>
      <trkpt lat="45.732116" lon="13.692072">
        <ele>210.129</ele>
        <time>2018-09-04T16:14:05Z</time>
      </trkpt>
      <trkpt lat="45.732083" lon="13.692017">
        <ele>209.249</ele>
        <time>2018-09-04T16:14:06Z</time>
      </trkpt>
      <trkpt lat="45.732068" lon="13.691944">
        <ele>208.743</ele>
        <time>2018-09-04T16:14:07Z</time>
      </trkpt>
      <trkpt lat="45.732080" lon="13.691858">
        <ele>207.762</ele>
        <time>2018-09-04T16:14:08Z</time>
      </trkpt>
      <trkpt lat="45.732103" lon="13.691770">
        <ele>206.383</ele>
        <time>2018-09-04T16:14:09Z</time>
      </trkpt>
      <trkpt lat="45.732125" lon="13.691682">
        <ele>205.311</ele>
        <time>2018-09-04T16:14:10Z</time>
      </trkpt>
      <trkpt lat="45.732149" lon="13.691573">
        <ele>204.408</ele>
        <time>2018-09-04T16:14:11Z</time>
      </trkpt>
      <trkpt lat="45.732187" lon="13.691443">
        <ele>202.930</ele>
        <time>2018-09-04T16:14:12Z</time>
      </trkpt>
      <trkpt lat="45.732416" lon="13.690278">
        <ele>193.322</ele>
        <time>2018-09-04T16:14:22Z</time>
      </trkpt>
      <trkpt lat="45.732456" lon="13.690087">
        <ele>190.978</ele>
        <time>2018-09-04T16:14:24Z</time>
      </trkpt>
      <trkpt lat="45.732844" lon="13.688864">
        <ele>177.054</ele>
        <time>2018-09-04T16:14:37Z</time>
      </trkpt>
      <trkpt lat="45.733304" lon="13.687484">
        <ele>168.399</ele>
        <time>2018-09-04T16:14:51Z</time>
      </trkpt>
      <trkpt lat="45.733401" lon="13.687201">
        <ele>166.493</ele>
        <time>2018-09-04T16:14:54Z</time>
      </trkpt>
      <trkpt lat="45.733438" lon="13.687104">
        <ele>165.493</ele>
        <time>2018-09-04T16:14:55Z</time>
      </trkpt>
      <trkpt lat="45.733471" lon="13.687001">
        <ele>165.017</ele>
        <time>2018-09-04T16:14:56Z</time>
      </trkpt>
      <trkpt lat="45.733501" lon="13.686895">
        <ele>164.028</ele>
        <time>2018-09-04T16:14:57Z</time>
      </trkpt>
      <trkpt lat="45.733533" lon="13.686772">
        <ele>163.089</ele>
        <time>2018-09-04T16:14:58Z</time>
      </trkpt>
      <trkpt lat="45.733875" lon="13.685613">
        <ele>153.417</ele>
        <time>2018-09-04T16:15:09Z</time>
      </trkpt>
      <trkpt lat="45.734320" lon="13.684627">
        <ele>146.208</ele>
        <time>2018-09-04T16:15:19Z</time>
      </trkpt>
      <trkpt lat="45.734725" lon="13.684128">
        <ele>140.016</ele>
        <time>2018-09-04T16:15:26Z</time>
      </trkpt>
      <trkpt lat="45.734768" lon="13.684049">
        <ele>138.598</ele>
        <time>2018-09-04T16:15:27Z</time>
      </trkpt>
      <trkpt lat="45.734805" lon="13.683969">
        <ele>137.634</ele>
        <time>2018-09-04T16:15:28Z</time>
      </trkpt>
      <trkpt lat="45.734882" lon="13.683820">
        <ele>135.660</ele>
        <time>2018-09-04T16:15:30Z</time>
      </trkpt>
      <trkpt lat="45.734923" lon="13.683751">
        <ele>134.725</ele>
        <time>2018-09-04T16:15:31Z</time>
      </trkpt>
      <trkpt lat="45.735280" lon="13.683085">
        <ele>128.959</ele>
        <time>2018-09-04T16:15:39Z</time>
      </trkpt>
      <trkpt lat="45.735867" lon="13.682037">
        <ele>127.569</ele>
        <time>2018-09-04T16:15:51Z</time>
      </trkpt>
      <trkpt lat="45.736108" lon="13.681697">
        <ele>129.983</ele>
        <time>2018-09-04T16:16:01Z</time>
      </trkpt>
      <trkpt lat="45.736462" lon="13.681271">
        <ele>130.837</ele>
        <time>2018-09-04T16:16:17Z</time>
      </trkpt>
      <trkpt lat="45.736649" lon="13.680983">
        <ele>129.949</ele>
        <time>2018-09-04T16:16:24Z</time>
      </trkpt>
      <trkpt lat="45.736921" lon="13.680574">
        <ele>126.013</ele>
        <time>2018-09-04T16:16:29Z</time>
      </trkpt>
      <trkpt lat="45.736995" lon="13.680497">
        <ele>125.508</ele>
        <time>2018-09-04T16:16:30Z</time>
      </trkpt>
      <trkpt lat="45.737185" lon="13.680269">
        <ele>125.157</ele>
        <time>2018-09-04T16:16:33Z</time>
      </trkpt>
      <trkpt lat="45.737235" lon="13.680184">
        <ele>125.149</ele>
        <time>2018-09-04T16:16:34Z</time>
      </trkpt>
      <trkpt lat="45.737277" lon="13.680098">
        <ele>125.175</ele>
        <time>2018-09-04T16:16:35Z</time>
      </trkpt>
      <trkpt lat="45.737707" lon="13.679094">
        <ele>124.641</ele>
        <time>2018-09-04T16:16:48Z</time>
      </trkpt>
      <trkpt lat="45.738035" lon="13.678693">
        <ele>119.826</ele>
        <time>2018-09-04T16:16:54Z</time>
      </trkpt>
      <trkpt lat="45.738233" lon="13.678363">
        <ele>115.980</ele>
        <time>2018-09-04T16:16:58Z</time>
      </trkpt>
      <trkpt lat="45.738466" lon="13.677762">
        <ele>106.390</ele>
        <time>2018-09-04T16:17:04Z</time>
      </trkpt>
      <trkpt lat="45.738506" lon="13.677691">
        <ele>104.484</ele>
        <time>2018-09-04T16:17:05Z</time>
      </trkpt>
      <trkpt lat="45.738541" lon="13.677627">
        <ele>103.012</ele>
        <time>2018-09-04T16:17:06Z</time>
      </trkpt>
      <trkpt lat="45.738579" lon="13.677551">
        <ele>101.032</ele>
        <time>2018-09-04T16:17:07Z</time>
      </trkpt>
      <trkpt lat="45.738618" lon="13.677457">
        <ele>98.605</ele>
        <time>2018-09-04T16:17:08Z</time>
      </trkpt>
      <trkpt lat="45.739136" lon="13.676394">
        <ele>80.408</ele>
        <time>2018-09-04T16:17:18Z</time>
      </trkpt>
      <trkpt lat="45.739568" lon="13.675696">
        <ele>68.855</ele>
        <time>2018-09-04T16:17:26Z</time>
      </trkpt>
      <trkpt lat="45.739611" lon="13.675619">
        <ele>67.977</ele>
        <time>2018-09-04T16:17:27Z</time>
      </trkpt>
      <trkpt lat="45.739646" lon="13.675528">
        <ele>67.923</ele>
        <time>2018-09-04T16:17:28Z</time>
      </trkpt>
      <trkpt lat="45.739682" lon="13.675432">
        <ele>67.469</ele>
        <time>2018-09-04T16:17:29Z</time>
      </trkpt>
      <trkpt lat="45.739708" lon="13.675380">
        <ele>67.934</ele>
        <time>2018-09-04T16:17:30Z</time>
      </trkpt>
      <trkpt lat="45.739743" lon="13.675310">
        <ele>67.988</ele>
        <time>2018-09-04T16:17:31Z</time>
      </trkpt>
      <trkpt lat="45.740292" lon="13.674360">
        <ele>68.898</ele>
        <time>2018-09-04T16:17:48Z</time>
      </trkpt>
      <trkpt lat="45.740822" lon="13.673185">
        <ele>67.932</ele>
        <time>2018-09-04T16:18:06Z</time>
      </trkpt>
      <trkpt lat="45.741311" lon="13.672030">
        <ele>70.355</ele>
        <time>2018-09-04T16:18:24Z</time>
      </trkpt>
      <trkpt lat="45.741537" lon="13.671419">
        <ele>70.307</ele>
        <time>2018-09-04T16:18:34Z</time>
      </trkpt>
      <trkpt lat="45.741560" lon="13.671357">
        <ele>70.317</ele>
        <time>2018-09-04T16:18:35Z</time>
      </trkpt>
      <trkpt lat="45.741585" lon="13.671298">
        <ele>70.308</ele>
        <time>2018-09-04T16:18:36Z</time>
      </trkpt>
      <trkpt lat="45.741723" lon="13.670939">
        <ele>70.379</ele>
        <time>2018-09-04T16:18:42Z</time>
      </trkpt>
      <trkpt lat="45.741843" lon="13.670648">
        <ele>70.381</ele>
        <time>2018-09-04T16:18:47Z</time>
      </trkpt>
      <trkpt lat="45.742250" lon="13.669622">
        <ele>69.867</ele>
        <time>2018-09-04T16:19:04Z</time>
      </trkpt>
      <trkpt lat="45.742831" lon="13.668352">
        <ele>71.783</ele>
        <time>2018-09-04T16:19:24Z</time>
      </trkpt>
      <trkpt lat="45.743397" lon="13.666998">
        <ele>72.758</ele>
        <time>2018-09-04T16:19:44Z</time>
      </trkpt>
      <trkpt lat="45.743915" lon="13.665941">
        <ele>72.742</ele>
        <time>2018-09-04T16:20:00Z</time>
      </trkpt>
      <trkpt lat="45.744317" lon="13.665300">
        <ele>72.222</ele>
        <time>2018-09-04T16:20:10Z</time>
      </trkpt>
      <trkpt lat="45.744358" lon="13.665232">
        <ele>72.296</ele>
        <time>2018-09-04T16:20:11Z</time>
      </trkpt>
      <trkpt lat="45.744640" lon="13.664808">
        <ele>72.274</ele>
        <time>2018-09-04T16:20:18Z</time>
      </trkpt>
      <trkpt lat="45.744686" lon="13.664759">
        <ele>72.256</ele>
        <time>2018-09-04T16:20:19Z</time>
      </trkpt>
      <trkpt lat="45.744784" lon="13.664669">
        <ele>72.721</ele>
        <time>2018-09-04T16:20:21Z</time>
      </trkpt>
      <trkpt lat="45.744870" lon="13.664559">
        <ele>72.708</ele>
        <time>2018-09-04T16:20:23Z</time>
      </trkpt>
      <trkpt lat="45.744915" lon="13.664508">
        <ele>72.731</ele>
        <time>2018-09-04T16:20:24Z</time>
      </trkpt>
      <trkpt lat="45.745581" lon="13.663688">
        <ele>75.153</ele>
        <time>2018-09-04T16:20:38Z</time>
      </trkpt>
      <trkpt lat="45.745622" lon="13.663624">
        <ele>75.129</ele>
        <time>2018-09-04T16:20:39Z</time>
      </trkpt>
      <trkpt lat="45.746237" lon="13.662676">
        <ele>76.045</ele>
        <time>2018-09-04T16:20:55Z</time>
      </trkpt>
      <trkpt lat="45.747029" lon="13.661775">
        <ele>78.490</ele>
        <time>2018-09-04T16:21:13Z</time>
      </trkpt>
      <trkpt lat="45.747859" lon="13.660972">
        <ele>78.944</ele>
        <time>2018-09-04T16:21:31Z</time>
      </trkpt>
      <trkpt lat="45.748688" lon="13.660130">
        <ele>79.954</ele>
        <time>2018-09-04T16:21:50Z</time>
      </trkpt>
      <trkpt lat="45.749307" lon="13.659421">
        <ele>80.848</ele>
        <time>2018-09-04T16:22:06Z</time>
      </trkpt>
      <trkpt lat="45.750070" lon="13.658452">
        <ele>80.889</ele>
        <time>2018-09-04T16:22:26Z</time>
      </trkpt>
      <trkpt lat="45.750674" lon="13.657588">
        <ele>80.806</ele>
        <time>2018-09-04T16:22:43Z</time>
      </trkpt>
      <trkpt lat="45.751125" lon="13.656709">
        <ele>79.926</ele>
        <time>2018-09-04T16:22:58Z</time>
      </trkpt>
      <trkpt lat="45.751511" lon="13.655921">
        <ele>80.808</ele>
        <time>2018-09-04T16:23:12Z</time>
      </trkpt>
      <trkpt lat="45.751901" lon="13.654937">
        <ele>80.832</ele>
        <time>2018-09-04T16:23:30Z</time>
      </trkpt>
      <trkpt lat="45.752168" lon="13.654352">
        <ele>81.344</ele>
        <time>2018-09-04T16:23:45Z</time>
      </trkpt>
      <trkpt lat="45.752173" lon="13.654364">
        <ele>81.360</ele>
        <time>2018-09-04T16:24:20Z</time>
      </trkpt>
      <trkpt lat="45.752223" lon="13.654244">
        <ele>79.426</ele>
        <time>2018-09-04T16:24:46Z</time>
      </trkpt>
      <trkpt lat="45.752569" lon="13.653601">
        <ele>80.891</ele>
        <time>2018-09-04T16:25:02Z</time>
      </trkpt>
      <trkpt lat="45.753097" lon="13.652773">
        <ele>82.385</ele>
        <time>2018-09-04T16:25:20Z</time>
      </trkpt>
      <trkpt lat="45.753644" lon="13.651923">
        <ele>83.765</ele>
        <time>2018-09-04T16:25:37Z</time>
      </trkpt>
      <trkpt lat="45.754309" lon="13.650905">
        <ele>84.759</ele>
        <time>2018-09-04T16:25:57Z</time>
      </trkpt>
      <trkpt lat="45.754860" lon="13.650065">
        <ele>85.238</ele>
        <time>2018-09-04T16:26:15Z</time>
      </trkpt>
      <trkpt lat="45.755320" lon="13.649362">
        <ele>84.770</ele>
        <time>2018-09-04T16:26:33Z</time>
      </trkpt>
      <trkpt lat="45.755702" lon="13.648640">
        <ele>85.617</ele>
        <time>2018-09-04T16:26:51Z</time>
      </trkpt>
      <trkpt lat="45.755916" lon="13.648060">
        <ele>85.608</ele>
        <time>2018-09-04T16:27:06Z</time>
      </trkpt>
      <trkpt lat="45.756186" lon="13.647312">
        <ele>85.227</ele>
        <time>2018-09-04T16:27:23Z</time>
      </trkpt>
      <trkpt lat="45.756260" lon="13.647110">
        <ele>84.779</ele>
        <time>2018-09-04T16:27:27Z</time>
      </trkpt>
      <trkpt lat="45.756277" lon="13.647061">
        <ele>84.765</ele>
        <time>2018-09-04T16:27:28Z</time>
      </trkpt>
      <trkpt lat="45.756553" lon="13.646283">
        <ele>84.771</ele>
        <time>2018-09-04T16:27:43Z</time>
      </trkpt>
      <trkpt lat="45.756986" lon="13.645190">
        <ele>84.726</ele>
        <time>2018-09-04T16:28:02Z</time>
      </trkpt>
      <trkpt lat="45.757485" lon="13.644286">
        <ele>85.240</ele>
        <time>2018-09-04T16:28:18Z</time>
      </trkpt>
      <trkpt lat="45.758248" lon="13.643040">
        <ele>87.190</ele>
        <time>2018-09-04T16:28:40Z</time>
      </trkpt>
      <trkpt lat="45.758836" lon="13.642440">
        <ele>88.194</ele>
        <time>2018-09-04T16:28:54Z</time>
      </trkpt>
      <trkpt lat="45.759600" lon="13.641840">
        <ele>89.012</ele>
        <time>2018-09-04T16:29:11Z</time>
      </trkpt>
      <trkpt lat="45.759696" lon="13.641766">
        <ele>89.032</ele>
        <time>2018-09-04T16:29:13Z</time>
      </trkpt>
      <trkpt lat="45.759732" lon="13.641747">
        <ele>89.005</ele>
        <time>2018-09-04T16:29:14Z</time>
      </trkpt>
      <trkpt lat="45.759774" lon="13.641720">
        <ele>89.008</ele>
        <time>2018-09-04T16:29:15Z</time>
      </trkpt>
      <trkpt lat="45.759815" lon="13.641693">
        <ele>89.085</ele>
        <time>2018-09-04T16:29:16Z</time>
      </trkpt>
      <trkpt lat="45.759856" lon="13.641668">
        <ele>88.577</ele>
        <time>2018-09-04T16:29:17Z</time>
      </trkpt>
      <trkpt lat="45.760355" lon="13.641358">
        <ele>88.153</ele>
        <time>2018-09-04T16:29:32Z</time>
      </trkpt>
      <trkpt lat="45.760484" lon="13.641281">
        <ele>88.559</ele>
        <time>2018-09-04T16:29:37Z</time>
      </trkpt>
      <trkpt lat="45.760505" lon="13.641273">
        <ele>89.054</ele>
        <time>2018-09-04T16:29:38Z</time>
      </trkpt>
      <trkpt lat="45.760526" lon="13.641232">
        <ele>89.558</ele>
        <time>2018-09-04T16:29:49Z</time>
      </trkpt>
      <trkpt lat="45.760534" lon="13.641210">
        <ele>90.028</ele>
        <time>2018-09-04T16:30:05Z</time>
      </trkpt>
      <trkpt lat="45.760538" lon="13.641192">
        <ele>90.092</ele>
        <time>2018-09-04T16:30:06Z</time>
      </trkpt>
      <trkpt lat="45.760548" lon="13.641144">
        <ele>90.945</ele>
        <time>2018-09-04T16:30:09Z</time>
      </trkpt>
      <trkpt lat="45.760557" lon="13.641125">
        <ele>90.947</ele>
        <time>2018-09-04T16:30:10Z</time>
      </trkpt>
      <trkpt lat="45.760569" lon="13.641107">
        <ele>90.911</ele>
        <time>2018-09-04T16:30:11Z</time>
      </trkpt>
      <trkpt lat="45.760583" lon="13.641092">
        <ele>90.908</ele>
        <time>2018-09-04T16:30:12Z</time>
      </trkpt>
      <trkpt lat="45.760594" lon="13.641080">
        <ele>90.998</ele>
        <time>2018-09-04T16:30:13Z</time>
      </trkpt>
      <trkpt lat="45.760605" lon="13.641071">
        <ele>90.990</ele>
        <time>2018-09-04T16:30:14Z</time>
      </trkpt>
      <trkpt lat="45.760651" lon="13.641019">
        <ele>91.486</ele>
        <time>2018-09-04T16:30:26Z</time>
      </trkpt>
      <trkpt lat="45.760650" lon="13.641044">
        <ele>92.962</ele>
        <time>2018-09-04T16:31:00Z</time>
      </trkpt>
      <trkpt lat="45.760742" lon="13.640953">
        <ele>93.387</ele>
        <time>2018-09-04T16:31:21Z</time>
      </trkpt>
      <trkpt lat="45.761124" lon="13.640607">
        <ele>90.941</ele>
        <time>2018-09-04T16:31:35Z</time>
      </trkpt>
      <trkpt lat="45.761735" lon="13.640140">
        <ele>90.981</ele>
        <time>2018-09-04T16:31:51Z</time>
      </trkpt>
      <trkpt lat="45.762048" lon="13.639949">
        <ele>91.415</ele>
        <time>2018-09-04T16:31:58Z</time>
      </trkpt>
      <trkpt lat="45.762139" lon="13.639902">
        <ele>91.473</ele>
        <time>2018-09-04T16:32:00Z</time>
      </trkpt>
      <trkpt lat="45.762188" lon="13.639870">
        <ele>91.485</ele>
        <time>2018-09-04T16:32:01Z</time>
      </trkpt>
      <trkpt lat="45.763094" lon="13.639482">
        <ele>91.913</ele>
        <time>2018-09-04T16:32:20Z</time>
      </trkpt>
      <trkpt lat="45.764065" lon="13.639317">
        <ele>92.908</ele>
        <time>2018-09-04T16:32:39Z</time>
      </trkpt>
      <trkpt lat="45.765164" lon="13.639308">
        <ele>90.911</ele>
        <time>2018-09-04T16:32:57Z</time>
      </trkpt>
      <trkpt lat="45.766111" lon="13.639311">
        <ele>89.053</ele>
        <time>2018-09-04T16:33:13Z</time>
      </trkpt>
      <trkpt lat="45.767230" lon="13.639303">
        <ele>85.249</ele>
        <time>2018-09-04T16:33:31Z</time>
      </trkpt>
      <trkpt lat="45.768428" lon="13.639278">
        <ele>82.315</ele>
        <time>2018-09-04T16:33:49Z</time>
      </trkpt>
      <trkpt lat="45.769610" lon="13.639240">
        <ele>81.860</ele>
        <time>2018-09-04T16:34:09Z</time>
      </trkpt>
      <trkpt lat="45.770353" lon="13.639107">
        <ele>80.844</ele>
        <time>2018-09-04T16:34:22Z</time>
      </trkpt>
      <trkpt lat="45.770403" lon="13.639068">
        <ele>80.474</ele>
        <time>2018-09-04T16:34:23Z</time>
      </trkpt>
      <trkpt lat="45.770447" lon="13.639023">
        <ele>80.428</ele>
        <time>2018-09-04T16:34:24Z</time>
      </trkpt>
      <trkpt lat="45.770492" lon="13.638968">
        <ele>79.913</ele>
        <time>2018-09-04T16:34:25Z</time>
      </trkpt>
      <trkpt lat="45.770538" lon="13.638907">
        <ele>79.943</ele>
        <time>2018-09-04T16:34:26Z</time>
      </trkpt>
      <trkpt lat="45.770581" lon="13.638846">
        <ele>79.407</ele>
        <time>2018-09-04T16:34:27Z</time>
      </trkpt>
      <trkpt lat="45.770629" lon="13.638768">
        <ele>78.908</ele>
        <time>2018-09-04T16:34:28Z</time>
      </trkpt>
      <trkpt lat="45.771466" lon="13.637413">
        <ele>74.635</ele>
        <time>2018-09-04T16:34:46Z</time>
      </trkpt>
      <trkpt lat="45.772174" lon="13.636234">
        <ele>72.227</ele>
        <time>2018-09-04T16:35:03Z</time>
      </trkpt>
      <trkpt lat="45.772498" lon="13.635526">
        <ele>69.873</ele>
        <time>2018-09-04T16:35:13Z</time>
      </trkpt>
      <trkpt lat="45.773141" lon="13.634777">
        <ele>70.319</ele>
        <time>2018-09-04T16:35:28Z</time>
      </trkpt>
      <trkpt lat="45.773511" lon="13.634329">
        <ele>68.334</ele>
        <time>2018-09-04T16:35:36Z</time>
      </trkpt>
      <trkpt lat="45.773590" lon="13.634193">
        <ele>67.998</ele>
        <time>2018-09-04T16:35:38Z</time>
      </trkpt>
      <trkpt lat="45.773625" lon="13.634115">
        <ele>67.958</ele>
        <time>2018-09-04T16:35:39Z</time>
      </trkpt>
      <trkpt lat="45.773683" lon="13.633960">
        <ele>67.422</ele>
        <time>2018-09-04T16:35:41Z</time>
      </trkpt>
      <trkpt lat="45.773704" lon="13.633876">
        <ele>67.433</ele>
        <time>2018-09-04T16:35:42Z</time>
      </trkpt>
      <trkpt lat="45.773735" lon="13.633697">
        <ele>66.923</ele>
        <time>2018-09-04T16:35:44Z</time>
      </trkpt>
      <trkpt lat="45.773746" lon="13.633503">
        <ele>66.915</ele>
        <time>2018-09-04T16:35:46Z</time>
      </trkpt>
      <trkpt lat="45.773743" lon="13.633430">
        <ele>66.908</ele>
        <time>2018-09-04T16:35:47Z</time>
      </trkpt>
      <trkpt lat="45.773559" lon="13.632259">
        <ele>65.537</ele>
        <time>2018-09-04T16:36:02Z</time>
      </trkpt>
      <trkpt lat="45.773369" lon="13.631021">
        <ele>64.579</ele>
        <time>2018-09-04T16:36:18Z</time>
      </trkpt>
      <trkpt lat="45.773372" lon="13.630861">
        <ele>64.575</ele>
        <time>2018-09-04T16:36:21Z</time>
      </trkpt>
      <trkpt lat="45.773386" lon="13.630831">
        <ele>64.511</ele>
        <time>2018-09-04T16:36:22Z</time>
      </trkpt>
      <trkpt lat="45.773404" lon="13.630809">
        <ele>65.076</ele>
        <time>2018-09-04T16:36:23Z</time>
      </trkpt>
      <trkpt lat="45.773421" lon="13.630793">
        <ele>65.020</ele>
        <time>2018-09-04T16:36:24Z</time>
      </trkpt>
      <trkpt lat="45.773440" lon="13.630781">
        <ele>65.040</ele>
        <time>2018-09-04T16:36:25Z</time>
      </trkpt>
      <trkpt lat="45.773459" lon="13.630774">
        <ele>65.534</ele>
        <time>2018-09-04T16:36:26Z</time>
      </trkpt>
      <trkpt lat="45.773480" lon="13.630763">
        <ele>65.583</ele>
        <time>2018-09-04T16:36:27Z</time>
      </trkpt>
      <trkpt lat="45.773497" lon="13.630755">
        <ele>65.525</ele>
        <time>2018-09-04T16:36:28Z</time>
      </trkpt>
      <trkpt lat="45.773551" lon="13.630744">
        <ele>66.417</ele>
        <time>2018-09-04T16:36:39Z</time>
      </trkpt>
      <trkpt lat="45.773564" lon="13.630722">
        <ele>68.808</ele>
        <time>2018-09-04T16:37:07Z</time>
      </trkpt>
      <trkpt lat="45.773584" lon="13.630622">
        <ele>78.971</ele>
        <time>2018-09-05T05:58:00Z</time>
      </trkpt>
      <trkpt lat="45.773549" lon="13.630650">
        <ele>79.441</ele>
        <time>2018-09-05T05:58:25Z</time>
      </trkpt>
      <trkpt lat="45.773552" lon="13.630682">
        <ele>84.715</ele>
        <time>2018-09-05T05:58:45Z</time>
      </trkpt>
      <trkpt lat="45.773534" lon="13.630677">
        <ele>85.608</ele>
        <time>2018-09-05T05:59:09Z</time>
      </trkpt>
      <trkpt lat="45.773567" lon="13.630709">
        <ele>80.471</ele>
        <time>2018-09-05T05:59:32Z</time>
      </trkpt>
      <trkpt lat="45.773583" lon="13.630705">
        <ele>78.913</ele>
        <time>2018-09-05T05:59:55Z</time>
      </trkpt>
      <trkpt lat="45.773601" lon="13.630695">
        <ele>78.989</ele>
        <time>2018-09-05T06:00:29Z</time>
      </trkpt>
      <trkpt lat="45.773618" lon="13.630683">
        <ele>79.435</ele>
        <time>2018-09-05T06:01:03Z</time>
      </trkpt>
      <trkpt lat="45.773595" lon="13.630681">
        <ele>82.382</ele>
        <time>2018-09-05T06:01:16Z</time>
      </trkpt>
      <trkpt lat="45.773591" lon="13.630635">
        <ele>82.823</ele>
        <time>2018-09-05T06:01:19Z</time>
      </trkpt>
      <trkpt lat="45.773569" lon="13.630501">
        <ele>76.577</ele>
        <time>2018-09-05T06:01:28Z</time>
      </trkpt>
      <trkpt lat="45.773532" lon="13.630506">
        <ele>74.688</ele>
        <time>2018-09-05T06:01:31Z</time>
      </trkpt>
      <trkpt lat="45.773514" lon="13.630527">
        <ele>74.121</ele>
        <time>2018-09-05T06:01:32Z</time>
      </trkpt>
      <trkpt lat="45.773497" lon="13.630555">
        <ele>73.241</ele>
        <time>2018-09-05T06:01:33Z</time>
      </trkpt>
      <trkpt lat="45.773483" lon="13.630594">
        <ele>73.205</ele>
        <time>2018-09-05T06:01:34Z</time>
      </trkpt>
      <trkpt lat="45.773477" lon="13.630628">
        <ele>72.708</ele>
        <time>2018-09-05T06:01:35Z</time>
      </trkpt>
      <trkpt lat="45.773372" lon="13.630832">
        <ele>72.246</ele>
        <time>2018-09-05T06:01:46Z</time>
      </trkpt>
      <trkpt lat="45.773365" lon="13.630920">
        <ele>69.848</ele>
        <time>2018-09-05T06:01:58Z</time>
      </trkpt>
      <trkpt lat="45.773351" lon="13.630935">
        <ele>69.814</ele>
        <time>2018-09-05T06:02:00Z</time>
      </trkpt>
      <trkpt lat="45.773336" lon="13.630946">
        <ele>69.880</ele>
        <time>2018-09-05T06:02:01Z</time>
      </trkpt>
      <trkpt lat="45.773319" lon="13.630961">
        <ele>69.837</ele>
        <time>2018-09-05T06:02:02Z</time>
      </trkpt>
      <trkpt lat="45.773307" lon="13.630990">
        <ele>69.898</ele>
        <time>2018-09-05T06:02:03Z</time>
      </trkpt>
      <trkpt lat="45.773309" lon="13.631032">
        <ele>69.332</ele>
        <time>2018-09-05T06:02:04Z</time>
      </trkpt>
      <trkpt lat="45.773316" lon="13.631062">
        <ele>69.363</ele>
        <time>2018-09-05T06:02:05Z</time>
      </trkpt>
      <trkpt lat="45.773441" lon="13.631869">
        <ele>68.368</ele>
        <time>2018-09-05T06:02:23Z</time>
      </trkpt>
      <trkpt lat="45.773590" lon="13.632863">
        <ele>68.842</ele>
        <time>2018-09-05T06:02:44Z</time>
      </trkpt>
      <trkpt lat="45.773652" lon="13.633666">
        <ele>69.326</ele>
        <time>2018-09-05T06:03:02Z</time>
      </trkpt>
      <trkpt lat="45.773373" lon="13.634344">
        <ele>71.708</ele>
        <time>2018-09-05T06:03:20Z</time>
      </trkpt>
      <trkpt lat="45.772907" lon="13.634873">
        <ele>75.690</ele>
        <time>2018-09-05T06:03:38Z</time>
      </trkpt>
      <trkpt lat="45.772411" lon="13.635496">
        <ele>74.632</ele>
        <time>2018-09-05T06:03:58Z</time>
      </trkpt>
      <trkpt lat="45.772114" lon="13.636196">
        <ele>72.768</ele>
        <time>2018-09-05T06:04:15Z</time>
      </trkpt>
      <trkpt lat="45.771608" lon="13.637051">
        <ele>74.134</ele>
        <time>2018-09-05T06:04:37Z</time>
      </trkpt>
      <trkpt lat="45.771132" lon="13.637824">
        <ele>75.121</ele>
        <time>2018-09-05T06:04:58Z</time>
      </trkpt>
      <trkpt lat="45.770672" lon="13.638461">
        <ele>76.032</ele>
        <time>2018-09-05T06:05:17Z</time>
      </trkpt>
      <trkpt lat="45.770091" lon="13.638982">
        <ele>78.476</ele>
        <time>2018-09-05T06:05:36Z</time>
      </trkpt>
      <trkpt lat="45.770024" lon="13.639135">
        <ele>78.977</ele>
        <time>2018-09-05T06:05:41Z</time>
      </trkpt>
      <trkpt lat="45.770026" lon="13.639176">
        <ele>78.975</ele>
        <time>2018-09-05T06:05:42Z</time>
      </trkpt>
      <trkpt lat="45.770037" lon="13.639213">
        <ele>78.928</ele>
        <time>2018-09-05T06:05:43Z</time>
      </trkpt>
      <trkpt lat="45.770050" lon="13.639251">
        <ele>78.920</ele>
        <time>2018-09-05T06:05:44Z</time>
      </trkpt>
      <trkpt lat="45.770062" lon="13.639276">
        <ele>78.908</ele>
        <time>2018-09-05T06:05:45Z</time>
      </trkpt>
      <trkpt lat="45.770080" lon="13.639302">
        <ele>78.481</ele>
        <time>2018-09-05T06:05:46Z</time>
      </trkpt>
      <trkpt lat="45.770101" lon="13.639319">
        <ele>78.483</ele>
        <time>2018-09-05T06:05:47Z</time>
      </trkpt>
      <trkpt lat="45.770121" lon="13.639330">
        <ele>78.999</ele>
        <time>2018-09-05T06:05:48Z</time>
      </trkpt>
      <trkpt lat="45.770145" lon="13.639341">
        <ele>78.945</ele>
        <time>2018-09-05T06:05:49Z</time>
      </trkpt>
      <trkpt lat="45.770171" lon="13.639348">
        <ele>78.992</ele>
        <time>2018-09-05T06:05:50Z</time>
      </trkpt>
      <trkpt lat="45.770202" lon="13.639345">
        <ele>78.963</ele>
        <time>2018-09-05T06:05:51Z</time>
      </trkpt>
      <trkpt lat="45.770230" lon="13.639326">
        <ele>79.447</ele>
        <time>2018-09-05T06:05:52Z</time>
      </trkpt>
      <trkpt lat="45.770264" lon="13.639288">
        <ele>79.418</ele>
        <time>2018-09-05T06:05:53Z</time>
      </trkpt>
      <trkpt lat="45.770583" lon="13.639191">
        <ele>79.987</ele>
        <time>2018-09-05T06:06:03Z</time>
      </trkpt>
      <trkpt lat="45.770875" lon="13.639513">
        <ele>82.342</ele>
        <time>2018-09-05T06:06:15Z</time>
      </trkpt>
      <trkpt lat="45.771232" lon="13.640032">
        <ele>83.726</ele>
        <time>2018-09-05T06:06:32Z</time>
      </trkpt>
      <trkpt lat="45.771575" lon="13.640524">
        <ele>85.208</ele>
        <time>2018-09-05T06:06:50Z</time>
      </trkpt>
      <trkpt lat="45.771917" lon="13.640992">
        <ele>87.682</ele>
        <time>2018-09-05T06:07:10Z</time>
      </trkpt>
      <trkpt lat="45.772237" lon="13.641416">
        <ele>91.474</ele>
        <time>2018-09-05T06:07:28Z</time>
      </trkpt>
      <trkpt lat="45.772483" lon="13.641703">
        <ele>95.350</ele>
        <time>2018-09-05T06:07:41Z</time>
      </trkpt>
      <trkpt lat="45.772807" lon="13.642041">
        <ele>96.756</ele>
        <time>2018-09-05T06:07:56Z</time>
      </trkpt>
      <trkpt lat="45.773243" lon="13.642487">
        <ele>95.773</ele>
        <time>2018-09-05T06:08:15Z</time>
      </trkpt>
      <trkpt lat="45.773442" lon="13.642624">
        <ele>95.754</ele>
        <time>2018-09-05T06:08:25Z</time>
      </trkpt>
      <trkpt lat="45.773456" lon="13.642607">
        <ele>95.768</ele>
        <time>2018-09-05T06:08:26Z</time>
      </trkpt>
      <trkpt lat="45.773750" lon="13.642215">
        <ele>94.389</ele>
        <time>2018-09-05T06:08:37Z</time>
      </trkpt>
      <trkpt lat="45.774286" lon="13.641489">
        <ele>90.565</ele>
        <time>2018-09-05T06:08:52Z</time>
      </trkpt>
      <trkpt lat="45.774723" lon="13.640765">
        <ele>91.468</ele>
        <time>2018-09-05T06:09:11Z</time>
      </trkpt>
      <trkpt lat="45.775165" lon="13.640054">
        <ele>91.914</ele>
        <time>2018-09-05T06:09:32Z</time>
      </trkpt>
      <trkpt lat="45.775429" lon="13.640118">
        <ele>94.808</ele>
        <time>2018-09-05T06:09:42Z</time>
      </trkpt>
      <trkpt lat="45.775815" lon="13.640259">
        <ele>96.790</ele>
        <time>2018-09-05T06:09:57Z</time>
      </trkpt>
      <trkpt lat="45.776294" lon="13.640185">
        <ele>99.662</ele>
        <time>2018-09-05T06:10:15Z</time>
      </trkpt>
      <trkpt lat="45.776759" lon="13.640146">
        <ele>99.618</ele>
        <time>2018-09-05T06:10:32Z</time>
      </trkpt>
      <trkpt lat="45.777241" lon="13.640292">
        <ele>105.424</ele>
        <time>2018-09-05T06:10:50Z</time>
      </trkpt>
      <trkpt lat="45.777674" lon="13.640368">
        <ele>110.621</ele>
        <time>2018-09-05T06:11:06Z</time>
      </trkpt>
      <trkpt lat="45.778118" lon="13.640518">
        <ele>111.112</ele>
        <time>2018-09-05T06:11:22Z</time>
      </trkpt>
      <trkpt lat="45.778555" lon="13.640301">
        <ele>111.196</ele>
        <time>2018-09-05T06:11:38Z</time>
      </trkpt>
      <trkpt lat="45.778997" lon="13.639946">
        <ele>110.617</ele>
        <time>2018-09-05T06:11:56Z</time>
      </trkpt>
      <trkpt lat="45.779489" lon="13.639752">
        <ele>114.039</ele>
        <time>2018-09-05T06:12:16Z</time>
      </trkpt>
      <trkpt lat="45.779964" lon="13.639744">
        <ele>117.401</ele>
        <time>2018-09-05T06:12:34Z</time>
      </trkpt>
      <trkpt lat="45.780414" lon="13.639947">
        <ele>118.321</ele>
        <time>2018-09-05T06:12:53Z</time>
      </trkpt>
      <trkpt lat="45.780765" lon="13.640192">
        <ele>119.308</ele>
        <time>2018-09-05T06:13:11Z</time>
      </trkpt>
      <trkpt lat="45.781076" lon="13.640434">
        <ele>122.287</ele>
        <time>2018-09-05T06:13:28Z</time>
      </trkpt>
      <trkpt lat="45.781413" lon="13.640613">
        <ele>125.199</ele>
        <time>2018-09-05T06:13:45Z</time>
      </trkpt>
      <trkpt lat="45.781696" lon="13.640482">
        <ele>127.095</ele>
        <time>2018-09-05T06:13:59Z</time>
      </trkpt>
      <trkpt lat="45.781906" lon="13.640218">
        <ele>127.941</ele>
        <time>2018-09-05T06:14:12Z</time>
      </trkpt>
      <trkpt lat="45.782177" lon="13.640043">
        <ele>132.898</ele>
        <time>2018-09-05T06:14:26Z</time>
      </trkpt>
      <trkpt lat="45.782577" lon="13.640018">
        <ele>136.689</ele>
        <time>2018-09-05T06:14:44Z</time>
      </trkpt>
      <trkpt lat="45.782939" lon="13.640105">
        <ele>138.583</ele>
        <time>2018-09-05T06:14:58Z</time>
      </trkpt>
      <trkpt lat="45.783317" lon="13.640269">
        <ele>143.854</ele>
        <time>2018-09-05T06:15:13Z</time>
      </trkpt>
      <trkpt lat="45.783691" lon="13.640626">
        <ele>141.976</ele>
        <time>2018-09-05T06:15:29Z</time>
      </trkpt>
      <trkpt lat="45.784007" lon="13.641420">
        <ele>140.990</ele>
        <time>2018-09-05T06:15:50Z</time>
      </trkpt>
      <trkpt lat="45.784274" lon="13.642042">
        <ele>142.419</ele>
        <time>2018-09-05T06:16:08Z</time>
      </trkpt>
      <trkpt lat="45.784490" lon="13.642573">
        <ele>143.808</ele>
        <time>2018-09-05T06:16:24Z</time>
      </trkpt>
      <trkpt lat="45.784721" lon="13.643106">
        <ele>143.831</ele>
        <time>2018-09-05T06:16:40Z</time>
      </trkpt>
      <trkpt lat="45.785105" lon="13.643482">
        <ele>143.813</ele>
        <time>2018-09-05T06:16:56Z</time>
      </trkpt>
      <trkpt lat="45.785342" lon="13.643569">
        <ele>143.329</ele>
        <time>2018-09-05T06:17:03Z</time>
      </trkpt>
      <trkpt lat="45.785463" lon="13.643633">
        <ele>142.445</ele>
        <time>2018-09-05T06:17:06Z</time>
      </trkpt>
      <trkpt lat="45.785507" lon="13.643669">
        <ele>141.922</ele>
        <time>2018-09-05T06:17:07Z</time>
      </trkpt>
      <trkpt lat="45.785546" lon="13.643709">
        <ele>141.443</ele>
        <time>2018-09-05T06:17:08Z</time>
      </trkpt>
      <trkpt lat="45.785582" lon="13.643753">
        <ele>141.477</ele>
        <time>2018-09-05T06:17:09Z</time>
      </trkpt>
      <trkpt lat="45.785618" lon="13.643800">
        <ele>140.948</ele>
        <time>2018-09-05T06:17:10Z</time>
      </trkpt>
      <trkpt lat="45.786257" lon="13.644337">
        <ele>139.596</ele>
        <time>2018-09-05T06:17:25Z</time>
      </trkpt>
      <trkpt lat="45.786694" lon="13.644617">
        <ele>141.931</ele>
        <time>2018-09-05T06:17:38Z</time>
      </trkpt>
      <trkpt lat="45.787307" lon="13.644557">
        <ele>140.024</ele>
        <time>2018-09-05T06:17:53Z</time>
      </trkpt>
      <trkpt lat="45.787974" lon="13.644097">
        <ele>138.008</ele>
        <time>2018-09-05T06:18:09Z</time>
      </trkpt>
      <trkpt lat="45.788371" lon="13.643899">
        <ele>140.913</ele>
        <time>2018-09-05T06:18:24Z</time>
      </trkpt>
      <trkpt lat="45.788703" lon="13.643833">
        <ele>149.645</ele>
        <time>2018-09-05T06:18:40Z</time>
      </trkpt>
      <trkpt lat="45.788717" lon="13.643814">
        <ele>150.531</ele>
        <time>2018-09-05T06:18:41Z</time>
      </trkpt>
      <trkpt lat="45.788732" lon="13.643790">
        <ele>151.587</ele>
        <time>2018-09-05T06:18:42Z</time>
      </trkpt>
      <trkpt lat="45.788745" lon="13.643754">
        <ele>151.524</ele>
        <time>2018-09-05T06:18:43Z</time>
      </trkpt>
      <trkpt lat="45.788752" lon="13.643719">
        <ele>152.065</ele>
        <time>2018-09-05T06:18:44Z</time>
      </trkpt>
      <trkpt lat="45.788756" lon="13.643670">
        <ele>152.039</ele>
        <time>2018-09-05T06:18:45Z</time>
      </trkpt>
      <trkpt lat="45.788758" lon="13.643610">
        <ele>151.510</ele>
        <time>2018-09-05T06:18:46Z</time>
      </trkpt>
      <trkpt lat="45.788755" lon="13.643543">
        <ele>151.562</ele>
        <time>2018-09-05T06:18:47Z</time>
      </trkpt>
      <trkpt lat="45.788718" lon="13.643201">
        <ele>150.183</ele>
        <time>2018-09-05T06:18:52Z</time>
      </trkpt>
      <trkpt lat="45.788717" lon="13.643131">
        <ele>149.611</ele>
        <time>2018-09-05T06:18:53Z</time>
      </trkpt>
      <trkpt lat="45.788721" lon="13.643062">
        <ele>149.608</ele>
        <time>2018-09-05T06:18:54Z</time>
      </trkpt>
      <trkpt lat="45.788729" lon="13.642997">
        <ele>149.180</ele>
        <time>2018-09-05T06:18:55Z</time>
      </trkpt>
      <trkpt lat="45.788742" lon="13.642932">
        <ele>148.672</ele>
        <time>2018-09-05T06:18:56Z</time>
      </trkpt>
      <trkpt lat="45.788757" lon="13.642870">
        <ele>147.768</ele>
        <time>2018-09-05T06:18:57Z</time>
      </trkpt>
      <trkpt lat="45.788845" lon="13.642505">
        <ele>144.814</ele>
        <time>2018-09-05T06:19:03Z</time>
      </trkpt>
      <trkpt lat="45.788851" lon="13.642439">
        <ele>144.831</ele>
        <time>2018-09-05T06:19:04Z</time>
      </trkpt>
      <trkpt lat="45.788851" lon="13.642374">
        <ele>144.392</ele>
        <time>2018-09-05T06:19:05Z</time>
      </trkpt>
      <trkpt lat="45.788841" lon="13.642234">
        <ele>143.876</ele>
        <time>2018-09-05T06:19:07Z</time>
      </trkpt>
      <trkpt lat="45.788858" lon="13.641645">
        <ele>143.387</ele>
        <time>2018-09-05T06:19:20Z</time>
      </trkpt>
      <trkpt lat="45.789064" lon="13.641576">
        <ele>145.718</ele>
        <time>2018-09-05T06:20:56Z</time>
      </trkpt>
      <trkpt lat="45.789183" lon="13.641772">
        <ele>148.198</ele>
        <time>2018-09-05T06:21:07Z</time>
      </trkpt>
      <trkpt lat="45.789196" lon="13.641783">
        <ele>148.617</ele>
        <time>2018-09-05T06:21:08Z</time>
      </trkpt>
      <trkpt lat="45.789343" lon="13.641994">
        <ele>152.008</ele>
        <time>2018-09-05T06:21:22Z</time>
      </trkpt>
      <trkpt lat="45.789355" lon="13.641997">
        <ele>152.575</ele>
        <time>2018-09-05T06:21:23Z</time>
      </trkpt>
      <trkpt lat="45.789366" lon="13.642000">
        <ele>152.987</ele>
        <time>2018-09-05T06:21:24Z</time>
      </trkpt>
      <trkpt lat="45.789376" lon="13.641998">
        <ele>153.963</ele>
        <time>2018-09-05T06:21:25Z</time>
      </trkpt>
      <trkpt lat="45.789388" lon="13.641998">
        <ele>154.959</ele>
        <time>2018-09-05T06:21:26Z</time>
      </trkpt>
      <trkpt lat="45.789469" lon="13.641993">
        <ele>156.376</ele>
        <time>2018-09-05T06:21:32Z</time>
      </trkpt>
      <trkpt lat="45.789478" lon="13.641983">
        <ele>156.347</ele>
        <time>2018-09-05T06:21:33Z</time>
      </trkpt>
      <trkpt lat="45.789487" lon="13.641970">
        <ele>156.391</ele>
        <time>2018-09-05T06:21:34Z</time>
      </trkpt>
      <trkpt lat="45.789497" lon="13.641956">
        <ele>156.342</ele>
        <time>2018-09-05T06:21:35Z</time>
      </trkpt>
      <trkpt lat="45.789514" lon="13.641935">
        <ele>155.853</ele>
        <time>2018-09-05T06:21:37Z</time>
      </trkpt>
      <trkpt lat="45.789629" lon="13.641864">
        <ele>155.804</ele>
        <time>2018-09-05T06:21:47Z</time>
      </trkpt>
      <trkpt lat="45.789639" lon="13.641859">
        <ele>155.814</ele>
        <time>2018-09-05T06:21:48Z</time>
      </trkpt>
      <trkpt lat="45.789652" lon="13.641856">
        <ele>155.808</ele>
        <time>2018-09-05T06:21:49Z</time>
      </trkpt>
      <trkpt lat="45.789825" lon="13.641825">
        <ele>157.789</ele>
        <time>2018-09-05T06:22:05Z</time>
      </trkpt>
      <trkpt lat="45.789975" lon="13.641799">
        <ele>161.651</ele>
        <time>2018-09-05T06:22:19Z</time>
      </trkpt>
      <trkpt lat="45.789988" lon="13.641798">
        <ele>161.697</ele>
        <time>2018-09-05T06:22:20Z</time>
      </trkpt>
      <trkpt lat="45.790000" lon="13.641799">
        <ele>162.183</ele>
        <time>2018-09-05T06:22:21Z</time>
      </trkpt>
      <trkpt lat="45.790109" lon="13.641824">
        <ele>162.130</ele>
        <time>2018-09-05T06:22:34Z</time>
      </trkpt>
      <trkpt lat="45.790092" lon="13.641817">
        <ele>159.781</ele>
        <time>2018-09-05T06:22:54Z</time>
      </trkpt>
      <trkpt lat="45.790088" lon="13.641851">
        <ele>159.295</ele>
        <time>2018-09-05T06:23:22Z</time>
      </trkpt>
      <trkpt lat="45.790093" lon="13.641822">
        <ele>158.796</ele>
        <time>2018-09-05T06:23:57Z</time>
      </trkpt>
      <trkpt lat="45.790109" lon="13.641782">
        <ele>158.781</ele>
        <time>2018-09-05T06:24:01Z</time>
      </trkpt>
      <trkpt lat="45.790110" lon="13.641762">
        <ele>158.761</ele>
        <time>2018-09-05T06:24:02Z</time>
      </trkpt>
      <trkpt lat="45.790114" lon="13.641743">
        <ele>159.217</ele>
        <time>2018-09-05T06:24:03Z</time>
      </trkpt>
      <trkpt lat="45.790219" lon="13.641479">
        <ele>163.008</ele>
        <time>2018-09-05T06:24:18Z</time>
      </trkpt>
      <trkpt lat="45.790374" lon="13.641179">
        <ele>165.962</ele>
        <time>2018-09-05T06:24:34Z</time>
      </trkpt>
      <trkpt lat="45.790564" lon="13.640846">
        <ele>167.874</ele>
        <time>2018-09-05T06:24:52Z</time>
      </trkpt>
      <trkpt lat="45.790780" lon="13.640582">
        <ele>171.740</ele>
        <time>2018-09-05T06:25:08Z</time>
      </trkpt>
      <trkpt lat="45.790968" lon="13.640459">
        <ele>173.636</ele>
        <time>2018-09-05T06:25:20Z</time>
      </trkpt>
      <trkpt lat="45.791258" lon="13.640288">
        <ele>173.173</ele>
        <time>2018-09-05T06:25:35Z</time>
      </trkpt>
      <trkpt lat="45.791518" lon="13.640104">
        <ele>173.124</ele>
        <time>2018-09-05T06:25:49Z</time>
      </trkpt>
      <trkpt lat="45.791794" lon="13.639897">
        <ele>174.698</ele>
        <time>2018-09-05T06:26:04Z</time>
      </trkpt>
      <trkpt lat="45.792129" lon="13.639549">
        <ele>175.149</ele>
        <time>2018-09-05T06:26:21Z</time>
      </trkpt>
      <trkpt lat="45.792399" lon="13.639260">
        <ele>174.669</ele>
        <time>2018-09-05T06:26:34Z</time>
      </trkpt>
      <trkpt lat="45.792726" lon="13.638930">
        <ele>174.604</ele>
        <time>2018-09-05T06:26:51Z</time>
      </trkpt>
      <trkpt lat="45.792920" lon="13.638690">
        <ele>178.424</ele>
        <time>2018-09-05T06:27:04Z</time>
      </trkpt>
      <trkpt lat="45.793154" lon="13.638437">
        <ele>180.808</ele>
        <time>2018-09-05T06:27:19Z</time>
      </trkpt>
      <trkpt lat="45.793368" lon="13.638199">
        <ele>182.360</ele>
        <time>2018-09-05T06:27:34Z</time>
      </trkpt>
      <trkpt lat="45.793552" lon="13.637974">
        <ele>186.122</ele>
        <time>2018-09-05T06:27:50Z</time>
      </trkpt>
      <trkpt lat="45.793662" lon="13.637671">
        <ele>185.658</ele>
        <time>2018-09-05T06:28:06Z</time>
      </trkpt>
      <trkpt lat="45.793759" lon="13.637424">
        <ele>186.694</ele>
        <time>2018-09-05T06:28:18Z</time>
      </trkpt>
      <trkpt lat="45.793955" lon="13.637099">
        <ele>188.081</ele>
        <time>2018-09-05T06:28:35Z</time>
      </trkpt>
      <trkpt lat="45.794262" lon="13.636878">
        <ele>190.422</ele>
        <time>2018-09-05T06:28:53Z</time>
      </trkpt>
      <trkpt lat="45.794737" lon="13.636587">
        <ele>188.066</ele>
        <time>2018-09-05T06:29:10Z</time>
      </trkpt>
      <trkpt lat="45.795114" lon="13.636343">
        <ele>184.767</ele>
        <time>2018-09-05T06:29:18Z</time>
      </trkpt>
      <trkpt lat="45.795151" lon="13.636302">
        <ele>184.736</ele>
        <time>2018-09-05T06:29:19Z</time>
      </trkpt>
      <trkpt lat="45.795414" lon="13.635959">
        <ele>183.217</ele>
        <time>2018-09-05T06:29:31Z</time>
      </trkpt>
      <trkpt lat="45.795692" lon="13.635556">
        <ele>183.218</ele>
        <time>2018-09-05T06:29:49Z</time>
      </trkpt>
      <trkpt lat="45.795924" lon="13.635231">
        <ele>185.608</ele>
        <time>2018-09-05T06:30:06Z</time>
      </trkpt>
      <trkpt lat="45.796116" lon="13.634922">
        <ele>187.597</ele>
        <time>2018-09-05T06:30:22Z</time>
      </trkpt>
      <trkpt lat="45.796260" lon="13.634406">
        <ele>188.599</ele>
        <time>2018-09-05T06:30:43Z</time>
      </trkpt>
      <trkpt lat="45.796355" lon="13.633894">
        <ele>190.965</ele>
        <time>2018-09-05T06:31:02Z</time>
      </trkpt>
      <trkpt lat="45.796585" lon="13.633580">
        <ele>192.851</ele>
        <time>2018-09-05T06:31:18Z</time>
      </trkpt>
      <trkpt lat="45.796796" lon="13.633413">
        <ele>193.818</ele>
        <time>2018-09-05T06:31:31Z</time>
      </trkpt>
      <trkpt lat="45.797081" lon="13.633219">
        <ele>195.229</ele>
        <time>2018-09-05T06:31:48Z</time>
      </trkpt>
      <trkpt lat="45.797335" lon="13.633036">
        <ele>197.653</ele>
        <time>2018-09-05T06:32:04Z</time>
      </trkpt>
      <trkpt lat="45.797614" lon="13.632844">
        <ele>199.674</ele>
        <time>2018-09-05T06:32:21Z</time>
      </trkpt>
      <trkpt lat="45.797844" lon="13.632669">
        <ele>201.056</ele>
        <time>2018-09-05T06:32:35Z</time>
      </trkpt>
      <trkpt lat="45.798112" lon="13.632491">
        <ele>203.959</ele>
        <time>2018-09-05T06:32:51Z</time>
      </trkpt>
      <trkpt lat="45.798388" lon="13.632367">
        <ele>208.714</ele>
        <time>2018-09-05T06:33:07Z</time>
      </trkpt>
      <trkpt lat="45.798687" lon="13.632283">
        <ele>211.108</ele>
        <time>2018-09-05T06:33:23Z</time>
      </trkpt>
      <trkpt lat="45.799035" lon="13.632209">
        <ele>212.569</ele>
        <time>2018-09-05T06:33:42Z</time>
      </trkpt>
      <trkpt lat="45.799312" lon="13.632179">
        <ele>214.981</ele>
        <time>2018-09-05T06:33:58Z</time>
      </trkpt>
      <trkpt lat="45.799527" lon="13.632194">
        <ele>216.917</ele>
        <time>2018-09-05T06:34:10Z</time>
      </trkpt>
      <trkpt lat="45.799542" lon="13.632192">
        <ele>216.913</ele>
        <time>2018-09-05T06:34:11Z</time>
      </trkpt>
      <trkpt lat="45.799557" lon="13.632196">
        <ele>216.970</ele>
        <time>2018-09-05T06:34:12Z</time>
      </trkpt>
      <trkpt lat="45.799573" lon="13.632201">
        <ele>216.991</ele>
        <time>2018-09-05T06:34:13Z</time>
      </trkpt>
      <trkpt lat="45.799591" lon="13.632204">
        <ele>217.435</ele>
        <time>2018-09-05T06:34:14Z</time>
      </trkpt>
      <trkpt lat="45.799894" lon="13.632193">
        <ele>216.496</ele>
        <time>2018-09-05T06:34:31Z</time>
      </trkpt>
      <trkpt lat="45.800190" lon="13.632067">
        <ele>218.367</ele>
        <time>2018-09-05T06:34:49Z</time>
      </trkpt>
      <trkpt lat="45.800402" lon="13.631893">
        <ele>220.281</ele>
        <time>2018-09-05T06:35:04Z</time>
      </trkpt>
      <trkpt lat="45.800559" lon="13.631555">
        <ele>221.719</ele>
        <time>2018-09-05T06:35:21Z</time>
      </trkpt>
      <trkpt lat="45.800504" lon="13.631092">
        <ele>220.208</ele>
        <time>2018-09-05T06:35:40Z</time>
      </trkpt>
      <trkpt lat="45.800313" lon="13.630620">
        <ele>219.380</ele>
        <time>2018-09-05T06:35:55Z</time>
      </trkpt>
      <trkpt lat="45.800327" lon="13.630146">
        <ele>222.272</ele>
        <time>2018-09-05T06:36:07Z</time>
      </trkpt>
      <trkpt lat="45.800548" lon="13.629499">
        <ele>220.798</ele>
        <time>2018-09-05T06:36:23Z</time>
      </trkpt>
      <trkpt lat="45.800503" lon="13.628902">
        <ele>220.794</ele>
        <time>2018-09-05T06:36:37Z</time>
      </trkpt>
      <trkpt lat="45.800317" lon="13.628258">
        <ele>219.331</ele>
        <time>2018-09-05T06:36:52Z</time>
      </trkpt>
      <trkpt lat="45.800187" lon="13.628104">
        <ele>218.852</ele>
        <time>2018-09-05T06:36:56Z</time>
      </trkpt>
      <trkpt lat="45.800151" lon="13.628066">
        <ele>218.356</ele>
        <time>2018-09-05T06:36:57Z</time>
      </trkpt>
      <trkpt lat="45.800114" lon="13.628021">
        <ele>218.377</ele>
        <time>2018-09-05T06:36:58Z</time>
      </trkpt>
      <trkpt lat="45.799970" lon="13.627817">
        <ele>218.331</ele>
        <time>2018-09-05T06:37:02Z</time>
      </trkpt>
      <trkpt lat="45.799938" lon="13.627753">
        <ele>217.861</ele>
        <time>2018-09-05T06:37:03Z</time>
      </trkpt>
      <trkpt lat="45.799910" lon="13.627683">
        <ele>217.807</ele>
        <time>2018-09-05T06:37:04Z</time>
      </trkpt>
      <trkpt lat="45.799887" lon="13.627614">
        <ele>217.408</ele>
        <time>2018-09-05T06:37:05Z</time>
      </trkpt>
      <trkpt lat="45.799866" lon="13.627547">
        <ele>217.497</ele>
        <time>2018-09-05T06:37:06Z</time>
      </trkpt>
      <trkpt lat="45.799754" lon="13.627189">
        <ele>215.459</ele>
        <time>2018-09-05T06:37:11Z</time>
      </trkpt>
      <trkpt lat="45.799743" lon="13.627116">
        <ele>214.925</ele>
        <time>2018-09-05T06:37:12Z</time>
      </trkpt>
      <trkpt lat="45.799739" lon="13.627032">
        <ele>214.971</ele>
        <time>2018-09-05T06:37:13Z</time>
      </trkpt>
      <trkpt lat="45.799741" lon="13.626962">
        <ele>214.518</ele>
        <time>2018-09-05T06:37:14Z</time>
      </trkpt>
      <trkpt lat="45.799752" lon="13.626890">
        <ele>214.539</ele>
        <time>2018-09-05T06:37:15Z</time>
      </trkpt>
      <trkpt lat="45.799771" lon="13.626819">
        <ele>214.013</ele>
        <time>2018-09-05T06:37:16Z</time>
      </trkpt>
      <trkpt lat="45.800181" lon="13.625518">
        <ele>205.874</ele>
        <time>2018-09-05T06:37:33Z</time>
      </trkpt>
      <trkpt lat="45.800228" lon="13.625322">
        <ele>204.975</ele>
        <time>2018-09-05T06:37:36Z</time>
      </trkpt>
      <trkpt lat="45.800236" lon="13.625260">
        <ele>204.428</ele>
        <time>2018-09-05T06:37:37Z</time>
      </trkpt>
      <trkpt lat="45.800245" lon="13.625135">
        <ele>204.420</ele>
        <time>2018-09-05T06:37:39Z</time>
      </trkpt>
      <trkpt lat="45.800241" lon="13.625070">
        <ele>203.908</ele>
        <time>2018-09-05T06:37:40Z</time>
      </trkpt>
      <trkpt lat="45.800223" lon="13.624942">
        <ele>202.981</ele>
        <time>2018-09-05T06:37:42Z</time>
      </trkpt>
      <trkpt lat="45.800190" lon="13.624814">
        <ele>202.473</ele>
        <time>2018-09-05T06:37:44Z</time>
      </trkpt>
      <trkpt lat="45.800167" lon="13.624753">
        <ele>202.019</ele>
        <time>2018-09-05T06:37:45Z</time>
      </trkpt>
      <trkpt lat="45.800140" lon="13.624695">
        <ele>201.555</ele>
        <time>2018-09-05T06:37:46Z</time>
      </trkpt>
      <trkpt lat="45.800007" lon="13.624428">
        <ele>200.092</ele>
        <time>2018-09-05T06:37:51Z</time>
      </trkpt>
      <trkpt lat="45.799991" lon="13.624370">
        <ele>199.673</ele>
        <time>2018-09-05T06:37:52Z</time>
      </trkpt>
      <trkpt lat="45.799982" lon="13.624305">
        <ele>199.637</ele>
        <time>2018-09-05T06:37:53Z</time>
      </trkpt>
      <trkpt lat="45.799983" lon="13.624234">
        <ele>199.188</ele>
        <time>2018-09-05T06:37:54Z</time>
      </trkpt>
      <trkpt lat="45.799994" lon="13.624162">
        <ele>199.176</ele>
        <time>2018-09-05T06:37:55Z</time>
      </trkpt>
      <trkpt lat="45.800011" lon="13.624094">
        <ele>198.690</ele>
        <time>2018-09-05T06:37:56Z</time>
      </trkpt>
      <trkpt lat="45.800031" lon="13.624022">
        <ele>198.119</ele>
        <time>2018-09-05T06:37:57Z</time>
      </trkpt>
      <trkpt lat="45.800051" lon="13.623967">
        <ele>197.608</ele>
        <time>2018-09-05T06:37:58Z</time>
      </trkpt>
      <trkpt lat="45.800071" lon="13.623918">
        <ele>197.621</ele>
        <time>2018-09-05T06:37:59Z</time>
      </trkpt>
      <trkpt lat="45.800096" lon="13.623881">
        <ele>197.273</ele>
        <time>2018-09-05T06:38:00Z</time>
      </trkpt>
      <trkpt lat="45.800129" lon="13.623850">
        <ele>196.299</ele>
        <time>2018-09-05T06:38:01Z</time>
      </trkpt>
      <trkpt lat="45.800163" lon="13.623833">
        <ele>195.765</ele>
        <time>2018-09-05T06:38:02Z</time>
      </trkpt>
      <trkpt lat="45.800191" lon="13.623813">
        <ele>194.822</ele>
        <time>2018-09-05T06:38:03Z</time>
      </trkpt>
      <trkpt lat="45.800210" lon="13.623781">
        <ele>194.823</ele>
        <time>2018-09-05T06:38:04Z</time>
      </trkpt>
      <trkpt lat="45.800217" lon="13.623737">
        <ele>194.367</ele>
        <time>2018-09-05T06:38:05Z</time>
      </trkpt>
      <trkpt lat="45.800210" lon="13.623694">
        <ele>194.348</ele>
        <time>2018-09-05T06:38:06Z</time>
      </trkpt>
      <trkpt lat="45.800194" lon="13.623654">
        <ele>193.859</ele>
        <time>2018-09-05T06:38:07Z</time>
      </trkpt>
      <trkpt lat="45.800179" lon="13.623617">
        <ele>193.803</ele>
        <time>2018-09-05T06:38:08Z</time>
      </trkpt>
      <trkpt lat="45.800168" lon="13.623578">
        <ele>193.823</ele>
        <time>2018-09-05T06:38:09Z</time>
      </trkpt>
      <trkpt lat="45.800158" lon="13.623538">
        <ele>193.808</ele>
        <time>2018-09-05T06:38:10Z</time>
      </trkpt>
      <trkpt lat="45.800150" lon="13.623494">
        <ele>193.349</ele>
        <time>2018-09-05T06:38:11Z</time>
      </trkpt>
      <trkpt lat="45.800100" lon="13.623258">
        <ele>191.981</ele>
        <time>2018-09-05T06:38:15Z</time>
      </trkpt>
      <trkpt lat="45.800074" lon="13.623190">
        <ele>191.467</ele>
        <time>2018-09-05T06:38:16Z</time>
      </trkpt>
      <trkpt lat="45.799572" lon="13.622303">
        <ele>183.743</ele>
        <time>2018-09-05T06:38:28Z</time>
      </trkpt>
      <trkpt lat="45.799336" lon="13.621867">
        <ele>180.360</ele>
        <time>2018-09-05T06:38:37Z</time>
      </trkpt>
      <trkpt lat="45.799053" lon="13.621360">
        <ele>177.991</ele>
        <time>2018-09-05T06:38:48Z</time>
      </trkpt>
      <trkpt lat="45.799014" lon="13.621303">
        <ele>177.525</ele>
        <time>2018-09-05T06:38:49Z</time>
      </trkpt>
      <trkpt lat="45.798979" lon="13.621242">
        <ele>177.516</ele>
        <time>2018-09-05T06:38:50Z</time>
      </trkpt>
      <trkpt lat="45.798417" lon="13.620249">
        <ele>171.287</ele>
        <time>2018-09-05T06:39:06Z</time>
      </trkpt>
      <trkpt lat="45.797893" lon="13.619263">
        <ele>166.942</ele>
        <time>2018-09-05T06:39:23Z</time>
      </trkpt>
      <trkpt lat="45.797303" lon="13.618032">
        <ele>158.726</ele>
        <time>2018-09-05T06:39:40Z</time>
      </trkpt>
      <trkpt lat="45.797100" lon="13.617498">
        <ele>156.808</ele>
        <time>2018-09-05T06:39:48Z</time>
      </trkpt>
      <trkpt lat="45.797088" lon="13.617416">
        <ele>156.322</ele>
        <time>2018-09-05T06:39:49Z</time>
      </trkpt>
      <trkpt lat="45.797078" lon="13.617328">
        <ele>156.364</ele>
        <time>2018-09-05T06:39:50Z</time>
      </trkpt>
      <trkpt lat="45.797074" lon="13.617239">
        <ele>155.870</ele>
        <time>2018-09-05T06:39:51Z</time>
      </trkpt>
      <trkpt lat="45.797077" lon="13.617150">
        <ele>155.836</ele>
        <time>2018-09-05T06:39:52Z</time>
      </trkpt>
      <trkpt lat="45.797084" lon="13.617062">
        <ele>155.863</ele>
        <time>2018-09-05T06:39:53Z</time>
      </trkpt>
      <trkpt lat="45.797181" lon="13.616427">
        <ele>156.894</ele>
        <time>2018-09-05T06:40:04Z</time>
      </trkpt>
      <trkpt lat="45.797273" lon="13.615882">
        <ele>160.678</ele>
        <time>2018-09-05T06:40:19Z</time>
      </trkpt>
      <trkpt lat="45.797428" lon="13.614961">
        <ele>159.769</ele>
        <time>2018-09-05T06:40:37Z</time>
      </trkpt>
      <trkpt lat="45.797471" lon="13.614667">
        <ele>158.721</ele>
        <time>2018-09-05T06:40:42Z</time>
      </trkpt>
      <trkpt lat="45.797393" lon="13.613790">
        <ele>158.741</ele>
        <time>2018-09-05T06:40:58Z</time>
      </trkpt>
      <trkpt lat="45.797118" lon="13.613034">
        <ele>159.205</ele>
        <time>2018-09-05T06:41:14Z</time>
      </trkpt>
      <trkpt lat="45.796902" lon="13.612457">
        <ele>158.708</ele>
        <time>2018-09-05T06:41:25Z</time>
      </trkpt>
      <trkpt lat="45.796880" lon="13.612400">
        <ele>158.716</ele>
        <time>2018-09-05T06:41:26Z</time>
      </trkpt>
      <trkpt lat="45.796504" lon="13.611302">
        <ele>156.378</ele>
        <time>2018-09-05T06:41:43Z</time>
      </trkpt>
      <trkpt lat="45.796454" lon="13.610602">
        <ele>161.194</ele>
        <time>2018-09-05T06:41:57Z</time>
      </trkpt>
      <trkpt lat="45.796458" lon="13.609683">
        <ele>164.570</ele>
        <time>2018-09-05T06:42:17Z</time>
      </trkpt>
      <trkpt lat="45.796490" lon="13.608894">
        <ele>162.657</ele>
        <time>2018-09-05T06:42:34Z</time>
      </trkpt>
      <trkpt lat="45.796685" lon="13.608517">
        <ele>164.578</ele>
        <time>2018-09-05T06:42:46Z</time>
      </trkpt>
      <trkpt lat="45.796865" lon="13.608132">
        <ele>166.932</ele>
        <time>2018-09-05T06:43:00Z</time>
      </trkpt>
      <trkpt lat="45.797110" lon="13.607696">
        <ele>171.763</ele>
        <time>2018-09-05T06:43:17Z</time>
      </trkpt>
      <trkpt lat="45.797313" lon="13.607335">
        <ele>173.124</ele>
        <time>2018-09-05T06:43:33Z</time>
      </trkpt>
      <trkpt lat="45.797607" lon="13.606960">
        <ele>174.104</ele>
        <time>2018-09-05T06:43:49Z</time>
      </trkpt>
      <trkpt lat="45.797966" lon="13.606669">
        <ele>172.614</ele>
        <time>2018-09-05T06:44:04Z</time>
      </trkpt>
      <trkpt lat="45.798340" lon="13.606337">
        <ele>169.808</ele>
        <time>2018-09-05T06:44:15Z</time>
      </trkpt>
      <trkpt lat="45.798533" lon="13.606100">
        <ele>166.466</ele>
        <time>2018-09-05T06:45:19Z</time>
      </trkpt>
      <trkpt lat="45.798511" lon="13.606083">
        <ele>166.488</ele>
        <time>2018-09-05T06:45:20Z</time>
      </trkpt>
      <trkpt lat="45.798495" lon="13.606057">
        <ele>165.944</ele>
        <time>2018-09-05T06:45:21Z</time>
      </trkpt>
      <trkpt lat="45.798490" lon="13.606039">
        <ele>165.420</ele>
        <time>2018-09-05T06:45:22Z</time>
      </trkpt>
      <trkpt lat="45.798489" lon="13.606014">
        <ele>165.497</ele>
        <time>2018-09-05T06:45:23Z</time>
      </trkpt>
      <trkpt lat="45.798491" lon="13.605991">
        <ele>165.498</ele>
        <time>2018-09-05T06:45:24Z</time>
      </trkpt>
      <trkpt lat="45.798522" lon="13.605565">
        <ele>160.232</ele>
        <time>2018-09-05T06:45:36Z</time>
      </trkpt>
      <trkpt lat="45.798421" lon="13.605302">
        <ele>157.353</ele>
        <time>2018-09-05T06:45:40Z</time>
      </trkpt>
      <trkpt lat="45.798353" lon="13.605120">
        <ele>153.947</ele>
        <time>2018-09-05T06:45:44Z</time>
      </trkpt>
      <trkpt lat="45.798322" lon="13.605107">
        <ele>153.429</ele>
        <time>2018-09-05T06:45:45Z</time>
      </trkpt>
      <trkpt lat="45.798287" lon="13.605109">
        <ele>152.921</ele>
        <time>2018-09-05T06:45:46Z</time>
      </trkpt>
      <trkpt lat="45.798255" lon="13.605121">
        <ele>152.908</ele>
        <time>2018-09-05T06:45:47Z</time>
      </trkpt>
      <trkpt lat="45.798217" lon="13.605136">
        <ele>152.948</ele>
        <time>2018-09-05T06:45:48Z</time>
      </trkpt>
      <trkpt lat="45.798173" lon="13.605146">
        <ele>152.510</ele>
        <time>2018-09-05T06:45:49Z</time>
      </trkpt>
      <trkpt lat="45.798130" lon="13.605147">
        <ele>152.526</ele>
        <time>2018-09-05T06:45:50Z</time>
      </trkpt>
      <trkpt lat="45.798091" lon="13.605138">
        <ele>152.062</ele>
        <time>2018-09-05T06:45:51Z</time>
      </trkpt>
      <trkpt lat="45.798061" lon="13.605129">
        <ele>151.549</ele>
        <time>2018-09-05T06:45:52Z</time>
      </trkpt>
      <trkpt lat="45.797991" lon="13.605101">
        <ele>151.060</ele>
        <time>2018-09-05T06:45:55Z</time>
      </trkpt>
      <trkpt lat="45.797982" lon="13.605063">
        <ele>150.574</ele>
        <time>2018-09-05T06:45:56Z</time>
      </trkpt>
      <trkpt lat="45.797985" lon="13.605041">
        <ele>150.585</ele>
        <time>2018-09-05T06:45:57Z</time>
      </trkpt>
      <trkpt lat="45.797989" lon="13.605023">
        <ele>150.554</ele>
        <time>2018-09-05T06:45:58Z</time>
      </trkpt>
      <trkpt lat="45.797993" lon="13.604996">
        <ele>150.556</ele>
        <time>2018-09-05T06:45:59Z</time>
      </trkpt>
      <trkpt lat="45.797990" lon="13.604964">
        <ele>150.511</ele>
        <time>2018-09-05T06:46:00Z</time>
      </trkpt>
      <trkpt lat="45.797981" lon="13.604911">
        <ele>150.108</ele>
        <time>2018-09-05T06:46:01Z</time>
      </trkpt>
      <trkpt lat="45.797971" lon="13.604869">
        <ele>150.199</ele>
        <time>2018-09-05T06:46:02Z</time>
      </trkpt>
      <trkpt lat="45.797958" lon="13.604824">
        <ele>149.651</ele>
        <time>2018-09-05T06:46:03Z</time>
      </trkpt>
      <trkpt lat="45.797648" lon="13.604021">
        <ele>145.727</ele>
        <time>2018-09-05T06:46:14Z</time>
      </trkpt>
      <trkpt lat="45.797532" lon="13.603687">
        <ele>144.363</ele>
        <time>2018-09-05T06:46:18Z</time>
      </trkpt>
      <trkpt lat="45.797515" lon="13.603600">
        <ele>144.350</ele>
        <time>2018-09-05T06:46:19Z</time>
      </trkpt>
      <trkpt lat="45.797498" lon="13.603494">
        <ele>143.881</ele>
        <time>2018-09-05T06:46:20Z</time>
      </trkpt>
      <trkpt lat="45.797386" lon="13.602892">
        <ele>140.965</ele>
        <time>2018-09-05T06:46:28Z</time>
      </trkpt>
      <trkpt lat="45.797399" lon="13.602846">
        <ele>140.486</ele>
        <time>2018-09-05T06:46:29Z</time>
      </trkpt>
      <trkpt lat="45.797438" lon="13.602730">
        <ele>140.069</ele>
        <time>2018-09-05T06:46:31Z</time>
      </trkpt>
      <trkpt lat="45.797485" lon="13.602506">
        <ele>138.504</ele>
        <time>2018-09-05T06:46:34Z</time>
      </trkpt>
      <trkpt lat="45.797510" lon="13.602428">
        <ele>138.524</ele>
        <time>2018-09-05T06:46:35Z</time>
      </trkpt>
      <trkpt lat="45.797533" lon="13.602355">
        <ele>138.008</ele>
        <time>2018-09-05T06:46:36Z</time>
      </trkpt>
      <trkpt lat="45.797557" lon="13.602282">
        <ele>138.070</ele>
        <time>2018-09-05T06:46:37Z</time>
      </trkpt>
      <trkpt lat="45.797582" lon="13.602210">
        <ele>138.082</ele>
        <time>2018-09-05T06:46:38Z</time>
      </trkpt>
      <trkpt lat="45.797598" lon="13.602140">
        <ele>138.068</ele>
        <time>2018-09-05T06:46:39Z</time>
      </trkpt>
      <trkpt lat="45.797603" lon="13.602066">
        <ele>137.684</ele>
        <time>2018-09-05T06:46:40Z</time>
      </trkpt>
      <trkpt lat="45.797596" lon="13.601988">
        <ele>137.651</ele>
        <time>2018-09-05T06:46:41Z</time>
      </trkpt>
      <trkpt lat="45.797487" lon="13.601121">
        <ele>135.242</ele>
        <time>2018-09-05T06:46:53Z</time>
      </trkpt>
      <trkpt lat="45.797495" lon="13.600891">
        <ele>134.276</ele>
        <time>2018-09-05T06:46:56Z</time>
      </trkpt>
      <trkpt lat="45.797484" lon="13.600819">
        <ele>133.767</ele>
        <time>2018-09-05T06:46:57Z</time>
      </trkpt>
      <trkpt lat="45.797465" lon="13.600744">
        <ele>133.231</ele>
        <time>2018-09-05T06:46:58Z</time>
      </trkpt>
      <trkpt lat="45.797449" lon="13.600667">
        <ele>132.861</ele>
        <time>2018-09-05T06:46:59Z</time>
      </trkpt>
      <trkpt lat="45.797443" lon="13.600591">
        <ele>132.807</ele>
        <time>2018-09-05T06:47:00Z</time>
      </trkpt>
      <trkpt lat="45.797440" lon="13.600515">
        <ele>132.808</ele>
        <time>2018-09-05T06:47:01Z</time>
      </trkpt>
      <trkpt lat="45.797438" lon="13.600438">
        <ele>132.847</ele>
        <time>2018-09-05T06:47:02Z</time>
      </trkpt>
      <trkpt lat="45.797431" lon="13.600364">
        <ele>132.839</ele>
        <time>2018-09-05T06:47:03Z</time>
      </trkpt>
      <trkpt lat="45.797423" lon="13.600287">
        <ele>133.285</ele>
        <time>2018-09-05T06:47:04Z</time>
      </trkpt>
      <trkpt lat="45.797418" lon="13.600213">
        <ele>133.281</ele>
        <time>2018-09-05T06:47:05Z</time>
      </trkpt>
      <trkpt lat="45.797415" lon="13.600140">
        <ele>133.788</ele>
        <time>2018-09-05T06:47:06Z</time>
      </trkpt>
      <trkpt lat="45.797415" lon="13.600005">
        <ele>134.779</ele>
        <time>2018-09-05T06:47:08Z</time>
      </trkpt>
      <trkpt lat="45.797417" lon="13.599933">
        <ele>134.793</ele>
        <time>2018-09-05T06:47:09Z</time>
      </trkpt>
      <trkpt lat="45.797417" lon="13.599859">
        <ele>135.244</ele>
        <time>2018-09-05T06:47:10Z</time>
      </trkpt>
      <trkpt lat="45.797418" lon="13.599780">
        <ele>135.636</ele>
        <time>2018-09-05T06:47:11Z</time>
      </trkpt>
      <trkpt lat="45.797424" lon="13.599703">
        <ele>135.617</ele>
        <time>2018-09-05T06:47:12Z</time>
      </trkpt>
      <trkpt lat="45.797432" lon="13.599629">
        <ele>136.118</ele>
        <time>2018-09-05T06:47:13Z</time>
      </trkpt>
      <trkpt lat="45.797508" lon="13.599116">
        <ele>138.008</ele>
        <time>2018-09-05T06:47:23Z</time>
      </trkpt>
      <trkpt lat="45.797591" lon="13.598645">
        <ele>137.127</ele>
        <time>2018-09-05T06:47:35Z</time>
      </trkpt>
      <trkpt lat="45.797671" lon="13.598200">
        <ele>136.129</ele>
        <time>2018-09-05T06:47:47Z</time>
      </trkpt>
      <trkpt lat="45.797682" lon="13.598135">
        <ele>136.155</ele>
        <time>2018-09-05T06:47:49Z</time>
      </trkpt>
      <trkpt lat="45.797681" lon="13.598100">
        <ele>136.621</ele>
        <time>2018-09-05T06:47:50Z</time>
      </trkpt>
      <trkpt lat="45.797728" lon="13.597820">
        <ele>135.688</ele>
        <time>2018-09-05T06:47:57Z</time>
      </trkpt>
      <trkpt lat="45.797746" lon="13.597787">
        <ele>135.629</ele>
        <time>2018-09-05T06:47:58Z</time>
      </trkpt>
      <trkpt lat="45.797777" lon="13.597733">
        <ele>135.663</ele>
        <time>2018-09-05T06:48:00Z</time>
      </trkpt>
      <trkpt lat="45.797780" lon="13.597701">
        <ele>135.664</ele>
        <time>2018-09-05T06:48:01Z</time>
      </trkpt>
      <trkpt lat="45.797809" lon="13.597370">
        <ele>135.654</ele>
        <time>2018-09-05T06:48:11Z</time>
      </trkpt>
      <trkpt lat="45.797877" lon="13.597275">
        <ele>135.256</ele>
        <time>2018-09-05T06:48:15Z</time>
      </trkpt>
      <trkpt lat="45.797884" lon="13.597246">
        <ele>135.211</ele>
        <time>2018-09-05T06:48:16Z</time>
      </trkpt>
      <trkpt lat="45.797888" lon="13.597217">
        <ele>135.208</ele>
        <time>2018-09-05T06:48:17Z</time>
      </trkpt>
      <trkpt lat="45.797891" lon="13.597188">
        <ele>135.269</ele>
        <time>2018-09-05T06:48:18Z</time>
      </trkpt>
      <trkpt lat="45.797901" lon="13.597160">
        <ele>135.211</ele>
        <time>2018-09-05T06:48:19Z</time>
      </trkpt>
      <trkpt lat="45.797916" lon="13.597133">
        <ele>135.227</ele>
        <time>2018-09-05T06:48:20Z</time>
      </trkpt>
      <trkpt lat="45.797930" lon="13.597108">
        <ele>134.743</ele>
        <time>2018-09-05T06:48:21Z</time>
      </trkpt>
      <trkpt lat="45.797940" lon="13.597081">
        <ele>134.790</ele>
        <time>2018-09-05T06:48:22Z</time>
      </trkpt>
      <trkpt lat="45.797948" lon="13.597053">
        <ele>134.741</ele>
        <time>2018-09-05T06:48:23Z</time>
      </trkpt>
      <trkpt lat="45.797976" lon="13.597003">
        <ele>134.775</ele>
        <time>2018-09-05T06:48:25Z</time>
      </trkpt>
      <trkpt lat="45.797996" lon="13.596986">
        <ele>134.716</ele>
        <time>2018-09-05T06:48:26Z</time>
      </trkpt>
      <trkpt lat="45.798015" lon="13.596964">
        <ele>134.739</ele>
        <time>2018-09-05T06:48:27Z</time>
      </trkpt>
      <trkpt lat="45.798032" lon="13.596939">
        <ele>134.701</ele>
        <time>2018-09-05T06:48:28Z</time>
      </trkpt>
      <trkpt lat="45.798046" lon="13.596912">
        <ele>135.221</ele>
        <time>2018-09-05T06:48:29Z</time>
      </trkpt>
      <trkpt lat="45.798092" lon="13.596783">
        <ele>135.608</ele>
        <time>2018-09-05T06:48:34Z</time>
      </trkpt>
      <trkpt lat="45.798090" lon="13.596751">
        <ele>135.617</ele>
        <time>2018-09-05T06:48:35Z</time>
      </trkpt>
      <trkpt lat="45.798084" lon="13.596717">
        <ele>135.669</ele>
        <time>2018-09-05T06:48:36Z</time>
      </trkpt>
      <trkpt lat="45.798077" lon="13.596686">
        <ele>136.195</ele>
        <time>2018-09-05T06:48:37Z</time>
      </trkpt>
      <trkpt lat="45.798073" lon="13.596655">
        <ele>136.671</ele>
        <time>2018-09-05T06:48:38Z</time>
      </trkpt>
      <trkpt lat="45.798073" lon="13.596620">
        <ele>136.628</ele>
        <time>2018-09-05T06:48:39Z</time>
      </trkpt>
      <trkpt lat="45.798073" lon="13.596584">
        <ele>137.139</ele>
        <time>2018-09-05T06:48:40Z</time>
      </trkpt>
      <trkpt lat="45.798071" lon="13.596550">
        <ele>137.133</ele>
        <time>2018-09-05T06:48:41Z</time>
      </trkpt>
      <trkpt lat="45.798068" lon="13.596517">
        <ele>137.664</ele>
        <time>2018-09-05T06:48:42Z</time>
      </trkpt>
      <trkpt lat="45.798072" lon="13.596414">
        <ele>137.646</ele>
        <time>2018-09-05T06:48:45Z</time>
      </trkpt>
      <trkpt lat="45.798087" lon="13.596382">
        <ele>137.188</ele>
        <time>2018-09-05T06:48:46Z</time>
      </trkpt>
      <trkpt lat="45.798101" lon="13.596350">
        <ele>137.116</ele>
        <time>2018-09-05T06:48:47Z</time>
      </trkpt>
      <trkpt lat="45.798115" lon="13.596314">
        <ele>136.608</ele>
        <time>2018-09-05T06:48:48Z</time>
      </trkpt>
      <trkpt lat="45.798129" lon="13.596276">
        <ele>136.618</ele>
        <time>2018-09-05T06:48:49Z</time>
      </trkpt>
      <trkpt lat="45.798212" lon="13.596058">
        <ele>135.650</ele>
        <time>2018-09-05T06:48:54Z</time>
      </trkpt>
      <trkpt lat="45.798244" lon="13.596015">
        <ele>135.246</ele>
        <time>2018-09-05T06:48:55Z</time>
      </trkpt>
      <trkpt lat="45.798274" lon="13.595975">
        <ele>134.742</ele>
        <time>2018-09-05T06:48:56Z</time>
      </trkpt>
      <trkpt lat="45.798347" lon="13.595801">
        <ele>134.239</ele>
        <time>2018-09-05T06:49:00Z</time>
      </trkpt>
      <trkpt lat="45.798343" lon="13.595761">
        <ele>134.210</ele>
        <time>2018-09-05T06:49:01Z</time>
      </trkpt>
      <trkpt lat="45.798344" lon="13.595718">
        <ele>134.754</ele>
        <time>2018-09-05T06:49:02Z</time>
      </trkpt>
      <trkpt lat="45.798349" lon="13.595675">
        <ele>134.735</ele>
        <time>2018-09-05T06:49:03Z</time>
      </trkpt>
      <trkpt lat="45.798349" lon="13.595636">
        <ele>134.775</ele>
        <time>2018-09-05T06:49:04Z</time>
      </trkpt>
      <trkpt lat="45.798349" lon="13.595597">
        <ele>134.228</ele>
        <time>2018-09-05T06:49:05Z</time>
      </trkpt>
      <trkpt lat="45.798412" lon="13.595187">
        <ele>132.320</ele>
        <time>2018-09-05T06:49:16Z</time>
      </trkpt>
      <trkpt lat="45.798622" lon="13.594807">
        <ele>129.408</ele>
        <time>2018-09-05T06:49:29Z</time>
      </trkpt>
      <trkpt lat="45.798717" lon="13.594726">
        <ele>129.461</ele>
        <time>2018-09-05T06:49:34Z</time>
      </trkpt>
      <trkpt lat="45.798919" lon="13.594470">
        <ele>127.923</ele>
        <time>2018-09-05T06:49:44Z</time>
      </trkpt>
      <trkpt lat="45.799078" lon="13.594114">
        <ele>122.779</ele>
        <time>2018-09-05T06:49:55Z</time>
      </trkpt>
      <trkpt lat="45.799145" lon="13.593915">
        <ele>119.355</ele>
        <time>2018-09-05T06:50:01Z</time>
      </trkpt>
      <trkpt lat="45.799153" lon="13.593876">
        <ele>118.812</ele>
        <time>2018-09-05T06:50:02Z</time>
      </trkpt>
      <trkpt lat="45.799170" lon="13.593842">
        <ele>118.373</ele>
        <time>2018-09-05T06:50:03Z</time>
      </trkpt>
      <trkpt lat="45.799191" lon="13.593814">
        <ele>117.457</ele>
        <time>2018-09-05T06:50:04Z</time>
      </trkpt>
      <trkpt lat="45.799215" lon="13.593790">
        <ele>116.448</ele>
        <time>2018-09-05T06:50:05Z</time>
      </trkpt>
      <trkpt lat="45.799256" lon="13.593740">
        <ele>115.518</ele>
        <time>2018-09-05T06:50:08Z</time>
      </trkpt>
      <trkpt lat="45.799265" lon="13.593720">
        <ele>115.098</ele>
        <time>2018-09-05T06:50:09Z</time>
      </trkpt>
      <trkpt lat="45.799276" lon="13.593699">
        <ele>115.017</ele>
        <time>2018-09-05T06:50:10Z</time>
      </trkpt>
      <trkpt lat="45.799291" lon="13.593687">
        <ele>115.008</ele>
        <time>2018-09-05T06:50:11Z</time>
      </trkpt>
      <trkpt lat="45.799310" lon="13.593680">
        <ele>115.025</ele>
        <time>2018-09-05T06:50:12Z</time>
      </trkpt>
      <trkpt lat="45.799329" lon="13.593669">
        <ele>114.527</ele>
        <time>2018-09-05T06:50:13Z</time>
      </trkpt>
      <trkpt lat="45.799346" lon="13.593656">
        <ele>114.043</ele>
        <time>2018-09-05T06:50:14Z</time>
      </trkpt>
      <trkpt lat="45.799361" lon="13.593638">
        <ele>114.099</ele>
        <time>2018-09-05T06:50:15Z</time>
      </trkpt>
      <trkpt lat="45.799372" lon="13.593613">
        <ele>113.516</ele>
        <time>2018-09-05T06:50:16Z</time>
      </trkpt>
      <trkpt lat="45.799381" lon="13.593584">
        <ele>113.027</ele>
        <time>2018-09-05T06:50:17Z</time>
      </trkpt>
      <trkpt lat="45.799579" lon="13.593352">
        <ele>114.051</ele>
        <time>2018-09-05T06:50:28Z</time>
      </trkpt>
      <trkpt lat="45.799673" lon="13.593350">
        <ele>114.022</ele>
        <time>2018-09-05T06:50:33Z</time>
      </trkpt>
      <trkpt lat="45.799687" lon="13.593346">
        <ele>114.042</ele>
        <time>2018-09-05T06:50:34Z</time>
      </trkpt>
      <trkpt lat="45.799704" lon="13.593340">
        <ele>113.522</ele>
        <time>2018-09-05T06:50:35Z</time>
      </trkpt>
      <trkpt lat="45.799719" lon="13.593330">
        <ele>113.514</ele>
        <time>2018-09-05T06:50:36Z</time>
      </trkpt>
      <trkpt lat="45.799734" lon="13.593321">
        <ele>113.508</ele>
        <time>2018-09-05T06:50:37Z</time>
      </trkpt>
      <trkpt lat="45.799751" lon="13.593305">
        <ele>113.598</ele>
        <time>2018-09-05T06:50:38Z</time>
      </trkpt>
      <trkpt lat="45.799768" lon="13.593283">
        <ele>113.590</ele>
        <time>2018-09-05T06:50:39Z</time>
      </trkpt>
      <trkpt lat="45.799784" lon="13.593253">
        <ele>113.016</ele>
        <time>2018-09-05T06:50:40Z</time>
      </trkpt>
      <trkpt lat="45.799807" lon="13.593226">
        <ele>112.682</ele>
        <time>2018-09-05T06:50:41Z</time>
      </trkpt>
      <trkpt lat="45.799873" lon="13.593174">
        <ele>111.669</ele>
        <time>2018-09-05T06:50:44Z</time>
      </trkpt>
      <trkpt lat="45.799884" lon="13.593148">
        <ele>111.110</ele>
        <time>2018-09-05T06:50:45Z</time>
      </trkpt>
      <trkpt lat="45.799897" lon="13.593117">
        <ele>110.694</ele>
        <time>2018-09-05T06:50:46Z</time>
      </trkpt>
      <trkpt lat="45.799918" lon="13.593094">
        <ele>110.685</ele>
        <time>2018-09-05T06:50:47Z</time>
      </trkpt>
      <trkpt lat="45.799939" lon="13.593080">
        <ele>110.226</ele>
        <time>2018-09-05T06:50:48Z</time>
      </trkpt>
      <trkpt lat="45.800005" lon="13.593039">
        <ele>110.247</ele>
        <time>2018-09-05T06:50:52Z</time>
      </trkpt>
      <trkpt lat="45.800021" lon="13.593031">
        <ele>109.711</ele>
        <time>2018-09-05T06:50:53Z</time>
      </trkpt>
      <trkpt lat="45.800036" lon="13.593019">
        <ele>109.708</ele>
        <time>2018-09-05T06:50:54Z</time>
      </trkpt>
      <trkpt lat="45.800055" lon="13.593004">
        <ele>110.246</ele>
        <time>2018-09-05T06:50:55Z</time>
      </trkpt>
      <trkpt lat="45.800071" lon="13.592993">
        <ele>110.648</ele>
        <time>2018-09-05T06:50:56Z</time>
      </trkpt>
      <trkpt lat="45.800082" lon="13.592984">
        <ele>111.124</ele>
        <time>2018-09-05T06:50:57Z</time>
      </trkpt>
      <trkpt lat="45.800179" lon="13.592857">
        <ele>111.620</ele>
        <time>2018-09-05T06:51:07Z</time>
      </trkpt>
      <trkpt lat="45.800191" lon="13.592847">
        <ele>111.677</ele>
        <time>2018-09-05T06:51:08Z</time>
      </trkpt>
      <trkpt lat="45.800208" lon="13.592836">
        <ele>111.678</ele>
        <time>2018-09-05T06:51:09Z</time>
      </trkpt>
      <trkpt lat="45.800361" lon="13.592649">
        <ele>112.182</ele>
        <time>2018-09-05T06:51:22Z</time>
      </trkpt>
      <trkpt lat="45.800534" lon="13.592730">
        <ele>113.563</ele>
        <time>2018-09-05T06:51:34Z</time>
      </trkpt>
      <trkpt lat="45.800658" lon="13.592752">
        <ele>114.568</ele>
        <time>2018-09-05T06:51:43Z</time>
      </trkpt>
      <trkpt lat="45.800672" lon="13.592756">
        <ele>114.542</ele>
        <time>2018-09-05T06:51:44Z</time>
      </trkpt>
      <trkpt lat="45.800685" lon="13.592759">
        <ele>114.526</ele>
        <time>2018-09-05T06:51:45Z</time>
      </trkpt>
      <trkpt lat="45.800920" lon="13.592836">
        <ele>116.908</ele>
        <time>2018-09-05T06:52:02Z</time>
      </trkpt>
      <trkpt lat="45.801020" lon="13.592887">
        <ele>117.930</ele>
        <time>2018-09-05T06:52:09Z</time>
      </trkpt>
      <trkpt lat="45.801035" lon="13.592892">
        <ele>118.392</ele>
        <time>2018-09-05T06:52:10Z</time>
      </trkpt>
      <trkpt lat="45.801257" lon="13.592972">
        <ele>120.778</ele>
        <time>2018-09-05T06:52:24Z</time>
      </trkpt>
      <trkpt lat="45.801270" lon="13.592974">
        <ele>120.794</ele>
        <time>2018-09-05T06:52:25Z</time>
      </trkpt>
      <trkpt lat="45.801284" lon="13.592978">
        <ele>120.721</ele>
        <time>2018-09-05T06:52:26Z</time>
      </trkpt>
      <trkpt lat="45.801296" lon="13.592983">
        <ele>120.792</ele>
        <time>2018-09-05T06:52:27Z</time>
      </trkpt>
      <trkpt lat="45.801309" lon="13.592991">
        <ele>120.756</ele>
        <time>2018-09-05T06:52:28Z</time>
      </trkpt>
      <trkpt lat="45.801346" lon="13.593015">
        <ele>121.757</ele>
        <time>2018-09-05T06:52:31Z</time>
      </trkpt>
      <trkpt lat="45.801502" lon="13.593113">
        <ele>122.737</ele>
        <time>2018-09-05T06:52:44Z</time>
      </trkpt>
      <trkpt lat="45.801573" lon="13.593239">
        <ele>122.749</ele>
        <time>2018-09-05T06:52:52Z</time>
      </trkpt>
      <trkpt lat="45.801586" lon="13.593245">
        <ele>123.113</ele>
        <time>2018-09-05T06:52:53Z</time>
      </trkpt>
      <trkpt lat="45.801611" lon="13.593251">
        <ele>123.608</ele>
        <time>2018-09-05T06:52:55Z</time>
      </trkpt>
      <trkpt lat="45.801625" lon="13.593249">
        <ele>123.687</ele>
        <time>2018-09-05T06:52:56Z</time>
      </trkpt>
      <trkpt lat="45.801638" lon="13.593249">
        <ele>123.659</ele>
        <time>2018-09-05T06:52:57Z</time>
      </trkpt>
      <trkpt lat="45.801651" lon="13.593246">
        <ele>123.625</ele>
        <time>2018-09-05T06:52:58Z</time>
      </trkpt>
      <trkpt lat="45.801665" lon="13.593246">
        <ele>123.651</ele>
        <time>2018-09-05T06:52:59Z</time>
      </trkpt>
      <trkpt lat="45.801678" lon="13.593249">
        <ele>124.148</ele>
        <time>2018-09-05T06:53:00Z</time>
      </trkpt>
      <trkpt lat="45.801776" lon="13.593268">
        <ele>124.179</ele>
        <time>2018-09-05T06:53:08Z</time>
      </trkpt>
      <trkpt lat="45.801787" lon="13.593274">
        <ele>124.613</ele>
        <time>2018-09-05T06:53:09Z</time>
      </trkpt>
      <trkpt lat="45.801799" lon="13.593278">
        <ele>124.624</ele>
        <time>2018-09-05T06:53:10Z</time>
      </trkpt>
      <trkpt lat="45.801810" lon="13.593282">
        <ele>125.146</ele>
        <time>2018-09-05T06:53:11Z</time>
      </trkpt>
      <trkpt lat="45.801820" lon="13.593287">
        <ele>125.188</ele>
        <time>2018-09-05T06:53:12Z</time>
      </trkpt>
      <trkpt lat="45.801830" lon="13.593291">
        <ele>125.516</ele>
        <time>2018-09-05T06:53:13Z</time>
      </trkpt>
      <trkpt lat="45.801985" lon="13.593353">
        <ele>126.508</ele>
        <time>2018-09-05T06:53:26Z</time>
      </trkpt>
      <trkpt lat="45.802061" lon="13.593389">
        <ele>127.558</ele>
        <time>2018-09-05T06:53:32Z</time>
      </trkpt>
      <trkpt lat="45.802075" lon="13.593388">
        <ele>127.520</ele>
        <time>2018-09-05T06:53:33Z</time>
      </trkpt>
      <trkpt lat="45.802090" lon="13.593386">
        <ele>127.916</ele>
        <time>2018-09-05T06:53:34Z</time>
      </trkpt>
      <trkpt lat="45.802109" lon="13.593390">
        <ele>127.962</ele>
        <time>2018-09-05T06:53:35Z</time>
      </trkpt>
      <trkpt lat="45.802126" lon="13.593392">
        <ele>127.589</ele>
        <time>2018-09-05T06:53:36Z</time>
      </trkpt>
      <trkpt lat="45.802144" lon="13.593397">
        <ele>127.560</ele>
        <time>2018-09-05T06:53:37Z</time>
      </trkpt>
      <trkpt lat="45.802162" lon="13.593405">
        <ele>127.544</ele>
        <time>2018-09-05T06:53:38Z</time>
      </trkpt>
      <trkpt lat="45.802179" lon="13.593406">
        <ele>127.595</ele>
        <time>2018-09-05T06:53:39Z</time>
      </trkpt>
      <trkpt lat="45.802196" lon="13.593407">
        <ele>127.578</ele>
        <time>2018-09-05T06:53:40Z</time>
      </trkpt>
      <trkpt lat="45.802212" lon="13.593411">
        <ele>127.533</ele>
        <time>2018-09-05T06:53:41Z</time>
      </trkpt>
      <trkpt lat="45.802228" lon="13.593414">
        <ele>127.026</ele>
        <time>2018-09-05T06:53:42Z</time>
      </trkpt>
      <trkpt lat="45.802243" lon="13.593421">
        <ele>127.508</ele>
        <time>2018-09-05T06:53:43Z</time>
      </trkpt>
      <trkpt lat="45.802257" lon="13.593429">
        <ele>127.561</ele>
        <time>2018-09-05T06:53:44Z</time>
      </trkpt>
      <trkpt lat="45.802522" lon="13.593515">
        <ele>128.913</ele>
        <time>2018-09-05T06:53:59Z</time>
      </trkpt>
      <trkpt lat="45.802540" lon="13.593512">
        <ele>129.479</ele>
        <time>2018-09-05T06:54:00Z</time>
      </trkpt>
      <trkpt lat="45.802556" lon="13.593511">
        <ele>129.975</ele>
        <time>2018-09-05T06:54:01Z</time>
      </trkpt>
      <trkpt lat="45.802575" lon="13.593507">
        <ele>130.432</ele>
        <time>2018-09-05T06:54:02Z</time>
      </trkpt>
      <trkpt lat="45.802594" lon="13.593501">
        <ele>130.833</ele>
        <time>2018-09-05T06:54:03Z</time>
      </trkpt>
      <trkpt lat="45.802879" lon="13.593420">
        <ele>131.347</ele>
        <time>2018-09-05T06:54:14Z</time>
      </trkpt>
      <trkpt lat="45.803251" lon="13.593223">
        <ele>128.938</ele>
        <time>2018-09-05T06:54:24Z</time>
      </trkpt>
      <trkpt lat="45.803532" lon="13.592970">
        <ele>125.159</ele>
        <time>2018-09-05T06:54:32Z</time>
      </trkpt>
      <trkpt lat="45.803617" lon="13.592911">
        <ele>124.103</ele>
        <time>2018-09-05T06:54:34Z</time>
      </trkpt>
      <trkpt lat="45.803660" lon="13.592870">
        <ele>123.623</ele>
        <time>2018-09-05T06:54:35Z</time>
      </trkpt>
      <trkpt lat="45.804065" lon="13.592419">
        <ele>122.208</ele>
        <time>2018-09-05T06:54:49Z</time>
      </trkpt>
      <trkpt lat="45.804237" lon="13.592025">
        <ele>121.259</ele>
        <time>2018-09-05T06:55:03Z</time>
      </trkpt>
      <trkpt lat="45.804538" lon="13.591373">
        <ele>118.851</ele>
        <time>2018-09-05T06:55:18Z</time>
      </trkpt>
      <trkpt lat="45.804576" lon="13.591331">
        <ele>117.917</ele>
        <time>2018-09-05T06:55:19Z</time>
      </trkpt>
      <trkpt lat="45.804615" lon="13.591294">
        <ele>117.423</ele>
        <time>2018-09-05T06:55:20Z</time>
      </trkpt>
      <trkpt lat="45.804659" lon="13.591261">
        <ele>116.930</ele>
        <time>2018-09-05T06:55:21Z</time>
      </trkpt>
      <trkpt lat="45.804703" lon="13.591224">
        <ele>116.431</ele>
        <time>2018-09-05T06:55:22Z</time>
      </trkpt>
      <trkpt lat="45.804747" lon="13.591183">
        <ele>115.935</ele>
        <time>2018-09-05T06:55:23Z</time>
      </trkpt>
      <trkpt lat="45.804793" lon="13.591144">
        <ele>115.516</ele>
        <time>2018-09-05T06:55:24Z</time>
      </trkpt>
      <trkpt lat="45.805143" lon="13.590873">
        <ele>111.645</ele>
        <time>2018-09-05T06:55:31Z</time>
      </trkpt>
      <trkpt lat="45.805275" lon="13.590728">
        <ele>109.747</ele>
        <time>2018-09-05T06:55:34Z</time>
      </trkpt>
      <trkpt lat="45.805470" lon="13.590358">
        <ele>105.811</ele>
        <time>2018-09-05T06:55:40Z</time>
      </trkpt>
      <trkpt lat="45.805850" lon="13.589358">
        <ele>95.708</ele>
        <time>2018-09-05T06:55:54Z</time>
      </trkpt>
      <trkpt lat="45.806141" lon="13.588058">
        <ele>90.018</ele>
        <time>2018-09-05T06:56:09Z</time>
      </trkpt>
      <trkpt lat="45.806180" lon="13.587337">
        <ele>88.520</ele>
        <time>2018-09-05T06:56:18Z</time>
      </trkpt>
      <trkpt lat="45.806199" lon="13.587277">
        <ele>88.196</ele>
        <time>2018-09-05T06:56:19Z</time>
      </trkpt>
      <trkpt lat="45.806228" lon="13.587236">
        <ele>88.162</ele>
        <time>2018-09-05T06:56:20Z</time>
      </trkpt>
      <trkpt lat="45.806502" lon="13.586764">
        <ele>89.539</ele>
        <time>2018-09-05T06:56:33Z</time>
      </trkpt>
      <trkpt lat="45.806894" lon="13.586353">
        <ele>91.970</ele>
        <time>2018-09-05T06:56:47Z</time>
      </trkpt>
      <trkpt lat="45.807222" lon="13.585933">
        <ele>94.324</ele>
        <time>2018-09-05T06:56:59Z</time>
      </trkpt>
      <trkpt lat="45.807595" lon="13.585423">
        <ele>96.245</ele>
        <time>2018-09-05T06:57:12Z</time>
      </trkpt>
      <trkpt lat="45.807728" lon="13.585144">
        <ele>95.757</ele>
        <time>2018-09-05T06:57:17Z</time>
      </trkpt>
      <trkpt lat="45.807793" lon="13.585014">
        <ele>95.300</ele>
        <time>2018-09-05T06:57:19Z</time>
      </trkpt>
      <trkpt lat="45.807942" lon="13.584680">
        <ele>92.420</ele>
        <time>2018-09-05T06:57:24Z</time>
      </trkpt>
      <trkpt lat="45.807980" lon="13.584632">
        <ele>92.408</ele>
        <time>2018-09-05T06:57:25Z</time>
      </trkpt>
      <trkpt lat="45.808024" lon="13.584607">
        <ele>91.999</ele>
        <time>2018-09-05T06:57:26Z</time>
      </trkpt>
      <trkpt lat="45.808074" lon="13.584603">
        <ele>91.951</ele>
        <time>2018-09-05T06:57:27Z</time>
      </trkpt>
      <trkpt lat="45.808129" lon="13.584618">
        <ele>91.997</ele>
        <time>2018-09-05T06:57:28Z</time>
      </trkpt>
      <trkpt lat="45.808184" lon="13.584642">
        <ele>91.973</ele>
        <time>2018-09-05T06:57:29Z</time>
      </trkpt>
      <trkpt lat="45.808238" lon="13.584676">
        <ele>91.910</ele>
        <time>2018-09-05T06:57:30Z</time>
      </trkpt>
      <trkpt lat="45.808292" lon="13.584725">
        <ele>91.951</ele>
        <time>2018-09-05T06:57:31Z</time>
      </trkpt>
      <trkpt lat="45.808340" lon="13.584779">
        <ele>91.925</ele>
        <time>2018-09-05T06:57:32Z</time>
      </trkpt>
      <trkpt lat="45.808383" lon="13.584832">
        <ele>91.986</ele>
        <time>2018-09-05T06:57:33Z</time>
      </trkpt>
      <trkpt lat="45.808595" lon="13.585053">
        <ele>91.414</ele>
        <time>2018-09-05T06:57:38Z</time>
      </trkpt>
      <trkpt lat="45.809091" lon="13.585208">
        <ele>87.154</ele>
        <time>2018-09-05T06:57:47Z</time>
      </trkpt>
      <trkpt lat="45.809461" lon="13.585313">
        <ele>80.409</ele>
        <time>2018-09-05T06:57:53Z</time>
      </trkpt>
      <trkpt lat="45.809504" lon="13.585315">
        <ele>78.908</ele>
        <time>2018-09-05T06:57:54Z</time>
      </trkpt>
      <trkpt lat="45.809886" lon="13.585336">
        <ele>71.735</ele>
        <time>2018-09-05T06:58:05Z</time>
      </trkpt>
      <trkpt lat="45.809995" lon="13.584911">
        <ele>66.967</ele>
        <time>2018-09-05T06:58:13Z</time>
      </trkpt>
      <trkpt lat="45.810124" lon="13.584270">
        <ele>59.273</ele>
        <time>2018-09-05T06:58:23Z</time>
      </trkpt>
      <trkpt lat="45.810153" lon="13.584209">
        <ele>58.339</ele>
        <time>2018-09-05T06:58:24Z</time>
      </trkpt>
      <trkpt lat="45.810191" lon="13.584157">
        <ele>57.356</ele>
        <time>2018-09-05T06:58:25Z</time>
      </trkpt>
      <trkpt lat="45.810229" lon="13.584115">
        <ele>56.877</ele>
        <time>2018-09-05T06:58:26Z</time>
      </trkpt>
      <trkpt lat="45.810270" lon="13.584078">
        <ele>55.841</ele>
        <time>2018-09-05T06:58:27Z</time>
      </trkpt>
      <trkpt lat="45.810313" lon="13.584045">
        <ele>54.922</ele>
        <time>2018-09-05T06:58:28Z</time>
      </trkpt>
      <trkpt lat="45.810355" lon="13.584021">
        <ele>53.998</ele>
        <time>2018-09-05T06:58:29Z</time>
      </trkpt>
      <trkpt lat="45.810395" lon="13.584008">
        <ele>53.415</ele>
        <time>2018-09-05T06:58:30Z</time>
      </trkpt>
      <trkpt lat="45.810781" lon="13.583832">
        <ele>49.126</ele>
        <time>2018-09-05T06:58:42Z</time>
      </trkpt>
      <trkpt lat="45.811255" lon="13.583844">
        <ele>45.308</ele>
        <time>2018-09-05T06:58:54Z</time>
      </trkpt>
      <trkpt lat="45.811647" lon="13.584045">
        <ele>36.653</ele>
        <time>2018-09-05T06:59:05Z</time>
      </trkpt>
      <trkpt lat="45.812130" lon="13.584336">
        <ele>28.065</ele>
        <time>2018-09-05T06:59:19Z</time>
      </trkpt>
      <trkpt lat="45.812511" lon="13.584527">
        <ele>24.181</ele>
        <time>2018-09-05T06:59:28Z</time>
      </trkpt>
      <trkpt lat="45.812951" lon="13.584599">
        <ele>22.227</ele>
        <time>2018-09-05T06:59:40Z</time>
      </trkpt>
      <trkpt lat="45.813261" lon="13.584501">
        <ele>21.244</ele>
        <time>2018-09-05T06:59:48Z</time>
      </trkpt>
      <trkpt lat="45.813699" lon="13.584354">
        <ele>20.845</ele>
        <time>2018-09-05T07:00:01Z</time>
      </trkpt>
      <trkpt lat="45.814097" lon="13.584101">
        <ele>20.869</ele>
        <time>2018-09-05T07:00:14Z</time>
      </trkpt>
      <trkpt lat="45.814497" lon="13.583679">
        <ele>19.890</ele>
        <time>2018-09-05T07:00:26Z</time>
      </trkpt>
      <trkpt lat="45.814829" lon="13.583366">
        <ele>20.351</ele>
        <time>2018-09-05T07:00:41Z</time>
      </trkpt>
      <trkpt lat="45.815177" lon="13.582993">
        <ele>22.701</ele>
        <time>2018-09-05T07:00:57Z</time>
      </trkpt>
      <trkpt lat="45.815585" lon="13.582665">
        <ele>21.711</ele>
        <time>2018-09-05T07:01:10Z</time>
      </trkpt>
      <trkpt lat="45.816029" lon="13.582499">
        <ele>23.208</ele>
        <time>2018-09-05T07:01:26Z</time>
      </trkpt>
      <trkpt lat="45.816504" lon="13.582372">
        <ele>21.769</ele>
        <time>2018-09-05T07:01:41Z</time>
      </trkpt>
      <trkpt lat="45.817023" lon="13.582250">
        <ele>20.821</ele>
        <time>2018-09-05T07:01:57Z</time>
      </trkpt>
      <trkpt lat="45.817455" lon="13.582128">
        <ele>21.717</ele>
        <time>2018-09-05T07:02:12Z</time>
      </trkpt>
      <trkpt lat="45.817851" lon="13.582002">
        <ele>24.653</ele>
        <time>2018-09-05T07:02:29Z</time>
      </trkpt>
      <trkpt lat="45.818234" lon="13.581908">
        <ele>27.540</ele>
        <time>2018-09-05T07:02:47Z</time>
      </trkpt>
      <trkpt lat="45.818483" lon="13.581811">
        <ele>30.981</ele>
        <time>2018-09-05T07:03:03Z</time>
      </trkpt>
      <trkpt lat="45.818610" lon="13.581632">
        <ele>31.875</ele>
        <time>2018-09-05T07:03:18Z</time>
      </trkpt>
      <trkpt lat="45.818618" lon="13.581604">
        <ele>31.876</ele>
        <time>2018-09-05T07:03:20Z</time>
      </trkpt>
      <trkpt lat="45.818662" lon="13.581345">
        <ele>35.242</ele>
        <time>2018-09-05T07:03:38Z</time>
      </trkpt>
      <trkpt lat="45.818691" lon="13.581231">
        <ele>36.622</ele>
        <time>2018-09-05T07:03:46Z</time>
      </trkpt>
      <trkpt lat="45.818717" lon="13.581168">
        <ele>38.114</ele>
        <time>2018-09-05T07:03:51Z</time>
      </trkpt>
      <trkpt lat="45.818734" lon="13.581122">
        <ele>39.008</ele>
        <time>2018-09-05T07:03:55Z</time>
      </trkpt>
      <trkpt lat="45.818840" lon="13.580945">
        <ele>40.938</ele>
        <time>2018-09-05T07:04:10Z</time>
      </trkpt>
      <trkpt lat="45.818855" lon="13.580891">
        <ele>41.470</ele>
        <time>2018-09-05T07:04:13Z</time>
      </trkpt>
      <trkpt lat="45.818864" lon="13.580872">
        <ele>41.486</ele>
        <time>2018-09-05T07:04:14Z</time>
      </trkpt>
      <trkpt lat="45.819078" lon="13.580617">
        <ele>44.852</ele>
        <time>2018-09-05T07:04:32Z</time>
      </trkpt>
      <trkpt lat="45.819357" lon="13.580348">
        <ele>45.349</ele>
        <time>2018-09-05T07:04:45Z</time>
      </trkpt>
      <trkpt lat="45.819729" lon="13.580010">
        <ele>44.870</ele>
        <time>2018-09-05T07:04:59Z</time>
      </trkpt>
      <trkpt lat="45.820265" lon="13.579626">
        <ele>44.324</ele>
        <time>2018-09-05T07:05:17Z</time>
      </trkpt>
      <trkpt lat="45.820929" lon="13.579329">
        <ele>44.345</ele>
        <time>2018-09-05T07:05:34Z</time>
      </trkpt>
      <trkpt lat="45.821752" lon="13.579057">
        <ele>42.972</ele>
        <time>2018-09-05T07:05:53Z</time>
      </trkpt>
      <trkpt lat="45.822634" lon="13.578730">
        <ele>40.513</ele>
        <time>2018-09-05T07:06:12Z</time>
      </trkpt>
      <trkpt lat="45.822776" lon="13.578671">
        <ele>40.014</ele>
        <time>2018-09-05T07:06:15Z</time>
      </trkpt>
      <trkpt lat="45.822824" lon="13.578631">
        <ele>40.008</ele>
        <time>2018-09-05T07:06:16Z</time>
      </trkpt>
      <trkpt lat="45.822864" lon="13.578579">
        <ele>39.551</ele>
        <time>2018-09-05T07:06:17Z</time>
      </trkpt>
      <trkpt lat="45.823359" lon="13.577918">
        <ele>40.593</ele>
        <time>2018-09-05T07:06:32Z</time>
      </trkpt>
      <trkpt lat="45.823728" lon="13.577155">
        <ele>41.419</ele>
        <time>2018-09-05T07:06:47Z</time>
      </trkpt>
      <trkpt lat="45.824197" lon="13.576146">
        <ele>39.565</ele>
        <time>2018-09-05T07:07:04Z</time>
      </trkpt>
      <trkpt lat="45.824667" lon="13.575034">
        <ele>35.772</ele>
        <time>2018-09-05T07:07:22Z</time>
      </trkpt>
      <trkpt lat="45.824975" lon="13.573651">
        <ele>31.353</ele>
        <time>2018-09-05T07:07:38Z</time>
      </trkpt>
      <trkpt lat="45.825310" lon="13.572611">
        <ele>31.317</ele>
        <time>2018-09-05T07:07:53Z</time>
      </trkpt>
      <trkpt lat="45.825780" lon="13.571700">
        <ele>31.358</ele>
        <time>2018-09-05T07:08:08Z</time>
      </trkpt>
      <trkpt lat="45.826313" lon="13.571150">
        <ele>28.941</ele>
        <time>2018-09-05T07:08:18Z</time>
      </trkpt>
      <trkpt lat="45.826355" lon="13.571078">
        <ele>28.981</ele>
        <time>2018-09-05T07:08:19Z</time>
      </trkpt>
      <trkpt lat="45.827031" lon="13.569563">
        <ele>24.609</ele>
        <time>2018-09-05T07:08:36Z</time>
      </trkpt>
      <trkpt lat="45.827113" lon="13.569338">
        <ele>24.108</ele>
        <time>2018-09-05T07:08:38Z</time>
      </trkpt>
      <trkpt lat="45.827356" lon="13.567832">
        <ele>20.318</ele>
        <time>2018-09-05T07:08:51Z</time>
      </trkpt>
      <trkpt lat="45.827365" lon="13.567197">
        <ele>18.490</ele>
        <time>2018-09-05T07:08:57Z</time>
      </trkpt>
      <trkpt lat="45.827349" lon="13.567104">
        <ele>18.416</ele>
        <time>2018-09-05T07:08:58Z</time>
      </trkpt>
      <trkpt lat="45.827327" lon="13.567008">
        <ele>18.492</ele>
        <time>2018-09-05T07:08:59Z</time>
      </trkpt>
      <trkpt lat="45.827302" lon="13.566922">
        <ele>17.929</ele>
        <time>2018-09-05T07:09:00Z</time>
      </trkpt>
      <trkpt lat="45.827272" lon="13.566845">
        <ele>17.980</ele>
        <time>2018-09-05T07:09:01Z</time>
      </trkpt>
      <trkpt lat="45.827237" lon="13.566773">
        <ele>17.974</ele>
        <time>2018-09-05T07:09:02Z</time>
      </trkpt>
      <trkpt lat="45.827197" lon="13.566710">
        <ele>17.915</ele>
        <time>2018-09-05T07:09:03Z</time>
      </trkpt>
      <trkpt lat="45.826697" lon="13.565956">
        <ele>18.463</ele>
        <time>2018-09-05T07:09:18Z</time>
      </trkpt>
      <trkpt lat="45.826230" lon="13.565000">
        <ele>15.044</ele>
        <time>2018-09-05T07:09:32Z</time>
      </trkpt>
      <trkpt lat="45.826134" lon="13.564838">
        <ele>14.018</ele>
        <time>2018-09-05T07:09:34Z</time>
      </trkpt>
      <trkpt lat="45.826079" lon="13.564768">
        <ele>14.008</ele>
        <time>2018-09-05T07:09:35Z</time>
      </trkpt>
      <trkpt lat="45.826020" lon="13.564703">
        <ele>13.680</ele>
        <time>2018-09-05T07:09:36Z</time>
      </trkpt>
      <trkpt lat="45.825897" lon="13.564572">
        <ele>12.672</ele>
        <time>2018-09-05T07:09:38Z</time>
      </trkpt>
      <trkpt lat="45.825845" lon="13.564492">
        <ele>12.698</ele>
        <time>2018-09-05T07:09:39Z</time>
      </trkpt>
      <trkpt lat="45.825807" lon="13.564398">
        <ele>12.134</ele>
        <time>2018-09-05T07:09:40Z</time>
      </trkpt>
      <trkpt lat="45.825793" lon="13.564296">
        <ele>12.161</ele>
        <time>2018-09-05T07:09:41Z</time>
      </trkpt>
      <trkpt lat="45.825806" lon="13.564194">
        <ele>12.132</ele>
        <time>2018-09-05T07:09:42Z</time>
      </trkpt>
      <trkpt lat="45.825844" lon="13.564101">
        <ele>12.126</ele>
        <time>2018-09-05T07:09:43Z</time>
      </trkpt>
      <trkpt lat="45.825898" lon="13.564025">
        <ele>12.127</ele>
        <time>2018-09-05T07:09:44Z</time>
      </trkpt>
      <trkpt lat="45.825958" lon="13.563971">
        <ele>12.176</ele>
        <time>2018-09-05T07:09:45Z</time>
      </trkpt>
      <trkpt lat="45.826021" lon="13.563929">
        <ele>12.190</ele>
        <time>2018-09-05T07:09:46Z</time>
      </trkpt>
      <trkpt lat="45.826082" lon="13.563892">
        <ele>12.119</ele>
        <time>2018-09-05T07:09:47Z</time>
      </trkpt>
      <trkpt lat="45.826663" lon="13.563529">
        <ele>14.008</ele>
        <time>2018-09-05T07:09:59Z</time>
      </trkpt>
      <trkpt lat="45.827289" lon="13.563208">
        <ele>16.091</ele>
        <time>2018-09-05T07:10:15Z</time>
      </trkpt>
      <trkpt lat="45.827807" lon="13.562762">
        <ele>18.473</ele>
        <time>2018-09-05T07:10:30Z</time>
      </trkpt>
      <trkpt lat="45.828197" lon="13.562338">
        <ele>18.439</ele>
        <time>2018-09-05T07:10:42Z</time>
      </trkpt>
      <trkpt lat="45.828732" lon="13.561617">
        <ele>17.425</ele>
        <time>2018-09-05T07:10:59Z</time>
      </trkpt>
      <trkpt lat="45.829219" lon="13.560748">
        <ele>16.942</ele>
        <time>2018-09-05T07:11:17Z</time>
      </trkpt>
      <trkpt lat="45.829533" lon="13.559867">
        <ele>15.073</ele>
        <time>2018-09-05T07:11:32Z</time>
      </trkpt>
      <trkpt lat="45.829904" lon="13.558521">
        <ele>14.527</ele>
        <time>2018-09-05T07:11:53Z</time>
      </trkpt>
      <trkpt lat="45.830160" lon="13.557239">
        <ele>13.648</ele>
        <time>2018-09-05T07:12:12Z</time>
      </trkpt>
      <trkpt lat="45.830187" lon="13.557058">
        <ele>13.624</ele>
        <time>2018-09-05T07:12:15Z</time>
      </trkpt>
      <trkpt lat="45.830196" lon="13.557000">
        <ele>13.604</ele>
        <time>2018-09-05T07:12:16Z</time>
      </trkpt>
      <trkpt lat="45.830339" lon="13.555967">
        <ele>15.014</ele>
        <time>2018-09-05T07:12:33Z</time>
      </trkpt>
      <trkpt lat="45.830514" lon="13.554827">
        <ele>13.608</ele>
        <time>2018-09-05T07:12:50Z</time>
      </trkpt>
      <trkpt lat="45.830764" lon="13.553818">
        <ele>13.636</ele>
        <time>2018-09-05T07:13:06Z</time>
      </trkpt>
      <trkpt lat="45.830946" lon="13.553141">
        <ele>14.068</ele>
        <time>2018-09-05T07:13:17Z</time>
      </trkpt>
      <trkpt lat="45.831157" lon="13.552325">
        <ele>15.034</ele>
        <time>2018-09-05T07:13:31Z</time>
      </trkpt>
      <trkpt lat="45.831440" lon="13.551206">
        <ele>16.460</ele>
        <time>2018-09-05T07:13:50Z</time>
      </trkpt>
      <trkpt lat="45.831615" lon="13.550643">
        <ele>16.987</ele>
        <time>2018-09-05T07:13:59Z</time>
      </trkpt>
      <trkpt lat="45.831646" lon="13.550584">
        <ele>16.438</ele>
        <time>2018-09-05T07:14:00Z</time>
      </trkpt>
      <trkpt lat="45.831677" lon="13.550532">
        <ele>16.912</ele>
        <time>2018-09-05T07:14:01Z</time>
      </trkpt>
      <trkpt lat="45.831713" lon="13.550485">
        <ele>16.993</ele>
        <time>2018-09-05T07:14:02Z</time>
      </trkpt>
      <trkpt lat="45.831751" lon="13.550442">
        <ele>16.978</ele>
        <time>2018-09-05T07:14:03Z</time>
      </trkpt>
      <trkpt lat="45.831791" lon="13.550398">
        <ele>17.433</ele>
        <time>2018-09-05T07:14:04Z</time>
      </trkpt>
      <trkpt lat="45.831829" lon="13.550358">
        <ele>17.926</ele>
        <time>2018-09-05T07:14:05Z</time>
      </trkpt>
      <trkpt lat="45.831868" lon="13.550323">
        <ele>17.908</ele>
        <time>2018-09-05T07:14:06Z</time>
      </trkpt>
      <trkpt lat="45.831908" lon="13.550291">
        <ele>17.921</ele>
        <time>2018-09-05T07:14:07Z</time>
      </trkpt>
      <trkpt lat="45.831990" lon="13.550223">
        <ele>18.893</ele>
        <time>2018-09-05T07:14:09Z</time>
      </trkpt>
      <trkpt lat="45.832033" lon="13.550186">
        <ele>18.879</ele>
        <time>2018-09-05T07:14:10Z</time>
      </trkpt>
      <trkpt lat="45.832282" lon="13.550014">
        <ele>19.855</ele>
        <time>2018-09-05T07:14:16Z</time>
      </trkpt>
      <trkpt lat="45.833067" lon="13.549483">
        <ele>17.442</ele>
        <time>2018-09-05T07:14:33Z</time>
      </trkpt>
      <trkpt lat="45.833793" lon="13.549174">
        <ele>16.083</ele>
        <time>2018-09-05T07:14:47Z</time>
      </trkpt>
      <trkpt lat="45.834360" lon="13.548991">
        <ele>15.597</ele>
        <time>2018-09-05T07:14:58Z</time>
      </trkpt>
      <trkpt lat="45.834401" lon="13.548957">
        <ele>15.578</ele>
        <time>2018-09-05T07:14:59Z</time>
      </trkpt>
      <trkpt lat="45.834441" lon="13.548919">
        <ele>16.057</ele>
        <time>2018-09-05T07:15:00Z</time>
      </trkpt>
      <trkpt lat="45.834509" lon="13.548847">
        <ele>16.000</ele>
        <time>2018-09-05T07:15:02Z</time>
      </trkpt>
      <trkpt lat="45.834930" lon="13.548303">
        <ele>18.420</ele>
        <time>2018-09-05T07:15:19Z</time>
      </trkpt>
      <trkpt lat="45.835365" lon="13.547795">
        <ele>20.308</ele>
        <time>2018-09-05T07:15:38Z</time>
      </trkpt>
      <trkpt lat="45.835757" lon="13.547342">
        <ele>22.759</ele>
        <time>2018-09-05T07:15:55Z</time>
      </trkpt>
      <trkpt lat="45.836155" lon="13.546869">
        <ele>24.191</ele>
        <time>2018-09-05T07:16:12Z</time>
      </trkpt>
      <trkpt lat="45.836425" lon="13.546561">
        <ele>27.037</ele>
        <time>2018-09-05T07:16:26Z</time>
      </trkpt>
      <trkpt lat="45.836762" lon="13.546174">
        <ele>29.933</ele>
        <time>2018-09-05T07:16:46Z</time>
      </trkpt>
      <trkpt lat="45.837181" lon="13.545668">
        <ele>34.780</ele>
        <time>2018-09-05T07:17:10Z</time>
      </trkpt>
      <trkpt lat="45.837470" lon="13.545205">
        <ele>37.171</ele>
        <time>2018-09-05T07:17:28Z</time>
      </trkpt>
      <trkpt lat="45.837828" lon="13.544707">
        <ele>40.015</ele>
        <time>2018-09-05T07:17:49Z</time>
      </trkpt>
      <trkpt lat="45.838191" lon="13.544302">
        <ele>43.856</ele>
        <time>2018-09-05T07:18:11Z</time>
      </trkpt>
      <trkpt lat="45.838486" lon="13.543914">
        <ele>47.755</ele>
        <time>2018-09-05T07:18:31Z</time>
      </trkpt>
      <trkpt lat="45.838712" lon="13.543470">
        <ele>51.507</ele>
        <time>2018-09-05T07:18:51Z</time>
      </trkpt>
      <trkpt lat="45.838969" lon="13.543013">
        <ele>54.417</ele>
        <time>2018-09-05T07:19:11Z</time>
      </trkpt>
      <trkpt lat="45.839318" lon="13.542437">
        <ele>58.708</ele>
        <time>2018-09-05T07:19:36Z</time>
      </trkpt>
      <trkpt lat="45.839559" lon="13.541980">
        <ele>62.129</ele>
        <time>2018-09-05T07:19:54Z</time>
      </trkpt>
      <trkpt lat="45.839769" lon="13.541584">
        <ele>64.051</ele>
        <time>2018-09-05T07:20:10Z</time>
      </trkpt>
      <trkpt lat="45.840045" lon="13.541106">
        <ele>66.957</ele>
        <time>2018-09-05T07:20:29Z</time>
      </trkpt>
      <trkpt lat="45.840250" lon="13.540720">
        <ele>70.723</ele>
        <time>2018-09-05T07:20:45Z</time>
      </trkpt>
      <trkpt lat="45.840511" lon="13.540294">
        <ele>74.650</ele>
        <time>2018-09-05T07:21:03Z</time>
      </trkpt>
      <trkpt lat="45.840903" lon="13.540100">
        <ele>77.031</ele>
        <time>2018-09-05T07:21:21Z</time>
      </trkpt>
      <trkpt lat="45.841137" lon="13.539875">
        <ele>80.435</ele>
        <time>2018-09-05T07:21:36Z</time>
      </trkpt>
      <trkpt lat="45.841305" lon="13.539489">
        <ele>81.856</ele>
        <time>2018-09-05T07:21:52Z</time>
      </trkpt>
      <trkpt lat="45.841555" lon="13.539271">
        <ele>82.848</ele>
        <time>2018-09-05T07:22:06Z</time>
      </trkpt>
      <trkpt lat="45.841993" lon="13.538954">
        <ele>86.661</ele>
        <time>2018-09-05T07:22:28Z</time>
      </trkpt>
      <trkpt lat="45.842365" lon="13.538633">
        <ele>87.117</ele>
        <time>2018-09-05T07:22:45Z</time>
      </trkpt>
      <trkpt lat="45.842739" lon="13.538694">
        <ele>88.508</ele>
        <time>2018-09-05T07:23:02Z</time>
      </trkpt>
      <trkpt lat="45.842954" lon="13.539128">
        <ele>88.128</ele>
        <time>2018-09-05T07:23:17Z</time>
      </trkpt>
      <trkpt lat="45.843140" lon="13.539626">
        <ele>90.060</ele>
        <time>2018-09-05T07:23:32Z</time>
      </trkpt>
      <trkpt lat="45.843416" lon="13.540106">
        <ele>92.436</ele>
        <time>2018-09-05T07:23:48Z</time>
      </trkpt>
      <trkpt lat="45.843597" lon="13.540267">
        <ele>94.362</ele>
        <time>2018-09-05T07:23:56Z</time>
      </trkpt>
      <trkpt lat="45.843622" lon="13.540265">
        <ele>94.339</ele>
        <time>2018-09-05T07:23:57Z</time>
      </trkpt>
      <trkpt lat="45.843646" lon="13.540265">
        <ele>94.860</ele>
        <time>2018-09-05T07:23:58Z</time>
      </trkpt>
      <trkpt lat="45.843672" lon="13.540265">
        <ele>94.874</ele>
        <time>2018-09-05T07:23:59Z</time>
      </trkpt>
      <trkpt lat="45.843699" lon="13.540264">
        <ele>94.885</ele>
        <time>2018-09-05T07:24:00Z</time>
      </trkpt>
      <trkpt lat="45.844086" lon="13.540225">
        <ele>97.288</ele>
        <time>2018-09-05T07:24:15Z</time>
      </trkpt>
      <trkpt lat="45.844612" lon="13.540224">
        <ele>98.124</ele>
        <time>2018-09-05T07:24:32Z</time>
      </trkpt>
      <trkpt lat="45.845050" lon="13.540207">
        <ele>101.026</ele>
        <time>2018-09-05T07:24:46Z</time>
      </trkpt>
      <trkpt lat="45.845375" lon="13.539985">
        <ele>100.108</ele>
        <time>2018-09-05T07:25:00Z</time>
      </trkpt>
      <trkpt lat="45.845397" lon="13.539998">
        <ele>98.132</ele>
        <time>2018-09-05T07:25:21Z</time>
      </trkpt>
      <trkpt lat="45.845408" lon="13.539998">
        <ele>98.664</ele>
        <time>2018-09-05T07:25:22Z</time>
      </trkpt>
      <trkpt lat="45.845422" lon="13.539998">
        <ele>98.660</ele>
        <time>2018-09-05T07:25:23Z</time>
      </trkpt>
      <trkpt lat="45.845441" lon="13.539993">
        <ele>99.126</ele>
        <time>2018-09-05T07:25:24Z</time>
      </trkpt>
      <trkpt lat="45.845465" lon="13.539986">
        <ele>99.123</ele>
        <time>2018-09-05T07:25:25Z</time>
      </trkpt>
      <trkpt lat="45.845889" lon="13.539695">
        <ele>102.024</ele>
        <time>2018-09-05T07:25:40Z</time>
      </trkpt>
      <trkpt lat="45.846348" lon="13.539144">
        <ele>102.528</ele>
        <time>2018-09-05T07:25:57Z</time>
      </trkpt>
      <trkpt lat="45.847053" lon="13.538935">
        <ele>103.019</ele>
        <time>2018-09-05T07:26:14Z</time>
      </trkpt>
      <trkpt lat="45.847567" lon="13.538902">
        <ele>103.968</ele>
        <time>2018-09-05T07:26:28Z</time>
      </trkpt>
      <trkpt lat="45.848205" lon="13.538910">
        <ele>103.042</ele>
        <time>2018-09-05T07:26:44Z</time>
      </trkpt>
      <trkpt lat="45.848332" lon="13.538888">
        <ele>103.026</ele>
        <time>2018-09-05T07:26:47Z</time>
      </trkpt>
      <trkpt lat="45.848373" lon="13.538879">
        <ele>103.008</ele>
        <time>2018-09-05T07:26:48Z</time>
      </trkpt>
      <trkpt lat="45.848647" lon="13.538812">
        <ele>103.480</ele>
        <time>2018-09-05T07:26:55Z</time>
      </trkpt>
      <trkpt lat="45.848908" lon="13.538466">
        <ele>103.022</ele>
        <time>2018-09-05T07:27:05Z</time>
      </trkpt>
      <trkpt lat="45.849446" lon="13.537715">
        <ele>100.148</ele>
        <time>2018-09-05T07:27:19Z</time>
      </trkpt>
      <trkpt lat="45.849917" lon="13.537151">
        <ele>101.054</ele>
        <time>2018-09-05T07:27:32Z</time>
      </trkpt>
      <trkpt lat="45.850019" lon="13.536968">
        <ele>101.591</ele>
        <time>2018-09-05T07:27:36Z</time>
      </trkpt>
      <trkpt lat="45.850049" lon="13.536923">
        <ele>101.522</ele>
        <time>2018-09-05T07:27:37Z</time>
      </trkpt>
      <trkpt lat="45.850081" lon="13.536881">
        <ele>101.586</ele>
        <time>2018-09-05T07:27:38Z</time>
      </trkpt>
      <trkpt lat="45.850119" lon="13.536839">
        <ele>101.077</ele>
        <time>2018-09-05T07:27:39Z</time>
      </trkpt>
      <trkpt lat="45.850154" lon="13.536800">
        <ele>101.061</ele>
        <time>2018-09-05T07:27:40Z</time>
      </trkpt>
      <trkpt lat="45.850433" lon="13.536560">
        <ele>102.521</ele>
        <time>2018-09-05T07:27:47Z</time>
      </trkpt>
      <trkpt lat="45.850473" lon="13.536535">
        <ele>102.513</ele>
        <time>2018-09-05T07:27:48Z</time>
      </trkpt>
      <trkpt lat="45.850519" lon="13.536502">
        <ele>102.508</ele>
        <time>2018-09-05T07:27:49Z</time>
      </trkpt>
      <trkpt lat="45.850558" lon="13.536470">
        <ele>102.540</ele>
        <time>2018-09-05T07:27:50Z</time>
      </trkpt>
      <trkpt lat="45.850593" lon="13.536434">
        <ele>102.532</ele>
        <time>2018-09-05T07:27:51Z</time>
      </trkpt>
      <trkpt lat="45.850629" lon="13.536394">
        <ele>102.518</ele>
        <time>2018-09-05T07:27:52Z</time>
      </trkpt>
      <trkpt lat="45.850847" lon="13.536067">
        <ele>102.584</ele>
        <time>2018-09-05T07:27:59Z</time>
      </trkpt>
      <trkpt lat="45.850874" lon="13.536014">
        <ele>102.561</ele>
        <time>2018-09-05T07:28:00Z</time>
      </trkpt>
      <trkpt lat="45.851456" lon="13.535203">
        <ele>101.022</ele>
        <time>2018-09-05T07:28:17Z</time>
      </trkpt>
      <trkpt lat="45.851496" lon="13.535169">
        <ele>101.086</ele>
        <time>2018-09-05T07:28:18Z</time>
      </trkpt>
      <trkpt lat="45.851539" lon="13.535146">
        <ele>101.047</ele>
        <time>2018-09-05T07:28:19Z</time>
      </trkpt>
      <trkpt lat="45.851587" lon="13.535136">
        <ele>101.028</ele>
        <time>2018-09-05T07:28:20Z</time>
      </trkpt>
      <trkpt lat="45.851628" lon="13.535138">
        <ele>100.689</ele>
        <time>2018-09-05T07:28:21Z</time>
      </trkpt>
      <trkpt lat="45.851673" lon="13.535146">
        <ele>100.617</ele>
        <time>2018-09-05T07:28:22Z</time>
      </trkpt>
      <trkpt lat="45.852166" lon="13.535045">
        <ele>100.108</ele>
        <time>2018-09-05T07:28:35Z</time>
      </trkpt>
      <trkpt lat="45.852384" lon="13.534979">
        <ele>101.016</ele>
        <time>2018-09-05T07:28:42Z</time>
      </trkpt>
      <trkpt lat="45.852409" lon="13.535005">
        <ele>101.098</ele>
        <time>2018-09-05T07:28:43Z</time>
      </trkpt>
      <trkpt lat="45.852430" lon="13.535027">
        <ele>100.684</ele>
        <time>2018-09-05T07:28:44Z</time>
      </trkpt>
      <trkpt lat="45.852453" lon="13.535052">
        <ele>100.610</ele>
        <time>2018-09-05T07:28:45Z</time>
      </trkpt>
      <trkpt lat="45.852471" lon="13.535084">
        <ele>100.157</ele>
        <time>2018-09-05T07:28:46Z</time>
      </trkpt>
      <trkpt lat="45.852493" lon="13.535124">
        <ele>100.198</ele>
        <time>2018-09-05T07:28:47Z</time>
      </trkpt>
      <trkpt lat="45.852515" lon="13.535159">
        <ele>100.152</ele>
        <time>2018-09-05T07:28:48Z</time>
      </trkpt>
      <trkpt lat="45.852540" lon="13.535197">
        <ele>100.143</ele>
        <time>2018-09-05T07:28:49Z</time>
      </trkpt>
      <trkpt lat="45.852562" lon="13.535230">
        <ele>99.657</ele>
        <time>2018-09-05T07:28:50Z</time>
      </trkpt>
      <trkpt lat="45.852592" lon="13.535267">
        <ele>99.600</ele>
        <time>2018-09-05T07:28:51Z</time>
      </trkpt>
      <trkpt lat="45.852897" lon="13.535497">
        <ele>100.120</ele>
        <time>2018-09-05T07:29:02Z</time>
      </trkpt>
      <trkpt lat="45.853221" lon="13.535318">
        <ele>100.108</ele>
        <time>2018-09-05T07:29:12Z</time>
      </trkpt>
      <trkpt lat="45.853549" lon="13.534816">
        <ele>100.659</ele>
        <time>2018-09-05T07:29:26Z</time>
      </trkpt>
      <trkpt lat="45.853916" lon="13.534516">
        <ele>101.541</ele>
        <time>2018-09-05T07:29:40Z</time>
      </trkpt>
      <trkpt lat="45.854215" lon="13.534257">
        <ele>102.047</ele>
        <time>2018-09-05T07:29:51Z</time>
      </trkpt>
      <trkpt lat="45.854609" lon="13.533688">
        <ele>102.093</ele>
        <time>2018-09-05T07:30:06Z</time>
      </trkpt>
      <trkpt lat="45.854974" lon="13.533374">
        <ele>103.950</ele>
        <time>2018-09-05T07:30:19Z</time>
      </trkpt>
      <trkpt lat="45.855064" lon="13.533197">
        <ele>103.441</ele>
        <time>2018-09-05T07:30:23Z</time>
      </trkpt>
      <trkpt lat="45.855094" lon="13.533146">
        <ele>103.495</ele>
        <time>2018-09-05T07:30:24Z</time>
      </trkpt>
      <trkpt lat="45.855241" lon="13.532973">
        <ele>103.036</ele>
        <time>2018-09-05T07:30:28Z</time>
      </trkpt>
      <trkpt lat="45.855284" lon="13.532947">
        <ele>103.045</ele>
        <time>2018-09-05T07:30:29Z</time>
      </trkpt>
      <trkpt lat="45.855328" lon="13.532929">
        <ele>103.047</ele>
        <time>2018-09-05T07:30:30Z</time>
      </trkpt>
      <trkpt lat="45.855808" lon="13.532841">
        <ele>103.411</ele>
        <time>2018-09-05T07:30:42Z</time>
      </trkpt>
      <trkpt lat="45.856239" lon="13.533106">
        <ele>102.008</ele>
        <time>2018-09-05T07:30:55Z</time>
      </trkpt>
      <trkpt lat="45.856279" lon="13.533124">
        <ele>102.098</ele>
        <time>2018-09-05T07:30:56Z</time>
      </trkpt>
      <trkpt lat="45.856317" lon="13.533135">
        <ele>101.580</ele>
        <time>2018-09-05T07:30:57Z</time>
      </trkpt>
      <trkpt lat="45.856357" lon="13.533132">
        <ele>101.566</ele>
        <time>2018-09-05T07:30:58Z</time>
      </trkpt>
      <trkpt lat="45.856396" lon="13.533120">
        <ele>101.582</ele>
        <time>2018-09-05T07:30:59Z</time>
      </trkpt>
      <trkpt lat="45.856576" lon="13.533072">
        <ele>100.629</ele>
        <time>2018-09-05T07:31:03Z</time>
      </trkpt>
      <trkpt lat="45.857053" lon="13.532937">
        <ele>98.120</ele>
        <time>2018-09-05T07:31:12Z</time>
      </trkpt>
      <trkpt lat="45.857563" lon="13.532863">
        <ele>100.174</ele>
        <time>2018-09-05T07:31:26Z</time>
      </trkpt>
      <trkpt lat="45.858004" lon="13.532981">
        <ele>102.515</ele>
        <time>2018-09-05T07:31:42Z</time>
      </trkpt>
      <trkpt lat="45.858422" lon="13.533160">
        <ele>104.427</ele>
        <time>2018-09-05T07:31:59Z</time>
      </trkpt>
      <trkpt lat="45.858933" lon="13.533489">
        <ele>103.468</ele>
        <time>2018-09-05T07:32:17Z</time>
      </trkpt>
      <trkpt lat="45.859425" lon="13.533650">
        <ele>103.914</ele>
        <time>2018-09-05T07:32:32Z</time>
      </trkpt>
      <trkpt lat="45.859869" lon="13.533776">
        <ele>104.908</ele>
        <time>2018-09-05T07:32:48Z</time>
      </trkpt>
      <trkpt lat="45.860170" lon="13.533744">
        <ele>103.456</ele>
        <time>2018-09-05T07:32:56Z</time>
      </trkpt>
      <trkpt lat="45.860773" lon="13.533692">
        <ele>102.048</ele>
        <time>2018-09-05T07:33:11Z</time>
      </trkpt>
      <trkpt lat="45.861169" lon="13.533775">
        <ele>103.014</ele>
        <time>2018-09-05T07:33:27Z</time>
      </trkpt>
      <trkpt lat="45.861431" lon="13.533641">
        <ele>104.980</ele>
        <time>2018-09-05T07:33:39Z</time>
      </trkpt>
      <trkpt lat="45.861508" lon="13.533543">
        <ele>104.997</ele>
        <time>2018-09-05T07:33:43Z</time>
      </trkpt>
      <trkpt lat="45.861535" lon="13.533541">
        <ele>104.968</ele>
        <time>2018-09-05T07:33:44Z</time>
      </trkpt>
      <trkpt lat="45.861814" lon="13.533366">
        <ele>104.982</ele>
        <time>2018-09-05T07:33:54Z</time>
      </trkpt>
      <trkpt lat="45.862249" lon="13.532896">
        <ele>105.893</ele>
        <time>2018-09-05T07:34:12Z</time>
      </trkpt>
      <trkpt lat="45.862291" lon="13.532861">
        <ele>105.479</ele>
        <time>2018-09-05T07:34:20Z</time>
      </trkpt>
      <trkpt lat="45.862274" lon="13.532843">
        <ele>105.405</ele>
        <time>2018-09-05T07:34:57Z</time>
      </trkpt>
      <trkpt lat="45.862267" lon="13.532870">
        <ele>106.825</ele>
        <time>2018-09-05T07:35:42Z</time>
      </trkpt>
      <trkpt lat="45.862271" lon="13.532878">
        <ele>109.208</ele>
        <time>2018-09-05T07:36:12Z</time>
      </trkpt>
      <trkpt lat="45.862272" lon="13.532855">
        <ele>105.831</ele>
        <time>2018-09-05T07:36:55Z</time>
      </trkpt>
      <trkpt lat="45.862266" lon="13.532861">
        <ele>104.923</ele>
        <time>2018-09-05T07:37:26Z</time>
      </trkpt>
      <trkpt lat="45.862283" lon="13.532877">
        <ele>106.839</ele>
        <time>2018-09-05T07:37:48Z</time>
      </trkpt>
      <trkpt lat="45.862294" lon="13.532864">
        <ele>105.845</ele>
        <time>2018-09-05T07:38:19Z</time>
      </trkpt>
      <trkpt lat="45.862306" lon="13.532817">
        <ele>105.882</ele>
        <time>2018-09-05T07:38:49Z</time>
      </trkpt>
      <trkpt lat="45.862318" lon="13.532802">
        <ele>106.363</ele>
        <time>2018-09-05T07:38:53Z</time>
      </trkpt>
      <trkpt lat="45.862502" lon="13.532509">
        <ele>107.897</ele>
        <time>2018-09-05T07:39:07Z</time>
      </trkpt>
      <trkpt lat="45.862770" lon="13.532194">
        <ele>110.268</ele>
        <time>2018-09-05T07:39:24Z</time>
      </trkpt>
      <trkpt lat="45.863177" lon="13.531947">
        <ele>109.752</ele>
        <time>2018-09-05T07:39:40Z</time>
      </trkpt>
      <trkpt lat="45.863445" lon="13.531619">
        <ele>113.053</ele>
        <time>2018-09-05T07:39:55Z</time>
      </trkpt>
      <trkpt lat="45.863731" lon="13.531154">
        <ele>110.608</ele>
        <time>2018-09-05T07:40:10Z</time>
      </trkpt>
      <trkpt lat="45.863796" lon="13.531079">
        <ele>110.208</ele>
        <time>2018-09-05T07:40:12Z</time>
      </trkpt>
      <trkpt lat="45.863823" lon="13.531036">
        <ele>109.779</ele>
        <time>2018-09-05T07:40:13Z</time>
      </trkpt>
      <trkpt lat="45.863846" lon="13.530988">
        <ele>109.211</ele>
        <time>2018-09-05T07:40:14Z</time>
      </trkpt>
      <trkpt lat="45.863900" lon="13.530879">
        <ele>108.777</ele>
        <time>2018-09-05T07:40:16Z</time>
      </trkpt>
      <trkpt lat="45.864188" lon="13.530671">
        <ele>109.753</ele>
        <time>2018-09-05T07:40:26Z</time>
      </trkpt>
      <trkpt lat="45.864588" lon="13.530490">
        <ele>112.160</ele>
        <time>2018-09-05T07:40:44Z</time>
      </trkpt>
      <trkpt lat="45.864817" lon="13.530295">
        <ele>114.581</ele>
        <time>2018-09-05T07:40:58Z</time>
      </trkpt>
      <trkpt lat="45.865070" lon="13.530142">
        <ele>115.575</ele>
        <time>2018-09-05T07:41:15Z</time>
      </trkpt>
      <trkpt lat="45.865291" lon="13.530129">
        <ele>117.476</ele>
        <time>2018-09-05T07:41:30Z</time>
      </trkpt>
      <trkpt lat="45.865538" lon="13.530174">
        <ele>119.399</ele>
        <time>2018-09-05T07:41:46Z</time>
      </trkpt>
      <trkpt lat="45.865754" lon="13.530231">
        <ele>120.707</ele>
        <time>2018-09-05T07:41:59Z</time>
      </trkpt>
      <trkpt lat="45.865774" lon="13.530224">
        <ele>120.727</ele>
        <time>2018-09-05T07:42:00Z</time>
      </trkpt>
      <trkpt lat="45.865789" lon="13.530220">
        <ele>120.708</ele>
        <time>2018-09-05T07:42:01Z</time>
      </trkpt>
      <trkpt lat="45.865806" lon="13.530216">
        <ele>120.773</ele>
        <time>2018-09-05T07:42:02Z</time>
      </trkpt>
      <trkpt lat="45.865826" lon="13.530213">
        <ele>120.715</ele>
        <time>2018-09-05T07:42:03Z</time>
      </trkpt>
      <trkpt lat="45.865845" lon="13.530211">
        <ele>120.771</ele>
        <time>2018-09-05T07:42:04Z</time>
      </trkpt>
      <trkpt lat="45.866048" lon="13.530127">
        <ele>123.157</ele>
        <time>2018-09-05T07:42:18Z</time>
      </trkpt>
      <trkpt lat="45.866231" lon="13.529993">
        <ele>125.164</ele>
        <time>2018-09-05T07:42:33Z</time>
      </trkpt>
      <trkpt lat="45.866303" lon="13.529963">
        <ele>125.585</ele>
        <time>2018-09-05T07:42:38Z</time>
      </trkpt>
      <trkpt lat="45.866318" lon="13.529958">
        <ele>125.549</ele>
        <time>2018-09-05T07:42:39Z</time>
      </trkpt>
      <trkpt lat="45.866524" lon="13.529865">
        <ele>128.420</ele>
        <time>2018-09-05T07:42:53Z</time>
      </trkpt>
      <trkpt lat="45.866735" lon="13.529912">
        <ele>129.464</ele>
        <time>2018-09-05T07:43:08Z</time>
      </trkpt>
      <trkpt lat="45.866907" lon="13.530199">
        <ele>131.806</ele>
        <time>2018-09-05T07:43:22Z</time>
      </trkpt>
      <trkpt lat="45.867228" lon="13.530706">
        <ele>130.416</ele>
        <time>2018-09-05T07:43:36Z</time>
      </trkpt>
      <trkpt lat="45.867559" lon="13.531352">
        <ele>129.908</ele>
        <time>2018-09-05T07:43:53Z</time>
      </trkpt>
      <trkpt lat="45.867761" lon="13.531673">
        <ele>131.890</ele>
        <time>2018-09-05T07:44:07Z</time>
      </trkpt>
      <trkpt lat="45.868037" lon="13.532060">
        <ele>130.892</ele>
        <time>2018-09-05T07:44:22Z</time>
      </trkpt>
      <trkpt lat="45.868313" lon="13.532229">
        <ele>130.888</ele>
        <time>2018-09-05T07:44:36Z</time>
      </trkpt>
      <trkpt lat="45.868647" lon="13.532368">
        <ele>131.824</ele>
        <time>2018-09-05T07:44:51Z</time>
      </trkpt>
      <trkpt lat="45.868915" lon="13.532552">
        <ele>133.761</ele>
        <time>2018-09-05T07:45:06Z</time>
      </trkpt>
      <trkpt lat="45.869128" lon="13.532617">
        <ele>136.122</ele>
        <time>2018-09-05T07:45:19Z</time>
      </trkpt>
      <trkpt lat="45.869446" lon="13.532764">
        <ele>136.696</ele>
        <time>2018-09-05T07:45:35Z</time>
      </trkpt>
      <trkpt lat="45.869781" lon="13.532926">
        <ele>137.137</ele>
        <time>2018-09-05T07:45:49Z</time>
      </trkpt>
      <trkpt lat="45.870102" lon="13.532995">
        <ele>139.056</ele>
        <time>2018-09-05T07:46:04Z</time>
      </trkpt>
      <trkpt lat="45.870349" lon="13.532938">
        <ele>141.959</ele>
        <time>2018-09-05T07:46:18Z</time>
      </trkpt>
      <trkpt lat="45.870474" lon="13.532901">
        <ele>142.814</ele>
        <time>2018-09-05T07:46:25Z</time>
      </trkpt>
      <trkpt lat="45.870491" lon="13.532892">
        <ele>143.308</ele>
        <time>2018-09-05T07:46:26Z</time>
      </trkpt>
      <trkpt lat="45.870593" lon="13.532871">
        <ele>144.819</ele>
        <time>2018-09-05T07:46:32Z</time>
      </trkpt>
      <trkpt lat="45.870610" lon="13.532860">
        <ele>145.391</ele>
        <time>2018-09-05T07:46:33Z</time>
      </trkpt>
      <trkpt lat="45.870918" lon="13.532787">
        <ele>145.397</ele>
        <time>2018-09-05T07:46:47Z</time>
      </trkpt>
      <trkpt lat="45.871420" lon="13.532996">
        <ele>141.493</ele>
        <time>2018-09-05T07:46:59Z</time>
      </trkpt>
      <trkpt lat="45.871704" lon="13.533279">
        <ele>144.330</ele>
        <time>2018-09-05T07:47:11Z</time>
      </trkpt>
      <trkpt lat="45.872010" lon="13.533472">
        <ele>146.281</ele>
        <time>2018-09-05T07:47:24Z</time>
      </trkpt>
      <trkpt lat="45.872283" lon="13.533620">
        <ele>147.225</ele>
        <time>2018-09-05T07:47:38Z</time>
      </trkpt>
      <trkpt lat="45.872538" lon="13.533658">
        <ele>147.796</ele>
        <time>2018-09-05T07:47:52Z</time>
      </trkpt>
      <trkpt lat="45.872764" lon="13.533673">
        <ele>150.569</ele>
        <time>2018-09-05T07:48:05Z</time>
      </trkpt>
      <trkpt lat="45.873013" lon="13.533737">
        <ele>152.904</ele>
        <time>2018-09-05T07:48:18Z</time>
      </trkpt>
      <trkpt lat="45.873308" lon="13.533862">
        <ele>155.824</ele>
        <time>2018-09-05T07:48:36Z</time>
      </trkpt>
      <trkpt lat="45.873604" lon="13.533927">
        <ele>158.208</ele>
        <time>2018-09-05T07:48:54Z</time>
      </trkpt>
      <trkpt lat="45.873846" lon="13.534022">
        <ele>161.680</ele>
        <time>2018-09-05T07:49:10Z</time>
      </trkpt>
      <trkpt lat="45.874137" lon="13.534008">
        <ele>164.062</ele>
        <time>2018-09-05T07:49:28Z</time>
      </trkpt>
      <trkpt lat="45.874411" lon="13.533963">
        <ele>165.068</ele>
        <time>2018-09-05T07:49:43Z</time>
      </trkpt>
      <trkpt lat="45.874806" lon="13.534028">
        <ele>166.944</ele>
        <time>2018-09-05T07:50:00Z</time>
      </trkpt>
      <trkpt lat="45.875336" lon="13.534112">
        <ele>167.891</ele>
        <time>2018-09-05T07:50:19Z</time>
      </trkpt>
      <trkpt lat="45.875788" lon="13.534327">
        <ele>169.382</ele>
        <time>2018-09-05T07:50:34Z</time>
      </trkpt>
      <trkpt lat="45.876202" lon="13.534776">
        <ele>169.356</ele>
        <time>2018-09-05T07:50:49Z</time>
      </trkpt>
      <trkpt lat="45.876363" lon="13.534998">
        <ele>168.847</ele>
        <time>2018-09-05T07:51:00Z</time>
      </trkpt>
      <trkpt lat="45.876375" lon="13.535042">
        <ele>165.088</ele>
        <time>2018-09-05T07:51:28Z</time>
      </trkpt>
      <trkpt lat="45.876390" lon="13.535033">
        <ele>165.424</ele>
        <time>2018-09-05T07:51:30Z</time>
      </trkpt>
      <trkpt lat="45.876405" lon="13.535033">
        <ele>165.926</ele>
        <time>2018-09-05T07:51:31Z</time>
      </trkpt>
      <trkpt lat="45.876418" lon="13.535045">
        <ele>165.908</ele>
        <time>2018-09-05T07:51:32Z</time>
      </trkpt>
      <trkpt lat="45.876428" lon="13.535065">
        <ele>165.962</ele>
        <time>2018-09-05T07:51:33Z</time>
      </trkpt>
      <trkpt lat="45.876437" lon="13.535086">
        <ele>165.954</ele>
        <time>2018-09-05T07:51:34Z</time>
      </trkpt>
      <trkpt lat="45.876445" lon="13.535105">
        <ele>166.420</ele>
        <time>2018-09-05T07:51:35Z</time>
      </trkpt>
      <trkpt lat="45.876455" lon="13.535123">
        <ele>166.466</ele>
        <time>2018-09-05T07:51:36Z</time>
      </trkpt>
      <trkpt lat="45.876468" lon="13.535143">
        <ele>166.483</ele>
        <time>2018-09-05T07:51:37Z</time>
      </trkpt>
      <trkpt lat="45.876479" lon="13.535161">
        <ele>166.494</ele>
        <time>2018-09-05T07:51:38Z</time>
      </trkpt>
      <trkpt lat="45.876491" lon="13.535177">
        <ele>166.418</ele>
        <time>2018-09-05T07:51:39Z</time>
      </trkpt>
      <trkpt lat="45.876661" lon="13.535497">
        <ele>169.879</ele>
        <time>2018-09-05T07:51:54Z</time>
      </trkpt>
      <trkpt lat="45.876655" lon="13.535839">
        <ele>172.249</ele>
        <time>2018-09-05T07:52:06Z</time>
      </trkpt>
      <trkpt lat="45.876392" lon="13.536229">
        <ele>175.102</ele>
        <time>2018-09-05T07:52:24Z</time>
      </trkpt>
      <trkpt lat="45.876309" lon="13.536330">
        <ele>175.522</ele>
        <time>2018-09-05T07:52:30Z</time>
      </trkpt>
      <trkpt lat="45.876288" lon="13.536327">
        <ele>175.508</ele>
        <time>2018-09-05T07:52:31Z</time>
      </trkpt>
      <trkpt lat="45.876269" lon="13.536324">
        <ele>175.538</ele>
        <time>2018-09-05T07:52:32Z</time>
      </trkpt>
      <trkpt lat="45.876247" lon="13.536324">
        <ele>175.160</ele>
        <time>2018-09-05T07:52:33Z</time>
      </trkpt>
      <trkpt lat="45.876224" lon="13.536328">
        <ele>175.186</ele>
        <time>2018-09-05T07:52:34Z</time>
      </trkpt>
      <trkpt lat="45.876200" lon="13.536335">
        <ele>175.152</ele>
        <time>2018-09-05T07:52:35Z</time>
      </trkpt>
      <trkpt lat="45.875790" lon="13.536632">
        <ele>173.629</ele>
        <time>2018-09-05T07:52:49Z</time>
      </trkpt>
      <trkpt lat="45.875761" lon="13.537175">
        <ele>173.680</ele>
        <time>2018-09-05T07:53:00Z</time>
      </trkpt>
      <trkpt lat="45.875846" lon="13.537635">
        <ele>172.634</ele>
        <time>2018-09-05T07:53:08Z</time>
      </trkpt>
      <trkpt lat="45.875854" lon="13.537696">
        <ele>172.215</ele>
        <time>2018-09-05T07:53:09Z</time>
      </trkpt>
      <trkpt lat="45.875891" lon="13.537875">
        <ele>172.251</ele>
        <time>2018-09-05T07:53:12Z</time>
      </trkpt>
      <trkpt lat="45.875903" lon="13.537939">
        <ele>172.201</ele>
        <time>2018-09-05T07:53:13Z</time>
      </trkpt>
      <trkpt lat="45.875982" lon="13.538351">
        <ele>170.711</ele>
        <time>2018-09-05T07:53:19Z</time>
      </trkpt>
      <trkpt lat="45.875986" lon="13.538431">
        <ele>170.208</ele>
        <time>2018-09-05T07:53:20Z</time>
      </trkpt>
      <trkpt lat="45.875983" lon="13.538514">
        <ele>170.299</ele>
        <time>2018-09-05T07:53:21Z</time>
      </trkpt>
      <trkpt lat="45.875971" lon="13.538602">
        <ele>169.851</ele>
        <time>2018-09-05T07:53:22Z</time>
      </trkpt>
      <trkpt lat="45.875948" lon="13.538678">
        <ele>169.897</ele>
        <time>2018-09-05T07:53:23Z</time>
      </trkpt>
      <trkpt lat="45.875915" lon="13.538744">
        <ele>169.863</ele>
        <time>2018-09-05T07:53:24Z</time>
      </trkpt>
      <trkpt lat="45.875877" lon="13.538794">
        <ele>169.810</ele>
        <time>2018-09-05T07:53:25Z</time>
      </trkpt>
      <trkpt lat="45.875836" lon="13.538834">
        <ele>170.291</ele>
        <time>2018-09-05T07:53:26Z</time>
      </trkpt>
      <trkpt lat="45.875801" lon="13.538868">
        <ele>170.275</ele>
        <time>2018-09-05T07:53:27Z</time>
      </trkpt>
      <trkpt lat="45.875544" lon="13.539268">
        <ele>170.756</ele>
        <time>2018-09-05T07:53:39Z</time>
      </trkpt>
      <trkpt lat="45.875552" lon="13.539805">
        <ele>171.736</ele>
        <time>2018-09-05T07:53:51Z</time>
      </trkpt>
      <trkpt lat="45.875548" lon="13.540459">
        <ele>173.617</ele>
        <time>2018-09-05T07:54:06Z</time>
      </trkpt>
      <trkpt lat="45.875449" lon="13.541235">
        <ele>173.618</ele>
        <time>2018-09-05T07:54:22Z</time>
      </trkpt>
      <trkpt lat="45.875312" lon="13.542056">
        <ele>172.608</ele>
        <time>2018-09-05T07:54:35Z</time>
      </trkpt>
      <trkpt lat="45.875120" lon="13.542660">
        <ele>173.677</ele>
        <time>2018-09-05T07:54:46Z</time>
      </trkpt>
      <trkpt lat="45.875104" lon="13.542726">
        <ele>173.699</ele>
        <time>2018-09-05T07:54:47Z</time>
      </trkpt>
      <trkpt lat="45.875094" lon="13.542793">
        <ele>173.665</ele>
        <time>2018-09-05T07:54:48Z</time>
      </trkpt>
      <trkpt lat="45.875089" lon="13.542862">
        <ele>173.131</ele>
        <time>2018-09-05T07:54:49Z</time>
      </trkpt>
      <trkpt lat="45.875088" lon="13.542930">
        <ele>173.158</ele>
        <time>2018-09-05T07:54:50Z</time>
      </trkpt>
      <trkpt lat="45.875087" lon="13.542998">
        <ele>173.189</ele>
        <time>2018-09-05T07:54:51Z</time>
      </trkpt>
      <trkpt lat="45.875219" lon="13.543570">
        <ele>173.693</ele>
        <time>2018-09-05T07:55:03Z</time>
      </trkpt>
      <trkpt lat="45.875349" lon="13.543604">
        <ele>176.024</ele>
        <time>2018-09-05T07:55:15Z</time>
      </trkpt>
      <trkpt lat="45.875331" lon="13.543613">
        <ele>175.575</ele>
        <time>2018-09-05T07:55:28Z</time>
      </trkpt>
      <trkpt lat="45.875319" lon="13.543610">
        <ele>175.128</ele>
        <time>2018-09-05T07:55:29Z</time>
      </trkpt>
      <trkpt lat="45.875304" lon="13.543603">
        <ele>175.120</ele>
        <time>2018-09-05T07:55:30Z</time>
      </trkpt>
      <trkpt lat="45.875283" lon="13.543595">
        <ele>175.108</ele>
        <time>2018-09-05T07:55:31Z</time>
      </trkpt>
      <trkpt lat="45.875174" lon="13.543581">
        <ele>173.621</ele>
        <time>2018-09-05T07:55:35Z</time>
      </trkpt>
      <trkpt lat="45.875143" lon="13.543611">
        <ele>173.633</ele>
        <time>2018-09-05T07:55:36Z</time>
      </trkpt>
      <trkpt lat="45.875125" lon="13.543653">
        <ele>173.689</ele>
        <time>2018-09-05T07:55:37Z</time>
      </trkpt>
      <trkpt lat="45.875116" lon="13.543696">
        <ele>173.675</ele>
        <time>2018-09-05T07:55:38Z</time>
      </trkpt>
      <trkpt lat="45.875110" lon="13.543740">
        <ele>173.652</ele>
        <time>2018-09-05T07:55:39Z</time>
      </trkpt>
      <trkpt lat="45.875023" lon="13.544070">
        <ele>172.253</ele>
        <time>2018-09-05T07:55:51Z</time>
      </trkpt>
      <trkpt lat="45.874917" lon="13.544445">
        <ele>170.237</ele>
        <time>2018-09-05T07:56:02Z</time>
      </trkpt>
      <trkpt lat="45.874844" lon="13.545017">
        <ele>171.228</ele>
        <time>2018-09-05T07:56:13Z</time>
      </trkpt>
      <trkpt lat="45.874879" lon="13.545700">
        <ele>171.753</ele>
        <time>2018-09-05T07:56:27Z</time>
      </trkpt>
      <trkpt lat="45.874958" lon="13.546381">
        <ele>170.204</ele>
        <time>2018-09-05T07:56:41Z</time>
      </trkpt>
      <trkpt lat="45.875100" lon="13.547064">
        <ele>168.814</ele>
        <time>2018-09-05T07:56:54Z</time>
      </trkpt>
      <trkpt lat="45.875224" lon="13.547524">
        <ele>164.508</ele>
        <time>2018-09-05T07:57:03Z</time>
      </trkpt>
      <trkpt lat="45.875251" lon="13.547652">
        <ele>163.069</ele>
        <time>2018-09-05T07:57:05Z</time>
      </trkpt>
      <trkpt lat="45.875343" lon="13.548314">
        <ele>160.621</ele>
        <time>2018-09-05T07:57:14Z</time>
      </trkpt>
      <trkpt lat="45.875353" lon="13.548381">
        <ele>160.637</ele>
        <time>2018-09-05T07:57:15Z</time>
      </trkpt>
      <trkpt lat="45.875362" lon="13.548441">
        <ele>160.213</ele>
        <time>2018-09-05T07:57:16Z</time>
      </trkpt>
      <trkpt lat="45.875507" lon="13.549252">
        <ele>157.740</ele>
        <time>2018-09-05T07:57:29Z</time>
      </trkpt>
      <trkpt lat="45.875546" lon="13.549780">
        <ele>160.671</ele>
        <time>2018-09-05T07:57:38Z</time>
      </trkpt>
      <trkpt lat="45.875538" lon="13.549845">
        <ele>160.635</ele>
        <time>2018-09-05T07:57:39Z</time>
      </trkpt>
      <trkpt lat="45.875500" lon="13.550340">
        <ele>161.666</ele>
        <time>2018-09-05T07:57:45Z</time>
      </trkpt>
      <trkpt lat="45.875504" lon="13.550428">
        <ele>161.652</ele>
        <time>2018-09-05T07:57:46Z</time>
      </trkpt>
      <trkpt lat="45.875513" lon="13.550524">
        <ele>161.653</ele>
        <time>2018-09-05T07:57:47Z</time>
      </trkpt>
      <trkpt lat="45.875526" lon="13.550604">
        <ele>161.608</ele>
        <time>2018-09-05T07:57:48Z</time>
      </trkpt>
      <trkpt lat="45.875543" lon="13.550684">
        <ele>161.608</ele>
        <time>2018-09-05T07:57:49Z</time>
      </trkpt>
      <trkpt lat="45.875667" lon="13.551482">
        <ele>158.239</ele>
        <time>2018-09-05T07:57:58Z</time>
      </trkpt>
      <trkpt lat="45.875669" lon="13.551578">
        <ele>157.721</ele>
        <time>2018-09-05T07:57:59Z</time>
      </trkpt>
      <trkpt lat="45.875664" lon="13.551688">
        <ele>157.767</ele>
        <time>2018-09-05T07:58:00Z</time>
      </trkpt>
      <trkpt lat="45.875656" lon="13.551776">
        <ele>158.263</ele>
        <time>2018-09-05T07:58:01Z</time>
      </trkpt>
      <trkpt lat="45.875641" lon="13.551864">
        <ele>158.720</ele>
        <time>2018-09-05T07:58:02Z</time>
      </trkpt>
      <trkpt lat="45.875625" lon="13.551937">
        <ele>159.791</ele>
        <time>2018-09-05T07:58:03Z</time>
      </trkpt>
      <trkpt lat="45.875635" lon="13.552555">
        <ele>165.455</ele>
        <time>2018-09-05T07:58:15Z</time>
      </trkpt>
      <trkpt lat="45.875816" lon="13.553199">
        <ele>169.826</ele>
        <time>2018-09-05T07:58:30Z</time>
      </trkpt>
      <trkpt lat="45.875900" lon="13.553937">
        <ele>173.697</ele>
        <time>2018-09-05T07:58:45Z</time>
      </trkpt>
      <trkpt lat="45.875922" lon="13.554294">
        <ele>174.123</ele>
        <time>2018-09-05T07:58:51Z</time>
      </trkpt>
      <trkpt lat="45.875932" lon="13.554433">
        <ele>173.625</ele>
        <time>2018-09-05T07:58:53Z</time>
      </trkpt>
      <trkpt lat="45.875934" lon="13.554498">
        <ele>173.608</ele>
        <time>2018-09-05T07:58:54Z</time>
      </trkpt>
      <trkpt lat="45.875939" lon="13.554564">
        <ele>174.153</ele>
        <time>2018-09-05T07:58:55Z</time>
      </trkpt>
      <trkpt lat="45.876053" lon="13.555358">
        <ele>172.615</ele>
        <time>2018-09-05T07:59:09Z</time>
      </trkpt>
      <trkpt lat="45.876128" lon="13.556355">
        <ele>173.671</ele>
        <time>2018-09-05T07:59:25Z</time>
      </trkpt>
      <trkpt lat="45.876189" lon="13.557075">
        <ele>172.667</ele>
        <time>2018-09-05T07:59:35Z</time>
      </trkpt>
      <trkpt lat="45.876213" lon="13.557154">
        <ele>172.214</ele>
        <time>2018-09-05T07:59:36Z</time>
      </trkpt>
      <trkpt lat="45.876242" lon="13.557222">
        <ele>172.245</ele>
        <time>2018-09-05T07:59:37Z</time>
      </trkpt>
      <trkpt lat="45.876278" lon="13.557285">
        <ele>172.229</ele>
        <time>2018-09-05T07:59:38Z</time>
      </trkpt>
      <trkpt lat="45.876314" lon="13.557337">
        <ele>171.760</ele>
        <time>2018-09-05T07:59:39Z</time>
      </trkpt>
      <trkpt lat="45.876352" lon="13.557384">
        <ele>172.255</ele>
        <time>2018-09-05T07:59:40Z</time>
      </trkpt>
      <trkpt lat="45.876394" lon="13.557418">
        <ele>172.607</ele>
        <time>2018-09-05T07:59:41Z</time>
      </trkpt>
      <trkpt lat="45.876435" lon="13.557445">
        <ele>172.617</ele>
        <time>2018-09-05T07:59:42Z</time>
      </trkpt>
      <trkpt lat="45.876472" lon="13.557467">
        <ele>173.108</ele>
        <time>2018-09-05T07:59:43Z</time>
      </trkpt>
      <trkpt lat="45.876939" lon="13.557578">
        <ele>176.079</ele>
        <time>2018-09-05T07:59:57Z</time>
      </trkpt>
      <trkpt lat="45.877470" lon="13.557922">
        <ele>175.181</ele>
        <time>2018-09-05T08:00:12Z</time>
      </trkpt>
      <trkpt lat="45.877652" lon="13.558034">
        <ele>175.157</ele>
        <time>2018-09-05T08:00:17Z</time>
      </trkpt>
      <trkpt lat="45.877982" lon="13.558437">
        <ele>174.643</ele>
        <time>2018-09-05T08:00:27Z</time>
      </trkpt>
      <trkpt lat="45.878008" lon="13.558490">
        <ele>174.670</ele>
        <time>2018-09-05T08:00:28Z</time>
      </trkpt>
      <trkpt lat="45.878032" lon="13.558546">
        <ele>174.161</ele>
        <time>2018-09-05T08:00:29Z</time>
      </trkpt>
      <trkpt lat="45.878052" lon="13.558606">
        <ele>174.145</ele>
        <time>2018-09-05T08:00:30Z</time>
      </trkpt>
      <trkpt lat="45.878072" lon="13.558668">
        <ele>174.136</ele>
        <time>2018-09-05T08:00:31Z</time>
      </trkpt>
      <trkpt lat="45.878234" lon="13.559040">
        <ele>173.676</ele>
        <time>2018-09-05T08:00:37Z</time>
      </trkpt>
      <trkpt lat="45.878251" lon="13.559116">
        <ele>173.690</ele>
        <time>2018-09-05T08:00:38Z</time>
      </trkpt>
      <trkpt lat="45.878262" lon="13.559199">
        <ele>173.119</ele>
        <time>2018-09-05T08:00:39Z</time>
      </trkpt>
      <trkpt lat="45.878281" lon="13.559372">
        <ele>172.608</ele>
        <time>2018-09-05T08:00:41Z</time>
      </trkpt>
      <trkpt lat="45.878303" lon="13.559456">
        <ele>172.681</ele>
        <time>2018-09-05T08:00:42Z</time>
      </trkpt>
      <trkpt lat="45.878340" lon="13.559531">
        <ele>172.663</ele>
        <time>2018-09-05T08:00:43Z</time>
      </trkpt>
      <trkpt lat="45.878380" lon="13.559578">
        <ele>172.699</ele>
        <time>2018-09-05T08:00:44Z</time>
      </trkpt>
      <trkpt lat="45.878425" lon="13.559615">
        <ele>173.155</ele>
        <time>2018-09-05T08:00:45Z</time>
      </trkpt>
      <trkpt lat="45.878653" lon="13.559924">
        <ele>178.412</ele>
        <time>2018-09-05T08:00:55Z</time>
      </trkpt>
      <trkpt lat="45.878729" lon="13.560417">
        <ele>180.873</ele>
        <time>2018-09-05T08:01:10Z</time>
      </trkpt>
      <trkpt lat="45.878810" lon="13.560688">
        <ele>182.737</ele>
        <time>2018-09-05T08:01:22Z</time>
      </trkpt>
      <trkpt lat="45.878810" lon="13.560705">
        <ele>182.788</ele>
        <time>2018-09-05T08:01:23Z</time>
      </trkpt>
      <trkpt lat="45.878812" lon="13.560725">
        <ele>183.265</ele>
        <time>2018-09-05T08:01:24Z</time>
      </trkpt>
      <trkpt lat="45.878817" lon="13.560744">
        <ele>183.768</ele>
        <time>2018-09-05T08:01:25Z</time>
      </trkpt>
      <trkpt lat="45.878824" lon="13.560764">
        <ele>183.714</ele>
        <time>2018-09-05T08:01:26Z</time>
      </trkpt>
      <trkpt lat="45.878849" lon="13.560827">
        <ele>184.208</ele>
        <time>2018-09-05T08:01:30Z</time>
      </trkpt>
      <trkpt lat="45.878858" lon="13.560842">
        <ele>184.750</ele>
        <time>2018-09-05T08:01:31Z</time>
      </trkpt>
      <trkpt lat="45.878866" lon="13.560860">
        <ele>184.712</ele>
        <time>2018-09-05T08:01:32Z</time>
      </trkpt>
      <trkpt lat="45.878922" lon="13.561041">
        <ele>186.688</ele>
        <time>2018-09-05T08:01:42Z</time>
      </trkpt>
      <trkpt lat="45.878904" lon="13.561429">
        <ele>186.194</ele>
        <time>2018-09-05T08:01:57Z</time>
      </trkpt>
      <trkpt lat="45.878943" lon="13.561865">
        <ele>184.261</ele>
        <time>2018-09-05T08:02:04Z</time>
      </trkpt>
      <trkpt lat="45.879044" lon="13.562115">
        <ele>184.212</ele>
        <time>2018-09-05T08:02:10Z</time>
      </trkpt>
      <trkpt lat="45.879060" lon="13.562114">
        <ele>184.236</ele>
        <time>2018-09-05T08:02:11Z</time>
      </trkpt>
      <trkpt lat="45.879040" lon="13.562057">
        <ele>184.257</ele>
        <time>2018-09-05T08:02:14Z</time>
      </trkpt>
      <trkpt lat="45.879025" lon="13.562037">
        <ele>184.226</ele>
        <time>2018-09-05T08:02:15Z</time>
      </trkpt>
      <trkpt lat="45.879008" lon="13.562014">
        <ele>184.747</ele>
        <time>2018-09-05T08:02:16Z</time>
      </trkpt>
      <trkpt lat="45.878992" lon="13.561986">
        <ele>184.711</ele>
        <time>2018-09-05T08:02:17Z</time>
      </trkpt>
      <trkpt lat="45.878976" lon="13.561954">
        <ele>184.708</ele>
        <time>2018-09-05T08:02:18Z</time>
      </trkpt>
      <trkpt lat="45.878962" lon="13.561921">
        <ele>184.726</ele>
        <time>2018-09-05T08:02:19Z</time>
      </trkpt>
      <trkpt lat="45.878953" lon="13.561887">
        <ele>184.778</ele>
        <time>2018-09-05T08:02:20Z</time>
      </trkpt>
      <trkpt lat="45.878947" lon="13.561853">
        <ele>184.744</ele>
        <time>2018-09-05T08:02:21Z</time>
      </trkpt>
      <trkpt lat="45.878919" lon="13.561770">
        <ele>185.150</ele>
        <time>2018-09-05T08:02:24Z</time>
      </trkpt>
      <trkpt lat="45.878886" lon="13.561813">
        <ele>184.717</ele>
        <time>2018-09-05T08:02:26Z</time>
      </trkpt>
      <trkpt lat="45.878885" lon="13.561940">
        <ele>183.788</ele>
        <time>2018-09-05T08:02:28Z</time>
      </trkpt>
      <trkpt lat="45.878809" lon="13.562780">
        <ele>179.462</ele>
        <time>2018-09-05T08:02:38Z</time>
      </trkpt>
      <trkpt lat="45.878759" lon="13.562931">
        <ele>177.543</ele>
        <time>2018-09-05T08:02:46Z</time>
      </trkpt>
      <trkpt lat="45.878761" lon="13.562952">
        <ele>177.054</ele>
        <time>2018-09-05T08:02:47Z</time>
      </trkpt>
      <trkpt lat="45.878763" lon="13.562970">
        <ele>177.056</ele>
        <time>2018-09-05T08:02:48Z</time>
      </trkpt>
      <trkpt lat="45.878765" lon="13.562992">
        <ele>176.511</ele>
        <time>2018-09-05T08:02:49Z</time>
      </trkpt>
      <trkpt lat="45.878763" lon="13.563018">
        <ele>176.508</ele>
        <time>2018-09-05T08:02:50Z</time>
      </trkpt>
      <trkpt lat="45.878760" lon="13.563042">
        <ele>176.519</ele>
        <time>2018-09-05T08:02:51Z</time>
      </trkpt>
      <trkpt lat="45.878757" lon="13.563066">
        <ele>176.551</ele>
        <time>2018-09-05T08:02:52Z</time>
      </trkpt>
      <trkpt lat="45.878752" lon="13.563092">
        <ele>176.087</ele>
        <time>2018-09-05T08:02:53Z</time>
      </trkpt>
      <trkpt lat="45.878704" lon="13.563646">
        <ele>173.613</ele>
        <time>2018-09-05T08:03:04Z</time>
      </trkpt>
      <trkpt lat="45.878693" lon="13.563720">
        <ele>173.190</ele>
        <time>2018-09-05T08:03:05Z</time>
      </trkpt>
      <trkpt lat="45.878677" lon="13.563787">
        <ele>173.161</ele>
        <time>2018-09-05T08:03:06Z</time>
      </trkpt>
      <trkpt lat="45.878655" lon="13.563853">
        <ele>172.655</ele>
        <time>2018-09-05T08:03:07Z</time>
      </trkpt>
      <trkpt lat="45.878420" lon="13.564342">
        <ele>175.116</ele>
        <time>2018-09-05T08:03:18Z</time>
      </trkpt>
      <trkpt lat="45.878227" lon="13.564630">
        <ele>177.034</ele>
        <time>2018-09-05T08:03:31Z</time>
      </trkpt>
      <trkpt lat="45.878078" lon="13.564819">
        <ele>182.355</ele>
        <time>2018-09-05T08:03:44Z</time>
      </trkpt>
      <trkpt lat="45.877935" lon="13.564960">
        <ele>186.610</ele>
        <time>2018-09-05T08:03:57Z</time>
      </trkpt>
      <trkpt lat="45.877784" lon="13.565139">
        <ele>192.408</ele>
        <time>2018-09-05T08:04:12Z</time>
      </trkpt>
      <trkpt lat="45.877642" lon="13.565313">
        <ele>194.367</ele>
        <time>2018-09-05T08:04:25Z</time>
      </trkpt>
      <trkpt lat="45.877582" lon="13.565385">
        <ele>195.219</ele>
        <time>2018-09-05T08:04:30Z</time>
      </trkpt>
      <trkpt lat="45.877346" lon="13.565646">
        <ele>198.125</ele>
        <time>2018-09-05T08:04:43Z</time>
      </trkpt>
      <trkpt lat="45.877207" lon="13.566064">
        <ele>194.321</ele>
        <time>2018-09-05T08:04:54Z</time>
      </trkpt>
      <trkpt lat="45.877280" lon="13.566541">
        <ele>192.488</ele>
        <time>2018-09-05T08:05:08Z</time>
      </trkpt>
      <trkpt lat="45.877407" lon="13.567012">
        <ele>189.029</ele>
        <time>2018-09-05T08:05:23Z</time>
      </trkpt>
      <trkpt lat="45.877489" lon="13.567471">
        <ele>188.553</ele>
        <time>2018-09-05T08:05:36Z</time>
      </trkpt>
      <trkpt lat="45.877447" lon="13.567861">
        <ele>185.694</ele>
        <time>2018-09-05T08:05:48Z</time>
      </trkpt>
      <trkpt lat="45.877440" lon="13.567875">
        <ele>185.683</ele>
        <time>2018-09-05T08:05:49Z</time>
      </trkpt>
      <trkpt lat="45.877230" lon="13.568085">
        <ele>185.625</ele>
        <time>2018-09-05T08:06:01Z</time>
      </trkpt>
      <trkpt lat="45.877109" lon="13.568157">
        <ele>185.117</ele>
        <time>2018-09-05T08:06:04Z</time>
      </trkpt>
      <trkpt lat="45.876946" lon="13.568258">
        <ele>183.208</ele>
        <time>2018-09-05T08:06:08Z</time>
      </trkpt>
      <trkpt lat="45.876902" lon="13.568278">
        <ele>182.762</ele>
        <time>2018-09-05T08:06:09Z</time>
      </trkpt>
      <trkpt lat="45.876855" lon="13.568298">
        <ele>182.324</ele>
        <time>2018-09-05T08:06:10Z</time>
      </trkpt>
      <trkpt lat="45.876809" lon="13.568321">
        <ele>181.860</ele>
        <time>2018-09-05T08:06:11Z</time>
      </trkpt>
      <trkpt lat="45.876762" lon="13.568352">
        <ele>181.376</ele>
        <time>2018-09-05T08:06:12Z</time>
      </trkpt>
      <trkpt lat="45.876710" lon="13.568389">
        <ele>180.873</ele>
        <time>2018-09-05T08:06:13Z</time>
      </trkpt>
      <trkpt lat="45.876244" lon="13.568755">
        <ele>176.514</ele>
        <time>2018-09-05T08:06:22Z</time>
      </trkpt>
      <trkpt lat="45.876148" lon="13.568802">
        <ele>176.048</ele>
        <time>2018-09-05T08:06:24Z</time>
      </trkpt>
      <trkpt lat="45.875990" lon="13.568849">
        <ele>174.649</ele>
        <time>2018-09-05T08:06:27Z</time>
      </trkpt>
      <trkpt lat="45.875935" lon="13.568876">
        <ele>174.692</ele>
        <time>2018-09-05T08:06:28Z</time>
      </trkpt>
      <trkpt lat="45.875881" lon="13.568907">
        <ele>174.173</ele>
        <time>2018-09-05T08:06:29Z</time>
      </trkpt>
      <trkpt lat="45.875692" lon="13.569055">
        <ele>173.620</ele>
        <time>2018-09-05T08:06:33Z</time>
      </trkpt>
      <trkpt lat="45.875653" lon="13.569102">
        <ele>173.608</ele>
        <time>2018-09-05T08:06:34Z</time>
      </trkpt>
      <trkpt lat="45.875431" lon="13.569465">
        <ele>175.193</ele>
        <time>2018-09-05T08:06:45Z</time>
      </trkpt>
      <trkpt lat="45.875217" lon="13.569932">
        <ele>177.965</ele>
        <time>2018-09-05T08:07:03Z</time>
      </trkpt>
      <trkpt lat="45.874993" lon="13.570304">
        <ele>178.971</ele>
        <time>2018-09-05T08:07:18Z</time>
      </trkpt>
      <trkpt lat="45.874724" lon="13.570805">
        <ele>179.967</ele>
        <time>2018-09-05T08:07:35Z</time>
      </trkpt>
      <trkpt lat="45.874574" lon="13.571441">
        <ele>180.394</ele>
        <time>2018-09-05T08:07:51Z</time>
      </trkpt>
      <trkpt lat="45.874423" lon="13.571832">
        <ele>182.765</ele>
        <time>2018-09-05T08:08:03Z</time>
      </trkpt>
      <trkpt lat="45.874387" lon="13.572208">
        <ele>185.159</ele>
        <time>2018-09-05T08:08:19Z</time>
      </trkpt>
      <trkpt lat="45.874406" lon="13.572618">
        <ele>188.040</ele>
        <time>2018-09-05T08:08:36Z</time>
      </trkpt>
      <trkpt lat="45.874360" lon="13.573015">
        <ele>188.523</ele>
        <time>2018-09-05T08:08:50Z</time>
      </trkpt>
      <trkpt lat="45.874217" lon="13.573540">
        <ele>188.583</ele>
        <time>2018-09-05T08:09:07Z</time>
      </trkpt>
      <trkpt lat="45.874145" lon="13.573717">
        <ele>189.511</ele>
        <time>2018-09-05T08:09:19Z</time>
      </trkpt>
      <trkpt lat="45.874131" lon="13.573751">
        <ele>190.908</ele>
        <time>2018-09-05T08:09:50Z</time>
      </trkpt>
      <trkpt lat="45.874121" lon="13.573762">
        <ele>190.986</ele>
        <time>2018-09-05T08:09:51Z</time>
      </trkpt>
      <trkpt lat="45.874114" lon="13.573777">
        <ele>190.938</ele>
        <time>2018-09-05T08:09:52Z</time>
      </trkpt>
      <trkpt lat="45.874103" lon="13.573794">
        <ele>190.454</ele>
        <time>2018-09-05T08:09:53Z</time>
      </trkpt>
      <trkpt lat="45.874091" lon="13.573813">
        <ele>190.450</ele>
        <time>2018-09-05T08:09:54Z</time>
      </trkpt>
      <trkpt lat="45.874076" lon="13.573833">
        <ele>190.457</ele>
        <time>2018-09-05T08:09:55Z</time>
      </trkpt>
      <trkpt lat="45.874061" lon="13.573853">
        <ele>190.448</ele>
        <time>2018-09-05T08:09:56Z</time>
      </trkpt>
      <trkpt lat="45.874047" lon="13.573872">
        <ele>190.412</ele>
        <time>2018-09-05T08:09:57Z</time>
      </trkpt>
      <trkpt lat="45.873850" lon="13.574049">
        <ele>190.023</ele>
        <time>2018-09-05T08:10:11Z</time>
      </trkpt>
      <trkpt lat="45.873753" lon="13.574121">
        <ele>189.085</ele>
        <time>2018-09-05T08:10:20Z</time>
      </trkpt>
      <trkpt lat="45.873752" lon="13.574133">
        <ele>190.489</ele>
        <time>2018-09-05T08:10:37Z</time>
      </trkpt>
      <trkpt lat="45.873747" lon="13.574120">
        <ele>190.017</ele>
        <time>2018-09-05T08:11:20Z</time>
      </trkpt>
      <trkpt lat="45.873735" lon="13.574125">
        <ele>190.908</ele>
        <time>2018-09-05T08:11:40Z</time>
      </trkpt>
      <trkpt lat="45.873723" lon="13.574129">
        <ele>190.942</ele>
        <time>2018-09-05T08:11:42Z</time>
      </trkpt>
      <trkpt lat="45.873710" lon="13.574132">
        <ele>190.984</ele>
        <time>2018-09-05T08:11:43Z</time>
      </trkpt>
      <trkpt lat="45.873699" lon="13.574138">
        <ele>190.930</ele>
        <time>2018-09-05T08:11:44Z</time>
      </trkpt>
      <trkpt lat="45.873686" lon="13.574145">
        <ele>190.986</ele>
        <time>2018-09-05T08:11:45Z</time>
      </trkpt>
      <trkpt lat="45.873672" lon="13.574157">
        <ele>190.953</ele>
        <time>2018-09-05T08:11:46Z</time>
      </trkpt>
      <trkpt lat="45.873656" lon="13.574173">
        <ele>190.934</ele>
        <time>2018-09-05T08:11:47Z</time>
      </trkpt>
      <trkpt lat="45.873381" lon="13.574432">
        <ele>191.438</ele>
        <time>2018-09-05T08:12:02Z</time>
      </trkpt>
      <trkpt lat="45.873337" lon="13.574487">
        <ele>191.499</ele>
        <time>2018-09-05T08:12:06Z</time>
      </trkpt>
      <trkpt lat="45.873332" lon="13.574504">
        <ele>191.454</ele>
        <time>2018-09-05T08:12:07Z</time>
      </trkpt>
      <trkpt lat="45.873331" lon="13.574522">
        <ele>191.456</ele>
        <time>2018-09-05T08:12:08Z</time>
      </trkpt>
      <trkpt lat="45.873345" lon="13.574642">
        <ele>190.911</ele>
        <time>2018-09-05T08:12:21Z</time>
      </trkpt>
      <trkpt lat="45.873373" lon="13.574697">
        <ele>188.508</ele>
        <time>2018-09-05T08:12:34Z</time>
      </trkpt>
      <trkpt lat="45.873356" lon="13.574681">
        <ele>190.939</ele>
        <time>2018-09-05T08:12:54Z</time>
      </trkpt>
      <trkpt lat="45.873304" lon="13.574638">
        <ele>195.271</ele>
        <time>2018-09-05T08:13:08Z</time>
      </trkpt>
      <trkpt lat="45.873295" lon="13.574585">
        <ele>195.787</ele>
        <time>2018-09-05T08:13:23Z</time>
      </trkpt>
      <trkpt lat="45.873290" lon="13.574565">
        <ele>195.783</ele>
        <time>2018-09-05T08:13:24Z</time>
      </trkpt>
      <trkpt lat="45.873283" lon="13.574546">
        <ele>195.730</ele>
        <time>2018-09-05T08:13:25Z</time>
      </trkpt>
      <trkpt lat="45.873273" lon="13.574529">
        <ele>195.731</ele>
        <time>2018-09-05T08:13:26Z</time>
      </trkpt>
      <trkpt lat="45.873260" lon="13.574521">
        <ele>195.245</ele>
        <time>2018-09-05T08:13:27Z</time>
      </trkpt>
      <trkpt lat="45.873249" lon="13.574525">
        <ele>195.276</ele>
        <time>2018-09-05T08:13:28Z</time>
      </trkpt>
      <trkpt lat="45.873209" lon="13.574593">
        <ele>194.865</ele>
        <time>2018-09-05T08:13:33Z</time>
      </trkpt>
      <trkpt lat="45.873205" lon="13.574612">
        <ele>194.868</ele>
        <time>2018-09-05T08:13:34Z</time>
      </trkpt>
      <trkpt lat="45.873199" lon="13.574634">
        <ele>194.314</ele>
        <time>2018-09-05T08:13:35Z</time>
      </trkpt>
      <trkpt lat="45.873190" lon="13.574657">
        <ele>194.308</ele>
        <time>2018-09-05T08:13:36Z</time>
      </trkpt>
      <trkpt lat="45.873090" lon="13.574882">
        <ele>190.910</ele>
        <time>2018-09-05T08:14:12Z</time>
      </trkpt>
      <trkpt lat="45.873194" lon="13.574673">
        <ele>190.482</ele>
        <time>2018-09-05T08:14:27Z</time>
      </trkpt>
      <trkpt lat="45.873270" lon="13.574543">
        <ele>189.058</ele>
        <time>2018-09-05T08:14:34Z</time>
      </trkpt>
      <trkpt lat="45.873282" lon="13.574543">
        <ele>188.514</ele>
        <time>2018-09-05T08:14:35Z</time>
      </trkpt>
      <trkpt lat="45.873304" lon="13.574545">
        <ele>189.541</ele>
        <time>2018-09-05T08:14:48Z</time>
      </trkpt>
      <trkpt lat="45.873294" lon="13.574534">
        <ele>191.952</ele>
        <time>2018-09-05T08:15:12Z</time>
      </trkpt>
      <trkpt lat="45.873306" lon="13.574570">
        <ele>190.946</ele>
        <time>2018-09-05T08:15:39Z</time>
      </trkpt>
      <trkpt lat="45.873317" lon="13.574564">
        <ele>192.897</ele>
        <time>2018-09-05T08:15:58Z</time>
      </trkpt>
      <trkpt lat="45.873314" lon="13.574632">
        <ele>192.489</ele>
        <time>2018-09-05T08:16:09Z</time>
      </trkpt>
      <trkpt lat="45.873412" lon="13.574779">
        <ele>193.306</ele>
        <time>2018-09-05T08:16:20Z</time>
      </trkpt>
      <trkpt lat="45.873982" lon="13.575730">
        <ele>203.426</ele>
        <time>2018-09-05T08:18:43Z</time>
      </trkpt>
      <trkpt lat="45.874296" lon="13.575750">
        <ele>189.508</ele>
        <time>2018-09-05T08:18:57Z</time>
      </trkpt>
      <trkpt lat="45.874492" lon="13.575634">
        <ele>189.022</ele>
        <time>2018-09-05T08:19:10Z</time>
      </trkpt>
      <trkpt lat="45.874527" lon="13.575682">
        <ele>187.554</ele>
        <time>2018-09-05T08:19:26Z</time>
      </trkpt>
      <trkpt lat="45.874564" lon="13.575656">
        <ele>188.040</ele>
        <time>2018-09-05T08:19:49Z</time>
      </trkpt>
      <trkpt lat="45.874581" lon="13.575617">
        <ele>188.036</ele>
        <time>2018-09-05T08:19:53Z</time>
      </trkpt>
      <trkpt lat="45.874589" lon="13.575606">
        <ele>188.053</ele>
        <time>2018-09-05T08:19:54Z</time>
      </trkpt>
      <trkpt lat="45.874600" lon="13.575599">
        <ele>188.094</ele>
        <time>2018-09-05T08:19:55Z</time>
      </trkpt>
      <trkpt lat="45.874774" lon="13.575523">
        <ele>188.598</ele>
        <time>2018-09-05T08:20:09Z</time>
      </trkpt>
      <trkpt lat="45.874793" lon="13.575522">
        <ele>188.529</ele>
        <time>2018-09-05T08:20:33Z</time>
      </trkpt>
      <trkpt lat="45.874813" lon="13.575487">
        <ele>188.573</ele>
        <time>2018-09-05T08:20:43Z</time>
      </trkpt>
      <trkpt lat="45.874822" lon="13.575453">
        <ele>188.085</ele>
        <time>2018-09-05T08:20:45Z</time>
      </trkpt>
      <trkpt lat="45.874829" lon="13.575438">
        <ele>188.013</ele>
        <time>2018-09-05T08:20:46Z</time>
      </trkpt>
      <trkpt lat="45.875022" lon="13.575260">
        <ele>181.808</ele>
        <time>2018-09-05T08:20:58Z</time>
      </trkpt>
      <trkpt lat="45.875205" lon="13.575138">
        <ele>181.391</ele>
        <time>2018-09-05T08:21:07Z</time>
      </trkpt>
      <trkpt lat="45.875482" lon="13.574937">
        <ele>182.323</ele>
        <time>2018-09-05T08:21:19Z</time>
      </trkpt>
      <trkpt lat="45.875725" lon="13.574516">
        <ele>183.219</ele>
        <time>2018-09-05T08:21:34Z</time>
      </trkpt>
      <trkpt lat="45.876077" lon="13.574062">
        <ele>183.745</ele>
        <time>2018-09-05T08:21:52Z</time>
      </trkpt>
      <trkpt lat="45.876331" lon="13.574176">
        <ele>182.712</ele>
        <time>2018-09-05T08:22:00Z</time>
      </trkpt>
      <trkpt lat="45.876372" lon="13.574184">
        <ele>182.743</ele>
        <time>2018-09-05T08:22:01Z</time>
      </trkpt>
      <trkpt lat="45.876412" lon="13.574183">
        <ele>182.737</ele>
        <time>2018-09-05T08:22:02Z</time>
      </trkpt>
      <trkpt lat="45.876451" lon="13.574174">
        <ele>182.778</ele>
        <time>2018-09-05T08:22:03Z</time>
      </trkpt>
      <trkpt lat="45.876496" lon="13.574156">
        <ele>182.718</ele>
        <time>2018-09-05T08:22:04Z</time>
      </trkpt>
      <trkpt lat="45.876543" lon="13.574130">
        <ele>182.798</ele>
        <time>2018-09-05T08:22:05Z</time>
      </trkpt>
      <trkpt lat="45.876588" lon="13.574101">
        <ele>182.717</ele>
        <time>2018-09-05T08:22:06Z</time>
      </trkpt>
      <trkpt lat="45.876633" lon="13.574070">
        <ele>182.708</ele>
        <time>2018-09-05T08:22:07Z</time>
      </trkpt>
      <trkpt lat="45.877020" lon="13.573888">
        <ele>183.795</ele>
        <time>2018-09-05T08:22:19Z</time>
      </trkpt>
      <trkpt lat="45.877141" lon="13.573831">
        <ele>183.757</ele>
        <time>2018-09-05T08:22:24Z</time>
      </trkpt>
      <trkpt lat="45.877159" lon="13.573831">
        <ele>183.723</ele>
        <time>2018-09-05T08:22:25Z</time>
      </trkpt>
      <trkpt lat="45.877175" lon="13.573828">
        <ele>183.779</ele>
        <time>2018-09-05T08:22:26Z</time>
      </trkpt>
      <trkpt lat="45.877192" lon="13.573822">
        <ele>183.796</ele>
        <time>2018-09-05T08:22:27Z</time>
      </trkpt>
      <trkpt lat="45.877212" lon="13.573816">
        <ele>183.737</ele>
        <time>2018-09-05T08:22:28Z</time>
      </trkpt>
      <trkpt lat="45.877233" lon="13.573809">
        <ele>184.241</ele>
        <time>2018-09-05T08:22:29Z</time>
      </trkpt>
      <trkpt lat="45.877254" lon="13.573805">
        <ele>184.272</ele>
        <time>2018-09-05T08:22:30Z</time>
      </trkpt>
      <trkpt lat="45.877275" lon="13.573803">
        <ele>184.228</ele>
        <time>2018-09-05T08:22:31Z</time>
      </trkpt>
      <trkpt lat="45.877291" lon="13.573801">
        <ele>183.789</ele>
        <time>2018-09-05T08:22:32Z</time>
      </trkpt>
      <trkpt lat="45.877324" lon="13.573802">
        <ele>184.717</ele>
        <time>2018-09-05T08:22:44Z</time>
      </trkpt>
      <trkpt lat="45.877598" lon="13.573706">
        <ele>183.708</ele>
        <time>2018-09-05T08:22:56Z</time>
      </trkpt>
      <trkpt lat="45.877950" lon="13.573528">
        <ele>180.876</ele>
        <time>2018-09-05T08:23:03Z</time>
      </trkpt>
      <trkpt lat="45.878008" lon="13.573509">
        <ele>180.878</ele>
        <time>2018-09-05T08:23:04Z</time>
      </trkpt>
      <trkpt lat="45.878063" lon="13.573484">
        <ele>180.854</ele>
        <time>2018-09-05T08:23:05Z</time>
      </trkpt>
      <trkpt lat="45.878113" lon="13.573457">
        <ele>180.870</ele>
        <time>2018-09-05T08:23:06Z</time>
      </trkpt>
      <trkpt lat="45.878159" lon="13.573432">
        <ele>180.817</ele>
        <time>2018-09-05T08:23:07Z</time>
      </trkpt>
      <trkpt lat="45.878195" lon="13.573409">
        <ele>181.388</ele>
        <time>2018-09-05T08:23:08Z</time>
      </trkpt>
      <trkpt lat="45.878228" lon="13.573399">
        <ele>181.832</ele>
        <time>2018-09-05T08:23:09Z</time>
      </trkpt>
      <trkpt lat="45.878258" lon="13.573393">
        <ele>181.823</ele>
        <time>2018-09-05T08:23:10Z</time>
      </trkpt>
      <trkpt lat="45.878627" lon="13.573217">
        <ele>184.298</ele>
        <time>2018-09-05T08:23:25Z</time>
      </trkpt>
      <trkpt lat="45.879003" lon="13.573026">
        <ele>186.115</ele>
        <time>2018-09-05T08:23:41Z</time>
      </trkpt>
      <trkpt lat="45.879448" lon="13.572812">
        <ele>188.526</ele>
        <time>2018-09-05T08:24:01Z</time>
      </trkpt>
      <trkpt lat="45.879813" lon="13.572647">
        <ele>190.408</ele>
        <time>2018-09-05T08:24:18Z</time>
      </trkpt>
      <trkpt lat="45.880043" lon="13.572334">
        <ele>188.043</ele>
        <time>2018-09-05T08:24:31Z</time>
      </trkpt>
      <trkpt lat="45.880146" lon="13.571971">
        <ele>186.145</ele>
        <time>2018-09-05T08:24:43Z</time>
      </trkpt>
      <trkpt lat="45.880105" lon="13.571485">
        <ele>189.591</ele>
        <time>2018-09-05T08:24:58Z</time>
      </trkpt>
      <trkpt lat="45.880239" lon="13.571061">
        <ele>188.537</ele>
        <time>2018-09-05T08:25:10Z</time>
      </trkpt>
      <trkpt lat="45.880411" lon="13.570503">
        <ele>187.124</ele>
        <time>2018-09-05T08:25:25Z</time>
      </trkpt>
      <trkpt lat="45.880480" lon="13.569915">
        <ele>186.135</ele>
        <time>2018-09-05T08:25:40Z</time>
      </trkpt>
      <trkpt lat="45.880487" lon="13.569451">
        <ele>187.569</ele>
        <time>2018-09-05T08:25:51Z</time>
      </trkpt>
      <trkpt lat="45.880694" lon="13.568982">
        <ele>180.840</ele>
        <time>2018-09-05T08:26:02Z</time>
      </trkpt>
      <trkpt lat="45.880921" lon="13.568592">
        <ele>179.414</ele>
        <time>2018-09-05T08:26:13Z</time>
      </trkpt>
      <trkpt lat="45.881205" lon="13.568255">
        <ele>184.754</ele>
        <time>2018-09-05T08:26:26Z</time>
      </trkpt>
      <trkpt lat="45.881244" lon="13.567885">
        <ele>192.409</ele>
        <time>2018-09-05T08:26:35Z</time>
      </trkpt>
      <trkpt lat="45.881133" lon="13.567374">
        <ele>194.808</ele>
        <time>2018-09-05T08:26:47Z</time>
      </trkpt>
      <trkpt lat="45.880934" lon="13.566974">
        <ele>192.815</ele>
        <time>2018-09-05T08:26:55Z</time>
      </trkpt>
      <trkpt lat="45.880921" lon="13.566916">
        <ele>192.447</ele>
        <time>2018-09-05T08:26:56Z</time>
      </trkpt>
      <trkpt lat="45.880918" lon="13.566851">
        <ele>191.943</ele>
        <time>2018-09-05T08:26:57Z</time>
      </trkpt>
      <trkpt lat="45.880919" lon="13.566782">
        <ele>191.489</ele>
        <time>2018-09-05T08:26:58Z</time>
      </trkpt>
      <trkpt lat="45.880923" lon="13.566716">
        <ele>190.976</ele>
        <time>2018-09-05T08:26:59Z</time>
      </trkpt>
      <trkpt lat="45.880945" lon="13.566495">
        <ele>189.557</ele>
        <time>2018-09-05T08:27:02Z</time>
      </trkpt>
      <trkpt lat="45.880960" lon="13.566419">
        <ele>189.081</ele>
        <time>2018-09-05T08:27:03Z</time>
      </trkpt>
      <trkpt lat="45.880999" lon="13.566278">
        <ele>188.592</ele>
        <time>2018-09-05T08:27:05Z</time>
      </trkpt>
      <trkpt lat="45.881024" lon="13.566213">
        <ele>188.544</ele>
        <time>2018-09-05T08:27:06Z</time>
      </trkpt>
      <trkpt lat="45.881078" lon="13.566079">
        <ele>187.505</ele>
        <time>2018-09-05T08:27:08Z</time>
      </trkpt>
      <trkpt lat="45.881213" lon="13.565515">
        <ele>185.115</ele>
        <time>2018-09-05T08:27:15Z</time>
      </trkpt>
      <trkpt lat="45.881233" lon="13.565436">
        <ele>184.708</ele>
        <time>2018-09-05T08:27:16Z</time>
      </trkpt>
      <trkpt lat="45.881248" lon="13.565361">
        <ele>184.718</ele>
        <time>2018-09-05T08:27:17Z</time>
      </trkpt>
      <trkpt lat="45.881260" lon="13.565285">
        <ele>184.270</ele>
        <time>2018-09-05T08:27:18Z</time>
      </trkpt>
      <trkpt lat="45.881261" lon="13.565211">
        <ele>184.296</ele>
        <time>2018-09-05T08:27:19Z</time>
      </trkpt>
      <trkpt lat="45.881256" lon="13.565142">
        <ele>183.792</ele>
        <time>2018-09-05T08:27:20Z</time>
      </trkpt>
      <trkpt lat="45.881251" lon="13.565075">
        <ele>183.729</ele>
        <time>2018-09-05T08:27:21Z</time>
      </trkpt>
      <trkpt lat="45.881237" lon="13.565012">
        <ele>183.220</ele>
        <time>2018-09-05T08:27:22Z</time>
      </trkpt>
      <trkpt lat="45.881214" lon="13.564956">
        <ele>183.274</ele>
        <time>2018-09-05T08:27:23Z</time>
      </trkpt>
      <trkpt lat="45.881187" lon="13.564907">
        <ele>183.245</ele>
        <time>2018-09-05T08:27:24Z</time>
      </trkpt>
      <trkpt lat="45.881158" lon="13.564863">
        <ele>183.215</ele>
        <time>2018-09-05T08:27:25Z</time>
      </trkpt>
      <trkpt lat="45.881128" lon="13.564826">
        <ele>183.265</ele>
        <time>2018-09-05T08:27:26Z</time>
      </trkpt>
      <trkpt lat="45.881099" lon="13.564792">
        <ele>182.711</ele>
        <time>2018-09-05T08:27:27Z</time>
      </trkpt>
      <trkpt lat="45.880963" lon="13.564582">
        <ele>184.708</ele>
        <time>2018-09-05T08:27:34Z</time>
      </trkpt>
      <trkpt lat="45.880971" lon="13.564553">
        <ele>184.735</ele>
        <time>2018-09-05T08:27:35Z</time>
      </trkpt>
      <trkpt lat="45.880978" lon="13.564534">
        <ele>184.777</ele>
        <time>2018-09-05T08:27:36Z</time>
      </trkpt>
      <trkpt lat="45.880982" lon="13.564479">
        <ele>184.233</ele>
        <time>2018-09-05T08:27:48Z</time>
      </trkpt>
      <trkpt lat="45.881008" lon="13.564147">
        <ele>185.169</ele>
        <time>2018-09-05T08:28:00Z</time>
      </trkpt>
      <trkpt lat="45.881099" lon="13.563923">
        <ele>185.636</ele>
        <time>2018-09-05T08:28:08Z</time>
      </trkpt>
      <trkpt lat="45.881122" lon="13.563921">
        <ele>185.627</ele>
        <time>2018-09-05T08:28:09Z</time>
      </trkpt>
      <trkpt lat="45.881142" lon="13.563927">
        <ele>185.671</ele>
        <time>2018-09-05T08:28:10Z</time>
      </trkpt>
      <trkpt lat="45.881549" lon="13.564102">
        <ele>188.092</ele>
        <time>2018-09-05T08:28:28Z</time>
      </trkpt>
      <trkpt lat="45.881794" lon="13.564265">
        <ele>190.968</ele>
        <time>2018-09-05T08:28:41Z</time>
      </trkpt>
      <trkpt lat="45.881996" lon="13.564641">
        <ele>192.842</ele>
        <time>2018-09-05T08:28:56Z</time>
      </trkpt>
      <trkpt lat="45.882106" lon="13.564775">
        <ele>193.826</ele>
        <time>2018-09-05T08:29:03Z</time>
      </trkpt>
      <trkpt lat="45.882126" lon="13.564783">
        <ele>193.808</ele>
        <time>2018-09-05T08:29:04Z</time>
      </trkpt>
      <trkpt lat="45.882146" lon="13.564796">
        <ele>194.340</ele>
        <time>2018-09-05T08:29:05Z</time>
      </trkpt>
      <trkpt lat="45.882163" lon="13.564811">
        <ele>194.342</ele>
        <time>2018-09-05T08:29:06Z</time>
      </trkpt>
      <trkpt lat="45.882180" lon="13.564826">
        <ele>194.348</ele>
        <time>2018-09-05T08:29:07Z</time>
      </trkpt>
      <trkpt lat="45.882197" lon="13.564839">
        <ele>194.824</ele>
        <time>2018-09-05T08:29:08Z</time>
      </trkpt>
      <trkpt lat="45.882468" lon="13.564965">
        <ele>197.671</ele>
        <time>2018-09-05T08:29:23Z</time>
      </trkpt>
      <trkpt lat="45.882747" lon="13.565008">
        <ele>198.682</ele>
        <time>2018-09-05T08:29:38Z</time>
      </trkpt>
      <trkpt lat="45.882820" lon="13.564997">
        <ele>199.626</ele>
        <time>2018-09-05T08:29:42Z</time>
      </trkpt>
      <trkpt lat="45.882836" lon="13.564999">
        <ele>200.027</ele>
        <time>2018-09-05T08:29:43Z</time>
      </trkpt>
      <trkpt lat="45.882853" lon="13.564996">
        <ele>200.543</ele>
        <time>2018-09-05T08:29:44Z</time>
      </trkpt>
      <trkpt lat="45.882867" lon="13.564984">
        <ele>200.564</ele>
        <time>2018-09-05T08:29:45Z</time>
      </trkpt>
      <trkpt lat="45.882881" lon="13.564973">
        <ele>201.010</ele>
        <time>2018-09-05T08:29:46Z</time>
      </trkpt>
      <trkpt lat="45.882895" lon="13.564965">
        <ele>201.508</ele>
        <time>2018-09-05T08:29:47Z</time>
      </trkpt>
      <trkpt lat="45.882907" lon="13.564956">
        <ele>201.568</ele>
        <time>2018-09-05T08:29:48Z</time>
      </trkpt>
      <trkpt lat="45.883074" lon="13.564765">
        <ele>203.920</ele>
        <time>2018-09-05T08:30:03Z</time>
      </trkpt>
      <trkpt lat="45.883236" lon="13.564557">
        <ele>207.366</ele>
        <time>2018-09-05T08:30:17Z</time>
      </trkpt>
      <trkpt lat="45.883435" lon="13.564364">
        <ele>209.282</ele>
        <time>2018-09-05T08:30:32Z</time>
      </trkpt>
      <trkpt lat="45.883571" lon="13.564056">
        <ele>208.749</ele>
        <time>2018-09-05T08:30:47Z</time>
      </trkpt>
      <trkpt lat="45.883684" lon="13.563562">
        <ele>211.120</ele>
        <time>2018-09-05T08:31:06Z</time>
      </trkpt>
      <trkpt lat="45.883798" lon="13.563167">
        <ele>214.024</ele>
        <time>2018-09-05T08:31:22Z</time>
      </trkpt>
      <trkpt lat="45.884155" lon="13.562905">
        <ele>216.465</ele>
        <time>2018-09-05T08:31:43Z</time>
      </trkpt>
      <trkpt lat="45.884422" lon="13.562769">
        <ele>219.361</ele>
        <time>2018-09-05T08:31:58Z</time>
      </trkpt>
      <trkpt lat="45.884535" lon="13.562357">
        <ele>220.721</ele>
        <time>2018-09-05T08:32:12Z</time>
      </trkpt>
      <trkpt lat="45.884392" lon="13.561782">
        <ele>220.713</ele>
        <time>2018-09-05T08:32:25Z</time>
      </trkpt>
      <trkpt lat="45.884212" lon="13.561613">
        <ele>221.208</ele>
        <time>2018-09-05T08:32:31Z</time>
      </trkpt>
      <trkpt lat="45.884189" lon="13.561555">
        <ele>220.750</ele>
        <time>2018-09-05T08:32:32Z</time>
      </trkpt>
      <trkpt lat="45.884175" lon="13.561491">
        <ele>220.762</ele>
        <time>2018-09-05T08:32:33Z</time>
      </trkpt>
      <trkpt lat="45.884145" lon="13.561092">
        <ele>220.218</ele>
        <time>2018-09-05T08:32:39Z</time>
      </trkpt>
      <trkpt lat="45.884135" lon="13.561036">
        <ele>220.264</ele>
        <time>2018-09-05T08:32:40Z</time>
      </trkpt>
      <trkpt lat="45.884120" lon="13.560905">
        <ele>220.741</ele>
        <time>2018-09-05T08:32:43Z</time>
      </trkpt>
      <trkpt lat="45.884278" lon="13.560713">
        <ele>222.212</ele>
        <time>2018-09-05T08:32:54Z</time>
      </trkpt>
      <trkpt lat="45.884456" lon="13.560479">
        <ele>225.576</ele>
        <time>2018-09-05T08:33:06Z</time>
      </trkpt>
      <trkpt lat="45.884477" lon="13.560084">
        <ele>225.517</ele>
        <time>2018-09-05T08:33:18Z</time>
      </trkpt>
      <trkpt lat="45.884709" lon="13.559778">
        <ele>225.526</ele>
        <time>2018-09-05T08:33:32Z</time>
      </trkpt>
      <trkpt lat="45.884935" lon="13.559626">
        <ele>227.447</ele>
        <time>2018-09-05T08:33:45Z</time>
      </trkpt>
      <trkpt lat="45.885217" lon="13.559486">
        <ele>227.911</ele>
        <time>2018-09-05T08:33:59Z</time>
      </trkpt>
      <trkpt lat="45.885572" lon="13.559385">
        <ele>231.308</ele>
        <time>2018-09-05T08:34:17Z</time>
      </trkpt>
      <trkpt lat="45.885943" lon="13.559220">
        <ele>232.756</ele>
        <time>2018-09-05T08:34:35Z</time>
      </trkpt>
      <trkpt lat="45.886149" lon="13.558777">
        <ele>234.748</ele>
        <time>2018-09-05T08:34:51Z</time>
      </trkpt>
      <trkpt lat="45.886257" lon="13.558299">
        <ele>232.794</ele>
        <time>2018-09-05T08:35:01Z</time>
      </trkpt>
      <trkpt lat="45.886275" lon="13.558240">
        <ele>232.360</ele>
        <time>2018-09-05T08:35:02Z</time>
      </trkpt>
      <trkpt lat="45.886298" lon="13.558181">
        <ele>231.857</ele>
        <time>2018-09-05T08:35:03Z</time>
      </trkpt>
      <trkpt lat="45.886321" lon="13.558131">
        <ele>231.838</ele>
        <time>2018-09-05T08:35:04Z</time>
      </trkpt>
      <trkpt lat="45.886337" lon="13.558078">
        <ele>231.342</ele>
        <time>2018-09-05T08:35:05Z</time>
      </trkpt>
      <trkpt lat="45.886345" lon="13.558023">
        <ele>230.893</ele>
        <time>2018-09-05T08:35:06Z</time>
      </trkpt>
      <trkpt lat="45.886348" lon="13.557963">
        <ele>230.311</ele>
        <time>2018-09-05T08:35:07Z</time>
      </trkpt>
      <trkpt lat="45.886347" lon="13.557910">
        <ele>229.821</ele>
        <time>2018-09-05T08:35:08Z</time>
      </trkpt>
      <trkpt lat="45.886324" lon="13.557621">
        <ele>228.903</ele>
        <time>2018-09-05T08:35:12Z</time>
      </trkpt>
      <trkpt lat="45.886305" lon="13.557550">
        <ele>228.908</ele>
        <time>2018-09-05T08:35:13Z</time>
      </trkpt>
      <trkpt lat="45.886277" lon="13.557484">
        <ele>228.435</ele>
        <time>2018-09-05T08:35:14Z</time>
      </trkpt>
      <trkpt lat="45.886241" lon="13.557426">
        <ele>228.437</ele>
        <time>2018-09-05T08:35:15Z</time>
      </trkpt>
      <trkpt lat="45.886202" lon="13.557377">
        <ele>228.443</ele>
        <time>2018-09-05T08:35:16Z</time>
      </trkpt>
      <trkpt lat="45.886161" lon="13.557336">
        <ele>227.979</ele>
        <time>2018-09-05T08:35:17Z</time>
      </trkpt>
      <trkpt lat="45.886121" lon="13.557294">
        <ele>227.976</ele>
        <time>2018-09-05T08:35:18Z</time>
      </trkpt>
      <trkpt lat="45.886051" lon="13.557197">
        <ele>227.477</ele>
        <time>2018-09-05T08:35:20Z</time>
      </trkpt>
      <trkpt lat="45.886021" lon="13.557147">
        <ele>227.021</ele>
        <time>2018-09-05T08:35:21Z</time>
      </trkpt>
      <trkpt lat="45.885992" lon="13.557098">
        <ele>227.032</ele>
        <time>2018-09-05T08:35:22Z</time>
      </trkpt>
      <trkpt lat="45.885973" lon="13.557042">
        <ele>226.542</ele>
        <time>2018-09-05T08:35:23Z</time>
      </trkpt>
      <trkpt lat="45.885964" lon="13.556979">
        <ele>226.522</ele>
        <time>2018-09-05T08:35:24Z</time>
      </trkpt>
      <trkpt lat="45.885960" lon="13.556915">
        <ele>226.014</ele>
        <time>2018-09-05T08:35:25Z</time>
      </trkpt>
      <trkpt lat="45.885952" lon="13.556848">
        <ele>225.508</ele>
        <time>2018-09-05T08:35:26Z</time>
      </trkpt>
      <trkpt lat="45.885936" lon="13.556776">
        <ele>225.028</ele>
        <time>2018-09-05T08:35:27Z</time>
      </trkpt>
      <trkpt lat="45.885915" lon="13.556704">
        <ele>225.050</ele>
        <time>2018-09-05T08:35:28Z</time>
      </trkpt>
      <trkpt lat="45.885887" lon="13.556632">
        <ele>224.646</ele>
        <time>2018-09-05T08:35:29Z</time>
      </trkpt>
      <trkpt lat="45.885853" lon="13.556556">
        <ele>224.132</ele>
        <time>2018-09-05T08:35:30Z</time>
      </trkpt>
      <trkpt lat="45.885821" lon="13.556473">
        <ele>224.189</ele>
        <time>2018-09-05T08:35:31Z</time>
      </trkpt>
      <trkpt lat="45.885794" lon="13.556384">
        <ele>223.690</ele>
        <time>2018-09-05T08:35:32Z</time>
      </trkpt>
      <trkpt lat="45.885772" lon="13.556291">
        <ele>223.694</ele>
        <time>2018-09-05T08:35:33Z</time>
      </trkpt>
      <trkpt lat="45.885757" lon="13.556197">
        <ele>223.645</ele>
        <time>2018-09-05T08:35:34Z</time>
      </trkpt>
      <trkpt lat="45.885750" lon="13.556102">
        <ele>223.152</ele>
        <time>2018-09-05T08:35:35Z</time>
      </trkpt>
      <trkpt lat="45.885749" lon="13.556012">
        <ele>223.153</ele>
        <time>2018-09-05T08:35:36Z</time>
      </trkpt>
      <trkpt lat="45.885751" lon="13.555928">
        <ele>223.108</ele>
        <time>2018-09-05T08:35:37Z</time>
      </trkpt>
      <trkpt lat="45.885756" lon="13.555847">
        <ele>223.108</ele>
        <time>2018-09-05T08:35:38Z</time>
      </trkpt>
      <trkpt lat="45.885767" lon="13.555697">
        <ele>222.699</ele>
        <time>2018-09-05T08:35:40Z</time>
      </trkpt>
      <trkpt lat="45.885839" lon="13.555302">
        <ele>222.691</ele>
        <time>2018-09-05T08:35:50Z</time>
      </trkpt>
      <trkpt lat="45.885850" lon="13.555247">
        <ele>223.157</ele>
        <time>2018-09-05T08:35:52Z</time>
      </trkpt>
      <trkpt lat="45.885854" lon="13.555217">
        <ele>222.673</ele>
        <time>2018-09-05T08:35:53Z</time>
      </trkpt>
      <trkpt lat="45.885811" lon="13.554846">
        <ele>225.050</ele>
        <time>2018-09-05T08:36:08Z</time>
      </trkpt>
      <trkpt lat="45.885672" lon="13.554504">
        <ele>229.431</ele>
        <time>2018-09-05T08:36:23Z</time>
      </trkpt>
      <trkpt lat="45.885425" lon="13.553890">
        <ele>227.945</ele>
        <time>2018-09-05T08:36:37Z</time>
      </trkpt>
      <trkpt lat="45.885171" lon="13.553206">
        <ele>228.416</ele>
        <time>2018-09-05T08:36:53Z</time>
      </trkpt>
      <trkpt lat="45.885098" lon="13.552806">
        <ele>230.875</ele>
        <time>2018-09-05T08:37:08Z</time>
      </trkpt>
      <trkpt lat="45.885197" lon="13.552407">
        <ele>231.828</ele>
        <time>2018-09-05T08:37:24Z</time>
      </trkpt>
      <trkpt lat="45.885133" lon="13.551908">
        <ele>232.320</ele>
        <time>2018-09-05T08:37:39Z</time>
      </trkpt>
      <trkpt lat="45.884994" lon="13.551566">
        <ele>234.708</ele>
        <time>2018-09-05T08:37:53Z</time>
      </trkpt>
      <trkpt lat="45.884914" lon="13.551222">
        <ele>235.641</ele>
        <time>2018-09-05T08:38:06Z</time>
      </trkpt>
      <trkpt lat="45.884920" lon="13.551196">
        <ele>235.613</ele>
        <time>2018-09-05T08:38:07Z</time>
      </trkpt>
      <trkpt lat="45.885056" lon="13.551022">
        <ele>235.679</ele>
        <time>2018-09-05T08:38:21Z</time>
      </trkpt>
      <trkpt lat="45.885260" lon="13.551125">
        <ele>236.635</ele>
        <time>2018-09-05T08:38:35Z</time>
      </trkpt>
      <trkpt lat="45.885578" lon="13.551265">
        <ele>238.562</ele>
        <time>2018-09-05T08:38:52Z</time>
      </trkpt>
      <trkpt lat="45.885799" lon="13.551220">
        <ele>239.963</ele>
        <time>2018-09-05T08:39:06Z</time>
      </trkpt>
      <trkpt lat="45.885812" lon="13.551213">
        <ele>239.977</ele>
        <time>2018-09-05T08:39:07Z</time>
      </trkpt>
      <trkpt lat="45.886048" lon="13.551094">
        <ele>243.898</ele>
        <time>2018-09-05T08:39:24Z</time>
      </trkpt>
      <trkpt lat="45.886258" lon="13.550986">
        <ele>247.264</ele>
        <time>2018-09-05T08:39:40Z</time>
      </trkpt>
      <trkpt lat="45.886291" lon="13.550954">
        <ele>247.206</ele>
        <time>2018-09-05T08:39:43Z</time>
      </trkpt>
      <trkpt lat="45.886304" lon="13.550954">
        <ele>247.216</ele>
        <time>2018-09-05T08:39:44Z</time>
      </trkpt>
      <trkpt lat="45.886316" lon="13.550950">
        <ele>247.208</ele>
        <time>2018-09-05T08:39:45Z</time>
      </trkpt>
      <trkpt lat="45.886329" lon="13.550942">
        <ele>247.250</ele>
        <time>2018-09-05T08:39:46Z</time>
      </trkpt>
      <trkpt lat="45.886341" lon="13.550933">
        <ele>247.212</ele>
        <time>2018-09-05T08:39:47Z</time>
      </trkpt>
      <trkpt lat="45.886350" lon="13.550922">
        <ele>247.288</ele>
        <time>2018-09-05T08:39:48Z</time>
      </trkpt>
      <trkpt lat="45.886359" lon="13.550908">
        <ele>247.224</ele>
        <time>2018-09-05T08:39:49Z</time>
      </trkpt>
      <trkpt lat="45.886371" lon="13.550894">
        <ele>247.221</ele>
        <time>2018-09-05T08:39:50Z</time>
      </trkpt>
      <trkpt lat="45.886485" lon="13.550537">
        <ele>247.692</ele>
        <time>2018-09-05T08:40:05Z</time>
      </trkpt>
      <trkpt lat="45.886619" lon="13.550313">
        <ele>248.616</ele>
        <time>2018-09-05T08:40:19Z</time>
      </trkpt>
      <trkpt lat="45.886627" lon="13.550295">
        <ele>248.617</ele>
        <time>2018-09-05T08:40:20Z</time>
      </trkpt>
      <trkpt lat="45.886698" lon="13.550057">
        <ele>250.522</ele>
        <time>2018-09-05T08:40:34Z</time>
      </trkpt>
      <trkpt lat="45.886735" lon="13.549860">
        <ele>253.962</ele>
        <time>2018-09-05T08:40:47Z</time>
      </trkpt>
      <trkpt lat="45.886738" lon="13.549842">
        <ele>254.408</ele>
        <time>2018-09-05T08:40:48Z</time>
      </trkpt>
      <trkpt lat="45.886740" lon="13.549826">
        <ele>254.808</ele>
        <time>2018-09-05T08:40:49Z</time>
      </trkpt>
      <trkpt lat="45.886741" lon="13.549812">
        <ele>254.816</ele>
        <time>2018-09-05T08:40:50Z</time>
      </trkpt>
      <trkpt lat="45.886739" lon="13.549752">
        <ele>255.888</ele>
        <time>2018-09-05T08:40:54Z</time>
      </trkpt>
      <trkpt lat="45.886742" lon="13.549723">
        <ele>256.374</ele>
        <time>2018-09-05T08:40:56Z</time>
      </trkpt>
      <trkpt lat="45.886798" lon="13.549485">
        <ele>260.130</ele>
        <time>2018-09-05T08:41:12Z</time>
      </trkpt>
      <trkpt lat="45.886774" lon="13.549428">
        <ele>261.627</ele>
        <time>2018-09-05T08:41:17Z</time>
      </trkpt>
      <trkpt lat="45.886762" lon="13.549420">
        <ele>261.688</ele>
        <time>2018-09-05T08:41:18Z</time>
      </trkpt>
      <trkpt lat="45.886750" lon="13.549411">
        <ele>261.652</ele>
        <time>2018-09-05T08:41:19Z</time>
      </trkpt>
      <trkpt lat="45.886564" lon="13.549242">
        <ele>263.043</ele>
        <time>2018-09-05T08:41:35Z</time>
      </trkpt>
      <trkpt lat="45.886544" lon="13.549222">
        <ele>262.148</ele>
        <time>2018-09-05T08:41:51Z</time>
      </trkpt>
      <trkpt lat="45.886338" lon="13.549033">
        <ele>263.561</ele>
        <time>2018-09-05T08:42:03Z</time>
      </trkpt>
      <trkpt lat="45.886091" lon="13.548859">
        <ele>264.917</ele>
        <time>2018-09-05T08:42:14Z</time>
      </trkpt>
      <trkpt lat="45.885867" lon="13.548528">
        <ele>265.908</ele>
        <time>2018-09-05T08:42:27Z</time>
      </trkpt>
      <trkpt lat="45.885665" lon="13.548120">
        <ele>266.428</ele>
        <time>2018-09-05T08:42:40Z</time>
      </trkpt>
      <trkpt lat="45.885433" lon="13.547710">
        <ele>267.310</ele>
        <time>2018-09-05T08:42:53Z</time>
      </trkpt>
      <trkpt lat="45.885248" lon="13.547263">
        <ele>267.866</ele>
        <time>2018-09-05T08:43:06Z</time>
      </trkpt>
      <trkpt lat="45.885168" lon="13.546758">
        <ele>266.932</ele>
        <time>2018-09-05T08:43:18Z</time>
      </trkpt>
      <trkpt lat="45.885165" lon="13.546649">
        <ele>265.939</ele>
        <time>2018-09-05T08:43:20Z</time>
      </trkpt>
      <trkpt lat="45.885154" lon="13.546588">
        <ele>265.450</ele>
        <time>2018-09-05T08:43:21Z</time>
      </trkpt>
      <trkpt lat="45.885113" lon="13.546364">
        <ele>264.054</ele>
        <time>2018-09-05T08:43:24Z</time>
      </trkpt>
      <trkpt lat="45.885112" lon="13.546301">
        <ele>263.515</ele>
        <time>2018-09-05T08:43:25Z</time>
      </trkpt>
      <trkpt lat="45.885119" lon="13.546248">
        <ele>263.094</ele>
        <time>2018-09-05T08:43:26Z</time>
      </trkpt>
      <trkpt lat="45.885129" lon="13.546208">
        <ele>263.057</ele>
        <time>2018-09-05T08:43:27Z</time>
      </trkpt>
      <trkpt lat="45.885142" lon="13.546174">
        <ele>263.022</ele>
        <time>2018-09-05T08:43:28Z</time>
      </trkpt>
      <trkpt lat="45.885153" lon="13.546146">
        <ele>263.008</ele>
        <time>2018-09-05T08:43:29Z</time>
      </trkpt>
      <trkpt lat="45.885162" lon="13.546114">
        <ele>263.583</ele>
        <time>2018-09-05T08:43:30Z</time>
      </trkpt>
      <trkpt lat="45.885331" lon="13.545596">
        <ele>262.145</ele>
        <time>2018-09-05T08:43:42Z</time>
      </trkpt>
      <trkpt lat="45.885338" lon="13.545532">
        <ele>261.611</ele>
        <time>2018-09-05T08:43:43Z</time>
      </trkpt>
      <trkpt lat="45.885331" lon="13.545464">
        <ele>261.117</ele>
        <time>2018-09-05T08:43:44Z</time>
      </trkpt>
      <trkpt lat="45.885320" lon="13.545406">
        <ele>260.614</ele>
        <time>2018-09-05T08:43:45Z</time>
      </trkpt>
      <trkpt lat="45.885317" lon="13.545332">
        <ele>260.125</ele>
        <time>2018-09-05T08:43:46Z</time>
      </trkpt>
      <trkpt lat="45.885330" lon="13.545261">
        <ele>259.649</ele>
        <time>2018-09-05T08:43:47Z</time>
      </trkpt>
      <trkpt lat="45.885346" lon="13.545172">
        <ele>259.250</ele>
        <time>2018-09-05T08:43:48Z</time>
      </trkpt>
      <trkpt lat="45.885351" lon="13.545089">
        <ele>258.798</ele>
        <time>2018-09-05T08:43:49Z</time>
      </trkpt>
      <trkpt lat="45.885359" lon="13.545002">
        <ele>258.215</ele>
        <time>2018-09-05T08:43:50Z</time>
      </trkpt>
      <trkpt lat="45.885367" lon="13.544943">
        <ele>257.726</ele>
        <time>2018-09-05T08:43:51Z</time>
      </trkpt>
      <trkpt lat="45.885372" lon="13.544852">
        <ele>258.208</ele>
        <time>2018-09-05T08:43:57Z</time>
      </trkpt>
      <trkpt lat="45.885401" lon="13.544944">
        <ele>258.213</ele>
        <time>2018-09-05T08:44:11Z</time>
      </trkpt>
      <trkpt lat="45.885400" lon="13.544948">
        <ele>259.275</ele>
        <time>2018-09-05T08:44:32Z</time>
      </trkpt>
      <trkpt lat="45.885385" lon="13.544963">
        <ele>261.661</ele>
        <time>2018-09-05T08:45:01Z</time>
      </trkpt>
      <trkpt lat="45.885386" lon="13.544954">
        <ele>262.597</ele>
        <time>2018-09-05T08:45:39Z</time>
      </trkpt>
      <trkpt lat="45.885374" lon="13.544944">
        <ele>262.544</ele>
        <time>2018-09-05T08:45:56Z</time>
      </trkpt>
      <trkpt lat="45.885364" lon="13.544921">
        <ele>262.595</ele>
        <time>2018-09-05T08:45:58Z</time>
      </trkpt>
      <trkpt lat="45.885362" lon="13.544903">
        <ele>263.059</ele>
        <time>2018-09-05T08:45:59Z</time>
      </trkpt>
      <trkpt lat="45.885361" lon="13.544881">
        <ele>263.010</ele>
        <time>2018-09-05T08:46:00Z</time>
      </trkpt>
      <trkpt lat="45.885362" lon="13.544857">
        <ele>263.564</ele>
        <time>2018-09-05T08:46:01Z</time>
      </trkpt>
      <trkpt lat="45.885364" lon="13.544830">
        <ele>264.006</ele>
        <time>2018-09-05T08:46:02Z</time>
      </trkpt>
      <trkpt lat="45.885367" lon="13.544802">
        <ele>264.016</ele>
        <time>2018-09-05T08:46:03Z</time>
      </trkpt>
      <trkpt lat="45.885336" lon="13.544563">
        <ele>266.908</ele>
        <time>2018-09-05T08:46:15Z</time>
      </trkpt>
      <trkpt lat="45.885328" lon="13.544550">
        <ele>267.370</ele>
        <time>2018-09-05T08:46:16Z</time>
      </trkpt>
      <trkpt lat="45.885321" lon="13.544536">
        <ele>267.372</ele>
        <time>2018-09-05T08:46:17Z</time>
      </trkpt>
      <trkpt lat="45.885215" lon="13.544334">
        <ele>272.668</ele>
        <time>2018-09-05T08:46:31Z</time>
      </trkpt>
      <trkpt lat="45.885196" lon="13.544086">
        <ele>273.624</ele>
        <time>2018-09-05T08:46:46Z</time>
      </trkpt>
      <trkpt lat="45.885194" lon="13.544037">
        <ele>273.111</ele>
        <time>2018-09-05T08:46:49Z</time>
      </trkpt>
      <trkpt lat="45.885194" lon="13.544022">
        <ele>273.142</ele>
        <time>2018-09-05T08:46:50Z</time>
      </trkpt>
      <trkpt lat="45.885192" lon="13.544006">
        <ele>273.696</ele>
        <time>2018-09-05T08:46:51Z</time>
      </trkpt>
      <trkpt lat="45.885188" lon="13.543915">
        <ele>274.187</ele>
        <time>2018-09-05T08:46:57Z</time>
      </trkpt>
      <trkpt lat="45.885185" lon="13.543900">
        <ele>274.154</ele>
        <time>2018-09-05T08:46:58Z</time>
      </trkpt>
      <trkpt lat="45.885184" lon="13.543884">
        <ele>274.156</ele>
        <time>2018-09-05T08:46:59Z</time>
      </trkpt>
      <trkpt lat="45.885181" lon="13.543869">
        <ele>274.111</ele>
        <time>2018-09-05T08:47:00Z</time>
      </trkpt>
      <trkpt lat="45.885177" lon="13.543853">
        <ele>274.108</ele>
        <time>2018-09-05T08:47:01Z</time>
      </trkpt>
      <trkpt lat="45.885172" lon="13.543837">
        <ele>274.159</ele>
        <time>2018-09-05T08:47:02Z</time>
      </trkpt>
      <trkpt lat="45.885165" lon="13.543822">
        <ele>274.121</ele>
        <time>2018-09-05T08:47:03Z</time>
      </trkpt>
      <trkpt lat="45.885052" lon="13.543545">
        <ele>274.117</ele>
        <time>2018-09-05T08:47:18Z</time>
      </trkpt>
      <trkpt lat="45.884927" lon="13.543294">
        <ele>274.573</ele>
        <time>2018-09-05T08:47:31Z</time>
      </trkpt>
      <trkpt lat="45.884925" lon="13.543274">
        <ele>274.520</ele>
        <time>2018-09-05T08:47:32Z</time>
      </trkpt>
      <trkpt lat="45.884923" lon="13.543256">
        <ele>274.591</ele>
        <time>2018-09-05T08:47:33Z</time>
      </trkpt>
      <trkpt lat="45.884930" lon="13.543169">
        <ele>275.055</ele>
        <time>2018-09-05T08:47:38Z</time>
      </trkpt>
      <trkpt lat="45.884927" lon="13.543149">
        <ele>274.586</ele>
        <time>2018-09-05T08:47:39Z</time>
      </trkpt>
      <trkpt lat="45.884923" lon="13.543129">
        <ele>274.599</ele>
        <time>2018-09-05T08:47:40Z</time>
      </trkpt>
      <trkpt lat="45.884917" lon="13.543113">
        <ele>274.507</ele>
        <time>2018-09-05T08:47:41Z</time>
      </trkpt>
      <trkpt lat="45.884909" lon="13.543096">
        <ele>274.527</ele>
        <time>2018-09-05T08:47:42Z</time>
      </trkpt>
      <trkpt lat="45.884905" lon="13.543078">
        <ele>274.508</ele>
        <time>2018-09-05T08:47:43Z</time>
      </trkpt>
      <trkpt lat="45.884904" lon="13.543055">
        <ele>274.533</ele>
        <time>2018-09-05T08:47:44Z</time>
      </trkpt>
      <trkpt lat="45.884910" lon="13.543031">
        <ele>274.135</ele>
        <time>2018-09-05T08:47:45Z</time>
      </trkpt>
      <trkpt lat="45.884918" lon="13.543017">
        <ele>274.121</ele>
        <time>2018-09-05T08:47:46Z</time>
      </trkpt>
      <trkpt lat="45.884928" lon="13.543010">
        <ele>274.157</ele>
        <time>2018-09-05T08:47:47Z</time>
      </trkpt>
      <trkpt lat="45.884943" lon="13.543005">
        <ele>274.184</ele>
        <time>2018-09-05T08:47:48Z</time>
      </trkpt>
      <trkpt lat="45.884937" lon="13.543008">
        <ele>274.115</ele>
        <time>2018-09-05T08:48:02Z</time>
      </trkpt>
      <trkpt lat="45.885059" lon="13.542941">
        <ele>274.549</ele>
        <time>2018-09-05T08:48:18Z</time>
      </trkpt>
      <trkpt lat="45.885072" lon="13.542934">
        <ele>274.560</ele>
        <time>2018-09-05T08:48:19Z</time>
      </trkpt>
      <trkpt lat="45.885316" lon="13.542751">
        <ele>274.139</ele>
        <time>2018-09-05T08:48:36Z</time>
      </trkpt>
      <trkpt lat="45.885366" lon="13.542722">
        <ele>273.601</ele>
        <time>2018-09-05T08:48:47Z</time>
      </trkpt>
      <trkpt lat="45.885394" lon="13.542687">
        <ele>275.021</ele>
        <time>2018-09-05T08:49:18Z</time>
      </trkpt>
      <trkpt lat="45.885581" lon="13.542507">
        <ele>274.108</ele>
        <time>2018-09-05T08:49:33Z</time>
      </trkpt>
      <trkpt lat="45.885558" lon="13.542522">
        <ele>274.557</ele>
        <time>2018-09-05T08:49:42Z</time>
      </trkpt>
      <trkpt lat="45.885553" lon="13.542532">
        <ele>274.549</ele>
        <time>2018-09-05T08:49:43Z</time>
      </trkpt>
      <trkpt lat="45.885542" lon="13.542543">
        <ele>274.585</ele>
        <time>2018-09-05T08:49:44Z</time>
      </trkpt>
      <trkpt lat="45.885530" lon="13.542558">
        <ele>275.051</ele>
        <time>2018-09-05T08:49:45Z</time>
      </trkpt>
      <trkpt lat="45.885518" lon="13.542576">
        <ele>274.538</ele>
        <time>2018-09-05T08:49:46Z</time>
      </trkpt>
      <trkpt lat="45.885248" lon="13.542822">
        <ele>274.589</ele>
        <time>2018-09-05T08:50:02Z</time>
      </trkpt>
      <trkpt lat="45.884809" lon="13.543052">
        <ele>273.663</ele>
        <time>2018-09-05T08:50:18Z</time>
      </trkpt>
      <trkpt lat="45.884757" lon="13.543025">
        <ele>274.164</ele>
        <time>2018-09-05T08:50:22Z</time>
      </trkpt>
      <trkpt lat="45.884724" lon="13.542981">
        <ele>274.543</ele>
        <time>2018-09-05T08:50:25Z</time>
      </trkpt>
      <trkpt lat="45.884601" lon="13.542761">
        <ele>275.564</ele>
        <time>2018-09-05T08:50:39Z</time>
      </trkpt>
      <trkpt lat="45.884576" lon="13.542423">
        <ele>273.110</ele>
        <time>2018-09-05T08:50:50Z</time>
      </trkpt>
      <trkpt lat="45.884585" lon="13.542396">
        <ele>273.108</ele>
        <time>2018-09-05T08:50:51Z</time>
      </trkpt>
      <trkpt lat="45.884591" lon="13.542380">
        <ele>273.148</ele>
        <time>2018-09-05T08:50:52Z</time>
      </trkpt>
      <trkpt lat="45.884595" lon="13.542363">
        <ele>273.140</ele>
        <time>2018-09-05T08:50:53Z</time>
      </trkpt>
      <trkpt lat="45.884597" lon="13.542345">
        <ele>273.146</ele>
        <time>2018-09-05T08:50:54Z</time>
      </trkpt>
      <trkpt lat="45.884602" lon="13.542326">
        <ele>272.662</ele>
        <time>2018-09-05T08:50:55Z</time>
      </trkpt>
      <trkpt lat="45.884605" lon="13.542302">
        <ele>272.699</ele>
        <time>2018-09-05T08:50:56Z</time>
      </trkpt>
      <trkpt lat="45.884606" lon="13.542272">
        <ele>272.620</ele>
        <time>2018-09-05T08:50:57Z</time>
      </trkpt>
      <trkpt lat="45.884604" lon="13.542240">
        <ele>272.614</ele>
        <time>2018-09-05T08:50:58Z</time>
      </trkpt>
      <trkpt lat="45.884402" lon="13.541870">
        <ele>270.745</ele>
        <time>2018-09-05T08:51:11Z</time>
      </trkpt>
      <trkpt lat="45.884387" lon="13.541865">
        <ele>270.784</ele>
        <time>2018-09-05T08:51:12Z</time>
      </trkpt>
      <trkpt lat="45.884377" lon="13.541875">
        <ele>271.707</ele>
        <time>2018-09-05T08:51:25Z</time>
      </trkpt>
      <trkpt lat="45.884406" lon="13.541865">
        <ele>270.717</ele>
        <time>2018-09-05T08:51:40Z</time>
      </trkpt>
      <trkpt lat="45.884409" lon="13.541851">
        <ele>271.208</ele>
        <time>2018-09-05T08:51:41Z</time>
      </trkpt>
      <trkpt lat="45.884413" lon="13.541834">
        <ele>271.252</ele>
        <time>2018-09-05T08:51:42Z</time>
      </trkpt>
      <trkpt lat="45.884415" lon="13.541815">
        <ele>270.754</ele>
        <time>2018-09-05T08:51:43Z</time>
      </trkpt>
      <trkpt lat="45.884418" lon="13.541797">
        <ele>270.760</ele>
        <time>2018-09-05T08:51:44Z</time>
      </trkpt>
      <trkpt lat="45.884424" lon="13.541777">
        <ele>270.766</ele>
        <time>2018-09-05T08:51:45Z</time>
      </trkpt>
      <trkpt lat="45.884430" lon="13.541755">
        <ele>270.793</ele>
        <time>2018-09-05T08:51:46Z</time>
      </trkpt>
      <trkpt lat="45.884439" lon="13.541734">
        <ele>270.284</ele>
        <time>2018-09-05T08:51:47Z</time>
      </trkpt>
      <trkpt lat="45.884447" lon="13.541712">
        <ele>270.268</ele>
        <time>2018-09-05T08:51:48Z</time>
      </trkpt>
      <trkpt lat="45.884454" lon="13.541687">
        <ele>269.739</ele>
        <time>2018-09-05T08:51:49Z</time>
      </trkpt>
      <trkpt lat="45.884648" lon="13.541156">
        <ele>264.554</ele>
        <time>2018-09-05T08:52:06Z</time>
      </trkpt>
      <trkpt lat="45.884767" lon="13.540905">
        <ele>265.456</ele>
        <time>2018-09-05T08:52:17Z</time>
      </trkpt>
      <trkpt lat="45.885010" lon="13.540682">
        <ele>266.411</ele>
        <time>2018-09-05T08:52:33Z</time>
      </trkpt>
      <trkpt lat="45.885240" lon="13.540707">
        <ele>267.808</ele>
        <time>2018-09-05T08:52:46Z</time>
      </trkpt>
      <trkpt lat="45.885438" lon="13.540927">
        <ele>268.829</ele>
        <time>2018-09-05T08:52:58Z</time>
      </trkpt>
      <trkpt lat="45.885588" lon="13.541212">
        <ele>268.831</ele>
        <time>2018-09-05T08:53:11Z</time>
      </trkpt>
      <trkpt lat="45.885604" lon="13.541231">
        <ele>268.867</ele>
        <time>2018-09-05T08:53:12Z</time>
      </trkpt>
      <trkpt lat="45.885624" lon="13.541245">
        <ele>268.833</ele>
        <time>2018-09-05T08:53:13Z</time>
      </trkpt>
      <trkpt lat="45.885641" lon="13.541251">
        <ele>268.810</ele>
        <time>2018-09-05T08:53:14Z</time>
      </trkpt>
      <trkpt lat="45.885658" lon="13.541249">
        <ele>268.871</ele>
        <time>2018-09-05T08:53:15Z</time>
      </trkpt>
      <trkpt lat="45.885669" lon="13.541236">
        <ele>268.835</ele>
        <time>2018-09-05T08:53:16Z</time>
      </trkpt>
      <trkpt lat="45.885673" lon="13.541216">
        <ele>268.816</ele>
        <time>2018-09-05T08:53:17Z</time>
      </trkpt>
      <trkpt lat="45.885692" lon="13.541179">
        <ele>267.845</ele>
        <time>2018-09-05T08:53:28Z</time>
      </trkpt>
      <trkpt lat="45.885696" lon="13.541164">
        <ele>267.347</ele>
        <time>2018-09-05T08:53:54Z</time>
      </trkpt>
      <trkpt lat="45.885637" lon="13.541020">
        <ele>267.311</ele>
        <time>2018-09-05T08:54:02Z</time>
      </trkpt>
      <trkpt lat="45.885642" lon="13.540955">
        <ele>266.908</ele>
        <time>2018-09-05T08:54:05Z</time>
      </trkpt>
      <trkpt lat="45.885653" lon="13.540932">
        <ele>266.498</ele>
        <time>2018-09-05T08:54:17Z</time>
      </trkpt>
      <trkpt lat="45.885651" lon="13.540941">
        <ele>266.920</ele>
        <time>2018-09-05T08:54:48Z</time>
      </trkpt>
      <trkpt lat="45.885599" lon="13.540895">
        <ele>269.356</ele>
        <time>2018-09-05T08:55:05Z</time>
      </trkpt>
      <trkpt lat="45.885589" lon="13.540886">
        <ele>269.712</ele>
        <time>2018-09-05T08:55:06Z</time>
      </trkpt>
      <trkpt lat="45.885401" lon="13.540546">
        <ele>269.739</ele>
        <time>2018-09-05T08:55:16Z</time>
      </trkpt>
      <trkpt lat="45.885332" lon="13.540432">
        <ele>269.370</ele>
        <time>2018-09-05T08:55:18Z</time>
      </trkpt>
      <trkpt lat="45.885239" lon="13.540323">
        <ele>268.844</ele>
        <time>2018-09-05T08:55:20Z</time>
      </trkpt>
      <trkpt lat="45.885083" lon="13.540139">
        <ele>268.825</ele>
        <time>2018-09-05T08:55:23Z</time>
      </trkpt>
      <trkpt lat="45.885044" lon="13.540055">
        <ele>268.828</ele>
        <time>2018-09-05T08:55:24Z</time>
      </trkpt>
      <trkpt lat="45.885018" lon="13.539954">
        <ele>268.389</ele>
        <time>2018-09-05T08:55:25Z</time>
      </trkpt>
      <trkpt lat="45.885009" lon="13.539853">
        <ele>268.317</ele>
        <time>2018-09-05T08:55:26Z</time>
      </trkpt>
      <trkpt lat="45.885006" lon="13.539746">
        <ele>267.808</ele>
        <time>2018-09-05T08:55:27Z</time>
      </trkpt>
      <trkpt lat="45.884996" lon="13.539649">
        <ele>267.386</ele>
        <time>2018-09-05T08:55:28Z</time>
      </trkpt>
      <trkpt lat="45.884973" lon="13.539554">
        <ele>266.998</ele>
        <time>2018-09-05T08:55:29Z</time>
      </trkpt>
      <trkpt lat="45.884649" lon="13.538604">
        <ele>263.514</ele>
        <time>2018-09-05T08:55:40Z</time>
      </trkpt>
      <trkpt lat="45.884642" lon="13.538559">
        <ele>263.530</ele>
        <time>2018-09-05T08:55:42Z</time>
      </trkpt>
      <trkpt lat="45.884651" lon="13.538543">
        <ele>263.057</ele>
        <time>2018-09-05T08:55:43Z</time>
      </trkpt>
      <trkpt lat="45.884665" lon="13.538539">
        <ele>262.528</ele>
        <time>2018-09-05T08:55:44Z</time>
      </trkpt>
      <trkpt lat="45.884676" lon="13.538542">
        <ele>262.562</ele>
        <time>2018-09-05T08:55:45Z</time>
      </trkpt>
      <trkpt lat="45.884689" lon="13.538551">
        <ele>262.153</ele>
        <time>2018-09-05T08:55:46Z</time>
      </trkpt>
      <trkpt lat="45.884705" lon="13.538559">
        <ele>261.668</ele>
        <time>2018-09-05T08:55:47Z</time>
      </trkpt>
      <trkpt lat="45.884723" lon="13.538569">
        <ele>261.142</ele>
        <time>2018-09-05T08:55:48Z</time>
      </trkpt>
      <trkpt lat="45.884745" lon="13.538578">
        <ele>260.626</ele>
        <time>2018-09-05T08:55:49Z</time>
      </trkpt>
      <trkpt lat="45.884765" lon="13.538587">
        <ele>260.108</ele>
        <time>2018-09-05T08:55:50Z</time>
      </trkpt>
      <trkpt lat="45.884785" lon="13.538600">
        <ele>259.680</ele>
        <time>2018-09-05T08:55:51Z</time>
      </trkpt>
      <trkpt lat="45.885058" lon="13.538631">
        <ele>258.772</ele>
        <time>2018-09-05T08:56:02Z</time>
      </trkpt>
      <trkpt lat="45.885327" lon="13.538545">
        <ele>256.898</ele>
        <time>2018-09-05T08:56:12Z</time>
      </trkpt>
      <trkpt lat="45.885408" lon="13.538568">
        <ele>256.364</ele>
        <time>2018-09-05T08:56:15Z</time>
      </trkpt>
      <trkpt lat="45.885534" lon="13.538782">
        <ele>255.841</ele>
        <time>2018-09-05T08:56:27Z</time>
      </trkpt>
      <trkpt lat="45.885698" lon="13.539038">
        <ele>255.372</ele>
        <time>2018-09-05T08:56:40Z</time>
      </trkpt>
      <trkpt lat="45.885950" lon="13.539362">
        <ele>252.456</ele>
        <time>2018-09-05T08:56:51Z</time>
      </trkpt>
      <trkpt lat="45.886302" lon="13.539526">
        <ele>249.187</ele>
        <time>2018-09-05T08:57:02Z</time>
      </trkpt>
      <trkpt lat="45.886657" lon="13.539623">
        <ele>245.721</ele>
        <time>2018-09-05T08:57:14Z</time>
      </trkpt>
      <trkpt lat="45.887032" lon="13.539717">
        <ele>244.741</ele>
        <time>2018-09-05T08:57:28Z</time>
      </trkpt>
      <trkpt lat="45.887382" lon="13.539760">
        <ele>239.905</ele>
        <time>2018-09-05T08:57:41Z</time>
      </trkpt>
      <trkpt lat="45.887429" lon="13.539738">
        <ele>239.508</ele>
        <time>2018-09-05T08:57:43Z</time>
      </trkpt>
      <trkpt lat="45.887456" lon="13.539673">
        <ele>238.586</ele>
        <time>2018-09-05T08:57:45Z</time>
      </trkpt>
      <trkpt lat="45.887456" lon="13.539639">
        <ele>238.038</ele>
        <time>2018-09-05T08:57:46Z</time>
      </trkpt>
      <trkpt lat="45.887454" lon="13.539613">
        <ele>238.074</ele>
        <time>2018-09-05T08:57:47Z</time>
      </trkpt>
      <trkpt lat="45.887450" lon="13.539583">
        <ele>237.520</ele>
        <time>2018-09-05T08:57:48Z</time>
      </trkpt>
      <trkpt lat="45.887372" lon="13.539202">
        <ele>240.997</ele>
        <time>2018-09-05T08:58:01Z</time>
      </trkpt>
      <trkpt lat="45.887285" lon="13.538827">
        <ele>244.718</ele>
        <time>2018-09-05T08:58:12Z</time>
      </trkpt>
      <trkpt lat="45.887202" lon="13.538470">
        <ele>244.322</ele>
        <time>2018-09-05T08:58:23Z</time>
      </trkpt>
      <trkpt lat="45.887104" lon="13.538039">
        <ele>243.373</ele>
        <time>2018-09-05T08:58:33Z</time>
      </trkpt>
      <trkpt lat="45.886880" lon="13.537495">
        <ele>242.337</ele>
        <time>2018-09-05T08:58:43Z</time>
      </trkpt>
      <trkpt lat="45.886689" lon="13.536975">
        <ele>236.649</ele>
        <time>2018-09-05T08:58:56Z</time>
      </trkpt>
      <trkpt lat="45.886693" lon="13.536935">
        <ele>235.613</ele>
        <time>2018-09-05T08:58:57Z</time>
      </trkpt>
      <trkpt lat="45.886704" lon="13.536898">
        <ele>234.208</ele>
        <time>2018-09-05T08:58:58Z</time>
      </trkpt>
      <trkpt lat="45.886719" lon="13.536862">
        <ele>233.217</ele>
        <time>2018-09-05T08:58:59Z</time>
      </trkpt>
      <trkpt lat="45.886736" lon="13.536837">
        <ele>231.899</ele>
        <time>2018-09-05T08:59:00Z</time>
      </trkpt>
      <trkpt lat="45.886755" lon="13.536821">
        <ele>230.825</ele>
        <time>2018-09-05T08:59:01Z</time>
      </trkpt>
      <trkpt lat="45.886775" lon="13.536812">
        <ele>229.881</ele>
        <time>2018-09-05T08:59:02Z</time>
      </trkpt>
      <trkpt lat="45.887066" lon="13.536783">
        <ele>222.238</ele>
        <time>2018-09-05T08:59:15Z</time>
      </trkpt>
      <trkpt lat="45.887376" lon="13.536749">
        <ele>216.459</ele>
        <time>2018-09-05T08:59:29Z</time>
      </trkpt>
      <trkpt lat="45.887470" lon="13.536630">
        <ele>211.623</ele>
        <time>2018-09-05T08:59:35Z</time>
      </trkpt>
      <trkpt lat="45.887468" lon="13.536607">
        <ele>211.664</ele>
        <time>2018-09-05T08:59:36Z</time>
      </trkpt>
      <trkpt lat="45.887463" lon="13.536583">
        <ele>211.149</ele>
        <time>2018-09-05T08:59:37Z</time>
      </trkpt>
      <trkpt lat="45.887278" lon="13.536185">
        <ele>214.502</ele>
        <time>2018-09-05T08:59:52Z</time>
      </trkpt>
      <trkpt lat="45.887114" lon="13.535885">
        <ele>213.522</ele>
        <time>2018-09-05T09:00:05Z</time>
      </trkpt>
      <trkpt lat="45.886975" lon="13.535593">
        <ele>211.108</ele>
        <time>2018-09-05T09:00:16Z</time>
      </trkpt>
      <trkpt lat="45.886879" lon="13.535413">
        <ele>211.168</ele>
        <time>2018-09-05T09:00:23Z</time>
      </trkpt>
      <trkpt lat="45.886874" lon="13.535382">
        <ele>211.170</ele>
        <time>2018-09-05T09:00:24Z</time>
      </trkpt>
      <trkpt lat="45.886874" lon="13.535349">
        <ele>210.696</ele>
        <time>2018-09-05T09:00:25Z</time>
      </trkpt>
      <trkpt lat="45.886883" lon="13.535324">
        <ele>210.142</ele>
        <time>2018-09-05T09:00:26Z</time>
      </trkpt>
      <trkpt lat="45.886900" lon="13.535303">
        <ele>209.269</ele>
        <time>2018-09-05T09:00:27Z</time>
      </trkpt>
      <trkpt lat="45.886921" lon="13.535285">
        <ele>208.220</ele>
        <time>2018-09-05T09:00:28Z</time>
      </trkpt>
      <trkpt lat="45.886942" lon="13.535270">
        <ele>207.394</ele>
        <time>2018-09-05T09:00:29Z</time>
      </trkpt>
      <trkpt lat="45.887115" lon="13.535145">
        <ele>201.045</ele>
        <time>2018-09-05T09:00:40Z</time>
      </trkpt>
      <trkpt lat="45.887346" lon="13.534966">
        <ele>193.357</ele>
        <time>2018-09-05T09:00:52Z</time>
      </trkpt>
      <trkpt lat="45.887546" lon="13.534742">
        <ele>186.600</ele>
        <time>2018-09-05T09:01:02Z</time>
      </trkpt>
      <trkpt lat="45.887557" lon="13.534714">
        <ele>186.120</ele>
        <time>2018-09-05T09:01:03Z</time>
      </trkpt>
      <trkpt lat="45.887618" lon="13.534433">
        <ele>181.308</ele>
        <time>2018-09-05T09:01:15Z</time>
      </trkpt>
      <trkpt lat="45.887686" lon="13.534121">
        <ele>179.979</ele>
        <time>2018-09-05T09:01:26Z</time>
      </trkpt>
      <trkpt lat="45.887749" lon="13.533812">
        <ele>177.591</ele>
        <time>2018-09-05T09:01:39Z</time>
      </trkpt>
      <trkpt lat="45.887826" lon="13.533340">
        <ele>174.127</ele>
        <time>2018-09-05T09:01:53Z</time>
      </trkpt>
      <trkpt lat="45.887795" lon="13.533105">
        <ele>171.783</ele>
        <time>2018-09-05T09:02:03Z</time>
      </trkpt>
      <trkpt lat="45.887813" lon="13.533093">
        <ele>170.270</ele>
        <time>2018-09-05T09:02:35Z</time>
      </trkpt>
      <trkpt lat="45.887803" lon="13.533058">
        <ele>169.321</ele>
        <time>2018-09-05T09:02:43Z</time>
      </trkpt>
      <trkpt lat="45.887796" lon="13.533035">
        <ele>168.865</ele>
        <time>2018-09-05T09:02:44Z</time>
      </trkpt>
      <trkpt lat="45.887788" lon="13.533006">
        <ele>168.836</ele>
        <time>2018-09-05T09:02:45Z</time>
      </trkpt>
      <trkpt lat="45.887634" lon="13.532469">
        <ele>162.199</ele>
        <time>2018-09-05T09:02:57Z</time>
      </trkpt>
      <trkpt lat="45.887561" lon="13.532263">
        <ele>160.607</ele>
        <time>2018-09-05T09:03:00Z</time>
      </trkpt>
      <trkpt lat="45.887504" lon="13.532056">
        <ele>159.227</ele>
        <time>2018-09-05T09:03:03Z</time>
      </trkpt>
      <trkpt lat="45.887480" lon="13.531910">
        <ele>158.708</ele>
        <time>2018-09-05T09:03:05Z</time>
      </trkpt>
      <trkpt lat="45.887480" lon="13.531833">
        <ele>158.283</ele>
        <time>2018-09-05T09:03:06Z</time>
      </trkpt>
      <trkpt lat="45.887488" lon="13.531759">
        <ele>157.755</ele>
        <time>2018-09-05T09:03:07Z</time>
      </trkpt>
      <trkpt lat="45.887507" lon="13.531619">
        <ele>157.311</ele>
        <time>2018-09-05T09:03:09Z</time>
      </trkpt>
      <trkpt lat="45.887512" lon="13.531543">
        <ele>157.367</ele>
        <time>2018-09-05T09:03:10Z</time>
      </trkpt>
      <trkpt lat="45.887512" lon="13.531465">
        <ele>156.854</ele>
        <time>2018-09-05T09:03:11Z</time>
      </trkpt>
      <trkpt lat="45.887512" lon="13.531400">
        <ele>156.895</ele>
        <time>2018-09-05T09:03:12Z</time>
      </trkpt>
      <trkpt lat="45.887513" lon="13.531330">
        <ele>156.859</ele>
        <time>2018-09-05T09:03:13Z</time>
      </trkpt>
      <trkpt lat="45.887519" lon="13.530884">
        <ele>155.310</ele>
        <time>2018-09-05T09:03:19Z</time>
      </trkpt>
      <trkpt lat="45.887533" lon="13.530804">
        <ele>154.919</ele>
        <time>2018-09-05T09:03:20Z</time>
      </trkpt>
      <trkpt lat="45.887555" lon="13.530726">
        <ele>154.409</ele>
        <time>2018-09-05T09:03:21Z</time>
      </trkpt>
      <trkpt lat="45.887731" lon="13.530224">
        <ele>149.619</ele>
        <time>2018-09-05T09:03:28Z</time>
      </trkpt>
      <trkpt lat="45.887757" lon="13.530172">
        <ele>148.608</ele>
        <time>2018-09-05T09:03:29Z</time>
      </trkpt>
      <trkpt lat="45.888142" lon="13.529700">
        <ele>142.835</ele>
        <time>2018-09-05T09:03:41Z</time>
      </trkpt>
      <trkpt lat="45.888534" lon="13.529398">
        <ele>146.747</ele>
        <time>2018-09-05T09:03:56Z</time>
      </trkpt>
      <trkpt lat="45.888865" lon="13.529203">
        <ele>148.663</ele>
        <time>2018-09-05T09:04:08Z</time>
      </trkpt>
      <trkpt lat="45.889133" lon="13.528962">
        <ele>148.629</ele>
        <time>2018-09-05T09:04:19Z</time>
      </trkpt>
      <trkpt lat="45.889135" lon="13.528902">
        <ele>148.176</ele>
        <time>2018-09-05T09:04:20Z</time>
      </trkpt>
      <trkpt lat="45.889019" lon="13.528357">
        <ele>143.857</ele>
        <time>2018-09-05T09:04:30Z</time>
      </trkpt>
      <trkpt lat="45.888999" lon="13.528283">
        <ele>143.351</ele>
        <time>2018-09-05T09:04:31Z</time>
      </trkpt>
      <trkpt lat="45.888933" lon="13.527964">
        <ele>141.952</ele>
        <time>2018-09-05T09:04:35Z</time>
      </trkpt>
      <trkpt lat="45.888887" lon="13.527808">
        <ele>141.435</ele>
        <time>2018-09-05T09:04:37Z</time>
      </trkpt>
      <trkpt lat="45.888855" lon="13.527731">
        <ele>140.986</ele>
        <time>2018-09-05T09:04:38Z</time>
      </trkpt>
      <trkpt lat="45.888818" lon="13.527657">
        <ele>140.914</ele>
        <time>2018-09-05T09:04:39Z</time>
      </trkpt>
      <trkpt lat="45.888780" lon="13.527592">
        <ele>140.408</ele>
        <time>2018-09-05T09:04:40Z</time>
      </trkpt>
      <trkpt lat="45.888741" lon="13.527533">
        <ele>140.467</ele>
        <time>2018-09-05T09:04:41Z</time>
      </trkpt>
      <trkpt lat="45.888700" lon="13.527479">
        <ele>140.079</ele>
        <time>2018-09-05T09:04:42Z</time>
      </trkpt>
      <trkpt lat="45.888660" lon="13.527438">
        <ele>139.565</ele>
        <time>2018-09-05T09:04:43Z</time>
      </trkpt>
      <trkpt lat="45.888626" lon="13.527407">
        <ele>138.551</ele>
        <time>2018-09-05T09:04:44Z</time>
      </trkpt>
      <trkpt lat="45.888590" lon="13.527382">
        <ele>137.638</ele>
        <time>2018-09-05T09:04:45Z</time>
      </trkpt>
      <trkpt lat="45.888190" lon="13.527278">
        <ele>134.249</ele>
        <time>2018-09-05T09:04:52Z</time>
      </trkpt>
      <trkpt lat="45.888131" lon="13.527276">
        <ele>134.273</ele>
        <time>2018-09-05T09:04:53Z</time>
      </trkpt>
      <trkpt lat="45.888024" lon="13.527277">
        <ele>133.294</ele>
        <time>2018-09-05T09:04:55Z</time>
      </trkpt>
      <trkpt lat="45.887750" lon="13.527256">
        <ele>133.789</ele>
        <time>2018-09-05T09:05:04Z</time>
      </trkpt>
      <trkpt lat="45.887426" lon="13.527200">
        <ele>133.706</ele>
        <time>2018-09-05T09:05:15Z</time>
      </trkpt>
      <trkpt lat="45.887050" lon="13.526991">
        <ele>130.426</ele>
        <time>2018-09-05T09:05:25Z</time>
      </trkpt>
      <trkpt lat="45.887015" lon="13.526945">
        <ele>129.908</ele>
        <time>2018-09-05T09:05:26Z</time>
      </trkpt>
      <trkpt lat="45.886951" lon="13.526850">
        <ele>129.492</ele>
        <time>2018-09-05T09:05:28Z</time>
      </trkpt>
      <trkpt lat="45.886790" lon="13.526596">
        <ele>127.514</ele>
        <time>2018-09-05T09:05:33Z</time>
      </trkpt>
      <trkpt lat="45.886754" lon="13.526544">
        <ele>127.570</ele>
        <time>2018-09-05T09:05:34Z</time>
      </trkpt>
      <trkpt lat="45.886370" lon="13.525835">
        <ele>127.996</ele>
        <time>2018-09-05T09:05:46Z</time>
      </trkpt>
      <trkpt lat="45.885893" lon="13.525150">
        <ele>125.123</ele>
        <time>2018-09-05T09:05:56Z</time>
      </trkpt>
      <trkpt lat="45.885846" lon="13.525096">
        <ele>125.194</ele>
        <time>2018-09-05T09:05:57Z</time>
      </trkpt>
      <trkpt lat="45.885798" lon="13.525054">
        <ele>125.538</ele>
        <time>2018-09-05T09:05:58Z</time>
      </trkpt>
      <trkpt lat="45.885753" lon="13.525025">
        <ele>125.559</ele>
        <time>2018-09-05T09:05:59Z</time>
      </trkpt>
      <trkpt lat="45.885713" lon="13.525008">
        <ele>125.573</ele>
        <time>2018-09-05T09:06:00Z</time>
      </trkpt>
      <trkpt lat="45.885676" lon="13.524995">
        <ele>126.085</ele>
        <time>2018-09-05T09:06:01Z</time>
      </trkpt>
      <trkpt lat="45.885599" lon="13.524917">
        <ele>126.513</ele>
        <time>2018-09-05T09:06:04Z</time>
      </trkpt>
      <trkpt lat="45.885599" lon="13.524884">
        <ele>126.008</ele>
        <time>2018-09-05T09:06:05Z</time>
      </trkpt>
      <trkpt lat="45.885606" lon="13.524856">
        <ele>126.031</ele>
        <time>2018-09-05T09:06:06Z</time>
      </trkpt>
      <trkpt lat="45.885619" lon="13.524831">
        <ele>125.543</ele>
        <time>2018-09-05T09:06:07Z</time>
      </trkpt>
      <trkpt lat="45.885634" lon="13.524801">
        <ele>125.179</ele>
        <time>2018-09-05T09:06:08Z</time>
      </trkpt>
      <trkpt lat="45.885650" lon="13.524774">
        <ele>125.145</ele>
        <time>2018-09-05T09:06:09Z</time>
      </trkpt>
      <trkpt lat="45.885671" lon="13.524745">
        <ele>125.172</ele>
        <time>2018-09-05T09:06:10Z</time>
      </trkpt>
      <trkpt lat="45.885859" lon="13.524373">
        <ele>122.713</ele>
        <time>2018-09-05T09:06:21Z</time>
      </trkpt>
      <trkpt lat="45.885819" lon="13.523793">
        <ele>121.227</ele>
        <time>2018-09-05T09:06:32Z</time>
      </trkpt>
      <trkpt lat="45.885966" lon="13.523231">
        <ele>114.548</ele>
        <time>2018-09-05T09:06:43Z</time>
      </trkpt>
      <trkpt lat="45.886118" lon="13.522785">
        <ele>106.386</ele>
        <time>2018-09-05T09:06:55Z</time>
      </trkpt>
      <trkpt lat="45.886132" lon="13.522364">
        <ele>103.960</ele>
        <time>2018-09-05T09:07:06Z</time>
      </trkpt>
      <trkpt lat="45.886133" lon="13.522283">
        <ele>103.426</ele>
        <time>2018-09-05T09:07:09Z</time>
      </trkpt>
      <trkpt lat="45.886150" lon="13.521829">
        <ele>100.108</ele>
        <time>2018-09-05T09:07:21Z</time>
      </trkpt>
      <trkpt lat="45.886143" lon="13.521233">
        <ele>99.122</ele>
        <time>2018-09-05T09:07:32Z</time>
      </trkpt>
      <trkpt lat="45.886140" lon="13.521114">
        <ele>99.694</ele>
        <time>2018-09-05T09:07:34Z</time>
      </trkpt>
      <trkpt lat="45.886226" lon="13.520532">
        <ele>99.140</ele>
        <time>2018-09-05T09:07:43Z</time>
      </trkpt>
      <trkpt lat="45.886394" lon="13.519958">
        <ele>97.736</ele>
        <time>2018-09-05T09:07:55Z</time>
      </trkpt>
      <trkpt lat="45.886624" lon="13.519437">
        <ele>91.473</ele>
        <time>2018-09-05T09:08:06Z</time>
      </trkpt>
      <trkpt lat="45.886659" lon="13.519193">
        <ele>90.944</ele>
        <time>2018-09-05T09:08:10Z</time>
      </trkpt>
      <trkpt lat="45.886666" lon="13.519130">
        <ele>90.578</ele>
        <time>2018-09-05T09:08:11Z</time>
      </trkpt>
      <trkpt lat="45.886733" lon="13.518548">
        <ele>88.529</ele>
        <time>2018-09-05T09:08:20Z</time>
      </trkpt>
      <trkpt lat="45.886724" lon="13.518481">
        <ele>88.595</ele>
        <time>2018-09-05T09:08:21Z</time>
      </trkpt>
      <trkpt lat="45.886715" lon="13.518421">
        <ele>88.149</ele>
        <time>2018-09-05T09:08:22Z</time>
      </trkpt>
      <trkpt lat="45.886710" lon="13.518361">
        <ele>88.123</ele>
        <time>2018-09-05T09:08:23Z</time>
      </trkpt>
      <trkpt lat="45.886714" lon="13.518293">
        <ele>87.108</ele>
        <time>2018-09-05T09:08:24Z</time>
      </trkpt>
      <trkpt lat="45.886720" lon="13.518232">
        <ele>86.133</ele>
        <time>2018-09-05T09:08:25Z</time>
      </trkpt>
      <trkpt lat="45.886739" lon="13.518164">
        <ele>84.215</ele>
        <time>2018-09-05T09:08:26Z</time>
      </trkpt>
      <trkpt lat="45.886743" lon="13.517772">
        <ele>78.071</ele>
        <time>2018-09-05T09:08:33Z</time>
      </trkpt>
      <trkpt lat="45.886732" lon="13.517642">
        <ele>76.067</ele>
        <time>2018-09-05T09:08:35Z</time>
      </trkpt>
      <trkpt lat="45.886716" lon="13.517578">
        <ele>75.144</ele>
        <time>2018-09-05T09:08:36Z</time>
      </trkpt>
      <trkpt lat="45.886621" lon="13.516968">
        <ele>65.055</ele>
        <time>2018-09-05T09:08:45Z</time>
      </trkpt>
      <trkpt lat="45.886528" lon="13.516759">
        <ele>61.189</ele>
        <time>2018-09-05T09:08:55Z</time>
      </trkpt>
      <trkpt lat="45.886199" lon="13.516499">
        <ele>59.760</ele>
        <time>2018-09-05T09:09:09Z</time>
      </trkpt>
      <trkpt lat="45.886049" lon="13.516324">
        <ele>58.743</ele>
        <time>2018-09-05T09:09:16Z</time>
      </trkpt>
      <trkpt lat="45.886056" lon="13.516279">
        <ele>58.364</ele>
        <time>2018-09-05T09:09:17Z</time>
      </trkpt>
      <trkpt lat="45.886066" lon="13.516241">
        <ele>57.810</ele>
        <time>2018-09-05T09:09:18Z</time>
      </trkpt>
      <trkpt lat="45.886217" lon="13.516034">
        <ele>53.008</ele>
        <time>2018-09-05T09:09:24Z</time>
      </trkpt>
      <trkpt lat="45.886289" lon="13.515969">
        <ele>51.088</ele>
        <time>2018-09-05T09:09:26Z</time>
      </trkpt>
      <trkpt lat="45.886310" lon="13.515917">
        <ele>50.160</ele>
        <time>2018-09-05T09:09:27Z</time>
      </trkpt>
      <trkpt lat="45.886316" lon="13.515847">
        <ele>49.196</ele>
        <time>2018-09-05T09:09:28Z</time>
      </trkpt>
      <trkpt lat="45.886313" lon="13.515485">
        <ele>46.242</ele>
        <time>2018-09-05T09:09:32Z</time>
      </trkpt>
      <trkpt lat="45.886328" lon="13.515386">
        <ele>45.319</ele>
        <time>2018-09-05T09:09:33Z</time>
      </trkpt>
      <trkpt lat="45.886354" lon="13.515293">
        <ele>43.810</ele>
        <time>2018-09-05T09:09:34Z</time>
      </trkpt>
      <trkpt lat="45.886389" lon="13.515208">
        <ele>42.994</ele>
        <time>2018-09-05T09:09:35Z</time>
      </trkpt>
      <trkpt lat="45.886432" lon="13.515126">
        <ele>41.465</ele>
        <time>2018-09-05T09:09:36Z</time>
      </trkpt>
      <trkpt lat="45.886467" lon="13.515067">
        <ele>40.047</ele>
        <time>2018-09-05T09:09:37Z</time>
      </trkpt>
      <trkpt lat="45.886504" lon="13.515021">
        <ele>39.029</ele>
        <time>2018-09-05T09:09:38Z</time>
      </trkpt>
      <trkpt lat="45.886539" lon="13.514988">
        <ele>38.521</ele>
        <time>2018-09-05T09:09:39Z</time>
      </trkpt>
      <trkpt lat="45.886573" lon="13.514969">
        <ele>37.608</ele>
        <time>2018-09-05T09:09:40Z</time>
      </trkpt>
      <trkpt lat="45.886606" lon="13.514967">
        <ele>37.618</ele>
        <time>2018-09-05T09:09:41Z</time>
      </trkpt>
      <trkpt lat="45.886639" lon="13.514984">
        <ele>37.170</ele>
        <time>2018-09-05T09:09:42Z</time>
      </trkpt>
      <trkpt lat="45.886676" lon="13.515014">
        <ele>36.636</ele>
        <time>2018-09-05T09:09:43Z</time>
      </trkpt>
      <trkpt lat="45.886716" lon="13.515052">
        <ele>36.682</ele>
        <time>2018-09-05T09:09:44Z</time>
      </trkpt>
      <trkpt lat="45.886787" lon="13.515093">
        <ele>36.199</ele>
        <time>2018-09-05T09:09:46Z</time>
      </trkpt>
      <trkpt lat="45.886807" lon="13.515088">
        <ele>36.140</ele>
        <time>2018-09-05T09:09:47Z</time>
      </trkpt>
      <trkpt lat="45.886819" lon="13.515077">
        <ele>35.724</ele>
        <time>2018-09-05T09:09:48Z</time>
      </trkpt>
      <trkpt lat="45.886830" lon="13.515059">
        <ele>35.765</ele>
        <time>2018-09-05T09:09:49Z</time>
      </trkpt>
      <trkpt lat="45.886835" lon="13.515036">
        <ele>36.125</ele>
        <time>2018-09-05T09:09:50Z</time>
      </trkpt>
      <trkpt lat="45.886837" lon="13.514999">
        <ele>36.126</ele>
        <time>2018-09-05T09:09:51Z</time>
      </trkpt>
      <trkpt lat="45.886834" lon="13.514954">
        <ele>36.608</ele>
        <time>2018-09-05T09:09:52Z</time>
      </trkpt>
      <trkpt lat="45.886824" lon="13.514905">
        <ele>37.108</ele>
        <time>2018-09-05T09:09:53Z</time>
      </trkpt>
      <trkpt lat="45.886813" lon="13.514853">
        <ele>37.136</ele>
        <time>2018-09-05T09:09:54Z</time>
      </trkpt>
      <trkpt lat="45.886669" lon="13.514374">
        <ele>37.658</ele>
        <time>2018-09-05T09:10:03Z</time>
      </trkpt>
      <trkpt lat="45.886639" lon="13.514327">
        <ele>37.664</ele>
        <time>2018-09-05T09:10:04Z</time>
      </trkpt>
      <trkpt lat="45.886606" lon="13.514287">
        <ele>37.610</ele>
        <time>2018-09-05T09:10:05Z</time>
      </trkpt>
      <trkpt lat="45.886495" lon="13.514190">
        <ele>37.657</ele>
        <time>2018-09-05T09:10:08Z</time>
      </trkpt>
      <trkpt lat="45.886458" lon="13.514170">
        <ele>37.128</ele>
        <time>2018-09-05T09:10:09Z</time>
      </trkpt>
      <trkpt lat="45.886420" lon="13.514151">
        <ele>37.142</ele>
        <time>2018-09-05T09:10:10Z</time>
      </trkpt>
      <trkpt lat="45.886384" lon="13.514132">
        <ele>36.673</ele>
        <time>2018-09-05T09:10:11Z</time>
      </trkpt>
      <trkpt lat="45.886348" lon="13.514116">
        <ele>37.138</ele>
        <time>2018-09-05T09:10:12Z</time>
      </trkpt>
      <trkpt lat="45.886232" lon="13.514074">
        <ele>36.670</ele>
        <time>2018-09-05T09:10:15Z</time>
      </trkpt>
      <trkpt lat="45.886191" lon="13.514062">
        <ele>36.617</ele>
        <time>2018-09-05T09:10:16Z</time>
      </trkpt>
      <trkpt lat="45.886152" lon="13.514051">
        <ele>36.608</ele>
        <time>2018-09-05T09:10:17Z</time>
      </trkpt>
      <trkpt lat="45.886112" lon="13.514047">
        <ele>36.657</ele>
        <time>2018-09-05T09:10:18Z</time>
      </trkpt>
      <trkpt lat="45.886072" lon="13.514048">
        <ele>36.679</ele>
        <time>2018-09-05T09:10:19Z</time>
      </trkpt>
      <trkpt lat="45.886030" lon="13.514053">
        <ele>36.635</ele>
        <time>2018-09-05T09:10:20Z</time>
      </trkpt>
      <trkpt lat="45.885994" lon="13.514061">
        <ele>36.661</ele>
        <time>2018-09-05T09:10:21Z</time>
      </trkpt>
      <trkpt lat="45.885367" lon="13.514273">
        <ele>37.168</ele>
        <time>2018-09-05T09:10:38Z</time>
      </trkpt>
      <trkpt lat="45.884814" lon="13.514143">
        <ele>36.659</ele>
        <time>2018-09-05T09:10:51Z</time>
      </trkpt>
      <trkpt lat="45.884095" lon="13.513500">
        <ele>36.153</ele>
        <time>2018-09-05T09:11:08Z</time>
      </trkpt>
      <trkpt lat="45.883366" lon="13.512790">
        <ele>34.744</ele>
        <time>2018-09-05T09:11:25Z</time>
      </trkpt>
      <trkpt lat="45.882871" lon="13.511841">
        <ele>34.768</ele>
        <time>2018-09-05T09:11:41Z</time>
      </trkpt>
      <trkpt lat="45.882679" lon="13.510904">
        <ele>35.742</ele>
        <time>2018-09-05T09:11:55Z</time>
      </trkpt>
      <trkpt lat="45.882655" lon="13.509952">
        <ele>34.726</ele>
        <time>2018-09-05T09:12:11Z</time>
      </trkpt>
      <trkpt lat="45.882718" lon="13.509693">
        <ele>33.308</ele>
        <time>2018-09-05T09:12:16Z</time>
      </trkpt>
      <trkpt lat="45.882746" lon="13.509645">
        <ele>32.870</ele>
        <time>2018-09-05T09:12:17Z</time>
      </trkpt>
      <trkpt lat="45.882774" lon="13.509606">
        <ele>32.372</ele>
        <time>2018-09-05T09:12:18Z</time>
      </trkpt>
      <trkpt lat="45.882809" lon="13.509568">
        <ele>32.398</ele>
        <time>2018-09-05T09:12:19Z</time>
      </trkpt>
      <trkpt lat="45.882847" lon="13.509527">
        <ele>31.854</ele>
        <time>2018-09-05T09:12:20Z</time>
      </trkpt>
      <trkpt lat="45.882880" lon="13.509486">
        <ele>31.351</ele>
        <time>2018-09-05T09:12:21Z</time>
      </trkpt>
      <trkpt lat="45.883497" lon="13.508751">
        <ele>30.942</ele>
        <time>2018-09-05T09:12:39Z</time>
      </trkpt>
      <trkpt lat="45.884240" lon="13.507749">
        <ele>30.456</ele>
        <time>2018-09-05T09:13:00Z</time>
      </trkpt>
      <trkpt lat="45.884690" lon="13.507013">
        <ele>30.437</ele>
        <time>2018-09-05T09:13:17Z</time>
      </trkpt>
      <trkpt lat="45.884915" lon="13.506579">
        <ele>30.988</ele>
        <time>2018-09-05T09:13:31Z</time>
      </trkpt>
      <trkpt lat="45.885195" lon="13.506115">
        <ele>32.324</ele>
        <time>2018-09-05T09:13:46Z</time>
      </trkpt>
      <trkpt lat="45.885702" lon="13.505247">
        <ele>32.326</ele>
        <time>2018-09-05T09:14:09Z</time>
      </trkpt>
      <trkpt lat="45.885711" lon="13.505214">
        <ele>32.308</ele>
        <time>2018-09-05T09:14:30Z</time>
      </trkpt>
      <trkpt lat="45.885829" lon="13.505019">
        <ele>33.342</ele>
        <time>2018-09-05T09:14:44Z</time>
      </trkpt>
      <trkpt lat="45.886304" lon="13.504205">
        <ele>33.394</ele>
        <time>2018-09-05T09:15:04Z</time>
      </trkpt>
      <trkpt lat="45.886803" lon="13.503346">
        <ele>33.340</ele>
        <time>2018-09-05T09:15:25Z</time>
      </trkpt>
      <trkpt lat="45.886816" lon="13.503304">
        <ele>33.726</ele>
        <time>2018-09-05T09:15:26Z</time>
      </trkpt>
      <trkpt lat="45.886832" lon="13.503265">
        <ele>33.713</ele>
        <time>2018-09-05T09:15:27Z</time>
      </trkpt>
      <trkpt lat="45.886851" lon="13.503225">
        <ele>33.784</ele>
        <time>2018-09-05T09:15:28Z</time>
      </trkpt>
      <trkpt lat="45.886878" lon="13.503182">
        <ele>33.348</ele>
        <time>2018-09-05T09:15:29Z</time>
      </trkpt>
      <trkpt lat="45.886903" lon="13.503142">
        <ele>33.339</ele>
        <time>2018-09-05T09:15:30Z</time>
      </trkpt>
      <trkpt lat="45.887431" lon="13.502276">
        <ele>30.938</ele>
        <time>2018-09-05T09:15:48Z</time>
      </trkpt>
      <trkpt lat="45.887768" lon="13.501695">
        <ele>33.370</ele>
        <time>2018-09-05T09:16:00Z</time>
      </trkpt>
      <trkpt lat="45.887793" lon="13.501641">
        <ele>33.317</ele>
        <time>2018-09-05T09:16:01Z</time>
      </trkpt>
      <trkpt lat="45.887817" lon="13.501589">
        <ele>33.308</ele>
        <time>2018-09-05T09:16:02Z</time>
      </trkpt>
      <trkpt lat="45.887847" lon="13.501540">
        <ele>33.387</ele>
        <time>2018-09-05T09:16:03Z</time>
      </trkpt>
      <trkpt lat="45.887880" lon="13.501501">
        <ele>33.749</ele>
        <time>2018-09-05T09:16:04Z</time>
      </trkpt>
      <trkpt lat="45.887915" lon="13.501469">
        <ele>34.275</ele>
        <time>2018-09-05T09:16:05Z</time>
      </trkpt>
      <trkpt lat="45.887951" lon="13.501436">
        <ele>34.231</ele>
        <time>2018-09-05T09:16:06Z</time>
      </trkpt>
      <trkpt lat="45.887983" lon="13.501405">
        <ele>34.728</ele>
        <time>2018-09-05T09:16:07Z</time>
      </trkpt>
      <trkpt lat="45.888054" lon="13.501309">
        <ele>35.279</ele>
        <time>2018-09-05T09:16:16Z</time>
      </trkpt>
      <trkpt lat="45.888056" lon="13.501240">
        <ele>37.623</ele>
        <time>2018-09-05T09:16:39Z</time>
      </trkpt>
      <trkpt lat="45.888117" lon="13.501209">
        <ele>40.084</ele>
        <time>2018-09-05T09:16:44Z</time>
      </trkpt>
      <trkpt lat="45.888136" lon="13.501212">
        <ele>40.949</ele>
        <time>2018-09-05T09:16:45Z</time>
      </trkpt>
      <trkpt lat="45.888147" lon="13.501213">
        <ele>41.402</ele>
        <time>2018-09-05T09:16:46Z</time>
      </trkpt>
      <trkpt lat="45.888159" lon="13.501216">
        <ele>41.922</ele>
        <time>2018-09-05T09:16:47Z</time>
      </trkpt>
      <trkpt lat="45.888175" lon="13.501222">
        <ele>41.908</ele>
        <time>2018-09-05T09:16:48Z</time>
      </trkpt>
      <trkpt lat="45.888247" lon="13.501302">
        <ele>43.818</ele>
        <time>2018-09-05T09:17:00Z</time>
      </trkpt>
      <trkpt lat="45.888245" lon="13.501326">
        <ele>40.940</ele>
        <time>2018-09-05T09:17:29Z</time>
      </trkpt>
      <trkpt lat="45.888253" lon="13.501572">
        <ele>37.686</ele>
        <time>2018-09-05T09:17:42Z</time>
      </trkpt>
      <trkpt lat="45.888338" lon="13.501776">
        <ele>36.632</ele>
        <time>2018-09-05T09:17:53Z</time>
      </trkpt>
      <trkpt lat="45.888375" lon="13.501877">
        <ele>36.689</ele>
        <time>2018-09-05T09:17:59Z</time>
      </trkpt>
      <trkpt lat="45.888362" lon="13.501888">
        <ele>36.640</ele>
        <time>2018-09-05T09:18:00Z</time>
      </trkpt>
      <trkpt lat="45.888349" lon="13.501876">
        <ele>36.114</ele>
        <time>2018-09-05T09:18:01Z</time>
      </trkpt>
      <trkpt lat="45.888344" lon="13.501857">
        <ele>36.185</ele>
        <time>2018-09-05T09:18:02Z</time>
      </trkpt>
      <trkpt lat="45.888348" lon="13.501826">
        <ele>36.116</ele>
        <time>2018-09-05T09:18:03Z</time>
      </trkpt>
      <trkpt lat="45.888362" lon="13.501802">
        <ele>36.176</ele>
        <time>2018-09-05T09:18:04Z</time>
      </trkpt>
      <trkpt lat="45.888379" lon="13.501786">
        <ele>35.713</ele>
        <time>2018-09-05T09:18:05Z</time>
      </trkpt>
      <trkpt lat="45.888404" lon="13.501778">
        <ele>35.708</ele>
        <time>2018-09-05T09:18:06Z</time>
      </trkpt>
      <trkpt lat="45.888427" lon="13.501776">
        <ele>35.725</ele>
        <time>2018-09-05T09:18:07Z</time>
      </trkpt>
      <trkpt lat="45.888476" lon="13.501759">
        <ele>35.257</ele>
        <time>2018-09-05T09:18:09Z</time>
      </trkpt>
      <trkpt lat="45.888872" lon="13.501550">
        <ele>35.783</ele>
        <time>2018-09-05T09:18:25Z</time>
      </trkpt>
      <trkpt lat="45.889198" lon="13.501486">
        <ele>33.739</ele>
        <time>2018-09-05T09:18:37Z</time>
      </trkpt>
      <trkpt lat="45.889584" lon="13.501324">
        <ele>36.156</ele>
        <time>2018-09-05T09:18:52Z</time>
      </trkpt>
      <trkpt lat="45.889902" lon="13.501168">
        <ele>36.187</ele>
        <time>2018-09-05T09:19:05Z</time>
      </trkpt>
      <trkpt lat="45.890298" lon="13.500978">
        <ele>37.161</ele>
        <time>2018-09-05T09:19:19Z</time>
      </trkpt>
      <trkpt lat="45.890802" lon="13.500759">
        <ele>36.162</ele>
        <time>2018-09-05T09:19:35Z</time>
      </trkpt>
      <trkpt lat="45.891139" lon="13.500617">
        <ele>37.188</ele>
        <time>2018-09-05T09:19:47Z</time>
      </trkpt>
      <trkpt lat="45.891208" lon="13.500631">
        <ele>37.624</ele>
        <time>2018-09-05T09:19:51Z</time>
      </trkpt>
      <trkpt lat="45.891213" lon="13.500645">
        <ele>37.626</ele>
        <time>2018-09-05T09:19:52Z</time>
      </trkpt>
      <trkpt lat="45.891212" lon="13.500669">
        <ele>37.108</ele>
        <time>2018-09-05T09:19:54Z</time>
      </trkpt>
      <trkpt lat="45.891194" lon="13.500672">
        <ele>37.642</ele>
        <time>2018-09-05T09:19:57Z</time>
      </trkpt>
      <trkpt lat="45.891206" lon="13.500637">
        <ele>38.114</ele>
        <time>2018-09-05T09:20:00Z</time>
      </trkpt>
      <trkpt lat="45.891216" lon="13.500624">
        <ele>38.110</ele>
        <time>2018-09-05T09:20:01Z</time>
      </trkpt>
      <trkpt lat="45.891232" lon="13.500605">
        <ele>38.556</ele>
        <time>2018-09-05T09:20:02Z</time>
      </trkpt>
      <trkpt lat="45.891253" lon="13.500589">
        <ele>38.513</ele>
        <time>2018-09-05T09:20:03Z</time>
      </trkpt>
      <trkpt lat="45.891278" lon="13.500575">
        <ele>38.544</ele>
        <time>2018-09-05T09:20:04Z</time>
      </trkpt>
      <trkpt lat="45.891724" lon="13.500373">
        <ele>38.518</ele>
        <time>2018-09-05T09:20:21Z</time>
      </trkpt>
      <trkpt lat="45.892298" lon="13.500306">
        <ele>39.559</ele>
        <time>2018-09-05T09:20:39Z</time>
      </trkpt>
      <trkpt lat="45.892578" lon="13.500231">
        <ele>40.088</ele>
        <time>2018-09-05T09:20:49Z</time>
      </trkpt>
      <trkpt lat="45.892868" lon="13.499792">
        <ele>40.524</ele>
        <time>2018-09-05T09:21:02Z</time>
      </trkpt>
      <trkpt lat="45.892839" lon="13.499822">
        <ele>42.926</ele>
        <time>2018-09-05T10:03:39Z</time>
      </trkpt>
      <trkpt lat="45.893361" lon="13.499533">
        <ele>41.408</ele>
        <time>2018-09-05T10:03:56Z</time>
      </trkpt>
      <trkpt lat="45.893662" lon="13.499458">
        <ele>43.822</ele>
        <time>2018-09-05T10:04:04Z</time>
      </trkpt>
      <trkpt lat="45.893707" lon="13.499449">
        <ele>43.874</ele>
        <time>2018-09-05T10:04:05Z</time>
      </trkpt>
      <trkpt lat="45.893881" lon="13.499421">
        <ele>43.890</ele>
        <time>2018-09-05T10:04:09Z</time>
      </trkpt>
      <trkpt lat="45.893923" lon="13.499417">
        <ele>43.826</ele>
        <time>2018-09-05T10:04:10Z</time>
      </trkpt>
      <trkpt lat="45.894052" lon="13.499409">
        <ele>43.833</ele>
        <time>2018-09-05T10:04:13Z</time>
      </trkpt>
      <trkpt lat="45.894642" lon="13.499676">
        <ele>44.354</ele>
        <time>2018-09-05T10:04:27Z</time>
      </trkpt>
      <trkpt lat="45.894798" lon="13.499767">
        <ele>44.348</ele>
        <time>2018-09-05T10:04:31Z</time>
      </trkpt>
      <trkpt lat="45.895556" lon="13.500143">
        <ele>44.889</ele>
        <time>2018-09-05T10:04:49Z</time>
      </trkpt>
      <trkpt lat="45.896265" lon="13.500278">
        <ele>45.837</ele>
        <time>2018-09-05T10:05:06Z</time>
      </trkpt>
      <trkpt lat="45.896542" lon="13.500317">
        <ele>47.749</ele>
        <time>2018-09-05T10:05:13Z</time>
      </trkpt>
      <trkpt lat="45.896761" lon="13.500330">
        <ele>48.213</ele>
        <time>2018-09-05T10:05:18Z</time>
      </trkpt>
      <trkpt lat="45.896802" lon="13.500338">
        <ele>48.208</ele>
        <time>2018-09-05T10:05:19Z</time>
      </trkpt>
      <trkpt lat="45.896974" lon="13.500388">
        <ele>48.227</ele>
        <time>2018-09-05T10:05:23Z</time>
      </trkpt>
      <trkpt lat="45.897177" lon="13.500516">
        <ele>48.249</ele>
        <time>2018-09-05T10:05:28Z</time>
      </trkpt>
      <trkpt lat="45.897218" lon="13.500556">
        <ele>47.745</ele>
        <time>2018-09-05T10:05:29Z</time>
      </trkpt>
      <trkpt lat="45.897748" lon="13.501141">
        <ele>43.821</ele>
        <time>2018-09-05T10:05:43Z</time>
      </trkpt>
      <trkpt lat="45.898461" lon="13.501756">
        <ele>43.448</ele>
        <time>2018-09-05T10:06:01Z</time>
      </trkpt>
      <trkpt lat="45.899159" lon="13.502374">
        <ele>41.419</ele>
        <time>2018-09-05T10:06:20Z</time>
      </trkpt>
      <trkpt lat="45.899877" lon="13.503006">
        <ele>39.583</ele>
        <time>2018-09-05T10:06:39Z</time>
      </trkpt>
      <trkpt lat="45.899954" lon="13.503077">
        <ele>39.534</ele>
        <time>2018-09-05T10:06:41Z</time>
      </trkpt>
      <trkpt lat="45.900207" lon="13.503290">
        <ele>39.018</ele>
        <time>2018-09-05T10:06:48Z</time>
      </trkpt>
      <trkpt lat="45.900244" lon="13.503321">
        <ele>39.098</ele>
        <time>2018-09-05T10:06:49Z</time>
      </trkpt>
      <trkpt lat="45.900516" lon="13.503576">
        <ele>38.117</ele>
        <time>2018-09-05T10:06:56Z</time>
      </trkpt>
      <trkpt lat="45.900593" lon="13.503642">
        <ele>38.108</ele>
        <time>2018-09-05T10:06:58Z</time>
      </trkpt>
      <trkpt lat="45.901105" lon="13.504057">
        <ele>39.065</ele>
        <time>2018-09-05T10:07:11Z</time>
      </trkpt>
      <trkpt lat="45.901266" lon="13.504195">
        <ele>38.587</ele>
        <time>2018-09-05T10:07:15Z</time>
      </trkpt>
      <trkpt lat="45.901304" lon="13.504239">
        <ele>38.563</ele>
        <time>2018-09-05T10:07:16Z</time>
      </trkpt>
      <trkpt lat="45.901340" lon="13.504284">
        <ele>38.569</ele>
        <time>2018-09-05T10:07:17Z</time>
      </trkpt>
      <trkpt lat="45.901409" lon="13.504376">
        <ele>38.546</ele>
        <time>2018-09-05T10:07:19Z</time>
      </trkpt>
      <trkpt lat="45.901633" lon="13.504918">
        <ele>38.517</ele>
        <time>2018-09-05T10:07:30Z</time>
      </trkpt>
      <trkpt lat="45.901589" lon="13.505823">
        <ele>36.111</ele>
        <time>2018-09-05T10:07:43Z</time>
      </trkpt>
      <trkpt lat="45.901570" lon="13.506757">
        <ele>36.122</ele>
        <time>2018-09-05T10:07:57Z</time>
      </trkpt>
      <trkpt lat="45.901558" lon="13.506818">
        <ele>36.168</ele>
        <time>2018-09-05T10:07:58Z</time>
      </trkpt>
      <trkpt lat="45.901535" lon="13.506870">
        <ele>36.142</ele>
        <time>2018-09-05T10:07:59Z</time>
      </trkpt>
      <trkpt lat="45.901500" lon="13.506906">
        <ele>36.126</ele>
        <time>2018-09-05T10:08:00Z</time>
      </trkpt>
      <trkpt lat="45.901461" lon="13.506933">
        <ele>36.108</ele>
        <time>2018-09-05T10:08:01Z</time>
      </trkpt>
      <trkpt lat="45.901425" lon="13.506964">
        <ele>36.130</ele>
        <time>2018-09-05T10:08:02Z</time>
      </trkpt>
      <trkpt lat="45.901398" lon="13.507009">
        <ele>36.172</ele>
        <time>2018-09-05T10:08:03Z</time>
      </trkpt>
      <trkpt lat="45.901384" lon="13.507069">
        <ele>36.158</ele>
        <time>2018-09-05T10:08:04Z</time>
      </trkpt>
      <trkpt lat="45.901377" lon="13.507132">
        <ele>36.154</ele>
        <time>2018-09-05T10:08:05Z</time>
      </trkpt>
      <trkpt lat="45.901374" lon="13.507197">
        <ele>36.131</ele>
        <time>2018-09-05T10:08:06Z</time>
      </trkpt>
      <trkpt lat="45.901375" lon="13.507261">
        <ele>36.182</ele>
        <time>2018-09-05T10:08:07Z</time>
      </trkpt>
      <trkpt lat="45.901312" lon="13.508931">
        <ele>35.236</ele>
        <time>2018-09-05T10:08:32Z</time>
      </trkpt>
      <trkpt lat="45.901253" lon="13.510329">
        <ele>35.267</ele>
        <time>2018-09-05T10:08:52Z</time>
      </trkpt>
      <trkpt lat="45.901155" lon="13.511690">
        <ele>35.749</ele>
        <time>2018-09-05T10:09:12Z</time>
      </trkpt>
      <trkpt lat="45.901086" lon="13.513000">
        <ele>36.102</ele>
        <time>2018-09-05T10:09:32Z</time>
      </trkpt>
      <trkpt lat="45.901058" lon="13.513603">
        <ele>35.722</ele>
        <time>2018-09-05T10:09:41Z</time>
      </trkpt>
      <trkpt lat="45.901066" lon="13.513664">
        <ele>35.208</ele>
        <time>2018-09-05T10:09:42Z</time>
      </trkpt>
      <trkpt lat="45.901083" lon="13.513727">
        <ele>35.738</ele>
        <time>2018-09-05T10:09:43Z</time>
      </trkpt>
      <trkpt lat="45.901109" lon="13.513782">
        <ele>35.780</ele>
        <time>2018-09-05T10:09:44Z</time>
      </trkpt>
      <trkpt lat="45.901138" lon="13.513832">
        <ele>35.716</ele>
        <time>2018-09-05T10:09:45Z</time>
      </trkpt>
      <trkpt lat="45.901163" lon="13.513885">
        <ele>36.162</ele>
        <time>2018-09-05T10:09:46Z</time>
      </trkpt>
      <trkpt lat="45.901181" lon="13.513943">
        <ele>36.179</ele>
        <time>2018-09-05T10:09:47Z</time>
      </trkpt>
      <trkpt lat="45.901188" lon="13.514008">
        <ele>36.170</ele>
        <time>2018-09-05T10:09:48Z</time>
      </trkpt>
      <trkpt lat="45.901189" lon="13.514071">
        <ele>36.154</ele>
        <time>2018-09-05T10:09:49Z</time>
      </trkpt>
      <trkpt lat="45.901205" lon="13.514358">
        <ele>35.265</ele>
        <time>2018-09-05T10:09:54Z</time>
      </trkpt>
      <trkpt lat="45.901191" lon="13.514402">
        <ele>35.267</ele>
        <time>2018-09-05T10:09:55Z</time>
      </trkpt>
      <trkpt lat="45.901166" lon="13.514429">
        <ele>35.281</ele>
        <time>2018-09-05T10:09:56Z</time>
      </trkpt>
      <trkpt lat="45.901131" lon="13.514439">
        <ele>35.719</ele>
        <time>2018-09-05T10:09:57Z</time>
      </trkpt>
      <trkpt lat="45.901056" lon="13.514447">
        <ele>36.608</ele>
        <time>2018-09-05T10:09:59Z</time>
      </trkpt>
      <trkpt lat="45.901021" lon="13.514462">
        <ele>36.630</ele>
        <time>2018-09-05T10:10:00Z</time>
      </trkpt>
      <trkpt lat="45.900996" lon="13.514485">
        <ele>37.152</ele>
        <time>2018-09-05T10:10:01Z</time>
      </trkpt>
      <trkpt lat="45.900980" lon="13.514518">
        <ele>37.168</ele>
        <time>2018-09-05T10:10:02Z</time>
      </trkpt>
      <trkpt lat="45.900978" lon="13.514559">
        <ele>37.184</ele>
        <time>2018-09-05T10:10:03Z</time>
      </trkpt>
      <trkpt lat="45.900983" lon="13.514607">
        <ele>37.181</ele>
        <time>2018-09-05T10:10:04Z</time>
      </trkpt>
      <trkpt lat="45.900991" lon="13.514647">
        <ele>37.182</ele>
        <time>2018-09-05T10:10:05Z</time>
      </trkpt>
      <trkpt lat="45.901007" lon="13.514694">
        <ele>37.166</ele>
        <time>2018-09-05T10:10:06Z</time>
      </trkpt>
      <trkpt lat="45.901030" lon="13.514740">
        <ele>37.127</ele>
        <time>2018-09-05T10:10:07Z</time>
      </trkpt>
      <trkpt lat="45.901321" lon="13.515232">
        <ele>36.657</ele>
        <time>2018-09-05T10:10:16Z</time>
      </trkpt>
      <trkpt lat="45.901352" lon="13.515278">
        <ele>36.600</ele>
        <time>2018-09-05T10:10:17Z</time>
      </trkpt>
      <trkpt lat="45.901378" lon="13.515321">
        <ele>36.620</ele>
        <time>2018-09-05T10:10:18Z</time>
      </trkpt>
      <trkpt lat="45.901399" lon="13.515354">
        <ele>36.108</ele>
        <time>2018-09-05T10:10:19Z</time>
      </trkpt>
      <trkpt lat="45.901415" lon="13.515375">
        <ele>35.749</ele>
        <time>2018-09-05T10:10:20Z</time>
      </trkpt>
      <trkpt lat="45.901431" lon="13.515379">
        <ele>35.771</ele>
        <time>2018-09-05T10:10:21Z</time>
      </trkpt>
      <trkpt lat="45.901447" lon="13.515366">
        <ele>35.217</ele>
        <time>2018-09-05T10:10:22Z</time>
      </trkpt>
      <trkpt lat="45.901460" lon="13.515336">
        <ele>34.773</ele>
        <time>2018-09-05T10:10:23Z</time>
      </trkpt>
      <trkpt lat="45.901462" lon="13.515300">
        <ele>34.240</ele>
        <time>2018-09-05T10:10:24Z</time>
      </trkpt>
      <trkpt lat="45.901454" lon="13.515268">
        <ele>34.241</ele>
        <time>2018-09-05T10:10:25Z</time>
      </trkpt>
      <trkpt lat="45.901438" lon="13.515236">
        <ele>34.235</ele>
        <time>2018-09-05T10:10:26Z</time>
      </trkpt>
      <trkpt lat="45.901422" lon="13.515164">
        <ele>34.296</ele>
        <time>2018-09-05T10:10:28Z</time>
      </trkpt>
      <trkpt lat="45.901442" lon="13.515076">
        <ele>33.792</ele>
        <time>2018-09-05T10:10:30Z</time>
      </trkpt>
      <trkpt lat="45.901465" lon="13.515034">
        <ele>33.773</ele>
        <time>2018-09-05T10:10:31Z</time>
      </trkpt>
      <trkpt lat="45.901488" lon="13.514995">
        <ele>33.320</ele>
        <time>2018-09-05T10:10:32Z</time>
      </trkpt>
      <trkpt lat="45.901717" lon="13.514459">
        <ele>37.608</ele>
        <time>2018-09-05T10:10:43Z</time>
      </trkpt>
      <trkpt lat="45.901729" lon="13.514401">
        <ele>38.533</ele>
        <time>2018-09-05T10:10:44Z</time>
      </trkpt>
      <trkpt lat="45.901957" lon="13.513657">
        <ele>40.025</ele>
        <time>2018-09-05T10:10:59Z</time>
      </trkpt>
      <trkpt lat="45.901990" lon="13.513625">
        <ele>40.091</ele>
        <time>2018-09-05T10:11:00Z</time>
      </trkpt>
      <trkpt lat="45.902026" lon="13.513599">
        <ele>40.057</ele>
        <time>2018-09-05T10:11:01Z</time>
      </trkpt>
      <trkpt lat="45.902769" lon="13.513235">
        <ele>39.514</ele>
        <time>2018-09-05T10:11:19Z</time>
      </trkpt>
      <trkpt lat="45.903784" lon="13.512800">
        <ele>40.015</ele>
        <time>2018-09-05T10:11:42Z</time>
      </trkpt>
      <trkpt lat="45.904485" lon="13.512701">
        <ele>41.959</ele>
        <time>2018-09-05T10:12:01Z</time>
      </trkpt>
      <trkpt lat="45.905320" lon="13.512683">
        <ele>42.430</ele>
        <time>2018-09-05T10:12:21Z</time>
      </trkpt>
      <trkpt lat="45.906059" lon="13.512683">
        <ele>42.918</ele>
        <time>2018-09-05T10:12:37Z</time>
      </trkpt>
      <trkpt lat="45.906240" lon="13.512739">
        <ele>43.898</ele>
        <time>2018-09-05T10:12:41Z</time>
      </trkpt>
      <trkpt lat="45.906276" lon="13.512760">
        <ele>43.817</ele>
        <time>2018-09-05T10:12:42Z</time>
      </trkpt>
      <trkpt lat="45.906318" lon="13.512791">
        <ele>44.308</ele>
        <time>2018-09-05T10:12:43Z</time>
      </trkpt>
      <trkpt lat="45.906966" lon="13.513356">
        <ele>43.895</ele>
        <time>2018-09-05T10:12:59Z</time>
      </trkpt>
      <trkpt lat="45.907810" lon="13.513899">
        <ele>46.297</ele>
        <time>2018-09-05T10:13:18Z</time>
      </trkpt>
      <trkpt lat="45.908644" lon="13.514393">
        <ele>45.873</ele>
        <time>2018-09-05T10:13:37Z</time>
      </trkpt>
      <trkpt lat="45.909322" lon="13.514726">
        <ele>46.719</ele>
        <time>2018-09-05T10:13:52Z</time>
      </trkpt>
      <trkpt lat="45.909956" lon="13.515021">
        <ele>47.296</ele>
        <time>2018-09-05T10:14:06Z</time>
      </trkpt>
      <trkpt lat="45.910419" lon="13.515245">
        <ele>48.257</ele>
        <time>2018-09-05T10:14:16Z</time>
      </trkpt>
      <trkpt lat="45.910697" lon="13.515379">
        <ele>49.181</ele>
        <time>2018-09-05T10:14:23Z</time>
      </trkpt>
      <trkpt lat="45.910735" lon="13.515364">
        <ele>49.622</ele>
        <time>2018-09-05T10:14:24Z</time>
      </trkpt>
      <trkpt lat="45.910775" lon="13.515339">
        <ele>49.637</ele>
        <time>2018-09-05T10:14:25Z</time>
      </trkpt>
      <trkpt lat="45.911340" lon="13.514991">
        <ele>49.649</ele>
        <time>2018-09-05T10:14:40Z</time>
      </trkpt>
      <trkpt lat="45.912078" lon="13.514528">
        <ele>50.613</ele>
        <time>2018-09-05T10:14:58Z</time>
      </trkpt>
      <trkpt lat="45.912249" lon="13.514417">
        <ele>50.108</ele>
        <time>2018-09-05T10:15:02Z</time>
      </trkpt>
      <trkpt lat="45.912291" lon="13.514412">
        <ele>50.117</ele>
        <time>2018-09-05T10:15:03Z</time>
      </trkpt>
      <trkpt lat="45.912335" lon="13.514439">
        <ele>50.179</ele>
        <time>2018-09-05T10:15:04Z</time>
      </trkpt>
      <trkpt lat="45.912360" lon="13.514484">
        <ele>50.115</ele>
        <time>2018-09-05T10:15:05Z</time>
      </trkpt>
      <trkpt lat="45.912381" lon="13.514543">
        <ele>50.161</ele>
        <time>2018-09-05T10:15:06Z</time>
      </trkpt>
      <trkpt lat="45.912405" lon="13.514590">
        <ele>50.178</ele>
        <time>2018-09-05T10:15:07Z</time>
      </trkpt>
      <trkpt lat="45.912439" lon="13.514618">
        <ele>50.169</ele>
        <time>2018-09-05T10:15:08Z</time>
      </trkpt>
      <trkpt lat="45.912477" lon="13.514622">
        <ele>50.163</ele>
        <time>2018-09-05T10:15:09Z</time>
      </trkpt>
      <trkpt lat="45.912517" lon="13.514610">
        <ele>50.184</ele>
        <time>2018-09-05T10:15:10Z</time>
      </trkpt>
      <trkpt lat="45.912551" lon="13.514591">
        <ele>50.156</ele>
        <time>2018-09-05T10:15:11Z</time>
      </trkpt>
      <trkpt lat="45.912597" lon="13.514557">
        <ele>49.659</ele>
        <time>2018-09-05T10:15:12Z</time>
      </trkpt>
      <trkpt lat="45.912633" lon="13.514526">
        <ele>49.614</ele>
        <time>2018-09-05T10:15:13Z</time>
      </trkpt>
      <trkpt lat="45.912669" lon="13.514493">
        <ele>49.608</ele>
        <time>2018-09-05T10:15:14Z</time>
      </trkpt>
      <trkpt lat="45.912749" lon="13.514421">
        <ele>49.639</ele>
        <time>2018-09-05T10:15:16Z</time>
      </trkpt>
      <trkpt lat="45.913282" lon="13.514031">
        <ele>48.261</ele>
        <time>2018-09-05T10:15:31Z</time>
      </trkpt>
      <trkpt lat="45.914013" lon="13.513480">
        <ele>46.757</ele>
        <time>2018-09-05T10:15:50Z</time>
      </trkpt>
      <trkpt lat="45.914091" lon="13.513412">
        <ele>46.733</ele>
        <time>2018-09-05T10:15:52Z</time>
      </trkpt>
      <trkpt lat="45.914132" lon="13.513387">
        <ele>46.770</ele>
        <time>2018-09-05T10:15:53Z</time>
      </trkpt>
      <trkpt lat="45.914804" lon="13.512901">
        <ele>47.291</ele>
        <time>2018-09-05T10:16:09Z</time>
      </trkpt>
      <trkpt lat="45.914843" lon="13.512872">
        <ele>47.255</ele>
        <time>2018-09-05T10:16:10Z</time>
      </trkpt>
      <trkpt lat="45.914882" lon="13.512836">
        <ele>47.216</ele>
        <time>2018-09-05T10:16:11Z</time>
      </trkpt>
      <trkpt lat="45.914925" lon="13.512800">
        <ele>47.282</ele>
        <time>2018-09-05T10:16:12Z</time>
      </trkpt>
      <trkpt lat="45.914971" lon="13.512772">
        <ele>47.243</ele>
        <time>2018-09-05T10:16:13Z</time>
      </trkpt>
      <trkpt lat="45.915018" lon="13.512742">
        <ele>47.217</ele>
        <time>2018-09-05T10:16:14Z</time>
      </trkpt>
      <trkpt lat="45.915063" lon="13.512709">
        <ele>47.208</ele>
        <time>2018-09-05T10:16:15Z</time>
      </trkpt>
      <trkpt lat="45.916114" lon="13.511923">
        <ele>47.292</ele>
        <time>2018-09-05T10:16:38Z</time>
      </trkpt>
      <trkpt lat="45.916776" lon="13.511418">
        <ele>47.254</ele>
        <time>2018-09-05T10:16:53Z</time>
      </trkpt>
      <trkpt lat="45.917277" lon="13.511046">
        <ele>47.280</ele>
        <time>2018-09-05T10:17:04Z</time>
      </trkpt>
      <trkpt lat="45.917327" lon="13.511016">
        <ele>47.296</ele>
        <time>2018-09-05T10:17:05Z</time>
      </trkpt>
      <trkpt lat="45.918078" lon="13.510460">
        <ele>46.763</ele>
        <time>2018-09-05T10:17:22Z</time>
      </trkpt>
      <trkpt lat="45.918920" lon="13.509836">
        <ele>47.284</ele>
        <time>2018-09-05T10:17:41Z</time>
      </trkpt>
      <trkpt lat="45.919693" lon="13.509430">
        <ele>47.288</ele>
        <time>2018-09-05T10:17:58Z</time>
      </trkpt>
      <trkpt lat="45.919739" lon="13.509406">
        <ele>47.239</ele>
        <time>2018-09-05T10:17:59Z</time>
      </trkpt>
      <trkpt lat="45.919831" lon="13.509350">
        <ele>46.742</ele>
        <time>2018-09-05T10:18:01Z</time>
      </trkpt>
      <trkpt lat="45.920390" lon="13.509087">
        <ele>46.722</ele>
        <time>2018-09-05T10:18:13Z</time>
      </trkpt>
      <trkpt lat="45.920437" lon="13.509075">
        <ele>46.714</ele>
        <time>2018-09-05T10:18:14Z</time>
      </trkpt>
      <trkpt lat="45.920485" lon="13.509059">
        <ele>46.708</ele>
        <time>2018-09-05T10:18:15Z</time>
      </trkpt>
      <trkpt lat="45.921264" lon="13.508705">
        <ele>46.778</ele>
        <time>2018-09-05T10:18:32Z</time>
      </trkpt>
      <trkpt lat="45.921410" lon="13.508660">
        <ele>46.220</ele>
        <time>2018-09-05T10:18:37Z</time>
      </trkpt>
      <trkpt lat="45.921468" lon="13.508803">
        <ele>46.226</ele>
        <time>2018-09-05T10:18:42Z</time>
      </trkpt>
      <trkpt lat="45.921664" lon="13.509734">
        <ele>46.262</ele>
        <time>2018-09-05T10:19:00Z</time>
      </trkpt>
      <trkpt lat="45.921841" lon="13.510545">
        <ele>46.719</ele>
        <time>2018-09-05T10:19:15Z</time>
      </trkpt>
      <trkpt lat="45.922043" lon="13.511516">
        <ele>45.840</ele>
        <time>2018-09-05T10:19:33Z</time>
      </trkpt>
      <trkpt lat="45.922288" lon="13.512749">
        <ele>45.854</ele>
        <time>2018-09-05T10:19:55Z</time>
      </trkpt>
      <trkpt lat="45.922343" lon="13.513021">
        <ele>45.835</ele>
        <time>2018-09-05T10:20:00Z</time>
      </trkpt>
      <trkpt lat="45.922514" lon="13.513908">
        <ele>44.881</ele>
        <time>2018-09-05T10:20:16Z</time>
      </trkpt>
      <trkpt lat="45.922725" lon="13.514933">
        <ele>45.361</ele>
        <time>2018-09-05T10:20:34Z</time>
      </trkpt>
      <trkpt lat="45.922883" lon="13.515695">
        <ele>46.217</ele>
        <time>2018-09-05T10:20:48Z</time>
      </trkpt>
      <trkpt lat="45.923014" lon="13.516361">
        <ele>46.708</ele>
        <time>2018-09-05T10:21:01Z</time>
      </trkpt>
      <trkpt lat="45.923109" lon="13.516850">
        <ele>46.722</ele>
        <time>2018-09-05T10:21:10Z</time>
      </trkpt>
      <trkpt lat="45.923133" lon="13.516882">
        <ele>46.724</ele>
        <time>2018-09-05T10:21:11Z</time>
      </trkpt>
      <trkpt lat="45.923160" lon="13.516892">
        <ele>46.740</ele>
        <time>2018-09-05T10:21:12Z</time>
      </trkpt>
      <trkpt lat="45.923190" lon="13.516889">
        <ele>46.726</ele>
        <time>2018-09-05T10:21:13Z</time>
      </trkpt>
      <trkpt lat="45.923224" lon="13.516881">
        <ele>47.293</ele>
        <time>2018-09-05T10:21:14Z</time>
      </trkpt>
      <trkpt lat="45.923258" lon="13.516873">
        <ele>47.244</ele>
        <time>2018-09-05T10:21:15Z</time>
      </trkpt>
      <trkpt lat="45.923290" lon="13.516864">
        <ele>47.268</ele>
        <time>2018-09-05T10:21:16Z</time>
      </trkpt>
      <trkpt lat="45.923330" lon="13.516861">
        <ele>47.269</ele>
        <time>2018-09-05T10:21:17Z</time>
      </trkpt>
      <trkpt lat="45.923367" lon="13.516865">
        <ele>47.219</ele>
        <time>2018-09-05T10:21:18Z</time>
      </trkpt>
      <trkpt lat="45.923412" lon="13.516871">
        <ele>47.209</ele>
        <time>2018-09-05T10:21:19Z</time>
      </trkpt>
      <trkpt lat="45.923694" lon="13.516866">
        <ele>47.719</ele>
        <time>2018-09-05T10:21:26Z</time>
      </trkpt>
      <trkpt lat="45.924186" lon="13.516740">
        <ele>47.708</ele>
        <time>2018-09-05T10:21:40Z</time>
      </trkpt>
      <trkpt lat="45.924494" lon="13.516580">
        <ele>48.275</ele>
        <time>2018-09-05T10:21:50Z</time>
      </trkpt>
      <trkpt lat="45.925011" lon="13.516420">
        <ele>48.687</ele>
        <time>2018-09-05T10:22:04Z</time>
      </trkpt>
      <trkpt lat="45.925520" lon="13.516242">
        <ele>50.173</ele>
        <time>2018-09-05T10:22:20Z</time>
      </trkpt>
      <trkpt lat="45.925949" lon="13.516100">
        <ele>50.699</ele>
        <time>2018-09-05T10:22:32Z</time>
      </trkpt>
      <trkpt lat="45.926115" lon="13.515992">
        <ele>51.026</ele>
        <time>2018-09-05T10:22:41Z</time>
      </trkpt>
      <trkpt lat="45.926207" lon="13.515959">
        <ele>52.057</ele>
        <time>2018-09-05T10:22:54Z</time>
      </trkpt>
      <trkpt lat="45.926218" lon="13.515973">
        <ele>52.051</ele>
        <time>2018-09-05T10:23:17Z</time>
      </trkpt>
      <trkpt lat="45.926394" lon="13.515829">
        <ele>53.072</ele>
        <time>2018-09-05T10:23:29Z</time>
      </trkpt>
      <trkpt lat="45.926752" lon="13.515520">
        <ele>53.083</ele>
        <time>2018-09-05T10:23:40Z</time>
      </trkpt>
      <trkpt lat="45.926831" lon="13.515484">
        <ele>53.025</ele>
        <time>2018-09-05T10:23:42Z</time>
      </trkpt>
      <trkpt lat="45.927206" lon="13.515302">
        <ele>51.517</ele>
        <time>2018-09-05T10:23:53Z</time>
      </trkpt>
      <trkpt lat="45.927231" lon="13.515314">
        <ele>51.508</ele>
        <time>2018-09-05T10:23:54Z</time>
      </trkpt>
      <trkpt lat="45.927250" lon="13.515334">
        <ele>51.512</ele>
        <time>2018-09-05T10:23:55Z</time>
      </trkpt>
      <trkpt lat="45.927261" lon="13.515355">
        <ele>51.514</ele>
        <time>2018-09-05T10:23:56Z</time>
      </trkpt>
      <trkpt lat="45.927275" lon="13.515369">
        <ele>50.680</ele>
        <time>2018-09-05T10:24:01Z</time>
      </trkpt>
      <trkpt lat="45.927569" lon="13.515251">
        <ele>50.636</ele>
        <time>2018-09-05T10:24:12Z</time>
      </trkpt>
      <trkpt lat="45.928050" lon="13.515097">
        <ele>50.643</ele>
        <time>2018-09-05T10:24:25Z</time>
      </trkpt>
      <trkpt lat="45.928507" lon="13.514798">
        <ele>50.624</ele>
        <time>2018-09-05T10:24:40Z</time>
      </trkpt>
      <trkpt lat="45.928906" lon="13.514535">
        <ele>50.178</ele>
        <time>2018-09-05T10:24:52Z</time>
      </trkpt>
      <trkpt lat="45.929043" lon="13.514437">
        <ele>50.149</ele>
        <time>2018-09-05T10:24:56Z</time>
      </trkpt>
      <trkpt lat="45.929079" lon="13.514408">
        <ele>49.612</ele>
        <time>2018-09-05T10:24:57Z</time>
      </trkpt>
      <trkpt lat="45.929570" lon="13.514053">
        <ele>49.632</ele>
        <time>2018-09-05T10:25:11Z</time>
      </trkpt>
      <trkpt lat="45.929604" lon="13.514022">
        <ele>49.605</ele>
        <time>2018-09-05T10:25:12Z</time>
      </trkpt>
      <trkpt lat="45.929902" lon="13.513711">
        <ele>49.608</ele>
        <time>2018-09-05T10:25:22Z</time>
      </trkpt>
      <trkpt lat="45.930206" lon="13.513413">
        <ele>49.665</ele>
        <time>2018-09-05T10:25:31Z</time>
      </trkpt>
      <trkpt lat="45.930247" lon="13.513388">
        <ele>49.687</ele>
        <time>2018-09-05T10:25:32Z</time>
      </trkpt>
      <trkpt lat="45.930903" lon="13.512968">
        <ele>50.153</ele>
        <time>2018-09-05T10:25:48Z</time>
      </trkpt>
      <trkpt lat="45.931327" lon="13.512710">
        <ele>50.129</ele>
        <time>2018-09-05T10:26:00Z</time>
      </trkpt>
      <trkpt lat="45.931366" lon="13.512698">
        <ele>50.176</ele>
        <time>2018-09-05T10:26:01Z</time>
      </trkpt>
      <trkpt lat="45.931401" lon="13.512681">
        <ele>50.647</ele>
        <time>2018-09-05T10:26:02Z</time>
      </trkpt>
      <trkpt lat="45.931536" lon="13.512584">
        <ele>50.631</ele>
        <time>2018-09-05T10:26:06Z</time>
      </trkpt>
      <trkpt lat="45.931574" lon="13.512564">
        <ele>50.612</ele>
        <time>2018-09-05T10:26:07Z</time>
      </trkpt>
      <trkpt lat="45.931802" lon="13.512414">
        <ele>50.646</ele>
        <time>2018-09-05T10:26:13Z</time>
      </trkpt>
      <trkpt lat="45.932003" lon="13.512265">
        <ele>50.688</ele>
        <time>2018-09-05T10:26:18Z</time>
      </trkpt>
      <trkpt lat="45.932041" lon="13.512227">
        <ele>50.616</ele>
        <time>2018-09-05T10:26:19Z</time>
      </trkpt>
      <trkpt lat="45.932082" lon="13.512195">
        <ele>50.108</ele>
        <time>2018-09-05T10:26:20Z</time>
      </trkpt>
      <trkpt lat="45.932245" lon="13.512100">
        <ele>50.118</ele>
        <time>2018-09-05T10:26:24Z</time>
      </trkpt>
      <trkpt lat="45.932418" lon="13.511999">
        <ele>50.120</ele>
        <time>2018-09-05T10:26:29Z</time>
      </trkpt>
      <trkpt lat="45.932775" lon="13.511721">
        <ele>49.696</ele>
        <time>2018-09-05T10:26:40Z</time>
      </trkpt>
      <trkpt lat="45.933432" lon="13.511460">
        <ele>48.692</ele>
        <time>2018-09-05T10:26:55Z</time>
      </trkpt>
      <trkpt lat="45.933481" lon="13.511458">
        <ele>48.699</ele>
        <time>2018-09-05T10:26:56Z</time>
      </trkpt>
      <trkpt lat="45.933531" lon="13.511462">
        <ele>49.190</ele>
        <time>2018-09-05T10:26:57Z</time>
      </trkpt>
      <trkpt lat="45.934562" lon="13.511677">
        <ele>48.254</ele>
        <time>2018-09-05T10:27:18Z</time>
      </trkpt>
      <trkpt lat="45.935577" lon="13.512091">
        <ele>48.665</ele>
        <time>2018-09-05T10:27:39Z</time>
      </trkpt>
      <trkpt lat="45.936627" lon="13.512421">
        <ele>48.297</ele>
        <time>2018-09-05T10:28:00Z</time>
      </trkpt>
      <trkpt lat="45.936679" lon="13.512432">
        <ele>48.223</ele>
        <time>2018-09-05T10:28:01Z</time>
      </trkpt>
      <trkpt lat="45.937443" lon="13.512563">
        <ele>46.725</ele>
        <time>2018-09-05T10:28:15Z</time>
      </trkpt>
      <trkpt lat="45.938157" lon="13.512387">
        <ele>44.808</ele>
        <time>2018-09-05T10:28:28Z</time>
      </trkpt>
      <trkpt lat="45.938838" lon="13.512102">
        <ele>48.213</ele>
        <time>2018-09-05T10:28:44Z</time>
      </trkpt>
      <trkpt lat="45.939065" lon="13.512092">
        <ele>50.115</ele>
        <time>2018-09-05T10:28:50Z</time>
      </trkpt>
      <trkpt lat="45.939092" lon="13.512128">
        <ele>50.141</ele>
        <time>2018-09-05T10:28:51Z</time>
      </trkpt>
      <trkpt lat="45.939114" lon="13.512175">
        <ele>50.137</ele>
        <time>2018-09-05T10:28:52Z</time>
      </trkpt>
      <trkpt lat="45.939132" lon="13.512227">
        <ele>50.194</ele>
        <time>2018-09-05T10:28:53Z</time>
      </trkpt>
      <trkpt lat="45.939148" lon="13.512285">
        <ele>50.135</ele>
        <time>2018-09-05T10:28:54Z</time>
      </trkpt>
      <trkpt lat="45.939159" lon="13.512351">
        <ele>50.129</ele>
        <time>2018-09-05T10:28:55Z</time>
      </trkpt>
      <trkpt lat="45.939161" lon="13.512404">
        <ele>50.110</ele>
        <time>2018-09-05T10:28:56Z</time>
      </trkpt>
      <trkpt lat="45.939158" lon="13.512465">
        <ele>49.686</ele>
        <time>2018-09-05T10:28:57Z</time>
      </trkpt>
      <trkpt lat="45.939154" lon="13.512522">
        <ele>49.660</ele>
        <time>2018-09-05T10:28:58Z</time>
      </trkpt>
      <trkpt lat="45.939121" lon="13.512824">
        <ele>49.126</ele>
        <time>2018-09-05T10:29:03Z</time>
      </trkpt>
      <trkpt lat="45.939112" lon="13.512882">
        <ele>49.608</ele>
        <time>2018-09-05T10:29:04Z</time>
      </trkpt>
      <trkpt lat="45.939104" lon="13.512940">
        <ele>49.612</ele>
        <time>2018-09-05T10:29:05Z</time>
      </trkpt>
      <trkpt lat="45.938989" lon="13.513804">
        <ele>49.634</ele>
        <time>2018-09-05T10:29:21Z</time>
      </trkpt>
      <trkpt lat="45.938992" lon="13.513893">
        <ele>50.110</ele>
        <time>2018-09-05T10:29:30Z</time>
      </trkpt>
      <trkpt lat="45.938996" lon="13.513908">
        <ele>49.646</ele>
        <time>2018-09-05T10:29:35Z</time>
      </trkpt>
      <trkpt lat="45.939016" lon="13.513975">
        <ele>49.613</ele>
        <time>2018-09-05T10:29:38Z</time>
      </trkpt>
      <trkpt lat="45.939018" lon="13.514017">
        <ele>49.614</ele>
        <time>2018-09-05T10:29:39Z</time>
      </trkpt>
      <trkpt lat="45.939022" lon="13.514063">
        <ele>49.658</ele>
        <time>2018-09-05T10:29:40Z</time>
      </trkpt>
      <trkpt lat="45.939043" lon="13.514111">
        <ele>49.159</ele>
        <time>2018-09-05T10:29:41Z</time>
      </trkpt>
      <trkpt lat="45.939081" lon="13.514145">
        <ele>49.176</ele>
        <time>2018-09-05T10:29:42Z</time>
      </trkpt>
      <trkpt lat="45.939117" lon="13.514161">
        <ele>49.190</ele>
        <time>2018-09-05T10:29:43Z</time>
      </trkpt>
      <trkpt lat="45.939153" lon="13.514169">
        <ele>49.119</ele>
        <time>2018-09-05T10:29:44Z</time>
      </trkpt>
      <trkpt lat="45.939189" lon="13.514178">
        <ele>48.608</ele>
        <time>2018-09-05T10:29:45Z</time>
      </trkpt>
      <trkpt lat="45.939219" lon="13.514191">
        <ele>48.651</ele>
        <time>2018-09-05T10:29:46Z</time>
      </trkpt>
      <trkpt lat="45.939653" lon="13.514252">
        <ele>50.633</ele>
        <time>2018-09-05T10:29:57Z</time>
      </trkpt>
      <trkpt lat="45.939862" lon="13.514284">
        <ele>52.039</ele>
        <time>2018-09-05T10:30:02Z</time>
      </trkpt>
      <trkpt lat="45.939903" lon="13.514294">
        <ele>52.045</ele>
        <time>2018-09-05T10:30:03Z</time>
      </trkpt>
      <trkpt lat="45.939944" lon="13.514299">
        <ele>52.042</ele>
        <time>2018-09-05T10:30:04Z</time>
      </trkpt>
      <trkpt lat="45.939984" lon="13.514307">
        <ele>52.563</ele>
        <time>2018-09-05T10:30:05Z</time>
      </trkpt>
      <trkpt lat="45.940018" lon="13.514320">
        <ele>52.517</ele>
        <time>2018-09-05T10:30:06Z</time>
      </trkpt>
      <trkpt lat="45.940177" lon="13.514316">
        <ele>53.428</ele>
        <time>2018-09-05T10:30:11Z</time>
      </trkpt>
      <trkpt lat="45.940198" lon="13.514274">
        <ele>53.438</ele>
        <time>2018-09-05T10:30:12Z</time>
      </trkpt>
      <trkpt lat="45.940204" lon="13.514229">
        <ele>53.470</ele>
        <time>2018-09-05T10:30:13Z</time>
      </trkpt>
      <trkpt lat="45.940202" lon="13.514175">
        <ele>53.417</ele>
        <time>2018-09-05T10:30:14Z</time>
      </trkpt>
      <trkpt lat="45.940195" lon="13.514113">
        <ele>53.408</ele>
        <time>2018-09-05T10:30:15Z</time>
      </trkpt>
      <trkpt lat="45.940186" lon="13.514060">
        <ele>53.027</ele>
        <time>2018-09-05T10:30:16Z</time>
      </trkpt>
      <trkpt lat="45.940146" lon="13.513900">
        <ele>53.459</ele>
        <time>2018-09-05T10:30:19Z</time>
      </trkpt>
      <trkpt lat="45.940139" lon="13.513932">
        <ele>54.945</ele>
        <time>2018-09-05T10:30:39Z</time>
      </trkpt>
      <trkpt lat="45.940170" lon="13.513960">
        <ele>55.861</ele>
        <time>2018-09-05T10:30:40Z</time>
      </trkpt>
      <trkpt lat="45.940211" lon="13.513962">
        <ele>56.858</ele>
        <time>2018-09-05T10:30:41Z</time>
      </trkpt>
      <trkpt lat="45.940248" lon="13.513922">
        <ele>57.839</ele>
        <time>2018-09-05T10:30:42Z</time>
      </trkpt>
      <trkpt lat="45.940269" lon="13.513886">
        <ele>57.853</ele>
        <time>2018-09-05T10:30:43Z</time>
      </trkpt>
      <trkpt lat="45.940290" lon="13.513832">
        <ele>58.324</ele>
        <time>2018-09-05T10:30:44Z</time>
      </trkpt>
      <trkpt lat="45.940305" lon="13.513775">
        <ele>58.369</ele>
        <time>2018-09-05T10:30:45Z</time>
      </trkpt>
      <trkpt lat="45.940317" lon="13.513715">
        <ele>58.304</ele>
        <time>2018-09-05T10:30:46Z</time>
      </trkpt>
      <trkpt lat="45.940329" lon="13.513648">
        <ele>58.324</ele>
        <time>2018-09-05T10:30:47Z</time>
      </trkpt>
      <trkpt lat="45.940346" lon="13.513584">
        <ele>58.308</ele>
        <time>2018-09-05T10:30:48Z</time>
      </trkpt>
      <trkpt lat="45.940363" lon="13.513517">
        <ele>57.850</ele>
        <time>2018-09-05T10:30:49Z</time>
      </trkpt>
      <trkpt lat="45.940475" lon="13.513018">
        <ele>57.812</ele>
        <time>2018-09-05T10:30:56Z</time>
      </trkpt>
      <trkpt lat="45.940505" lon="13.512954">
        <ele>57.888</ele>
        <time>2018-09-05T10:30:57Z</time>
      </trkpt>
      <trkpt lat="45.940535" lon="13.512900">
        <ele>57.874</ele>
        <time>2018-09-05T10:30:58Z</time>
      </trkpt>
      <trkpt lat="45.940874" lon="13.512427">
        <ele>55.421</ele>
        <time>2018-09-05T10:31:07Z</time>
      </trkpt>
      <trkpt lat="45.940917" lon="13.512393">
        <ele>55.412</ele>
        <time>2018-09-05T10:31:08Z</time>
      </trkpt>
      <trkpt lat="45.940967" lon="13.512367">
        <ele>55.416</ele>
        <time>2018-09-05T10:31:09Z</time>
      </trkpt>
      <trkpt lat="45.941014" lon="13.512354">
        <ele>55.447</ele>
        <time>2018-09-05T10:31:10Z</time>
      </trkpt>
      <trkpt lat="45.941064" lon="13.512345">
        <ele>54.939</ele>
        <time>2018-09-05T10:31:11Z</time>
      </trkpt>
      <trkpt lat="45.941692" lon="13.512025">
        <ele>53.001</ele>
        <time>2018-09-05T10:31:24Z</time>
      </trkpt>
      <trkpt lat="45.942488" lon="13.511170">
        <ele>51.021</ele>
        <time>2018-09-05T10:31:44Z</time>
      </trkpt>
      <trkpt lat="45.942684" lon="13.510845">
        <ele>50.108</ele>
        <time>2018-09-05T10:31:50Z</time>
      </trkpt>
      <trkpt lat="45.942710" lon="13.510781">
        <ele>50.157</ele>
        <time>2018-09-05T10:31:51Z</time>
      </trkpt>
      <trkpt lat="45.942768" lon="13.510659">
        <ele>50.179</ele>
        <time>2018-09-05T10:31:53Z</time>
      </trkpt>
      <trkpt lat="45.942818" lon="13.510632">
        <ele>50.155</ele>
        <time>2018-09-05T10:31:54Z</time>
      </trkpt>
      <trkpt lat="45.942864" lon="13.510640">
        <ele>49.651</ele>
        <time>2018-09-05T10:31:55Z</time>
      </trkpt>
      <trkpt lat="45.942908" lon="13.510674">
        <ele>49.668</ele>
        <time>2018-09-05T10:31:56Z</time>
      </trkpt>
      <trkpt lat="45.942946" lon="13.510727">
        <ele>49.679</ele>
        <time>2018-09-05T10:31:57Z</time>
      </trkpt>
      <trkpt lat="45.942972" lon="13.510781">
        <ele>49.623</ele>
        <time>2018-09-05T10:31:58Z</time>
      </trkpt>
      <trkpt lat="45.942994" lon="13.510844">
        <ele>49.614</ele>
        <time>2018-09-05T10:31:59Z</time>
      </trkpt>
      <trkpt lat="45.943014" lon="13.510908">
        <ele>49.641</ele>
        <time>2018-09-05T10:32:00Z</time>
      </trkpt>
      <trkpt lat="45.943255" lon="13.511547">
        <ele>48.281</ele>
        <time>2018-09-05T10:32:10Z</time>
      </trkpt>
      <trkpt lat="45.943293" lon="13.511593">
        <ele>48.209</ele>
        <time>2018-09-05T10:32:11Z</time>
      </trkpt>
      <trkpt lat="45.943340" lon="13.511618">
        <ele>48.208</ele>
        <time>2018-09-05T10:32:12Z</time>
      </trkpt>
      <trkpt lat="45.943389" lon="13.511620">
        <ele>48.258</ele>
        <time>2018-09-05T10:32:13Z</time>
      </trkpt>
      <trkpt lat="45.943438" lon="13.511598">
        <ele>48.670</ele>
        <time>2018-09-05T10:32:14Z</time>
      </trkpt>
      <trkpt lat="45.943484" lon="13.511560">
        <ele>48.636</ele>
        <time>2018-09-05T10:32:15Z</time>
      </trkpt>
      <trkpt lat="45.943526" lon="13.511514">
        <ele>48.642</ele>
        <time>2018-09-05T10:32:16Z</time>
      </trkpt>
      <trkpt lat="45.943566" lon="13.511464">
        <ele>49.179</ele>
        <time>2018-09-05T10:32:17Z</time>
      </trkpt>
      <trkpt lat="45.943920" lon="13.511053">
        <ele>48.270</ele>
        <time>2018-09-05T10:32:26Z</time>
      </trkpt>
      <trkpt lat="45.943962" lon="13.511042">
        <ele>48.244</ele>
        <time>2018-09-05T10:32:27Z</time>
      </trkpt>
      <trkpt lat="45.944005" lon="13.511059">
        <ele>48.285</ele>
        <time>2018-09-05T10:32:28Z</time>
      </trkpt>
      <trkpt lat="45.944042" lon="13.511096">
        <ele>48.237</ele>
        <time>2018-09-05T10:32:29Z</time>
      </trkpt>
      <trkpt lat="45.944072" lon="13.511139">
        <ele>47.749</ele>
        <time>2018-09-05T10:32:30Z</time>
      </trkpt>
      <trkpt lat="45.944103" lon="13.511189">
        <ele>47.713</ele>
        <time>2018-09-05T10:32:31Z</time>
      </trkpt>
      <trkpt lat="45.944352" lon="13.511583">
        <ele>47.208</ele>
        <time>2018-09-05T10:32:39Z</time>
      </trkpt>
      <trkpt lat="45.944392" lon="13.511604">
        <ele>47.247</ele>
        <time>2018-09-05T10:32:40Z</time>
      </trkpt>
      <trkpt lat="45.944435" lon="13.511599">
        <ele>46.779</ele>
        <time>2018-09-05T10:32:41Z</time>
      </trkpt>
      <trkpt lat="45.944480" lon="13.511575">
        <ele>46.755</ele>
        <time>2018-09-05T10:32:42Z</time>
      </trkpt>
      <trkpt lat="45.944514" lon="13.511545">
        <ele>46.751</ele>
        <time>2018-09-05T10:32:43Z</time>
      </trkpt>
      <trkpt lat="45.944553" lon="13.511498">
        <ele>46.758</ele>
        <time>2018-09-05T10:32:44Z</time>
      </trkpt>
      <trkpt lat="45.944593" lon="13.511442">
        <ele>46.759</ele>
        <time>2018-09-05T10:32:45Z</time>
      </trkpt>
      <trkpt lat="45.944622" lon="13.511396">
        <ele>46.753</ele>
        <time>2018-09-05T10:32:46Z</time>
      </trkpt>
      <trkpt lat="45.944652" lon="13.511343">
        <ele>46.744</ele>
        <time>2018-09-05T10:32:47Z</time>
      </trkpt>
      <trkpt lat="45.944676" lon="13.511279">
        <ele>46.783</ele>
        <time>2018-09-05T10:32:48Z</time>
      </trkpt>
      <trkpt lat="45.944692" lon="13.511206">
        <ele>47.225</ele>
        <time>2018-09-05T10:32:49Z</time>
      </trkpt>
      <trkpt lat="45.944706" lon="13.511137">
        <ele>47.217</ele>
        <time>2018-09-05T10:32:50Z</time>
      </trkpt>
      <trkpt lat="45.944817" lon="13.510166">
        <ele>47.708</ele>
        <time>2018-09-05T10:33:04Z</time>
      </trkpt>
      <trkpt lat="45.944826" lon="13.510097">
        <ele>47.722</ele>
        <time>2018-09-05T10:33:05Z</time>
      </trkpt>
      <trkpt lat="45.945016" lon="13.508795">
        <ele>49.194</ele>
        <time>2018-09-05T10:33:23Z</time>
      </trkpt>
      <trkpt lat="45.945050" lon="13.508664">
        <ele>49.120</ele>
        <time>2018-09-05T10:33:25Z</time>
      </trkpt>
      <trkpt lat="45.945073" lon="13.508604">
        <ele>49.686</ele>
        <time>2018-09-05T10:33:26Z</time>
      </trkpt>
      <trkpt lat="45.945100" lon="13.508546">
        <ele>49.613</ele>
        <time>2018-09-05T10:33:27Z</time>
      </trkpt>
      <trkpt lat="45.945132" lon="13.508489">
        <ele>49.614</ele>
        <time>2018-09-05T10:33:28Z</time>
      </trkpt>
      <trkpt lat="45.945170" lon="13.508425">
        <ele>49.648</ele>
        <time>2018-09-05T10:33:29Z</time>
      </trkpt>
      <trkpt lat="45.945412" lon="13.508007">
        <ele>50.159</ele>
        <time>2018-09-05T10:33:36Z</time>
      </trkpt>
      <trkpt lat="45.945456" lon="13.507958">
        <ele>50.672</ele>
        <time>2018-09-05T10:33:37Z</time>
      </trkpt>
      <trkpt lat="45.945962" lon="13.507421">
        <ele>52.013</ele>
        <time>2018-09-05T10:33:52Z</time>
      </trkpt>
      <trkpt lat="45.946583" lon="13.506820">
        <ele>50.614</ele>
        <time>2018-09-05T10:34:06Z</time>
      </trkpt>
      <trkpt lat="45.947049" lon="13.506401">
        <ele>53.008</ele>
        <time>2018-09-05T10:34:20Z</time>
      </trkpt>
      <trkpt lat="45.947668" lon="13.505829">
        <ele>54.971</ele>
        <time>2018-09-05T10:34:39Z</time>
      </trkpt>
      <trkpt lat="45.948075" lon="13.505535">
        <ele>57.883</ele>
        <time>2018-09-05T10:34:53Z</time>
      </trkpt>
      <trkpt lat="45.948370" lon="13.504929">
        <ele>59.269</ele>
        <time>2018-09-05T10:35:09Z</time>
      </trkpt>
      <trkpt lat="45.948618" lon="13.504323">
        <ele>59.745</ele>
        <time>2018-09-05T10:35:23Z</time>
      </trkpt>
      <trkpt lat="45.948872" lon="13.503816">
        <ele>59.782</ele>
        <time>2018-09-05T10:35:34Z</time>
      </trkpt>
      <trkpt lat="45.948988" lon="13.503678">
        <ele>58.713</ele>
        <time>2018-09-05T10:35:37Z</time>
      </trkpt>
      <trkpt lat="45.949141" lon="13.503532">
        <ele>58.767</ele>
        <time>2018-09-05T10:35:41Z</time>
      </trkpt>
      <trkpt lat="45.949174" lon="13.503496">
        <ele>58.738</ele>
        <time>2018-09-05T10:35:42Z</time>
      </trkpt>
      <trkpt lat="45.949206" lon="13.503469">
        <ele>58.729</ele>
        <time>2018-09-05T10:35:43Z</time>
      </trkpt>
      <trkpt lat="45.949240" lon="13.503443">
        <ele>58.700</ele>
        <time>2018-09-05T10:35:44Z</time>
      </trkpt>
      <trkpt lat="45.949272" lon="13.503415">
        <ele>59.220</ele>
        <time>2018-09-05T10:35:45Z</time>
      </trkpt>
      <trkpt lat="45.949304" lon="13.503385">
        <ele>59.208</ele>
        <time>2018-09-05T10:35:46Z</time>
      </trkpt>
      <trkpt lat="45.949736" lon="13.502894">
        <ele>60.266</ele>
        <time>2018-09-05T10:36:03Z</time>
      </trkpt>
      <trkpt lat="45.950100" lon="13.502412">
        <ele>61.618</ele>
        <time>2018-09-05T10:36:20Z</time>
      </trkpt>
      <trkpt lat="45.950358" lon="13.502066">
        <ele>62.624</ele>
        <time>2018-09-05T10:36:38Z</time>
      </trkpt>
      <trkpt lat="45.950366" lon="13.502063">
        <ele>63.570</ele>
        <time>2018-09-05T10:37:08Z</time>
      </trkpt>
      <trkpt lat="45.950362" lon="13.502047">
        <ele>63.187</ele>
        <time>2018-09-05T10:37:39Z</time>
      </trkpt>
      <trkpt lat="45.950366" lon="13.502001">
        <ele>62.618</ele>
        <time>2018-09-05T10:37:56Z</time>
      </trkpt>
      <trkpt lat="45.950363" lon="13.501989">
        <ele>62.662</ele>
        <time>2018-09-05T10:38:10Z</time>
      </trkpt>
      <trkpt lat="45.950362" lon="13.501970">
        <ele>62.663</ele>
        <time>2018-09-05T10:38:11Z</time>
      </trkpt>
      <trkpt lat="45.950367" lon="13.501952">
        <ele>63.131</ele>
        <time>2018-09-05T10:38:12Z</time>
      </trkpt>
      <trkpt lat="45.950379" lon="13.501910">
        <ele>63.561</ele>
        <time>2018-09-05T10:38:14Z</time>
      </trkpt>
      <trkpt lat="45.950513" lon="13.501468">
        <ele>64.007</ele>
        <time>2018-09-05T10:38:28Z</time>
      </trkpt>
      <trkpt lat="45.950877" lon="13.501269">
        <ele>65.908</ele>
        <time>2018-09-05T10:38:44Z</time>
      </trkpt>
      <trkpt lat="45.951138" lon="13.501289">
        <ele>68.827</ele>
        <time>2018-09-05T10:38:57Z</time>
      </trkpt>
      <trkpt lat="45.951422" lon="13.501249">
        <ele>71.249</ele>
        <time>2018-09-05T10:39:12Z</time>
      </trkpt>
      <trkpt lat="45.951590" lon="13.501410">
        <ele>73.245</ele>
        <time>2018-09-05T10:39:25Z</time>
      </trkpt>
      <trkpt lat="45.951698" lon="13.501729">
        <ele>75.681</ele>
        <time>2018-09-05T10:39:42Z</time>
      </trkpt>
      <trkpt lat="45.951704" lon="13.501746">
        <ele>76.098</ele>
        <time>2018-09-05T10:39:43Z</time>
      </trkpt>
      <trkpt lat="45.951797" lon="13.502066">
        <ele>78.419</ele>
        <time>2018-09-05T10:40:01Z</time>
      </trkpt>
      <trkpt lat="45.951824" lon="13.502116">
        <ele>78.473</ele>
        <time>2018-09-05T10:40:04Z</time>
      </trkpt>
      <trkpt lat="45.951836" lon="13.502126">
        <ele>78.444</ele>
        <time>2018-09-05T10:40:05Z</time>
      </trkpt>
      <trkpt lat="45.951852" lon="13.502126">
        <ele>78.984</ele>
        <time>2018-09-05T10:40:06Z</time>
      </trkpt>
      <trkpt lat="45.952202" lon="13.501933">
        <ele>80.407</ele>
        <time>2018-09-05T10:40:24Z</time>
      </trkpt>
      <trkpt lat="45.952684" lon="13.501630">
        <ele>80.417</ele>
        <time>2018-09-05T10:40:42Z</time>
      </trkpt>
      <trkpt lat="45.953159" lon="13.501329">
        <ele>80.408</ele>
        <time>2018-09-05T10:40:57Z</time>
      </trkpt>
      <trkpt lat="45.953456" lon="13.500814">
        <ele>80.472</ele>
        <time>2018-09-05T10:41:11Z</time>
      </trkpt>
      <trkpt lat="45.953497" lon="13.500224">
        <ele>82.394</ele>
        <time>2018-09-05T10:41:27Z</time>
      </trkpt>
      <trkpt lat="45.953480" lon="13.499892">
        <ele>84.270</ele>
        <time>2018-09-05T10:41:41Z</time>
      </trkpt>
      <trkpt lat="45.953478" lon="13.499853">
        <ele>84.766</ele>
        <time>2018-09-05T10:42:09Z</time>
      </trkpt>
      <trkpt lat="45.953597" lon="13.499576">
        <ele>85.643</ele>
        <time>2018-09-05T10:42:21Z</time>
      </trkpt>
      <trkpt lat="45.953842" lon="13.499267">
        <ele>87.664</ele>
        <time>2018-09-05T10:42:37Z</time>
      </trkpt>
      <trkpt lat="45.954017" lon="13.499037">
        <ele>88.138</ele>
        <time>2018-09-05T10:42:53Z</time>
      </trkpt>
      <trkpt lat="45.954096" lon="13.498666">
        <ele>92.979</ele>
        <time>2018-09-05T10:43:11Z</time>
      </trkpt>
      <trkpt lat="45.954125" lon="13.498583">
        <ele>94.338</ele>
        <time>2018-09-05T10:43:16Z</time>
      </trkpt>
      <trkpt lat="45.954131" lon="13.498565">
        <ele>94.370</ele>
        <time>2018-09-05T10:43:17Z</time>
      </trkpt>
      <trkpt lat="45.954138" lon="13.498549">
        <ele>94.817</ele>
        <time>2018-09-05T10:43:18Z</time>
      </trkpt>
      <trkpt lat="45.954144" lon="13.498535">
        <ele>95.308</ele>
        <time>2018-09-05T10:43:19Z</time>
      </trkpt>
      <trkpt lat="45.954152" lon="13.498521">
        <ele>95.367</ele>
        <time>2018-09-05T10:43:20Z</time>
      </trkpt>
      <trkpt lat="45.954207" lon="13.498444">
        <ele>96.289</ele>
        <time>2018-09-05T10:43:26Z</time>
      </trkpt>
      <trkpt lat="45.954221" lon="13.498424">
        <ele>96.785</ele>
        <time>2018-09-05T10:43:28Z</time>
      </trkpt>
      <trkpt lat="45.954318" lon="13.498308">
        <ele>98.631</ele>
        <time>2018-09-05T10:43:39Z</time>
      </trkpt>
      <trkpt lat="45.954326" lon="13.498298">
        <ele>99.118</ele>
        <time>2018-09-05T10:43:40Z</time>
      </trkpt>
      <trkpt lat="45.954336" lon="13.498289">
        <ele>99.199</ele>
        <time>2018-09-05T10:43:41Z</time>
      </trkpt>
      <trkpt lat="45.954490" lon="13.498138">
        <ele>102.513</ele>
        <time>2018-09-05T10:43:57Z</time>
      </trkpt>
      <trkpt lat="45.954528" lon="13.498066">
        <ele>103.444</ele>
        <time>2018-09-05T10:44:02Z</time>
      </trkpt>
      <trkpt lat="45.954550" lon="13.498036">
        <ele>103.994</ele>
        <time>2018-09-05T10:44:05Z</time>
      </trkpt>
      <trkpt lat="45.954575" lon="13.497729">
        <ele>105.457</ele>
        <time>2018-09-05T10:44:20Z</time>
      </trkpt>
      <trkpt lat="45.954569" lon="13.497584">
        <ele>105.422</ele>
        <time>2018-09-05T10:44:27Z</time>
      </trkpt>
      <trkpt lat="45.954571" lon="13.497561">
        <ele>105.408</ele>
        <time>2018-09-05T10:44:28Z</time>
      </trkpt>
      <trkpt lat="45.954570" lon="13.497538">
        <ele>105.433</ele>
        <time>2018-09-05T10:44:29Z</time>
      </trkpt>
      <trkpt lat="45.954496" lon="13.497170">
        <ele>106.335</ele>
        <time>2018-09-05T10:44:45Z</time>
      </trkpt>
      <trkpt lat="45.954400" lon="13.496630">
        <ele>106.841</ele>
        <time>2018-09-05T10:45:04Z</time>
      </trkpt>
      <trkpt lat="45.954382" lon="13.496027">
        <ele>106.827</ele>
        <time>2018-09-05T10:45:20Z</time>
      </trkpt>
      <trkpt lat="45.954443" lon="13.495725">
        <ele>109.214</ele>
        <time>2018-09-05T10:45:32Z</time>
      </trkpt>
      <trkpt lat="45.954596" lon="13.495513">
        <ele>113.035</ele>
        <time>2018-09-05T10:45:49Z</time>
      </trkpt>
      <trkpt lat="45.954701" lon="13.495386">
        <ele>115.579</ele>
        <time>2018-09-05T10:46:03Z</time>
      </trkpt>
      <trkpt lat="45.954796" lon="13.495319">
        <ele>116.910</ele>
        <time>2018-09-05T10:46:18Z</time>
      </trkpt>
      <trkpt lat="45.954855" lon="13.495199">
        <ele>117.985</ele>
        <time>2018-09-05T10:46:33Z</time>
      </trkpt>
      <trkpt lat="45.954918" lon="13.495070">
        <ele>119.889</ele>
        <time>2018-09-05T10:46:48Z</time>
      </trkpt>
      <trkpt lat="45.954980" lon="13.494925">
        <ele>123.117</ele>
        <time>2018-09-05T10:47:06Z</time>
      </trkpt>
      <trkpt lat="45.955078" lon="13.494996">
        <ele>128.908</ele>
        <time>2018-09-05T10:47:22Z</time>
      </trkpt>
      <trkpt lat="45.955104" lon="13.495001">
        <ele>129.472</ele>
        <time>2018-09-05T10:47:25Z</time>
      </trkpt>
      <trkpt lat="45.955232" lon="13.495002">
        <ele>130.434</ele>
        <time>2018-09-05T10:47:39Z</time>
      </trkpt>
      <trkpt lat="45.955481" lon="13.495044">
        <ele>128.450</ele>
        <time>2018-09-05T10:47:49Z</time>
      </trkpt>
      <trkpt lat="45.955798" lon="13.494896">
        <ele>126.576</ele>
        <time>2018-09-05T10:47:57Z</time>
      </trkpt>
      <trkpt lat="45.955941" lon="13.494838">
        <ele>125.563</ele>
        <time>2018-09-05T10:48:00Z</time>
      </trkpt>
      <trkpt lat="45.955995" lon="13.494831">
        <ele>125.154</ele>
        <time>2018-09-05T10:48:01Z</time>
      </trkpt>
      <trkpt lat="45.956044" lon="13.494837">
        <ele>125.168</ele>
        <time>2018-09-05T10:48:02Z</time>
      </trkpt>
      <trkpt lat="45.956084" lon="13.494855">
        <ele>125.149</ele>
        <time>2018-09-05T10:48:03Z</time>
      </trkpt>
      <trkpt lat="45.956117" lon="13.494878">
        <ele>125.135</ele>
        <time>2018-09-05T10:48:04Z</time>
      </trkpt>
      <trkpt lat="45.956145" lon="13.494901">
        <ele>125.586</ele>
        <time>2018-09-05T10:48:05Z</time>
      </trkpt>
      <trkpt lat="45.956376" lon="13.495128">
        <ele>127.014</ele>
        <time>2018-09-05T10:48:17Z</time>
      </trkpt>
      <trkpt lat="45.956425" lon="13.495145">
        <ele>127.008</ele>
        <time>2018-09-05T10:48:19Z</time>
      </trkpt>
      <trkpt lat="45.956446" lon="13.495137">
        <ele>127.097</ele>
        <time>2018-09-05T10:48:20Z</time>
      </trkpt>
      <trkpt lat="45.956692" lon="13.494803">
        <ele>123.679</ele>
        <time>2018-09-05T10:48:32Z</time>
      </trkpt>
      <trkpt lat="45.956829" lon="13.494428">
        <ele>119.825</ele>
        <time>2018-09-05T10:48:42Z</time>
      </trkpt>
      <trkpt lat="45.957025" lon="13.493976">
        <ele>117.441</ele>
        <time>2018-09-05T10:48:55Z</time>
      </trkpt>
      <trkpt lat="45.957068" lon="13.493920">
        <ele>117.488</ele>
        <time>2018-09-05T10:48:58Z</time>
      </trkpt>
      <trkpt lat="45.957089" lon="13.493915">
        <ele>116.989</ele>
        <time>2018-09-05T10:48:59Z</time>
      </trkpt>
      <trkpt lat="45.957189" lon="13.493904">
        <ele>116.493</ele>
        <time>2018-09-05T10:49:10Z</time>
      </trkpt>
      <trkpt lat="45.957180" lon="13.493922">
        <ele>115.534</ele>
        <time>2018-09-05T10:49:45Z</time>
      </trkpt>
      <trkpt lat="45.957336" lon="13.493926">
        <ele>114.072</ele>
        <time>2018-09-05T10:49:56Z</time>
      </trkpt>
      <trkpt lat="45.957729" lon="13.493653">
        <ele>112.613</ele>
        <time>2018-09-05T10:50:09Z</time>
      </trkpt>
      <trkpt lat="45.957772" lon="13.493632">
        <ele>112.114</ele>
        <time>2018-09-05T10:50:10Z</time>
      </trkpt>
      <trkpt lat="45.957809" lon="13.493619">
        <ele>112.108</ele>
        <time>2018-09-05T10:50:11Z</time>
      </trkpt>
      <trkpt lat="45.957840" lon="13.493623">
        <ele>112.121</ele>
        <time>2018-09-05T10:50:12Z</time>
      </trkpt>
      <trkpt lat="45.957865" lon="13.493643">
        <ele>112.183</ele>
        <time>2018-09-05T10:50:13Z</time>
      </trkpt>
      <trkpt lat="45.957884" lon="13.493672">
        <ele>112.139</ele>
        <time>2018-09-05T10:50:14Z</time>
      </trkpt>
      <trkpt lat="45.957901" lon="13.493701">
        <ele>112.185</ele>
        <time>2018-09-05T10:50:15Z</time>
      </trkpt>
      <trkpt lat="45.957916" lon="13.493735">
        <ele>112.122</ele>
        <time>2018-09-05T10:50:16Z</time>
      </trkpt>
      <trkpt lat="45.957928" lon="13.493766">
        <ele>112.173</ele>
        <time>2018-09-05T10:50:17Z</time>
      </trkpt>
      <trkpt lat="45.957942" lon="13.493801">
        <ele>111.647</ele>
        <time>2018-09-05T10:50:18Z</time>
      </trkpt>
      <trkpt lat="45.958085" lon="13.494238">
        <ele>110.228</ele>
        <time>2018-09-05T10:50:27Z</time>
      </trkpt>
      <trkpt lat="45.958097" lon="13.494314">
        <ele>109.784</ele>
        <time>2018-09-05T10:50:28Z</time>
      </trkpt>
      <trkpt lat="45.958100" lon="13.494394">
        <ele>109.707</ele>
        <time>2018-09-05T10:50:29Z</time>
      </trkpt>
      <trkpt lat="45.958096" lon="13.494476">
        <ele>109.717</ele>
        <time>2018-09-05T10:50:30Z</time>
      </trkpt>
      <trkpt lat="45.958084" lon="13.494555">
        <ele>109.708</ele>
        <time>2018-09-05T10:50:31Z</time>
      </trkpt>
      <trkpt lat="45.958069" lon="13.494631">
        <ele>110.262</ele>
        <time>2018-09-05T10:50:32Z</time>
      </trkpt>
      <trkpt lat="45.958060" lon="13.494696">
        <ele>110.244</ele>
        <time>2018-09-05T10:50:33Z</time>
      </trkpt>
      <trkpt lat="45.958057" lon="13.494753">
        <ele>110.220</ele>
        <time>2018-09-05T10:50:34Z</time>
      </trkpt>
      <trkpt lat="45.958057" lon="13.494798">
        <ele>110.636</ele>
        <time>2018-09-05T10:50:35Z</time>
      </trkpt>
      <trkpt lat="45.958060" lon="13.494834">
        <ele>110.643</ele>
        <time>2018-09-05T10:50:36Z</time>
      </trkpt>
      <trkpt lat="45.958061" lon="13.494865">
        <ele>111.134</ele>
        <time>2018-09-05T10:50:37Z</time>
      </trkpt>
      <trkpt lat="45.958061" lon="13.494897">
        <ele>111.188</ele>
        <time>2018-09-05T10:50:38Z</time>
      </trkpt>
      <trkpt lat="45.958062" lon="13.494929">
        <ele>111.649</ele>
        <time>2018-09-05T10:50:39Z</time>
      </trkpt>
      <trkpt lat="45.958088" lon="13.495113">
        <ele>110.632</ele>
        <time>2018-09-05T10:50:43Z</time>
      </trkpt>
      <trkpt lat="45.958105" lon="13.495173">
        <ele>110.292</ele>
        <time>2018-09-05T10:50:44Z</time>
      </trkpt>
      <trkpt lat="45.958162" lon="13.495385">
        <ele>109.211</ele>
        <time>2018-09-05T10:50:47Z</time>
      </trkpt>
      <trkpt lat="45.958184" lon="13.495539">
        <ele>108.708</ele>
        <time>2018-09-05T10:50:49Z</time>
      </trkpt>
      <trkpt lat="45.958189" lon="13.495611">
        <ele>108.277</ele>
        <time>2018-09-05T10:50:50Z</time>
      </trkpt>
      <trkpt lat="45.958190" lon="13.495686">
        <ele>108.259</ele>
        <time>2018-09-05T10:50:51Z</time>
      </trkpt>
      <trkpt lat="45.958185" lon="13.495762">
        <ele>108.245</ele>
        <time>2018-09-05T10:50:52Z</time>
      </trkpt>
      <trkpt lat="45.958178" lon="13.495840">
        <ele>108.261</ele>
        <time>2018-09-05T10:50:53Z</time>
      </trkpt>
      <trkpt lat="45.958176" lon="13.495918">
        <ele>108.238</ele>
        <time>2018-09-05T10:50:54Z</time>
      </trkpt>
      <trkpt lat="45.958180" lon="13.495995">
        <ele>108.269</ele>
        <time>2018-09-05T10:50:55Z</time>
      </trkpt>
      <trkpt lat="45.958189" lon="13.496069">
        <ele>108.233</ele>
        <time>2018-09-05T10:50:56Z</time>
      </trkpt>
      <trkpt lat="45.958225" lon="13.496218">
        <ele>107.314</ele>
        <time>2018-09-05T10:50:58Z</time>
      </trkpt>
      <trkpt lat="45.958254" lon="13.496284">
        <ele>106.881</ele>
        <time>2018-09-05T10:50:59Z</time>
      </trkpt>
      <trkpt lat="45.958294" lon="13.496344">
        <ele>105.861</ele>
        <time>2018-09-05T10:51:00Z</time>
      </trkpt>
      <trkpt lat="45.958340" lon="13.496411">
        <ele>105.417</ele>
        <time>2018-09-05T10:51:01Z</time>
      </trkpt>
      <trkpt lat="45.958382" lon="13.496484">
        <ele>104.908</ele>
        <time>2018-09-05T10:51:02Z</time>
      </trkpt>
      <trkpt lat="45.958418" lon="13.496565">
        <ele>104.472</ele>
        <time>2018-09-05T10:51:03Z</time>
      </trkpt>
      <trkpt lat="45.958449" lon="13.496653">
        <ele>103.954</ele>
        <time>2018-09-05T10:51:04Z</time>
      </trkpt>
      <trkpt lat="45.958468" lon="13.496736">
        <ele>103.930</ele>
        <time>2018-09-05T10:51:05Z</time>
      </trkpt>
      <trkpt lat="45.958480" lon="13.496813">
        <ele>103.946</ele>
        <time>2018-09-05T10:51:06Z</time>
      </trkpt>
      <trkpt lat="45.958488" lon="13.496879">
        <ele>103.923</ele>
        <time>2018-09-05T10:51:07Z</time>
      </trkpt>
      <trkpt lat="45.958514" lon="13.496967">
        <ele>104.424</ele>
        <time>2018-09-05T10:51:09Z</time>
      </trkpt>
      <trkpt lat="45.958531" lon="13.496988">
        <ele>104.938</ele>
        <time>2018-09-05T10:51:10Z</time>
      </trkpt>
      <trkpt lat="45.958550" lon="13.497005">
        <ele>105.479</ele>
        <time>2018-09-05T10:51:11Z</time>
      </trkpt>
      <trkpt lat="45.958568" lon="13.497015">
        <ele>105.833</ele>
        <time>2018-09-05T10:51:12Z</time>
      </trkpt>
      <trkpt lat="45.958587" lon="13.497023">
        <ele>106.323</ele>
        <time>2018-09-05T10:51:13Z</time>
      </trkpt>
      <trkpt lat="45.958847" lon="13.497058">
        <ele>104.415</ele>
        <time>2018-09-05T10:51:22Z</time>
      </trkpt>
      <trkpt lat="45.959060" lon="13.497323">
        <ele>109.208</ele>
        <time>2018-09-05T10:51:32Z</time>
      </trkpt>
      <trkpt lat="45.959226" lon="13.497756">
        <ele>113.557</ele>
        <time>2018-09-05T10:51:47Z</time>
      </trkpt>
      <trkpt lat="45.959293" lon="13.498075">
        <ele>116.499</ele>
        <time>2018-09-05T10:51:59Z</time>
      </trkpt>
      <trkpt lat="45.959330" lon="13.498397">
        <ele>117.985</ele>
        <time>2018-09-05T10:52:12Z</time>
      </trkpt>
      <trkpt lat="45.959524" lon="13.498389">
        <ele>119.371</ele>
        <time>2018-09-05T10:52:25Z</time>
      </trkpt>
      <trkpt lat="45.959736" lon="13.498222">
        <ele>119.398</ele>
        <time>2018-09-05T10:52:39Z</time>
      </trkpt>
      <trkpt lat="45.959861" lon="13.497756">
        <ele>116.929</ele>
        <time>2018-09-05T10:52:51Z</time>
      </trkpt>
      <trkpt lat="45.959896" lon="13.497591">
        <ele>115.913</ele>
        <time>2018-09-05T10:52:54Z</time>
      </trkpt>
      <trkpt lat="45.959906" lon="13.497528">
        <ele>115.934</ele>
        <time>2018-09-05T10:52:55Z</time>
      </trkpt>
      <trkpt lat="45.959967" lon="13.497081">
        <ele>115.913</ele>
        <time>2018-09-05T10:53:02Z</time>
      </trkpt>
      <trkpt lat="45.959971" lon="13.497016">
        <ele>115.943</ele>
        <time>2018-09-05T10:53:03Z</time>
      </trkpt>
      <trkpt lat="45.959936" lon="13.496245">
        <ele>112.607</ele>
        <time>2018-09-05T10:53:16Z</time>
      </trkpt>
      <trkpt lat="45.959811" lon="13.495732">
        <ele>110.208</ele>
        <time>2018-09-05T10:53:29Z</time>
      </trkpt>
      <trkpt lat="45.959755" lon="13.495539">
        <ele>112.685</ele>
        <time>2018-09-05T10:53:42Z</time>
      </trkpt>
      <trkpt lat="45.959672" lon="13.495289">
        <ele>115.097</ele>
        <time>2018-09-05T10:53:54Z</time>
      </trkpt>
      <trkpt lat="45.959694" lon="13.494839">
        <ele>116.413</ele>
        <time>2018-09-05T10:54:05Z</time>
      </trkpt>
      <trkpt lat="45.959892" lon="13.494409">
        <ele>117.439</ele>
        <time>2018-09-05T10:54:15Z</time>
      </trkpt>
      <trkpt lat="45.959938" lon="13.494360">
        <ele>117.476</ele>
        <time>2018-09-05T10:54:16Z</time>
      </trkpt>
      <trkpt lat="45.959992" lon="13.494319">
        <ele>117.417</ele>
        <time>2018-09-05T10:54:17Z</time>
      </trkpt>
      <trkpt lat="45.960119" lon="13.494232">
        <ele>116.971</ele>
        <time>2018-09-05T10:54:19Z</time>
      </trkpt>
      <trkpt lat="45.960345" lon="13.493928">
        <ele>115.062</ele>
        <time>2018-09-05T10:54:24Z</time>
      </trkpt>
      <trkpt lat="45.960363" lon="13.493862">
        <ele>114.539</ele>
        <time>2018-09-05T10:54:25Z</time>
      </trkpt>
      <trkpt lat="45.960376" lon="13.493791">
        <ele>114.001</ele>
        <time>2018-09-05T10:54:26Z</time>
      </trkpt>
      <trkpt lat="45.960400" lon="13.493619">
        <ele>112.621</ele>
        <time>2018-09-05T10:54:28Z</time>
      </trkpt>
      <trkpt lat="45.960402" lon="13.493522">
        <ele>112.108</ele>
        <time>2018-09-05T10:54:29Z</time>
      </trkpt>
      <trkpt lat="45.960364" lon="13.493081">
        <ele>110.697</ele>
        <time>2018-09-05T10:54:34Z</time>
      </trkpt>
      <trkpt lat="45.960352" lon="13.493016">
        <ele>110.249</ele>
        <time>2018-09-05T10:54:35Z</time>
      </trkpt>
      <trkpt lat="45.960339" lon="13.492951">
        <ele>109.715</ele>
        <time>2018-09-05T10:54:36Z</time>
      </trkpt>
      <trkpt lat="45.960324" lon="13.492896">
        <ele>109.231</ele>
        <time>2018-09-05T10:54:37Z</time>
      </trkpt>
      <trkpt lat="45.960312" lon="13.492861">
        <ele>108.738</ele>
        <time>2018-09-05T10:54:38Z</time>
      </trkpt>
      <trkpt lat="45.960264" lon="13.492757">
        <ele>111.119</ele>
        <time>2018-09-05T10:54:52Z</time>
      </trkpt>
      <trkpt lat="45.960112" lon="13.492551">
        <ele>111.143</ele>
        <time>2018-09-05T10:55:01Z</time>
      </trkpt>
      <trkpt lat="45.960103" lon="13.492500">
        <ele>111.164</ele>
        <time>2018-09-05T10:55:02Z</time>
      </trkpt>
      <trkpt lat="45.960108" lon="13.492441">
        <ele>111.183</ele>
        <time>2018-09-05T10:55:03Z</time>
      </trkpt>
      <trkpt lat="45.960192" lon="13.491941">
        <ele>110.225</ele>
        <time>2018-09-05T10:55:10Z</time>
      </trkpt>
      <trkpt lat="45.960214" lon="13.491877">
        <ele>109.717</ele>
        <time>2018-09-05T10:55:11Z</time>
      </trkpt>
      <trkpt lat="45.960236" lon="13.491812">
        <ele>109.208</ele>
        <time>2018-09-05T10:55:12Z</time>
      </trkpt>
      <trkpt lat="45.960250" lon="13.491753">
        <ele>108.782</ele>
        <time>2018-09-05T10:55:13Z</time>
      </trkpt>
      <trkpt lat="45.960261" lon="13.491692">
        <ele>108.244</ele>
        <time>2018-09-05T10:55:14Z</time>
      </trkpt>
      <trkpt lat="45.960276" lon="13.491627">
        <ele>107.840</ele>
        <time>2018-09-05T10:55:15Z</time>
      </trkpt>
      <trkpt lat="45.960297" lon="13.491561">
        <ele>107.336</ele>
        <time>2018-09-05T10:55:16Z</time>
      </trkpt>
      <trkpt lat="45.960320" lon="13.491501">
        <ele>106.843</ele>
        <time>2018-09-05T10:55:17Z</time>
      </trkpt>
      <trkpt lat="45.960410" lon="13.491341">
        <ele>106.374</ele>
        <time>2018-09-05T10:55:20Z</time>
      </trkpt>
      <trkpt lat="45.960451" lon="13.491299">
        <ele>106.358</ele>
        <time>2018-09-05T10:55:21Z</time>
      </trkpt>
      <trkpt lat="45.960502" lon="13.491271">
        <ele>105.859</ele>
        <time>2018-09-05T10:55:22Z</time>
      </trkpt>
      <trkpt lat="45.960703" lon="13.491187">
        <ele>106.373</ele>
        <time>2018-09-05T10:55:27Z</time>
      </trkpt>
      <trkpt lat="45.960743" lon="13.491151">
        <ele>106.385</ele>
        <time>2018-09-05T10:55:28Z</time>
      </trkpt>
      <trkpt lat="45.960776" lon="13.491105">
        <ele>105.813</ele>
        <time>2018-09-05T10:55:29Z</time>
      </trkpt>
      <trkpt lat="45.960805" lon="13.491043">
        <ele>105.808</ele>
        <time>2018-09-05T10:55:30Z</time>
      </trkpt>
      <trkpt lat="45.960825" lon="13.490976">
        <ele>105.481</ele>
        <time>2018-09-05T10:55:31Z</time>
      </trkpt>
      <trkpt lat="45.960829" lon="13.490906">
        <ele>104.933</ele>
        <time>2018-09-05T10:55:32Z</time>
      </trkpt>
      <trkpt lat="45.960821" lon="13.490836">
        <ele>104.949</ele>
        <time>2018-09-05T10:55:33Z</time>
      </trkpt>
      <trkpt lat="45.960808" lon="13.490765">
        <ele>104.475</ele>
        <time>2018-09-05T10:55:34Z</time>
      </trkpt>
      <trkpt lat="45.960791" lon="13.490701">
        <ele>103.952</ele>
        <time>2018-09-05T10:55:35Z</time>
      </trkpt>
      <trkpt lat="45.960772" lon="13.490645">
        <ele>103.013</ele>
        <time>2018-09-05T10:55:36Z</time>
      </trkpt>
      <trkpt lat="45.960746" lon="13.490575">
        <ele>102.567</ele>
        <time>2018-09-05T10:55:37Z</time>
      </trkpt>
      <trkpt lat="45.960727" lon="13.490498">
        <ele>101.568</ele>
        <time>2018-09-05T10:55:38Z</time>
      </trkpt>
      <trkpt lat="45.960716" lon="13.490410">
        <ele>101.027</ele>
        <time>2018-09-05T10:55:39Z</time>
      </trkpt>
      <trkpt lat="45.960707" lon="13.490323">
        <ele>100.668</ele>
        <time>2018-09-05T10:55:40Z</time>
      </trkpt>
      <trkpt lat="45.960692" lon="13.490231">
        <ele>99.614</ele>
        <time>2018-09-05T10:55:41Z</time>
      </trkpt>
      <trkpt lat="45.960672" lon="13.490144">
        <ele>99.108</ele>
        <time>2018-09-05T10:55:42Z</time>
      </trkpt>
      <trkpt lat="45.960639" lon="13.490058">
        <ele>98.166</ele>
        <time>2018-09-05T10:55:43Z</time>
      </trkpt>
      <trkpt lat="45.960600" lon="13.489985">
        <ele>97.718</ele>
        <time>2018-09-05T10:55:44Z</time>
      </trkpt>
      <trkpt lat="45.960561" lon="13.489914">
        <ele>96.794</ele>
        <time>2018-09-05T10:55:45Z</time>
      </trkpt>
      <trkpt lat="45.960528" lon="13.489839">
        <ele>96.250</ele>
        <time>2018-09-05T10:55:46Z</time>
      </trkpt>
      <trkpt lat="45.960507" lon="13.489769">
        <ele>95.387</ele>
        <time>2018-09-05T10:55:47Z</time>
      </trkpt>
      <trkpt lat="45.960492" lon="13.489708">
        <ele>94.838</ele>
        <time>2018-09-05T10:55:48Z</time>
      </trkpt>
      <trkpt lat="45.960440" lon="13.489508">
        <ele>91.952</ele>
        <time>2018-09-05T10:55:51Z</time>
      </trkpt>
      <trkpt lat="45.960409" lon="13.489449">
        <ele>90.933</ele>
        <time>2018-09-05T10:55:52Z</time>
      </trkpt>
      <trkpt lat="45.960363" lon="13.489397">
        <ele>90.014</ele>
        <time>2018-09-05T10:55:53Z</time>
      </trkpt>
      <trkpt lat="45.960309" lon="13.489356">
        <ele>89.054</ele>
        <time>2018-09-05T10:55:54Z</time>
      </trkpt>
      <trkpt lat="45.960250" lon="13.489322">
        <ele>88.109</ele>
        <time>2018-09-05T10:55:55Z</time>
      </trkpt>
      <trkpt lat="45.960141" lon="13.489250">
        <ele>86.108</ele>
        <time>2018-09-05T10:55:57Z</time>
      </trkpt>
      <trkpt lat="45.960096" lon="13.489206">
        <ele>84.725</ele>
        <time>2018-09-05T10:55:58Z</time>
      </trkpt>
      <trkpt lat="45.960060" lon="13.489164">
        <ele>83.747</ele>
        <time>2018-09-05T10:55:59Z</time>
      </trkpt>
      <trkpt lat="45.960030" lon="13.489123">
        <ele>82.333</ele>
        <time>2018-09-05T10:56:00Z</time>
      </trkpt>
      <trkpt lat="45.960009" lon="13.489084">
        <ele>81.359</ele>
        <time>2018-09-05T10:56:01Z</time>
      </trkpt>
      <trkpt lat="45.959995" lon="13.489043">
        <ele>79.916</ele>
        <time>2018-09-05T10:56:02Z</time>
      </trkpt>
      <trkpt lat="45.959993" lon="13.489007">
        <ele>78.417</ele>
        <time>2018-09-05T10:56:03Z</time>
      </trkpt>
      <trkpt lat="45.959997" lon="13.488977">
        <ele>77.531</ele>
        <time>2018-09-05T10:56:04Z</time>
      </trkpt>
      <trkpt lat="45.960009" lon="13.488952">
        <ele>77.582</ele>
        <time>2018-09-05T10:56:05Z</time>
      </trkpt>
      <trkpt lat="45.960026" lon="13.488945">
        <ele>77.558</ele>
        <time>2018-09-05T10:56:06Z</time>
      </trkpt>
      <trkpt lat="45.960046" lon="13.488959">
        <ele>77.552</ele>
        <time>2018-09-05T10:56:07Z</time>
      </trkpt>
      <trkpt lat="45.960052" lon="13.488976">
        <ele>78.017</ele>
        <time>2018-09-05T10:56:08Z</time>
      </trkpt>
      <trkpt lat="45.960060" lon="13.489003">
        <ele>78.408</ele>
        <time>2018-09-05T10:56:09Z</time>
      </trkpt>
      <trkpt lat="45.960067" lon="13.489027">
        <ele>78.429</ele>
        <time>2018-09-05T10:56:10Z</time>
      </trkpt>
      <trkpt lat="45.960269" lon="13.489213">
        <ele>82.841</ele>
        <time>2018-09-05T10:56:21Z</time>
      </trkpt>
      <trkpt lat="45.960591" lon="13.489421">
        <ele>84.217</ele>
        <time>2018-09-05T10:56:36Z</time>
      </trkpt>
      <trkpt lat="45.960878" lon="13.489911">
        <ele>84.263</ele>
        <time>2018-09-05T10:56:49Z</time>
      </trkpt>
      <trkpt lat="45.961115" lon="13.490192">
        <ele>83.250</ele>
        <time>2018-09-05T10:56:59Z</time>
      </trkpt>
      <trkpt lat="45.961472" lon="13.490179">
        <ele>85.221</ele>
        <time>2018-09-05T10:57:10Z</time>
      </trkpt>
      <trkpt lat="45.961852" lon="13.490276">
        <ele>86.665</ele>
        <time>2018-09-05T10:57:22Z</time>
      </trkpt>
      <trkpt lat="45.962463" lon="13.490257">
        <ele>84.276</ele>
        <time>2018-09-05T10:57:36Z</time>
      </trkpt>
      <trkpt lat="45.962516" lon="13.490220">
        <ele>84.232</ele>
        <time>2018-09-05T10:57:37Z</time>
      </trkpt>
      <trkpt lat="45.962565" lon="13.490169">
        <ele>84.292</ele>
        <time>2018-09-05T10:57:38Z</time>
      </trkpt>
      <trkpt lat="45.962604" lon="13.490107">
        <ele>83.711</ele>
        <time>2018-09-05T10:57:39Z</time>
      </trkpt>
      <trkpt lat="45.962635" lon="13.490040">
        <ele>83.708</ele>
        <time>2018-09-05T10:57:40Z</time>
      </trkpt>
      <trkpt lat="45.962665" lon="13.489970">
        <ele>83.267</ele>
        <time>2018-09-05T10:57:41Z</time>
      </trkpt>
      <trkpt lat="45.962834" lon="13.489511">
        <ele>83.229</ele>
        <time>2018-09-05T10:57:48Z</time>
      </trkpt>
      <trkpt lat="45.962977" lon="13.489035">
        <ele>84.735</ele>
        <time>2018-09-05T10:58:00Z</time>
      </trkpt>
      <trkpt lat="45.962994" lon="13.489018">
        <ele>84.741</ele>
        <time>2018-09-05T10:58:01Z</time>
      </trkpt>
      <trkpt lat="45.963008" lon="13.488998">
        <ele>85.268</ele>
        <time>2018-09-05T10:58:02Z</time>
      </trkpt>
      <trkpt lat="45.963167" lon="13.488635">
        <ele>89.049</ele>
        <time>2018-09-05T10:58:17Z</time>
      </trkpt>
      <trkpt lat="45.963201" lon="13.488546">
        <ele>90.033</ele>
        <time>2018-09-05T10:58:21Z</time>
      </trkpt>
      <trkpt lat="45.963205" lon="13.488521">
        <ele>90.554</ele>
        <time>2018-09-05T10:58:22Z</time>
      </trkpt>
      <trkpt lat="45.963211" lon="13.488496">
        <ele>90.911</ele>
        <time>2018-09-05T10:58:23Z</time>
      </trkpt>
      <trkpt lat="45.963218" lon="13.488474">
        <ele>90.921</ele>
        <time>2018-09-05T10:58:24Z</time>
      </trkpt>
      <trkpt lat="45.963226" lon="13.488452">
        <ele>91.403</ele>
        <time>2018-09-05T10:58:25Z</time>
      </trkpt>
      <trkpt lat="45.963230" lon="13.488429">
        <ele>91.408</ele>
        <time>2018-09-05T10:58:26Z</time>
      </trkpt>
      <trkpt lat="45.963235" lon="13.488406">
        <ele>91.465</ele>
        <time>2018-09-05T10:58:27Z</time>
      </trkpt>
      <trkpt lat="45.963242" lon="13.488384">
        <ele>91.457</ele>
        <time>2018-09-05T10:58:28Z</time>
      </trkpt>
      <trkpt lat="45.963348" lon="13.488019">
        <ele>95.723</ele>
        <time>2018-09-05T10:58:46Z</time>
      </trkpt>
      <trkpt lat="45.963480" lon="13.487771">
        <ele>98.189</ele>
        <time>2018-09-05T10:59:01Z</time>
      </trkpt>
      <trkpt lat="45.963545" lon="13.487732">
        <ele>99.636</ele>
        <time>2018-09-05T10:59:06Z</time>
      </trkpt>
      <trkpt lat="45.963558" lon="13.487730">
        <ele>100.197</ele>
        <time>2018-09-05T10:59:07Z</time>
      </trkpt>
      <trkpt lat="45.963571" lon="13.487735">
        <ele>100.641</ele>
        <time>2018-09-05T10:59:08Z</time>
      </trkpt>
      <trkpt lat="45.963582" lon="13.487747">
        <ele>100.692</ele>
        <time>2018-09-05T10:59:09Z</time>
      </trkpt>
      <trkpt lat="45.963595" lon="13.487758">
        <ele>101.095</ele>
        <time>2018-09-05T10:59:10Z</time>
      </trkpt>
      <trkpt lat="45.963608" lon="13.487768">
        <ele>101.049</ele>
        <time>2018-09-05T10:59:11Z</time>
      </trkpt>
      <trkpt lat="45.963623" lon="13.487779">
        <ele>101.023</ele>
        <time>2018-09-05T10:59:12Z</time>
      </trkpt>
      <trkpt lat="45.963638" lon="13.487792">
        <ele>101.008</ele>
        <time>2018-09-05T10:59:13Z</time>
      </trkpt>
      <trkpt lat="45.963781" lon="13.487873">
        <ele>103.073</ele>
        <time>2018-09-05T10:59:23Z</time>
      </trkpt>
      <trkpt lat="45.963794" lon="13.487862">
        <ele>103.025</ele>
        <time>2018-09-05T10:59:24Z</time>
      </trkpt>
      <trkpt lat="45.963804" lon="13.487847">
        <ele>103.091</ele>
        <time>2018-09-05T10:59:25Z</time>
      </trkpt>
      <trkpt lat="45.963812" lon="13.487830">
        <ele>103.467</ele>
        <time>2018-09-05T10:59:26Z</time>
      </trkpt>
      <trkpt lat="45.963817" lon="13.487815">
        <ele>103.424</ele>
        <time>2018-09-05T10:59:27Z</time>
      </trkpt>
      <trkpt lat="45.963818" lon="13.487797">
        <ele>103.415</ele>
        <time>2018-09-05T10:59:28Z</time>
      </trkpt>
      <trkpt lat="45.963817" lon="13.487778">
        <ele>103.929</ele>
        <time>2018-09-05T10:59:29Z</time>
      </trkpt>
      <trkpt lat="45.963815" lon="13.487760">
        <ele>103.970</ele>
        <time>2018-09-05T10:59:30Z</time>
      </trkpt>
      <trkpt lat="45.963760" lon="13.487520">
        <ele>105.851</ele>
        <time>2018-09-05T10:59:45Z</time>
      </trkpt>
      <trkpt lat="45.963758" lon="13.487392">
        <ele>107.301</ele>
        <time>2018-09-05T10:59:53Z</time>
      </trkpt>
      <trkpt lat="45.963759" lon="13.487373">
        <ele>107.311</ele>
        <time>2018-09-05T10:59:54Z</time>
      </trkpt>
      <trkpt lat="45.963761" lon="13.487354">
        <ele>107.308</ele>
        <time>2018-09-05T10:59:55Z</time>
      </trkpt>
      <trkpt lat="45.963877" lon="13.487154">
        <ele>108.749</ele>
        <time>2018-09-05T11:00:09Z</time>
      </trkpt>
      <trkpt lat="45.964040" lon="13.487078">
        <ele>112.111</ele>
        <time>2018-09-05T11:00:22Z</time>
      </trkpt>
      <trkpt lat="45.964212" lon="13.486985">
        <ele>115.527</ele>
        <time>2018-09-05T11:00:36Z</time>
      </trkpt>
      <trkpt lat="45.964332" lon="13.486920">
        <ele>117.933</ele>
        <time>2018-09-05T11:00:46Z</time>
      </trkpt>
      <trkpt lat="45.964344" lon="13.486912">
        <ele>117.920</ele>
        <time>2018-09-05T11:00:47Z</time>
      </trkpt>
      <trkpt lat="45.964542" lon="13.486833">
        <ele>121.291</ele>
        <time>2018-09-05T11:01:03Z</time>
      </trkpt>
      <trkpt lat="45.964814" lon="13.486997">
        <ele>124.675</ele>
        <time>2018-09-05T11:01:23Z</time>
      </trkpt>
      <trkpt lat="45.965038" lon="13.487163">
        <ele>128.936</ele>
        <time>2018-09-05T11:01:41Z</time>
      </trkpt>
      <trkpt lat="45.965259" lon="13.487258">
        <ele>132.322</ele>
        <time>2018-09-05T11:01:57Z</time>
      </trkpt>
      <trkpt lat="45.965474" lon="13.487611">
        <ele>134.262</ele>
        <time>2018-09-05T11:02:15Z</time>
      </trkpt>
      <trkpt lat="45.965614" lon="13.487761">
        <ele>136.608</ele>
        <time>2018-09-05T11:02:28Z</time>
      </trkpt>
      <trkpt lat="45.965759" lon="13.487706">
        <ele>137.608</ele>
        <time>2018-09-05T11:02:43Z</time>
      </trkpt>
      <trkpt lat="45.965766" lon="13.487676">
        <ele>136.696</ele>
        <time>2018-09-05T11:03:08Z</time>
      </trkpt>
      <trkpt lat="45.966040" lon="13.487399">
        <ele>136.668</ele>
        <time>2018-09-05T11:03:21Z</time>
      </trkpt>
      <trkpt lat="45.966428" lon="13.486992">
        <ele>137.634</ele>
        <time>2018-09-05T11:03:36Z</time>
      </trkpt>
      <trkpt lat="45.966846" lon="13.486469">
        <ele>140.910</ele>
        <time>2018-09-05T11:03:53Z</time>
      </trkpt>
      <trkpt lat="45.966847" lon="13.486395">
        <ele>141.427</ele>
        <time>2018-09-05T11:03:55Z</time>
      </trkpt>
      <trkpt lat="45.966840" lon="13.486362">
        <ele>141.468</ele>
        <time>2018-09-05T11:03:56Z</time>
      </trkpt>
      <trkpt lat="45.966794" lon="13.486178">
        <ele>142.812</ele>
        <time>2018-09-05T11:04:02Z</time>
      </trkpt>
      <trkpt lat="45.966777" lon="13.486157">
        <ele>142.873</ele>
        <time>2018-09-05T11:04:03Z</time>
      </trkpt>
      <trkpt lat="45.966756" lon="13.486138">
        <ele>143.333</ele>
        <time>2018-09-05T11:04:04Z</time>
      </trkpt>
      <trkpt lat="45.966647" lon="13.485995">
        <ele>145.323</ele>
        <time>2018-09-05T11:04:13Z</time>
      </trkpt>
      <trkpt lat="45.966641" lon="13.485981">
        <ele>145.315</ele>
        <time>2018-09-05T11:04:14Z</time>
      </trkpt>
      <trkpt lat="45.966538" lon="13.485558">
        <ele>145.308</ele>
        <time>2018-09-05T11:04:26Z</time>
      </trkpt>
      <trkpt lat="45.966716" lon="13.485289">
        <ele>147.247</ele>
        <time>2018-09-05T11:04:37Z</time>
      </trkpt>
      <trkpt lat="45.966837" lon="13.484932">
        <ele>148.149</ele>
        <time>2018-09-05T11:04:52Z</time>
      </trkpt>
      <trkpt lat="45.966854" lon="13.484875">
        <ele>149.165</ele>
        <time>2018-09-05T11:04:55Z</time>
      </trkpt>
      <trkpt lat="45.966862" lon="13.484855">
        <ele>149.661</ele>
        <time>2018-09-05T11:04:56Z</time>
      </trkpt>
      <trkpt lat="45.966893" lon="13.484737">
        <ele>150.568</ele>
        <time>2018-09-05T11:05:01Z</time>
      </trkpt>
      <trkpt lat="45.966897" lon="13.484710">
        <ele>150.529</ele>
        <time>2018-09-05T11:05:02Z</time>
      </trkpt>
      <trkpt lat="45.966902" lon="13.484683">
        <ele>151.073</ele>
        <time>2018-09-05T11:05:03Z</time>
      </trkpt>
      <trkpt lat="45.966911" lon="13.484653">
        <ele>151.024</ele>
        <time>2018-09-05T11:05:04Z</time>
      </trkpt>
      <trkpt lat="45.966923" lon="13.484626">
        <ele>151.523</ele>
        <time>2018-09-05T11:05:05Z</time>
      </trkpt>
      <trkpt lat="45.966934" lon="13.484598">
        <ele>151.583</ele>
        <time>2018-09-05T11:05:06Z</time>
      </trkpt>
      <trkpt lat="45.966943" lon="13.484573">
        <ele>151.511</ele>
        <time>2018-09-05T11:05:07Z</time>
      </trkpt>
      <trkpt lat="45.966954" lon="13.484546">
        <ele>151.508</ele>
        <time>2018-09-05T11:05:08Z</time>
      </trkpt>
      <trkpt lat="45.966995" lon="13.484340">
        <ele>151.566</ele>
        <time>2018-09-05T11:05:14Z</time>
      </trkpt>
      <trkpt lat="45.966999" lon="13.484055">
        <ele>157.368</ele>
        <time>2018-09-05T11:05:27Z</time>
      </trkpt>
      <trkpt lat="45.966970" lon="13.483664">
        <ele>162.184</ele>
        <time>2018-09-05T11:05:42Z</time>
      </trkpt>
      <trkpt lat="45.966816" lon="13.483232">
        <ele>166.920</ele>
        <time>2018-09-05T11:05:58Z</time>
      </trkpt>
      <trkpt lat="45.966743" lon="13.483091">
        <ele>167.887</ele>
        <time>2018-09-05T11:06:06Z</time>
      </trkpt>
      <trkpt lat="45.966730" lon="13.483077">
        <ele>167.858</ele>
        <time>2018-09-05T11:06:07Z</time>
      </trkpt>
      <trkpt lat="45.966717" lon="13.483060">
        <ele>167.492</ele>
        <time>2018-09-05T11:06:08Z</time>
      </trkpt>
      <trkpt lat="45.966704" lon="13.483042">
        <ele>167.463</ele>
        <time>2018-09-05T11:06:09Z</time>
      </trkpt>
      <trkpt lat="45.966691" lon="13.483020">
        <ele>167.428</ele>
        <time>2018-09-05T11:06:10Z</time>
      </trkpt>
      <trkpt lat="45.966585" lon="13.482861">
        <ele>168.389</ele>
        <time>2018-09-05T11:06:22Z</time>
      </trkpt>
      <trkpt lat="45.966565" lon="13.482851">
        <ele>168.817</ele>
        <time>2018-09-05T11:06:24Z</time>
      </trkpt>
      <trkpt lat="45.966553" lon="13.482844">
        <ele>169.308</ele>
        <time>2018-09-05T11:06:25Z</time>
      </trkpt>
      <trkpt lat="45.966324" lon="13.482686">
        <ele>172.696</ele>
        <time>2018-09-05T11:06:40Z</time>
      </trkpt>
      <trkpt lat="45.966105" lon="13.482430">
        <ele>178.988</ele>
        <time>2018-09-05T11:06:57Z</time>
      </trkpt>
      <trkpt lat="45.966075" lon="13.482350">
        <ele>180.334</ele>
        <time>2018-09-05T11:07:02Z</time>
      </trkpt>
      <trkpt lat="45.966064" lon="13.482335">
        <ele>180.860</ele>
        <time>2018-09-05T11:07:03Z</time>
      </trkpt>
      <trkpt lat="45.966050" lon="13.482319">
        <ele>181.817</ele>
        <time>2018-09-05T11:07:04Z</time>
      </trkpt>
      <trkpt lat="45.966036" lon="13.482304">
        <ele>181.888</ele>
        <time>2018-09-05T11:07:05Z</time>
      </trkpt>
      <trkpt lat="45.966025" lon="13.482288">
        <ele>182.322</ele>
        <time>2018-09-05T11:07:06Z</time>
      </trkpt>
      <trkpt lat="45.966013" lon="13.482271">
        <ele>182.733</ele>
        <time>2018-09-05T11:07:07Z</time>
      </trkpt>
      <trkpt lat="45.965948" lon="13.482144">
        <ele>184.256</ele>
        <time>2018-09-05T11:07:16Z</time>
      </trkpt>
      <trkpt lat="45.965938" lon="13.482132">
        <ele>184.259</ele>
        <time>2018-09-05T11:07:17Z</time>
      </trkpt>
      <trkpt lat="45.965727" lon="13.481970">
        <ele>188.014</ele>
        <time>2018-09-05T11:07:32Z</time>
      </trkpt>
      <trkpt lat="45.965522" lon="13.481847">
        <ele>187.508</ele>
        <time>2018-09-05T11:07:43Z</time>
      </trkpt>
      <trkpt lat="45.965381" lon="13.481558">
        <ele>190.429</ele>
        <time>2018-09-05T11:07:55Z</time>
      </trkpt>
      <trkpt lat="45.965189" lon="13.481306">
        <ele>196.281</ele>
        <time>2018-09-05T11:08:09Z</time>
      </trkpt>
      <trkpt lat="45.965067" lon="13.481205">
        <ele>196.757</ele>
        <time>2018-09-05T11:08:17Z</time>
      </trkpt>
      <trkpt lat="45.965054" lon="13.481190">
        <ele>196.273</ele>
        <time>2018-09-05T11:08:18Z</time>
      </trkpt>
      <trkpt lat="45.965039" lon="13.481169">
        <ele>195.720</ele>
        <time>2018-09-05T11:08:19Z</time>
      </trkpt>
      <trkpt lat="45.965026" lon="13.481151">
        <ele>195.781</ele>
        <time>2018-09-05T11:08:20Z</time>
      </trkpt>
      <trkpt lat="45.965014" lon="13.481134">
        <ele>195.245</ele>
        <time>2018-09-05T11:08:21Z</time>
      </trkpt>
      <trkpt lat="45.964792" lon="13.480911">
        <ele>193.816</ele>
        <time>2018-09-05T11:08:35Z</time>
      </trkpt>
      <trkpt lat="45.964683" lon="13.480581">
        <ele>196.781</ele>
        <time>2018-09-05T11:08:49Z</time>
      </trkpt>
      <trkpt lat="45.964688" lon="13.480490">
        <ele>197.661</ele>
        <time>2018-09-05T11:08:54Z</time>
      </trkpt>
      <trkpt lat="45.964694" lon="13.480472">
        <ele>198.117</ele>
        <time>2018-09-05T11:08:55Z</time>
      </trkpt>
      <trkpt lat="45.964701" lon="13.480458">
        <ele>198.108</ele>
        <time>2018-09-05T11:08:56Z</time>
      </trkpt>
      <trkpt lat="45.964706" lon="13.480443">
        <ele>198.192</ele>
        <time>2018-09-05T11:08:57Z</time>
      </trkpt>
      <trkpt lat="45.964713" lon="13.480429">
        <ele>198.194</ele>
        <time>2018-09-05T11:08:58Z</time>
      </trkpt>
      <trkpt lat="45.964720" lon="13.480413">
        <ele>198.610</ele>
        <time>2018-09-05T11:08:59Z</time>
      </trkpt>
      <trkpt lat="45.964724" lon="13.480399">
        <ele>198.676</ele>
        <time>2018-09-05T11:09:00Z</time>
      </trkpt>
      <trkpt lat="45.964726" lon="13.480381">
        <ele>199.183</ele>
        <time>2018-09-05T11:09:01Z</time>
      </trkpt>
      <trkpt lat="45.964729" lon="13.480364">
        <ele>199.114</ele>
        <time>2018-09-05T11:09:02Z</time>
      </trkpt>
      <trkpt lat="45.964732" lon="13.480348">
        <ele>199.648</ele>
        <time>2018-09-05T11:09:03Z</time>
      </trkpt>
      <trkpt lat="45.964736" lon="13.480331">
        <ele>199.699</ele>
        <time>2018-09-05T11:09:04Z</time>
      </trkpt>
      <trkpt lat="45.964738" lon="13.480312">
        <ele>200.043</ele>
        <time>2018-09-05T11:09:05Z</time>
      </trkpt>
      <trkpt lat="45.964739" lon="13.480293">
        <ele>200.064</ele>
        <time>2018-09-05T11:09:06Z</time>
      </trkpt>
      <trkpt lat="45.964744" lon="13.480278">
        <ele>200.510</ele>
        <time>2018-09-05T11:09:07Z</time>
      </trkpt>
      <trkpt lat="45.964751" lon="13.480264">
        <ele>200.508</ele>
        <time>2018-09-05T11:09:08Z</time>
      </trkpt>
      <trkpt lat="45.964757" lon="13.480253">
        <ele>201.038</ele>
        <time>2018-09-05T11:09:09Z</time>
      </trkpt>
      <trkpt lat="45.964764" lon="13.480240">
        <ele>201.070</ele>
        <time>2018-09-05T11:09:10Z</time>
      </trkpt>
      <trkpt lat="45.964771" lon="13.480224">
        <ele>201.066</ele>
        <time>2018-09-05T11:09:11Z</time>
      </trkpt>
      <trkpt lat="45.964776" lon="13.480211">
        <ele>201.512</ele>
        <time>2018-09-05T11:09:12Z</time>
      </trkpt>
      <trkpt lat="45.964790" lon="13.480168">
        <ele>202.069</ele>
        <time>2018-09-05T11:09:15Z</time>
      </trkpt>
      <trkpt lat="45.964791" lon="13.480150">
        <ele>202.070</ele>
        <time>2018-09-05T11:09:16Z</time>
      </trkpt>
      <trkpt lat="45.964794" lon="13.480133">
        <ele>202.414</ele>
        <time>2018-09-05T11:09:17Z</time>
      </trkpt>
      <trkpt lat="45.964797" lon="13.480117">
        <ele>202.465</ele>
        <time>2018-09-05T11:09:18Z</time>
      </trkpt>
      <trkpt lat="45.964802" lon="13.480102">
        <ele>202.945</ele>
        <time>2018-09-05T11:09:19Z</time>
      </trkpt>
      <trkpt lat="45.964808" lon="13.480088">
        <ele>202.947</ele>
        <time>2018-09-05T11:09:20Z</time>
      </trkpt>
      <trkpt lat="45.964815" lon="13.480073">
        <ele>202.911</ele>
        <time>2018-09-05T11:09:21Z</time>
      </trkpt>
      <trkpt lat="45.964822" lon="13.480059">
        <ele>203.408</ele>
        <time>2018-09-05T11:09:22Z</time>
      </trkpt>
      <trkpt lat="45.964829" lon="13.480048">
        <ele>203.988</ele>
        <time>2018-09-05T11:09:23Z</time>
      </trkpt>
      <trkpt lat="45.964858" lon="13.479995">
        <ele>204.450</ele>
        <time>2018-09-05T11:09:27Z</time>
      </trkpt>
      <trkpt lat="45.964860" lon="13.479977">
        <ele>204.416</ele>
        <time>2018-09-05T11:09:28Z</time>
      </trkpt>
      <trkpt lat="45.964862" lon="13.479959">
        <ele>204.962</ele>
        <time>2018-09-05T11:09:29Z</time>
      </trkpt>
      <trkpt lat="45.964874" lon="13.479909">
        <ele>205.399</ele>
        <time>2018-09-05T11:09:32Z</time>
      </trkpt>
      <trkpt lat="45.964981" lon="13.479697">
        <ele>208.770</ele>
        <time>2018-09-05T11:09:48Z</time>
      </trkpt>
      <trkpt lat="45.965032" lon="13.479613">
        <ele>210.684</ele>
        <time>2018-09-05T11:09:55Z</time>
      </trkpt>
      <trkpt lat="45.965042" lon="13.479604">
        <ele>210.665</ele>
        <time>2018-09-05T11:09:56Z</time>
      </trkpt>
      <trkpt lat="45.965048" lon="13.479590">
        <ele>211.148</ele>
        <time>2018-09-05T11:09:57Z</time>
      </trkpt>
      <trkpt lat="45.965054" lon="13.479574">
        <ele>211.161</ele>
        <time>2018-09-05T11:09:58Z</time>
      </trkpt>
      <trkpt lat="45.965057" lon="13.479555">
        <ele>211.617</ele>
        <time>2018-09-05T11:09:59Z</time>
      </trkpt>
      <trkpt lat="45.965058" lon="13.479539">
        <ele>211.608</ele>
        <time>2018-09-05T11:10:00Z</time>
      </trkpt>
      <trkpt lat="45.965059" lon="13.479521">
        <ele>211.668</ele>
        <time>2018-09-05T11:10:01Z</time>
      </trkpt>
      <trkpt lat="45.965063" lon="13.479502">
        <ele>212.170</ele>
        <time>2018-09-05T11:10:02Z</time>
      </trkpt>
      <trkpt lat="45.965067" lon="13.479484">
        <ele>211.636</ele>
        <time>2018-09-05T11:10:03Z</time>
      </trkpt>
      <trkpt lat="45.965121" lon="13.479276">
        <ele>214.572</ele>
        <time>2018-09-05T11:10:17Z</time>
      </trkpt>
      <trkpt lat="45.965145" lon="13.479230">
        <ele>214.969</ele>
        <time>2018-09-05T11:10:21Z</time>
      </trkpt>
      <trkpt lat="45.965146" lon="13.479215">
        <ele>215.490</ele>
        <time>2018-09-05T11:10:22Z</time>
      </trkpt>
      <trkpt lat="45.965157" lon="13.479174">
        <ele>215.994</ele>
        <time>2018-09-05T11:10:25Z</time>
      </trkpt>
      <trkpt lat="45.965162" lon="13.479161">
        <ele>216.455</ele>
        <time>2018-09-05T11:10:26Z</time>
      </trkpt>
      <trkpt lat="45.965168" lon="13.479147">
        <ele>216.431</ele>
        <time>2018-09-05T11:10:27Z</time>
      </trkpt>
      <trkpt lat="45.965173" lon="13.479133">
        <ele>216.461</ele>
        <time>2018-09-05T11:10:28Z</time>
      </trkpt>
      <trkpt lat="45.965180" lon="13.479119">
        <ele>216.407</ele>
        <time>2018-09-05T11:10:29Z</time>
      </trkpt>
      <trkpt lat="45.965188" lon="13.479107">
        <ele>216.908</ele>
        <time>2018-09-05T11:10:30Z</time>
      </trkpt>
      <trkpt lat="45.965252" lon="13.478940">
        <ele>219.837</ele>
        <time>2018-09-05T11:10:43Z</time>
      </trkpt>
      <trkpt lat="45.965260" lon="13.478929">
        <ele>220.279</ele>
        <time>2018-09-05T11:10:44Z</time>
      </trkpt>
      <trkpt lat="45.965271" lon="13.478906">
        <ele>220.755</ele>
        <time>2018-09-05T11:10:46Z</time>
      </trkpt>
      <trkpt lat="45.965290" lon="13.478834">
        <ele>221.781</ele>
        <time>2018-09-05T11:10:52Z</time>
      </trkpt>
      <trkpt lat="45.965295" lon="13.478819">
        <ele>221.748</ele>
        <time>2018-09-05T11:10:53Z</time>
      </trkpt>
      <trkpt lat="45.965328" lon="13.478573">
        <ele>219.839</ele>
        <time>2018-09-05T11:11:09Z</time>
      </trkpt>
      <trkpt lat="45.965335" lon="13.478576">
        <ele>219.393</ele>
        <time>2018-09-05T11:11:30Z</time>
      </trkpt>
      <trkpt lat="45.965347" lon="13.478578">
        <ele>219.814</ele>
        <time>2018-09-05T11:11:53Z</time>
      </trkpt>
      <trkpt lat="45.965349" lon="13.478557">
        <ele>221.218</ele>
        <time>2018-09-05T11:12:17Z</time>
      </trkpt>
      <trkpt lat="45.965353" lon="13.478191">
        <ele>216.998</ele>
        <time>2018-09-05T11:12:27Z</time>
      </trkpt>
      <trkpt lat="45.965414" lon="13.477801">
        <ele>211.117</ele>
        <time>2018-09-05T11:12:37Z</time>
      </trkpt>
      <trkpt lat="45.965637" lon="13.477240">
        <ele>207.708</ele>
        <time>2018-09-05T11:12:48Z</time>
      </trkpt>
      <trkpt lat="45.965669" lon="13.477193">
        <ele>207.715</ele>
        <time>2018-09-05T11:12:49Z</time>
      </trkpt>
      <trkpt lat="45.965706" lon="13.477155">
        <ele>207.317</ele>
        <time>2018-09-05T11:12:50Z</time>
      </trkpt>
      <trkpt lat="45.965742" lon="13.477127">
        <ele>207.793</ele>
        <time>2018-09-05T11:12:51Z</time>
      </trkpt>
      <trkpt lat="45.965776" lon="13.477106">
        <ele>207.759</ele>
        <time>2018-09-05T11:12:52Z</time>
      </trkpt>
      <trkpt lat="45.965808" lon="13.477091">
        <ele>207.796</ele>
        <time>2018-09-05T11:12:53Z</time>
      </trkpt>
      <trkpt lat="45.965937" lon="13.476994">
        <ele>209.237</ele>
        <time>2018-09-05T11:13:04Z</time>
      </trkpt>
      <trkpt lat="45.965933" lon="13.476992">
        <ele>209.231</ele>
        <time>2018-09-05T11:13:32Z</time>
      </trkpt>
      <trkpt lat="45.965935" lon="13.476994">
        <ele>209.712</ele>
        <time>2018-09-05T11:14:09Z</time>
      </trkpt>
      <trkpt lat="45.965971" lon="13.476956">
        <ele>209.742</ele>
        <time>2018-09-05T11:14:37Z</time>
      </trkpt>
      <trkpt lat="45.965981" lon="13.476940">
        <ele>210.122</ele>
        <time>2018-09-05T11:14:38Z</time>
      </trkpt>
      <trkpt lat="45.965993" lon="13.476926">
        <ele>210.114</ele>
        <time>2018-09-05T11:14:39Z</time>
      </trkpt>
      <trkpt lat="45.966212" lon="13.476616">
        <ele>209.208</ele>
        <time>2018-09-05T11:14:55Z</time>
      </trkpt>
      <trkpt lat="45.966381" lon="13.476138">
        <ele>210.198</ele>
        <time>2018-09-05T11:15:11Z</time>
      </trkpt>
      <trkpt lat="45.966540" lon="13.475922">
        <ele>213.050</ele>
        <time>2018-09-05T11:15:25Z</time>
      </trkpt>
      <trkpt lat="45.966548" lon="13.475905">
        <ele>213.576</ele>
        <time>2018-09-05T11:15:26Z</time>
      </trkpt>
      <trkpt lat="45.966559" lon="13.475887">
        <ele>213.522</ele>
        <time>2018-09-05T11:15:27Z</time>
      </trkpt>
      <trkpt lat="45.966569" lon="13.475875">
        <ele>213.539</ele>
        <time>2018-09-05T11:15:28Z</time>
      </trkpt>
      <trkpt lat="45.966579" lon="13.475863">
        <ele>214.030</ele>
        <time>2018-09-05T11:15:29Z</time>
      </trkpt>
      <trkpt lat="45.966587" lon="13.475850">
        <ele>214.084</ele>
        <time>2018-09-05T11:15:30Z</time>
      </trkpt>
      <trkpt lat="45.966676" lon="13.475551">
        <ele>213.515</ele>
        <time>2018-09-05T11:15:42Z</time>
      </trkpt>
      <trkpt lat="45.966692" lon="13.475422">
        <ele>212.585</ele>
        <time>2018-09-05T11:15:44Z</time>
      </trkpt>
      <trkpt lat="45.966706" lon="13.475355">
        <ele>212.589</ele>
        <time>2018-09-05T11:15:45Z</time>
      </trkpt>
      <trkpt lat="45.966725" lon="13.475293">
        <ele>212.517</ele>
        <time>2018-09-05T11:15:46Z</time>
      </trkpt>
      <trkpt lat="45.966746" lon="13.475234">
        <ele>212.108</ele>
        <time>2018-09-05T11:15:47Z</time>
      </trkpt>
      <trkpt lat="45.966767" lon="13.475176">
        <ele>212.162</ele>
        <time>2018-09-05T11:15:48Z</time>
      </trkpt>
      <trkpt lat="45.966811" lon="13.475068">
        <ele>212.574</ele>
        <time>2018-09-05T11:15:50Z</time>
      </trkpt>
      <trkpt lat="45.966837" lon="13.475019">
        <ele>212.530</ele>
        <time>2018-09-05T11:15:51Z</time>
      </trkpt>
      <trkpt lat="45.966871" lon="13.474981">
        <ele>212.556</ele>
        <time>2018-09-05T11:15:52Z</time>
      </trkpt>
      <trkpt lat="45.966914" lon="13.474958">
        <ele>212.533</ele>
        <time>2018-09-05T11:15:53Z</time>
      </trkpt>
      <trkpt lat="45.966956" lon="13.474960">
        <ele>212.574</ele>
        <time>2018-09-05T11:15:54Z</time>
      </trkpt>
      <trkpt lat="45.966997" lon="13.474975">
        <ele>213.038</ele>
        <time>2018-09-05T11:15:55Z</time>
      </trkpt>
      <trkpt lat="45.967038" lon="13.474998">
        <ele>213.089</ele>
        <time>2018-09-05T11:15:56Z</time>
      </trkpt>
      <trkpt lat="45.967077" lon="13.475027">
        <ele>213.035</ele>
        <time>2018-09-05T11:15:57Z</time>
      </trkpt>
      <trkpt lat="45.967114" lon="13.475055">
        <ele>213.086</ele>
        <time>2018-09-05T11:15:58Z</time>
      </trkpt>
      <trkpt lat="45.967155" lon="13.475079">
        <ele>212.514</ele>
        <time>2018-09-05T11:15:59Z</time>
      </trkpt>
      <trkpt lat="45.967199" lon="13.475097">
        <ele>212.508</ele>
        <time>2018-09-05T11:16:00Z</time>
      </trkpt>
      <trkpt lat="45.967247" lon="13.475109">
        <ele>212.537</ele>
        <time>2018-09-05T11:16:01Z</time>
      </trkpt>
      <trkpt lat="45.967298" lon="13.475119">
        <ele>212.179</ele>
        <time>2018-09-05T11:16:02Z</time>
      </trkpt>
      <trkpt lat="45.967353" lon="13.475119">
        <ele>211.665</ele>
        <time>2018-09-05T11:16:03Z</time>
      </trkpt>
      <trkpt lat="45.967412" lon="13.475114">
        <ele>211.141</ele>
        <time>2018-09-05T11:16:04Z</time>
      </trkpt>
      <trkpt lat="45.967826" lon="13.475147">
        <ele>204.468</ele>
        <time>2018-09-05T11:16:10Z</time>
      </trkpt>
      <trkpt lat="45.967870" lon="13.475125">
        <ele>203.959</ele>
        <time>2018-09-05T11:16:11Z</time>
      </trkpt>
      <trkpt lat="45.967887" lon="13.475082">
        <ele>202.923</ele>
        <time>2018-09-05T11:16:12Z</time>
      </trkpt>
      <trkpt lat="45.967873" lon="13.475035">
        <ele>202.414</ele>
        <time>2018-09-05T11:16:13Z</time>
      </trkpt>
      <trkpt lat="45.967827" lon="13.475007">
        <ele>201.592</ele>
        <time>2018-09-05T11:16:14Z</time>
      </trkpt>
      <trkpt lat="45.967777" lon="13.474988">
        <ele>201.073</ele>
        <time>2018-09-05T11:16:15Z</time>
      </trkpt>
      <trkpt lat="45.967712" lon="13.474955">
        <ele>200.020</ele>
        <time>2018-09-05T11:16:16Z</time>
      </trkpt>
      <trkpt lat="45.967644" lon="13.474908">
        <ele>199.108</ele>
        <time>2018-09-05T11:16:17Z</time>
      </trkpt>
      <trkpt lat="45.967579" lon="13.474847">
        <ele>198.193</ele>
        <time>2018-09-05T11:16:18Z</time>
      </trkpt>
      <trkpt lat="45.967513" lon="13.474778">
        <ele>197.635</ele>
        <time>2018-09-05T11:16:19Z</time>
      </trkpt>
      <trkpt lat="45.967386" lon="13.474659">
        <ele>196.211</ele>
        <time>2018-09-05T11:16:21Z</time>
      </trkpt>
      <trkpt lat="45.967323" lon="13.474625">
        <ele>195.247</ele>
        <time>2018-09-05T11:16:22Z</time>
      </trkpt>
      <trkpt lat="45.967263" lon="13.474607">
        <ele>194.834</ele>
        <time>2018-09-05T11:16:23Z</time>
      </trkpt>
      <trkpt lat="45.967205" lon="13.474586">
        <ele>194.345</ele>
        <time>2018-09-05T11:16:24Z</time>
      </trkpt>
      <trkpt lat="45.967147" lon="13.474548">
        <ele>193.339</ele>
        <time>2018-09-05T11:16:25Z</time>
      </trkpt>
      <trkpt lat="45.967090" lon="13.474499">
        <ele>192.810</ele>
        <time>2018-09-05T11:16:26Z</time>
      </trkpt>
      <trkpt lat="45.967036" lon="13.474449">
        <ele>191.942</ele>
        <time>2018-09-05T11:16:27Z</time>
      </trkpt>
      <trkpt lat="45.966935" lon="13.474330">
        <ele>190.922</ele>
        <time>2018-09-05T11:16:29Z</time>
      </trkpt>
      <trkpt lat="45.966887" lon="13.474258">
        <ele>190.014</ele>
        <time>2018-09-05T11:16:30Z</time>
      </trkpt>
      <trkpt lat="45.966844" lon="13.474180">
        <ele>189.508</ele>
        <time>2018-09-05T11:16:31Z</time>
      </trkpt>
      <trkpt lat="45.966769" lon="13.474018">
        <ele>188.038</ele>
        <time>2018-09-05T11:16:33Z</time>
      </trkpt>
      <trkpt lat="45.966739" lon="13.473933">
        <ele>187.510</ele>
        <time>2018-09-05T11:16:34Z</time>
      </trkpt>
      <trkpt lat="45.966715" lon="13.473848">
        <ele>186.666</ele>
        <time>2018-09-05T11:16:35Z</time>
      </trkpt>
      <trkpt lat="45.966637" lon="13.473465">
        <ele>186.672</ele>
        <time>2018-09-05T11:16:43Z</time>
      </trkpt>
      <trkpt lat="45.966645" lon="13.473047">
        <ele>185.619</ele>
        <time>2018-09-05T11:16:53Z</time>
      </trkpt>
      <trkpt lat="45.966677" lon="13.472859">
        <ele>184.290</ele>
        <time>2018-09-05T11:16:56Z</time>
      </trkpt>
      <trkpt lat="45.966706" lon="13.472715">
        <ele>184.224</ele>
        <time>2018-09-05T11:16:58Z</time>
      </trkpt>
      <trkpt lat="45.966846" lon="13.472127">
        <ele>181.825</ele>
        <time>2018-09-05T11:17:05Z</time>
      </trkpt>
      <trkpt lat="45.966878" lon="13.472037">
        <ele>181.341</ele>
        <time>2018-09-05T11:17:06Z</time>
      </trkpt>
      <trkpt lat="45.966914" lon="13.471949">
        <ele>180.881</ele>
        <time>2018-09-05T11:17:07Z</time>
      </trkpt>
      <trkpt lat="45.967461" lon="13.471058">
        <ele>178.909</ele>
        <time>2018-09-05T11:17:19Z</time>
      </trkpt>
      <trkpt lat="45.967911" lon="13.470241">
        <ele>177.908</ele>
        <time>2018-09-05T11:17:33Z</time>
      </trkpt>
      <trkpt lat="45.968432" lon="13.469673">
        <ele>176.588</ele>
        <time>2018-09-05T11:17:47Z</time>
      </trkpt>
      <trkpt lat="45.969239" lon="13.468767">
        <ele>174.160</ele>
        <time>2018-09-05T11:18:03Z</time>
      </trkpt>
      <trkpt lat="45.970016" lon="13.468024">
        <ele>170.716</ele>
        <time>2018-09-05T11:18:17Z</time>
      </trkpt>
      <trkpt lat="45.970066" lon="13.467962">
        <ele>170.732</ele>
        <time>2018-09-05T11:18:18Z</time>
      </trkpt>
      <trkpt lat="45.970113" lon="13.467894">
        <ele>170.789</ele>
        <time>2018-09-05T11:18:19Z</time>
      </trkpt>
      <trkpt lat="45.970192" lon="13.467756">
        <ele>170.780</ele>
        <time>2018-09-05T11:18:21Z</time>
      </trkpt>
      <trkpt lat="45.970221" lon="13.467691">
        <ele>171.254</ele>
        <time>2018-09-05T11:18:22Z</time>
      </trkpt>
      <trkpt lat="45.970270" lon="13.467568">
        <ele>171.295</ele>
        <time>2018-09-05T11:18:24Z</time>
      </trkpt>
      <trkpt lat="45.970593" lon="13.466959">
        <ele>171.263</ele>
        <time>2018-09-05T11:18:38Z</time>
      </trkpt>
      <trkpt lat="45.970656" lon="13.466891">
        <ele>171.244</ele>
        <time>2018-09-05T11:18:40Z</time>
      </trkpt>
      <trkpt lat="45.970936" lon="13.466713">
        <ele>170.218</ele>
        <time>2018-09-05T11:18:47Z</time>
      </trkpt>
      <trkpt lat="45.971250" lon="13.466619">
        <ele>168.308</ele>
        <time>2018-09-05T11:18:52Z</time>
      </trkpt>
      <trkpt lat="45.971324" lon="13.466572">
        <ele>168.370</ele>
        <time>2018-09-05T11:18:53Z</time>
      </trkpt>
      <trkpt lat="45.971389" lon="13.466513">
        <ele>167.842</ele>
        <time>2018-09-05T11:18:54Z</time>
      </trkpt>
      <trkpt lat="45.971444" lon="13.466450">
        <ele>167.898</ele>
        <time>2018-09-05T11:18:55Z</time>
      </trkpt>
      <trkpt lat="45.971499" lon="13.466379">
        <ele>167.474</ele>
        <time>2018-09-05T11:18:56Z</time>
      </trkpt>
      <trkpt lat="45.971866" lon="13.465860">
        <ele>166.951</ele>
        <time>2018-09-05T11:19:05Z</time>
      </trkpt>
      <trkpt lat="45.971886" lon="13.465808">
        <ele>167.472</ele>
        <time>2018-09-05T11:19:06Z</time>
      </trkpt>
      <trkpt lat="45.971900" lon="13.465751">
        <ele>167.466</ele>
        <time>2018-09-05T11:19:07Z</time>
      </trkpt>
      <trkpt lat="45.971904" lon="13.465695">
        <ele>167.417</ele>
        <time>2018-09-05T11:19:08Z</time>
      </trkpt>
      <trkpt lat="45.971897" lon="13.465639">
        <ele>167.476</ele>
        <time>2018-09-05T11:19:09Z</time>
      </trkpt>
      <trkpt lat="45.971879" lon="13.465596">
        <ele>167.490</ele>
        <time>2018-09-05T11:19:10Z</time>
      </trkpt>
      <trkpt lat="45.971852" lon="13.465562">
        <ele>167.419</ele>
        <time>2018-09-05T11:19:11Z</time>
      </trkpt>
      <trkpt lat="45.971810" lon="13.465539">
        <ele>166.908</ele>
        <time>2018-09-05T11:19:12Z</time>
      </trkpt>
      <trkpt lat="45.971758" lon="13.465537">
        <ele>166.981</ele>
        <time>2018-09-05T11:19:13Z</time>
      </trkpt>
      <trkpt lat="45.971702" lon="13.465559">
        <ele>166.443</ele>
        <time>2018-09-05T11:19:14Z</time>
      </trkpt>
      <trkpt lat="45.971646" lon="13.465604">
        <ele>165.969</ele>
        <time>2018-09-05T11:19:15Z</time>
      </trkpt>
      <trkpt lat="45.971591" lon="13.465663">
        <ele>165.485</ele>
        <time>2018-09-05T11:19:16Z</time>
      </trkpt>
      <trkpt lat="45.971529" lon="13.465728">
        <ele>165.042</ele>
        <time>2018-09-05T11:19:17Z</time>
      </trkpt>
      <trkpt lat="45.971456" lon="13.465795">
        <ele>164.083</ele>
        <time>2018-09-05T11:19:18Z</time>
      </trkpt>
      <trkpt lat="45.971380" lon="13.465852">
        <ele>163.587</ele>
        <time>2018-09-05T11:19:19Z</time>
      </trkpt>
      <trkpt lat="45.971294" lon="13.465902">
        <ele>162.668</ele>
        <time>2018-09-05T11:19:20Z</time>
      </trkpt>
      <trkpt lat="45.971197" lon="13.465949">
        <ele>161.114</ele>
        <time>2018-09-05T11:19:21Z</time>
      </trkpt>
      <trkpt lat="45.970249" lon="13.466525">
        <ele>149.154</ele>
        <time>2018-09-05T11:19:30Z</time>
      </trkpt>
      <trkpt lat="45.969342" lon="13.467359">
        <ele>134.709</ele>
        <time>2018-09-05T11:19:40Z</time>
      </trkpt>
      <trkpt lat="45.969045" lon="13.467559">
        <ele>130.408</ele>
        <time>2018-09-05T11:19:43Z</time>
      </trkpt>
      <trkpt lat="45.967679" lon="13.468252">
        <ele>114.065</ele>
        <time>2018-09-05T11:19:55Z</time>
      </trkpt>
      <trkpt lat="45.966267" lon="13.468950">
        <ele>93.847</ele>
        <time>2018-09-05T11:20:06Z</time>
      </trkpt>
      <trkpt lat="45.965290" lon="13.469389">
        <ele>83.233</ele>
        <time>2018-09-05T11:20:14Z</time>
      </trkpt>
      <trkpt lat="45.965192" lon="13.469397">
        <ele>82.339</ele>
        <time>2018-09-05T11:20:15Z</time>
      </trkpt>
      <trkpt lat="45.965100" lon="13.469391">
        <ele>81.396</ele>
        <time>2018-09-05T11:20:16Z</time>
      </trkpt>
      <trkpt lat="45.964702" lon="13.469340">
        <ele>76.087</ele>
        <time>2018-09-05T11:20:21Z</time>
      </trkpt>
      <trkpt lat="45.964629" lon="13.469348">
        <ele>75.131</ele>
        <time>2018-09-05T11:20:22Z</time>
      </trkpt>
      <trkpt lat="45.964560" lon="13.469366">
        <ele>74.172</ele>
        <time>2018-09-05T11:20:23Z</time>
      </trkpt>
      <trkpt lat="45.964494" lon="13.469389">
        <ele>73.618</ele>
        <time>2018-09-05T11:20:24Z</time>
      </trkpt>
      <trkpt lat="45.964433" lon="13.469420">
        <ele>72.798</ele>
        <time>2018-09-05T11:20:25Z</time>
      </trkpt>
      <trkpt lat="45.964376" lon="13.469457">
        <ele>72.217</ele>
        <time>2018-09-05T11:20:26Z</time>
      </trkpt>
      <trkpt lat="45.964322" lon="13.469495">
        <ele>71.708</ele>
        <time>2018-09-05T11:20:27Z</time>
      </trkpt>
      <trkpt lat="45.964274" lon="13.469539">
        <ele>70.725</ele>
        <time>2018-09-05T11:20:28Z</time>
      </trkpt>
      <trkpt lat="45.964231" lon="13.469584">
        <ele>70.367</ele>
        <time>2018-09-05T11:20:29Z</time>
      </trkpt>
      <trkpt lat="45.964193" lon="13.469635">
        <ele>69.893</ele>
        <time>2018-09-05T11:20:30Z</time>
      </trkpt>
      <trkpt lat="45.964050" lon="13.469851">
        <ele>66.949</ele>
        <time>2018-09-05T11:20:35Z</time>
      </trkpt>
      <trkpt lat="45.964031" lon="13.469852">
        <ele>66.986</ele>
        <time>2018-09-05T11:20:36Z</time>
      </trkpt>
      <trkpt lat="45.964021" lon="13.469833">
        <ele>66.487</ele>
        <time>2018-09-05T11:20:37Z</time>
      </trkpt>
      <trkpt lat="45.964022" lon="13.469797">
        <ele>66.411</ele>
        <time>2018-09-05T11:20:38Z</time>
      </trkpt>
      <trkpt lat="45.964027" lon="13.469774">
        <ele>66.482</ele>
        <time>2018-09-05T11:20:39Z</time>
      </trkpt>
      <trkpt lat="45.964035" lon="13.469748">
        <ele>66.969</ele>
        <time>2018-09-05T11:20:40Z</time>
      </trkpt>
      <trkpt lat="45.964043" lon="13.469721">
        <ele>66.904</ele>
        <time>2018-09-05T11:20:41Z</time>
      </trkpt>
      <trkpt lat="45.964356" lon="13.469161">
        <ele>69.824</ele>
        <time>2018-09-05T11:20:58Z</time>
      </trkpt>
      <trkpt lat="45.964797" lon="13.468763">
        <ele>68.808</ele>
        <time>2018-09-05T11:21:14Z</time>
      </trkpt>
      <trkpt lat="45.965084" lon="13.468458">
        <ele>71.730</ele>
        <time>2018-09-05T11:21:27Z</time>
      </trkpt>
      <trkpt lat="45.965114" lon="13.468430">
        <ele>72.722</ele>
        <time>2018-09-05T11:21:29Z</time>
      </trkpt>
      <trkpt lat="45.965121" lon="13.468410">
        <ele>73.218</ele>
        <time>2018-09-05T11:21:30Z</time>
      </trkpt>
      <trkpt lat="45.965129" lon="13.468386">
        <ele>73.234</ele>
        <time>2018-09-05T11:21:31Z</time>
      </trkpt>
      <trkpt lat="45.965142" lon="13.468362">
        <ele>73.271</ele>
        <time>2018-09-05T11:21:32Z</time>
      </trkpt>
      <trkpt lat="45.965159" lon="13.468337">
        <ele>73.692</ele>
        <time>2018-09-05T11:21:33Z</time>
      </trkpt>
      <trkpt lat="45.965177" lon="13.468312">
        <ele>73.636</ele>
        <time>2018-09-05T11:21:34Z</time>
      </trkpt>
      <trkpt lat="45.965195" lon="13.468284">
        <ele>73.627</ele>
        <time>2018-09-05T11:21:35Z</time>
      </trkpt>
      <trkpt lat="45.965494" lon="13.467800">
        <ele>70.761</ele>
        <time>2018-09-05T11:21:46Z</time>
      </trkpt>
      <trkpt lat="45.965997" lon="13.466997">
        <ele>69.821</ele>
        <time>2018-09-05T11:22:01Z</time>
      </trkpt>
      <trkpt lat="45.966023" lon="13.466924">
        <ele>69.313</ele>
        <time>2018-09-05T11:22:02Z</time>
      </trkpt>
      <trkpt lat="45.966047" lon="13.466854">
        <ele>69.308</ele>
        <time>2018-09-05T11:22:03Z</time>
      </trkpt>
      <trkpt lat="45.966066" lon="13.466773">
        <ele>68.870</ele>
        <time>2018-09-05T11:22:04Z</time>
      </trkpt>
      <trkpt lat="45.966081" lon="13.466690">
        <ele>68.312</ele>
        <time>2018-09-05T11:22:05Z</time>
      </trkpt>
      <trkpt lat="45.966282" lon="13.465706">
        <ele>65.018</ele>
        <time>2018-09-05T11:22:16Z</time>
      </trkpt>
      <trkpt lat="45.966931" lon="13.464357">
        <ele>62.114</ele>
        <time>2018-09-05T11:22:33Z</time>
      </trkpt>
      <trkpt lat="45.967502" lon="13.463061">
        <ele>60.731</ele>
        <time>2018-09-05T11:22:50Z</time>
      </trkpt>
      <trkpt lat="45.967567" lon="13.462929">
        <ele>60.782</ele>
        <time>2018-09-05T11:22:52Z</time>
      </trkpt>
      <trkpt lat="45.968238" lon="13.462035">
        <ele>60.226</ele>
        <time>2018-09-05T11:23:09Z</time>
      </trkpt>
      <trkpt lat="45.968971" lon="13.461255">
        <ele>60.717</ele>
        <time>2018-09-05T11:23:26Z</time>
      </trkpt>
      <trkpt lat="45.969805" lon="13.460678">
        <ele>61.171</ele>
        <time>2018-09-05T11:23:44Z</time>
      </trkpt>
      <trkpt lat="45.970549" lon="13.460135">
        <ele>61.641</ele>
        <time>2018-09-05T11:24:02Z</time>
      </trkpt>
      <trkpt lat="45.970581" lon="13.460092">
        <ele>61.615</ele>
        <time>2018-09-05T11:24:03Z</time>
      </trkpt>
      <trkpt lat="45.970612" lon="13.460033">
        <ele>62.108</ele>
        <time>2018-09-05T11:24:04Z</time>
      </trkpt>
      <trkpt lat="45.970631" lon="13.459984">
        <ele>62.161</ele>
        <time>2018-09-05T11:24:05Z</time>
      </trkpt>
      <trkpt lat="45.970651" lon="13.459921">
        <ele>62.133</ele>
        <time>2018-09-05T11:24:06Z</time>
      </trkpt>
      <trkpt lat="45.970668" lon="13.459860">
        <ele>62.699</ele>
        <time>2018-09-05T11:24:07Z</time>
      </trkpt>
      <trkpt lat="45.970911" lon="13.458629">
        <ele>62.655</ele>
        <time>2018-09-05T11:24:26Z</time>
      </trkpt>
      <trkpt lat="45.971026" lon="13.457453">
        <ele>62.172</ele>
        <time>2018-09-05T11:24:44Z</time>
      </trkpt>
      <trkpt lat="45.971090" lon="13.457161">
        <ele>62.643</ele>
        <time>2018-09-05T11:24:51Z</time>
      </trkpt>
      <trkpt lat="45.971082" lon="13.457139">
        <ele>62.667</ele>
        <time>2018-09-05T11:24:52Z</time>
      </trkpt>
      <trkpt lat="45.971072" lon="13.457112">
        <ele>63.198</ele>
        <time>2018-09-05T11:24:53Z</time>
      </trkpt>
      <trkpt lat="45.971058" lon="13.457087">
        <ele>62.641</ele>
        <time>2018-09-05T11:24:54Z</time>
      </trkpt>
      <trkpt lat="45.971035" lon="13.457078">
        <ele>62.681</ele>
        <time>2018-09-05T11:24:55Z</time>
      </trkpt>
      <trkpt lat="45.971013" lon="13.457090">
        <ele>62.609</ele>
        <time>2018-09-05T11:24:56Z</time>
      </trkpt>
      <trkpt lat="45.970993" lon="13.457106">
        <ele>62.608</ele>
        <time>2018-09-05T11:24:57Z</time>
      </trkpt>
      <trkpt lat="45.970967" lon="13.457126">
        <ele>62.698</ele>
        <time>2018-09-05T11:24:58Z</time>
      </trkpt>
      <trkpt lat="45.970331" lon="13.457543">
        <ele>62.190</ele>
        <time>2018-09-05T11:25:15Z</time>
      </trkpt>
      <trkpt lat="45.969876" lon="13.457801">
        <ele>62.186</ele>
        <time>2018-09-05T11:25:26Z</time>
      </trkpt>
      <trkpt lat="45.969837" lon="13.457776">
        <ele>62.192</ele>
        <time>2018-09-05T11:25:27Z</time>
      </trkpt>
      <trkpt lat="45.969812" lon="13.457734">
        <ele>62.139</ele>
        <time>2018-09-05T11:25:28Z</time>
      </trkpt>
      <trkpt lat="45.969793" lon="13.457684">
        <ele>61.620</ele>
        <time>2018-09-05T11:25:29Z</time>
      </trkpt>
      <trkpt lat="45.969775" lon="13.457626">
        <ele>61.634</ele>
        <time>2018-09-05T11:25:30Z</time>
      </trkpt>
      <trkpt lat="45.969385" lon="13.456533">
        <ele>60.265</ele>
        <time>2018-09-05T11:25:49Z</time>
      </trkpt>
      <trkpt lat="45.969017" lon="13.455535">
        <ele>58.744</ele>
        <time>2018-09-05T11:26:06Z</time>
      </trkpt>
      <trkpt lat="45.968791" lon="13.454883">
        <ele>58.705</ele>
        <time>2018-09-05T11:26:17Z</time>
      </trkpt>
      <trkpt lat="45.968626" lon="13.454426">
        <ele>58.715</ele>
        <time>2018-09-05T11:26:25Z</time>
      </trkpt>
      <trkpt lat="45.968600" lon="13.454374">
        <ele>58.708</ele>
        <time>2018-09-05T11:26:26Z</time>
      </trkpt>
      <trkpt lat="45.968578" lon="13.454319">
        <ele>58.718</ele>
        <time>2018-09-05T11:26:27Z</time>
      </trkpt>
      <trkpt lat="45.968168" lon="13.453184">
        <ele>57.810</ele>
        <time>2018-09-05T11:26:46Z</time>
      </trkpt>
      <trkpt lat="45.967814" lon="13.452111">
        <ele>57.316</ele>
        <time>2018-09-05T11:27:05Z</time>
      </trkpt>
      <trkpt lat="45.967698" lon="13.451771">
        <ele>57.812</ele>
        <time>2018-09-05T11:27:11Z</time>
      </trkpt>
      <trkpt lat="45.967340" lon="13.450874">
        <ele>57.849</ele>
        <time>2018-09-05T11:27:27Z</time>
      </trkpt>
      <trkpt lat="45.967313" lon="13.450823">
        <ele>57.810</ele>
        <time>2018-09-05T11:27:28Z</time>
      </trkpt>
      <trkpt lat="45.967287" lon="13.450769">
        <ele>57.854</ele>
        <time>2018-09-05T11:27:29Z</time>
      </trkpt>
      <trkpt lat="45.966872" lon="13.449486">
        <ele>57.325</ele>
        <time>2018-09-05T11:27:51Z</time>
      </trkpt>
      <trkpt lat="45.966768" lon="13.449068">
        <ele>57.376</ele>
        <time>2018-09-05T11:27:58Z</time>
      </trkpt>
      <trkpt lat="45.966757" lon="13.449009">
        <ele>57.390</ele>
        <time>2018-09-05T11:27:59Z</time>
      </trkpt>
      <trkpt lat="45.966721" lon="13.448829">
        <ele>57.819</ele>
        <time>2018-09-05T11:28:02Z</time>
      </trkpt>
      <trkpt lat="45.966714" lon="13.448769">
        <ele>57.808</ele>
        <time>2018-09-05T11:28:03Z</time>
      </trkpt>
      <trkpt lat="45.966697" lon="13.448582">
        <ele>57.851</ele>
        <time>2018-09-05T11:28:06Z</time>
      </trkpt>
      <trkpt lat="45.966689" lon="13.448524">
        <ele>57.843</ele>
        <time>2018-09-05T11:28:07Z</time>
      </trkpt>
      <trkpt lat="45.966653" lon="13.448382">
        <ele>57.819</ele>
        <time>2018-09-05T11:28:10Z</time>
      </trkpt>
      <trkpt lat="45.966623" lon="13.448356">
        <ele>58.325</ele>
        <time>2018-09-05T11:28:11Z</time>
      </trkpt>
      <trkpt lat="45.966045" lon="13.447956">
        <ele>57.312</ele>
        <time>2018-09-05T11:28:25Z</time>
      </trkpt>
      <trkpt lat="45.966004" lon="13.447901">
        <ele>56.843</ele>
        <time>2018-09-05T11:28:26Z</time>
      </trkpt>
      <trkpt lat="45.965985" lon="13.447826">
        <ele>56.817</ele>
        <time>2018-09-05T11:28:27Z</time>
      </trkpt>
      <trkpt lat="45.965993" lon="13.447736">
        <ele>56.378</ele>
        <time>2018-09-05T11:28:28Z</time>
      </trkpt>
      <trkpt lat="45.966090" lon="13.446520">
        <ele>54.967</ele>
        <time>2018-09-05T11:28:43Z</time>
      </trkpt>
      <trkpt lat="45.965878" lon="13.444546">
        <ele>52.581</ele>
        <time>2018-09-05T11:29:04Z</time>
      </trkpt>
      <trkpt lat="45.965676" lon="13.442708">
        <ele>50.619</ele>
        <time>2018-09-05T11:29:24Z</time>
      </trkpt>
      <trkpt lat="45.965480" lon="13.440954">
        <ele>50.608</ele>
        <time>2018-09-05T11:29:46Z</time>
      </trkpt>
      <trkpt lat="45.965365" lon="13.439579">
        <ele>49.660</ele>
        <time>2018-09-05T11:30:04Z</time>
      </trkpt>
      <trkpt lat="45.965393" lon="13.439522">
        <ele>49.632</ele>
        <time>2018-09-05T11:30:05Z</time>
      </trkpt>
      <trkpt lat="45.965445" lon="13.439486">
        <ele>49.168</ele>
        <time>2018-09-05T11:30:06Z</time>
      </trkpt>
      <trkpt lat="45.965491" lon="13.439474">
        <ele>49.164</ele>
        <time>2018-09-05T11:30:07Z</time>
      </trkpt>
      <trkpt lat="45.965559" lon="13.439466">
        <ele>49.181</ele>
        <time>2018-09-05T11:30:08Z</time>
      </trkpt>
      <trkpt lat="45.965614" lon="13.439461">
        <ele>48.692</ele>
        <time>2018-09-05T11:30:09Z</time>
      </trkpt>
      <trkpt lat="45.966328" lon="13.439330">
        <ele>50.156</ele>
        <time>2018-09-05T11:30:23Z</time>
      </trkpt>
      <trkpt lat="45.966886" lon="13.439238">
        <ele>50.627</ele>
        <time>2018-09-05T11:30:36Z</time>
      </trkpt>
      <trkpt lat="45.967060" lon="13.439242">
        <ele>50.671</ele>
        <time>2018-09-05T11:30:40Z</time>
      </trkpt>
      <trkpt lat="45.967547" lon="13.439343">
        <ele>51.041</ele>
        <time>2018-09-05T11:30:51Z</time>
      </trkpt>
      <trkpt lat="45.967595" lon="13.439336">
        <ele>51.015</ele>
        <time>2018-09-05T11:30:52Z</time>
      </trkpt>
      <trkpt lat="45.967676" lon="13.439311">
        <ele>51.008</ele>
        <time>2018-09-05T11:30:54Z</time>
      </trkpt>
      <trkpt lat="45.967878" lon="13.439230">
        <ele>52.071</ele>
        <time>2018-09-05T11:30:59Z</time>
      </trkpt>
      <trkpt lat="45.967925" lon="13.439218">
        <ele>52.083</ele>
        <time>2018-09-05T11:31:00Z</time>
      </trkpt>
      <trkpt lat="45.967967" lon="13.439208">
        <ele>52.049</ele>
        <time>2018-09-05T11:31:01Z</time>
      </trkpt>
      <trkpt lat="45.968685" lon="13.439014">
        <ele>52.525</ele>
        <time>2018-09-05T11:31:20Z</time>
      </trkpt>
      <trkpt lat="45.969414" lon="13.438555">
        <ele>52.032</ele>
        <time>2018-09-05T11:31:39Z</time>
      </trkpt>
      <trkpt lat="45.970034" lon="13.438074">
        <ele>53.413</ele>
        <time>2018-09-05T11:31:55Z</time>
      </trkpt>
      <trkpt lat="45.970261" lon="13.437608">
        <ele>54.977</ele>
        <time>2018-09-05T11:32:09Z</time>
      </trkpt>
      <trkpt lat="45.970563" lon="13.437038">
        <ele>55.478</ele>
        <time>2018-09-05T11:32:23Z</time>
      </trkpt>
      <trkpt lat="45.970977" lon="13.436519">
        <ele>56.899</ele>
        <time>2018-09-05T11:32:41Z</time>
      </trkpt>
      <trkpt lat="45.971018" lon="13.436370">
        <ele>58.707</ele>
        <time>2018-09-05T11:32:48Z</time>
      </trkpt>
      <trkpt lat="45.971018" lon="13.436347">
        <ele>59.227</ele>
        <time>2018-09-05T11:32:49Z</time>
      </trkpt>
      <trkpt lat="45.971133" lon="13.436010">
        <ele>61.108</ele>
        <time>2018-09-05T11:33:07Z</time>
      </trkpt>
      <trkpt lat="45.971406" lon="13.435915">
        <ele>61.673</ele>
        <time>2018-09-05T11:33:21Z</time>
      </trkpt>
      <trkpt lat="45.971991" lon="13.435677">
        <ele>61.625</ele>
        <time>2018-09-05T11:33:40Z</time>
      </trkpt>
      <trkpt lat="45.972574" lon="13.435742">
        <ele>63.151</ele>
        <time>2018-09-05T11:33:57Z</time>
      </trkpt>
      <trkpt lat="45.973143" lon="13.435801">
        <ele>62.677</ele>
        <time>2018-09-05T11:34:10Z</time>
      </trkpt>
      <trkpt lat="45.973464" lon="13.436186">
        <ele>63.164</ele>
        <time>2018-09-05T11:34:24Z</time>
      </trkpt>
      <trkpt lat="45.973865" lon="13.436914">
        <ele>63.555</ele>
        <time>2018-09-05T11:34:44Z</time>
      </trkpt>
      <trkpt lat="45.974423" lon="13.437605">
        <ele>63.199</ele>
        <time>2018-09-05T11:35:04Z</time>
      </trkpt>
      <trkpt lat="45.974997" lon="13.438442">
        <ele>64.070</ele>
        <time>2018-09-05T11:35:25Z</time>
      </trkpt>
      <trkpt lat="45.975511" lon="13.439337">
        <ele>64.093</ele>
        <time>2018-09-05T11:35:46Z</time>
      </trkpt>
      <trkpt lat="45.976067" lon="13.440057">
        <ele>65.065</ele>
        <time>2018-09-05T11:36:06Z</time>
      </trkpt>
      <trkpt lat="45.976147" lon="13.440094">
        <ele>65.021</ele>
        <time>2018-09-05T11:36:08Z</time>
      </trkpt>
      <trkpt lat="45.976186" lon="13.440126">
        <ele>65.008</ele>
        <time>2018-09-05T11:36:09Z</time>
      </trkpt>
      <trkpt lat="45.976218" lon="13.440159">
        <ele>65.083</ele>
        <time>2018-09-05T11:36:10Z</time>
      </trkpt>
      <trkpt lat="45.976569" lon="13.440554">
        <ele>65.575</ele>
        <time>2018-09-05T11:36:22Z</time>
      </trkpt>
      <trkpt lat="45.977085" lon="13.441120">
        <ele>66.461</ele>
        <time>2018-09-05T11:36:40Z</time>
      </trkpt>
      <trkpt lat="45.977518" lon="13.441558">
        <ele>66.417</ele>
        <time>2018-09-05T11:36:53Z</time>
      </trkpt>
      <trkpt lat="45.977561" lon="13.441569">
        <ele>66.464</ele>
        <time>2018-09-05T11:36:54Z</time>
      </trkpt>
      <trkpt lat="45.977602" lon="13.441567">
        <ele>66.495</ele>
        <time>2018-09-05T11:36:55Z</time>
      </trkpt>
      <trkpt lat="45.977643" lon="13.441550">
        <ele>66.419</ele>
        <time>2018-09-05T11:36:56Z</time>
      </trkpt>
      <trkpt lat="45.977676" lon="13.441516">
        <ele>66.960</ele>
        <time>2018-09-05T11:36:57Z</time>
      </trkpt>
      <trkpt lat="45.977703" lon="13.441470">
        <ele>66.928</ele>
        <time>2018-09-05T11:36:58Z</time>
      </trkpt>
      <trkpt lat="45.977724" lon="13.441418">
        <ele>66.989</ele>
        <time>2018-09-05T11:36:59Z</time>
      </trkpt>
      <trkpt lat="45.977740" lon="13.441363">
        <ele>67.417</ele>
        <time>2018-09-05T11:37:00Z</time>
      </trkpt>
      <trkpt lat="45.977754" lon="13.441306">
        <ele>67.408</ele>
        <time>2018-09-05T11:37:01Z</time>
      </trkpt>
      <trkpt lat="45.977768" lon="13.441249">
        <ele>67.426</ele>
        <time>2018-09-05T11:37:02Z</time>
      </trkpt>
      <trkpt lat="45.977782" lon="13.441191">
        <ele>67.418</ele>
        <time>2018-09-05T11:37:03Z</time>
      </trkpt>
      <trkpt lat="45.977795" lon="13.441133">
        <ele>67.414</ele>
        <time>2018-09-05T11:37:04Z</time>
      </trkpt>
      <trkpt lat="45.977811" lon="13.441076">
        <ele>67.910</ele>
        <time>2018-09-05T11:37:05Z</time>
      </trkpt>
      <trkpt lat="45.977831" lon="13.441021">
        <ele>67.987</ele>
        <time>2018-09-05T11:37:06Z</time>
      </trkpt>
      <trkpt lat="45.977855" lon="13.440969">
        <ele>67.978</ele>
        <time>2018-09-05T11:37:07Z</time>
      </trkpt>
      <trkpt lat="45.978259" lon="13.440173">
        <ele>68.332</ele>
        <time>2018-09-05T11:37:23Z</time>
      </trkpt>
      <trkpt lat="45.978281" lon="13.440116">
        <ele>68.853</ele>
        <time>2018-09-05T11:37:24Z</time>
      </trkpt>
      <trkpt lat="45.978490" lon="13.439513">
        <ele>70.318</ele>
        <time>2018-09-05T11:37:37Z</time>
      </trkpt>
      <trkpt lat="45.978507" lon="13.439477">
        <ele>70.398</ele>
        <time>2018-09-05T11:37:38Z</time>
      </trkpt>
      <trkpt lat="45.978511" lon="13.439422">
        <ele>70.317</ele>
        <time>2018-09-05T11:37:39Z</time>
      </trkpt>
      <trkpt lat="45.978507" lon="13.439126">
        <ele>70.308</ele>
        <time>2018-09-05T11:37:44Z</time>
      </trkpt>
      <trkpt lat="45.978766" lon="13.438167">
        <ele>70.335</ele>
        <time>2018-09-05T11:38:00Z</time>
      </trkpt>
      <trkpt lat="45.979379" lon="13.436941">
        <ele>70.757</ele>
        <time>2018-09-05T11:38:23Z</time>
      </trkpt>
      <trkpt lat="45.979898" lon="13.435589">
        <ele>71.273</ele>
        <time>2018-09-05T11:38:46Z</time>
      </trkpt>
      <trkpt lat="45.980236" lon="13.434318">
        <ele>71.269</ele>
        <time>2018-09-05T11:39:06Z</time>
      </trkpt>
      <trkpt lat="45.980255" lon="13.434259">
        <ele>70.736</ele>
        <time>2018-09-05T11:39:07Z</time>
      </trkpt>
      <trkpt lat="45.980290" lon="13.434211">
        <ele>70.717</ele>
        <time>2018-09-05T11:39:08Z</time>
      </trkpt>
      <trkpt lat="45.980332" lon="13.434182">
        <ele>70.741</ele>
        <time>2018-09-05T11:39:09Z</time>
      </trkpt>
      <trkpt lat="45.980362" lon="13.434159">
        <ele>70.752</ele>
        <time>2018-09-05T11:39:10Z</time>
      </trkpt>
      <trkpt lat="45.980401" lon="13.434126">
        <ele>70.762</ele>
        <time>2018-09-05T11:39:11Z</time>
      </trkpt>
      <trkpt lat="45.980714" lon="13.433826">
        <ele>70.783</ele>
        <time>2018-09-05T11:39:20Z</time>
      </trkpt>
      <trkpt lat="45.980750" lon="13.433794">
        <ele>70.711</ele>
        <time>2018-09-05T11:39:21Z</time>
      </trkpt>
      <trkpt lat="45.981348" lon="13.433459">
        <ele>70.308</ele>
        <time>2018-09-05T11:39:38Z</time>
      </trkpt>
      <trkpt lat="45.982044" lon="13.433464">
        <ele>70.320</ele>
        <time>2018-09-05T11:39:56Z</time>
      </trkpt>
      <trkpt lat="45.982721" lon="13.433407">
        <ele>70.362</ele>
        <time>2018-09-05T11:40:14Z</time>
      </trkpt>
      <trkpt lat="45.983400" lon="13.433185">
        <ele>71.718</ele>
        <time>2018-09-05T11:40:32Z</time>
      </trkpt>
      <trkpt lat="45.984389" lon="13.432867">
        <ele>71.264</ele>
        <time>2018-09-05T11:40:58Z</time>
      </trkpt>
      <trkpt lat="45.984782" lon="13.432703">
        <ele>71.721</ele>
        <time>2018-09-05T11:41:09Z</time>
      </trkpt>
      <trkpt lat="45.984798" lon="13.432659">
        <ele>71.742</ele>
        <time>2018-09-05T11:41:10Z</time>
      </trkpt>
      <trkpt lat="45.984801" lon="13.432599">
        <ele>72.286</ele>
        <time>2018-09-05T11:41:11Z</time>
      </trkpt>
      <trkpt lat="45.984793" lon="13.432557">
        <ele>72.297</ele>
        <time>2018-09-05T11:41:12Z</time>
      </trkpt>
      <trkpt lat="45.984781" lon="13.432509">
        <ele>72.264</ele>
        <time>2018-09-05T11:41:13Z</time>
      </trkpt>
      <trkpt lat="45.984767" lon="13.432458">
        <ele>72.706</ele>
        <time>2018-09-05T11:41:14Z</time>
      </trkpt>
      <trkpt lat="45.984641" lon="13.431688">
        <ele>71.716</ele>
        <time>2018-09-05T11:41:27Z</time>
      </trkpt>
      <trkpt lat="45.984616" lon="13.431508">
        <ele>71.708</ele>
        <time>2018-09-05T11:41:30Z</time>
      </trkpt>
      <trkpt lat="45.984630" lon="13.431462">
        <ele>71.280</ele>
        <time>2018-09-05T11:41:31Z</time>
      </trkpt>
      <trkpt lat="45.984656" lon="13.431451">
        <ele>71.212</ele>
        <time>2018-09-05T11:41:32Z</time>
      </trkpt>
      <trkpt lat="45.985047" lon="13.431418">
        <ele>72.758</ele>
        <time>2018-09-05T11:41:45Z</time>
      </trkpt>
      <trkpt lat="45.985479" lon="13.431200">
        <ele>73.264</ele>
        <time>2018-09-05T11:41:59Z</time>
      </trkpt>
      <trkpt lat="45.985536" lon="13.431206">
        <ele>72.731</ele>
        <time>2018-09-05T11:42:08Z</time>
      </trkpt>
      <trkpt lat="45.985548" lon="13.431201">
        <ele>72.722</ele>
        <time>2018-09-05T11:42:09Z</time>
      </trkpt>
      <trkpt lat="45.985563" lon="13.431199">
        <ele>73.296</ele>
        <time>2018-09-05T11:42:10Z</time>
      </trkpt>
      <trkpt lat="45.985580" lon="13.431210">
        <ele>73.277</ele>
        <time>2018-09-05T11:42:11Z</time>
      </trkpt>
      <trkpt lat="45.985600" lon="13.431219">
        <ele>73.267</ele>
        <time>2018-09-05T11:42:12Z</time>
      </trkpt>
      <trkpt lat="45.985618" lon="13.431200">
        <ele>73.281</ele>
        <time>2018-09-05T11:42:13Z</time>
      </trkpt>
      <trkpt lat="45.985627" lon="13.431176">
        <ele>73.219</ele>
        <time>2018-09-05T11:42:14Z</time>
      </trkpt>
      <trkpt lat="45.985637" lon="13.431128">
        <ele>73.208</ele>
        <time>2018-09-05T11:42:15Z</time>
      </trkpt>
      <trkpt lat="45.985645" lon="13.431080">
        <ele>73.210</ele>
        <time>2018-09-05T11:42:16Z</time>
      </trkpt>
      <trkpt lat="45.985788" lon="13.429952">
        <ele>72.762</ele>
        <time>2018-09-05T11:42:34Z</time>
      </trkpt>
      <trkpt lat="45.985844" lon="13.428836">
        <ele>71.748</ele>
        <time>2018-09-05T11:42:50Z</time>
      </trkpt>
      <trkpt lat="45.985830" lon="13.428757">
        <ele>71.784</ele>
        <time>2018-09-05T11:42:51Z</time>
      </trkpt>
      <trkpt lat="45.985814" lon="13.428698">
        <ele>71.731</ele>
        <time>2018-09-05T11:42:52Z</time>
      </trkpt>
      <trkpt lat="45.985793" lon="13.428629">
        <ele>71.732</ele>
        <time>2018-09-05T11:42:53Z</time>
      </trkpt>
      <trkpt lat="45.985771" lon="13.428552">
        <ele>71.776</ele>
        <time>2018-09-05T11:42:54Z</time>
      </trkpt>
      <trkpt lat="45.985755" lon="13.428484">
        <ele>71.247</ele>
        <time>2018-09-05T11:42:55Z</time>
      </trkpt>
      <trkpt lat="45.985709" lon="13.428272">
        <ele>70.797</ele>
        <time>2018-09-05T11:42:58Z</time>
      </trkpt>
      <trkpt lat="45.985650" lon="13.427082">
        <ele>68.823</ele>
        <time>2018-09-05T11:43:13Z</time>
      </trkpt>
      <trkpt lat="45.985700" lon="13.426817">
        <ele>69.325</ele>
        <time>2018-09-05T11:43:18Z</time>
      </trkpt>
      <trkpt lat="45.985719" lon="13.426783">
        <ele>69.308</ele>
        <time>2018-09-05T11:43:19Z</time>
      </trkpt>
      <trkpt lat="45.985726" lon="13.426743">
        <ele>69.313</ele>
        <time>2018-09-05T11:43:20Z</time>
      </trkpt>
      <trkpt lat="45.985728" lon="13.426691">
        <ele>69.345</ele>
        <time>2018-09-05T11:43:21Z</time>
      </trkpt>
      <trkpt lat="45.985729" lon="13.426637">
        <ele>69.351</ele>
        <time>2018-09-05T11:43:22Z</time>
      </trkpt>
      <trkpt lat="45.985770" lon="13.425727">
        <ele>71.257</ele>
        <time>2018-09-05T11:43:38Z</time>
      </trkpt>
      <trkpt lat="45.985851" lon="13.425444">
        <ele>72.274</ele>
        <time>2018-09-05T11:43:45Z</time>
      </trkpt>
      <trkpt lat="45.985872" lon="13.425434">
        <ele>71.715</ele>
        <time>2018-09-05T11:43:46Z</time>
      </trkpt>
      <trkpt lat="45.985775" lon="13.424914">
        <ele>72.719</ele>
        <time>2018-09-05T11:48:11Z</time>
      </trkpt>
      <trkpt lat="45.985332" lon="13.424265">
        <ele>70.760</ele>
        <time>2018-09-05T11:48:25Z</time>
      </trkpt>
      <trkpt lat="45.985299" lon="13.424224">
        <ele>70.354</ele>
        <time>2018-09-05T11:48:26Z</time>
      </trkpt>
      <trkpt lat="45.985272" lon="13.424175">
        <ele>70.356</ele>
        <time>2018-09-05T11:48:27Z</time>
      </trkpt>
      <trkpt lat="45.985228" lon="13.424071">
        <ele>69.811</ele>
        <time>2018-09-05T11:48:29Z</time>
      </trkpt>
      <trkpt lat="45.985205" lon="13.424020">
        <ele>69.808</ele>
        <time>2018-09-05T11:48:30Z</time>
      </trkpt>
      <trkpt lat="45.985180" lon="13.423971">
        <ele>70.349</ele>
        <time>2018-09-05T11:48:31Z</time>
      </trkpt>
      <trkpt lat="45.985162" lon="13.423917">
        <ele>69.871</ele>
        <time>2018-09-05T11:48:32Z</time>
      </trkpt>
      <trkpt lat="45.985149" lon="13.423863">
        <ele>69.837</ele>
        <time>2018-09-05T11:48:33Z</time>
      </trkpt>
      <trkpt lat="45.984960" lon="13.422878">
        <ele>68.393</ele>
        <time>2018-09-05T11:48:49Z</time>
      </trkpt>
      <trkpt lat="45.984928" lon="13.422681">
        <ele>67.990</ele>
        <time>2018-09-05T11:48:52Z</time>
      </trkpt>
      <trkpt lat="45.984934" lon="13.422614">
        <ele>67.931</ele>
        <time>2018-09-05T11:48:53Z</time>
      </trkpt>
      <trkpt lat="45.984954" lon="13.422555">
        <ele>67.945</ele>
        <time>2018-09-05T11:48:54Z</time>
      </trkpt>
      <trkpt lat="45.984979" lon="13.422511">
        <ele>67.996</ele>
        <time>2018-09-05T11:48:55Z</time>
      </trkpt>
      <trkpt lat="45.985011" lon="13.422461">
        <ele>67.979</ele>
        <time>2018-09-05T11:48:56Z</time>
      </trkpt>
      <trkpt lat="45.985044" lon="13.422421">
        <ele>67.905</ele>
        <time>2018-09-05T11:48:57Z</time>
      </trkpt>
      <trkpt lat="45.985077" lon="13.422380">
        <ele>67.925</ele>
        <time>2018-09-05T11:48:58Z</time>
      </trkpt>
      <trkpt lat="45.985667" lon="13.421833">
        <ele>69.808</ele>
        <time>2018-09-05T11:49:14Z</time>
      </trkpt>
      <trkpt lat="45.986526" lon="13.421092">
        <ele>69.891</ele>
        <time>2018-09-05T11:49:37Z</time>
      </trkpt>
      <trkpt lat="45.987307" lon="13.420750">
        <ele>71.243</ele>
        <time>2018-09-05T11:49:56Z</time>
      </trkpt>
      <trkpt lat="45.987991" lon="13.420694">
        <ele>72.259</ele>
        <time>2018-09-05T11:50:12Z</time>
      </trkpt>
      <trkpt lat="45.988693" lon="13.420830">
        <ele>72.265</ele>
        <time>2018-09-05T11:50:30Z</time>
      </trkpt>
      <trkpt lat="45.989319" lon="13.420946">
        <ele>75.192</ele>
        <time>2018-09-05T11:50:47Z</time>
      </trkpt>
      <trkpt lat="45.989666" lon="13.420806">
        <ele>76.043</ele>
        <time>2018-09-05T11:50:59Z</time>
      </trkpt>
      <trkpt lat="45.989956" lon="13.420318">
        <ele>77.067</ele>
        <time>2018-09-05T11:51:13Z</time>
      </trkpt>
      <trkpt lat="45.990245" lon="13.419883">
        <ele>78.448</ele>
        <time>2018-09-05T11:51:28Z</time>
      </trkpt>
      <trkpt lat="45.990567" lon="13.419406">
        <ele>79.962</ele>
        <time>2018-09-05T11:51:46Z</time>
      </trkpt>
      <trkpt lat="45.990755" lon="13.419104">
        <ele>81.883</ele>
        <time>2018-09-05T11:52:02Z</time>
      </trkpt>
      <trkpt lat="45.990883" lon="13.418909">
        <ele>84.211</ele>
        <time>2018-09-05T11:52:16Z</time>
      </trkpt>
      <trkpt lat="45.990938" lon="13.418822">
        <ele>85.608</ele>
        <time>2018-09-05T11:52:23Z</time>
      </trkpt>
      <trkpt lat="45.990944" lon="13.418807">
        <ele>85.630</ele>
        <time>2018-09-05T11:52:24Z</time>
      </trkpt>
      <trkpt lat="45.990951" lon="13.418795">
        <ele>85.662</ele>
        <time>2018-09-05T11:52:25Z</time>
      </trkpt>
      <trkpt lat="45.990959" lon="13.418782">
        <ele>86.118</ele>
        <time>2018-09-05T11:52:26Z</time>
      </trkpt>
      <trkpt lat="45.990965" lon="13.418769">
        <ele>86.114</ele>
        <time>2018-09-05T11:52:27Z</time>
      </trkpt>
      <trkpt lat="45.990972" lon="13.418754">
        <ele>86.691</ele>
        <time>2018-09-05T11:52:28Z</time>
      </trkpt>
      <trkpt lat="45.990979" lon="13.418740">
        <ele>86.682</ele>
        <time>2018-09-05T11:52:29Z</time>
      </trkpt>
      <trkpt lat="45.990984" lon="13.418727">
        <ele>86.636</ele>
        <time>2018-09-05T11:52:30Z</time>
      </trkpt>
      <trkpt lat="45.990991" lon="13.418715">
        <ele>87.197</ele>
        <time>2018-09-05T11:52:31Z</time>
      </trkpt>
      <trkpt lat="45.990999" lon="13.418703">
        <ele>87.113</ele>
        <time>2018-09-05T11:52:32Z</time>
      </trkpt>
      <trkpt lat="45.991019" lon="13.418664">
        <ele>87.643</ele>
        <time>2018-09-05T11:52:35Z</time>
      </trkpt>
      <trkpt lat="45.991026" lon="13.418649">
        <ele>88.107</ele>
        <time>2018-09-05T11:52:36Z</time>
      </trkpt>
      <trkpt lat="45.991031" lon="13.418635">
        <ele>88.108</ele>
        <time>2018-09-05T11:52:37Z</time>
      </trkpt>
      <trkpt lat="45.991037" lon="13.418620">
        <ele>88.585</ele>
        <time>2018-09-05T11:52:38Z</time>
      </trkpt>
      <trkpt lat="45.991043" lon="13.418605">
        <ele>88.567</ele>
        <time>2018-09-05T11:52:39Z</time>
      </trkpt>
      <trkpt lat="45.991048" lon="13.418591">
        <ele>89.053</ele>
        <time>2018-09-05T11:52:40Z</time>
      </trkpt>
      <trkpt lat="45.991055" lon="13.418576">
        <ele>89.079</ele>
        <time>2018-09-05T11:52:41Z</time>
      </trkpt>
      <trkpt lat="45.991123" lon="13.418384">
        <ele>91.486</ele>
        <time>2018-09-05T11:52:54Z</time>
      </trkpt>
      <trkpt lat="45.991127" lon="13.418370">
        <ele>91.917</ele>
        <time>2018-09-05T11:52:55Z</time>
      </trkpt>
      <trkpt lat="45.991136" lon="13.418342">
        <ele>91.921</ele>
        <time>2018-09-05T11:52:57Z</time>
      </trkpt>
      <trkpt lat="45.991158" lon="13.418214">
        <ele>93.332</ele>
        <time>2018-09-05T11:53:05Z</time>
      </trkpt>
      <trkpt lat="45.991161" lon="13.418200">
        <ele>93.314</ele>
        <time>2018-09-05T11:53:06Z</time>
      </trkpt>
      <trkpt lat="45.991161" lon="13.418183">
        <ele>93.354</ele>
        <time>2018-09-05T11:53:07Z</time>
      </trkpt>
      <trkpt lat="45.991160" lon="13.418163">
        <ele>93.309</ele>
        <time>2018-09-05T11:53:08Z</time>
      </trkpt>
      <trkpt lat="45.991160" lon="13.418143">
        <ele>93.308</ele>
        <time>2018-09-05T11:53:09Z</time>
      </trkpt>
      <trkpt lat="45.991155" lon="13.418042">
        <ele>93.325</ele>
        <time>2018-09-05T11:53:14Z</time>
      </trkpt>
      <trkpt lat="45.991158" lon="13.418022">
        <ele>93.317</ele>
        <time>2018-09-05T11:53:15Z</time>
      </trkpt>
      <trkpt lat="45.991158" lon="13.418004">
        <ele>93.353</ele>
        <time>2018-09-05T11:53:16Z</time>
      </trkpt>
      <trkpt lat="45.991152" lon="13.417985">
        <ele>93.349</ele>
        <time>2018-09-05T11:53:17Z</time>
      </trkpt>
      <trkpt lat="45.991145" lon="13.417967">
        <ele>93.366</ele>
        <time>2018-09-05T11:53:18Z</time>
      </trkpt>
      <trkpt lat="45.991082" lon="13.417570">
        <ele>95.387</ele>
        <time>2018-09-05T11:53:36Z</time>
      </trkpt>
      <trkpt lat="45.991072" lon="13.417461">
        <ele>94.871</ele>
        <time>2018-09-05T11:53:41Z</time>
      </trkpt>
      <trkpt lat="45.991066" lon="13.417435">
        <ele>94.822</ele>
        <time>2018-09-05T11:53:42Z</time>
      </trkpt>
      <trkpt lat="45.991059" lon="13.417411">
        <ele>94.869</ele>
        <time>2018-09-05T11:53:43Z</time>
      </trkpt>
      <trkpt lat="45.991053" lon="13.417383">
        <ele>94.804</ele>
        <time>2018-09-05T11:53:44Z</time>
      </trkpt>
      <trkpt lat="45.991048" lon="13.417355">
        <ele>94.824</ele>
        <time>2018-09-05T11:53:45Z</time>
      </trkpt>
      <trkpt lat="45.991045" lon="13.417321">
        <ele>94.808</ele>
        <time>2018-09-05T11:53:46Z</time>
      </trkpt>
      <trkpt lat="45.991084" lon="13.416991">
        <ele>93.890</ele>
        <time>2018-09-05T11:53:55Z</time>
      </trkpt>
      <trkpt lat="45.991199" lon="13.416981">
        <ele>94.342</ele>
        <time>2018-09-05T11:53:59Z</time>
      </trkpt>
      <trkpt lat="45.991577" lon="13.417054">
        <ele>96.248</ele>
        <time>2018-09-05T11:54:15Z</time>
      </trkpt>
      <trkpt lat="45.991810" lon="13.417119">
        <ele>99.174</ele>
        <time>2018-09-05T11:54:30Z</time>
      </trkpt>
      <trkpt lat="45.992028" lon="13.417165">
        <ele>103.491</ele>
        <time>2018-09-05T11:54:46Z</time>
      </trkpt>
      <trkpt lat="45.992200" lon="13.417222">
        <ele>104.492</ele>
        <time>2018-09-05T11:55:00Z</time>
      </trkpt>
      <trkpt lat="45.992547" lon="13.417339">
        <ele>103.956</ele>
        <time>2018-09-05T11:55:15Z</time>
      </trkpt>
      <trkpt lat="45.992959" lon="13.417648">
        <ele>103.927</ele>
        <time>2018-09-05T11:55:32Z</time>
      </trkpt>
      <trkpt lat="45.993411" lon="13.418011">
        <ele>103.446</ele>
        <time>2018-09-05T11:55:47Z</time>
      </trkpt>
      <trkpt lat="45.993770" lon="13.417964">
        <ele>103.988</ele>
        <time>2018-09-05T11:55:58Z</time>
      </trkpt>
      <trkpt lat="45.994113" lon="13.417756">
        <ele>104.416</ele>
        <time>2018-09-05T11:56:10Z</time>
      </trkpt>
      <trkpt lat="45.994465" lon="13.417747">
        <ele>105.408</ele>
        <time>2018-09-05T11:56:24Z</time>
      </trkpt>
      <trkpt lat="45.994922" lon="13.417655">
        <ele>105.468</ele>
        <time>2018-09-05T11:56:39Z</time>
      </trkpt>
      <trkpt lat="45.995309" lon="13.417704">
        <ele>108.210</ele>
        <time>2018-09-05T11:56:55Z</time>
      </trkpt>
      <trkpt lat="45.995581" lon="13.417595">
        <ele>110.626</ele>
        <time>2018-09-05T11:57:08Z</time>
      </trkpt>
      <trkpt lat="45.995935" lon="13.417388">
        <ele>112.152</ele>
        <time>2018-09-05T11:57:24Z</time>
      </trkpt>
      <trkpt lat="45.996053" lon="13.417382">
        <ele>111.679</ele>
        <time>2018-09-05T11:57:27Z</time>
      </trkpt>
      <trkpt lat="45.996146" lon="13.417388">
        <ele>111.180</ele>
        <time>2018-09-05T11:57:29Z</time>
      </trkpt>
      <trkpt lat="45.996191" lon="13.417381">
        <ele>110.624</ele>
        <time>2018-09-05T11:57:30Z</time>
      </trkpt>
      <trkpt lat="45.996238" lon="13.417366">
        <ele>110.665</ele>
        <time>2018-09-05T11:57:31Z</time>
      </trkpt>
      <trkpt lat="45.996816" lon="13.417085">
        <ele>111.195</ele>
        <time>2018-09-05T11:57:47Z</time>
      </trkpt>
      <trkpt lat="45.997446" lon="13.416788">
        <ele>113.549</ele>
        <time>2018-09-05T11:58:07Z</time>
      </trkpt>
      <trkpt lat="45.997862" lon="13.416580">
        <ele>115.523</ele>
        <time>2018-09-05T11:58:22Z</time>
      </trkpt>
      <trkpt lat="45.998353" lon="13.416306">
        <ele>117.908</ele>
        <time>2018-09-05T11:58:40Z</time>
      </trkpt>
      <trkpt lat="45.998685" lon="13.416125">
        <ele>121.243</ele>
        <time>2018-09-05T11:58:57Z</time>
      </trkpt>
      <trkpt lat="45.998937" lon="13.415971">
        <ele>123.665</ele>
        <time>2018-09-05T11:59:13Z</time>
      </trkpt>
      <trkpt lat="45.999277" lon="13.415779">
        <ele>123.641</ele>
        <time>2018-09-05T11:59:28Z</time>
      </trkpt>
      <trkpt lat="45.999661" lon="13.416117">
        <ele>123.177</ele>
        <time>2018-09-05T11:59:41Z</time>
      </trkpt>
      <trkpt lat="46.000129" lon="13.416359">
        <ele>124.654</ele>
        <time>2018-09-05T11:59:56Z</time>
      </trkpt>
      <trkpt lat="46.000592" lon="13.416327">
        <ele>125.545</ele>
        <time>2018-09-05T12:00:12Z</time>
      </trkpt>
      <trkpt lat="46.000732" lon="13.415926">
        <ele>124.639</ele>
        <time>2018-09-05T12:00:20Z</time>
      </trkpt>
      <trkpt lat="46.000757" lon="13.415872">
        <ele>124.660</ele>
        <time>2018-09-05T12:00:21Z</time>
      </trkpt>
      <trkpt lat="46.000787" lon="13.415822">
        <ele>124.623</ele>
        <time>2018-09-05T12:00:22Z</time>
      </trkpt>
      <trkpt lat="46.000821" lon="13.415779">
        <ele>124.683</ele>
        <time>2018-09-05T12:00:23Z</time>
      </trkpt>
      <trkpt lat="46.000859" lon="13.415737">
        <ele>124.611</ele>
        <time>2018-09-05T12:00:24Z</time>
      </trkpt>
      <trkpt lat="46.000898" lon="13.415700">
        <ele>124.608</ele>
        <time>2018-09-05T12:00:25Z</time>
      </trkpt>
      <trkpt lat="46.001459" lon="13.415170">
        <ele>127.086</ele>
        <time>2018-09-05T12:00:42Z</time>
      </trkpt>
      <trkpt lat="46.001876" lon="13.415058">
        <ele>127.918</ele>
        <time>2018-09-05T12:00:57Z</time>
      </trkpt>
      <trkpt lat="46.002184" lon="13.415054">
        <ele>131.314</ele>
        <time>2018-09-05T12:01:13Z</time>
      </trkpt>
      <trkpt lat="46.002442" lon="13.415175">
        <ele>133.220</ele>
        <time>2018-09-05T12:01:28Z</time>
      </trkpt>
      <trkpt lat="46.002877" lon="13.415578">
        <ele>133.267</ele>
        <time>2018-09-05T12:01:41Z</time>
      </trkpt>
      <trkpt lat="46.003084" lon="13.415745">
        <ele>133.748</ele>
        <time>2018-09-05T12:01:52Z</time>
      </trkpt>
      <trkpt lat="46.003115" lon="13.415783">
        <ele>132.882</ele>
        <time>2018-09-05T12:02:05Z</time>
      </trkpt>
      <trkpt lat="46.003114" lon="13.415782">
        <ele>130.813</ele>
        <time>2018-09-05T12:02:34Z</time>
      </trkpt>
      <trkpt lat="46.003148" lon="13.415799">
        <ele>131.313</ele>
        <time>2018-09-05T12:03:10Z</time>
      </trkpt>
      <trkpt lat="46.003164" lon="13.415805">
        <ele>131.343</ele>
        <time>2018-09-05T12:03:12Z</time>
      </trkpt>
      <trkpt lat="46.003312" lon="13.415883">
        <ele>131.807</ele>
        <time>2018-09-05T12:03:23Z</time>
      </trkpt>
      <trkpt lat="46.003566" lon="13.416141">
        <ele>132.308</ele>
        <time>2018-09-05T12:03:35Z</time>
      </trkpt>
      <trkpt lat="46.003813" lon="13.416732">
        <ele>132.825</ele>
        <time>2018-09-05T12:03:51Z</time>
      </trkpt>
      <trkpt lat="46.004153" lon="13.416928">
        <ele>134.237</ele>
        <time>2018-09-05T12:04:04Z</time>
      </trkpt>
      <trkpt lat="46.004479" lon="13.416698">
        <ele>137.673</ele>
        <time>2018-09-05T12:04:18Z</time>
      </trkpt>
      <trkpt lat="46.004484" lon="13.416701">
        <ele>137.139</ele>
        <time>2018-09-05T12:04:29Z</time>
      </trkpt>
      <trkpt lat="46.004498" lon="13.416677">
        <ele>139.016</ele>
        <time>2018-09-05T12:04:48Z</time>
      </trkpt>
      <trkpt lat="46.004603" lon="13.416514">
        <ele>139.017</ele>
        <time>2018-09-05T12:05:05Z</time>
      </trkpt>
      <trkpt lat="46.004987" lon="13.416542">
        <ele>138.051</ele>
        <time>2018-09-05T12:05:17Z</time>
      </trkpt>
      <trkpt lat="46.005275" lon="13.416502">
        <ele>137.112</ele>
        <time>2018-09-05T12:05:25Z</time>
      </trkpt>
      <trkpt lat="46.005329" lon="13.416505">
        <ele>136.643</ele>
        <time>2018-09-05T12:05:26Z</time>
      </trkpt>
      <trkpt lat="46.005388" lon="13.416519">
        <ele>135.664</ele>
        <time>2018-09-05T12:05:27Z</time>
      </trkpt>
      <trkpt lat="46.005454" lon="13.416547">
        <ele>134.710</ele>
        <time>2018-09-05T12:05:28Z</time>
      </trkpt>
      <trkpt lat="46.005520" lon="13.416595">
        <ele>133.708</ele>
        <time>2018-09-05T12:05:29Z</time>
      </trkpt>
      <trkpt lat="46.005584" lon="13.416659">
        <ele>133.248</ele>
        <time>2018-09-05T12:05:30Z</time>
      </trkpt>
      <trkpt lat="46.005646" lon="13.416735">
        <ele>132.890</ele>
        <time>2018-09-05T12:05:31Z</time>
      </trkpt>
      <trkpt lat="46.005704" lon="13.416818">
        <ele>132.396</ele>
        <time>2018-09-05T12:05:32Z</time>
      </trkpt>
      <trkpt lat="46.005759" lon="13.416907">
        <ele>131.892</ele>
        <time>2018-09-05T12:05:33Z</time>
      </trkpt>
      <trkpt lat="46.005808" lon="13.417002">
        <ele>131.829</ele>
        <time>2018-09-05T12:05:34Z</time>
      </trkpt>
      <trkpt lat="46.005954" lon="13.417276">
        <ele>131.390</ele>
        <time>2018-09-05T12:05:37Z</time>
      </trkpt>
      <trkpt lat="46.006006" lon="13.417348">
        <ele>130.894</ele>
        <time>2018-09-05T12:05:38Z</time>
      </trkpt>
      <trkpt lat="46.006575" lon="13.418074">
        <ele>131.875</ele>
        <time>2018-09-05T12:05:51Z</time>
      </trkpt>
      <trkpt lat="46.006836" lon="13.418519">
        <ele>133.793</ele>
        <time>2018-09-05T12:06:06Z</time>
      </trkpt>
      <trkpt lat="46.006994" lon="13.418870">
        <ele>137.165</ele>
        <time>2018-09-05T12:06:22Z</time>
      </trkpt>
      <trkpt lat="46.007097" lon="13.419137">
        <ele>140.021</ele>
        <time>2018-09-05T12:06:37Z</time>
      </trkpt>
      <trkpt lat="46.007183" lon="13.419345">
        <ele>141.908</ele>
        <time>2018-09-05T12:06:50Z</time>
      </trkpt>
      <trkpt lat="46.007270" lon="13.419578">
        <ele>147.743</ele>
        <time>2018-09-05T12:07:05Z</time>
      </trkpt>
      <trkpt lat="46.007277" lon="13.419593">
        <ele>147.745</ele>
        <time>2018-09-05T12:07:06Z</time>
      </trkpt>
      <trkpt lat="46.007285" lon="13.419605">
        <ele>148.171</ele>
        <time>2018-09-05T12:07:07Z</time>
      </trkpt>
      <trkpt lat="46.007320" lon="13.419655">
        <ele>149.657</ele>
        <time>2018-09-05T12:07:11Z</time>
      </trkpt>
      <trkpt lat="46.007315" lon="13.419672">
        <ele>150.174</ele>
        <time>2018-09-05T12:07:12Z</time>
      </trkpt>
      <trkpt lat="46.007305" lon="13.419690">
        <ele>150.585</ele>
        <time>2018-09-05T12:07:13Z</time>
      </trkpt>
      <trkpt lat="46.007296" lon="13.419706">
        <ele>150.599</ele>
        <time>2018-09-05T12:07:14Z</time>
      </trkpt>
      <trkpt lat="46.007288" lon="13.419722">
        <ele>150.510</ele>
        <time>2018-09-05T12:07:15Z</time>
      </trkpt>
      <trkpt lat="46.007269" lon="13.419772">
        <ele>151.097</ele>
        <time>2018-09-05T12:07:18Z</time>
      </trkpt>
      <trkpt lat="46.007267" lon="13.419792">
        <ele>151.023</ele>
        <time>2018-09-05T12:07:19Z</time>
      </trkpt>
      <trkpt lat="46.007269" lon="13.419806">
        <ele>151.525</ele>
        <time>2018-09-05T12:07:20Z</time>
      </trkpt>
      <trkpt lat="46.007276" lon="13.419822">
        <ele>151.008</ele>
        <time>2018-09-05T12:07:21Z</time>
      </trkpt>
      <trkpt lat="46.007285" lon="13.419837">
        <ele>151.513</ele>
        <time>2018-09-05T12:07:22Z</time>
      </trkpt>
      <trkpt lat="46.007296" lon="13.419853">
        <ele>151.535</ele>
        <time>2018-09-05T12:07:23Z</time>
      </trkpt>
      <trkpt lat="46.007571" lon="13.420104">
        <ele>153.461</ele>
        <time>2018-09-05T12:07:42Z</time>
      </trkpt>
      <trkpt lat="46.007889" lon="13.420414">
        <ele>156.377</ele>
        <time>2018-09-05T12:08:03Z</time>
      </trkpt>
      <trkpt lat="46.008163" lon="13.420755">
        <ele>159.714</ele>
        <time>2018-09-05T12:08:23Z</time>
      </trkpt>
      <trkpt lat="46.008400" lon="13.421108">
        <ele>164.555</ele>
        <time>2018-09-05T12:08:43Z</time>
      </trkpt>
      <trkpt lat="46.008598" lon="13.421435">
        <ele>167.459</ele>
        <time>2018-09-05T12:09:02Z</time>
      </trkpt>
      <trkpt lat="46.008672" lon="13.421548">
        <ele>168.320</ele>
        <time>2018-09-05T12:09:09Z</time>
      </trkpt>
      <trkpt lat="46.008672" lon="13.421563">
        <ele>168.863</ele>
        <time>2018-09-05T12:09:10Z</time>
      </trkpt>
      <trkpt lat="46.008670" lon="13.421584">
        <ele>168.344</ele>
        <time>2018-09-05T12:09:11Z</time>
      </trkpt>
      <trkpt lat="46.008668" lon="13.421599">
        <ele>168.318</ele>
        <time>2018-09-05T12:09:12Z</time>
      </trkpt>
      <trkpt lat="46.008663" lon="13.421619">
        <ele>168.308</ele>
        <time>2018-09-05T12:09:13Z</time>
      </trkpt>
      <trkpt lat="46.008657" lon="13.421637">
        <ele>168.390</ele>
        <time>2018-09-05T12:09:14Z</time>
      </trkpt>
      <trkpt lat="46.008653" lon="13.421668">
        <ele>168.832</ele>
        <time>2018-09-05T12:09:16Z</time>
      </trkpt>
      <trkpt lat="46.008621" lon="13.421725">
        <ele>169.398</ele>
        <time>2018-09-05T12:09:29Z</time>
      </trkpt>
      <trkpt lat="46.008596" lon="13.421764">
        <ele>170.234</ele>
        <time>2018-09-05T12:09:48Z</time>
      </trkpt>
      <trkpt lat="46.008595" lon="13.421998">
        <ele>170.261</ele>
        <time>2018-09-05T12:10:03Z</time>
      </trkpt>
      <trkpt lat="46.008722" lon="13.422504">
        <ele>171.752</ele>
        <time>2018-09-05T12:10:18Z</time>
      </trkpt>
      <trkpt lat="46.009068" lon="13.423167">
        <ele>168.396</ele>
        <time>2018-09-05T12:10:32Z</time>
      </trkpt>
      <trkpt lat="46.009133" lon="13.423251">
        <ele>168.337</ele>
        <time>2018-09-05T12:10:34Z</time>
      </trkpt>
      <trkpt lat="46.009161" lon="13.423297">
        <ele>167.874</ele>
        <time>2018-09-05T12:10:35Z</time>
      </trkpt>
      <trkpt lat="46.009184" lon="13.423347">
        <ele>167.856</ele>
        <time>2018-09-05T12:10:36Z</time>
      </trkpt>
      <trkpt lat="46.009201" lon="13.423401">
        <ele>167.421</ele>
        <time>2018-09-05T12:10:37Z</time>
      </trkpt>
      <trkpt lat="46.009215" lon="13.423458">
        <ele>167.408</ele>
        <time>2018-09-05T12:10:38Z</time>
      </trkpt>
      <trkpt lat="46.009224" lon="13.423516">
        <ele>167.491</ele>
        <time>2018-09-05T12:10:39Z</time>
      </trkpt>
      <trkpt lat="46.009240" lon="13.423634">
        <ele>166.963</ele>
        <time>2018-09-05T12:10:41Z</time>
      </trkpt>
      <trkpt lat="46.009239" lon="13.423693">
        <ele>166.989</ele>
        <time>2018-09-05T12:10:42Z</time>
      </trkpt>
      <trkpt lat="46.009233" lon="13.423753">
        <ele>166.495</ele>
        <time>2018-09-05T12:10:43Z</time>
      </trkpt>
      <trkpt lat="46.009220" lon="13.423811">
        <ele>166.932</ele>
        <time>2018-09-05T12:10:44Z</time>
      </trkpt>
      <trkpt lat="46.009203" lon="13.423869">
        <ele>166.473</ele>
        <time>2018-09-05T12:10:45Z</time>
      </trkpt>
      <trkpt lat="46.009181" lon="13.423919">
        <ele>166.477</ele>
        <time>2018-09-05T12:10:46Z</time>
      </trkpt>
      <trkpt lat="46.009150" lon="13.423959">
        <ele>166.438</ele>
        <time>2018-09-05T12:10:47Z</time>
      </trkpt>
      <trkpt lat="46.009110" lon="13.423993">
        <ele>166.427</ele>
        <time>2018-09-05T12:10:48Z</time>
      </trkpt>
      <trkpt lat="46.009071" lon="13.424019">
        <ele>166.468</ele>
        <time>2018-09-05T12:10:49Z</time>
      </trkpt>
      <trkpt lat="46.009026" lon="13.424044">
        <ele>166.414</ele>
        <time>2018-09-05T12:10:50Z</time>
      </trkpt>
      <trkpt lat="46.008897" lon="13.424128">
        <ele>165.908</ele>
        <time>2018-09-05T12:10:53Z</time>
      </trkpt>
      <trkpt lat="46.008747" lon="13.424385">
        <ele>167.426</ele>
        <time>2018-09-05T12:11:02Z</time>
      </trkpt>
      <trkpt lat="46.008749" lon="13.424406">
        <ele>168.398</ele>
        <time>2018-09-05T12:11:03Z</time>
      </trkpt>
      <trkpt lat="46.008750" lon="13.424426">
        <ele>167.834</ele>
        <time>2018-09-05T12:11:04Z</time>
      </trkpt>
      <trkpt lat="46.008749" lon="13.424444">
        <ele>168.350</ele>
        <time>2018-09-05T12:11:05Z</time>
      </trkpt>
      <trkpt lat="46.008765" lon="13.424579">
        <ele>170.267</ele>
        <time>2018-09-05T12:11:14Z</time>
      </trkpt>
      <trkpt lat="46.008769" lon="13.424614">
        <ele>170.748</ele>
        <time>2018-09-05T12:11:17Z</time>
      </trkpt>
      <trkpt lat="46.008743" lon="13.424618">
        <ele>170.222</ele>
        <time>2018-09-05T12:11:30Z</time>
      </trkpt>
      <trkpt lat="46.008747" lon="13.424575">
        <ele>170.763</ele>
        <time>2018-09-05T12:11:33Z</time>
      </trkpt>
      <trkpt lat="46.008750" lon="13.424541">
        <ele>170.224</ele>
        <time>2018-09-05T12:11:34Z</time>
      </trkpt>
      <trkpt lat="46.008828" lon="13.424228">
        <ele>168.804</ele>
        <time>2018-09-05T12:11:43Z</time>
      </trkpt>
      <trkpt lat="46.008810" lon="13.424217">
        <ele>168.314</ele>
        <time>2018-09-05T12:11:44Z</time>
      </trkpt>
      <trkpt lat="46.008783" lon="13.424225">
        <ele>167.808</ele>
        <time>2018-09-05T12:11:45Z</time>
      </trkpt>
      <trkpt lat="46.008763" lon="13.424238">
        <ele>167.876</ele>
        <time>2018-09-05T12:11:46Z</time>
      </trkpt>
      <trkpt lat="46.008740" lon="13.424261">
        <ele>167.458</ele>
        <time>2018-09-05T12:11:47Z</time>
      </trkpt>
      <trkpt lat="46.008718" lon="13.424294">
        <ele>167.474</ele>
        <time>2018-09-05T12:11:48Z</time>
      </trkpt>
      <trkpt lat="46.008702" lon="13.424341">
        <ele>166.940</ele>
        <time>2018-09-05T12:11:49Z</time>
      </trkpt>
      <trkpt lat="46.008697" lon="13.424374">
        <ele>166.917</ele>
        <time>2018-09-05T12:11:50Z</time>
      </trkpt>
      <trkpt lat="46.008695" lon="13.424418">
        <ele>166.978</ele>
        <time>2018-09-05T12:11:51Z</time>
      </trkpt>
      <trkpt lat="46.008692" lon="13.424444">
        <ele>166.442</ele>
        <time>2018-09-05T12:11:52Z</time>
      </trkpt>
      <trkpt lat="46.008690" lon="13.424474">
        <ele>166.423</ele>
        <time>2018-09-05T12:11:53Z</time>
      </trkpt>
      <trkpt lat="46.008745" lon="13.424874">
        <ele>166.495</ele>
        <time>2018-09-05T12:12:05Z</time>
      </trkpt>
      <trkpt lat="46.008866" lon="13.425086">
        <ele>164.049</ele>
        <time>2018-09-05T12:12:11Z</time>
      </trkpt>
      <trkpt lat="46.008898" lon="13.425119">
        <ele>164.023</ele>
        <time>2018-09-05T12:12:12Z</time>
      </trkpt>
      <trkpt lat="46.008941" lon="13.425155">
        <ele>163.508</ele>
        <time>2018-09-05T12:12:13Z</time>
      </trkpt>
      <trkpt lat="46.009013" lon="13.425220">
        <ele>162.643</ele>
        <time>2018-09-05T12:12:15Z</time>
      </trkpt>
      <trkpt lat="46.009045" lon="13.425267">
        <ele>162.145</ele>
        <time>2018-09-05T12:12:16Z</time>
      </trkpt>
      <trkpt lat="46.009066" lon="13.425323">
        <ele>162.611</ele>
        <time>2018-09-05T12:12:17Z</time>
      </trkpt>
      <trkpt lat="46.009080" lon="13.425386">
        <ele>162.197</ele>
        <time>2018-09-05T12:12:18Z</time>
      </trkpt>
      <trkpt lat="46.009092" lon="13.425446">
        <ele>162.194</ele>
        <time>2018-09-05T12:12:19Z</time>
      </trkpt>
      <trkpt lat="46.009163" lon="13.425707">
        <ele>161.175</ele>
        <time>2018-09-05T12:12:23Z</time>
      </trkpt>
      <trkpt lat="46.009329" lon="13.426343">
        <ele>156.389</ele>
        <time>2018-09-05T12:12:32Z</time>
      </trkpt>
      <trkpt lat="46.009358" lon="13.426506">
        <ele>154.430</ele>
        <time>2018-09-05T12:12:34Z</time>
      </trkpt>
      <trkpt lat="46.009387" lon="13.426576">
        <ele>153.411</ele>
        <time>2018-09-05T12:12:35Z</time>
      </trkpt>
      <trkpt lat="46.009437" lon="13.426627">
        <ele>152.521</ele>
        <time>2018-09-05T12:12:36Z</time>
      </trkpt>
      <trkpt lat="46.009499" lon="13.426646">
        <ele>152.003</ele>
        <time>2018-09-05T12:12:37Z</time>
      </trkpt>
      <trkpt lat="46.009558" lon="13.426646">
        <ele>151.008</ele>
        <time>2018-09-05T12:12:38Z</time>
      </trkpt>
      <trkpt lat="46.009612" lon="13.426648">
        <ele>150.575</ele>
        <time>2018-09-05T12:12:39Z</time>
      </trkpt>
      <trkpt lat="46.009656" lon="13.426668">
        <ele>149.657</ele>
        <time>2018-09-05T12:12:40Z</time>
      </trkpt>
      <trkpt lat="46.009687" lon="13.426709">
        <ele>149.623</ele>
        <time>2018-09-05T12:12:41Z</time>
      </trkpt>
      <trkpt lat="46.009711" lon="13.426762">
        <ele>149.179</ele>
        <time>2018-09-05T12:12:42Z</time>
      </trkpt>
      <trkpt lat="46.009729" lon="13.426821">
        <ele>148.626</ele>
        <time>2018-09-05T12:12:43Z</time>
      </trkpt>
      <trkpt lat="46.009744" lon="13.426881">
        <ele>148.147</ele>
        <time>2018-09-05T12:12:44Z</time>
      </trkpt>
      <trkpt lat="46.009756" lon="13.426945">
        <ele>148.171</ele>
        <time>2018-09-05T12:12:45Z</time>
      </trkpt>
      <trkpt lat="46.009762" lon="13.427004">
        <ele>147.772</ele>
        <time>2018-09-05T12:12:46Z</time>
      </trkpt>
      <trkpt lat="46.009762" lon="13.427065">
        <ele>147.278</ele>
        <time>2018-09-05T12:12:47Z</time>
      </trkpt>
      <trkpt lat="46.009619" lon="13.427930">
        <ele>140.033</ele>
        <time>2018-09-05T12:12:59Z</time>
      </trkpt>
      <trkpt lat="46.009618" lon="13.428002">
        <ele>139.526</ele>
        <time>2018-09-05T12:13:00Z</time>
      </trkpt>
      <trkpt lat="46.009623" lon="13.428065">
        <ele>139.008</ele>
        <time>2018-09-05T12:13:01Z</time>
      </trkpt>
      <trkpt lat="46.009648" lon="13.428169">
        <ele>138.021</ele>
        <time>2018-09-05T12:13:03Z</time>
      </trkpt>
      <trkpt lat="46.009675" lon="13.428213">
        <ele>137.653</ele>
        <time>2018-09-05T12:13:04Z</time>
      </trkpt>
      <trkpt lat="46.009707" lon="13.428252">
        <ele>137.199</ele>
        <time>2018-09-05T12:13:05Z</time>
      </trkpt>
      <trkpt lat="46.009781" lon="13.428373">
        <ele>135.685</ele>
        <time>2018-09-05T12:13:08Z</time>
      </trkpt>
      <trkpt lat="46.009788" lon="13.428427">
        <ele>135.652</ele>
        <time>2018-09-05T12:13:09Z</time>
      </trkpt>
      <trkpt lat="46.009786" lon="13.428476">
        <ele>134.753</ele>
        <time>2018-09-05T12:13:10Z</time>
      </trkpt>
      <trkpt lat="46.009781" lon="13.428520">
        <ele>134.227</ele>
        <time>2018-09-05T12:13:11Z</time>
      </trkpt>
      <trkpt lat="46.009774" lon="13.428560">
        <ele>133.728</ele>
        <time>2018-09-05T12:13:12Z</time>
      </trkpt>
      <trkpt lat="46.009733" lon="13.428737">
        <ele>132.825</ele>
        <time>2018-09-05T12:13:17Z</time>
      </trkpt>
      <trkpt lat="46.009726" lon="13.428761">
        <ele>132.326</ele>
        <time>2018-09-05T12:13:18Z</time>
      </trkpt>
      <trkpt lat="46.009664" lon="13.429012">
        <ele>128.908</ele>
        <time>2018-09-05T12:13:32Z</time>
      </trkpt>
      <trkpt lat="46.009637" lon="13.429008">
        <ele>123.608</ele>
        <time>2018-09-05T12:14:08Z</time>
      </trkpt>
      <trkpt lat="46.009629" lon="13.429044">
        <ele>123.636</ele>
        <time>2018-09-05T12:14:44Z</time>
      </trkpt>
      <trkpt lat="46.009457" lon="13.429183">
        <ele>120.758</ele>
        <time>2018-09-05T12:14:50Z</time>
      </trkpt>
      <trkpt lat="46.009426" lon="13.429225">
        <ele>119.864</ele>
        <time>2018-09-05T12:14:51Z</time>
      </trkpt>
      <trkpt lat="46.009415" lon="13.429286">
        <ele>118.860</ele>
        <time>2018-09-05T12:14:52Z</time>
      </trkpt>
      <trkpt lat="46.009429" lon="13.429360">
        <ele>117.487</ele>
        <time>2018-09-05T12:14:53Z</time>
      </trkpt>
      <trkpt lat="46.009464" lon="13.429436">
        <ele>116.498</ele>
        <time>2018-09-05T12:14:54Z</time>
      </trkpt>
      <trkpt lat="46.009501" lon="13.429518">
        <ele>115.542</ele>
        <time>2018-09-05T12:14:55Z</time>
      </trkpt>
      <trkpt lat="46.009534" lon="13.429618">
        <ele>114.533</ele>
        <time>2018-09-05T12:14:56Z</time>
      </trkpt>
      <trkpt lat="46.009556" lon="13.429734">
        <ele>113.578</ele>
        <time>2018-09-05T12:14:57Z</time>
      </trkpt>
      <trkpt lat="46.009565" lon="13.429860">
        <ele>112.633</ele>
        <time>2018-09-05T12:14:58Z</time>
      </trkpt>
      <trkpt lat="46.009567" lon="13.429987">
        <ele>111.126</ele>
        <time>2018-09-05T12:14:59Z</time>
      </trkpt>
      <trkpt lat="46.009505" lon="13.430866">
        <ele>105.408</ele>
        <time>2018-09-05T12:15:06Z</time>
      </trkpt>
      <trkpt lat="46.009474" lon="13.430964">
        <ele>104.921</ele>
        <time>2018-09-05T12:15:07Z</time>
      </trkpt>
      <trkpt lat="46.009438" lon="13.431051">
        <ele>103.983</ele>
        <time>2018-09-05T12:15:08Z</time>
      </trkpt>
      <trkpt lat="46.009405" lon="13.431123">
        <ele>103.439</ele>
        <time>2018-09-05T12:15:09Z</time>
      </trkpt>
      <trkpt lat="46.009388" lon="13.431186">
        <ele>102.565</ele>
        <time>2018-09-05T12:15:10Z</time>
      </trkpt>
      <trkpt lat="46.009394" lon="13.431243">
        <ele>102.092</ele>
        <time>2018-09-05T12:15:11Z</time>
      </trkpt>
      <trkpt lat="46.009424" lon="13.431278">
        <ele>101.563</ele>
        <time>2018-09-05T12:15:12Z</time>
      </trkpt>
      <trkpt lat="46.009459" lon="13.431295">
        <ele>101.557</ele>
        <time>2018-09-05T12:15:13Z</time>
      </trkpt>
      <trkpt lat="46.009508" lon="13.431310">
        <ele>101.088</ele>
        <time>2018-09-05T12:15:14Z</time>
      </trkpt>
      <trkpt lat="46.009560" lon="13.431328">
        <ele>100.664</ele>
        <time>2018-09-05T12:15:15Z</time>
      </trkpt>
      <trkpt lat="46.009604" lon="13.431345">
        <ele>100.606</ele>
        <time>2018-09-05T12:15:16Z</time>
      </trkpt>
      <trkpt lat="46.009924" lon="13.431452">
        <ele>99.116</ele>
        <time>2018-09-05T12:15:22Z</time>
      </trkpt>
      <trkpt lat="46.010218" lon="13.431553">
        <ele>98.608</ele>
        <time>2018-09-05T12:15:27Z</time>
      </trkpt>
      <trkpt lat="46.010270" lon="13.431594">
        <ele>98.640</ele>
        <time>2018-09-05T12:15:28Z</time>
      </trkpt>
      <trkpt lat="46.010310" lon="13.431646">
        <ele>98.632</ele>
        <time>2018-09-05T12:15:29Z</time>
      </trkpt>
      <trkpt lat="46.010340" lon="13.431715">
        <ele>98.168</ele>
        <time>2018-09-05T12:15:30Z</time>
      </trkpt>
      <trkpt lat="46.010358" lon="13.431796">
        <ele>98.184</ele>
        <time>2018-09-05T12:15:31Z</time>
      </trkpt>
      <trkpt lat="46.010368" lon="13.431881">
        <ele>98.181</ele>
        <time>2018-09-05T12:15:32Z</time>
      </trkpt>
      <trkpt lat="46.010375" lon="13.431963">
        <ele>98.162</ele>
        <time>2018-09-05T12:15:33Z</time>
      </trkpt>
      <trkpt lat="46.010374" lon="13.432047">
        <ele>98.696</ele>
        <time>2018-09-05T12:15:34Z</time>
      </trkpt>
      <trkpt lat="46.010384" lon="13.433555">
        <ele>94.357</ele>
        <time>2018-09-05T12:15:51Z</time>
      </trkpt>
      <trkpt lat="46.010395" lon="13.433819">
        <ele>93.825</ele>
        <time>2018-09-05T12:15:54Z</time>
      </trkpt>
      <trkpt lat="46.010440" lon="13.433885">
        <ele>93.826</ele>
        <time>2018-09-05T12:15:55Z</time>
      </trkpt>
      <trkpt lat="46.010491" lon="13.433897">
        <ele>94.308</ele>
        <time>2018-09-05T12:15:56Z</time>
      </trkpt>
      <trkpt lat="46.010543" lon="13.433876">
        <ele>94.308</ele>
        <time>2018-09-05T12:15:57Z</time>
      </trkpt>
      <trkpt lat="46.010592" lon="13.433844">
        <ele>94.316</ele>
        <time>2018-09-05T12:15:58Z</time>
      </trkpt>
      <trkpt lat="46.010641" lon="13.433816">
        <ele>94.838</ele>
        <time>2018-09-05T12:15:59Z</time>
      </trkpt>
      <trkpt lat="46.011138" lon="13.433559">
        <ele>97.254</ele>
        <time>2018-09-05T12:16:13Z</time>
      </trkpt>
      <trkpt lat="46.011586" lon="13.433265">
        <ele>100.610</ele>
        <time>2018-09-05T12:16:31Z</time>
      </trkpt>
      <trkpt lat="46.012094" lon="13.432860">
        <ele>103.467</ele>
        <time>2018-09-05T12:16:52Z</time>
      </trkpt>
      <trkpt lat="46.012442" lon="13.432332">
        <ele>103.418</ele>
        <time>2018-09-05T12:17:09Z</time>
      </trkpt>
      <trkpt lat="46.012688" lon="13.432108">
        <ele>105.412</ele>
        <time>2018-09-05T12:17:18Z</time>
      </trkpt>
      <trkpt lat="46.012721" lon="13.432126">
        <ele>105.493</ele>
        <time>2018-09-05T12:17:19Z</time>
      </trkpt>
      <trkpt lat="46.012748" lon="13.432154">
        <ele>105.499</ele>
        <time>2018-09-05T12:17:20Z</time>
      </trkpt>
      <trkpt lat="46.012770" lon="13.432187">
        <ele>105.407</ele>
        <time>2018-09-05T12:17:21Z</time>
      </trkpt>
      <trkpt lat="46.012793" lon="13.432222">
        <ele>105.427</ele>
        <time>2018-09-05T12:17:22Z</time>
      </trkpt>
      <trkpt lat="46.012816" lon="13.432260">
        <ele>104.908</ele>
        <time>2018-09-05T12:17:23Z</time>
      </trkpt>
      <trkpt lat="46.012839" lon="13.432302">
        <ele>104.933</ele>
        <time>2018-09-05T12:17:24Z</time>
      </trkpt>
      <trkpt lat="46.013075" lon="13.432732">
        <ele>104.965</ele>
        <time>2018-09-05T12:17:33Z</time>
      </trkpt>
      <trkpt lat="46.013817" lon="13.433521">
        <ele>101.541</ele>
        <time>2018-09-05T12:17:50Z</time>
      </trkpt>
      <trkpt lat="46.014639" lon="13.434348">
        <ele>98.127</ele>
        <time>2018-09-05T12:18:03Z</time>
      </trkpt>
      <trkpt lat="46.015183" lon="13.435053">
        <ele>98.644</ele>
        <time>2018-09-05T12:18:17Z</time>
      </trkpt>
      <trkpt lat="46.015441" lon="13.435403">
        <ele>99.135</ele>
        <time>2018-09-05T12:18:25Z</time>
      </trkpt>
      <trkpt lat="46.015481" lon="13.435439">
        <ele>99.629</ele>
        <time>2018-09-05T12:18:26Z</time>
      </trkpt>
      <trkpt lat="46.015524" lon="13.435455">
        <ele>99.640</ele>
        <time>2018-09-05T12:18:27Z</time>
      </trkpt>
      <trkpt lat="46.015568" lon="13.435455">
        <ele>99.681</ele>
        <time>2018-09-05T12:18:28Z</time>
      </trkpt>
      <trkpt lat="46.015609" lon="13.435441">
        <ele>100.161</ele>
        <time>2018-09-05T12:18:29Z</time>
      </trkpt>
      <trkpt lat="46.015647" lon="13.435419">
        <ele>100.117</ele>
        <time>2018-09-05T12:18:30Z</time>
      </trkpt>
      <trkpt lat="46.015679" lon="13.435398">
        <ele>100.108</ele>
        <time>2018-09-05T12:18:31Z</time>
      </trkpt>
      <trkpt lat="46.016087" lon="13.435227">
        <ele>103.022</ele>
        <time>2018-09-05T12:18:46Z</time>
      </trkpt>
      <trkpt lat="46.016508" lon="13.435168">
        <ele>106.864</ele>
        <time>2018-09-05T12:19:04Z</time>
      </trkpt>
      <trkpt lat="46.016858" lon="13.435174">
        <ele>109.720</ele>
        <time>2018-09-05T12:19:23Z</time>
      </trkpt>
      <trkpt lat="46.017086" lon="13.435189">
        <ele>112.686</ele>
        <time>2018-09-05T12:19:39Z</time>
      </trkpt>
      <trkpt lat="46.017287" lon="13.435120">
        <ele>115.543</ele>
        <time>2018-09-05T12:19:53Z</time>
      </trkpt>
      <trkpt lat="46.017551" lon="13.435058">
        <ele>118.824</ele>
        <time>2018-09-05T12:20:09Z</time>
      </trkpt>
      <trkpt lat="46.017792" lon="13.435007">
        <ele>121.268</ele>
        <time>2018-09-05T12:20:23Z</time>
      </trkpt>
      <trkpt lat="46.018040" lon="13.434922">
        <ele>122.759</ele>
        <time>2018-09-05T12:20:39Z</time>
      </trkpt>
      <trkpt lat="46.018229" lon="13.434881">
        <ele>124.695</ele>
        <time>2018-09-05T12:20:51Z</time>
      </trkpt>
      <trkpt lat="46.018378" lon="13.434815">
        <ele>126.049</ele>
        <time>2018-09-05T12:21:01Z</time>
      </trkpt>
      <trkpt lat="46.018472" lon="13.434804">
        <ele>127.523</ele>
        <time>2018-09-05T12:21:07Z</time>
      </trkpt>
      <trkpt lat="46.018485" lon="13.434795">
        <ele>127.908</ele>
        <time>2018-09-05T12:21:08Z</time>
      </trkpt>
      <trkpt lat="46.018495" lon="13.434784">
        <ele>127.963</ele>
        <time>2018-09-05T12:21:09Z</time>
      </trkpt>
      <trkpt lat="46.018508" lon="13.434773">
        <ele>128.455</ele>
        <time>2018-09-05T12:21:10Z</time>
      </trkpt>
      <trkpt lat="46.018521" lon="13.434764">
        <ele>128.461</ele>
        <time>2018-09-05T12:21:11Z</time>
      </trkpt>
      <trkpt lat="46.018764" lon="13.434680">
        <ele>132.397</ele>
        <time>2018-09-05T12:21:28Z</time>
      </trkpt>
      <trkpt lat="46.019030" lon="13.434485">
        <ele>134.764</ele>
        <time>2018-09-05T12:21:47Z</time>
      </trkpt>
      <trkpt lat="46.019277" lon="13.434282">
        <ele>136.185</ele>
        <time>2018-09-05T12:22:04Z</time>
      </trkpt>
      <trkpt lat="46.019586" lon="13.434178">
        <ele>138.559</ele>
        <time>2018-09-05T12:22:19Z</time>
      </trkpt>
      <trkpt lat="46.019989" lon="13.434013">
        <ele>141.490</ele>
        <time>2018-09-05T12:22:37Z</time>
      </trkpt>
      <trkpt lat="46.020364" lon="13.433792">
        <ele>144.355</ele>
        <time>2018-09-05T12:22:55Z</time>
      </trkpt>
      <trkpt lat="46.020618" lon="13.433516">
        <ele>147.707</ele>
        <time>2018-09-05T12:23:11Z</time>
      </trkpt>
      <trkpt lat="46.020755" lon="13.433379">
        <ele>150.117</ele>
        <time>2018-09-05T12:23:22Z</time>
      </trkpt>
      <trkpt lat="46.020772" lon="13.433372">
        <ele>150.108</ele>
        <time>2018-09-05T12:23:23Z</time>
      </trkpt>
      <trkpt lat="46.020786" lon="13.433363">
        <ele>150.569</ele>
        <time>2018-09-05T12:23:24Z</time>
      </trkpt>
      <trkpt lat="46.020983" lon="13.433202">
        <ele>151.021</ele>
        <time>2018-09-05T12:23:39Z</time>
      </trkpt>
      <trkpt lat="46.020991" lon="13.433195">
        <ele>151.027</ele>
        <time>2018-09-05T12:23:55Z</time>
      </trkpt>
      <trkpt lat="46.021006" lon="13.433184">
        <ele>152.053</ele>
        <time>2018-09-05T12:24:19Z</time>
      </trkpt>
      <trkpt lat="46.021018" lon="13.433177">
        <ele>152.580</ele>
        <time>2018-09-05T12:24:20Z</time>
      </trkpt>
      <trkpt lat="46.021030" lon="13.433166">
        <ele>152.521</ele>
        <time>2018-09-05T12:24:21Z</time>
      </trkpt>
      <trkpt lat="46.021043" lon="13.433152">
        <ele>152.995</ele>
        <time>2018-09-05T12:24:22Z</time>
      </trkpt>
      <trkpt lat="46.021057" lon="13.433138">
        <ele>152.966</ele>
        <time>2018-09-05T12:24:23Z</time>
      </trkpt>
      <trkpt lat="46.021406" lon="13.432826">
        <ele>155.344</ele>
        <time>2018-09-05T12:24:44Z</time>
      </trkpt>
      <trkpt lat="46.021554" lon="13.432632">
        <ele>153.405</ele>
        <time>2018-09-05T12:24:51Z</time>
      </trkpt>
      <trkpt lat="46.021598" lon="13.432592">
        <ele>152.515</ele>
        <time>2018-09-05T12:24:52Z</time>
      </trkpt>
      <trkpt lat="46.021647" lon="13.432557">
        <ele>152.008</ele>
        <time>2018-09-05T12:24:53Z</time>
      </trkpt>
      <trkpt lat="46.021706" lon="13.432527">
        <ele>151.598</ele>
        <time>2018-09-05T12:24:54Z</time>
      </trkpt>
      <trkpt lat="46.021767" lon="13.432506">
        <ele>151.070</ele>
        <time>2018-09-05T12:24:55Z</time>
      </trkpt>
      <trkpt lat="46.021833" lon="13.432488">
        <ele>151.086</ele>
        <time>2018-09-05T12:24:56Z</time>
      </trkpt>
      <trkpt lat="46.021895" lon="13.432477">
        <ele>151.092</ele>
        <time>2018-09-05T12:24:57Z</time>
      </trkpt>
      <trkpt lat="46.021960" lon="13.432471">
        <ele>151.089</ele>
        <time>2018-09-05T12:24:58Z</time>
      </trkpt>
      <trkpt lat="46.022266" lon="13.432444">
        <ele>153.490</ele>
        <time>2018-09-05T12:25:07Z</time>
      </trkpt>
      <trkpt lat="46.022571" lon="13.432422">
        <ele>155.874</ele>
        <time>2018-09-05T12:25:22Z</time>
      </trkpt>
      <trkpt lat="46.023080" lon="13.432541">
        <ele>154.925</ele>
        <time>2018-09-05T12:25:37Z</time>
      </trkpt>
      <trkpt lat="46.023178" lon="13.432540">
        <ele>155.347</ele>
        <time>2018-09-05T12:25:39Z</time>
      </trkpt>
      <trkpt lat="46.023220" lon="13.432529">
        <ele>155.329</ele>
        <time>2018-09-05T12:25:40Z</time>
      </trkpt>
      <trkpt lat="46.023254" lon="13.432512">
        <ele>155.321</ele>
        <time>2018-09-05T12:25:41Z</time>
      </trkpt>
      <trkpt lat="46.023281" lon="13.432486">
        <ele>155.308</ele>
        <time>2018-09-05T12:25:42Z</time>
      </trkpt>
      <trkpt lat="46.023296" lon="13.432455">
        <ele>155.818</ele>
        <time>2018-09-05T12:25:43Z</time>
      </trkpt>
      <trkpt lat="46.023302" lon="13.432423">
        <ele>155.810</ele>
        <time>2018-09-05T12:25:44Z</time>
      </trkpt>
      <trkpt lat="46.023301" lon="13.432397">
        <ele>155.816</ele>
        <time>2018-09-05T12:25:45Z</time>
      </trkpt>
      <trkpt lat="46.023301" lon="13.432370">
        <ele>155.862</ele>
        <time>2018-09-05T12:25:46Z</time>
      </trkpt>
      <trkpt lat="46.023295" lon="13.432346">
        <ele>156.329</ele>
        <time>2018-09-05T12:25:47Z</time>
      </trkpt>
      <trkpt lat="46.023283" lon="13.432324">
        <ele>156.390</ele>
        <time>2018-09-05T12:25:48Z</time>
      </trkpt>
      <trkpt lat="46.023161" lon="13.432063">
        <ele>159.294</ele>
        <time>2018-09-05T12:26:02Z</time>
      </trkpt>
      <trkpt lat="46.023127" lon="13.431962">
        <ele>161.185</ele>
        <time>2018-09-05T12:26:08Z</time>
      </trkpt>
      <trkpt lat="46.023129" lon="13.431644">
        <ele>166.481</ele>
        <time>2018-09-05T12:26:26Z</time>
      </trkpt>
      <trkpt lat="46.023038" lon="13.431317">
        <ele>167.461</ele>
        <time>2018-09-05T12:26:41Z</time>
      </trkpt>
      <trkpt lat="46.022893" lon="13.431092">
        <ele>165.017</ele>
        <time>2018-09-05T12:26:52Z</time>
      </trkpt>
      <trkpt lat="46.022899" lon="13.431064">
        <ele>164.508</ele>
        <time>2018-09-05T12:26:53Z</time>
      </trkpt>
      <trkpt lat="46.022911" lon="13.431036">
        <ele>164.012</ele>
        <time>2018-09-05T12:26:54Z</time>
      </trkpt>
      <trkpt lat="46.023136" lon="13.430467">
        <ele>160.274</ele>
        <time>2018-09-05T12:27:08Z</time>
      </trkpt>
      <trkpt lat="46.023239" lon="13.430204">
        <ele>159.250</ele>
        <time>2018-09-05T12:27:12Z</time>
      </trkpt>
      <trkpt lat="46.023260" lon="13.430135">
        <ele>159.226</ele>
        <time>2018-09-05T12:27:13Z</time>
      </trkpt>
      <trkpt lat="46.023276" lon="13.430063">
        <ele>158.723</ele>
        <time>2018-09-05T12:27:14Z</time>
      </trkpt>
      <trkpt lat="46.023286" lon="13.430002">
        <ele>158.724</ele>
        <time>2018-09-05T12:27:15Z</time>
      </trkpt>
      <trkpt lat="46.023294" lon="13.429939">
        <ele>158.728</ele>
        <time>2018-09-05T12:27:16Z</time>
      </trkpt>
      <trkpt lat="46.023294" lon="13.429310">
        <ele>157.769</ele>
        <time>2018-09-05T12:27:29Z</time>
      </trkpt>
      <trkpt lat="46.023495" lon="13.428817">
        <ele>158.238</ele>
        <time>2018-09-05T12:27:42Z</time>
      </trkpt>
      <trkpt lat="46.023624" lon="13.428806">
        <ele>157.770</ele>
        <time>2018-09-05T12:27:45Z</time>
      </trkpt>
      <trkpt lat="46.023972" lon="13.428869">
        <ele>159.717</ele>
        <time>2018-09-05T12:27:55Z</time>
      </trkpt>
      <trkpt lat="46.024163" lon="13.428914">
        <ele>163.008</ele>
        <time>2018-09-05T12:28:08Z</time>
      </trkpt>
      <trkpt lat="46.024361" lon="13.428785">
        <ele>166.477</ele>
        <time>2018-09-05T12:28:25Z</time>
      </trkpt>
      <trkpt lat="46.024538" lon="13.428567">
        <ele>165.939</ele>
        <time>2018-09-05T12:28:37Z</time>
      </trkpt>
      <trkpt lat="46.024881" lon="13.428273">
        <ele>165.465</ele>
        <time>2018-09-05T12:28:53Z</time>
      </trkpt>
      <trkpt lat="46.025187" lon="13.428332">
        <ele>165.441</ele>
        <time>2018-09-05T12:29:04Z</time>
      </trkpt>
      <trkpt lat="46.025656" lon="13.428081">
        <ele>165.458</ele>
        <time>2018-09-05T12:29:18Z</time>
      </trkpt>
      <trkpt lat="46.026103" lon="13.427986">
        <ele>165.439</ele>
        <time>2018-09-05T12:29:32Z</time>
      </trkpt>
      <trkpt lat="46.026517" lon="13.428265">
        <ele>163.093</ele>
        <time>2018-09-05T12:29:46Z</time>
      </trkpt>
      <trkpt lat="46.026623" lon="13.428336">
        <ele>162.124</ele>
        <time>2018-09-05T12:29:49Z</time>
      </trkpt>
      <trkpt lat="46.026800" lon="13.428496">
        <ele>161.188</ele>
        <time>2018-09-05T12:29:58Z</time>
      </trkpt>
      <trkpt lat="46.026809" lon="13.428502">
        <ele>161.624</ele>
        <time>2018-09-05T12:30:01Z</time>
      </trkpt>
      <trkpt lat="46.026821" lon="13.428506">
        <ele>161.126</ele>
        <time>2018-09-05T12:30:02Z</time>
      </trkpt>
      <trkpt lat="46.027172" lon="13.428673">
        <ele>158.708</ele>
        <time>2018-09-05T12:30:15Z</time>
      </trkpt>
      <trkpt lat="46.027775" lon="13.428699">
        <ele>156.342</ele>
        <time>2018-09-05T12:30:31Z</time>
      </trkpt>
      <trkpt lat="46.027827" lon="13.428679">
        <ele>155.824</ele>
        <time>2018-09-05T12:30:32Z</time>
      </trkpt>
      <trkpt lat="46.028334" lon="13.428559">
        <ele>153.420</ele>
        <time>2018-09-05T12:30:40Z</time>
      </trkpt>
      <trkpt lat="46.028594" lon="13.428633">
        <ele>152.566</ele>
        <time>2018-09-05T12:30:44Z</time>
      </trkpt>
      <trkpt lat="46.028655" lon="13.428678">
        <ele>152.543</ele>
        <time>2018-09-05T12:30:45Z</time>
      </trkpt>
      <trkpt lat="46.028811" lon="13.428819">
        <ele>152.944</ele>
        <time>2018-09-05T12:30:48Z</time>
      </trkpt>
      <trkpt lat="46.028862" lon="13.428860">
        <ele>152.928</ele>
        <time>2018-09-05T12:30:49Z</time>
      </trkpt>
      <trkpt lat="46.029393" lon="13.429209">
        <ele>154.489</ele>
        <time>2018-09-05T12:31:03Z</time>
      </trkpt>
      <trkpt lat="46.029697" lon="13.429234">
        <ele>153.484</ele>
        <time>2018-09-05T12:31:11Z</time>
      </trkpt>
      <trkpt lat="46.029739" lon="13.429255">
        <ele>153.407</ele>
        <time>2018-09-05T12:31:12Z</time>
      </trkpt>
      <trkpt lat="46.029778" lon="13.429280">
        <ele>153.417</ele>
        <time>2018-09-05T12:31:13Z</time>
      </trkpt>
      <trkpt lat="46.029815" lon="13.429309">
        <ele>153.408</ele>
        <time>2018-09-05T12:31:14Z</time>
      </trkpt>
      <trkpt lat="46.029850" lon="13.429340">
        <ele>153.412</ele>
        <time>2018-09-05T12:31:15Z</time>
      </trkpt>
      <trkpt lat="46.029884" lon="13.429375">
        <ele>153.494</ele>
        <time>2018-09-05T12:31:16Z</time>
      </trkpt>
      <trkpt lat="46.029917" lon="13.429412">
        <ele>153.420</ele>
        <time>2018-09-05T12:31:17Z</time>
      </trkpt>
      <trkpt lat="46.030292" lon="13.429642">
        <ele>152.986</ele>
        <time>2018-09-05T12:31:26Z</time>
      </trkpt>
      <trkpt lat="46.030721" lon="13.429776">
        <ele>152.993</ele>
        <time>2018-09-05T12:31:35Z</time>
      </trkpt>
      <trkpt lat="46.030764" lon="13.429808">
        <ele>152.954</ele>
        <time>2018-09-05T12:31:36Z</time>
      </trkpt>
      <trkpt lat="46.030804" lon="13.429846">
        <ele>152.988</ele>
        <time>2018-09-05T12:31:37Z</time>
      </trkpt>
      <trkpt lat="46.030838" lon="13.429885">
        <ele>152.949</ele>
        <time>2018-09-05T12:31:38Z</time>
      </trkpt>
      <trkpt lat="46.030874" lon="13.429929">
        <ele>153.475</ele>
        <time>2018-09-05T12:31:39Z</time>
      </trkpt>
      <trkpt lat="46.031386" lon="13.430601">
        <ele>155.328</ele>
        <time>2018-09-05T12:31:56Z</time>
      </trkpt>
      <trkpt lat="46.031849" lon="13.430538">
        <ele>155.820</ele>
        <time>2018-09-05T12:32:08Z</time>
      </trkpt>
      <trkpt lat="46.032405" lon="13.430299">
        <ele>155.308</ele>
        <time>2018-09-05T12:32:22Z</time>
      </trkpt>
      <trkpt lat="46.032445" lon="13.430272">
        <ele>154.941</ele>
        <time>2018-09-05T12:32:23Z</time>
      </trkpt>
      <trkpt lat="46.032481" lon="13.430240">
        <ele>154.933</ele>
        <time>2018-09-05T12:32:24Z</time>
      </trkpt>
      <trkpt lat="46.032551" lon="13.430169">
        <ele>154.929</ele>
        <time>2018-09-05T12:32:26Z</time>
      </trkpt>
      <trkpt lat="46.032581" lon="13.430125">
        <ele>154.945</ele>
        <time>2018-09-05T12:32:27Z</time>
      </trkpt>
      <trkpt lat="46.032979" lon="13.429543">
        <ele>152.582</ele>
        <time>2018-09-05T12:32:37Z</time>
      </trkpt>
      <trkpt lat="46.033037" lon="13.429485">
        <ele>152.073</ele>
        <time>2018-09-05T12:32:38Z</time>
      </trkpt>
      <trkpt lat="46.033097" lon="13.429435">
        <ele>151.567</ele>
        <time>2018-09-05T12:32:39Z</time>
      </trkpt>
      <trkpt lat="46.033162" lon="13.429393">
        <ele>151.588</ele>
        <time>2018-09-05T12:32:40Z</time>
      </trkpt>
      <trkpt lat="46.033228" lon="13.429358">
        <ele>151.559</ele>
        <time>2018-09-05T12:32:41Z</time>
      </trkpt>
      <trkpt lat="46.034444" lon="13.428887">
        <ele>150.503</ele>
        <time>2018-09-05T12:33:00Z</time>
      </trkpt>
      <trkpt lat="46.034536" lon="13.428864">
        <ele>150.123</ele>
        <time>2018-09-05T12:33:02Z</time>
      </trkpt>
      <trkpt lat="46.034583" lon="13.428864">
        <ele>150.108</ele>
        <time>2018-09-05T12:33:03Z</time>
      </trkpt>
      <trkpt lat="46.034629" lon="13.428878">
        <ele>150.129</ele>
        <time>2018-09-05T12:33:04Z</time>
      </trkpt>
      <trkpt lat="46.034673" lon="13.428902">
        <ele>150.111</ele>
        <time>2018-09-05T12:33:05Z</time>
      </trkpt>
      <trkpt lat="46.034714" lon="13.428931">
        <ele>150.137</ele>
        <time>2018-09-05T12:33:06Z</time>
      </trkpt>
      <trkpt lat="46.034753" lon="13.428964">
        <ele>150.183</ele>
        <time>2018-09-05T12:33:07Z</time>
      </trkpt>
      <trkpt lat="46.034788" lon="13.429001">
        <ele>150.160</ele>
        <time>2018-09-05T12:33:08Z</time>
      </trkpt>
      <trkpt lat="46.035088" lon="13.429298">
        <ele>149.631</ele>
        <time>2018-09-05T12:33:17Z</time>
      </trkpt>
      <trkpt lat="46.035564" lon="13.430036">
        <ele>145.375</ele>
        <time>2018-09-05T12:33:27Z</time>
      </trkpt>
      <trkpt lat="46.035607" lon="13.430137">
        <ele>144.816</ele>
        <time>2018-09-05T12:33:28Z</time>
      </trkpt>
      <trkpt lat="46.035643" lon="13.430244">
        <ele>144.395</ele>
        <time>2018-09-05T12:33:29Z</time>
      </trkpt>
      <trkpt lat="46.035715" lon="13.430454">
        <ele>143.849</ele>
        <time>2018-09-05T12:33:31Z</time>
      </trkpt>
      <trkpt lat="46.035765" lon="13.430546">
        <ele>143.823</ele>
        <time>2018-09-05T12:33:32Z</time>
      </trkpt>
      <trkpt lat="46.035828" lon="13.430624">
        <ele>143.308</ele>
        <time>2018-09-05T12:33:33Z</time>
      </trkpt>
      <trkpt lat="46.035903" lon="13.430690">
        <ele>143.333</ele>
        <time>2018-09-05T12:33:34Z</time>
      </trkpt>
      <trkpt lat="46.035980" lon="13.430749">
        <ele>142.875</ele>
        <time>2018-09-05T12:33:35Z</time>
      </trkpt>
      <trkpt lat="46.036235" lon="13.430901">
        <ele>140.981</ele>
        <time>2018-09-05T12:33:38Z</time>
      </trkpt>
      <trkpt lat="46.036333" lon="13.430920">
        <ele>140.477</ele>
        <time>2018-09-05T12:33:39Z</time>
      </trkpt>
      <trkpt lat="46.036427" lon="13.430918">
        <ele>140.024</ele>
        <time>2018-09-05T12:33:40Z</time>
      </trkpt>
      <trkpt lat="46.036520" lon="13.430902">
        <ele>139.585</ele>
        <time>2018-09-05T12:33:41Z</time>
      </trkpt>
      <trkpt lat="46.036610" lon="13.430883">
        <ele>139.549</ele>
        <time>2018-09-05T12:33:42Z</time>
      </trkpt>
      <trkpt lat="46.036692" lon="13.430880">
        <ele>139.070</ele>
        <time>2018-09-05T12:33:43Z</time>
      </trkpt>
      <trkpt lat="46.036778" lon="13.430901">
        <ele>138.559</ele>
        <time>2018-09-05T12:33:44Z</time>
      </trkpt>
      <trkpt lat="46.036856" lon="13.430940">
        <ele>138.003</ele>
        <time>2018-09-05T12:33:45Z</time>
      </trkpt>
      <trkpt lat="46.036933" lon="13.430998">
        <ele>137.623</ele>
        <time>2018-09-05T12:33:46Z</time>
      </trkpt>
      <trkpt lat="46.036998" lon="13.431067">
        <ele>137.608</ele>
        <time>2018-09-05T12:33:47Z</time>
      </trkpt>
      <trkpt lat="46.037061" lon="13.431150">
        <ele>137.639</ele>
        <time>2018-09-05T12:33:48Z</time>
      </trkpt>
      <trkpt lat="46.037245" lon="13.431397">
        <ele>136.691</ele>
        <time>2018-09-05T12:33:51Z</time>
      </trkpt>
      <trkpt lat="46.037316" lon="13.431451">
        <ele>136.697</ele>
        <time>2018-09-05T12:33:52Z</time>
      </trkpt>
      <trkpt lat="46.037399" lon="13.431476">
        <ele>136.193</ele>
        <time>2018-09-05T12:33:53Z</time>
      </trkpt>
      <trkpt lat="46.037479" lon="13.431468">
        <ele>135.690</ele>
        <time>2018-09-05T12:33:54Z</time>
      </trkpt>
      <trkpt lat="46.037562" lon="13.431438">
        <ele>135.261</ele>
        <time>2018-09-05T12:33:55Z</time>
      </trkpt>
      <trkpt lat="46.037637" lon="13.431400">
        <ele>135.215</ele>
        <time>2018-09-05T12:33:56Z</time>
      </trkpt>
      <trkpt lat="46.037716" lon="13.431360">
        <ele>134.776</ele>
        <time>2018-09-05T12:33:57Z</time>
      </trkpt>
      <trkpt lat="46.038495" lon="13.430973">
        <ele>133.223</ele>
        <time>2018-09-05T12:34:08Z</time>
      </trkpt>
      <trkpt lat="46.038563" lon="13.430973">
        <ele>132.883</ele>
        <time>2018-09-05T12:34:09Z</time>
      </trkpt>
      <trkpt lat="46.038702" lon="13.430991">
        <ele>132.811</ele>
        <time>2018-09-05T12:34:11Z</time>
      </trkpt>
      <trkpt lat="46.038765" lon="13.431011">
        <ele>132.808</ele>
        <time>2018-09-05T12:34:12Z</time>
      </trkpt>
      <trkpt lat="46.038829" lon="13.431036">
        <ele>132.396</ele>
        <time>2018-09-05T12:34:13Z</time>
      </trkpt>
      <trkpt lat="46.038885" lon="13.431068">
        <ele>132.368</ele>
        <time>2018-09-05T12:34:14Z</time>
      </trkpt>
      <trkpt lat="46.038940" lon="13.431109">
        <ele>132.314</ele>
        <time>2018-09-05T12:34:15Z</time>
      </trkpt>
      <trkpt lat="46.038993" lon="13.431155">
        <ele>132.320</ele>
        <time>2018-09-05T12:34:16Z</time>
      </trkpt>
      <trkpt lat="46.039040" lon="13.431203">
        <ele>132.347</ele>
        <time>2018-09-05T12:34:17Z</time>
      </trkpt>
      <trkpt lat="46.039130" lon="13.431303">
        <ele>132.368</ele>
        <time>2018-09-05T12:34:19Z</time>
      </trkpt>
      <trkpt lat="46.039316" lon="13.431467">
        <ele>131.822</ele>
        <time>2018-09-05T12:34:23Z</time>
      </trkpt>
      <trkpt lat="46.039365" lon="13.431490">
        <ele>131.833</ele>
        <time>2018-09-05T12:34:24Z</time>
      </trkpt>
      <trkpt lat="46.039418" lon="13.431500">
        <ele>131.814</ele>
        <time>2018-09-05T12:34:25Z</time>
      </trkpt>
      <trkpt lat="46.040236" lon="13.431383">
        <ele>129.454</ele>
        <time>2018-09-05T12:34:40Z</time>
      </trkpt>
      <trkpt lat="46.040299" lon="13.431371">
        <ele>128.909</ele>
        <time>2018-09-05T12:34:41Z</time>
      </trkpt>
      <trkpt lat="46.040361" lon="13.431368">
        <ele>128.908</ele>
        <time>2018-09-05T12:34:42Z</time>
      </trkpt>
      <trkpt lat="46.040429" lon="13.431375">
        <ele>127.935</ele>
        <time>2018-09-05T12:34:43Z</time>
      </trkpt>
      <trkpt lat="46.040498" lon="13.431389">
        <ele>127.517</ele>
        <time>2018-09-05T12:34:44Z</time>
      </trkpt>
      <trkpt lat="46.040574" lon="13.431414">
        <ele>127.043</ele>
        <time>2018-09-05T12:34:45Z</time>
      </trkpt>
      <trkpt lat="46.040646" lon="13.431446">
        <ele>126.529</ele>
        <time>2018-09-05T12:34:46Z</time>
      </trkpt>
      <trkpt lat="46.040716" lon="13.431492">
        <ele>126.076</ele>
        <time>2018-09-05T12:34:47Z</time>
      </trkpt>
      <trkpt lat="46.040785" lon="13.431559">
        <ele>125.527</ele>
        <time>2018-09-05T12:34:48Z</time>
      </trkpt>
      <trkpt lat="46.040853" lon="13.431638">
        <ele>124.611</ele>
        <time>2018-09-05T12:34:49Z</time>
      </trkpt>
      <trkpt lat="46.040923" lon="13.431730">
        <ele>124.182</ele>
        <time>2018-09-05T12:34:50Z</time>
      </trkpt>
      <trkpt lat="46.041727" lon="13.432716">
        <ele>115.533</ele>
        <time>2018-09-05T12:35:00Z</time>
      </trkpt>
      <trkpt lat="46.041833" lon="13.432847">
        <ele>114.523</ele>
        <time>2018-09-05T12:35:02Z</time>
      </trkpt>
      <trkpt lat="46.041861" lon="13.432913">
        <ele>114.015</ele>
        <time>2018-09-05T12:35:03Z</time>
      </trkpt>
      <trkpt lat="46.041869" lon="13.432983">
        <ele>114.008</ele>
        <time>2018-09-05T12:35:04Z</time>
      </trkpt>
      <trkpt lat="46.041861" lon="13.433071">
        <ele>113.557</ele>
        <time>2018-09-05T12:35:05Z</time>
      </trkpt>
      <trkpt lat="46.041849" lon="13.433124">
        <ele>113.529</ele>
        <time>2018-09-05T12:35:06Z</time>
      </trkpt>
      <trkpt lat="46.041828" lon="13.433195">
        <ele>113.595</ele>
        <time>2018-09-05T12:35:07Z</time>
      </trkpt>
      <trkpt lat="46.041389" lon="13.434728">
        <ele>110.611</ele>
        <time>2018-09-05T12:35:26Z</time>
      </trkpt>
      <trkpt lat="46.040919" lon="13.436421">
        <ele>107.898</ele>
        <time>2018-09-05T12:35:46Z</time>
      </trkpt>
      <trkpt lat="46.040678" lon="13.437982">
        <ele>105.879</ele>
        <time>2018-09-05T12:36:05Z</time>
      </trkpt>
      <trkpt lat="46.040631" lon="13.438554">
        <ele>105.483</ele>
        <time>2018-09-05T12:36:13Z</time>
      </trkpt>
      <trkpt lat="46.040631" lon="13.438748">
        <ele>104.914</ele>
        <time>2018-09-05T12:36:16Z</time>
      </trkpt>
      <trkpt lat="46.040638" lon="13.438808">
        <ele>105.495</ele>
        <time>2018-09-05T12:36:17Z</time>
      </trkpt>
      <trkpt lat="46.040654" lon="13.438859">
        <ele>105.449</ele>
        <time>2018-09-05T12:36:18Z</time>
      </trkpt>
      <trkpt lat="46.040680" lon="13.438901">
        <ele>105.823</ele>
        <time>2018-09-05T12:36:19Z</time>
      </trkpt>
      <trkpt lat="46.040714" lon="13.438941">
        <ele>105.808</ele>
        <time>2018-09-05T12:36:20Z</time>
      </trkpt>
      <trkpt lat="46.040853" lon="13.438976">
        <ele>106.343</ele>
        <time>2018-09-05T12:36:24Z</time>
      </trkpt>
      <trkpt lat="46.040895" lon="13.438971">
        <ele>106.315</ele>
        <time>2018-09-05T12:36:25Z</time>
      </trkpt>
      <trkpt lat="46.041513" lon="13.438914">
        <ele>107.881</ele>
        <time>2018-09-05T12:36:39Z</time>
      </trkpt>
      <trkpt lat="46.041559" lon="13.438913">
        <ele>107.897</ele>
        <time>2018-09-05T12:36:40Z</time>
      </trkpt>
      <trkpt lat="46.042380" lon="13.438779">
        <ele>111.164</ele>
        <time>2018-09-05T12:36:58Z</time>
      </trkpt>
      <trkpt lat="46.043226" lon="13.438573">
        <ele>110.615</ele>
        <time>2018-09-05T12:37:17Z</time>
      </trkpt>
      <trkpt lat="46.043424" lon="13.438457">
        <ele>110.669</ele>
        <time>2018-09-05T12:37:23Z</time>
      </trkpt>
      <trkpt lat="46.043439" lon="13.438422">
        <ele>110.630</ele>
        <time>2018-09-05T12:37:24Z</time>
      </trkpt>
      <trkpt lat="46.043446" lon="13.438376">
        <ele>110.649</ele>
        <time>2018-09-05T12:37:25Z</time>
      </trkpt>
      <trkpt lat="46.043448" lon="13.438325">
        <ele>110.602</ele>
        <time>2018-09-05T12:37:26Z</time>
      </trkpt>
      <trkpt lat="46.043450" lon="13.438267">
        <ele>110.222</ele>
        <time>2018-09-05T12:37:27Z</time>
      </trkpt>
      <trkpt lat="46.043461" lon="13.438070">
        <ele>109.708</ele>
        <time>2018-09-05T12:37:30Z</time>
      </trkpt>
      <trkpt lat="46.043498" lon="13.437813">
        <ele>109.268</ele>
        <time>2018-09-05T12:37:34Z</time>
      </trkpt>
      <trkpt lat="46.043524" lon="13.437699">
        <ele>109.240</ele>
        <time>2018-09-05T12:37:36Z</time>
      </trkpt>
      <trkpt lat="46.043542" lon="13.437587">
        <ele>109.216</ele>
        <time>2018-09-05T12:37:38Z</time>
      </trkpt>
      <trkpt lat="46.043545" lon="13.437526">
        <ele>109.212</ele>
        <time>2018-09-05T12:37:39Z</time>
      </trkpt>
      <trkpt lat="46.043565" lon="13.436980">
        <ele>108.269</ele>
        <time>2018-09-05T12:37:48Z</time>
      </trkpt>
      <trkpt lat="46.043559" lon="13.436209">
        <ele>106.890</ele>
        <time>2018-09-05T12:38:01Z</time>
      </trkpt>
      <trkpt lat="46.043583" lon="13.436176">
        <ele>106.854</ele>
        <time>2018-09-05T12:38:02Z</time>
      </trkpt>
      <trkpt lat="46.043617" lon="13.436158">
        <ele>106.825</ele>
        <time>2018-09-05T12:38:03Z</time>
      </trkpt>
      <trkpt lat="46.044270" lon="13.436042">
        <ele>107.356</ele>
        <time>2018-09-05T12:38:20Z</time>
      </trkpt>
      <trkpt lat="46.045213" lon="13.435824">
        <ele>107.359</ele>
        <time>2018-09-05T12:38:44Z</time>
      </trkpt>
      <trkpt lat="46.045831" lon="13.435485">
        <ele>107.814</ele>
        <time>2018-09-05T12:39:01Z</time>
      </trkpt>
      <trkpt lat="46.046513" lon="13.435192">
        <ele>107.808</ele>
        <time>2018-09-05T12:39:20Z</time>
      </trkpt>
      <trkpt lat="46.047136" lon="13.434995">
        <ele>108.259</ele>
        <time>2018-09-05T12:39:37Z</time>
      </trkpt>
      <trkpt lat="46.047802" lon="13.434793">
        <ele>108.781</ele>
        <time>2018-09-05T12:39:57Z</time>
      </trkpt>
      <trkpt lat="46.047979" lon="13.434871">
        <ele>109.297</ele>
        <time>2018-09-05T12:40:03Z</time>
      </trkpt>
      <trkpt lat="46.048013" lon="13.434868">
        <ele>109.243</ele>
        <time>2018-09-05T12:40:04Z</time>
      </trkpt>
      <trkpt lat="46.048049" lon="13.434855">
        <ele>109.280</ele>
        <time>2018-09-05T12:40:05Z</time>
      </trkpt>
      <trkpt lat="46.048083" lon="13.434833">
        <ele>109.731</ele>
        <time>2018-09-05T12:40:06Z</time>
      </trkpt>
      <trkpt lat="46.048112" lon="13.434804">
        <ele>109.775</ele>
        <time>2018-09-05T12:40:07Z</time>
      </trkpt>
      <trkpt lat="46.048143" lon="13.434773">
        <ele>109.756</ele>
        <time>2018-09-05T12:40:08Z</time>
      </trkpt>
      <trkpt lat="46.048688" lon="13.434400">
        <ele>109.752</ele>
        <time>2018-09-05T12:40:25Z</time>
      </trkpt>
      <trkpt lat="46.049299" lon="13.433716">
        <ele>109.253</ele>
        <time>2018-09-05T12:40:44Z</time>
      </trkpt>
      <trkpt lat="46.049858" lon="13.432645">
        <ele>110.208</ele>
        <time>2018-09-05T12:41:06Z</time>
      </trkpt>
      <trkpt lat="46.050333" lon="13.431733">
        <ele>111.108</ele>
        <time>2018-09-05T12:41:25Z</time>
      </trkpt>
      <trkpt lat="46.050398" lon="13.431506">
        <ele>110.629</ele>
        <time>2018-09-05T12:41:29Z</time>
      </trkpt>
      <trkpt lat="46.050644" lon="13.430695">
        <ele>110.281</ele>
        <time>2018-09-05T12:41:44Z</time>
      </trkpt>
      <trkpt lat="46.050779" lon="13.430457">
        <ele>110.627</ele>
        <time>2018-09-05T12:41:49Z</time>
      </trkpt>
      <trkpt lat="46.051033" lon="13.430131">
        <ele>110.263</ele>
        <time>2018-09-05T12:41:57Z</time>
      </trkpt>
      <trkpt lat="46.051183" lon="13.429895">
        <ele>110.290</ele>
        <time>2018-09-05T12:42:02Z</time>
      </trkpt>
      <trkpt lat="46.051208" lon="13.429847">
        <ele>110.251</ele>
        <time>2018-09-05T12:42:03Z</time>
      </trkpt>
      <trkpt lat="46.051338" lon="13.429609">
        <ele>110.255</ele>
        <time>2018-09-05T12:42:08Z</time>
      </trkpt>
      <trkpt lat="46.051357" lon="13.429554">
        <ele>110.276</ele>
        <time>2018-09-05T12:42:09Z</time>
      </trkpt>
      <trkpt lat="46.051717" lon="13.428577">
        <ele>110.629</ele>
        <time>2018-09-05T12:42:27Z</time>
      </trkpt>
      <trkpt lat="46.051770" lon="13.428477">
        <ele>110.600</ele>
        <time>2018-09-05T12:42:29Z</time>
      </trkpt>
      <trkpt lat="46.051801" lon="13.428434">
        <ele>110.620</ele>
        <time>2018-09-05T12:42:30Z</time>
      </trkpt>
      <trkpt lat="46.052147" lon="13.428081">
        <ele>111.108</ele>
        <time>2018-09-05T12:42:40Z</time>
      </trkpt>
      <trkpt lat="46.052498" lon="13.427829">
        <ele>111.126</ele>
        <time>2018-09-05T12:42:49Z</time>
      </trkpt>
      <trkpt lat="46.052585" lon="13.427794">
        <ele>110.678</ele>
        <time>2018-09-05T12:42:51Z</time>
      </trkpt>
      <trkpt lat="46.052631" lon="13.427788">
        <ele>110.624</ele>
        <time>2018-09-05T12:42:52Z</time>
      </trkpt>
      <trkpt lat="46.052676" lon="13.427790">
        <ele>111.120</ele>
        <time>2018-09-05T12:42:53Z</time>
      </trkpt>
      <trkpt lat="46.053534" lon="13.427684">
        <ele>112.677</ele>
        <time>2018-09-05T12:43:13Z</time>
      </trkpt>
      <trkpt lat="46.053569" lon="13.427656">
        <ele>112.618</ele>
        <time>2018-09-05T12:43:14Z</time>
      </trkpt>
      <trkpt lat="46.053604" lon="13.427623">
        <ele>112.642</ele>
        <time>2018-09-05T12:43:15Z</time>
      </trkpt>
      <trkpt lat="46.053636" lon="13.427584">
        <ele>112.613</ele>
        <time>2018-09-05T12:43:16Z</time>
      </trkpt>
      <trkpt lat="46.053665" lon="13.427542">
        <ele>112.671</ele>
        <time>2018-09-05T12:43:17Z</time>
      </trkpt>
      <trkpt lat="46.053692" lon="13.427500">
        <ele>112.641</ele>
        <time>2018-09-05T12:43:18Z</time>
      </trkpt>
      <trkpt lat="46.053797" lon="13.427313">
        <ele>112.615</ele>
        <time>2018-09-05T12:43:22Z</time>
      </trkpt>
      <trkpt lat="46.053826" lon="13.427270">
        <ele>112.608</ele>
        <time>2018-09-05T12:43:23Z</time>
      </trkpt>
      <trkpt lat="46.053858" lon="13.427230">
        <ele>112.681</ele>
        <time>2018-09-05T12:43:24Z</time>
      </trkpt>
      <trkpt lat="46.054369" lon="13.426785">
        <ele>112.193</ele>
        <time>2018-09-05T12:43:38Z</time>
      </trkpt>
      <trkpt lat="46.054657" lon="13.426202">
        <ele>111.619</ele>
        <time>2018-09-05T12:43:51Z</time>
      </trkpt>
      <trkpt lat="46.054666" lon="13.426142">
        <ele>111.675</ele>
        <time>2018-09-05T12:43:52Z</time>
      </trkpt>
      <trkpt lat="46.054679" lon="13.426086">
        <ele>111.652</ele>
        <time>2018-09-05T12:43:53Z</time>
      </trkpt>
      <trkpt lat="46.054924" lon="13.425233">
        <ele>111.653</ele>
        <time>2018-09-05T12:44:09Z</time>
      </trkpt>
      <trkpt lat="46.055277" lon="13.425262">
        <ele>112.697</ele>
        <time>2018-09-05T12:44:18Z</time>
      </trkpt>
      <trkpt lat="46.056320" lon="13.425337">
        <ele>114.048</ele>
        <time>2018-09-05T12:44:41Z</time>
      </trkpt>
      <trkpt lat="46.057455" lon="13.425410">
        <ele>115.557</ele>
        <time>2018-09-05T12:45:05Z</time>
      </trkpt>
      <trkpt lat="46.058622" lon="13.425484">
        <ele>116.400</ele>
        <time>2018-09-05T12:45:29Z</time>
      </trkpt>
      <trkpt lat="46.059805" lon="13.425576">
        <ele>117.920</ele>
        <time>2018-09-05T12:45:53Z</time>
      </trkpt>
      <trkpt lat="46.061076" lon="13.425894">
        <ele>118.808</ele>
        <time>2018-09-05T12:46:19Z</time>
      </trkpt>
      <trkpt lat="46.062297" lon="13.426308">
        <ele>119.899</ele>
        <time>2018-09-05T12:46:44Z</time>
      </trkpt>
      <trkpt lat="46.063462" lon="13.426737">
        <ele>120.351</ele>
        <time>2018-09-05T12:47:08Z</time>
      </trkpt>
      <trkpt lat="46.064318" lon="13.427058">
        <ele>120.797</ele>
        <time>2018-09-05T12:47:26Z</time>
      </trkpt>
      <trkpt lat="46.065459" lon="13.427450">
        <ele>121.223</ele>
        <time>2018-09-05T12:47:50Z</time>
      </trkpt>
      <trkpt lat="46.066662" lon="13.427764">
        <ele>122.260</ele>
        <time>2018-09-05T12:48:15Z</time>
      </trkpt>
      <trkpt lat="46.067677" lon="13.428021">
        <ele>122.781</ele>
        <time>2018-09-05T12:48:36Z</time>
      </trkpt>
      <trkpt lat="46.068736" lon="13.428293">
        <ele>123.655</ele>
        <time>2018-09-05T12:49:00Z</time>
      </trkpt>
      <trkpt lat="46.068988" lon="13.428603">
        <ele>124.136</ele>
        <time>2018-09-05T12:49:09Z</time>
      </trkpt>
      <trkpt lat="46.069024" lon="13.428602">
        <ele>124.183</ele>
        <time>2018-09-05T12:49:10Z</time>
      </trkpt>
      <trkpt lat="46.069062" lon="13.428583">
        <ele>124.125</ele>
        <time>2018-09-05T12:49:11Z</time>
      </trkpt>
      <trkpt lat="46.069095" lon="13.428553">
        <ele>124.117</ele>
        <time>2018-09-05T12:49:12Z</time>
      </trkpt>
      <trkpt lat="46.069131" lon="13.428522">
        <ele>124.108</ele>
        <time>2018-09-05T12:49:13Z</time>
      </trkpt>
      <trkpt lat="46.069171" lon="13.428494">
        <ele>124.662</ele>
        <time>2018-09-05T12:49:14Z</time>
      </trkpt>
      <trkpt lat="46.069211" lon="13.428480">
        <ele>124.634</ele>
        <time>2018-09-05T12:49:15Z</time>
      </trkpt>
      <trkpt lat="46.069247" lon="13.428479">
        <ele>124.620</ele>
        <time>2018-09-05T12:49:16Z</time>
      </trkpt>
      <trkpt lat="46.069284" lon="13.428488">
        <ele>125.146</ele>
        <time>2018-09-05T12:49:17Z</time>
      </trkpt>
      <trkpt lat="46.069320" lon="13.428497">
        <ele>124.643</ele>
        <time>2018-09-05T12:49:18Z</time>
      </trkpt>
      <trkpt lat="46.069963" lon="13.428750">
        <ele>124.674</ele>
        <time>2018-09-05T12:49:34Z</time>
      </trkpt>
      <trkpt lat="46.070991" lon="13.429150">
        <ele>125.198</ele>
        <time>2018-09-05T12:49:58Z</time>
      </trkpt>
      <trkpt lat="46.071958" lon="13.429452">
        <ele>125.579</ele>
        <time>2018-09-05T12:50:20Z</time>
      </trkpt>
      <trkpt lat="46.072754" lon="13.429533">
        <ele>126.515</ele>
        <time>2018-09-05T12:50:38Z</time>
      </trkpt>
      <trkpt lat="46.073732" lon="13.429697">
        <ele>127.565</ele>
        <time>2018-09-05T12:51:00Z</time>
      </trkpt>
      <trkpt lat="46.074467" lon="13.429904">
        <ele>127.511</ele>
        <time>2018-09-05T12:51:16Z</time>
      </trkpt>
      <trkpt lat="46.075425" lon="13.430281">
        <ele>127.908</ele>
        <time>2018-09-05T12:51:37Z</time>
      </trkpt>
      <trkpt lat="46.076152" lon="13.430759">
        <ele>128.465</ele>
        <time>2018-09-05T12:51:54Z</time>
      </trkpt>
      <trkpt lat="46.077173" lon="13.431425">
        <ele>130.817</ele>
        <time>2018-09-05T12:52:16Z</time>
      </trkpt>
      <trkpt lat="46.078268" lon="13.432103">
        <ele>131.833</ele>
        <time>2018-09-05T12:52:40Z</time>
      </trkpt>
      <trkpt lat="46.078311" lon="13.432134">
        <ele>131.849</ele>
        <time>2018-09-05T12:52:41Z</time>
      </trkpt>
      <trkpt lat="46.078389" lon="13.432208">
        <ele>131.856</ele>
        <time>2018-09-05T12:52:43Z</time>
      </trkpt>
      <trkpt lat="46.078463" lon="13.432302">
        <ele>131.877</ele>
        <time>2018-09-05T12:52:45Z</time>
      </trkpt>
      <trkpt lat="46.078535" lon="13.432394">
        <ele>131.821</ele>
        <time>2018-09-05T12:52:47Z</time>
      </trkpt>
      <trkpt lat="46.078576" lon="13.432416">
        <ele>132.312</ele>
        <time>2018-09-05T12:52:48Z</time>
      </trkpt>
      <trkpt lat="46.078624" lon="13.432423">
        <ele>132.854</ele>
        <time>2018-09-05T12:52:49Z</time>
      </trkpt>
      <trkpt lat="46.078671" lon="13.432415">
        <ele>132.856</ele>
        <time>2018-09-05T12:52:50Z</time>
      </trkpt>
      <trkpt lat="46.078713" lon="13.432396">
        <ele>133.211</ele>
        <time>2018-09-05T12:52:51Z</time>
      </trkpt>
      <trkpt lat="46.078746" lon="13.432371">
        <ele>133.208</ele>
        <time>2018-09-05T12:52:52Z</time>
      </trkpt>
      <trkpt lat="46.078781" lon="13.432335">
        <ele>133.239</ele>
        <time>2018-09-05T12:52:53Z</time>
      </trkpt>
      <trkpt lat="46.078815" lon="13.432294">
        <ele>133.231</ele>
        <time>2018-09-05T12:52:54Z</time>
      </trkpt>
      <trkpt lat="46.078847" lon="13.432251">
        <ele>133.237</ele>
        <time>2018-09-05T12:52:55Z</time>
      </trkpt>
      <trkpt lat="46.079026" lon="13.432055">
        <ele>133.253</ele>
        <time>2018-09-05T12:53:00Z</time>
      </trkpt>
      <trkpt lat="46.079070" lon="13.432027">
        <ele>132.890</ele>
        <time>2018-09-05T12:53:01Z</time>
      </trkpt>
      <trkpt lat="46.079112" lon="13.432004">
        <ele>132.851</ele>
        <time>2018-09-05T12:53:02Z</time>
      </trkpt>
      <trkpt lat="46.080000" lon="13.431794">
        <ele>131.375</ele>
        <time>2018-09-05T12:53:21Z</time>
      </trkpt>
      <trkpt lat="46.081079" lon="13.431551">
        <ele>130.866</ele>
        <time>2018-09-05T12:53:43Z</time>
      </trkpt>
      <trkpt lat="46.081128" lon="13.431554">
        <ele>130.866</ele>
        <time>2018-09-05T12:53:44Z</time>
      </trkpt>
      <trkpt lat="46.081178" lon="13.431565">
        <ele>130.829</ele>
        <time>2018-09-05T12:53:45Z</time>
      </trkpt>
      <trkpt lat="46.082204" lon="13.431903">
        <ele>133.221</ele>
        <time>2018-09-05T12:54:06Z</time>
      </trkpt>
      <trkpt lat="46.083036" lon="13.432121">
        <ele>134.208</ele>
        <time>2018-09-05T12:54:23Z</time>
      </trkpt>
      <trkpt lat="46.083716" lon="13.432024">
        <ele>135.260</ele>
        <time>2018-09-05T12:54:39Z</time>
      </trkpt>
      <trkpt lat="46.084177" lon="13.431795">
        <ele>134.732</ele>
        <time>2018-09-05T12:54:50Z</time>
      </trkpt>
      <trkpt lat="46.084385" lon="13.431595">
        <ele>135.268</ele>
        <time>2018-09-05T12:54:56Z</time>
      </trkpt>
      <trkpt lat="46.084774" lon="13.431207">
        <ele>135.274</ele>
        <time>2018-09-05T12:55:07Z</time>
      </trkpt>
      <trkpt lat="46.084773" lon="13.431173">
        <ele>135.231</ele>
        <time>2018-09-05T12:55:08Z</time>
      </trkpt>
      <trkpt lat="46.084771" lon="13.431166">
        <ele>135.212</ele>
        <time>2018-09-05T12:55:18Z</time>
      </trkpt>
      <trkpt lat="46.084804" lon="13.431161">
        <ele>133.236</ele>
        <time>2018-09-05T12:55:54Z</time>
      </trkpt>
      <trkpt lat="46.084799" lon="13.431144">
        <ele>131.887</ele>
        <time>2018-09-05T12:56:24Z</time>
      </trkpt>
      <trkpt lat="46.084787" lon="13.431142">
        <ele>131.812</ele>
        <time>2018-09-05T12:56:54Z</time>
      </trkpt>
      <trkpt lat="46.084796" lon="13.431145">
        <ele>130.832</ele>
        <time>2018-09-05T12:57:23Z</time>
      </trkpt>
      <trkpt lat="46.084798" lon="13.431175">
        <ele>130.405</ele>
        <time>2018-09-05T12:57:52Z</time>
      </trkpt>
      <trkpt lat="46.084782" lon="13.431190">
        <ele>129.408</ele>
        <time>2018-09-05T12:58:23Z</time>
      </trkpt>
      <trkpt lat="46.084775" lon="13.431168">
        <ele>131.315</ele>
        <time>2018-09-05T12:58:46Z</time>
      </trkpt>
      <trkpt lat="46.084788" lon="13.431148">
        <ele>131.317</ele>
        <time>2018-09-05T12:58:49Z</time>
      </trkpt>
      <trkpt lat="46.084801" lon="13.431144">
        <ele>131.853</ele>
        <time>2018-09-05T12:58:50Z</time>
      </trkpt>
      <trkpt lat="46.084819" lon="13.431154">
        <ele>131.829</ele>
        <time>2018-09-05T12:58:51Z</time>
      </trkpt>
      <trkpt lat="46.084897" lon="13.431214">
        <ele>132.376</ele>
        <time>2018-09-05T12:58:55Z</time>
      </trkpt>
      <trkpt lat="46.084925" lon="13.431212">
        <ele>132.357</ele>
        <time>2018-09-05T12:58:56Z</time>
      </trkpt>
      <trkpt lat="46.085442" lon="13.431155">
        <ele>135.251</ele>
        <time>2018-09-05T12:59:11Z</time>
      </trkpt>
      <trkpt lat="46.085659" lon="13.431443">
        <ele>134.762</ele>
        <time>2018-09-05T12:59:19Z</time>
      </trkpt>
      <trkpt lat="46.085694" lon="13.431435">
        <ele>134.762</ele>
        <time>2018-09-05T12:59:20Z</time>
      </trkpt>
      <trkpt lat="46.085730" lon="13.431412">
        <ele>134.783</ele>
        <time>2018-09-05T12:59:21Z</time>
      </trkpt>
      <trkpt lat="46.085762" lon="13.431380">
        <ele>134.211</ele>
        <time>2018-09-05T12:59:22Z</time>
      </trkpt>
      <trkpt lat="46.085789" lon="13.431345">
        <ele>134.208</ele>
        <time>2018-09-05T12:59:23Z</time>
      </trkpt>
      <trkpt lat="46.085871" lon="13.431163">
        <ele>132.880</ele>
        <time>2018-09-05T12:59:32Z</time>
      </trkpt>
      <trkpt lat="46.085864" lon="13.431129">
        <ele>132.842</ele>
        <time>2018-09-05T12:59:33Z</time>
      </trkpt>
      <trkpt lat="46.085854" lon="13.431092">
        <ele>132.838</ele>
        <time>2018-09-05T12:59:34Z</time>
      </trkpt>
      <trkpt lat="46.085866" lon="13.430660">
        <ele>133.294</ele>
        <time>2018-09-05T12:59:45Z</time>
      </trkpt>
      <trkpt lat="46.086105" lon="13.430196">
        <ele>132.321</ele>
        <time>2018-09-05T13:00:02Z</time>
      </trkpt>
      <trkpt lat="46.086382" lon="13.429754">
        <ele>131.812</ele>
        <time>2018-09-05T13:00:17Z</time>
      </trkpt>
      <trkpt lat="46.086857" lon="13.429015">
        <ele>131.356</ele>
        <time>2018-09-05T13:00:34Z</time>
      </trkpt>
      <trkpt lat="46.087120" lon="13.428598">
        <ele>131.837</ele>
        <time>2018-09-05T13:00:50Z</time>
      </trkpt>
      <trkpt lat="46.087155" lon="13.428560">
        <ele>131.372</ele>
        <time>2018-09-05T13:01:13Z</time>
      </trkpt>
      <trkpt lat="46.087374" lon="13.428026">
        <ele>131.313</ele>
        <time>2018-09-05T13:01:25Z</time>
      </trkpt>
      <trkpt lat="46.087846" lon="13.426948">
        <ele>129.414</ele>
        <time>2018-09-05T13:01:44Z</time>
      </trkpt>
      <trkpt lat="46.088521" lon="13.426496">
        <ele>127.508</ele>
        <time>2018-09-05T13:01:56Z</time>
      </trkpt>
      <trkpt lat="46.089383" lon="13.426369">
        <ele>127.031</ele>
        <time>2018-09-05T13:02:10Z</time>
      </trkpt>
      <trkpt lat="46.090570" lon="13.426013">
        <ele>128.973</ele>
        <time>2018-09-05T13:02:32Z</time>
      </trkpt>
      <trkpt lat="46.091165" lon="13.425744">
        <ele>130.819</ele>
        <time>2018-09-05T13:02:47Z</time>
      </trkpt>
      <trkpt lat="46.091854" lon="13.425348">
        <ele>132.885</ele>
        <time>2018-09-05T13:03:04Z</time>
      </trkpt>
      <trkpt lat="46.092257" lon="13.425094">
        <ele>133.282</ele>
        <time>2018-09-05T13:03:14Z</time>
      </trkpt>
      <trkpt lat="46.092415" lon="13.424985">
        <ele>133.753</ele>
        <time>2018-09-05T13:03:19Z</time>
      </trkpt>
      <trkpt lat="46.092443" lon="13.425004">
        <ele>133.797</ele>
        <time>2018-09-05T13:03:20Z</time>
      </trkpt>
      <trkpt lat="46.092465" lon="13.425034">
        <ele>133.788</ele>
        <time>2018-09-05T13:03:21Z</time>
      </trkpt>
      <trkpt lat="46.092485" lon="13.425069">
        <ele>133.242</ele>
        <time>2018-09-05T13:03:22Z</time>
      </trkpt>
      <trkpt lat="46.092498" lon="13.425106">
        <ele>133.222</ele>
        <time>2018-09-05T13:03:23Z</time>
      </trkpt>
      <trkpt lat="46.092511" lon="13.425148">
        <ele>133.214</ele>
        <time>2018-09-05T13:03:24Z</time>
      </trkpt>
      <trkpt lat="46.092638" lon="13.425657">
        <ele>133.208</ele>
        <time>2018-09-05T13:03:38Z</time>
      </trkpt>
      <trkpt lat="46.092844" lon="13.426249">
        <ele>132.328</ele>
        <time>2018-09-05T13:03:53Z</time>
      </trkpt>
      <trkpt lat="46.093038" lon="13.426770">
        <ele>132.320</ele>
        <time>2018-09-05T13:04:05Z</time>
      </trkpt>
      <trkpt lat="46.093254" lon="13.427317">
        <ele>132.816</ele>
        <time>2018-09-05T13:04:18Z</time>
      </trkpt>
      <trkpt lat="46.093480" lon="13.428074">
        <ele>132.862</ele>
        <time>2018-09-05T13:04:35Z</time>
      </trkpt>
      <trkpt lat="46.093549" lon="13.428377">
        <ele>133.719</ele>
        <time>2018-09-05T13:04:43Z</time>
      </trkpt>
      <trkpt lat="46.093537" lon="13.428395">
        <ele>134.280</ele>
        <time>2018-09-05T13:04:44Z</time>
      </trkpt>
      <trkpt lat="46.093531" lon="13.428483">
        <ele>161.644</ele>
        <time>2018-09-05T13:41:40Z</time>
      </trkpt>
      <trkpt lat="46.093505" lon="13.428504">
        <ele>163.065</ele>
        <time>2018-09-05T13:42:12Z</time>
      </trkpt>
      <trkpt lat="46.093518" lon="13.428515">
        <ele>159.789</ele>
        <time>2018-09-05T13:42:40Z</time>
      </trkpt>
      <trkpt lat="46.093543" lon="13.428538">
        <ele>159.206</ele>
        <time>2018-09-05T13:42:48Z</time>
      </trkpt>
      <trkpt lat="46.093591" lon="13.428712">
        <ele>154.426</ele>
        <time>2018-09-05T13:42:57Z</time>
      </trkpt>
      <trkpt lat="46.093610" lon="13.428825">
        <ele>150.108</ele>
        <time>2018-09-05T13:43:10Z</time>
      </trkpt>
      <trkpt lat="46.093640" lon="13.428786">
        <ele>149.112</ele>
        <time>2018-09-05T13:43:15Z</time>
      </trkpt>
      <trkpt lat="46.093657" lon="13.428773">
        <ele>149.174</ele>
        <time>2018-09-05T13:43:17Z</time>
      </trkpt>
      <trkpt lat="46.093965" lon="13.428701">
        <ele>150.110</ele>
        <time>2018-09-05T13:43:30Z</time>
      </trkpt>
      <trkpt lat="46.094272" lon="13.428538">
        <ele>149.656</ele>
        <time>2018-09-05T13:43:43Z</time>
      </trkpt>
      <trkpt lat="46.094547" lon="13.428207">
        <ele>149.653</ele>
        <time>2018-09-05T13:43:56Z</time>
      </trkpt>
      <trkpt lat="46.095041" lon="13.427607">
        <ele>146.774</ele>
        <time>2018-09-05T13:44:13Z</time>
      </trkpt>
      <trkpt lat="46.095417" lon="13.427213">
        <ele>140.068</ele>
        <time>2018-09-05T13:44:23Z</time>
      </trkpt>
      <trkpt lat="46.095677" lon="13.426787">
        <ele>137.659</ele>
        <time>2018-09-05T13:44:34Z</time>
      </trkpt>
      <trkpt lat="46.095663" lon="13.426095">
        <ele>136.152</ele>
        <time>2018-09-05T13:44:49Z</time>
      </trkpt>
      <trkpt lat="46.095656" lon="13.425388">
        <ele>134.753</ele>
        <time>2018-09-05T13:45:05Z</time>
      </trkpt>
      <trkpt lat="46.095651" lon="13.424746">
        <ele>135.208</ele>
        <time>2018-09-05T13:45:20Z</time>
      </trkpt>
      <trkpt lat="46.095383" lon="13.424533">
        <ele>135.208</ele>
        <time>2018-09-05T13:45:32Z</time>
      </trkpt>
      <trkpt lat="46.095039" lon="13.424627">
        <ele>134.269</ele>
        <time>2018-09-05T13:45:45Z</time>
      </trkpt>
      <trkpt lat="46.095029" lon="13.424656">
        <ele>134.781</ele>
        <time>2018-09-05T13:45:46Z</time>
      </trkpt>
      <trkpt lat="46.095021" lon="13.424694">
        <ele>134.777</ele>
        <time>2018-09-05T13:45:47Z</time>
      </trkpt>
      <trkpt lat="46.095017" lon="13.424730">
        <ele>134.733</ele>
        <time>2018-09-05T13:45:48Z</time>
      </trkpt>
      <trkpt lat="46.095007" lon="13.424766">
        <ele>134.750</ele>
        <time>2018-09-05T13:45:49Z</time>
      </trkpt>
      <trkpt lat="46.094990" lon="13.424791">
        <ele>134.271</ele>
        <time>2018-09-05T13:45:50Z</time>
      </trkpt>
      <trkpt lat="46.094891" lon="13.424788">
        <ele>134.735</ele>
        <time>2018-09-05T13:45:55Z</time>
      </trkpt>
      <trkpt lat="46.094883" lon="13.424759">
        <ele>134.776</ele>
        <time>2018-09-05T13:45:56Z</time>
      </trkpt>
      <trkpt lat="46.094874" lon="13.424727">
        <ele>134.716</ele>
        <time>2018-09-05T13:45:57Z</time>
      </trkpt>
      <trkpt lat="46.094804" lon="13.424531">
        <ele>134.776</ele>
        <time>2018-09-05T13:46:03Z</time>
      </trkpt>
      <trkpt lat="46.094789" lon="13.424511">
        <ele>134.213</ele>
        <time>2018-09-05T13:46:04Z</time>
      </trkpt>
      <trkpt lat="46.094774" lon="13.424498">
        <ele>134.208</ele>
        <time>2018-09-05T13:46:05Z</time>
      </trkpt>
      <trkpt lat="46.094749" lon="13.424485">
        <ele>134.265</ele>
        <time>2018-09-05T13:46:06Z</time>
      </trkpt>
      <trkpt lat="46.094731" lon="13.424485">
        <ele>134.227</ele>
        <time>2018-09-05T13:46:07Z</time>
      </trkpt>
      <trkpt lat="46.094716" lon="13.424487">
        <ele>134.243</ele>
        <time>2018-09-05T13:46:08Z</time>
      </trkpt>
      <trkpt lat="46.094687" lon="13.424470">
        <ele>134.729</ele>
        <time>2018-09-05T13:46:10Z</time>
      </trkpt>
      <trkpt lat="46.094676" lon="13.424445">
        <ele>134.736</ele>
        <time>2018-09-05T13:46:11Z</time>
      </trkpt>
      <trkpt lat="46.094667" lon="13.424425">
        <ele>135.237</ele>
        <time>2018-09-05T13:46:12Z</time>
      </trkpt>
      <trkpt lat="46.094650" lon="13.424398">
        <ele>135.251</ele>
        <time>2018-09-05T13:46:13Z</time>
      </trkpt>
      <trkpt lat="46.094626" lon="13.424384">
        <ele>135.282</ele>
        <time>2018-09-05T13:46:14Z</time>
      </trkpt>
      <trkpt lat="46.094599" lon="13.424381">
        <ele>135.298</ele>
        <time>2018-09-05T13:46:15Z</time>
      </trkpt>
      <trkpt lat="46.094567" lon="13.424383">
        <ele>135.215</ele>
        <time>2018-09-05T13:46:16Z</time>
      </trkpt>
      <trkpt lat="46.094533" lon="13.424387">
        <ele>134.726</ele>
        <time>2018-09-05T13:46:17Z</time>
      </trkpt>
      <trkpt lat="46.094049" lon="13.424443">
        <ele>136.108</ele>
        <time>2018-09-05T13:46:30Z</time>
      </trkpt>
      <trkpt lat="46.094020" lon="13.424422">
        <ele>136.183</ele>
        <time>2018-09-05T13:46:31Z</time>
      </trkpt>
      <trkpt lat="46.093996" lon="13.424390">
        <ele>136.165</ele>
        <time>2018-09-05T13:46:32Z</time>
      </trkpt>
      <trkpt lat="46.093980" lon="13.424354">
        <ele>136.651</ele>
        <time>2018-09-05T13:46:33Z</time>
      </trkpt>
      <trkpt lat="46.093966" lon="13.424313">
        <ele>137.147</ele>
        <time>2018-09-05T13:46:34Z</time>
      </trkpt>
      <trkpt lat="46.093951" lon="13.424274">
        <ele>137.134</ele>
        <time>2018-09-05T13:46:35Z</time>
      </trkpt>
      <trkpt lat="46.093934" lon="13.424234">
        <ele>137.695</ele>
        <time>2018-09-05T13:46:36Z</time>
      </trkpt>
      <trkpt lat="46.093710" lon="13.423574">
        <ele>137.659</ele>
        <time>2018-09-05T13:46:50Z</time>
      </trkpt>
      <trkpt lat="46.093708" lon="13.423532">
        <ele>137.180</ele>
        <time>2018-09-05T13:46:51Z</time>
      </trkpt>
      <trkpt lat="46.093698" lon="13.423494">
        <ele>137.141</ele>
        <time>2018-09-05T13:46:52Z</time>
      </trkpt>
      <trkpt lat="46.093686" lon="13.423458">
        <ele>136.681</ele>
        <time>2018-09-05T13:46:53Z</time>
      </trkpt>
      <trkpt lat="46.093675" lon="13.423415">
        <ele>136.609</ele>
        <time>2018-09-05T13:46:54Z</time>
      </trkpt>
      <trkpt lat="46.093492" lon="13.422866">
        <ele>139.008</ele>
        <time>2018-09-05T13:47:07Z</time>
      </trkpt>
      <trkpt lat="46.093316" lon="13.422329">
        <ele>138.018</ele>
        <time>2018-09-05T13:47:20Z</time>
      </trkpt>
      <trkpt lat="46.093135" lon="13.421731">
        <ele>137.690</ele>
        <time>2018-09-05T13:47:34Z</time>
      </trkpt>
      <trkpt lat="46.093119" lon="13.421675">
        <ele>136.666</ele>
        <time>2018-09-05T13:47:45Z</time>
      </trkpt>
      <trkpt lat="46.093124" lon="13.421669">
        <ele>136.652</ele>
        <time>2018-09-05T13:48:07Z</time>
      </trkpt>
      <trkpt lat="46.093144" lon="13.421623">
        <ele>136.699</ele>
        <time>2018-09-05T13:48:18Z</time>
      </trkpt>
      <trkpt lat="46.093144" lon="13.421606">
        <ele>136.620</ele>
        <time>2018-09-05T13:48:19Z</time>
      </trkpt>
      <trkpt lat="46.093144" lon="13.421591">
        <ele>136.644</ele>
        <time>2018-09-05T13:48:20Z</time>
      </trkpt>
      <trkpt lat="46.093153" lon="13.421573">
        <ele>136.635</ele>
        <time>2018-09-05T13:48:22Z</time>
      </trkpt>
      <trkpt lat="46.093322" lon="13.421517">
        <ele>145.332</ele>
        <time>2018-09-06T05:54:58Z</time>
      </trkpt>
      <trkpt lat="46.093339" lon="13.421532">
        <ele>146.292</ele>
        <time>2018-09-06T05:55:21Z</time>
      </trkpt>
      <trkpt lat="46.093323" lon="13.421519">
        <ele>146.711</ele>
        <time>2018-09-06T05:55:36Z</time>
      </trkpt>
      <trkpt lat="46.093165" lon="13.421735">
        <ele>140.408</ele>
        <time>2018-09-06T05:56:15Z</time>
      </trkpt>
      <trkpt lat="46.093157" lon="13.421749">
        <ele>138.517</ele>
        <time>2018-09-06T05:56:33Z</time>
      </trkpt>
      <trkpt lat="46.093167" lon="13.421777">
        <ele>138.019</ele>
        <time>2018-09-06T05:56:52Z</time>
      </trkpt>
      <trkpt lat="46.093215" lon="13.422113">
        <ele>139.575</ele>
        <time>2018-09-06T05:57:04Z</time>
      </trkpt>
      <trkpt lat="46.093301" lon="13.422365">
        <ele>140.421</ele>
        <time>2018-09-06T05:57:14Z</time>
      </trkpt>
      <trkpt lat="46.093576" lon="13.423166">
        <ele>139.082</ele>
        <time>2018-09-06T05:57:35Z</time>
      </trkpt>
      <trkpt lat="46.093767" lon="13.423785">
        <ele>139.542</ele>
        <time>2018-09-06T05:57:51Z</time>
      </trkpt>
      <trkpt lat="46.093938" lon="13.424292">
        <ele>139.595</ele>
        <time>2018-09-06T05:58:07Z</time>
      </trkpt>
      <trkpt lat="46.094033" lon="13.424509">
        <ele>139.579</ele>
        <time>2018-09-06T05:58:18Z</time>
      </trkpt>
      <trkpt lat="46.094300" lon="13.425111">
        <ele>139.543</ele>
        <time>2018-09-06T05:58:35Z</time>
      </trkpt>
      <trkpt lat="46.094579" lon="13.425713">
        <ele>138.564</ele>
        <time>2018-09-06T05:58:53Z</time>
      </trkpt>
      <trkpt lat="46.094634" lon="13.425975">
        <ele>138.010</ele>
        <time>2018-09-06T05:59:01Z</time>
      </trkpt>
      <trkpt lat="46.094613" lon="13.426012">
        <ele>137.608</ele>
        <time>2018-09-06T05:59:02Z</time>
      </trkpt>
      <trkpt lat="46.094595" lon="13.426036">
        <ele>137.628</ele>
        <time>2018-09-06T05:59:03Z</time>
      </trkpt>
      <trkpt lat="46.094573" lon="13.426065">
        <ele>137.170</ele>
        <time>2018-09-06T05:59:04Z</time>
      </trkpt>
      <trkpt lat="46.094553" lon="13.426093">
        <ele>137.146</ele>
        <time>2018-09-06T05:59:05Z</time>
      </trkpt>
      <trkpt lat="46.094236" lon="13.426519">
        <ele>138.082</ele>
        <time>2018-09-06T05:59:19Z</time>
      </trkpt>
      <trkpt lat="46.093756" lon="13.427175">
        <ele>142.463</ele>
        <time>2018-09-06T05:59:39Z</time>
      </trkpt>
      <trkpt lat="46.093388" lon="13.427653">
        <ele>141.443</ele>
        <time>2018-09-06T05:59:56Z</time>
      </trkpt>
      <trkpt lat="46.093371" lon="13.427705">
        <ele>140.946</ele>
        <time>2018-09-06T06:00:01Z</time>
      </trkpt>
      <trkpt lat="46.093368" lon="13.427725">
        <ele>140.970</ele>
        <time>2018-09-06T06:00:02Z</time>
      </trkpt>
      <trkpt lat="46.093370" lon="13.427746">
        <ele>141.491</ele>
        <time>2018-09-06T06:00:03Z</time>
      </trkpt>
      <trkpt lat="46.093379" lon="13.427773">
        <ele>141.481</ele>
        <time>2018-09-06T06:00:04Z</time>
      </trkpt>
      <trkpt lat="46.093390" lon="13.427801">
        <ele>141.419</ele>
        <time>2018-09-06T06:00:05Z</time>
      </trkpt>
      <trkpt lat="46.093524" lon="13.428254">
        <ele>142.808</ele>
        <time>2018-09-06T06:00:17Z</time>
      </trkpt>
      <trkpt lat="46.093580" lon="13.428738">
        <ele>141.483</ele>
        <time>2018-09-06T06:00:32Z</time>
      </trkpt>
      <trkpt lat="46.093581" lon="13.428758">
        <ele>141.465</ele>
        <time>2018-09-06T06:00:33Z</time>
      </trkpt>
      <trkpt lat="46.093575" lon="13.428778">
        <ele>141.431</ele>
        <time>2018-09-06T06:00:34Z</time>
      </trkpt>
      <trkpt lat="46.093565" lon="13.428799">
        <ele>141.457</ele>
        <time>2018-09-06T06:00:35Z</time>
      </trkpt>
      <trkpt lat="46.093555" lon="13.428810">
        <ele>141.938</ele>
        <time>2018-09-06T06:00:36Z</time>
      </trkpt>
      <trkpt lat="46.093542" lon="13.428822">
        <ele>141.428</ele>
        <time>2018-09-06T06:00:37Z</time>
      </trkpt>
      <trkpt lat="46.093349" lon="13.429051">
        <ele>136.641</ele>
        <time>2018-09-06T06:00:52Z</time>
      </trkpt>
      <trkpt lat="46.093349" lon="13.429098">
        <ele>134.255</ele>
        <time>2018-09-06T06:01:10Z</time>
      </trkpt>
      <trkpt lat="46.093513" lon="13.428939">
        <ele>134.757</ele>
        <time>2018-09-06T06:01:20Z</time>
      </trkpt>
      <trkpt lat="46.093931" lon="13.428757">
        <ele>140.400</ele>
        <time>2018-09-06T06:01:33Z</time>
      </trkpt>
      <trkpt lat="46.094395" lon="13.428614">
        <ele>141.920</ele>
        <time>2018-09-06T06:01:48Z</time>
      </trkpt>
      <trkpt lat="46.094419" lon="13.428635">
        <ele>141.908</ele>
        <time>2018-09-06T06:01:49Z</time>
      </trkpt>
      <trkpt lat="46.094433" lon="13.428665">
        <ele>141.959</ele>
        <time>2018-09-06T06:01:50Z</time>
      </trkpt>
      <trkpt lat="46.094443" lon="13.428695">
        <ele>141.911</ele>
        <time>2018-09-06T06:01:51Z</time>
      </trkpt>
      <trkpt lat="46.094451" lon="13.428734">
        <ele>142.497</ele>
        <time>2018-09-06T06:01:52Z</time>
      </trkpt>
      <trkpt lat="46.094563" lon="13.429235">
        <ele>141.413</ele>
        <time>2018-09-06T06:02:05Z</time>
      </trkpt>
      <trkpt lat="46.094560" lon="13.429271">
        <ele>141.484</ele>
        <time>2018-09-06T06:02:06Z</time>
      </trkpt>
      <trkpt lat="46.094541" lon="13.429304">
        <ele>141.424</ele>
        <time>2018-09-06T06:02:07Z</time>
      </trkpt>
      <trkpt lat="46.094514" lon="13.429330">
        <ele>141.497</ele>
        <time>2018-09-06T06:02:08Z</time>
      </trkpt>
      <trkpt lat="46.094482" lon="13.429356">
        <ele>141.441</ele>
        <time>2018-09-06T06:02:09Z</time>
      </trkpt>
      <trkpt lat="46.094453" lon="13.429378">
        <ele>141.468</ele>
        <time>2018-09-06T06:02:10Z</time>
      </trkpt>
      <trkpt lat="46.094427" lon="13.429405">
        <ele>140.942</ele>
        <time>2018-09-06T06:02:11Z</time>
      </trkpt>
      <trkpt lat="46.094226" lon="13.429620">
        <ele>137.626</ele>
        <time>2018-09-06T06:02:20Z</time>
      </trkpt>
      <trkpt lat="46.094234" lon="13.429655">
        <ele>136.608</ele>
        <time>2018-09-06T06:02:21Z</time>
      </trkpt>
      <trkpt lat="46.094243" lon="13.429685">
        <ele>136.130</ele>
        <time>2018-09-06T06:02:22Z</time>
      </trkpt>
      <trkpt lat="46.094257" lon="13.429716">
        <ele>135.682</ele>
        <time>2018-09-06T06:02:23Z</time>
      </trkpt>
      <trkpt lat="46.094272" lon="13.429751">
        <ele>135.258</ele>
        <time>2018-09-06T06:02:24Z</time>
      </trkpt>
      <trkpt lat="46.094283" lon="13.429795">
        <ele>134.724</ele>
        <time>2018-09-06T06:02:25Z</time>
      </trkpt>
      <trkpt lat="46.094297" lon="13.429836">
        <ele>134.765</ele>
        <time>2018-09-06T06:02:26Z</time>
      </trkpt>
      <trkpt lat="46.094320" lon="13.429871">
        <ele>134.275</ele>
        <time>2018-09-06T06:02:27Z</time>
      </trkpt>
      <trkpt lat="46.094346" lon="13.429902">
        <ele>134.228</ele>
        <time>2018-09-06T06:02:28Z</time>
      </trkpt>
      <trkpt lat="46.094367" lon="13.429934">
        <ele>134.272</ele>
        <time>2018-09-06T06:02:29Z</time>
      </trkpt>
      <trkpt lat="46.094381" lon="13.429963">
        <ele>134.296</ele>
        <time>2018-09-06T06:02:30Z</time>
      </trkpt>
      <trkpt lat="46.094490" lon="13.430210">
        <ele>132.331</ele>
        <time>2018-09-06T06:02:42Z</time>
      </trkpt>
      <trkpt lat="46.094417" lon="13.430325">
        <ele>134.224</ele>
        <time>2018-09-06T06:02:55Z</time>
      </trkpt>
      <trkpt lat="46.094405" lon="13.430341">
        <ele>133.708</ele>
        <time>2018-09-06T06:02:56Z</time>
      </trkpt>
      <trkpt lat="46.094396" lon="13.430359">
        <ele>134.213</ele>
        <time>2018-09-06T06:02:57Z</time>
      </trkpt>
      <trkpt lat="46.094230" lon="13.430533">
        <ele>135.225</ele>
        <time>2018-09-06T06:03:06Z</time>
      </trkpt>
      <trkpt lat="46.093860" lon="13.430761">
        <ele>134.231</ele>
        <time>2018-09-06T06:03:18Z</time>
      </trkpt>
      <trkpt lat="46.093504" lon="13.430936">
        <ele>135.647</ele>
        <time>2018-09-06T06:03:32Z</time>
      </trkpt>
      <trkpt lat="46.093231" lon="13.431089">
        <ele>139.538</ele>
        <time>2018-09-06T06:03:43Z</time>
      </trkpt>
      <trkpt lat="46.093083" lon="13.430999">
        <ele>140.498</ele>
        <time>2018-09-06T06:03:51Z</time>
      </trkpt>
      <trkpt lat="46.093066" lon="13.430995">
        <ele>140.491</ele>
        <time>2018-09-06T06:03:52Z</time>
      </trkpt>
      <trkpt lat="46.093046" lon="13.431010">
        <ele>140.475</ele>
        <time>2018-09-06T06:03:53Z</time>
      </trkpt>
      <trkpt lat="46.092865" lon="13.431156">
        <ele>140.962</ele>
        <time>2018-09-06T06:04:00Z</time>
      </trkpt>
      <trkpt lat="46.092195" lon="13.431516">
        <ele>142.483</ele>
        <time>2018-09-06T06:04:12Z</time>
      </trkpt>
      <trkpt lat="46.092142" lon="13.431538">
        <ele>142.411</ele>
        <time>2018-09-06T06:04:13Z</time>
      </trkpt>
      <trkpt lat="46.091464" lon="13.431839">
        <ele>139.008</ele>
        <time>2018-09-06T06:04:28Z</time>
      </trkpt>
      <trkpt lat="46.090980" lon="13.432015">
        <ele>140.050</ele>
        <time>2018-09-06T06:04:46Z</time>
      </trkpt>
      <trkpt lat="46.090570" lon="13.432384">
        <ele>138.072</ele>
        <time>2018-09-06T06:05:03Z</time>
      </trkpt>
      <trkpt lat="46.090256" lon="13.432644">
        <ele>137.628</ele>
        <time>2018-09-06T06:05:16Z</time>
      </trkpt>
      <trkpt lat="46.090226" lon="13.432681">
        <ele>138.084</ele>
        <time>2018-09-06T06:05:18Z</time>
      </trkpt>
      <trkpt lat="46.090215" lon="13.432716">
        <ele>138.015</ele>
        <time>2018-09-06T06:05:19Z</time>
      </trkpt>
      <trkpt lat="46.090199" lon="13.432890">
        <ele>138.055</ele>
        <time>2018-09-06T06:05:23Z</time>
      </trkpt>
      <trkpt lat="46.090208" lon="13.432919">
        <ele>138.528</ele>
        <time>2018-09-06T06:05:24Z</time>
      </trkpt>
      <trkpt lat="46.090468" lon="13.433433">
        <ele>137.162</ele>
        <time>2018-09-06T06:05:40Z</time>
      </trkpt>
      <trkpt lat="46.090642" lon="13.433912">
        <ele>137.186</ele>
        <time>2018-09-06T06:05:53Z</time>
      </trkpt>
      <trkpt lat="46.090816" lon="13.434306">
        <ele>138.060</ele>
        <time>2018-09-06T06:06:03Z</time>
      </trkpt>
      <trkpt lat="46.091008" lon="13.434584">
        <ele>139.526</ele>
        <time>2018-09-06T06:06:13Z</time>
      </trkpt>
      <trkpt lat="46.091351" lon="13.435269">
        <ele>139.008</ele>
        <time>2018-09-06T06:06:29Z</time>
      </trkpt>
      <trkpt lat="46.091811" lon="13.436127">
        <ele>138.532</ele>
        <time>2018-09-06T06:06:49Z</time>
      </trkpt>
      <trkpt lat="46.092212" lon="13.436887">
        <ele>138.034</ele>
        <time>2018-09-06T06:07:07Z</time>
      </trkpt>
      <trkpt lat="46.092571" lon="13.437601">
        <ele>138.050</ele>
        <time>2018-09-06T06:07:24Z</time>
      </trkpt>
      <trkpt lat="46.092728" lon="13.438346">
        <ele>137.666</ele>
        <time>2018-09-06T06:07:39Z</time>
      </trkpt>
      <trkpt lat="46.092982" lon="13.439102">
        <ele>138.537</ele>
        <time>2018-09-06T06:07:56Z</time>
      </trkpt>
      <trkpt lat="46.093039" lon="13.439873">
        <ele>138.077</ele>
        <time>2018-09-06T06:08:11Z</time>
      </trkpt>
      <trkpt lat="46.093028" lon="13.439933">
        <ele>137.610</ele>
        <time>2018-09-06T06:08:12Z</time>
      </trkpt>
      <trkpt lat="46.093011" lon="13.440060">
        <ele>137.134</ele>
        <time>2018-09-06T06:08:14Z</time>
      </trkpt>
      <trkpt lat="46.092979" lon="13.440638">
        <ele>135.266</ele>
        <time>2018-09-06T06:08:22Z</time>
      </trkpt>
      <trkpt lat="46.092989" lon="13.440706">
        <ele>135.229</ele>
        <time>2018-09-06T06:08:23Z</time>
      </trkpt>
      <trkpt lat="46.093006" lon="13.440774">
        <ele>135.221</ele>
        <time>2018-09-06T06:08:24Z</time>
      </trkpt>
      <trkpt lat="46.093028" lon="13.440840">
        <ele>135.608</ele>
        <time>2018-09-06T06:08:25Z</time>
      </trkpt>
      <trkpt lat="46.093050" lon="13.440899">
        <ele>135.690</ele>
        <time>2018-09-06T06:08:26Z</time>
      </trkpt>
      <trkpt lat="46.093114" lon="13.441067">
        <ele>136.192</ele>
        <time>2018-09-06T06:08:29Z</time>
      </trkpt>
      <trkpt lat="46.093272" lon="13.441633">
        <ele>139.068</ele>
        <time>2018-09-06T06:08:42Z</time>
      </trkpt>
      <trkpt lat="46.093564" lon="13.442149">
        <ele>138.044</ele>
        <time>2018-09-06T06:08:57Z</time>
      </trkpt>
      <trkpt lat="46.093936" lon="13.442599">
        <ele>137.155</ele>
        <time>2018-09-06T06:09:09Z</time>
      </trkpt>
      <trkpt lat="46.094073" lon="13.442794">
        <ele>134.785</ele>
        <time>2018-09-06T06:09:12Z</time>
      </trkpt>
      <trkpt lat="46.094120" lon="13.442880">
        <ele>133.788</ele>
        <time>2018-09-06T06:09:13Z</time>
      </trkpt>
      <trkpt lat="46.094163" lon="13.442979">
        <ele>132.892</ele>
        <time>2018-09-06T06:09:14Z</time>
      </trkpt>
      <trkpt lat="46.094199" lon="13.443085">
        <ele>131.811</ele>
        <time>2018-09-06T06:09:15Z</time>
      </trkpt>
      <trkpt lat="46.094232" lon="13.443196">
        <ele>130.821</ele>
        <time>2018-09-06T06:09:16Z</time>
      </trkpt>
      <trkpt lat="46.094304" lon="13.443553">
        <ele>127.903</ele>
        <time>2018-09-06T06:09:19Z</time>
      </trkpt>
      <trkpt lat="46.094310" lon="13.443673">
        <ele>127.508</ele>
        <time>2018-09-06T06:09:20Z</time>
      </trkpt>
      <trkpt lat="46.094304" lon="13.443790">
        <ele>126.555</ele>
        <time>2018-09-06T06:09:21Z</time>
      </trkpt>
      <trkpt lat="46.094286" lon="13.443912">
        <ele>126.017</ele>
        <time>2018-09-06T06:09:22Z</time>
      </trkpt>
      <trkpt lat="46.094265" lon="13.444004">
        <ele>125.573</ele>
        <time>2018-09-06T06:09:23Z</time>
      </trkpt>
      <trkpt lat="46.094237" lon="13.444097">
        <ele>125.129</ele>
        <time>2018-09-06T06:09:24Z</time>
      </trkpt>
      <trkpt lat="46.094188" lon="13.444259">
        <ele>124.180</ele>
        <time>2018-09-06T06:09:26Z</time>
      </trkpt>
      <trkpt lat="46.094156" lon="13.444589">
        <ele>124.670</ele>
        <time>2018-09-06T06:09:33Z</time>
      </trkpt>
      <trkpt lat="46.094325" lon="13.445019">
        <ele>132.393</ele>
        <time>2018-09-06T06:09:48Z</time>
      </trkpt>
      <trkpt lat="46.094488" lon="13.445349">
        <ele>143.317</ele>
        <time>2018-09-06T06:10:03Z</time>
      </trkpt>
      <trkpt lat="46.094653" lon="13.445690">
        <ele>149.151</ele>
        <time>2018-09-06T06:10:19Z</time>
      </trkpt>
      <trkpt lat="46.094796" lon="13.445987">
        <ele>151.001</ele>
        <time>2018-09-06T06:10:35Z</time>
      </trkpt>
      <trkpt lat="46.094940" lon="13.446254">
        <ele>153.411</ele>
        <time>2018-09-06T06:10:50Z</time>
      </trkpt>
      <trkpt lat="46.095106" lon="13.446651">
        <ele>149.608</ele>
        <time>2018-09-06T06:11:08Z</time>
      </trkpt>
      <trkpt lat="46.095368" lon="13.447143">
        <ele>146.249</ele>
        <time>2018-09-06T06:11:25Z</time>
      </trkpt>
      <trkpt lat="46.095620" lon="13.447622">
        <ele>145.791</ele>
        <time>2018-09-06T06:11:41Z</time>
      </trkpt>
      <trkpt lat="46.095832" lon="13.448313">
        <ele>146.767</ele>
        <time>2018-09-06T06:11:59Z</time>
      </trkpt>
      <trkpt lat="46.096082" lon="13.448974">
        <ele>146.783</ele>
        <time>2018-09-06T06:12:16Z</time>
      </trkpt>
      <trkpt lat="46.096322" lon="13.449457">
        <ele>151.034</ele>
        <time>2018-09-06T06:12:30Z</time>
      </trkpt>
      <trkpt lat="46.096585" lon="13.450076">
        <ele>153.924</ele>
        <time>2018-09-06T06:12:46Z</time>
      </trkpt>
      <trkpt lat="46.096827" lon="13.450803">
        <ele>149.617</ele>
        <time>2018-09-06T06:13:03Z</time>
      </trkpt>
      <trkpt lat="46.097158" lon="13.451601">
        <ele>145.391</ele>
        <time>2018-09-06T06:13:23Z</time>
      </trkpt>
      <trkpt lat="46.097283" lon="13.451989">
        <ele>144.814</ele>
        <time>2018-09-06T06:13:32Z</time>
      </trkpt>
      <trkpt lat="46.097313" lon="13.451988">
        <ele>144.854</ele>
        <time>2018-09-06T06:13:33Z</time>
      </trkpt>
      <trkpt lat="46.097338" lon="13.451968">
        <ele>144.809</ele>
        <time>2018-09-06T06:13:34Z</time>
      </trkpt>
      <trkpt lat="46.097765" lon="13.451428">
        <ele>144.808</ele>
        <time>2018-09-06T06:13:52Z</time>
      </trkpt>
      <trkpt lat="46.098176" lon="13.450871">
        <ele>143.895</ele>
        <time>2018-09-06T06:14:09Z</time>
      </trkpt>
      <trkpt lat="46.098213" lon="13.450849">
        <ele>143.827</ele>
        <time>2018-09-06T06:14:10Z</time>
      </trkpt>
      <trkpt lat="46.098253" lon="13.450831">
        <ele>143.843</ele>
        <time>2018-09-06T06:14:11Z</time>
      </trkpt>
      <trkpt lat="46.098295" lon="13.450822">
        <ele>143.839</ele>
        <time>2018-09-06T06:14:12Z</time>
      </trkpt>
      <trkpt lat="46.098382" lon="13.450828">
        <ele>143.360</ele>
        <time>2018-09-06T06:14:14Z</time>
      </trkpt>
      <trkpt lat="46.098425" lon="13.450843">
        <ele>143.350</ele>
        <time>2018-09-06T06:14:15Z</time>
      </trkpt>
      <trkpt lat="46.098465" lon="13.450863">
        <ele>143.363</ele>
        <time>2018-09-06T06:14:16Z</time>
      </trkpt>
      <trkpt lat="46.098989" lon="13.451398">
        <ele>143.857</ele>
        <time>2018-09-06T06:14:34Z</time>
      </trkpt>
      <trkpt lat="46.099442" lon="13.452065">
        <ele>144.324</ele>
        <time>2018-09-06T06:14:55Z</time>
      </trkpt>
      <trkpt lat="46.099734" lon="13.452740">
        <ele>144.304</ele>
        <time>2018-09-06T06:15:13Z</time>
      </trkpt>
      <trkpt lat="46.100035" lon="13.453389">
        <ele>144.814</ele>
        <time>2018-09-06T06:15:30Z</time>
      </trkpt>
      <trkpt lat="46.100375" lon="13.454131">
        <ele>144.808</ele>
        <time>2018-09-06T06:15:49Z</time>
      </trkpt>
      <trkpt lat="46.100684" lon="13.454671">
        <ele>144.866</ele>
        <time>2018-09-06T06:16:05Z</time>
      </trkpt>
      <trkpt lat="46.100979" lon="13.455434">
        <ele>145.318</ele>
        <time>2018-09-06T06:16:25Z</time>
      </trkpt>
      <trkpt lat="46.101190" lon="13.456285">
        <ele>145.384</ele>
        <time>2018-09-06T06:16:45Z</time>
      </trkpt>
      <trkpt lat="46.101494" lon="13.456948">
        <ele>145.380</ele>
        <time>2018-09-06T06:17:03Z</time>
      </trkpt>
      <trkpt lat="46.101879" lon="13.457794">
        <ele>143.851</ele>
        <time>2018-09-06T06:17:24Z</time>
      </trkpt>
      <trkpt lat="46.102164" lon="13.458472">
        <ele>149.631</ele>
        <time>2018-09-06T06:17:40Z</time>
      </trkpt>
      <trkpt lat="46.102498" lon="13.459182">
        <ele>148.194</ele>
        <time>2018-09-06T06:17:59Z</time>
      </trkpt>
      <trkpt lat="46.102822" lon="13.459782">
        <ele>148.158</ele>
        <time>2018-09-06T06:18:16Z</time>
      </trkpt>
      <trkpt lat="46.103097" lon="13.460519">
        <ele>148.695</ele>
        <time>2018-09-06T06:18:35Z</time>
      </trkpt>
      <trkpt lat="46.103330" lon="13.460990">
        <ele>150.149</ele>
        <time>2018-09-06T06:18:48Z</time>
      </trkpt>
      <trkpt lat="46.103456" lon="13.461732">
        <ele>149.623</ele>
        <time>2018-09-06T06:19:04Z</time>
      </trkpt>
      <trkpt lat="46.103521" lon="13.462512">
        <ele>150.508</ele>
        <time>2018-09-06T06:19:21Z</time>
      </trkpt>
      <trkpt lat="46.103650" lon="13.463249">
        <ele>152.053</ele>
        <time>2018-09-06T06:19:37Z</time>
      </trkpt>
      <trkpt lat="46.103546" lon="13.463869">
        <ele>150.555</ele>
        <time>2018-09-06T06:19:51Z</time>
      </trkpt>
      <trkpt lat="46.103528" lon="13.464630">
        <ele>151.531</ele>
        <time>2018-09-06T06:20:07Z</time>
      </trkpt>
      <trkpt lat="46.103755" lon="13.465449">
        <ele>150.527</ele>
        <time>2018-09-06T06:20:25Z</time>
      </trkpt>
      <trkpt lat="46.104211" lon="13.466180">
        <ele>150.518</ele>
        <time>2018-09-06T06:20:45Z</time>
      </trkpt>
      <trkpt lat="46.104291" lon="13.466819">
        <ele>150.148</ele>
        <time>2018-09-06T06:20:58Z</time>
      </trkpt>
      <trkpt lat="46.104494" lon="13.467503">
        <ele>149.111</ele>
        <time>2018-09-06T06:21:13Z</time>
      </trkpt>
      <trkpt lat="46.104607" lon="13.468162">
        <ele>149.625</ele>
        <time>2018-09-06T06:21:27Z</time>
      </trkpt>
      <trkpt lat="46.104488" lon="13.468870">
        <ele>150.161</ele>
        <time>2018-09-06T06:21:42Z</time>
      </trkpt>
      <trkpt lat="46.104344" lon="13.469528">
        <ele>151.521</ele>
        <time>2018-09-06T06:21:56Z</time>
      </trkpt>
      <trkpt lat="46.103995" lon="13.470345">
        <ele>150.113</ele>
        <time>2018-09-06T06:22:16Z</time>
      </trkpt>
      <trkpt lat="46.103835" lon="13.470719">
        <ele>150.108</ele>
        <time>2018-09-06T06:22:26Z</time>
      </trkpt>
      <trkpt lat="46.103836" lon="13.470742">
        <ele>150.160</ele>
        <time>2018-09-06T06:22:27Z</time>
      </trkpt>
      <trkpt lat="46.103843" lon="13.470761">
        <ele>150.542</ele>
        <time>2018-09-06T06:22:28Z</time>
      </trkpt>
      <trkpt lat="46.103851" lon="13.470772">
        <ele>150.528</ele>
        <time>2018-09-06T06:22:29Z</time>
      </trkpt>
      <trkpt lat="46.103861" lon="13.470785">
        <ele>150.524</ele>
        <time>2018-09-06T06:22:30Z</time>
      </trkpt>
      <trkpt lat="46.103871" lon="13.470795">
        <ele>151.025</ele>
        <time>2018-09-06T06:22:31Z</time>
      </trkpt>
      <trkpt lat="46.103883" lon="13.470800">
        <ele>151.035</ele>
        <time>2018-09-06T06:22:32Z</time>
      </trkpt>
      <trkpt lat="46.104038" lon="13.470940">
        <ele>151.518</ele>
        <time>2018-09-06T06:22:43Z</time>
      </trkpt>
      <trkpt lat="46.104050" lon="13.470974">
        <ele>151.522</ele>
        <time>2018-09-06T06:22:44Z</time>
      </trkpt>
      <trkpt lat="46.104069" lon="13.471005">
        <ele>151.542</ele>
        <time>2018-09-06T06:22:45Z</time>
      </trkpt>
      <trkpt lat="46.104095" lon="13.471030">
        <ele>151.522</ele>
        <time>2018-09-06T06:22:46Z</time>
      </trkpt>
      <trkpt lat="46.104123" lon="13.471053">
        <ele>151.014</ele>
        <time>2018-09-06T06:22:47Z</time>
      </trkpt>
      <trkpt lat="46.104681" lon="13.471461">
        <ele>146.708</ele>
        <time>2018-09-06T06:22:59Z</time>
      </trkpt>
      <trkpt lat="46.104823" lon="13.471575">
        <ele>144.898</ele>
        <time>2018-09-06T06:23:01Z</time>
      </trkpt>
      <trkpt lat="46.104893" lon="13.471650">
        <ele>143.870</ele>
        <time>2018-09-06T06:23:02Z</time>
      </trkpt>
      <trkpt lat="46.104960" lon="13.471738">
        <ele>142.896</ele>
        <time>2018-09-06T06:23:03Z</time>
      </trkpt>
      <trkpt lat="46.105024" lon="13.471839">
        <ele>141.962</ele>
        <time>2018-09-06T06:23:04Z</time>
      </trkpt>
      <trkpt lat="46.105083" lon="13.471949">
        <ele>140.943</ele>
        <time>2018-09-06T06:23:05Z</time>
      </trkpt>
      <trkpt lat="46.105139" lon="13.472062">
        <ele>140.493</ele>
        <time>2018-09-06T06:23:06Z</time>
      </trkpt>
      <trkpt lat="46.105737" lon="13.473282">
        <ele>137.166</ele>
        <time>2018-09-06T06:23:19Z</time>
      </trkpt>
      <trkpt lat="46.105874" lon="13.473548">
        <ele>137.170</ele>
        <time>2018-09-06T06:23:23Z</time>
      </trkpt>
      <trkpt lat="46.106487" lon="13.474113">
        <ele>139.036</ele>
        <time>2018-09-06T06:23:38Z</time>
      </trkpt>
      <trkpt lat="46.107361" lon="13.474266">
        <ele>139.517</ele>
        <time>2018-09-06T06:23:56Z</time>
      </trkpt>
      <trkpt lat="46.108092" lon="13.474364">
        <ele>140.918</ele>
        <time>2018-09-06T06:24:13Z</time>
      </trkpt>
      <trkpt lat="46.109113" lon="13.474618">
        <ele>140.908</ele>
        <time>2018-09-06T06:24:37Z</time>
      </trkpt>
      <trkpt lat="46.109152" lon="13.474646">
        <ele>140.977</ele>
        <time>2018-09-06T06:24:38Z</time>
      </trkpt>
      <trkpt lat="46.109779" lon="13.475282">
        <ele>142.839</ele>
        <time>2018-09-06T06:24:56Z</time>
      </trkpt>
      <trkpt lat="46.110134" lon="13.475625">
        <ele>146.235</ele>
        <time>2018-09-06T06:25:10Z</time>
      </trkpt>
      <trkpt lat="46.110404" lon="13.476059">
        <ele>150.121</ele>
        <time>2018-09-06T06:25:28Z</time>
      </trkpt>
      <trkpt lat="46.110548" lon="13.476567">
        <ele>152.562</ele>
        <time>2018-09-06T06:25:46Z</time>
      </trkpt>
      <trkpt lat="46.110824" lon="13.476822">
        <ele>154.462</ele>
        <time>2018-09-06T06:26:03Z</time>
      </trkpt>
      <trkpt lat="46.111278" lon="13.477181">
        <ele>153.985</ele>
        <time>2018-09-06T06:26:25Z</time>
      </trkpt>
      <trkpt lat="46.111694" lon="13.477357">
        <ele>152.999</ele>
        <time>2018-09-06T06:26:43Z</time>
      </trkpt>
      <trkpt lat="46.111800" lon="13.477422">
        <ele>154.923</ele>
        <time>2018-09-06T06:26:54Z</time>
      </trkpt>
      <trkpt lat="46.111821" lon="13.477408">
        <ele>154.983</ele>
        <time>2018-09-06T06:26:55Z</time>
      </trkpt>
      <trkpt lat="46.111840" lon="13.477375">
        <ele>155.311</ele>
        <time>2018-09-06T06:26:56Z</time>
      </trkpt>
      <trkpt lat="46.111852" lon="13.477340">
        <ele>155.308</ele>
        <time>2018-09-06T06:26:57Z</time>
      </trkpt>
      <trkpt lat="46.111863" lon="13.477298">
        <ele>154.946</ele>
        <time>2018-09-06T06:26:58Z</time>
      </trkpt>
      <trkpt lat="46.111873" lon="13.477252">
        <ele>154.948</ele>
        <time>2018-09-06T06:26:59Z</time>
      </trkpt>
      <trkpt lat="46.111881" lon="13.477212">
        <ele>154.914</ele>
        <time>2018-09-06T06:27:00Z</time>
      </trkpt>
      <trkpt lat="46.111891" lon="13.477165">
        <ele>154.970</ele>
        <time>2018-09-06T06:27:01Z</time>
      </trkpt>
      <trkpt lat="46.111898" lon="13.477121">
        <ele>154.971</ele>
        <time>2018-09-06T06:27:02Z</time>
      </trkpt>
      <trkpt lat="46.112072" lon="13.476486">
        <ele>155.881</ele>
        <time>2018-09-06T06:27:17Z</time>
      </trkpt>
      <trkpt lat="46.112154" lon="13.476367">
        <ele>156.884</ele>
        <time>2018-09-06T06:27:21Z</time>
      </trkpt>
      <trkpt lat="46.112176" lon="13.476382">
        <ele>156.388</ele>
        <time>2018-09-06T06:27:22Z</time>
      </trkpt>
      <trkpt lat="46.112200" lon="13.476408">
        <ele>156.379</ele>
        <time>2018-09-06T06:27:23Z</time>
      </trkpt>
      <trkpt lat="46.112222" lon="13.476429">
        <ele>156.305</ele>
        <time>2018-09-06T06:27:24Z</time>
      </trkpt>
      <trkpt lat="46.112248" lon="13.476448">
        <ele>156.325</ele>
        <time>2018-09-06T06:27:25Z</time>
      </trkpt>
      <trkpt lat="46.112624" lon="13.476622">
        <ele>161.608</ele>
        <time>2018-09-06T06:27:38Z</time>
      </trkpt>
      <trkpt lat="46.113072" lon="13.476762">
        <ele>161.621</ele>
        <time>2018-09-06T06:27:52Z</time>
      </trkpt>
      <trkpt lat="46.113469" lon="13.476839">
        <ele>160.673</ele>
        <time>2018-09-06T06:28:02Z</time>
      </trkpt>
      <trkpt lat="46.114200" lon="13.476973">
        <ele>157.729</ele>
        <time>2018-09-06T06:28:21Z</time>
      </trkpt>
      <trkpt lat="46.114937" lon="13.477100">
        <ele>157.365</ele>
        <time>2018-09-06T06:28:40Z</time>
      </trkpt>
      <trkpt lat="46.115653" lon="13.477287">
        <ele>156.876</ele>
        <time>2018-09-06T06:28:58Z</time>
      </trkpt>
      <trkpt lat="46.116404" lon="13.477526">
        <ele>157.356</ele>
        <time>2018-09-06T06:29:17Z</time>
      </trkpt>
      <trkpt lat="46.117271" lon="13.477800">
        <ele>156.899</ele>
        <time>2018-09-06T06:29:38Z</time>
      </trkpt>
      <trkpt lat="46.118087" lon="13.478010">
        <ele>157.353</ele>
        <time>2018-09-06T06:29:58Z</time>
      </trkpt>
      <trkpt lat="46.118768" lon="13.477715">
        <ele>157.773</ele>
        <time>2018-09-06T06:30:15Z</time>
      </trkpt>
      <trkpt lat="46.119581" lon="13.477588">
        <ele>159.785</ele>
        <time>2018-09-06T06:30:36Z</time>
      </trkpt>
      <trkpt lat="46.120138" lon="13.477142">
        <ele>163.013</ele>
        <time>2018-09-06T06:30:53Z</time>
      </trkpt>
      <trkpt lat="46.120492" lon="13.476535">
        <ele>163.008</ele>
        <time>2018-09-06T06:31:10Z</time>
      </trkpt>
      <trkpt lat="46.120880" lon="13.476658">
        <ele>163.591</ele>
        <time>2018-09-06T06:31:21Z</time>
      </trkpt>
      <trkpt lat="46.121775" lon="13.477096">
        <ele>163.073</ele>
        <time>2018-09-06T06:31:44Z</time>
      </trkpt>
      <trkpt lat="46.122506" lon="13.477343">
        <ele>163.079</ele>
        <time>2018-09-06T06:32:00Z</time>
      </trkpt>
      <trkpt lat="46.122615" lon="13.477421">
        <ele>162.615</ele>
        <time>2018-09-06T06:32:03Z</time>
      </trkpt>
      <trkpt lat="46.122655" lon="13.477458">
        <ele>162.616</ele>
        <time>2018-09-06T06:32:04Z</time>
      </trkpt>
      <trkpt lat="46.122703" lon="13.477490">
        <ele>163.016</ele>
        <time>2018-09-06T06:32:05Z</time>
      </trkpt>
      <trkpt lat="46.122745" lon="13.477530">
        <ele>163.069</ele>
        <time>2018-09-06T06:32:06Z</time>
      </trkpt>
      <trkpt lat="46.122783" lon="13.477576">
        <ele>163.083</ele>
        <time>2018-09-06T06:32:07Z</time>
      </trkpt>
      <trkpt lat="46.122821" lon="13.477615">
        <ele>163.066</ele>
        <time>2018-09-06T06:32:08Z</time>
      </trkpt>
      <trkpt lat="46.122872" lon="13.477638">
        <ele>163.529</ele>
        <time>2018-09-06T06:32:09Z</time>
      </trkpt>
      <trkpt lat="46.122918" lon="13.477658">
        <ele>163.521</ele>
        <time>2018-09-06T06:32:10Z</time>
      </trkpt>
      <trkpt lat="46.123554" lon="13.477987">
        <ele>162.108</ele>
        <time>2018-09-06T06:32:25Z</time>
      </trkpt>
      <trkpt lat="46.123927" lon="13.478224">
        <ele>165.930</ele>
        <time>2018-09-06T06:32:39Z</time>
      </trkpt>
      <trkpt lat="46.124349" lon="13.478670">
        <ele>166.922</ele>
        <time>2018-09-06T06:32:56Z</time>
      </trkpt>
      <trkpt lat="46.124856" lon="13.479204">
        <ele>166.938</ele>
        <time>2018-09-06T06:33:16Z</time>
      </trkpt>
      <trkpt lat="46.125406" lon="13.479655">
        <ele>166.454</ele>
        <time>2018-09-06T06:33:35Z</time>
      </trkpt>
      <trkpt lat="46.125754" lon="13.479899">
        <ele>166.925</ele>
        <time>2018-09-06T06:33:45Z</time>
      </trkpt>
      <trkpt lat="46.125857" lon="13.479977">
        <ele>166.995</ele>
        <time>2018-09-06T06:33:48Z</time>
      </trkpt>
      <trkpt lat="46.126608" lon="13.480493">
        <ele>167.498</ele>
        <time>2018-09-06T06:34:09Z</time>
      </trkpt>
      <trkpt lat="46.127155" lon="13.480677">
        <ele>170.272</ele>
        <time>2018-09-06T06:34:23Z</time>
      </trkpt>
      <trkpt lat="46.127877" lon="13.480974">
        <ele>172.693</ele>
        <time>2018-09-06T06:34:41Z</time>
      </trkpt>
      <trkpt lat="46.128656" lon="13.481309">
        <ele>166.965</ele>
        <time>2018-09-06T06:35:01Z</time>
      </trkpt>
      <trkpt lat="46.129564" lon="13.481718">
        <ele>166.421</ele>
        <time>2018-09-06T06:35:25Z</time>
      </trkpt>
      <trkpt lat="46.130341" lon="13.481925">
        <ele>165.008</ele>
        <time>2018-09-06T06:35:45Z</time>
      </trkpt>
      <trkpt lat="46.131205" lon="13.482154">
        <ele>165.963</ele>
        <time>2018-09-06T06:36:07Z</time>
      </trkpt>
      <trkpt lat="46.131809" lon="13.482271">
        <ele>168.395</ele>
        <time>2018-09-06T06:36:23Z</time>
      </trkpt>
      <trkpt lat="46.132489" lon="13.482439">
        <ele>167.431</ele>
        <time>2018-09-06T06:36:39Z</time>
      </trkpt>
      <trkpt lat="46.133221" lon="13.482334">
        <ele>165.977</ele>
        <time>2018-09-06T06:36:56Z</time>
      </trkpt>
      <trkpt lat="46.133982" lon="13.482117">
        <ele>166.428</ele>
        <time>2018-09-06T06:37:16Z</time>
      </trkpt>
      <trkpt lat="46.134869" lon="13.481969">
        <ele>165.998</ele>
        <time>2018-09-06T06:37:38Z</time>
      </trkpt>
      <trkpt lat="46.135250" lon="13.481975">
        <ele>165.411</ele>
        <time>2018-09-06T06:37:47Z</time>
      </trkpt>
      <trkpt lat="46.136046" lon="13.481977">
        <ele>163.065</ele>
        <time>2018-09-06T06:38:00Z</time>
      </trkpt>
      <trkpt lat="46.136565" lon="13.481895">
        <ele>162.114</ele>
        <time>2018-09-06T06:38:08Z</time>
      </trkpt>
      <trkpt lat="46.137259" lon="13.482043">
        <ele>163.554</ele>
        <time>2018-09-06T06:38:22Z</time>
      </trkpt>
      <trkpt lat="46.137672" lon="13.482116">
        <ele>167.809</ele>
        <time>2018-09-06T06:38:35Z</time>
      </trkpt>
      <trkpt lat="46.138171" lon="13.481962">
        <ele>170.708</ele>
        <time>2018-09-06T06:38:53Z</time>
      </trkpt>
      <trkpt lat="46.138548" lon="13.481900">
        <ele>170.255</ele>
        <time>2018-09-06T06:39:08Z</time>
      </trkpt>
      <trkpt lat="46.139055" lon="13.481881">
        <ele>173.177</ele>
        <time>2018-09-06T06:39:28Z</time>
      </trkpt>
      <trkpt lat="46.139433" lon="13.481812">
        <ele>174.623</ele>
        <time>2018-09-06T06:39:43Z</time>
      </trkpt>
      <trkpt lat="46.139958" lon="13.481790">
        <ele>175.539</ele>
        <time>2018-09-06T06:40:01Z</time>
      </trkpt>
      <trkpt lat="46.140623" lon="13.481853">
        <ele>175.150</ele>
        <time>2018-09-06T06:40:23Z</time>
      </trkpt>
      <trkpt lat="46.141142" lon="13.481685">
        <ele>177.590</ele>
        <time>2018-09-06T06:40:42Z</time>
      </trkpt>
      <trkpt lat="46.141582" lon="13.481850">
        <ele>179.473</ele>
        <time>2018-09-06T06:40:57Z</time>
      </trkpt>
      <trkpt lat="46.142046" lon="13.482095">
        <ele>176.067</ele>
        <time>2018-09-06T06:41:12Z</time>
      </trkpt>
      <trkpt lat="46.142570" lon="13.482258">
        <ele>177.512</ele>
        <time>2018-09-06T06:41:29Z</time>
      </trkpt>
      <trkpt lat="46.143040" lon="13.482294">
        <ele>180.832</ele>
        <time>2018-09-06T06:41:45Z</time>
      </trkpt>
      <trkpt lat="46.143420" lon="13.482178">
        <ele>183.205</ele>
        <time>2018-09-06T06:41:59Z</time>
      </trkpt>
      <trkpt lat="46.143757" lon="13.482020">
        <ele>188.508</ele>
        <time>2018-09-06T06:42:14Z</time>
      </trkpt>
      <trkpt lat="46.144334" lon="13.482130">
        <ele>182.345</ele>
        <time>2018-09-06T06:42:34Z</time>
      </trkpt>
      <trkpt lat="46.144911" lon="13.482360">
        <ele>178.917</ele>
        <time>2018-09-06T06:42:50Z</time>
      </trkpt>
      <trkpt lat="46.145360" lon="13.482435">
        <ele>182.323</ele>
        <time>2018-09-06T06:43:03Z</time>
      </trkpt>
      <trkpt lat="46.145907" lon="13.482491">
        <ele>185.699</ele>
        <time>2018-09-06T06:43:21Z</time>
      </trkpt>
      <trkpt lat="46.146419" lon="13.482416">
        <ele>185.160</ele>
        <time>2018-09-06T06:43:40Z</time>
      </trkpt>
      <trkpt lat="46.146883" lon="13.482571">
        <ele>183.770</ele>
        <time>2018-09-06T06:43:57Z</time>
      </trkpt>
      <trkpt lat="46.147474" lon="13.482790">
        <ele>181.343</ele>
        <time>2018-09-06T06:44:17Z</time>
      </trkpt>
      <trkpt lat="46.147955" lon="13.482959">
        <ele>181.877</ele>
        <time>2018-09-06T06:44:34Z</time>
      </trkpt>
      <trkpt lat="46.148196" lon="13.482875">
        <ele>185.121</ele>
        <time>2018-09-06T06:44:47Z</time>
      </trkpt>
      <trkpt lat="46.148262" lon="13.482506">
        <ele>187.541</ele>
        <time>2018-09-06T06:45:01Z</time>
      </trkpt>
      <trkpt lat="46.148279" lon="13.482457">
        <ele>188.505</ele>
        <time>2018-09-06T06:45:03Z</time>
      </trkpt>
      <trkpt lat="46.148456" lon="13.482198">
        <ele>190.908</ele>
        <time>2018-09-06T06:45:15Z</time>
      </trkpt>
      <trkpt lat="46.148478" lon="13.482199">
        <ele>191.416</ele>
        <time>2018-09-06T06:45:16Z</time>
      </trkpt>
      <trkpt lat="46.148861" lon="13.482084">
        <ele>191.948</ele>
        <time>2018-09-06T06:45:29Z</time>
      </trkpt>
      <trkpt lat="46.149090" lon="13.482005">
        <ele>190.984</ele>
        <time>2018-09-06T06:45:34Z</time>
      </trkpt>
      <trkpt lat="46.149480" lon="13.481769">
        <ele>187.560</ele>
        <time>2018-09-06T06:45:41Z</time>
      </trkpt>
      <trkpt lat="46.149550" lon="13.481750">
        <ele>187.181</ele>
        <time>2018-09-06T06:45:42Z</time>
      </trkpt>
      <trkpt lat="46.149622" lon="13.481764">
        <ele>186.651</ele>
        <time>2018-09-06T06:45:43Z</time>
      </trkpt>
      <trkpt lat="46.149690" lon="13.481813">
        <ele>186.114</ele>
        <time>2018-09-06T06:45:44Z</time>
      </trkpt>
      <trkpt lat="46.149750" lon="13.481889">
        <ele>185.668</ele>
        <time>2018-09-06T06:45:45Z</time>
      </trkpt>
      <trkpt lat="46.149800" lon="13.481969">
        <ele>185.174</ele>
        <time>2018-09-06T06:45:46Z</time>
      </trkpt>
      <trkpt lat="46.149852" lon="13.482054">
        <ele>184.756</ele>
        <time>2018-09-06T06:45:47Z</time>
      </trkpt>
      <trkpt lat="46.149908" lon="13.482132">
        <ele>184.221</ele>
        <time>2018-09-06T06:45:48Z</time>
      </trkpt>
      <trkpt lat="46.150057" lon="13.482366">
        <ele>183.708</ele>
        <time>2018-09-06T06:45:51Z</time>
      </trkpt>
      <trkpt lat="46.150340" lon="13.482846">
        <ele>184.721</ele>
        <time>2018-09-06T06:46:00Z</time>
      </trkpt>
      <trkpt lat="46.150610" lon="13.483211">
        <ele>185.633</ele>
        <time>2018-09-06T06:46:18Z</time>
      </trkpt>
      <trkpt lat="46.150869" lon="13.483425">
        <ele>189.519</ele>
        <time>2018-09-06T06:46:34Z</time>
      </trkpt>
      <trkpt lat="46.151259" lon="13.483626">
        <ele>190.065</ele>
        <time>2018-09-06T06:46:52Z</time>
      </trkpt>
      <trkpt lat="46.151780" lon="13.483940">
        <ele>188.096</ele>
        <time>2018-09-06T06:47:06Z</time>
      </trkpt>
      <trkpt lat="46.152665" lon="13.484330">
        <ele>185.636</ele>
        <time>2018-09-06T06:47:21Z</time>
      </trkpt>
      <trkpt lat="46.152719" lon="13.484347">
        <ele>185.679</ele>
        <time>2018-09-06T06:47:22Z</time>
      </trkpt>
      <trkpt lat="46.153563" lon="13.484582">
        <ele>185.623</ele>
        <time>2018-09-06T06:47:38Z</time>
      </trkpt>
      <trkpt lat="46.154213" lon="13.484646">
        <ele>183.229</ele>
        <time>2018-09-06T06:47:50Z</time>
      </trkpt>
      <trkpt lat="46.154816" lon="13.484427">
        <ele>184.200</ele>
        <time>2018-09-06T06:48:05Z</time>
      </trkpt>
      <trkpt lat="46.155112" lon="13.484388">
        <ele>183.720</ele>
        <time>2018-09-06T06:48:17Z</time>
      </trkpt>
      <trkpt lat="46.155355" lon="13.483999">
        <ele>182.708</ele>
        <time>2018-09-06T06:48:29Z</time>
      </trkpt>
      <trkpt lat="46.155618" lon="13.483520">
        <ele>184.276</ele>
        <time>2018-09-06T06:48:44Z</time>
      </trkpt>
      <trkpt lat="46.155759" lon="13.482903">
        <ele>186.158</ele>
        <time>2018-09-06T06:49:02Z</time>
      </trkpt>
      <trkpt lat="46.155944" lon="13.482522">
        <ele>187.184</ele>
        <time>2018-09-06T06:49:16Z</time>
      </trkpt>
      <trkpt lat="46.156232" lon="13.482071">
        <ele>189.530</ele>
        <time>2018-09-06T06:49:37Z</time>
      </trkpt>
      <trkpt lat="46.156533" lon="13.481605">
        <ele>193.861</ele>
        <time>2018-09-06T06:49:59Z</time>
      </trkpt>
      <trkpt lat="46.156807" lon="13.481175">
        <ele>195.721</ele>
        <time>2018-09-06T06:50:19Z</time>
      </trkpt>
      <trkpt lat="46.157033" lon="13.480825">
        <ele>197.284</ele>
        <time>2018-09-06T06:50:35Z</time>
      </trkpt>
      <trkpt lat="46.157279" lon="13.480432">
        <ele>199.638</ele>
        <time>2018-09-06T06:50:54Z</time>
      </trkpt>
      <trkpt lat="46.157537" lon="13.480024">
        <ele>202.454</ele>
        <time>2018-09-06T06:51:14Z</time>
      </trkpt>
      <trkpt lat="46.157762" lon="13.479732">
        <ele>205.356</ele>
        <time>2018-09-06T06:51:30Z</time>
      </trkpt>
      <trkpt lat="46.158077" lon="13.479459">
        <ele>209.711</ele>
        <time>2018-09-06T06:51:50Z</time>
      </trkpt>
      <trkpt lat="46.158362" lon="13.479211">
        <ele>212.108</ele>
        <time>2018-09-06T06:52:08Z</time>
      </trkpt>
      <trkpt lat="46.158539" lon="13.478924">
        <ele>214.979</ele>
        <time>2018-09-06T06:52:23Z</time>
      </trkpt>
      <trkpt lat="46.158675" lon="13.478631">
        <ele>215.971</ele>
        <time>2018-09-06T06:52:39Z</time>
      </trkpt>
      <trkpt lat="46.158803" lon="13.478281">
        <ele>218.867</ele>
        <time>2018-09-06T06:52:56Z</time>
      </trkpt>
      <trkpt lat="46.158945" lon="13.477984">
        <ele>223.133</ele>
        <time>2018-09-06T06:53:12Z</time>
      </trkpt>
      <trkpt lat="46.158947" lon="13.477615">
        <ele>224.684</ele>
        <time>2018-09-06T06:53:28Z</time>
      </trkpt>
      <trkpt lat="46.158818" lon="13.477228">
        <ele>227.954</ele>
        <time>2018-09-06T06:53:46Z</time>
      </trkpt>
      <trkpt lat="46.158652" lon="13.476962">
        <ele>229.857</ele>
        <time>2018-09-06T06:54:01Z</time>
      </trkpt>
      <trkpt lat="46.158424" lon="13.476938">
        <ele>230.861</ele>
        <time>2018-09-06T06:54:16Z</time>
      </trkpt>
      <trkpt lat="46.158413" lon="13.476932">
        <ele>230.889</ele>
        <time>2018-09-06T06:54:17Z</time>
      </trkpt>
      <trkpt lat="46.158401" lon="13.476928">
        <ele>230.806</ele>
        <time>2018-09-06T06:54:18Z</time>
      </trkpt>
      <trkpt lat="46.158387" lon="13.476928">
        <ele>231.326</ele>
        <time>2018-09-06T06:54:19Z</time>
      </trkpt>
      <trkpt lat="46.158372" lon="13.476930">
        <ele>231.308</ele>
        <time>2018-09-06T06:54:20Z</time>
      </trkpt>
      <trkpt lat="46.158120" lon="13.476926">
        <ele>233.212</ele>
        <time>2018-09-06T06:54:36Z</time>
      </trkpt>
      <trkpt lat="46.157948" lon="13.477068">
        <ele>233.794</ele>
        <time>2018-09-06T06:54:49Z</time>
      </trkpt>
      <trkpt lat="46.157813" lon="13.477358">
        <ele>237.170</ele>
        <time>2018-09-06T06:55:05Z</time>
      </trkpt>
      <trkpt lat="46.157642" lon="13.477664">
        <ele>239.076</ele>
        <time>2018-09-06T06:55:22Z</time>
      </trkpt>
      <trkpt lat="46.157471" lon="13.477997">
        <ele>242.327</ele>
        <time>2018-09-06T06:55:41Z</time>
      </trkpt>
      <trkpt lat="46.157293" lon="13.478359">
        <ele>244.337</ele>
        <time>2018-09-06T06:56:01Z</time>
      </trkpt>
      <trkpt lat="46.157085" lon="13.478755">
        <ele>246.250</ele>
        <time>2018-09-06T06:56:22Z</time>
      </trkpt>
      <trkpt lat="46.156924" lon="13.478986">
        <ele>247.254</ele>
        <time>2018-09-06T06:56:37Z</time>
      </trkpt>
      <trkpt lat="46.156915" lon="13.479000">
        <ele>247.277</ele>
        <time>2018-09-06T06:56:38Z</time>
      </trkpt>
      <trkpt lat="46.156905" lon="13.479013">
        <ele>247.261</ele>
        <time>2018-09-06T06:56:39Z</time>
      </trkpt>
      <trkpt lat="46.156896" lon="13.479025">
        <ele>247.627</ele>
        <time>2018-09-06T06:56:40Z</time>
      </trkpt>
      <trkpt lat="46.156886" lon="13.479037">
        <ele>247.608</ele>
        <time>2018-09-06T06:56:41Z</time>
      </trkpt>
      <trkpt lat="46.156876" lon="13.479051">
        <ele>247.631</ele>
        <time>2018-09-06T06:56:42Z</time>
      </trkpt>
      <trkpt lat="46.156714" lon="13.479202">
        <ele>247.613</ele>
        <time>2018-09-06T06:56:57Z</time>
      </trkpt>
      <trkpt lat="46.156531" lon="13.479392">
        <ele>250.089</ele>
        <time>2018-09-06T06:57:13Z</time>
      </trkpt>
      <trkpt lat="46.156326" lon="13.479568">
        <ele>253.955</ele>
        <time>2018-09-06T06:57:31Z</time>
      </trkpt>
      <trkpt lat="46.156133" lon="13.479730">
        <ele>255.326</ele>
        <time>2018-09-06T06:57:47Z</time>
      </trkpt>
      <trkpt lat="46.156123" lon="13.479737">
        <ele>255.386</ele>
        <time>2018-09-06T06:57:48Z</time>
      </trkpt>
      <trkpt lat="46.156109" lon="13.479745">
        <ele>254.879</ele>
        <time>2018-09-06T06:57:49Z</time>
      </trkpt>
      <trkpt lat="46.155979" lon="13.479851">
        <ele>256.333</ele>
        <time>2018-09-06T06:58:01Z</time>
      </trkpt>
      <trkpt lat="46.155834" lon="13.479992">
        <ele>258.233</ele>
        <time>2018-09-06T06:58:13Z</time>
      </trkpt>
      <trkpt lat="46.155823" lon="13.480004">
        <ele>258.223</ele>
        <time>2018-09-06T06:58:14Z</time>
      </trkpt>
      <trkpt lat="46.155656" lon="13.480125">
        <ele>258.715</ele>
        <time>2018-09-06T06:58:27Z</time>
      </trkpt>
      <trkpt lat="46.155640" lon="13.480132">
        <ele>258.708</ele>
        <time>2018-09-06T06:58:28Z</time>
      </trkpt>
      <trkpt lat="46.155627" lon="13.480135">
        <ele>259.257</ele>
        <time>2018-09-06T06:58:29Z</time>
      </trkpt>
      <trkpt lat="46.155485" lon="13.480335">
        <ele>260.149</ele>
        <time>2018-09-06T06:58:42Z</time>
      </trkpt>
      <trkpt lat="46.155318" lon="13.480515">
        <ele>263.085</ele>
        <time>2018-09-06T06:58:58Z</time>
      </trkpt>
      <trkpt lat="46.155097" lon="13.480740">
        <ele>269.751</ele>
        <time>2018-09-06T06:59:16Z</time>
      </trkpt>
      <trkpt lat="46.155083" lon="13.480748">
        <ele>270.242</ele>
        <time>2018-09-06T06:59:17Z</time>
      </trkpt>
      <trkpt lat="46.155067" lon="13.480750">
        <ele>270.732</ele>
        <time>2018-09-06T06:59:18Z</time>
      </trkpt>
      <trkpt lat="46.155053" lon="13.480752">
        <ele>271.265</ele>
        <time>2018-09-06T06:59:19Z</time>
      </trkpt>
      <trkpt lat="46.155037" lon="13.480748">
        <ele>271.279</ele>
        <time>2018-09-06T06:59:20Z</time>
      </trkpt>
      <trkpt lat="46.155019" lon="13.480740">
        <ele>271.225</ele>
        <time>2018-09-06T06:59:21Z</time>
      </trkpt>
      <trkpt lat="46.155001" lon="13.480728">
        <ele>271.726</ele>
        <time>2018-09-06T06:59:22Z</time>
      </trkpt>
      <trkpt lat="46.154816" lon="13.480420">
        <ele>277.008</ele>
        <time>2018-09-06T06:59:38Z</time>
      </trkpt>
      <trkpt lat="46.154779" lon="13.480060">
        <ele>282.708</ele>
        <time>2018-09-06T06:59:55Z</time>
      </trkpt>
      <trkpt lat="46.154991" lon="13.480047">
        <ele>286.646</ele>
        <time>2018-09-06T07:00:10Z</time>
      </trkpt>
      <trkpt lat="46.155182" lon="13.480118">
        <ele>290.918</ele>
        <time>2018-09-06T07:00:24Z</time>
      </trkpt>
      <trkpt lat="46.155199" lon="13.480117">
        <ele>290.944</ele>
        <time>2018-09-06T07:00:25Z</time>
      </trkpt>
      <trkpt lat="46.155216" lon="13.480112">
        <ele>291.420</ele>
        <time>2018-09-06T07:00:26Z</time>
      </trkpt>
      <trkpt lat="46.155233" lon="13.480106">
        <ele>291.451</ele>
        <time>2018-09-06T07:00:27Z</time>
      </trkpt>
      <trkpt lat="46.155250" lon="13.480100">
        <ele>291.991</ele>
        <time>2018-09-06T07:00:28Z</time>
      </trkpt>
      <trkpt lat="46.155264" lon="13.480091">
        <ele>292.324</ele>
        <time>2018-09-06T07:00:29Z</time>
      </trkpt>
      <trkpt lat="46.155276" lon="13.480080">
        <ele>292.318</ele>
        <time>2018-09-06T07:00:30Z</time>
      </trkpt>
      <trkpt lat="46.155289" lon="13.480070">
        <ele>292.811</ele>
        <time>2018-09-06T07:00:31Z</time>
      </trkpt>
      <trkpt lat="46.155302" lon="13.480058">
        <ele>292.821</ele>
        <time>2018-09-06T07:00:32Z</time>
      </trkpt>
      <trkpt lat="46.155313" lon="13.480043">
        <ele>293.303</ele>
        <time>2018-09-06T07:00:33Z</time>
      </trkpt>
      <trkpt lat="46.155324" lon="13.480029">
        <ele>293.808</ele>
        <time>2018-09-06T07:00:34Z</time>
      </trkpt>
      <trkpt lat="46.155336" lon="13.480013">
        <ele>294.385</ele>
        <time>2018-09-06T07:00:35Z</time>
      </trkpt>
      <trkpt lat="46.155346" lon="13.479997">
        <ele>294.727</ele>
        <time>2018-09-06T07:00:36Z</time>
      </trkpt>
      <trkpt lat="46.155356" lon="13.479981">
        <ele>295.253</ele>
        <time>2018-09-06T07:00:37Z</time>
      </trkpt>
      <trkpt lat="46.155360" lon="13.479673">
        <ele>297.629</ele>
        <time>2018-09-06T07:00:53Z</time>
      </trkpt>
      <trkpt lat="46.155351" lon="13.479539">
        <ele>298.620</ele>
        <time>2018-09-06T07:01:00Z</time>
      </trkpt>
      <trkpt lat="46.155353" lon="13.479518">
        <ele>298.630</ele>
        <time>2018-09-06T07:01:01Z</time>
      </trkpt>
      <trkpt lat="46.155352" lon="13.479498">
        <ele>298.683</ele>
        <time>2018-09-06T07:01:02Z</time>
      </trkpt>
      <trkpt lat="46.155351" lon="13.479479">
        <ele>298.667</ele>
        <time>2018-09-06T07:01:03Z</time>
      </trkpt>
      <trkpt lat="46.155348" lon="13.479459">
        <ele>299.163</ele>
        <time>2018-09-06T07:01:04Z</time>
      </trkpt>
      <trkpt lat="46.155333" lon="13.479182">
        <ele>302.444</ele>
        <time>2018-09-06T07:01:18Z</time>
      </trkpt>
      <trkpt lat="46.155311" lon="13.478834">
        <ele>306.818</ele>
        <time>2018-09-06T07:01:35Z</time>
      </trkpt>
      <trkpt lat="46.155328" lon="13.478543">
        <ele>307.708</ele>
        <time>2018-09-06T07:01:50Z</time>
      </trkpt>
      <trkpt lat="46.155345" lon="13.478281">
        <ele>308.740</ele>
        <time>2018-09-06T07:02:03Z</time>
      </trkpt>
      <trkpt lat="46.155342" lon="13.478225">
        <ele>309.222</ele>
        <time>2018-09-06T07:02:06Z</time>
      </trkpt>
      <trkpt lat="46.155343" lon="13.478205">
        <ele>309.218</ele>
        <time>2018-09-06T07:02:07Z</time>
      </trkpt>
      <trkpt lat="46.155349" lon="13.478040">
        <ele>310.614</ele>
        <time>2018-09-06T07:02:15Z</time>
      </trkpt>
      <trkpt lat="46.155352" lon="13.478017">
        <ele>310.665</ele>
        <time>2018-09-06T07:02:16Z</time>
      </trkpt>
      <trkpt lat="46.155355" lon="13.477993">
        <ele>311.195</ele>
        <time>2018-09-06T07:02:17Z</time>
      </trkpt>
      <trkpt lat="46.155357" lon="13.477971">
        <ele>311.178</ele>
        <time>2018-09-06T07:02:18Z</time>
      </trkpt>
      <trkpt lat="46.155359" lon="13.477949">
        <ele>311.112</ele>
        <time>2018-09-06T07:02:19Z</time>
      </trkpt>
      <trkpt lat="46.155361" lon="13.477927">
        <ele>311.166</ele>
        <time>2018-09-06T07:02:20Z</time>
      </trkpt>
      <trkpt lat="46.155267" lon="13.477649">
        <ele>314.429</ele>
        <time>2018-09-06T07:02:35Z</time>
      </trkpt>
      <trkpt lat="46.154994" lon="13.477534">
        <ele>312.521</ele>
        <time>2018-09-06T07:02:56Z</time>
      </trkpt>
      <trkpt lat="46.154776" lon="13.477518">
        <ele>311.608</ele>
        <time>2018-09-06T07:03:12Z</time>
      </trkpt>
      <trkpt lat="46.154501" lon="13.477669">
        <ele>311.160</ele>
        <time>2018-09-06T07:03:26Z</time>
      </trkpt>
      <trkpt lat="46.154178" lon="13.477970">
        <ele>311.682</ele>
        <time>2018-09-06T07:03:45Z</time>
      </trkpt>
      <trkpt lat="46.153889" lon="13.478289">
        <ele>315.428</ele>
        <time>2018-09-06T07:04:03Z</time>
      </trkpt>
      <trkpt lat="46.153591" lon="13.478335">
        <ele>317.864</ele>
        <time>2018-09-06T07:04:18Z</time>
      </trkpt>
      <trkpt lat="46.153301" lon="13.478162">
        <ele>319.325</ele>
        <time>2018-09-06T07:04:34Z</time>
      </trkpt>
      <trkpt lat="46.153025" lon="13.478100">
        <ele>320.735</ele>
        <time>2018-09-06T07:04:49Z</time>
      </trkpt>
      <trkpt lat="46.152975" lon="13.478065">
        <ele>320.748</ele>
        <time>2018-09-06T07:04:53Z</time>
      </trkpt>
      <trkpt lat="46.152966" lon="13.478054">
        <ele>320.232</ele>
        <time>2018-09-06T07:04:54Z</time>
      </trkpt>
      <trkpt lat="46.152955" lon="13.478043">
        <ele>320.221</ele>
        <time>2018-09-06T07:04:55Z</time>
      </trkpt>
      <trkpt lat="46.152901" lon="13.478016">
        <ele>321.241</ele>
        <time>2018-09-06T07:04:59Z</time>
      </trkpt>
      <trkpt lat="46.152705" lon="13.477962">
        <ele>326.505</ele>
        <time>2018-09-06T07:05:14Z</time>
      </trkpt>
      <trkpt lat="46.152618" lon="13.477884">
        <ele>326.508</ele>
        <time>2018-09-06T07:05:21Z</time>
      </trkpt>
      <trkpt lat="46.152609" lon="13.477869">
        <ele>326.996</ele>
        <time>2018-09-06T07:05:22Z</time>
      </trkpt>
      <trkpt lat="46.152598" lon="13.477855">
        <ele>326.978</ele>
        <time>2018-09-06T07:05:23Z</time>
      </trkpt>
      <trkpt lat="46.152588" lon="13.477840">
        <ele>326.944</ele>
        <time>2018-09-06T07:05:24Z</time>
      </trkpt>
      <trkpt lat="46.152578" lon="13.477824">
        <ele>326.910</ele>
        <time>2018-09-06T07:05:25Z</time>
      </trkpt>
      <trkpt lat="46.152570" lon="13.477808">
        <ele>326.971</ele>
        <time>2018-09-06T07:05:26Z</time>
      </trkpt>
      <trkpt lat="46.152565" lon="13.477790">
        <ele>327.481</ele>
        <time>2018-09-06T07:05:27Z</time>
      </trkpt>
      <trkpt lat="46.152562" lon="13.477769">
        <ele>327.474</ele>
        <time>2018-09-06T07:05:28Z</time>
      </trkpt>
      <trkpt lat="46.152559" lon="13.477751">
        <ele>327.428</ele>
        <time>2018-09-06T07:05:29Z</time>
      </trkpt>
      <trkpt lat="46.152559" lon="13.477689">
        <ele>328.413</ele>
        <time>2018-09-06T07:05:33Z</time>
      </trkpt>
      <trkpt lat="46.152599" lon="13.477655">
        <ele>328.943</ele>
        <time>2018-09-06T07:05:37Z</time>
      </trkpt>
      <trkpt lat="46.152613" lon="13.477657">
        <ele>328.907</ele>
        <time>2018-09-06T07:05:38Z</time>
      </trkpt>
      <trkpt lat="46.152652" lon="13.477671">
        <ele>329.308</ele>
        <time>2018-09-06T07:05:41Z</time>
      </trkpt>
      <trkpt lat="46.152667" lon="13.477677">
        <ele>329.815</ele>
        <time>2018-09-06T07:05:42Z</time>
      </trkpt>
      <trkpt lat="46.152679" lon="13.477685">
        <ele>329.867</ele>
        <time>2018-09-06T07:05:43Z</time>
      </trkpt>
      <trkpt lat="46.152692" lon="13.477697">
        <ele>330.353</ele>
        <time>2018-09-06T07:05:44Z</time>
      </trkpt>
      <trkpt lat="46.152704" lon="13.477707">
        <ele>330.859</ele>
        <time>2018-09-06T07:05:45Z</time>
      </trkpt>
      <trkpt lat="46.152741" lon="13.477731">
        <ele>332.740</ele>
        <time>2018-09-06T07:05:48Z</time>
      </trkpt>
      <trkpt lat="46.152750" lon="13.477740">
        <ele>333.210</ele>
        <time>2018-09-06T07:05:49Z</time>
      </trkpt>
      <trkpt lat="46.152879" lon="13.477762">
        <ele>335.613</ele>
        <time>2018-09-06T07:06:01Z</time>
      </trkpt>
      <trkpt lat="46.152925" lon="13.477817">
        <ele>337.547</ele>
        <time>2018-09-06T07:06:07Z</time>
      </trkpt>
      <trkpt lat="46.152936" lon="13.477820">
        <ele>338.536</ele>
        <time>2018-09-06T07:06:08Z</time>
      </trkpt>
      <trkpt lat="46.152949" lon="13.477818">
        <ele>339.017</ele>
        <time>2018-09-06T07:06:09Z</time>
      </trkpt>
      <trkpt lat="46.152962" lon="13.477819">
        <ele>339.418</ele>
        <time>2018-09-06T07:06:10Z</time>
      </trkpt>
      <trkpt lat="46.152976" lon="13.477821">
        <ele>339.908</ele>
        <time>2018-09-06T07:06:11Z</time>
      </trkpt>
      <trkpt lat="46.153225" lon="13.477800">
        <ele>344.797</ele>
        <time>2018-09-06T07:06:27Z</time>
      </trkpt>
      <trkpt lat="46.153480" lon="13.477704">
        <ele>347.169</ele>
        <time>2018-09-06T07:06:42Z</time>
      </trkpt>
      <trkpt lat="46.153668" lon="13.477588">
        <ele>344.775</ele>
        <time>2018-09-06T07:06:53Z</time>
      </trkpt>
      <trkpt lat="46.153683" lon="13.477582">
        <ele>344.761</ele>
        <time>2018-09-06T07:06:54Z</time>
      </trkpt>
      <trkpt lat="46.153696" lon="13.477574">
        <ele>344.752</ele>
        <time>2018-09-06T07:06:55Z</time>
      </trkpt>
      <trkpt lat="46.153706" lon="13.477561">
        <ele>344.742</ele>
        <time>2018-09-06T07:06:56Z</time>
      </trkpt>
      <trkpt lat="46.153714" lon="13.477544">
        <ele>344.785</ele>
        <time>2018-09-06T07:06:57Z</time>
      </trkpt>
      <trkpt lat="46.153723" lon="13.477531">
        <ele>344.799</ele>
        <time>2018-09-06T07:06:58Z</time>
      </trkpt>
      <trkpt lat="46.153736" lon="13.477521">
        <ele>344.758</ele>
        <time>2018-09-06T07:06:59Z</time>
      </trkpt>
      <trkpt lat="46.153749" lon="13.477509">
        <ele>344.752</ele>
        <time>2018-09-06T07:07:00Z</time>
      </trkpt>
      <trkpt lat="46.153762" lon="13.477497">
        <ele>344.717</ele>
        <time>2018-09-06T07:07:01Z</time>
      </trkpt>
      <trkpt lat="46.153775" lon="13.477486">
        <ele>345.208</ele>
        <time>2018-09-06T07:07:02Z</time>
      </trkpt>
      <trkpt lat="46.153785" lon="13.477468">
        <ele>345.249</ele>
        <time>2018-09-06T07:07:03Z</time>
      </trkpt>
      <trkpt lat="46.153794" lon="13.477448">
        <ele>345.221</ele>
        <time>2018-09-06T07:07:04Z</time>
      </trkpt>
      <trkpt lat="46.153803" lon="13.477433">
        <ele>345.267</ele>
        <time>2018-09-06T07:07:05Z</time>
      </trkpt>
      <trkpt lat="46.153815" lon="13.477417">
        <ele>345.243</ele>
        <time>2018-09-06T07:07:06Z</time>
      </trkpt>
      <trkpt lat="46.154023" lon="13.477145">
        <ele>351.524</ele>
        <time>2018-09-06T07:07:24Z</time>
      </trkpt>
      <trkpt lat="46.154210" lon="13.476894">
        <ele>353.974</ele>
        <time>2018-09-06T07:07:40Z</time>
      </trkpt>
      <trkpt lat="46.154437" lon="13.476593">
        <ele>357.797</ele>
        <time>2018-09-06T07:07:58Z</time>
      </trkpt>
      <trkpt lat="46.154618" lon="13.476326">
        <ele>360.681</ele>
        <time>2018-09-06T07:08:14Z</time>
      </trkpt>
      <trkpt lat="46.154791" lon="13.476041">
        <ele>362.577</ele>
        <time>2018-09-06T07:08:30Z</time>
      </trkpt>
      <trkpt lat="46.154941" lon="13.475758">
        <ele>364.061</ele>
        <time>2018-09-06T07:08:46Z</time>
      </trkpt>
      <trkpt lat="46.155020" lon="13.475624">
        <ele>364.427</ele>
        <time>2018-09-06T07:08:54Z</time>
      </trkpt>
      <trkpt lat="46.155023" lon="13.475602">
        <ele>364.408</ele>
        <time>2018-09-06T07:08:55Z</time>
      </trkpt>
      <trkpt lat="46.155183" lon="13.475349">
        <ele>366.471</ele>
        <time>2018-09-06T07:09:11Z</time>
      </trkpt>
      <trkpt lat="46.155407" lon="13.475101">
        <ele>369.773</ele>
        <time>2018-09-06T07:09:29Z</time>
      </trkpt>
      <trkpt lat="46.155584" lon="13.474844">
        <ele>372.679</ele>
        <time>2018-09-06T07:09:46Z</time>
      </trkpt>
      <trkpt lat="46.155704" lon="13.474558">
        <ele>374.075</ele>
        <time>2018-09-06T07:10:02Z</time>
      </trkpt>
      <trkpt lat="46.155730" lon="13.474370">
        <ele>374.076</ele>
        <time>2018-09-06T07:10:11Z</time>
      </trkpt>
      <trkpt lat="46.155716" lon="13.474356">
        <ele>374.586</ele>
        <time>2018-09-06T07:10:12Z</time>
      </trkpt>
      <trkpt lat="46.155705" lon="13.474338">
        <ele>374.069</ele>
        <time>2018-09-06T07:10:13Z</time>
      </trkpt>
      <trkpt lat="46.155689" lon="13.474297">
        <ele>374.013</ele>
        <time>2018-09-06T07:10:15Z</time>
      </trkpt>
      <trkpt lat="46.155678" lon="13.474280">
        <ele>374.545</ele>
        <time>2018-09-06T07:10:16Z</time>
      </trkpt>
      <trkpt lat="46.155662" lon="13.474244">
        <ele>374.547</ele>
        <time>2018-09-06T07:10:18Z</time>
      </trkpt>
      <trkpt lat="46.155657" lon="13.474221">
        <ele>374.511</ele>
        <time>2018-09-06T07:10:19Z</time>
      </trkpt>
      <trkpt lat="46.155652" lon="13.474200">
        <ele>374.508</ele>
        <time>2018-09-06T07:10:20Z</time>
      </trkpt>
      <trkpt lat="46.155624" lon="13.473823">
        <ele>374.038</ele>
        <time>2018-09-06T07:10:37Z</time>
      </trkpt>
      <trkpt lat="46.155663" lon="13.473510">
        <ele>376.060</ele>
        <time>2018-09-06T07:10:53Z</time>
      </trkpt>
      <trkpt lat="46.155549" lon="13.473224">
        <ele>380.336</ele>
        <time>2018-09-06T07:11:07Z</time>
      </trkpt>
      <trkpt lat="46.155420" lon="13.472909">
        <ele>382.792</ele>
        <time>2018-09-06T07:11:23Z</time>
      </trkpt>
      <trkpt lat="46.155292" lon="13.472585">
        <ele>385.693</ele>
        <time>2018-09-06T07:11:40Z</time>
      </trkpt>
      <trkpt lat="46.155266" lon="13.472434">
        <ele>386.593</ele>
        <time>2018-09-06T07:11:47Z</time>
      </trkpt>
      <trkpt lat="46.155198" lon="13.472124">
        <ele>387.566</ele>
        <time>2018-09-06T07:12:02Z</time>
      </trkpt>
      <trkpt lat="46.155131" lon="13.471842">
        <ele>390.480</ele>
        <time>2018-09-06T07:12:16Z</time>
      </trkpt>
      <trkpt lat="46.155069" lon="13.471688">
        <ele>392.888</ele>
        <time>2018-09-06T07:12:24Z</time>
      </trkpt>
      <trkpt lat="46.155069" lon="13.471668">
        <ele>393.324</ele>
        <time>2018-09-06T07:12:25Z</time>
      </trkpt>
      <trkpt lat="46.155066" lon="13.471630">
        <ele>394.226</ele>
        <time>2018-09-06T07:12:27Z</time>
      </trkpt>
      <trkpt lat="46.155062" lon="13.471610">
        <ele>394.208</ele>
        <time>2018-09-06T07:12:28Z</time>
      </trkpt>
      <trkpt lat="46.155058" lon="13.471588">
        <ele>394.742</ele>
        <time>2018-09-06T07:12:29Z</time>
      </trkpt>
      <trkpt lat="46.155056" lon="13.471562">
        <ele>394.734</ele>
        <time>2018-09-06T07:12:30Z</time>
      </trkpt>
      <trkpt lat="46.155055" lon="13.471536">
        <ele>394.710</ele>
        <time>2018-09-06T07:12:31Z</time>
      </trkpt>
      <trkpt lat="46.155053" lon="13.471512">
        <ele>394.726</ele>
        <time>2018-09-06T07:12:32Z</time>
      </trkpt>
      <trkpt lat="46.155046" lon="13.471382">
        <ele>394.727</ele>
        <time>2018-09-06T07:12:37Z</time>
      </trkpt>
      <trkpt lat="46.155056" lon="13.471300">
        <ele>393.867</ele>
        <time>2018-09-06T07:12:40Z</time>
      </trkpt>
      <trkpt lat="46.155175" lon="13.471272">
        <ele>395.250</ele>
        <time>2018-09-06T07:12:50Z</time>
      </trkpt>
      <trkpt lat="46.155402" lon="13.471373">
        <ele>400.554</ele>
        <time>2018-09-06T07:13:04Z</time>
      </trkpt>
      <trkpt lat="46.155587" lon="13.471394">
        <ele>406.272</ele>
        <time>2018-09-06T07:13:14Z</time>
      </trkpt>
      <trkpt lat="46.155606" lon="13.471394">
        <ele>406.713</ele>
        <time>2018-09-06T07:13:15Z</time>
      </trkpt>
      <trkpt lat="46.155627" lon="13.471395">
        <ele>406.714</ele>
        <time>2018-09-06T07:13:16Z</time>
      </trkpt>
      <trkpt lat="46.155647" lon="13.471392">
        <ele>407.208</ele>
        <time>2018-09-06T07:13:17Z</time>
      </trkpt>
      <trkpt lat="46.155666" lon="13.471387">
        <ele>407.731</ele>
        <time>2018-09-06T07:13:18Z</time>
      </trkpt>
      <trkpt lat="46.155685" lon="13.471383">
        <ele>408.273</ele>
        <time>2018-09-06T07:13:19Z</time>
      </trkpt>
      <trkpt lat="46.155955" lon="13.471465">
        <ele>415.979</ele>
        <time>2018-09-06T07:13:36Z</time>
      </trkpt>
      <trkpt lat="46.156105" lon="13.471693">
        <ele>409.115</ele>
        <time>2018-09-06T07:13:51Z</time>
      </trkpt>
      <trkpt lat="46.156392" lon="13.471640">
        <ele>408.226</ele>
        <time>2018-09-06T07:14:09Z</time>
      </trkpt>
      <trkpt lat="46.156622" lon="13.471579">
        <ele>409.696</ele>
        <time>2018-09-06T07:14:24Z</time>
      </trkpt>
      <trkpt lat="46.156877" lon="13.471450">
        <ele>412.589</ele>
        <time>2018-09-06T07:14:41Z</time>
      </trkpt>
      <trkpt lat="46.157099" lon="13.471235">
        <ele>417.343</ele>
        <time>2018-09-06T07:14:58Z</time>
      </trkpt>
      <trkpt lat="46.157291" lon="13.470912">
        <ele>420.292</ele>
        <time>2018-09-06T07:15:17Z</time>
      </trkpt>
      <trkpt lat="46.157408" lon="13.470621">
        <ele>423.173</ele>
        <time>2018-09-06T07:15:33Z</time>
      </trkpt>
      <trkpt lat="46.157414" lon="13.470579">
        <ele>422.620</ele>
        <time>2018-09-06T07:15:35Z</time>
      </trkpt>
      <trkpt lat="46.157420" lon="13.470558">
        <ele>422.608</ele>
        <time>2018-09-06T07:15:36Z</time>
      </trkpt>
      <trkpt lat="46.157424" lon="13.470531">
        <ele>422.193</ele>
        <time>2018-09-06T07:15:37Z</time>
      </trkpt>
      <trkpt lat="46.157427" lon="13.470506">
        <ele>421.645</ele>
        <time>2018-09-06T07:15:38Z</time>
      </trkpt>
      <trkpt lat="46.157432" lon="13.470482">
        <ele>421.621</ele>
        <time>2018-09-06T07:15:39Z</time>
      </trkpt>
      <trkpt lat="46.157438" lon="13.470458">
        <ele>421.657</ele>
        <time>2018-09-06T07:15:40Z</time>
      </trkpt>
      <trkpt lat="46.157606" lon="13.470181">
        <ele>422.168</ele>
        <time>2018-09-06T07:15:56Z</time>
      </trkpt>
      <trkpt lat="46.157854" lon="13.469955">
        <ele>425.598</ele>
        <time>2018-09-06T07:16:14Z</time>
      </trkpt>
      <trkpt lat="46.158041" lon="13.469748">
        <ele>427.431</ele>
        <time>2018-09-06T07:16:28Z</time>
      </trkpt>
      <trkpt lat="46.158067" lon="13.469714">
        <ele>426.935</ele>
        <time>2018-09-06T07:16:30Z</time>
      </trkpt>
      <trkpt lat="46.158171" lon="13.469469">
        <ele>428.812</ele>
        <time>2018-09-06T07:16:43Z</time>
      </trkpt>
      <trkpt lat="46.158169" lon="13.469453">
        <ele>429.332</ele>
        <time>2018-09-06T07:16:44Z</time>
      </trkpt>
      <trkpt lat="46.158168" lon="13.469434">
        <ele>429.305</ele>
        <time>2018-09-06T07:16:45Z</time>
      </trkpt>
      <trkpt lat="46.158179" lon="13.469400">
        <ele>430.308</ele>
        <time>2018-09-06T07:16:47Z</time>
      </trkpt>
      <trkpt lat="46.158190" lon="13.469385">
        <ele>430.825</ele>
        <time>2018-09-06T07:16:48Z</time>
      </trkpt>
      <trkpt lat="46.158198" lon="13.469368">
        <ele>431.267</ele>
        <time>2018-09-06T07:16:49Z</time>
      </trkpt>
      <trkpt lat="46.158220" lon="13.469320">
        <ele>431.743</ele>
        <time>2018-09-06T07:16:52Z</time>
      </trkpt>
      <trkpt lat="46.158225" lon="13.469300">
        <ele>431.779</ele>
        <time>2018-09-06T07:16:53Z</time>
      </trkpt>
      <trkpt lat="46.158229" lon="13.469282">
        <ele>431.750</ele>
        <time>2018-09-06T07:16:54Z</time>
      </trkpt>
      <trkpt lat="46.158339" lon="13.468969">
        <ele>432.260</ele>
        <time>2018-09-06T07:17:11Z</time>
      </trkpt>
      <trkpt lat="46.158345" lon="13.468954">
        <ele>432.793</ele>
        <time>2018-09-06T07:17:12Z</time>
      </trkpt>
      <trkpt lat="46.158351" lon="13.468937">
        <ele>433.287</ele>
        <time>2018-09-06T07:17:13Z</time>
      </trkpt>
      <trkpt lat="46.158419" lon="13.468709">
        <ele>435.657</ele>
        <time>2018-09-06T07:17:25Z</time>
      </trkpt>
      <trkpt lat="46.158426" lon="13.468689">
        <ele>435.600</ele>
        <time>2018-09-06T07:17:26Z</time>
      </trkpt>
      <trkpt lat="46.158433" lon="13.468670">
        <ele>436.120</ele>
        <time>2018-09-06T07:17:27Z</time>
      </trkpt>
      <trkpt lat="46.158441" lon="13.468652">
        <ele>436.508</ele>
        <time>2018-09-06T07:17:28Z</time>
      </trkpt>
      <trkpt lat="46.158444" lon="13.468633">
        <ele>437.069</ele>
        <time>2018-09-06T07:17:29Z</time>
      </trkpt>
      <trkpt lat="46.158444" lon="13.468617">
        <ele>437.081</ele>
        <time>2018-09-06T07:17:30Z</time>
      </trkpt>
      <trkpt lat="46.158440" lon="13.468599">
        <ele>437.057</ele>
        <time>2018-09-06T07:17:31Z</time>
      </trkpt>
      <trkpt lat="46.158438" lon="13.468578">
        <ele>437.073</ele>
        <time>2018-09-06T07:17:32Z</time>
      </trkpt>
      <trkpt lat="46.158449" lon="13.468428">
        <ele>438.584</ele>
        <time>2018-09-06T07:17:40Z</time>
      </trkpt>
      <trkpt lat="46.158444" lon="13.468411">
        <ele>438.584</ele>
        <time>2018-09-06T07:17:41Z</time>
      </trkpt>
      <trkpt lat="46.158439" lon="13.468393">
        <ele>438.097</ele>
        <time>2018-09-06T07:17:42Z</time>
      </trkpt>
      <trkpt lat="46.158432" lon="13.468380">
        <ele>438.091</ele>
        <time>2018-09-06T07:17:43Z</time>
      </trkpt>
      <trkpt lat="46.158427" lon="13.468364">
        <ele>438.067</ele>
        <time>2018-09-06T07:17:44Z</time>
      </trkpt>
      <trkpt lat="46.158423" lon="13.468330">
        <ele>437.581</ele>
        <time>2018-09-06T07:17:46Z</time>
      </trkpt>
      <trkpt lat="46.158424" lon="13.468312">
        <ele>437.519</ele>
        <time>2018-09-06T07:17:47Z</time>
      </trkpt>
      <trkpt lat="46.158421" lon="13.468292">
        <ele>438.008</ele>
        <time>2018-09-06T07:17:48Z</time>
      </trkpt>
      <trkpt lat="46.158412" lon="13.468203">
        <ele>438.970</ele>
        <time>2018-09-06T07:17:53Z</time>
      </trkpt>
      <trkpt lat="46.158372" lon="13.468030">
        <ele>440.982</ele>
        <time>2018-09-06T07:18:03Z</time>
      </trkpt>
      <trkpt lat="46.158297" lon="13.467723">
        <ele>443.748</ele>
        <time>2018-09-06T07:18:19Z</time>
      </trkpt>
      <trkpt lat="46.158226" lon="13.467405">
        <ele>446.634</ele>
        <time>2018-09-06T07:18:35Z</time>
      </trkpt>
      <trkpt lat="46.158225" lon="13.467387">
        <ele>446.625</ele>
        <time>2018-09-06T07:18:36Z</time>
      </trkpt>
      <trkpt lat="46.158221" lon="13.467369">
        <ele>446.655</ele>
        <time>2018-09-06T07:18:37Z</time>
      </trkpt>
      <trkpt lat="46.158198" lon="13.467253">
        <ele>446.688</ele>
        <time>2018-09-06T07:18:43Z</time>
      </trkpt>
      <trkpt lat="46.158193" lon="13.467228">
        <ele>446.652</ele>
        <time>2018-09-06T07:18:44Z</time>
      </trkpt>
      <trkpt lat="46.158192" lon="13.467205">
        <ele>446.663</ele>
        <time>2018-09-06T07:18:45Z</time>
      </trkpt>
      <trkpt lat="46.158196" lon="13.467180">
        <ele>446.644</ele>
        <time>2018-09-06T07:18:46Z</time>
      </trkpt>
      <trkpt lat="46.158197" lon="13.467154">
        <ele>446.618</ele>
        <time>2018-09-06T07:18:47Z</time>
      </trkpt>
      <trkpt lat="46.158195" lon="13.467133">
        <ele>446.608</ele>
        <time>2018-09-06T07:18:48Z</time>
      </trkpt>
      <trkpt lat="46.158193" lon="13.467115">
        <ele>446.110</ele>
        <time>2018-09-06T07:18:49Z</time>
      </trkpt>
      <trkpt lat="46.158191" lon="13.467096">
        <ele>446.132</ele>
        <time>2018-09-06T07:18:50Z</time>
      </trkpt>
      <trkpt lat="46.158189" lon="13.467072">
        <ele>446.168</ele>
        <time>2018-09-06T07:18:51Z</time>
      </trkpt>
      <trkpt lat="46.158152" lon="13.466733">
        <ele>448.574</ele>
        <time>2018-09-06T07:19:04Z</time>
      </trkpt>
      <trkpt lat="46.158127" lon="13.466496">
        <ele>455.865</ele>
        <time>2018-09-06T07:19:15Z</time>
      </trkpt>
      <trkpt lat="46.158156" lon="13.466164">
        <ele>463.955</ele>
        <time>2018-09-06T07:19:27Z</time>
      </trkpt>
      <trkpt lat="46.158247" lon="13.465703">
        <ele>466.898</ele>
        <time>2018-09-06T07:19:43Z</time>
      </trkpt>
      <trkpt lat="46.158370" lon="13.465310">
        <ele>469.782</ele>
        <time>2018-09-06T07:20:00Z</time>
      </trkpt>
      <trkpt lat="46.158467" lon="13.465006">
        <ele>473.112</ele>
        <time>2018-09-06T07:20:13Z</time>
      </trkpt>
      <trkpt lat="46.158552" lon="13.464628">
        <ele>474.032</ele>
        <time>2018-09-06T07:20:28Z</time>
      </trkpt>
      <trkpt lat="46.158560" lon="13.464580">
        <ele>473.505</ele>
        <time>2018-09-06T07:20:30Z</time>
      </trkpt>
      <trkpt lat="46.158581" lon="13.464272">
        <ele>473.108</ele>
        <time>2018-09-06T07:20:44Z</time>
      </trkpt>
      <trkpt lat="46.158577" lon="13.464253">
        <ele>473.555</ele>
        <time>2018-09-06T07:20:45Z</time>
      </trkpt>
      <trkpt lat="46.158575" lon="13.464231">
        <ele>473.537</ele>
        <time>2018-09-06T07:20:46Z</time>
      </trkpt>
      <trkpt lat="46.158575" lon="13.464211">
        <ele>473.593</ele>
        <time>2018-09-06T07:20:47Z</time>
      </trkpt>
      <trkpt lat="46.158576" lon="13.464188">
        <ele>473.589</ele>
        <time>2018-09-06T07:20:48Z</time>
      </trkpt>
      <trkpt lat="46.158577" lon="13.464164">
        <ele>474.010</ele>
        <time>2018-09-06T07:20:49Z</time>
      </trkpt>
      <trkpt lat="46.158578" lon="13.464140">
        <ele>474.050</ele>
        <time>2018-09-06T07:20:50Z</time>
      </trkpt>
      <trkpt lat="46.158578" lon="13.464120">
        <ele>474.553</ele>
        <time>2018-09-06T07:20:51Z</time>
      </trkpt>
      <trkpt lat="46.158578" lon="13.464101">
        <ele>474.557</ele>
        <time>2018-09-06T07:20:52Z</time>
      </trkpt>
      <trkpt lat="46.158579" lon="13.464079">
        <ele>475.046</ele>
        <time>2018-09-06T07:20:53Z</time>
      </trkpt>
      <trkpt lat="46.158578" lon="13.464058">
        <ele>475.088</ele>
        <time>2018-09-06T07:20:54Z</time>
      </trkpt>
      <trkpt lat="46.158578" lon="13.464033">
        <ele>475.016</ele>
        <time>2018-09-06T07:20:55Z</time>
      </trkpt>
      <trkpt lat="46.158574" lon="13.464010">
        <ele>475.008</ele>
        <time>2018-09-06T07:20:56Z</time>
      </trkpt>
      <trkpt lat="46.158573" lon="13.463990">
        <ele>475.038</ele>
        <time>2018-09-06T07:20:57Z</time>
      </trkpt>
      <trkpt lat="46.158571" lon="13.463849">
        <ele>474.550</ele>
        <time>2018-09-06T07:21:03Z</time>
      </trkpt>
      <trkpt lat="46.158577" lon="13.463823">
        <ele>474.096</ele>
        <time>2018-09-06T07:21:04Z</time>
      </trkpt>
      <trkpt lat="46.158585" lon="13.463793">
        <ele>473.562</ele>
        <time>2018-09-06T07:21:05Z</time>
      </trkpt>
      <trkpt lat="46.158591" lon="13.463766">
        <ele>473.533</ele>
        <time>2018-09-06T07:21:06Z</time>
      </trkpt>
      <trkpt lat="46.158601" lon="13.463746">
        <ele>473.563</ele>
        <time>2018-09-06T07:21:07Z</time>
      </trkpt>
      <trkpt lat="46.158615" lon="13.463733">
        <ele>473.566</ele>
        <time>2018-09-06T07:21:08Z</time>
      </trkpt>
      <trkpt lat="46.158631" lon="13.463721">
        <ele>473.510</ele>
        <time>2018-09-06T07:21:09Z</time>
      </trkpt>
      <trkpt lat="46.158655" lon="13.463711">
        <ele>474.016</ele>
        <time>2018-09-06T07:21:10Z</time>
      </trkpt>
      <trkpt lat="46.158673" lon="13.463714">
        <ele>474.076</ele>
        <time>2018-09-06T07:21:11Z</time>
      </trkpt>
      <trkpt lat="46.158688" lon="13.463714">
        <ele>474.513</ele>
        <time>2018-09-06T07:21:12Z</time>
      </trkpt>
      <trkpt lat="46.158703" lon="13.463715">
        <ele>475.008</ele>
        <time>2018-09-06T07:21:13Z</time>
      </trkpt>
      <trkpt lat="46.158947" lon="13.463761">
        <ele>486.075</ele>
        <time>2018-09-06T07:21:29Z</time>
      </trkpt>
      <trkpt lat="46.159089" lon="13.463509">
        <ele>484.197</ele>
        <time>2018-09-06T07:21:44Z</time>
      </trkpt>
      <trkpt lat="46.159237" lon="13.463298">
        <ele>485.183</ele>
        <time>2018-09-06T07:21:58Z</time>
      </trkpt>
      <trkpt lat="46.159374" lon="13.462974">
        <ele>487.539</ele>
        <time>2018-09-06T07:22:14Z</time>
      </trkpt>
      <trkpt lat="46.159381" lon="13.462952">
        <ele>487.530</ele>
        <time>2018-09-06T07:22:15Z</time>
      </trkpt>
      <trkpt lat="46.159385" lon="13.462927">
        <ele>487.060</ele>
        <time>2018-09-06T07:22:16Z</time>
      </trkpt>
      <trkpt lat="46.159390" lon="13.462902">
        <ele>487.013</ele>
        <time>2018-09-06T07:22:17Z</time>
      </trkpt>
      <trkpt lat="46.159396" lon="13.462879">
        <ele>486.587</ele>
        <time>2018-09-06T07:22:18Z</time>
      </trkpt>
      <trkpt lat="46.159402" lon="13.462857">
        <ele>486.022</ele>
        <time>2018-09-06T07:22:19Z</time>
      </trkpt>
      <trkpt lat="46.159408" lon="13.462834">
        <ele>485.662</ele>
        <time>2018-09-06T07:22:20Z</time>
      </trkpt>
      <trkpt lat="46.159412" lon="13.462812">
        <ele>485.108</ele>
        <time>2018-09-06T07:22:21Z</time>
      </trkpt>
      <trkpt lat="46.159416" lon="13.462792">
        <ele>485.108</ele>
        <time>2018-09-06T07:22:22Z</time>
      </trkpt>
      <trkpt lat="46.159423" lon="13.462771">
        <ele>484.676</ele>
        <time>2018-09-06T07:22:23Z</time>
      </trkpt>
      <trkpt lat="46.159430" lon="13.462754">
        <ele>484.198</ele>
        <time>2018-09-06T07:22:24Z</time>
      </trkpt>
      <trkpt lat="46.159437" lon="13.462736">
        <ele>484.144</ele>
        <time>2018-09-06T07:22:25Z</time>
      </trkpt>
      <trkpt lat="46.159574" lon="13.462457">
        <ele>482.730</ele>
        <time>2018-09-06T07:22:39Z</time>
      </trkpt>
      <trkpt lat="46.159769" lon="13.462274">
        <ele>491.351</ele>
        <time>2018-09-06T07:22:53Z</time>
      </trkpt>
      <trkpt lat="46.160019" lon="13.462197">
        <ele>505.311</ele>
        <time>2018-09-06T07:23:07Z</time>
      </trkpt>
      <trkpt lat="46.160227" lon="13.462464">
        <ele>505.324</ele>
        <time>2018-09-06T07:23:20Z</time>
      </trkpt>
      <trkpt lat="46.160442" lon="13.462664">
        <ele>495.738</ele>
        <time>2018-09-06T07:23:37Z</time>
      </trkpt>
      <trkpt lat="46.160680" lon="13.462661">
        <ele>494.781</ele>
        <time>2018-09-06T07:23:52Z</time>
      </trkpt>
      <trkpt lat="46.160928" lon="13.462616">
        <ele>495.761</ele>
        <time>2018-09-06T07:24:08Z</time>
      </trkpt>
      <trkpt lat="46.161044" lon="13.462552">
        <ele>495.217</ele>
        <time>2018-09-06T07:24:17Z</time>
      </trkpt>
      <trkpt lat="46.161057" lon="13.462543">
        <ele>495.208</ele>
        <time>2018-09-06T07:24:18Z</time>
      </trkpt>
      <trkpt lat="46.161070" lon="13.462535">
        <ele>495.222</ele>
        <time>2018-09-06T07:24:19Z</time>
      </trkpt>
      <trkpt lat="46.161083" lon="13.462530">
        <ele>495.284</ele>
        <time>2018-09-06T07:24:20Z</time>
      </trkpt>
      <trkpt lat="46.161094" lon="13.462521">
        <ele>495.250</ele>
        <time>2018-09-06T07:24:21Z</time>
      </trkpt>
      <trkpt lat="46.161102" lon="13.462475">
        <ele>493.716</ele>
        <time>2018-09-06T07:24:34Z</time>
      </trkpt>
      <trkpt lat="46.161102" lon="13.462464">
        <ele>488.047</ele>
        <time>2018-09-06T07:24:54Z</time>
      </trkpt>
      <trkpt lat="46.161112" lon="13.462421">
        <ele>487.547</ele>
        <time>2018-09-06T07:25:03Z</time>
      </trkpt>
      <trkpt lat="46.161119" lon="13.462406">
        <ele>487.580</ele>
        <time>2018-09-06T07:25:04Z</time>
      </trkpt>
      <trkpt lat="46.161280" lon="13.462195">
        <ele>489.454</ele>
        <time>2018-09-06T07:25:19Z</time>
      </trkpt>
      <trkpt lat="46.161439" lon="13.462067">
        <ele>494.214</ele>
        <time>2018-09-06T07:25:31Z</time>
      </trkpt>
      <trkpt lat="46.161652" lon="13.461952">
        <ele>496.654</ele>
        <time>2018-09-06T07:25:44Z</time>
      </trkpt>
      <trkpt lat="46.161745" lon="13.461929">
        <ele>498.109</ele>
        <time>2018-09-06T07:25:50Z</time>
      </trkpt>
      <trkpt lat="46.161755" lon="13.461909">
        <ele>498.508</ele>
        <time>2018-09-06T07:25:51Z</time>
      </trkpt>
      <trkpt lat="46.161762" lon="13.461891">
        <ele>499.055</ele>
        <time>2018-09-06T07:25:52Z</time>
      </trkpt>
      <trkpt lat="46.161761" lon="13.461868">
        <ele>499.057</ele>
        <time>2018-09-06T07:25:53Z</time>
      </trkpt>
      <trkpt lat="46.161749" lon="13.461849">
        <ele>499.553</ele>
        <time>2018-09-06T07:25:54Z</time>
      </trkpt>
      <trkpt lat="46.161735" lon="13.461838">
        <ele>499.539</ele>
        <time>2018-09-06T07:25:55Z</time>
      </trkpt>
      <trkpt lat="46.161717" lon="13.461830">
        <ele>500.050</ele>
        <time>2018-09-06T07:25:56Z</time>
      </trkpt>
      <trkpt lat="46.161516" lon="13.461874">
        <ele>499.080</ele>
        <time>2018-09-06T07:26:09Z</time>
      </trkpt>
      <trkpt lat="46.161279" lon="13.461898">
        <ele>501.453</ele>
        <time>2018-09-06T07:26:25Z</time>
      </trkpt>
      <trkpt lat="46.161049" lon="13.461863">
        <ele>504.867</ele>
        <time>2018-09-06T07:26:41Z</time>
      </trkpt>
      <trkpt lat="46.160819" lon="13.461770">
        <ele>508.651</ele>
        <time>2018-09-06T07:26:57Z</time>
      </trkpt>
      <trkpt lat="46.160825" lon="13.461753">
        <ele>509.101</ele>
        <time>2018-09-06T07:26:58Z</time>
      </trkpt>
      <trkpt lat="46.160841" lon="13.461728">
        <ele>509.611</ele>
        <time>2018-09-06T07:27:00Z</time>
      </trkpt>
      <trkpt lat="46.160854" lon="13.461724">
        <ele>509.608</ele>
        <time>2018-09-06T07:27:01Z</time>
      </trkpt>
      <trkpt lat="46.160868" lon="13.461726">
        <ele>509.669</ele>
        <time>2018-09-06T07:27:02Z</time>
      </trkpt>
      <trkpt lat="46.160880" lon="13.461728">
        <ele>509.651</ele>
        <time>2018-09-06T07:27:03Z</time>
      </trkpt>
      <trkpt lat="46.160893" lon="13.461729">
        <ele>509.687</ele>
        <time>2018-09-06T07:27:04Z</time>
      </trkpt>
      <trkpt lat="46.161005" lon="13.461730">
        <ele>512.543</ele>
        <time>2018-09-06T07:27:13Z</time>
      </trkpt>
      <trkpt lat="46.161046" lon="13.461723">
        <ele>513.464</ele>
        <time>2018-09-06T07:27:16Z</time>
      </trkpt>
      <trkpt lat="46.161059" lon="13.461718">
        <ele>513.464</ele>
        <time>2018-09-06T07:27:17Z</time>
      </trkpt>
      <trkpt lat="46.161071" lon="13.461715">
        <ele>513.997</ele>
        <time>2018-09-06T07:27:18Z</time>
      </trkpt>
      <trkpt lat="46.161083" lon="13.461712">
        <ele>514.431</ele>
        <time>2018-09-06T07:27:19Z</time>
      </trkpt>
      <trkpt lat="46.161099" lon="13.461709">
        <ele>514.453</ele>
        <time>2018-09-06T07:27:20Z</time>
      </trkpt>
      <trkpt lat="46.161114" lon="13.461705">
        <ele>514.904</ele>
        <time>2018-09-06T07:27:21Z</time>
      </trkpt>
      <trkpt lat="46.161127" lon="13.461696">
        <ele>514.914</ele>
        <time>2018-09-06T07:27:22Z</time>
      </trkpt>
      <trkpt lat="46.161138" lon="13.461686">
        <ele>514.908</ele>
        <time>2018-09-06T07:27:23Z</time>
      </trkpt>
      <trkpt lat="46.161152" lon="13.461670">
        <ele>515.429</ele>
        <time>2018-09-06T07:27:24Z</time>
      </trkpt>
      <trkpt lat="46.161165" lon="13.461651">
        <ele>515.471</ele>
        <time>2018-09-06T07:27:25Z</time>
      </trkpt>
      <trkpt lat="46.161180" lon="13.461640">
        <ele>515.877</ele>
        <time>2018-09-06T07:27:26Z</time>
      </trkpt>
      <trkpt lat="46.161386" lon="13.461512">
        <ele>522.183</ele>
        <time>2018-09-06T07:27:41Z</time>
      </trkpt>
      <trkpt lat="46.161618" lon="13.461314">
        <ele>529.364</ele>
        <time>2018-09-06T07:27:57Z</time>
      </trkpt>
      <trkpt lat="46.161884" lon="13.461298">
        <ele>531.284</ele>
        <time>2018-09-06T07:28:11Z</time>
      </trkpt>
      <trkpt lat="46.162154" lon="13.461228">
        <ele>527.427</ele>
        <time>2018-09-06T07:28:27Z</time>
      </trkpt>
      <trkpt lat="46.162167" lon="13.461213">
        <ele>526.931</ele>
        <time>2018-09-06T07:28:28Z</time>
      </trkpt>
      <trkpt lat="46.162182" lon="13.461200">
        <ele>526.926</ele>
        <time>2018-09-06T07:28:29Z</time>
      </trkpt>
      <trkpt lat="46.162434" lon="13.460942">
        <ele>525.047</ele>
        <time>2018-09-06T07:28:45Z</time>
      </trkpt>
      <trkpt lat="46.162473" lon="13.460875">
        <ele>524.511</ele>
        <time>2018-09-06T07:28:48Z</time>
      </trkpt>
      <trkpt lat="46.162624" lon="13.460594">
        <ele>525.908</ele>
        <time>2018-09-06T07:29:03Z</time>
      </trkpt>
      <trkpt lat="46.162819" lon="13.460484">
        <ele>532.256</ele>
        <time>2018-09-06T07:29:18Z</time>
      </trkpt>
      <trkpt lat="46.162835" lon="13.460486">
        <ele>532.788</ele>
        <time>2018-09-06T07:29:19Z</time>
      </trkpt>
      <trkpt lat="46.162851" lon="13.460492">
        <ele>533.144</ele>
        <time>2018-09-06T07:29:20Z</time>
      </trkpt>
      <trkpt lat="46.162865" lon="13.460498">
        <ele>533.620</ele>
        <time>2018-09-06T07:29:21Z</time>
      </trkpt>
      <trkpt lat="46.162877" lon="13.460508">
        <ele>534.131</ele>
        <time>2018-09-06T07:29:22Z</time>
      </trkpt>
      <trkpt lat="46.162888" lon="13.460524">
        <ele>534.621</ele>
        <time>2018-09-06T07:29:23Z</time>
      </trkpt>
      <trkpt lat="46.162900" lon="13.460543">
        <ele>535.134</ele>
        <time>2018-09-06T07:29:24Z</time>
      </trkpt>
      <trkpt lat="46.162910" lon="13.460563">
        <ele>535.598</ele>
        <time>2018-09-06T07:29:25Z</time>
      </trkpt>
      <trkpt lat="46.162920" lon="13.460583">
        <ele>535.566</ele>
        <time>2018-09-06T07:29:26Z</time>
      </trkpt>
      <trkpt lat="46.162928" lon="13.460602">
        <ele>536.029</ele>
        <time>2018-09-06T07:29:27Z</time>
      </trkpt>
      <trkpt lat="46.162931" lon="13.460624">
        <ele>536.021</ele>
        <time>2018-09-06T07:29:28Z</time>
      </trkpt>
      <trkpt lat="46.162927" lon="13.460648">
        <ele>536.008</ele>
        <time>2018-09-06T07:29:29Z</time>
      </trkpt>
      <trkpt lat="46.162879" lon="13.460895">
        <ele>536.570</ele>
        <time>2018-09-06T07:29:41Z</time>
      </trkpt>
      <trkpt lat="46.163013" lon="13.461198">
        <ele>533.662</ele>
        <time>2018-09-06T07:29:55Z</time>
      </trkpt>
      <trkpt lat="46.163221" lon="13.461461">
        <ele>533.688</ele>
        <time>2018-09-06T07:30:12Z</time>
      </trkpt>
      <trkpt lat="46.163484" lon="13.461540">
        <ele>535.574</ele>
        <time>2018-09-06T07:30:28Z</time>
      </trkpt>
      <trkpt lat="46.163721" lon="13.461408">
        <ele>537.085</ele>
        <time>2018-09-06T07:30:43Z</time>
      </trkpt>
      <trkpt lat="46.163988" lon="13.461354">
        <ele>536.535</ele>
        <time>2018-09-06T07:30:58Z</time>
      </trkpt>
      <trkpt lat="46.164095" lon="13.461341">
        <ele>536.098</ele>
        <time>2018-09-06T07:31:04Z</time>
      </trkpt>
      <trkpt lat="46.164113" lon="13.461343">
        <ele>536.032</ele>
        <time>2018-09-06T07:31:05Z</time>
      </trkpt>
      <trkpt lat="46.164130" lon="13.461345">
        <ele>536.049</ele>
        <time>2018-09-06T07:31:06Z</time>
      </trkpt>
      <trkpt lat="46.164148" lon="13.461346">
        <ele>536.002</ele>
        <time>2018-09-06T07:31:07Z</time>
      </trkpt>
      <trkpt lat="46.164167" lon="13.461348">
        <ele>536.022</ele>
        <time>2018-09-06T07:31:08Z</time>
      </trkpt>
      <trkpt lat="46.164188" lon="13.461347">
        <ele>535.508</ele>
        <time>2018-09-06T07:31:09Z</time>
      </trkpt>
      <trkpt lat="46.164400" lon="13.461538">
        <ele>538.968</ele>
        <time>2018-09-06T07:31:23Z</time>
      </trkpt>
      <trkpt lat="46.164400" lon="13.461566">
        <ele>538.910</ele>
        <time>2018-09-06T07:31:24Z</time>
      </trkpt>
      <trkpt lat="46.164395" lon="13.461595">
        <ele>539.416</ele>
        <time>2018-09-06T07:31:25Z</time>
      </trkpt>
      <trkpt lat="46.164276" lon="13.461916">
        <ele>542.812</ele>
        <time>2018-09-06T07:31:38Z</time>
      </trkpt>
      <trkpt lat="46.164419" lon="13.462314">
        <ele>546.133</ele>
        <time>2018-09-06T07:31:56Z</time>
      </trkpt>
      <trkpt lat="46.164723" lon="13.462491">
        <ele>547.183</ele>
        <time>2018-09-06T07:32:12Z</time>
      </trkpt>
      <trkpt lat="46.165073" lon="13.462422">
        <ele>550.496</ele>
        <time>2018-09-06T07:32:29Z</time>
      </trkpt>
      <trkpt lat="46.165318" lon="13.462150">
        <ele>552.960</ele>
        <time>2018-09-06T07:32:47Z</time>
      </trkpt>
      <trkpt lat="46.165495" lon="13.461864">
        <ele>556.791</ele>
        <time>2018-09-06T07:33:03Z</time>
      </trkpt>
      <trkpt lat="46.165678" lon="13.461616">
        <ele>558.681</ele>
        <time>2018-09-06T07:33:17Z</time>
      </trkpt>
      <trkpt lat="46.165893" lon="13.461415">
        <ele>560.119</ele>
        <time>2018-09-06T07:33:31Z</time>
      </trkpt>
      <trkpt lat="46.165941" lon="13.461391">
        <ele>559.608</ele>
        <time>2018-09-06T07:33:34Z</time>
      </trkpt>
      <trkpt lat="46.165956" lon="13.461388">
        <ele>559.653</ele>
        <time>2018-09-06T07:33:35Z</time>
      </trkpt>
      <trkpt lat="46.165972" lon="13.461382">
        <ele>560.115</ele>
        <time>2018-09-06T07:33:36Z</time>
      </trkpt>
      <trkpt lat="46.165991" lon="13.461380">
        <ele>560.591</ele>
        <time>2018-09-06T07:33:37Z</time>
      </trkpt>
      <trkpt lat="46.166011" lon="13.461384">
        <ele>560.517</ele>
        <time>2018-09-06T07:33:38Z</time>
      </trkpt>
      <trkpt lat="46.166031" lon="13.461392">
        <ele>561.048</ele>
        <time>2018-09-06T07:33:39Z</time>
      </trkpt>
      <trkpt lat="46.166051" lon="13.461403">
        <ele>561.048</ele>
        <time>2018-09-06T07:33:40Z</time>
      </trkpt>
      <trkpt lat="46.166255" lon="13.461635">
        <ele>561.591</ele>
        <time>2018-09-06T07:33:55Z</time>
      </trkpt>
      <trkpt lat="46.166406" lon="13.461829">
        <ele>563.425</ele>
        <time>2018-09-06T07:34:10Z</time>
      </trkpt>
      <trkpt lat="46.166564" lon="13.461983">
        <ele>565.895</ele>
        <time>2018-09-06T07:34:24Z</time>
      </trkpt>
      <trkpt lat="46.166787" lon="13.462176">
        <ele>568.749</ele>
        <time>2018-09-06T07:34:41Z</time>
      </trkpt>
      <trkpt lat="46.166997" lon="13.462249">
        <ele>570.623</ele>
        <time>2018-09-06T07:34:57Z</time>
      </trkpt>
      <trkpt lat="46.167007" lon="13.462246">
        <ele>571.108</ele>
        <time>2018-09-06T07:34:58Z</time>
      </trkpt>
      <trkpt lat="46.167014" lon="13.462236">
        <ele>571.163</ele>
        <time>2018-09-06T07:34:59Z</time>
      </trkpt>
      <trkpt lat="46.167018" lon="13.462223">
        <ele>571.145</ele>
        <time>2018-09-06T07:35:00Z</time>
      </trkpt>
      <trkpt lat="46.167014" lon="13.462205">
        <ele>571.621</ele>
        <time>2018-09-06T07:35:01Z</time>
      </trkpt>
      <trkpt lat="46.167006" lon="13.462190">
        <ele>571.697</ele>
        <time>2018-09-06T07:35:02Z</time>
      </trkpt>
      <trkpt lat="46.166999" lon="13.462176">
        <ele>572.188</ele>
        <time>2018-09-06T07:35:03Z</time>
      </trkpt>
      <trkpt lat="46.166986" lon="13.462163">
        <ele>572.158</ele>
        <time>2018-09-06T07:35:04Z</time>
      </trkpt>
      <trkpt lat="46.166975" lon="13.462152">
        <ele>572.191</ele>
        <time>2018-09-06T07:35:05Z</time>
      </trkpt>
      <trkpt lat="46.166965" lon="13.462149">
        <ele>572.625</ele>
        <time>2018-09-06T07:35:17Z</time>
      </trkpt>
      <trkpt lat="46.166953" lon="13.462138">
        <ele>570.241</ele>
        <time>2018-09-06T07:35:48Z</time>
      </trkpt>
      <trkpt lat="46.166953" lon="13.462134">
        <ele>570.281</ele>
        <time>2018-09-06T07:36:12Z</time>
      </trkpt>
      <trkpt lat="46.166974" lon="13.462133">
        <ele>568.709</ele>
        <time>2018-09-06T07:36:55Z</time>
      </trkpt>
      <trkpt lat="46.166967" lon="13.462148">
        <ele>571.108</ele>
        <time>2018-09-06T07:37:35Z</time>
      </trkpt>
      <trkpt lat="46.166974" lon="13.462165">
        <ele>572.688</ele>
        <time>2018-09-06T07:38:06Z</time>
      </trkpt>
      <trkpt lat="46.166995" lon="13.462148">
        <ele>571.620</ele>
        <time>2018-09-06T07:38:24Z</time>
      </trkpt>
      <trkpt lat="46.167012" lon="13.462157">
        <ele>571.636</ele>
        <time>2018-09-06T07:38:25Z</time>
      </trkpt>
      <trkpt lat="46.167029" lon="13.462178">
        <ele>571.172</ele>
        <time>2018-09-06T07:38:26Z</time>
      </trkpt>
      <trkpt lat="46.167041" lon="13.462203">
        <ele>571.133</ele>
        <time>2018-09-06T07:38:27Z</time>
      </trkpt>
      <trkpt lat="46.167054" lon="13.462237">
        <ele>571.163</ele>
        <time>2018-09-06T07:38:28Z</time>
      </trkpt>
      <trkpt lat="46.167064" lon="13.462276">
        <ele>570.686</ele>
        <time>2018-09-06T07:38:29Z</time>
      </trkpt>
      <trkpt lat="46.167076" lon="13.462321">
        <ele>570.230</ele>
        <time>2018-09-06T07:38:30Z</time>
      </trkpt>
      <trkpt lat="46.167090" lon="13.462359">
        <ele>570.227</ele>
        <time>2018-09-06T07:38:31Z</time>
      </trkpt>
      <trkpt lat="46.167110" lon="13.462400">
        <ele>570.268</ele>
        <time>2018-09-06T07:38:32Z</time>
      </trkpt>
      <trkpt lat="46.167132" lon="13.462432">
        <ele>569.714</ele>
        <time>2018-09-06T07:38:33Z</time>
      </trkpt>
      <trkpt lat="46.167155" lon="13.462457">
        <ele>569.708</ele>
        <time>2018-09-06T07:38:34Z</time>
      </trkpt>
      <trkpt lat="46.167178" lon="13.462476">
        <ele>569.756</ele>
        <time>2018-09-06T07:38:35Z</time>
      </trkpt>
      <trkpt lat="46.167203" lon="13.462490">
        <ele>569.748</ele>
        <time>2018-09-06T07:38:36Z</time>
      </trkpt>
      <trkpt lat="46.167593" lon="13.462572">
        <ele>568.724</ele>
        <time>2018-09-06T07:38:48Z</time>
      </trkpt>
      <trkpt lat="46.167721" lon="13.462579">
        <ele>568.210</ele>
        <time>2018-09-06T07:38:53Z</time>
      </trkpt>
      <trkpt lat="46.167735" lon="13.462596">
        <ele>567.881</ele>
        <time>2018-09-06T07:38:54Z</time>
      </trkpt>
      <trkpt lat="46.167756" lon="13.462631">
        <ele>567.831</ele>
        <time>2018-09-06T07:38:57Z</time>
      </trkpt>
      <trkpt lat="46.167762" lon="13.462648">
        <ele>567.864</ele>
        <time>2018-09-06T07:38:58Z</time>
      </trkpt>
      <trkpt lat="46.167833" lon="13.462873">
        <ele>565.358</ele>
        <time>2018-09-06T07:39:06Z</time>
      </trkpt>
      <trkpt lat="46.167907" lon="13.463367">
        <ele>558.198</ele>
        <time>2018-09-06T07:39:19Z</time>
      </trkpt>
      <trkpt lat="46.167965" lon="13.463912">
        <ele>554.815</ele>
        <time>2018-09-06T07:39:32Z</time>
      </trkpt>
      <trkpt lat="46.167962" lon="13.464420">
        <ele>553.826</ele>
        <time>2018-09-06T07:39:42Z</time>
      </trkpt>
      <trkpt lat="46.168035" lon="13.464893">
        <ele>555.308</ele>
        <time>2018-09-06T07:39:55Z</time>
      </trkpt>
      <trkpt lat="46.168146" lon="13.465321">
        <ele>560.183</ele>
        <time>2018-09-06T07:40:15Z</time>
      </trkpt>
      <trkpt lat="46.168212" lon="13.465450">
        <ele>562.575</ele>
        <time>2018-09-06T07:40:24Z</time>
      </trkpt>
      <trkpt lat="46.168218" lon="13.465463">
        <ele>562.561</ele>
        <time>2018-09-06T07:40:25Z</time>
      </trkpt>
      <trkpt lat="46.168227" lon="13.465473">
        <ele>562.937</ele>
        <time>2018-09-06T07:40:26Z</time>
      </trkpt>
      <trkpt lat="46.168236" lon="13.465485">
        <ele>562.978</ele>
        <time>2018-09-06T07:40:27Z</time>
      </trkpt>
      <trkpt lat="46.168244" lon="13.465499">
        <ele>563.488</ele>
        <time>2018-09-06T07:40:28Z</time>
      </trkpt>
      <trkpt lat="46.168251" lon="13.465513">
        <ele>563.461</ele>
        <time>2018-09-06T07:40:29Z</time>
      </trkpt>
      <trkpt lat="46.168298" lon="13.465589">
        <ele>564.975</ele>
        <time>2018-09-06T07:40:35Z</time>
      </trkpt>
      <trkpt lat="46.168306" lon="13.465603">
        <ele>564.973</ele>
        <time>2018-09-06T07:40:36Z</time>
      </trkpt>
      <trkpt lat="46.168315" lon="13.465615">
        <ele>564.985</ele>
        <time>2018-09-06T07:40:37Z</time>
      </trkpt>
      <trkpt lat="46.168438" lon="13.465720">
        <ele>566.313</ele>
        <time>2018-09-06T07:40:52Z</time>
      </trkpt>
      <trkpt lat="46.168537" lon="13.465777">
        <ele>567.808</ele>
        <time>2018-09-06T07:41:02Z</time>
      </trkpt>
      <trkpt lat="46.168551" lon="13.465780">
        <ele>567.811</ele>
        <time>2018-09-06T07:41:03Z</time>
      </trkpt>
      <trkpt lat="46.168564" lon="13.465783">
        <ele>567.853</ele>
        <time>2018-09-06T07:41:04Z</time>
      </trkpt>
      <trkpt lat="46.168579" lon="13.465789">
        <ele>567.859</ele>
        <time>2018-09-06T07:41:05Z</time>
      </trkpt>
      <trkpt lat="46.168596" lon="13.465794">
        <ele>568.255</ele>
        <time>2018-09-06T07:41:06Z</time>
      </trkpt>
      <trkpt lat="46.168614" lon="13.465799">
        <ele>568.226</ele>
        <time>2018-09-06T07:41:07Z</time>
      </trkpt>
      <trkpt lat="46.168630" lon="13.465802">
        <ele>568.276</ele>
        <time>2018-09-06T07:41:08Z</time>
      </trkpt>
      <trkpt lat="46.168647" lon="13.465807">
        <ele>568.779</ele>
        <time>2018-09-06T07:41:09Z</time>
      </trkpt>
      <trkpt lat="46.168667" lon="13.465815">
        <ele>568.713</ele>
        <time>2018-09-06T07:41:10Z</time>
      </trkpt>
      <trkpt lat="46.168687" lon="13.465819">
        <ele>569.241</ele>
        <time>2018-09-06T07:41:11Z</time>
      </trkpt>
      <trkpt lat="46.169055" lon="13.465859">
        <ele>572.681</ele>
        <time>2018-09-06T07:41:28Z</time>
      </trkpt>
      <trkpt lat="46.169372" lon="13.465848">
        <ele>574.009</ele>
        <time>2018-09-06T07:41:41Z</time>
      </trkpt>
      <trkpt lat="46.169584" lon="13.465696">
        <ele>573.008</ele>
        <time>2018-09-06T07:41:53Z</time>
      </trkpt>
      <trkpt lat="46.169686" lon="13.465251">
        <ele>572.198</ele>
        <time>2018-09-06T07:42:04Z</time>
      </trkpt>
      <trkpt lat="46.169835" lon="13.464941">
        <ele>572.130</ele>
        <time>2018-09-06T07:42:15Z</time>
      </trkpt>
      <trkpt lat="46.169879" lon="13.464890">
        <ele>572.686</ele>
        <time>2018-09-06T07:42:18Z</time>
      </trkpt>
      <trkpt lat="46.169891" lon="13.464873">
        <ele>572.692</ele>
        <time>2018-09-06T07:42:19Z</time>
      </trkpt>
      <trkpt lat="46.169903" lon="13.464857">
        <ele>573.053</ele>
        <time>2018-09-06T07:42:20Z</time>
      </trkpt>
      <trkpt lat="46.169911" lon="13.464840">
        <ele>573.083</ele>
        <time>2018-09-06T07:42:21Z</time>
      </trkpt>
      <trkpt lat="46.169981" lon="13.464737">
        <ele>574.546</ele>
        <time>2018-09-06T07:42:29Z</time>
      </trkpt>
      <trkpt lat="46.169993" lon="13.464725">
        <ele>574.570</ele>
        <time>2018-09-06T07:42:30Z</time>
      </trkpt>
      <trkpt lat="46.170174" lon="13.464455">
        <ele>576.468</ele>
        <time>2018-09-06T07:42:44Z</time>
      </trkpt>
      <trkpt lat="46.170365" lon="13.464171">
        <ele>579.342</ele>
        <time>2018-09-06T07:42:56Z</time>
      </trkpt>
      <trkpt lat="46.170447" lon="13.464021">
        <ele>579.826</ele>
        <time>2018-09-06T07:43:02Z</time>
      </trkpt>
      <trkpt lat="46.170453" lon="13.464000">
        <ele>579.808</ele>
        <time>2018-09-06T07:43:03Z</time>
      </trkpt>
      <trkpt lat="46.170463" lon="13.463975">
        <ele>579.890</ele>
        <time>2018-09-06T07:43:04Z</time>
      </trkpt>
      <trkpt lat="46.170473" lon="13.463952">
        <ele>580.242</ele>
        <time>2018-09-06T07:43:05Z</time>
      </trkpt>
      <trkpt lat="46.170484" lon="13.463923">
        <ele>580.278</ele>
        <time>2018-09-06T07:43:06Z</time>
      </trkpt>
      <trkpt lat="46.170497" lon="13.463896">
        <ele>580.234</ele>
        <time>2018-09-06T07:43:07Z</time>
      </trkpt>
      <trkpt lat="46.170738" lon="13.463430">
        <ele>580.235</ele>
        <time>2018-09-06T07:43:20Z</time>
      </trkpt>
      <trkpt lat="46.170993" lon="13.463139">
        <ele>580.725</ele>
        <time>2018-09-06T07:43:28Z</time>
      </trkpt>
      <trkpt lat="46.171321" lon="13.462817">
        <ele>579.348</ele>
        <time>2018-09-06T07:43:39Z</time>
      </trkpt>
      <trkpt lat="46.171586" lon="13.462477">
        <ele>578.342</ele>
        <time>2018-09-06T07:43:53Z</time>
      </trkpt>
      <trkpt lat="46.171765" lon="13.462322">
        <ele>578.885</ele>
        <time>2018-09-06T07:44:03Z</time>
      </trkpt>
      <trkpt lat="46.171946" lon="13.462093">
        <ele>580.289</ele>
        <time>2018-09-06T07:44:15Z</time>
      </trkpt>
      <trkpt lat="46.172073" lon="13.461845">
        <ele>579.317</ele>
        <time>2018-09-06T07:44:27Z</time>
      </trkpt>
      <trkpt lat="46.172165" lon="13.461622">
        <ele>580.208</ele>
        <time>2018-09-06T07:44:39Z</time>
      </trkpt>
      <trkpt lat="46.172221" lon="13.461514">
        <ele>581.792</ele>
        <time>2018-09-06T07:44:45Z</time>
      </trkpt>
      <trkpt lat="46.172230" lon="13.461496">
        <ele>581.764</ele>
        <time>2018-09-06T07:44:46Z</time>
      </trkpt>
      <trkpt lat="46.172237" lon="13.461479">
        <ele>582.240</ele>
        <time>2018-09-06T07:44:47Z</time>
      </trkpt>
      <trkpt lat="46.172247" lon="13.461463">
        <ele>582.296</ele>
        <time>2018-09-06T07:44:48Z</time>
      </trkpt>
      <trkpt lat="46.172257" lon="13.461448">
        <ele>582.777</ele>
        <time>2018-09-06T07:44:49Z</time>
      </trkpt>
      <trkpt lat="46.172266" lon="13.461433">
        <ele>582.727</ele>
        <time>2018-09-06T07:44:50Z</time>
      </trkpt>
      <trkpt lat="46.172273" lon="13.461417">
        <ele>583.160</ele>
        <time>2018-09-06T07:44:51Z</time>
      </trkpt>
      <trkpt lat="46.172281" lon="13.461402">
        <ele>584.164</ele>
        <time>2018-09-06T07:44:52Z</time>
      </trkpt>
      <trkpt lat="46.172402" lon="13.461184">
        <ele>590.383</ele>
        <time>2018-09-06T07:45:07Z</time>
      </trkpt>
      <trkpt lat="46.172411" lon="13.461172">
        <ele>590.825</ele>
        <time>2018-09-06T07:45:08Z</time>
      </trkpt>
      <trkpt lat="46.172497" lon="13.460997">
        <ele>596.617</ele>
        <time>2018-09-06T07:45:20Z</time>
      </trkpt>
      <trkpt lat="46.172578" lon="13.460830">
        <ele>600.408</ele>
        <time>2018-09-06T07:45:32Z</time>
      </trkpt>
      <trkpt lat="46.172649" lon="13.460780">
        <ele>602.832</ele>
        <time>2018-09-06T07:45:40Z</time>
      </trkpt>
      <trkpt lat="46.172663" lon="13.460778">
        <ele>603.314</ele>
        <time>2018-09-06T07:45:41Z</time>
      </trkpt>
      <trkpt lat="46.172677" lon="13.460779">
        <ele>603.320</ele>
        <time>2018-09-06T07:45:42Z</time>
      </trkpt>
      <trkpt lat="46.172691" lon="13.460777">
        <ele>603.886</ele>
        <time>2018-09-06T07:45:43Z</time>
      </trkpt>
      <trkpt lat="46.172797" lon="13.460791">
        <ele>605.787</ele>
        <time>2018-09-06T07:45:51Z</time>
      </trkpt>
      <trkpt lat="46.172958" lon="13.460840">
        <ele>608.117</ele>
        <time>2018-09-06T07:46:05Z</time>
      </trkpt>
      <trkpt lat="46.172970" lon="13.460851">
        <ele>608.150</ele>
        <time>2018-09-06T07:46:06Z</time>
      </trkpt>
      <trkpt lat="46.173096" lon="13.460940">
        <ele>607.624</ele>
        <time>2018-09-06T07:46:21Z</time>
      </trkpt>
      <trkpt lat="46.173224" lon="13.461006">
        <ele>607.229</ele>
        <time>2018-09-06T07:46:34Z</time>
      </trkpt>
      <trkpt lat="46.173414" lon="13.461059">
        <ele>608.100</ele>
        <time>2018-09-06T07:46:50Z</time>
      </trkpt>
      <trkpt lat="46.173530" lon="13.461043">
        <ele>608.120</ele>
        <time>2018-09-06T07:47:03Z</time>
      </trkpt>
      <trkpt lat="46.173590" lon="13.460988">
        <ele>606.708</ele>
        <time>2018-09-06T07:47:10Z</time>
      </trkpt>
      <trkpt lat="46.173608" lon="13.460968">
        <ele>606.736</ele>
        <time>2018-09-06T07:47:12Z</time>
      </trkpt>
      <trkpt lat="46.173620" lon="13.460957">
        <ele>606.768</ele>
        <time>2018-09-06T07:47:13Z</time>
      </trkpt>
      <trkpt lat="46.173694" lon="13.460859">
        <ele>605.224</ele>
        <time>2018-09-06T07:47:23Z</time>
      </trkpt>
      <trkpt lat="46.173803" lon="13.460761">
        <ele>608.640</ele>
        <time>2018-09-06T07:47:36Z</time>
      </trkpt>
      <trkpt lat="46.173818" lon="13.460759">
        <ele>609.111</ele>
        <time>2018-09-06T07:47:37Z</time>
      </trkpt>
      <trkpt lat="46.173832" lon="13.460753">
        <ele>609.681</ele>
        <time>2018-09-06T07:47:38Z</time>
      </trkpt>
      <trkpt lat="46.173857" lon="13.460751">
        <ele>610.034</ele>
        <time>2018-09-06T07:47:40Z</time>
      </trkpt>
      <trkpt lat="46.174015" lon="13.460778">
        <ele>614.448</ele>
        <time>2018-09-06T07:47:55Z</time>
      </trkpt>
      <trkpt lat="46.174170" lon="13.460706">
        <ele>613.922</ele>
        <time>2018-09-06T07:48:09Z</time>
      </trkpt>
      <trkpt lat="46.174262" lon="13.460657">
        <ele>615.862</ele>
        <time>2018-09-06T07:48:20Z</time>
      </trkpt>
      <trkpt lat="46.174275" lon="13.460649">
        <ele>615.808</ele>
        <time>2018-09-06T07:48:21Z</time>
      </trkpt>
      <trkpt lat="46.174445" lon="13.460535">
        <ele>615.808</ele>
        <time>2018-09-06T07:48:33Z</time>
      </trkpt>
      <trkpt lat="46.174698" lon="13.460592">
        <ele>617.776</ele>
        <time>2018-09-06T07:48:52Z</time>
      </trkpt>
      <trkpt lat="46.174825" lon="13.460565">
        <ele>620.678</ele>
        <time>2018-09-06T07:49:06Z</time>
      </trkpt>
      <trkpt lat="46.174849" lon="13.460476">
        <ele>622.144</ele>
        <time>2018-09-06T07:49:13Z</time>
      </trkpt>
      <trkpt lat="46.174840" lon="13.460269">
        <ele>620.690</ele>
        <time>2018-09-06T07:49:26Z</time>
      </trkpt>
      <trkpt lat="46.174825" lon="13.459987">
        <ele>622.511</ele>
        <time>2018-09-06T07:49:40Z</time>
      </trkpt>
      <trkpt lat="46.174826" lon="13.459969">
        <ele>622.511</ele>
        <time>2018-09-06T07:49:41Z</time>
      </trkpt>
      <trkpt lat="46.174824" lon="13.459952">
        <ele>622.584</ele>
        <time>2018-09-06T07:49:42Z</time>
      </trkpt>
      <trkpt lat="46.174821" lon="13.459932">
        <ele>623.048</ele>
        <time>2018-09-06T07:49:43Z</time>
      </trkpt>
      <trkpt lat="46.174805" lon="13.459671">
        <ele>624.571</ele>
        <time>2018-09-06T07:49:53Z</time>
      </trkpt>
      <trkpt lat="46.174810" lon="13.459568">
        <ele>624.941</ele>
        <time>2018-09-06T07:49:57Z</time>
      </trkpt>
      <trkpt lat="46.174811" lon="13.459534">
        <ele>624.915</ele>
        <time>2018-09-06T07:49:58Z</time>
      </trkpt>
      <trkpt lat="46.174814" lon="13.459498">
        <ele>624.908</ele>
        <time>2018-09-06T07:49:59Z</time>
      </trkpt>
      <trkpt lat="46.174849" lon="13.459075">
        <ele>625.911</ele>
        <time>2018-09-06T07:50:10Z</time>
      </trkpt>
      <trkpt lat="46.174881" lon="13.458471">
        <ele>627.413</ele>
        <time>2018-09-06T07:50:25Z</time>
      </trkpt>
      <trkpt lat="46.174822" lon="13.457957">
        <ele>629.399</ele>
        <time>2018-09-06T07:50:37Z</time>
      </trkpt>
      <trkpt lat="46.174743" lon="13.457586">
        <ele>622.515</ele>
        <time>2018-09-06T07:50:47Z</time>
      </trkpt>
      <trkpt lat="46.174655" lon="13.457251">
        <ele>618.266</ele>
        <time>2018-09-06T07:50:56Z</time>
      </trkpt>
      <trkpt lat="46.174532" lon="13.456817">
        <ele>619.216</ele>
        <time>2018-09-06T07:51:07Z</time>
      </trkpt>
      <trkpt lat="46.174497" lon="13.456704">
        <ele>618.769</ele>
        <time>2018-09-06T07:51:09Z</time>
      </trkpt>
      <trkpt lat="46.174478" lon="13.456648">
        <ele>618.713</ele>
        <time>2018-09-06T07:51:10Z</time>
      </trkpt>
      <trkpt lat="46.174464" lon="13.456599">
        <ele>618.216</ele>
        <time>2018-09-06T07:51:11Z</time>
      </trkpt>
      <trkpt lat="46.174449" lon="13.456555">
        <ele>618.276</ele>
        <time>2018-09-06T07:51:12Z</time>
      </trkpt>
      <trkpt lat="46.174435" lon="13.456514">
        <ele>617.713</ele>
        <time>2018-09-06T07:51:13Z</time>
      </trkpt>
      <trkpt lat="46.174326" lon="13.456148">
        <ele>617.308</ele>
        <time>2018-09-06T07:51:21Z</time>
      </trkpt>
      <trkpt lat="46.174324" lon="13.456091">
        <ele>617.365</ele>
        <time>2018-09-06T07:51:22Z</time>
      </trkpt>
      <trkpt lat="46.174322" lon="13.456035">
        <ele>617.397</ele>
        <time>2018-09-06T07:51:23Z</time>
      </trkpt>
      <trkpt lat="46.174319" lon="13.455977">
        <ele>617.363</ele>
        <time>2018-09-06T07:51:24Z</time>
      </trkpt>
      <trkpt lat="46.174313" lon="13.455919">
        <ele>616.879</ele>
        <time>2018-09-06T07:51:25Z</time>
      </trkpt>
      <trkpt lat="46.174308" lon="13.455866">
        <ele>616.860</ele>
        <time>2018-09-06T07:51:26Z</time>
      </trkpt>
      <trkpt lat="46.174304" lon="13.455819">
        <ele>617.320</ele>
        <time>2018-09-06T07:51:27Z</time>
      </trkpt>
      <trkpt lat="46.174298" lon="13.455775">
        <ele>617.383</ele>
        <time>2018-09-06T07:51:28Z</time>
      </trkpt>
      <trkpt lat="46.174293" lon="13.455721">
        <ele>617.327</ele>
        <time>2018-09-06T07:51:29Z</time>
      </trkpt>
      <trkpt lat="46.174288" lon="13.455664">
        <ele>617.395</ele>
        <time>2018-09-06T07:51:30Z</time>
      </trkpt>
      <trkpt lat="46.174289" lon="13.455605">
        <ele>617.349</ele>
        <time>2018-09-06T07:51:31Z</time>
      </trkpt>
      <trkpt lat="46.174301" lon="13.455560">
        <ele>617.323</ele>
        <time>2018-09-06T07:51:32Z</time>
      </trkpt>
      <trkpt lat="46.174316" lon="13.455525">
        <ele>617.308</ele>
        <time>2018-09-06T07:51:33Z</time>
      </trkpt>
      <trkpt lat="46.174331" lon="13.455491">
        <ele>617.793</ele>
        <time>2018-09-06T07:51:34Z</time>
      </trkpt>
      <trkpt lat="46.174631" lon="13.455167">
        <ele>616.315</ele>
        <time>2018-09-06T07:51:46Z</time>
      </trkpt>
      <trkpt lat="46.174900" lon="13.455274">
        <ele>614.461</ele>
        <time>2018-09-06T07:51:55Z</time>
      </trkpt>
      <trkpt lat="46.175282" lon="13.455199">
        <ele>614.467</ele>
        <time>2018-09-06T07:52:07Z</time>
      </trkpt>
      <trkpt lat="46.175707" lon="13.455020">
        <ele>610.038</ele>
        <time>2018-09-06T07:52:20Z</time>
      </trkpt>
      <trkpt lat="46.175804" lon="13.454672">
        <ele>603.858</ele>
        <time>2018-09-06T07:52:32Z</time>
      </trkpt>
      <trkpt lat="46.175719" lon="13.454314">
        <ele>603.871</ele>
        <time>2018-09-06T07:52:44Z</time>
      </trkpt>
      <trkpt lat="46.175623" lon="13.453809">
        <ele>605.745</ele>
        <time>2018-09-06T07:52:56Z</time>
      </trkpt>
      <trkpt lat="46.175479" lon="13.453335">
        <ele>602.483</ele>
        <time>2018-09-06T07:53:06Z</time>
      </trkpt>
      <trkpt lat="46.175309" lon="13.452769">
        <ele>597.625</ele>
        <time>2018-09-06T07:53:17Z</time>
      </trkpt>
      <trkpt lat="46.175183" lon="13.452393">
        <ele>592.317</ele>
        <time>2018-09-06T07:53:27Z</time>
      </trkpt>
      <trkpt lat="46.175222" lon="13.452070">
        <ele>589.408</ele>
        <time>2018-09-06T07:53:36Z</time>
      </trkpt>
      <trkpt lat="46.175480" lon="13.452030">
        <ele>593.282</ele>
        <time>2018-09-06T07:53:47Z</time>
      </trkpt>
      <trkpt lat="46.175648" lon="13.452091">
        <ele>595.684</ele>
        <time>2018-09-06T07:53:58Z</time>
      </trkpt>
      <trkpt lat="46.175705" lon="13.452120">
        <ele>597.620</ele>
        <time>2018-09-06T07:54:02Z</time>
      </trkpt>
      <trkpt lat="46.175716" lon="13.452131">
        <ele>598.026</ele>
        <time>2018-09-06T07:54:03Z</time>
      </trkpt>
      <trkpt lat="46.175840" lon="13.452199">
        <ele>601.937</ele>
        <time>2018-09-06T07:54:15Z</time>
      </trkpt>
      <trkpt lat="46.175877" lon="13.452215">
        <ele>601.917</ele>
        <time>2018-09-06T07:54:19Z</time>
      </trkpt>
      <trkpt lat="46.175933" lon="13.452230">
        <ele>601.930</ele>
        <time>2018-09-06T07:54:26Z</time>
      </trkpt>
      <trkpt lat="46.176022" lon="13.452247">
        <ele>601.424</ele>
        <time>2018-09-06T07:54:39Z</time>
      </trkpt>
      <trkpt lat="46.176131" lon="13.452169">
        <ele>600.415</ele>
        <time>2018-09-06T07:54:51Z</time>
      </trkpt>
      <trkpt lat="46.176288" lon="13.452092">
        <ele>601.965</ele>
        <time>2018-09-06T07:55:07Z</time>
      </trkpt>
      <trkpt lat="46.176439" lon="13.451965">
        <ele>601.911</ele>
        <time>2018-09-06T07:55:22Z</time>
      </trkpt>
      <trkpt lat="46.176584" lon="13.451771">
        <ele>599.508</ele>
        <time>2018-09-06T07:55:36Z</time>
      </trkpt>
      <trkpt lat="46.176613" lon="13.451609">
        <ele>597.185</ele>
        <time>2018-09-06T07:55:49Z</time>
      </trkpt>
      <trkpt lat="46.176621" lon="13.451517">
        <ele>595.187</ele>
        <time>2018-09-06T07:55:54Z</time>
      </trkpt>
      <trkpt lat="46.176718" lon="13.451240">
        <ele>593.273</ele>
        <time>2018-09-06T07:56:07Z</time>
      </trkpt>
      <trkpt lat="46.176885" lon="13.450858">
        <ele>592.399</ele>
        <time>2018-09-06T07:56:23Z</time>
      </trkpt>
      <trkpt lat="46.176976" lon="13.450560">
        <ele>593.740</ele>
        <time>2018-09-06T07:56:37Z</time>
      </trkpt>
      <trkpt lat="46.177048" lon="13.450245">
        <ele>594.210</ele>
        <time>2018-09-06T07:56:50Z</time>
      </trkpt>
      <trkpt lat="46.177057" lon="13.450200">
        <ele>594.233</ele>
        <time>2018-09-06T07:56:52Z</time>
      </trkpt>
      <trkpt lat="46.177064" lon="13.450181">
        <ele>594.227</ele>
        <time>2018-09-06T07:56:53Z</time>
      </trkpt>
      <trkpt lat="46.177070" lon="13.450158">
        <ele>594.275</ele>
        <time>2018-09-06T07:56:54Z</time>
      </trkpt>
      <trkpt lat="46.177073" lon="13.450135">
        <ele>594.728</ele>
        <time>2018-09-06T07:56:55Z</time>
      </trkpt>
      <trkpt lat="46.177074" lon="13.450113">
        <ele>594.720</ele>
        <time>2018-09-06T07:56:56Z</time>
      </trkpt>
      <trkpt lat="46.177071" lon="13.450092">
        <ele>595.108</ele>
        <time>2018-09-06T07:56:57Z</time>
      </trkpt>
      <trkpt lat="46.177068" lon="13.450073">
        <ele>595.691</ele>
        <time>2018-09-06T07:56:58Z</time>
      </trkpt>
      <trkpt lat="46.177065" lon="13.450053">
        <ele>596.123</ele>
        <time>2018-09-06T07:56:59Z</time>
      </trkpt>
      <trkpt lat="46.177055" lon="13.449996">
        <ele>597.119</ele>
        <time>2018-09-06T07:57:02Z</time>
      </trkpt>
      <trkpt lat="46.177050" lon="13.449974">
        <ele>597.195</ele>
        <time>2018-09-06T07:57:03Z</time>
      </trkpt>
      <trkpt lat="46.177042" lon="13.449952">
        <ele>597.666</ele>
        <time>2018-09-06T07:57:04Z</time>
      </trkpt>
      <trkpt lat="46.177033" lon="13.449920">
        <ele>597.646</ele>
        <time>2018-09-06T07:57:05Z</time>
      </trkpt>
      <trkpt lat="46.177040" lon="13.449886">
        <ele>598.019</ele>
        <time>2018-09-06T07:57:06Z</time>
      </trkpt>
      <trkpt lat="46.177054" lon="13.449866">
        <ele>598.543</ele>
        <time>2018-09-06T07:57:07Z</time>
      </trkpt>
      <trkpt lat="46.177067" lon="13.449854">
        <ele>599.059</ele>
        <time>2018-09-06T07:57:08Z</time>
      </trkpt>
      <trkpt lat="46.177210" lon="13.449807">
        <ele>607.203</ele>
        <time>2018-09-06T07:57:20Z</time>
      </trkpt>
      <trkpt lat="46.177366" lon="13.449758">
        <ele>615.823</ele>
        <time>2018-09-06T07:57:34Z</time>
      </trkpt>
      <trkpt lat="46.177520" lon="13.449653">
        <ele>620.108</ele>
        <time>2018-09-06T07:57:48Z</time>
      </trkpt>
      <trkpt lat="46.177679" lon="13.449463">
        <ele>617.389</ele>
        <time>2018-09-06T07:58:04Z</time>
      </trkpt>
      <trkpt lat="46.177847" lon="13.449263">
        <ele>610.541</ele>
        <time>2018-09-06T07:58:15Z</time>
      </trkpt>
      <trkpt lat="46.177858" lon="13.449244">
        <ele>610.037</ele>
        <time>2018-09-06T07:58:16Z</time>
      </trkpt>
      <trkpt lat="46.177866" lon="13.449227">
        <ele>610.063</ele>
        <time>2018-09-06T07:58:17Z</time>
      </trkpt>
      <trkpt lat="46.177954" lon="13.448967">
        <ele>607.624</ele>
        <time>2018-09-06T07:58:31Z</time>
      </trkpt>
      <trkpt lat="46.177956" lon="13.448945">
        <ele>606.764</ele>
        <time>2018-09-06T07:58:32Z</time>
      </trkpt>
      <trkpt lat="46.177956" lon="13.448922">
        <ele>606.297</ele>
        <time>2018-09-06T07:58:33Z</time>
      </trkpt>
      <trkpt lat="46.177946" lon="13.448788">
        <ele>603.311</ele>
        <time>2018-09-06T07:58:37Z</time>
      </trkpt>
      <trkpt lat="46.177954" lon="13.448748">
        <ele>602.472</ele>
        <time>2018-09-06T07:58:38Z</time>
      </trkpt>
      <trkpt lat="46.177967" lon="13.448708">
        <ele>601.913</ele>
        <time>2018-09-06T07:58:39Z</time>
      </trkpt>
      <trkpt lat="46.177980" lon="13.448675">
        <ele>601.914</ele>
        <time>2018-09-06T07:58:40Z</time>
      </trkpt>
      <trkpt lat="46.177997" lon="13.448652">
        <ele>601.408</ele>
        <time>2018-09-06T07:58:41Z</time>
      </trkpt>
      <trkpt lat="46.178019" lon="13.448640">
        <ele>601.471</ele>
        <time>2018-09-06T07:58:42Z</time>
      </trkpt>
      <trkpt lat="46.178042" lon="13.448643">
        <ele>600.963</ele>
        <time>2018-09-06T07:58:43Z</time>
      </trkpt>
      <trkpt lat="46.178062" lon="13.448650">
        <ele>600.429</ele>
        <time>2018-09-06T07:58:44Z</time>
      </trkpt>
      <trkpt lat="46.178078" lon="13.448664">
        <ele>600.425</ele>
        <time>2018-09-06T07:58:45Z</time>
      </trkpt>
      <trkpt lat="46.178095" lon="13.448684">
        <ele>600.086</ele>
        <time>2018-09-06T07:58:46Z</time>
      </trkpt>
      <trkpt lat="46.178108" lon="13.448711">
        <ele>600.076</ele>
        <time>2018-09-06T07:58:47Z</time>
      </trkpt>
      <trkpt lat="46.178115" lon="13.448747">
        <ele>599.579</ele>
        <time>2018-09-06T07:58:48Z</time>
      </trkpt>
      <trkpt lat="46.178147" lon="13.449128">
        <ele>596.643</ele>
        <time>2018-09-06T07:58:59Z</time>
      </trkpt>
      <trkpt lat="46.178112" lon="13.449584">
        <ele>589.467</ele>
        <time>2018-09-06T07:59:10Z</time>
      </trkpt>
      <trkpt lat="46.178296" lon="13.449892">
        <ele>583.181</ele>
        <time>2018-09-06T07:59:19Z</time>
      </trkpt>
      <trkpt lat="46.178560" lon="13.450069">
        <ele>584.619</ele>
        <time>2018-09-06T07:59:31Z</time>
      </trkpt>
      <trkpt lat="46.178614" lon="13.450061">
        <ele>584.608</ele>
        <time>2018-09-06T07:59:34Z</time>
      </trkpt>
      <trkpt lat="46.178846" lon="13.449682">
        <ele>583.120</ele>
        <time>2018-09-06T07:59:46Z</time>
      </trkpt>
      <trkpt lat="46.179004" lon="13.449272">
        <ele>581.732</ele>
        <time>2018-09-06T07:59:59Z</time>
      </trkpt>
      <trkpt lat="46.179110" lon="13.449149">
        <ele>580.298</ele>
        <time>2018-09-06T08:00:06Z</time>
      </trkpt>
      <trkpt lat="46.179126" lon="13.449151">
        <ele>580.214</ele>
        <time>2018-09-06T08:00:07Z</time>
      </trkpt>
      <trkpt lat="46.179140" lon="13.449155">
        <ele>580.275</ele>
        <time>2018-09-06T08:00:08Z</time>
      </trkpt>
      <trkpt lat="46.179151" lon="13.449162">
        <ele>580.255</ele>
        <time>2018-09-06T08:00:09Z</time>
      </trkpt>
      <trkpt lat="46.179163" lon="13.449175">
        <ele>580.288</ele>
        <time>2018-09-06T08:00:10Z</time>
      </trkpt>
      <trkpt lat="46.179177" lon="13.449187">
        <ele>579.862</ele>
        <time>2018-09-06T08:00:11Z</time>
      </trkpt>
      <trkpt lat="46.179187" lon="13.449205">
        <ele>579.814</ele>
        <time>2018-09-06T08:00:12Z</time>
      </trkpt>
      <trkpt lat="46.179194" lon="13.449223">
        <ele>579.854</ele>
        <time>2018-09-06T08:00:13Z</time>
      </trkpt>
      <trkpt lat="46.179217" lon="13.449271">
        <ele>579.809</ele>
        <time>2018-09-06T08:00:16Z</time>
      </trkpt>
      <trkpt lat="46.179226" lon="13.449288">
        <ele>579.808</ele>
        <time>2018-09-06T08:00:17Z</time>
      </trkpt>
      <trkpt lat="46.179236" lon="13.449307">
        <ele>579.895</ele>
        <time>2018-09-06T08:00:18Z</time>
      </trkpt>
      <trkpt lat="46.179312" lon="13.449481">
        <ele>580.797</ele>
        <time>2018-09-06T08:00:27Z</time>
      </trkpt>
      <trkpt lat="46.179314" lon="13.449501">
        <ele>580.793</ele>
        <time>2018-09-06T08:00:28Z</time>
      </trkpt>
      <trkpt lat="46.179321" lon="13.449524">
        <ele>580.729</ele>
        <time>2018-09-06T08:00:29Z</time>
      </trkpt>
      <trkpt lat="46.179326" lon="13.449544">
        <ele>580.780</ele>
        <time>2018-09-06T08:00:30Z</time>
      </trkpt>
      <trkpt lat="46.179330" lon="13.449566">
        <ele>580.750</ele>
        <time>2018-09-06T08:00:31Z</time>
      </trkpt>
      <trkpt lat="46.179335" lon="13.449591">
        <ele>580.793</ele>
        <time>2018-09-06T08:00:32Z</time>
      </trkpt>
      <trkpt lat="46.179341" lon="13.449890">
        <ele>581.277</ele>
        <time>2018-09-06T08:00:45Z</time>
      </trkpt>
      <trkpt lat="46.179345" lon="13.449916">
        <ele>581.233</ele>
        <time>2018-09-06T08:00:46Z</time>
      </trkpt>
      <trkpt lat="46.179344" lon="13.449938">
        <ele>580.723</ele>
        <time>2018-09-06T08:00:47Z</time>
      </trkpt>
      <trkpt lat="46.179407" lon="13.450265">
        <ele>575.015</ele>
        <time>2018-09-06T08:01:02Z</time>
      </trkpt>
      <trkpt lat="46.179577" lon="13.450538">
        <ele>568.708</ele>
        <time>2018-09-06T08:01:16Z</time>
      </trkpt>
      <trkpt lat="46.179720" lon="13.450841">
        <ele>568.217</ele>
        <time>2018-09-06T08:01:29Z</time>
      </trkpt>
      <trkpt lat="46.179787" lon="13.451004">
        <ele>567.889</ele>
        <time>2018-09-06T08:01:36Z</time>
      </trkpt>
      <trkpt lat="46.179790" lon="13.451028">
        <ele>567.875</ele>
        <time>2018-09-06T08:01:37Z</time>
      </trkpt>
      <trkpt lat="46.179792" lon="13.451059">
        <ele>568.781</ele>
        <time>2018-09-06T08:01:38Z</time>
      </trkpt>
      <trkpt lat="46.179769" lon="13.451158">
        <ele>575.072</ele>
        <time>2018-09-06T08:01:41Z</time>
      </trkpt>
      <trkpt lat="46.179760" lon="13.451182">
        <ele>575.932</ele>
        <time>2018-09-06T08:01:42Z</time>
      </trkpt>
      <trkpt lat="46.179750" lon="13.451232">
        <ele>578.395</ele>
        <time>2018-09-06T08:01:44Z</time>
      </trkpt>
      <trkpt lat="46.179750" lon="13.451256">
        <ele>579.869</ele>
        <time>2018-09-06T08:01:45Z</time>
      </trkpt>
      <trkpt lat="46.179748" lon="13.451282">
        <ele>581.282</ele>
        <time>2018-09-06T08:01:46Z</time>
      </trkpt>
      <trkpt lat="46.179729" lon="13.451367">
        <ele>585.143</ele>
        <time>2018-09-06T08:01:50Z</time>
      </trkpt>
      <trkpt lat="46.179729" lon="13.451389">
        <ele>586.017</ele>
        <time>2018-09-06T08:01:51Z</time>
      </trkpt>
      <trkpt lat="46.179734" lon="13.451412">
        <ele>587.008</ele>
        <time>2018-09-06T08:01:52Z</time>
      </trkpt>
      <trkpt lat="46.179740" lon="13.451433">
        <ele>587.922</ele>
        <time>2018-09-06T08:01:53Z</time>
      </trkpt>
      <trkpt lat="46.179748" lon="13.451450">
        <ele>588.474</ele>
        <time>2018-09-06T08:01:54Z</time>
      </trkpt>
      <trkpt lat="46.179756" lon="13.451467">
        <ele>589.480</ele>
        <time>2018-09-06T08:01:55Z</time>
      </trkpt>
      <trkpt lat="46.179766" lon="13.451479">
        <ele>589.916</ele>
        <time>2018-09-06T08:01:56Z</time>
      </trkpt>
      <trkpt lat="46.179779" lon="13.451480">
        <ele>590.387</ele>
        <time>2018-09-06T08:01:57Z</time>
      </trkpt>
      <trkpt lat="46.179791" lon="13.451475">
        <ele>590.367</ele>
        <time>2018-09-06T08:01:58Z</time>
      </trkpt>
      <trkpt lat="46.179801" lon="13.451464">
        <ele>590.390</ele>
        <time>2018-09-06T08:01:59Z</time>
      </trkpt>
      <trkpt lat="46.179809" lon="13.451453">
        <ele>590.334</ele>
        <time>2018-09-06T08:02:00Z</time>
      </trkpt>
      <trkpt lat="46.179813" lon="13.451438">
        <ele>590.334</ele>
        <time>2018-09-06T08:02:01Z</time>
      </trkpt>
      <trkpt lat="46.179816" lon="13.451421">
        <ele>590.355</ele>
        <time>2018-09-06T08:02:02Z</time>
      </trkpt>
      <trkpt lat="46.179853" lon="13.451151">
        <ele>595.110</ele>
        <time>2018-09-06T08:02:16Z</time>
      </trkpt>
      <trkpt lat="46.179860" lon="13.451137">
        <ele>595.608</ele>
        <time>2018-09-06T08:02:17Z</time>
      </trkpt>
      <trkpt lat="46.179872" lon="13.451112">
        <ele>596.117</ele>
        <time>2018-09-06T08:02:19Z</time>
      </trkpt>
      <trkpt lat="46.179883" lon="13.451104">
        <ele>596.659</ele>
        <time>2018-09-06T08:02:20Z</time>
      </trkpt>
      <trkpt lat="46.179895" lon="13.451101">
        <ele>596.695</ele>
        <time>2018-09-06T08:02:21Z</time>
      </trkpt>
      <trkpt lat="46.179907" lon="13.451095">
        <ele>597.121</ele>
        <time>2018-09-06T08:02:22Z</time>
      </trkpt>
      <trkpt lat="46.179922" lon="13.451097">
        <ele>597.692</ele>
        <time>2018-09-06T08:02:23Z</time>
      </trkpt>
      <trkpt lat="46.180002" lon="13.451417">
        <ele>600.942</ele>
        <time>2018-09-06T08:02:39Z</time>
      </trkpt>
      <trkpt lat="46.180023" lon="13.451761">
        <ele>602.485</ele>
        <time>2018-09-06T08:02:53Z</time>
      </trkpt>
      <trkpt lat="46.180058" lon="13.452022">
        <ele>603.329</ele>
        <time>2018-09-06T08:03:05Z</time>
      </trkpt>
      <trkpt lat="46.180095" lon="13.452320">
        <ele>604.895</ele>
        <time>2018-09-06T08:03:21Z</time>
      </trkpt>
      <trkpt lat="46.180164" lon="13.452639">
        <ele>609.149</ele>
        <time>2018-09-06T08:03:39Z</time>
      </trkpt>
      <trkpt lat="46.180273" lon="13.452859">
        <ele>611.523</ele>
        <time>2018-09-06T08:03:56Z</time>
      </trkpt>
      <trkpt lat="46.180403" lon="13.453051">
        <ele>613.408</ele>
        <time>2018-09-06T08:04:11Z</time>
      </trkpt>
      <trkpt lat="46.180480" lon="13.453218">
        <ele>615.323</ele>
        <time>2018-09-06T08:04:23Z</time>
      </trkpt>
      <trkpt lat="46.180597" lon="13.453381">
        <ele>614.925</ele>
        <time>2018-09-06T08:04:33Z</time>
      </trkpt>
      <trkpt lat="46.180718" lon="13.453546">
        <ele>613.931</ele>
        <time>2018-09-06T08:04:43Z</time>
      </trkpt>
      <trkpt lat="46.180876" lon="13.453695">
        <ele>613.477</ele>
        <time>2018-09-06T08:04:56Z</time>
      </trkpt>
      <trkpt lat="46.180964" lon="13.453791">
        <ele>614.418</ele>
        <time>2018-09-06T08:05:05Z</time>
      </trkpt>
      <trkpt lat="46.181083" lon="13.454082">
        <ele>623.588</ele>
        <time>2018-09-06T08:05:21Z</time>
      </trkpt>
      <trkpt lat="46.181202" lon="13.454399">
        <ele>627.831</ele>
        <time>2018-09-06T08:05:36Z</time>
      </trkpt>
      <trkpt lat="46.181285" lon="13.454593">
        <ele>629.885</ele>
        <time>2018-09-06T08:05:47Z</time>
      </trkpt>
      <trkpt lat="46.181361" lon="13.454753">
        <ele>632.636</ele>
        <time>2018-09-06T08:05:57Z</time>
      </trkpt>
      <trkpt lat="46.181504" lon="13.454986">
        <ele>636.017</ele>
        <time>2018-09-06T08:06:14Z</time>
      </trkpt>
      <trkpt lat="46.181620" lon="13.455215">
        <ele>637.418</ele>
        <time>2018-09-06T08:06:27Z</time>
      </trkpt>
      <trkpt lat="46.181739" lon="13.455508">
        <ele>637.408</ele>
        <time>2018-09-06T08:06:40Z</time>
      </trkpt>
      <trkpt lat="46.181864" lon="13.455816">
        <ele>642.347</ele>
        <time>2018-09-06T08:06:55Z</time>
      </trkpt>
      <trkpt lat="46.181930" lon="13.455971">
        <ele>643.799</ele>
        <time>2018-09-06T08:07:02Z</time>
      </trkpt>
      <trkpt lat="46.182064" lon="13.456191">
        <ele>645.195</ele>
        <time>2018-09-06T08:07:14Z</time>
      </trkpt>
      <trkpt lat="46.182148" lon="13.456365">
        <ele>647.131</ele>
        <time>2018-09-06T08:07:24Z</time>
      </trkpt>
      <trkpt lat="46.182173" lon="13.456423">
        <ele>648.042</ele>
        <time>2018-09-06T08:07:28Z</time>
      </trkpt>
      <trkpt lat="46.182332" lon="13.456692">
        <ele>650.492</ele>
        <time>2018-09-06T08:07:47Z</time>
      </trkpt>
      <trkpt lat="46.182467" lon="13.456887">
        <ele>651.925</ele>
        <time>2018-09-06T08:08:03Z</time>
      </trkpt>
      <trkpt lat="46.182612" lon="13.457007">
        <ele>653.859</ele>
        <time>2018-09-06T08:08:16Z</time>
      </trkpt>
      <trkpt lat="46.182826" lon="13.457125">
        <ele>654.862</ele>
        <time>2018-09-06T08:08:32Z</time>
      </trkpt>
      <trkpt lat="46.182905" lon="13.457152">
        <ele>655.283</ele>
        <time>2018-09-06T08:08:37Z</time>
      </trkpt>
      <trkpt lat="46.183125" lon="13.457261">
        <ele>658.611</ele>
        <time>2018-09-06T08:08:53Z</time>
      </trkpt>
      <trkpt lat="46.183140" lon="13.457269">
        <ele>658.608</ele>
        <time>2018-09-06T08:08:54Z</time>
      </trkpt>
      <trkpt lat="46.183192" lon="13.457331">
        <ele>660.040</ele>
        <time>2018-09-06T08:09:09Z</time>
      </trkpt>
      <trkpt lat="46.183177" lon="13.457302">
        <ele>657.662</ele>
        <time>2018-09-06T08:09:47Z</time>
      </trkpt>
      <trkpt lat="46.183206" lon="13.457306">
        <ele>656.298</ele>
        <time>2018-09-06T08:10:28Z</time>
      </trkpt>
      <trkpt lat="46.183261" lon="13.457351">
        <ele>658.624</ele>
        <time>2018-09-06T08:11:00Z</time>
      </trkpt>
      <trkpt lat="46.183448" lon="13.457566">
        <ele>659.165</ele>
        <time>2018-09-06T08:11:14Z</time>
      </trkpt>
      <trkpt lat="46.183648" lon="13.457844">
        <ele>657.255</ele>
        <time>2018-09-06T08:11:26Z</time>
      </trkpt>
      <trkpt lat="46.183975" lon="13.458082">
        <ele>655.218</ele>
        <time>2018-09-06T08:11:40Z</time>
      </trkpt>
      <trkpt lat="46.184254" lon="13.458191">
        <ele>660.022</ele>
        <time>2018-09-06T08:11:54Z</time>
      </trkpt>
      <trkpt lat="46.184509" lon="13.458288">
        <ele>665.396</ele>
        <time>2018-09-06T08:12:10Z</time>
      </trkpt>
      <trkpt lat="46.184669" lon="13.458302">
        <ele>666.331</ele>
        <time>2018-09-06T08:12:25Z</time>
      </trkpt>
      <trkpt lat="46.184802" lon="13.458301">
        <ele>670.124</ele>
        <time>2018-09-06T08:12:41Z</time>
      </trkpt>
      <trkpt lat="46.184939" lon="13.458292">
        <ele>673.508</ele>
        <time>2018-09-06T08:12:55Z</time>
      </trkpt>
      <trkpt lat="46.185087" lon="13.458251">
        <ele>676.953</ele>
        <time>2018-09-06T08:13:11Z</time>
      </trkpt>
      <trkpt lat="46.185285" lon="13.458228">
        <ele>681.285</ele>
        <time>2018-09-06T08:13:30Z</time>
      </trkpt>
      <trkpt lat="46.185476" lon="13.458210">
        <ele>681.791</ele>
        <time>2018-09-06T08:13:47Z</time>
      </trkpt>
      <trkpt lat="46.185594" lon="13.458244">
        <ele>683.187</ele>
        <time>2018-09-06T08:13:58Z</time>
      </trkpt>
      <trkpt lat="46.185645" lon="13.458259">
        <ele>683.648</ele>
        <time>2018-09-06T08:14:03Z</time>
      </trkpt>
      <trkpt lat="46.185655" lon="13.458274">
        <ele>683.638</ele>
        <time>2018-09-06T08:14:04Z</time>
      </trkpt>
      <trkpt lat="46.185672" lon="13.458290">
        <ele>684.181</ele>
        <time>2018-09-06T08:14:06Z</time>
      </trkpt>
      <trkpt lat="46.185787" lon="13.458423">
        <ele>686.035</ele>
        <time>2018-09-06T08:14:18Z</time>
      </trkpt>
      <trkpt lat="46.185800" lon="13.458435">
        <ele>686.096</ele>
        <time>2018-09-06T08:14:19Z</time>
      </trkpt>
      <trkpt lat="46.185809" lon="13.458451">
        <ele>686.531</ele>
        <time>2018-09-06T08:14:20Z</time>
      </trkpt>
      <trkpt lat="46.185819" lon="13.458468">
        <ele>686.524</ele>
        <time>2018-09-06T08:14:21Z</time>
      </trkpt>
      <trkpt lat="46.185830" lon="13.458483">
        <ele>686.508</ele>
        <time>2018-09-06T08:14:22Z</time>
      </trkpt>
      <trkpt lat="46.185842" lon="13.458497">
        <ele>686.563</ele>
        <time>2018-09-06T08:14:23Z</time>
      </trkpt>
      <trkpt lat="46.186034" lon="13.458549">
        <ele>686.565</ele>
        <time>2018-09-06T08:14:39Z</time>
      </trkpt>
      <trkpt lat="46.186193" lon="13.458573">
        <ele>689.431</ele>
        <time>2018-09-06T08:14:54Z</time>
      </trkpt>
      <trkpt lat="46.186250" lon="13.458579">
        <ele>689.467</ele>
        <time>2018-09-06T08:14:59Z</time>
      </trkpt>
      <trkpt lat="46.186406" lon="13.458668">
        <ele>691.878</ele>
        <time>2018-09-06T08:15:14Z</time>
      </trkpt>
      <trkpt lat="46.186556" lon="13.458866">
        <ele>693.268</ele>
        <time>2018-09-06T08:15:27Z</time>
      </trkpt>
      <trkpt lat="46.186575" lon="13.458888">
        <ele>693.251</ele>
        <time>2018-09-06T08:15:29Z</time>
      </trkpt>
      <trkpt lat="46.186582" lon="13.458903">
        <ele>693.285</ele>
        <time>2018-09-06T08:15:30Z</time>
      </trkpt>
      <trkpt lat="46.186590" lon="13.458918">
        <ele>693.275</ele>
        <time>2018-09-06T08:15:31Z</time>
      </trkpt>
      <trkpt lat="46.186600" lon="13.458948">
        <ele>692.728</ele>
        <time>2018-09-06T08:15:33Z</time>
      </trkpt>
      <trkpt lat="46.186606" lon="13.458972">
        <ele>692.720</ele>
        <time>2018-09-06T08:15:34Z</time>
      </trkpt>
      <trkpt lat="46.186612" lon="13.458996">
        <ele>692.708</ele>
        <time>2018-09-06T08:15:35Z</time>
      </trkpt>
      <trkpt lat="46.186707" lon="13.459292">
        <ele>694.221</ele>
        <time>2018-09-06T08:15:48Z</time>
      </trkpt>
      <trkpt lat="46.186714" lon="13.459307">
        <ele>694.233</ele>
        <time>2018-09-06T08:15:49Z</time>
      </trkpt>
      <trkpt lat="46.186925" lon="13.459645">
        <ele>694.259</ele>
        <time>2018-09-06T08:16:06Z</time>
      </trkpt>
      <trkpt lat="46.187222" lon="13.459638">
        <ele>692.235</ele>
        <time>2018-09-06T08:16:22Z</time>
      </trkpt>
      <trkpt lat="46.187447" lon="13.459587">
        <ele>692.226</ele>
        <time>2018-09-06T08:16:37Z</time>
      </trkpt>
      <trkpt lat="46.187655" lon="13.459695">
        <ele>692.736</ele>
        <time>2018-09-06T08:16:50Z</time>
      </trkpt>
      <trkpt lat="46.187880" lon="13.459725">
        <ele>698.549</ele>
        <time>2018-09-06T08:17:04Z</time>
      </trkpt>
      <trkpt lat="46.188160" lon="13.459646">
        <ele>699.543</ele>
        <time>2018-09-06T08:17:15Z</time>
      </trkpt>
      <trkpt lat="46.188493" lon="13.459682">
        <ele>699.986</ele>
        <time>2018-09-06T08:17:26Z</time>
      </trkpt>
      <trkpt lat="46.188820" lon="13.459950">
        <ele>703.360</ele>
        <time>2018-09-06T08:17:37Z</time>
      </trkpt>
      <trkpt lat="46.189166" lon="13.460116">
        <ele>700.426</ele>
        <time>2018-09-06T08:17:49Z</time>
      </trkpt>
      <trkpt lat="46.189340" lon="13.460063">
        <ele>698.008</ele>
        <time>2018-09-06T08:17:55Z</time>
      </trkpt>
      <trkpt lat="46.189367" lon="13.460077">
        <ele>697.062</ele>
        <time>2018-09-06T08:17:56Z</time>
      </trkpt>
      <trkpt lat="46.189401" lon="13.460105">
        <ele>696.664</ele>
        <time>2018-09-06T08:17:57Z</time>
      </trkpt>
      <trkpt lat="46.189431" lon="13.460141">
        <ele>696.180</ele>
        <time>2018-09-06T08:17:58Z</time>
      </trkpt>
      <trkpt lat="46.189461" lon="13.460176">
        <ele>695.696</ele>
        <time>2018-09-06T08:17:59Z</time>
      </trkpt>
      <trkpt lat="46.189887" lon="13.460541">
        <ele>693.717</ele>
        <time>2018-09-06T08:18:12Z</time>
      </trkpt>
      <trkpt lat="46.190176" lon="13.460843">
        <ele>691.857</ele>
        <time>2018-09-06T08:18:23Z</time>
      </trkpt>
      <trkpt lat="46.190486" lon="13.460965">
        <ele>692.720</ele>
        <time>2018-09-06T08:18:38Z</time>
      </trkpt>
      <trkpt lat="46.190759" lon="13.461094">
        <ele>694.254</ele>
        <time>2018-09-06T08:18:54Z</time>
      </trkpt>
      <trkpt lat="46.190963" lon="13.461274">
        <ele>697.077</ele>
        <time>2018-09-06T08:19:10Z</time>
      </trkpt>
      <trkpt lat="46.191103" lon="13.461359">
        <ele>695.161</ele>
        <time>2018-09-06T08:19:20Z</time>
      </trkpt>
      <trkpt lat="46.191117" lon="13.461366">
        <ele>695.127</ele>
        <time>2018-09-06T08:19:21Z</time>
      </trkpt>
      <trkpt lat="46.191291" lon="13.461373">
        <ele>699.008</ele>
        <time>2018-09-06T08:19:35Z</time>
      </trkpt>
      <trkpt lat="46.191430" lon="13.461335">
        <ele>700.941</ele>
        <time>2018-09-06T08:19:49Z</time>
      </trkpt>
      <trkpt lat="46.191582" lon="13.461245">
        <ele>702.833</ele>
        <time>2018-09-06T08:20:03Z</time>
      </trkpt>
      <trkpt lat="46.191706" lon="13.461149">
        <ele>704.359</ele>
        <time>2018-09-06T08:20:13Z</time>
      </trkpt>
      <trkpt lat="46.191928" lon="13.461128">
        <ele>705.715</ele>
        <time>2018-09-06T08:20:26Z</time>
      </trkpt>
      <trkpt lat="46.192043" lon="13.461112">
        <ele>705.216</ele>
        <time>2018-09-06T08:20:34Z</time>
      </trkpt>
      <trkpt lat="46.192055" lon="13.461105">
        <ele>705.296</ele>
        <time>2018-09-06T08:20:35Z</time>
      </trkpt>
      <trkpt lat="46.192066" lon="13.461095">
        <ele>705.269</ele>
        <time>2018-09-06T08:20:36Z</time>
      </trkpt>
      <trkpt lat="46.192131" lon="13.461037">
        <ele>704.383</ele>
        <time>2018-09-06T08:20:41Z</time>
      </trkpt>
      <trkpt lat="46.192144" lon="13.461023">
        <ele>704.328</ele>
        <time>2018-09-06T08:20:42Z</time>
      </trkpt>
      <trkpt lat="46.192158" lon="13.461008">
        <ele>704.389</ele>
        <time>2018-09-06T08:20:43Z</time>
      </trkpt>
      <trkpt lat="46.192172" lon="13.460992">
        <ele>704.317</ele>
        <time>2018-09-06T08:20:44Z</time>
      </trkpt>
      <trkpt lat="46.192186" lon="13.460977">
        <ele>704.308</ele>
        <time>2018-09-06T08:20:45Z</time>
      </trkpt>
      <trkpt lat="46.192324" lon="13.460816">
        <ele>705.226</ele>
        <time>2018-09-06T08:20:59Z</time>
      </trkpt>
      <trkpt lat="46.192351" lon="13.460792">
        <ele>705.788</ele>
        <time>2018-09-06T08:21:02Z</time>
      </trkpt>
      <trkpt lat="46.192366" lon="13.460783">
        <ele>705.754</ele>
        <time>2018-09-06T08:21:03Z</time>
      </trkpt>
      <trkpt lat="46.192466" lon="13.460730">
        <ele>708.680</ele>
        <time>2018-09-06T08:21:12Z</time>
      </trkpt>
      <trkpt lat="46.192631" lon="13.460637">
        <ele>710.531</ele>
        <time>2018-09-06T08:21:24Z</time>
      </trkpt>
      <trkpt lat="46.192693" lon="13.460595">
        <ele>711.091</ele>
        <time>2018-09-06T08:21:28Z</time>
      </trkpt>
      <trkpt lat="46.192832" lon="13.460493">
        <ele>714.474</ele>
        <time>2018-09-06T08:21:41Z</time>
      </trkpt>
      <trkpt lat="46.192846" lon="13.460485">
        <ele>714.478</ele>
        <time>2018-09-06T08:21:42Z</time>
      </trkpt>
      <trkpt lat="46.192861" lon="13.460478">
        <ele>714.828</ele>
        <time>2018-09-06T08:21:43Z</time>
      </trkpt>
      <trkpt lat="46.193058" lon="13.460400">
        <ele>716.889</ele>
        <time>2018-09-06T08:21:57Z</time>
      </trkpt>
      <trkpt lat="46.193172" lon="13.460392">
        <ele>716.817</ele>
        <time>2018-09-06T08:22:05Z</time>
      </trkpt>
      <trkpt lat="46.193185" lon="13.460396">
        <ele>716.808</ele>
        <time>2018-09-06T08:22:06Z</time>
      </trkpt>
      <trkpt lat="46.193198" lon="13.460396">
        <ele>716.896</ele>
        <time>2018-09-06T08:22:07Z</time>
      </trkpt>
      <trkpt lat="46.193210" lon="13.460388">
        <ele>716.338</ele>
        <time>2018-09-06T08:22:08Z</time>
      </trkpt>
      <trkpt lat="46.193223" lon="13.460382">
        <ele>716.374</ele>
        <time>2018-09-06T08:22:09Z</time>
      </trkpt>
      <trkpt lat="46.193235" lon="13.460376">
        <ele>716.350</ele>
        <time>2018-09-06T08:22:10Z</time>
      </trkpt>
      <trkpt lat="46.193248" lon="13.460366">
        <ele>716.351</ele>
        <time>2018-09-06T08:22:11Z</time>
      </trkpt>
      <trkpt lat="46.193260" lon="13.460356">
        <ele>716.341</ele>
        <time>2018-09-06T08:22:12Z</time>
      </trkpt>
      <trkpt lat="46.193272" lon="13.460345">
        <ele>716.874</ele>
        <time>2018-09-06T08:22:13Z</time>
      </trkpt>
      <trkpt lat="46.193402" lon="13.460076">
        <ele>718.758</ele>
        <time>2018-09-06T08:22:29Z</time>
      </trkpt>
      <trkpt lat="46.193407" lon="13.459964">
        <ele>719.215</ele>
        <time>2018-09-06T08:22:35Z</time>
      </trkpt>
      <trkpt lat="46.193409" lon="13.459944">
        <ele>719.665</ele>
        <time>2018-09-06T08:22:36Z</time>
      </trkpt>
      <trkpt lat="46.193451" lon="13.459597">
        <ele>721.111</ele>
        <time>2018-09-06T08:22:53Z</time>
      </trkpt>
      <trkpt lat="46.193520" lon="13.459255">
        <ele>719.208</ele>
        <time>2018-09-06T08:23:09Z</time>
      </trkpt>
      <trkpt lat="46.193533" lon="13.459081">
        <ele>718.775</ele>
        <time>2018-09-06T08:23:18Z</time>
      </trkpt>
      <trkpt lat="46.193536" lon="13.459064">
        <ele>718.757</ele>
        <time>2018-09-06T08:23:19Z</time>
      </trkpt>
      <trkpt lat="46.193593" lon="13.458787">
        <ele>721.663</ele>
        <time>2018-09-06T08:23:33Z</time>
      </trkpt>
      <trkpt lat="46.193657" lon="13.458570">
        <ele>726.449</ele>
        <time>2018-09-06T08:23:46Z</time>
      </trkpt>
      <trkpt lat="46.193642" lon="13.458219">
        <ele>733.630</ele>
        <time>2018-09-06T08:24:00Z</time>
      </trkpt>
      <trkpt lat="46.193348" lon="13.457949">
        <ele>736.560</ele>
        <time>2018-09-06T08:24:12Z</time>
      </trkpt>
      <trkpt lat="46.193227" lon="13.457614">
        <ele>734.563</ele>
        <time>2018-09-06T08:24:21Z</time>
      </trkpt>
      <trkpt lat="46.193272" lon="13.456978">
        <ele>731.797</ele>
        <time>2018-09-06T08:24:33Z</time>
      </trkpt>
      <trkpt lat="46.193046" lon="13.456482">
        <ele>727.332</ele>
        <time>2018-09-06T08:24:45Z</time>
      </trkpt>
      <trkpt lat="46.192873" lon="13.456178">
        <ele>722.092</ele>
        <time>2018-09-06T08:24:56Z</time>
      </trkpt>
      <trkpt lat="46.192800" lon="13.455983">
        <ele>718.211</ele>
        <time>2018-09-06T08:25:02Z</time>
      </trkpt>
      <trkpt lat="46.192783" lon="13.455945">
        <ele>717.708</ele>
        <time>2018-09-06T08:25:03Z</time>
      </trkpt>
      <trkpt lat="46.192773" lon="13.455907">
        <ele>716.857</ele>
        <time>2018-09-06T08:25:04Z</time>
      </trkpt>
      <trkpt lat="46.192767" lon="13.455870">
        <ele>716.369</ele>
        <time>2018-09-06T08:25:05Z</time>
      </trkpt>
      <trkpt lat="46.192760" lon="13.455831">
        <ele>715.825</ele>
        <time>2018-09-06T08:25:06Z</time>
      </trkpt>
      <trkpt lat="46.192751" lon="13.455792">
        <ele>714.861</ele>
        <time>2018-09-06T08:25:07Z</time>
      </trkpt>
      <trkpt lat="46.192738" lon="13.455756">
        <ele>714.492</ele>
        <time>2018-09-06T08:25:08Z</time>
      </trkpt>
      <trkpt lat="46.192723" lon="13.455717">
        <ele>713.472</ele>
        <time>2018-09-06T08:25:09Z</time>
      </trkpt>
      <trkpt lat="46.192707" lon="13.455679">
        <ele>712.955</ele>
        <time>2018-09-06T08:25:10Z</time>
      </trkpt>
      <trkpt lat="46.192690" lon="13.455643">
        <ele>711.969</ele>
        <time>2018-09-06T08:25:11Z</time>
      </trkpt>
      <trkpt lat="46.192673" lon="13.455604">
        <ele>711.543</ele>
        <time>2018-09-06T08:25:12Z</time>
      </trkpt>
      <trkpt lat="46.192459" lon="13.455185">
        <ele>709.564</ele>
        <time>2018-09-06T08:25:23Z</time>
      </trkpt>
      <trkpt lat="46.192341" lon="13.454932">
        <ele>711.510</ele>
        <time>2018-09-06T08:25:30Z</time>
      </trkpt>
      <trkpt lat="46.192328" lon="13.454899">
        <ele>711.908</ele>
        <time>2018-09-06T08:25:31Z</time>
      </trkpt>
      <trkpt lat="46.192124" lon="13.454612">
        <ele>713.448</ele>
        <time>2018-09-06T08:25:42Z</time>
      </trkpt>
      <trkpt lat="46.192067" lon="13.454530">
        <ele>711.090</ele>
        <time>2018-09-06T08:25:47Z</time>
      </trkpt>
      <trkpt lat="46.192051" lon="13.454500">
        <ele>711.096</ele>
        <time>2018-09-06T08:25:48Z</time>
      </trkpt>
      <trkpt lat="46.192035" lon="13.454473">
        <ele>710.522</ele>
        <time>2018-09-06T08:25:49Z</time>
      </trkpt>
      <trkpt lat="46.191844" lon="13.454140">
        <ele>708.133</ele>
        <time>2018-09-06T08:26:01Z</time>
      </trkpt>
      <trkpt lat="46.191568" lon="13.453752">
        <ele>700.473</ele>
        <time>2018-09-06T08:26:14Z</time>
      </trkpt>
      <trkpt lat="46.191299" lon="13.453523">
        <ele>695.696</ele>
        <time>2018-09-06T08:26:27Z</time>
      </trkpt>
      <trkpt lat="46.191161" lon="13.453372">
        <ele>692.780</ele>
        <time>2018-09-06T08:26:35Z</time>
      </trkpt>
      <trkpt lat="46.190908" lon="13.452898">
        <ele>694.261</ele>
        <time>2018-09-06T08:26:47Z</time>
      </trkpt>
      <trkpt lat="46.190898" lon="13.452799">
        <ele>695.121</ele>
        <time>2018-09-06T08:26:49Z</time>
      </trkpt>
      <trkpt lat="46.190890" lon="13.452735">
        <ele>695.613</ele>
        <time>2018-09-06T08:26:50Z</time>
      </trkpt>
      <trkpt lat="46.190935" lon="13.452284">
        <ele>696.608</ele>
        <time>2018-09-06T08:27:00Z</time>
      </trkpt>
      <trkpt lat="46.190955" lon="13.452025">
        <ele>694.240</ele>
        <time>2018-09-06T08:27:10Z</time>
      </trkpt>
      <trkpt lat="46.190961" lon="13.451834">
        <ele>695.612</ele>
        <time>2018-09-06T08:27:21Z</time>
      </trkpt>
      <trkpt lat="46.190951" lon="13.451600">
        <ele>695.118</ele>
        <time>2018-09-06T08:27:33Z</time>
      </trkpt>
      <trkpt lat="46.190953" lon="13.451581">
        <ele>694.624</ele>
        <time>2018-09-06T08:27:34Z</time>
      </trkpt>
      <trkpt lat="46.190955" lon="13.451561">
        <ele>694.225</ele>
        <time>2018-09-06T08:27:35Z</time>
      </trkpt>
      <trkpt lat="46.190955" lon="13.451538">
        <ele>694.295</ele>
        <time>2018-09-06T08:27:36Z</time>
      </trkpt>
      <trkpt lat="46.190955" lon="13.451519">
        <ele>693.748</ele>
        <time>2018-09-06T08:27:37Z</time>
      </trkpt>
      <trkpt lat="46.190955" lon="13.451499">
        <ele>693.792</ele>
        <time>2018-09-06T08:27:38Z</time>
      </trkpt>
      <trkpt lat="46.190977" lon="13.451248">
        <ele>688.477</ele>
        <time>2018-09-06T08:27:52Z</time>
      </trkpt>
      <trkpt lat="46.191005" lon="13.451113">
        <ele>686.061</ele>
        <time>2018-09-06T08:28:01Z</time>
      </trkpt>
      <trkpt lat="46.191038" lon="13.450833">
        <ele>683.627</ele>
        <time>2018-09-06T08:28:18Z</time>
      </trkpt>
      <trkpt lat="46.191055" lon="13.450676">
        <ele>684.108</ele>
        <time>2018-09-06T08:28:27Z</time>
      </trkpt>
      <trkpt lat="46.191105" lon="13.450398">
        <ele>683.641</ele>
        <time>2018-09-06T08:28:44Z</time>
      </trkpt>
      <trkpt lat="46.191125" lon="13.450168">
        <ele>684.123</ele>
        <time>2018-09-06T08:29:00Z</time>
      </trkpt>
      <trkpt lat="46.191161" lon="13.450039">
        <ele>684.129</ele>
        <time>2018-09-06T08:29:08Z</time>
      </trkpt>
      <trkpt lat="46.191170" lon="13.450024">
        <ele>684.135</ele>
        <time>2018-09-06T08:29:09Z</time>
      </trkpt>
      <trkpt lat="46.191221" lon="13.449771">
        <ele>686.046</ele>
        <time>2018-09-06T08:29:24Z</time>
      </trkpt>
      <trkpt lat="46.191277" lon="13.449516">
        <ele>686.096</ele>
        <time>2018-09-06T08:29:41Z</time>
      </trkpt>
      <trkpt lat="46.191343" lon="13.449340">
        <ele>688.429</ele>
        <time>2018-09-06T08:29:54Z</time>
      </trkpt>
      <trkpt lat="46.191387" lon="13.449384">
        <ele>689.473</ele>
        <time>2018-09-06T08:30:00Z</time>
      </trkpt>
      <trkpt lat="46.191487" lon="13.449672">
        <ele>696.126</ele>
        <time>2018-09-06T08:30:16Z</time>
      </trkpt>
      <trkpt lat="46.191530" lon="13.449765">
        <ele>697.547</ele>
        <time>2018-09-06T08:30:22Z</time>
      </trkpt>
      <trkpt lat="46.191539" lon="13.449775">
        <ele>697.511</ele>
        <time>2018-09-06T08:30:23Z</time>
      </trkpt>
      <trkpt lat="46.191593" lon="13.449775">
        <ele>697.008</ele>
        <time>2018-09-06T08:30:28Z</time>
      </trkpt>
      <trkpt lat="46.191601" lon="13.449764">
        <ele>696.696</ele>
        <time>2018-09-06T08:30:29Z</time>
      </trkpt>
      <trkpt lat="46.191606" lon="13.449712">
        <ele>696.668</ele>
        <time>2018-09-06T08:30:32Z</time>
      </trkpt>
      <trkpt lat="46.191604" lon="13.449692">
        <ele>696.644</ele>
        <time>2018-09-06T08:30:33Z</time>
      </trkpt>
      <trkpt lat="46.191602" lon="13.449671">
        <ele>696.640</ele>
        <time>2018-09-06T08:30:34Z</time>
      </trkpt>
      <trkpt lat="46.191597" lon="13.449652">
        <ele>697.051</ele>
        <time>2018-09-06T08:30:35Z</time>
      </trkpt>
      <trkpt lat="46.191592" lon="13.449634">
        <ele>697.011</ele>
        <time>2018-09-06T08:30:36Z</time>
      </trkpt>
      <trkpt lat="46.191589" lon="13.449620">
        <ele>697.574</ele>
        <time>2018-09-06T08:30:37Z</time>
      </trkpt>
      <trkpt lat="46.191584" lon="13.449607">
        <ele>697.518</ele>
        <time>2018-09-06T08:30:38Z</time>
      </trkpt>
      <trkpt lat="46.191577" lon="13.449594">
        <ele>697.547</ele>
        <time>2018-09-06T08:30:39Z</time>
      </trkpt>
      <trkpt lat="46.191568" lon="13.449583">
        <ele>698.029</ele>
        <time>2018-09-06T08:30:40Z</time>
      </trkpt>
      <trkpt lat="46.191561" lon="13.449558">
        <ele>698.521</ele>
        <time>2018-09-06T08:30:42Z</time>
      </trkpt>
      <trkpt lat="46.191526" lon="13.449380">
        <ele>701.408</ele>
        <time>2018-09-06T08:30:54Z</time>
      </trkpt>
      <trkpt lat="46.191510" lon="13.449150">
        <ele>699.998</ele>
        <time>2018-09-06T08:31:09Z</time>
      </trkpt>
      <trkpt lat="46.191508" lon="13.449083">
        <ele>700.490</ele>
        <time>2018-09-06T08:31:13Z</time>
      </trkpt>
      <trkpt lat="46.191556" lon="13.448818">
        <ele>702.366</ele>
        <time>2018-09-06T08:31:28Z</time>
      </trkpt>
      <trkpt lat="46.191636" lon="13.448516">
        <ele>705.722</ele>
        <time>2018-09-06T08:31:45Z</time>
      </trkpt>
      <trkpt lat="46.191778" lon="13.448202">
        <ele>706.243</ele>
        <time>2018-09-06T08:32:01Z</time>
      </trkpt>
      <trkpt lat="46.191786" lon="13.448186">
        <ele>706.293</ele>
        <time>2018-09-06T08:32:02Z</time>
      </trkpt>
      <trkpt lat="46.191955" lon="13.447817">
        <ele>705.246</ele>
        <time>2018-09-06T08:32:15Z</time>
      </trkpt>
      <trkpt lat="46.191919" lon="13.447354">
        <ele>706.730</ele>
        <time>2018-09-06T08:32:26Z</time>
      </trkpt>
      <trkpt lat="46.191628" lon="13.446941">
        <ele>702.834</ele>
        <time>2018-09-06T08:32:38Z</time>
      </trkpt>
      <trkpt lat="46.191613" lon="13.446864">
        <ele>703.855</ele>
        <time>2018-09-06T08:32:40Z</time>
      </trkpt>
      <trkpt lat="46.191623" lon="13.446823">
        <ele>704.310</ele>
        <time>2018-09-06T08:32:41Z</time>
      </trkpt>
      <trkpt lat="46.191641" lon="13.446787">
        <ele>704.708</ele>
        <time>2018-09-06T08:32:42Z</time>
      </trkpt>
      <trkpt lat="46.191660" lon="13.446759">
        <ele>705.257</ele>
        <time>2018-09-06T08:32:43Z</time>
      </trkpt>
      <trkpt lat="46.191679" lon="13.446736">
        <ele>705.759</ele>
        <time>2018-09-06T08:32:44Z</time>
      </trkpt>
      <trkpt lat="46.191697" lon="13.446716">
        <ele>705.735</ele>
        <time>2018-09-06T08:32:45Z</time>
      </trkpt>
      <trkpt lat="46.191737" lon="13.446633">
        <ele>706.751</ele>
        <time>2018-09-06T08:32:55Z</time>
      </trkpt>
      <trkpt lat="46.191756" lon="13.446618">
        <ele>703.872</ele>
        <time>2018-09-06T08:33:19Z</time>
      </trkpt>
      <trkpt lat="46.191770" lon="13.446611">
        <ele>692.232</ele>
        <time>2018-09-06T08:33:39Z</time>
      </trkpt>
      <trkpt lat="46.191771" lon="13.446635">
        <ele>690.895</ele>
        <time>2018-09-06T08:34:07Z</time>
      </trkpt>
      <trkpt lat="46.191846" lon="13.446506">
        <ele>691.339</ele>
        <time>2018-09-06T08:34:16Z</time>
      </trkpt>
      <trkpt lat="46.192012" lon="13.446160">
        <ele>691.863</ele>
        <time>2018-09-06T08:34:28Z</time>
      </trkpt>
      <trkpt lat="46.192035" lon="13.445718">
        <ele>699.544</ele>
        <time>2018-09-06T08:34:39Z</time>
      </trkpt>
      <trkpt lat="46.192113" lon="13.445398">
        <ele>703.318</ele>
        <time>2018-09-06T08:34:49Z</time>
      </trkpt>
      <trkpt lat="46.192139" lon="13.445325">
        <ele>701.908</ele>
        <time>2018-09-06T08:35:01Z</time>
      </trkpt>
      <trkpt lat="46.192148" lon="13.445313">
        <ele>701.940</ele>
        <time>2018-09-06T08:35:02Z</time>
      </trkpt>
      <trkpt lat="46.192157" lon="13.445294">
        <ele>701.922</ele>
        <time>2018-09-06T08:35:03Z</time>
      </trkpt>
      <trkpt lat="46.192167" lon="13.445275">
        <ele>701.948</ele>
        <time>2018-09-06T08:35:04Z</time>
      </trkpt>
      <trkpt lat="46.192178" lon="13.445254">
        <ele>701.964</ele>
        <time>2018-09-06T08:35:05Z</time>
      </trkpt>
      <trkpt lat="46.192189" lon="13.445228">
        <ele>701.495</ele>
        <time>2018-09-06T08:35:06Z</time>
      </trkpt>
      <trkpt lat="46.192339" lon="13.444878">
        <ele>696.625</ele>
        <time>2018-09-06T08:35:17Z</time>
      </trkpt>
      <trkpt lat="46.192343" lon="13.444414">
        <ele>695.148</ele>
        <time>2018-09-06T08:35:27Z</time>
      </trkpt>
      <trkpt lat="46.192258" lon="13.444072">
        <ele>691.822</ele>
        <time>2018-09-06T08:35:35Z</time>
      </trkpt>
      <trkpt lat="46.192267" lon="13.444027">
        <ele>691.313</ele>
        <time>2018-09-06T08:35:36Z</time>
      </trkpt>
      <trkpt lat="46.192282" lon="13.443988">
        <ele>690.343</ele>
        <time>2018-09-06T08:35:37Z</time>
      </trkpt>
      <trkpt lat="46.192302" lon="13.443970">
        <ele>689.807</ele>
        <time>2018-09-06T08:35:38Z</time>
      </trkpt>
      <trkpt lat="46.192319" lon="13.443974">
        <ele>689.408</ele>
        <time>2018-09-06T08:35:39Z</time>
      </trkpt>
      <trkpt lat="46.192338" lon="13.443991">
        <ele>688.435</ele>
        <time>2018-09-06T08:35:40Z</time>
      </trkpt>
      <trkpt lat="46.192362" lon="13.444010">
        <ele>686.587</ele>
        <time>2018-09-06T08:35:41Z</time>
      </trkpt>
      <trkpt lat="46.192562" lon="13.444300">
        <ele>679.323</ele>
        <time>2018-09-06T08:35:52Z</time>
      </trkpt>
      <trkpt lat="46.192845" lon="13.444628">
        <ele>673.569</ele>
        <time>2018-09-06T08:36:06Z</time>
      </trkpt>
      <trkpt lat="46.193018" lon="13.444880">
        <ele>669.770</ele>
        <time>2018-09-06T08:36:16Z</time>
      </trkpt>
      <trkpt lat="46.193033" lon="13.444880">
        <ele>669.270</ele>
        <time>2018-09-06T08:36:17Z</time>
      </trkpt>
      <trkpt lat="46.193058" lon="13.444739">
        <ele>667.753</ele>
        <time>2018-09-06T08:36:24Z</time>
      </trkpt>
      <trkpt lat="46.193047" lon="13.444707">
        <ele>667.777</ele>
        <time>2018-09-06T08:36:25Z</time>
      </trkpt>
      <trkpt lat="46.192949" lon="13.444325">
        <ele>670.118</ele>
        <time>2018-09-06T08:36:38Z</time>
      </trkpt>
      <trkpt lat="46.192857" lon="13.443955">
        <ele>670.198</ele>
        <time>2018-09-06T08:36:49Z</time>
      </trkpt>
      <trkpt lat="46.192911" lon="13.443709">
        <ele>669.717</ele>
        <time>2018-09-06T08:37:00Z</time>
      </trkpt>
      <trkpt lat="46.192919" lon="13.443282">
        <ele>667.208</ele>
        <time>2018-09-06T08:37:11Z</time>
      </trkpt>
      <trkpt lat="46.192890" lon="13.442718">
        <ele>663.985</ele>
        <time>2018-09-06T08:37:22Z</time>
      </trkpt>
      <trkpt lat="46.192780" lon="13.442183">
        <ele>662.427</ele>
        <time>2018-09-06T08:37:32Z</time>
      </trkpt>
      <trkpt lat="46.192552" lon="13.441714">
        <ele>658.113</ele>
        <time>2018-09-06T08:37:43Z</time>
      </trkpt>
      <trkpt lat="46.192351" lon="13.441160">
        <ele>651.419</ele>
        <time>2018-09-06T08:37:58Z</time>
      </trkpt>
      <trkpt lat="46.192190" lon="13.440820">
        <ele>650.460</ele>
        <time>2018-09-06T08:38:12Z</time>
      </trkpt>
      <trkpt lat="46.192139" lon="13.440667">
        <ele>652.310</ele>
        <time>2018-09-06T08:38:18Z</time>
      </trkpt>
      <trkpt lat="46.192134" lon="13.440644">
        <ele>652.323</ele>
        <time>2018-09-06T08:38:19Z</time>
      </trkpt>
      <trkpt lat="46.192129" lon="13.440619">
        <ele>652.377</ele>
        <time>2018-09-06T08:38:20Z</time>
      </trkpt>
      <trkpt lat="46.192120" lon="13.440592">
        <ele>652.831</ele>
        <time>2018-09-06T08:38:21Z</time>
      </trkpt>
      <trkpt lat="46.192109" lon="13.440561">
        <ele>652.861</ele>
        <time>2018-09-06T08:38:22Z</time>
      </trkpt>
      <trkpt lat="46.191963" lon="13.440145">
        <ele>653.807</ele>
        <time>2018-09-06T08:38:35Z</time>
      </trkpt>
      <trkpt lat="46.191819" lon="13.439774">
        <ele>650.408</ele>
        <time>2018-09-06T08:38:46Z</time>
      </trkpt>
      <trkpt lat="46.191691" lon="13.439271">
        <ele>650.987</ele>
        <time>2018-09-06T08:38:58Z</time>
      </trkpt>
      <trkpt lat="46.191691" lon="13.439243">
        <ele>650.959</ele>
        <time>2018-09-06T08:38:59Z</time>
      </trkpt>
      <trkpt lat="46.191690" lon="13.439214">
        <ele>651.455</ele>
        <time>2018-09-06T08:39:00Z</time>
      </trkpt>
      <trkpt lat="46.191691" lon="13.439188">
        <ele>651.471</ele>
        <time>2018-09-06T08:39:01Z</time>
      </trkpt>
      <trkpt lat="46.191689" lon="13.439160">
        <ele>651.432</ele>
        <time>2018-09-06T08:39:02Z</time>
      </trkpt>
      <trkpt lat="46.191687" lon="13.439131">
        <ele>651.462</ele>
        <time>2018-09-06T08:39:03Z</time>
      </trkpt>
      <trkpt lat="46.191680" lon="13.438969">
        <ele>652.855</ele>
        <time>2018-09-06T08:39:10Z</time>
      </trkpt>
      <trkpt lat="46.191681" lon="13.438948">
        <ele>653.379</ele>
        <time>2018-09-06T08:39:11Z</time>
      </trkpt>
      <trkpt lat="46.191716" lon="13.438559">
        <ele>652.324</ele>
        <time>2018-09-06T08:39:28Z</time>
      </trkpt>
      <trkpt lat="46.191721" lon="13.438516">
        <ele>651.904</ele>
        <time>2018-09-06T08:39:30Z</time>
      </trkpt>
      <trkpt lat="46.191723" lon="13.438496">
        <ele>652.314</ele>
        <time>2018-09-06T08:39:31Z</time>
      </trkpt>
      <trkpt lat="46.191723" lon="13.438474">
        <ele>652.308</ele>
        <time>2018-09-06T08:39:32Z</time>
      </trkpt>
      <trkpt lat="46.191723" lon="13.438452">
        <ele>652.856</ele>
        <time>2018-09-06T08:39:33Z</time>
      </trkpt>
      <trkpt lat="46.191722" lon="13.438431">
        <ele>653.358</ele>
        <time>2018-09-06T08:39:34Z</time>
      </trkpt>
      <trkpt lat="46.191722" lon="13.438407">
        <ele>653.884</ele>
        <time>2018-09-06T08:39:35Z</time>
      </trkpt>
      <trkpt lat="46.191710" lon="13.438035">
        <ele>656.270</ele>
        <time>2018-09-06T08:39:50Z</time>
      </trkpt>
      <trkpt lat="46.191714" lon="13.437766">
        <ele>652.851</ele>
        <time>2018-09-06T08:40:02Z</time>
      </trkpt>
      <trkpt lat="46.191716" lon="13.437704">
        <ele>652.381</ele>
        <time>2018-09-06T08:40:05Z</time>
      </trkpt>
      <trkpt lat="46.191728" lon="13.437688">
        <ele>652.354</ele>
        <time>2018-09-06T08:40:06Z</time>
      </trkpt>
      <trkpt lat="46.191741" lon="13.437680">
        <ele>651.958</ele>
        <time>2018-09-06T08:40:07Z</time>
      </trkpt>
      <trkpt lat="46.191755" lon="13.437666">
        <ele>651.492</ele>
        <time>2018-09-06T08:40:08Z</time>
      </trkpt>
      <trkpt lat="46.191771" lon="13.437653">
        <ele>650.973</ele>
        <time>2018-09-06T08:40:09Z</time>
      </trkpt>
      <trkpt lat="46.191998" lon="13.437648">
        <ele>651.420</ele>
        <time>2018-09-06T08:40:24Z</time>
      </trkpt>
      <trkpt lat="46.192231" lon="13.437845">
        <ele>649.908</ele>
        <time>2018-09-06T08:40:39Z</time>
      </trkpt>
      <trkpt lat="46.192407" lon="13.438240">
        <ele>651.963</ele>
        <time>2018-09-06T08:40:49Z</time>
      </trkpt>
      <trkpt lat="46.192440" lon="13.438284">
        <ele>651.435</ele>
        <time>2018-09-06T08:40:50Z</time>
      </trkpt>
      <trkpt lat="46.192515" lon="13.438370">
        <ele>650.941</ele>
        <time>2018-09-06T08:40:52Z</time>
      </trkpt>
      <trkpt lat="46.192601" lon="13.438440">
        <ele>650.427</ele>
        <time>2018-09-06T08:40:54Z</time>
      </trkpt>
      <trkpt lat="46.192840" lon="13.438652">
        <ele>650.458</ele>
        <time>2018-09-06T08:41:04Z</time>
      </trkpt>
      <trkpt lat="46.193084" lon="13.438781">
        <ele>648.518</ele>
        <time>2018-09-06T08:41:19Z</time>
      </trkpt>
      <trkpt lat="46.193279" lon="13.438978">
        <ele>648.591</ele>
        <time>2018-09-06T08:41:33Z</time>
      </trkpt>
      <trkpt lat="46.193440" lon="13.439193">
        <ele>650.425</ele>
        <time>2018-09-06T08:41:46Z</time>
      </trkpt>
      <trkpt lat="46.193659" lon="13.439213">
        <ele>647.591</ele>
        <time>2018-09-06T08:42:04Z</time>
      </trkpt>
      <trkpt lat="46.193831" lon="13.439460">
        <ele>652.881</ele>
        <time>2018-09-06T08:42:20Z</time>
      </trkpt>
      <trkpt lat="46.193991" lon="13.439666">
        <ele>656.719</ele>
        <time>2018-09-06T08:42:39Z</time>
      </trkpt>
      <trkpt lat="46.194048" lon="13.439776">
        <ele>656.208</ele>
        <time>2018-09-06T08:42:47Z</time>
      </trkpt>
      <trkpt lat="46.194054" lon="13.439793">
        <ele>656.243</ele>
        <time>2018-09-06T08:42:48Z</time>
      </trkpt>
      <trkpt lat="46.194062" lon="13.439813">
        <ele>656.725</ele>
        <time>2018-09-06T08:42:49Z</time>
      </trkpt>
      <trkpt lat="46.194069" lon="13.439831">
        <ele>657.611</ele>
        <time>2018-09-06T08:42:50Z</time>
      </trkpt>
      <trkpt lat="46.194077" lon="13.439848">
        <ele>657.697</ele>
        <time>2018-09-06T08:42:51Z</time>
      </trkpt>
      <trkpt lat="46.194085" lon="13.439865">
        <ele>658.118</ele>
        <time>2018-09-06T08:42:52Z</time>
      </trkpt>
      <trkpt lat="46.194098" lon="13.439879">
        <ele>658.148</ele>
        <time>2018-09-06T08:42:53Z</time>
      </trkpt>
      <trkpt lat="46.194110" lon="13.439888">
        <ele>658.661</ele>
        <time>2018-09-06T08:42:54Z</time>
      </trkpt>
      <trkpt lat="46.194123" lon="13.439897">
        <ele>659.185</ele>
        <time>2018-09-06T08:42:55Z</time>
      </trkpt>
      <trkpt lat="46.194138" lon="13.439901">
        <ele>659.175</ele>
        <time>2018-09-06T08:42:56Z</time>
      </trkpt>
      <trkpt lat="46.194150" lon="13.439892">
        <ele>659.628</ele>
        <time>2018-09-06T08:42:57Z</time>
      </trkpt>
      <trkpt lat="46.194172" lon="13.439652">
        <ele>663.420</ele>
        <time>2018-09-06T08:43:11Z</time>
      </trkpt>
      <trkpt lat="46.194168" lon="13.439405">
        <ele>664.808</ele>
        <time>2018-09-06T08:43:24Z</time>
      </trkpt>
      <trkpt lat="46.194303" lon="13.439343">
        <ele>666.371</ele>
        <time>2018-09-06T08:43:34Z</time>
      </trkpt>
      <trkpt lat="46.194517" lon="13.439407">
        <ele>669.243</ele>
        <time>2018-09-06T08:43:49Z</time>
      </trkpt>
      <trkpt lat="46.194801" lon="13.439511">
        <ele>675.969</ele>
        <time>2018-09-06T08:44:08Z</time>
      </trkpt>
      <trkpt lat="46.194981" lon="13.439524">
        <ele>677.395</ele>
        <time>2018-09-06T08:44:22Z</time>
      </trkpt>
      <trkpt lat="46.195189" lon="13.439558">
        <ele>679.326</ele>
        <time>2018-09-06T08:44:38Z</time>
      </trkpt>
      <trkpt lat="46.195420" lon="13.439721">
        <ele>684.176</ele>
        <time>2018-09-06T08:44:52Z</time>
      </trkpt>
      <trkpt lat="46.195722" lon="13.440013">
        <ele>686.589</ele>
        <time>2018-09-06T08:45:08Z</time>
      </trkpt>
      <trkpt lat="46.195850" lon="13.440237">
        <ele>688.933</ele>
        <time>2018-09-06T08:45:24Z</time>
      </trkpt>
      <trkpt lat="46.195950" lon="13.440454">
        <ele>692.286</ele>
        <time>2018-09-06T08:45:41Z</time>
      </trkpt>
      <trkpt lat="46.196084" lon="13.440616">
        <ele>696.160</ele>
        <time>2018-09-06T08:45:58Z</time>
      </trkpt>
      <trkpt lat="46.196207" lon="13.440804">
        <ele>695.126</ele>
        <time>2018-09-06T08:46:12Z</time>
      </trkpt>
      <trkpt lat="46.196211" lon="13.440819">
        <ele>695.108</ele>
        <time>2018-09-06T08:46:13Z</time>
      </trkpt>
      <trkpt lat="46.196218" lon="13.440835">
        <ele>695.112</ele>
        <time>2018-09-06T08:46:14Z</time>
      </trkpt>
      <trkpt lat="46.196319" lon="13.440977">
        <ele>698.024</ele>
        <time>2018-09-06T08:46:28Z</time>
      </trkpt>
      <trkpt lat="46.196419" lon="13.441008">
        <ele>699.540</ele>
        <time>2018-09-06T08:46:38Z</time>
      </trkpt>
      <trkpt lat="46.196432" lon="13.441007">
        <ele>699.026</ele>
        <time>2018-09-06T08:46:39Z</time>
      </trkpt>
      <trkpt lat="46.196719" lon="13.440942">
        <ele>700.937</ele>
        <time>2018-09-06T08:46:55Z</time>
      </trkpt>
      <trkpt lat="46.197007" lon="13.440933">
        <ele>700.417</ele>
        <time>2018-09-06T08:47:08Z</time>
      </trkpt>
      <trkpt lat="46.197045" lon="13.440941">
        <ele>699.020</ele>
        <time>2018-09-06T08:47:33Z</time>
      </trkpt>
      <trkpt lat="46.197082" lon="13.440971">
        <ele>698.524</ele>
        <time>2018-09-06T08:47:39Z</time>
      </trkpt>
      <trkpt lat="46.197094" lon="13.440986">
        <ele>698.568</ele>
        <time>2018-09-06T08:47:40Z</time>
      </trkpt>
      <trkpt lat="46.197105" lon="13.441004">
        <ele>698.542</ele>
        <time>2018-09-06T08:47:41Z</time>
      </trkpt>
      <trkpt lat="46.197118" lon="13.441024">
        <ele>698.526</ele>
        <time>2018-09-06T08:47:42Z</time>
      </trkpt>
      <trkpt lat="46.197131" lon="13.441041">
        <ele>698.508</ele>
        <time>2018-09-06T08:47:43Z</time>
      </trkpt>
      <trkpt lat="46.197146" lon="13.441057">
        <ele>699.020</ele>
        <time>2018-09-06T08:47:44Z</time>
      </trkpt>
      <trkpt lat="46.197161" lon="13.441070">
        <ele>699.072</ele>
        <time>2018-09-06T08:47:45Z</time>
      </trkpt>
      <trkpt lat="46.197176" lon="13.441079">
        <ele>699.088</ele>
        <time>2018-09-06T08:47:46Z</time>
      </trkpt>
      <trkpt lat="46.197386" lon="13.441237">
        <ele>699.584</ele>
        <time>2018-09-06T08:48:03Z</time>
      </trkpt>
      <trkpt lat="46.197411" lon="13.441237">
        <ele>699.535</ele>
        <time>2018-09-06T08:48:06Z</time>
      </trkpt>
      <trkpt lat="46.197420" lon="13.441235">
        <ele>699.565</ele>
        <time>2018-09-06T08:48:07Z</time>
      </trkpt>
      <trkpt lat="46.197498" lon="13.441293">
        <ele>700.988</ele>
        <time>2018-09-06T08:48:16Z</time>
      </trkpt>
      <trkpt lat="46.197508" lon="13.441295">
        <ele>700.972</ele>
        <time>2018-09-06T08:48:17Z</time>
      </trkpt>
      <trkpt lat="46.197655" lon="13.441298">
        <ele>703.347</ele>
        <time>2018-09-06T08:48:33Z</time>
      </trkpt>
      <trkpt lat="46.197677" lon="13.441312">
        <ele>703.829</ele>
        <time>2018-09-06T08:48:35Z</time>
      </trkpt>
      <trkpt lat="46.197688" lon="13.441315">
        <ele>703.821</ele>
        <time>2018-09-06T08:48:36Z</time>
      </trkpt>
      <trkpt lat="46.197709" lon="13.441314">
        <ele>704.308</ele>
        <time>2018-09-06T08:48:38Z</time>
      </trkpt>
      <trkpt lat="46.197832" lon="13.441310">
        <ele>706.728</ele>
        <time>2018-09-06T08:48:51Z</time>
      </trkpt>
      <trkpt lat="46.197842" lon="13.441322">
        <ele>706.730</ele>
        <time>2018-09-06T08:48:52Z</time>
      </trkpt>
      <trkpt lat="46.197886" lon="13.441362">
        <ele>707.146</ele>
        <time>2018-09-06T08:48:57Z</time>
      </trkpt>
      <trkpt lat="46.197927" lon="13.441376">
        <ele>709.122</ele>
        <time>2018-09-06T08:49:02Z</time>
      </trkpt>
      <trkpt lat="46.197955" lon="13.441444">
        <ele>711.993</ele>
        <time>2018-09-06T08:49:09Z</time>
      </trkpt>
      <trkpt lat="46.197953" lon="13.441457">
        <ele>712.433</ele>
        <time>2018-09-06T08:49:10Z</time>
      </trkpt>
      <trkpt lat="46.197947" lon="13.441468">
        <ele>712.936</ele>
        <time>2018-09-06T08:49:11Z</time>
      </trkpt>
      <trkpt lat="46.197937" lon="13.441472">
        <ele>713.460</ele>
        <time>2018-09-06T08:49:12Z</time>
      </trkpt>
      <trkpt lat="46.197927" lon="13.441479">
        <ele>713.413</ele>
        <time>2018-09-06T08:49:13Z</time>
      </trkpt>
      <trkpt lat="46.197918" lon="13.441511">
        <ele>712.943</ele>
        <time>2018-09-06T08:49:15Z</time>
      </trkpt>
      <trkpt lat="46.197914" lon="13.441528">
        <ele>712.407</ele>
        <time>2018-09-06T08:49:16Z</time>
      </trkpt>
      <trkpt lat="46.197909" lon="13.441543">
        <ele>712.408</ele>
        <time>2018-09-06T08:49:17Z</time>
      </trkpt>
      <trkpt lat="46.197896" lon="13.441574">
        <ele>712.465</ele>
        <time>2018-09-06T08:49:19Z</time>
      </trkpt>
      <trkpt lat="46.197819" lon="13.441650">
        <ele>712.457</ele>
        <time>2018-09-06T08:49:28Z</time>
      </trkpt>
      <trkpt lat="46.197816" lon="13.441700">
        <ele>712.463</ele>
        <time>2018-09-06T08:49:38Z</time>
      </trkpt>
      <trkpt lat="46.197762" lon="13.441736">
        <ele>711.999</ele>
        <time>2018-09-06T08:49:44Z</time>
      </trkpt>
      <trkpt lat="46.197676" lon="13.441674">
        <ele>711.970</ele>
        <time>2018-09-06T08:49:57Z</time>
      </trkpt>
      <trkpt lat="46.197676" lon="13.441739">
        <ele>710.040</ele>
        <time>2018-09-06T08:50:24Z</time>
      </trkpt>
      <trkpt lat="46.197675" lon="13.441739">
        <ele>712.483</ele>
        <time>2018-09-06T08:50:51Z</time>
      </trkpt>
      <trkpt lat="46.197693" lon="13.441667">
        <ele>715.337</ele>
        <time>2018-09-06T08:51:10Z</time>
      </trkpt>
      <trkpt lat="46.197701" lon="13.441661">
        <ele>716.827</ele>
        <time>2018-09-06T08:51:29Z</time>
      </trkpt>
      <trkpt lat="46.197693" lon="13.441658">
        <ele>717.268</ele>
        <time>2018-09-06T08:51:37Z</time>
      </trkpt>
      <trkpt lat="46.197730" lon="13.441681">
        <ele>715.814</ele>
        <time>2018-09-06T08:51:41Z</time>
      </trkpt>
      <trkpt lat="46.197769" lon="13.441696">
        <ele>715.808</ele>
        <time>2018-09-06T08:51:45Z</time>
      </trkpt>
      <trkpt lat="46.197824" lon="13.441672">
        <ele>714.836</ele>
        <time>2018-09-06T08:51:49Z</time>
      </trkpt>
      <trkpt lat="46.198000" lon="13.441513">
        <ele>712.948</ele>
        <time>2018-09-06T08:52:02Z</time>
      </trkpt>
      <trkpt lat="46.198043" lon="13.441535">
        <ele>713.494</ele>
        <time>2018-09-06T08:52:06Z</time>
      </trkpt>
      <trkpt lat="46.198168" lon="13.441797">
        <ele>715.830</ele>
        <time>2018-09-06T08:52:23Z</time>
      </trkpt>
      <trkpt lat="46.198274" lon="13.442034">
        <ele>717.281</ele>
        <time>2018-09-06T08:52:38Z</time>
      </trkpt>
      <trkpt lat="46.198410" lon="13.442258">
        <ele>720.661</ele>
        <time>2018-09-06T08:52:56Z</time>
      </trkpt>
      <trkpt lat="46.198505" lon="13.442434">
        <ele>721.614</ele>
        <time>2018-09-06T08:53:11Z</time>
      </trkpt>
      <trkpt lat="46.198527" lon="13.442491">
        <ele>721.698</ele>
        <time>2018-09-06T08:53:15Z</time>
      </trkpt>
      <trkpt lat="46.198567" lon="13.442569">
        <ele>722.521</ele>
        <time>2018-09-06T08:53:21Z</time>
      </trkpt>
      <trkpt lat="46.198580" lon="13.442621">
        <ele>723.041</ele>
        <time>2018-09-06T08:53:24Z</time>
      </trkpt>
      <trkpt lat="46.198585" lon="13.443098">
        <ele>720.605</ele>
        <time>2018-09-06T08:53:41Z</time>
      </trkpt>
      <trkpt lat="46.198508" lon="13.443525">
        <ele>721.608</ele>
        <time>2018-09-06T08:53:55Z</time>
      </trkpt>
      <trkpt lat="46.198477" lon="13.443640">
        <ele>721.136</ele>
        <time>2018-09-06T08:54:00Z</time>
      </trkpt>
      <trkpt lat="46.198478" lon="13.443663">
        <ele>720.698</ele>
        <time>2018-09-06T08:54:01Z</time>
      </trkpt>
      <trkpt lat="46.198481" lon="13.443685">
        <ele>720.614</ele>
        <time>2018-09-06T08:54:02Z</time>
      </trkpt>
      <trkpt lat="46.198481" lon="13.443707">
        <ele>720.620</ele>
        <time>2018-09-06T08:54:03Z</time>
      </trkpt>
      <trkpt lat="46.198479" lon="13.443727">
        <ele>720.631</ele>
        <time>2018-09-06T08:54:04Z</time>
      </trkpt>
      <trkpt lat="46.198475" lon="13.443743">
        <ele>721.111</ele>
        <time>2018-09-06T08:54:05Z</time>
      </trkpt>
      <trkpt lat="46.198472" lon="13.443758">
        <ele>721.674</ele>
        <time>2018-09-06T08:54:06Z</time>
      </trkpt>
      <trkpt lat="46.198426" lon="13.444158">
        <ele>723.038</ele>
        <time>2018-09-06T08:54:19Z</time>
      </trkpt>
      <trkpt lat="46.198368" lon="13.444749">
        <ele>721.126</ele>
        <time>2018-09-06T08:54:34Z</time>
      </trkpt>
      <trkpt lat="46.198272" lon="13.445305">
        <ele>721.147</ele>
        <time>2018-09-06T08:54:47Z</time>
      </trkpt>
      <trkpt lat="46.198344" lon="13.445807">
        <ele>722.011</ele>
        <time>2018-09-06T08:55:02Z</time>
      </trkpt>
      <trkpt lat="46.198465" lon="13.446260">
        <ele>724.908</ele>
        <time>2018-09-06T08:55:21Z</time>
      </trkpt>
      <trkpt lat="46.198594" lon="13.446427">
        <ele>726.886</ele>
        <time>2018-09-06T08:55:32Z</time>
      </trkpt>
      <trkpt lat="46.198608" lon="13.446429">
        <ele>727.348</ele>
        <time>2018-09-06T08:55:33Z</time>
      </trkpt>
      <trkpt lat="46.198623" lon="13.446435">
        <ele>727.364</ele>
        <time>2018-09-06T08:55:34Z</time>
      </trkpt>
      <trkpt lat="46.198638" lon="13.446440">
        <ele>727.840</ele>
        <time>2018-09-06T08:55:35Z</time>
      </trkpt>
      <trkpt lat="46.198649" lon="13.446441">
        <ele>727.881</ele>
        <time>2018-09-06T08:55:36Z</time>
      </trkpt>
      <trkpt lat="46.198663" lon="13.446445">
        <ele>727.811</ele>
        <time>2018-09-06T08:55:37Z</time>
      </trkpt>
      <trkpt lat="46.198679" lon="13.446450">
        <ele>728.384</ele>
        <time>2018-09-06T08:55:38Z</time>
      </trkpt>
      <trkpt lat="46.198787" lon="13.446431">
        <ele>729.368</ele>
        <time>2018-09-06T08:55:45Z</time>
      </trkpt>
      <trkpt lat="46.198798" lon="13.446416">
        <ele>729.372</ele>
        <time>2018-09-06T08:55:46Z</time>
      </trkpt>
      <trkpt lat="46.198808" lon="13.446399">
        <ele>729.713</ele>
        <time>2018-09-06T08:55:47Z</time>
      </trkpt>
      <trkpt lat="46.198818" lon="13.446382">
        <ele>729.714</ele>
        <time>2018-09-06T08:55:48Z</time>
      </trkpt>
      <trkpt lat="46.198825" lon="13.446363">
        <ele>729.708</ele>
        <time>2018-09-06T08:55:49Z</time>
      </trkpt>
      <trkpt lat="46.198833" lon="13.446341">
        <ele>730.291</ele>
        <time>2018-09-06T08:55:50Z</time>
      </trkpt>
      <trkpt lat="46.198876" lon="13.446232">
        <ele>730.783</ele>
        <time>2018-09-06T08:55:56Z</time>
      </trkpt>
      <trkpt lat="46.198875" lon="13.446207">
        <ele>730.739</ele>
        <time>2018-09-06T08:55:57Z</time>
      </trkpt>
      <trkpt lat="46.198875" lon="13.446182">
        <ele>730.755</ele>
        <time>2018-09-06T08:55:58Z</time>
      </trkpt>
      <trkpt lat="46.198920" lon="13.445907">
        <ele>733.626</ele>
        <time>2018-09-06T08:56:12Z</time>
      </trkpt>
      <trkpt lat="46.198972" lon="13.445560">
        <ele>737.456</ele>
        <time>2018-09-06T08:56:30Z</time>
      </trkpt>
      <trkpt lat="46.199028" lon="13.445202">
        <ele>741.399</ele>
        <time>2018-09-06T08:56:49Z</time>
      </trkpt>
      <trkpt lat="46.199040" lon="13.444944">
        <ele>743.793</ele>
        <time>2018-09-06T08:57:03Z</time>
      </trkpt>
      <trkpt lat="46.199047" lon="13.444873">
        <ele>744.237</ele>
        <time>2018-09-06T08:57:07Z</time>
      </trkpt>
      <trkpt lat="46.199047" lon="13.444854">
        <ele>744.649</ele>
        <time>2018-09-06T08:57:08Z</time>
      </trkpt>
      <trkpt lat="46.199089" lon="13.444562">
        <ele>749.913</ele>
        <time>2018-09-06T08:57:24Z</time>
      </trkpt>
      <trkpt lat="46.199102" lon="13.444200">
        <ele>751.408</ele>
        <time>2018-09-06T08:57:40Z</time>
      </trkpt>
      <trkpt lat="46.199104" lon="13.443773">
        <ele>757.117</ele>
        <time>2018-09-06T08:57:59Z</time>
      </trkpt>
      <trkpt lat="46.199169" lon="13.443439">
        <ele>761.059</ele>
        <time>2018-09-06T08:58:15Z</time>
      </trkpt>
      <trkpt lat="46.199173" lon="13.443418">
        <ele>761.045</ele>
        <time>2018-09-06T08:58:16Z</time>
      </trkpt>
      <trkpt lat="46.199180" lon="13.443400">
        <ele>761.551</ele>
        <time>2018-09-06T08:58:17Z</time>
      </trkpt>
      <trkpt lat="46.199186" lon="13.443378">
        <ele>761.572</ele>
        <time>2018-09-06T08:58:18Z</time>
      </trkpt>
      <trkpt lat="46.199192" lon="13.443352">
        <ele>761.062</ele>
        <time>2018-09-06T08:58:19Z</time>
      </trkpt>
      <trkpt lat="46.199198" lon="13.443329">
        <ele>760.525</ele>
        <time>2018-09-06T08:58:20Z</time>
      </trkpt>
      <trkpt lat="46.199203" lon="13.443312">
        <ele>760.589</ele>
        <time>2018-09-06T08:58:21Z</time>
      </trkpt>
      <trkpt lat="46.199248" lon="13.443002">
        <ele>759.122</ele>
        <time>2018-09-06T08:58:35Z</time>
      </trkpt>
      <trkpt lat="46.199254" lon="13.442932">
        <ele>758.662</ele>
        <time>2018-09-06T08:58:38Z</time>
      </trkpt>
      <trkpt lat="46.199255" lon="13.442908">
        <ele>758.608</ele>
        <time>2018-09-06T08:58:39Z</time>
      </trkpt>
      <trkpt lat="46.199257" lon="13.442887">
        <ele>758.608</ele>
        <time>2018-09-06T08:58:40Z</time>
      </trkpt>
      <trkpt lat="46.199277" lon="13.442639">
        <ele>761.926</ele>
        <time>2018-09-06T08:58:53Z</time>
      </trkpt>
      <trkpt lat="46.199287" lon="13.442317">
        <ele>767.788</ele>
        <time>2018-09-06T08:59:10Z</time>
      </trkpt>
      <trkpt lat="46.199298" lon="13.442018">
        <ele>773.074</ele>
        <time>2018-09-06T08:59:26Z</time>
      </trkpt>
      <trkpt lat="46.199315" lon="13.441897">
        <ele>773.560</ele>
        <time>2018-09-06T08:59:33Z</time>
      </trkpt>
      <trkpt lat="46.199320" lon="13.441876">
        <ele>773.521</ele>
        <time>2018-09-06T08:59:34Z</time>
      </trkpt>
      <trkpt lat="46.199323" lon="13.441855">
        <ele>773.591</ele>
        <time>2018-09-06T08:59:35Z</time>
      </trkpt>
      <trkpt lat="46.199357" lon="13.441610">
        <ele>775.974</ele>
        <time>2018-09-06T08:59:47Z</time>
      </trkpt>
      <trkpt lat="46.199363" lon="13.441591">
        <ele>775.928</ele>
        <time>2018-09-06T08:59:48Z</time>
      </trkpt>
      <trkpt lat="46.199369" lon="13.441570">
        <ele>775.983</ele>
        <time>2018-09-06T08:59:49Z</time>
      </trkpt>
      <trkpt lat="46.199370" lon="13.441549">
        <ele>775.925</ele>
        <time>2018-09-06T08:59:50Z</time>
      </trkpt>
      <trkpt lat="46.199370" lon="13.441529">
        <ele>775.917</ele>
        <time>2018-09-06T08:59:51Z</time>
      </trkpt>
      <trkpt lat="46.199370" lon="13.441508">
        <ele>775.908</ele>
        <time>2018-09-06T08:59:52Z</time>
      </trkpt>
      <trkpt lat="46.199373" lon="13.441487">
        <ele>775.912</ele>
        <time>2018-09-06T08:59:53Z</time>
      </trkpt>
      <trkpt lat="46.199380" lon="13.441468">
        <ele>776.484</ele>
        <time>2018-09-06T08:59:54Z</time>
      </trkpt>
      <trkpt lat="46.199383" lon="13.441453">
        <ele>776.890</ele>
        <time>2018-09-06T08:59:55Z</time>
      </trkpt>
      <trkpt lat="46.199387" lon="13.441436">
        <ele>777.366</ele>
        <time>2018-09-06T08:59:56Z</time>
      </trkpt>
      <trkpt lat="46.199414" lon="13.441143">
        <ele>780.797</ele>
        <time>2018-09-06T09:00:11Z</time>
      </trkpt>
      <trkpt lat="46.199482" lon="13.440905">
        <ele>785.017</ele>
        <time>2018-09-06T09:00:25Z</time>
      </trkpt>
      <trkpt lat="46.199489" lon="13.440889">
        <ele>785.010</ele>
        <time>2018-09-06T09:00:26Z</time>
      </trkpt>
      <trkpt lat="46.199500" lon="13.440872">
        <ele>785.094</ele>
        <time>2018-09-06T09:00:27Z</time>
      </trkpt>
      <trkpt lat="46.199630" lon="13.440664">
        <ele>783.633</ele>
        <time>2018-09-06T09:00:40Z</time>
      </trkpt>
      <trkpt lat="46.199695" lon="13.440558">
        <ele>781.623</ele>
        <time>2018-09-06T09:00:46Z</time>
      </trkpt>
      <trkpt lat="46.199763" lon="13.440364">
        <ele>780.215</ele>
        <time>2018-09-06T09:00:56Z</time>
      </trkpt>
      <trkpt lat="46.199763" lon="13.440344">
        <ele>780.708</ele>
        <time>2018-09-06T09:00:57Z</time>
      </trkpt>
      <trkpt lat="46.199764" lon="13.440325">
        <ele>780.717</ele>
        <time>2018-09-06T09:00:58Z</time>
      </trkpt>
      <trkpt lat="46.199769" lon="13.440308">
        <ele>780.769</ele>
        <time>2018-09-06T09:00:59Z</time>
      </trkpt>
      <trkpt lat="46.199778" lon="13.440292">
        <ele>781.275</ele>
        <time>2018-09-06T09:01:00Z</time>
      </trkpt>
      <trkpt lat="46.199846" lon="13.440129">
        <ele>784.511</ele>
        <time>2018-09-06T09:01:11Z</time>
      </trkpt>
      <trkpt lat="46.199845" lon="13.440099">
        <ele>786.042</ele>
        <time>2018-09-06T09:01:13Z</time>
      </trkpt>
      <trkpt lat="46.199845" lon="13.440083">
        <ele>786.912</ele>
        <time>2018-09-06T09:01:14Z</time>
      </trkpt>
      <trkpt lat="46.199857" lon="13.440055">
        <ele>787.925</ele>
        <time>2018-09-06T09:01:16Z</time>
      </trkpt>
      <trkpt lat="46.199930" lon="13.439849">
        <ele>795.139</ele>
        <time>2018-09-06T09:01:31Z</time>
      </trkpt>
      <trkpt lat="46.199929" lon="13.439835">
        <ele>795.163</ele>
        <time>2018-09-06T09:01:32Z</time>
      </trkpt>
      <trkpt lat="46.199929" lon="13.439820">
        <ele>795.644</ele>
        <time>2018-09-06T09:01:33Z</time>
      </trkpt>
      <trkpt lat="46.199929" lon="13.439807">
        <ele>795.618</ele>
        <time>2018-09-06T09:01:34Z</time>
      </trkpt>
      <trkpt lat="46.199939" lon="13.439726">
        <ele>796.108</ele>
        <time>2018-09-06T09:01:40Z</time>
      </trkpt>
      <trkpt lat="46.199941" lon="13.439511">
        <ele>799.930</ele>
        <time>2018-09-06T09:01:53Z</time>
      </trkpt>
      <trkpt lat="46.199947" lon="13.439446">
        <ele>800.912</ele>
        <time>2018-09-06T09:01:57Z</time>
      </trkpt>
      <trkpt lat="46.199950" lon="13.439430">
        <ele>801.488</ele>
        <time>2018-09-06T09:01:58Z</time>
      </trkpt>
      <trkpt lat="46.199962" lon="13.439322">
        <ele>801.894</ele>
        <time>2018-09-06T09:02:05Z</time>
      </trkpt>
      <trkpt lat="46.199986" lon="13.439166">
        <ele>804.215</ele>
        <time>2018-09-06T09:02:15Z</time>
      </trkpt>
      <trkpt lat="46.199990" lon="13.439147">
        <ele>804.735</ele>
        <time>2018-09-06T09:02:16Z</time>
      </trkpt>
      <trkpt lat="46.200099" lon="13.438871">
        <ele>805.798</ele>
        <time>2018-09-06T09:02:33Z</time>
      </trkpt>
      <trkpt lat="46.200129" lon="13.438792">
        <ele>807.152</ele>
        <time>2018-09-06T09:02:38Z</time>
      </trkpt>
      <trkpt lat="46.200132" lon="13.438697">
        <ele>809.021</ele>
        <time>2018-09-06T09:02:44Z</time>
      </trkpt>
      <trkpt lat="46.200126" lon="13.438682">
        <ele>809.541</ele>
        <time>2018-09-06T09:02:45Z</time>
      </trkpt>
      <trkpt lat="46.200119" lon="13.438666">
        <ele>810.005</ele>
        <time>2018-09-06T09:02:46Z</time>
      </trkpt>
      <trkpt lat="46.200113" lon="13.438650">
        <ele>810.008</ele>
        <time>2018-09-06T09:02:47Z</time>
      </trkpt>
      <trkpt lat="46.200108" lon="13.438636">
        <ele>810.546</ele>
        <time>2018-09-06T09:02:48Z</time>
      </trkpt>
      <trkpt lat="46.200102" lon="13.438621">
        <ele>811.028</ele>
        <time>2018-09-06T09:02:49Z</time>
      </trkpt>
      <trkpt lat="46.200095" lon="13.438605">
        <ele>811.484</ele>
        <time>2018-09-06T09:02:50Z</time>
      </trkpt>
      <trkpt lat="46.200088" lon="13.438591">
        <ele>811.430</ele>
        <time>2018-09-06T09:02:51Z</time>
      </trkpt>
      <trkpt lat="46.200082" lon="13.438580">
        <ele>811.041</ele>
        <time>2018-09-06T09:02:52Z</time>
      </trkpt>
      <trkpt lat="46.200075" lon="13.438568">
        <ele>811.071</ele>
        <time>2018-09-06T09:02:53Z</time>
      </trkpt>
      <trkpt lat="46.200070" lon="13.438554">
        <ele>810.514</ele>
        <time>2018-09-06T09:02:54Z</time>
      </trkpt>
      <trkpt lat="46.200064" lon="13.438540">
        <ele>810.528</ele>
        <time>2018-09-06T09:02:55Z</time>
      </trkpt>
      <trkpt lat="46.200058" lon="13.438527">
        <ele>810.518</ele>
        <time>2018-09-06T09:02:56Z</time>
      </trkpt>
      <trkpt lat="46.199908" lon="13.438303">
        <ele>809.098</ele>
        <time>2018-09-06T09:03:15Z</time>
      </trkpt>
      <trkpt lat="46.199764" lon="13.438226">
        <ele>811.917</ele>
        <time>2018-09-06T09:03:29Z</time>
      </trkpt>
      <trkpt lat="46.199751" lon="13.438173">
        <ele>812.408</ele>
        <time>2018-09-06T09:03:33Z</time>
      </trkpt>
      <trkpt lat="46.199753" lon="13.438155">
        <ele>812.435</ele>
        <time>2018-09-06T09:03:34Z</time>
      </trkpt>
      <trkpt lat="46.199753" lon="13.438139">
        <ele>812.487</ele>
        <time>2018-09-06T09:03:35Z</time>
      </trkpt>
      <trkpt lat="46.199753" lon="13.438120">
        <ele>812.963</ele>
        <time>2018-09-06T09:03:36Z</time>
      </trkpt>
      <trkpt lat="46.199754" lon="13.438103">
        <ele>812.929</ele>
        <time>2018-09-06T09:03:37Z</time>
      </trkpt>
      <trkpt lat="46.199752" lon="13.438085">
        <ele>813.440</ele>
        <time>2018-09-06T09:03:38Z</time>
      </trkpt>
      <trkpt lat="46.199752" lon="13.438026">
        <ele>814.340</ele>
        <time>2018-09-06T09:03:41Z</time>
      </trkpt>
      <trkpt lat="46.199755" lon="13.438007">
        <ele>814.343</ele>
        <time>2018-09-06T09:03:42Z</time>
      </trkpt>
      <trkpt lat="46.199828" lon="13.437668">
        <ele>813.437</ele>
        <time>2018-09-06T09:04:01Z</time>
      </trkpt>
      <trkpt lat="46.199897" lon="13.437452">
        <ele>816.353</ele>
        <time>2018-09-06T09:04:16Z</time>
      </trkpt>
      <trkpt lat="46.199928" lon="13.437385">
        <ele>816.704</ele>
        <time>2018-09-06T09:04:21Z</time>
      </trkpt>
      <trkpt lat="46.199935" lon="13.437373">
        <ele>817.214</ele>
        <time>2018-09-06T09:04:22Z</time>
      </trkpt>
      <trkpt lat="46.199941" lon="13.437358">
        <ele>817.208</ele>
        <time>2018-09-06T09:04:23Z</time>
      </trkpt>
      <trkpt lat="46.199945" lon="13.437345">
        <ele>817.219</ele>
        <time>2018-09-06T09:04:24Z</time>
      </trkpt>
      <trkpt lat="46.199954" lon="13.437316">
        <ele>817.761</ele>
        <time>2018-09-06T09:04:26Z</time>
      </trkpt>
      <trkpt lat="46.199959" lon="13.437184">
        <ele>821.187</ele>
        <time>2018-09-06T09:04:34Z</time>
      </trkpt>
      <trkpt lat="46.199951" lon="13.437173">
        <ele>821.163</ele>
        <time>2018-09-06T09:04:35Z</time>
      </trkpt>
      <trkpt lat="46.199941" lon="13.437169">
        <ele>821.144</ele>
        <time>2018-09-06T09:04:36Z</time>
      </trkpt>
      <trkpt lat="46.199931" lon="13.437165">
        <ele>821.134</ele>
        <time>2018-09-06T09:04:37Z</time>
      </trkpt>
      <trkpt lat="46.199922" lon="13.437155">
        <ele>821.527</ele>
        <time>2018-09-06T09:04:38Z</time>
      </trkpt>
      <trkpt lat="46.199912" lon="13.437145">
        <ele>821.571</ele>
        <time>2018-09-06T09:04:39Z</time>
      </trkpt>
      <trkpt lat="46.199902" lon="13.437140">
        <ele>821.526</ele>
        <time>2018-09-06T09:04:40Z</time>
      </trkpt>
      <trkpt lat="46.199892" lon="13.437135">
        <ele>822.047</ele>
        <time>2018-09-06T09:04:41Z</time>
      </trkpt>
      <trkpt lat="46.199706" lon="13.437101">
        <ele>824.411</ele>
        <time>2018-09-06T09:04:59Z</time>
      </trkpt>
      <trkpt lat="46.199602" lon="13.437010">
        <ele>825.408</ele>
        <time>2018-09-06T09:05:09Z</time>
      </trkpt>
      <trkpt lat="46.199594" lon="13.436994">
        <ele>825.966</ele>
        <time>2018-09-06T09:05:10Z</time>
      </trkpt>
      <trkpt lat="46.199537" lon="13.436781">
        <ele>829.758</ele>
        <time>2018-09-06T09:05:23Z</time>
      </trkpt>
      <trkpt lat="46.199474" lon="13.436408">
        <ele>832.114</ele>
        <time>2018-09-06T09:05:40Z</time>
      </trkpt>
      <trkpt lat="46.199389" lon="13.436150">
        <ele>832.670</ele>
        <time>2018-09-06T09:05:53Z</time>
      </trkpt>
      <trkpt lat="46.199415" lon="13.435972">
        <ele>833.621</ele>
        <time>2018-09-06T09:06:03Z</time>
      </trkpt>
      <trkpt lat="46.199430" lon="13.435985">
        <ele>834.081</ele>
        <time>2018-09-06T09:06:04Z</time>
      </trkpt>
      <trkpt lat="46.199445" lon="13.436003">
        <ele>834.594</ele>
        <time>2018-09-06T09:06:05Z</time>
      </trkpt>
      <trkpt lat="46.199581" lon="13.436418">
        <ele>834.038</ele>
        <time>2018-09-06T09:06:17Z</time>
      </trkpt>
      <trkpt lat="46.199703" lon="13.436646">
        <ele>833.143</ele>
        <time>2018-09-06T09:06:24Z</time>
      </trkpt>
      <trkpt lat="46.199726" lon="13.436648">
        <ele>833.164</ele>
        <time>2018-09-06T09:06:25Z</time>
      </trkpt>
      <trkpt lat="46.199745" lon="13.436646">
        <ele>833.610</ele>
        <time>2018-09-06T09:06:26Z</time>
      </trkpt>
      <trkpt lat="46.199761" lon="13.436636">
        <ele>833.608</ele>
        <time>2018-09-06T09:06:27Z</time>
      </trkpt>
      <trkpt lat="46.199772" lon="13.436616">
        <ele>834.048</ele>
        <time>2018-09-06T09:06:28Z</time>
      </trkpt>
      <trkpt lat="46.199778" lon="13.436597">
        <ele>834.050</ele>
        <time>2018-09-06T09:06:29Z</time>
      </trkpt>
      <trkpt lat="46.199780" lon="13.436570">
        <ele>834.086</ele>
        <time>2018-09-06T09:06:30Z</time>
      </trkpt>
      <trkpt lat="46.199779" lon="13.436547">
        <ele>834.052</ele>
        <time>2018-09-06T09:06:31Z</time>
      </trkpt>
      <trkpt lat="46.199774" lon="13.436522">
        <ele>834.583</ele>
        <time>2018-09-06T09:06:32Z</time>
      </trkpt>
      <trkpt lat="46.199766" lon="13.436501">
        <ele>834.523</ele>
        <time>2018-09-06T09:06:33Z</time>
      </trkpt>
      <trkpt lat="46.199645" lon="13.436192">
        <ele>836.476</ele>
        <time>2018-09-06T09:06:49Z</time>
      </trkpt>
      <trkpt lat="46.199573" lon="13.435898">
        <ele>840.390</ele>
        <time>2018-09-06T09:07:05Z</time>
      </trkpt>
      <trkpt lat="46.199555" lon="13.435794">
        <ele>841.754</ele>
        <time>2018-09-06T09:07:11Z</time>
      </trkpt>
      <trkpt lat="46.199548" lon="13.435778">
        <ele>842.256</ele>
        <time>2018-09-06T09:07:12Z</time>
      </trkpt>
      <trkpt lat="46.199540" lon="13.435758">
        <ele>842.711</ele>
        <time>2018-09-06T09:07:13Z</time>
      </trkpt>
      <trkpt lat="46.199474" lon="13.435565">
        <ele>845.608</ele>
        <time>2018-09-06T09:07:26Z</time>
      </trkpt>
      <trkpt lat="46.199473" lon="13.435544">
        <ele>845.629</ele>
        <time>2018-09-06T09:07:27Z</time>
      </trkpt>
      <trkpt lat="46.199463" lon="13.435513">
        <ele>845.611</ele>
        <time>2018-09-06T09:07:29Z</time>
      </trkpt>
      <trkpt lat="46.199456" lon="13.435495">
        <ele>845.637</ele>
        <time>2018-09-06T09:07:30Z</time>
      </trkpt>
      <trkpt lat="46.199449" lon="13.435481">
        <ele>845.693</ele>
        <time>2018-09-06T09:07:31Z</time>
      </trkpt>
      <trkpt lat="46.199383" lon="13.435352">
        <ele>846.524</ele>
        <time>2018-09-06T09:07:43Z</time>
      </trkpt>
      <trkpt lat="46.199368" lon="13.435347">
        <ele>846.594</ele>
        <time>2018-09-06T09:07:45Z</time>
      </trkpt>
      <trkpt lat="46.199365" lon="13.435331">
        <ele>846.567</ele>
        <time>2018-09-06T09:07:46Z</time>
      </trkpt>
      <trkpt lat="46.199365" lon="13.435314">
        <ele>846.591</ele>
        <time>2018-09-06T09:07:47Z</time>
      </trkpt>
      <trkpt lat="46.199364" lon="13.435299">
        <ele>846.553</ele>
        <time>2018-09-06T09:07:48Z</time>
      </trkpt>
      <trkpt lat="46.199357" lon="13.435281">
        <ele>846.504</ele>
        <time>2018-09-06T09:07:49Z</time>
      </trkpt>
      <trkpt lat="46.199348" lon="13.435267">
        <ele>846.514</ele>
        <time>2018-09-06T09:07:50Z</time>
      </trkpt>
      <trkpt lat="46.199296" lon="13.435189">
        <ele>848.008</ele>
        <time>2018-09-06T09:07:57Z</time>
      </trkpt>
      <trkpt lat="46.199292" lon="13.435172">
        <ele>848.529</ele>
        <time>2018-09-06T09:07:58Z</time>
      </trkpt>
      <trkpt lat="46.199281" lon="13.435120">
        <ele>848.931</ele>
        <time>2018-09-06T09:08:01Z</time>
      </trkpt>
      <trkpt lat="46.199270" lon="13.435108">
        <ele>849.427</ele>
        <time>2018-09-06T09:08:02Z</time>
      </trkpt>
      <trkpt lat="46.199260" lon="13.435097">
        <ele>849.983</ele>
        <time>2018-09-06T09:08:03Z</time>
      </trkpt>
      <trkpt lat="46.199252" lon="13.435084">
        <ele>849.954</ele>
        <time>2018-09-06T09:08:04Z</time>
      </trkpt>
      <trkpt lat="46.199246" lon="13.435070">
        <ele>850.414</ele>
        <time>2018-09-06T09:08:05Z</time>
      </trkpt>
      <trkpt lat="46.199240" lon="13.435054">
        <ele>850.467</ele>
        <time>2018-09-06T09:08:06Z</time>
      </trkpt>
      <trkpt lat="46.199238" lon="13.435036">
        <ele>850.421</ele>
        <time>2018-09-06T09:08:07Z</time>
      </trkpt>
      <trkpt lat="46.199239" lon="13.435018">
        <ele>850.499</ele>
        <time>2018-09-06T09:08:08Z</time>
      </trkpt>
      <trkpt lat="46.199241" lon="13.435002">
        <ele>850.907</ele>
        <time>2018-09-06T09:08:09Z</time>
      </trkpt>
      <trkpt lat="46.199239" lon="13.434972">
        <ele>851.327</ele>
        <time>2018-09-06T09:08:11Z</time>
      </trkpt>
      <trkpt lat="46.199236" lon="13.434957">
        <ele>851.308</ele>
        <time>2018-09-06T09:08:12Z</time>
      </trkpt>
      <trkpt lat="46.199234" lon="13.434940">
        <ele>851.853</ele>
        <time>2018-09-06T09:08:13Z</time>
      </trkpt>
      <trkpt lat="46.199230" lon="13.434926">
        <ele>851.855</ele>
        <time>2018-09-06T09:08:14Z</time>
      </trkpt>
      <trkpt lat="46.199224" lon="13.434911">
        <ele>852.371</ele>
        <time>2018-09-06T09:08:15Z</time>
      </trkpt>
      <trkpt lat="46.199218" lon="13.434899">
        <ele>852.877</ele>
        <time>2018-09-06T09:08:16Z</time>
      </trkpt>
      <trkpt lat="46.199211" lon="13.434886">
        <ele>852.838</ele>
        <time>2018-09-06T09:08:17Z</time>
      </trkpt>
      <trkpt lat="46.199158" lon="13.434688">
        <ele>855.778</ele>
        <time>2018-09-06T09:08:32Z</time>
      </trkpt>
      <trkpt lat="46.199139" lon="13.434711">
        <ele>853.341</ele>
        <time>2018-09-06T09:08:55Z</time>
      </trkpt>
      <trkpt lat="46.199137" lon="13.434700">
        <ele>851.395</ele>
        <time>2018-09-06T09:09:31Z</time>
      </trkpt>
      <trkpt lat="46.199159" lon="13.434732">
        <ele>849.986</ele>
        <time>2018-09-06T09:10:05Z</time>
      </trkpt>
      <trkpt lat="46.199152" lon="13.434696">
        <ele>850.960</ele>
        <time>2018-09-06T09:10:40Z</time>
      </trkpt>
      <trkpt lat="46.199146" lon="13.434745">
        <ele>847.526</ele>
        <time>2018-09-06T09:11:14Z</time>
      </trkpt>
      <trkpt lat="46.199134" lon="13.434749">
        <ele>849.408</ele>
        <time>2018-09-06T09:11:48Z</time>
      </trkpt>
      <trkpt lat="46.199146" lon="13.434751">
        <ele>848.992</ele>
        <time>2018-09-06T09:12:34Z</time>
      </trkpt>
      <trkpt lat="46.199157" lon="13.434688">
        <ele>852.364</ele>
        <time>2018-09-06T09:13:03Z</time>
      </trkpt>
      <trkpt lat="46.199111" lon="13.434578">
        <ele>853.360</ele>
        <time>2018-09-06T09:13:13Z</time>
      </trkpt>
      <trkpt lat="46.198943" lon="13.434304">
        <ele>855.786</ele>
        <time>2018-09-06T09:13:28Z</time>
      </trkpt>
      <trkpt lat="46.198708" lon="13.434104">
        <ele>855.737</ele>
        <time>2018-09-06T09:13:40Z</time>
      </trkpt>
      <trkpt lat="46.198212" lon="13.433867">
        <ele>854.267</ele>
        <time>2018-09-06T09:13:55Z</time>
      </trkpt>
      <trkpt lat="46.198107" lon="13.433859">
        <ele>853.790</ele>
        <time>2018-09-06T09:13:57Z</time>
      </trkpt>
      <trkpt lat="46.198054" lon="13.433832">
        <ele>853.374</ele>
        <time>2018-09-06T09:13:58Z</time>
      </trkpt>
      <trkpt lat="46.198010" lon="13.433779">
        <ele>853.392</ele>
        <time>2018-09-06T09:13:59Z</time>
      </trkpt>
      <trkpt lat="46.197975" lon="13.433711">
        <ele>853.373</ele>
        <time>2018-09-06T09:14:00Z</time>
      </trkpt>
      <trkpt lat="46.197950" lon="13.433639">
        <ele>853.320</ele>
        <time>2018-09-06T09:14:01Z</time>
      </trkpt>
      <trkpt lat="46.197931" lon="13.433570">
        <ele>853.308</ele>
        <time>2018-09-06T09:14:02Z</time>
      </trkpt>
      <trkpt lat="46.197915" lon="13.433501">
        <ele>853.323</ele>
        <time>2018-09-06T09:14:03Z</time>
      </trkpt>
      <trkpt lat="46.197907" lon="13.433428">
        <ele>853.335</ele>
        <time>2018-09-06T09:14:04Z</time>
      </trkpt>
      <trkpt lat="46.197810" lon="13.432697">
        <ele>858.571</ele>
        <time>2018-09-06T09:14:18Z</time>
      </trkpt>
      <trkpt lat="46.197469" lon="13.432311">
        <ele>856.677</ele>
        <time>2018-09-06T09:14:29Z</time>
      </trkpt>
      <trkpt lat="46.197425" lon="13.432251">
        <ele>855.728</ele>
        <time>2018-09-06T09:14:30Z</time>
      </trkpt>
      <trkpt lat="46.197386" lon="13.432175">
        <ele>855.238</ele>
        <time>2018-09-06T09:14:31Z</time>
      </trkpt>
      <trkpt lat="46.197359" lon="13.432092">
        <ele>854.731</ele>
        <time>2018-09-06T09:14:32Z</time>
      </trkpt>
      <trkpt lat="46.197306" lon="13.431916">
        <ele>853.775</ele>
        <time>2018-09-06T09:14:34Z</time>
      </trkpt>
      <trkpt lat="46.197264" lon="13.431832">
        <ele>853.376</ele>
        <time>2018-09-06T09:14:35Z</time>
      </trkpt>
      <trkpt lat="46.197055" lon="13.431480">
        <ele>851.890</ele>
        <time>2018-09-06T09:14:39Z</time>
      </trkpt>
      <trkpt lat="46.197013" lon="13.431377">
        <ele>851.319</ele>
        <time>2018-09-06T09:14:40Z</time>
      </trkpt>
      <trkpt lat="46.196981" lon="13.431268">
        <ele>851.308</ele>
        <time>2018-09-06T09:14:41Z</time>
      </trkpt>
      <trkpt lat="46.196958" lon="13.431161">
        <ele>850.991</ele>
        <time>2018-09-06T09:14:42Z</time>
      </trkpt>
      <trkpt lat="46.196945" lon="13.431050">
        <ele>850.463</ele>
        <time>2018-09-06T09:14:43Z</time>
      </trkpt>
      <trkpt lat="46.196945" lon="13.430943">
        <ele>850.959</ele>
        <time>2018-09-06T09:14:44Z</time>
      </trkpt>
      <trkpt lat="46.196956" lon="13.430841">
        <ele>850.965</ele>
        <time>2018-09-06T09:14:45Z</time>
      </trkpt>
      <trkpt lat="46.196973" lon="13.430747">
        <ele>850.996</ele>
        <time>2018-09-06T09:14:46Z</time>
      </trkpt>
      <trkpt lat="46.196993" lon="13.430660">
        <ele>850.426</ele>
        <time>2018-09-06T09:14:47Z</time>
      </trkpt>
      <trkpt lat="46.197061" lon="13.430460">
        <ele>850.489</ele>
        <time>2018-09-06T09:14:50Z</time>
      </trkpt>
      <trkpt lat="46.197324" lon="13.429973">
        <ele>850.963</ele>
        <time>2018-09-06T09:15:04Z</time>
      </trkpt>
      <trkpt lat="46.197335" lon="13.429445">
        <ele>851.837</ele>
        <time>2018-09-06T09:15:17Z</time>
      </trkpt>
      <trkpt lat="46.197108" lon="13.429109">
        <ele>851.349</ele>
        <time>2018-09-06T09:15:25Z</time>
      </trkpt>
      <trkpt lat="46.197071" lon="13.429066">
        <ele>851.313</ele>
        <time>2018-09-06T09:15:26Z</time>
      </trkpt>
      <trkpt lat="46.196801" lon="13.428716">
        <ele>851.308</ele>
        <time>2018-09-06T09:15:33Z</time>
      </trkpt>
      <trkpt lat="46.196773" lon="13.428651">
        <ele>851.317</ele>
        <time>2018-09-06T09:15:34Z</time>
      </trkpt>
      <trkpt lat="46.196753" lon="13.428579">
        <ele>851.349</ele>
        <time>2018-09-06T09:15:35Z</time>
      </trkpt>
      <trkpt lat="46.196741" lon="13.428507">
        <ele>851.355</ele>
        <time>2018-09-06T09:15:36Z</time>
      </trkpt>
      <trkpt lat="46.196729" lon="13.428440">
        <ele>851.351</ele>
        <time>2018-09-06T09:15:37Z</time>
      </trkpt>
      <trkpt lat="46.196655" lon="13.427863">
        <ele>853.792</ele>
        <time>2018-09-06T09:15:47Z</time>
      </trkpt>
      <trkpt lat="46.196657" lon="13.427796">
        <ele>853.762</ele>
        <time>2018-09-06T09:15:48Z</time>
      </trkpt>
      <trkpt lat="46.196742" lon="13.427199">
        <ele>854.715</ele>
        <time>2018-09-06T09:15:57Z</time>
      </trkpt>
      <trkpt lat="46.196820" lon="13.426939">
        <ele>852.829</ele>
        <time>2018-09-06T09:16:01Z</time>
      </trkpt>
      <trkpt lat="46.196828" lon="13.426866">
        <ele>852.321</ele>
        <time>2018-09-06T09:16:02Z</time>
      </trkpt>
      <trkpt lat="46.196821" lon="13.426792">
        <ele>851.841</ele>
        <time>2018-09-06T09:16:03Z</time>
      </trkpt>
      <trkpt lat="46.196797" lon="13.426719">
        <ele>851.305</ele>
        <time>2018-09-06T09:16:04Z</time>
      </trkpt>
      <trkpt lat="46.196760" lon="13.426651">
        <ele>851.308</ele>
        <time>2018-09-06T09:16:05Z</time>
      </trkpt>
      <trkpt lat="46.196711" lon="13.426589">
        <ele>850.936</ele>
        <time>2018-09-06T09:16:06Z</time>
      </trkpt>
      <trkpt lat="46.196655" lon="13.426534">
        <ele>850.468</ele>
        <time>2018-09-06T09:16:07Z</time>
      </trkpt>
      <trkpt lat="46.196593" lon="13.426485">
        <ele>850.474</ele>
        <time>2018-09-06T09:16:08Z</time>
      </trkpt>
      <trkpt lat="46.196531" lon="13.426435">
        <ele>849.910</ele>
        <time>2018-09-06T09:16:09Z</time>
      </trkpt>
      <trkpt lat="46.196476" lon="13.426370">
        <ele>849.421</ele>
        <time>2018-09-06T09:16:10Z</time>
      </trkpt>
      <trkpt lat="46.196435" lon="13.426283">
        <ele>848.921</ele>
        <time>2018-09-06T09:16:11Z</time>
      </trkpt>
      <trkpt lat="46.196408" lon="13.426176">
        <ele>848.534</ele>
        <time>2018-09-06T09:16:12Z</time>
      </trkpt>
      <trkpt lat="46.196394" lon="13.426056">
        <ele>848.058</ele>
        <time>2018-09-06T09:16:13Z</time>
      </trkpt>
      <trkpt lat="46.196388" lon="13.425928">
        <ele>847.511</ele>
        <time>2018-09-06T09:16:14Z</time>
      </trkpt>
      <trkpt lat="46.196347" lon="13.425105">
        <ele>842.221</ele>
        <time>2018-09-06T09:16:20Z</time>
      </trkpt>
      <trkpt lat="46.196340" lon="13.424970">
        <ele>841.703</ele>
        <time>2018-09-06T09:16:21Z</time>
      </trkpt>
      <trkpt lat="46.196320" lon="13.424843">
        <ele>841.208</ele>
        <time>2018-09-06T09:16:22Z</time>
      </trkpt>
      <trkpt lat="46.196286" lon="13.424728">
        <ele>840.865</ele>
        <time>2018-09-06T09:16:23Z</time>
      </trkpt>
      <trkpt lat="46.196248" lon="13.424633">
        <ele>840.897</ele>
        <time>2018-09-06T09:16:24Z</time>
      </trkpt>
      <trkpt lat="46.196216" lon="13.424558">
        <ele>840.353</ele>
        <time>2018-09-06T09:16:25Z</time>
      </trkpt>
      <trkpt lat="46.196200" lon="13.424503">
        <ele>840.319</ele>
        <time>2018-09-06T09:16:26Z</time>
      </trkpt>
      <trkpt lat="46.196198" lon="13.424462">
        <ele>840.350</ele>
        <time>2018-09-06T09:16:27Z</time>
      </trkpt>
      <trkpt lat="46.196200" lon="13.424430">
        <ele>839.840</ele>
        <time>2018-09-06T09:16:28Z</time>
      </trkpt>
      <trkpt lat="46.196201" lon="13.424409">
        <ele>839.883</ele>
        <time>2018-09-06T09:16:29Z</time>
      </trkpt>
      <trkpt lat="46.196150" lon="13.423892">
        <ele>836.497</ele>
        <time>2018-09-06T09:16:40Z</time>
      </trkpt>
      <trkpt lat="46.196061" lon="13.422935">
        <ele>834.057</ele>
        <time>2018-09-06T09:16:51Z</time>
      </trkpt>
      <trkpt lat="46.196076" lon="13.422407">
        <ele>834.000</ele>
        <time>2018-09-06T09:17:03Z</time>
      </trkpt>
      <trkpt lat="46.196052" lon="13.421912">
        <ele>836.420</ele>
        <time>2018-09-06T09:17:18Z</time>
      </trkpt>
      <trkpt lat="46.196376" lon="13.421760">
        <ele>835.008</ele>
        <time>2018-09-06T09:17:27Z</time>
      </trkpt>
      <trkpt lat="46.197285" lon="13.421456">
        <ele>828.369</ele>
        <time>2018-09-06T09:17:37Z</time>
      </trkpt>
      <trkpt lat="46.197473" lon="13.421382">
        <ele>826.861</ele>
        <time>2018-09-06T09:17:39Z</time>
      </trkpt>
      <trkpt lat="46.197557" lon="13.421322">
        <ele>826.367</ele>
        <time>2018-09-06T09:17:40Z</time>
      </trkpt>
      <trkpt lat="46.197628" lon="13.421242">
        <ele>825.983</ele>
        <time>2018-09-06T09:17:41Z</time>
      </trkpt>
      <trkpt lat="46.197689" lon="13.421149">
        <ele>825.494</ele>
        <time>2018-09-06T09:17:42Z</time>
      </trkpt>
      <trkpt lat="46.197747" lon="13.421052">
        <ele>824.954</ele>
        <time>2018-09-06T09:17:43Z</time>
      </trkpt>
      <trkpt lat="46.197808" lon="13.420962">
        <ele>824.937</ele>
        <time>2018-09-06T09:17:44Z</time>
      </trkpt>
      <trkpt lat="46.197871" lon="13.420895">
        <ele>824.971</ele>
        <time>2018-09-06T09:17:45Z</time>
      </trkpt>
      <trkpt lat="46.197940" lon="13.420845">
        <ele>824.476</ele>
        <time>2018-09-06T09:17:46Z</time>
      </trkpt>
      <trkpt lat="46.198016" lon="13.420806">
        <ele>824.490</ele>
        <time>2018-09-06T09:17:47Z</time>
      </trkpt>
      <trkpt lat="46.198097" lon="13.420773">
        <ele>823.919</ele>
        <time>2018-09-06T09:17:48Z</time>
      </trkpt>
      <trkpt lat="46.198259" lon="13.420705">
        <ele>823.508</ele>
        <time>2018-09-06T09:17:50Z</time>
      </trkpt>
      <trkpt lat="46.198335" lon="13.420649">
        <ele>823.591</ele>
        <time>2018-09-06T09:17:51Z</time>
      </trkpt>
      <trkpt lat="46.198408" lon="13.420580">
        <ele>823.033</ele>
        <time>2018-09-06T09:17:52Z</time>
      </trkpt>
      <trkpt lat="46.198474" lon="13.420504">
        <ele>822.579</ele>
        <time>2018-09-06T09:17:53Z</time>
      </trkpt>
      <trkpt lat="46.198539" lon="13.420418">
        <ele>822.075</ele>
        <time>2018-09-06T09:17:54Z</time>
      </trkpt>
      <trkpt lat="46.198724" lon="13.420165">
        <ele>821.136</ele>
        <time>2018-09-06T09:17:57Z</time>
      </trkpt>
      <trkpt lat="46.198769" lon="13.420077">
        <ele>821.126</ele>
        <time>2018-09-06T09:17:58Z</time>
      </trkpt>
      <trkpt lat="46.198805" lon="13.419981">
        <ele>820.669</ele>
        <time>2018-09-06T09:17:59Z</time>
      </trkpt>
      <trkpt lat="46.198836" lon="13.419876">
        <ele>820.153</ele>
        <time>2018-09-06T09:18:00Z</time>
      </trkpt>
      <trkpt lat="46.198864" lon="13.419771">
        <ele>819.125</ele>
        <time>2018-09-06T09:18:01Z</time>
      </trkpt>
      <trkpt lat="46.198977" lon="13.419216">
        <ele>815.326</ele>
        <time>2018-09-06T09:18:06Z</time>
      </trkpt>
      <trkpt lat="46.199022" lon="13.419128">
        <ele>814.808</ele>
        <time>2018-09-06T09:18:07Z</time>
      </trkpt>
      <trkpt lat="46.199079" lon="13.419061">
        <ele>814.808</ele>
        <time>2018-09-06T09:18:08Z</time>
      </trkpt>
      <trkpt lat="46.199147" lon="13.419009">
        <ele>814.376</ele>
        <time>2018-09-06T09:18:09Z</time>
      </trkpt>
      <trkpt lat="46.199211" lon="13.418959">
        <ele>814.358</ele>
        <time>2018-09-06T09:18:10Z</time>
      </trkpt>
      <trkpt lat="46.199274" lon="13.418899">
        <ele>813.834</ele>
        <time>2018-09-06T09:18:11Z</time>
      </trkpt>
      <trkpt lat="46.199331" lon="13.418835">
        <ele>813.480</ele>
        <time>2018-09-06T09:18:12Z</time>
      </trkpt>
      <trkpt lat="46.199376" lon="13.418768">
        <ele>812.951</ele>
        <time>2018-09-06T09:18:13Z</time>
      </trkpt>
      <trkpt lat="46.199409" lon="13.418689">
        <ele>812.951</ele>
        <time>2018-09-06T09:18:14Z</time>
      </trkpt>
      <trkpt lat="46.199430" lon="13.418594">
        <ele>812.444</ele>
        <time>2018-09-06T09:18:15Z</time>
      </trkpt>
      <trkpt lat="46.199437" lon="13.418494">
        <ele>811.418</ele>
        <time>2018-09-06T09:18:16Z</time>
      </trkpt>
      <trkpt lat="46.199441" lon="13.418386">
        <ele>810.545</ele>
        <time>2018-09-06T09:18:17Z</time>
      </trkpt>
      <trkpt lat="46.199452" lon="13.418271">
        <ele>809.547</ele>
        <time>2018-09-06T09:18:18Z</time>
      </trkpt>
      <trkpt lat="46.199475" lon="13.418153">
        <ele>808.611</ele>
        <time>2018-09-06T09:18:19Z</time>
      </trkpt>
      <trkpt lat="46.199507" lon="13.418039">
        <ele>807.608</ele>
        <time>2018-09-06T09:18:20Z</time>
      </trkpt>
      <trkpt lat="46.199546" lon="13.417931">
        <ele>807.168</ele>
        <time>2018-09-06T09:18:21Z</time>
      </trkpt>
      <trkpt lat="46.199595" lon="13.417839">
        <ele>807.120</ele>
        <time>2018-09-06T09:18:22Z</time>
      </trkpt>
      <trkpt lat="46.199648" lon="13.417761">
        <ele>807.156</ele>
        <time>2018-09-06T09:18:23Z</time>
      </trkpt>
      <trkpt lat="46.199703" lon="13.417699">
        <ele>807.172</ele>
        <time>2018-09-06T09:18:24Z</time>
      </trkpt>
      <trkpt lat="46.199752" lon="13.417645">
        <ele>807.643</ele>
        <time>2018-09-06T09:18:25Z</time>
      </trkpt>
      <trkpt lat="46.199799" lon="13.417601">
        <ele>808.123</ele>
        <time>2018-09-06T09:18:26Z</time>
      </trkpt>
      <trkpt lat="46.199842" lon="13.417569">
        <ele>808.676</ele>
        <time>2018-09-06T09:18:27Z</time>
      </trkpt>
      <trkpt lat="46.200111" lon="13.417254">
        <ele>811.980</ele>
        <time>2018-09-06T09:18:37Z</time>
      </trkpt>
      <trkpt lat="46.200161" lon="13.417013">
        <ele>810.543</ele>
        <time>2018-09-06T09:18:41Z</time>
      </trkpt>
      <trkpt lat="46.200180" lon="13.416947">
        <ele>810.064</ele>
        <time>2018-09-06T09:18:42Z</time>
      </trkpt>
      <trkpt lat="46.200225" lon="13.416818">
        <ele>809.510</ele>
        <time>2018-09-06T09:18:44Z</time>
      </trkpt>
      <trkpt lat="46.200380" lon="13.416471">
        <ele>808.608</ele>
        <time>2018-09-06T09:18:50Z</time>
      </trkpt>
      <trkpt lat="46.200403" lon="13.416399">
        <ele>808.648</ele>
        <time>2018-09-06T09:18:51Z</time>
      </trkpt>
      <trkpt lat="46.200699" lon="13.415484">
        <ele>800.940</ele>
        <time>2018-09-06T09:19:00Z</time>
      </trkpt>
      <trkpt lat="46.200773" lon="13.415294">
        <ele>799.456</ele>
        <time>2018-09-06T09:19:02Z</time>
      </trkpt>
      <trkpt lat="46.200796" lon="13.415192">
        <ele>798.932</ele>
        <time>2018-09-06T09:19:03Z</time>
      </trkpt>
      <trkpt lat="46.200804" lon="13.415083">
        <ele>798.053</ele>
        <time>2018-09-06T09:19:04Z</time>
      </trkpt>
      <trkpt lat="46.200803" lon="13.414969">
        <ele>797.553</ele>
        <time>2018-09-06T09:19:05Z</time>
      </trkpt>
      <trkpt lat="46.200803" lon="13.414854">
        <ele>796.536</ele>
        <time>2018-09-06T09:19:06Z</time>
      </trkpt>
      <trkpt lat="46.200799" lon="13.414746">
        <ele>795.610</ele>
        <time>2018-09-06T09:19:07Z</time>
      </trkpt>
      <trkpt lat="46.200786" lon="13.414640">
        <ele>795.149</ele>
        <time>2018-09-06T09:19:08Z</time>
      </trkpt>
      <trkpt lat="46.200757" lon="13.414541">
        <ele>794.602</ele>
        <time>2018-09-06T09:19:09Z</time>
      </trkpt>
      <trkpt lat="46.200717" lon="13.414455">
        <ele>794.122</ele>
        <time>2018-09-06T09:19:10Z</time>
      </trkpt>
      <trkpt lat="46.200662" lon="13.414383">
        <ele>793.208</ele>
        <time>2018-09-06T09:19:11Z</time>
      </trkpt>
      <trkpt lat="46.200597" lon="13.414325">
        <ele>792.788</ele>
        <time>2018-09-06T09:19:12Z</time>
      </trkpt>
      <trkpt lat="46.200524" lon="13.414275">
        <ele>791.760</ele>
        <time>2018-09-06T09:19:13Z</time>
      </trkpt>
      <trkpt lat="46.200371" lon="13.414172">
        <ele>789.856</ele>
        <time>2018-09-06T09:19:15Z</time>
      </trkpt>
      <trkpt lat="46.200299" lon="13.414106">
        <ele>788.482</ele>
        <time>2018-09-06T09:19:16Z</time>
      </trkpt>
      <trkpt lat="46.200233" lon="13.414032">
        <ele>787.413</ele>
        <time>2018-09-06T09:19:17Z</time>
      </trkpt>
      <trkpt lat="46.200051" lon="13.413843">
        <ele>784.553</ele>
        <time>2018-09-06T09:19:20Z</time>
      </trkpt>
      <trkpt lat="46.199985" lon="13.413818">
        <ele>783.646</ele>
        <time>2018-09-06T09:19:21Z</time>
      </trkpt>
      <trkpt lat="46.199921" lon="13.413819">
        <ele>782.640</ele>
        <time>2018-09-06T09:19:22Z</time>
      </trkpt>
      <trkpt lat="46.199855" lon="13.413843">
        <ele>781.637</ele>
        <time>2018-09-06T09:19:23Z</time>
      </trkpt>
      <trkpt lat="46.199784" lon="13.413873">
        <ele>781.249</ele>
        <time>2018-09-06T09:19:24Z</time>
      </trkpt>
      <trkpt lat="46.199640" lon="13.413925">
        <ele>778.813</ele>
        <time>2018-09-06T09:19:26Z</time>
      </trkpt>
      <trkpt lat="46.199575" lon="13.413929">
        <ele>778.308</ele>
        <time>2018-09-06T09:19:27Z</time>
      </trkpt>
      <trkpt lat="46.199523" lon="13.413910">
        <ele>777.397</ele>
        <time>2018-09-06T09:19:28Z</time>
      </trkpt>
      <trkpt lat="46.199483" lon="13.413867">
        <ele>777.389</ele>
        <time>2018-09-06T09:19:29Z</time>
      </trkpt>
      <trkpt lat="46.199453" lon="13.413804">
        <ele>776.885</ele>
        <time>2018-09-06T09:19:30Z</time>
      </trkpt>
      <trkpt lat="46.199431" lon="13.413726">
        <ele>776.431</ele>
        <time>2018-09-06T09:19:31Z</time>
      </trkpt>
      <trkpt lat="46.199413" lon="13.413630">
        <ele>775.932</ele>
        <time>2018-09-06T09:19:32Z</time>
      </trkpt>
      <trkpt lat="46.199395" lon="13.413532">
        <ele>774.932</ele>
        <time>2018-09-06T09:19:33Z</time>
      </trkpt>
      <trkpt lat="46.199367" lon="13.413441">
        <ele>774.415</ele>
        <time>2018-09-06T09:19:34Z</time>
      </trkpt>
      <trkpt lat="46.199328" lon="13.413358">
        <ele>774.079</ele>
        <time>2018-09-06T09:19:35Z</time>
      </trkpt>
      <trkpt lat="46.199280" lon="13.413289">
        <ele>773.569</ele>
        <time>2018-09-06T09:19:36Z</time>
      </trkpt>
      <trkpt lat="46.199224" lon="13.413241">
        <ele>773.004</ele>
        <time>2018-09-06T09:19:37Z</time>
      </trkpt>
      <trkpt lat="46.199161" lon="13.413211">
        <ele>772.024</ele>
        <time>2018-09-06T09:19:38Z</time>
      </trkpt>
      <trkpt lat="46.199096" lon="13.413197">
        <ele>771.608</ele>
        <time>2018-09-06T09:19:39Z</time>
      </trkpt>
      <trkpt lat="46.199032" lon="13.413188">
        <ele>771.150</ele>
        <time>2018-09-06T09:19:40Z</time>
      </trkpt>
      <trkpt lat="46.198975" lon="13.413172">
        <ele>770.642</ele>
        <time>2018-09-06T09:19:41Z</time>
      </trkpt>
      <trkpt lat="46.198924" lon="13.413142">
        <ele>769.628</ele>
        <time>2018-09-06T09:19:42Z</time>
      </trkpt>
      <trkpt lat="46.198880" lon="13.413089">
        <ele>768.724</ele>
        <time>2018-09-06T09:19:43Z</time>
      </trkpt>
      <trkpt lat="46.198846" lon="13.413014">
        <ele>768.275</ele>
        <time>2018-09-06T09:19:44Z</time>
      </trkpt>
      <trkpt lat="46.198819" lon="13.412932">
        <ele>767.775</ele>
        <time>2018-09-06T09:19:45Z</time>
      </trkpt>
      <trkpt lat="46.198794" lon="13.412843">
        <ele>767.248</ele>
        <time>2018-09-06T09:19:46Z</time>
      </trkpt>
      <trkpt lat="46.198751" lon="13.412662">
        <ele>765.852</ele>
        <time>2018-09-06T09:19:48Z</time>
      </trkpt>
      <trkpt lat="46.198739" lon="13.412571">
        <ele>765.378</ele>
        <time>2018-09-06T09:19:49Z</time>
      </trkpt>
      <trkpt lat="46.198735" lon="13.412487">
        <ele>764.833</ele>
        <time>2018-09-06T09:19:50Z</time>
      </trkpt>
      <trkpt lat="46.198742" lon="13.412400">
        <ele>764.326</ele>
        <time>2018-09-06T09:19:51Z</time>
      </trkpt>
      <trkpt lat="46.198762" lon="13.412317">
        <ele>763.408</ele>
        <time>2018-09-06T09:19:52Z</time>
      </trkpt>
      <trkpt lat="46.198788" lon="13.412229">
        <ele>762.991</ele>
        <time>2018-09-06T09:19:53Z</time>
      </trkpt>
      <trkpt lat="46.198916" lon="13.411863">
        <ele>759.123</ele>
        <time>2018-09-06T09:19:57Z</time>
      </trkpt>
      <trkpt lat="46.198933" lon="13.411773">
        <ele>758.129</ele>
        <time>2018-09-06T09:19:58Z</time>
      </trkpt>
      <trkpt lat="46.198944" lon="13.411688">
        <ele>757.175</ele>
        <time>2018-09-06T09:19:59Z</time>
      </trkpt>
      <trkpt lat="46.199013" lon="13.411363">
        <ele>752.316</ele>
        <time>2018-09-06T09:20:05Z</time>
      </trkpt>
      <trkpt lat="46.199047" lon="13.411314">
        <ele>751.866</ele>
        <time>2018-09-06T09:20:06Z</time>
      </trkpt>
      <trkpt lat="46.199087" lon="13.411273">
        <ele>751.499</ele>
        <time>2018-09-06T09:20:07Z</time>
      </trkpt>
      <trkpt lat="46.199177" lon="13.411191">
        <ele>749.933</ele>
        <time>2018-09-06T09:20:09Z</time>
      </trkpt>
      <trkpt lat="46.199216" lon="13.411138">
        <ele>749.474</ele>
        <time>2018-09-06T09:20:10Z</time>
      </trkpt>
      <trkpt lat="46.199249" lon="13.411077">
        <ele>749.456</ele>
        <time>2018-09-06T09:20:11Z</time>
      </trkpt>
      <trkpt lat="46.199279" lon="13.411006">
        <ele>749.021</ele>
        <time>2018-09-06T09:20:12Z</time>
      </trkpt>
      <trkpt lat="46.199308" lon="13.410925">
        <ele>748.508</ele>
        <time>2018-09-06T09:20:13Z</time>
      </trkpt>
      <trkpt lat="46.199338" lon="13.410835">
        <ele>747.541</ele>
        <time>2018-09-06T09:20:14Z</time>
      </trkpt>
      <trkpt lat="46.199370" lon="13.410754">
        <ele>746.633</ele>
        <time>2018-09-06T09:20:15Z</time>
      </trkpt>
      <trkpt lat="46.199515" lon="13.410437">
        <ele>743.279</ele>
        <time>2018-09-06T09:20:19Z</time>
      </trkpt>
      <trkpt lat="46.199570" lon="13.410261">
        <ele>741.335</ele>
        <time>2018-09-06T09:20:21Z</time>
      </trkpt>
      <trkpt lat="46.199592" lon="13.410167">
        <ele>740.376</ele>
        <time>2018-09-06T09:20:22Z</time>
      </trkpt>
      <trkpt lat="46.199670" lon="13.409816">
        <ele>736.546</ele>
        <time>2018-09-06T09:20:26Z</time>
      </trkpt>
      <trkpt lat="46.199699" lon="13.409731">
        <ele>735.019</ele>
        <time>2018-09-06T09:20:27Z</time>
      </trkpt>
      <trkpt lat="46.199729" lon="13.409667">
        <ele>734.583</ele>
        <time>2018-09-06T09:20:28Z</time>
      </trkpt>
      <trkpt lat="46.199764" lon="13.409635">
        <ele>733.675</ele>
        <time>2018-09-06T09:20:29Z</time>
      </trkpt>
      <trkpt lat="46.199802" lon="13.409636">
        <ele>733.128</ele>
        <time>2018-09-06T09:20:30Z</time>
      </trkpt>
      <trkpt lat="46.199841" lon="13.409668">
        <ele>732.120</ele>
        <time>2018-09-06T09:20:31Z</time>
      </trkpt>
      <trkpt lat="46.199868" lon="13.409731">
        <ele>731.708</ele>
        <time>2018-09-06T09:20:32Z</time>
      </trkpt>
      <trkpt lat="46.199890" lon="13.409815">
        <ele>730.731</ele>
        <time>2018-09-06T09:20:33Z</time>
      </trkpt>
      <trkpt lat="46.199918" lon="13.409902">
        <ele>729.713</ele>
        <time>2018-09-06T09:20:34Z</time>
      </trkpt>
      <trkpt lat="46.199956" lon="13.409976">
        <ele>728.329</ele>
        <time>2018-09-06T09:20:35Z</time>
      </trkpt>
      <trkpt lat="46.200006" lon="13.410035">
        <ele>727.335</ele>
        <time>2018-09-06T09:20:36Z</time>
      </trkpt>
      <trkpt lat="46.200067" lon="13.410076">
        <ele>726.426</ele>
        <time>2018-09-06T09:20:37Z</time>
      </trkpt>
      <trkpt lat="46.200136" lon="13.410099">
        <ele>725.496</ele>
        <time>2018-09-06T09:20:38Z</time>
      </trkpt>
      <trkpt lat="46.200203" lon="13.410105">
        <ele>724.419</ele>
        <time>2018-09-06T09:20:39Z</time>
      </trkpt>
      <trkpt lat="46.200269" lon="13.410098">
        <ele>724.033</ele>
        <time>2018-09-06T09:20:40Z</time>
      </trkpt>
      <trkpt lat="46.200330" lon="13.410084">
        <ele>723.524</ele>
        <time>2018-09-06T09:20:41Z</time>
      </trkpt>
      <trkpt lat="46.200390" lon="13.410085">
        <ele>723.004</ele>
        <time>2018-09-06T09:20:42Z</time>
      </trkpt>
      <trkpt lat="46.200446" lon="13.410122">
        <ele>722.514</ele>
        <time>2018-09-06T09:20:43Z</time>
      </trkpt>
      <trkpt lat="46.200567" lon="13.410217">
        <ele>721.608</ele>
        <time>2018-09-06T09:20:45Z</time>
      </trkpt>
      <trkpt lat="46.200635" lon="13.410233">
        <ele>721.166</ele>
        <time>2018-09-06T09:20:46Z</time>
      </trkpt>
      <trkpt lat="46.200708" lon="13.410226">
        <ele>720.698</ele>
        <time>2018-09-06T09:20:47Z</time>
      </trkpt>
      <trkpt lat="46.200785" lon="13.410209">
        <ele>720.134</ele>
        <time>2018-09-06T09:20:48Z</time>
      </trkpt>
      <trkpt lat="46.200862" lon="13.410184">
        <ele>720.150</ele>
        <time>2018-09-06T09:20:49Z</time>
      </trkpt>
      <trkpt lat="46.200937" lon="13.410147">
        <ele>719.631</ele>
        <time>2018-09-06T09:20:50Z</time>
      </trkpt>
      <trkpt lat="46.201003" lon="13.410091">
        <ele>719.291</ele>
        <time>2018-09-06T09:20:51Z</time>
      </trkpt>
      <trkpt lat="46.201067" lon="13.410014">
        <ele>718.764</ele>
        <time>2018-09-06T09:20:52Z</time>
      </trkpt>
      <trkpt lat="46.201132" lon="13.409919">
        <ele>717.788</ele>
        <time>2018-09-06T09:20:53Z</time>
      </trkpt>
      <trkpt lat="46.201201" lon="13.409811">
        <ele>716.839</ele>
        <time>2018-09-06T09:20:54Z</time>
      </trkpt>
      <trkpt lat="46.202079" lon="13.408488">
        <ele>697.501</ele>
        <time>2018-09-06T09:21:04Z</time>
      </trkpt>
      <trkpt lat="46.202328" lon="13.408101">
        <ele>691.321</ele>
        <time>2018-09-06T09:21:08Z</time>
      </trkpt>
      <trkpt lat="46.202352" lon="13.408001">
        <ele>689.808</ele>
        <time>2018-09-06T09:21:09Z</time>
      </trkpt>
      <trkpt lat="46.202355" lon="13.407900">
        <ele>688.987</ele>
        <time>2018-09-06T09:21:10Z</time>
      </trkpt>
      <trkpt lat="46.202340" lon="13.407796">
        <ele>687.969</ele>
        <time>2018-09-06T09:21:11Z</time>
      </trkpt>
      <trkpt lat="46.202314" lon="13.407686">
        <ele>686.525</ele>
        <time>2018-09-06T09:21:12Z</time>
      </trkpt>
      <trkpt lat="46.202266" lon="13.407473">
        <ele>684.621</ele>
        <time>2018-09-06T09:21:14Z</time>
      </trkpt>
      <trkpt lat="46.202256" lon="13.407369">
        <ele>683.622</ele>
        <time>2018-09-06T09:21:15Z</time>
      </trkpt>
      <trkpt lat="46.202259" lon="13.407252">
        <ele>683.132</ele>
        <time>2018-09-06T09:21:16Z</time>
      </trkpt>
      <trkpt lat="46.202274" lon="13.407144">
        <ele>682.135</ele>
        <time>2018-09-06T09:21:17Z</time>
      </trkpt>
      <trkpt lat="46.202297" lon="13.407032">
        <ele>681.289</ele>
        <time>2018-09-06T09:21:18Z</time>
      </trkpt>
      <trkpt lat="46.202341" lon="13.406798">
        <ele>679.311</ele>
        <time>2018-09-06T09:21:20Z</time>
      </trkpt>
      <trkpt lat="46.202351" lon="13.406669">
        <ele>677.821</ele>
        <time>2018-09-06T09:21:21Z</time>
      </trkpt>
      <trkpt lat="46.202354" lon="13.406538">
        <ele>676.903</ele>
        <time>2018-09-06T09:21:22Z</time>
      </trkpt>
      <trkpt lat="46.202359" lon="13.406145">
        <ele>674.008</ele>
        <time>2018-09-06T09:21:25Z</time>
      </trkpt>
      <trkpt lat="46.202374" lon="13.406016">
        <ele>673.015</ele>
        <time>2018-09-06T09:21:26Z</time>
      </trkpt>
      <trkpt lat="46.202522" lon="13.405077">
        <ele>665.817</ele>
        <time>2018-09-06T09:21:33Z</time>
      </trkpt>
      <trkpt lat="46.202554" lon="13.404966">
        <ele>664.833</ele>
        <time>2018-09-06T09:21:34Z</time>
      </trkpt>
      <trkpt lat="46.202588" lon="13.404858">
        <ele>663.959</ele>
        <time>2018-09-06T09:21:35Z</time>
      </trkpt>
      <trkpt lat="46.202607" lon="13.404753">
        <ele>663.460</ele>
        <time>2018-09-06T09:21:36Z</time>
      </trkpt>
      <trkpt lat="46.202607" lon="13.404647">
        <ele>662.450</ele>
        <time>2018-09-06T09:21:37Z</time>
      </trkpt>
      <trkpt lat="46.202588" lon="13.404538">
        <ele>662.083</ele>
        <time>2018-09-06T09:21:38Z</time>
      </trkpt>
      <trkpt lat="46.202559" lon="13.404428">
        <ele>661.097</ele>
        <time>2018-09-06T09:21:39Z</time>
      </trkpt>
      <trkpt lat="46.202523" lon="13.404305">
        <ele>660.575</ele>
        <time>2018-09-06T09:21:40Z</time>
      </trkpt>
      <trkpt lat="46.202173" lon="13.402908">
        <ele>651.928</ele>
        <time>2018-09-06T09:21:50Z</time>
      </trkpt>
      <trkpt lat="46.202026" lon="13.402065">
        <ele>645.120</ele>
        <time>2018-09-06T09:21:59Z</time>
      </trkpt>
      <trkpt lat="46.202025" lon="13.402013">
        <ele>644.708</ele>
        <time>2018-09-06T09:22:00Z</time>
      </trkpt>
      <trkpt lat="46.202029" lon="13.401896">
        <ele>644.231</ele>
        <time>2018-09-06T09:22:05Z</time>
      </trkpt>
      <trkpt lat="46.202049" lon="13.401874">
        <ele>643.743</ele>
        <time>2018-09-06T09:22:06Z</time>
      </trkpt>
      <trkpt lat="46.202078" lon="13.401862">
        <ele>643.229</ele>
        <time>2018-09-06T09:22:07Z</time>
      </trkpt>
      <trkpt lat="46.202098" lon="13.401859">
        <ele>642.735</ele>
        <time>2018-09-06T09:22:08Z</time>
      </trkpt>
      <trkpt lat="46.202115" lon="13.401856">
        <ele>642.726</ele>
        <time>2018-09-06T09:22:09Z</time>
      </trkpt>
      <trkpt lat="46.202130" lon="13.401855">
        <ele>642.766</ele>
        <time>2018-09-06T09:22:10Z</time>
      </trkpt>
      <trkpt lat="46.202143" lon="13.401855">
        <ele>642.319</ele>
        <time>2018-09-06T09:22:11Z</time>
      </trkpt>
      <trkpt lat="46.202157" lon="13.401856">
        <ele>642.393</ele>
        <time>2018-09-06T09:22:12Z</time>
      </trkpt>
      <trkpt lat="46.202276" lon="13.401872">
        <ele>643.768</ele>
        <time>2018-09-06T09:22:25Z</time>
      </trkpt>
      <trkpt lat="46.202284" lon="13.401860">
        <ele>643.742</ele>
        <time>2018-09-06T09:22:26Z</time>
      </trkpt>
      <trkpt lat="46.202294" lon="13.401849">
        <ele>644.226</ele>
        <time>2018-09-06T09:22:27Z</time>
      </trkpt>
      <trkpt lat="46.202309" lon="13.401846">
        <ele>644.208</ele>
        <time>2018-09-06T09:22:28Z</time>
      </trkpt>
      <trkpt lat="46.202320" lon="13.401850">
        <ele>644.770</ele>
        <time>2018-09-06T09:22:29Z</time>
      </trkpt>
      <trkpt lat="46.202327" lon="13.401866">
        <ele>644.722</ele>
        <time>2018-09-06T09:22:30Z</time>
      </trkpt>
      <trkpt lat="46.202343" lon="13.401885">
        <ele>644.228</ele>
        <time>2018-09-06T09:22:32Z</time>
      </trkpt>
      <trkpt lat="46.202364" lon="13.401889">
        <ele>644.244</ele>
        <time>2018-09-06T09:22:33Z</time>
      </trkpt>
      <trkpt lat="46.202390" lon="13.401882">
        <ele>644.765</ele>
        <time>2018-09-06T09:22:34Z</time>
      </trkpt>
      <trkpt lat="46.202846" lon="13.401895">
        <ele>645.145</ele>
        <time>2018-09-06T09:22:49Z</time>
      </trkpt>
      <trkpt lat="46.203382" lon="13.402144">
        <ele>644.278</ele>
        <time>2018-09-06T09:23:05Z</time>
      </trkpt>
      <trkpt lat="46.203778" lon="13.402522">
        <ele>644.282</ele>
        <time>2018-09-06T09:23:18Z</time>
      </trkpt>
      <trkpt lat="46.203789" lon="13.402508">
        <ele>644.291</ele>
        <time>2018-09-06T09:23:19Z</time>
      </trkpt>
      <trkpt lat="46.203796" lon="13.402481">
        <ele>643.781</ele>
        <time>2018-09-06T09:23:20Z</time>
      </trkpt>
      <trkpt lat="46.203797" lon="13.402447">
        <ele>643.219</ele>
        <time>2018-09-06T09:23:21Z</time>
      </trkpt>
      <trkpt lat="46.203792" lon="13.402408">
        <ele>643.208</ele>
        <time>2018-09-06T09:23:22Z</time>
      </trkpt>
      <trkpt lat="46.203781" lon="13.402364">
        <ele>642.713</ele>
        <time>2018-09-06T09:23:23Z</time>
      </trkpt>
      <trkpt lat="46.203761" lon="13.402313">
        <ele>642.365</ele>
        <time>2018-09-06T09:23:24Z</time>
      </trkpt>
      <trkpt lat="46.203726" lon="13.402193">
        <ele>641.811</ele>
        <time>2018-09-06T09:23:26Z</time>
      </trkpt>
      <trkpt lat="46.203723" lon="13.402116">
        <ele>641.317</ele>
        <time>2018-09-06T09:23:27Z</time>
      </trkpt>
      <trkpt lat="46.203734" lon="13.402041">
        <ele>641.328</ele>
        <time>2018-09-06T09:23:28Z</time>
      </trkpt>
      <trkpt lat="46.203756" lon="13.401980">
        <ele>640.838</ele>
        <time>2018-09-06T09:23:29Z</time>
      </trkpt>
      <trkpt lat="46.203783" lon="13.401916">
        <ele>640.391</ele>
        <time>2018-09-06T09:23:30Z</time>
      </trkpt>
      <trkpt lat="46.203815" lon="13.401859">
        <ele>639.885</ele>
        <time>2018-09-06T09:23:31Z</time>
      </trkpt>
      <trkpt lat="46.203886" lon="13.401749">
        <ele>638.966</ele>
        <time>2018-09-06T09:23:33Z</time>
      </trkpt>
      <trkpt lat="46.203915" lon="13.401686">
        <ele>638.429</ele>
        <time>2018-09-06T09:23:34Z</time>
      </trkpt>
      <trkpt lat="46.204136" lon="13.401166">
        <ele>631.721</ele>
        <time>2018-09-06T09:23:44Z</time>
      </trkpt>
      <trkpt lat="46.204179" lon="13.401142">
        <ele>631.208</ele>
        <time>2018-09-06T09:23:45Z</time>
      </trkpt>
      <trkpt lat="46.204225" lon="13.401131">
        <ele>630.720</ele>
        <time>2018-09-06T09:23:46Z</time>
      </trkpt>
      <trkpt lat="46.204272" lon="13.401135">
        <ele>630.272</ele>
        <time>2018-09-06T09:23:47Z</time>
      </trkpt>
      <trkpt lat="46.204323" lon="13.401141">
        <ele>630.298</ele>
        <time>2018-09-06T09:23:48Z</time>
      </trkpt>
      <trkpt lat="46.204376" lon="13.401140">
        <ele>629.864</ele>
        <time>2018-09-06T09:23:49Z</time>
      </trkpt>
      <trkpt lat="46.204429" lon="13.401131">
        <ele>629.375</ele>
        <time>2018-09-06T09:23:50Z</time>
      </trkpt>
      <trkpt lat="46.204481" lon="13.401113">
        <ele>628.875</ele>
        <time>2018-09-06T09:23:51Z</time>
      </trkpt>
      <trkpt lat="46.204530" lon="13.401087">
        <ele>628.888</ele>
        <time>2018-09-06T09:23:52Z</time>
      </trkpt>
      <trkpt lat="46.204575" lon="13.401049">
        <ele>628.312</ele>
        <time>2018-09-06T09:23:53Z</time>
      </trkpt>
      <trkpt lat="46.204613" lon="13.400997">
        <ele>627.856</ele>
        <time>2018-09-06T09:23:54Z</time>
      </trkpt>
      <trkpt lat="46.204648" lon="13.400936">
        <ele>627.459</ele>
        <time>2018-09-06T09:23:55Z</time>
      </trkpt>
      <trkpt lat="46.204679" lon="13.400867">
        <ele>626.914</ele>
        <time>2018-09-06T09:23:56Z</time>
      </trkpt>
      <trkpt lat="46.204706" lon="13.400793">
        <ele>626.908</ele>
        <time>2018-09-06T09:23:57Z</time>
      </trkpt>
      <trkpt lat="46.204775" lon="13.400597">
        <ele>626.479</ele>
        <time>2018-09-06T09:24:00Z</time>
      </trkpt>
      <trkpt lat="46.204782" lon="13.400541">
        <ele>625.951</ele>
        <time>2018-09-06T09:24:01Z</time>
      </trkpt>
      <trkpt lat="46.204783" lon="13.400488">
        <ele>625.957</ele>
        <time>2018-09-06T09:24:02Z</time>
      </trkpt>
      <trkpt lat="46.204778" lon="13.400437">
        <ele>626.443</ele>
        <time>2018-09-06T09:24:03Z</time>
      </trkpt>
      <trkpt lat="46.204774" lon="13.400402">
        <ele>626.444</ele>
        <time>2018-09-06T09:24:04Z</time>
      </trkpt>
      <trkpt lat="46.204771" lon="13.400372">
        <ele>626.484</ele>
        <time>2018-09-06T09:24:05Z</time>
      </trkpt>
      <trkpt lat="46.204756" lon="13.400139">
        <ele>627.877</ele>
        <time>2018-09-06T09:24:14Z</time>
      </trkpt>
      <trkpt lat="46.204946" lon="13.399912">
        <ele>627.831</ele>
        <time>2018-09-06T09:24:29Z</time>
      </trkpt>
      <trkpt lat="46.205044" lon="13.399880">
        <ele>629.377</ele>
        <time>2018-09-06T09:24:37Z</time>
      </trkpt>
      <trkpt lat="46.205246" lon="13.399983">
        <ele>636.061</ele>
        <time>2018-09-06T09:24:55Z</time>
      </trkpt>
      <trkpt lat="46.205253" lon="13.399972">
        <ele>637.027</ele>
        <time>2018-09-06T09:25:08Z</time>
      </trkpt>
      <trkpt lat="46.205245" lon="13.399980">
        <ele>636.008</ele>
        <time>2018-09-06T09:25:34Z</time>
      </trkpt>
      <trkpt lat="46.205217" lon="13.399959">
        <ele>639.881</ele>
        <time>2018-09-06T09:26:04Z</time>
      </trkpt>
      <trkpt lat="46.205226" lon="13.399937">
        <ele>639.843</ele>
        <time>2018-09-06T09:26:36Z</time>
      </trkpt>
      <trkpt lat="46.205259" lon="13.399968">
        <ele>639.889</ele>
        <time>2018-09-06T09:26:46Z</time>
      </trkpt>
      <trkpt lat="46.205269" lon="13.399960">
        <ele>639.825</ele>
        <time>2018-09-06T09:26:47Z</time>
      </trkpt>
      <trkpt lat="46.205281" lon="13.399956">
        <ele>639.826</ele>
        <time>2018-09-06T09:26:48Z</time>
      </trkpt>
      <trkpt lat="46.205291" lon="13.399946">
        <ele>639.866</ele>
        <time>2018-09-06T09:26:49Z</time>
      </trkpt>
      <trkpt lat="46.205302" lon="13.399934">
        <ele>639.819</ele>
        <time>2018-09-06T09:26:50Z</time>
      </trkpt>
      <trkpt lat="46.205313" lon="13.399924">
        <ele>639.453</ele>
        <time>2018-09-06T09:26:51Z</time>
      </trkpt>
      <trkpt lat="46.205358" lon="13.399645">
        <ele>638.441</ele>
        <time>2018-09-06T09:27:08Z</time>
      </trkpt>
      <trkpt lat="46.205424" lon="13.399489">
        <ele>642.381</ele>
        <time>2018-09-06T09:27:19Z</time>
      </trkpt>
      <trkpt lat="46.205455" lon="13.399462">
        <ele>642.309</ele>
        <time>2018-09-06T09:27:22Z</time>
      </trkpt>
      <trkpt lat="46.205468" lon="13.399464">
        <ele>642.708</ele>
        <time>2018-09-06T09:27:23Z</time>
      </trkpt>
      <trkpt lat="46.205479" lon="13.399462">
        <ele>642.738</ele>
        <time>2018-09-06T09:27:24Z</time>
      </trkpt>
      <trkpt lat="46.205491" lon="13.399462">
        <ele>643.280</ele>
        <time>2018-09-06T09:27:25Z</time>
      </trkpt>
      <trkpt lat="46.205502" lon="13.399467">
        <ele>643.286</ele>
        <time>2018-09-06T09:27:26Z</time>
      </trkpt>
      <trkpt lat="46.205514" lon="13.399475">
        <ele>643.262</ele>
        <time>2018-09-06T09:27:27Z</time>
      </trkpt>
      <trkpt lat="46.205524" lon="13.399484">
        <ele>643.783</ele>
        <time>2018-09-06T09:27:28Z</time>
      </trkpt>
      <trkpt lat="46.205734" lon="13.399713">
        <ele>645.663</ele>
        <time>2018-09-06T09:27:47Z</time>
      </trkpt>
      <trkpt lat="46.205892" lon="13.399697">
        <ele>645.646</ele>
        <time>2018-09-06T09:27:58Z</time>
      </trkpt>
      <trkpt lat="46.205902" lon="13.399687">
        <ele>645.130</ele>
        <time>2018-09-06T09:27:59Z</time>
      </trkpt>
      <trkpt lat="46.205913" lon="13.399678">
        <ele>645.168</ele>
        <time>2018-09-06T09:28:00Z</time>
      </trkpt>
      <trkpt lat="46.205927" lon="13.399669">
        <ele>645.142</ele>
        <time>2018-09-06T09:28:01Z</time>
      </trkpt>
      <trkpt lat="46.205939" lon="13.399660">
        <ele>645.126</ele>
        <time>2018-09-06T09:28:02Z</time>
      </trkpt>
      <trkpt lat="46.205949" lon="13.399651">
        <ele>645.108</ele>
        <time>2018-09-06T09:28:03Z</time>
      </trkpt>
      <trkpt lat="46.205962" lon="13.399643">
        <ele>645.670</ele>
        <time>2018-09-06T09:28:04Z</time>
      </trkpt>
      <trkpt lat="46.205974" lon="13.399635">
        <ele>645.662</ele>
        <time>2018-09-06T09:28:05Z</time>
      </trkpt>
      <trkpt lat="46.205987" lon="13.399624">
        <ele>646.128</ele>
        <time>2018-09-06T09:28:06Z</time>
      </trkpt>
      <trkpt lat="46.206173" lon="13.399518">
        <ele>649.574</ele>
        <time>2018-09-06T09:28:22Z</time>
      </trkpt>
      <trkpt lat="46.206359" lon="13.399378">
        <ele>656.725</ele>
        <time>2018-09-06T09:28:39Z</time>
      </trkpt>
      <trkpt lat="46.206536" lon="13.399262">
        <ele>658.675</ele>
        <time>2018-09-06T09:28:55Z</time>
      </trkpt>
      <trkpt lat="46.206606" lon="13.399242">
        <ele>658.678</ele>
        <time>2018-09-06T09:29:00Z</time>
      </trkpt>
      <trkpt lat="46.206734" lon="13.399409">
        <ele>662.052</ele>
        <time>2018-09-06T09:29:14Z</time>
      </trkpt>
      <trkpt lat="46.206812" lon="13.399701">
        <ele>661.071</ele>
        <time>2018-09-06T09:29:29Z</time>
      </trkpt>
      <trkpt lat="46.206983" lon="13.399888">
        <ele>662.941</ele>
        <time>2018-09-06T09:29:45Z</time>
      </trkpt>
      <trkpt lat="46.207149" lon="13.399885">
        <ele>664.815</ele>
        <time>2018-09-06T09:29:58Z</time>
      </trkpt>
      <trkpt lat="46.207194" lon="13.399871">
        <ele>665.808</ele>
        <time>2018-09-06T09:30:02Z</time>
      </trkpt>
      <trkpt lat="46.207205" lon="13.399866">
        <ele>666.341</ele>
        <time>2018-09-06T09:30:03Z</time>
      </trkpt>
      <trkpt lat="46.207216" lon="13.399863">
        <ele>666.313</ele>
        <time>2018-09-06T09:30:04Z</time>
      </trkpt>
      <trkpt lat="46.207229" lon="13.399860">
        <ele>666.379</ele>
        <time>2018-09-06T09:30:05Z</time>
      </trkpt>
      <trkpt lat="46.207243" lon="13.399861">
        <ele>666.865</ele>
        <time>2018-09-06T09:30:06Z</time>
      </trkpt>
      <trkpt lat="46.207255" lon="13.399860">
        <ele>666.836</ele>
        <time>2018-09-06T09:30:07Z</time>
      </trkpt>
      <trkpt lat="46.207267" lon="13.399859">
        <ele>667.216</ele>
        <time>2018-09-06T09:30:08Z</time>
      </trkpt>
      <trkpt lat="46.207280" lon="13.399857">
        <ele>667.279</ele>
        <time>2018-09-06T09:30:09Z</time>
      </trkpt>
      <trkpt lat="46.207293" lon="13.399851">
        <ele>667.713</ele>
        <time>2018-09-06T09:30:10Z</time>
      </trkpt>
      <trkpt lat="46.207471" lon="13.399751">
        <ele>671.632</ele>
        <time>2018-09-06T09:30:26Z</time>
      </trkpt>
      <trkpt lat="46.207621" lon="13.399603">
        <ele>674.592</ele>
        <time>2018-09-06T09:30:40Z</time>
      </trkpt>
      <trkpt lat="46.207752" lon="13.399265">
        <ele>673.011</ele>
        <time>2018-09-06T09:30:59Z</time>
      </trkpt>
      <trkpt lat="46.207841" lon="13.398911">
        <ele>673.508</ele>
        <time>2018-09-06T09:31:18Z</time>
      </trkpt>
      <trkpt lat="46.207863" lon="13.398666">
        <ele>674.987</ele>
        <time>2018-09-06T09:31:32Z</time>
      </trkpt>
      <trkpt lat="46.207908" lon="13.398361">
        <ele>674.099</ele>
        <time>2018-09-06T09:31:46Z</time>
      </trkpt>
      <trkpt lat="46.207953" lon="13.398139">
        <ele>674.085</ele>
        <time>2018-09-06T09:31:58Z</time>
      </trkpt>
      <trkpt lat="46.208087" lon="13.397740">
        <ele>677.391</ele>
        <time>2018-09-06T09:32:19Z</time>
      </trkpt>
      <trkpt lat="46.208010" lon="13.397377">
        <ele>681.752</ele>
        <time>2018-09-06T09:32:37Z</time>
      </trkpt>
      <trkpt lat="46.207864" lon="13.397099">
        <ele>683.692</ele>
        <time>2018-09-06T09:32:54Z</time>
      </trkpt>
      <trkpt lat="46.207783" lon="13.396873">
        <ele>687.975</ele>
        <time>2018-09-06T09:33:07Z</time>
      </trkpt>
      <trkpt lat="46.207717" lon="13.396730">
        <ele>691.379</ele>
        <time>2018-09-06T09:33:16Z</time>
      </trkpt>
      <trkpt lat="46.207709" lon="13.396716">
        <ele>691.819</ele>
        <time>2018-09-06T09:33:17Z</time>
      </trkpt>
      <trkpt lat="46.207701" lon="13.396701">
        <ele>692.209</ele>
        <time>2018-09-06T09:33:18Z</time>
      </trkpt>
      <trkpt lat="46.207693" lon="13.396685">
        <ele>692.219</ele>
        <time>2018-09-06T09:33:19Z</time>
      </trkpt>
      <trkpt lat="46.207684" lon="13.396667">
        <ele>692.708</ele>
        <time>2018-09-06T09:33:20Z</time>
      </trkpt>
      <trkpt lat="46.207674" lon="13.396650">
        <ele>693.255</ele>
        <time>2018-09-06T09:33:21Z</time>
      </trkpt>
      <trkpt lat="46.207663" lon="13.396636">
        <ele>693.247</ele>
        <time>2018-09-06T09:33:22Z</time>
      </trkpt>
      <trkpt lat="46.207479" lon="13.396417">
        <ele>697.083</ele>
        <time>2018-09-06T09:33:38Z</time>
      </trkpt>
      <trkpt lat="46.207460" lon="13.396080">
        <ele>698.039</ele>
        <time>2018-09-06T09:33:53Z</time>
      </trkpt>
      <trkpt lat="46.207478" lon="13.395763">
        <ele>698.090</ele>
        <time>2018-09-06T09:34:06Z</time>
      </trkpt>
      <trkpt lat="46.207471" lon="13.395743">
        <ele>698.540</ele>
        <time>2018-09-06T09:34:07Z</time>
      </trkpt>
      <trkpt lat="46.207461" lon="13.395722">
        <ele>698.523</ele>
        <time>2018-09-06T09:34:08Z</time>
      </trkpt>
      <trkpt lat="46.207451" lon="13.395702">
        <ele>699.037</ele>
        <time>2018-09-06T09:34:09Z</time>
      </trkpt>
      <trkpt lat="46.207442" lon="13.395682">
        <ele>699.064</ele>
        <time>2018-09-06T09:34:10Z</time>
      </trkpt>
      <trkpt lat="46.207434" lon="13.395666">
        <ele>699.006</ele>
        <time>2018-09-06T09:34:11Z</time>
      </trkpt>
      <trkpt lat="46.207278" lon="13.395400">
        <ele>702.316</ele>
        <time>2018-09-06T09:34:26Z</time>
      </trkpt>
      <trkpt lat="46.207112" lon="13.395073">
        <ele>706.208</ele>
        <time>2018-09-06T09:34:41Z</time>
      </trkpt>
      <trkpt lat="46.207282" lon="13.394609">
        <ele>702.370</ele>
        <time>2018-09-06T09:34:57Z</time>
      </trkpt>
      <trkpt lat="46.207379" lon="13.394217">
        <ele>701.492</ele>
        <time>2018-09-06T09:35:11Z</time>
      </trkpt>
      <trkpt lat="46.207322" lon="13.393894">
        <ele>699.598</ele>
        <time>2018-09-06T09:35:23Z</time>
      </trkpt>
      <trkpt lat="46.207059" lon="13.393628">
        <ele>702.374</ele>
        <time>2018-09-06T09:35:36Z</time>
      </trkpt>
      <trkpt lat="46.206989" lon="13.393219">
        <ele>703.335</ele>
        <time>2018-09-06T09:35:49Z</time>
      </trkpt>
      <trkpt lat="46.207152" lon="13.392758">
        <ele>702.365</ele>
        <time>2018-09-06T09:36:01Z</time>
      </trkpt>
      <trkpt lat="46.207239" lon="13.392282">
        <ele>700.488</ele>
        <time>2018-09-06T09:36:12Z</time>
      </trkpt>
      <trkpt lat="46.207254" lon="13.392117">
        <ele>699.062</ele>
        <time>2018-09-06T09:36:17Z</time>
      </trkpt>
      <trkpt lat="46.207257" lon="13.392091">
        <ele>699.063</ele>
        <time>2018-09-06T09:36:18Z</time>
      </trkpt>
      <trkpt lat="46.207256" lon="13.392066">
        <ele>699.044</ele>
        <time>2018-09-06T09:36:19Z</time>
      </trkpt>
      <trkpt lat="46.207256" lon="13.392046">
        <ele>699.018</ele>
        <time>2018-09-06T09:36:20Z</time>
      </trkpt>
      <trkpt lat="46.207256" lon="13.392027">
        <ele>699.008</ele>
        <time>2018-09-06T09:36:21Z</time>
      </trkpt>
      <trkpt lat="46.207259" lon="13.392001">
        <ele>699.050</ele>
        <time>2018-09-06T09:36:33Z</time>
      </trkpt>
      <trkpt lat="46.207263" lon="13.391992">
        <ele>707.182</ele>
        <time>2018-09-06T09:37:04Z</time>
      </trkpt>
      <trkpt lat="46.207216" lon="13.391825">
        <ele>709.148</ele>
        <time>2018-09-06T09:37:23Z</time>
      </trkpt>
      <trkpt lat="46.207048" lon="13.391348">
        <ele>711.554</ele>
        <time>2018-09-06T09:37:37Z</time>
      </trkpt>
      <trkpt lat="46.206779" lon="13.390871">
        <ele>711.515</ele>
        <time>2018-09-06T09:37:52Z</time>
      </trkpt>
      <trkpt lat="46.206686" lon="13.390456">
        <ele>715.835</ele>
        <time>2018-09-06T09:38:04Z</time>
      </trkpt>
      <trkpt lat="46.206577" lon="13.389988">
        <ele>717.238</ele>
        <time>2018-09-06T09:38:16Z</time>
      </trkpt>
      <trkpt lat="46.206326" lon="13.389562">
        <ele>714.492</ele>
        <time>2018-09-06T09:38:28Z</time>
      </trkpt>
      <trkpt lat="46.206173" lon="13.389452">
        <ele>713.415</ele>
        <time>2018-09-06T09:38:34Z</time>
      </trkpt>
      <trkpt lat="46.206166" lon="13.389413">
        <ele>713.465</ele>
        <time>2018-09-06T09:38:35Z</time>
      </trkpt>
      <trkpt lat="46.206164" lon="13.389371">
        <ele>713.911</ele>
        <time>2018-09-06T09:38:36Z</time>
      </trkpt>
      <trkpt lat="46.206170" lon="13.389328">
        <ele>713.908</ele>
        <time>2018-09-06T09:38:37Z</time>
      </trkpt>
      <trkpt lat="46.206181" lon="13.389284">
        <ele>713.955</ele>
        <time>2018-09-06T09:38:38Z</time>
      </trkpt>
      <trkpt lat="46.206395" lon="13.388587">
        <ele>709.157</ele>
        <time>2018-09-06T09:38:53Z</time>
      </trkpt>
      <trkpt lat="46.206276" lon="13.388039">
        <ele>707.163</ele>
        <time>2018-09-06T09:39:05Z</time>
      </trkpt>
      <trkpt lat="46.205926" lon="13.387683">
        <ele>706.719</ele>
        <time>2018-09-06T09:39:17Z</time>
      </trkpt>
      <trkpt lat="46.205431" lon="13.387646">
        <ele>705.770</ele>
        <time>2018-09-06T09:39:31Z</time>
      </trkpt>
      <trkpt lat="46.205062" lon="13.387528">
        <ele>707.110</ele>
        <time>2018-09-06T09:39:43Z</time>
      </trkpt>
      <trkpt lat="46.205051" lon="13.387490">
        <ele>707.673</ele>
        <time>2018-09-06T09:39:44Z</time>
      </trkpt>
      <trkpt lat="46.205044" lon="13.387457">
        <ele>708.127</ele>
        <time>2018-09-06T09:39:45Z</time>
      </trkpt>
      <trkpt lat="46.205059" lon="13.386933">
        <ele>710.028</ele>
        <time>2018-09-06T09:39:58Z</time>
      </trkpt>
      <trkpt lat="46.205100" lon="13.386452">
        <ele>710.089</ele>
        <time>2018-09-06T09:40:09Z</time>
      </trkpt>
      <trkpt lat="46.204950" lon="13.385906">
        <ele>709.517</ele>
        <time>2018-09-06T09:40:22Z</time>
      </trkpt>
      <trkpt lat="46.204739" lon="13.385580">
        <ele>711.508</ele>
        <time>2018-09-06T09:40:34Z</time>
      </trkpt>
      <trkpt lat="46.204595" lon="13.385124">
        <ele>711.056</ele>
        <time>2018-09-06T09:40:46Z</time>
      </trkpt>
      <trkpt lat="46.204331" lon="13.384827">
        <ele>711.528</ele>
        <time>2018-09-06T09:40:58Z</time>
      </trkpt>
      <trkpt lat="46.204243" lon="13.384548">
        <ele>711.554</ele>
        <time>2018-09-06T09:41:10Z</time>
      </trkpt>
      <trkpt lat="46.204233" lon="13.384076">
        <ele>710.530</ele>
        <time>2018-09-06T09:41:23Z</time>
      </trkpt>
      <trkpt lat="46.204236" lon="13.383601">
        <ele>710.551</ele>
        <time>2018-09-06T09:41:36Z</time>
      </trkpt>
      <trkpt lat="46.204099" lon="13.383240">
        <ele>710.071</ele>
        <time>2018-09-06T09:41:49Z</time>
      </trkpt>
      <trkpt lat="46.203855" lon="13.382850">
        <ele>713.914</ele>
        <time>2018-09-06T09:42:05Z</time>
      </trkpt>
      <trkpt lat="46.203739" lon="13.382449">
        <ele>713.448</ele>
        <time>2018-09-06T09:42:18Z</time>
      </trkpt>
      <trkpt lat="46.203723" lon="13.382436">
        <ele>713.424</ele>
        <time>2018-09-06T09:42:19Z</time>
      </trkpt>
      <trkpt lat="46.203434" lon="13.382337">
        <ele>710.504</ele>
        <time>2018-09-06T09:42:32Z</time>
      </trkpt>
      <trkpt lat="46.203101" lon="13.382111">
        <ele>711.014</ele>
        <time>2018-09-06T09:42:47Z</time>
      </trkpt>
      <trkpt lat="46.202777" lon="13.382003">
        <ele>711.008</ele>
        <time>2018-09-06T09:43:00Z</time>
      </trkpt>
      <trkpt lat="46.202370" lon="13.381995">
        <ele>710.036</ele>
        <time>2018-09-06T09:43:14Z</time>
      </trkpt>
      <trkpt lat="46.201997" lon="13.382120">
        <ele>710.058</ele>
        <time>2018-09-06T09:43:29Z</time>
      </trkpt>
      <trkpt lat="46.201976" lon="13.382107">
        <ele>710.094</ele>
        <time>2018-09-06T09:43:30Z</time>
      </trkpt>
      <trkpt lat="46.201958" lon="13.382089">
        <ele>710.010</ele>
        <time>2018-09-06T09:43:31Z</time>
      </trkpt>
      <trkpt lat="46.201939" lon="13.382065">
        <ele>710.071</ele>
        <time>2018-09-06T09:43:32Z</time>
      </trkpt>
      <trkpt lat="46.201922" lon="13.382039">
        <ele>710.061</ele>
        <time>2018-09-06T09:43:33Z</time>
      </trkpt>
      <trkpt lat="46.201902" lon="13.382016">
        <ele>710.074</ele>
        <time>2018-09-06T09:43:34Z</time>
      </trkpt>
      <trkpt lat="46.201879" lon="13.381993">
        <ele>710.068</ele>
        <time>2018-09-06T09:43:35Z</time>
      </trkpt>
      <trkpt lat="46.201813" lon="13.381685">
        <ele>709.144</ele>
        <time>2018-09-06T09:43:43Z</time>
      </trkpt>
      <trkpt lat="46.201879" lon="13.381615">
        <ele>708.605</ele>
        <time>2018-09-06T09:43:46Z</time>
      </trkpt>
      <trkpt lat="46.201904" lon="13.381607">
        <ele>708.615</ele>
        <time>2018-09-06T09:43:47Z</time>
      </trkpt>
      <trkpt lat="46.202134" lon="13.381205">
        <ele>710.008</ele>
        <time>2018-09-06T09:44:01Z</time>
      </trkpt>
      <trkpt lat="46.202191" lon="13.380930">
        <ele>710.068</ele>
        <time>2018-09-06T09:44:08Z</time>
      </trkpt>
      <trkpt lat="46.202180" lon="13.380894">
        <ele>710.010</ele>
        <time>2018-09-06T09:44:09Z</time>
      </trkpt>
      <trkpt lat="46.202163" lon="13.380865">
        <ele>710.016</ele>
        <time>2018-09-06T09:44:10Z</time>
      </trkpt>
      <trkpt lat="46.202139" lon="13.380841">
        <ele>710.042</ele>
        <time>2018-09-06T09:44:11Z</time>
      </trkpt>
      <trkpt lat="46.202107" lon="13.380834">
        <ele>710.023</ele>
        <time>2018-09-06T09:44:12Z</time>
      </trkpt>
      <trkpt lat="46.202076" lon="13.380843">
        <ele>709.583</ele>
        <time>2018-09-06T09:44:13Z</time>
      </trkpt>
      <trkpt lat="46.202043" lon="13.380861">
        <ele>709.116</ele>
        <time>2018-09-06T09:44:14Z</time>
      </trkpt>
      <trkpt lat="46.201971" lon="13.380904">
        <ele>708.180</ele>
        <time>2018-09-06T09:44:16Z</time>
      </trkpt>
      <trkpt lat="46.201931" lon="13.380916">
        <ele>708.137</ele>
        <time>2018-09-06T09:44:17Z</time>
      </trkpt>
      <trkpt lat="46.201890" lon="13.380919">
        <ele>707.649</ele>
        <time>2018-09-06T09:44:18Z</time>
      </trkpt>
      <trkpt lat="46.201849" lon="13.380904">
        <ele>707.113</ele>
        <time>2018-09-06T09:44:19Z</time>
      </trkpt>
      <trkpt lat="46.201816" lon="13.380873">
        <ele>707.108</ele>
        <time>2018-09-06T09:44:20Z</time>
      </trkpt>
      <trkpt lat="46.201796" lon="13.380830">
        <ele>707.187</ele>
        <time>2018-09-06T09:44:21Z</time>
      </trkpt>
      <trkpt lat="46.201786" lon="13.380786">
        <ele>706.739</ele>
        <time>2018-09-06T09:44:22Z</time>
      </trkpt>
      <trkpt lat="46.201785" lon="13.380744">
        <ele>706.775</ele>
        <time>2018-09-06T09:44:23Z</time>
      </trkpt>
      <trkpt lat="46.201786" lon="13.380700">
        <ele>706.781</ele>
        <time>2018-09-06T09:44:24Z</time>
      </trkpt>
      <trkpt lat="46.201786" lon="13.380651">
        <ele>706.772</ele>
        <time>2018-09-06T09:44:25Z</time>
      </trkpt>
      <trkpt lat="46.201863" lon="13.380052">
        <ele>707.692</ele>
        <time>2018-09-06T09:44:38Z</time>
      </trkpt>
      <trkpt lat="46.201640" lon="13.379809">
        <ele>707.665</ele>
        <time>2018-09-06T09:44:48Z</time>
      </trkpt>
      <trkpt lat="46.201333" lon="13.379849">
        <ele>709.549</ele>
        <time>2018-09-06T09:45:02Z</time>
      </trkpt>
      <trkpt lat="46.200991" lon="13.379950">
        <ele>709.567</ele>
        <time>2018-09-06T09:45:16Z</time>
      </trkpt>
      <trkpt lat="46.200842" lon="13.380290">
        <ele>708.181</ele>
        <time>2018-09-06T09:45:29Z</time>
      </trkpt>
      <trkpt lat="46.200731" lon="13.380619">
        <ele>710.019</ele>
        <time>2018-09-06T09:45:40Z</time>
      </trkpt>
      <trkpt lat="46.200500" lon="13.381026">
        <ele>715.308</ele>
        <time>2018-09-06T09:45:53Z</time>
      </trkpt>
      <trkpt lat="46.200312" lon="13.381393">
        <ele>718.230</ele>
        <time>2018-09-06T09:46:05Z</time>
      </trkpt>
      <trkpt lat="46.200283" lon="13.381393">
        <ele>718.212</ele>
        <time>2018-09-06T09:46:06Z</time>
      </trkpt>
      <trkpt lat="46.200256" lon="13.381385">
        <ele>718.298</ele>
        <time>2018-09-06T09:46:07Z</time>
      </trkpt>
      <trkpt lat="46.200065" lon="13.381065">
        <ele>717.734</ele>
        <time>2018-09-06T09:46:19Z</time>
      </trkpt>
      <trkpt lat="46.199983" lon="13.380737">
        <ele>715.345</ele>
        <time>2018-09-06T09:46:30Z</time>
      </trkpt>
      <trkpt lat="46.199913" lon="13.380463">
        <ele>714.415</ele>
        <time>2018-09-06T09:46:40Z</time>
      </trkpt>
      <trkpt lat="46.199909" lon="13.380443">
        <ele>713.998</ele>
        <time>2018-09-06T09:46:41Z</time>
      </trkpt>
      <trkpt lat="46.199903" lon="13.380425">
        <ele>713.942</ele>
        <time>2018-09-06T09:46:42Z</time>
      </trkpt>
      <trkpt lat="46.199898" lon="13.380405">
        <ele>713.416</ele>
        <time>2018-09-06T09:46:43Z</time>
      </trkpt>
      <trkpt lat="46.199892" lon="13.380379">
        <ele>713.976</ele>
        <time>2018-09-06T09:46:44Z</time>
      </trkpt>
      <trkpt lat="46.199885" lon="13.380351">
        <ele>713.913</ele>
        <time>2018-09-06T09:46:45Z</time>
      </trkpt>
      <trkpt lat="46.199805" lon="13.379949">
        <ele>717.208</ele>
        <time>2018-09-06T09:46:57Z</time>
      </trkpt>
      <trkpt lat="46.199808" lon="13.379478">
        <ele>718.255</ele>
        <time>2018-09-06T09:47:09Z</time>
      </trkpt>
      <trkpt lat="46.199778" lon="13.378988">
        <ele>716.387</ele>
        <time>2018-09-06T09:47:21Z</time>
      </trkpt>
      <trkpt lat="46.199764" lon="13.378517">
        <ele>716.313</ele>
        <time>2018-09-06T09:47:34Z</time>
      </trkpt>
      <trkpt lat="46.199621" lon="13.378130">
        <ele>715.819</ele>
        <time>2018-09-06T09:47:47Z</time>
      </trkpt>
      <trkpt lat="46.199296" lon="13.378158">
        <ele>713.490</ele>
        <time>2018-09-06T09:48:00Z</time>
      </trkpt>
      <trkpt lat="46.199066" lon="13.378531">
        <ele>708.660</ele>
        <time>2018-09-06T09:48:12Z</time>
      </trkpt>
      <trkpt lat="46.198861" lon="13.378663">
        <ele>712.933</ele>
        <time>2018-09-06T09:48:23Z</time>
      </trkpt>
      <trkpt lat="46.198613" lon="13.378507">
        <ele>714.477</ele>
        <time>2018-09-06T09:48:35Z</time>
      </trkpt>
      <trkpt lat="46.198525" lon="13.378140">
        <ele>714.879</ele>
        <time>2018-09-06T09:48:47Z</time>
      </trkpt>
      <trkpt lat="46.198417" lon="13.377659">
        <ele>714.805</ele>
        <time>2018-09-06T09:49:02Z</time>
      </trkpt>
      <trkpt lat="46.198277" lon="13.377367">
        <ele>717.725</ele>
        <time>2018-09-06T09:49:14Z</time>
      </trkpt>
      <trkpt lat="46.197991" lon="13.377228">
        <ele>716.308</ele>
        <time>2018-09-06T09:49:29Z</time>
      </trkpt>
      <trkpt lat="46.197976" lon="13.377216">
        <ele>716.391</ele>
        <time>2018-09-06T09:49:30Z</time>
      </trkpt>
      <trkpt lat="46.197734" lon="13.377063">
        <ele>717.743</ele>
        <time>2018-09-06T09:49:43Z</time>
      </trkpt>
      <trkpt lat="46.197474" lon="13.377222">
        <ele>715.319</ele>
        <time>2018-09-06T09:49:54Z</time>
      </trkpt>
      <trkpt lat="46.197326" lon="13.377268">
        <ele>714.435</ele>
        <time>2018-09-06T09:50:00Z</time>
      </trkpt>
      <trkpt lat="46.197312" lon="13.377257">
        <ele>714.466</ele>
        <time>2018-09-06T09:50:01Z</time>
      </trkpt>
      <trkpt lat="46.197298" lon="13.377245">
        <ele>714.866</ele>
        <time>2018-09-06T09:50:02Z</time>
      </trkpt>
      <trkpt lat="46.197285" lon="13.377226">
        <ele>714.839</ele>
        <time>2018-09-06T09:50:03Z</time>
      </trkpt>
      <trkpt lat="46.197275" lon="13.377202">
        <ele>714.883</ele>
        <time>2018-09-06T09:50:04Z</time>
      </trkpt>
      <trkpt lat="46.197270" lon="13.377177">
        <ele>715.361</ele>
        <time>2018-09-06T09:50:05Z</time>
      </trkpt>
      <trkpt lat="46.197265" lon="13.377150">
        <ele>715.821</ele>
        <time>2018-09-06T09:50:06Z</time>
      </trkpt>
      <trkpt lat="46.197259" lon="13.377123">
        <ele>716.313</ele>
        <time>2018-09-06T09:50:07Z</time>
      </trkpt>
      <trkpt lat="46.197256" lon="13.377094">
        <ele>716.308</ele>
        <time>2018-09-06T09:50:08Z</time>
      </trkpt>
      <trkpt lat="46.197255" lon="13.377064">
        <ele>716.860</ele>
        <time>2018-09-06T09:50:09Z</time>
      </trkpt>
      <trkpt lat="46.197258" lon="13.377034">
        <ele>716.872</ele>
        <time>2018-09-06T09:50:10Z</time>
      </trkpt>
      <trkpt lat="46.197260" lon="13.377004">
        <ele>716.868</ele>
        <time>2018-09-06T09:50:11Z</time>
      </trkpt>
      <trkpt lat="46.197258" lon="13.376973">
        <ele>717.264</ele>
        <time>2018-09-06T09:50:12Z</time>
      </trkpt>
      <trkpt lat="46.197254" lon="13.376940">
        <ele>717.275</ele>
        <time>2018-09-06T09:50:13Z</time>
      </trkpt>
      <trkpt lat="46.197204" lon="13.376424">
        <ele>719.635</ele>
        <time>2018-09-06T09:50:28Z</time>
      </trkpt>
      <trkpt lat="46.196955" lon="13.376168">
        <ele>715.838</ele>
        <time>2018-09-06T09:50:40Z</time>
      </trkpt>
      <trkpt lat="46.196484" lon="13.376121">
        <ele>714.872</ele>
        <time>2018-09-06T09:50:53Z</time>
      </trkpt>
      <trkpt lat="46.196182" lon="13.376142">
        <ele>715.346</ele>
        <time>2018-09-06T09:51:02Z</time>
      </trkpt>
      <trkpt lat="46.196156" lon="13.376110">
        <ele>715.388</ele>
        <time>2018-09-06T09:51:03Z</time>
      </trkpt>
      <trkpt lat="46.196152" lon="13.375668">
        <ele>713.916</ele>
        <time>2018-09-06T09:51:13Z</time>
      </trkpt>
      <trkpt lat="46.196292" lon="13.375338">
        <ele>715.308</ele>
        <time>2018-09-06T09:51:25Z</time>
      </trkpt>
      <trkpt lat="46.196392" lon="13.374910">
        <ele>713.938</ele>
        <time>2018-09-06T09:51:38Z</time>
      </trkpt>
      <trkpt lat="46.196331" lon="13.374544">
        <ele>712.460</ele>
        <time>2018-09-06T09:51:50Z</time>
      </trkpt>
      <trkpt lat="46.196127" lon="13.374232">
        <ele>713.976</ele>
        <time>2018-09-06T09:52:02Z</time>
      </trkpt>
      <trkpt lat="46.196119" lon="13.374197">
        <ele>713.912</ele>
        <time>2018-09-06T09:52:03Z</time>
      </trkpt>
      <trkpt lat="46.196111" lon="13.374161">
        <ele>713.963</ele>
        <time>2018-09-06T09:52:04Z</time>
      </trkpt>
      <trkpt lat="46.196103" lon="13.374125">
        <ele>713.923</ele>
        <time>2018-09-06T09:52:05Z</time>
      </trkpt>
      <trkpt lat="46.196097" lon="13.374093">
        <ele>713.976</ele>
        <time>2018-09-06T09:52:06Z</time>
      </trkpt>
      <trkpt lat="46.196093" lon="13.374057">
        <ele>714.460</ele>
        <time>2018-09-06T09:52:07Z</time>
      </trkpt>
      <trkpt lat="46.196093" lon="13.374015">
        <ele>714.455</ele>
        <time>2018-09-06T09:52:08Z</time>
      </trkpt>
      <trkpt lat="46.196092" lon="13.373968">
        <ele>714.407</ele>
        <time>2018-09-06T09:52:09Z</time>
      </trkpt>
      <trkpt lat="46.196090" lon="13.373921">
        <ele>714.417</ele>
        <time>2018-09-06T09:52:10Z</time>
      </trkpt>
      <trkpt lat="46.195950" lon="13.373479">
        <ele>713.908</ele>
        <time>2018-09-06T09:52:21Z</time>
      </trkpt>
      <trkpt lat="46.195783" lon="13.373118">
        <ele>713.489</ele>
        <time>2018-09-06T09:52:33Z</time>
      </trkpt>
      <trkpt lat="46.195529" lon="13.372880">
        <ele>711.941</ele>
        <time>2018-09-06T09:52:46Z</time>
      </trkpt>
      <trkpt lat="46.195249" lon="13.372731">
        <ele>708.197</ele>
        <time>2018-09-06T09:53:00Z</time>
      </trkpt>
      <trkpt lat="46.195239" lon="13.372699">
        <ele>709.173</ele>
        <time>2018-09-06T09:53:31Z</time>
      </trkpt>
      <trkpt lat="46.195212" lon="13.372683">
        <ele>710.024</ele>
        <time>2018-09-06T09:53:52Z</time>
      </trkpt>
      <trkpt lat="46.195209" lon="13.372664">
        <ele>709.594</ele>
        <time>2018-09-06T09:53:53Z</time>
      </trkpt>
      <trkpt lat="46.195206" lon="13.372644">
        <ele>709.557</ele>
        <time>2018-09-06T09:53:54Z</time>
      </trkpt>
      <trkpt lat="46.195208" lon="13.372622">
        <ele>709.511</ele>
        <time>2018-09-06T09:53:55Z</time>
      </trkpt>
      <trkpt lat="46.195214" lon="13.372591">
        <ele>710.074</ele>
        <time>2018-09-06T09:53:56Z</time>
      </trkpt>
      <trkpt lat="46.195225" lon="13.372564">
        <ele>709.556</ele>
        <time>2018-09-06T09:53:57Z</time>
      </trkpt>
      <trkpt lat="46.195243" lon="13.372532">
        <ele>709.521</ele>
        <time>2018-09-06T09:53:58Z</time>
      </trkpt>
      <trkpt lat="46.195265" lon="13.372509">
        <ele>709.108</ele>
        <time>2018-09-06T09:53:59Z</time>
      </trkpt>
      <trkpt lat="46.195292" lon="13.372503">
        <ele>709.141</ele>
        <time>2018-09-06T09:54:00Z</time>
      </trkpt>
      <trkpt lat="46.195317" lon="13.372507">
        <ele>708.663</ele>
        <time>2018-09-06T09:54:01Z</time>
      </trkpt>
      <trkpt lat="46.195343" lon="13.372519">
        <ele>708.159</ele>
        <time>2018-09-06T09:54:02Z</time>
      </trkpt>
      <trkpt lat="46.195370" lon="13.372535">
        <ele>707.665</ele>
        <time>2018-09-06T09:54:03Z</time>
      </trkpt>
      <trkpt lat="46.195718" lon="13.372651">
        <ele>703.376</ele>
        <time>2018-09-06T09:54:15Z</time>
      </trkpt>
      <trkpt lat="46.195758" lon="13.372658">
        <ele>702.866</ele>
        <time>2018-09-06T09:54:16Z</time>
      </trkpt>
      <trkpt lat="46.195795" lon="13.372670">
        <ele>702.869</ele>
        <time>2018-09-06T09:54:17Z</time>
      </trkpt>
      <trkpt lat="46.196200" lon="13.372955">
        <ele>699.093</ele>
        <time>2018-09-06T09:54:31Z</time>
      </trkpt>
      <trkpt lat="46.196527" lon="13.373157">
        <ele>695.178</ele>
        <time>2018-09-06T09:54:42Z</time>
      </trkpt>
      <trkpt lat="46.196680" lon="13.373569">
        <ele>689.433</ele>
        <time>2018-09-06T09:54:53Z</time>
      </trkpt>
      <trkpt lat="46.196711" lon="13.373578">
        <ele>689.426</ele>
        <time>2018-09-06T09:54:54Z</time>
      </trkpt>
      <trkpt lat="46.196841" lon="13.373451">
        <ele>687.908</ele>
        <time>2018-09-06T09:55:03Z</time>
      </trkpt>
      <trkpt lat="46.196843" lon="13.373433">
        <ele>687.951</ele>
        <time>2018-09-06T09:55:04Z</time>
      </trkpt>
      <trkpt lat="46.196849" lon="13.373413">
        <ele>687.983</ele>
        <time>2018-09-06T09:55:05Z</time>
      </trkpt>
      <trkpt lat="46.196858" lon="13.373392">
        <ele>687.979</ele>
        <time>2018-09-06T09:55:06Z</time>
      </trkpt>
      <trkpt lat="46.196870" lon="13.373371">
        <ele>688.485</ele>
        <time>2018-09-06T09:55:07Z</time>
      </trkpt>
      <trkpt lat="46.196881" lon="13.373350">
        <ele>688.466</ele>
        <time>2018-09-06T09:55:08Z</time>
      </trkpt>
      <trkpt lat="46.196890" lon="13.373329">
        <ele>688.466</ele>
        <time>2018-09-06T09:55:09Z</time>
      </trkpt>
      <trkpt lat="46.196900" lon="13.373303">
        <ele>688.489</ele>
        <time>2018-09-06T09:55:10Z</time>
      </trkpt>
      <trkpt lat="46.196907" lon="13.373278">
        <ele>688.953</ele>
        <time>2018-09-06T09:55:11Z</time>
      </trkpt>
      <trkpt lat="46.196910" lon="13.373250">
        <ele>688.961</ele>
        <time>2018-09-06T09:55:12Z</time>
      </trkpt>
      <trkpt lat="46.196915" lon="13.373225">
        <ele>688.921</ele>
        <time>2018-09-06T09:55:13Z</time>
      </trkpt>
      <trkpt lat="46.196978" lon="13.372882">
        <ele>689.413</ele>
        <time>2018-09-06T09:55:28Z</time>
      </trkpt>
      <trkpt lat="46.197022" lon="13.372600">
        <ele>690.808</ele>
        <time>2018-09-06T09:55:42Z</time>
      </trkpt>
      <trkpt lat="46.197044" lon="13.372206">
        <ele>688.970</ele>
        <time>2018-09-06T09:56:01Z</time>
      </trkpt>
      <trkpt lat="46.197047" lon="13.372162">
        <ele>688.982</ele>
        <time>2018-09-06T09:56:03Z</time>
      </trkpt>
      <trkpt lat="46.197046" lon="13.372140">
        <ele>688.918</ele>
        <time>2018-09-06T09:56:04Z</time>
      </trkpt>
      <trkpt lat="46.197049" lon="13.372119">
        <ele>689.414</ele>
        <time>2018-09-06T09:56:05Z</time>
      </trkpt>
      <trkpt lat="46.197052" lon="13.372097">
        <ele>689.415</ele>
        <time>2018-09-06T09:56:06Z</time>
      </trkpt>
      <trkpt lat="46.197044" lon="13.371824">
        <ele>689.415</ele>
        <time>2018-09-06T09:56:20Z</time>
      </trkpt>
      <trkpt lat="46.197044" lon="13.371777">
        <ele>689.858</ele>
        <time>2018-09-06T09:56:22Z</time>
      </trkpt>
      <trkpt lat="46.197152" lon="13.371523">
        <ele>695.162</ele>
        <time>2018-09-06T09:56:38Z</time>
      </trkpt>
      <trkpt lat="46.197294" lon="13.371642">
        <ele>699.087</ele>
        <time>2018-09-06T09:56:53Z</time>
      </trkpt>
      <trkpt lat="46.197488" lon="13.371790">
        <ele>701.942</ele>
        <time>2018-09-06T09:57:10Z</time>
      </trkpt>
      <trkpt lat="46.197669" lon="13.371836">
        <ele>707.626</ele>
        <time>2018-09-06T09:57:26Z</time>
      </trkpt>
      <trkpt lat="46.197681" lon="13.371842">
        <ele>708.108</ele>
        <time>2018-09-06T09:57:27Z</time>
      </trkpt>
      <trkpt lat="46.197714" lon="13.371852">
        <ele>708.662</ele>
        <time>2018-09-06T09:57:30Z</time>
      </trkpt>
      <trkpt lat="46.197888" lon="13.371901">
        <ele>714.884</ele>
        <time>2018-09-06T09:57:46Z</time>
      </trkpt>
      <trkpt lat="46.198053" lon="13.371968">
        <ele>717.770</ele>
        <time>2018-09-06T09:58:00Z</time>
      </trkpt>
      <trkpt lat="46.198257" lon="13.372051">
        <ele>718.746</ele>
        <time>2018-09-06T09:58:15Z</time>
      </trkpt>
      <trkpt lat="46.198270" lon="13.372046">
        <ele>719.247</ele>
        <time>2018-09-06T09:58:16Z</time>
      </trkpt>
      <trkpt lat="46.198284" lon="13.372042">
        <ele>719.277</ele>
        <time>2018-09-06T09:58:17Z</time>
      </trkpt>
      <trkpt lat="46.198482" lon="13.371948">
        <ele>719.680</ele>
        <time>2018-09-06T09:58:32Z</time>
      </trkpt>
      <trkpt lat="46.198687" lon="13.371773">
        <ele>719.234</ele>
        <time>2018-09-06T09:58:48Z</time>
      </trkpt>
      <trkpt lat="46.198918" lon="13.371704">
        <ele>721.671</ele>
        <time>2018-09-06T09:59:04Z</time>
      </trkpt>
      <trkpt lat="46.199113" lon="13.371798">
        <ele>725.441</ele>
        <time>2018-09-06T09:59:18Z</time>
      </trkpt>
      <trkpt lat="46.199163" lon="13.371829">
        <ele>725.915</ele>
        <time>2018-09-06T09:59:22Z</time>
      </trkpt>
      <trkpt lat="46.199179" lon="13.371825">
        <ele>726.408</ele>
        <time>2018-09-06T09:59:23Z</time>
      </trkpt>
      <trkpt lat="46.199194" lon="13.371824">
        <ele>726.441</ele>
        <time>2018-09-06T09:59:24Z</time>
      </trkpt>
      <trkpt lat="46.199208" lon="13.371823">
        <ele>726.853</ele>
        <time>2018-09-06T09:59:25Z</time>
      </trkpt>
      <trkpt lat="46.199222" lon="13.371820">
        <ele>726.819</ele>
        <time>2018-09-06T09:59:26Z</time>
      </trkpt>
      <trkpt lat="46.199417" lon="13.371745">
        <ele>728.335</ele>
        <time>2018-09-06T09:59:40Z</time>
      </trkpt>
      <trkpt lat="46.199588" lon="13.371879">
        <ele>727.396</ele>
        <time>2018-09-06T09:59:54Z</time>
      </trkpt>
      <trkpt lat="46.199768" lon="13.372094">
        <ele>724.466</ele>
        <time>2018-09-06T10:00:11Z</time>
      </trkpt>
      <trkpt lat="46.199922" lon="13.372280">
        <ele>724.949</ele>
        <time>2018-09-06T10:00:24Z</time>
      </trkpt>
      <trkpt lat="46.200111" lon="13.372538">
        <ele>724.943</ele>
        <time>2018-09-06T10:00:41Z</time>
      </trkpt>
      <trkpt lat="46.200285" lon="13.372728">
        <ele>726.425</ele>
        <time>2018-09-06T10:00:55Z</time>
      </trkpt>
      <trkpt lat="46.200536" lon="13.372767">
        <ele>729.326</ele>
        <time>2018-09-06T10:01:12Z</time>
      </trkpt>
      <trkpt lat="46.200822" lon="13.372741">
        <ele>734.108</ele>
        <time>2018-09-06T10:01:29Z</time>
      </trkpt>
      <trkpt lat="46.201050" lon="13.372889">
        <ele>737.408</ele>
        <time>2018-09-06T10:01:43Z</time>
      </trkpt>
      <trkpt lat="46.201271" lon="13.373075">
        <ele>736.556</ele>
        <time>2018-09-06T10:01:57Z</time>
      </trkpt>
      <trkpt lat="46.201555" lon="13.373096">
        <ele>736.098</ele>
        <time>2018-09-06T10:02:14Z</time>
      </trkpt>
      <trkpt lat="46.201722" lon="13.373353">
        <ele>736.514</ele>
        <time>2018-09-06T10:02:29Z</time>
      </trkpt>
      <trkpt lat="46.201924" lon="13.373674">
        <ele>736.050</ele>
        <time>2018-09-06T10:02:42Z</time>
      </trkpt>
      <trkpt lat="46.202166" lon="13.373740">
        <ele>738.981</ele>
        <time>2018-09-06T10:02:54Z</time>
      </trkpt>
      <trkpt lat="46.202465" lon="13.373500">
        <ele>740.881</ele>
        <time>2018-09-06T10:03:12Z</time>
      </trkpt>
      <trkpt lat="46.202468" lon="13.373476">
        <ele>741.324</ele>
        <time>2018-09-06T10:03:13Z</time>
      </trkpt>
      <trkpt lat="46.202470" lon="13.373455">
        <ele>741.398</ele>
        <time>2018-09-06T10:03:14Z</time>
      </trkpt>
      <trkpt lat="46.202474" lon="13.373432">
        <ele>740.876</ele>
        <time>2018-09-06T10:03:15Z</time>
      </trkpt>
      <trkpt lat="46.202474" lon="13.373407">
        <ele>741.390</ele>
        <time>2018-09-06T10:03:16Z</time>
      </trkpt>
      <trkpt lat="46.202473" lon="13.373382">
        <ele>741.319</ele>
        <time>2018-09-06T10:03:17Z</time>
      </trkpt>
      <trkpt lat="46.202470" lon="13.373358">
        <ele>741.308</ele>
        <time>2018-09-06T10:03:18Z</time>
      </trkpt>
      <trkpt lat="46.202464" lon="13.373334">
        <ele>741.381</ele>
        <time>2018-09-06T10:03:19Z</time>
      </trkpt>
      <trkpt lat="46.202456" lon="13.373311">
        <ele>741.363</ele>
        <time>2018-09-06T10:03:20Z</time>
      </trkpt>
      <trkpt lat="46.202263" lon="13.373022">
        <ele>741.389</ele>
        <time>2018-09-06T10:03:35Z</time>
      </trkpt>
      <trkpt lat="46.202228" lon="13.372774">
        <ele>741.775</ele>
        <time>2018-09-06T10:03:45Z</time>
      </trkpt>
      <trkpt lat="46.202238" lon="13.372751">
        <ele>741.746</ele>
        <time>2018-09-06T10:03:46Z</time>
      </trkpt>
      <trkpt lat="46.202452" lon="13.372539">
        <ele>742.746</ele>
        <time>2018-09-06T10:04:00Z</time>
      </trkpt>
      <trkpt lat="46.202694" lon="13.372278">
        <ele>744.689</ele>
        <time>2018-09-06T10:04:15Z</time>
      </trkpt>
      <trkpt lat="46.202886" lon="13.371954">
        <ele>746.693</ele>
        <time>2018-09-06T10:04:32Z</time>
      </trkpt>
      <trkpt lat="46.203061" lon="13.371672">
        <ele>748.595</ele>
        <time>2018-09-06T10:04:47Z</time>
      </trkpt>
      <trkpt lat="46.203216" lon="13.371261">
        <ele>749.449</ele>
        <time>2018-09-06T10:05:04Z</time>
      </trkpt>
      <trkpt lat="46.203364" lon="13.370811">
        <ele>751.823</ele>
        <time>2018-09-06T10:05:20Z</time>
      </trkpt>
      <trkpt lat="46.203377" lon="13.370445">
        <ele>752.308</ele>
        <time>2018-09-06T10:05:32Z</time>
      </trkpt>
      <trkpt lat="46.203252" lon="13.370219">
        <ele>752.323</ele>
        <time>2018-09-06T10:05:42Z</time>
      </trkpt>
      <trkpt lat="46.203239" lon="13.370199">
        <ele>752.355</ele>
        <time>2018-09-06T10:05:43Z</time>
      </trkpt>
      <trkpt lat="46.203222" lon="13.370180">
        <ele>752.321</ele>
        <time>2018-09-06T10:05:44Z</time>
      </trkpt>
      <trkpt lat="46.202968" lon="13.370024">
        <ele>751.837</ele>
        <time>2018-09-06T10:05:59Z</time>
      </trkpt>
      <trkpt lat="46.202663" lon="13.369717">
        <ele>751.838</ele>
        <time>2018-09-06T10:06:12Z</time>
      </trkpt>
      <trkpt lat="46.202524" lon="13.369282">
        <ele>749.978</ele>
        <time>2018-09-06T10:06:24Z</time>
      </trkpt>
      <trkpt lat="46.202406" lon="13.369176">
        <ele>749.091</ele>
        <time>2018-09-06T10:06:28Z</time>
      </trkpt>
      <trkpt lat="46.202388" lon="13.369136">
        <ele>749.085</ele>
        <time>2018-09-06T10:06:29Z</time>
      </trkpt>
      <trkpt lat="46.202376" lon="13.369099">
        <ele>749.055</ele>
        <time>2018-09-06T10:06:30Z</time>
      </trkpt>
      <trkpt lat="46.202336" lon="13.368953">
        <ele>749.007</ele>
        <time>2018-09-06T10:06:34Z</time>
      </trkpt>
      <trkpt lat="46.202165" lon="13.368391">
        <ele>754.717</ele>
        <time>2018-09-06T10:06:50Z</time>
      </trkpt>
      <trkpt lat="46.202179" lon="13.367956">
        <ele>755.708</ele>
        <time>2018-09-06T10:07:03Z</time>
      </trkpt>
      <trkpt lat="46.202326" lon="13.367480">
        <ele>759.589</ele>
        <time>2018-09-06T10:07:19Z</time>
      </trkpt>
      <trkpt lat="46.202373" lon="13.367152">
        <ele>760.091</ele>
        <time>2018-09-06T10:07:29Z</time>
      </trkpt>
      <trkpt lat="46.202632" lon="13.366843">
        <ele>763.927</ele>
        <time>2018-09-06T10:07:43Z</time>
      </trkpt>
      <trkpt lat="46.202735" lon="13.366391">
        <ele>762.483</ele>
        <time>2018-09-06T10:07:57Z</time>
      </trkpt>
      <trkpt lat="46.202659" lon="13.366028">
        <ele>761.524</ele>
        <time>2018-09-06T10:08:09Z</time>
      </trkpt>
      <trkpt lat="46.202541" lon="13.365684">
        <ele>763.974</ele>
        <time>2018-09-06T10:08:22Z</time>
      </trkpt>
      <trkpt lat="46.202342" lon="13.365429">
        <ele>765.397</ele>
        <time>2018-09-06T10:08:36Z</time>
      </trkpt>
      <trkpt lat="46.202341" lon="13.365404">
        <ele>765.811</ele>
        <time>2018-09-06T10:08:37Z</time>
      </trkpt>
      <trkpt lat="46.202344" lon="13.365380">
        <ele>765.822</ele>
        <time>2018-09-06T10:08:38Z</time>
      </trkpt>
      <trkpt lat="46.202347" lon="13.365355">
        <ele>765.862</ele>
        <time>2018-09-06T10:08:39Z</time>
      </trkpt>
      <trkpt lat="46.202350" lon="13.365332">
        <ele>765.808</ele>
        <time>2018-09-06T10:08:40Z</time>
      </trkpt>
      <trkpt lat="46.202353" lon="13.365307">
        <ele>765.808</ele>
        <time>2018-09-06T10:08:41Z</time>
      </trkpt>
      <trkpt lat="46.202355" lon="13.365283">
        <ele>765.846</ele>
        <time>2018-09-06T10:08:42Z</time>
      </trkpt>
      <trkpt lat="46.202345" lon="13.364863">
        <ele>766.758</ele>
        <time>2018-09-06T10:09:00Z</time>
      </trkpt>
      <trkpt lat="46.202224" lon="13.364515">
        <ele>769.654</ele>
        <time>2018-09-06T10:09:17Z</time>
      </trkpt>
      <trkpt lat="46.202164" lon="13.364219">
        <ele>772.590</ele>
        <time>2018-09-06T10:09:32Z</time>
      </trkpt>
      <trkpt lat="46.202168" lon="13.364200">
        <ele>772.511</ele>
        <time>2018-09-06T10:09:33Z</time>
      </trkpt>
      <trkpt lat="46.202336" lon="13.364018">
        <ele>773.021</ele>
        <time>2018-09-06T10:09:47Z</time>
      </trkpt>
      <trkpt lat="46.202633" lon="13.363887">
        <ele>775.944</ele>
        <time>2018-09-06T10:10:07Z</time>
      </trkpt>
      <trkpt lat="46.202796" lon="13.363707">
        <ele>777.898</ele>
        <time>2018-09-06T10:10:22Z</time>
      </trkpt>
      <trkpt lat="46.202797" lon="13.363397">
        <ele>778.833</ele>
        <time>2018-09-06T10:10:37Z</time>
      </trkpt>
      <trkpt lat="46.202777" lon="13.363070">
        <ele>783.623</ele>
        <time>2018-09-06T10:10:51Z</time>
      </trkpt>
      <trkpt lat="46.202779" lon="13.363049">
        <ele>783.615</ele>
        <time>2018-09-06T10:10:52Z</time>
      </trkpt>
      <trkpt lat="46.202778" lon="13.363027">
        <ele>783.608</ele>
        <time>2018-09-06T10:10:53Z</time>
      </trkpt>
      <trkpt lat="46.202776" lon="13.363005">
        <ele>783.637</ele>
        <time>2018-09-06T10:10:54Z</time>
      </trkpt>
      <trkpt lat="46.202776" lon="13.362984">
        <ele>783.659</ele>
        <time>2018-09-06T10:10:55Z</time>
      </trkpt>
      <trkpt lat="46.202777" lon="13.362963">
        <ele>783.625</ele>
        <time>2018-09-06T10:10:56Z</time>
      </trkpt>
      <trkpt lat="46.202777" lon="13.362939">
        <ele>783.671</ele>
        <time>2018-09-06T10:10:57Z</time>
      </trkpt>
      <trkpt lat="46.202775" lon="13.362916">
        <ele>784.032</ele>
        <time>2018-09-06T10:10:58Z</time>
      </trkpt>
      <trkpt lat="46.202770" lon="13.362886">
        <ele>784.012</ele>
        <time>2018-09-06T10:10:59Z</time>
      </trkpt>
      <trkpt lat="46.202764" lon="13.362856">
        <ele>784.065</ele>
        <time>2018-09-06T10:11:00Z</time>
      </trkpt>
      <trkpt lat="46.202744" lon="13.362435">
        <ele>786.049</ele>
        <time>2018-09-06T10:11:16Z</time>
      </trkpt>
      <trkpt lat="46.202561" lon="13.362046">
        <ele>787.417</ele>
        <time>2018-09-06T10:11:31Z</time>
      </trkpt>
      <trkpt lat="46.202234" lon="13.361837">
        <ele>786.087</ele>
        <time>2018-09-06T10:11:41Z</time>
      </trkpt>
      <trkpt lat="46.202202" lon="13.361796">
        <ele>785.515</ele>
        <time>2018-09-06T10:11:42Z</time>
      </trkpt>
      <trkpt lat="46.202178" lon="13.361745">
        <ele>785.508</ele>
        <time>2018-09-06T10:11:43Z</time>
      </trkpt>
      <trkpt lat="46.202169" lon="13.361682">
        <ele>785.065</ele>
        <time>2018-09-06T10:11:44Z</time>
      </trkpt>
      <trkpt lat="46.202175" lon="13.361621">
        <ele>785.037</ele>
        <time>2018-09-06T10:11:45Z</time>
      </trkpt>
      <trkpt lat="46.202190" lon="13.361564">
        <ele>785.063</ele>
        <time>2018-09-06T10:11:46Z</time>
      </trkpt>
      <trkpt lat="46.202210" lon="13.361521">
        <ele>785.079</ele>
        <time>2018-09-06T10:11:47Z</time>
      </trkpt>
      <trkpt lat="46.202232" lon="13.361478">
        <ele>785.080</ele>
        <time>2018-09-06T10:11:48Z</time>
      </trkpt>
      <trkpt lat="46.202253" lon="13.361437">
        <ele>785.080</ele>
        <time>2018-09-06T10:11:49Z</time>
      </trkpt>
      <trkpt lat="46.202273" lon="13.361394">
        <ele>785.093</ele>
        <time>2018-09-06T10:11:50Z</time>
      </trkpt>
      <trkpt lat="46.202293" lon="13.361348">
        <ele>785.017</ele>
        <time>2018-09-06T10:11:51Z</time>
      </trkpt>
      <trkpt lat="46.202556" lon="13.360932">
        <ele>784.571</ele>
        <time>2018-09-06T10:12:03Z</time>
      </trkpt>
      <trkpt lat="46.202838" lon="13.360683">
        <ele>787.441</ele>
        <time>2018-09-06T10:12:16Z</time>
      </trkpt>
      <trkpt lat="46.203145" lon="13.360453">
        <ele>791.715</ele>
        <time>2018-09-06T10:12:29Z</time>
      </trkpt>
      <trkpt lat="46.203359" lon="13.360088">
        <ele>790.808</ele>
        <time>2018-09-06T10:12:41Z</time>
      </trkpt>
      <trkpt lat="46.203411" lon="13.359969">
        <ele>788.931</ele>
        <time>2018-09-06T10:12:47Z</time>
      </trkpt>
      <trkpt lat="46.203423" lon="13.359947">
        <ele>788.413</ele>
        <time>2018-09-06T10:12:48Z</time>
      </trkpt>
      <trkpt lat="46.203433" lon="13.359923">
        <ele>788.499</ele>
        <time>2018-09-06T10:12:49Z</time>
      </trkpt>
      <trkpt lat="46.203444" lon="13.359898">
        <ele>788.485</ele>
        <time>2018-09-06T10:12:50Z</time>
      </trkpt>
      <trkpt lat="46.203457" lon="13.359871">
        <ele>788.476</ele>
        <time>2018-09-06T10:12:51Z</time>
      </trkpt>
      <trkpt lat="46.203468" lon="13.359843">
        <ele>787.916</ele>
        <time>2018-09-06T10:12:52Z</time>
      </trkpt>
      <trkpt lat="46.203638" lon="13.359656">
        <ele>785.579</ele>
        <time>2018-09-06T10:13:04Z</time>
      </trkpt>
      <trkpt lat="46.203650" lon="13.359663">
        <ele>785.593</ele>
        <time>2018-09-06T10:13:05Z</time>
      </trkpt>
      <trkpt lat="46.203663" lon="13.359668">
        <ele>785.594</ele>
        <time>2018-09-06T10:13:06Z</time>
      </trkpt>
      <trkpt lat="46.203677" lon="13.359667">
        <ele>785.557</ele>
        <time>2018-09-06T10:13:07Z</time>
      </trkpt>
      <trkpt lat="46.203690" lon="13.359664">
        <ele>785.522</ele>
        <time>2018-09-06T10:13:08Z</time>
      </trkpt>
      <trkpt lat="46.203702" lon="13.359661">
        <ele>785.508</ele>
        <time>2018-09-06T10:13:09Z</time>
      </trkpt>
      <trkpt lat="46.203717" lon="13.359660">
        <ele>785.583</ele>
        <time>2018-09-06T10:13:10Z</time>
      </trkpt>
      <trkpt lat="46.203733" lon="13.359655">
        <ele>785.515</ele>
        <time>2018-09-06T10:13:11Z</time>
      </trkpt>
      <trkpt lat="46.203750" lon="13.359649">
        <ele>785.511</ele>
        <time>2018-09-06T10:13:12Z</time>
      </trkpt>
      <trkpt lat="46.203766" lon="13.359638">
        <ele>785.577</ele>
        <time>2018-09-06T10:13:13Z</time>
      </trkpt>
      <trkpt lat="46.203782" lon="13.359623">
        <ele>785.528</ele>
        <time>2018-09-06T10:13:14Z</time>
      </trkpt>
      <trkpt lat="46.203979" lon="13.359586">
        <ele>784.598</ele>
        <time>2018-09-06T10:13:27Z</time>
      </trkpt>
      <trkpt lat="46.203989" lon="13.359590">
        <ele>784.081</ele>
        <time>2018-09-06T10:13:49Z</time>
      </trkpt>
      <trkpt lat="46.203987" lon="13.359557">
        <ele>784.025</ele>
        <time>2018-09-06T10:13:52Z</time>
      </trkpt>
      <trkpt lat="46.203982" lon="13.359541">
        <ele>784.031</ele>
        <time>2018-09-06T10:13:53Z</time>
      </trkpt>
      <trkpt lat="46.203978" lon="13.359523">
        <ele>784.061</ele>
        <time>2018-09-06T10:13:54Z</time>
      </trkpt>
      <trkpt lat="46.203957" lon="13.359497">
        <ele>784.007</ele>
        <time>2018-09-06T10:13:57Z</time>
      </trkpt>
      <trkpt lat="46.203943" lon="13.359489">
        <ele>784.008</ele>
        <time>2018-09-06T10:13:58Z</time>
      </trkpt>
      <trkpt lat="46.203927" lon="13.359484">
        <ele>784.087</ele>
        <time>2018-09-06T10:13:59Z</time>
      </trkpt>
      <trkpt lat="46.203915" lon="13.359478">
        <ele>784.039</ele>
        <time>2018-09-06T10:14:00Z</time>
      </trkpt>
      <trkpt lat="46.203901" lon="13.359468">
        <ele>784.035</ele>
        <time>2018-09-06T10:14:01Z</time>
      </trkpt>
      <trkpt lat="46.203883" lon="13.359456">
        <ele>784.021</ele>
        <time>2018-09-06T10:14:02Z</time>
      </trkpt>
      <trkpt lat="46.203862" lon="13.359444">
        <ele>784.072</ele>
        <time>2018-09-06T10:14:03Z</time>
      </trkpt>
      <trkpt lat="46.203840" lon="13.359439">
        <ele>784.012</ele>
        <time>2018-09-06T10:14:04Z</time>
      </trkpt>
      <trkpt lat="46.203818" lon="13.359442">
        <ele>784.025</ele>
        <time>2018-09-06T10:14:05Z</time>
      </trkpt>
      <trkpt lat="46.203796" lon="13.359455">
        <ele>783.649</ele>
        <time>2018-09-06T10:14:06Z</time>
      </trkpt>
      <trkpt lat="46.203774" lon="13.359475">
        <ele>783.669</ele>
        <time>2018-09-06T10:14:07Z</time>
      </trkpt>
      <trkpt lat="46.203379" lon="13.359586">
        <ele>782.104</ele>
        <time>2018-09-06T10:14:22Z</time>
      </trkpt>
      <trkpt lat="46.203122" lon="13.359141">
        <ele>780.224</ele>
        <time>2018-09-06T10:14:34Z</time>
      </trkpt>
      <trkpt lat="46.203123" lon="13.359082">
        <ele>780.208</ele>
        <time>2018-09-06T10:14:35Z</time>
      </trkpt>
      <trkpt lat="46.203164" lon="13.358831">
        <ele>778.870</ele>
        <time>2018-09-06T10:14:39Z</time>
      </trkpt>
      <trkpt lat="46.203183" lon="13.358765">
        <ele>778.392</ele>
        <time>2018-09-06T10:14:40Z</time>
      </trkpt>
      <trkpt lat="46.203204" lon="13.358706">
        <ele>777.818</ele>
        <time>2018-09-06T10:14:41Z</time>
      </trkpt>
      <trkpt lat="46.203231" lon="13.358646">
        <ele>777.824</ele>
        <time>2018-09-06T10:14:42Z</time>
      </trkpt>
      <trkpt lat="46.203262" lon="13.358584">
        <ele>777.325</ele>
        <time>2018-09-06T10:14:43Z</time>
      </trkpt>
      <trkpt lat="46.203670" lon="13.358019">
        <ele>776.445</ele>
        <time>2018-09-06T10:14:54Z</time>
      </trkpt>
      <trkpt lat="46.203706" lon="13.357961">
        <ele>776.428</ele>
        <time>2018-09-06T10:14:55Z</time>
      </trkpt>
      <trkpt lat="46.203729" lon="13.357895">
        <ele>776.492</ele>
        <time>2018-09-06T10:14:56Z</time>
      </trkpt>
      <trkpt lat="46.203738" lon="13.357818">
        <ele>776.461</ele>
        <time>2018-09-06T10:14:57Z</time>
      </trkpt>
      <trkpt lat="46.203733" lon="13.357744">
        <ele>776.421</ele>
        <time>2018-09-06T10:14:58Z</time>
      </trkpt>
      <trkpt lat="46.203721" lon="13.357674">
        <ele>775.913</ele>
        <time>2018-09-06T10:14:59Z</time>
      </trkpt>
      <trkpt lat="46.203708" lon="13.357605">
        <ele>775.908</ele>
        <time>2018-09-06T10:15:00Z</time>
      </trkpt>
      <trkpt lat="46.203698" lon="13.357527">
        <ele>775.920</ele>
        <time>2018-09-06T10:15:01Z</time>
      </trkpt>
      <trkpt lat="46.203698" lon="13.357467">
        <ele>775.462</ele>
        <time>2018-09-06T10:15:02Z</time>
      </trkpt>
      <trkpt lat="46.203707" lon="13.357406">
        <ele>775.458</ele>
        <time>2018-09-06T10:15:03Z</time>
      </trkpt>
      <trkpt lat="46.203727" lon="13.357348">
        <ele>774.984</ele>
        <time>2018-09-06T10:15:04Z</time>
      </trkpt>
      <trkpt lat="46.203758" lon="13.357298">
        <ele>774.495</ele>
        <time>2018-09-06T10:15:05Z</time>
      </trkpt>
      <trkpt lat="46.203796" lon="13.357252">
        <ele>774.045</ele>
        <time>2018-09-06T10:15:06Z</time>
      </trkpt>
      <trkpt lat="46.203837" lon="13.357214">
        <ele>774.038</ele>
        <time>2018-09-06T10:15:07Z</time>
      </trkpt>
      <trkpt lat="46.203884" lon="13.357176">
        <ele>773.522</ele>
        <time>2018-09-06T10:15:08Z</time>
      </trkpt>
      <trkpt lat="46.204239" lon="13.356911">
        <ele>773.014</ele>
        <time>2018-09-06T10:15:16Z</time>
      </trkpt>
      <trkpt lat="46.204952" lon="13.356375">
        <ele>769.654</ele>
        <time>2018-09-06T10:15:32Z</time>
      </trkpt>
      <trkpt lat="46.205018" lon="13.356292">
        <ele>768.709</ele>
        <time>2018-09-06T10:15:40Z</time>
      </trkpt>
      <trkpt lat="46.205013" lon="13.356248">
        <ele>771.608</ele>
        <time>2018-09-06T10:16:11Z</time>
      </trkpt>
      <trkpt lat="46.205019" lon="13.356237">
        <ele>773.565</ele>
        <time>2018-09-06T10:16:53Z</time>
      </trkpt>
      <trkpt lat="46.205027" lon="13.356217">
        <ele>774.017</ele>
        <time>2018-09-06T10:17:01Z</time>
      </trkpt>
      <trkpt lat="46.205029" lon="13.356200">
        <ele>774.063</ele>
        <time>2018-09-06T10:17:02Z</time>
      </trkpt>
      <trkpt lat="46.205030" lon="13.356180">
        <ele>774.099</ele>
        <time>2018-09-06T10:17:03Z</time>
      </trkpt>
      <trkpt lat="46.205029" lon="13.356157">
        <ele>774.020</ele>
        <time>2018-09-06T10:17:04Z</time>
      </trkpt>
      <trkpt lat="46.205025" lon="13.356132">
        <ele>773.560</ele>
        <time>2018-09-06T10:17:05Z</time>
      </trkpt>
      <trkpt lat="46.205017" lon="13.356098">
        <ele>773.593</ele>
        <time>2018-09-06T10:17:06Z</time>
      </trkpt>
      <trkpt lat="46.205015" lon="13.356075">
        <ele>774.017</ele>
        <time>2018-09-06T10:17:07Z</time>
      </trkpt>
      <trkpt lat="46.205013" lon="13.356040">
        <ele>774.092</ele>
        <time>2018-09-06T10:17:08Z</time>
      </trkpt>
      <trkpt lat="46.205009" lon="13.356012">
        <ele>774.073</ele>
        <time>2018-09-06T10:17:09Z</time>
      </trkpt>
      <trkpt lat="46.204993" lon="13.355509">
        <ele>770.120</ele>
        <time>2018-09-06T10:17:22Z</time>
      </trkpt>
      <trkpt lat="46.204985" lon="13.355337">
        <ele>769.108</ele>
        <time>2018-09-06T10:17:25Z</time>
      </trkpt>
      <trkpt lat="46.204968" lon="13.355289">
        <ele>768.783</ele>
        <time>2018-09-06T10:17:26Z</time>
      </trkpt>
      <trkpt lat="46.204939" lon="13.355237">
        <ele>768.755</ele>
        <time>2018-09-06T10:17:27Z</time>
      </trkpt>
      <trkpt lat="46.204827" lon="13.355025">
        <ele>767.261</ele>
        <time>2018-09-06T10:17:31Z</time>
      </trkpt>
      <trkpt lat="46.204783" lon="13.354901">
        <ele>766.727</ele>
        <time>2018-09-06T10:17:33Z</time>
      </trkpt>
      <trkpt lat="46.204769" lon="13.354833">
        <ele>766.748</ele>
        <time>2018-09-06T10:17:34Z</time>
      </trkpt>
      <trkpt lat="46.204734" lon="13.354184">
        <ele>764.838</ele>
        <time>2018-09-06T10:17:42Z</time>
      </trkpt>
      <trkpt lat="46.204746" lon="13.354104">
        <ele>764.861</ele>
        <time>2018-09-06T10:17:43Z</time>
      </trkpt>
      <trkpt lat="46.204764" lon="13.354027">
        <ele>764.385</ele>
        <time>2018-09-06T10:17:44Z</time>
      </trkpt>
      <trkpt lat="46.204793" lon="13.353947">
        <ele>763.991</ele>
        <time>2018-09-06T10:17:45Z</time>
      </trkpt>
      <trkpt lat="46.204830" lon="13.353875">
        <ele>763.481</ele>
        <time>2018-09-06T10:17:46Z</time>
      </trkpt>
      <trkpt lat="46.204873" lon="13.353814">
        <ele>763.419</ele>
        <time>2018-09-06T10:17:47Z</time>
      </trkpt>
      <trkpt lat="46.204923" lon="13.353759">
        <ele>762.908</ele>
        <time>2018-09-06T10:17:48Z</time>
      </trkpt>
      <trkpt lat="46.204976" lon="13.353712">
        <ele>762.463</ele>
        <time>2018-09-06T10:17:49Z</time>
      </trkpt>
      <trkpt lat="46.205031" lon="13.353667">
        <ele>761.575</ele>
        <time>2018-09-06T10:17:50Z</time>
      </trkpt>
      <trkpt lat="46.205077" lon="13.353610">
        <ele>761.011</ele>
        <time>2018-09-06T10:17:51Z</time>
      </trkpt>
      <trkpt lat="46.205107" lon="13.353536">
        <ele>760.567</ele>
        <time>2018-09-06T10:17:52Z</time>
      </trkpt>
      <trkpt lat="46.205114" lon="13.353462">
        <ele>760.088</ele>
        <time>2018-09-06T10:17:53Z</time>
      </trkpt>
      <trkpt lat="46.205104" lon="13.353387">
        <ele>759.558</ele>
        <time>2018-09-06T10:17:54Z</time>
      </trkpt>
      <trkpt lat="46.205089" lon="13.353308">
        <ele>759.131</ele>
        <time>2018-09-06T10:17:55Z</time>
      </trkpt>
      <trkpt lat="46.205082" lon="13.353233">
        <ele>758.645</ele>
        <time>2018-09-06T10:17:56Z</time>
      </trkpt>
      <trkpt lat="46.205089" lon="13.353153">
        <ele>758.665</ele>
        <time>2018-09-06T10:17:57Z</time>
      </trkpt>
      <trkpt lat="46.205109" lon="13.353078">
        <ele>758.168</ele>
        <time>2018-09-06T10:17:58Z</time>
      </trkpt>
      <trkpt lat="46.205218" lon="13.352789">
        <ele>756.214</ele>
        <time>2018-09-06T10:18:02Z</time>
      </trkpt>
      <trkpt lat="46.205221" lon="13.352716">
        <ele>755.708</ele>
        <time>2018-09-06T10:18:03Z</time>
      </trkpt>
      <trkpt lat="46.205205" lon="13.352646">
        <ele>755.730</ele>
        <time>2018-09-06T10:18:04Z</time>
      </trkpt>
      <trkpt lat="46.205173" lon="13.352587">
        <ele>755.212</ele>
        <time>2018-09-06T10:18:05Z</time>
      </trkpt>
      <trkpt lat="46.205125" lon="13.352541">
        <ele>755.238</ele>
        <time>2018-09-06T10:18:06Z</time>
      </trkpt>
      <trkpt lat="46.205076" lon="13.352504">
        <ele>754.774</ele>
        <time>2018-09-06T10:18:07Z</time>
      </trkpt>
      <trkpt lat="46.204867" lon="13.352340">
        <ele>753.355</ele>
        <time>2018-09-06T10:18:11Z</time>
      </trkpt>
      <trkpt lat="46.204827" lon="13.352284">
        <ele>752.375</ele>
        <time>2018-09-06T10:18:12Z</time>
      </trkpt>
      <trkpt lat="46.204800" lon="13.352217">
        <ele>751.878</ele>
        <time>2018-09-06T10:18:13Z</time>
      </trkpt>
      <trkpt lat="46.204786" lon="13.352139">
        <ele>751.462</ele>
        <time>2018-09-06T10:18:14Z</time>
      </trkpt>
      <trkpt lat="46.204791" lon="13.352066">
        <ele>750.439</ele>
        <time>2018-09-06T10:18:15Z</time>
      </trkpt>
      <trkpt lat="46.204817" lon="13.352007">
        <ele>749.901</ele>
        <time>2018-09-06T10:18:16Z</time>
      </trkpt>
      <trkpt lat="46.204858" lon="13.351962">
        <ele>749.421</ele>
        <time>2018-09-06T10:18:17Z</time>
      </trkpt>
      <trkpt lat="46.204903" lon="13.351927">
        <ele>749.008</ele>
        <time>2018-09-06T10:18:18Z</time>
      </trkpt>
      <trkpt lat="46.204948" lon="13.351886">
        <ele>748.097</ele>
        <time>2018-09-06T10:18:19Z</time>
      </trkpt>
      <trkpt lat="46.204991" lon="13.351834">
        <ele>747.569</ele>
        <time>2018-09-06T10:18:20Z</time>
      </trkpt>
      <trkpt lat="46.205030" lon="13.351767">
        <ele>747.045</ele>
        <time>2018-09-06T10:18:21Z</time>
      </trkpt>
      <trkpt lat="46.205057" lon="13.351692">
        <ele>746.621</ele>
        <time>2018-09-06T10:18:22Z</time>
      </trkpt>
      <trkpt lat="46.205075" lon="13.351608">
        <ele>746.142</ele>
        <time>2018-09-06T10:18:23Z</time>
      </trkpt>
      <trkpt lat="46.205090" lon="13.351527">
        <ele>745.662</ele>
        <time>2018-09-06T10:18:24Z</time>
      </trkpt>
      <trkpt lat="46.205109" lon="13.351443">
        <ele>744.635</ele>
        <time>2018-09-06T10:18:25Z</time>
      </trkpt>
      <trkpt lat="46.205143" lon="13.351364">
        <ele>744.229</ele>
        <time>2018-09-06T10:18:26Z</time>
      </trkpt>
      <trkpt lat="46.205193" lon="13.351300">
        <ele>743.719</ele>
        <time>2018-09-06T10:18:27Z</time>
      </trkpt>
      <trkpt lat="46.205258" lon="13.351251">
        <ele>742.709</ele>
        <time>2018-09-06T10:18:28Z</time>
      </trkpt>
      <trkpt lat="46.205325" lon="13.351211">
        <ele>742.219</ele>
        <time>2018-09-06T10:18:29Z</time>
      </trkpt>
      <trkpt lat="46.205664" lon="13.351023">
        <ele>738.908</ele>
        <time>2018-09-06T10:18:34Z</time>
      </trkpt>
      <trkpt lat="46.205709" lon="13.350973">
        <ele>738.445</ele>
        <time>2018-09-06T10:18:35Z</time>
      </trkpt>
      <trkpt lat="46.205742" lon="13.350907">
        <ele>737.977</ele>
        <time>2018-09-06T10:18:36Z</time>
      </trkpt>
      <trkpt lat="46.205753" lon="13.350824">
        <ele>737.993</ele>
        <time>2018-09-06T10:18:37Z</time>
      </trkpt>
      <trkpt lat="46.205741" lon="13.350745">
        <ele>737.479</ele>
        <time>2018-09-06T10:18:38Z</time>
      </trkpt>
      <trkpt lat="46.205707" lon="13.350667">
        <ele>736.990</ele>
        <time>2018-09-06T10:18:39Z</time>
      </trkpt>
      <trkpt lat="46.205661" lon="13.350596">
        <ele>736.580</ele>
        <time>2018-09-06T10:18:40Z</time>
      </trkpt>
      <trkpt lat="46.205610" lon="13.350529">
        <ele>736.063</ele>
        <time>2018-09-06T10:18:41Z</time>
      </trkpt>
      <trkpt lat="46.205029" lon="13.349697">
        <ele>730.727</ele>
        <time>2018-09-06T10:18:52Z</time>
      </trkpt>
      <trkpt lat="46.205003" lon="13.349609">
        <ele>730.214</ele>
        <time>2018-09-06T10:18:53Z</time>
      </trkpt>
      <trkpt lat="46.204994" lon="13.349514">
        <ele>730.254</ele>
        <time>2018-09-06T10:18:54Z</time>
      </trkpt>
      <trkpt lat="46.204996" lon="13.349414">
        <ele>729.709</ele>
        <time>2018-09-06T10:18:55Z</time>
      </trkpt>
      <trkpt lat="46.205003" lon="13.349313">
        <ele>729.308</ele>
        <time>2018-09-06T10:18:56Z</time>
      </trkpt>
      <trkpt lat="46.205023" lon="13.348928">
        <ele>727.875</ele>
        <time>2018-09-06T10:19:00Z</time>
      </trkpt>
      <trkpt lat="46.205008" lon="13.348737">
        <ele>726.477</ele>
        <time>2018-09-06T10:19:02Z</time>
      </trkpt>
      <trkpt lat="46.204968" lon="13.348555">
        <ele>724.943</ele>
        <time>2018-09-06T10:19:04Z</time>
      </trkpt>
      <trkpt lat="46.204741" lon="13.347932">
        <ele>721.619</ele>
        <time>2018-09-06T10:19:11Z</time>
      </trkpt>
      <trkpt lat="46.204716" lon="13.347863">
        <ele>721.190</ele>
        <time>2018-09-06T10:19:12Z</time>
      </trkpt>
      <trkpt lat="46.204707" lon="13.347792">
        <ele>721.160</ele>
        <time>2018-09-06T10:19:13Z</time>
      </trkpt>
      <trkpt lat="46.204707" lon="13.347729">
        <ele>720.673</ele>
        <time>2018-09-06T10:19:14Z</time>
      </trkpt>
      <trkpt lat="46.204708" lon="13.347691">
        <ele>720.657</ele>
        <time>2018-09-06T10:19:15Z</time>
      </trkpt>
      <trkpt lat="46.204711" lon="13.347620">
        <ele>720.116</ele>
        <time>2018-09-06T10:19:19Z</time>
      </trkpt>
      <trkpt lat="46.204716" lon="13.347605">
        <ele>720.176</ele>
        <time>2018-09-06T10:19:20Z</time>
      </trkpt>
      <trkpt lat="46.204725" lon="13.347561">
        <ele>720.113</ele>
        <time>2018-09-06T10:19:34Z</time>
      </trkpt>
      <trkpt lat="46.204730" lon="13.347534">
        <ele>718.708</ele>
        <time>2018-09-06T10:19:47Z</time>
      </trkpt>
      <trkpt lat="46.204724" lon="13.347513">
        <ele>718.725</ele>
        <time>2018-09-06T10:19:48Z</time>
      </trkpt>
      <trkpt lat="46.204717" lon="13.347502">
        <ele>719.257</ele>
        <time>2018-09-06T10:19:49Z</time>
      </trkpt>
      <trkpt lat="46.204658" lon="13.347503">
        <ele>720.143</ele>
        <time>2018-09-06T10:19:54Z</time>
      </trkpt>
      <trkpt lat="46.204625" lon="13.347519">
        <ele>721.159</ele>
        <time>2018-09-06T10:20:09Z</time>
      </trkpt>
      <trkpt lat="46.204638" lon="13.347561">
        <ele>720.610</ele>
        <time>2018-09-06T10:20:21Z</time>
      </trkpt>
      <trkpt lat="46.204770" lon="13.347624">
        <ele>719.650</ele>
        <time>2018-09-06T10:20:31Z</time>
      </trkpt>
      <trkpt lat="46.204912" lon="13.347471">
        <ele>721.183</ele>
        <time>2018-09-06T10:20:41Z</time>
      </trkpt>
      <trkpt lat="46.204930" lon="13.347458">
        <ele>721.157</ele>
        <time>2018-09-06T10:20:42Z</time>
      </trkpt>
      <trkpt lat="46.205235" lon="13.347255">
        <ele>723.033</ele>
        <time>2018-09-06T10:20:58Z</time>
      </trkpt>
      <trkpt lat="46.205719" lon="13.346996">
        <ele>724.023</ele>
        <time>2018-09-06T10:21:20Z</time>
      </trkpt>
      <trkpt lat="46.206031" lon="13.346790">
        <ele>725.915</ele>
        <time>2018-09-06T10:21:38Z</time>
      </trkpt>
      <trkpt lat="46.206078" lon="13.346748">
        <ele>726.408</ele>
        <time>2018-09-06T10:21:53Z</time>
      </trkpt>
      <trkpt lat="46.206108" lon="13.346714">
        <ele>726.497</ele>
        <time>2018-09-06T10:22:07Z</time>
      </trkpt>
      <trkpt lat="46.206112" lon="13.346693">
        <ele>726.479</ele>
        <time>2018-09-06T10:22:08Z</time>
      </trkpt>
      <trkpt lat="46.206118" lon="13.346672">
        <ele>726.455</ele>
        <time>2018-09-06T10:22:09Z</time>
      </trkpt>
      <trkpt lat="46.206131" lon="13.346649">
        <ele>726.421</ele>
        <time>2018-09-06T10:22:10Z</time>
      </trkpt>
      <trkpt lat="46.206148" lon="13.346628">
        <ele>726.422</ele>
        <time>2018-09-06T10:22:11Z</time>
      </trkpt>
      <trkpt lat="46.206166" lon="13.346612">
        <ele>726.872</ele>
        <time>2018-09-06T10:22:12Z</time>
      </trkpt>
      <trkpt lat="46.206188" lon="13.346590">
        <ele>726.855</ele>
        <time>2018-09-06T10:22:13Z</time>
      </trkpt>
      <trkpt lat="46.206207" lon="13.346566">
        <ele>726.899</ele>
        <time>2018-09-06T10:22:14Z</time>
      </trkpt>
      <trkpt lat="46.206527" lon="13.346219">
        <ele>725.475</ele>
        <time>2018-09-06T10:22:25Z</time>
      </trkpt>
      <trkpt lat="46.206559" lon="13.346166">
        <ele>725.428</ele>
        <time>2018-09-06T10:22:26Z</time>
      </trkpt>
      <trkpt lat="46.206594" lon="13.346100">
        <ele>724.920</ele>
        <time>2018-09-06T10:22:27Z</time>
      </trkpt>
      <trkpt lat="46.206624" lon="13.346038">
        <ele>724.408</ele>
        <time>2018-09-06T10:22:28Z</time>
      </trkpt>
      <trkpt lat="46.206650" lon="13.345977">
        <ele>724.481</ele>
        <time>2018-09-06T10:22:29Z</time>
      </trkpt>
      <trkpt lat="46.206677" lon="13.345906">
        <ele>724.473</ele>
        <time>2018-09-06T10:22:30Z</time>
      </trkpt>
      <trkpt lat="46.206700" lon="13.345832">
        <ele>724.469</ele>
        <time>2018-09-06T10:22:31Z</time>
      </trkpt>
      <trkpt lat="46.206710" lon="13.345790">
        <ele>724.425</ele>
        <time>2018-09-06T10:22:32Z</time>
      </trkpt>
      <trkpt lat="46.206719" lon="13.345743">
        <ele>724.946</ele>
        <time>2018-09-06T10:22:33Z</time>
      </trkpt>
      <trkpt lat="46.206723" lon="13.345707">
        <ele>724.986</ele>
        <time>2018-09-06T10:22:34Z</time>
      </trkpt>
      <trkpt lat="46.206726" lon="13.345679">
        <ele>724.959</ele>
        <time>2018-09-06T10:22:35Z</time>
      </trkpt>
      <trkpt lat="46.206731" lon="13.345651">
        <ele>724.943</ele>
        <time>2018-09-06T10:22:36Z</time>
      </trkpt>
      <trkpt lat="46.206782" lon="13.345198">
        <ele>726.816</ele>
        <time>2018-09-06T10:22:51Z</time>
      </trkpt>
      <trkpt lat="46.206900" lon="13.344728">
        <ele>728.376</ele>
        <time>2018-09-06T10:23:06Z</time>
      </trkpt>
      <trkpt lat="46.207067" lon="13.344317">
        <ele>729.713</ele>
        <time>2018-09-06T10:23:21Z</time>
      </trkpt>
      <trkpt lat="46.207013" lon="13.343979">
        <ele>734.108</ele>
        <time>2018-09-06T10:23:32Z</time>
      </trkpt>
      <trkpt lat="46.207018" lon="13.343961">
        <ele>734.175</ele>
        <time>2018-09-06T10:23:33Z</time>
      </trkpt>
      <trkpt lat="46.207022" lon="13.343938">
        <ele>734.157</ele>
        <time>2018-09-06T10:23:34Z</time>
      </trkpt>
      <trkpt lat="46.207025" lon="13.343915">
        <ele>734.513</ele>
        <time>2018-09-06T10:23:35Z</time>
      </trkpt>
      <trkpt lat="46.207025" lon="13.343889">
        <ele>734.529</ele>
        <time>2018-09-06T10:23:36Z</time>
      </trkpt>
      <trkpt lat="46.207022" lon="13.343864">
        <ele>734.510</ele>
        <time>2018-09-06T10:23:37Z</time>
      </trkpt>
      <trkpt lat="46.207017" lon="13.343840">
        <ele>734.540</ele>
        <time>2018-09-06T10:23:38Z</time>
      </trkpt>
      <trkpt lat="46.207012" lon="13.343820">
        <ele>735.043</ele>
        <time>2018-09-06T10:23:39Z</time>
      </trkpt>
      <trkpt lat="46.207006" lon="13.343799">
        <ele>735.037</ele>
        <time>2018-09-06T10:23:40Z</time>
      </trkpt>
      <trkpt lat="46.207002" lon="13.343781">
        <ele>735.061</ele>
        <time>2018-09-06T10:23:41Z</time>
      </trkpt>
      <trkpt lat="46.206998" lon="13.343764">
        <ele>735.521</ele>
        <time>2018-09-06T10:23:42Z</time>
      </trkpt>
      <trkpt lat="46.207009" lon="13.343713">
        <ele>735.513</ele>
        <time>2018-09-06T10:23:48Z</time>
      </trkpt>
      <trkpt lat="46.207016" lon="13.343735">
        <ele>735.008</ele>
        <time>2018-09-06T10:23:49Z</time>
      </trkpt>
      <trkpt lat="46.207019" lon="13.343758">
        <ele>735.040</ele>
        <time>2018-09-06T10:23:50Z</time>
      </trkpt>
      <trkpt lat="46.207019" lon="13.343772">
        <ele>735.072</ele>
        <time>2018-09-06T10:23:51Z</time>
      </trkpt>
      <trkpt lat="46.207020" lon="13.343794">
        <ele>735.088</ele>
        <time>2018-09-06T10:23:52Z</time>
      </trkpt>
      <trkpt lat="46.207017" lon="13.343810">
        <ele>735.074</ele>
        <time>2018-09-06T10:23:53Z</time>
      </trkpt>
      <trkpt lat="46.207012" lon="13.343827">
        <ele>734.595</ele>
        <time>2018-09-06T10:23:54Z</time>
      </trkpt>
      <trkpt lat="46.207013" lon="13.343846">
        <ele>734.525</ele>
        <time>2018-09-06T10:23:55Z</time>
      </trkpt>
      <trkpt lat="46.207017" lon="13.343865">
        <ele>734.558</ele>
        <time>2018-09-06T10:23:56Z</time>
      </trkpt>
      <trkpt lat="46.207021" lon="13.343887">
        <ele>734.522</ele>
        <time>2018-09-06T10:23:57Z</time>
      </trkpt>
      <trkpt lat="46.207028" lon="13.343908">
        <ele>734.136</ele>
        <time>2018-09-06T10:23:58Z</time>
      </trkpt>
      <trkpt lat="46.207032" lon="13.343930">
        <ele>734.117</ele>
        <time>2018-09-06T10:23:59Z</time>
      </trkpt>
      <trkpt lat="46.207035" lon="13.343955">
        <ele>734.118</ele>
        <time>2018-09-06T10:24:00Z</time>
      </trkpt>
      <trkpt lat="46.207036" lon="13.343976">
        <ele>734.108</ele>
        <time>2018-09-06T10:24:01Z</time>
      </trkpt>
      <trkpt lat="46.207030" lon="13.344021">
        <ele>734.157</ele>
        <time>2018-09-06T10:24:03Z</time>
      </trkpt>
      <trkpt lat="46.207013" lon="13.344040">
        <ele>734.149</ele>
        <time>2018-09-06T10:24:04Z</time>
      </trkpt>
      <trkpt lat="46.207000" lon="13.344041">
        <ele>734.145</ele>
        <time>2018-09-06T10:24:05Z</time>
      </trkpt>
      <trkpt lat="46.206964" lon="13.344044">
        <ele>733.671</ele>
        <time>2018-09-06T10:24:07Z</time>
      </trkpt>
      <trkpt lat="46.206943" lon="13.344052">
        <ele>733.662</ele>
        <time>2018-09-06T10:24:08Z</time>
      </trkpt>
      <trkpt lat="46.206758" lon="13.344233">
        <ele>732.662</ele>
        <time>2018-09-06T10:24:19Z</time>
      </trkpt>
      <trkpt lat="46.206741" lon="13.344238">
        <ele>732.635</ele>
        <time>2018-09-06T10:24:27Z</time>
      </trkpt>
      <trkpt lat="46.206759" lon="13.344214">
        <ele>733.129</ele>
        <time>2018-09-06T10:24:29Z</time>
      </trkpt>
      <trkpt lat="46.206775" lon="13.344201">
        <ele>733.153</ele>
        <time>2018-09-06T10:24:30Z</time>
      </trkpt>
      <trkpt lat="46.206785" lon="13.344194">
        <ele>733.104</ele>
        <time>2018-09-06T10:24:31Z</time>
      </trkpt>
      <trkpt lat="46.206923" lon="13.344072">
        <ele>732.614</ele>
        <time>2018-09-06T10:24:39Z</time>
      </trkpt>
      <trkpt lat="46.206943" lon="13.344084">
        <ele>733.108</ele>
        <time>2018-09-06T10:24:40Z</time>
      </trkpt>
      <trkpt lat="46.206960" lon="13.344108">
        <ele>733.179</ele>
        <time>2018-09-06T10:24:41Z</time>
      </trkpt>
      <trkpt lat="46.206969" lon="13.344124">
        <ele>733.151</ele>
        <time>2018-09-06T10:24:42Z</time>
      </trkpt>
      <trkpt lat="46.206983" lon="13.344149">
        <ele>732.647</ele>
        <time>2018-09-06T10:24:43Z</time>
      </trkpt>
      <trkpt lat="46.206972" lon="13.344485">
        <ele>732.663</ele>
        <time>2018-09-06T10:24:56Z</time>
      </trkpt>
      <trkpt lat="46.206942" lon="13.344549">
        <ele>732.614</ele>
        <time>2018-09-06T10:24:59Z</time>
      </trkpt>
      <trkpt lat="46.206920" lon="13.344537">
        <ele>732.674</ele>
        <time>2018-09-06T10:25:00Z</time>
      </trkpt>
      <trkpt lat="46.206913" lon="13.344522">
        <ele>732.617</ele>
        <time>2018-09-06T10:25:01Z</time>
      </trkpt>
      <trkpt lat="46.206906" lon="13.344506">
        <ele>733.161</ele>
        <time>2018-09-06T10:25:02Z</time>
      </trkpt>
      <trkpt lat="46.206899" lon="13.344495">
        <ele>733.192</ele>
        <time>2018-09-06T10:25:03Z</time>
      </trkpt>
      <trkpt lat="46.206879" lon="13.344463">
        <ele>734.173</ele>
        <time>2018-09-06T10:25:15Z</time>
      </trkpt>
      <trkpt lat="46.206843" lon="13.344419">
        <ele>734.120</ele>
        <time>2018-09-06T10:25:37Z</time>
      </trkpt>
      <trkpt lat="46.206823" lon="13.344405">
        <ele>734.108</ele>
        <time>2018-09-06T10:26:04Z</time>
      </trkpt>
      <trkpt lat="46.206818" lon="13.344428">
        <ele>735.573</ele>
        <time>2018-09-06T10:26:28Z</time>
      </trkpt>
      <trkpt lat="46.206814" lon="13.344434">
        <ele>741.385</ele>
        <time>2018-09-06T10:26:58Z</time>
      </trkpt>
      <trkpt lat="46.206843" lon="13.344428">
        <ele>746.111</ele>
        <time>2018-09-06T10:27:30Z</time>
      </trkpt>
      <trkpt lat="46.206861" lon="13.344438">
        <ele>743.217</ele>
        <time>2018-09-06T10:27:55Z</time>
      </trkpt>
      <trkpt lat="46.206867" lon="13.344474">
        <ele>735.518</ele>
        <time>2018-09-06T10:28:28Z</time>
      </trkpt>
      <trkpt lat="46.206863" lon="13.344484">
        <ele>738.978</ele>
        <time>2018-09-06T10:29:07Z</time>
      </trkpt>
      <trkpt lat="46.206857" lon="13.344424">
        <ele>737.961</ele>
        <time>2018-09-06T10:29:34Z</time>
      </trkpt>
      <trkpt lat="46.206847" lon="13.344406">
        <ele>735.025</ele>
        <time>2018-09-06T10:30:01Z</time>
      </trkpt>
      <trkpt lat="46.206840" lon="13.344434">
        <ele>734.165</ele>
        <time>2018-09-06T10:30:25Z</time>
      </trkpt>
      <trkpt lat="46.206854" lon="13.344455">
        <ele>735.068</ele>
        <time>2018-09-06T10:30:50Z</time>
      </trkpt>
      <trkpt lat="46.206845" lon="13.344463">
        <ele>734.514</ele>
        <time>2018-09-06T10:31:12Z</time>
      </trkpt>
      <trkpt lat="46.206873" lon="13.344424">
        <ele>732.108</ele>
        <time>2018-09-06T10:31:34Z</time>
      </trkpt>
      <trkpt lat="46.206846" lon="13.344443">
        <ele>736.520</ele>
        <time>2018-09-06T10:32:04Z</time>
      </trkpt>
      <trkpt lat="46.206844" lon="13.344444">
        <ele>737.492</ele>
        <time>2018-09-06T10:32:33Z</time>
      </trkpt>
      <trkpt lat="46.206847" lon="13.344450">
        <ele>739.358</ele>
        <time>2018-09-06T10:33:01Z</time>
      </trkpt>
      <trkpt lat="46.206837" lon="13.344438">
        <ele>738.994</ele>
        <time>2018-09-06T10:33:26Z</time>
      </trkpt>
      <trkpt lat="46.206824" lon="13.344422">
        <ele>738.995</ele>
        <time>2018-09-06T10:34:02Z</time>
      </trkpt>
      <trkpt lat="46.206853" lon="13.344427">
        <ele>741.365</ele>
        <time>2018-09-06T10:34:30Z</time>
      </trkpt>
      <trkpt lat="46.206881" lon="13.344448">
        <ele>745.648</ele>
        <time>2018-09-06T10:34:52Z</time>
      </trkpt>
      <trkpt lat="46.206806" lon="13.344416">
        <ele>743.722</ele>
        <time>2018-09-06T10:35:27Z</time>
      </trkpt>
      <trkpt lat="46.206813" lon="13.344397">
        <ele>740.866</ele>
        <time>2018-09-06T10:35:49Z</time>
      </trkpt>
      <trkpt lat="46.206802" lon="13.344414">
        <ele>735.529</ele>
        <time>2018-09-06T10:36:26Z</time>
      </trkpt>
      <trkpt lat="46.206814" lon="13.344402">
        <ele>735.021</ele>
        <time>2018-09-06T10:36:29Z</time>
      </trkpt>
      <trkpt lat="46.206826" lon="13.344396">
        <ele>734.508</ele>
        <time>2018-09-06T10:36:30Z</time>
      </trkpt>
      <trkpt lat="46.206841" lon="13.344398">
        <ele>734.570</ele>
        <time>2018-09-06T10:36:31Z</time>
      </trkpt>
      <trkpt lat="46.206861" lon="13.344413">
        <ele>734.162</ele>
        <time>2018-09-06T10:36:32Z</time>
      </trkpt>
      <trkpt lat="46.206876" lon="13.344438">
        <ele>734.148</ele>
        <time>2018-09-06T10:36:33Z</time>
      </trkpt>
      <trkpt lat="46.206891" lon="13.344479">
        <ele>734.164</ele>
        <time>2018-09-06T10:36:34Z</time>
      </trkpt>
      <trkpt lat="46.206892" lon="13.344523">
        <ele>734.115</ele>
        <time>2018-09-06T10:36:35Z</time>
      </trkpt>
      <trkpt lat="46.206893" lon="13.344552">
        <ele>734.515</ele>
        <time>2018-09-06T10:36:36Z</time>
      </trkpt>
      <trkpt lat="46.206886" lon="13.344597">
        <ele>734.518</ele>
        <time>2018-09-06T10:36:37Z</time>
      </trkpt>
      <trkpt lat="46.206873" lon="13.344636">
        <ele>734.172</ele>
        <time>2018-09-06T10:36:38Z</time>
      </trkpt>
      <trkpt lat="46.206855" lon="13.344681">
        <ele>734.138</ele>
        <time>2018-09-06T10:36:39Z</time>
      </trkpt>
      <trkpt lat="46.206718" lon="13.345327">
        <ele>733.170</ele>
        <time>2018-09-06T10:36:52Z</time>
      </trkpt>
      <trkpt lat="46.206681" lon="13.345805">
        <ele>729.717</ele>
        <time>2018-09-06T10:37:00Z</time>
      </trkpt>
      <trkpt lat="46.206661" lon="13.345881">
        <ele>729.308</ele>
        <time>2018-09-06T10:37:01Z</time>
      </trkpt>
      <trkpt lat="46.206634" lon="13.345963">
        <ele>728.887</ele>
        <time>2018-09-06T10:37:02Z</time>
      </trkpt>
      <trkpt lat="46.206575" lon="13.346104">
        <ele>728.819</ele>
        <time>2018-09-06T10:37:04Z</time>
      </trkpt>
      <trkpt lat="46.206543" lon="13.346157">
        <ele>728.845</ele>
        <time>2018-09-06T10:37:05Z</time>
      </trkpt>
      <trkpt lat="46.206290" lon="13.346436">
        <ele>729.361</ele>
        <time>2018-09-06T10:37:15Z</time>
      </trkpt>
      <trkpt lat="46.206090" lon="13.346719">
        <ele>729.362</ele>
        <time>2018-09-06T10:37:26Z</time>
      </trkpt>
      <trkpt lat="46.206103" lon="13.346751">
        <ele>729.342</ele>
        <time>2018-09-06T10:37:27Z</time>
      </trkpt>
      <trkpt lat="46.206120" lon="13.346760">
        <ele>729.755</ele>
        <time>2018-09-06T10:37:28Z</time>
      </trkpt>
      <trkpt lat="46.206133" lon="13.346754">
        <ele>729.779</ele>
        <time>2018-09-06T10:37:29Z</time>
      </trkpt>
      <trkpt lat="46.206150" lon="13.346742">
        <ele>729.757</ele>
        <time>2018-09-06T10:37:30Z</time>
      </trkpt>
      <trkpt lat="46.206169" lon="13.346736">
        <ele>730.200</ele>
        <time>2018-09-06T10:37:31Z</time>
      </trkpt>
      <trkpt lat="46.206188" lon="13.346737">
        <ele>729.720</ele>
        <time>2018-09-06T10:37:32Z</time>
      </trkpt>
      <trkpt lat="46.206209" lon="13.346738">
        <ele>729.708</ele>
        <time>2018-09-06T10:37:33Z</time>
      </trkpt>
      <trkpt lat="46.206229" lon="13.346733">
        <ele>729.759</ele>
        <time>2018-09-06T10:37:34Z</time>
      </trkpt>
      <trkpt lat="46.206249" lon="13.346726">
        <ele>729.721</ele>
        <time>2018-09-06T10:37:35Z</time>
      </trkpt>
      <trkpt lat="46.206270" lon="13.346719">
        <ele>729.747</ele>
        <time>2018-09-06T10:37:36Z</time>
      </trkpt>
      <trkpt lat="46.206289" lon="13.346715">
        <ele>729.783</ele>
        <time>2018-09-06T10:37:37Z</time>
      </trkpt>
      <trkpt lat="46.206532" lon="13.346695">
        <ele>731.284</ele>
        <time>2018-09-06T10:37:52Z</time>
      </trkpt>
      <trkpt lat="46.206599" lon="13.346720">
        <ele>732.184</ele>
        <time>2018-09-06T10:37:57Z</time>
      </trkpt>
      <trkpt lat="46.206745" lon="13.346939">
        <ele>735.067</ele>
        <time>2018-09-06T10:38:14Z</time>
      </trkpt>
      <trkpt lat="46.206800" lon="13.346961">
        <ele>736.051</ele>
        <time>2018-09-06T10:38:19Z</time>
      </trkpt>
      <trkpt lat="46.206920" lon="13.346757">
        <ele>736.992</ele>
        <time>2018-09-06T10:38:34Z</time>
      </trkpt>
      <trkpt lat="46.206984" lon="13.346377">
        <ele>738.473</ele>
        <time>2018-09-06T10:38:53Z</time>
      </trkpt>
      <trkpt lat="46.207042" lon="13.346001">
        <ele>739.820</ele>
        <time>2018-09-06T10:39:10Z</time>
      </trkpt>
      <trkpt lat="46.207148" lon="13.345653">
        <ele>740.308</ele>
        <time>2018-09-06T10:39:26Z</time>
      </trkpt>
      <trkpt lat="46.207256" lon="13.345354">
        <ele>741.323</ele>
        <time>2018-09-06T10:39:40Z</time>
      </trkpt>
      <trkpt lat="46.207410" lon="13.345042">
        <ele>742.215</ele>
        <time>2018-09-06T10:39:56Z</time>
      </trkpt>
      <trkpt lat="46.207597" lon="13.344855">
        <ele>746.111</ele>
        <time>2018-09-06T10:40:12Z</time>
      </trkpt>
      <trkpt lat="46.207641" lon="13.344524">
        <ele>748.527</ele>
        <time>2018-09-06T10:40:27Z</time>
      </trkpt>
      <trkpt lat="46.207709" lon="13.344122">
        <ele>749.058</ele>
        <time>2018-09-06T10:40:44Z</time>
      </trkpt>
      <trkpt lat="46.207861" lon="13.343763">
        <ele>749.068</ele>
        <time>2018-09-06T10:40:58Z</time>
      </trkpt>
      <trkpt lat="46.208043" lon="13.343552">
        <ele>751.441</ele>
        <time>2018-09-06T10:41:13Z</time>
      </trkpt>
      <trkpt lat="46.208243" lon="13.343361">
        <ele>757.145</ele>
        <time>2018-09-06T10:41:28Z</time>
      </trkpt>
      <trkpt lat="46.208270" lon="13.343344">
        <ele>757.172</ele>
        <time>2018-09-06T10:41:31Z</time>
      </trkpt>
      <trkpt lat="46.208389" lon="13.343307">
        <ele>757.613</ele>
        <time>2018-09-06T10:41:40Z</time>
      </trkpt>
      <trkpt lat="46.208405" lon="13.343311">
        <ele>758.114</ele>
        <time>2018-09-06T10:41:41Z</time>
      </trkpt>
      <trkpt lat="46.208491" lon="13.343374">
        <ele>758.108</ele>
        <time>2018-09-06T10:41:47Z</time>
      </trkpt>
      <trkpt lat="46.208511" lon="13.343422">
        <ele>757.681</ele>
        <time>2018-09-06T10:41:50Z</time>
      </trkpt>
      <trkpt lat="46.208515" lon="13.343441">
        <ele>757.633</ele>
        <time>2018-09-06T10:41:51Z</time>
      </trkpt>
      <trkpt lat="46.208525" lon="13.343643">
        <ele>757.689</ele>
        <time>2018-09-06T10:42:02Z</time>
      </trkpt>
      <trkpt lat="46.208513" lon="13.343861">
        <ele>759.565</ele>
        <time>2018-09-06T10:42:14Z</time>
      </trkpt>
      <trkpt lat="46.208447" lon="13.344146">
        <ele>761.986</ele>
        <time>2018-09-06T10:42:28Z</time>
      </trkpt>
      <trkpt lat="46.208495" lon="13.344361">
        <ele>769.126</ele>
        <time>2018-09-06T10:42:42Z</time>
      </trkpt>
      <trkpt lat="46.208554" lon="13.344389">
        <ele>774.069</ele>
        <time>2018-09-06T10:42:48Z</time>
      </trkpt>
      <trkpt lat="46.208682" lon="13.344407">
        <ele>776.813</ele>
        <time>2018-09-06T10:42:59Z</time>
      </trkpt>
      <trkpt lat="46.208822" lon="13.344365">
        <ele>781.262</ele>
        <time>2018-09-06T10:43:12Z</time>
      </trkpt>
      <trkpt lat="46.208861" lon="13.344359">
        <ele>781.683</ele>
        <time>2018-09-06T10:43:15Z</time>
      </trkpt>
      <trkpt lat="46.209005" lon="13.344308">
        <ele>787.411</ele>
        <time>2018-09-06T10:43:28Z</time>
      </trkpt>
      <trkpt lat="46.209180" lon="13.344316">
        <ele>793.708</ele>
        <time>2018-09-06T10:43:42Z</time>
      </trkpt>
      <trkpt lat="46.209312" lon="13.344279">
        <ele>798.030</ele>
        <time>2018-09-06T10:43:55Z</time>
      </trkpt>
      <trkpt lat="46.209323" lon="13.344266">
        <ele>798.572</ele>
        <time>2018-09-06T10:43:56Z</time>
      </trkpt>
      <trkpt lat="46.209336" lon="13.344256">
        <ele>798.548</ele>
        <time>2018-09-06T10:43:57Z</time>
      </trkpt>
      <trkpt lat="46.209347" lon="13.344247">
        <ele>798.964</ele>
        <time>2018-09-06T10:43:58Z</time>
      </trkpt>
      <trkpt lat="46.209378" lon="13.344223">
        <ele>798.555</ele>
        <time>2018-09-06T10:44:01Z</time>
      </trkpt>
      <trkpt lat="46.209409" lon="13.344181">
        <ele>798.565</ele>
        <time>2018-09-06T10:44:04Z</time>
      </trkpt>
      <trkpt lat="46.209419" lon="13.344172">
        <ele>798.568</ele>
        <time>2018-09-06T10:44:05Z</time>
      </trkpt>
      <trkpt lat="46.209565" lon="13.344017">
        <ele>798.962</ele>
        <time>2018-09-06T10:44:20Z</time>
      </trkpt>
      <trkpt lat="46.209683" lon="13.343811">
        <ele>797.532</ele>
        <time>2018-09-06T10:44:34Z</time>
      </trkpt>
      <trkpt lat="46.209722" lon="13.343714">
        <ele>796.592</ele>
        <time>2018-09-06T10:44:40Z</time>
      </trkpt>
      <trkpt lat="46.209731" lon="13.343701">
        <ele>796.511</ele>
        <time>2018-09-06T10:44:41Z</time>
      </trkpt>
      <trkpt lat="46.209739" lon="13.343687">
        <ele>796.108</ele>
        <time>2018-09-06T10:44:42Z</time>
      </trkpt>
      <trkpt lat="46.209846" lon="13.343473">
        <ele>795.617</ele>
        <time>2018-09-06T10:44:56Z</time>
      </trkpt>
      <trkpt lat="46.209851" lon="13.343453">
        <ele>795.629</ele>
        <time>2018-09-06T10:44:57Z</time>
      </trkpt>
      <trkpt lat="46.209858" lon="13.343435">
        <ele>795.645</ele>
        <time>2018-09-06T10:44:58Z</time>
      </trkpt>
      <trkpt lat="46.209917" lon="13.343290">
        <ele>796.531</ele>
        <time>2018-09-06T10:45:06Z</time>
      </trkpt>
      <trkpt lat="46.210027" lon="13.342986">
        <ele>798.052</ele>
        <time>2018-09-06T10:45:22Z</time>
      </trkpt>
      <trkpt lat="46.210086" lon="13.342867">
        <ele>798.592</ele>
        <time>2018-09-06T10:45:29Z</time>
      </trkpt>
      <trkpt lat="46.210203" lon="13.342564">
        <ele>800.495</ele>
        <time>2018-09-06T10:45:45Z</time>
      </trkpt>
      <trkpt lat="46.210209" lon="13.342544">
        <ele>800.969</ele>
        <time>2018-09-06T10:45:46Z</time>
      </trkpt>
      <trkpt lat="46.210211" lon="13.342480">
        <ele>801.878</ele>
        <time>2018-09-06T10:45:49Z</time>
      </trkpt>
      <trkpt lat="46.210206" lon="13.342455">
        <ele>802.833</ele>
        <time>2018-09-06T10:45:50Z</time>
      </trkpt>
      <trkpt lat="46.210209" lon="13.342436">
        <ele>803.326</ele>
        <time>2018-09-06T10:45:51Z</time>
      </trkpt>
      <trkpt lat="46.210214" lon="13.342415">
        <ele>803.808</ele>
        <time>2018-09-06T10:45:52Z</time>
      </trkpt>
      <trkpt lat="46.210217" lon="13.342392">
        <ele>804.281</ele>
        <time>2018-09-06T10:45:53Z</time>
      </trkpt>
      <trkpt lat="46.210220" lon="13.342371">
        <ele>804.783</ele>
        <time>2018-09-06T10:45:54Z</time>
      </trkpt>
      <trkpt lat="46.210315" lon="13.342094">
        <ele>807.169</ele>
        <time>2018-09-06T10:46:08Z</time>
      </trkpt>
      <trkpt lat="46.210385" lon="13.341777">
        <ele>808.195</ele>
        <time>2018-09-06T10:46:22Z</time>
      </trkpt>
      <trkpt lat="46.210373" lon="13.341675">
        <ele>809.566</ele>
        <time>2018-09-06T10:46:27Z</time>
      </trkpt>
      <trkpt lat="46.210375" lon="13.341657">
        <ele>809.586</ele>
        <time>2018-09-06T10:46:28Z</time>
      </trkpt>
      <trkpt lat="46.210377" lon="13.341640">
        <ele>809.589</ele>
        <time>2018-09-06T10:46:29Z</time>
      </trkpt>
      <trkpt lat="46.210346" lon="13.341348">
        <ele>812.433</ele>
        <time>2018-09-06T10:46:44Z</time>
      </trkpt>
      <trkpt lat="46.210339" lon="13.341223">
        <ele>813.444</ele>
        <time>2018-09-06T10:46:53Z</time>
      </trkpt>
      <trkpt lat="46.210337" lon="13.341203">
        <ele>813.405</ele>
        <time>2018-09-06T10:46:54Z</time>
      </trkpt>
      <trkpt lat="46.210336" lon="13.341179">
        <ele>813.815</ele>
        <time>2018-09-06T10:46:55Z</time>
      </trkpt>
      <trkpt lat="46.210355" lon="13.340926">
        <ele>814.808</ele>
        <time>2018-09-06T10:47:07Z</time>
      </trkpt>
      <trkpt lat="46.210397" lon="13.340703">
        <ele>817.228</ele>
        <time>2018-09-06T10:47:19Z</time>
      </trkpt>
      <trkpt lat="46.210403" lon="13.340578">
        <ele>819.130</ele>
        <time>2018-09-06T10:47:25Z</time>
      </trkpt>
      <trkpt lat="46.210409" lon="13.340556">
        <ele>819.186</ele>
        <time>2018-09-06T10:47:26Z</time>
      </trkpt>
      <trkpt lat="46.210417" lon="13.340532">
        <ele>819.172</ele>
        <time>2018-09-06T10:47:27Z</time>
      </trkpt>
      <trkpt lat="46.210427" lon="13.340511">
        <ele>818.753</ele>
        <time>2018-09-06T10:47:28Z</time>
      </trkpt>
      <trkpt lat="46.210438" lon="13.340490">
        <ele>818.733</ele>
        <time>2018-09-06T10:47:29Z</time>
      </trkpt>
      <trkpt lat="46.210447" lon="13.340467">
        <ele>818.236</ele>
        <time>2018-09-06T10:47:30Z</time>
      </trkpt>
      <trkpt lat="46.210456" lon="13.340447">
        <ele>818.230</ele>
        <time>2018-09-06T10:47:31Z</time>
      </trkpt>
      <trkpt lat="46.210461" lon="13.340427">
        <ele>818.222</ele>
        <time>2018-09-06T10:47:32Z</time>
      </trkpt>
      <trkpt lat="46.210519" lon="13.340285">
        <ele>818.262</ele>
        <time>2018-09-06T10:47:40Z</time>
      </trkpt>
      <trkpt lat="46.210528" lon="13.340269">
        <ele>818.208</ele>
        <time>2018-09-06T10:47:41Z</time>
      </trkpt>
      <trkpt lat="46.210634" lon="13.340172">
        <ele>822.508</ele>
        <time>2018-09-06T10:47:56Z</time>
      </trkpt>
      <trkpt lat="46.210671" lon="13.340303">
        <ele>823.556</ele>
        <time>2018-09-06T10:48:08Z</time>
      </trkpt>
      <trkpt lat="46.210662" lon="13.340482">
        <ele>823.998</ele>
        <time>2018-09-06T10:48:21Z</time>
      </trkpt>
      <trkpt lat="46.210649" lon="13.340669">
        <ele>825.494</ele>
        <time>2018-09-06T10:48:34Z</time>
      </trkpt>
      <trkpt lat="46.210640" lon="13.340713">
        <ele>824.420</ele>
        <time>2018-09-06T10:48:51Z</time>
      </trkpt>
      <trkpt lat="46.210654" lon="13.340728">
        <ele>823.081</ele>
        <time>2018-09-06T10:49:28Z</time>
      </trkpt>
      <trkpt lat="46.210687" lon="13.340734">
        <ele>823.551</ele>
        <time>2018-09-06T10:49:35Z</time>
      </trkpt>
      <trkpt lat="46.210867" lon="13.340583">
        <ele>827.824</ele>
        <time>2018-09-06T10:49:48Z</time>
      </trkpt>
      <trkpt lat="46.211076" lon="13.340271">
        <ele>831.218</ele>
        <time>2018-09-06T10:50:03Z</time>
      </trkpt>
      <trkpt lat="46.211226" lon="13.339974">
        <ele>834.068</ele>
        <time>2018-09-06T10:50:17Z</time>
      </trkpt>
      <trkpt lat="46.211234" lon="13.339957">
        <ele>834.042</ele>
        <time>2018-09-06T10:50:18Z</time>
      </trkpt>
      <trkpt lat="46.211361" lon="13.339681">
        <ele>835.026</ele>
        <time>2018-09-06T10:50:34Z</time>
      </trkpt>
      <trkpt lat="46.211397" lon="13.339331">
        <ele>837.408</ele>
        <time>2018-09-06T10:50:49Z</time>
      </trkpt>
      <trkpt lat="46.211399" lon="13.339307">
        <ele>837.450</ele>
        <time>2018-09-06T10:50:50Z</time>
      </trkpt>
      <trkpt lat="46.211407" lon="13.339283">
        <ele>837.952</ele>
        <time>2018-09-06T10:50:51Z</time>
      </trkpt>
      <trkpt lat="46.211414" lon="13.339255">
        <ele>838.498</ele>
        <time>2018-09-06T10:50:52Z</time>
      </trkpt>
      <trkpt lat="46.211423" lon="13.339227">
        <ele>838.414</ele>
        <time>2018-09-06T10:50:53Z</time>
      </trkpt>
      <trkpt lat="46.211430" lon="13.339202">
        <ele>838.445</ele>
        <time>2018-09-06T10:50:54Z</time>
      </trkpt>
      <trkpt lat="46.211436" lon="13.339182">
        <ele>838.475</ele>
        <time>2018-09-06T10:50:55Z</time>
      </trkpt>
      <trkpt lat="46.211445" lon="13.339162">
        <ele>838.428</ele>
        <time>2018-09-06T10:50:56Z</time>
      </trkpt>
      <trkpt lat="46.211453" lon="13.339145">
        <ele>838.862</ele>
        <time>2018-09-06T10:50:57Z</time>
      </trkpt>
      <trkpt lat="46.211461" lon="13.339126">
        <ele>838.848</ele>
        <time>2018-09-06T10:50:58Z</time>
      </trkpt>
      <trkpt lat="46.211466" lon="13.339105">
        <ele>838.861</ele>
        <time>2018-09-06T10:50:59Z</time>
      </trkpt>
      <trkpt lat="46.211472" lon="13.339086">
        <ele>838.817</ele>
        <time>2018-09-06T10:51:00Z</time>
      </trkpt>
      <trkpt lat="46.211481" lon="13.339067">
        <ele>838.808</ele>
        <time>2018-09-06T10:51:01Z</time>
      </trkpt>
      <trkpt lat="46.211489" lon="13.339044">
        <ele>838.898</ele>
        <time>2018-09-06T10:51:02Z</time>
      </trkpt>
      <trkpt lat="46.211497" lon="13.339020">
        <ele>838.860</ele>
        <time>2018-09-06T10:51:03Z</time>
      </trkpt>
      <trkpt lat="46.211508" lon="13.338971">
        <ele>838.856</ele>
        <time>2018-09-06T10:51:05Z</time>
      </trkpt>
      <trkpt lat="46.211509" lon="13.338947">
        <ele>838.882</ele>
        <time>2018-09-06T10:51:06Z</time>
      </trkpt>
      <trkpt lat="46.211512" lon="13.338924">
        <ele>838.853</ele>
        <time>2018-09-06T10:51:07Z</time>
      </trkpt>
      <trkpt lat="46.211516" lon="13.338900">
        <ele>838.833</ele>
        <time>2018-09-06T10:51:08Z</time>
      </trkpt>
      <trkpt lat="46.211519" lon="13.338877">
        <ele>838.866</ele>
        <time>2018-09-06T10:51:09Z</time>
      </trkpt>
      <trkpt lat="46.211521" lon="13.338852">
        <ele>839.320</ele>
        <time>2018-09-06T10:51:10Z</time>
      </trkpt>
      <trkpt lat="46.211521" lon="13.338824">
        <ele>839.379</ele>
        <time>2018-09-06T10:51:11Z</time>
      </trkpt>
      <trkpt lat="46.211557" lon="13.338592">
        <ele>840.805</ele>
        <time>2018-09-06T10:51:20Z</time>
      </trkpt>
      <trkpt lat="46.211574" lon="13.338578">
        <ele>840.325</ele>
        <time>2018-09-06T10:51:21Z</time>
      </trkpt>
      <trkpt lat="46.211594" lon="13.338567">
        <ele>839.808</ele>
        <time>2018-09-06T10:51:22Z</time>
      </trkpt>
      <trkpt lat="46.211613" lon="13.338560">
        <ele>839.891</ele>
        <time>2018-09-06T10:51:23Z</time>
      </trkpt>
      <trkpt lat="46.211628" lon="13.338568">
        <ele>839.833</ele>
        <time>2018-09-06T10:51:24Z</time>
      </trkpt>
      <trkpt lat="46.211639" lon="13.338588">
        <ele>839.319</ele>
        <time>2018-09-06T10:51:25Z</time>
      </trkpt>
      <trkpt lat="46.211649" lon="13.338611">
        <ele>838.875</ele>
        <time>2018-09-06T10:51:26Z</time>
      </trkpt>
      <trkpt lat="46.211661" lon="13.338629">
        <ele>838.836</ele>
        <time>2018-09-06T10:51:27Z</time>
      </trkpt>
      <trkpt lat="46.211677" lon="13.338658">
        <ele>838.496</ele>
        <time>2018-09-06T10:51:28Z</time>
      </trkpt>
      <trkpt lat="46.211688" lon="13.338690">
        <ele>838.469</ele>
        <time>2018-09-06T10:51:29Z</time>
      </trkpt>
      <trkpt lat="46.211697" lon="13.338721">
        <ele>837.913</ele>
        <time>2018-09-06T10:51:30Z</time>
      </trkpt>
      <trkpt lat="46.211706" lon="13.338754">
        <ele>837.497</ele>
        <time>2018-09-06T10:51:31Z</time>
      </trkpt>
      <trkpt lat="46.211718" lon="13.338786">
        <ele>837.423</ele>
        <time>2018-09-06T10:51:32Z</time>
      </trkpt>
      <trkpt lat="46.211873" lon="13.339110">
        <ele>835.025</ele>
        <time>2018-09-06T10:51:46Z</time>
      </trkpt>
      <trkpt lat="46.211953" lon="13.339436">
        <ele>834.008</ele>
        <time>2018-09-06T10:52:00Z</time>
      </trkpt>
      <trkpt lat="46.211904" lon="13.339649">
        <ele>835.053</ele>
        <time>2018-09-06T10:52:07Z</time>
      </trkpt>
      <trkpt lat="46.211894" lon="13.339675">
        <ele>835.565</ele>
        <time>2018-09-06T10:52:08Z</time>
      </trkpt>
      <trkpt lat="46.211885" lon="13.339706">
        <ele>836.051</ele>
        <time>2018-09-06T10:52:09Z</time>
      </trkpt>
      <trkpt lat="46.211877" lon="13.339737">
        <ele>836.097</ele>
        <time>2018-09-06T10:52:10Z</time>
      </trkpt>
      <trkpt lat="46.211867" lon="13.339769">
        <ele>836.448</ele>
        <time>2018-09-06T10:52:11Z</time>
      </trkpt>
      <trkpt lat="46.211799" lon="13.340244">
        <ele>841.798</ele>
        <time>2018-09-06T10:52:25Z</time>
      </trkpt>
      <trkpt lat="46.211887" lon="13.340592">
        <ele>843.631</ele>
        <time>2018-09-06T10:52:36Z</time>
      </trkpt>
      <trkpt lat="46.212025" lon="13.340873">
        <ele>842.285</ele>
        <time>2018-09-06T10:52:47Z</time>
      </trkpt>
      <trkpt lat="46.212208" lon="13.341137">
        <ele>840.322</ele>
        <time>2018-09-06T10:52:56Z</time>
      </trkpt>
      <trkpt lat="46.212334" lon="13.341216">
        <ele>840.362</ele>
        <time>2018-09-06T10:52:59Z</time>
      </trkpt>
      <trkpt lat="46.212375" lon="13.341256">
        <ele>840.308</ele>
        <time>2018-09-06T10:53:00Z</time>
      </trkpt>
      <trkpt lat="46.212417" lon="13.341308">
        <ele>840.308</ele>
        <time>2018-09-06T10:53:01Z</time>
      </trkpt>
      <trkpt lat="46.212450" lon="13.341369">
        <ele>839.816</ele>
        <time>2018-09-06T10:53:02Z</time>
      </trkpt>
      <trkpt lat="46.212476" lon="13.341447">
        <ele>839.388</ele>
        <time>2018-09-06T10:53:03Z</time>
      </trkpt>
      <trkpt lat="46.212497" lon="13.341526">
        <ele>838.464</ele>
        <time>2018-09-06T10:53:04Z</time>
      </trkpt>
      <trkpt lat="46.212522" lon="13.341597">
        <ele>838.470</ele>
        <time>2018-09-06T10:53:05Z</time>
      </trkpt>
      <trkpt lat="46.212555" lon="13.341658">
        <ele>837.911</ele>
        <time>2018-09-06T10:53:06Z</time>
      </trkpt>
      <trkpt lat="46.212594" lon="13.341708">
        <ele>836.911</ele>
        <time>2018-09-06T10:53:07Z</time>
      </trkpt>
      <trkpt lat="46.212639" lon="13.341749">
        <ele>836.474</ele>
        <time>2018-09-06T10:53:08Z</time>
      </trkpt>
      <trkpt lat="46.212692" lon="13.341784">
        <ele>836.448</ele>
        <time>2018-09-06T10:53:09Z</time>
      </trkpt>
      <trkpt lat="46.212748" lon="13.341812">
        <ele>836.015</ele>
        <time>2018-09-06T10:53:10Z</time>
      </trkpt>
      <trkpt lat="46.212796" lon="13.341847">
        <ele>836.065</ele>
        <time>2018-09-06T10:53:11Z</time>
      </trkpt>
      <trkpt lat="46.212827" lon="13.341903">
        <ele>835.011</ele>
        <time>2018-09-06T10:53:12Z</time>
      </trkpt>
      <trkpt lat="46.212832" lon="13.341977">
        <ele>834.508</ele>
        <time>2018-09-06T10:53:13Z</time>
      </trkpt>
      <trkpt lat="46.212816" lon="13.342055">
        <ele>833.655</ele>
        <time>2018-09-06T10:53:14Z</time>
      </trkpt>
      <trkpt lat="46.212792" lon="13.342129">
        <ele>832.637</ele>
        <time>2018-09-06T10:53:15Z</time>
      </trkpt>
      <trkpt lat="46.212701" lon="13.342394">
        <ele>829.743</ele>
        <time>2018-09-06T10:53:18Z</time>
      </trkpt>
      <trkpt lat="46.212641" lon="13.342673">
        <ele>827.319</ele>
        <time>2018-09-06T10:53:21Z</time>
      </trkpt>
      <trkpt lat="46.212641" lon="13.342759">
        <ele>826.810</ele>
        <time>2018-09-06T10:53:22Z</time>
      </trkpt>
      <trkpt lat="46.212656" lon="13.342849">
        <ele>825.460</ele>
        <time>2018-09-06T10:53:23Z</time>
      </trkpt>
      <trkpt lat="46.212709" lon="13.343017">
        <ele>823.573</ele>
        <time>2018-09-06T10:53:25Z</time>
      </trkpt>
      <trkpt lat="46.212857" lon="13.343347">
        <ele>820.627</ele>
        <time>2018-09-06T10:53:29Z</time>
      </trkpt>
      <trkpt lat="46.212892" lon="13.343425">
        <ele>820.124</ele>
        <time>2018-09-06T10:53:30Z</time>
      </trkpt>
      <trkpt lat="46.213006" lon="13.343624">
        <ele>819.104</ele>
        <time>2018-09-06T10:53:33Z</time>
      </trkpt>
      <trkpt lat="46.213211" lon="13.343894">
        <ele>819.614</ele>
        <time>2018-09-06T10:53:42Z</time>
      </trkpt>
      <trkpt lat="46.213255" lon="13.343947">
        <ele>820.108</ele>
        <time>2018-09-06T10:53:45Z</time>
      </trkpt>
      <trkpt lat="46.213268" lon="13.343965">
        <ele>820.196</ele>
        <time>2018-09-06T10:53:46Z</time>
      </trkpt>
      <trkpt lat="46.213285" lon="13.343981">
        <ele>820.648</ele>
        <time>2018-09-06T10:53:47Z</time>
      </trkpt>
      <trkpt lat="46.213506" lon="13.344129">
        <ele>823.544</ele>
        <time>2018-09-06T10:54:00Z</time>
      </trkpt>
      <trkpt lat="46.213739" lon="13.344150">
        <ele>827.810</ele>
        <time>2018-09-06T10:54:14Z</time>
      </trkpt>
      <trkpt lat="46.213960" lon="13.344093">
        <ele>832.131</ele>
        <time>2018-09-06T10:54:30Z</time>
      </trkpt>
      <trkpt lat="46.214224" lon="13.344099">
        <ele>835.541</ele>
        <time>2018-09-06T10:54:46Z</time>
      </trkpt>
      <trkpt lat="46.214374" lon="13.344142">
        <ele>835.014</ele>
        <time>2018-09-06T10:54:55Z</time>
      </trkpt>
      <trkpt lat="46.214389" lon="13.344163">
        <ele>835.058</ele>
        <time>2018-09-06T10:54:56Z</time>
      </trkpt>
      <trkpt lat="46.214457" lon="13.344288">
        <ele>832.614</ele>
        <time>2018-09-06T10:55:02Z</time>
      </trkpt>
      <trkpt lat="46.214488" lon="13.344354">
        <ele>831.254</ele>
        <time>2018-09-06T10:55:06Z</time>
      </trkpt>
      <trkpt lat="46.214500" lon="13.344366">
        <ele>831.209</ele>
        <time>2018-09-06T10:55:07Z</time>
      </trkpt>
      <trkpt lat="46.214513" lon="13.344383">
        <ele>830.708</ele>
        <time>2018-09-06T10:55:08Z</time>
      </trkpt>
      <trkpt lat="46.214526" lon="13.344401">
        <ele>830.225</ele>
        <time>2018-09-06T10:55:09Z</time>
      </trkpt>
      <trkpt lat="46.214539" lon="13.344421">
        <ele>829.747</ele>
        <time>2018-09-06T10:55:10Z</time>
      </trkpt>
      <trkpt lat="46.214549" lon="13.344443">
        <ele>829.213</ele>
        <time>2018-09-06T10:55:11Z</time>
      </trkpt>
      <trkpt lat="46.214560" lon="13.344465">
        <ele>829.299</ele>
        <time>2018-09-06T10:55:12Z</time>
      </trkpt>
      <trkpt lat="46.214582" lon="13.344508">
        <ele>828.340</ele>
        <time>2018-09-06T10:55:14Z</time>
      </trkpt>
      <trkpt lat="46.214591" lon="13.344528">
        <ele>828.330</ele>
        <time>2018-09-06T10:55:15Z</time>
      </trkpt>
      <trkpt lat="46.214708" lon="13.344858">
        <ele>825.933</ele>
        <time>2018-09-06T10:55:31Z</time>
      </trkpt>
      <trkpt lat="46.214828" lon="13.345242">
        <ele>826.897</ele>
        <time>2018-09-06T10:55:50Z</time>
      </trkpt>
      <trkpt lat="46.214987" lon="13.345469">
        <ele>830.243</ele>
        <time>2018-09-06T10:56:04Z</time>
      </trkpt>
      <trkpt lat="46.215181" lon="13.345949">
        <ele>828.364</ele>
        <time>2018-09-06T10:56:15Z</time>
      </trkpt>
      <trkpt lat="46.215174" lon="13.346145">
        <ele>826.810</ele>
        <time>2018-09-06T10:56:18Z</time>
      </trkpt>
      <trkpt lat="46.215162" lon="13.346209">
        <ele>826.308</ele>
        <time>2018-09-06T10:56:19Z</time>
      </trkpt>
      <trkpt lat="46.215142" lon="13.346274">
        <ele>825.968</ele>
        <time>2018-09-06T10:56:20Z</time>
      </trkpt>
      <trkpt lat="46.215008" lon="13.346599">
        <ele>824.410</ele>
        <time>2018-09-06T10:56:25Z</time>
      </trkpt>
      <trkpt lat="46.214994" lon="13.346658">
        <ele>824.486</ele>
        <time>2018-09-06T10:56:26Z</time>
      </trkpt>
      <trkpt lat="46.214985" lon="13.346717">
        <ele>824.452</ele>
        <time>2018-09-06T10:56:27Z</time>
      </trkpt>
      <trkpt lat="46.214981" lon="13.346768">
        <ele>824.453</ele>
        <time>2018-09-06T10:56:28Z</time>
      </trkpt>
      <trkpt lat="46.214984" lon="13.346809">
        <ele>824.933</ele>
        <time>2018-09-06T10:56:29Z</time>
      </trkpt>
      <trkpt lat="46.214986" lon="13.346840">
        <ele>824.926</ele>
        <time>2018-09-06T10:56:30Z</time>
      </trkpt>
      <trkpt lat="46.214986" lon="13.346871">
        <ele>824.940</ele>
        <time>2018-09-06T10:56:31Z</time>
      </trkpt>
      <trkpt lat="46.214976" lon="13.347242">
        <ele>823.968</ele>
        <time>2018-09-06T10:56:45Z</time>
      </trkpt>
      <trkpt lat="46.214982" lon="13.347287">
        <ele>823.942</ele>
        <time>2018-09-06T10:56:47Z</time>
      </trkpt>
      <trkpt lat="46.214975" lon="13.347308">
        <ele>824.926</ele>
        <time>2018-09-06T10:56:59Z</time>
      </trkpt>
      <trkpt lat="46.215016" lon="13.347502">
        <ele>825.908</ele>
        <time>2018-09-06T10:57:12Z</time>
      </trkpt>
      <trkpt lat="46.215071" lon="13.347843">
        <ele>823.920</ele>
        <time>2018-09-06T10:57:28Z</time>
      </trkpt>
      <trkpt lat="46.215069" lon="13.347861">
        <ele>823.562</ele>
        <time>2018-09-06T10:57:29Z</time>
      </trkpt>
      <trkpt lat="46.215066" lon="13.347880">
        <ele>823.058</ele>
        <time>2018-09-06T10:57:30Z</time>
      </trkpt>
      <trkpt lat="46.215067" lon="13.347902">
        <ele>822.534</ele>
        <time>2018-09-06T10:57:31Z</time>
      </trkpt>
      <trkpt lat="46.215070" lon="13.347924">
        <ele>822.025</ele>
        <time>2018-09-06T10:57:32Z</time>
      </trkpt>
      <trkpt lat="46.215074" lon="13.347947">
        <ele>822.015</ele>
        <time>2018-09-06T10:57:33Z</time>
      </trkpt>
      <trkpt lat="46.215087" lon="13.348003">
        <ele>821.568</ele>
        <time>2018-09-06T10:57:36Z</time>
      </trkpt>
      <trkpt lat="46.215096" lon="13.348022">
        <ele>821.542</ele>
        <time>2018-09-06T10:57:37Z</time>
      </trkpt>
      <trkpt lat="46.215104" lon="13.348042">
        <ele>822.066</ele>
        <time>2018-09-06T10:57:38Z</time>
      </trkpt>
      <trkpt lat="46.215177" lon="13.348174">
        <ele>823.929</ele>
        <time>2018-09-06T10:57:46Z</time>
      </trkpt>
      <trkpt lat="46.215189" lon="13.348189">
        <ele>823.921</ele>
        <time>2018-09-06T10:57:47Z</time>
      </trkpt>
      <trkpt lat="46.215321" lon="13.348384">
        <ele>829.708</ele>
        <time>2018-09-06T10:58:02Z</time>
      </trkpt>
      <trkpt lat="46.215339" lon="13.348415">
        <ele>830.220</ele>
        <time>2018-09-06T10:58:04Z</time>
      </trkpt>
      <trkpt lat="46.215456" lon="13.348575">
        <ele>833.192</ele>
        <time>2018-09-06T10:58:16Z</time>
      </trkpt>
      <trkpt lat="46.215554" lon="13.348676">
        <ele>838.888</ele>
        <time>2018-09-06T10:58:26Z</time>
      </trkpt>
      <trkpt lat="46.215699" lon="13.348736">
        <ele>845.184</ele>
        <time>2018-09-06T10:58:39Z</time>
      </trkpt>
      <trkpt lat="46.215714" lon="13.348762">
        <ele>844.655</ele>
        <time>2018-09-06T10:58:41Z</time>
      </trkpt>
      <trkpt lat="46.215746" lon="13.348927">
        <ele>843.255</ele>
        <time>2018-09-06T10:58:51Z</time>
      </trkpt>
      <trkpt lat="46.215729" lon="13.349002">
        <ele>841.768</ele>
        <time>2018-09-06T10:58:55Z</time>
      </trkpt>
      <trkpt lat="46.215724" lon="13.349092">
        <ele>840.362</ele>
        <time>2018-09-06T10:59:00Z</time>
      </trkpt>
      <trkpt lat="46.215720" lon="13.349109">
        <ele>840.396</ele>
        <time>2018-09-06T10:59:01Z</time>
      </trkpt>
      <trkpt lat="46.215717" lon="13.349124">
        <ele>840.331</ele>
        <time>2018-09-06T10:59:02Z</time>
      </trkpt>
      <trkpt lat="46.215717" lon="13.349142">
        <ele>839.824</ele>
        <time>2018-09-06T10:59:03Z</time>
      </trkpt>
      <trkpt lat="46.215716" lon="13.349162">
        <ele>840.308</ele>
        <time>2018-09-06T10:59:04Z</time>
      </trkpt>
      <trkpt lat="46.215713" lon="13.349181">
        <ele>840.373</ele>
        <time>2018-09-06T10:59:05Z</time>
      </trkpt>
      <trkpt lat="46.215714" lon="13.349205">
        <ele>840.335</ele>
        <time>2018-09-06T10:59:06Z</time>
      </trkpt>
      <trkpt lat="46.215716" lon="13.349226">
        <ele>840.341</ele>
        <time>2018-09-06T10:59:07Z</time>
      </trkpt>
      <trkpt lat="46.215717" lon="13.349245">
        <ele>840.857</ele>
        <time>2018-09-06T10:59:08Z</time>
      </trkpt>
      <trkpt lat="46.215717" lon="13.349263">
        <ele>840.858</ele>
        <time>2018-09-06T10:59:09Z</time>
      </trkpt>
      <trkpt lat="46.215713" lon="13.349282">
        <ele>840.898</ele>
        <time>2018-09-06T10:59:10Z</time>
      </trkpt>
      <trkpt lat="46.215707" lon="13.349299">
        <ele>840.871</ele>
        <time>2018-09-06T10:59:11Z</time>
      </trkpt>
      <trkpt lat="46.215701" lon="13.349385">
        <ele>842.235</ele>
        <time>2018-09-06T10:59:16Z</time>
      </trkpt>
      <trkpt lat="46.215700" lon="13.349401">
        <ele>842.227</ele>
        <time>2018-09-06T10:59:17Z</time>
      </trkpt>
      <trkpt lat="46.215692" lon="13.349448">
        <ele>842.768</ele>
        <time>2018-09-06T10:59:20Z</time>
      </trkpt>
      <trkpt lat="46.215689" lon="13.349465">
        <ele>842.714</ele>
        <time>2018-09-06T10:59:21Z</time>
      </trkpt>
      <trkpt lat="46.215692" lon="13.349480">
        <ele>842.708</ele>
        <time>2018-09-06T10:59:22Z</time>
      </trkpt>
      <trkpt lat="46.215692" lon="13.349497">
        <ele>842.736</ele>
        <time>2018-09-06T10:59:23Z</time>
      </trkpt>
      <trkpt lat="46.215691" lon="13.349513">
        <ele>843.218</ele>
        <time>2018-09-06T10:59:24Z</time>
      </trkpt>
      <trkpt lat="46.215686" lon="13.349525">
        <ele>843.244</ele>
        <time>2018-09-06T10:59:25Z</time>
      </trkpt>
      <trkpt lat="46.215681" lon="13.349590">
        <ele>843.610</ele>
        <time>2018-09-06T10:59:29Z</time>
      </trkpt>
      <trkpt lat="46.215683" lon="13.349608">
        <ele>844.111</ele>
        <time>2018-09-06T10:59:30Z</time>
      </trkpt>
      <trkpt lat="46.215683" lon="13.349628">
        <ele>844.181</ele>
        <time>2018-09-06T10:59:31Z</time>
      </trkpt>
      <trkpt lat="46.215686" lon="13.349644">
        <ele>844.684</ele>
        <time>2018-09-06T10:59:32Z</time>
      </trkpt>
      <trkpt lat="46.215687" lon="13.349660">
        <ele>844.648</ele>
        <time>2018-09-06T10:59:33Z</time>
      </trkpt>
      <trkpt lat="46.215687" lon="13.349677">
        <ele>844.645</ele>
        <time>2018-09-06T10:59:34Z</time>
      </trkpt>
      <trkpt lat="46.215686" lon="13.349695">
        <ele>844.647</ele>
        <time>2018-09-06T10:59:35Z</time>
      </trkpt>
      <trkpt lat="46.215686" lon="13.349711">
        <ele>844.611</ele>
        <time>2018-09-06T10:59:36Z</time>
      </trkpt>
      <trkpt lat="46.215684" lon="13.349731">
        <ele>844.608</ele>
        <time>2018-09-06T10:59:37Z</time>
      </trkpt>
      <trkpt lat="46.215743" lon="13.349936">
        <ele>844.648</ele>
        <time>2018-09-06T10:59:49Z</time>
      </trkpt>
      <trkpt lat="46.215764" lon="13.350017">
        <ele>844.130</ele>
        <time>2018-09-06T10:59:54Z</time>
      </trkpt>
      <trkpt lat="46.215769" lon="13.350041">
        <ele>843.656</ele>
        <time>2018-09-06T10:59:55Z</time>
      </trkpt>
      <trkpt lat="46.215775" lon="13.350058">
        <ele>844.192</ele>
        <time>2018-09-06T10:59:56Z</time>
      </trkpt>
      <trkpt lat="46.215784" lon="13.350075">
        <ele>844.133</ele>
        <time>2018-09-06T10:59:57Z</time>
      </trkpt>
      <trkpt lat="46.215787" lon="13.350093">
        <ele>844.133</ele>
        <time>2018-09-06T10:59:58Z</time>
      </trkpt>
      <trkpt lat="46.215784" lon="13.350111">
        <ele>844.636</ele>
        <time>2018-09-06T10:59:59Z</time>
      </trkpt>
      <trkpt lat="46.215785" lon="13.350142">
        <ele>845.160</ele>
        <time>2018-09-06T11:00:01Z</time>
      </trkpt>
      <trkpt lat="46.215807" lon="13.350242">
        <ele>845.661</ele>
        <time>2018-09-06T11:00:06Z</time>
      </trkpt>
      <trkpt lat="46.215812" lon="13.350260">
        <ele>845.121</ele>
        <time>2018-09-06T11:00:07Z</time>
      </trkpt>
      <trkpt lat="46.215816" lon="13.350278">
        <ele>845.113</ele>
        <time>2018-09-06T11:00:08Z</time>
      </trkpt>
      <trkpt lat="46.215820" lon="13.350296">
        <ele>845.108</ele>
        <time>2018-09-06T11:00:09Z</time>
      </trkpt>
      <trkpt lat="46.215832" lon="13.350355">
        <ele>844.140</ele>
        <time>2018-09-06T11:00:13Z</time>
      </trkpt>
      <trkpt lat="46.215848" lon="13.350376">
        <ele>843.652</ele>
        <time>2018-09-06T11:00:15Z</time>
      </trkpt>
      <trkpt lat="46.215907" lon="13.350423">
        <ele>845.188</ele>
        <time>2018-09-06T11:00:21Z</time>
      </trkpt>
      <trkpt lat="46.215920" lon="13.350426">
        <ele>845.124</ele>
        <time>2018-09-06T11:00:22Z</time>
      </trkpt>
      <trkpt lat="46.216058" lon="13.350474">
        <ele>848.075</ele>
        <time>2018-09-06T11:00:36Z</time>
      </trkpt>
      <trkpt lat="46.216109" lon="13.350496">
        <ele>848.995</ele>
        <time>2018-09-06T11:00:40Z</time>
      </trkpt>
      <trkpt lat="46.216122" lon="13.350504">
        <ele>849.468</ele>
        <time>2018-09-06T11:00:41Z</time>
      </trkpt>
      <trkpt lat="46.216135" lon="13.350506">
        <ele>849.922</ele>
        <time>2018-09-06T11:00:42Z</time>
      </trkpt>
      <trkpt lat="46.216148" lon="13.350508">
        <ele>850.918</ele>
        <time>2018-09-06T11:00:43Z</time>
      </trkpt>
      <trkpt lat="46.216163" lon="13.350511">
        <ele>850.998</ele>
        <time>2018-09-06T11:00:44Z</time>
      </trkpt>
      <trkpt lat="46.216176" lon="13.350512">
        <ele>851.317</ele>
        <time>2018-09-06T11:00:45Z</time>
      </trkpt>
      <trkpt lat="46.216188" lon="13.350510">
        <ele>851.808</ele>
        <time>2018-09-06T11:00:46Z</time>
      </trkpt>
      <trkpt lat="46.216361" lon="13.350508">
        <ele>861.415</ele>
        <time>2018-09-06T11:00:59Z</time>
      </trkpt>
      <trkpt lat="46.216552" lon="13.350527">
        <ele>868.657</ele>
        <time>2018-09-06T11:01:14Z</time>
      </trkpt>
      <trkpt lat="46.216581" lon="13.350547">
        <ele>870.663</ele>
        <time>2018-09-06T11:01:17Z</time>
      </trkpt>
      <trkpt lat="46.216592" lon="13.350555">
        <ele>871.079</ele>
        <time>2018-09-06T11:01:18Z</time>
      </trkpt>
      <trkpt lat="46.216722" lon="13.350773">
        <ele>868.680</ele>
        <time>2018-09-06T11:01:32Z</time>
      </trkpt>
      <trkpt lat="46.216731" lon="13.350825">
        <ele>868.290</ele>
        <time>2018-09-06T11:01:35Z</time>
      </trkpt>
      <trkpt lat="46.216728" lon="13.350845">
        <ele>868.283</ele>
        <time>2018-09-06T11:01:36Z</time>
      </trkpt>
      <trkpt lat="46.216729" lon="13.350870">
        <ele>868.257</ele>
        <time>2018-09-06T11:01:37Z</time>
      </trkpt>
      <trkpt lat="46.216732" lon="13.350893">
        <ele>867.235</ele>
        <time>2018-09-06T11:01:38Z</time>
      </trkpt>
      <trkpt lat="46.216738" lon="13.350913">
        <ele>867.286</ele>
        <time>2018-09-06T11:01:39Z</time>
      </trkpt>
      <trkpt lat="46.216742" lon="13.350932">
        <ele>866.714</ele>
        <time>2018-09-06T11:01:40Z</time>
      </trkpt>
      <trkpt lat="46.216749" lon="13.350997">
        <ele>865.808</ele>
        <time>2018-09-06T11:01:43Z</time>
      </trkpt>
      <trkpt lat="46.216760" lon="13.351078">
        <ele>866.237</ele>
        <time>2018-09-06T11:01:48Z</time>
      </trkpt>
      <trkpt lat="46.216764" lon="13.351100">
        <ele>866.749</ele>
        <time>2018-09-06T11:01:49Z</time>
      </trkpt>
      <trkpt lat="46.216787" lon="13.351193">
        <ele>866.755</ele>
        <time>2018-09-06T11:01:53Z</time>
      </trkpt>
      <trkpt lat="46.216812" lon="13.351372">
        <ele>865.811</ele>
        <time>2018-09-06T11:02:01Z</time>
      </trkpt>
      <trkpt lat="46.216959" lon="13.351550">
        <ele>867.752</ele>
        <time>2018-09-06T11:02:14Z</time>
      </trkpt>
      <trkpt lat="46.216972" lon="13.351563">
        <ele>867.722</ele>
        <time>2018-09-06T11:02:15Z</time>
      </trkpt>
      <trkpt lat="46.216983" lon="13.351577">
        <ele>868.215</ele>
        <time>2018-09-06T11:02:16Z</time>
      </trkpt>
      <trkpt lat="46.217123" lon="13.351710">
        <ele>872.589</ele>
        <time>2018-09-06T11:02:29Z</time>
      </trkpt>
      <trkpt lat="46.217242" lon="13.351818">
        <ele>876.365</ele>
        <time>2018-09-06T11:02:42Z</time>
      </trkpt>
      <trkpt lat="46.217410" lon="13.351867">
        <ele>882.168</ele>
        <time>2018-09-06T11:02:58Z</time>
      </trkpt>
      <trkpt lat="46.217566" lon="13.351893">
        <ele>885.914</ele>
        <time>2018-09-06T11:03:10Z</time>
      </trkpt>
      <trkpt lat="46.217707" lon="13.352066">
        <ele>886.908</ele>
        <time>2018-09-06T11:03:26Z</time>
      </trkpt>
      <trkpt lat="46.217711" lon="13.352084">
        <ele>886.990</ele>
        <time>2018-09-06T11:03:27Z</time>
      </trkpt>
      <trkpt lat="46.217715" lon="13.352101">
        <ele>886.992</ele>
        <time>2018-09-06T11:03:28Z</time>
      </trkpt>
      <trkpt lat="46.217717" lon="13.352119">
        <ele>886.998</ele>
        <time>2018-09-06T11:03:29Z</time>
      </trkpt>
      <trkpt lat="46.217721" lon="13.352137">
        <ele>886.964</ele>
        <time>2018-09-06T11:03:30Z</time>
      </trkpt>
      <trkpt lat="46.217723" lon="13.352157">
        <ele>886.995</ele>
        <time>2018-09-06T11:03:31Z</time>
      </trkpt>
      <trkpt lat="46.217726" lon="13.352176">
        <ele>886.465</ele>
        <time>2018-09-06T11:03:32Z</time>
      </trkpt>
      <trkpt lat="46.217728" lon="13.352195">
        <ele>885.988</ele>
        <time>2018-09-06T11:03:33Z</time>
      </trkpt>
      <trkpt lat="46.217725" lon="13.352210">
        <ele>885.962</ele>
        <time>2018-09-06T11:03:34Z</time>
      </trkpt>
      <trkpt lat="46.217724" lon="13.352225">
        <ele>885.567</ele>
        <time>2018-09-06T11:03:35Z</time>
      </trkpt>
      <trkpt lat="46.217726" lon="13.352244">
        <ele>885.581</ele>
        <time>2018-09-06T11:03:36Z</time>
      </trkpt>
      <trkpt lat="46.217717" lon="13.352387">
        <ele>883.519</ele>
        <time>2018-09-06T11:03:45Z</time>
      </trkpt>
      <trkpt lat="46.217717" lon="13.352429">
        <ele>883.108</ele>
        <time>2018-09-06T11:03:47Z</time>
      </trkpt>
      <trkpt lat="46.217712" lon="13.352605">
        <ele>884.560</ele>
        <time>2018-09-06T11:03:57Z</time>
      </trkpt>
      <trkpt lat="46.217709" lon="13.352623">
        <ele>884.532</ele>
        <time>2018-09-06T11:03:58Z</time>
      </trkpt>
      <trkpt lat="46.217706" lon="13.352640">
        <ele>884.518</ele>
        <time>2018-09-06T11:03:59Z</time>
      </trkpt>
      <trkpt lat="46.217697" lon="13.352765">
        <ele>884.034</ele>
        <time>2018-09-06T11:04:06Z</time>
      </trkpt>
      <trkpt lat="46.217698" lon="13.352784">
        <ele>883.575</ele>
        <time>2018-09-06T11:04:07Z</time>
      </trkpt>
      <trkpt lat="46.217698" lon="13.352801">
        <ele>883.525</ele>
        <time>2018-09-06T11:04:08Z</time>
      </trkpt>
      <trkpt lat="46.217698" lon="13.352818">
        <ele>883.598</ele>
        <time>2018-09-06T11:04:09Z</time>
      </trkpt>
      <trkpt lat="46.217698" lon="13.352836">
        <ele>883.552</ele>
        <time>2018-09-06T11:04:10Z</time>
      </trkpt>
      <trkpt lat="46.217696" lon="13.352852">
        <ele>883.569</ele>
        <time>2018-09-06T11:04:11Z</time>
      </trkpt>
      <trkpt lat="46.217697" lon="13.352869">
        <ele>883.504</ele>
        <time>2018-09-06T11:04:12Z</time>
      </trkpt>
      <trkpt lat="46.217698" lon="13.352887">
        <ele>883.524</ele>
        <time>2018-09-06T11:04:13Z</time>
      </trkpt>
      <trkpt lat="46.217695" lon="13.352902">
        <ele>883.508</ele>
        <time>2018-09-06T11:04:14Z</time>
      </trkpt>
      <trkpt lat="46.217679" lon="13.353047">
        <ele>883.140</ele>
        <time>2018-09-06T11:04:23Z</time>
      </trkpt>
      <trkpt lat="46.217665" lon="13.353338">
        <ele>884.012</ele>
        <time>2018-09-06T11:04:40Z</time>
      </trkpt>
      <trkpt lat="46.217664" lon="13.353352">
        <ele>884.078</ele>
        <time>2018-09-06T11:04:41Z</time>
      </trkpt>
      <trkpt lat="46.217661" lon="13.353410">
        <ele>885.054</ele>
        <time>2018-09-06T11:04:45Z</time>
      </trkpt>
      <trkpt lat="46.217665" lon="13.353445">
        <ele>885.575</ele>
        <time>2018-09-06T11:04:47Z</time>
      </trkpt>
      <trkpt lat="46.217668" lon="13.353482">
        <ele>885.975</ele>
        <time>2018-09-06T11:04:49Z</time>
      </trkpt>
      <trkpt lat="46.217674" lon="13.353501">
        <ele>885.988</ele>
        <time>2018-09-06T11:04:50Z</time>
      </trkpt>
      <trkpt lat="46.217679" lon="13.353518">
        <ele>885.522</ele>
        <time>2018-09-06T11:04:51Z</time>
      </trkpt>
      <trkpt lat="46.217743" lon="13.353742">
        <ele>886.916</ele>
        <time>2018-09-06T11:05:05Z</time>
      </trkpt>
      <trkpt lat="46.217749" lon="13.353760">
        <ele>887.476</ele>
        <time>2018-09-06T11:05:06Z</time>
      </trkpt>
      <trkpt lat="46.217847" lon="13.353940">
        <ele>888.813</ele>
        <time>2018-09-06T11:05:17Z</time>
      </trkpt>
      <trkpt lat="46.217859" lon="13.353961">
        <ele>888.808</ele>
        <time>2018-09-06T11:05:18Z</time>
      </trkpt>
      <trkpt lat="46.217929" lon="13.354093">
        <ele>889.855</ele>
        <time>2018-09-06T11:05:24Z</time>
      </trkpt>
      <trkpt lat="46.217937" lon="13.354116">
        <ele>889.827</ele>
        <time>2018-09-06T11:05:25Z</time>
      </trkpt>
      <trkpt lat="46.218096" lon="13.354368">
        <ele>893.283</ele>
        <time>2018-09-06T11:05:40Z</time>
      </trkpt>
      <trkpt lat="46.218239" lon="13.354574">
        <ele>895.169</ele>
        <time>2018-09-06T11:05:53Z</time>
      </trkpt>
      <trkpt lat="46.218402" lon="13.354773">
        <ele>900.450</ele>
        <time>2018-09-06T11:06:06Z</time>
      </trkpt>
      <trkpt lat="46.218413" lon="13.354788">
        <ele>900.410</ele>
        <time>2018-09-06T11:06:07Z</time>
      </trkpt>
      <trkpt lat="46.218424" lon="13.354801">
        <ele>900.413</ele>
        <time>2018-09-06T11:06:08Z</time>
      </trkpt>
      <trkpt lat="46.218435" lon="13.354815">
        <ele>900.887</ele>
        <time>2018-09-06T11:06:09Z</time>
      </trkpt>
      <trkpt lat="46.218450" lon="13.354828">
        <ele>900.827</ele>
        <time>2018-09-06T11:06:10Z</time>
      </trkpt>
      <trkpt lat="46.218462" lon="13.354842">
        <ele>900.868</ele>
        <time>2018-09-06T11:06:11Z</time>
      </trkpt>
      <trkpt lat="46.218474" lon="13.354858">
        <ele>900.814</ele>
        <time>2018-09-06T11:06:12Z</time>
      </trkpt>
      <trkpt lat="46.218610" lon="13.355050">
        <ele>902.308</ele>
        <time>2018-09-06T11:06:24Z</time>
      </trkpt>
      <trkpt lat="46.218704" lon="13.355319">
        <ele>902.396</ele>
        <time>2018-09-06T11:06:39Z</time>
      </trkpt>
      <trkpt lat="46.218809" lon="13.355585">
        <ele>904.298</ele>
        <time>2018-09-06T11:06:54Z</time>
      </trkpt>
      <trkpt lat="46.218947" lon="13.355747">
        <ele>907.684</ele>
        <time>2018-09-06T11:07:08Z</time>
      </trkpt>
      <trkpt lat="46.219131" lon="13.355759">
        <ele>912.450</ele>
        <time>2018-09-06T11:07:23Z</time>
      </trkpt>
      <trkpt lat="46.219157" lon="13.355745">
        <ele>913.381</ele>
        <time>2018-09-06T11:07:25Z</time>
      </trkpt>
      <trkpt lat="46.219166" lon="13.355731">
        <ele>913.861</ele>
        <time>2018-09-06T11:07:26Z</time>
      </trkpt>
      <trkpt lat="46.219175" lon="13.355718">
        <ele>914.324</ele>
        <time>2018-09-06T11:07:27Z</time>
      </trkpt>
      <trkpt lat="46.219186" lon="13.355707">
        <ele>914.828</ele>
        <time>2018-09-06T11:07:28Z</time>
      </trkpt>
      <trkpt lat="46.219198" lon="13.355696">
        <ele>915.714</ele>
        <time>2018-09-06T11:07:29Z</time>
      </trkpt>
      <trkpt lat="46.219209" lon="13.355678">
        <ele>916.254</ele>
        <time>2018-09-06T11:07:30Z</time>
      </trkpt>
      <trkpt lat="46.219221" lon="13.355662">
        <ele>916.709</ele>
        <time>2018-09-06T11:07:31Z</time>
      </trkpt>
      <trkpt lat="46.219232" lon="13.355649">
        <ele>917.208</ele>
        <time>2018-09-06T11:07:32Z</time>
      </trkpt>
      <trkpt lat="46.219276" lon="13.355599">
        <ele>918.235</ele>
        <time>2018-09-06T11:07:36Z</time>
      </trkpt>
      <trkpt lat="46.219288" lon="13.355591">
        <ele>918.697</ele>
        <time>2018-09-06T11:07:37Z</time>
      </trkpt>
      <trkpt lat="46.219301" lon="13.355591">
        <ele>918.683</ele>
        <time>2018-09-06T11:07:38Z</time>
      </trkpt>
      <trkpt lat="46.219314" lon="13.355594">
        <ele>918.679</ele>
        <time>2018-09-06T11:07:39Z</time>
      </trkpt>
      <trkpt lat="46.219328" lon="13.355595">
        <ele>918.670</ele>
        <time>2018-09-06T11:07:40Z</time>
      </trkpt>
      <trkpt lat="46.219341" lon="13.355599">
        <ele>919.170</ele>
        <time>2018-09-06T11:07:41Z</time>
      </trkpt>
      <trkpt lat="46.219542" lon="13.355697">
        <ele>920.693</ele>
        <time>2018-09-06T11:07:55Z</time>
      </trkpt>
      <trkpt lat="46.219825" lon="13.355593">
        <ele>927.397</ele>
        <time>2018-09-06T11:08:13Z</time>
      </trkpt>
      <trkpt lat="46.219892" lon="13.355573">
        <ele>929.232</ele>
        <time>2018-09-06T11:08:17Z</time>
      </trkpt>
      <trkpt lat="46.219908" lon="13.355565">
        <ele>929.792</ele>
        <time>2018-09-06T11:08:18Z</time>
      </trkpt>
      <trkpt lat="46.219924" lon="13.355556">
        <ele>930.211</ele>
        <time>2018-09-06T11:08:19Z</time>
      </trkpt>
      <trkpt lat="46.219938" lon="13.355546">
        <ele>930.208</ele>
        <time>2018-09-06T11:08:20Z</time>
      </trkpt>
      <trkpt lat="46.219951" lon="13.355533">
        <ele>930.677</ele>
        <time>2018-09-06T11:08:21Z</time>
      </trkpt>
      <trkpt lat="46.219965" lon="13.355520">
        <ele>930.689</ele>
        <time>2018-09-06T11:08:22Z</time>
      </trkpt>
      <trkpt lat="46.219980" lon="13.355514">
        <ele>930.675</ele>
        <time>2018-09-06T11:08:23Z</time>
      </trkpt>
      <trkpt lat="46.219997" lon="13.355508">
        <ele>930.681</ele>
        <time>2018-09-06T11:08:24Z</time>
      </trkpt>
      <trkpt lat="46.220261" lon="13.355362">
        <ele>934.012</ele>
        <time>2018-09-06T11:08:42Z</time>
      </trkpt>
      <trkpt lat="46.220449" lon="13.355296">
        <ele>936.472</ele>
        <time>2018-09-06T11:08:56Z</time>
      </trkpt>
      <trkpt lat="46.220593" lon="13.355299">
        <ele>937.495</ele>
        <time>2018-09-06T11:09:04Z</time>
      </trkpt>
      <trkpt lat="46.220608" lon="13.355294">
        <ele>938.369</ele>
        <time>2018-09-06T11:09:05Z</time>
      </trkpt>
      <trkpt lat="46.220625" lon="13.355288">
        <ele>938.834</ele>
        <time>2018-09-06T11:09:06Z</time>
      </trkpt>
      <trkpt lat="46.220644" lon="13.355284">
        <ele>939.355</ele>
        <time>2018-09-06T11:09:07Z</time>
      </trkpt>
      <trkpt lat="46.220664" lon="13.355279">
        <ele>939.310</ele>
        <time>2018-09-06T11:09:08Z</time>
      </trkpt>
      <trkpt lat="46.220681" lon="13.355275">
        <ele>939.808</ele>
        <time>2018-09-06T11:09:09Z</time>
      </trkpt>
      <trkpt lat="46.220696" lon="13.355265">
        <ele>940.327</ele>
        <time>2018-09-06T11:09:10Z</time>
      </trkpt>
      <trkpt lat="46.220712" lon="13.355257">
        <ele>940.789</ele>
        <time>2018-09-06T11:09:11Z</time>
      </trkpt>
      <trkpt lat="46.220727" lon="13.355254">
        <ele>941.245</ele>
        <time>2018-09-06T11:09:12Z</time>
      </trkpt>
      <trkpt lat="46.220834" lon="13.355212">
        <ele>945.191</ele>
        <time>2018-09-06T11:09:19Z</time>
      </trkpt>
      <trkpt lat="46.220898" lon="13.355202">
        <ele>948.042</ele>
        <time>2018-09-06T11:09:23Z</time>
      </trkpt>
      <trkpt lat="46.220946" lon="13.355192">
        <ele>949.942</ele>
        <time>2018-09-06T11:09:26Z</time>
      </trkpt>
      <trkpt lat="46.220960" lon="13.355195">
        <ele>949.995</ele>
        <time>2018-09-06T11:09:27Z</time>
      </trkpt>
      <trkpt lat="46.220975" lon="13.355196">
        <ele>950.439</ele>
        <time>2018-09-06T11:09:28Z</time>
      </trkpt>
      <trkpt lat="46.221198" lon="13.355253">
        <ele>951.813</ele>
        <time>2018-09-06T11:09:41Z</time>
      </trkpt>
      <trkpt lat="46.221447" lon="13.355250">
        <ele>951.843</ele>
        <time>2018-09-06T11:09:56Z</time>
      </trkpt>
      <trkpt lat="46.221691" lon="13.355178">
        <ele>958.007</ele>
        <time>2018-09-06T11:10:12Z</time>
      </trkpt>
      <trkpt lat="46.221703" lon="13.355170">
        <ele>958.508</ele>
        <time>2018-09-06T11:10:13Z</time>
      </trkpt>
      <trkpt lat="46.221724" lon="13.355156">
        <ele>959.055</ele>
        <time>2018-09-06T11:10:15Z</time>
      </trkpt>
      <trkpt lat="46.221892" lon="13.355113">
        <ele>961.477</ele>
        <time>2018-09-06T11:10:28Z</time>
      </trkpt>
      <trkpt lat="46.221942" lon="13.355114">
        <ele>961.433</ele>
        <time>2018-09-06T11:10:31Z</time>
      </trkpt>
      <trkpt lat="46.221956" lon="13.355115">
        <ele>961.419</ele>
        <time>2018-09-06T11:10:32Z</time>
      </trkpt>
      <trkpt lat="46.222005" lon="13.355101">
        <ele>961.940</ele>
        <time>2018-09-06T11:10:36Z</time>
      </trkpt>
      <trkpt lat="46.222018" lon="13.355097">
        <ele>961.950</ele>
        <time>2018-09-06T11:10:37Z</time>
      </trkpt>
      <trkpt lat="46.222100" lon="13.355083">
        <ele>961.963</ele>
        <time>2018-09-06T11:10:43Z</time>
      </trkpt>
      <trkpt lat="46.222115" lon="13.355084">
        <ele>961.447</ele>
        <time>2018-09-06T11:10:44Z</time>
      </trkpt>
      <trkpt lat="46.222244" lon="13.355033">
        <ele>962.455</ele>
        <time>2018-09-06T11:10:56Z</time>
      </trkpt>
      <trkpt lat="46.222408" lon="13.354923">
        <ele>970.507</ele>
        <time>2018-09-06T11:11:13Z</time>
      </trkpt>
      <trkpt lat="46.222456" lon="13.354893">
        <ele>972.017</ele>
        <time>2018-09-06T11:11:18Z</time>
      </trkpt>
      <trkpt lat="46.222482" lon="13.354862">
        <ele>972.508</ele>
        <time>2018-09-06T11:11:21Z</time>
      </trkpt>
      <trkpt lat="46.222650" lon="13.354774">
        <ele>971.039</ele>
        <time>2018-09-06T11:11:37Z</time>
      </trkpt>
      <trkpt lat="46.222672" lon="13.354766">
        <ele>971.051</ele>
        <time>2018-09-06T11:11:39Z</time>
      </trkpt>
      <trkpt lat="46.222687" lon="13.354766">
        <ele>971.077</ele>
        <time>2018-09-06T11:11:40Z</time>
      </trkpt>
      <trkpt lat="46.222700" lon="13.354765">
        <ele>970.523</ele>
        <time>2018-09-06T11:11:41Z</time>
      </trkpt>
      <trkpt lat="46.222878" lon="13.354784">
        <ele>969.624</ele>
        <time>2018-09-06T11:11:57Z</time>
      </trkpt>
      <trkpt lat="46.222960" lon="13.354855">
        <ele>966.214</ele>
        <time>2018-09-06T11:12:05Z</time>
      </trkpt>
      <trkpt lat="46.222973" lon="13.354865">
        <ele>965.387</ele>
        <time>2018-09-06T11:12:06Z</time>
      </trkpt>
      <trkpt lat="46.222987" lon="13.354875">
        <ele>964.831</ele>
        <time>2018-09-06T11:12:07Z</time>
      </trkpt>
      <trkpt lat="46.223116" lon="13.355029">
        <ele>962.935</ele>
        <time>2018-09-06T11:12:20Z</time>
      </trkpt>
      <trkpt lat="46.223253" lon="13.355194">
        <ele>962.986</ele>
        <time>2018-09-06T11:12:37Z</time>
      </trkpt>
      <trkpt lat="46.223366" lon="13.355341">
        <ele>963.814</ele>
        <time>2018-09-06T11:12:52Z</time>
      </trkpt>
      <trkpt lat="46.223492" lon="13.355470">
        <ele>964.808</ele>
        <time>2018-09-06T11:13:08Z</time>
      </trkpt>
      <trkpt lat="46.223589" lon="13.355579">
        <ele>965.747</ele>
        <time>2018-09-06T11:13:20Z</time>
      </trkpt>
      <trkpt lat="46.223599" lon="13.355582">
        <ele>966.289</ele>
        <time>2018-09-06T11:13:21Z</time>
      </trkpt>
      <trkpt lat="46.223628" lon="13.355601">
        <ele>966.245</ele>
        <time>2018-09-06T11:13:24Z</time>
      </trkpt>
      <trkpt lat="46.223663" lon="13.355631">
        <ele>967.761</ele>
        <time>2018-09-06T11:13:29Z</time>
      </trkpt>
      <trkpt lat="46.223794" lon="13.355684">
        <ele>972.962</ele>
        <time>2018-09-06T11:13:43Z</time>
      </trkpt>
      <trkpt lat="46.223959" lon="13.355717">
        <ele>977.882</ele>
        <time>2018-09-06T11:13:59Z</time>
      </trkpt>
      <trkpt lat="46.224054" lon="13.355714">
        <ele>979.755</ele>
        <time>2018-09-06T11:14:08Z</time>
      </trkpt>
      <trkpt lat="46.224062" lon="13.355707">
        <ele>979.769</ele>
        <time>2018-09-06T11:14:09Z</time>
      </trkpt>
      <trkpt lat="46.224195" lon="13.355627">
        <ele>982.183</ele>
        <time>2018-09-06T11:14:24Z</time>
      </trkpt>
      <trkpt lat="46.224267" lon="13.355544">
        <ele>984.025</ele>
        <time>2018-09-06T11:14:32Z</time>
      </trkpt>
      <trkpt lat="46.224329" lon="13.355432">
        <ele>984.517</ele>
        <time>2018-09-06T11:14:41Z</time>
      </trkpt>
      <trkpt lat="46.224350" lon="13.355373">
        <ele>984.508</ele>
        <time>2018-09-06T11:14:46Z</time>
      </trkpt>
      <trkpt lat="46.224355" lon="13.355361">
        <ele>984.512</ele>
        <time>2018-09-06T11:14:47Z</time>
      </trkpt>
      <trkpt lat="46.224360" lon="13.355348">
        <ele>984.524</ele>
        <time>2018-09-06T11:14:48Z</time>
      </trkpt>
      <trkpt lat="46.224446" lon="13.355197">
        <ele>985.030</ele>
        <time>2018-09-06T11:15:01Z</time>
      </trkpt>
      <trkpt lat="46.224457" lon="13.355190">
        <ele>985.096</ele>
        <time>2018-09-06T11:15:02Z</time>
      </trkpt>
      <trkpt lat="46.224469" lon="13.355184">
        <ele>985.057</ele>
        <time>2018-09-06T11:15:03Z</time>
      </trkpt>
      <trkpt lat="46.224481" lon="13.355177">
        <ele>985.087</ele>
        <time>2018-09-06T11:15:04Z</time>
      </trkpt>
      <trkpt lat="46.224492" lon="13.355169">
        <ele>985.010</ele>
        <time>2018-09-06T11:15:05Z</time>
      </trkpt>
      <trkpt lat="46.224504" lon="13.355159">
        <ele>985.054</ele>
        <time>2018-09-06T11:15:06Z</time>
      </trkpt>
      <trkpt lat="46.224544" lon="13.355128">
        <ele>984.514</ele>
        <time>2018-09-06T11:15:10Z</time>
      </trkpt>
      <trkpt lat="46.224557" lon="13.355125">
        <ele>984.554</ele>
        <time>2018-09-06T11:15:11Z</time>
      </trkpt>
      <trkpt lat="46.224571" lon="13.355120">
        <ele>984.509</ele>
        <time>2018-09-06T11:15:12Z</time>
      </trkpt>
      <trkpt lat="46.224585" lon="13.355116">
        <ele>985.008</ele>
        <time>2018-09-06T11:15:13Z</time>
      </trkpt>
      <trkpt lat="46.224598" lon="13.355113">
        <ele>984.575</ele>
        <time>2018-09-06T11:15:14Z</time>
      </trkpt>
      <trkpt lat="46.224611" lon="13.355110">
        <ele>985.077</ele>
        <time>2018-09-06T11:15:15Z</time>
      </trkpt>
      <trkpt lat="46.224623" lon="13.355108">
        <ele>985.433</ele>
        <time>2018-09-06T11:15:16Z</time>
      </trkpt>
      <trkpt lat="46.224636" lon="13.355111">
        <ele>985.489</ele>
        <time>2018-09-06T11:15:17Z</time>
      </trkpt>
      <trkpt lat="46.224648" lon="13.355115">
        <ele>985.910</ele>
        <time>2018-09-06T11:15:18Z</time>
      </trkpt>
      <trkpt lat="46.224661" lon="13.355119">
        <ele>985.930</ele>
        <time>2018-09-06T11:15:19Z</time>
      </trkpt>
      <trkpt lat="46.224676" lon="13.355122">
        <ele>986.413</ele>
        <time>2018-09-06T11:15:20Z</time>
      </trkpt>
      <trkpt lat="46.224689" lon="13.355126">
        <ele>986.497</ele>
        <time>2018-09-06T11:15:21Z</time>
      </trkpt>
      <trkpt lat="46.224700" lon="13.355135">
        <ele>986.416</ele>
        <time>2018-09-06T11:15:22Z</time>
      </trkpt>
      <trkpt lat="46.224710" lon="13.355145">
        <ele>985.976</ele>
        <time>2018-09-06T11:15:23Z</time>
      </trkpt>
      <trkpt lat="46.224724" lon="13.355156">
        <ele>985.913</ele>
        <time>2018-09-06T11:15:24Z</time>
      </trkpt>
      <trkpt lat="46.224738" lon="13.355163">
        <ele>985.908</ele>
        <time>2018-09-06T11:15:25Z</time>
      </trkpt>
      <trkpt lat="46.224903" lon="13.355189">
        <ele>985.995</ele>
        <time>2018-09-06T11:15:40Z</time>
      </trkpt>
      <trkpt lat="46.225065" lon="13.355101">
        <ele>989.897</ele>
        <time>2018-09-06T11:15:54Z</time>
      </trkpt>
      <trkpt lat="46.225078" lon="13.355094">
        <ele>990.363</ele>
        <time>2018-09-06T11:15:55Z</time>
      </trkpt>
      <trkpt lat="46.225090" lon="13.355086">
        <ele>990.799</ele>
        <time>2018-09-06T11:15:56Z</time>
      </trkpt>
      <trkpt lat="46.225101" lon="13.355077">
        <ele>990.730</ele>
        <time>2018-09-06T11:15:57Z</time>
      </trkpt>
      <trkpt lat="46.225115" lon="13.355066">
        <ele>991.260</ele>
        <time>2018-09-06T11:15:58Z</time>
      </trkpt>
      <trkpt lat="46.225127" lon="13.355057">
        <ele>991.223</ele>
        <time>2018-09-06T11:15:59Z</time>
      </trkpt>
      <trkpt lat="46.225137" lon="13.355044">
        <ele>991.297</ele>
        <time>2018-09-06T11:16:00Z</time>
      </trkpt>
      <trkpt lat="46.225146" lon="13.355029">
        <ele>991.248</ele>
        <time>2018-09-06T11:16:01Z</time>
      </trkpt>
      <trkpt lat="46.225158" lon="13.355021">
        <ele>991.761</ele>
        <time>2018-09-06T11:16:02Z</time>
      </trkpt>
      <trkpt lat="46.225170" lon="13.355016">
        <ele>991.717</ele>
        <time>2018-09-06T11:16:03Z</time>
      </trkpt>
      <trkpt lat="46.225185" lon="13.355013">
        <ele>991.708</ele>
        <time>2018-09-06T11:16:04Z</time>
      </trkpt>
      <trkpt lat="46.225199" lon="13.355008">
        <ele>991.748</ele>
        <time>2018-09-06T11:16:05Z</time>
      </trkpt>
      <trkpt lat="46.225211" lon="13.354999">
        <ele>991.750</ele>
        <time>2018-09-06T11:16:06Z</time>
      </trkpt>
      <trkpt lat="46.225222" lon="13.354988">
        <ele>992.246</ele>
        <time>2018-09-06T11:16:07Z</time>
      </trkpt>
      <trkpt lat="46.225234" lon="13.354983">
        <ele>992.232</ele>
        <time>2018-09-06T11:16:08Z</time>
      </trkpt>
      <trkpt lat="46.225246" lon="13.354979">
        <ele>992.733</ele>
        <time>2018-09-06T11:16:09Z</time>
      </trkpt>
      <trkpt lat="46.225258" lon="13.354973">
        <ele>992.793</ele>
        <time>2018-09-06T11:16:10Z</time>
      </trkpt>
      <trkpt lat="46.225444" lon="13.354880">
        <ele>996.576</ele>
        <time>2018-09-06T11:16:25Z</time>
      </trkpt>
      <trkpt lat="46.225732" lon="13.354738">
        <ele>1000.810</ele>
        <time>2018-09-06T11:16:43Z</time>
      </trkpt>
      <trkpt lat="46.225747" lon="13.354719">
        <ele>1000.827</ele>
        <time>2018-09-06T11:16:44Z</time>
      </trkpt>
      <trkpt lat="46.225760" lon="13.354699">
        <ele>1000.868</ele>
        <time>2018-09-06T11:16:45Z</time>
      </trkpt>
      <trkpt lat="46.225771" lon="13.354677">
        <ele>1000.814</ele>
        <time>2018-09-06T11:16:46Z</time>
      </trkpt>
      <trkpt lat="46.225782" lon="13.354654">
        <ele>1000.808</ele>
        <time>2018-09-06T11:16:47Z</time>
      </trkpt>
      <trkpt lat="46.225792" lon="13.354631">
        <ele>1000.896</ele>
        <time>2018-09-06T11:16:48Z</time>
      </trkpt>
      <trkpt lat="46.225944" lon="13.354321">
        <ele>1002.338</ele>
        <time>2018-09-06T11:17:05Z</time>
      </trkpt>
      <trkpt lat="46.226127" lon="13.354015">
        <ele>1004.214</ele>
        <time>2018-09-06T11:17:23Z</time>
      </trkpt>
      <trkpt lat="46.226251" lon="13.353735">
        <ele>1006.150</ele>
        <time>2018-09-06T11:17:39Z</time>
      </trkpt>
      <trkpt lat="46.226296" lon="13.353483">
        <ele>1008.031</ele>
        <time>2018-09-06T11:17:53Z</time>
      </trkpt>
      <trkpt lat="46.226309" lon="13.353453">
        <ele>1007.691</ele>
        <time>2018-09-06T11:17:55Z</time>
      </trkpt>
      <trkpt lat="46.226318" lon="13.353440">
        <ele>1007.634</ele>
        <time>2018-09-06T11:17:56Z</time>
      </trkpt>
      <trkpt lat="46.226326" lon="13.353424">
        <ele>1007.688</ele>
        <time>2018-09-06T11:17:57Z</time>
      </trkpt>
      <trkpt lat="46.226332" lon="13.353406">
        <ele>1007.663</ele>
        <time>2018-09-06T11:17:58Z</time>
      </trkpt>
      <trkpt lat="46.226339" lon="13.353390">
        <ele>1008.044</ele>
        <time>2018-09-06T11:17:59Z</time>
      </trkpt>
      <trkpt lat="46.226346" lon="13.353377">
        <ele>1008.018</ele>
        <time>2018-09-06T11:18:00Z</time>
      </trkpt>
      <trkpt lat="46.226355" lon="13.353366">
        <ele>1008.008</ele>
        <time>2018-09-06T11:18:01Z</time>
      </trkpt>
      <trkpt lat="46.226377" lon="13.353307">
        <ele>1008.590</ele>
        <time>2018-09-06T11:18:06Z</time>
      </trkpt>
      <trkpt lat="46.226381" lon="13.353277">
        <ele>1008.532</ele>
        <time>2018-09-06T11:18:08Z</time>
      </trkpt>
      <trkpt lat="46.226387" lon="13.353265">
        <ele>1008.578</ele>
        <time>2018-09-06T11:18:09Z</time>
      </trkpt>
      <trkpt lat="46.226408" lon="13.353276">
        <ele>1008.534</ele>
        <time>2018-09-06T11:18:21Z</time>
      </trkpt>
      <trkpt lat="46.226412" lon="13.353239">
        <ele>1006.125</ele>
        <time>2018-09-06T11:18:42Z</time>
      </trkpt>
      <trkpt lat="46.226386" lon="13.353191">
        <ele>1007.615</ele>
        <time>2018-09-06T11:19:15Z</time>
      </trkpt>
      <trkpt lat="46.226395" lon="13.353214">
        <ele>1006.138</ele>
        <time>2018-09-06T11:19:56Z</time>
      </trkpt>
      <trkpt lat="46.226406" lon="13.353224">
        <ele>1005.642</ele>
        <time>2018-09-06T11:20:33Z</time>
      </trkpt>
      <trkpt lat="46.226405" lon="13.353214">
        <ele>1005.675</ele>
        <time>2018-09-06T11:21:22Z</time>
      </trkpt>
      <trkpt lat="46.226424" lon="13.353233">
        <ele>1004.728</ele>
        <time>2018-09-06T11:22:00Z</time>
      </trkpt>
      <trkpt lat="46.226443" lon="13.353248">
        <ele>1004.720</ele>
        <time>2018-09-06T11:22:03Z</time>
      </trkpt>
      <trkpt lat="46.226453" lon="13.353260">
        <ele>1004.708</ele>
        <time>2018-09-06T11:22:04Z</time>
      </trkpt>
      <trkpt lat="46.226467" lon="13.353279">
        <ele>1004.771</ele>
        <time>2018-09-06T11:22:05Z</time>
      </trkpt>
      <trkpt lat="46.226608" lon="13.353617">
        <ele>1002.783</ele>
        <time>2018-09-06T11:22:13Z</time>
      </trkpt>
      <trkpt lat="46.226638" lon="13.353678">
        <ele>1001.869</ele>
        <time>2018-09-06T11:22:14Z</time>
      </trkpt>
      <trkpt lat="46.226676" lon="13.353736">
        <ele>1000.815</ele>
        <time>2018-09-06T11:22:15Z</time>
      </trkpt>
      <trkpt lat="46.226716" lon="13.353790">
        <ele>1000.366</ele>
        <time>2018-09-06T11:22:16Z</time>
      </trkpt>
      <trkpt lat="46.226763" lon="13.353844">
        <ele>999.416</ele>
        <time>2018-09-06T11:22:17Z</time>
      </trkpt>
      <trkpt lat="46.226811" lon="13.353891">
        <ele>998.449</ele>
        <time>2018-09-06T11:22:18Z</time>
      </trkpt>
      <trkpt lat="46.226963" lon="13.354045">
        <ele>996.053</ele>
        <time>2018-09-06T11:22:21Z</time>
      </trkpt>
      <trkpt lat="46.227001" lon="13.354107">
        <ele>995.562</ele>
        <time>2018-09-06T11:22:22Z</time>
      </trkpt>
      <trkpt lat="46.227027" lon="13.354179">
        <ele>995.183</ele>
        <time>2018-09-06T11:22:23Z</time>
      </trkpt>
      <trkpt lat="46.227037" lon="13.354259">
        <ele>994.611</ele>
        <time>2018-09-06T11:22:24Z</time>
      </trkpt>
      <trkpt lat="46.227039" lon="13.354342">
        <ele>994.108</ele>
        <time>2018-09-06T11:22:25Z</time>
      </trkpt>
      <trkpt lat="46.227039" lon="13.354437">
        <ele>993.660</ele>
        <time>2018-09-06T11:22:26Z</time>
      </trkpt>
      <trkpt lat="46.227048" lon="13.354530">
        <ele>992.752</ele>
        <time>2018-09-06T11:22:27Z</time>
      </trkpt>
      <trkpt lat="46.227067" lon="13.354626">
        <ele>992.218</ele>
        <time>2018-09-06T11:22:28Z</time>
      </trkpt>
      <trkpt lat="46.227100" lon="13.354713">
        <ele>991.754</ele>
        <time>2018-09-06T11:22:29Z</time>
      </trkpt>
      <trkpt lat="46.227148" lon="13.354786">
        <ele>991.245</ele>
        <time>2018-09-06T11:22:30Z</time>
      </trkpt>
      <trkpt lat="46.227203" lon="13.354838">
        <ele>990.735</ele>
        <time>2018-09-06T11:22:31Z</time>
      </trkpt>
      <trkpt lat="46.227260" lon="13.354873">
        <ele>990.748</ele>
        <time>2018-09-06T11:22:32Z</time>
      </trkpt>
      <trkpt lat="46.227318" lon="13.354906">
        <ele>990.312</ele>
        <time>2018-09-06T11:22:33Z</time>
      </trkpt>
      <trkpt lat="46.227376" lon="13.354939">
        <ele>989.859</ele>
        <time>2018-09-06T11:22:34Z</time>
      </trkpt>
      <trkpt lat="46.227438" lon="13.354964">
        <ele>989.303</ele>
        <time>2018-09-06T11:22:35Z</time>
      </trkpt>
      <trkpt lat="46.227503" lon="13.354972">
        <ele>988.823</ele>
        <time>2018-09-06T11:22:36Z</time>
      </trkpt>
      <trkpt lat="46.227572" lon="13.354955">
        <ele>988.308</ele>
        <time>2018-09-06T11:22:37Z</time>
      </trkpt>
      <trkpt lat="46.227645" lon="13.354918">
        <ele>988.349</ele>
        <time>2018-09-06T11:22:38Z</time>
      </trkpt>
      <trkpt lat="46.227718" lon="13.354868">
        <ele>987.851</ele>
        <time>2018-09-06T11:22:39Z</time>
      </trkpt>
      <trkpt lat="46.227792" lon="13.354814">
        <ele>987.427</ele>
        <time>2018-09-06T11:22:40Z</time>
      </trkpt>
      <trkpt lat="46.227865" lon="13.354769">
        <ele>986.913</ele>
        <time>2018-09-06T11:22:41Z</time>
      </trkpt>
      <trkpt lat="46.228221" lon="13.354621">
        <ele>985.934</ele>
        <time>2018-09-06T11:22:46Z</time>
      </trkpt>
      <trkpt lat="46.228291" lon="13.354619">
        <ele>985.924</ele>
        <time>2018-09-06T11:22:47Z</time>
      </trkpt>
      <trkpt lat="46.228356" lon="13.354645">
        <ele>985.487</ele>
        <time>2018-09-06T11:22:48Z</time>
      </trkpt>
      <trkpt lat="46.228406" lon="13.354691">
        <ele>985.091</ele>
        <time>2018-09-06T11:22:49Z</time>
      </trkpt>
      <trkpt lat="46.228448" lon="13.354757">
        <ele>985.046</ele>
        <time>2018-09-06T11:22:50Z</time>
      </trkpt>
      <trkpt lat="46.228476" lon="13.354832">
        <ele>984.588</ele>
        <time>2018-09-06T11:22:51Z</time>
      </trkpt>
      <trkpt lat="46.228501" lon="13.354907">
        <ele>984.516</ele>
        <time>2018-09-06T11:22:52Z</time>
      </trkpt>
      <trkpt lat="46.228706" lon="13.355523">
        <ele>982.608</ele>
        <time>2018-09-06T11:23:00Z</time>
      </trkpt>
      <trkpt lat="46.228744" lon="13.355589">
        <ele>982.188</ele>
        <time>2018-09-06T11:23:01Z</time>
      </trkpt>
      <trkpt lat="46.228789" lon="13.355639">
        <ele>981.680</ele>
        <time>2018-09-06T11:23:02Z</time>
      </trkpt>
      <trkpt lat="46.228840" lon="13.355673">
        <ele>981.196</ele>
        <time>2018-09-06T11:23:03Z</time>
      </trkpt>
      <trkpt lat="46.228894" lon="13.355685">
        <ele>981.152</ele>
        <time>2018-09-06T11:23:04Z</time>
      </trkpt>
      <trkpt lat="46.228951" lon="13.355676">
        <ele>981.163</ele>
        <time>2018-09-06T11:23:05Z</time>
      </trkpt>
      <trkpt lat="46.229012" lon="13.355650">
        <ele>981.173</ele>
        <time>2018-09-06T11:23:06Z</time>
      </trkpt>
      <trkpt lat="46.229076" lon="13.355610">
        <ele>981.116</ele>
        <time>2018-09-06T11:23:07Z</time>
      </trkpt>
      <trkpt lat="46.229141" lon="13.355561">
        <ele>980.640</ele>
        <time>2018-09-06T11:23:08Z</time>
      </trkpt>
      <trkpt lat="46.229347" lon="13.355417">
        <ele>979.215</ele>
        <time>2018-09-06T11:23:11Z</time>
      </trkpt>
      <trkpt lat="46.229586" lon="13.355279">
        <ele>977.365</ele>
        <time>2018-09-06T11:23:14Z</time>
      </trkpt>
      <trkpt lat="46.229660" lon="13.355214">
        <ele>976.311</ele>
        <time>2018-09-06T11:23:15Z</time>
      </trkpt>
      <trkpt lat="46.229730" lon="13.355141">
        <ele>975.308</ele>
        <time>2018-09-06T11:23:16Z</time>
      </trkpt>
      <trkpt lat="46.230096" lon="13.354777">
        <ele>970.185</ele>
        <time>2018-09-06T11:23:21Z</time>
      </trkpt>
      <trkpt lat="46.230181" lon="13.354736">
        <ele>968.617</ele>
        <time>2018-09-06T11:23:22Z</time>
      </trkpt>
      <trkpt lat="46.230274" lon="13.354708">
        <ele>967.273</ele>
        <time>2018-09-06T11:23:23Z</time>
      </trkpt>
      <trkpt lat="46.230649" lon="13.354643">
        <ele>963.839</ele>
        <time>2018-09-06T11:23:27Z</time>
      </trkpt>
      <trkpt lat="46.230734" lon="13.354646">
        <ele>963.310</ele>
        <time>2018-09-06T11:23:28Z</time>
      </trkpt>
      <trkpt lat="46.230816" lon="13.354657">
        <ele>962.430</ele>
        <time>2018-09-06T11:23:29Z</time>
      </trkpt>
      <trkpt lat="46.230897" lon="13.354681">
        <ele>961.983</ele>
        <time>2018-09-06T11:23:30Z</time>
      </trkpt>
      <trkpt lat="46.230973" lon="13.354716">
        <ele>961.427</ele>
        <time>2018-09-06T11:23:31Z</time>
      </trkpt>
      <trkpt lat="46.231047" lon="13.354756">
        <ele>960.478</ele>
        <time>2018-09-06T11:23:32Z</time>
      </trkpt>
      <trkpt lat="46.231124" lon="13.354788">
        <ele>960.033</ele>
        <time>2018-09-06T11:23:33Z</time>
      </trkpt>
      <trkpt lat="46.231205" lon="13.354810">
        <ele>959.526</ele>
        <time>2018-09-06T11:23:34Z</time>
      </trkpt>
      <trkpt lat="46.231285" lon="13.354821">
        <ele>958.508</ele>
        <time>2018-09-06T11:23:35Z</time>
      </trkpt>
      <trkpt lat="46.231365" lon="13.354821">
        <ele>958.091</ele>
        <time>2018-09-06T11:23:36Z</time>
      </trkpt>
      <trkpt lat="46.231447" lon="13.354810">
        <ele>957.133</ele>
        <time>2018-09-06T11:23:37Z</time>
      </trkpt>
      <trkpt lat="46.231528" lon="13.354790">
        <ele>956.139</ele>
        <time>2018-09-06T11:23:38Z</time>
      </trkpt>
      <trkpt lat="46.231609" lon="13.354765">
        <ele>955.685</ele>
        <time>2018-09-06T11:23:39Z</time>
      </trkpt>
      <trkpt lat="46.232203" lon="13.354578">
        <ele>948.466</ele>
        <time>2018-09-06T11:23:46Z</time>
      </trkpt>
      <trkpt lat="46.233159" lon="13.353954">
        <ele>934.586</ele>
        <time>2018-09-06T11:23:57Z</time>
      </trkpt>
      <trkpt lat="46.233229" lon="13.353936">
        <ele>933.529</ele>
        <time>2018-09-06T11:23:58Z</time>
      </trkpt>
      <trkpt lat="46.233283" lon="13.353950">
        <ele>932.663</ele>
        <time>2018-09-06T11:23:59Z</time>
      </trkpt>
      <trkpt lat="46.233342" lon="13.353994">
        <ele>931.616</ele>
        <time>2018-09-06T11:24:00Z</time>
      </trkpt>
      <trkpt lat="46.233400" lon="13.354057">
        <ele>930.276</ele>
        <time>2018-09-06T11:24:01Z</time>
      </trkpt>
      <trkpt lat="46.233455" lon="13.354121">
        <ele>929.213</ele>
        <time>2018-09-06T11:24:02Z</time>
      </trkpt>
      <trkpt lat="46.233514" lon="13.354179">
        <ele>928.708</ele>
        <time>2018-09-06T11:24:03Z</time>
      </trkpt>
      <trkpt lat="46.233573" lon="13.354226">
        <ele>927.815</ele>
        <time>2018-09-06T11:24:04Z</time>
      </trkpt>
      <trkpt lat="46.233636" lon="13.354261">
        <ele>926.877</ele>
        <time>2018-09-06T11:24:05Z</time>
      </trkpt>
      <trkpt lat="46.233702" lon="13.354287">
        <ele>926.333</ele>
        <time>2018-09-06T11:24:06Z</time>
      </trkpt>
      <trkpt lat="46.233769" lon="13.354308">
        <ele>925.869</ele>
        <time>2018-09-06T11:24:07Z</time>
      </trkpt>
      <trkpt lat="46.234490" lon="13.354298">
        <ele>923.020</ele>
        <time>2018-09-06T11:24:18Z</time>
      </trkpt>
      <trkpt lat="46.234900" lon="13.354106">
        <ele>919.110</ele>
        <time>2018-09-06T11:24:24Z</time>
      </trkpt>
      <trkpt lat="46.234969" lon="13.354089">
        <ele>918.673</ele>
        <time>2018-09-06T11:24:25Z</time>
      </trkpt>
      <trkpt lat="46.235043" lon="13.354082">
        <ele>918.237</ele>
        <time>2018-09-06T11:24:26Z</time>
      </trkpt>
      <trkpt lat="46.235187" lon="13.354079">
        <ele>917.288</ele>
        <time>2018-09-06T11:24:28Z</time>
      </trkpt>
      <trkpt lat="46.235256" lon="13.354061">
        <ele>916.724</ele>
        <time>2018-09-06T11:24:29Z</time>
      </trkpt>
      <trkpt lat="46.235325" lon="13.354029">
        <ele>916.226</ele>
        <time>2018-09-06T11:24:30Z</time>
      </trkpt>
      <trkpt lat="46.235671" lon="13.353870">
        <ele>913.308</ele>
        <time>2018-09-06T11:24:35Z</time>
      </trkpt>
      <trkpt lat="46.235739" lon="13.353858">
        <ele>912.472</ele>
        <time>2018-09-06T11:24:36Z</time>
      </trkpt>
      <trkpt lat="46.235958" lon="13.353855">
        <ele>910.944</ele>
        <time>2018-09-06T11:24:39Z</time>
      </trkpt>
      <trkpt lat="46.236028" lon="13.353882">
        <ele>910.570</ele>
        <time>2018-09-06T11:24:40Z</time>
      </trkpt>
      <trkpt lat="46.236098" lon="13.353930">
        <ele>910.046</ele>
        <time>2018-09-06T11:24:41Z</time>
      </trkpt>
      <trkpt lat="46.236772" lon="13.354672">
        <ele>902.337</ele>
        <time>2018-09-06T11:24:52Z</time>
      </trkpt>
      <trkpt lat="46.236832" lon="13.354719">
        <ele>901.847</ele>
        <time>2018-09-06T11:24:53Z</time>
      </trkpt>
      <trkpt lat="46.236888" lon="13.354747">
        <ele>901.320</ele>
        <time>2018-09-06T11:24:54Z</time>
      </trkpt>
      <trkpt lat="46.236950" lon="13.354763">
        <ele>900.464</ele>
        <time>2018-09-06T11:24:55Z</time>
      </trkpt>
      <trkpt lat="46.237014" lon="13.354768">
        <ele>899.937</ele>
        <time>2018-09-06T11:24:56Z</time>
      </trkpt>
      <trkpt lat="46.237080" lon="13.354768">
        <ele>899.449</ele>
        <time>2018-09-06T11:24:57Z</time>
      </trkpt>
      <trkpt lat="46.237220" lon="13.354752">
        <ele>898.013</ele>
        <time>2018-09-06T11:24:59Z</time>
      </trkpt>
      <trkpt lat="46.237289" lon="13.354726">
        <ele>897.508</ele>
        <time>2018-09-06T11:25:00Z</time>
      </trkpt>
      <trkpt lat="46.237345" lon="13.354682">
        <ele>897.037</ele>
        <time>2018-09-06T11:25:01Z</time>
      </trkpt>
      <trkpt lat="46.237389" lon="13.354625">
        <ele>896.519</ele>
        <time>2018-09-06T11:25:02Z</time>
      </trkpt>
      <trkpt lat="46.237422" lon="13.354566">
        <ele>896.015</ele>
        <time>2018-09-06T11:25:03Z</time>
      </trkpt>
      <trkpt lat="46.237451" lon="13.354501">
        <ele>895.641</ele>
        <time>2018-09-06T11:25:04Z</time>
      </trkpt>
      <trkpt lat="46.237488" lon="13.354434">
        <ele>894.652</ele>
        <time>2018-09-06T11:25:05Z</time>
      </trkpt>
      <trkpt lat="46.237535" lon="13.354376">
        <ele>893.662</ele>
        <time>2018-09-06T11:25:06Z</time>
      </trkpt>
      <trkpt lat="46.237629" lon="13.354266">
        <ele>891.775</ele>
        <time>2018-09-06T11:25:08Z</time>
      </trkpt>
      <trkpt lat="46.237668" lon="13.354195">
        <ele>890.879</ele>
        <time>2018-09-06T11:25:09Z</time>
      </trkpt>
      <trkpt lat="46.237702" lon="13.354124">
        <ele>889.846</ele>
        <time>2018-09-06T11:25:10Z</time>
      </trkpt>
      <trkpt lat="46.237743" lon="13.354053">
        <ele>888.488</ele>
        <time>2018-09-06T11:25:11Z</time>
      </trkpt>
      <trkpt lat="46.237790" lon="13.353977">
        <ele>887.416</ele>
        <time>2018-09-06T11:25:12Z</time>
      </trkpt>
      <trkpt lat="46.237834" lon="13.353892">
        <ele>886.408</ele>
        <time>2018-09-06T11:25:13Z</time>
      </trkpt>
      <trkpt lat="46.237869" lon="13.353796">
        <ele>885.598</ele>
        <time>2018-09-06T11:25:14Z</time>
      </trkpt>
      <trkpt lat="46.237893" lon="13.353701">
        <ele>885.090</ele>
        <time>2018-09-06T11:25:15Z</time>
      </trkpt>
      <trkpt lat="46.237942" lon="13.353504">
        <ele>883.586</ele>
        <time>2018-09-06T11:25:17Z</time>
      </trkpt>
      <trkpt lat="46.237980" lon="13.353409">
        <ele>882.672</ele>
        <time>2018-09-06T11:25:18Z</time>
      </trkpt>
      <trkpt lat="46.238032" lon="13.353329">
        <ele>881.673</ele>
        <time>2018-09-06T11:25:19Z</time>
      </trkpt>
      <trkpt lat="46.238089" lon="13.353277">
        <ele>881.113</ele>
        <time>2018-09-06T11:25:20Z</time>
      </trkpt>
      <trkpt lat="46.238149" lon="13.353237">
        <ele>880.776</ele>
        <time>2018-09-06T11:25:21Z</time>
      </trkpt>
      <trkpt lat="46.238209" lon="13.353195">
        <ele>880.240</ele>
        <time>2018-09-06T11:25:22Z</time>
      </trkpt>
      <trkpt lat="46.238256" lon="13.353147">
        <ele>879.797</ele>
        <time>2018-09-06T11:25:23Z</time>
      </trkpt>
      <trkpt lat="46.238295" lon="13.353094">
        <ele>879.223</ele>
        <time>2018-09-06T11:25:24Z</time>
      </trkpt>
      <trkpt lat="46.238323" lon="13.353039">
        <ele>878.725</ele>
        <time>2018-09-06T11:25:25Z</time>
      </trkpt>
      <trkpt lat="46.238344" lon="13.352983">
        <ele>878.708</ele>
        <time>2018-09-06T11:25:26Z</time>
      </trkpt>
      <trkpt lat="46.238361" lon="13.352925">
        <ele>878.343</ele>
        <time>2018-09-06T11:25:27Z</time>
      </trkpt>
      <trkpt lat="46.238373" lon="13.352861">
        <ele>878.395</ele>
        <time>2018-09-06T11:25:28Z</time>
      </trkpt>
      <trkpt lat="46.238379" lon="13.352793">
        <ele>878.371</ele>
        <time>2018-09-06T11:25:29Z</time>
      </trkpt>
      <trkpt lat="46.238383" lon="13.352720">
        <ele>877.837</ele>
        <time>2018-09-06T11:25:30Z</time>
      </trkpt>
      <trkpt lat="46.238394" lon="13.352645">
        <ele>877.348</ele>
        <time>2018-09-06T11:25:31Z</time>
      </trkpt>
      <trkpt lat="46.238414" lon="13.352569">
        <ele>876.888</ele>
        <time>2018-09-06T11:25:32Z</time>
      </trkpt>
      <trkpt lat="46.238444" lon="13.352498">
        <ele>875.941</ele>
        <time>2018-09-06T11:25:33Z</time>
      </trkpt>
      <trkpt lat="46.238481" lon="13.352427">
        <ele>875.435</ele>
        <time>2018-09-06T11:25:34Z</time>
      </trkpt>
      <trkpt lat="46.238551" lon="13.352263">
        <ele>873.536</ele>
        <time>2018-09-06T11:25:36Z</time>
      </trkpt>
      <trkpt lat="46.238627" lon="13.351984">
        <ele>871.017</ele>
        <time>2018-09-06T11:25:39Z</time>
      </trkpt>
      <trkpt lat="46.238660" lon="13.351920">
        <ele>870.118</ele>
        <time>2018-09-06T11:25:40Z</time>
      </trkpt>
      <trkpt lat="46.238706" lon="13.351896">
        <ele>869.608</ele>
        <time>2018-09-06T11:25:41Z</time>
      </trkpt>
      <trkpt lat="46.238762" lon="13.351904">
        <ele>868.647</ele>
        <time>2018-09-06T11:25:42Z</time>
      </trkpt>
      <trkpt lat="46.238822" lon="13.351928">
        <ele>868.279</ele>
        <time>2018-09-06T11:25:43Z</time>
      </trkpt>
      <trkpt lat="46.238884" lon="13.351962">
        <ele>867.245</ele>
        <time>2018-09-06T11:25:44Z</time>
      </trkpt>
      <trkpt lat="46.239152" lon="13.352083">
        <ele>864.831</ele>
        <time>2018-09-06T11:25:48Z</time>
      </trkpt>
      <trkpt lat="46.239220" lon="13.352095">
        <ele>864.332</ele>
        <time>2018-09-06T11:25:49Z</time>
      </trkpt>
      <trkpt lat="46.239284" lon="13.352108">
        <ele>863.852</ele>
        <time>2018-09-06T11:25:50Z</time>
      </trkpt>
      <trkpt lat="46.239343" lon="13.352143">
        <ele>863.415</ele>
        <time>2018-09-06T11:25:51Z</time>
      </trkpt>
      <trkpt lat="46.239394" lon="13.352207">
        <ele>862.959</ele>
        <time>2018-09-06T11:25:52Z</time>
      </trkpt>
      <trkpt lat="46.239440" lon="13.352286">
        <ele>861.913</ele>
        <time>2018-09-06T11:25:53Z</time>
      </trkpt>
      <trkpt lat="46.239485" lon="13.352372">
        <ele>861.443</ele>
        <time>2018-09-06T11:25:54Z</time>
      </trkpt>
      <trkpt lat="46.239532" lon="13.352458">
        <ele>860.507</ele>
        <time>2018-09-06T11:25:55Z</time>
      </trkpt>
      <trkpt lat="46.239587" lon="13.352539">
        <ele>859.508</ele>
        <time>2018-09-06T11:25:56Z</time>
      </trkpt>
      <trkpt lat="46.239837" lon="13.352842">
        <ele>856.685</ele>
        <time>2018-09-06T11:26:00Z</time>
      </trkpt>
      <trkpt lat="46.239890" lon="13.352934">
        <ele>855.727</ele>
        <time>2018-09-06T11:26:01Z</time>
      </trkpt>
      <trkpt lat="46.240094" lon="13.353310">
        <ele>852.353</ele>
        <time>2018-09-06T11:26:05Z</time>
      </trkpt>
      <trkpt lat="46.240201" lon="13.353486">
        <ele>850.479</ele>
        <time>2018-09-06T11:26:07Z</time>
      </trkpt>
      <trkpt lat="46.240246" lon="13.353588">
        <ele>849.410</ele>
        <time>2018-09-06T11:26:08Z</time>
      </trkpt>
      <trkpt lat="46.240383" lon="13.353972">
        <ele>846.160</ele>
        <time>2018-09-06T11:26:12Z</time>
      </trkpt>
      <trkpt lat="46.240425" lon="13.354022">
        <ele>845.173</ele>
        <time>2018-09-06T11:26:13Z</time>
      </trkpt>
      <trkpt lat="46.240479" lon="13.354039">
        <ele>844.637</ele>
        <time>2018-09-06T11:26:14Z</time>
      </trkpt>
      <trkpt lat="46.240534" lon="13.354020">
        <ele>843.632</ele>
        <time>2018-09-06T11:26:15Z</time>
      </trkpt>
      <trkpt lat="46.240585" lon="13.353976">
        <ele>843.292</ele>
        <time>2018-09-06T11:26:16Z</time>
      </trkpt>
      <trkpt lat="46.240634" lon="13.353921">
        <ele>842.711</ele>
        <time>2018-09-06T11:26:17Z</time>
      </trkpt>
      <trkpt lat="46.240892" lon="13.353588">
        <ele>839.808</ele>
        <time>2018-09-06T11:26:22Z</time>
      </trkpt>
      <trkpt lat="46.240939" lon="13.353534">
        <ele>838.817</ele>
        <time>2018-09-06T11:26:23Z</time>
      </trkpt>
      <trkpt lat="46.240986" lon="13.353489">
        <ele>838.479</ele>
        <time>2018-09-06T11:26:24Z</time>
      </trkpt>
      <trkpt lat="46.241039" lon="13.353468">
        <ele>837.945</ele>
        <time>2018-09-06T11:26:25Z</time>
      </trkpt>
      <trkpt lat="46.241094" lon="13.353476">
        <ele>837.451</ele>
        <time>2018-09-06T11:26:26Z</time>
      </trkpt>
      <trkpt lat="46.241146" lon="13.353520">
        <ele>836.922</ele>
        <time>2018-09-06T11:26:27Z</time>
      </trkpt>
      <trkpt lat="46.241191" lon="13.353587">
        <ele>836.482</ele>
        <time>2018-09-06T11:26:28Z</time>
      </trkpt>
      <trkpt lat="46.241239" lon="13.353664">
        <ele>836.055</ele>
        <time>2018-09-06T11:26:29Z</time>
      </trkpt>
      <trkpt lat="46.241688" lon="13.354231">
        <ele>833.129</ele>
        <time>2018-09-06T11:26:37Z</time>
      </trkpt>
      <trkpt lat="46.241751" lon="13.354223">
        <ele>833.197</ele>
        <time>2018-09-06T11:26:38Z</time>
      </trkpt>
      <trkpt lat="46.241806" lon="13.354176">
        <ele>833.623</ele>
        <time>2018-09-06T11:26:39Z</time>
      </trkpt>
      <trkpt lat="46.241851" lon="13.354107">
        <ele>833.625</ele>
        <time>2018-09-06T11:26:40Z</time>
      </trkpt>
      <trkpt lat="46.241892" lon="13.354031">
        <ele>833.608</ele>
        <time>2018-09-06T11:26:41Z</time>
      </trkpt>
      <trkpt lat="46.242276" lon="13.353381">
        <ele>830.793</ele>
        <time>2018-09-06T11:26:49Z</time>
      </trkpt>
      <trkpt lat="46.242324" lon="13.353331">
        <ele>830.785</ele>
        <time>2018-09-06T11:26:50Z</time>
      </trkpt>
      <trkpt lat="46.242376" lon="13.353327">
        <ele>830.271</ele>
        <time>2018-09-06T11:26:51Z</time>
      </trkpt>
      <trkpt lat="46.242422" lon="13.353372">
        <ele>830.297</ele>
        <time>2018-09-06T11:26:52Z</time>
      </trkpt>
      <trkpt lat="46.242458" lon="13.353440">
        <ele>829.758</ele>
        <time>2018-09-06T11:26:53Z</time>
      </trkpt>
      <trkpt lat="46.242489" lon="13.353524">
        <ele>829.298</ele>
        <time>2018-09-06T11:26:54Z</time>
      </trkpt>
      <trkpt lat="46.242514" lon="13.353608">
        <ele>829.281</ele>
        <time>2018-09-06T11:26:55Z</time>
      </trkpt>
      <trkpt lat="46.242553" lon="13.353773">
        <ele>828.785</ele>
        <time>2018-09-06T11:26:57Z</time>
      </trkpt>
      <trkpt lat="46.242555" lon="13.353851">
        <ele>828.747</ele>
        <time>2018-09-06T11:26:58Z</time>
      </trkpt>
      <trkpt lat="46.242542" lon="13.353919">
        <ele>828.329</ele>
        <time>2018-09-06T11:26:59Z</time>
      </trkpt>
      <trkpt lat="46.242474" lon="13.354195">
        <ele>826.321</ele>
        <time>2018-09-06T11:27:03Z</time>
      </trkpt>
      <trkpt lat="46.242461" lon="13.354336">
        <ele>825.408</ele>
        <time>2018-09-06T11:27:05Z</time>
      </trkpt>
      <trkpt lat="46.242462" lon="13.354406">
        <ele>825.478</ele>
        <time>2018-09-06T11:27:06Z</time>
      </trkpt>
      <trkpt lat="46.242464" lon="13.354473">
        <ele>824.970</ele>
        <time>2018-09-06T11:27:07Z</time>
      </trkpt>
      <trkpt lat="46.242466" lon="13.354674">
        <ele>823.556</ele>
        <time>2018-09-06T11:27:10Z</time>
      </trkpt>
      <trkpt lat="46.242470" lon="13.354733">
        <ele>823.532</ele>
        <time>2018-09-06T11:27:11Z</time>
      </trkpt>
      <trkpt lat="46.242447" lon="13.355268">
        <ele>823.963</ele>
        <time>2018-09-06T11:27:21Z</time>
      </trkpt>
      <trkpt lat="46.242322" lon="13.355763">
        <ele>823.533</ele>
        <time>2018-09-06T11:27:30Z</time>
      </trkpt>
      <trkpt lat="46.242309" lon="13.355834">
        <ele>823.566</ele>
        <time>2018-09-06T11:27:31Z</time>
      </trkpt>
      <trkpt lat="46.242297" lon="13.355902">
        <ele>823.570</ele>
        <time>2018-09-06T11:27:32Z</time>
      </trkpt>
      <trkpt lat="46.242293" lon="13.355975">
        <ele>823.996</ele>
        <time>2018-09-06T11:27:33Z</time>
      </trkpt>
      <trkpt lat="46.242297" lon="13.356050">
        <ele>823.931</ele>
        <time>2018-09-06T11:27:34Z</time>
      </trkpt>
      <trkpt lat="46.242317" lon="13.356119">
        <ele>823.924</ele>
        <time>2018-09-06T11:27:35Z</time>
      </trkpt>
      <trkpt lat="46.242353" lon="13.356168">
        <ele>824.408</ele>
        <time>2018-09-06T11:27:36Z</time>
      </trkpt>
      <trkpt lat="46.242404" lon="13.356189">
        <ele>824.413</ele>
        <time>2018-09-06T11:27:37Z</time>
      </trkpt>
      <trkpt lat="46.242456" lon="13.356178">
        <ele>824.465</ele>
        <time>2018-09-06T11:27:38Z</time>
      </trkpt>
      <trkpt lat="46.242505" lon="13.356151">
        <ele>824.491</ele>
        <time>2018-09-06T11:27:39Z</time>
      </trkpt>
      <trkpt lat="46.242557" lon="13.356119">
        <ele>824.447</ele>
        <time>2018-09-06T11:27:40Z</time>
      </trkpt>
      <trkpt lat="46.242719" lon="13.356015">
        <ele>825.428</ele>
        <time>2018-09-06T11:27:43Z</time>
      </trkpt>
      <trkpt lat="46.242772" lon="13.355996">
        <ele>825.938</ele>
        <time>2018-09-06T11:27:44Z</time>
      </trkpt>
      <trkpt lat="46.243030" lon="13.355935">
        <ele>827.871</ele>
        <time>2018-09-06T11:27:49Z</time>
      </trkpt>
      <trkpt lat="46.243083" lon="13.355912">
        <ele>827.855</ele>
        <time>2018-09-06T11:27:50Z</time>
      </trkpt>
      <trkpt lat="46.243136" lon="13.355876">
        <ele>828.356</ele>
        <time>2018-09-06T11:27:51Z</time>
      </trkpt>
      <trkpt lat="46.243185" lon="13.355826">
        <ele>828.359</ele>
        <time>2018-09-06T11:27:52Z</time>
      </trkpt>
      <trkpt lat="46.243232" lon="13.355769">
        <ele>828.314</ele>
        <time>2018-09-06T11:27:53Z</time>
      </trkpt>
      <trkpt lat="46.243278" lon="13.355706">
        <ele>828.708</ele>
        <time>2018-09-06T11:27:54Z</time>
      </trkpt>
      <trkpt lat="46.243517" lon="13.355333">
        <ele>827.389</ele>
        <time>2018-09-06T11:28:00Z</time>
      </trkpt>
      <trkpt lat="46.243558" lon="13.355304">
        <ele>826.881</ele>
        <time>2018-09-06T11:28:01Z</time>
      </trkpt>
      <trkpt lat="46.243603" lon="13.355307">
        <ele>826.337</ele>
        <time>2018-09-06T11:28:02Z</time>
      </trkpt>
      <trkpt lat="46.243651" lon="13.355345">
        <ele>825.483</ele>
        <time>2018-09-06T11:28:03Z</time>
      </trkpt>
      <trkpt lat="46.243692" lon="13.355404">
        <ele>824.474</ele>
        <time>2018-09-06T11:28:04Z</time>
      </trkpt>
      <trkpt lat="46.243730" lon="13.355468">
        <ele>823.564</ele>
        <time>2018-09-06T11:28:05Z</time>
      </trkpt>
      <trkpt lat="46.243765" lon="13.355533">
        <ele>823.027</ele>
        <time>2018-09-06T11:28:06Z</time>
      </trkpt>
      <trkpt lat="46.243914" lon="13.355826">
        <ele>820.131</ele>
        <time>2018-09-06T11:28:10Z</time>
      </trkpt>
      <trkpt lat="46.243942" lon="13.355909">
        <ele>819.645</ele>
        <time>2018-09-06T11:28:11Z</time>
      </trkpt>
      <trkpt lat="46.243965" lon="13.356001">
        <ele>819.147</ele>
        <time>2018-09-06T11:28:12Z</time>
      </trkpt>
      <trkpt lat="46.244033" lon="13.356269">
        <ele>816.711</ele>
        <time>2018-09-06T11:28:15Z</time>
      </trkpt>
      <trkpt lat="46.244068" lon="13.356350">
        <ele>816.308</ele>
        <time>2018-09-06T11:28:16Z</time>
      </trkpt>
      <trkpt lat="46.244112" lon="13.356428">
        <ele>815.898</ele>
        <time>2018-09-06T11:28:17Z</time>
      </trkpt>
      <trkpt lat="46.244473" lon="13.356886">
        <ele>813.460</ele>
        <time>2018-09-06T11:28:24Z</time>
      </trkpt>
      <trkpt lat="46.244531" lon="13.356915">
        <ele>813.456</ele>
        <time>2018-09-06T11:28:25Z</time>
      </trkpt>
      <trkpt lat="46.244592" lon="13.356923">
        <ele>813.462</ele>
        <time>2018-09-06T11:28:26Z</time>
      </trkpt>
      <trkpt lat="46.244656" lon="13.356911">
        <ele>813.463</ele>
        <time>2018-09-06T11:28:27Z</time>
      </trkpt>
      <trkpt lat="46.244720" lon="13.356890">
        <ele>813.423</ele>
        <time>2018-09-06T11:28:28Z</time>
      </trkpt>
      <trkpt lat="46.244846" lon="13.356854">
        <ele>813.466</ele>
        <time>2018-09-06T11:28:30Z</time>
      </trkpt>
      <trkpt lat="46.244904" lon="13.356847">
        <ele>813.470</ele>
        <time>2018-09-06T11:28:31Z</time>
      </trkpt>
      <trkpt lat="46.244964" lon="13.356859">
        <ele>813.467</ele>
        <time>2018-09-06T11:28:32Z</time>
      </trkpt>
      <trkpt lat="46.245181" lon="13.356970">
        <ele>813.481</ele>
        <time>2018-09-06T11:28:36Z</time>
      </trkpt>
      <trkpt lat="46.245237" lon="13.356973">
        <ele>813.419</ele>
        <time>2018-09-06T11:28:37Z</time>
      </trkpt>
      <trkpt lat="46.245306" lon="13.356946">
        <ele>813.408</ele>
        <time>2018-09-06T11:28:38Z</time>
      </trkpt>
      <trkpt lat="46.245373" lon="13.356901">
        <ele>813.490</ele>
        <time>2018-09-06T11:28:39Z</time>
      </trkpt>
      <trkpt lat="46.245434" lon="13.356855">
        <ele>813.492</ele>
        <time>2018-09-06T11:28:40Z</time>
      </trkpt>
      <trkpt lat="46.245488" lon="13.356833">
        <ele>813.488</ele>
        <time>2018-09-06T11:28:41Z</time>
      </trkpt>
      <trkpt lat="46.245544" lon="13.356845">
        <ele>813.424</ele>
        <time>2018-09-06T11:28:42Z</time>
      </trkpt>
      <trkpt lat="46.245597" lon="13.356883">
        <ele>812.995</ele>
        <time>2018-09-06T11:28:43Z</time>
      </trkpt>
      <trkpt lat="46.245748" lon="13.357002">
        <ele>812.495</ele>
        <time>2018-09-06T11:28:46Z</time>
      </trkpt>
      <trkpt lat="46.245805" lon="13.357024">
        <ele>812.488</ele>
        <time>2018-09-06T11:28:47Z</time>
      </trkpt>
      <trkpt lat="46.245867" lon="13.357029">
        <ele>812.992</ele>
        <time>2018-09-06T11:28:48Z</time>
      </trkpt>
      <trkpt lat="46.245928" lon="13.357017">
        <ele>812.957</ele>
        <time>2018-09-06T11:28:49Z</time>
      </trkpt>
      <trkpt lat="46.245985" lon="13.356993">
        <ele>813.400</ele>
        <time>2018-09-06T11:28:50Z</time>
      </trkpt>
      <trkpt lat="46.246040" lon="13.356965">
        <ele>813.420</ele>
        <time>2018-09-06T11:28:51Z</time>
      </trkpt>
      <trkpt lat="46.246097" lon="13.356936">
        <ele>813.808</ele>
        <time>2018-09-06T11:28:52Z</time>
      </trkpt>
      <trkpt lat="46.246153" lon="13.356897">
        <ele>814.319</ele>
        <time>2018-09-06T11:28:53Z</time>
      </trkpt>
      <trkpt lat="46.246262" lon="13.356801">
        <ele>814.881</ele>
        <time>2018-09-06T11:28:55Z</time>
      </trkpt>
      <trkpt lat="46.246303" lon="13.356731">
        <ele>814.877</ele>
        <time>2018-09-06T11:28:56Z</time>
      </trkpt>
      <trkpt lat="46.246334" lon="13.356645">
        <ele>815.353</ele>
        <time>2018-09-06T11:28:57Z</time>
      </trkpt>
      <trkpt lat="46.246360" lon="13.356556">
        <ele>815.394</ele>
        <time>2018-09-06T11:28:58Z</time>
      </trkpt>
      <trkpt lat="46.246386" lon="13.356463">
        <ele>815.374</ele>
        <time>2018-09-06T11:28:59Z</time>
      </trkpt>
      <trkpt lat="46.246407" lon="13.356374">
        <ele>815.327</ele>
        <time>2018-09-06T11:29:00Z</time>
      </trkpt>
      <trkpt lat="46.246428" lon="13.356282">
        <ele>814.841</ele>
        <time>2018-09-06T11:29:01Z</time>
      </trkpt>
      <trkpt lat="46.246457" lon="13.356188">
        <ele>814.381</ele>
        <time>2018-09-06T11:29:02Z</time>
      </trkpt>
      <trkpt lat="46.246494" lon="13.356095">
        <ele>813.861</ele>
        <time>2018-09-06T11:29:03Z</time>
      </trkpt>
      <trkpt lat="46.246537" lon="13.356006">
        <ele>812.917</ele>
        <time>2018-09-06T11:29:04Z</time>
      </trkpt>
      <trkpt lat="46.246583" lon="13.355920">
        <ele>812.408</ele>
        <time>2018-09-06T11:29:05Z</time>
      </trkpt>
      <trkpt lat="46.246827" lon="13.355356">
        <ele>805.772</ele>
        <time>2018-09-06T11:29:11Z</time>
      </trkpt>
      <trkpt lat="46.246852" lon="13.355255">
        <ele>804.774</ele>
        <time>2018-09-06T11:29:12Z</time>
      </trkpt>
      <trkpt lat="46.246898" lon="13.355072">
        <ele>801.880</ele>
        <time>2018-09-06T11:29:14Z</time>
      </trkpt>
      <trkpt lat="46.246937" lon="13.355020">
        <ele>800.426</ele>
        <time>2018-09-06T11:29:15Z</time>
      </trkpt>
      <trkpt lat="46.246988" lon="13.355005">
        <ele>798.957</ele>
        <time>2018-09-06T11:29:16Z</time>
      </trkpt>
      <trkpt lat="46.247033" lon="13.355030">
        <ele>798.027</ele>
        <time>2018-09-06T11:29:17Z</time>
      </trkpt>
      <trkpt lat="46.247069" lon="13.355094">
        <ele>797.010</ele>
        <time>2018-09-06T11:29:18Z</time>
      </trkpt>
      <trkpt lat="46.247097" lon="13.355169">
        <ele>795.684</ele>
        <time>2018-09-06T11:29:19Z</time>
      </trkpt>
      <trkpt lat="46.247121" lon="13.355253">
        <ele>794.617</ele>
        <time>2018-09-06T11:29:20Z</time>
      </trkpt>
      <trkpt lat="46.247261" lon="13.355714">
        <ele>787.987</ele>
        <time>2018-09-06T11:29:25Z</time>
      </trkpt>
      <trkpt lat="46.247305" lon="13.355809">
        <ele>786.915</ele>
        <time>2018-09-06T11:29:26Z</time>
      </trkpt>
      <trkpt lat="46.247349" lon="13.355890">
        <ele>785.508</ele>
        <time>2018-09-06T11:29:27Z</time>
      </trkpt>
      <trkpt lat="46.247400" lon="13.355972">
        <ele>784.555</ele>
        <time>2018-09-06T11:29:28Z</time>
      </trkpt>
      <trkpt lat="46.247457" lon="13.356050">
        <ele>783.657</ele>
        <time>2018-09-06T11:29:29Z</time>
      </trkpt>
      <trkpt lat="46.247519" lon="13.356113">
        <ele>783.183</ele>
        <time>2018-09-06T11:29:30Z</time>
      </trkpt>
      <trkpt lat="46.247585" lon="13.356168">
        <ele>782.169</ele>
        <time>2018-09-06T11:29:31Z</time>
      </trkpt>
      <trkpt lat="46.247996" lon="13.356448">
        <ele>777.310</ele>
        <time>2018-09-06T11:29:37Z</time>
      </trkpt>
      <trkpt lat="46.248722" lon="13.356701">
        <ele>772.090</ele>
        <time>2018-09-06T11:29:48Z</time>
      </trkpt>
      <trkpt lat="46.248864" lon="13.356773">
        <ele>770.693</ele>
        <time>2018-09-06T11:29:56Z</time>
      </trkpt>
      <trkpt lat="46.249096" lon="13.356975">
        <ele>770.187</ele>
        <time>2018-09-06T11:30:08Z</time>
      </trkpt>
      <trkpt lat="46.249583" lon="13.357362">
        <ele>767.731</ele>
        <time>2018-09-06T11:30:17Z</time>
      </trkpt>
      <trkpt lat="46.249716" lon="13.357454">
        <ele>766.361</ele>
        <time>2018-09-06T11:30:19Z</time>
      </trkpt>
      <trkpt lat="46.249888" lon="13.357592">
        <ele>765.307</ele>
        <time>2018-09-06T11:30:22Z</time>
      </trkpt>
      <trkpt lat="46.249938" lon="13.357611">
        <ele>765.308</ele>
        <time>2018-09-06T11:30:23Z</time>
      </trkpt>
      <trkpt lat="46.249987" lon="13.357609">
        <ele>764.877</ele>
        <time>2018-09-06T11:30:24Z</time>
      </trkpt>
      <trkpt lat="46.250031" lon="13.357584">
        <ele>764.839</ele>
        <time>2018-09-06T11:30:25Z</time>
      </trkpt>
      <trkpt lat="46.250066" lon="13.357534">
        <ele>764.825</ele>
        <time>2018-09-06T11:30:26Z</time>
      </trkpt>
      <trkpt lat="46.250095" lon="13.357468">
        <ele>764.371</ele>
        <time>2018-09-06T11:30:27Z</time>
      </trkpt>
      <trkpt lat="46.250122" lon="13.357401">
        <ele>764.342</ele>
        <time>2018-09-06T11:30:28Z</time>
      </trkpt>
      <trkpt lat="46.250154" lon="13.357346">
        <ele>763.962</ele>
        <time>2018-09-06T11:30:29Z</time>
      </trkpt>
      <trkpt lat="46.250196" lon="13.357317">
        <ele>763.945</ele>
        <time>2018-09-06T11:30:30Z</time>
      </trkpt>
      <trkpt lat="46.250245" lon="13.357313">
        <ele>763.929</ele>
        <time>2018-09-06T11:30:31Z</time>
      </trkpt>
      <trkpt lat="46.250288" lon="13.357326">
        <ele>763.478</ele>
        <time>2018-09-06T11:30:32Z</time>
      </trkpt>
      <trkpt lat="46.250330" lon="13.357349">
        <ele>763.433</ele>
        <time>2018-09-06T11:30:33Z</time>
      </trkpt>
      <trkpt lat="46.250370" lon="13.357375">
        <ele>763.426</ele>
        <time>2018-09-06T11:30:34Z</time>
      </trkpt>
      <trkpt lat="46.250732" lon="13.357576">
        <ele>762.408</ele>
        <time>2018-09-06T11:30:43Z</time>
      </trkpt>
      <trkpt lat="46.251112" lon="13.357808">
        <ele>760.081</ele>
        <time>2018-09-06T11:30:51Z</time>
      </trkpt>
      <trkpt lat="46.251159" lon="13.357825">
        <ele>759.543</ele>
        <time>2018-09-06T11:30:52Z</time>
      </trkpt>
      <trkpt lat="46.251203" lon="13.357843">
        <ele>759.579</ele>
        <time>2018-09-06T11:30:53Z</time>
      </trkpt>
      <trkpt lat="46.251363" lon="13.357920">
        <ele>759.135</ele>
        <time>2018-09-06T11:30:56Z</time>
      </trkpt>
      <trkpt lat="46.251426" lon="13.357931">
        <ele>758.626</ele>
        <time>2018-09-06T11:30:57Z</time>
      </trkpt>
      <trkpt lat="46.251604" lon="13.357939">
        <ele>759.566</ele>
        <time>2018-09-06T11:31:00Z</time>
      </trkpt>
      <trkpt lat="46.251668" lon="13.357928">
        <ele>760.089</ele>
        <time>2018-09-06T11:31:01Z</time>
      </trkpt>
      <trkpt lat="46.251798" lon="13.357886">
        <ele>761.023</ele>
        <time>2018-09-06T11:31:03Z</time>
      </trkpt>
      <trkpt lat="46.251962" lon="13.357804">
        <ele>761.971</ele>
        <time>2018-09-06T11:31:06Z</time>
      </trkpt>
      <trkpt lat="46.252010" lon="13.357771">
        <ele>762.441</ele>
        <time>2018-09-06T11:31:07Z</time>
      </trkpt>
      <trkpt lat="46.252093" lon="13.357713">
        <ele>762.915</ele>
        <time>2018-09-06T11:31:09Z</time>
      </trkpt>
      <trkpt lat="46.252136" lon="13.357684">
        <ele>763.408</ele>
        <time>2018-09-06T11:31:10Z</time>
      </trkpt>
      <trkpt lat="46.252177" lon="13.357655">
        <ele>763.911</ele>
        <time>2018-09-06T11:31:11Z</time>
      </trkpt>
      <trkpt lat="46.252221" lon="13.357629">
        <ele>764.343</ele>
        <time>2018-09-06T11:31:12Z</time>
      </trkpt>
      <trkpt lat="46.252267" lon="13.357599">
        <ele>764.839</ele>
        <time>2018-09-06T11:31:13Z</time>
      </trkpt>
      <trkpt lat="46.252311" lon="13.357565">
        <ele>765.395</ele>
        <time>2018-09-06T11:31:14Z</time>
      </trkpt>
      <trkpt lat="46.252354" lon="13.357527">
        <ele>765.386</ele>
        <time>2018-09-06T11:31:15Z</time>
      </trkpt>
      <trkpt lat="46.252934" lon="13.357035">
        <ele>766.796</ele>
        <time>2018-09-06T11:31:30Z</time>
      </trkpt>
      <trkpt lat="46.253023" lon="13.356930">
        <ele>767.279</ele>
        <time>2018-09-06T11:31:33Z</time>
      </trkpt>
      <trkpt lat="46.253237" lon="13.356343">
        <ele>771.123</ele>
        <time>2018-09-06T11:31:47Z</time>
      </trkpt>
      <trkpt lat="46.253387" lon="13.355704">
        <ele>764.317</ele>
        <time>2018-09-06T11:32:04Z</time>
      </trkpt>
      <trkpt lat="46.253480" lon="13.355205">
        <ele>763.487</ele>
        <time>2018-09-06T11:32:18Z</time>
      </trkpt>
      <trkpt lat="46.253694" lon="13.354874">
        <ele>764.315</ele>
        <time>2018-09-06T11:32:30Z</time>
      </trkpt>
      <trkpt lat="46.253932" lon="13.354336">
        <ele>767.708</ele>
        <time>2018-09-06T11:32:45Z</time>
      </trkpt>
      <trkpt lat="46.254214" lon="13.353983">
        <ele>767.225</ele>
        <time>2018-09-06T11:32:59Z</time>
      </trkpt>
      <trkpt lat="46.254322" lon="13.354004">
        <ele>767.237</ele>
        <time>2018-09-06T11:33:03Z</time>
      </trkpt>
      <trkpt lat="46.254344" lon="13.354029">
        <ele>767.233</ele>
        <time>2018-09-06T11:33:04Z</time>
      </trkpt>
      <trkpt lat="46.254362" lon="13.354058">
        <ele>767.269</ele>
        <time>2018-09-06T11:33:05Z</time>
      </trkpt>
      <trkpt lat="46.254375" lon="13.354092">
        <ele>767.220</ele>
        <time>2018-09-06T11:33:06Z</time>
      </trkpt>
      <trkpt lat="46.254383" lon="13.354130">
        <ele>767.230</ele>
        <time>2018-09-06T11:33:07Z</time>
      </trkpt>
      <trkpt lat="46.254537" lon="13.354571">
        <ele>767.753</ele>
        <time>2018-09-06T11:33:22Z</time>
      </trkpt>
      <trkpt lat="46.254848" lon="13.354574">
        <ele>772.037</ele>
        <time>2018-09-06T11:33:35Z</time>
      </trkpt>
      <trkpt lat="46.255133" lon="13.354727">
        <ele>772.581</ele>
        <time>2018-09-06T11:33:47Z</time>
      </trkpt>
      <trkpt lat="46.255461" lon="13.354763">
        <ele>771.661</ele>
        <time>2018-09-06T11:33:57Z</time>
      </trkpt>
      <trkpt lat="46.255496" lon="13.354735">
        <ele>771.617</ele>
        <time>2018-09-06T11:33:58Z</time>
      </trkpt>
      <trkpt lat="46.255534" lon="13.354708">
        <ele>771.608</ele>
        <time>2018-09-06T11:33:59Z</time>
      </trkpt>
      <trkpt lat="46.255752" lon="13.354535">
        <ele>770.622</ele>
        <time>2018-09-06T11:34:05Z</time>
      </trkpt>
      <trkpt lat="46.255789" lon="13.354498">
        <ele>770.634</ele>
        <time>2018-09-06T11:34:06Z</time>
      </trkpt>
      <trkpt lat="46.255894" lon="13.354378">
        <ele>769.680</ele>
        <time>2018-09-06T11:34:09Z</time>
      </trkpt>
      <trkpt lat="46.255921" lon="13.354331">
        <ele>769.616</ele>
        <time>2018-09-06T11:34:10Z</time>
      </trkpt>
      <trkpt lat="46.256277" lon="13.353775">
        <ele>769.677</ele>
        <time>2018-09-06T11:34:22Z</time>
      </trkpt>
      <trkpt lat="46.256327" lon="13.353730">
        <ele>769.157</ele>
        <time>2018-09-06T11:34:23Z</time>
      </trkpt>
      <trkpt lat="46.256475" lon="13.353604">
        <ele>768.790</ele>
        <time>2018-09-06T11:34:26Z</time>
      </trkpt>
      <trkpt lat="46.256553" lon="13.353504">
        <ele>768.714</ele>
        <time>2018-09-06T11:34:28Z</time>
      </trkpt>
      <trkpt lat="46.256585" lon="13.353445">
        <ele>768.769</ele>
        <time>2018-09-06T11:34:29Z</time>
      </trkpt>
      <trkpt lat="46.256641" lon="13.353332">
        <ele>768.704</ele>
        <time>2018-09-06T11:34:31Z</time>
      </trkpt>
      <trkpt lat="46.256668" lon="13.353281">
        <ele>768.724</ele>
        <time>2018-09-06T11:34:32Z</time>
      </trkpt>
      <trkpt lat="46.256738" lon="13.353124">
        <ele>768.208</ele>
        <time>2018-09-06T11:34:35Z</time>
      </trkpt>
      <trkpt lat="46.256754" lon="13.353062">
        <ele>767.720</ele>
        <time>2018-09-06T11:34:36Z</time>
      </trkpt>
      <trkpt lat="46.256787" lon="13.352866">
        <ele>767.712</ele>
        <time>2018-09-06T11:34:39Z</time>
      </trkpt>
      <trkpt lat="46.256793" lon="13.352791">
        <ele>767.798</ele>
        <time>2018-09-06T11:34:40Z</time>
      </trkpt>
      <trkpt lat="46.256801" lon="13.352714">
        <ele>767.274</ele>
        <time>2018-09-06T11:34:41Z</time>
      </trkpt>
      <trkpt lat="46.256844" lon="13.352447">
        <ele>765.835</ele>
        <time>2018-09-06T11:34:44Z</time>
      </trkpt>
      <trkpt lat="46.256919" lon="13.352179">
        <ele>763.915</ele>
        <time>2018-09-06T11:34:47Z</time>
      </trkpt>
      <trkpt lat="46.256957" lon="13.352097">
        <ele>762.938</ele>
        <time>2018-09-06T11:34:48Z</time>
      </trkpt>
      <trkpt lat="46.257000" lon="13.352020">
        <ele>762.472</ele>
        <time>2018-09-06T11:34:49Z</time>
      </trkpt>
      <trkpt lat="46.257703" lon="13.351129">
        <ele>758.145</ele>
        <time>2018-09-06T11:35:02Z</time>
      </trkpt>
      <trkpt lat="46.257749" lon="13.351066">
        <ele>758.647</ele>
        <time>2018-09-06T11:35:03Z</time>
      </trkpt>
      <trkpt lat="46.257919" lon="13.350805">
        <ele>758.111</ele>
        <time>2018-09-06T11:35:07Z</time>
      </trkpt>
      <trkpt lat="46.258005" lon="13.350683">
        <ele>758.108</ele>
        <time>2018-09-06T11:35:09Z</time>
      </trkpt>
      <trkpt lat="46.258165" lon="13.350392">
        <ele>758.178</ele>
        <time>2018-09-06T11:35:17Z</time>
      </trkpt>
      <trkpt lat="46.258171" lon="13.350367">
        <ele>758.150</ele>
        <time>2018-09-06T11:35:41Z</time>
      </trkpt>
      <trkpt lat="46.258228" lon="13.350341">
        <ele>757.656</ele>
        <time>2018-09-06T11:35:45Z</time>
      </trkpt>
      <trkpt lat="46.258546" lon="13.350537">
        <ele>759.162</ele>
        <time>2018-09-06T11:35:59Z</time>
      </trkpt>
      <trkpt lat="46.258791" lon="13.350957">
        <ele>761.523</ele>
        <time>2018-09-06T11:36:15Z</time>
      </trkpt>
      <trkpt lat="46.259003" lon="13.351304">
        <ele>763.413</ele>
        <time>2018-09-06T11:36:30Z</time>
      </trkpt>
      <trkpt lat="46.259087" lon="13.351469">
        <ele>765.856</ele>
        <time>2018-09-06T11:36:46Z</time>
      </trkpt>
      <trkpt lat="46.259107" lon="13.351516">
        <ele>766.390</ele>
        <time>2018-09-06T11:37:02Z</time>
      </trkpt>
      <trkpt lat="46.259115" lon="13.351521">
        <ele>767.264</ele>
        <time>2018-09-06T11:37:15Z</time>
      </trkpt>
      <trkpt lat="46.259127" lon="13.351517">
        <ele>767.706</ele>
        <time>2018-09-06T11:37:16Z</time>
      </trkpt>
      <trkpt lat="46.259139" lon="13.351500">
        <ele>767.716</ele>
        <time>2018-09-06T11:37:17Z</time>
      </trkpt>
      <trkpt lat="46.259146" lon="13.351474">
        <ele>767.708</ele>
        <time>2018-09-06T11:37:18Z</time>
      </trkpt>
      <trkpt lat="46.259149" lon="13.351438">
        <ele>767.750</ele>
        <time>2018-09-06T11:37:19Z</time>
      </trkpt>
      <trkpt lat="46.259153" lon="13.351412">
        <ele>767.782</ele>
        <time>2018-09-06T11:37:20Z</time>
      </trkpt>
      <trkpt lat="46.259163" lon="13.351374">
        <ele>767.728</ele>
        <time>2018-09-06T11:37:21Z</time>
      </trkpt>
      <trkpt lat="46.259176" lon="13.351334">
        <ele>767.734</ele>
        <time>2018-09-06T11:37:22Z</time>
      </trkpt>
      <trkpt lat="46.259187" lon="13.351292">
        <ele>767.275</ele>
        <time>2018-09-06T11:37:23Z</time>
      </trkpt>
      <trkpt lat="46.259246" lon="13.351092">
        <ele>766.365</ele>
        <time>2018-09-06T11:37:27Z</time>
      </trkpt>
      <trkpt lat="46.259449" lon="13.350518">
        <ele>762.998</ele>
        <time>2018-09-06T11:37:35Z</time>
      </trkpt>
      <trkpt lat="46.259774" lon="13.349033">
        <ele>755.292</ele>
        <time>2018-09-06T11:37:48Z</time>
      </trkpt>
      <trkpt lat="46.260290" lon="13.347708">
        <ele>747.015</ele>
        <time>2018-09-06T11:37:59Z</time>
      </trkpt>
      <trkpt lat="46.260322" lon="13.347578">
        <ele>746.665</ele>
        <time>2018-09-06T11:38:00Z</time>
      </trkpt>
      <trkpt lat="46.260340" lon="13.347447">
        <ele>746.111</ele>
        <time>2018-09-06T11:38:01Z</time>
      </trkpt>
      <trkpt lat="46.260437" lon="13.346634">
        <ele>741.708</ele>
        <time>2018-09-06T11:38:07Z</time>
      </trkpt>
      <trkpt lat="46.260476" lon="13.346507">
        <ele>740.835</ele>
        <time>2018-09-06T11:38:08Z</time>
      </trkpt>
      <trkpt lat="46.260527" lon="13.346388">
        <ele>740.387</ele>
        <time>2018-09-06T11:38:09Z</time>
      </trkpt>
      <trkpt lat="46.260589" lon="13.346270">
        <ele>739.333</ele>
        <time>2018-09-06T11:38:10Z</time>
      </trkpt>
      <trkpt lat="46.260646" lon="13.346154">
        <ele>738.439</ele>
        <time>2018-09-06T11:38:11Z</time>
      </trkpt>
      <trkpt lat="46.260686" lon="13.346023">
        <ele>737.970</ele>
        <time>2018-09-06T11:38:12Z</time>
      </trkpt>
      <trkpt lat="46.260703" lon="13.345879">
        <ele>736.990</ele>
        <time>2018-09-06T11:38:13Z</time>
      </trkpt>
      <trkpt lat="46.260707" lon="13.345727">
        <ele>736.533</ele>
        <time>2018-09-06T11:38:14Z</time>
      </trkpt>
      <trkpt lat="46.260712" lon="13.345583">
        <ele>736.077</ele>
        <time>2018-09-06T11:38:15Z</time>
      </trkpt>
      <trkpt lat="46.260723" lon="13.345435">
        <ele>735.026</ele>
        <time>2018-09-06T11:38:16Z</time>
      </trkpt>
      <trkpt lat="46.260744" lon="13.345298">
        <ele>734.547</ele>
        <time>2018-09-06T11:38:17Z</time>
      </trkpt>
      <trkpt lat="46.260777" lon="13.345158">
        <ele>733.611</ele>
        <time>2018-09-06T11:38:18Z</time>
      </trkpt>
      <trkpt lat="46.260817" lon="13.345014">
        <ele>732.608</ele>
        <time>2018-09-06T11:38:19Z</time>
      </trkpt>
      <trkpt lat="46.261007" lon="13.344475">
        <ele>729.346</ele>
        <time>2018-09-06T11:38:23Z</time>
      </trkpt>
      <trkpt lat="46.261835" lon="13.343111">
        <ele>722.548</ele>
        <time>2018-09-06T11:38:35Z</time>
      </trkpt>
      <trkpt lat="46.262501" lon="13.341600">
        <ele>716.364</ele>
        <time>2018-09-06T11:38:47Z</time>
      </trkpt>
      <trkpt lat="46.262888" lon="13.340744">
        <ele>712.950</ele>
        <time>2018-09-06T11:38:54Z</time>
      </trkpt>
      <trkpt lat="46.262924" lon="13.340610">
        <ele>712.451</ele>
        <time>2018-09-06T11:38:55Z</time>
      </trkpt>
      <trkpt lat="46.262952" lon="13.340467">
        <ele>711.981</ele>
        <time>2018-09-06T11:38:56Z</time>
      </trkpt>
      <trkpt lat="46.263063" lon="13.339776">
        <ele>708.164</ele>
        <time>2018-09-06T11:39:01Z</time>
      </trkpt>
      <trkpt lat="46.263071" lon="13.339663">
        <ele>707.668</ele>
        <time>2018-09-06T11:39:02Z</time>
      </trkpt>
      <trkpt lat="46.263061" lon="13.339557">
        <ele>706.781</ele>
        <time>2018-09-06T11:39:03Z</time>
      </trkpt>
      <trkpt lat="46.263024" lon="13.339466">
        <ele>706.261</ele>
        <time>2018-09-06T11:39:04Z</time>
      </trkpt>
      <trkpt lat="46.262960" lon="13.339403">
        <ele>705.717</ele>
        <time>2018-09-06T11:39:05Z</time>
      </trkpt>
      <trkpt lat="46.262882" lon="13.339367">
        <ele>705.208</ele>
        <time>2018-09-06T11:39:06Z</time>
      </trkpt>
      <trkpt lat="46.262801" lon="13.339342">
        <ele>704.772</ele>
        <time>2018-09-06T11:39:07Z</time>
      </trkpt>
      <trkpt lat="46.262534" lon="13.339297">
        <ele>702.394</ele>
        <time>2018-09-06T11:39:10Z</time>
      </trkpt>
      <trkpt lat="46.262453" lon="13.339291">
        <ele>701.950</ele>
        <time>2018-09-06T11:39:11Z</time>
      </trkpt>
      <trkpt lat="46.262376" lon="13.339264">
        <ele>700.926</ele>
        <time>2018-09-06T11:39:12Z</time>
      </trkpt>
      <trkpt lat="46.262317" lon="13.339201">
        <ele>700.497</ele>
        <time>2018-09-06T11:39:13Z</time>
      </trkpt>
      <trkpt lat="46.262290" lon="13.339105">
        <ele>699.537</ele>
        <time>2018-09-06T11:39:14Z</time>
      </trkpt>
      <trkpt lat="46.262300" lon="13.338997">
        <ele>699.040</ele>
        <time>2018-09-06T11:39:15Z</time>
      </trkpt>
      <trkpt lat="46.262330" lon="13.338891">
        <ele>698.584</ele>
        <time>2018-09-06T11:39:16Z</time>
      </trkpt>
      <trkpt lat="46.262361" lon="13.338784">
        <ele>698.017</ele>
        <time>2018-09-06T11:39:17Z</time>
      </trkpt>
      <trkpt lat="46.262704" lon="13.337568">
        <ele>690.387</ele>
        <time>2018-09-06T11:39:27Z</time>
      </trkpt>
      <trkpt lat="46.262697" lon="13.337462">
        <ele>689.415</ele>
        <time>2018-09-06T11:39:28Z</time>
      </trkpt>
      <trkpt lat="46.262651" lon="13.337380">
        <ele>688.408</ele>
        <time>2018-09-06T11:39:29Z</time>
      </trkpt>
      <trkpt lat="46.262577" lon="13.337339">
        <ele>687.925</ele>
        <time>2018-09-06T11:39:30Z</time>
      </trkpt>
      <trkpt lat="46.262493" lon="13.337343">
        <ele>687.097</ele>
        <time>2018-09-06T11:39:31Z</time>
      </trkpt>
      <trkpt lat="46.262405" lon="13.337366">
        <ele>686.053</ele>
        <time>2018-09-06T11:39:32Z</time>
      </trkpt>
      <trkpt lat="46.261275" lon="13.337406">
        <ele>675.489</ele>
        <time>2018-09-06T11:39:43Z</time>
      </trkpt>
      <trkpt lat="46.260048" lon="13.337374">
        <ele>663.460</ele>
        <time>2018-09-06T11:39:55Z</time>
      </trkpt>
      <trkpt lat="46.259962" lon="13.337412">
        <ele>662.490</ele>
        <time>2018-09-06T11:39:56Z</time>
      </trkpt>
      <trkpt lat="46.259882" lon="13.337473">
        <ele>661.563</ele>
        <time>2018-09-06T11:39:57Z</time>
      </trkpt>
      <trkpt lat="46.259808" lon="13.337550">
        <ele>660.547</ele>
        <time>2018-09-06T11:39:58Z</time>
      </trkpt>
      <trkpt lat="46.259740" lon="13.337639">
        <ele>659.684</ele>
        <time>2018-09-06T11:39:59Z</time>
      </trkpt>
      <trkpt lat="46.259676" lon="13.337739">
        <ele>658.107</ele>
        <time>2018-09-06T11:40:00Z</time>
      </trkpt>
      <trkpt lat="46.259613" lon="13.337849">
        <ele>656.717</ele>
        <time>2018-09-06T11:40:01Z</time>
      </trkpt>
      <trkpt lat="46.259551" lon="13.337965">
        <ele>655.708</ele>
        <time>2018-09-06T11:40:02Z</time>
      </trkpt>
      <trkpt lat="46.259384" lon="13.338330">
        <ele>651.922</ele>
        <time>2018-09-06T11:40:05Z</time>
      </trkpt>
      <trkpt lat="46.259314" lon="13.338441">
        <ele>650.994</ele>
        <time>2018-09-06T11:40:06Z</time>
      </trkpt>
      <trkpt lat="46.259232" lon="13.338533">
        <ele>649.970</ele>
        <time>2018-09-06T11:40:07Z</time>
      </trkpt>
      <trkpt lat="46.259050" lon="13.338689">
        <ele>648.536</ele>
        <time>2018-09-06T11:40:09Z</time>
      </trkpt>
      <trkpt lat="46.258953" lon="13.338740">
        <ele>647.557</ele>
        <time>2018-09-06T11:40:10Z</time>
      </trkpt>
      <trkpt lat="46.258860" lon="13.338769">
        <ele>647.117</ele>
        <time>2018-09-06T11:40:11Z</time>
      </trkpt>
      <trkpt lat="46.258758" lon="13.338773">
        <ele>646.150</ele>
        <time>2018-09-06T11:40:12Z</time>
      </trkpt>
      <trkpt lat="46.258647" lon="13.338763">
        <ele>645.644</ele>
        <time>2018-09-06T11:40:13Z</time>
      </trkpt>
      <trkpt lat="46.258089" lon="13.338809">
        <ele>642.332</ele>
        <time>2018-09-06T11:40:18Z</time>
      </trkpt>
      <trkpt lat="46.257775" lon="13.338922">
        <ele>640.392</ele>
        <time>2018-09-06T11:40:21Z</time>
      </trkpt>
      <trkpt lat="46.257665" lon="13.338930">
        <ele>639.811</ele>
        <time>2018-09-06T11:40:22Z</time>
      </trkpt>
      <trkpt lat="46.257132" lon="13.338808">
        <ele>637.908</ele>
        <time>2018-09-06T11:40:28Z</time>
      </trkpt>
      <trkpt lat="46.257091" lon="13.338775">
        <ele>638.497</ele>
        <time>2018-09-06T11:40:29Z</time>
      </trkpt>
      <trkpt lat="46.257064" lon="13.338746">
        <ele>638.999</ele>
        <time>2018-09-06T11:40:30Z</time>
      </trkpt>
      <trkpt lat="46.257036" lon="13.338699">
        <ele>639.855</ele>
        <time>2018-09-06T11:40:32Z</time>
      </trkpt>
      <trkpt lat="46.257037" lon="13.338627">
        <ele>640.891</ele>
        <time>2018-09-06T11:40:46Z</time>
      </trkpt>
      <trkpt lat="46.257062" lon="13.338620">
        <ele>641.812</ele>
        <time>2018-09-06T11:40:59Z</time>
      </trkpt>
      <trkpt lat="46.257077" lon="13.338630">
        <ele>641.822</ele>
        <time>2018-09-06T11:41:00Z</time>
      </trkpt>
      <trkpt lat="46.257343" lon="13.338733">
        <ele>639.875</ele>
        <time>2018-09-06T11:41:12Z</time>
      </trkpt>
      <trkpt lat="46.257639" lon="13.338698">
        <ele>639.489</ele>
        <time>2018-09-06T11:41:26Z</time>
      </trkpt>
      <trkpt lat="46.257912" lon="13.338456">
        <ele>637.067</ele>
        <time>2018-09-06T11:41:35Z</time>
      </trkpt>
      <trkpt lat="46.258083" lon="13.338330">
        <ele>636.081</ele>
        <time>2018-09-06T11:41:39Z</time>
      </trkpt>
      <trkpt lat="46.258126" lon="13.338306">
        <ele>635.519</ele>
        <time>2018-09-06T11:41:40Z</time>
      </trkpt>
      <trkpt lat="46.258169" lon="13.338288">
        <ele>635.508</ele>
        <time>2018-09-06T11:41:41Z</time>
      </trkpt>
      <trkpt lat="46.258347" lon="13.338243">
        <ele>633.610</ele>
        <time>2018-09-06T11:41:45Z</time>
      </trkpt>
      <trkpt lat="46.258393" lon="13.338237">
        <ele>633.152</ele>
        <time>2018-09-06T11:41:46Z</time>
      </trkpt>
      <trkpt lat="46.258610" lon="13.338186">
        <ele>632.688</ele>
        <time>2018-09-06T11:41:51Z</time>
      </trkpt>
      <trkpt lat="46.258641" lon="13.338147">
        <ele>632.634</ele>
        <time>2018-09-06T11:41:52Z</time>
      </trkpt>
      <trkpt lat="46.258660" lon="13.338088">
        <ele>632.255</ele>
        <time>2018-09-06T11:41:53Z</time>
      </trkpt>
      <trkpt lat="46.258679" lon="13.338034">
        <ele>632.265</ele>
        <time>2018-09-06T11:41:54Z</time>
      </trkpt>
      <trkpt lat="46.258707" lon="13.337984">
        <ele>632.278</ele>
        <time>2018-09-06T11:41:55Z</time>
      </trkpt>
      <trkpt lat="46.258747" lon="13.337944">
        <ele>632.272</ele>
        <time>2018-09-06T11:41:56Z</time>
      </trkpt>
      <trkpt lat="46.258791" lon="13.337916">
        <ele>631.776</ele>
        <time>2018-09-06T11:41:57Z</time>
      </trkpt>
      <trkpt lat="46.258836" lon="13.337882">
        <ele>631.790</ele>
        <time>2018-09-06T11:41:58Z</time>
      </trkpt>
      <trkpt lat="46.258875" lon="13.337834">
        <ele>631.719</ele>
        <time>2018-09-06T11:41:59Z</time>
      </trkpt>
      <trkpt lat="46.258901" lon="13.337780">
        <ele>631.208</ele>
        <time>2018-09-06T11:42:00Z</time>
      </trkpt>
      <trkpt lat="46.258922" lon="13.337722">
        <ele>631.241</ele>
        <time>2018-09-06T11:42:01Z</time>
      </trkpt>
      <trkpt lat="46.258939" lon="13.337658">
        <ele>631.243</ele>
        <time>2018-09-06T11:42:02Z</time>
      </trkpt>
      <trkpt lat="46.258959" lon="13.337595">
        <ele>630.749</ele>
        <time>2018-09-06T11:42:03Z</time>
      </trkpt>
      <trkpt lat="46.258983" lon="13.337529">
        <ele>630.215</ele>
        <time>2018-09-06T11:42:04Z</time>
      </trkpt>
      <trkpt lat="46.259117" lon="13.337217">
        <ele>628.846</ele>
        <time>2018-09-06T11:42:09Z</time>
      </trkpt>
      <trkpt lat="46.259143" lon="13.337164">
        <ele>628.326</ele>
        <time>2018-09-06T11:42:10Z</time>
      </trkpt>
      <trkpt lat="46.259168" lon="13.337106">
        <ele>628.339</ele>
        <time>2018-09-06T11:42:11Z</time>
      </trkpt>
      <trkpt lat="46.259218" lon="13.336990">
        <ele>628.373</ele>
        <time>2018-09-06T11:42:13Z</time>
      </trkpt>
      <trkpt lat="46.259246" lon="13.336939">
        <ele>628.336</ele>
        <time>2018-09-06T11:42:14Z</time>
      </trkpt>
      <trkpt lat="46.259272" lon="13.336885">
        <ele>628.317</ele>
        <time>2018-09-06T11:42:15Z</time>
      </trkpt>
      <trkpt lat="46.259299" lon="13.336830">
        <ele>628.318</ele>
        <time>2018-09-06T11:42:16Z</time>
      </trkpt>
      <trkpt lat="46.259328" lon="13.336781">
        <ele>627.808</ele>
        <time>2018-09-06T11:42:17Z</time>
      </trkpt>
      <trkpt lat="46.259437" lon="13.336569">
        <ele>626.467</ele>
        <time>2018-09-06T11:42:21Z</time>
      </trkpt>
      <trkpt lat="46.259536" lon="13.336327">
        <ele>624.959</ele>
        <time>2018-09-06T11:42:25Z</time>
      </trkpt>
      <trkpt lat="46.259571" lon="13.336274">
        <ele>624.535</ele>
        <time>2018-09-06T11:42:26Z</time>
      </trkpt>
      <trkpt lat="46.259614" lon="13.336238">
        <ele>624.041</ele>
        <time>2018-09-06T11:42:27Z</time>
      </trkpt>
      <trkpt lat="46.259661" lon="13.336216">
        <ele>624.032</ele>
        <time>2018-09-06T11:42:28Z</time>
      </trkpt>
      <trkpt lat="46.259709" lon="13.336195">
        <ele>623.592</ele>
        <time>2018-09-06T11:42:29Z</time>
      </trkpt>
      <trkpt lat="46.259807" lon="13.336145">
        <ele>623.545</ele>
        <time>2018-09-06T11:42:31Z</time>
      </trkpt>
      <trkpt lat="46.259848" lon="13.336108">
        <ele>623.579</ele>
        <time>2018-09-06T11:42:32Z</time>
      </trkpt>
      <trkpt lat="46.259882" lon="13.336064">
        <ele>623.591</ele>
        <time>2018-09-06T11:42:33Z</time>
      </trkpt>
      <trkpt lat="46.259912" lon="13.336019">
        <ele>624.081</ele>
        <time>2018-09-06T11:42:34Z</time>
      </trkpt>
      <trkpt lat="46.259945" lon="13.335982">
        <ele>624.019</ele>
        <time>2018-09-06T11:42:35Z</time>
      </trkpt>
      <trkpt lat="46.259978" lon="13.335956">
        <ele>624.008</ele>
        <time>2018-09-06T11:42:36Z</time>
      </trkpt>
      <trkpt lat="46.260011" lon="13.335942">
        <ele>624.073</ele>
        <time>2018-09-06T11:42:37Z</time>
      </trkpt>
      <trkpt lat="46.260043" lon="13.335932">
        <ele>624.085</ele>
        <time>2018-09-06T11:42:38Z</time>
      </trkpt>
      <trkpt lat="46.260073" lon="13.335931">
        <ele>624.591</ele>
        <time>2018-09-06T11:42:39Z</time>
      </trkpt>
      <trkpt lat="46.260102" lon="13.335941">
        <ele>624.517</ele>
        <time>2018-09-06T11:42:40Z</time>
      </trkpt>
      <trkpt lat="46.260128" lon="13.335958">
        <ele>624.058</ele>
        <time>2018-09-06T11:42:41Z</time>
      </trkpt>
      <trkpt lat="46.260446" lon="13.336102">
        <ele>622.548</ele>
        <time>2018-09-06T11:42:54Z</time>
      </trkpt>
      <trkpt lat="46.260767" lon="13.336175">
        <ele>623.051</ele>
        <time>2018-09-06T11:43:08Z</time>
      </trkpt>
      <trkpt lat="46.261018" lon="13.336198">
        <ele>623.575</ele>
        <time>2018-09-06T11:43:21Z</time>
      </trkpt>
      <trkpt lat="46.261303" lon="13.336360">
        <ele>625.982</ele>
        <time>2018-09-06T11:43:36Z</time>
      </trkpt>
      <trkpt lat="46.261570" lon="13.336444">
        <ele>626.443</ele>
        <time>2018-09-06T11:43:48Z</time>
      </trkpt>
      <trkpt lat="46.261923" lon="13.336296">
        <ele>632.217</ele>
        <time>2018-09-06T11:44:02Z</time>
      </trkpt>
      <trkpt lat="46.262000" lon="13.336255">
        <ele>631.708</ele>
        <time>2018-09-06T11:44:04Z</time>
      </trkpt>
      <trkpt lat="46.262075" lon="13.336186">
        <ele>631.242</ele>
        <time>2018-09-06T11:44:06Z</time>
      </trkpt>
      <trkpt lat="46.262103" lon="13.336146">
        <ele>631.284</ele>
        <time>2018-09-06T11:44:07Z</time>
      </trkpt>
      <trkpt lat="46.262163" lon="13.336058">
        <ele>630.250</ele>
        <time>2018-09-06T11:44:09Z</time>
      </trkpt>
      <trkpt lat="46.262193" lon="13.336013">
        <ele>629.816</ele>
        <time>2018-09-06T11:44:10Z</time>
      </trkpt>
      <trkpt lat="46.262223" lon="13.335966">
        <ele>628.847</ele>
        <time>2018-09-06T11:44:11Z</time>
      </trkpt>
      <trkpt lat="46.262254" lon="13.335924">
        <ele>628.327</ele>
        <time>2018-09-06T11:44:12Z</time>
      </trkpt>
      <trkpt lat="46.262287" lon="13.335884">
        <ele>627.830</ele>
        <time>2018-09-06T11:44:13Z</time>
      </trkpt>
      <trkpt lat="46.262447" lon="13.335733">
        <ele>625.484</ele>
        <time>2018-09-06T11:44:17Z</time>
      </trkpt>
      <trkpt lat="46.262491" lon="13.335701">
        <ele>624.966</ele>
        <time>2018-09-06T11:44:18Z</time>
      </trkpt>
      <trkpt lat="46.262540" lon="13.335675">
        <ele>624.529</ele>
        <time>2018-09-06T11:44:19Z</time>
      </trkpt>
      <trkpt lat="46.263012" lon="13.335394">
        <ele>619.221</ele>
        <time>2018-09-06T11:44:29Z</time>
      </trkpt>
      <trkpt lat="46.263554" lon="13.334998">
        <ele>618.208</ele>
        <time>2018-09-06T11:44:42Z</time>
      </trkpt>
      <trkpt lat="46.263902" lon="13.334940">
        <ele>615.330</ele>
        <time>2018-09-06T11:44:54Z</time>
      </trkpt>
      <trkpt lat="46.264047" lon="13.335176">
        <ele>612.552</ele>
        <time>2018-09-06T11:44:59Z</time>
      </trkpt>
      <trkpt lat="46.264097" lon="13.335282">
        <ele>611.518</ele>
        <time>2018-09-06T11:45:01Z</time>
      </trkpt>
      <trkpt lat="46.264126" lon="13.335329">
        <ele>611.044</ele>
        <time>2018-09-06T11:45:02Z</time>
      </trkpt>
      <trkpt lat="46.264160" lon="13.335380">
        <ele>610.595</ele>
        <time>2018-09-06T11:45:03Z</time>
      </trkpt>
      <trkpt lat="46.264337" lon="13.335646">
        <ele>608.615</ele>
        <time>2018-09-06T11:45:08Z</time>
      </trkpt>
      <trkpt lat="46.264595" lon="13.336207">
        <ele>607.298</ele>
        <time>2018-09-06T11:45:21Z</time>
      </trkpt>
      <trkpt lat="46.264787" lon="13.336264">
        <ele>610.552</ele>
        <time>2018-09-06T11:45:31Z</time>
      </trkpt>
      <trkpt lat="46.264799" lon="13.336243">
        <ele>611.018</ele>
        <time>2018-09-06T11:45:32Z</time>
      </trkpt>
      <trkpt lat="46.264812" lon="13.336221">
        <ele>611.098</ele>
        <time>2018-09-06T11:45:33Z</time>
      </trkpt>
      <trkpt lat="46.264824" lon="13.336201">
        <ele>611.517</ele>
        <time>2018-09-06T11:45:34Z</time>
      </trkpt>
      <trkpt lat="46.264837" lon="13.336180">
        <ele>611.508</ele>
        <time>2018-09-06T11:45:35Z</time>
      </trkpt>
      <trkpt lat="46.264849" lon="13.336160">
        <ele>612.075</ele>
        <time>2018-09-06T11:45:36Z</time>
      </trkpt>
      <trkpt lat="46.264988" lon="13.335949">
        <ele>615.327</ele>
        <time>2018-09-06T11:45:47Z</time>
      </trkpt>
      <trkpt lat="46.265012" lon="13.335955">
        <ele>615.373</ele>
        <time>2018-09-06T11:45:48Z</time>
      </trkpt>
      <trkpt lat="46.265335" lon="13.336121">
        <ele>613.439</ele>
        <time>2018-09-06T11:45:59Z</time>
      </trkpt>
      <trkpt lat="46.265364" lon="13.336160">
        <ele>612.550</ele>
        <time>2018-09-06T11:46:00Z</time>
      </trkpt>
      <trkpt lat="46.265386" lon="13.336198">
        <ele>612.090</ele>
        <time>2018-09-06T11:46:01Z</time>
      </trkpt>
      <trkpt lat="46.265408" lon="13.336235">
        <ele>611.023</ele>
        <time>2018-09-06T11:46:02Z</time>
      </trkpt>
      <trkpt lat="46.265433" lon="13.336270">
        <ele>610.527</ele>
        <time>2018-09-06T11:46:03Z</time>
      </trkpt>
      <trkpt lat="46.265454" lon="13.336305">
        <ele>610.062</ele>
        <time>2018-09-06T11:46:04Z</time>
      </trkpt>
      <trkpt lat="46.265475" lon="13.336339">
        <ele>609.683</ele>
        <time>2018-09-06T11:46:05Z</time>
      </trkpt>
      <trkpt lat="46.265501" lon="13.336367">
        <ele>608.611</ele>
        <time>2018-09-06T11:46:06Z</time>
      </trkpt>
      <trkpt lat="46.265531" lon="13.336391">
        <ele>607.608</ele>
        <time>2018-09-06T11:46:07Z</time>
      </trkpt>
      <trkpt lat="46.265562" lon="13.336414">
        <ele>607.210</ele>
        <time>2018-09-06T11:46:08Z</time>
      </trkpt>
      <trkpt lat="46.265590" lon="13.336444">
        <ele>606.222</ele>
        <time>2018-09-06T11:46:09Z</time>
      </trkpt>
      <trkpt lat="46.265610" lon="13.336489">
        <ele>605.768</ele>
        <time>2018-09-06T11:46:10Z</time>
      </trkpt>
      <trkpt lat="46.265612" lon="13.336539">
        <ele>605.214</ele>
        <time>2018-09-06T11:46:11Z</time>
      </trkpt>
      <trkpt lat="46.265604" lon="13.336590">
        <ele>604.335</ele>
        <time>2018-09-06T11:46:12Z</time>
      </trkpt>
      <trkpt lat="46.265593" lon="13.336646">
        <ele>603.375</ele>
        <time>2018-09-06T11:46:13Z</time>
      </trkpt>
      <trkpt lat="46.265582" lon="13.336706">
        <ele>602.438</ele>
        <time>2018-09-06T11:46:14Z</time>
      </trkpt>
      <trkpt lat="46.265519" lon="13.337147">
        <ele>599.572</ele>
        <time>2018-09-06T11:46:20Z</time>
      </trkpt>
      <trkpt lat="46.265511" lon="13.337295">
        <ele>599.069</ele>
        <time>2018-09-06T11:46:22Z</time>
      </trkpt>
      <trkpt lat="46.265504" lon="13.337362">
        <ele>599.004</ele>
        <time>2018-09-06T11:46:23Z</time>
      </trkpt>
      <trkpt lat="46.265488" lon="13.337565">
        <ele>598.524</ele>
        <time>2018-09-06T11:46:26Z</time>
      </trkpt>
      <trkpt lat="46.265483" lon="13.337633">
        <ele>598.508</ele>
        <time>2018-09-06T11:46:27Z</time>
      </trkpt>
      <trkpt lat="46.265475" lon="13.337695">
        <ele>598.560</ele>
        <time>2018-09-06T11:46:28Z</time>
      </trkpt>
      <trkpt lat="46.265467" lon="13.337754">
        <ele>598.082</ele>
        <time>2018-09-06T11:46:29Z</time>
      </trkpt>
      <trkpt lat="46.265460" lon="13.337812">
        <ele>598.098</ele>
        <time>2018-09-06T11:46:30Z</time>
      </trkpt>
      <trkpt lat="46.265468" lon="13.337868">
        <ele>597.624</ele>
        <time>2018-09-06T11:46:31Z</time>
      </trkpt>
      <trkpt lat="46.265516" lon="13.337922">
        <ele>597.655</ele>
        <time>2018-09-06T11:46:33Z</time>
      </trkpt>
      <trkpt lat="46.265542" lon="13.337917">
        <ele>598.015</ele>
        <time>2018-09-06T11:46:34Z</time>
      </trkpt>
      <trkpt lat="46.265561" lon="13.337910">
        <ele>598.598</ele>
        <time>2018-09-06T11:46:35Z</time>
      </trkpt>
      <trkpt lat="46.265579" lon="13.337902">
        <ele>598.582</ele>
        <time>2018-09-06T11:46:36Z</time>
      </trkpt>
      <trkpt lat="46.265597" lon="13.337892">
        <ele>599.094</ele>
        <time>2018-09-06T11:46:37Z</time>
      </trkpt>
      <trkpt lat="46.265745" lon="13.337828">
        <ele>602.857</ele>
        <time>2018-09-06T11:46:46Z</time>
      </trkpt>
      <trkpt lat="46.265760" lon="13.337819">
        <ele>603.322</ele>
        <time>2018-09-06T11:46:47Z</time>
      </trkpt>
      <trkpt lat="46.266027" lon="13.337688">
        <ele>611.008</ele>
        <time>2018-09-06T11:47:04Z</time>
      </trkpt>
      <trkpt lat="46.266250" lon="13.337571">
        <ele>614.433</ele>
        <time>2018-09-06T11:47:19Z</time>
      </trkpt>
      <trkpt lat="46.266609" lon="13.337396">
        <ele>616.885</ele>
        <time>2018-09-06T11:47:40Z</time>
      </trkpt>
      <trkpt lat="46.266765" lon="13.337338">
        <ele>620.111</ele>
        <time>2018-09-06T11:47:49Z</time>
      </trkpt>
      <trkpt lat="46.266782" lon="13.337339">
        <ele>620.127</ele>
        <time>2018-09-06T11:47:50Z</time>
      </trkpt>
      <trkpt lat="46.266800" lon="13.337342">
        <ele>620.188</ele>
        <time>2018-09-06T11:47:51Z</time>
      </trkpt>
      <trkpt lat="46.266815" lon="13.337354">
        <ele>620.158</ele>
        <time>2018-09-06T11:47:52Z</time>
      </trkpt>
      <trkpt lat="46.266830" lon="13.337370">
        <ele>620.161</ele>
        <time>2018-09-06T11:47:53Z</time>
      </trkpt>
      <trkpt lat="46.266838" lon="13.337392">
        <ele>620.135</ele>
        <time>2018-09-06T11:47:54Z</time>
      </trkpt>
      <trkpt lat="46.266845" lon="13.337420">
        <ele>619.739</ele>
        <time>2018-09-06T11:47:55Z</time>
      </trkpt>
      <trkpt lat="46.266846" lon="13.337447">
        <ele>619.701</ele>
        <time>2018-09-06T11:47:56Z</time>
      </trkpt>
      <trkpt lat="46.266847" lon="13.337477">
        <ele>619.221</ele>
        <time>2018-09-06T11:47:57Z</time>
      </trkpt>
      <trkpt lat="46.266844" lon="13.337501">
        <ele>618.708</ele>
        <time>2018-09-06T11:47:58Z</time>
      </trkpt>
      <trkpt lat="46.266749" lon="13.337937">
        <ele>617.747</ele>
        <time>2018-09-06T11:48:11Z</time>
      </trkpt>
      <trkpt lat="46.266689" lon="13.338433">
        <ele>623.059</ele>
        <time>2018-09-06T11:48:22Z</time>
      </trkpt>
      <trkpt lat="46.266772" lon="13.339104">
        <ele>626.465</ele>
        <time>2018-09-06T11:48:36Z</time>
      </trkpt>
      <trkpt lat="46.266575" lon="13.339717">
        <ele>626.411</ele>
        <time>2018-09-06T11:48:48Z</time>
      </trkpt>
      <trkpt lat="46.266371" lon="13.340316">
        <ele>622.542</ele>
        <time>2018-09-06T11:49:00Z</time>
      </trkpt>
      <trkpt lat="46.266189" lon="13.340774">
        <ele>619.222</ele>
        <time>2018-09-06T11:49:11Z</time>
      </trkpt>
      <trkpt lat="46.265820" lon="13.341250">
        <ele>612.915</ele>
        <time>2018-09-06T11:49:24Z</time>
      </trkpt>
      <trkpt lat="46.265530" lon="13.341813">
        <ele>613.949</ele>
        <time>2018-09-06T11:49:38Z</time>
      </trkpt>
      <trkpt lat="46.265473" lon="13.342121">
        <ele>617.323</ele>
        <time>2018-09-06T11:49:50Z</time>
      </trkpt>
      <trkpt lat="46.265475" lon="13.342144">
        <ele>617.783</ele>
        <time>2018-09-06T11:49:51Z</time>
      </trkpt>
      <trkpt lat="46.265474" lon="13.342165">
        <ele>618.711</ele>
        <time>2018-09-06T11:49:52Z</time>
      </trkpt>
      <trkpt lat="46.265472" lon="13.342187">
        <ele>619.208</ele>
        <time>2018-09-06T11:49:53Z</time>
      </trkpt>
      <trkpt lat="46.265469" lon="13.342210">
        <ele>619.786</ele>
        <time>2018-09-06T11:49:54Z</time>
      </trkpt>
      <trkpt lat="46.265464" lon="13.342231">
        <ele>620.128</ele>
        <time>2018-09-06T11:49:55Z</time>
      </trkpt>
      <trkpt lat="46.265459" lon="13.342252">
        <ele>620.684</ele>
        <time>2018-09-06T11:49:56Z</time>
      </trkpt>
      <trkpt lat="46.265458" lon="13.342273">
        <ele>620.680</ele>
        <time>2018-09-06T11:49:57Z</time>
      </trkpt>
      <trkpt lat="46.265456" lon="13.342295">
        <ele>621.111</ele>
        <time>2018-09-06T11:49:58Z</time>
      </trkpt>
      <trkpt lat="46.265451" lon="13.342315">
        <ele>621.611</ele>
        <time>2018-09-06T11:49:59Z</time>
      </trkpt>
      <trkpt lat="46.265445" lon="13.342337">
        <ele>621.644</ele>
        <time>2018-09-06T11:50:00Z</time>
      </trkpt>
      <trkpt lat="46.265417" lon="13.342507">
        <ele>622.528</ele>
        <time>2018-09-06T11:50:12Z</time>
      </trkpt>
      <trkpt lat="46.265451" lon="13.342573">
        <ele>621.148</ele>
        <time>2018-09-06T11:50:40Z</time>
      </trkpt>
      <trkpt lat="46.265423" lon="13.342546">
        <ele>620.161</ele>
        <time>2018-09-06T11:51:07Z</time>
      </trkpt>
      <trkpt lat="46.265410" lon="13.342592">
        <ele>621.117</ele>
        <time>2018-09-06T11:51:13Z</time>
      </trkpt>
      <trkpt lat="46.265407" lon="13.342607">
        <ele>621.608</ele>
        <time>2018-09-06T11:51:14Z</time>
      </trkpt>
      <trkpt lat="46.265385" lon="13.342640">
        <ele>622.188</ele>
        <time>2018-09-06T11:51:17Z</time>
      </trkpt>
      <trkpt lat="46.265375" lon="13.342654">
        <ele>622.530</ele>
        <time>2018-09-06T11:51:18Z</time>
      </trkpt>
      <trkpt lat="46.265246" lon="13.342925">
        <ele>633.116</ele>
        <time>2018-09-06T11:51:34Z</time>
      </trkpt>
      <trkpt lat="46.265230" lon="13.342960">
        <ele>634.142</ele>
        <time>2018-09-06T11:51:36Z</time>
      </trkpt>
      <trkpt lat="46.265200" lon="13.343036">
        <ele>634.643</ele>
        <time>2018-09-06T11:51:41Z</time>
      </trkpt>
      <trkpt lat="46.265161" lon="13.343140">
        <ele>637.963</ele>
        <time>2018-09-06T11:51:48Z</time>
      </trkpt>
      <trkpt lat="46.265160" lon="13.343160">
        <ele>638.426</ele>
        <time>2018-09-06T11:51:49Z</time>
      </trkpt>
      <trkpt lat="46.265130" lon="13.343234">
        <ele>639.860</ele>
        <time>2018-09-06T11:51:53Z</time>
      </trkpt>
      <trkpt lat="46.265123" lon="13.343252">
        <ele>640.334</ele>
        <time>2018-09-06T11:51:54Z</time>
      </trkpt>
      <trkpt lat="46.265040" lon="13.343437">
        <ele>647.155</ele>
        <time>2018-09-06T11:52:06Z</time>
      </trkpt>
      <trkpt lat="46.265015" lon="13.343539">
        <ele>648.510</ele>
        <time>2018-09-06T11:52:11Z</time>
      </trkpt>
      <trkpt lat="46.265016" lon="13.343560">
        <ele>649.008</ele>
        <time>2018-09-06T11:52:12Z</time>
      </trkpt>
      <trkpt lat="46.265009" lon="13.343585">
        <ele>649.527</ele>
        <time>2018-09-06T11:52:13Z</time>
      </trkpt>
      <trkpt lat="46.264999" lon="13.343610">
        <ele>649.919</ele>
        <time>2018-09-06T11:52:14Z</time>
      </trkpt>
      <trkpt lat="46.264991" lon="13.343635">
        <ele>650.495</ele>
        <time>2018-09-06T11:52:15Z</time>
      </trkpt>
      <trkpt lat="46.264969" lon="13.343847">
        <ele>651.431</ele>
        <time>2018-09-06T11:52:25Z</time>
      </trkpt>
      <trkpt lat="46.264958" lon="13.343868">
        <ele>651.452</ele>
        <time>2018-09-06T11:52:26Z</time>
      </trkpt>
      <trkpt lat="46.264949" lon="13.343889">
        <ele>651.462</ele>
        <time>2018-09-06T11:52:27Z</time>
      </trkpt>
      <trkpt lat="46.264923" lon="13.343983">
        <ele>651.955</ele>
        <time>2018-09-06T11:52:31Z</time>
      </trkpt>
      <trkpt lat="46.264733" lon="13.344358">
        <ele>653.899</ele>
        <time>2018-09-06T11:52:43Z</time>
      </trkpt>
      <trkpt lat="46.264712" lon="13.344394">
        <ele>654.359</ele>
        <time>2018-09-06T11:52:44Z</time>
      </trkpt>
      <trkpt lat="46.264492" lon="13.344912">
        <ele>658.103</ele>
        <time>2018-09-06T11:52:55Z</time>
      </trkpt>
      <trkpt lat="46.264350" lon="13.345240">
        <ele>667.223</ele>
        <time>2018-09-06T11:53:06Z</time>
      </trkpt>
      <trkpt lat="46.264346" lon="13.345281">
        <ele>668.208</ele>
        <time>2018-09-06T11:53:07Z</time>
      </trkpt>
      <trkpt lat="46.264287" lon="13.345828">
        <ele>667.269</ele>
        <time>2018-09-06T11:53:16Z</time>
      </trkpt>
      <trkpt lat="46.264277" lon="13.346031">
        <ele>664.821</ele>
        <time>2018-09-06T11:53:20Z</time>
      </trkpt>
      <trkpt lat="46.264297" lon="13.346070">
        <ele>664.477</ele>
        <time>2018-09-06T11:53:21Z</time>
      </trkpt>
      <trkpt lat="46.264322" lon="13.346093">
        <ele>664.413</ele>
        <time>2018-09-06T11:53:22Z</time>
      </trkpt>
      <trkpt lat="46.264344" lon="13.346109">
        <ele>663.944</ele>
        <time>2018-09-06T11:53:23Z</time>
      </trkpt>
      <trkpt lat="46.264361" lon="13.346126">
        <ele>663.964</ele>
        <time>2018-09-06T11:53:24Z</time>
      </trkpt>
      <trkpt lat="46.264635" lon="13.346379">
        <ele>661.047</ele>
        <time>2018-09-06T11:53:35Z</time>
      </trkpt>
      <trkpt lat="46.264933" lon="13.346497">
        <ele>660.081</ele>
        <time>2018-09-06T11:53:46Z</time>
      </trkpt>
      <trkpt lat="46.265371" lon="13.346661">
        <ele>651.963</ele>
        <time>2018-09-06T11:53:59Z</time>
      </trkpt>
      <trkpt lat="46.265414" lon="13.346671">
        <ele>650.944</ele>
        <time>2018-09-06T11:54:00Z</time>
      </trkpt>
      <trkpt lat="46.265453" lon="13.346660">
        <ele>650.418</ele>
        <time>2018-09-06T11:54:01Z</time>
      </trkpt>
      <trkpt lat="46.265489" lon="13.346643">
        <ele>649.508</ele>
        <time>2018-09-06T11:54:02Z</time>
      </trkpt>
      <trkpt lat="46.265516" lon="13.346617">
        <ele>649.520</ele>
        <time>2018-09-06T11:54:03Z</time>
      </trkpt>
      <trkpt lat="46.265534" lon="13.346588">
        <ele>648.522</ele>
        <time>2018-09-06T11:54:04Z</time>
      </trkpt>
      <trkpt lat="46.265778" lon="13.346358">
        <ele>641.388</ele>
        <time>2018-09-06T11:54:16Z</time>
      </trkpt>
      <trkpt lat="46.266047" lon="13.346142">
        <ele>634.184</ele>
        <time>2018-09-06T11:54:23Z</time>
      </trkpt>
      <trkpt lat="46.266133" lon="13.346104">
        <ele>632.695</ele>
        <time>2018-09-06T11:54:25Z</time>
      </trkpt>
      <trkpt lat="46.266631" lon="13.345996">
        <ele>623.055</ele>
        <time>2018-09-06T11:54:37Z</time>
      </trkpt>
      <trkpt lat="46.266725" lon="13.346043">
        <ele>620.628</ele>
        <time>2018-09-06T11:54:40Z</time>
      </trkpt>
      <trkpt lat="46.266747" lon="13.346032">
        <ele>620.162</ele>
        <time>2018-09-06T11:54:41Z</time>
      </trkpt>
      <trkpt lat="46.266757" lon="13.345961">
        <ele>618.767</ele>
        <time>2018-09-06T11:54:47Z</time>
      </trkpt>
      <trkpt lat="46.266716" lon="13.345876">
        <ele>617.381</ele>
        <time>2018-09-06T11:54:57Z</time>
      </trkpt>
      <trkpt lat="46.266708" lon="13.345835">
        <ele>616.819</ele>
        <time>2018-09-06T11:55:00Z</time>
      </trkpt>
      <trkpt lat="46.266682" lon="13.345775">
        <ele>616.808</ele>
        <time>2018-09-06T11:55:03Z</time>
      </trkpt>
      <trkpt lat="46.266661" lon="13.345750">
        <ele>616.850</ele>
        <time>2018-09-06T11:55:04Z</time>
      </trkpt>
      <trkpt lat="46.266634" lon="13.345729">
        <ele>616.822</ele>
        <time>2018-09-06T11:55:05Z</time>
      </trkpt>
      <trkpt lat="46.266594" lon="13.345712">
        <ele>616.388</ele>
        <time>2018-09-06T11:55:06Z</time>
      </trkpt>
      <trkpt lat="46.266553" lon="13.345703">
        <ele>616.384</ele>
        <time>2018-09-06T11:55:07Z</time>
      </trkpt>
      <trkpt lat="46.266504" lon="13.345695">
        <ele>615.885</ele>
        <time>2018-09-06T11:55:08Z</time>
      </trkpt>
      <trkpt lat="46.266239" lon="13.345640">
        <ele>612.535</ele>
        <time>2018-09-06T11:55:14Z</time>
      </trkpt>
      <trkpt lat="46.266197" lon="13.345626">
        <ele>612.048</ele>
        <time>2018-09-06T11:55:15Z</time>
      </trkpt>
      <trkpt lat="46.266158" lon="13.345610">
        <ele>611.092</ele>
        <time>2018-09-06T11:55:16Z</time>
      </trkpt>
      <trkpt lat="46.265894" lon="13.345506">
        <ele>608.177</ele>
        <time>2018-09-06T11:55:22Z</time>
      </trkpt>
      <trkpt lat="46.265846" lon="13.345498">
        <ele>607.661</ele>
        <time>2018-09-06T11:55:23Z</time>
      </trkpt>
      <trkpt lat="46.265801" lon="13.345498">
        <ele>607.227</ele>
        <time>2018-09-06T11:55:24Z</time>
      </trkpt>
      <trkpt lat="46.265757" lon="13.345507">
        <ele>606.208</ele>
        <time>2018-09-06T11:55:25Z</time>
      </trkpt>
      <trkpt lat="46.265710" lon="13.345527">
        <ele>605.711</ele>
        <time>2018-09-06T11:55:26Z</time>
      </trkpt>
      <trkpt lat="46.265625" lon="13.345577">
        <ele>604.313</ele>
        <time>2018-09-06T11:55:28Z</time>
      </trkpt>
      <trkpt lat="46.265589" lon="13.345613">
        <ele>603.329</ele>
        <time>2018-09-06T11:55:29Z</time>
      </trkpt>
      <trkpt lat="46.265554" lon="13.345643">
        <ele>603.345</ele>
        <time>2018-09-06T11:55:30Z</time>
      </trkpt>
      <trkpt lat="46.265523" lon="13.345653">
        <ele>602.886</ele>
        <time>2018-09-06T11:55:31Z</time>
      </trkpt>
      <trkpt lat="46.265499" lon="13.345645">
        <ele>602.466</ele>
        <time>2018-09-06T11:55:32Z</time>
      </trkpt>
      <trkpt lat="46.265476" lon="13.345625">
        <ele>602.429</ele>
        <time>2018-09-06T11:55:33Z</time>
      </trkpt>
      <trkpt lat="46.265451" lon="13.345598">
        <ele>602.483</ele>
        <time>2018-09-06T11:55:34Z</time>
      </trkpt>
      <trkpt lat="46.265422" lon="13.345572">
        <ele>602.491</ele>
        <time>2018-09-06T11:55:35Z</time>
      </trkpt>
      <trkpt lat="46.265304" lon="13.345493">
        <ele>602.481</ele>
        <time>2018-09-06T11:55:39Z</time>
      </trkpt>
      <trkpt lat="46.265284" lon="13.345463">
        <ele>602.419</ele>
        <time>2018-09-06T11:55:40Z</time>
      </trkpt>
      <trkpt lat="46.265276" lon="13.345423">
        <ele>602.408</ele>
        <time>2018-09-06T11:55:41Z</time>
      </trkpt>
      <trkpt lat="46.265282" lon="13.345384">
        <ele>602.423</ele>
        <time>2018-09-06T11:55:42Z</time>
      </trkpt>
      <trkpt lat="46.265299" lon="13.345355">
        <ele>601.965</ele>
        <time>2018-09-06T11:55:43Z</time>
      </trkpt>
      <trkpt lat="46.265321" lon="13.345329">
        <ele>601.441</ele>
        <time>2018-09-06T11:55:44Z</time>
      </trkpt>
      <trkpt lat="46.265348" lon="13.345296">
        <ele>601.487</ele>
        <time>2018-09-06T11:55:45Z</time>
      </trkpt>
      <trkpt lat="46.265370" lon="13.345258">
        <ele>600.968</ele>
        <time>2018-09-06T11:55:46Z</time>
      </trkpt>
      <trkpt lat="46.265389" lon="13.345216">
        <ele>600.468</ele>
        <time>2018-09-06T11:55:47Z</time>
      </trkpt>
      <trkpt lat="46.265408" lon="13.345170">
        <ele>600.091</ele>
        <time>2018-09-06T11:55:48Z</time>
      </trkpt>
      <trkpt lat="46.265429" lon="13.345122">
        <ele>599.535</ele>
        <time>2018-09-06T11:55:49Z</time>
      </trkpt>
      <trkpt lat="46.265726" lon="13.344745">
        <ele>592.373</ele>
        <time>2018-09-06T11:55:58Z</time>
      </trkpt>
      <trkpt lat="46.265785" lon="13.344653">
        <ele>589.985</ele>
        <time>2018-09-06T11:56:00Z</time>
      </trkpt>
      <trkpt lat="46.265812" lon="13.344605">
        <ele>588.413</ele>
        <time>2018-09-06T11:56:01Z</time>
      </trkpt>
      <trkpt lat="46.265836" lon="13.344563">
        <ele>587.508</ele>
        <time>2018-09-06T11:56:02Z</time>
      </trkpt>
      <trkpt lat="46.265858" lon="13.344526">
        <ele>586.011</ele>
        <time>2018-09-06T11:56:03Z</time>
      </trkpt>
      <trkpt lat="46.265883" lon="13.344492">
        <ele>585.193</ele>
        <time>2018-09-06T11:56:04Z</time>
      </trkpt>
      <trkpt lat="46.265912" lon="13.344459">
        <ele>583.659</ele>
        <time>2018-09-06T11:56:05Z</time>
      </trkpt>
      <trkpt lat="46.266170" lon="13.344021">
        <ele>568.765</ele>
        <time>2018-09-06T11:56:16Z</time>
      </trkpt>
      <trkpt lat="46.266389" lon="13.343580">
        <ele>558.686</ele>
        <time>2018-09-06T11:56:26Z</time>
      </trkpt>
      <trkpt lat="46.266701" lon="13.343150">
        <ele>550.936</ele>
        <time>2018-09-06T11:56:36Z</time>
      </trkpt>
      <trkpt lat="46.266733" lon="13.343099">
        <ele>550.439</ele>
        <time>2018-09-06T11:56:37Z</time>
      </trkpt>
      <trkpt lat="46.266758" lon="13.343047">
        <ele>549.543</ele>
        <time>2018-09-06T11:56:38Z</time>
      </trkpt>
      <trkpt lat="46.266777" lon="13.342989">
        <ele>549.511</ele>
        <time>2018-09-06T11:56:39Z</time>
      </trkpt>
      <trkpt lat="46.266796" lon="13.342935">
        <ele>549.521</ele>
        <time>2018-09-06T11:56:40Z</time>
      </trkpt>
      <trkpt lat="46.266817" lon="13.342894">
        <ele>549.003</ele>
        <time>2018-09-06T11:56:41Z</time>
      </trkpt>
      <trkpt lat="46.266844" lon="13.342860">
        <ele>549.008</ele>
        <time>2018-09-06T11:56:42Z</time>
      </trkpt>
      <trkpt lat="46.266872" lon="13.342838">
        <ele>549.015</ele>
        <time>2018-09-06T11:56:43Z</time>
      </trkpt>
      <trkpt lat="46.266900" lon="13.342830">
        <ele>548.557</ele>
        <time>2018-09-06T11:56:44Z</time>
      </trkpt>
      <trkpt lat="46.266930" lon="13.342828">
        <ele>548.033</ele>
        <time>2018-09-06T11:56:45Z</time>
      </trkpt>
      <trkpt lat="46.266959" lon="13.342825">
        <ele>548.059</ele>
        <time>2018-09-06T11:56:46Z</time>
      </trkpt>
      <trkpt lat="46.267339" lon="13.342545">
        <ele>546.690</ele>
        <time>2018-09-06T11:56:56Z</time>
      </trkpt>
      <trkpt lat="46.267813" lon="13.342267">
        <ele>544.250</ele>
        <time>2018-09-06T11:57:09Z</time>
      </trkpt>
      <trkpt lat="46.268219" lon="13.342082">
        <ele>537.923</ele>
        <time>2018-09-06T11:57:20Z</time>
      </trkpt>
      <trkpt lat="46.268332" lon="13.341667">
        <ele>533.647</ele>
        <time>2018-09-06T11:57:29Z</time>
      </trkpt>
      <trkpt lat="46.268238" lon="13.341241">
        <ele>527.945</ele>
        <time>2018-09-06T11:57:38Z</time>
      </trkpt>
      <trkpt lat="46.268241" lon="13.341205">
        <ele>526.947</ele>
        <time>2018-09-06T11:57:39Z</time>
      </trkpt>
      <trkpt lat="46.268253" lon="13.341176">
        <ele>526.911</ele>
        <time>2018-09-06T11:57:40Z</time>
      </trkpt>
      <trkpt lat="46.268267" lon="13.341147">
        <ele>526.908</ele>
        <time>2018-09-06T11:57:41Z</time>
      </trkpt>
      <trkpt lat="46.268287" lon="13.341127">
        <ele>526.488</ele>
        <time>2018-09-06T11:57:42Z</time>
      </trkpt>
      <trkpt lat="46.268315" lon="13.341113">
        <ele>525.990</ele>
        <time>2018-09-06T11:57:43Z</time>
      </trkpt>
      <trkpt lat="46.268461" lon="13.340975">
        <ele>523.076</ele>
        <time>2018-09-06T11:57:48Z</time>
      </trkpt>
      <trkpt lat="46.268486" lon="13.340969">
        <ele>522.622</ele>
        <time>2018-09-06T11:57:49Z</time>
      </trkpt>
      <trkpt lat="46.268508" lon="13.340983">
        <ele>522.143</ele>
        <time>2018-09-06T11:57:50Z</time>
      </trkpt>
      <trkpt lat="46.268522" lon="13.341013">
        <ele>521.623</ele>
        <time>2018-09-06T11:57:51Z</time>
      </trkpt>
      <trkpt lat="46.268526" lon="13.341048">
        <ele>521.186</ele>
        <time>2018-09-06T11:57:52Z</time>
      </trkpt>
      <trkpt lat="46.268516" lon="13.341080">
        <ele>520.670</ele>
        <time>2018-09-06T11:57:53Z</time>
      </trkpt>
      <trkpt lat="46.268500" lon="13.341104">
        <ele>519.711</ele>
        <time>2018-09-06T11:57:54Z</time>
      </trkpt>
      <trkpt lat="46.268484" lon="13.341128">
        <ele>519.221</ele>
        <time>2018-09-06T11:57:55Z</time>
      </trkpt>
      <trkpt lat="46.268443" lon="13.341266">
        <ele>515.803</ele>
        <time>2018-09-06T11:57:59Z</time>
      </trkpt>
      <trkpt lat="46.268448" lon="13.341310">
        <ele>515.408</ele>
        <time>2018-09-06T11:58:00Z</time>
      </trkpt>
      <trkpt lat="46.268459" lon="13.341352">
        <ele>515.485</ele>
        <time>2018-09-06T11:58:01Z</time>
      </trkpt>
      <trkpt lat="46.268477" lon="13.341390">
        <ele>515.467</ele>
        <time>2018-09-06T11:58:02Z</time>
      </trkpt>
      <trkpt lat="46.268501" lon="13.341422">
        <ele>514.913</ele>
        <time>2018-09-06T11:58:03Z</time>
      </trkpt>
      <trkpt lat="46.268527" lon="13.341449">
        <ele>513.919</ele>
        <time>2018-09-06T11:58:04Z</time>
      </trkpt>
      <trkpt lat="46.268687" lon="13.341854">
        <ele>510.670</ele>
        <time>2018-09-06T11:58:15Z</time>
      </trkpt>
      <trkpt lat="46.268835" lon="13.342232">
        <ele>505.780</ele>
        <time>2018-09-06T11:58:25Z</time>
      </trkpt>
      <trkpt lat="46.269106" lon="13.342423">
        <ele>501.953</ele>
        <time>2018-09-06T11:58:35Z</time>
      </trkpt>
      <trkpt lat="46.269131" lon="13.342928">
        <ele>498.177</ele>
        <time>2018-09-06T11:58:45Z</time>
      </trkpt>
      <trkpt lat="46.269155" lon="13.342962">
        <ele>498.124</ele>
        <time>2018-09-06T11:58:46Z</time>
      </trkpt>
      <trkpt lat="46.269185" lon="13.342975">
        <ele>498.104</ele>
        <time>2018-09-06T11:58:47Z</time>
      </trkpt>
      <trkpt lat="46.269217" lon="13.342973">
        <ele>497.614</ele>
        <time>2018-09-06T11:58:48Z</time>
      </trkpt>
      <trkpt lat="46.269246" lon="13.342955">
        <ele>497.608</ele>
        <time>2018-09-06T11:58:49Z</time>
      </trkpt>
      <trkpt lat="46.269271" lon="13.342923">
        <ele>497.146</ele>
        <time>2018-09-06T11:58:50Z</time>
      </trkpt>
      <trkpt lat="46.269290" lon="13.342883">
        <ele>496.618</ele>
        <time>2018-09-06T11:58:51Z</time>
      </trkpt>
      <trkpt lat="46.269302" lon="13.342838">
        <ele>496.194</ele>
        <time>2018-09-06T11:58:52Z</time>
      </trkpt>
      <trkpt lat="46.269307" lon="13.342788">
        <ele>495.790</ele>
        <time>2018-09-06T11:58:53Z</time>
      </trkpt>
      <trkpt lat="46.269462" lon="13.342311">
        <ele>490.411</ele>
        <time>2018-09-06T11:59:04Z</time>
      </trkpt>
      <trkpt lat="46.269563" lon="13.342185">
        <ele>487.561</ele>
        <time>2018-09-06T11:59:09Z</time>
      </trkpt>
      <trkpt lat="46.269598" lon="13.342045">
        <ele>485.674</ele>
        <time>2018-09-06T11:59:13Z</time>
      </trkpt>
      <trkpt lat="46.269615" lon="13.341620">
        <ele>479.888</ele>
        <time>2018-09-06T11:59:24Z</time>
      </trkpt>
      <trkpt lat="46.269601" lon="13.341428">
        <ele>478.337</ele>
        <time>2018-09-06T11:59:29Z</time>
      </trkpt>
      <trkpt lat="46.269611" lon="13.341392">
        <ele>478.349</ele>
        <time>2018-09-06T11:59:30Z</time>
      </trkpt>
      <trkpt lat="46.269618" lon="13.341350">
        <ele>477.913</ele>
        <time>2018-09-06T11:59:31Z</time>
      </trkpt>
      <trkpt lat="46.269613" lon="13.341309">
        <ele>477.908</ele>
        <time>2018-09-06T11:59:32Z</time>
      </trkpt>
      <trkpt lat="46.269599" lon="13.341270">
        <ele>477.917</ele>
        <time>2018-09-06T11:59:33Z</time>
      </trkpt>
      <trkpt lat="46.269582" lon="13.341227">
        <ele>477.429</ele>
        <time>2018-09-06T11:59:34Z</time>
      </trkpt>
      <trkpt lat="46.269566" lon="13.341185">
        <ele>476.975</ele>
        <time>2018-09-06T11:59:35Z</time>
      </trkpt>
      <trkpt lat="46.269549" lon="13.341148">
        <ele>476.441</ele>
        <time>2018-09-06T11:59:36Z</time>
      </trkpt>
      <trkpt lat="46.269531" lon="13.341118">
        <ele>475.942</ele>
        <time>2018-09-06T11:59:37Z</time>
      </trkpt>
      <trkpt lat="46.269516" lon="13.341089">
        <ele>475.942</ele>
        <time>2018-09-06T11:59:38Z</time>
      </trkpt>
      <trkpt lat="46.269439" lon="13.341002">
        <ele>475.095</ele>
        <time>2018-09-06T11:59:42Z</time>
      </trkpt>
      <trkpt lat="46.269425" lon="13.340971">
        <ele>474.099</ele>
        <time>2018-09-06T11:59:43Z</time>
      </trkpt>
      <trkpt lat="46.269421" lon="13.340931">
        <ele>473.533</ele>
        <time>2018-09-06T11:59:44Z</time>
      </trkpt>
      <trkpt lat="46.269427" lon="13.340887">
        <ele>472.623</ele>
        <time>2018-09-06T11:59:45Z</time>
      </trkpt>
      <trkpt lat="46.269433" lon="13.340847">
        <ele>472.115</ele>
        <time>2018-09-06T11:59:46Z</time>
      </trkpt>
      <trkpt lat="46.269433" lon="13.340804">
        <ele>471.108</ele>
        <time>2018-09-06T11:59:47Z</time>
      </trkpt>
      <trkpt lat="46.269429" lon="13.340762">
        <ele>470.757</ele>
        <time>2018-09-06T11:59:48Z</time>
      </trkpt>
      <trkpt lat="46.269422" lon="13.340718">
        <ele>470.269</ele>
        <time>2018-09-06T11:59:49Z</time>
      </trkpt>
      <trkpt lat="46.269414" lon="13.340629">
        <ele>468.765</ele>
        <time>2018-09-06T11:59:51Z</time>
      </trkpt>
      <trkpt lat="46.269427" lon="13.340594">
        <ele>467.881</ele>
        <time>2018-09-06T11:59:52Z</time>
      </trkpt>
      <trkpt lat="46.269452" lon="13.340574">
        <ele>467.382</ele>
        <time>2018-09-06T11:59:53Z</time>
      </trkpt>
      <trkpt lat="46.269481" lon="13.340579">
        <ele>466.882</ele>
        <time>2018-09-06T11:59:54Z</time>
      </trkpt>
      <trkpt lat="46.269505" lon="13.340607">
        <ele>466.355</ele>
        <time>2018-09-06T11:59:55Z</time>
      </trkpt>
      <trkpt lat="46.269525" lon="13.340642">
        <ele>465.969</ele>
        <time>2018-09-06T11:59:56Z</time>
      </trkpt>
      <trkpt lat="46.269544" lon="13.340677">
        <ele>465.482</ele>
        <time>2018-09-06T11:59:57Z</time>
      </trkpt>
      <trkpt lat="46.269570" lon="13.340704">
        <ele>464.943</ele>
        <time>2018-09-06T11:59:58Z</time>
      </trkpt>
      <trkpt lat="46.269601" lon="13.340719">
        <ele>464.417</ele>
        <time>2018-09-06T11:59:59Z</time>
      </trkpt>
      <trkpt lat="46.269635" lon="13.340723">
        <ele>463.908</ele>
        <time>2018-09-06T12:00:00Z</time>
      </trkpt>
      <trkpt lat="46.269665" lon="13.340708">
        <ele>463.472</ele>
        <time>2018-09-06T12:00:01Z</time>
      </trkpt>
      <trkpt lat="46.269687" lon="13.340677">
        <ele>463.064</ele>
        <time>2018-09-06T12:00:02Z</time>
      </trkpt>
      <trkpt lat="46.269694" lon="13.340639">
        <ele>462.550</ele>
        <time>2018-09-06T12:00:03Z</time>
      </trkpt>
      <trkpt lat="46.269682" lon="13.340607">
        <ele>462.066</ele>
        <time>2018-09-06T12:00:04Z</time>
      </trkpt>
      <trkpt lat="46.269655" lon="13.340581">
        <ele>462.037</ele>
        <time>2018-09-06T12:00:05Z</time>
      </trkpt>
      <trkpt lat="46.269627" lon="13.340553">
        <ele>461.097</ele>
        <time>2018-09-06T12:00:06Z</time>
      </trkpt>
      <trkpt lat="46.269611" lon="13.340512">
        <ele>460.630</ele>
        <time>2018-09-06T12:00:07Z</time>
      </trkpt>
      <trkpt lat="46.269615" lon="13.340465">
        <ele>459.614</ele>
        <time>2018-09-06T12:00:08Z</time>
      </trkpt>
      <trkpt lat="46.269638" lon="13.340430">
        <ele>458.672</ele>
        <time>2018-09-06T12:00:09Z</time>
      </trkpt>
      <trkpt lat="46.269669" lon="13.340410">
        <ele>457.713</ele>
        <time>2018-09-06T12:00:10Z</time>
      </trkpt>
      <trkpt lat="46.269703" lon="13.340392">
        <ele>456.714</ele>
        <time>2018-09-06T12:00:11Z</time>
      </trkpt>
      <trkpt lat="46.269844" lon="13.340295">
        <ele>453.408</ele>
        <time>2018-09-06T12:00:15Z</time>
      </trkpt>
      <trkpt lat="46.270193" lon="13.339946">
        <ele>446.631</ele>
        <time>2018-09-06T12:00:24Z</time>
      </trkpt>
      <trkpt lat="46.270234" lon="13.339908">
        <ele>446.143</ele>
        <time>2018-09-06T12:00:25Z</time>
      </trkpt>
      <trkpt lat="46.270267" lon="13.339868">
        <ele>446.179</ele>
        <time>2018-09-06T12:00:26Z</time>
      </trkpt>
      <trkpt lat="46.270293" lon="13.339824">
        <ele>445.765</ele>
        <time>2018-09-06T12:00:27Z</time>
      </trkpt>
      <trkpt lat="46.270312" lon="13.339775">
        <ele>445.266</ele>
        <time>2018-09-06T12:00:28Z</time>
      </trkpt>
      <trkpt lat="46.270322" lon="13.339718">
        <ele>444.746</ele>
        <time>2018-09-06T12:00:29Z</time>
      </trkpt>
      <trkpt lat="46.270333" lon="13.339651">
        <ele>444.249</ele>
        <time>2018-09-06T12:00:30Z</time>
      </trkpt>
      <trkpt lat="46.270349" lon="13.339581">
        <ele>443.763</ele>
        <time>2018-09-06T12:00:31Z</time>
      </trkpt>
      <trkpt lat="46.270391" lon="13.339443">
        <ele>443.727</ele>
        <time>2018-09-06T12:00:33Z</time>
      </trkpt>
      <trkpt lat="46.270422" lon="13.339395">
        <ele>443.768</ele>
        <time>2018-09-06T12:00:34Z</time>
      </trkpt>
      <trkpt lat="46.270455" lon="13.339365">
        <ele>443.314</ele>
        <time>2018-09-06T12:00:35Z</time>
      </trkpt>
      <trkpt lat="46.270671" lon="13.339196">
        <ele>447.108</ele>
        <time>2018-09-06T12:00:47Z</time>
      </trkpt>
      <trkpt lat="46.270663" lon="13.338915">
        <ele>451.456</ele>
        <time>2018-09-06T12:01:01Z</time>
      </trkpt>
      <trkpt lat="46.270527" lon="13.338563">
        <ele>455.878</ele>
        <time>2018-09-06T12:01:17Z</time>
      </trkpt>
      <trkpt lat="46.270548" lon="13.338250">
        <ele>454.894</ele>
        <time>2018-09-06T12:01:26Z</time>
      </trkpt>
      <trkpt lat="46.270548" lon="13.337913">
        <ele>456.210</ele>
        <time>2018-09-06T12:01:33Z</time>
      </trkpt>
      <trkpt lat="46.270538" lon="13.337851">
        <ele>455.881</ele>
        <time>2018-09-06T12:01:34Z</time>
      </trkpt>
      <trkpt lat="46.270525" lon="13.337796">
        <ele>455.841</ele>
        <time>2018-09-06T12:01:35Z</time>
      </trkpt>
      <trkpt lat="46.270506" lon="13.337740">
        <ele>455.844</ele>
        <time>2018-09-06T12:01:36Z</time>
      </trkpt>
      <trkpt lat="46.270480" lon="13.337686">
        <ele>455.338</ele>
        <time>2018-09-06T12:01:37Z</time>
      </trkpt>
      <trkpt lat="46.270451" lon="13.337634">
        <ele>454.838</ele>
        <time>2018-09-06T12:01:38Z</time>
      </trkpt>
      <trkpt lat="46.270280" lon="13.337258">
        <ele>452.970</ele>
        <time>2018-09-06T12:01:45Z</time>
      </trkpt>
      <trkpt lat="46.270267" lon="13.337192">
        <ele>452.917</ele>
        <time>2018-09-06T12:01:46Z</time>
      </trkpt>
      <trkpt lat="46.270258" lon="13.337124">
        <ele>452.908</ele>
        <time>2018-09-06T12:01:47Z</time>
      </trkpt>
      <trkpt lat="46.270252" lon="13.337057">
        <ele>452.957</ele>
        <time>2018-09-06T12:01:48Z</time>
      </trkpt>
      <trkpt lat="46.270253" lon="13.336985">
        <ele>452.929</ele>
        <time>2018-09-06T12:01:49Z</time>
      </trkpt>
      <trkpt lat="46.270255" lon="13.336915">
        <ele>452.415</ele>
        <time>2018-09-06T12:01:50Z</time>
      </trkpt>
      <trkpt lat="46.270306" lon="13.336372">
        <ele>450.021</ele>
        <time>2018-09-06T12:02:00Z</time>
      </trkpt>
      <trkpt lat="46.270520" lon="13.335608">
        <ele>444.252</ele>
        <time>2018-09-06T12:02:12Z</time>
      </trkpt>
      <trkpt lat="46.270573" lon="13.335443">
        <ele>445.232</ele>
        <time>2018-09-06T12:02:19Z</time>
      </trkpt>
      <trkpt lat="46.270615" lon="13.335382">
        <ele>445.795</ele>
        <time>2018-09-06T12:02:23Z</time>
      </trkpt>
      <trkpt lat="46.270622" lon="13.335368">
        <ele>446.169</ele>
        <time>2018-09-06T12:02:24Z</time>
      </trkpt>
      <trkpt lat="46.270631" lon="13.335356">
        <ele>446.153</ele>
        <time>2018-09-06T12:02:25Z</time>
      </trkpt>
      <trkpt lat="46.270642" lon="13.335349">
        <ele>446.604</ele>
        <time>2018-09-06T12:02:26Z</time>
      </trkpt>
      <trkpt lat="46.270656" lon="13.335341">
        <ele>446.614</ele>
        <time>2018-09-06T12:02:27Z</time>
      </trkpt>
      <trkpt lat="46.270668" lon="13.335332">
        <ele>446.608</ele>
        <time>2018-09-06T12:02:28Z</time>
      </trkpt>
      <trkpt lat="46.270678" lon="13.335325">
        <ele>447.159</ele>
        <time>2018-09-06T12:02:29Z</time>
      </trkpt>
      <trkpt lat="46.270746" lon="13.335291">
        <ele>447.641</ele>
        <time>2018-09-06T12:02:36Z</time>
      </trkpt>
      <trkpt lat="46.270757" lon="13.335296">
        <ele>447.647</ele>
        <time>2018-09-06T12:02:37Z</time>
      </trkpt>
      <trkpt lat="46.270769" lon="13.335314">
        <ele>447.663</ele>
        <time>2018-09-06T12:02:39Z</time>
      </trkpt>
      <trkpt lat="46.270762" lon="13.335330">
        <ele>447.684</ele>
        <time>2018-09-06T12:02:40Z</time>
      </trkpt>
      <trkpt lat="46.270697" lon="13.335431">
        <ele>447.664</ele>
        <time>2018-09-06T12:02:48Z</time>
      </trkpt>
      <trkpt lat="46.270694" lon="13.335451">
        <ele>447.687</ele>
        <time>2018-09-06T12:02:49Z</time>
      </trkpt>
      <trkpt lat="46.270642" lon="13.335761">
        <ele>450.061</ele>
        <time>2018-09-06T12:03:05Z</time>
      </trkpt>
      <trkpt lat="46.270635" lon="13.335779">
        <ele>450.544</ele>
        <time>2018-09-06T12:03:06Z</time>
      </trkpt>
      <trkpt lat="46.270628" lon="13.335797">
        <ele>450.505</ele>
        <time>2018-09-06T12:03:07Z</time>
      </trkpt>
      <trkpt lat="46.270625" lon="13.335817">
        <ele>450.515</ele>
        <time>2018-09-06T12:03:08Z</time>
      </trkpt>
      <trkpt lat="46.270625" lon="13.335837">
        <ele>450.508</ele>
        <time>2018-09-06T12:03:09Z</time>
      </trkpt>
      <trkpt lat="46.270626" lon="13.335855">
        <ele>451.098</ele>
        <time>2018-09-06T12:03:10Z</time>
      </trkpt>
      <trkpt lat="46.270623" lon="13.335874">
        <ele>451.020</ele>
        <time>2018-09-06T12:03:11Z</time>
      </trkpt>
      <trkpt lat="46.270616" lon="13.335894">
        <ele>451.046</ele>
        <time>2018-09-06T12:03:12Z</time>
      </trkpt>
      <trkpt lat="46.270607" lon="13.335914">
        <ele>451.072</ele>
        <time>2018-09-06T12:03:13Z</time>
      </trkpt>
      <trkpt lat="46.270599" lon="13.335933">
        <ele>451.053</ele>
        <time>2018-09-06T12:03:14Z</time>
      </trkpt>
      <trkpt lat="46.270596" lon="13.335954">
        <ele>451.013</ele>
        <time>2018-09-06T12:03:15Z</time>
      </trkpt>
      <trkpt lat="46.270594" lon="13.335974">
        <ele>451.436</ele>
        <time>2018-09-06T12:03:16Z</time>
      </trkpt>
      <trkpt lat="46.270593" lon="13.335994">
        <ele>451.480</ele>
        <time>2018-09-06T12:03:17Z</time>
      </trkpt>
      <trkpt lat="46.270591" lon="13.336013">
        <ele>451.463</ele>
        <time>2018-09-06T12:03:18Z</time>
      </trkpt>
      <trkpt lat="46.270589" lon="13.336033">
        <ele>451.444</ele>
        <time>2018-09-06T12:03:19Z</time>
      </trkpt>
      <trkpt lat="46.270520" lon="13.336314">
        <ele>454.318</ele>
        <time>2018-09-06T12:03:34Z</time>
      </trkpt>
      <trkpt lat="46.270495" lon="13.336390">
        <ele>454.808</ele>
        <time>2018-09-06T12:03:38Z</time>
      </trkpt>
      <trkpt lat="46.270490" lon="13.336411">
        <ele>454.820</ele>
        <time>2018-09-06T12:03:39Z</time>
      </trkpt>
      <trkpt lat="46.270484" lon="13.336428">
        <ele>455.382</ele>
        <time>2018-09-06T12:03:40Z</time>
      </trkpt>
      <trkpt lat="46.270479" lon="13.336448">
        <ele>455.818</ele>
        <time>2018-09-06T12:03:41Z</time>
      </trkpt>
      <trkpt lat="46.270472" lon="13.336466">
        <ele>455.884</ele>
        <time>2018-09-06T12:03:42Z</time>
      </trkpt>
      <trkpt lat="46.270466" lon="13.336485">
        <ele>455.855</ele>
        <time>2018-09-06T12:03:43Z</time>
      </trkpt>
      <trkpt lat="46.270460" lon="13.336505">
        <ele>456.275</ele>
        <time>2018-09-06T12:03:44Z</time>
      </trkpt>
      <trkpt lat="46.270455" lon="13.336525">
        <ele>456.298</ele>
        <time>2018-09-06T12:03:45Z</time>
      </trkpt>
      <trkpt lat="46.270449" lon="13.336547">
        <ele>456.262</ele>
        <time>2018-09-06T12:03:46Z</time>
      </trkpt>
      <trkpt lat="46.270444" lon="13.336567">
        <ele>456.247</ele>
        <time>2018-09-06T12:03:47Z</time>
      </trkpt>
      <trkpt lat="46.270438" lon="13.336586">
        <ele>456.729</ele>
        <time>2018-09-06T12:03:48Z</time>
      </trkpt>
      <trkpt lat="46.270423" lon="13.336638">
        <ele>457.221</ele>
        <time>2018-09-06T12:03:51Z</time>
      </trkpt>
      <trkpt lat="46.270420" lon="13.336743">
        <ele>457.708</ele>
        <time>2018-09-06T12:03:56Z</time>
      </trkpt>
      <trkpt lat="46.270414" lon="13.336763">
        <ele>457.718</ele>
        <time>2018-09-06T12:03:57Z</time>
      </trkpt>
      <trkpt lat="46.270409" lon="13.336783">
        <ele>458.220</ele>
        <time>2018-09-06T12:03:58Z</time>
      </trkpt>
      <trkpt lat="46.270408" lon="13.336803">
        <ele>458.246</ele>
        <time>2018-09-06T12:03:59Z</time>
      </trkpt>
      <trkpt lat="46.270409" lon="13.336822">
        <ele>458.642</ele>
        <time>2018-09-06T12:04:00Z</time>
      </trkpt>
      <trkpt lat="46.270409" lon="13.336841">
        <ele>459.133</ele>
        <time>2018-09-06T12:04:01Z</time>
      </trkpt>
      <trkpt lat="46.270405" lon="13.336859">
        <ele>459.693</ele>
        <time>2018-09-06T12:04:02Z</time>
      </trkpt>
      <trkpt lat="46.270403" lon="13.336877">
        <ele>460.146</ele>
        <time>2018-09-06T12:04:03Z</time>
      </trkpt>
      <trkpt lat="46.270402" lon="13.336895">
        <ele>460.120</ele>
        <time>2018-09-06T12:04:04Z</time>
      </trkpt>
      <trkpt lat="46.270467" lon="13.337199">
        <ele>463.498</ele>
        <time>2018-09-06T12:04:20Z</time>
      </trkpt>
      <trkpt lat="46.270490" lon="13.337292">
        <ele>464.415</ele>
        <time>2018-09-06T12:04:25Z</time>
      </trkpt>
      <trkpt lat="46.270500" lon="13.337305">
        <ele>464.426</ele>
        <time>2018-09-06T12:04:26Z</time>
      </trkpt>
      <trkpt lat="46.270511" lon="13.337315">
        <ele>464.908</ele>
        <time>2018-09-06T12:04:27Z</time>
      </trkpt>
      <trkpt lat="46.270524" lon="13.337322">
        <ele>464.463</ele>
        <time>2018-09-06T12:04:28Z</time>
      </trkpt>
      <trkpt lat="46.270539" lon="13.337328">
        <ele>464.445</ele>
        <time>2018-09-06T12:04:29Z</time>
      </trkpt>
      <trkpt lat="46.270555" lon="13.337328">
        <ele>464.491</ele>
        <time>2018-09-06T12:04:30Z</time>
      </trkpt>
      <trkpt lat="46.270569" lon="13.337322">
        <ele>464.947</ele>
        <time>2018-09-06T12:04:31Z</time>
      </trkpt>
      <trkpt lat="46.270580" lon="13.337309">
        <ele>464.968</ele>
        <time>2018-09-06T12:04:32Z</time>
      </trkpt>
      <trkpt lat="46.270587" lon="13.337289">
        <ele>465.468</ele>
        <time>2018-09-06T12:04:33Z</time>
      </trkpt>
      <trkpt lat="46.270591" lon="13.337261">
        <ele>465.451</ele>
        <time>2018-09-06T12:04:34Z</time>
      </trkpt>
      <trkpt lat="46.270594" lon="13.337231">
        <ele>465.915</ele>
        <time>2018-09-06T12:04:35Z</time>
      </trkpt>
      <trkpt lat="46.270593" lon="13.337203">
        <ele>465.972</ele>
        <time>2018-09-06T12:04:36Z</time>
      </trkpt>
      <trkpt lat="46.270591" lon="13.337175">
        <ele>465.913</ele>
        <time>2018-09-06T12:04:37Z</time>
      </trkpt>
      <trkpt lat="46.270666" lon="13.336715">
        <ele>467.314</ele>
        <time>2018-09-06T12:04:52Z</time>
      </trkpt>
      <trkpt lat="46.270779" lon="13.336337">
        <ele>467.308</ele>
        <time>2018-09-06T12:05:08Z</time>
      </trkpt>
      <trkpt lat="46.270943" lon="13.336101">
        <ele>468.791</ele>
        <time>2018-09-06T12:05:21Z</time>
      </trkpt>
      <trkpt lat="46.270961" lon="13.336104">
        <ele>469.263</ele>
        <time>2018-09-06T12:05:22Z</time>
      </trkpt>
      <trkpt lat="46.270977" lon="13.336189">
        <ele>470.249</ele>
        <time>2018-09-06T12:05:26Z</time>
      </trkpt>
      <trkpt lat="46.270959" lon="13.336307">
        <ele>472.135</ele>
        <time>2018-09-06T12:05:31Z</time>
      </trkpt>
      <trkpt lat="46.270974" lon="13.336750">
        <ele>474.026</ele>
        <time>2018-09-06T12:05:47Z</time>
      </trkpt>
      <trkpt lat="46.270912" lon="13.337242">
        <ele>476.936</ele>
        <time>2018-09-06T12:06:05Z</time>
      </trkpt>
      <trkpt lat="46.270910" lon="13.337648">
        <ele>478.339</ele>
        <time>2018-09-06T12:06:20Z</time>
      </trkpt>
      <trkpt lat="46.270976" lon="13.338106">
        <ele>480.393</ele>
        <time>2018-09-06T12:06:37Z</time>
      </trkpt>
      <trkpt lat="46.271071" lon="13.338433">
        <ele>483.223</ele>
        <time>2018-09-06T12:06:50Z</time>
      </trkpt>
      <trkpt lat="46.271092" lon="13.338429">
        <ele>483.283</ele>
        <time>2018-09-06T12:06:51Z</time>
      </trkpt>
      <trkpt lat="46.271113" lon="13.338414">
        <ele>483.611</ele>
        <time>2018-09-06T12:06:52Z</time>
      </trkpt>
      <trkpt lat="46.271131" lon="13.338395">
        <ele>484.108</ele>
        <time>2018-09-06T12:06:53Z</time>
      </trkpt>
      <trkpt lat="46.271146" lon="13.338372">
        <ele>484.146</ele>
        <time>2018-09-06T12:06:54Z</time>
      </trkpt>
      <trkpt lat="46.271157" lon="13.338346">
        <ele>484.648</ele>
        <time>2018-09-06T12:06:55Z</time>
      </trkpt>
      <trkpt lat="46.271161" lon="13.338315">
        <ele>485.134</ele>
        <time>2018-09-06T12:06:56Z</time>
      </trkpt>
      <trkpt lat="46.271161" lon="13.338284">
        <ele>485.130</ele>
        <time>2018-09-06T12:06:57Z</time>
      </trkpt>
      <trkpt lat="46.271232" lon="13.337677">
        <ele>490.851</ele>
        <time>2018-09-06T12:07:19Z</time>
      </trkpt>
      <trkpt lat="46.271432" lon="13.337404">
        <ele>493.751</ele>
        <time>2018-09-06T12:07:33Z</time>
      </trkpt>
      <trkpt lat="46.271655" lon="13.337185">
        <ele>496.114</ele>
        <time>2018-09-06T12:07:49Z</time>
      </trkpt>
      <trkpt lat="46.271885" lon="13.336887">
        <ele>498.558</ele>
        <time>2018-09-06T12:08:09Z</time>
      </trkpt>
      <trkpt lat="46.271955" lon="13.336417">
        <ele>500.563</ele>
        <time>2018-09-06T12:08:29Z</time>
      </trkpt>
      <trkpt lat="46.271967" lon="13.336400">
        <ele>500.544</ele>
        <time>2018-09-06T12:08:30Z</time>
      </trkpt>
      <trkpt lat="46.271983" lon="13.336391">
        <ele>500.518</ele>
        <time>2018-09-06T12:08:31Z</time>
      </trkpt>
      <trkpt lat="46.272001" lon="13.336390">
        <ele>500.508</ele>
        <time>2018-09-06T12:08:32Z</time>
      </trkpt>
      <trkpt lat="46.272017" lon="13.336400">
        <ele>500.570</ele>
        <time>2018-09-06T12:08:33Z</time>
      </trkpt>
      <trkpt lat="46.272028" lon="13.336420">
        <ele>500.992</ele>
        <time>2018-09-06T12:08:34Z</time>
      </trkpt>
      <trkpt lat="46.272034" lon="13.336445">
        <ele>500.998</ele>
        <time>2018-09-06T12:08:35Z</time>
      </trkpt>
      <trkpt lat="46.272034" lon="13.336474">
        <ele>500.974</ele>
        <time>2018-09-06T12:08:36Z</time>
      </trkpt>
      <trkpt lat="46.272031" lon="13.336505">
        <ele>501.415</ele>
        <time>2018-09-06T12:08:37Z</time>
      </trkpt>
      <trkpt lat="46.272027" lon="13.336535">
        <ele>501.415</ele>
        <time>2018-09-06T12:08:38Z</time>
      </trkpt>
      <trkpt lat="46.271949" lon="13.337120">
        <ele>506.798</ele>
        <time>2018-09-06T12:08:58Z</time>
      </trkpt>
      <trkpt lat="46.271905" lon="13.337507">
        <ele>508.632</ele>
        <time>2018-09-06T12:09:13Z</time>
      </trkpt>
      <trkpt lat="46.271921" lon="13.337524">
        <ele>508.613</ele>
        <time>2018-09-06T12:09:14Z</time>
      </trkpt>
      <trkpt lat="46.271980" lon="13.337542">
        <ele>509.143</ele>
        <time>2018-09-06T12:09:17Z</time>
      </trkpt>
      <trkpt lat="46.271991" lon="13.337535">
        <ele>509.107</ele>
        <time>2018-09-06T12:09:18Z</time>
      </trkpt>
      <trkpt lat="46.272000" lon="13.337521">
        <ele>509.108</ele>
        <time>2018-09-06T12:09:19Z</time>
      </trkpt>
      <trkpt lat="46.272005" lon="13.337501">
        <ele>509.665</ele>
        <time>2018-09-06T12:09:20Z</time>
      </trkpt>
      <trkpt lat="46.272009" lon="13.337479">
        <ele>509.677</ele>
        <time>2018-09-06T12:09:21Z</time>
      </trkpt>
      <trkpt lat="46.272013" lon="13.337460">
        <ele>509.663</ele>
        <time>2018-09-06T12:09:22Z</time>
      </trkpt>
      <trkpt lat="46.272016" lon="13.337442">
        <ele>510.139</ele>
        <time>2018-09-06T12:09:23Z</time>
      </trkpt>
      <trkpt lat="46.272137" lon="13.337105">
        <ele>511.030</ele>
        <time>2018-09-06T12:09:39Z</time>
      </trkpt>
      <trkpt lat="46.272217" lon="13.336893">
        <ele>512.030</ele>
        <time>2018-09-06T12:09:50Z</time>
      </trkpt>
      <trkpt lat="46.272230" lon="13.336890">
        <ele>512.043</ele>
        <time>2018-09-06T12:09:51Z</time>
      </trkpt>
      <trkpt lat="46.272241" lon="13.336897">
        <ele>512.047</ele>
        <time>2018-09-06T12:09:52Z</time>
      </trkpt>
      <trkpt lat="46.272254" lon="13.336903">
        <ele>512.026</ele>
        <time>2018-09-06T12:09:53Z</time>
      </trkpt>
      <trkpt lat="46.272268" lon="13.336902">
        <ele>512.047</ele>
        <time>2018-09-06T12:09:54Z</time>
      </trkpt>
      <trkpt lat="46.272288" lon="13.336915">
        <ele>512.011</ele>
        <time>2018-09-06T12:09:56Z</time>
      </trkpt>
      <trkpt lat="46.272277" lon="13.337023">
        <ele>512.008</ele>
        <time>2018-09-06T12:10:09Z</time>
      </trkpt>
      <trkpt lat="46.272269" lon="13.337010">
        <ele>513.926</ele>
        <time>2018-09-06T12:10:32Z</time>
      </trkpt>
      <trkpt lat="46.272297" lon="13.337029">
        <ele>512.028</ele>
        <time>2018-09-06T12:10:59Z</time>
      </trkpt>
      <trkpt lat="46.272278" lon="13.337011">
        <ele>513.474</ele>
        <time>2018-09-06T12:11:42Z</time>
      </trkpt>
      <trkpt lat="46.272281" lon="13.337028">
        <ele>511.010</ele>
        <time>2018-09-06T12:12:11Z</time>
      </trkpt>
      <trkpt lat="46.272283" lon="13.337001">
        <ele>512.581</ele>
        <time>2018-09-06T12:12:40Z</time>
      </trkpt>
      <trkpt lat="46.272293" lon="13.337080">
        <ele>511.551</ele>
        <time>2018-09-06T12:12:59Z</time>
      </trkpt>
      <trkpt lat="46.272290" lon="13.337103">
        <ele>511.574</ele>
        <time>2018-09-06T12:13:01Z</time>
      </trkpt>
      <trkpt lat="46.272273" lon="13.337166">
        <ele>512.098</ele>
        <time>2018-09-06T12:13:05Z</time>
      </trkpt>
      <trkpt lat="46.272231" lon="13.337445">
        <ele>513.937</ele>
        <time>2018-09-06T12:13:20Z</time>
      </trkpt>
      <trkpt lat="46.272240" lon="13.337695">
        <ele>517.849</ele>
        <time>2018-09-06T12:13:36Z</time>
      </trkpt>
      <trkpt lat="46.272245" lon="13.337843">
        <ele>518.713</ele>
        <time>2018-09-06T12:13:43Z</time>
      </trkpt>
      <trkpt lat="46.272263" lon="13.338041">
        <ele>520.208</ele>
        <time>2018-09-06T12:13:53Z</time>
      </trkpt>
      <trkpt lat="46.272341" lon="13.338032">
        <ele>521.127</ele>
        <time>2018-09-06T12:14:05Z</time>
      </trkpt>
      <trkpt lat="46.272392" lon="13.338052">
        <ele>520.659</ele>
        <time>2018-09-06T12:14:16Z</time>
      </trkpt>
      <trkpt lat="46.272393" lon="13.338027">
        <ele>522.155</ele>
        <time>2018-09-06T12:14:50Z</time>
      </trkpt>
      <trkpt lat="46.272383" lon="13.338052">
        <ele>523.571</ele>
        <time>2018-09-06T12:15:17Z</time>
      </trkpt>
      <trkpt lat="46.272401" lon="13.338074">
        <ele>525.032</ele>
        <time>2018-09-06T12:15:46Z</time>
      </trkpt>
      <trkpt lat="46.272406" lon="13.338071">
        <ele>525.982</ele>
        <time>2018-09-06T12:16:26Z</time>
      </trkpt>
      <trkpt lat="46.272414" lon="13.338078">
        <ele>524.085</ele>
        <time>2018-09-06T12:17:09Z</time>
      </trkpt>
      <trkpt lat="46.272418" lon="13.338082">
        <ele>519.259</ele>
        <time>2018-09-06T12:17:50Z</time>
      </trkpt>
      <trkpt lat="46.272424" lon="13.338082">
        <ele>519.758</ele>
        <time>2018-09-06T12:18:14Z</time>
      </trkpt>
      <trkpt lat="46.272434" lon="13.338051">
        <ele>519.252</ele>
        <time>2018-09-06T12:18:22Z</time>
      </trkpt>
      <trkpt lat="46.272413" lon="13.337990">
        <ele>520.217</ele>
        <time>2018-09-06T12:18:26Z</time>
      </trkpt>
      <trkpt lat="46.272437" lon="13.337859">
        <ele>521.108</ele>
        <time>2018-09-06T12:18:32Z</time>
      </trkpt>
      <trkpt lat="46.272559" lon="13.337505">
        <ele>524.569</ele>
        <time>2018-09-06T12:18:49Z</time>
      </trkpt>
      <trkpt lat="46.272632" lon="13.337353">
        <ele>523.061</ele>
        <time>2018-09-06T12:19:01Z</time>
      </trkpt>
      <trkpt lat="46.272635" lon="13.337347">
        <ele>522.637</ele>
        <time>2018-09-06T12:19:08Z</time>
      </trkpt>
      <trkpt lat="46.272672" lon="13.337295">
        <ele>522.623</ele>
        <time>2018-09-06T12:19:11Z</time>
      </trkpt>
      <trkpt lat="46.272691" lon="13.337275">
        <ele>522.614</ele>
        <time>2018-09-06T12:19:12Z</time>
      </trkpt>
      <trkpt lat="46.272712" lon="13.337257">
        <ele>522.614</ele>
        <time>2018-09-06T12:19:13Z</time>
      </trkpt>
      <trkpt lat="46.272733" lon="13.337240">
        <ele>522.187</ele>
        <time>2018-09-06T12:19:14Z</time>
      </trkpt>
      <trkpt lat="46.272758" lon="13.337227">
        <ele>522.151</ele>
        <time>2018-09-06T12:19:15Z</time>
      </trkpt>
      <trkpt lat="46.272785" lon="13.337216">
        <ele>522.167</ele>
        <time>2018-09-06T12:19:16Z</time>
      </trkpt>
      <trkpt lat="46.273214" lon="13.337128">
        <ele>521.681</ele>
        <time>2018-09-06T12:19:27Z</time>
      </trkpt>
      <trkpt lat="46.273254" lon="13.337110">
        <ele>521.619</ele>
        <time>2018-09-06T12:19:28Z</time>
      </trkpt>
      <trkpt lat="46.273293" lon="13.337092">
        <ele>521.108</ele>
        <time>2018-09-06T12:19:29Z</time>
      </trkpt>
      <trkpt lat="46.273821" lon="13.336892">
        <ele>520.240</ele>
        <time>2018-09-06T12:19:41Z</time>
      </trkpt>
      <trkpt lat="46.273866" lon="13.336865">
        <ele>520.292</ele>
        <time>2018-09-06T12:19:42Z</time>
      </trkpt>
      <trkpt lat="46.273910" lon="13.336830">
        <ele>520.278</ele>
        <time>2018-09-06T12:19:43Z</time>
      </trkpt>
      <trkpt lat="46.273952" lon="13.336787">
        <ele>520.234</ele>
        <time>2018-09-06T12:19:44Z</time>
      </trkpt>
      <trkpt lat="46.273990" lon="13.336739">
        <ele>520.245</ele>
        <time>2018-09-06T12:19:45Z</time>
      </trkpt>
      <trkpt lat="46.274027" lon="13.336685">
        <ele>519.795</ele>
        <time>2018-09-06T12:19:46Z</time>
      </trkpt>
      <trkpt lat="46.274110" lon="13.336583">
        <ele>519.258</ele>
        <time>2018-09-06T12:19:48Z</time>
      </trkpt>
      <trkpt lat="46.274162" lon="13.336537">
        <ele>518.732</ele>
        <time>2018-09-06T12:19:49Z</time>
      </trkpt>
      <trkpt lat="46.274216" lon="13.336497">
        <ele>518.725</ele>
        <time>2018-09-06T12:19:50Z</time>
      </trkpt>
      <trkpt lat="46.274660" lon="13.336248">
        <ele>515.826</ele>
        <time>2018-09-06T12:19:57Z</time>
      </trkpt>
      <trkpt lat="46.274716" lon="13.336191">
        <ele>515.808</ele>
        <time>2018-09-06T12:19:58Z</time>
      </trkpt>
      <trkpt lat="46.274762" lon="13.336118">
        <ele>515.808</ele>
        <time>2018-09-06T12:19:59Z</time>
      </trkpt>
      <trkpt lat="46.274800" lon="13.336039">
        <ele>515.876</ele>
        <time>2018-09-06T12:20:00Z</time>
      </trkpt>
      <trkpt lat="46.274826" lon="13.335961">
        <ele>515.848</ele>
        <time>2018-09-06T12:20:01Z</time>
      </trkpt>
      <trkpt lat="46.274850" lon="13.335885">
        <ele>516.324</ele>
        <time>2018-09-06T12:20:02Z</time>
      </trkpt>
      <trkpt lat="46.274875" lon="13.335817">
        <ele>516.340</ele>
        <time>2018-09-06T12:20:03Z</time>
      </trkpt>
      <trkpt lat="46.274960" lon="13.335577">
        <ele>517.891</ele>
        <time>2018-09-06T12:20:07Z</time>
      </trkpt>
      <trkpt lat="46.274968" lon="13.335517">
        <ele>518.271</ele>
        <time>2018-09-06T12:20:08Z</time>
      </trkpt>
      <trkpt lat="46.274959" lon="13.335458">
        <ele>518.224</ele>
        <time>2018-09-06T12:20:09Z</time>
      </trkpt>
      <trkpt lat="46.274936" lon="13.335410">
        <ele>518.718</ele>
        <time>2018-09-06T12:20:10Z</time>
      </trkpt>
      <trkpt lat="46.274897" lon="13.335384">
        <ele>518.776</ele>
        <time>2018-09-06T12:20:11Z</time>
      </trkpt>
      <trkpt lat="46.274849" lon="13.335379">
        <ele>518.790</ele>
        <time>2018-09-06T12:20:12Z</time>
      </trkpt>
      <trkpt lat="46.274806" lon="13.335390">
        <ele>518.719</ele>
        <time>2018-09-06T12:20:13Z</time>
      </trkpt>
      <trkpt lat="46.274761" lon="13.335408">
        <ele>518.708</ele>
        <time>2018-09-06T12:20:14Z</time>
      </trkpt>
      <trkpt lat="46.274717" lon="13.335432">
        <ele>518.711</ele>
        <time>2018-09-06T12:20:15Z</time>
      </trkpt>
      <trkpt lat="46.274672" lon="13.335456">
        <ele>518.793</ele>
        <time>2018-09-06T12:20:16Z</time>
      </trkpt>
      <trkpt lat="46.274631" lon="13.335477">
        <ele>519.229</ele>
        <time>2018-09-06T12:20:17Z</time>
      </trkpt>
      <trkpt lat="46.274545" lon="13.335517">
        <ele>519.755</ele>
        <time>2018-09-06T12:20:19Z</time>
      </trkpt>
      <trkpt lat="46.274366" lon="13.335560">
        <ele>521.196</ele>
        <time>2018-09-06T12:20:23Z</time>
      </trkpt>
      <trkpt lat="46.274277" lon="13.335556">
        <ele>522.626</ele>
        <time>2018-09-06T12:20:25Z</time>
      </trkpt>
      <trkpt lat="46.274231" lon="13.335549">
        <ele>523.549</ele>
        <time>2018-09-06T12:20:26Z</time>
      </trkpt>
      <trkpt lat="46.274187" lon="13.335535">
        <ele>524.523</ele>
        <time>2018-09-06T12:20:27Z</time>
      </trkpt>
      <trkpt lat="46.274149" lon="13.335518">
        <ele>525.081</ele>
        <time>2018-09-06T12:20:28Z</time>
      </trkpt>
      <trkpt lat="46.274111" lon="13.335497">
        <ele>525.961</ele>
        <time>2018-09-06T12:20:29Z</time>
      </trkpt>
      <trkpt lat="46.273580" lon="13.335089">
        <ele>534.117</ele>
        <time>2018-09-06T12:20:44Z</time>
      </trkpt>
      <trkpt lat="46.273550" lon="13.335042">
        <ele>534.108</ele>
        <time>2018-09-06T12:20:45Z</time>
      </trkpt>
      <trkpt lat="46.273522" lon="13.334990">
        <ele>534.632</ele>
        <time>2018-09-06T12:20:46Z</time>
      </trkpt>
      <trkpt lat="46.273499" lon="13.334930">
        <ele>535.154</ele>
        <time>2018-09-06T12:20:47Z</time>
      </trkpt>
      <trkpt lat="46.273482" lon="13.334863">
        <ele>535.130</ele>
        <time>2018-09-06T12:20:48Z</time>
      </trkpt>
      <trkpt lat="46.273469" lon="13.334787">
        <ele>534.626</ele>
        <time>2018-09-06T12:20:49Z</time>
      </trkpt>
      <trkpt lat="46.273460" lon="13.334709">
        <ele>534.187</ele>
        <time>2018-09-06T12:20:50Z</time>
      </trkpt>
      <trkpt lat="46.273454" lon="13.334631">
        <ele>533.147</ele>
        <time>2018-09-06T12:20:51Z</time>
      </trkpt>
      <trkpt lat="46.273412" lon="13.333799">
        <ele>527.970</ele>
        <time>2018-09-06T12:21:02Z</time>
      </trkpt>
      <trkpt lat="46.273420" lon="13.333724">
        <ele>527.994</ele>
        <time>2018-09-06T12:21:03Z</time>
      </trkpt>
      <trkpt lat="46.273433" lon="13.333648">
        <ele>527.953</ele>
        <time>2018-09-06T12:21:04Z</time>
      </trkpt>
      <trkpt lat="46.273482" lon="13.333421">
        <ele>526.904</ele>
        <time>2018-09-06T12:21:07Z</time>
      </trkpt>
      <trkpt lat="46.273488" lon="13.333343">
        <ele>526.914</ele>
        <time>2018-09-06T12:21:08Z</time>
      </trkpt>
      <trkpt lat="46.273480" lon="13.333270">
        <ele>526.408</ele>
        <time>2018-09-06T12:21:09Z</time>
      </trkpt>
      <trkpt lat="46.273461" lon="13.333202">
        <ele>526.449</ele>
        <time>2018-09-06T12:21:10Z</time>
      </trkpt>
      <trkpt lat="46.273434" lon="13.333142">
        <ele>525.971</ele>
        <time>2018-09-06T12:21:11Z</time>
      </trkpt>
      <trkpt lat="46.273401" lon="13.333093">
        <ele>525.927</ele>
        <time>2018-09-06T12:21:12Z</time>
      </trkpt>
      <trkpt lat="46.273360" lon="13.333063">
        <ele>525.983</ele>
        <time>2018-09-06T12:21:13Z</time>
      </trkpt>
      <trkpt lat="46.273317" lon="13.333048">
        <ele>526.484</ele>
        <time>2018-09-06T12:21:14Z</time>
      </trkpt>
      <trkpt lat="46.273276" lon="13.333044">
        <ele>526.454</ele>
        <time>2018-09-06T12:21:15Z</time>
      </trkpt>
      <trkpt lat="46.273237" lon="13.333050">
        <ele>525.977</ele>
        <time>2018-09-06T12:21:16Z</time>
      </trkpt>
      <trkpt lat="46.273199" lon="13.333059">
        <ele>525.951</ele>
        <time>2018-09-06T12:21:17Z</time>
      </trkpt>
      <trkpt lat="46.272700" lon="13.332977">
        <ele>530.353</ele>
        <time>2018-09-06T12:21:32Z</time>
      </trkpt>
      <trkpt lat="46.272393" lon="13.332569">
        <ele>533.604</ele>
        <time>2018-09-06T12:21:45Z</time>
      </trkpt>
      <trkpt lat="46.272458" lon="13.332096">
        <ele>534.614</ele>
        <time>2018-09-06T12:21:57Z</time>
      </trkpt>
      <trkpt lat="46.272543" lon="13.331718">
        <ele>534.108</ele>
        <time>2018-09-06T12:22:09Z</time>
      </trkpt>
      <trkpt lat="46.272590" lon="13.331520">
        <ele>533.119</ele>
        <time>2018-09-06T12:22:16Z</time>
      </trkpt>
      <trkpt lat="46.272599" lon="13.331498">
        <ele>533.151</ele>
        <time>2018-09-06T12:22:17Z</time>
      </trkpt>
      <trkpt lat="46.272647" lon="13.331167">
        <ele>534.177</ele>
        <time>2018-09-06T12:22:29Z</time>
      </trkpt>
      <trkpt lat="46.272545" lon="13.330937">
        <ele>537.063</ele>
        <time>2018-09-06T12:22:39Z</time>
      </trkpt>
      <trkpt lat="46.272293" lon="13.330706">
        <ele>543.774</ele>
        <time>2018-09-06T12:22:56Z</time>
      </trkpt>
      <trkpt lat="46.272104" lon="13.330394">
        <ele>550.474</ele>
        <time>2018-09-06T12:23:12Z</time>
      </trkpt>
      <trkpt lat="46.271934" lon="13.330005">
        <ele>557.797</ele>
        <time>2018-09-06T12:23:30Z</time>
      </trkpt>
      <trkpt lat="46.271838" lon="13.329583">
        <ele>563.991</ele>
        <time>2018-09-06T12:23:48Z</time>
      </trkpt>
      <trkpt lat="46.271780" lon="13.329211">
        <ele>568.731</ele>
        <time>2018-09-06T12:24:01Z</time>
      </trkpt>
      <trkpt lat="46.271683" lon="13.328805">
        <ele>575.461</ele>
        <time>2018-09-06T12:24:17Z</time>
      </trkpt>
      <trkpt lat="46.271696" lon="13.328342">
        <ele>577.807</ele>
        <time>2018-09-06T12:24:33Z</time>
      </trkpt>
      <trkpt lat="46.271816" lon="13.327861">
        <ele>581.208</ele>
        <time>2018-09-06T12:24:50Z</time>
      </trkpt>
      <trkpt lat="46.271901" lon="13.327534">
        <ele>579.317</ele>
        <time>2018-09-06T12:25:01Z</time>
      </trkpt>
      <trkpt lat="46.271906" lon="13.327511">
        <ele>579.899</ele>
        <time>2018-09-06T12:25:02Z</time>
      </trkpt>
      <trkpt lat="46.271989" lon="13.327074">
        <ele>582.755</ele>
        <time>2018-09-06T12:25:16Z</time>
      </trkpt>
      <trkpt lat="46.272199" lon="13.326660">
        <ele>579.881</ele>
        <time>2018-09-06T12:25:31Z</time>
      </trkpt>
      <trkpt lat="46.272398" lon="13.326264">
        <ele>576.992</ele>
        <time>2018-09-06T12:25:46Z</time>
      </trkpt>
      <trkpt lat="46.272569" lon="13.325950">
        <ele>573.532</ele>
        <time>2018-09-06T12:25:54Z</time>
      </trkpt>
      <trkpt lat="46.272605" lon="13.325902">
        <ele>572.635</ele>
        <time>2018-09-06T12:25:55Z</time>
      </trkpt>
      <trkpt lat="46.272782" lon="13.325677">
        <ele>569.759</ele>
        <time>2018-09-06T12:25:59Z</time>
      </trkpt>
      <trkpt lat="46.272837" lon="13.325617">
        <ele>569.215</ele>
        <time>2018-09-06T12:26:00Z</time>
      </trkpt>
      <trkpt lat="46.272890" lon="13.325550">
        <ele>568.265</ele>
        <time>2018-09-06T12:26:01Z</time>
      </trkpt>
      <trkpt lat="46.272943" lon="13.325469">
        <ele>567.311</ele>
        <time>2018-09-06T12:26:02Z</time>
      </trkpt>
      <trkpt lat="46.272991" lon="13.325369">
        <ele>566.308</ele>
        <time>2018-09-06T12:26:03Z</time>
      </trkpt>
      <trkpt lat="46.273030" lon="13.325263">
        <ele>565.885</ele>
        <time>2018-09-06T12:26:04Z</time>
      </trkpt>
      <trkpt lat="46.273068" lon="13.325145">
        <ele>564.997</ele>
        <time>2018-09-06T12:26:05Z</time>
      </trkpt>
      <trkpt lat="46.273248" lon="13.324422">
        <ele>560.183</ele>
        <time>2018-09-06T12:26:11Z</time>
      </trkpt>
      <trkpt lat="46.273250" lon="13.324298">
        <ele>559.619</ele>
        <time>2018-09-06T12:26:12Z</time>
      </trkpt>
      <trkpt lat="46.273232" lon="13.323551">
        <ele>556.740</ele>
        <time>2018-09-06T12:26:18Z</time>
      </trkpt>
      <trkpt lat="46.273248" lon="13.323433">
        <ele>556.270</ele>
        <time>2018-09-06T12:26:19Z</time>
      </trkpt>
      <trkpt lat="46.273275" lon="13.323326">
        <ele>555.763</ele>
        <time>2018-09-06T12:26:20Z</time>
      </trkpt>
      <trkpt lat="46.273315" lon="13.323227">
        <ele>555.347</ele>
        <time>2018-09-06T12:26:21Z</time>
      </trkpt>
      <trkpt lat="46.273374" lon="13.323131">
        <ele>554.335</ele>
        <time>2018-09-06T12:26:22Z</time>
      </trkpt>
      <trkpt lat="46.273428" lon="13.323038">
        <ele>553.886</ele>
        <time>2018-09-06T12:26:23Z</time>
      </trkpt>
      <trkpt lat="46.273475" lon="13.322930">
        <ele>553.314</ele>
        <time>2018-09-06T12:26:24Z</time>
      </trkpt>
      <trkpt lat="46.273507" lon="13.322821">
        <ele>552.908</ele>
        <time>2018-09-06T12:26:25Z</time>
      </trkpt>
      <trkpt lat="46.273514" lon="13.322706">
        <ele>552.427</ele>
        <time>2018-09-06T12:26:26Z</time>
      </trkpt>
      <trkpt lat="46.273498" lon="13.322594">
        <ele>551.959</ele>
        <time>2018-09-06T12:26:27Z</time>
      </trkpt>
      <trkpt lat="46.273470" lon="13.322485">
        <ele>551.975</ele>
        <time>2018-09-06T12:26:28Z</time>
      </trkpt>
      <trkpt lat="46.273441" lon="13.322386">
        <ele>551.421</ele>
        <time>2018-09-06T12:26:29Z</time>
      </trkpt>
      <trkpt lat="46.273261" lon="13.321815">
        <ele>551.482</ele>
        <time>2018-09-06T12:26:36Z</time>
      </trkpt>
      <trkpt lat="46.273227" lon="13.321763">
        <ele>551.952</ele>
        <time>2018-09-06T12:26:37Z</time>
      </trkpt>
      <trkpt lat="46.273189" lon="13.321722">
        <ele>551.935</ele>
        <time>2018-09-06T12:26:38Z</time>
      </trkpt>
      <trkpt lat="46.273149" lon="13.321688">
        <ele>551.989</ele>
        <time>2018-09-06T12:26:39Z</time>
      </trkpt>
      <trkpt lat="46.273105" lon="13.321658">
        <ele>551.988</ele>
        <time>2018-09-06T12:26:40Z</time>
      </trkpt>
      <trkpt lat="46.273061" lon="13.321633">
        <ele>551.924</ele>
        <time>2018-09-06T12:26:41Z</time>
      </trkpt>
      <trkpt lat="46.272977" lon="13.321584">
        <ele>552.426</ele>
        <time>2018-09-06T12:26:43Z</time>
      </trkpt>
      <trkpt lat="46.272941" lon="13.321556">
        <ele>552.408</ele>
        <time>2018-09-06T12:26:44Z</time>
      </trkpt>
      <trkpt lat="46.272755" lon="13.321089">
        <ele>556.792</ele>
        <time>2018-09-06T12:26:54Z</time>
      </trkpt>
      <trkpt lat="46.272760" lon="13.321024">
        <ele>556.774</ele>
        <time>2018-09-06T12:26:55Z</time>
      </trkpt>
      <trkpt lat="46.272869" lon="13.319903">
        <ele>554.350</ele>
        <time>2018-09-06T12:27:11Z</time>
      </trkpt>
      <trkpt lat="46.272875" lon="13.319852">
        <ele>552.996</ele>
        <time>2018-09-06T12:27:19Z</time>
      </trkpt>
      <trkpt lat="46.272866" lon="13.319794">
        <ele>550.917</ele>
        <time>2018-09-06T12:27:54Z</time>
      </trkpt>
      <trkpt lat="46.272860" lon="13.319784">
        <ele>550.957</ele>
        <time>2018-09-06T12:27:55Z</time>
      </trkpt>
      <trkpt lat="46.272851" lon="13.319772">
        <ele>550.910</ele>
        <time>2018-09-06T12:27:56Z</time>
      </trkpt>
      <trkpt lat="46.272842" lon="13.319759">
        <ele>550.964</ele>
        <time>2018-09-06T12:27:57Z</time>
      </trkpt>
      <trkpt lat="46.272836" lon="13.319744">
        <ele>550.917</ele>
        <time>2018-09-06T12:27:58Z</time>
      </trkpt>
      <trkpt lat="46.272821" lon="13.319676">
        <ele>552.487</ele>
        <time>2018-09-06T12:28:02Z</time>
      </trkpt>
      <trkpt lat="46.272809" lon="13.319667">
        <ele>552.415</ele>
        <time>2018-09-06T12:28:03Z</time>
      </trkpt>
      <trkpt lat="46.272796" lon="13.319661">
        <ele>552.408</ele>
        <time>2018-09-06T12:28:04Z</time>
      </trkpt>
      <trkpt lat="46.272781" lon="13.319652">
        <ele>552.915</ele>
        <time>2018-09-06T12:28:05Z</time>
      </trkpt>
      <trkpt lat="46.272767" lon="13.319633">
        <ele>552.957</ele>
        <time>2018-09-06T12:28:06Z</time>
      </trkpt>
      <trkpt lat="46.272755" lon="13.319614">
        <ele>552.983</ele>
        <time>2018-09-06T12:28:07Z</time>
      </trkpt>
      <trkpt lat="46.272567" lon="13.319335">
        <ele>553.339</ele>
        <time>2018-09-06T12:28:22Z</time>
      </trkpt>
      <trkpt lat="46.272376" lon="13.319030">
        <ele>554.360</ele>
        <time>2018-09-06T12:28:37Z</time>
      </trkpt>
      <trkpt lat="46.272206" lon="13.318669">
        <ele>554.810</ele>
        <time>2018-09-06T12:28:54Z</time>
      </trkpt>
      <trkpt lat="46.272313" lon="13.318364">
        <ele>553.323</ele>
        <time>2018-09-06T12:29:06Z</time>
      </trkpt>
      <trkpt lat="46.272336" lon="13.318272">
        <ele>552.417</ele>
        <time>2018-09-06T12:29:14Z</time>
      </trkpt>
      <trkpt lat="46.272356" lon="13.318319">
        <ele>552.453</ele>
        <time>2018-09-06T12:29:45Z</time>
      </trkpt>
      <trkpt lat="46.272349" lon="13.318301">
        <ele>552.404</ele>
        <time>2018-09-06T12:30:23Z</time>
      </trkpt>
      <trkpt lat="46.272345" lon="13.318291">
        <ele>552.914</ele>
        <time>2018-09-06T12:31:03Z</time>
      </trkpt>
      <trkpt lat="46.272338" lon="13.318292">
        <ele>551.408</ele>
        <time>2018-09-06T12:31:33Z</time>
      </trkpt>
      <trkpt lat="46.272333" lon="13.318292">
        <ele>552.479</ele>
        <time>2018-09-06T12:31:59Z</time>
      </trkpt>
      <trkpt lat="46.272346" lon="13.318285">
        <ele>551.941</ele>
        <time>2018-09-06T12:32:25Z</time>
      </trkpt>
      <trkpt lat="46.272336" lon="13.318256">
        <ele>551.947</ele>
        <time>2018-09-06T12:32:34Z</time>
      </trkpt>
      <trkpt lat="46.272331" lon="13.318235">
        <ele>551.983</ele>
        <time>2018-09-06T12:32:35Z</time>
      </trkpt>
      <trkpt lat="46.272178" lon="13.317901">
        <ele>554.844</ele>
        <time>2018-09-06T12:32:48Z</time>
      </trkpt>
      <trkpt lat="46.272061" lon="13.317473">
        <ele>558.664</ele>
        <time>2018-09-06T12:33:04Z</time>
      </trkpt>
      <trkpt lat="46.272048" lon="13.316960">
        <ele>558.147</ele>
        <time>2018-09-06T12:33:22Z</time>
      </trkpt>
      <trkpt lat="46.272015" lon="13.316349">
        <ele>560.181</ele>
        <time>2018-09-06T12:33:42Z</time>
      </trkpt>
      <trkpt lat="46.271988" lon="13.315877">
        <ele>561.537</ele>
        <time>2018-09-06T12:33:57Z</time>
      </trkpt>
      <trkpt lat="46.271988" lon="13.315541">
        <ele>563.949</ele>
        <time>2018-09-06T12:34:10Z</time>
      </trkpt>
      <trkpt lat="46.272031" lon="13.315200">
        <ele>566.813</ele>
        <time>2018-09-06T12:34:24Z</time>
      </trkpt>
      <trkpt lat="46.272169" lon="13.314932">
        <ele>569.208</ele>
        <time>2018-09-06T12:34:38Z</time>
      </trkpt>
      <trkpt lat="46.272243" lon="13.314946">
        <ele>569.737</ele>
        <time>2018-09-06T12:34:43Z</time>
      </trkpt>
      <trkpt lat="46.272254" lon="13.314964">
        <ele>569.779</ele>
        <time>2018-09-06T12:34:44Z</time>
      </trkpt>
      <trkpt lat="46.272267" lon="13.314981">
        <ele>569.785</ele>
        <time>2018-09-06T12:34:45Z</time>
      </trkpt>
      <trkpt lat="46.272275" lon="13.314994">
        <ele>569.781</ele>
        <time>2018-09-06T12:34:46Z</time>
      </trkpt>
      <trkpt lat="46.272281" lon="13.315007">
        <ele>570.252</ele>
        <time>2018-09-06T12:34:47Z</time>
      </trkpt>
      <trkpt lat="46.272290" lon="13.315023">
        <ele>570.252</ele>
        <time>2018-09-06T12:34:48Z</time>
      </trkpt>
      <trkpt lat="46.272428" lon="13.315274">
        <ele>573.545</ele>
        <time>2018-09-06T12:35:03Z</time>
      </trkpt>
      <trkpt lat="46.272445" lon="13.315273">
        <ele>573.559</ele>
        <time>2018-09-06T12:35:04Z</time>
      </trkpt>
      <trkpt lat="46.272461" lon="13.315268">
        <ele>573.534</ele>
        <time>2018-09-06T12:35:05Z</time>
      </trkpt>
      <trkpt lat="46.272472" lon="13.315257">
        <ele>573.555</ele>
        <time>2018-09-06T12:35:06Z</time>
      </trkpt>
      <trkpt lat="46.272484" lon="13.315242">
        <ele>574.010</ele>
        <time>2018-09-06T12:35:07Z</time>
      </trkpt>
      <trkpt lat="46.272493" lon="13.315227">
        <ele>574.008</ele>
        <time>2018-09-06T12:35:08Z</time>
      </trkpt>
      <trkpt lat="46.272497" lon="13.315208">
        <ele>574.517</ele>
        <time>2018-09-06T12:35:09Z</time>
      </trkpt>
      <trkpt lat="46.272502" lon="13.315190">
        <ele>574.579</ele>
        <time>2018-09-06T12:35:10Z</time>
      </trkpt>
      <trkpt lat="46.272511" lon="13.315175">
        <ele>575.045</ele>
        <time>2018-09-06T12:35:11Z</time>
      </trkpt>
      <trkpt lat="46.272520" lon="13.315161">
        <ele>575.071</ele>
        <time>2018-09-06T12:35:12Z</time>
      </trkpt>
      <trkpt lat="46.272569" lon="13.314840">
        <ele>577.852</ele>
        <time>2018-09-06T12:35:28Z</time>
      </trkpt>
      <trkpt lat="46.272573" lon="13.314443">
        <ele>580.762</ele>
        <time>2018-09-06T12:35:46Z</time>
      </trkpt>
      <trkpt lat="46.272612" lon="13.313983">
        <ele>583.685</ele>
        <time>2018-09-06T12:36:04Z</time>
      </trkpt>
      <trkpt lat="46.272694" lon="13.313395">
        <ele>586.559</ele>
        <time>2018-09-06T12:36:23Z</time>
      </trkpt>
      <trkpt lat="46.272727" lon="13.312904">
        <ele>590.898</ele>
        <time>2018-09-06T12:36:40Z</time>
      </trkpt>
      <trkpt lat="46.272849" lon="13.312433">
        <ele>595.115</ele>
        <time>2018-09-06T12:37:01Z</time>
      </trkpt>
      <trkpt lat="46.273074" lon="13.312209">
        <ele>600.426</ele>
        <time>2018-09-06T12:37:19Z</time>
      </trkpt>
      <trkpt lat="46.273224" lon="13.311915">
        <ele>602.808</ele>
        <time>2018-09-06T12:37:36Z</time>
      </trkpt>
      <trkpt lat="46.273432" lon="13.311751">
        <ele>605.273</ele>
        <time>2018-09-06T12:37:54Z</time>
      </trkpt>
      <trkpt lat="46.273442" lon="13.311746">
        <ele>605.255</ele>
        <time>2018-09-06T12:37:55Z</time>
      </trkpt>
      <trkpt lat="46.273498" lon="13.311667">
        <ele>605.791</ele>
        <time>2018-09-06T12:38:09Z</time>
      </trkpt>
      <trkpt lat="46.273496" lon="13.311664">
        <ele>606.777</ele>
        <time>2018-09-06T12:38:40Z</time>
      </trkpt>
      <trkpt lat="46.273481" lon="13.311656">
        <ele>606.768</ele>
        <time>2018-09-06T12:39:06Z</time>
      </trkpt>
      <trkpt lat="46.273496" lon="13.311593">
        <ele>606.788</ele>
        <time>2018-09-06T12:39:15Z</time>
      </trkpt>
      <trkpt lat="46.273499" lon="13.311571">
        <ele>607.281</ele>
        <time>2018-09-06T12:39:16Z</time>
      </trkpt>
      <trkpt lat="46.273502" lon="13.311553">
        <ele>607.255</ele>
        <time>2018-09-06T12:39:17Z</time>
      </trkpt>
      <trkpt lat="46.273507" lon="13.311425">
        <ele>608.195</ele>
        <time>2018-09-06T12:39:22Z</time>
      </trkpt>
      <trkpt lat="46.273350" lon="13.311004">
        <ele>611.049</ele>
        <time>2018-09-06T12:39:40Z</time>
      </trkpt>
      <trkpt lat="46.273250" lon="13.310516">
        <ele>613.923</ele>
        <time>2018-09-06T12:39:58Z</time>
      </trkpt>
      <trkpt lat="46.273184" lon="13.309992">
        <ele>613.908</ele>
        <time>2018-09-06T12:40:14Z</time>
      </trkpt>
      <trkpt lat="46.272938" lon="13.309540">
        <ele>618.783</ele>
        <time>2018-09-06T12:40:31Z</time>
      </trkpt>
      <trkpt lat="46.272873" lon="13.309123">
        <ele>619.265</ele>
        <time>2018-09-06T12:40:47Z</time>
      </trkpt>
      <trkpt lat="46.272846" lon="13.308956">
        <ele>618.761</ele>
        <time>2018-09-06T12:40:56Z</time>
      </trkpt>
      <trkpt lat="46.272836" lon="13.308947">
        <ele>618.727</ele>
        <time>2018-09-06T12:40:57Z</time>
      </trkpt>
      <trkpt lat="46.272827" lon="13.308940">
        <ele>619.228</ele>
        <time>2018-09-06T12:40:58Z</time>
      </trkpt>
      <trkpt lat="46.272820" lon="13.308927">
        <ele>619.228</ele>
        <time>2018-09-06T12:40:59Z</time>
      </trkpt>
      <trkpt lat="46.272815" lon="13.308911">
        <ele>619.711</ele>
        <time>2018-09-06T12:41:00Z</time>
      </trkpt>
      <trkpt lat="46.272813" lon="13.308890">
        <ele>619.745</ele>
        <time>2018-09-06T12:41:01Z</time>
      </trkpt>
      <trkpt lat="46.272812" lon="13.308872">
        <ele>619.711</ele>
        <time>2018-09-06T12:41:02Z</time>
      </trkpt>
      <trkpt lat="46.272808" lon="13.308854">
        <ele>619.721</ele>
        <time>2018-09-06T12:41:03Z</time>
      </trkpt>
      <trkpt lat="46.272801" lon="13.308836">
        <ele>620.103</ele>
        <time>2018-09-06T12:41:04Z</time>
      </trkpt>
      <trkpt lat="46.272794" lon="13.308818">
        <ele>620.108</ele>
        <time>2018-09-06T12:41:05Z</time>
      </trkpt>
      <trkpt lat="46.272794" lon="13.308800">
        <ele>620.635</ele>
        <time>2018-09-06T12:41:06Z</time>
      </trkpt>
      <trkpt lat="46.272797" lon="13.308781">
        <ele>620.687</ele>
        <time>2018-09-06T12:41:07Z</time>
      </trkpt>
      <trkpt lat="46.272799" lon="13.308763">
        <ele>621.153</ele>
        <time>2018-09-06T12:41:08Z</time>
      </trkpt>
      <trkpt lat="46.272801" lon="13.308742">
        <ele>621.179</ele>
        <time>2018-09-06T12:41:09Z</time>
      </trkpt>
      <trkpt lat="46.272787" lon="13.308671">
        <ele>621.170</ele>
        <time>2018-09-06T12:41:13Z</time>
      </trkpt>
      <trkpt lat="46.272775" lon="13.308664">
        <ele>621.680</ele>
        <time>2018-09-06T12:41:14Z</time>
      </trkpt>
      <trkpt lat="46.272764" lon="13.308662">
        <ele>621.653</ele>
        <time>2018-09-06T12:41:15Z</time>
      </trkpt>
      <trkpt lat="46.272754" lon="13.308652">
        <ele>621.617</ele>
        <time>2018-09-06T12:41:16Z</time>
      </trkpt>
      <trkpt lat="46.272747" lon="13.308634">
        <ele>621.664</ele>
        <time>2018-09-06T12:41:17Z</time>
      </trkpt>
      <trkpt lat="46.272748" lon="13.308615">
        <ele>621.606</ele>
        <time>2018-09-06T12:41:18Z</time>
      </trkpt>
      <trkpt lat="46.272754" lon="13.308595">
        <ele>621.616</ele>
        <time>2018-09-06T12:41:19Z</time>
      </trkpt>
      <trkpt lat="46.272758" lon="13.308576">
        <ele>621.608</ele>
        <time>2018-09-06T12:41:20Z</time>
      </trkpt>
      <trkpt lat="46.272761" lon="13.308557">
        <ele>621.670</ele>
        <time>2018-09-06T12:41:21Z</time>
      </trkpt>
      <trkpt lat="46.272764" lon="13.308536">
        <ele>621.172</ele>
        <time>2018-09-06T12:41:22Z</time>
      </trkpt>
      <trkpt lat="46.272751" lon="13.308434">
        <ele>621.178</ele>
        <time>2018-09-06T12:41:27Z</time>
      </trkpt>
      <trkpt lat="46.272740" lon="13.308422">
        <ele>621.154</ele>
        <time>2018-09-06T12:41:28Z</time>
      </trkpt>
      <trkpt lat="46.272700" lon="13.308392">
        <ele>621.135</ele>
        <time>2018-09-06T12:41:31Z</time>
      </trkpt>
      <trkpt lat="46.272694" lon="13.308371">
        <ele>621.195</ele>
        <time>2018-09-06T12:41:32Z</time>
      </trkpt>
      <trkpt lat="46.272694" lon="13.308348">
        <ele>621.138</ele>
        <time>2018-09-06T12:41:33Z</time>
      </trkpt>
      <trkpt lat="46.272699" lon="13.308329">
        <ele>621.122</ele>
        <time>2018-09-06T12:41:34Z</time>
      </trkpt>
      <trkpt lat="46.272707" lon="13.308311">
        <ele>621.112</ele>
        <time>2018-09-06T12:41:35Z</time>
      </trkpt>
      <trkpt lat="46.272715" lon="13.308295">
        <ele>620.632</ele>
        <time>2018-09-06T12:41:36Z</time>
      </trkpt>
      <trkpt lat="46.272720" lon="13.308282">
        <ele>621.105</ele>
        <time>2018-09-06T12:41:37Z</time>
      </trkpt>
      <trkpt lat="46.272722" lon="13.308254">
        <ele>621.108</ele>
        <time>2018-09-06T12:41:39Z</time>
      </trkpt>
      <trkpt lat="46.272715" lon="13.308242">
        <ele>621.165</ele>
        <time>2018-09-06T12:41:40Z</time>
      </trkpt>
      <trkpt lat="46.272703" lon="13.308240">
        <ele>621.197</ele>
        <time>2018-09-06T12:41:41Z</time>
      </trkpt>
      <trkpt lat="46.272691" lon="13.308246">
        <ele>621.183</ele>
        <time>2018-09-06T12:41:42Z</time>
      </trkpt>
      <trkpt lat="46.272683" lon="13.308256">
        <ele>621.179</ele>
        <time>2018-09-06T12:41:43Z</time>
      </trkpt>
      <trkpt lat="46.272679" lon="13.308271">
        <ele>620.670</ele>
        <time>2018-09-06T12:41:44Z</time>
      </trkpt>
      <trkpt lat="46.272688" lon="13.308288">
        <ele>620.170</ele>
        <time>2018-09-06T12:41:45Z</time>
      </trkpt>
      <trkpt lat="46.272699" lon="13.308295">
        <ele>619.783</ele>
        <time>2018-09-06T12:41:46Z</time>
      </trkpt>
      <trkpt lat="46.272733" lon="13.308334">
        <ele>619.287</ele>
        <time>2018-09-06T12:41:51Z</time>
      </trkpt>
      <trkpt lat="46.272736" lon="13.308349">
        <ele>619.258</ele>
        <time>2018-09-06T12:41:52Z</time>
      </trkpt>
      <trkpt lat="46.272733" lon="13.308366">
        <ele>618.752</ele>
        <time>2018-09-06T12:41:53Z</time>
      </trkpt>
      <trkpt lat="46.272726" lon="13.308449">
        <ele>618.217</ele>
        <time>2018-09-06T12:42:00Z</time>
      </trkpt>
      <trkpt lat="46.272739" lon="13.308452">
        <ele>618.208</ele>
        <time>2018-09-06T12:42:01Z</time>
      </trkpt>
      <trkpt lat="46.272747" lon="13.308398">
        <ele>618.749</ele>
        <time>2018-09-06T12:42:04Z</time>
      </trkpt>
      <trkpt lat="46.272606" lon="13.307970">
        <ele>621.171</ele>
        <time>2018-09-06T12:42:23Z</time>
      </trkpt>
      <trkpt lat="46.272543" lon="13.307744">
        <ele>622.157</ele>
        <time>2018-09-06T12:42:33Z</time>
      </trkpt>
      <trkpt lat="46.272538" lon="13.307591">
        <ele>622.143</ele>
        <time>2018-09-06T12:42:39Z</time>
      </trkpt>
      <trkpt lat="46.272539" lon="13.307562">
        <ele>622.164</ele>
        <time>2018-09-06T12:42:40Z</time>
      </trkpt>
      <trkpt lat="46.272543" lon="13.307534">
        <ele>622.154</ele>
        <time>2018-09-06T12:42:41Z</time>
      </trkpt>
      <trkpt lat="46.272549" lon="13.307506">
        <ele>621.697</ele>
        <time>2018-09-06T12:42:42Z</time>
      </trkpt>
      <trkpt lat="46.272562" lon="13.306940">
        <ele>624.041</ele>
        <time>2018-09-06T12:42:59Z</time>
      </trkpt>
      <trkpt lat="46.272657" lon="13.306302">
        <ele>626.979</ele>
        <time>2018-09-06T12:43:18Z</time>
      </trkpt>
      <trkpt lat="46.272908" lon="13.305707">
        <ele>627.405</ele>
        <time>2018-09-06T12:43:36Z</time>
      </trkpt>
      <trkpt lat="46.273185" lon="13.305052">
        <ele>629.825</ele>
        <time>2018-09-06T12:43:55Z</time>
      </trkpt>
      <trkpt lat="46.273401" lon="13.304512">
        <ele>630.708</ele>
        <time>2018-09-06T12:44:11Z</time>
      </trkpt>
      <trkpt lat="46.273533" lon="13.304022">
        <ele>633.641</ele>
        <time>2018-09-06T12:44:25Z</time>
      </trkpt>
      <trkpt lat="46.273295" lon="13.303429">
        <ele>635.043</ele>
        <time>2018-09-06T12:44:42Z</time>
      </trkpt>
      <trkpt lat="46.273290" lon="13.303027">
        <ele>634.679</ele>
        <time>2018-09-06T12:44:53Z</time>
      </trkpt>
      <trkpt lat="46.273736" lon="13.302421">
        <ele>637.015</ele>
        <time>2018-09-06T12:45:14Z</time>
      </trkpt>
      <trkpt lat="46.273978" lon="13.301818">
        <ele>637.046</ele>
        <time>2018-09-06T12:45:29Z</time>
      </trkpt>
      <trkpt lat="46.274378" lon="13.301593">
        <ele>637.086</ele>
        <time>2018-09-06T12:45:41Z</time>
      </trkpt>
      <trkpt lat="46.274753" lon="13.301910">
        <ele>637.999</ele>
        <time>2018-09-06T12:45:52Z</time>
      </trkpt>
      <trkpt lat="46.274790" lon="13.301936">
        <ele>637.993</ele>
        <time>2018-09-06T12:45:53Z</time>
      </trkpt>
      <trkpt lat="46.274832" lon="13.301955">
        <ele>637.962</ele>
        <time>2018-09-06T12:45:54Z</time>
      </trkpt>
      <trkpt lat="46.274879" lon="13.301966">
        <ele>637.983</ele>
        <time>2018-09-06T12:45:55Z</time>
      </trkpt>
      <trkpt lat="46.274926" lon="13.301968">
        <ele>637.911</ele>
        <time>2018-09-06T12:45:56Z</time>
      </trkpt>
      <trkpt lat="46.274975" lon="13.301962">
        <ele>637.908</ele>
        <time>2018-09-06T12:45:57Z</time>
      </trkpt>
      <trkpt lat="46.275023" lon="13.301949">
        <ele>637.970</ele>
        <time>2018-09-06T12:45:58Z</time>
      </trkpt>
      <trkpt lat="46.275073" lon="13.301932">
        <ele>637.912</ele>
        <time>2018-09-06T12:45:59Z</time>
      </trkpt>
      <trkpt lat="46.275867" lon="13.301784">
        <ele>638.458</ele>
        <time>2018-09-06T12:46:13Z</time>
      </trkpt>
      <trkpt lat="46.275924" lon="13.301761">
        <ele>638.494</ele>
        <time>2018-09-06T12:46:14Z</time>
      </trkpt>
      <trkpt lat="46.275977" lon="13.301719">
        <ele>638.435</ele>
        <time>2018-09-06T12:46:15Z</time>
      </trkpt>
      <trkpt lat="46.276021" lon="13.301659">
        <ele>638.925</ele>
        <time>2018-09-06T12:46:16Z</time>
      </trkpt>
      <trkpt lat="46.276052" lon="13.301586">
        <ele>638.968</ele>
        <time>2018-09-06T12:46:17Z</time>
      </trkpt>
      <trkpt lat="46.276067" lon="13.301507">
        <ele>639.432</ele>
        <time>2018-09-06T12:46:18Z</time>
      </trkpt>
      <trkpt lat="46.276064" lon="13.301431">
        <ele>639.421</ele>
        <time>2018-09-06T12:46:19Z</time>
      </trkpt>
      <trkpt lat="46.276047" lon="13.301362">
        <ele>639.441</ele>
        <time>2018-09-06T12:46:20Z</time>
      </trkpt>
      <trkpt lat="46.276017" lon="13.301300">
        <ele>639.805</ele>
        <time>2018-09-06T12:46:21Z</time>
      </trkpt>
      <trkpt lat="46.275978" lon="13.301242">
        <ele>639.808</ele>
        <time>2018-09-06T12:46:22Z</time>
      </trkpt>
      <trkpt lat="46.275937" lon="13.301185">
        <ele>639.896</ele>
        <time>2018-09-06T12:46:23Z</time>
      </trkpt>
      <trkpt lat="46.275786" lon="13.300915">
        <ele>640.398</ele>
        <time>2018-09-06T12:46:27Z</time>
      </trkpt>
      <trkpt lat="46.275714" lon="13.300671">
        <ele>640.824</ele>
        <time>2018-09-06T12:46:30Z</time>
      </trkpt>
      <trkpt lat="46.275658" lon="13.300256">
        <ele>641.890</ele>
        <time>2018-09-06T12:46:35Z</time>
      </trkpt>
      <trkpt lat="46.275678" lon="13.300174">
        <ele>641.351</ele>
        <time>2018-09-06T12:46:36Z</time>
      </trkpt>
      <trkpt lat="46.275710" lon="13.300102">
        <ele>640.841</ele>
        <time>2018-09-06T12:46:37Z</time>
      </trkpt>
      <trkpt lat="46.275750" lon="13.300038">
        <ele>640.844</ele>
        <time>2018-09-06T12:46:38Z</time>
      </trkpt>
      <trkpt lat="46.275797" lon="13.299983">
        <ele>639.828</ele>
        <time>2018-09-06T12:46:39Z</time>
      </trkpt>
      <trkpt lat="46.275844" lon="13.299934">
        <ele>639.493</ele>
        <time>2018-09-06T12:46:40Z</time>
      </trkpt>
      <trkpt lat="46.276416" lon="13.299214">
        <ele>630.265</ele>
        <time>2018-09-06T12:46:53Z</time>
      </trkpt>
      <trkpt lat="46.276451" lon="13.299142">
        <ele>630.221</ele>
        <time>2018-09-06T12:46:54Z</time>
      </trkpt>
      <trkpt lat="46.276474" lon="13.299063">
        <ele>629.808</ele>
        <time>2018-09-06T12:46:55Z</time>
      </trkpt>
      <trkpt lat="46.276482" lon="13.298978">
        <ele>629.863</ele>
        <time>2018-09-06T12:46:56Z</time>
      </trkpt>
      <trkpt lat="46.276475" lon="13.298890">
        <ele>629.825</ele>
        <time>2018-09-06T12:46:57Z</time>
      </trkpt>
      <trkpt lat="46.276455" lon="13.298808">
        <ele>629.821</ele>
        <time>2018-09-06T12:46:58Z</time>
      </trkpt>
      <trkpt lat="46.276435" lon="13.298727">
        <ele>629.847</ele>
        <time>2018-09-06T12:46:59Z</time>
      </trkpt>
      <trkpt lat="46.276423" lon="13.298639">
        <ele>629.848</ele>
        <time>2018-09-06T12:47:00Z</time>
      </trkpt>
      <trkpt lat="46.276423" lon="13.298555">
        <ele>629.338</ele>
        <time>2018-09-06T12:47:01Z</time>
      </trkpt>
      <trkpt lat="46.276437" lon="13.298473">
        <ele>629.351</ele>
        <time>2018-09-06T12:47:02Z</time>
      </trkpt>
      <trkpt lat="46.276462" lon="13.298394">
        <ele>629.365</ele>
        <time>2018-09-06T12:47:03Z</time>
      </trkpt>
      <trkpt lat="46.276493" lon="13.298325">
        <ele>628.838</ele>
        <time>2018-09-06T12:47:04Z</time>
      </trkpt>
      <trkpt lat="46.276527" lon="13.298255">
        <ele>628.870</ele>
        <time>2018-09-06T12:47:05Z</time>
      </trkpt>
      <trkpt lat="46.276648" lon="13.297965">
        <ele>627.817</ele>
        <time>2018-09-06T12:47:09Z</time>
      </trkpt>
      <trkpt lat="46.276815" lon="13.297433">
        <ele>627.808</ele>
        <time>2018-09-06T12:47:16Z</time>
      </trkpt>
      <trkpt lat="46.276826" lon="13.297347">
        <ele>628.367</ele>
        <time>2018-09-06T12:47:17Z</time>
      </trkpt>
      <trkpt lat="46.276826" lon="13.297260">
        <ele>628.849</ele>
        <time>2018-09-06T12:47:18Z</time>
      </trkpt>
      <trkpt lat="46.276816" lon="13.297178">
        <ele>628.895</ele>
        <time>2018-09-06T12:47:19Z</time>
      </trkpt>
      <trkpt lat="46.276793" lon="13.297099">
        <ele>628.811</ele>
        <time>2018-09-06T12:47:20Z</time>
      </trkpt>
      <trkpt lat="46.276758" lon="13.297031">
        <ele>628.872</ele>
        <time>2018-09-06T12:47:21Z</time>
      </trkpt>
      <trkpt lat="46.276716" lon="13.296979">
        <ele>629.372</ele>
        <time>2018-09-06T12:47:22Z</time>
      </trkpt>
      <trkpt lat="46.276668" lon="13.296936">
        <ele>629.335</ele>
        <time>2018-09-06T12:47:23Z</time>
      </trkpt>
      <trkpt lat="46.276617" lon="13.296908">
        <ele>629.369</ele>
        <time>2018-09-06T12:47:24Z</time>
      </trkpt>
      <trkpt lat="46.276568" lon="13.296895">
        <ele>629.367</ele>
        <time>2018-09-06T12:47:25Z</time>
      </trkpt>
      <trkpt lat="46.276520" lon="13.296898">
        <ele>629.881</ele>
        <time>2018-09-06T12:47:26Z</time>
      </trkpt>
      <trkpt lat="46.276470" lon="13.296908">
        <ele>629.819</ele>
        <time>2018-09-06T12:47:27Z</time>
      </trkpt>
      <trkpt lat="46.276325" lon="13.296911">
        <ele>629.808</ele>
        <time>2018-09-06T12:47:30Z</time>
      </trkpt>
      <trkpt lat="46.276273" lon="13.296896">
        <ele>629.310</ele>
        <time>2018-09-06T12:47:31Z</time>
      </trkpt>
      <trkpt lat="46.276221" lon="13.296870">
        <ele>629.342</ele>
        <time>2018-09-06T12:47:32Z</time>
      </trkpt>
      <trkpt lat="46.276173" lon="13.296832">
        <ele>629.388</ele>
        <time>2018-09-06T12:47:33Z</time>
      </trkpt>
      <trkpt lat="46.276125" lon="13.296789">
        <ele>629.314</ele>
        <time>2018-09-06T12:47:34Z</time>
      </trkpt>
      <trkpt lat="46.276076" lon="13.296756">
        <ele>629.365</ele>
        <time>2018-09-06T12:47:35Z</time>
      </trkpt>
      <trkpt lat="46.276018" lon="13.296739">
        <ele>629.345</ele>
        <time>2018-09-06T12:47:36Z</time>
      </trkpt>
      <trkpt lat="46.275963" lon="13.296738">
        <ele>629.388</ele>
        <time>2018-09-06T12:47:37Z</time>
      </trkpt>
      <trkpt lat="46.275908" lon="13.296748">
        <ele>629.372</ele>
        <time>2018-09-06T12:47:38Z</time>
      </trkpt>
      <trkpt lat="46.275858" lon="13.296762">
        <ele>629.332</ele>
        <time>2018-09-06T12:47:39Z</time>
      </trkpt>
      <trkpt lat="46.275808" lon="13.296781">
        <ele>628.892</ele>
        <time>2018-09-06T12:47:40Z</time>
      </trkpt>
      <trkpt lat="46.275759" lon="13.296802">
        <ele>628.311</ele>
        <time>2018-09-06T12:47:41Z</time>
      </trkpt>
      <trkpt lat="46.275713" lon="13.296817">
        <ele>627.808</ele>
        <time>2018-09-06T12:47:42Z</time>
      </trkpt>
      <trkpt lat="46.275668" lon="13.296822">
        <ele>627.887</ele>
        <time>2018-09-06T12:47:43Z</time>
      </trkpt>
      <trkpt lat="46.275622" lon="13.296815">
        <ele>627.869</ele>
        <time>2018-09-06T12:47:44Z</time>
      </trkpt>
      <trkpt lat="46.275578" lon="13.296800">
        <ele>627.885</ele>
        <time>2018-09-06T12:47:45Z</time>
      </trkpt>
      <trkpt lat="46.275539" lon="13.296781">
        <ele>627.861</ele>
        <time>2018-09-06T12:47:46Z</time>
      </trkpt>
      <trkpt lat="46.275501" lon="13.296755">
        <ele>627.862</ele>
        <time>2018-09-06T12:47:47Z</time>
      </trkpt>
      <trkpt lat="46.275463" lon="13.296725">
        <ele>627.412</ele>
        <time>2018-09-06T12:47:48Z</time>
      </trkpt>
      <trkpt lat="46.275423" lon="13.296693">
        <ele>627.465</ele>
        <time>2018-09-06T12:47:49Z</time>
      </trkpt>
      <trkpt lat="46.274962" lon="13.296307">
        <ele>628.879</ele>
        <time>2018-09-06T12:48:01Z</time>
      </trkpt>
      <trkpt lat="46.274940" lon="13.296258">
        <ele>628.845</ele>
        <time>2018-09-06T12:48:02Z</time>
      </trkpt>
      <trkpt lat="46.274929" lon="13.296203">
        <ele>628.347</ele>
        <time>2018-09-06T12:48:03Z</time>
      </trkpt>
      <trkpt lat="46.274925" lon="13.296142">
        <ele>628.311</ele>
        <time>2018-09-06T12:48:04Z</time>
      </trkpt>
      <trkpt lat="46.274928" lon="13.296085">
        <ele>628.308</ele>
        <time>2018-09-06T12:48:05Z</time>
      </trkpt>
      <trkpt lat="46.274938" lon="13.296031">
        <ele>627.818</ele>
        <time>2018-09-06T12:48:06Z</time>
      </trkpt>
      <trkpt lat="46.274957" lon="13.295977">
        <ele>627.880</ele>
        <time>2018-09-06T12:48:07Z</time>
      </trkpt>
      <trkpt lat="46.274981" lon="13.295927">
        <ele>627.896</ele>
        <time>2018-09-06T12:48:08Z</time>
      </trkpt>
      <trkpt lat="46.275005" lon="13.295881">
        <ele>627.892</ele>
        <time>2018-09-06T12:48:09Z</time>
      </trkpt>
      <trkpt lat="46.275031" lon="13.295833">
        <ele>627.843</ele>
        <time>2018-09-06T12:48:10Z</time>
      </trkpt>
      <trkpt lat="46.275431" lon="13.295010">
        <ele>626.953</ele>
        <time>2018-09-06T12:48:26Z</time>
      </trkpt>
      <trkpt lat="46.275586" lon="13.294651">
        <ele>627.426</ele>
        <time>2018-09-06T12:48:33Z</time>
      </trkpt>
      <trkpt lat="46.275596" lon="13.294591">
        <ele>627.470</ele>
        <time>2018-09-06T12:48:34Z</time>
      </trkpt>
      <trkpt lat="46.275598" lon="13.294528">
        <ele>627.481</ele>
        <time>2018-09-06T12:48:35Z</time>
      </trkpt>
      <trkpt lat="46.275593" lon="13.294468">
        <ele>627.861</ele>
        <time>2018-09-06T12:48:36Z</time>
      </trkpt>
      <trkpt lat="46.275580" lon="13.294407">
        <ele>627.817</ele>
        <time>2018-09-06T12:48:37Z</time>
      </trkpt>
      <trkpt lat="46.275565" lon="13.294346">
        <ele>628.308</ele>
        <time>2018-09-06T12:48:38Z</time>
      </trkpt>
      <trkpt lat="46.275251" lon="13.293732">
        <ele>633.682</ele>
        <time>2018-09-06T12:48:52Z</time>
      </trkpt>
      <trkpt lat="46.274763" lon="13.293543">
        <ele>637.044</ele>
        <time>2018-09-06T12:49:05Z</time>
      </trkpt>
      <trkpt lat="46.274688" lon="13.293496">
        <ele>637.450</ele>
        <time>2018-09-06T12:49:07Z</time>
      </trkpt>
      <trkpt lat="46.274652" lon="13.293459">
        <ele>637.466</ele>
        <time>2018-09-06T12:49:08Z</time>
      </trkpt>
      <trkpt lat="46.274619" lon="13.293416">
        <ele>637.987</ele>
        <time>2018-09-06T12:49:09Z</time>
      </trkpt>
      <trkpt lat="46.274591" lon="13.293369">
        <ele>637.997</ele>
        <time>2018-09-06T12:49:10Z</time>
      </trkpt>
      <trkpt lat="46.274560" lon="13.293317">
        <ele>637.980</ele>
        <time>2018-09-06T12:49:11Z</time>
      </trkpt>
      <trkpt lat="46.274492" lon="13.293206">
        <ele>637.484</ele>
        <time>2018-09-06T12:49:13Z</time>
      </trkpt>
      <trkpt lat="46.274452" lon="13.293160">
        <ele>637.046</ele>
        <time>2018-09-06T12:49:14Z</time>
      </trkpt>
      <trkpt lat="46.274409" lon="13.293125">
        <ele>636.588</ele>
        <time>2018-09-06T12:49:15Z</time>
      </trkpt>
      <trkpt lat="46.274365" lon="13.293100">
        <ele>636.516</ele>
        <time>2018-09-06T12:49:16Z</time>
      </trkpt>
      <trkpt lat="46.274319" lon="13.293083">
        <ele>636.008</ele>
        <time>2018-09-06T12:49:17Z</time>
      </trkpt>
      <trkpt lat="46.274271" lon="13.293069">
        <ele>636.068</ele>
        <time>2018-09-06T12:49:18Z</time>
      </trkpt>
      <trkpt lat="46.274120" lon="13.293037">
        <ele>635.010</ele>
        <time>2018-09-06T12:49:21Z</time>
      </trkpt>
      <trkpt lat="46.274069" lon="13.293037">
        <ele>634.616</ele>
        <time>2018-09-06T12:49:22Z</time>
      </trkpt>
      <trkpt lat="46.274018" lon="13.293044">
        <ele>634.652</ele>
        <time>2018-09-06T12:49:23Z</time>
      </trkpt>
      <trkpt lat="46.273577" lon="13.293119">
        <ele>632.213</ele>
        <time>2018-09-06T12:49:32Z</time>
      </trkpt>
      <trkpt lat="46.273532" lon="13.293116">
        <ele>632.253</ele>
        <time>2018-09-06T12:49:33Z</time>
      </trkpt>
      <trkpt lat="46.273490" lon="13.293097">
        <ele>631.786</ele>
        <time>2018-09-06T12:49:34Z</time>
      </trkpt>
      <trkpt lat="46.273453" lon="13.293057">
        <ele>631.210</ele>
        <time>2018-09-06T12:49:35Z</time>
      </trkpt>
      <trkpt lat="46.273431" lon="13.292999">
        <ele>631.295</ele>
        <time>2018-09-06T12:49:36Z</time>
      </trkpt>
      <trkpt lat="46.273420" lon="13.292932">
        <ele>630.749</ele>
        <time>2018-09-06T12:49:37Z</time>
      </trkpt>
      <trkpt lat="46.273413" lon="13.292863">
        <ele>630.723</ele>
        <time>2018-09-06T12:49:38Z</time>
      </trkpt>
      <trkpt lat="46.273406" lon="13.292794">
        <ele>630.708</ele>
        <time>2018-09-06T12:49:39Z</time>
      </trkpt>
      <trkpt lat="46.273398" lon="13.292728">
        <ele>630.263</ele>
        <time>2018-09-06T12:49:40Z</time>
      </trkpt>
      <trkpt lat="46.273359" lon="13.292539">
        <ele>629.845</ele>
        <time>2018-09-06T12:49:43Z</time>
      </trkpt>
      <trkpt lat="46.273335" lon="13.292480">
        <ele>629.891</ele>
        <time>2018-09-06T12:49:44Z</time>
      </trkpt>
      <trkpt lat="46.273305" lon="13.292427">
        <ele>629.817</ele>
        <time>2018-09-06T12:49:45Z</time>
      </trkpt>
      <trkpt lat="46.273268" lon="13.292382">
        <ele>629.358</ele>
        <time>2018-09-06T12:49:46Z</time>
      </trkpt>
      <trkpt lat="46.273229" lon="13.292341">
        <ele>629.358</ele>
        <time>2018-09-06T12:49:47Z</time>
      </trkpt>
      <trkpt lat="46.273027" lon="13.292147">
        <ele>627.881</ele>
        <time>2018-09-06T12:49:52Z</time>
      </trkpt>
      <trkpt lat="46.272791" lon="13.291905">
        <ele>627.895</ele>
        <time>2018-09-06T12:50:02Z</time>
      </trkpt>
      <trkpt lat="46.272745" lon="13.291892">
        <ele>626.417</ele>
        <time>2018-09-06T12:50:12Z</time>
      </trkpt>
      <trkpt lat="46.272734" lon="13.291869">
        <ele>624.087</ele>
        <time>2018-09-06T12:50:53Z</time>
      </trkpt>
      <trkpt lat="46.272720" lon="13.291906">
        <ele>626.415</ele>
        <time>2018-09-06T12:51:26Z</time>
      </trkpt>
      <trkpt lat="46.272710" lon="13.291931">
        <ele>627.408</ele>
        <time>2018-09-06T12:52:03Z</time>
      </trkpt>
      <trkpt lat="46.272712" lon="13.291921">
        <ele>627.845</ele>
        <time>2018-09-06T12:52:46Z</time>
      </trkpt>
      <trkpt lat="46.272732" lon="13.291906">
        <ele>626.427</ele>
        <time>2018-09-06T12:53:23Z</time>
      </trkpt>
      <trkpt lat="46.272726" lon="13.291910">
        <ele>626.943</ele>
        <time>2018-09-06T12:53:56Z</time>
      </trkpt>
      <trkpt lat="46.272708" lon="13.291890">
        <ele>628.859</ele>
        <time>2018-09-06T12:54:35Z</time>
      </trkpt>
      <trkpt lat="46.272719" lon="13.291894">
        <ele>627.830</ele>
        <time>2018-09-06T12:55:09Z</time>
      </trkpt>
      <trkpt lat="46.272731" lon="13.291895">
        <ele>624.920</ele>
        <time>2018-09-06T12:55:41Z</time>
      </trkpt>
      <trkpt lat="46.272705" lon="13.291890">
        <ele>625.973</ele>
        <time>2018-09-06T12:55:55Z</time>
      </trkpt>
      <trkpt lat="46.272692" lon="13.291892">
        <ele>625.917</ele>
        <time>2018-09-06T12:55:56Z</time>
      </trkpt>
      <trkpt lat="46.272677" lon="13.291897">
        <ele>625.981</ele>
        <time>2018-09-06T12:55:57Z</time>
      </trkpt>
      <trkpt lat="46.272660" lon="13.291898">
        <ele>625.961</ele>
        <time>2018-09-06T12:55:58Z</time>
      </trkpt>
      <trkpt lat="46.272641" lon="13.291895">
        <ele>625.917</ele>
        <time>2018-09-06T12:55:59Z</time>
      </trkpt>
      <trkpt lat="46.272617" lon="13.291888">
        <ele>626.408</ele>
        <time>2018-09-06T12:56:00Z</time>
      </trkpt>
      <trkpt lat="46.272226" lon="13.291800">
        <ele>626.952</ele>
        <time>2018-09-06T12:56:11Z</time>
      </trkpt>
      <trkpt lat="46.272185" lon="13.291774">
        <ele>626.474</ele>
        <time>2018-09-06T12:56:12Z</time>
      </trkpt>
      <trkpt lat="46.271822" lon="13.291503">
        <ele>624.910</ele>
        <time>2018-09-06T12:56:20Z</time>
      </trkpt>
      <trkpt lat="46.271772" lon="13.291484">
        <ele>624.936</ele>
        <time>2018-09-06T12:56:21Z</time>
      </trkpt>
      <trkpt lat="46.271717" lon="13.291471">
        <ele>624.537</ele>
        <time>2018-09-06T12:56:22Z</time>
      </trkpt>
      <trkpt lat="46.271663" lon="13.291467">
        <ele>624.557</ele>
        <time>2018-09-06T12:56:23Z</time>
      </trkpt>
      <trkpt lat="46.271604" lon="13.291473">
        <ele>624.010</ele>
        <time>2018-09-06T12:56:24Z</time>
      </trkpt>
      <trkpt lat="46.271546" lon="13.291482">
        <ele>624.024</ele>
        <time>2018-09-06T12:56:25Z</time>
      </trkpt>
      <trkpt lat="46.270963" lon="13.291661">
        <ele>623.544</ele>
        <time>2018-09-06T12:56:35Z</time>
      </trkpt>
      <trkpt lat="46.270902" lon="13.291691">
        <ele>623.005</ele>
        <time>2018-09-06T12:56:36Z</time>
      </trkpt>
      <trkpt lat="46.270651" lon="13.291781">
        <ele>622.515</ele>
        <time>2018-09-06T12:56:40Z</time>
      </trkpt>
      <trkpt lat="46.270586" lon="13.291779">
        <ele>622.508</ele>
        <time>2018-09-06T12:56:41Z</time>
      </trkpt>
      <trkpt lat="46.270523" lon="13.291757">
        <ele>622.548</ele>
        <time>2018-09-06T12:56:42Z</time>
      </trkpt>
      <trkpt lat="46.270130" lon="13.291508">
        <ele>621.120</ele>
        <time>2018-09-06T12:56:49Z</time>
      </trkpt>
      <trkpt lat="46.269614" lon="13.291496">
        <ele>621.186</ele>
        <time>2018-09-06T12:57:01Z</time>
      </trkpt>
      <trkpt lat="46.269260" lon="13.291428">
        <ele>624.062</ele>
        <time>2018-09-06T12:57:14Z</time>
      </trkpt>
      <trkpt lat="46.268846" lon="13.291165">
        <ele>625.433</ele>
        <time>2018-09-06T12:57:30Z</time>
      </trkpt>
      <trkpt lat="46.268466" lon="13.291157">
        <ele>626.433</ele>
        <time>2018-09-06T12:57:44Z</time>
      </trkpt>
      <trkpt lat="46.268193" lon="13.290970">
        <ele>631.276</ele>
        <time>2018-09-06T12:57:57Z</time>
      </trkpt>
      <trkpt lat="46.267801" lon="13.290869">
        <ele>631.790</ele>
        <time>2018-09-06T12:58:11Z</time>
      </trkpt>
      <trkpt lat="46.267600" lon="13.291051">
        <ele>631.221</ele>
        <time>2018-09-06T12:58:18Z</time>
      </trkpt>
      <trkpt lat="46.267580" lon="13.291106">
        <ele>631.241</ele>
        <time>2018-09-06T12:58:19Z</time>
      </trkpt>
      <trkpt lat="46.267515" lon="13.291264">
        <ele>631.205</ele>
        <time>2018-09-06T12:58:22Z</time>
      </trkpt>
      <trkpt lat="46.267481" lon="13.291308">
        <ele>631.208</ele>
        <time>2018-09-06T12:58:23Z</time>
      </trkpt>
      <trkpt lat="46.267442" lon="13.291335">
        <ele>631.296</ele>
        <time>2018-09-06T12:58:24Z</time>
      </trkpt>
      <trkpt lat="46.267399" lon="13.291348">
        <ele>631.248</ele>
        <time>2018-09-06T12:58:25Z</time>
      </trkpt>
      <trkpt lat="46.267353" lon="13.291348">
        <ele>631.294</ele>
        <time>2018-09-06T12:58:26Z</time>
      </trkpt>
      <trkpt lat="46.267304" lon="13.291338">
        <ele>631.230</ele>
        <time>2018-09-06T12:58:27Z</time>
      </trkpt>
      <trkpt lat="46.267259" lon="13.291321">
        <ele>631.231</ele>
        <time>2018-09-06T12:58:28Z</time>
      </trkpt>
      <trkpt lat="46.267217" lon="13.291300">
        <ele>630.761</ele>
        <time>2018-09-06T12:58:29Z</time>
      </trkpt>
      <trkpt lat="46.267174" lon="13.291271">
        <ele>630.784</ele>
        <time>2018-09-06T12:58:30Z</time>
      </trkpt>
      <trkpt lat="46.266517" lon="13.290863">
        <ele>627.838</ele>
        <time>2018-09-06T12:58:41Z</time>
      </trkpt>
      <trkpt lat="46.265565" lon="13.290305">
        <ele>623.573</ele>
        <time>2018-09-06T12:58:54Z</time>
      </trkpt>
      <trkpt lat="46.265400" lon="13.290241">
        <ele>622.585</ele>
        <time>2018-09-06T12:58:56Z</time>
      </trkpt>
      <trkpt lat="46.265313" lon="13.290225">
        <ele>622.513</ele>
        <time>2018-09-06T12:58:57Z</time>
      </trkpt>
      <trkpt lat="46.265233" lon="13.290220">
        <ele>622.108</ele>
        <time>2018-09-06T12:58:58Z</time>
      </trkpt>
      <trkpt lat="46.265151" lon="13.290215">
        <ele>622.181</ele>
        <time>2018-09-06T12:58:59Z</time>
      </trkpt>
      <trkpt lat="46.265067" lon="13.290202">
        <ele>622.153</ele>
        <time>2018-09-06T12:59:00Z</time>
      </trkpt>
      <trkpt lat="46.264991" lon="13.290184">
        <ele>622.119</ele>
        <time>2018-09-06T12:59:01Z</time>
      </trkpt>
      <trkpt lat="46.264792" lon="13.290107">
        <ele>622.535</ele>
        <time>2018-09-06T12:59:04Z</time>
      </trkpt>
      <trkpt lat="46.264731" lon="13.290092">
        <ele>622.556</ele>
        <time>2018-09-06T12:59:05Z</time>
      </trkpt>
      <trkpt lat="46.264674" lon="13.290090">
        <ele>622.596</ele>
        <time>2018-09-06T12:59:06Z</time>
      </trkpt>
      <trkpt lat="46.264619" lon="13.290100">
        <ele>623.089</ele>
        <time>2018-09-06T12:59:07Z</time>
      </trkpt>
      <trkpt lat="46.264568" lon="13.290119">
        <ele>622.573</ele>
        <time>2018-09-06T12:59:08Z</time>
      </trkpt>
      <trkpt lat="46.264517" lon="13.290142">
        <ele>622.594</ele>
        <time>2018-09-06T12:59:09Z</time>
      </trkpt>
      <trkpt lat="46.264468" lon="13.290160">
        <ele>622.557</ele>
        <time>2018-09-06T12:59:10Z</time>
      </trkpt>
      <trkpt lat="46.264421" lon="13.290171">
        <ele>622.122</ele>
        <time>2018-09-06T12:59:11Z</time>
      </trkpt>
      <trkpt lat="46.264374" lon="13.290176">
        <ele>622.108</ele>
        <time>2018-09-06T12:59:12Z</time>
      </trkpt>
      <trkpt lat="46.264329" lon="13.290176">
        <ele>622.173</ele>
        <time>2018-09-06T12:59:13Z</time>
      </trkpt>
      <trkpt lat="46.264284" lon="13.290170">
        <ele>621.665</ele>
        <time>2018-09-06T12:59:14Z</time>
      </trkpt>
      <trkpt lat="46.264107" lon="13.290149">
        <ele>621.131</ele>
        <time>2018-09-06T12:59:18Z</time>
      </trkpt>
      <trkpt lat="46.264062" lon="13.290147">
        <ele>621.127</ele>
        <time>2018-09-06T12:59:19Z</time>
      </trkpt>
      <trkpt lat="46.264018" lon="13.290145">
        <ele>621.188</ele>
        <time>2018-09-06T12:59:20Z</time>
      </trkpt>
      <trkpt lat="46.263974" lon="13.290143">
        <ele>620.618</ele>
        <time>2018-09-06T12:59:21Z</time>
      </trkpt>
      <trkpt lat="46.263929" lon="13.290143">
        <ele>620.651</ele>
        <time>2018-09-06T12:59:22Z</time>
      </trkpt>
      <trkpt lat="46.263888" lon="13.290155">
        <ele>620.165</ele>
        <time>2018-09-06T12:59:23Z</time>
      </trkpt>
      <trkpt lat="46.263850" lon="13.290172">
        <ele>619.758</ele>
        <time>2018-09-06T12:59:24Z</time>
      </trkpt>
      <trkpt lat="46.263544" lon="13.290485">
        <ele>618.752</ele>
        <time>2018-09-06T12:59:34Z</time>
      </trkpt>
      <trkpt lat="46.263290" lon="13.290747">
        <ele>618.717</ele>
        <time>2018-09-06T12:59:42Z</time>
      </trkpt>
      <trkpt lat="46.263245" lon="13.290744">
        <ele>618.708</ele>
        <time>2018-09-06T12:59:43Z</time>
      </trkpt>
      <trkpt lat="46.263204" lon="13.290730">
        <ele>618.749</ele>
        <time>2018-09-06T12:59:44Z</time>
      </trkpt>
      <trkpt lat="46.263171" lon="13.290703">
        <ele>619.221</ele>
        <time>2018-09-06T12:59:45Z</time>
      </trkpt>
      <trkpt lat="46.263141" lon="13.290670">
        <ele>619.787</ele>
        <time>2018-09-06T12:59:46Z</time>
      </trkpt>
      <trkpt lat="46.263029" lon="13.290556">
        <ele>621.693</ele>
        <time>2018-09-06T12:59:49Z</time>
      </trkpt>
      <trkpt lat="46.262985" lon="13.290524">
        <ele>622.164</ele>
        <time>2018-09-06T12:59:50Z</time>
      </trkpt>
      <trkpt lat="46.262938" lon="13.290496">
        <ele>622.564</ele>
        <time>2018-09-06T12:59:51Z</time>
      </trkpt>
      <trkpt lat="46.262885" lon="13.290476">
        <ele>622.527</ele>
        <time>2018-09-06T12:59:52Z</time>
      </trkpt>
      <trkpt lat="46.262831" lon="13.290459">
        <ele>623.041</ele>
        <time>2018-09-06T12:59:53Z</time>
      </trkpt>
      <trkpt lat="46.262666" lon="13.290405">
        <ele>623.513</ele>
        <time>2018-09-06T12:59:56Z</time>
      </trkpt>
      <trkpt lat="46.262613" lon="13.290371">
        <ele>623.543</ele>
        <time>2018-09-06T12:59:57Z</time>
      </trkpt>
      <trkpt lat="46.262562" lon="13.290331">
        <ele>623.507</ele>
        <time>2018-09-06T12:59:58Z</time>
      </trkpt>
      <trkpt lat="46.262140" lon="13.289986">
        <ele>623.008</ele>
        <time>2018-09-06T13:00:06Z</time>
      </trkpt>
      <trkpt lat="46.262082" lon="13.289965">
        <ele>622.525</ele>
        <time>2018-09-06T13:00:07Z</time>
      </trkpt>
      <trkpt lat="46.262024" lon="13.289955">
        <ele>622.557</ele>
        <time>2018-09-06T13:00:08Z</time>
      </trkpt>
      <trkpt lat="46.261966" lon="13.289953">
        <ele>622.563</ele>
        <time>2018-09-06T13:00:09Z</time>
      </trkpt>
      <trkpt lat="46.261907" lon="13.289958">
        <ele>622.549</ele>
        <time>2018-09-06T13:00:10Z</time>
      </trkpt>
      <trkpt lat="46.261674" lon="13.289967">
        <ele>622.540</ele>
        <time>2018-09-06T13:00:14Z</time>
      </trkpt>
      <trkpt lat="46.261618" lon="13.289963">
        <ele>622.120</ele>
        <time>2018-09-06T13:00:15Z</time>
      </trkpt>
      <trkpt lat="46.261564" lon="13.289948">
        <ele>622.173</ele>
        <time>2018-09-06T13:00:16Z</time>
      </trkpt>
      <trkpt lat="46.261511" lon="13.289916">
        <ele>622.187</ele>
        <time>2018-09-06T13:00:17Z</time>
      </trkpt>
      <trkpt lat="46.261459" lon="13.289880">
        <ele>622.111</ele>
        <time>2018-09-06T13:00:18Z</time>
      </trkpt>
      <trkpt lat="46.261404" lon="13.289849">
        <ele>622.121</ele>
        <time>2018-09-06T13:00:19Z</time>
      </trkpt>
      <trkpt lat="46.261348" lon="13.289830">
        <ele>622.503</ele>
        <time>2018-09-06T13:00:20Z</time>
      </trkpt>
      <trkpt lat="46.261290" lon="13.289825">
        <ele>622.508</ele>
        <time>2018-09-06T13:00:21Z</time>
      </trkpt>
      <trkpt lat="46.260460" lon="13.289889">
        <ele>622.565</ele>
        <time>2018-09-06T13:00:35Z</time>
      </trkpt>
      <trkpt lat="46.260398" lon="13.289870">
        <ele>622.197</ele>
        <time>2018-09-06T13:00:36Z</time>
      </trkpt>
      <trkpt lat="46.260340" lon="13.289850">
        <ele>622.143</ele>
        <time>2018-09-06T13:00:37Z</time>
      </trkpt>
      <trkpt lat="46.260157" lon="13.289788">
        <ele>620.139</ele>
        <time>2018-09-06T13:00:40Z</time>
      </trkpt>
      <trkpt lat="46.260101" lon="13.289735">
        <ele>619.730</ele>
        <time>2018-09-06T13:00:41Z</time>
      </trkpt>
      <trkpt lat="46.260064" lon="13.289656">
        <ele>619.280</ele>
        <time>2018-09-06T13:00:42Z</time>
      </trkpt>
      <trkpt lat="46.260044" lon="13.289564">
        <ele>618.743</ele>
        <time>2018-09-06T13:00:43Z</time>
      </trkpt>
      <trkpt lat="46.260027" lon="13.289470">
        <ele>618.777</ele>
        <time>2018-09-06T13:00:44Z</time>
      </trkpt>
      <trkpt lat="46.259999" lon="13.289383">
        <ele>618.238</ele>
        <time>2018-09-06T13:00:45Z</time>
      </trkpt>
      <trkpt lat="46.259952" lon="13.289320">
        <ele>617.770</ele>
        <time>2018-09-06T13:00:46Z</time>
      </trkpt>
      <trkpt lat="46.259891" lon="13.289270">
        <ele>617.317</ele>
        <time>2018-09-06T13:00:47Z</time>
      </trkpt>
      <trkpt lat="46.259822" lon="13.289217">
        <ele>616.308</ele>
        <time>2018-09-06T13:00:48Z</time>
      </trkpt>
      <trkpt lat="46.259367" lon="13.288709">
        <ele>612.967</ele>
        <time>2018-09-06T13:00:56Z</time>
      </trkpt>
      <trkpt lat="46.259248" lon="13.288588">
        <ele>612.599</ele>
        <time>2018-09-06T13:00:58Z</time>
      </trkpt>
      <trkpt lat="46.258996" lon="13.288366">
        <ele>611.055</ele>
        <time>2018-09-06T13:01:02Z</time>
      </trkpt>
      <trkpt lat="46.258941" lon="13.288301">
        <ele>611.021</ele>
        <time>2018-09-06T13:01:03Z</time>
      </trkpt>
      <trkpt lat="46.258888" lon="13.288227">
        <ele>611.062</ele>
        <time>2018-09-06T13:01:04Z</time>
      </trkpt>
      <trkpt lat="46.258843" lon="13.288150">
        <ele>611.092</ele>
        <time>2018-09-06T13:01:05Z</time>
      </trkpt>
      <trkpt lat="46.258800" lon="13.288069">
        <ele>611.065</ele>
        <time>2018-09-06T13:01:06Z</time>
      </trkpt>
      <trkpt lat="46.258295" lon="13.286988">
        <ele>611.539</ele>
        <time>2018-09-06T13:01:21Z</time>
      </trkpt>
      <trkpt lat="46.257987" lon="13.286329">
        <ele>613.457</ele>
        <time>2018-09-06T13:01:34Z</time>
      </trkpt>
      <trkpt lat="46.257710" lon="13.285656">
        <ele>616.800</ele>
        <time>2018-09-06T13:01:48Z</time>
      </trkpt>
      <trkpt lat="46.257625" lon="13.285027">
        <ele>620.620</ele>
        <time>2018-09-06T13:02:00Z</time>
      </trkpt>
      <trkpt lat="46.257465" lon="13.284393">
        <ele>618.708</ele>
        <time>2018-09-06T13:02:15Z</time>
      </trkpt>
      <trkpt lat="46.257165" lon="13.284001">
        <ele>621.159</ele>
        <time>2018-09-06T13:02:29Z</time>
      </trkpt>
      <trkpt lat="46.256702" lon="13.283684">
        <ele>618.261</ele>
        <time>2018-09-06T13:02:42Z</time>
      </trkpt>
      <trkpt lat="46.256666" lon="13.283641">
        <ele>618.237</ele>
        <time>2018-09-06T13:02:43Z</time>
      </trkpt>
      <trkpt lat="46.256571" lon="13.283493">
        <ele>617.733</ele>
        <time>2018-09-06T13:02:46Z</time>
      </trkpt>
      <trkpt lat="46.256454" lon="13.283163">
        <ele>619.764</ele>
        <time>2018-09-06T13:02:53Z</time>
      </trkpt>
      <trkpt lat="46.256453" lon="13.283135">
        <ele>620.174</ele>
        <time>2018-09-06T13:02:54Z</time>
      </trkpt>
      <trkpt lat="46.256450" lon="13.283108">
        <ele>620.637</ele>
        <time>2018-09-06T13:02:55Z</time>
      </trkpt>
      <trkpt lat="46.256450" lon="13.283090">
        <ele>620.671</ele>
        <time>2018-09-06T13:02:56Z</time>
      </trkpt>
      <trkpt lat="46.256451" lon="13.283072">
        <ele>620.619</ele>
        <time>2018-09-06T13:02:57Z</time>
      </trkpt>
      <trkpt lat="46.256434" lon="13.283022">
        <ele>620.109</ele>
        <time>2018-09-06T13:03:09Z</time>
      </trkpt>
      <trkpt lat="46.256426" lon="13.283022">
        <ele>620.119</ele>
        <time>2018-09-06T13:03:40Z</time>
      </trkpt>
      <trkpt lat="46.256426" lon="13.283040">
        <ele>616.808</ele>
        <time>2018-09-06T13:04:12Z</time>
      </trkpt>
      <trkpt lat="46.256428" lon="13.283036">
        <ele>618.735</ele>
        <time>2018-09-06T13:04:39Z</time>
      </trkpt>
      <trkpt lat="46.256447" lon="13.282995">
        <ele>618.777</ele>
        <time>2018-09-06T13:05:13Z</time>
      </trkpt>
      <trkpt lat="46.256391" lon="13.282936">
        <ele>624.573</ele>
        <time>2018-09-06T13:14:11Z</time>
      </trkpt>
      <trkpt lat="46.256413" lon="13.283247">
        <ele>622.579</ele>
        <time>2018-09-06T13:14:21Z</time>
      </trkpt>
      <trkpt lat="46.256397" lon="13.283251">
        <ele>622.560</ele>
        <time>2018-09-06T13:14:22Z</time>
      </trkpt>
      <trkpt lat="46.256289" lon="13.283269">
        <ele>621.670</ele>
        <time>2018-09-06T13:14:28Z</time>
      </trkpt>
      <trkpt lat="46.256287" lon="13.283295">
        <ele>621.113</ele>
        <time>2018-09-06T13:14:29Z</time>
      </trkpt>
      <trkpt lat="46.256296" lon="13.283347">
        <ele>620.177</ele>
        <time>2018-09-06T13:14:40Z</time>
      </trkpt>
      <trkpt lat="46.256288" lon="13.283196">
        <ele>617.397</ele>
        <time>2018-09-06T13:56:24Z</time>
      </trkpt>
      <trkpt lat="46.256310" lon="13.283254">
        <ele>616.823</ele>
        <time>2018-09-06T14:04:05Z</time>
      </trkpt>
      <trkpt lat="46.256287" lon="13.283305">
        <ele>621.125</ele>
        <time>2018-09-06T14:04:44Z</time>
      </trkpt>
      <trkpt lat="46.256280" lon="13.283277">
        <ele>622.508</ele>
        <time>2018-09-06T14:05:13Z</time>
      </trkpt>
      <trkpt lat="46.256295" lon="13.283241">
        <ele>621.693</ele>
        <time>2018-09-06T14:05:59Z</time>
      </trkpt>
      <trkpt lat="46.256283" lon="13.283243">
        <ele>624.585</ele>
        <time>2018-09-06T14:06:41Z</time>
      </trkpt>
      <trkpt lat="46.256278" lon="13.283292">
        <ele>622.121</ele>
        <time>2018-09-06T14:07:23Z</time>
      </trkpt>
      <trkpt lat="46.256296" lon="13.283330">
        <ele>620.617</ele>
        <time>2018-09-06T14:07:49Z</time>
      </trkpt>
      <trkpt lat="46.256335" lon="13.283270">
        <ele>621.168</ele>
        <time>2018-09-06T14:08:08Z</time>
      </trkpt>
      <trkpt lat="46.256349" lon="13.283250">
        <ele>621.678</ele>
        <time>2018-09-06T14:08:10Z</time>
      </trkpt>
      <trkpt lat="46.256384" lon="13.283243">
        <ele>622.161</ele>
        <time>2018-09-06T14:08:13Z</time>
      </trkpt>
      <trkpt lat="46.256395" lon="13.283242">
        <ele>622.195</ele>
        <time>2018-09-06T14:08:14Z</time>
      </trkpt>
      <trkpt lat="46.256405" lon="13.283232">
        <ele>622.194</ele>
        <time>2018-09-06T14:08:15Z</time>
      </trkpt>
      <trkpt lat="46.256423" lon="13.283116">
        <ele>623.057</ele>
        <time>2018-09-06T14:08:21Z</time>
      </trkpt>
      <trkpt lat="46.256420" lon="13.283101">
        <ele>623.022</ele>
        <time>2018-09-06T14:08:22Z</time>
      </trkpt>
      <trkpt lat="46.256423" lon="13.283085">
        <ele>623.008</ele>
        <time>2018-09-06T14:08:23Z</time>
      </trkpt>
      <trkpt lat="46.256431" lon="13.283074">
        <ele>623.023</ele>
        <time>2018-09-06T14:08:24Z</time>
      </trkpt>
      <trkpt lat="46.256484" lon="13.283174">
        <ele>623.055</ele>
        <time>2018-09-06T14:08:35Z</time>
      </trkpt>
      <trkpt lat="46.256490" lon="13.283186">
        <ele>623.081</ele>
        <time>2018-09-06T14:08:36Z</time>
      </trkpt>
      <trkpt lat="46.256547" lon="13.283289">
        <ele>621.697</ele>
        <time>2018-09-06T14:08:47Z</time>
      </trkpt>
      <trkpt lat="46.256709" lon="13.283499">
        <ele>616.898</ele>
        <time>2018-09-06T14:08:57Z</time>
      </trkpt>
      <trkpt lat="46.256864" lon="13.283554">
        <ele>612.038</ele>
        <time>2018-09-06T14:09:04Z</time>
      </trkpt>
      <trkpt lat="46.256890" lon="13.283545">
        <ele>611.531</ele>
        <time>2018-09-06T14:09:05Z</time>
      </trkpt>
      <trkpt lat="46.256912" lon="13.283529">
        <ele>611.025</ele>
        <time>2018-09-06T14:09:06Z</time>
      </trkpt>
      <trkpt lat="46.256929" lon="13.283502">
        <ele>611.089</ele>
        <time>2018-09-06T14:09:07Z</time>
      </trkpt>
      <trkpt lat="46.256940" lon="13.283466">
        <ele>610.506</ele>
        <time>2018-09-06T14:09:08Z</time>
      </trkpt>
      <trkpt lat="46.256948" lon="13.283424">
        <ele>610.026</ele>
        <time>2018-09-06T14:09:09Z</time>
      </trkpt>
      <trkpt lat="46.256953" lon="13.283383">
        <ele>609.608</ele>
        <time>2018-09-06T14:09:10Z</time>
      </trkpt>
      <trkpt lat="46.256957" lon="13.283346">
        <ele>609.112</ele>
        <time>2018-09-06T14:09:11Z</time>
      </trkpt>
      <trkpt lat="46.257148" lon="13.282896">
        <ele>599.524</ele>
        <time>2018-09-06T14:09:23Z</time>
      </trkpt>
      <trkpt lat="46.257246" lon="13.282665">
        <ele>597.630</ele>
        <time>2018-09-06T14:09:30Z</time>
      </trkpt>
      <trkpt lat="46.257246" lon="13.282641">
        <ele>597.696</ele>
        <time>2018-09-06T14:09:31Z</time>
      </trkpt>
      <trkpt lat="46.257243" lon="13.282624">
        <ele>597.677</ele>
        <time>2018-09-06T14:09:32Z</time>
      </trkpt>
      <trkpt lat="46.257172" lon="13.282357">
        <ele>592.737</ele>
        <time>2018-09-06T14:09:43Z</time>
      </trkpt>
      <trkpt lat="46.257187" lon="13.282305">
        <ele>593.230</ele>
        <time>2018-09-06T14:09:46Z</time>
      </trkpt>
      <trkpt lat="46.257197" lon="13.282289">
        <ele>593.724</ele>
        <time>2018-09-06T14:09:47Z</time>
      </trkpt>
      <trkpt lat="46.257207" lon="13.282273">
        <ele>593.739</ele>
        <time>2018-09-06T14:09:48Z</time>
      </trkpt>
      <trkpt lat="46.257242" lon="13.282236">
        <ele>594.701</ele>
        <time>2018-09-06T14:09:52Z</time>
      </trkpt>
      <trkpt lat="46.257257" lon="13.282224">
        <ele>594.721</ele>
        <time>2018-09-06T14:09:53Z</time>
      </trkpt>
      <trkpt lat="46.257275" lon="13.282206">
        <ele>594.708</ele>
        <time>2018-09-06T14:09:54Z</time>
      </trkpt>
      <trkpt lat="46.257431" lon="13.282094">
        <ele>593.737</ele>
        <time>2018-09-06T14:10:00Z</time>
      </trkpt>
      <trkpt lat="46.257456" lon="13.282063">
        <ele>593.259</ele>
        <time>2018-09-06T14:10:01Z</time>
      </trkpt>
      <trkpt lat="46.257476" lon="13.282031">
        <ele>592.755</ele>
        <time>2018-09-06T14:10:02Z</time>
      </trkpt>
      <trkpt lat="46.257497" lon="13.281995">
        <ele>592.381</ele>
        <time>2018-09-06T14:10:03Z</time>
      </trkpt>
      <trkpt lat="46.257517" lon="13.281954">
        <ele>591.892</ele>
        <time>2018-09-06T14:10:04Z</time>
      </trkpt>
      <trkpt lat="46.257541" lon="13.281906">
        <ele>590.822</ele>
        <time>2018-09-06T14:10:05Z</time>
      </trkpt>
      <trkpt lat="46.257769" lon="13.281591">
        <ele>587.035</ele>
        <time>2018-09-06T14:10:14Z</time>
      </trkpt>
      <trkpt lat="46.258048" lon="13.281128">
        <ele>582.249</ele>
        <time>2018-09-06T14:10:26Z</time>
      </trkpt>
      <trkpt lat="46.258092" lon="13.280627">
        <ele>574.584</ele>
        <time>2018-09-06T14:10:37Z</time>
      </trkpt>
      <trkpt lat="46.258295" lon="13.280292">
        <ele>570.207</ele>
        <time>2018-09-06T14:10:47Z</time>
      </trkpt>
      <trkpt lat="46.258353" lon="13.279745">
        <ele>567.317</ele>
        <time>2018-09-06T14:10:58Z</time>
      </trkpt>
      <trkpt lat="46.258315" lon="13.279434">
        <ele>564.408</ele>
        <time>2018-09-06T14:11:04Z</time>
      </trkpt>
      <trkpt lat="46.258333" lon="13.279394">
        <ele>563.942</ele>
        <time>2018-09-06T14:11:05Z</time>
      </trkpt>
      <trkpt lat="46.258363" lon="13.279373">
        <ele>562.934</ele>
        <time>2018-09-06T14:11:06Z</time>
      </trkpt>
      <trkpt lat="46.258396" lon="13.279373">
        <ele>562.570</ele>
        <time>2018-09-06T14:11:07Z</time>
      </trkpt>
      <trkpt lat="46.258427" lon="13.279388">
        <ele>562.066</ele>
        <time>2018-09-06T14:11:08Z</time>
      </trkpt>
      <trkpt lat="46.258451" lon="13.279409">
        <ele>561.027</ele>
        <time>2018-09-06T14:11:09Z</time>
      </trkpt>
      <trkpt lat="46.258474" lon="13.279433">
        <ele>560.127</ele>
        <time>2018-09-06T14:11:10Z</time>
      </trkpt>
      <trkpt lat="46.258623" lon="13.279761">
        <ele>553.860</ele>
        <time>2018-09-06T14:11:19Z</time>
      </trkpt>
      <trkpt lat="46.258803" lon="13.280159">
        <ele>546.184</ele>
        <time>2018-09-06T14:11:29Z</time>
      </trkpt>
      <trkpt lat="46.258820" lon="13.280186">
        <ele>545.646</ele>
        <time>2018-09-06T14:11:30Z</time>
      </trkpt>
      <trkpt lat="46.258845" lon="13.280202">
        <ele>545.288</ele>
        <time>2018-09-06T14:11:31Z</time>
      </trkpt>
      <trkpt lat="46.258870" lon="13.280202">
        <ele>544.716</ele>
        <time>2018-09-06T14:11:32Z</time>
      </trkpt>
      <trkpt lat="46.258895" lon="13.280189">
        <ele>544.708</ele>
        <time>2018-09-06T14:11:33Z</time>
      </trkpt>
      <trkpt lat="46.258914" lon="13.280162">
        <ele>544.218</ele>
        <time>2018-09-06T14:11:34Z</time>
      </trkpt>
      <trkpt lat="46.258930" lon="13.280130">
        <ele>543.740</ele>
        <time>2018-09-06T14:11:35Z</time>
      </trkpt>
      <trkpt lat="46.258942" lon="13.280094">
        <ele>543.766</ele>
        <time>2018-09-06T14:11:36Z</time>
      </trkpt>
      <trkpt lat="46.258957" lon="13.280055">
        <ele>543.232</ele>
        <time>2018-09-06T14:11:37Z</time>
      </trkpt>
      <trkpt lat="46.258976" lon="13.280017">
        <ele>542.823</ele>
        <time>2018-09-06T14:11:38Z</time>
      </trkpt>
      <trkpt lat="46.258987" lon="13.279981">
        <ele>542.333</ele>
        <time>2018-09-06T14:11:39Z</time>
      </trkpt>
      <trkpt lat="46.259008" lon="13.279494">
        <ele>537.556</ele>
        <time>2018-09-06T14:11:49Z</time>
      </trkpt>
      <trkpt lat="46.259035" lon="13.279023">
        <ele>535.540</ele>
        <time>2018-09-06T14:11:59Z</time>
      </trkpt>
      <trkpt lat="46.259025" lon="13.278916">
        <ele>535.147</ele>
        <time>2018-09-06T14:12:01Z</time>
      </trkpt>
      <trkpt lat="46.259037" lon="13.278868">
        <ele>534.629</ele>
        <time>2018-09-06T14:12:02Z</time>
      </trkpt>
      <trkpt lat="46.259055" lon="13.278830">
        <ele>534.121</ele>
        <time>2018-09-06T14:12:03Z</time>
      </trkpt>
      <trkpt lat="46.259078" lon="13.278799">
        <ele>533.608</ele>
        <time>2018-09-06T14:12:04Z</time>
      </trkpt>
      <trkpt lat="46.259106" lon="13.278766">
        <ele>533.178</ele>
        <time>2018-09-06T14:12:05Z</time>
      </trkpt>
      <trkpt lat="46.259136" lon="13.278731">
        <ele>532.710</ele>
        <time>2018-09-06T14:12:06Z</time>
      </trkpt>
      <trkpt lat="46.259410" lon="13.278282">
        <ele>524.096</ele>
        <time>2018-09-06T14:12:17Z</time>
      </trkpt>
      <trkpt lat="46.259709" lon="13.278039">
        <ele>522.152</ele>
        <time>2018-09-06T14:12:26Z</time>
      </trkpt>
      <trkpt lat="46.260145" lon="13.277870">
        <ele>519.273</ele>
        <time>2018-09-06T14:12:38Z</time>
      </trkpt>
      <trkpt lat="46.260381" lon="13.278088">
        <ele>516.393</ele>
        <time>2018-09-06T14:12:47Z</time>
      </trkpt>
      <trkpt lat="46.260414" lon="13.278094">
        <ele>515.886</ele>
        <time>2018-09-06T14:12:48Z</time>
      </trkpt>
      <trkpt lat="46.260544" lon="13.278058">
        <ele>513.420</ele>
        <time>2018-09-06T14:12:53Z</time>
      </trkpt>
      <trkpt lat="46.260566" lon="13.278032">
        <ele>513.097</ele>
        <time>2018-09-06T14:12:54Z</time>
      </trkpt>
      <trkpt lat="46.260616" lon="13.277971">
        <ele>512.023</ele>
        <time>2018-09-06T14:12:56Z</time>
      </trkpt>
      <trkpt lat="46.260632" lon="13.277928">
        <ele>511.025</ele>
        <time>2018-09-06T14:12:57Z</time>
      </trkpt>
      <trkpt lat="46.260641" lon="13.277883">
        <ele>510.608</ele>
        <time>2018-09-06T14:12:58Z</time>
      </trkpt>
      <trkpt lat="46.260650" lon="13.277838">
        <ele>510.163</ele>
        <time>2018-09-06T14:12:59Z</time>
      </trkpt>
      <trkpt lat="46.260658" lon="13.277791">
        <ele>509.695</ele>
        <time>2018-09-06T14:13:00Z</time>
      </trkpt>
      <trkpt lat="46.260665" lon="13.277745">
        <ele>509.111</ele>
        <time>2018-09-06T14:13:01Z</time>
      </trkpt>
      <trkpt lat="46.260674" lon="13.277701">
        <ele>508.677</ele>
        <time>2018-09-06T14:13:02Z</time>
      </trkpt>
      <trkpt lat="46.260681" lon="13.277656">
        <ele>508.128</ele>
        <time>2018-09-06T14:13:03Z</time>
      </trkpt>
      <trkpt lat="46.260810" lon="13.277123">
        <ele>500.518</ele>
        <time>2018-09-06T14:13:14Z</time>
      </trkpt>
      <trkpt lat="46.260998" lon="13.276476">
        <ele>496.691</ele>
        <time>2018-09-06T14:13:25Z</time>
      </trkpt>
      <trkpt lat="46.261046" lon="13.276085">
        <ele>495.245</ele>
        <time>2018-09-06T14:13:31Z</time>
      </trkpt>
      <trkpt lat="46.261036" lon="13.275845">
        <ele>493.743</ele>
        <time>2018-09-06T14:13:35Z</time>
      </trkpt>
      <trkpt lat="46.261018" lon="13.275632">
        <ele>491.864</ele>
        <time>2018-09-06T14:13:39Z</time>
      </trkpt>
      <trkpt lat="46.261034" lon="13.275587">
        <ele>491.310</ele>
        <time>2018-09-06T14:13:40Z</time>
      </trkpt>
      <trkpt lat="46.261056" lon="13.275550">
        <ele>490.808</ele>
        <time>2018-09-06T14:13:41Z</time>
      </trkpt>
      <trkpt lat="46.261088" lon="13.275532">
        <ele>490.488</ele>
        <time>2018-09-06T14:13:42Z</time>
      </trkpt>
      <trkpt lat="46.261123" lon="13.275532">
        <ele>489.920</ele>
        <time>2018-09-06T14:13:43Z</time>
      </trkpt>
      <trkpt lat="46.261160" lon="13.275535">
        <ele>489.466</ele>
        <time>2018-09-06T14:13:44Z</time>
      </trkpt>
      <trkpt lat="46.261192" lon="13.275544">
        <ele>488.962</ele>
        <time>2018-09-06T14:13:45Z</time>
      </trkpt>
      <trkpt lat="46.261224" lon="13.275556">
        <ele>488.923</ele>
        <time>2018-09-06T14:13:46Z</time>
      </trkpt>
      <trkpt lat="46.261555" lon="13.275689">
        <ele>484.173</ele>
        <time>2018-09-06T14:13:56Z</time>
      </trkpt>
      <trkpt lat="46.261983" lon="13.275287">
        <ele>483.616</ele>
        <time>2018-09-06T14:14:08Z</time>
      </trkpt>
      <trkpt lat="46.262236" lon="13.274951">
        <ele>481.710</ele>
        <time>2018-09-06T14:14:18Z</time>
      </trkpt>
      <trkpt lat="46.262227" lon="13.274495">
        <ele>476.495</ele>
        <time>2018-09-06T14:14:27Z</time>
      </trkpt>
      <trkpt lat="46.262198" lon="13.274335">
        <ele>475.549</ele>
        <time>2018-09-06T14:14:30Z</time>
      </trkpt>
      <trkpt lat="46.262178" lon="13.274268">
        <ele>475.523</ele>
        <time>2018-09-06T14:14:31Z</time>
      </trkpt>
      <trkpt lat="46.262151" lon="13.274203">
        <ele>475.508</ele>
        <time>2018-09-06T14:14:32Z</time>
      </trkpt>
      <trkpt lat="46.262119" lon="13.274141">
        <ele>475.583</ele>
        <time>2018-09-06T14:14:33Z</time>
      </trkpt>
      <trkpt lat="46.262084" lon="13.274081">
        <ele>475.975</ele>
        <time>2018-09-06T14:14:34Z</time>
      </trkpt>
      <trkpt lat="46.262048" lon="13.274026">
        <ele>475.961</ele>
        <time>2018-09-06T14:14:35Z</time>
      </trkpt>
      <trkpt lat="46.262009" lon="13.273973">
        <ele>475.967</ele>
        <time>2018-09-06T14:14:36Z</time>
      </trkpt>
      <trkpt lat="46.261890" lon="13.273644">
        <ele>474.018</ele>
        <time>2018-09-06T14:14:43Z</time>
      </trkpt>
      <trkpt lat="46.261974" lon="13.273488">
        <ele>472.198</ele>
        <time>2018-09-06T14:14:47Z</time>
      </trkpt>
      <trkpt lat="46.262004" lon="13.273482">
        <ele>472.111</ele>
        <time>2018-09-06T14:14:48Z</time>
      </trkpt>
      <trkpt lat="46.262033" lon="13.273493">
        <ele>472.135</ele>
        <time>2018-09-06T14:14:49Z</time>
      </trkpt>
      <trkpt lat="46.262057" lon="13.273518">
        <ele>471.625</ele>
        <time>2018-09-06T14:14:50Z</time>
      </trkpt>
      <trkpt lat="46.262077" lon="13.273553">
        <ele>471.126</ele>
        <time>2018-09-06T14:14:51Z</time>
      </trkpt>
      <trkpt lat="46.262094" lon="13.273593">
        <ele>470.708</ele>
        <time>2018-09-06T14:14:52Z</time>
      </trkpt>
      <trkpt lat="46.262109" lon="13.273634">
        <ele>469.708</ele>
        <time>2018-09-06T14:14:53Z</time>
      </trkpt>
      <trkpt lat="46.262125" lon="13.273677">
        <ele>468.786</ele>
        <time>2018-09-06T14:14:54Z</time>
      </trkpt>
      <trkpt lat="46.262143" lon="13.273715">
        <ele>467.878</ele>
        <time>2018-09-06T14:14:55Z</time>
      </trkpt>
      <trkpt lat="46.262168" lon="13.273745">
        <ele>466.864</ele>
        <time>2018-09-06T14:14:56Z</time>
      </trkpt>
      <trkpt lat="46.262196" lon="13.273763">
        <ele>466.380</ele>
        <time>2018-09-06T14:14:57Z</time>
      </trkpt>
      <trkpt lat="46.262226" lon="13.273765">
        <ele>465.481</ele>
        <time>2018-09-06T14:14:58Z</time>
      </trkpt>
      <trkpt lat="46.262259" lon="13.273753">
        <ele>464.991</ele>
        <time>2018-09-06T14:14:59Z</time>
      </trkpt>
      <trkpt lat="46.262292" lon="13.273732">
        <ele>463.954</ele>
        <time>2018-09-06T14:15:00Z</time>
      </trkpt>
      <trkpt lat="46.262329" lon="13.273710">
        <ele>463.478</ele>
        <time>2018-09-06T14:15:01Z</time>
      </trkpt>
      <trkpt lat="46.262361" lon="13.273684">
        <ele>463.017</ele>
        <time>2018-09-06T14:15:02Z</time>
      </trkpt>
      <trkpt lat="46.262388" lon="13.273649">
        <ele>462.087</ele>
        <time>2018-09-06T14:15:03Z</time>
      </trkpt>
      <trkpt lat="46.262412" lon="13.273611">
        <ele>462.015</ele>
        <time>2018-09-06T14:15:04Z</time>
      </trkpt>
      <trkpt lat="46.262652" lon="13.273345">
        <ele>457.208</ele>
        <time>2018-09-06T14:15:12Z</time>
      </trkpt>
      <trkpt lat="46.262691" lon="13.273349">
        <ele>456.265</ele>
        <time>2018-09-06T14:15:13Z</time>
      </trkpt>
      <trkpt lat="46.262731" lon="13.273365">
        <ele>455.897</ele>
        <time>2018-09-06T14:15:14Z</time>
      </trkpt>
      <trkpt lat="46.262765" lon="13.273385">
        <ele>455.383</ele>
        <time>2018-09-06T14:15:15Z</time>
      </trkpt>
      <trkpt lat="46.262794" lon="13.273407">
        <ele>454.369</ele>
        <time>2018-09-06T14:15:16Z</time>
      </trkpt>
      <trkpt lat="46.263071" lon="13.273631">
        <ele>447.680</ele>
        <time>2018-09-06T14:15:26Z</time>
      </trkpt>
      <trkpt lat="46.263308" lon="13.273590">
        <ele>448.150</ele>
        <time>2018-09-06T14:15:32Z</time>
      </trkpt>
      <trkpt lat="46.263352" lon="13.273563">
        <ele>448.123</ele>
        <time>2018-09-06T14:15:33Z</time>
      </trkpt>
      <trkpt lat="46.263391" lon="13.273522">
        <ele>448.517</ele>
        <time>2018-09-06T14:15:34Z</time>
      </trkpt>
      <trkpt lat="46.263461" lon="13.273427">
        <ele>449.549</ele>
        <time>2018-09-06T14:15:36Z</time>
      </trkpt>
      <trkpt lat="46.263490" lon="13.273374">
        <ele>450.002</ele>
        <time>2018-09-06T14:15:37Z</time>
      </trkpt>
      <trkpt lat="46.263731" lon="13.272958">
        <ele>449.022</ele>
        <time>2018-09-06T14:15:46Z</time>
      </trkpt>
      <trkpt lat="46.263746" lon="13.272904">
        <ele>449.008</ele>
        <time>2018-09-06T14:15:47Z</time>
      </trkpt>
      <trkpt lat="46.263762" lon="13.272848">
        <ele>448.578</ele>
        <time>2018-09-06T14:15:48Z</time>
      </trkpt>
      <trkpt lat="46.263780" lon="13.272791">
        <ele>448.160</ele>
        <time>2018-09-06T14:15:49Z</time>
      </trkpt>
      <trkpt lat="46.263802" lon="13.272737">
        <ele>447.186</ele>
        <time>2018-09-06T14:15:50Z</time>
      </trkpt>
      <trkpt lat="46.263841" lon="13.272621">
        <ele>446.132</ele>
        <time>2018-09-06T14:15:52Z</time>
      </trkpt>
      <trkpt lat="46.263858" lon="13.272557">
        <ele>445.233</ele>
        <time>2018-09-06T14:15:53Z</time>
      </trkpt>
      <trkpt lat="46.263894" lon="13.272428">
        <ele>443.393</ele>
        <time>2018-09-06T14:15:55Z</time>
      </trkpt>
      <trkpt lat="46.263918" lon="13.272369">
        <ele>442.326</ele>
        <time>2018-09-06T14:15:56Z</time>
      </trkpt>
      <trkpt lat="46.263945" lon="13.272317">
        <ele>441.380</ele>
        <time>2018-09-06T14:15:57Z</time>
      </trkpt>
      <trkpt lat="46.263972" lon="13.272265">
        <ele>440.989</ele>
        <time>2018-09-06T14:15:58Z</time>
      </trkpt>
      <trkpt lat="46.264005" lon="13.272213">
        <ele>439.906</ele>
        <time>2018-09-06T14:15:59Z</time>
      </trkpt>
      <trkpt lat="46.264041" lon="13.272163">
        <ele>438.926</ele>
        <time>2018-09-06T14:16:00Z</time>
      </trkpt>
      <trkpt lat="46.264329" lon="13.271786">
        <ele>432.208</ele>
        <time>2018-09-06T14:16:08Z</time>
      </trkpt>
      <trkpt lat="46.264358" lon="13.271737">
        <ele>431.732</ele>
        <time>2018-09-06T14:16:09Z</time>
      </trkpt>
      <trkpt lat="46.264382" lon="13.271685">
        <ele>431.724</ele>
        <time>2018-09-06T14:16:10Z</time>
      </trkpt>
      <trkpt lat="46.264400" lon="13.271630">
        <ele>431.210</ele>
        <time>2018-09-06T14:16:11Z</time>
      </trkpt>
      <trkpt lat="46.264410" lon="13.271573">
        <ele>431.236</ele>
        <time>2018-09-06T14:16:12Z</time>
      </trkpt>
      <trkpt lat="46.264415" lon="13.271515">
        <ele>431.277</ele>
        <time>2018-09-06T14:16:13Z</time>
      </trkpt>
      <trkpt lat="46.264431" lon="13.271343">
        <ele>429.817</ele>
        <time>2018-09-06T14:16:16Z</time>
      </trkpt>
      <trkpt lat="46.264435" lon="13.271283">
        <ele>428.880</ele>
        <time>2018-09-06T14:16:17Z</time>
      </trkpt>
      <trkpt lat="46.264447" lon="13.271227">
        <ele>428.414</ele>
        <time>2018-09-06T14:16:18Z</time>
      </trkpt>
      <trkpt lat="46.264465" lon="13.271175">
        <ele>427.422</ele>
        <time>2018-09-06T14:16:19Z</time>
      </trkpt>
      <trkpt lat="46.264485" lon="13.271130">
        <ele>426.962</ele>
        <time>2018-09-06T14:16:20Z</time>
      </trkpt>
      <trkpt lat="46.264511" lon="13.271091">
        <ele>426.408</ele>
        <time>2018-09-06T14:16:21Z</time>
      </trkpt>
      <trkpt lat="46.264542" lon="13.271053">
        <ele>426.008</ele>
        <time>2018-09-06T14:16:22Z</time>
      </trkpt>
      <trkpt lat="46.264575" lon="13.271014">
        <ele>425.516</ele>
        <time>2018-09-06T14:16:23Z</time>
      </trkpt>
      <trkpt lat="46.264611" lon="13.270981">
        <ele>425.028</ele>
        <time>2018-09-06T14:16:24Z</time>
      </trkpt>
      <trkpt lat="46.264648" lon="13.270960">
        <ele>424.554</ele>
        <time>2018-09-06T14:16:25Z</time>
      </trkpt>
      <trkpt lat="46.264684" lon="13.270943">
        <ele>424.080</ele>
        <time>2018-09-06T14:16:26Z</time>
      </trkpt>
      <trkpt lat="46.264719" lon="13.270927">
        <ele>423.651</ele>
        <time>2018-09-06T14:16:27Z</time>
      </trkpt>
      <trkpt lat="46.264752" lon="13.270909">
        <ele>423.141</ele>
        <time>2018-09-06T14:16:28Z</time>
      </trkpt>
      <trkpt lat="46.264784" lon="13.270885">
        <ele>422.624</ele>
        <time>2018-09-06T14:16:29Z</time>
      </trkpt>
      <trkpt lat="46.264816" lon="13.270851">
        <ele>422.118</ele>
        <time>2018-09-06T14:16:30Z</time>
      </trkpt>
      <trkpt lat="46.264851" lon="13.270810">
        <ele>421.679</ele>
        <time>2018-09-06T14:16:31Z</time>
      </trkpt>
      <trkpt lat="46.264885" lon="13.270776">
        <ele>421.605</ele>
        <time>2018-09-06T14:16:32Z</time>
      </trkpt>
      <trkpt lat="46.264918" lon="13.270748">
        <ele>421.125</ele>
        <time>2018-09-06T14:16:33Z</time>
      </trkpt>
      <trkpt lat="46.264951" lon="13.270726">
        <ele>421.108</ele>
        <time>2018-09-06T14:16:34Z</time>
      </trkpt>
      <trkpt lat="46.264985" lon="13.270708">
        <ele>421.141</ele>
        <time>2018-09-06T14:16:35Z</time>
      </trkpt>
      <trkpt lat="46.265019" lon="13.270699">
        <ele>420.743</ele>
        <time>2018-09-06T14:16:36Z</time>
      </trkpt>
      <trkpt lat="46.265054" lon="13.270703">
        <ele>420.279</ele>
        <time>2018-09-06T14:16:37Z</time>
      </trkpt>
      <trkpt lat="46.265088" lon="13.270721">
        <ele>419.215</ele>
        <time>2018-09-06T14:16:38Z</time>
      </trkpt>
      <trkpt lat="46.265116" lon="13.270747">
        <ele>418.716</ele>
        <time>2018-09-06T14:16:39Z</time>
      </trkpt>
      <trkpt lat="46.265139" lon="13.270781">
        <ele>417.896</ele>
        <time>2018-09-06T14:16:40Z</time>
      </trkpt>
      <trkpt lat="46.265162" lon="13.270825">
        <ele>416.819</ele>
        <time>2018-09-06T14:16:41Z</time>
      </trkpt>
      <trkpt lat="46.265304" lon="13.271079">
        <ele>412.513</ele>
        <time>2018-09-06T14:16:48Z</time>
      </trkpt>
      <trkpt lat="46.265333" lon="13.271073">
        <ele>412.012</ele>
        <time>2018-09-06T14:16:49Z</time>
      </trkpt>
      <trkpt lat="46.265358" lon="13.271045">
        <ele>412.032</ele>
        <time>2018-09-06T14:16:50Z</time>
      </trkpt>
      <trkpt lat="46.265372" lon="13.271002">
        <ele>411.505</ele>
        <time>2018-09-06T14:16:51Z</time>
      </trkpt>
      <trkpt lat="46.265374" lon="13.270955">
        <ele>411.108</ele>
        <time>2018-09-06T14:16:52Z</time>
      </trkpt>
      <trkpt lat="46.265370" lon="13.270905">
        <ele>411.115</ele>
        <time>2018-09-06T14:16:53Z</time>
      </trkpt>
      <trkpt lat="46.265365" lon="13.270856">
        <ele>410.667</ele>
        <time>2018-09-06T14:16:54Z</time>
      </trkpt>
      <trkpt lat="46.265361" lon="13.270811">
        <ele>410.623</ele>
        <time>2018-09-06T14:16:55Z</time>
      </trkpt>
      <trkpt lat="46.265281" lon="13.270116">
        <ele>405.369</ele>
        <time>2018-09-06T14:17:09Z</time>
      </trkpt>
      <trkpt lat="46.265255" lon="13.269560">
        <ele>401.980</ele>
        <time>2018-09-06T14:17:21Z</time>
      </trkpt>
      <trkpt lat="46.265274" lon="13.269556">
        <ele>401.930</ele>
        <time>2018-09-06T14:17:22Z</time>
      </trkpt>
      <trkpt lat="46.265296" lon="13.269553">
        <ele>401.923</ele>
        <time>2018-09-06T14:17:23Z</time>
      </trkpt>
      <trkpt lat="46.265320" lon="13.269552">
        <ele>401.947</ele>
        <time>2018-09-06T14:17:24Z</time>
      </trkpt>
      <trkpt lat="46.265349" lon="13.269554">
        <ele>401.928</ele>
        <time>2018-09-06T14:17:25Z</time>
      </trkpt>
      <trkpt lat="46.265380" lon="13.269560">
        <ele>401.989</ele>
        <time>2018-09-06T14:17:26Z</time>
      </trkpt>
      <trkpt lat="46.265410" lon="13.269571">
        <ele>401.917</ele>
        <time>2018-09-06T14:17:27Z</time>
      </trkpt>
      <trkpt lat="46.265445" lon="13.269589">
        <ele>401.408</ele>
        <time>2018-09-06T14:17:28Z</time>
      </trkpt>
      <trkpt lat="46.265477" lon="13.269615">
        <ele>400.516</ele>
        <time>2018-09-06T14:17:29Z</time>
      </trkpt>
      <trkpt lat="46.265506" lon="13.269643">
        <ele>399.568</ele>
        <time>2018-09-06T14:17:30Z</time>
      </trkpt>
      <trkpt lat="46.265535" lon="13.269675">
        <ele>399.024</ele>
        <time>2018-09-06T14:17:31Z</time>
      </trkpt>
      <trkpt lat="46.265845" lon="13.270087">
        <ele>391.320</ele>
        <time>2018-09-06T14:17:43Z</time>
      </trkpt>
      <trkpt lat="46.266014" lon="13.270432">
        <ele>388.011</ele>
        <time>2018-09-06T14:17:50Z</time>
      </trkpt>
      <trkpt lat="46.266046" lon="13.270441">
        <ele>387.511</ele>
        <time>2018-09-06T14:17:51Z</time>
      </trkpt>
      <trkpt lat="46.266071" lon="13.270433">
        <ele>387.034</ele>
        <time>2018-09-06T14:17:52Z</time>
      </trkpt>
      <trkpt lat="46.266086" lon="13.270408">
        <ele>386.548</ele>
        <time>2018-09-06T14:17:53Z</time>
      </trkpt>
      <trkpt lat="46.266095" lon="13.270373">
        <ele>386.117</ele>
        <time>2018-09-06T14:17:54Z</time>
      </trkpt>
      <trkpt lat="46.266095" lon="13.270334">
        <ele>385.687</ele>
        <time>2018-09-06T14:17:55Z</time>
      </trkpt>
      <trkpt lat="46.266092" lon="13.270288">
        <ele>385.115</ele>
        <time>2018-09-06T14:17:56Z</time>
      </trkpt>
      <trkpt lat="46.265946" lon="13.269499">
        <ele>377.408</ele>
        <time>2018-09-06T14:18:11Z</time>
      </trkpt>
      <trkpt lat="46.265694" lon="13.268906">
        <ele>374.585</ele>
        <time>2018-09-06T14:18:24Z</time>
      </trkpt>
      <trkpt lat="46.265597" lon="13.268559">
        <ele>372.127</ele>
        <time>2018-09-06T14:18:32Z</time>
      </trkpt>
      <trkpt lat="46.265612" lon="13.268519">
        <ele>371.633</ele>
        <time>2018-09-06T14:18:33Z</time>
      </trkpt>
      <trkpt lat="46.265574" lon="13.268193">
        <ele>367.899</ele>
        <time>2018-09-06T14:18:41Z</time>
      </trkpt>
      <trkpt lat="46.265545" lon="13.268178">
        <ele>367.310</ele>
        <time>2018-09-06T14:18:42Z</time>
      </trkpt>
      <trkpt lat="46.265510" lon="13.268172">
        <ele>366.870</ele>
        <time>2018-09-06T14:18:43Z</time>
      </trkpt>
      <trkpt lat="46.265477" lon="13.268178">
        <ele>365.983</ele>
        <time>2018-09-06T14:18:44Z</time>
      </trkpt>
      <trkpt lat="46.265443" lon="13.268196">
        <ele>364.957</ele>
        <time>2018-09-06T14:18:45Z</time>
      </trkpt>
      <trkpt lat="46.265404" lon="13.268220">
        <ele>364.011</ele>
        <time>2018-09-06T14:18:46Z</time>
      </trkpt>
      <trkpt lat="46.265264" lon="13.268353">
        <ele>360.121</ele>
        <time>2018-09-06T14:18:50Z</time>
      </trkpt>
      <trkpt lat="46.265234" lon="13.268397">
        <ele>359.103</ele>
        <time>2018-09-06T14:18:51Z</time>
      </trkpt>
      <trkpt lat="46.264941" lon="13.268656">
        <ele>355.308</ele>
        <time>2018-09-06T14:19:01Z</time>
      </trkpt>
      <trkpt lat="46.264595" lon="13.268839">
        <ele>348.185</ele>
        <time>2018-09-06T14:19:13Z</time>
      </trkpt>
      <trkpt lat="46.264567" lon="13.268835">
        <ele>347.647</ele>
        <time>2018-09-06T14:19:14Z</time>
      </trkpt>
      <trkpt lat="46.264546" lon="13.268817">
        <ele>347.623</ele>
        <time>2018-09-06T14:19:15Z</time>
      </trkpt>
      <trkpt lat="46.264535" lon="13.268791">
        <ele>347.199</ele>
        <time>2018-09-06T14:19:16Z</time>
      </trkpt>
      <trkpt lat="46.264536" lon="13.268762">
        <ele>347.160</ele>
        <time>2018-09-06T14:19:17Z</time>
      </trkpt>
      <trkpt lat="46.264549" lon="13.268738">
        <ele>346.680</ele>
        <time>2018-09-06T14:19:18Z</time>
      </trkpt>
      <trkpt lat="46.264568" lon="13.268719">
        <ele>346.243</ele>
        <time>2018-09-06T14:19:19Z</time>
      </trkpt>
      <trkpt lat="46.264592" lon="13.268700">
        <ele>345.797</ele>
        <time>2018-09-06T14:19:20Z</time>
      </trkpt>
      <trkpt lat="46.264619" lon="13.268681">
        <ele>345.229</ele>
        <time>2018-09-06T14:19:21Z</time>
      </trkpt>
      <trkpt lat="46.264646" lon="13.268659">
        <ele>344.700</ele>
        <time>2018-09-06T14:19:22Z</time>
      </trkpt>
      <trkpt lat="46.264670" lon="13.268631">
        <ele>344.220</ele>
        <time>2018-09-06T14:19:23Z</time>
      </trkpt>
      <trkpt lat="46.264693" lon="13.268599">
        <ele>343.808</ele>
        <time>2018-09-06T14:19:24Z</time>
      </trkpt>
      <trkpt lat="46.264952" lon="13.268245">
        <ele>342.816</ele>
        <time>2018-09-06T14:19:35Z</time>
      </trkpt>
      <trkpt lat="46.265001" lon="13.268209">
        <ele>343.898</ele>
        <time>2018-09-06T14:19:37Z</time>
      </trkpt>
      <trkpt lat="46.265121" lon="13.267706">
        <ele>345.294</ele>
        <time>2018-09-06T14:19:48Z</time>
      </trkpt>
      <trkpt lat="46.265349" lon="13.267281">
        <ele>341.860</ele>
        <time>2018-09-06T14:19:58Z</time>
      </trkpt>
      <trkpt lat="46.265811" lon="13.267042">
        <ele>341.461</ele>
        <time>2018-09-06T14:20:11Z</time>
      </trkpt>
      <trkpt lat="46.266260" lon="13.266666">
        <ele>339.431</ele>
        <time>2018-09-06T14:20:24Z</time>
      </trkpt>
      <trkpt lat="46.266265" lon="13.266608">
        <ele>339.484</ele>
        <time>2018-09-06T14:20:25Z</time>
      </trkpt>
      <trkpt lat="46.266261" lon="13.266548">
        <ele>339.488</ele>
        <time>2018-09-06T14:20:26Z</time>
      </trkpt>
      <trkpt lat="46.266253" lon="13.266508">
        <ele>339.465</ele>
        <time>2018-09-06T14:20:27Z</time>
      </trkpt>
      <trkpt lat="46.266240" lon="13.266453">
        <ele>339.468</ele>
        <time>2018-09-06T14:20:28Z</time>
      </trkpt>
      <trkpt lat="46.266227" lon="13.266402">
        <ele>339.414</ele>
        <time>2018-09-06T14:20:29Z</time>
      </trkpt>
      <trkpt lat="46.265881" lon="13.265355">
        <ele>337.508</ele>
        <time>2018-09-06T14:20:46Z</time>
      </trkpt>
      <trkpt lat="46.265638" lon="13.264517">
        <ele>335.110</ele>
        <time>2018-09-06T14:20:57Z</time>
      </trkpt>
      <trkpt lat="46.265632" lon="13.264436">
        <ele>335.112</ele>
        <time>2018-09-06T14:20:58Z</time>
      </trkpt>
      <trkpt lat="46.265636" lon="13.264353">
        <ele>335.128</ele>
        <time>2018-09-06T14:20:59Z</time>
      </trkpt>
      <trkpt lat="46.265649" lon="13.264270">
        <ele>335.124</ele>
        <time>2018-09-06T14:21:00Z</time>
      </trkpt>
      <trkpt lat="46.265663" lon="13.264192">
        <ele>334.625</ele>
        <time>2018-09-06T14:21:01Z</time>
      </trkpt>
      <trkpt lat="46.265857" lon="13.262749">
        <ele>330.845</ele>
        <time>2018-09-06T14:21:19Z</time>
      </trkpt>
      <trkpt lat="46.265844" lon="13.261928">
        <ele>328.948</ele>
        <time>2018-09-06T14:21:28Z</time>
      </trkpt>
      <trkpt lat="46.265831" lon="13.261835">
        <ele>328.992</ele>
        <time>2018-09-06T14:21:29Z</time>
      </trkpt>
      <trkpt lat="46.265812" lon="13.261747">
        <ele>328.492</ele>
        <time>2018-09-06T14:21:30Z</time>
      </trkpt>
      <trkpt lat="46.265789" lon="13.261662">
        <ele>327.973</ele>
        <time>2018-09-06T14:21:31Z</time>
      </trkpt>
      <trkpt lat="46.265762" lon="13.261578">
        <ele>327.920</ele>
        <time>2018-09-06T14:21:32Z</time>
      </trkpt>
      <trkpt lat="46.265572" lon="13.261015">
        <ele>327.408</ele>
        <time>2018-09-06T14:21:39Z</time>
      </trkpt>
      <trkpt lat="46.265559" lon="13.260928">
        <ele>327.493</ele>
        <time>2018-09-06T14:21:40Z</time>
      </trkpt>
      <trkpt lat="46.265555" lon="13.260846">
        <ele>326.995</ele>
        <time>2018-09-06T14:21:41Z</time>
      </trkpt>
      <trkpt lat="46.265557" lon="13.260762">
        <ele>326.991</ele>
        <time>2018-09-06T14:21:42Z</time>
      </trkpt>
      <trkpt lat="46.265562" lon="13.260682">
        <ele>326.917</ele>
        <time>2018-09-06T14:21:43Z</time>
      </trkpt>
      <trkpt lat="46.265578" lon="13.260554">
        <ele>326.548</ele>
        <time>2018-09-06T14:21:45Z</time>
      </trkpt>
      <trkpt lat="46.265498" lon="13.260130">
        <ele>327.428</ele>
        <time>2018-09-06T14:21:54Z</time>
      </trkpt>
      <trkpt lat="46.265286" lon="13.259938">
        <ele>327.431</ele>
        <time>2018-09-06T14:22:01Z</time>
      </trkpt>
      <trkpt lat="46.265288" lon="13.259882">
        <ele>327.465</ele>
        <time>2018-09-06T14:22:02Z</time>
      </trkpt>
      <trkpt lat="46.265313" lon="13.259826">
        <ele>327.416</ele>
        <time>2018-09-06T14:22:03Z</time>
      </trkpt>
      <trkpt lat="46.265353" lon="13.259784">
        <ele>327.476</ele>
        <time>2018-09-06T14:22:04Z</time>
      </trkpt>
      <trkpt lat="46.265382" lon="13.259767">
        <ele>327.413</ele>
        <time>2018-09-06T14:22:05Z</time>
      </trkpt>
      <trkpt lat="46.265423" lon="13.259753">
        <ele>327.408</ele>
        <time>2018-09-06T14:22:06Z</time>
      </trkpt>
      <trkpt lat="46.265466" lon="13.259741">
        <ele>327.425</ele>
        <time>2018-09-06T14:22:07Z</time>
      </trkpt>
      <trkpt lat="46.265638" lon="13.259683">
        <ele>327.477</ele>
        <time>2018-09-06T14:22:11Z</time>
      </trkpt>
      <trkpt lat="46.266255" lon="13.259787">
        <ele>328.443</ele>
        <time>2018-09-06T14:22:27Z</time>
      </trkpt>
      <trkpt lat="46.266907" lon="13.259943">
        <ele>329.899</ele>
        <time>2018-09-06T14:22:46Z</time>
      </trkpt>
      <trkpt lat="46.267525" lon="13.259962">
        <ele>332.260</ele>
        <time>2018-09-06T14:23:04Z</time>
      </trkpt>
      <trkpt lat="46.268290" lon="13.259984">
        <ele>335.190</ele>
        <time>2018-09-06T14:23:26Z</time>
      </trkpt>
      <trkpt lat="46.269032" lon="13.260013">
        <ele>336.693</ele>
        <time>2018-09-06T14:23:47Z</time>
      </trkpt>
      <trkpt lat="46.269812" lon="13.260043">
        <ele>337.537</ele>
        <time>2018-09-06T14:24:09Z</time>
      </trkpt>
      <trkpt lat="46.270534" lon="13.260008">
        <ele>339.028</ele>
        <time>2018-09-06T14:24:29Z</time>
      </trkpt>
      <trkpt lat="46.271407" lon="13.259935">
        <ele>340.489</ele>
        <time>2018-09-06T14:24:53Z</time>
      </trkpt>
      <trkpt lat="46.272215" lon="13.259867">
        <ele>341.417</ele>
        <time>2018-09-06T14:25:15Z</time>
      </trkpt>
      <trkpt lat="46.272921" lon="13.259799">
        <ele>344.208</ele>
        <time>2018-09-06T14:25:34Z</time>
      </trkpt>
      <trkpt lat="46.273663" lon="13.259716">
        <ele>348.166</ele>
        <time>2018-09-06T14:25:53Z</time>
      </trkpt>
      <trkpt lat="46.274362" lon="13.259657">
        <ele>351.038</ele>
        <time>2018-09-06T14:26:12Z</time>
      </trkpt>
      <trkpt lat="46.275031" lon="13.259716">
        <ele>352.444</ele>
        <time>2018-09-06T14:26:34Z</time>
      </trkpt>
      <trkpt lat="46.275494" lon="13.260111">
        <ele>351.060</ele>
        <time>2018-09-06T14:26:51Z</time>
      </trkpt>
      <trkpt lat="46.275966" lon="13.260559">
        <ele>351.021</ele>
        <time>2018-09-06T14:27:09Z</time>
      </trkpt>
      <trkpt lat="46.276438" lon="13.260971">
        <ele>352.961</ele>
        <time>2018-09-06T14:27:27Z</time>
      </trkpt>
      <trkpt lat="46.276869" lon="13.260919">
        <ele>355.354</ele>
        <time>2018-09-06T14:27:41Z</time>
      </trkpt>
      <trkpt lat="46.277462" lon="13.260818">
        <ele>354.838</ele>
        <time>2018-09-06T14:27:57Z</time>
      </trkpt>
      <trkpt lat="46.278223" lon="13.261122">
        <ele>355.334</ele>
        <time>2018-09-06T14:28:19Z</time>
      </trkpt>
      <trkpt lat="46.278676" lon="13.261125">
        <ele>356.355</ele>
        <time>2018-09-06T14:28:35Z</time>
      </trkpt>
      <trkpt lat="46.278929" lon="13.261047">
        <ele>356.310</ele>
        <time>2018-09-06T14:28:47Z</time>
      </trkpt>
      <trkpt lat="46.278978" lon="13.261039">
        <ele>357.208</ele>
        <time>2018-09-06T14:29:01Z</time>
      </trkpt>
      <trkpt lat="46.278983" lon="13.261021">
        <ele>355.397</ele>
        <time>2018-09-06T14:29:16Z</time>
      </trkpt>
      <trkpt lat="46.279041" lon="13.261032">
        <ele>354.899</ele>
        <time>2018-09-06T14:29:35Z</time>
      </trkpt>
      <trkpt lat="46.279035" lon="13.261021">
        <ele>355.365</ele>
        <time>2018-09-06T14:29:55Z</time>
      </trkpt>
      <trkpt lat="46.279037" lon="13.261025">
        <ele>354.821</ele>
        <time>2018-09-06T14:30:32Z</time>
      </trkpt>
      <trkpt lat="46.279050" lon="13.261022">
        <ele>351.512</ele>
        <time>2018-09-06T14:31:12Z</time>
      </trkpt>
      <trkpt lat="46.279051" lon="13.261042">
        <ele>352.452</ele>
        <time>2018-09-06T14:31:48Z</time>
      </trkpt>
      <trkpt lat="46.279033" lon="13.261047">
        <ele>352.945</ele>
        <time>2018-09-06T14:32:28Z</time>
      </trkpt>
      <trkpt lat="46.279046" lon="13.261041">
        <ele>356.749</ele>
        <time>2018-09-06T14:33:04Z</time>
      </trkpt>
      <trkpt lat="46.279043" lon="13.261025">
        <ele>356.789</ele>
        <time>2018-09-06T14:33:47Z</time>
      </trkpt>
      <trkpt lat="46.279046" lon="13.261072">
        <ele>356.706</ele>
        <time>2018-09-06T14:34:33Z</time>
      </trkpt>
      <trkpt lat="46.279038" lon="13.261047">
        <ele>357.726</ele>
        <time>2018-09-06T14:35:13Z</time>
      </trkpt>
      <trkpt lat="46.279052" lon="13.261069">
        <ele>358.708</ele>
        <time>2018-09-06T14:35:53Z</time>
      </trkpt>
      <trkpt lat="46.279019" lon="13.261005">
        <ele>353.982</ele>
        <time>2018-09-06T14:36:36Z</time>
      </trkpt>
      <trkpt lat="46.279050" lon="13.261007">
        <ele>351.574</ele>
        <time>2018-09-06T14:37:21Z</time>
      </trkpt>
      <trkpt lat="46.279078" lon="13.261048">
        <ele>352.450</ele>
        <time>2018-09-06T14:37:51Z</time>
      </trkpt>
      <trkpt lat="46.279181" lon="13.261104">
        <ele>353.976</ele>
        <time>2018-09-06T14:38:06Z</time>
      </trkpt>
      <trkpt lat="46.279408" lon="13.261076">
        <ele>356.727</ele>
        <time>2018-09-06T14:38:27Z</time>
      </trkpt>
      <trkpt lat="46.279414" lon="13.261098">
        <ele>357.257</ele>
        <time>2018-09-06T14:38:29Z</time>
      </trkpt>
      <trkpt lat="46.279526" lon="13.261297">
        <ele>358.740</ele>
        <time>2018-09-06T14:38:47Z</time>
      </trkpt>
      <trkpt lat="46.279526" lon="13.261318">
        <ele>357.254</ele>
        <time>2018-09-06T14:39:07Z</time>
      </trkpt>
      <trkpt lat="46.279508" lon="13.261317">
        <ele>358.213</ele>
        <time>2018-09-06T14:39:50Z</time>
      </trkpt>
      <trkpt lat="46.279526" lon="13.261341">
        <ele>362.543</ele>
        <time>2018-09-06T14:40:20Z</time>
      </trkpt>
      <trkpt lat="46.279529" lon="13.261349">
        <ele>362.507</ele>
        <time>2018-09-06T14:40:21Z</time>
      </trkpt>
      <trkpt lat="46.279564" lon="13.261401">
        <ele>362.508</ele>
        <time>2018-09-06T14:40:35Z</time>
      </trkpt>
      <trkpt lat="46.279659" lon="13.261426">
        <ele>361.595</ele>
        <time>2018-09-06T14:40:54Z</time>
      </trkpt>
      <trkpt lat="46.279662" lon="13.261442">
        <ele>362.547</ele>
        <time>2018-09-06T14:41:25Z</time>
      </trkpt>
      <trkpt lat="46.279682" lon="13.261429">
        <ele>361.533</ele>
        <time>2018-09-06T14:41:52Z</time>
      </trkpt>
      <trkpt lat="46.279684" lon="13.261434">
        <ele>361.579</ele>
        <time>2018-09-06T14:42:06Z</time>
      </trkpt>
      <trkpt lat="46.279688" lon="13.261433">
        <ele>362.050</ele>
        <time>2018-09-06T14:42:16Z</time>
      </trkpt>
      <trkpt lat="46.279665" lon="13.261417">
        <ele>361.110</ele>
        <time>2018-09-06T14:42:32Z</time>
      </trkpt>
      <trkpt lat="46.279670" lon="13.261386">
        <ele>364.493</ele>
        <time>2018-09-06T14:43:04Z</time>
      </trkpt>
      <trkpt lat="46.279680" lon="13.261417">
        <ele>366.457</ele>
        <time>2018-09-06T14:43:37Z</time>
      </trkpt>
      <trkpt lat="46.279684" lon="13.261418">
        <ele>365.443</ele>
        <time>2018-09-06T14:44:05Z</time>
      </trkpt>
      <trkpt lat="46.279682" lon="13.261419">
        <ele>363.064</ele>
        <time>2018-09-06T14:44:33Z</time>
      </trkpt>
      <trkpt lat="46.279686" lon="13.261428">
        <ele>361.110</ele>
        <time>2018-09-06T14:44:57Z</time>
      </trkpt>
      <trkpt lat="46.279680" lon="13.261422">
        <ele>359.608</ele>
        <time>2018-09-06T14:45:12Z</time>
      </trkpt>
      <trkpt lat="46.279675" lon="13.261415">
        <ele>358.298</ele>
        <time>2018-09-06T14:45:43Z</time>
      </trkpt>
      <trkpt lat="46.279670" lon="13.261431">
        <ele>355.340</ele>
        <time>2018-09-06T14:46:07Z</time>
      </trkpt>
      <trkpt lat="46.279672" lon="13.261454">
        <ele>355.356</ele>
        <time>2018-09-06T14:46:35Z</time>
      </trkpt>
      <trkpt lat="46.279637" lon="13.261386">
        <ele>355.872</ele>
        <time>2018-09-06T14:47:09Z</time>
      </trkpt>
      <trkpt lat="46.279647" lon="13.261382">
        <ele>359.193</ele>
        <time>2018-09-06T14:47:31Z</time>
      </trkpt>
      <trkpt lat="46.279653" lon="13.261381">
        <ele>360.663</ele>
        <time>2018-09-06T14:48:03Z</time>
      </trkpt>
      <trkpt lat="46.279644" lon="13.261369">
        <ele>362.546</ele>
        <time>2018-09-06T14:48:26Z</time>
      </trkpt>
      <trkpt lat="46.279583" lon="13.261374">
        <ele>356.780</ele>
        <time>2018-09-06T14:48:38Z</time>
      </trkpt>
      <trkpt lat="46.279560" lon="13.261310">
        <ele>355.378</ele>
        <time>2018-09-06T14:48:54Z</time>
      </trkpt>
      <trkpt lat="46.279556" lon="13.261288">
        <ele>355.333</ele>
        <time>2018-09-06T14:49:12Z</time>
      </trkpt>
      <trkpt lat="46.279017" lon="13.261031">
        <ele>359.132</ele>
        <time>2018-09-07T04:55:32Z</time>
      </trkpt>
      <trkpt lat="46.279042" lon="13.261019">
        <ele>358.792</ele>
        <time>2018-09-07T04:56:00Z</time>
      </trkpt>
      <trkpt lat="46.278993" lon="13.261033">
        <ele>358.711</ele>
        <time>2018-09-07T04:56:39Z</time>
      </trkpt>
      <trkpt lat="46.279021" lon="13.261064">
        <ele>361.508</ele>
        <time>2018-09-07T04:57:14Z</time>
      </trkpt>
      <trkpt lat="46.279029" lon="13.261070">
        <ele>362.567</ele>
        <time>2018-09-07T04:57:31Z</time>
      </trkpt>
      <trkpt lat="46.279027" lon="13.261077">
        <ele>362.089</ele>
        <time>2018-09-07T04:57:39Z</time>
      </trkpt>
      <trkpt lat="46.279021" lon="13.261103">
        <ele>362.055</ele>
        <time>2018-09-07T04:57:41Z</time>
      </trkpt>
      <trkpt lat="46.279005" lon="13.261135">
        <ele>362.072</ele>
        <time>2018-09-07T04:57:51Z</time>
      </trkpt>
      <trkpt lat="46.279066" lon="13.261153">
        <ele>361.513</ele>
        <time>2018-09-07T04:58:03Z</time>
      </trkpt>
      <trkpt lat="46.279051" lon="13.261230">
        <ele>362.081</ele>
        <time>2018-09-07T04:58:08Z</time>
      </trkpt>
      <trkpt lat="46.279031" lon="13.261273">
        <ele>362.018</ele>
        <time>2018-09-07T04:58:11Z</time>
      </trkpt>
      <trkpt lat="46.279021" lon="13.261349">
        <ele>361.191</ele>
        <time>2018-09-07T04:58:15Z</time>
      </trkpt>
      <trkpt lat="46.279274" lon="13.261524">
        <ele>361.155</ele>
        <time>2018-09-07T04:58:30Z</time>
      </trkpt>
      <trkpt lat="46.279670" lon="13.261710">
        <ele>361.507</ele>
        <time>2018-09-07T04:58:49Z</time>
      </trkpt>
      <trkpt lat="46.280085" lon="13.262044">
        <ele>364.017</ele>
        <time>2018-09-07T04:59:09Z</time>
      </trkpt>
      <trkpt lat="46.280454" lon="13.262498">
        <ele>364.408</ele>
        <time>2018-09-07T04:59:27Z</time>
      </trkpt>
      <trkpt lat="46.280817" lon="13.262942">
        <ele>365.479</ele>
        <time>2018-09-07T04:59:45Z</time>
      </trkpt>
      <trkpt lat="46.281249" lon="13.263492">
        <ele>366.811</ele>
        <time>2018-09-07T05:00:07Z</time>
      </trkpt>
      <trkpt lat="46.281659" lon="13.263998">
        <ele>367.367</ele>
        <time>2018-09-07T05:00:27Z</time>
      </trkpt>
      <trkpt lat="46.282134" lon="13.264592">
        <ele>370.294</ele>
        <time>2018-09-07T05:00:51Z</time>
      </trkpt>
      <trkpt lat="46.282492" lon="13.264930">
        <ele>372.165</ele>
        <time>2018-09-07T05:01:08Z</time>
      </trkpt>
      <trkpt lat="46.283029" lon="13.265227">
        <ele>373.623</ele>
        <time>2018-09-07T05:01:31Z</time>
      </trkpt>
      <trkpt lat="46.283516" lon="13.265493">
        <ele>375.560</ele>
        <time>2018-09-07T05:01:52Z</time>
      </trkpt>
      <trkpt lat="46.284095" lon="13.265842">
        <ele>376.963</ele>
        <time>2018-09-07T05:02:17Z</time>
      </trkpt>
      <trkpt lat="46.284578" lon="13.266227">
        <ele>378.456</ele>
        <time>2018-09-07T05:02:38Z</time>
      </trkpt>
      <trkpt lat="46.285107" lon="13.266601">
        <ele>380.359</ele>
        <time>2018-09-07T05:03:00Z</time>
      </trkpt>
      <trkpt lat="46.285688" lon="13.266822">
        <ele>382.714</ele>
        <time>2018-09-07T05:03:22Z</time>
      </trkpt>
      <trkpt lat="46.286296" lon="13.267046">
        <ele>384.608</ele>
        <time>2018-09-07T05:03:45Z</time>
      </trkpt>
      <trkpt lat="46.286577" lon="13.267144">
        <ele>385.629</ele>
        <time>2018-09-07T05:03:56Z</time>
      </trkpt>
      <trkpt lat="46.287384" lon="13.267456">
        <ele>386.591</ele>
        <time>2018-09-07T05:05:56Z</time>
      </trkpt>
      <trkpt lat="46.287760" lon="13.267624">
        <ele>387.087</ele>
        <time>2018-09-07T05:06:11Z</time>
      </trkpt>
      <trkpt lat="46.288262" lon="13.267733">
        <ele>389.494</ele>
        <time>2018-09-07T05:06:31Z</time>
      </trkpt>
      <trkpt lat="46.288812" lon="13.267772">
        <ele>393.865</ele>
        <time>2018-09-07T05:06:52Z</time>
      </trkpt>
      <trkpt lat="46.289241" lon="13.267794">
        <ele>396.673</ele>
        <time>2018-09-07T05:07:09Z</time>
      </trkpt>
      <trkpt lat="46.289543" lon="13.267810">
        <ele>402.970</ele>
        <time>2018-09-07T05:07:24Z</time>
      </trkpt>
      <trkpt lat="46.289892" lon="13.267787">
        <ele>407.283</ele>
        <time>2018-09-07T05:07:40Z</time>
      </trkpt>
      <trkpt lat="46.290202" lon="13.267913">
        <ele>412.556</ele>
        <time>2018-09-07T05:07:54Z</time>
      </trkpt>
      <trkpt lat="46.290492" lon="13.268152">
        <ele>411.559</ele>
        <time>2018-09-07T05:08:10Z</time>
      </trkpt>
      <trkpt lat="46.290532" lon="13.268660">
        <ele>409.614</ele>
        <time>2018-09-07T05:08:25Z</time>
      </trkpt>
      <trkpt lat="46.290347" lon="13.268972">
        <ele>411.108</ele>
        <time>2018-09-07T05:08:38Z</time>
      </trkpt>
      <trkpt lat="46.289967" lon="13.268955">
        <ele>411.529</ele>
        <time>2018-09-07T05:08:55Z</time>
      </trkpt>
      <trkpt lat="46.289507" lon="13.268944">
        <ele>413.591</ele>
        <time>2018-09-07T05:09:16Z</time>
      </trkpt>
      <trkpt lat="46.289394" lon="13.269323">
        <ele>414.487</ele>
        <time>2018-09-07T05:09:29Z</time>
      </trkpt>
      <trkpt lat="46.289587" lon="13.269530">
        <ele>418.354</ele>
        <time>2018-09-07T05:09:41Z</time>
      </trkpt>
      <trkpt lat="46.289874" lon="13.269605">
        <ele>420.295</ele>
        <time>2018-09-07T05:09:56Z</time>
      </trkpt>
      <trkpt lat="46.290216" lon="13.269815">
        <ele>417.893</ele>
        <time>2018-09-07T05:10:12Z</time>
      </trkpt>
      <trkpt lat="46.290509" lon="13.270071">
        <ele>418.320</ele>
        <time>2018-09-07T05:10:29Z</time>
      </trkpt>
      <trkpt lat="46.290818" lon="13.270188">
        <ele>421.163</ele>
        <time>2018-09-07T05:10:44Z</time>
      </trkpt>
      <trkpt lat="46.291183" lon="13.270258">
        <ele>423.685</ele>
        <time>2018-09-07T05:11:02Z</time>
      </trkpt>
      <trkpt lat="46.291485" lon="13.270308">
        <ele>425.589</ele>
        <time>2018-09-07T05:11:18Z</time>
      </trkpt>
      <trkpt lat="46.291754" lon="13.270346">
        <ele>427.917</ele>
        <time>2018-09-07T05:11:32Z</time>
      </trkpt>
      <trkpt lat="46.292078" lon="13.270331">
        <ele>430.808</ele>
        <time>2018-09-07T05:11:48Z</time>
      </trkpt>
      <trkpt lat="46.292365" lon="13.270276">
        <ele>433.642</ele>
        <time>2018-09-07T05:12:03Z</time>
      </trkpt>
      <trkpt lat="46.292693" lon="13.270207">
        <ele>437.044</ele>
        <time>2018-09-07T05:12:20Z</time>
      </trkpt>
      <trkpt lat="46.292941" lon="13.270166">
        <ele>438.010</ele>
        <time>2018-09-07T05:12:33Z</time>
      </trkpt>
      <trkpt lat="46.293268" lon="13.270123">
        <ele>440.427</ele>
        <time>2018-09-07T05:12:49Z</time>
      </trkpt>
      <trkpt lat="46.293639" lon="13.270174">
        <ele>442.858</ele>
        <time>2018-09-07T05:13:07Z</time>
      </trkpt>
      <trkpt lat="46.293972" lon="13.270149">
        <ele>443.796</ele>
        <time>2018-09-07T05:13:24Z</time>
      </trkpt>
      <trkpt lat="46.294322" lon="13.270067">
        <ele>446.643</ele>
        <time>2018-09-07T05:13:42Z</time>
      </trkpt>
      <trkpt lat="46.294598" lon="13.269826">
        <ele>451.046</ele>
        <time>2018-09-07T05:13:59Z</time>
      </trkpt>
      <trkpt lat="46.294908" lon="13.269635">
        <ele>451.428</ele>
        <time>2018-09-07T05:14:16Z</time>
      </trkpt>
      <trkpt lat="46.295150" lon="13.269749">
        <ele>451.489</ele>
        <time>2018-09-07T05:14:29Z</time>
      </trkpt>
      <trkpt lat="46.295278" lon="13.269849">
        <ele>450.517</ele>
        <time>2018-09-07T05:14:36Z</time>
      </trkpt>
      <trkpt lat="46.295294" lon="13.269862">
        <ele>450.508</ele>
        <time>2018-09-07T05:14:37Z</time>
      </trkpt>
      <trkpt lat="46.295314" lon="13.269876">
        <ele>450.526</ele>
        <time>2018-09-07T05:14:38Z</time>
      </trkpt>
      <trkpt lat="46.295531" lon="13.270030">
        <ele>453.468</ele>
        <time>2018-09-07T05:14:51Z</time>
      </trkpt>
      <trkpt lat="46.295545" lon="13.270035">
        <ele>456.794</ele>
        <time>2018-09-07T05:15:03Z</time>
      </trkpt>
      <trkpt lat="46.295571" lon="13.270085">
        <ele>460.641</ele>
        <time>2018-09-07T05:15:35Z</time>
      </trkpt>
      <trkpt lat="46.295588" lon="13.270014">
        <ele>464.922</ele>
        <time>2018-09-07T05:16:05Z</time>
      </trkpt>
      <trkpt lat="46.295641" lon="13.269977">
        <ele>467.350</ele>
        <time>2018-09-07T05:16:26Z</time>
      </trkpt>
      <trkpt lat="46.295942" lon="13.270066">
        <ele>468.317</ele>
        <time>2018-09-07T05:16:41Z</time>
      </trkpt>
      <trkpt lat="46.296232" lon="13.270023">
        <ele>465.950</ele>
        <time>2018-09-07T05:16:56Z</time>
      </trkpt>
      <trkpt lat="46.296519" lon="13.270078">
        <ele>465.973</ele>
        <time>2018-09-07T05:17:11Z</time>
      </trkpt>
      <trkpt lat="46.296756" lon="13.270261">
        <ele>465.485</ele>
        <time>2018-09-07T05:17:25Z</time>
      </trkpt>
      <trkpt lat="46.297063" lon="13.270340">
        <ele>465.913</ele>
        <time>2018-09-07T05:17:40Z</time>
      </trkpt>
      <trkpt lat="46.297355" lon="13.270204">
        <ele>466.808</ele>
        <time>2018-09-07T05:17:55Z</time>
      </trkpt>
      <trkpt lat="46.297689" lon="13.270073">
        <ele>469.761</ele>
        <time>2018-09-07T05:18:12Z</time>
      </trkpt>
      <trkpt lat="46.297940" lon="13.270125">
        <ele>472.123</ele>
        <time>2018-09-07T05:18:25Z</time>
      </trkpt>
      <trkpt lat="46.298248" lon="13.270196">
        <ele>474.099</ele>
        <time>2018-09-07T05:18:40Z</time>
      </trkpt>
      <trkpt lat="46.298584" lon="13.270262">
        <ele>475.076</ele>
        <time>2018-09-07T05:18:56Z</time>
      </trkpt>
      <trkpt lat="46.298889" lon="13.270324">
        <ele>475.517</ele>
        <time>2018-09-07T05:19:11Z</time>
      </trkpt>
      <trkpt lat="46.299037" lon="13.270258">
        <ele>478.315</ele>
        <time>2018-09-07T05:19:26Z</time>
      </trkpt>
      <trkpt lat="46.298978" lon="13.269996">
        <ele>482.742</ele>
        <time>2018-09-07T05:19:53Z</time>
      </trkpt>
      <trkpt lat="46.298965" lon="13.269763">
        <ele>487.525</ele>
        <time>2018-09-07T05:20:14Z</time>
      </trkpt>
      <trkpt lat="46.299150" lon="13.269503">
        <ele>488.989</ele>
        <time>2018-09-07T05:20:31Z</time>
      </trkpt>
      <trkpt lat="46.299424" lon="13.269000">
        <ele>487.006</ele>
        <time>2018-09-07T05:20:42Z</time>
      </trkpt>
      <trkpt lat="46.299454" lon="13.268903">
        <ele>488.026</ele>
        <time>2018-09-07T05:20:43Z</time>
      </trkpt>
      <trkpt lat="46.299524" lon="13.269044">
        <ele>490.408</ele>
        <time>2018-09-07T05:20:44Z</time>
      </trkpt>
      <trkpt lat="46.299643" lon="13.269440">
        <ele>499.032</ele>
        <time>2018-09-07T05:20:45Z</time>
      </trkpt>
      <trkpt lat="46.299735" lon="13.269680">
        <ele>498.534</ele>
        <time>2018-09-07T05:20:46Z</time>
      </trkpt>
      <trkpt lat="46.300214" lon="13.269989">
        <ele>494.770</ele>
        <time>2018-09-07T05:21:02Z</time>
      </trkpt>
      <trkpt lat="46.300498" lon="13.270000">
        <ele>491.327</ele>
        <time>2018-09-07T05:21:14Z</time>
      </trkpt>
      <trkpt lat="46.300903" lon="13.270027">
        <ele>493.268</ele>
        <time>2018-09-07T05:21:29Z</time>
      </trkpt>
      <trkpt lat="46.301163" lon="13.270020">
        <ele>494.296</ele>
        <time>2018-09-07T05:21:41Z</time>
      </trkpt>
      <trkpt lat="46.301546" lon="13.269822">
        <ele>494.723</ele>
        <time>2018-09-07T05:22:00Z</time>
      </trkpt>
      <trkpt lat="46.301802" lon="13.269848">
        <ele>498.186</ele>
        <time>2018-09-07T05:22:14Z</time>
      </trkpt>
      <trkpt lat="46.301993" lon="13.269988">
        <ele>502.438</ele>
        <time>2018-09-07T05:22:27Z</time>
      </trkpt>
      <trkpt lat="46.302285" lon="13.270153">
        <ele>505.770</ele>
        <time>2018-09-07T05:22:43Z</time>
      </trkpt>
      <trkpt lat="46.302604" lon="13.270253">
        <ele>507.717</ele>
        <time>2018-09-07T05:23:00Z</time>
      </trkpt>
      <trkpt lat="46.302933" lon="13.270345">
        <ele>508.108</ele>
        <time>2018-09-07T05:23:17Z</time>
      </trkpt>
      <trkpt lat="46.303188" lon="13.270424">
        <ele>508.627</ele>
        <time>2018-09-07T05:23:30Z</time>
      </trkpt>
      <trkpt lat="46.303561" lon="13.270459">
        <ele>508.669</ele>
        <time>2018-09-07T05:23:45Z</time>
      </trkpt>
      <trkpt lat="46.303968" lon="13.270400">
        <ele>513.915</ele>
        <time>2018-09-07T05:24:01Z</time>
      </trkpt>
      <trkpt lat="46.304289" lon="13.270333">
        <ele>514.472</ele>
        <time>2018-09-07T05:24:17Z</time>
      </trkpt>
      <trkpt lat="46.304565" lon="13.270014">
        <ele>517.373</ele>
        <time>2018-09-07T05:24:33Z</time>
      </trkpt>
      <trkpt lat="46.304836" lon="13.269702">
        <ele>517.351</ele>
        <time>2018-09-07T05:24:47Z</time>
      </trkpt>
      <trkpt lat="46.306106" lon="13.270435">
        <ele>557.748</ele>
        <time>2018-09-07T05:26:15Z</time>
      </trkpt>
      <trkpt lat="46.306239" lon="13.270850">
        <ele>554.351</ele>
        <time>2018-09-07T05:26:29Z</time>
      </trkpt>
      <trkpt lat="46.306304" lon="13.270826">
        <ele>548.562</ele>
        <time>2018-09-07T05:26:30Z</time>
      </trkpt>
      <trkpt lat="46.306344" lon="13.270818">
        <ele>546.183</ele>
        <time>2018-09-07T05:26:31Z</time>
      </trkpt>
      <trkpt lat="46.306371" lon="13.270826">
        <ele>544.211</ele>
        <time>2018-09-07T05:26:32Z</time>
      </trkpt>
      <trkpt lat="46.306408" lon="13.270802">
        <ele>543.708</ele>
        <time>2018-09-07T05:26:33Z</time>
      </trkpt>
      <trkpt lat="46.306457" lon="13.270765">
        <ele>542.340</ele>
        <time>2018-09-07T05:26:34Z</time>
      </trkpt>
      <trkpt lat="46.306485" lon="13.270769">
        <ele>541.882</ele>
        <time>2018-09-07T05:26:35Z</time>
      </trkpt>
      <trkpt lat="46.306499" lon="13.270787">
        <ele>541.318</ele>
        <time>2018-09-07T05:26:36Z</time>
      </trkpt>
      <trkpt lat="46.306646" lon="13.271121">
        <ele>544.285</ele>
        <time>2018-09-07T05:26:51Z</time>
      </trkpt>
      <trkpt lat="46.306653" lon="13.271142">
        <ele>543.776</ele>
        <time>2018-09-07T05:26:52Z</time>
      </trkpt>
      <trkpt lat="46.306729" lon="13.271514">
        <ele>547.164</ele>
        <time>2018-09-07T05:27:08Z</time>
      </trkpt>
      <trkpt lat="46.306808" lon="13.271831">
        <ele>548.011</ele>
        <time>2018-09-07T05:27:21Z</time>
      </trkpt>
      <trkpt lat="46.306917" lon="13.272256">
        <ele>548.034</ele>
        <time>2018-09-07T05:27:38Z</time>
      </trkpt>
      <trkpt lat="46.307039" lon="13.272672">
        <ele>547.615</ele>
        <time>2018-09-07T05:27:53Z</time>
      </trkpt>
      <trkpt lat="46.307152" lon="13.273121">
        <ele>550.065</ele>
        <time>2018-09-07T05:28:10Z</time>
      </trkpt>
      <trkpt lat="46.307260" lon="13.273573">
        <ele>550.411</ele>
        <time>2018-09-07T05:28:25Z</time>
      </trkpt>
      <trkpt lat="46.307378" lon="13.274019">
        <ele>552.408</ele>
        <time>2018-09-07T05:28:39Z</time>
      </trkpt>
      <trkpt lat="46.307438" lon="13.274474">
        <ele>553.865</ele>
        <time>2018-09-07T05:28:54Z</time>
      </trkpt>
      <trkpt lat="46.307459" lon="13.274830">
        <ele>556.727</ele>
        <time>2018-09-07T05:29:08Z</time>
      </trkpt>
      <trkpt lat="46.307476" lon="13.275200">
        <ele>559.613</ele>
        <time>2018-09-07T05:29:23Z</time>
      </trkpt>
      <trkpt lat="46.307507" lon="13.275652">
        <ele>563.490</ele>
        <time>2018-09-07T05:29:40Z</time>
      </trkpt>
      <trkpt lat="46.307580" lon="13.276110">
        <ele>566.881</ele>
        <time>2018-09-07T05:29:59Z</time>
      </trkpt>
      <trkpt lat="46.307678" lon="13.276599">
        <ele>567.829</ele>
        <time>2018-09-07T05:30:18Z</time>
      </trkpt>
      <trkpt lat="46.307763" lon="13.277069">
        <ele>570.686</ele>
        <time>2018-09-07T05:30:36Z</time>
      </trkpt>
      <trkpt lat="46.307724" lon="13.277479">
        <ele>572.159</ele>
        <time>2018-09-07T05:30:51Z</time>
      </trkpt>
      <trkpt lat="46.307635" lon="13.277532">
        <ele>573.573</ele>
        <time>2018-09-07T05:30:56Z</time>
      </trkpt>
      <trkpt lat="46.307484" lon="13.277242">
        <ele>575.985</ele>
        <time>2018-09-07T05:31:05Z</time>
      </trkpt>
      <trkpt lat="46.307345" lon="13.276465">
        <ele>578.313</ele>
        <time>2018-09-07T05:31:20Z</time>
      </trkpt>
      <trkpt lat="46.307158" lon="13.275938">
        <ele>580.208</ele>
        <time>2018-09-07T05:31:33Z</time>
      </trkpt>
      <trkpt lat="46.306891" lon="13.276076">
        <ele>581.741</ele>
        <time>2018-09-07T05:31:45Z</time>
      </trkpt>
      <trkpt lat="46.306898" lon="13.276469">
        <ele>580.793</ele>
        <time>2018-09-07T05:31:58Z</time>
      </trkpt>
      <trkpt lat="46.307029" lon="13.276881">
        <ele>583.179</ele>
        <time>2018-09-07T05:32:12Z</time>
      </trkpt>
      <trkpt lat="46.307128" lon="13.277299">
        <ele>585.136</ele>
        <time>2018-09-07T05:32:26Z</time>
      </trkpt>
      <trkpt lat="46.307147" lon="13.277679">
        <ele>587.027</ele>
        <time>2018-09-07T05:32:38Z</time>
      </trkpt>
      <trkpt lat="46.307166" lon="13.278104">
        <ele>586.595</ele>
        <time>2018-09-07T05:32:50Z</time>
      </trkpt>
      <trkpt lat="46.307183" lon="13.278506">
        <ele>588.472</ele>
        <time>2018-09-07T05:33:04Z</time>
      </trkpt>
      <trkpt lat="46.307187" lon="13.278582">
        <ele>588.985</ele>
        <time>2018-09-07T05:33:08Z</time>
      </trkpt>
      <trkpt lat="46.307197" lon="13.278599">
        <ele>588.913</ele>
        <time>2018-09-07T05:33:09Z</time>
      </trkpt>
      <trkpt lat="46.307212" lon="13.278615">
        <ele>588.943</ele>
        <time>2018-09-07T05:33:10Z</time>
      </trkpt>
      <trkpt lat="46.307221" lon="13.278638">
        <ele>589.407</ele>
        <time>2018-09-07T05:33:11Z</time>
      </trkpt>
      <trkpt lat="46.307223" lon="13.278663">
        <ele>589.408</ele>
        <time>2018-09-07T05:33:12Z</time>
      </trkpt>
      <trkpt lat="46.307223" lon="13.278691">
        <ele>589.445</ele>
        <time>2018-09-07T05:33:13Z</time>
      </trkpt>
      <trkpt lat="46.307222" lon="13.278718">
        <ele>589.977</ele>
        <time>2018-09-07T05:33:14Z</time>
      </trkpt>
      <trkpt lat="46.307221" lon="13.278744">
        <ele>589.963</ele>
        <time>2018-09-07T05:33:15Z</time>
      </trkpt>
      <trkpt lat="46.307218" lon="13.279188">
        <ele>590.370</ele>
        <time>2018-09-07T05:33:31Z</time>
      </trkpt>
      <trkpt lat="46.307169" lon="13.279631">
        <ele>591.861</ele>
        <time>2018-09-07T05:33:46Z</time>
      </trkpt>
      <trkpt lat="46.307109" lon="13.280094">
        <ele>593.299</ele>
        <time>2018-09-07T05:34:01Z</time>
      </trkpt>
      <trkpt lat="46.307104" lon="13.280122">
        <ele>593.256</ele>
        <time>2018-09-07T05:34:02Z</time>
      </trkpt>
      <trkpt lat="46.307102" lon="13.280149">
        <ele>593.299</ele>
        <time>2018-09-07T05:34:03Z</time>
      </trkpt>
      <trkpt lat="46.307074" lon="13.280606">
        <ele>596.184</ele>
        <time>2018-09-07T05:34:18Z</time>
      </trkpt>
      <trkpt lat="46.307032" lon="13.281059">
        <ele>598.507</ele>
        <time>2018-09-07T05:34:33Z</time>
      </trkpt>
      <trkpt lat="46.306969" lon="13.281511">
        <ele>600.017</ele>
        <time>2018-09-07T05:34:47Z</time>
      </trkpt>
      <trkpt lat="46.306891" lon="13.281956">
        <ele>601.908</ele>
        <time>2018-09-07T05:35:00Z</time>
      </trkpt>
      <trkpt lat="46.306806" lon="13.282476">
        <ele>604.812</ele>
        <time>2018-09-07T05:35:15Z</time>
      </trkpt>
      <trkpt lat="46.306749" lon="13.282892">
        <ele>607.664</ele>
        <time>2018-09-07T05:35:27Z</time>
      </trkpt>
      <trkpt lat="46.306670" lon="13.283295">
        <ele>609.120</ele>
        <time>2018-09-07T05:35:39Z</time>
      </trkpt>
      <trkpt lat="46.306620" lon="13.283727">
        <ele>612.537</ele>
        <time>2018-09-07T05:35:52Z</time>
      </trkpt>
      <trkpt lat="46.306549" lon="13.284211">
        <ele>616.388</ele>
        <time>2018-09-07T05:36:06Z</time>
      </trkpt>
      <trkpt lat="46.306523" lon="13.284449">
        <ele>617.716</ele>
        <time>2018-09-07T05:36:14Z</time>
      </trkpt>
      <trkpt lat="46.306516" lon="13.284473">
        <ele>617.723</ele>
        <time>2018-09-07T05:36:15Z</time>
      </trkpt>
      <trkpt lat="46.306378" lon="13.284879">
        <ele>618.266</ele>
        <time>2018-09-07T05:36:32Z</time>
      </trkpt>
      <trkpt lat="46.306172" lon="13.285295">
        <ele>621.661</ele>
        <time>2018-09-07T05:36:50Z</time>
      </trkpt>
      <trkpt lat="46.305967" lon="13.285681">
        <ele>625.421</ele>
        <time>2018-09-07T05:37:06Z</time>
      </trkpt>
      <trkpt lat="46.305966" lon="13.285710">
        <ele>625.413</ele>
        <time>2018-09-07T05:37:07Z</time>
      </trkpt>
      <trkpt lat="46.305957" lon="13.285740">
        <ele>625.408</ele>
        <time>2018-09-07T05:37:08Z</time>
      </trkpt>
      <trkpt lat="46.305943" lon="13.285767">
        <ele>625.980</ele>
        <time>2018-09-07T05:37:09Z</time>
      </trkpt>
      <trkpt lat="46.305929" lon="13.285795">
        <ele>625.952</ele>
        <time>2018-09-07T05:37:10Z</time>
      </trkpt>
      <trkpt lat="46.305915" lon="13.285820">
        <ele>626.498</ele>
        <time>2018-09-07T05:37:11Z</time>
      </trkpt>
      <trkpt lat="46.305903" lon="13.285849">
        <ele>626.475</ele>
        <time>2018-09-07T05:37:12Z</time>
      </trkpt>
      <trkpt lat="46.305893" lon="13.285878">
        <ele>626.976</ele>
        <time>2018-09-07T05:37:13Z</time>
      </trkpt>
      <trkpt lat="46.305802" lon="13.286277">
        <ele>629.864</ele>
        <time>2018-09-07T05:37:26Z</time>
      </trkpt>
      <trkpt lat="46.305726" lon="13.286718">
        <ele>633.111</ele>
        <time>2018-09-07T05:37:41Z</time>
      </trkpt>
      <trkpt lat="46.305630" lon="13.287264">
        <ele>637.044</ele>
        <time>2018-09-07T05:38:00Z</time>
      </trkpt>
      <trkpt lat="46.305493" lon="13.287683">
        <ele>638.962</ele>
        <time>2018-09-07T05:38:16Z</time>
      </trkpt>
      <trkpt lat="46.305379" lon="13.288055">
        <ele>638.483</ele>
        <time>2018-09-07T05:38:30Z</time>
      </trkpt>
      <trkpt lat="46.305388" lon="13.288548">
        <ele>642.711</ele>
        <time>2018-09-07T05:38:45Z</time>
      </trkpt>
      <trkpt lat="46.305290" lon="13.289078">
        <ele>646.108</ele>
        <time>2018-09-07T05:39:03Z</time>
      </trkpt>
      <trkpt lat="46.305178" lon="13.289513">
        <ele>646.630</ele>
        <time>2018-09-07T05:39:18Z</time>
      </trkpt>
      <trkpt lat="46.305157" lon="13.289918">
        <ele>647.552</ele>
        <time>2018-09-07T05:39:30Z</time>
      </trkpt>
      <trkpt lat="46.305152" lon="13.290272">
        <ele>649.018</ele>
        <time>2018-09-07T05:39:41Z</time>
      </trkpt>
      <trkpt lat="46.305082" lon="13.290670">
        <ele>650.435</ele>
        <time>2018-09-07T05:39:54Z</time>
      </trkpt>
      <trkpt lat="46.305027" lon="13.291006">
        <ele>654.366</ele>
        <time>2018-09-07T05:40:07Z</time>
      </trkpt>
      <trkpt lat="46.304883" lon="13.291455">
        <ele>657.694</ele>
        <time>2018-09-07T05:40:25Z</time>
      </trkpt>
      <trkpt lat="46.304811" lon="13.291752">
        <ele>660.081</ele>
        <time>2018-09-07T05:40:36Z</time>
      </trkpt>
      <trkpt lat="46.304814" lon="13.291781">
        <ele>660.534</ele>
        <time>2018-09-07T05:40:37Z</time>
      </trkpt>
      <trkpt lat="46.304813" lon="13.291811">
        <ele>661.065</ele>
        <time>2018-09-07T05:40:38Z</time>
      </trkpt>
      <trkpt lat="46.304811" lon="13.291841">
        <ele>661.568</ele>
        <time>2018-09-07T05:40:39Z</time>
      </trkpt>
      <trkpt lat="46.304802" lon="13.291872">
        <ele>662.014</ele>
        <time>2018-09-07T05:40:40Z</time>
      </trkpt>
      <trkpt lat="46.304708" lon="13.292315">
        <ele>664.408</ele>
        <time>2018-09-07T05:40:55Z</time>
      </trkpt>
      <trkpt lat="46.304597" lon="13.292885">
        <ele>665.890</ele>
        <time>2018-09-07T05:41:14Z</time>
      </trkpt>
      <trkpt lat="46.304580" lon="13.292966">
        <ele>665.892</ele>
        <time>2018-09-07T05:41:17Z</time>
      </trkpt>
      <trkpt lat="46.304574" lon="13.292994">
        <ele>665.888</ele>
        <time>2018-09-07T05:41:18Z</time>
      </trkpt>
      <trkpt lat="46.304487" lon="13.293542">
        <ele>668.215</ele>
        <time>2018-09-07T05:41:36Z</time>
      </trkpt>
      <trkpt lat="46.304393" lon="13.294066">
        <ele>669.286</ele>
        <time>2018-09-07T05:41:53Z</time>
      </trkpt>
      <trkpt lat="46.304317" lon="13.294543">
        <ele>671.694</ele>
        <time>2018-09-07T05:42:08Z</time>
      </trkpt>
      <trkpt lat="46.304307" lon="13.295003">
        <ele>674.531</ele>
        <time>2018-09-07T05:42:23Z</time>
      </trkpt>
      <trkpt lat="46.304283" lon="13.295659">
        <ele>677.374</ele>
        <time>2018-09-07T05:42:44Z</time>
      </trkpt>
      <trkpt lat="46.304266" lon="13.295848">
        <ele>678.341</ele>
        <time>2018-09-07T05:42:50Z</time>
      </trkpt>
      <trkpt lat="46.304166" lon="13.296266">
        <ele>683.181</ele>
        <time>2018-09-07T05:43:04Z</time>
      </trkpt>
      <trkpt lat="46.304049" lon="13.296820">
        <ele>684.609</ele>
        <time>2018-09-07T05:43:20Z</time>
      </trkpt>
      <trkpt lat="46.304039" lon="13.297401">
        <ele>686.508</ele>
        <time>2018-09-07T05:43:37Z</time>
      </trkpt>
      <trkpt lat="46.304109" lon="13.297905">
        <ele>688.948</ele>
        <time>2018-09-07T05:43:50Z</time>
      </trkpt>
      <trkpt lat="46.304112" lon="13.298319">
        <ele>690.340</ele>
        <time>2018-09-07T05:44:02Z</time>
      </trkpt>
      <trkpt lat="46.304099" lon="13.298737">
        <ele>693.736</ele>
        <time>2018-09-07T05:44:17Z</time>
      </trkpt>
      <trkpt lat="46.304134" lon="13.299202">
        <ele>697.513</ele>
        <time>2018-09-07T05:44:33Z</time>
      </trkpt>
      <trkpt lat="46.304143" lon="13.299226">
        <ele>698.084</ele>
        <time>2018-09-07T05:44:34Z</time>
      </trkpt>
      <trkpt lat="46.304151" lon="13.299253">
        <ele>698.562</ele>
        <time>2018-09-07T05:44:35Z</time>
      </trkpt>
      <trkpt lat="46.304158" lon="13.299283">
        <ele>699.099</ele>
        <time>2018-09-07T05:44:36Z</time>
      </trkpt>
      <trkpt lat="46.304163" lon="13.299314">
        <ele>699.522</ele>
        <time>2018-09-07T05:44:37Z</time>
      </trkpt>
      <trkpt lat="46.304264" lon="13.299882">
        <ele>705.715</ele>
        <time>2018-09-07T05:44:56Z</time>
      </trkpt>
      <trkpt lat="46.304383" lon="13.300356">
        <ele>711.065</ele>
        <time>2018-09-07T05:45:12Z</time>
      </trkpt>
      <trkpt lat="46.304409" lon="13.300493">
        <ele>710.011</ele>
        <time>2018-09-07T05:45:16Z</time>
      </trkpt>
      <trkpt lat="46.304402" lon="13.300532">
        <ele>709.508</ele>
        <time>2018-09-07T05:45:17Z</time>
      </trkpt>
      <trkpt lat="46.304401" lon="13.300575">
        <ele>708.625</ele>
        <time>2018-09-07T05:45:18Z</time>
      </trkpt>
      <trkpt lat="46.304314" lon="13.301096">
        <ele>706.747</ele>
        <time>2018-09-07T05:45:34Z</time>
      </trkpt>
      <trkpt lat="46.304306" lon="13.301606">
        <ele>706.733</ele>
        <time>2018-09-07T05:45:50Z</time>
      </trkpt>
      <trkpt lat="46.304310" lon="13.302189">
        <ele>708.610</ele>
        <time>2018-09-07T05:46:08Z</time>
      </trkpt>
      <trkpt lat="46.304307" lon="13.302661">
        <ele>710.071</ele>
        <time>2018-09-07T05:46:22Z</time>
      </trkpt>
      <trkpt lat="46.304309" lon="13.303192">
        <ele>710.579</ele>
        <time>2018-09-07T05:46:38Z</time>
      </trkpt>
      <trkpt lat="46.304258" lon="13.303695">
        <ele>713.446</ele>
        <time>2018-09-07T05:46:52Z</time>
      </trkpt>
      <trkpt lat="46.304222" lon="13.303780">
        <ele>713.429</ele>
        <time>2018-09-07T05:46:55Z</time>
      </trkpt>
      <trkpt lat="46.304206" lon="13.303803">
        <ele>713.933</ele>
        <time>2018-09-07T05:46:56Z</time>
      </trkpt>
      <trkpt lat="46.304072" lon="13.304178">
        <ele>717.223</ele>
        <time>2018-09-07T05:47:09Z</time>
      </trkpt>
      <trkpt lat="46.303996" lon="13.304727">
        <ele>719.615</ele>
        <time>2018-09-07T05:47:24Z</time>
      </trkpt>
      <trkpt lat="46.304017" lon="13.305282">
        <ele>721.108</ele>
        <time>2018-09-07T05:47:39Z</time>
      </trkpt>
      <trkpt lat="46.304036" lon="13.305839">
        <ele>725.487</ele>
        <time>2018-09-07T05:47:54Z</time>
      </trkpt>
      <trkpt lat="46.304025" lon="13.306398">
        <ele>726.459</ele>
        <time>2018-09-07T05:48:10Z</time>
      </trkpt>
      <trkpt lat="46.303906" lon="13.306949">
        <ele>725.985</ele>
        <time>2018-09-07T05:48:27Z</time>
      </trkpt>
      <trkpt lat="46.303801" lon="13.307559">
        <ele>726.832</ele>
        <time>2018-09-07T05:48:45Z</time>
      </trkpt>
      <trkpt lat="46.303809" lon="13.308227">
        <ele>731.733</ele>
        <time>2018-09-07T05:49:03Z</time>
      </trkpt>
      <trkpt lat="46.303713" lon="13.308637">
        <ele>732.661</ele>
        <time>2018-09-07T05:49:15Z</time>
      </trkpt>
      <trkpt lat="46.303648" lon="13.309150">
        <ele>734.158</ele>
        <time>2018-09-07T05:49:28Z</time>
      </trkpt>
      <trkpt lat="46.303578" lon="13.309761">
        <ele>734.561</ele>
        <time>2018-09-07T05:49:44Z</time>
      </trkpt>
      <trkpt lat="46.303539" lon="13.309980">
        <ele>733.681</ele>
        <time>2018-09-07T05:49:50Z</time>
      </trkpt>
      <trkpt lat="46.303535" lon="13.310013">
        <ele>733.661</ele>
        <time>2018-09-07T05:49:51Z</time>
      </trkpt>
      <trkpt lat="46.303534" lon="13.310047">
        <ele>733.117</ele>
        <time>2018-09-07T05:49:52Z</time>
      </trkpt>
      <trkpt lat="46.303531" lon="13.310084">
        <ele>733.608</ele>
        <time>2018-09-07T05:49:53Z</time>
      </trkpt>
      <trkpt lat="46.303523" lon="13.310121">
        <ele>733.672</ele>
        <time>2018-09-07T05:49:54Z</time>
      </trkpt>
      <trkpt lat="46.303516" lon="13.310158">
        <ele>734.144</ele>
        <time>2018-09-07T05:49:55Z</time>
      </trkpt>
      <trkpt lat="46.303509" lon="13.310198">
        <ele>734.170</ele>
        <time>2018-09-07T05:49:56Z</time>
      </trkpt>
      <trkpt lat="46.303421" lon="13.310844">
        <ele>737.447</ele>
        <time>2018-09-07T05:50:10Z</time>
      </trkpt>
      <trkpt lat="46.303423" lon="13.311459">
        <ele>739.318</ele>
        <time>2018-09-07T05:50:22Z</time>
      </trkpt>
      <trkpt lat="46.303404" lon="13.312093">
        <ele>741.796</ele>
        <time>2018-09-07T05:50:37Z</time>
      </trkpt>
      <trkpt lat="46.303363" lon="13.312748">
        <ele>742.773</ele>
        <time>2018-09-07T05:50:53Z</time>
      </trkpt>
      <trkpt lat="46.303381" lon="13.313332">
        <ele>746.116</ele>
        <time>2018-09-07T05:51:07Z</time>
      </trkpt>
      <trkpt lat="46.303521" lon="13.313941">
        <ele>749.959</ele>
        <time>2018-09-07T05:51:23Z</time>
      </trkpt>
      <trkpt lat="46.303654" lon="13.314550">
        <ele>756.603</ele>
        <time>2018-09-07T05:51:39Z</time>
      </trkpt>
      <trkpt lat="46.303744" lon="13.314945">
        <ele>760.523</ele>
        <time>2018-09-07T05:51:50Z</time>
      </trkpt>
      <trkpt lat="46.303749" lon="13.314984">
        <ele>760.508</ele>
        <time>2018-09-07T05:51:51Z</time>
      </trkpt>
      <trkpt lat="46.303756" lon="13.315021">
        <ele>761.049</ele>
        <time>2018-09-07T05:51:52Z</time>
      </trkpt>
      <trkpt lat="46.303862" lon="13.315387">
        <ele>764.881</ele>
        <time>2018-09-07T05:52:03Z</time>
      </trkpt>
      <trkpt lat="46.304006" lon="13.315846">
        <ele>768.737</ele>
        <time>2018-09-07T05:52:18Z</time>
      </trkpt>
      <trkpt lat="46.304093" lon="13.316087">
        <ele>773.014</ele>
        <time>2018-09-07T05:52:29Z</time>
      </trkpt>
      <trkpt lat="46.304108" lon="13.316113">
        <ele>773.555</ele>
        <time>2018-09-07T05:52:30Z</time>
      </trkpt>
      <trkpt lat="46.304119" lon="13.316142">
        <ele>773.553</ele>
        <time>2018-09-07T05:52:31Z</time>
      </trkpt>
      <trkpt lat="46.304134" lon="13.316169">
        <ele>774.030</ele>
        <time>2018-09-07T05:52:32Z</time>
      </trkpt>
      <trkpt lat="46.304153" lon="13.316194">
        <ele>774.423</ele>
        <time>2018-09-07T05:52:33Z</time>
      </trkpt>
      <trkpt lat="46.304170" lon="13.316220">
        <ele>774.919</ele>
        <time>2018-09-07T05:52:34Z</time>
      </trkpt>
      <trkpt lat="46.304186" lon="13.316255">
        <ele>775.409</ele>
        <time>2018-09-07T05:52:35Z</time>
      </trkpt>
      <trkpt lat="46.304200" lon="13.316293">
        <ele>775.419</ele>
        <time>2018-09-07T05:52:36Z</time>
      </trkpt>
      <trkpt lat="46.304223" lon="13.316360">
        <ele>776.408</ele>
        <time>2018-09-07T05:52:38Z</time>
      </trkpt>
      <trkpt lat="46.304230" lon="13.316397">
        <ele>776.865</ele>
        <time>2018-09-07T05:52:39Z</time>
      </trkpt>
      <trkpt lat="46.304239" lon="13.316434">
        <ele>776.817</ele>
        <time>2018-09-07T05:52:40Z</time>
      </trkpt>
      <trkpt lat="46.304253" lon="13.316471">
        <ele>777.363</ele>
        <time>2018-09-07T05:52:41Z</time>
      </trkpt>
      <trkpt lat="46.304266" lon="13.316504">
        <ele>777.380</ele>
        <time>2018-09-07T05:52:42Z</time>
      </trkpt>
      <trkpt lat="46.304461" lon="13.316900">
        <ele>779.231</ele>
        <time>2018-09-07T05:52:55Z</time>
      </trkpt>
      <trkpt lat="46.304601" lon="13.317284">
        <ele>779.269</ele>
        <time>2018-09-07T05:53:10Z</time>
      </trkpt>
      <trkpt lat="46.304805" lon="13.317769">
        <ele>781.646</ele>
        <time>2018-09-07T05:53:29Z</time>
      </trkpt>
      <trkpt lat="46.304960" lon="13.318117">
        <ele>779.779</ele>
        <time>2018-09-07T05:53:43Z</time>
      </trkpt>
      <trkpt lat="46.305111" lon="13.318459">
        <ele>782.695</ele>
        <time>2018-09-07T05:53:58Z</time>
      </trkpt>
      <trkpt lat="46.305191" lon="13.318900">
        <ele>786.049</ele>
        <time>2018-09-07T05:54:13Z</time>
      </trkpt>
      <trkpt lat="46.305075" lon="13.319216">
        <ele>785.023</ele>
        <time>2018-09-07T05:54:26Z</time>
      </trkpt>
      <trkpt lat="46.304876" lon="13.319520">
        <ele>784.008</ele>
        <time>2018-09-07T05:54:40Z</time>
      </trkpt>
      <trkpt lat="46.304717" lon="13.319913">
        <ele>781.693</ele>
        <time>2018-09-07T05:54:56Z</time>
      </trkpt>
      <trkpt lat="46.304631" lon="13.320249">
        <ele>780.715</ele>
        <time>2018-09-07T05:55:10Z</time>
      </trkpt>
      <trkpt lat="46.304572" lon="13.320515">
        <ele>778.361</ele>
        <time>2018-09-07T05:55:21Z</time>
      </trkpt>
      <trkpt lat="46.304569" lon="13.320537">
        <ele>777.838</ele>
        <time>2018-09-07T05:55:22Z</time>
      </trkpt>
      <trkpt lat="46.304459" lon="13.320822">
        <ele>778.889</ele>
        <time>2018-09-07T05:55:34Z</time>
      </trkpt>
      <trkpt lat="46.304389" lon="13.321132">
        <ele>781.267</ele>
        <time>2018-09-07T05:55:46Z</time>
      </trkpt>
      <trkpt lat="46.304362" lon="13.321454">
        <ele>784.514</ele>
        <time>2018-09-07T05:55:58Z</time>
      </trkpt>
      <trkpt lat="46.304326" lon="13.321810">
        <ele>788.927</ele>
        <time>2018-09-07T05:56:12Z</time>
      </trkpt>
      <trkpt lat="46.304305" lon="13.321957">
        <ele>788.977</ele>
        <time>2018-09-07T05:56:18Z</time>
      </trkpt>
      <trkpt lat="46.304306" lon="13.321980">
        <ele>789.361</ele>
        <time>2018-09-07T05:56:19Z</time>
      </trkpt>
      <trkpt lat="46.304305" lon="13.322071">
        <ele>790.327</ele>
        <time>2018-09-07T05:56:23Z</time>
      </trkpt>
      <trkpt lat="46.304265" lon="13.322321">
        <ele>789.308</ele>
        <time>2018-09-07T05:56:34Z</time>
      </trkpt>
      <trkpt lat="46.304267" lon="13.322334">
        <ele>789.381</ele>
        <time>2018-09-07T05:56:35Z</time>
      </trkpt>
      <trkpt lat="46.304260" lon="13.322501">
        <ele>794.673</ele>
        <time>2018-09-07T05:56:42Z</time>
      </trkpt>
      <trkpt lat="46.304255" lon="13.322524">
        <ele>796.139</ele>
        <time>2018-09-07T05:56:43Z</time>
      </trkpt>
      <trkpt lat="46.304252" lon="13.322550">
        <ele>797.086</ele>
        <time>2018-09-07T05:56:44Z</time>
      </trkpt>
      <trkpt lat="46.304219" lon="13.322917">
        <ele>806.267</ele>
        <time>2018-09-07T05:56:58Z</time>
      </trkpt>
      <trkpt lat="46.304197" lon="13.323276">
        <ele>811.065</ele>
        <time>2018-09-07T05:57:13Z</time>
      </trkpt>
      <trkpt lat="46.304149" lon="13.323688">
        <ele>811.442</ele>
        <time>2018-09-07T05:57:27Z</time>
      </trkpt>
      <trkpt lat="46.304016" lon="13.324118">
        <ele>808.165</ele>
        <time>2018-09-07T05:57:44Z</time>
      </trkpt>
      <trkpt lat="46.303864" lon="13.324499">
        <ele>810.084</ele>
        <time>2018-09-07T05:58:01Z</time>
      </trkpt>
      <trkpt lat="46.303742" lon="13.324870">
        <ele>811.007</ele>
        <time>2018-09-07T05:58:17Z</time>
      </trkpt>
      <trkpt lat="46.303671" lon="13.325226">
        <ele>815.317</ele>
        <time>2018-09-07T05:58:32Z</time>
      </trkpt>
      <trkpt lat="46.303661" lon="13.325276">
        <ele>816.308</ele>
        <time>2018-09-07T05:58:34Z</time>
      </trkpt>
      <trkpt lat="46.303654" lon="13.325302">
        <ele>816.362</ele>
        <time>2018-09-07T05:58:35Z</time>
      </trkpt>
      <trkpt lat="46.303653" lon="13.325330">
        <ele>816.324</ele>
        <time>2018-09-07T05:58:36Z</time>
      </trkpt>
      <trkpt lat="46.303650" lon="13.325354">
        <ele>816.760</ele>
        <time>2018-09-07T05:58:37Z</time>
      </trkpt>
      <trkpt lat="46.303648" lon="13.325380">
        <ele>816.787</ele>
        <time>2018-09-07T05:58:38Z</time>
      </trkpt>
      <trkpt lat="46.303646" lon="13.325403">
        <ele>816.798</ele>
        <time>2018-09-07T05:58:39Z</time>
      </trkpt>
      <trkpt lat="46.303643" lon="13.325428">
        <ele>816.766</ele>
        <time>2018-09-07T05:58:40Z</time>
      </trkpt>
      <trkpt lat="46.303640" lon="13.325454">
        <ele>816.783</ele>
        <time>2018-09-07T05:58:41Z</time>
      </trkpt>
      <trkpt lat="46.303528" lon="13.325953">
        <ele>817.236</ele>
        <time>2018-09-07T05:58:59Z</time>
      </trkpt>
      <trkpt lat="46.303438" lon="13.326675">
        <ele>817.291</ele>
        <time>2018-09-07T05:59:21Z</time>
      </trkpt>
      <trkpt lat="46.303598" lon="13.327216">
        <ele>820.681</ele>
        <time>2018-09-07T05:59:38Z</time>
      </trkpt>
      <trkpt lat="46.303894" lon="13.327656">
        <ele>823.919</ele>
        <time>2018-09-07T05:59:55Z</time>
      </trkpt>
      <trkpt lat="46.304223" lon="13.328026">
        <ele>826.808</ele>
        <time>2018-09-07T06:00:11Z</time>
      </trkpt>
      <trkpt lat="46.304345" lon="13.328557">
        <ele>827.323</ele>
        <time>2018-09-07T06:00:26Z</time>
      </trkpt>
      <trkpt lat="46.304302" lon="13.329180">
        <ele>827.875</ele>
        <time>2018-09-07T06:00:43Z</time>
      </trkpt>
      <trkpt lat="46.304329" lon="13.329856">
        <ele>829.781</ele>
        <time>2018-09-07T06:01:02Z</time>
      </trkpt>
      <trkpt lat="46.304154" lon="13.330326">
        <ele>826.848</ele>
        <time>2018-09-07T06:01:19Z</time>
      </trkpt>
      <trkpt lat="46.303887" lon="13.330685">
        <ele>827.319</ele>
        <time>2018-09-07T06:01:36Z</time>
      </trkpt>
      <trkpt lat="46.303631" lon="13.331123">
        <ele>829.727</ele>
        <time>2018-09-07T06:01:53Z</time>
      </trkpt>
      <trkpt lat="46.303416" lon="13.331673">
        <ele>837.484</ele>
        <time>2018-09-07T06:02:11Z</time>
      </trkpt>
      <trkpt lat="46.303303" lon="13.332307">
        <ele>842.717</ele>
        <time>2018-09-07T06:02:30Z</time>
      </trkpt>
      <trkpt lat="46.303260" lon="13.333038">
        <ele>845.126</ele>
        <time>2018-09-07T06:02:51Z</time>
      </trkpt>
      <trkpt lat="46.303218" lon="13.333681">
        <ele>845.647</ele>
        <time>2018-09-07T06:03:09Z</time>
      </trkpt>
      <trkpt lat="46.303143" lon="13.334270">
        <ele>846.111</ele>
        <time>2018-09-07T06:03:25Z</time>
      </trkpt>
      <trkpt lat="46.303039" lon="13.334738">
        <ele>842.708</ele>
        <time>2018-09-07T06:03:40Z</time>
      </trkpt>
      <trkpt lat="46.302939" lon="13.335251">
        <ele>843.266</ele>
        <time>2018-09-07T06:03:55Z</time>
      </trkpt>
      <trkpt lat="46.302877" lon="13.335674">
        <ele>845.648</ele>
        <time>2018-09-07T06:04:09Z</time>
      </trkpt>
      <trkpt lat="46.302853" lon="13.336175">
        <ele>848.554</ele>
        <time>2018-09-07T06:04:25Z</time>
      </trkpt>
      <trkpt lat="46.302847" lon="13.336644">
        <ele>850.941</ele>
        <time>2018-09-07T06:04:40Z</time>
      </trkpt>
      <trkpt lat="46.302800" lon="13.337099">
        <ele>853.732</ele>
        <time>2018-09-07T06:04:54Z</time>
      </trkpt>
      <trkpt lat="46.302735" lon="13.337776">
        <ele>855.770</ele>
        <time>2018-09-07T06:05:14Z</time>
      </trkpt>
      <trkpt lat="46.302839" lon="13.338347">
        <ele>858.187</ele>
        <time>2018-09-07T06:05:32Z</time>
      </trkpt>
      <trkpt lat="46.303094" lon="13.338986">
        <ele>859.530</ele>
        <time>2018-09-07T06:05:51Z</time>
      </trkpt>
      <trkpt lat="46.303199" lon="13.339565">
        <ele>859.527</ele>
        <time>2018-09-07T06:06:07Z</time>
      </trkpt>
      <trkpt lat="46.303388" lon="13.340087">
        <ele>862.968</ele>
        <time>2018-09-07T06:06:23Z</time>
      </trkpt>
      <trkpt lat="46.303569" lon="13.340594">
        <ele>866.714</ele>
        <time>2018-09-07T06:06:39Z</time>
      </trkpt>
      <trkpt lat="46.303541" lon="13.341087">
        <ele>871.508</ele>
        <time>2018-09-07T06:06:54Z</time>
      </trkpt>
      <trkpt lat="46.303445" lon="13.341557">
        <ele>874.966</ele>
        <time>2018-09-07T06:07:07Z</time>
      </trkpt>
      <trkpt lat="46.303343" lon="13.342137">
        <ele>873.048</ele>
        <time>2018-09-07T06:07:24Z</time>
      </trkpt>
      <trkpt lat="46.303319" lon="13.342329">
        <ele>873.554</ele>
        <time>2018-09-07T06:07:37Z</time>
      </trkpt>
      <trkpt lat="46.303291" lon="13.342313">
        <ele>871.521</ele>
        <time>2018-09-07T06:07:58Z</time>
      </trkpt>
      <trkpt lat="46.303302" lon="13.342349">
        <ele>873.072</ele>
        <time>2018-09-07T06:08:45Z</time>
      </trkpt>
      <trkpt lat="46.303323" lon="13.342311">
        <ele>865.330</ele>
        <time>2018-09-07T06:09:24Z</time>
      </trkpt>
      <trkpt lat="46.303346" lon="13.342347">
        <ele>868.257</ele>
        <time>2018-09-07T06:10:05Z</time>
      </trkpt>
      <trkpt lat="46.303316" lon="13.342350">
        <ele>867.720</ele>
        <time>2018-09-07T06:10:40Z</time>
      </trkpt>
      <trkpt lat="46.303306" lon="13.342328">
        <ele>865.372</ele>
        <time>2018-09-07T06:11:15Z</time>
      </trkpt>
      <trkpt lat="46.303328" lon="13.342323">
        <ele>869.113</ele>
        <time>2018-09-07T06:12:04Z</time>
      </trkpt>
      <trkpt lat="46.303316" lon="13.342317">
        <ele>865.814</ele>
        <time>2018-09-07T06:12:43Z</time>
      </trkpt>
      <trkpt lat="46.303328" lon="13.342319">
        <ele>864.308</ele>
        <time>2018-09-07T06:13:30Z</time>
      </trkpt>
      <trkpt lat="46.303303" lon="13.342328">
        <ele>862.411</ele>
        <time>2018-09-07T06:14:06Z</time>
      </trkpt>
      <trkpt lat="46.303316" lon="13.342337">
        <ele>864.363</ele>
        <time>2018-09-07T06:14:22Z</time>
      </trkpt>
      <trkpt lat="46.303318" lon="13.342354">
        <ele>864.869</ele>
        <time>2018-09-07T06:14:25Z</time>
      </trkpt>
      <trkpt lat="46.303382" lon="13.342868">
        <ele>865.836</ele>
        <time>2018-09-07T06:14:38Z</time>
      </trkpt>
      <trkpt lat="46.303432" lon="13.343908">
        <ele>864.347</ele>
        <time>2018-09-07T06:14:52Z</time>
      </trkpt>
      <trkpt lat="46.303427" lon="13.345119">
        <ele>860.575</ele>
        <time>2018-09-07T06:15:05Z</time>
      </trkpt>
      <trkpt lat="46.303371" lon="13.345616">
        <ele>858.152</ele>
        <time>2018-09-07T06:15:10Z</time>
      </trkpt>
      <trkpt lat="46.303367" lon="13.345715">
        <ele>857.625</ele>
        <time>2018-09-07T06:15:11Z</time>
      </trkpt>
      <trkpt lat="46.303366" lon="13.346716">
        <ele>855.231</ele>
        <time>2018-09-07T06:15:21Z</time>
      </trkpt>
      <trkpt lat="46.303546" lon="13.347839">
        <ele>853.761</ele>
        <time>2018-09-07T06:15:32Z</time>
      </trkpt>
      <trkpt lat="46.303572" lon="13.347939">
        <ele>853.707</ele>
        <time>2018-09-07T06:15:33Z</time>
      </trkpt>
      <trkpt lat="46.303604" lon="13.348035">
        <ele>853.708</ele>
        <time>2018-09-07T06:15:34Z</time>
      </trkpt>
      <trkpt lat="46.303643" lon="13.348127">
        <ele>853.777</ele>
        <time>2018-09-07T06:15:35Z</time>
      </trkpt>
      <trkpt lat="46.303689" lon="13.348210">
        <ele>853.799</ele>
        <time>2018-09-07T06:15:36Z</time>
      </trkpt>
      <trkpt lat="46.303744" lon="13.348287">
        <ele>853.725</ele>
        <time>2018-09-07T06:15:37Z</time>
      </trkpt>
      <trkpt lat="46.303799" lon="13.348357">
        <ele>853.792</ele>
        <time>2018-09-07T06:15:38Z</time>
      </trkpt>
      <trkpt lat="46.304512" lon="13.349141">
        <ele>852.373</ele>
        <time>2018-09-07T06:15:51Z</time>
      </trkpt>
      <trkpt lat="46.304626" lon="13.349215">
        <ele>852.891</ele>
        <time>2018-09-07T06:15:53Z</time>
      </trkpt>
      <trkpt lat="46.304795" lon="13.349313">
        <ele>853.368</ele>
        <time>2018-09-07T06:15:56Z</time>
      </trkpt>
      <trkpt lat="46.305234" lon="13.349697">
        <ele>854.771</ele>
        <time>2018-09-07T06:16:06Z</time>
      </trkpt>
      <trkpt lat="46.305271" lon="13.349727">
        <ele>854.731</ele>
        <time>2018-09-07T06:16:07Z</time>
      </trkpt>
      <trkpt lat="46.305309" lon="13.349758">
        <ele>854.761</ele>
        <time>2018-09-07T06:16:08Z</time>
      </trkpt>
      <trkpt lat="46.305346" lon="13.349788">
        <ele>854.707</ele>
        <time>2018-09-07T06:16:09Z</time>
      </trkpt>
      <trkpt lat="46.305386" lon="13.349816">
        <ele>854.708</ele>
        <time>2018-09-07T06:16:10Z</time>
      </trkpt>
      <trkpt lat="46.305896" lon="13.350168">
        <ele>857.687</ele>
        <time>2018-09-07T06:16:23Z</time>
      </trkpt>
      <trkpt lat="46.306047" lon="13.350287">
        <ele>859.019</ele>
        <time>2018-09-07T06:16:27Z</time>
      </trkpt>
      <trkpt lat="46.306271" lon="13.350512">
        <ele>859.525</ele>
        <time>2018-09-07T06:16:33Z</time>
      </trkpt>
      <trkpt lat="46.306342" lon="13.350586">
        <ele>859.072</ele>
        <time>2018-09-07T06:16:35Z</time>
      </trkpt>
      <trkpt lat="46.306377" lon="13.350616">
        <ele>858.573</ele>
        <time>2018-09-07T06:16:36Z</time>
      </trkpt>
      <trkpt lat="46.306660" lon="13.350868">
        <ele>857.691</ele>
        <time>2018-09-07T06:16:44Z</time>
      </trkpt>
      <trkpt lat="46.306903" lon="13.351172">
        <ele>857.668</ele>
        <time>2018-09-07T06:16:51Z</time>
      </trkpt>
      <trkpt lat="46.306937" lon="13.351234">
        <ele>857.131</ele>
        <time>2018-09-07T06:16:52Z</time>
      </trkpt>
      <trkpt lat="46.307028" lon="13.351425">
        <ele>856.674</ele>
        <time>2018-09-07T06:16:55Z</time>
      </trkpt>
      <trkpt lat="46.307269" lon="13.351943">
        <ele>852.856</ele>
        <time>2018-09-07T06:17:07Z</time>
      </trkpt>
      <trkpt lat="46.307590" lon="13.352571">
        <ele>850.921</ele>
        <time>2018-09-07T06:17:22Z</time>
      </trkpt>
      <trkpt lat="46.307681" lon="13.352707">
        <ele>850.408</ele>
        <time>2018-09-07T06:17:25Z</time>
      </trkpt>
      <trkpt lat="46.307894" lon="13.352948">
        <ele>848.551</ele>
        <time>2018-09-07T06:17:30Z</time>
      </trkpt>
      <trkpt lat="46.307938" lon="13.353017">
        <ele>847.543</ele>
        <time>2018-09-07T06:17:31Z</time>
      </trkpt>
      <trkpt lat="46.307976" lon="13.353102">
        <ele>847.079</ele>
        <time>2018-09-07T06:17:32Z</time>
      </trkpt>
      <trkpt lat="46.308000" lon="13.353206">
        <ele>846.556</ele>
        <time>2018-09-07T06:17:33Z</time>
      </trkpt>
      <trkpt lat="46.308007" lon="13.353320">
        <ele>845.637</ele>
        <time>2018-09-07T06:17:34Z</time>
      </trkpt>
      <trkpt lat="46.308008" lon="13.353440">
        <ele>844.655</ele>
        <time>2018-09-07T06:17:35Z</time>
      </trkpt>
      <trkpt lat="46.308018" lon="13.353562">
        <ele>844.152</ele>
        <time>2018-09-07T06:17:36Z</time>
      </trkpt>
      <trkpt lat="46.308038" lon="13.353686">
        <ele>843.245</ele>
        <time>2018-09-07T06:17:37Z</time>
      </trkpt>
      <trkpt lat="46.308074" lon="13.353808">
        <ele>842.711</ele>
        <time>2018-09-07T06:17:38Z</time>
      </trkpt>
      <trkpt lat="46.308122" lon="13.353927">
        <ele>841.721</ele>
        <time>2018-09-07T06:17:39Z</time>
      </trkpt>
      <trkpt lat="46.308177" lon="13.354047">
        <ele>840.803</ele>
        <time>2018-09-07T06:17:40Z</time>
      </trkpt>
      <trkpt lat="46.308399" lon="13.354563">
        <ele>837.408</ele>
        <time>2018-09-07T06:17:44Z</time>
      </trkpt>
      <trkpt lat="46.308444" lon="13.354708">
        <ele>836.465</ele>
        <time>2018-09-07T06:17:45Z</time>
      </trkpt>
      <trkpt lat="46.308491" lon="13.354850">
        <ele>835.557</ele>
        <time>2018-09-07T06:17:46Z</time>
      </trkpt>
      <trkpt lat="46.308550" lon="13.354986">
        <ele>835.023</ele>
        <time>2018-09-07T06:17:47Z</time>
      </trkpt>
      <trkpt lat="46.308617" lon="13.355120">
        <ele>834.030</ele>
        <time>2018-09-07T06:17:48Z</time>
      </trkpt>
      <trkpt lat="46.308871" lon="13.355589">
        <ele>830.231</ele>
        <time>2018-09-07T06:17:52Z</time>
      </trkpt>
      <trkpt lat="46.308942" lon="13.355676">
        <ele>829.259</ele>
        <time>2018-09-07T06:17:53Z</time>
      </trkpt>
      <trkpt lat="46.309028" lon="13.355736">
        <ele>828.346</ele>
        <time>2018-09-07T06:17:54Z</time>
      </trkpt>
      <trkpt lat="46.309121" lon="13.355765">
        <ele>827.899</ele>
        <time>2018-09-07T06:17:55Z</time>
      </trkpt>
      <trkpt lat="46.309221" lon="13.355762">
        <ele>826.884</ele>
        <time>2018-09-07T06:17:56Z</time>
      </trkpt>
      <trkpt lat="46.309324" lon="13.355753">
        <ele>826.307</ele>
        <time>2018-09-07T06:17:57Z</time>
      </trkpt>
      <trkpt lat="46.309429" lon="13.355754">
        <ele>825.917</ele>
        <time>2018-09-07T06:17:58Z</time>
      </trkpt>
      <trkpt lat="46.309535" lon="13.355767">
        <ele>824.908</ele>
        <time>2018-09-07T06:17:59Z</time>
      </trkpt>
      <trkpt lat="46.309945" lon="13.355844">
        <ele>823.932</ele>
        <time>2018-09-07T06:18:03Z</time>
      </trkpt>
      <trkpt lat="46.310037" lon="13.355890">
        <ele>823.524</ele>
        <time>2018-09-07T06:18:04Z</time>
      </trkpt>
      <trkpt lat="46.310126" lon="13.355948">
        <ele>823.030</ele>
        <time>2018-09-07T06:18:05Z</time>
      </trkpt>
      <trkpt lat="46.310279" lon="13.356076">
        <ele>822.567</ele>
        <time>2018-09-07T06:18:07Z</time>
      </trkpt>
      <trkpt lat="46.310329" lon="13.356163">
        <ele>821.528</ele>
        <time>2018-09-07T06:18:08Z</time>
      </trkpt>
      <trkpt lat="46.310359" lon="13.356278">
        <ele>820.696</ele>
        <time>2018-09-07T06:18:09Z</time>
      </trkpt>
      <trkpt lat="46.310376" lon="13.356406">
        <ele>819.623</ele>
        <time>2018-09-07T06:18:10Z</time>
      </trkpt>
      <trkpt lat="46.310387" lon="13.356545">
        <ele>818.786</ele>
        <time>2018-09-07T06:18:11Z</time>
      </trkpt>
      <trkpt lat="46.310427" lon="13.356828">
        <ele>816.787</ele>
        <time>2018-09-07T06:18:13Z</time>
      </trkpt>
      <trkpt lat="46.310464" lon="13.356966">
        <ele>815.842</ele>
        <time>2018-09-07T06:18:14Z</time>
      </trkpt>
      <trkpt lat="46.310520" lon="13.357096">
        <ele>814.826</ele>
        <time>2018-09-07T06:18:15Z</time>
      </trkpt>
      <trkpt lat="46.310590" lon="13.357217">
        <ele>814.308</ele>
        <time>2018-09-07T06:18:16Z</time>
      </trkpt>
      <trkpt lat="46.310664" lon="13.357339">
        <ele>813.442</ele>
        <time>2018-09-07T06:18:17Z</time>
      </trkpt>
      <trkpt lat="46.310864" lon="13.357680">
        <ele>811.494</ele>
        <time>2018-09-07T06:18:20Z</time>
      </trkpt>
      <trkpt lat="46.310895" lon="13.357789">
        <ele>810.520</ele>
        <time>2018-09-07T06:18:21Z</time>
      </trkpt>
      <trkpt lat="46.310898" lon="13.357910">
        <ele>810.057</ele>
        <time>2018-09-07T06:18:22Z</time>
      </trkpt>
      <trkpt lat="46.310879" lon="13.358041">
        <ele>809.018</ele>
        <time>2018-09-07T06:18:23Z</time>
      </trkpt>
      <trkpt lat="46.310859" lon="13.358167">
        <ele>808.186</ele>
        <time>2018-09-07T06:18:24Z</time>
      </trkpt>
      <trkpt lat="46.310843" lon="13.358303">
        <ele>807.653</ele>
        <time>2018-09-07T06:18:25Z</time>
      </trkpt>
      <trkpt lat="46.310838" lon="13.358443">
        <ele>806.696</ele>
        <time>2018-09-07T06:18:26Z</time>
      </trkpt>
      <trkpt lat="46.310836" lon="13.358579">
        <ele>805.763</ele>
        <time>2018-09-07T06:18:27Z</time>
      </trkpt>
      <trkpt lat="46.310830" lon="13.358725">
        <ele>804.744</ele>
        <time>2018-09-07T06:18:28Z</time>
      </trkpt>
      <trkpt lat="46.310812" lon="13.358874">
        <ele>804.218</ele>
        <time>2018-09-07T06:18:29Z</time>
      </trkpt>
      <trkpt lat="46.310789" lon="13.359025">
        <ele>803.308</ele>
        <time>2018-09-07T06:18:30Z</time>
      </trkpt>
      <trkpt lat="46.310752" lon="13.359181">
        <ele>802.360</ele>
        <time>2018-09-07T06:18:31Z</time>
      </trkpt>
      <trkpt lat="46.310710" lon="13.359321">
        <ele>801.432</ele>
        <time>2018-09-07T06:18:32Z</time>
      </trkpt>
      <trkpt lat="46.310677" lon="13.359474">
        <ele>800.498</ele>
        <time>2018-09-07T06:18:33Z</time>
      </trkpt>
      <trkpt lat="46.310663" lon="13.359639">
        <ele>799.435</ele>
        <time>2018-09-07T06:18:34Z</time>
      </trkpt>
      <trkpt lat="46.310662" lon="13.359799">
        <ele>798.536</ele>
        <time>2018-09-07T06:18:35Z</time>
      </trkpt>
      <trkpt lat="46.310754" lon="13.362078">
        <ele>786.934</ele>
        <time>2018-09-07T06:18:48Z</time>
      </trkpt>
      <trkpt lat="46.310755" lon="13.362252">
        <ele>786.531</ele>
        <time>2018-09-07T06:18:49Z</time>
      </trkpt>
      <trkpt lat="46.310744" lon="13.362416">
        <ele>785.544</ele>
        <time>2018-09-07T06:18:50Z</time>
      </trkpt>
      <trkpt lat="46.310737" lon="13.362570">
        <ele>785.081</ele>
        <time>2018-09-07T06:18:51Z</time>
      </trkpt>
      <trkpt lat="46.310744" lon="13.362724">
        <ele>784.061</ele>
        <time>2018-09-07T06:18:52Z</time>
      </trkpt>
      <trkpt lat="46.310768" lon="13.362877">
        <ele>784.017</ele>
        <time>2018-09-07T06:18:53Z</time>
      </trkpt>
      <trkpt lat="46.310807" lon="13.363027">
        <ele>783.608</ele>
        <time>2018-09-07T06:18:54Z</time>
      </trkpt>
      <trkpt lat="46.310866" lon="13.363173">
        <ele>782.662</ele>
        <time>2018-09-07T06:18:55Z</time>
      </trkpt>
      <trkpt lat="46.310936" lon="13.363292">
        <ele>782.184</ele>
        <time>2018-09-07T06:18:56Z</time>
      </trkpt>
      <trkpt lat="46.311012" lon="13.363395">
        <ele>781.630</ele>
        <time>2018-09-07T06:18:57Z</time>
      </trkpt>
      <trkpt lat="46.311075" lon="13.363494">
        <ele>781.227</ele>
        <time>2018-09-07T06:18:58Z</time>
      </trkpt>
      <trkpt lat="46.311120" lon="13.363605">
        <ele>780.768</ele>
        <time>2018-09-07T06:18:59Z</time>
      </trkpt>
      <trkpt lat="46.311160" lon="13.363726">
        <ele>780.256</ele>
        <time>2018-09-07T06:19:00Z</time>
      </trkpt>
      <trkpt lat="46.311213" lon="13.363841">
        <ele>779.773</ele>
        <time>2018-09-07T06:19:01Z</time>
      </trkpt>
      <trkpt lat="46.311286" lon="13.363938">
        <ele>779.286</ele>
        <time>2018-09-07T06:19:02Z</time>
      </trkpt>
      <trkpt lat="46.311377" lon="13.364013">
        <ele>778.897</ele>
        <time>2018-09-07T06:19:03Z</time>
      </trkpt>
      <trkpt lat="46.311463" lon="13.364067">
        <ele>777.823</ele>
        <time>2018-09-07T06:19:04Z</time>
      </trkpt>
      <trkpt lat="46.311543" lon="13.364135">
        <ele>777.325</ele>
        <time>2018-09-07T06:19:05Z</time>
      </trkpt>
      <trkpt lat="46.311602" lon="13.364237">
        <ele>776.408</ele>
        <time>2018-09-07T06:19:06Z</time>
      </trkpt>
      <trkpt lat="46.311633" lon="13.364363">
        <ele>775.973</ele>
        <time>2018-09-07T06:19:07Z</time>
      </trkpt>
      <trkpt lat="46.311692" lon="13.364629">
        <ele>774.055</ele>
        <time>2018-09-07T06:19:09Z</time>
      </trkpt>
      <trkpt lat="46.311752" lon="13.364745">
        <ele>773.091</ele>
        <time>2018-09-07T06:19:10Z</time>
      </trkpt>
      <trkpt lat="46.311823" lon="13.364850">
        <ele>772.068</ele>
        <time>2018-09-07T06:19:11Z</time>
      </trkpt>
      <trkpt lat="46.311887" lon="13.364940">
        <ele>771.159</ele>
        <time>2018-09-07T06:19:12Z</time>
      </trkpt>
      <trkpt lat="46.311933" lon="13.365038">
        <ele>770.157</ele>
        <time>2018-09-07T06:19:13Z</time>
      </trkpt>
      <trkpt lat="46.311951" lon="13.365149">
        <ele>769.634</ele>
        <time>2018-09-07T06:19:14Z</time>
      </trkpt>
      <trkpt lat="46.311944" lon="13.365264">
        <ele>768.737</ele>
        <time>2018-09-07T06:19:15Z</time>
      </trkpt>
      <trkpt lat="46.311924" lon="13.365374">
        <ele>767.736</ele>
        <time>2018-09-07T06:19:16Z</time>
      </trkpt>
      <trkpt lat="46.311884" lon="13.365465">
        <ele>766.717</ele>
        <time>2018-09-07T06:19:17Z</time>
      </trkpt>
      <trkpt lat="46.311821" lon="13.365525">
        <ele>766.318</ele>
        <time>2018-09-07T06:19:18Z</time>
      </trkpt>
      <trkpt lat="46.311748" lon="13.365560">
        <ele>765.308</ele>
        <time>2018-09-07T06:19:19Z</time>
      </trkpt>
      <trkpt lat="46.311675" lon="13.365596">
        <ele>764.877</ele>
        <time>2018-09-07T06:19:20Z</time>
      </trkpt>
      <trkpt lat="46.311603" lon="13.365646">
        <ele>763.979</ele>
        <time>2018-09-07T06:19:21Z</time>
      </trkpt>
      <trkpt lat="46.311535" lon="13.365704">
        <ele>763.415</ele>
        <time>2018-09-07T06:19:22Z</time>
      </trkpt>
      <trkpt lat="46.311474" lon="13.365776">
        <ele>762.412</ele>
        <time>2018-09-07T06:19:23Z</time>
      </trkpt>
      <trkpt lat="46.311418" lon="13.365858">
        <ele>761.513</ele>
        <time>2018-09-07T06:19:24Z</time>
      </trkpt>
      <trkpt lat="46.311366" lon="13.365948">
        <ele>761.091</ele>
        <time>2018-09-07T06:19:25Z</time>
      </trkpt>
      <trkpt lat="46.311313" lon="13.366041">
        <ele>760.018</ele>
        <time>2018-09-07T06:19:26Z</time>
      </trkpt>
      <trkpt lat="46.311249" lon="13.366122">
        <ele>759.141</ele>
        <time>2018-09-07T06:19:27Z</time>
      </trkpt>
      <trkpt lat="46.311173" lon="13.366183">
        <ele>758.622</ele>
        <time>2018-09-07T06:19:28Z</time>
      </trkpt>
      <trkpt lat="46.311094" lon="13.366239">
        <ele>758.162</ele>
        <time>2018-09-07T06:19:29Z</time>
      </trkpt>
      <trkpt lat="46.311022" lon="13.366315">
        <ele>757.608</ele>
        <time>2018-09-07T06:19:30Z</time>
      </trkpt>
      <trkpt lat="46.310957" lon="13.366416">
        <ele>756.608</ele>
        <time>2018-09-07T06:19:31Z</time>
      </trkpt>
      <trkpt lat="46.310906" lon="13.366519">
        <ele>756.296</ele>
        <time>2018-09-07T06:19:32Z</time>
      </trkpt>
      <trkpt lat="46.310856" lon="13.366632">
        <ele>755.738</ele>
        <time>2018-09-07T06:19:33Z</time>
      </trkpt>
      <trkpt lat="46.310805" lon="13.366753">
        <ele>755.294</ele>
        <time>2018-09-07T06:19:34Z</time>
      </trkpt>
      <trkpt lat="46.310767" lon="13.366876">
        <ele>754.211</ele>
        <time>2018-09-07T06:19:35Z</time>
      </trkpt>
      <trkpt lat="46.310738" lon="13.367013">
        <ele>753.872</ele>
        <time>2018-09-07T06:19:36Z</time>
      </trkpt>
      <trkpt lat="46.310716" lon="13.367155">
        <ele>752.880</ele>
        <time>2018-09-07T06:19:37Z</time>
      </trkpt>
      <trkpt lat="46.310693" lon="13.367300">
        <ele>751.867</ele>
        <time>2018-09-07T06:19:38Z</time>
      </trkpt>
      <trkpt lat="46.310657" lon="13.367447">
        <ele>751.460</ele>
        <time>2018-09-07T06:19:39Z</time>
      </trkpt>
      <trkpt lat="46.310614" lon="13.367577">
        <ele>750.469</ele>
        <time>2018-09-07T06:19:40Z</time>
      </trkpt>
      <trkpt lat="46.310567" lon="13.367712">
        <ele>749.904</ele>
        <time>2018-09-07T06:19:41Z</time>
      </trkpt>
      <trkpt lat="46.310293" lon="13.368884">
        <ele>743.724</ele>
        <time>2018-09-07T06:19:49Z</time>
      </trkpt>
      <trkpt lat="46.310293" lon="13.369035">
        <ele>742.708</ele>
        <time>2018-09-07T06:19:50Z</time>
      </trkpt>
      <trkpt lat="46.310288" lon="13.369187">
        <ele>742.250</ele>
        <time>2018-09-07T06:19:51Z</time>
      </trkpt>
      <trkpt lat="46.310232" lon="13.369600">
        <ele>739.872</ele>
        <time>2018-09-07T06:19:54Z</time>
      </trkpt>
      <trkpt lat="46.310175" lon="13.369709">
        <ele>738.998</ele>
        <time>2018-09-07T06:19:55Z</time>
      </trkpt>
      <trkpt lat="46.310119" lon="13.369798">
        <ele>737.945</ele>
        <time>2018-09-07T06:19:56Z</time>
      </trkpt>
      <trkpt lat="46.310070" lon="13.369906">
        <ele>736.926</ele>
        <time>2018-09-07T06:19:57Z</time>
      </trkpt>
      <trkpt lat="46.310035" lon="13.370029">
        <ele>736.064</ele>
        <time>2018-09-07T06:19:58Z</time>
      </trkpt>
      <trkpt lat="46.310011" lon="13.370161">
        <ele>735.551</ele>
        <time>2018-09-07T06:19:59Z</time>
      </trkpt>
      <trkpt lat="46.309999" lon="13.370298">
        <ele>734.554</ele>
        <time>2018-09-07T06:20:00Z</time>
      </trkpt>
      <trkpt lat="46.310001" lon="13.370435">
        <ele>734.138</ele>
        <time>2018-09-07T06:20:01Z</time>
      </trkpt>
      <trkpt lat="46.310014" lon="13.370574">
        <ele>733.170</ele>
        <time>2018-09-07T06:20:02Z</time>
      </trkpt>
      <trkpt lat="46.310039" lon="13.370708">
        <ele>732.617</ele>
        <time>2018-09-07T06:20:03Z</time>
      </trkpt>
      <trkpt lat="46.310073" lon="13.370836">
        <ele>731.708</ele>
        <time>2018-09-07T06:20:04Z</time>
      </trkpt>
      <trkpt lat="46.310106" lon="13.370959">
        <ele>731.217</ele>
        <time>2018-09-07T06:20:05Z</time>
      </trkpt>
      <trkpt lat="46.310126" lon="13.371087">
        <ele>730.259</ele>
        <time>2018-09-07T06:20:06Z</time>
      </trkpt>
      <trkpt lat="46.310125" lon="13.371220">
        <ele>729.725</ele>
        <time>2018-09-07T06:20:07Z</time>
      </trkpt>
      <trkpt lat="46.310107" lon="13.371347">
        <ele>729.352</ele>
        <time>2018-09-07T06:20:08Z</time>
      </trkpt>
      <trkpt lat="46.310069" lon="13.371454">
        <ele>728.853</ele>
        <time>2018-09-07T06:20:09Z</time>
      </trkpt>
      <trkpt lat="46.310009" lon="13.371535">
        <ele>728.331</ele>
        <time>2018-09-07T06:20:10Z</time>
      </trkpt>
      <trkpt lat="46.309931" lon="13.371596">
        <ele>727.858</ele>
        <time>2018-09-07T06:20:11Z</time>
      </trkpt>
      <trkpt lat="46.309865" lon="13.371662">
        <ele>727.391</ele>
        <time>2018-09-07T06:20:12Z</time>
      </trkpt>
      <trkpt lat="46.309807" lon="13.371756">
        <ele>726.826</ele>
        <time>2018-09-07T06:20:13Z</time>
      </trkpt>
      <trkpt lat="46.309762" lon="13.371866">
        <ele>726.447</ele>
        <time>2018-09-07T06:20:14Z</time>
      </trkpt>
      <trkpt lat="46.309721" lon="13.371984">
        <ele>725.911</ele>
        <time>2018-09-07T06:20:15Z</time>
      </trkpt>
      <trkpt lat="46.309327" lon="13.373127">
        <ele>720.108</ele>
        <time>2018-09-07T06:20:24Z</time>
      </trkpt>
      <trkpt lat="46.309296" lon="13.373271">
        <ele>719.676</ele>
        <time>2018-09-07T06:20:25Z</time>
      </trkpt>
      <trkpt lat="46.309166" lon="13.374166">
        <ele>716.358</ele>
        <time>2018-09-07T06:20:31Z</time>
      </trkpt>
      <trkpt lat="46.309169" lon="13.374310">
        <ele>716.394</ele>
        <time>2018-09-07T06:20:32Z</time>
      </trkpt>
      <trkpt lat="46.309189" lon="13.374443">
        <ele>716.311</ele>
        <time>2018-09-07T06:20:33Z</time>
      </trkpt>
      <trkpt lat="46.309212" lon="13.374557">
        <ele>716.342</ele>
        <time>2018-09-07T06:20:34Z</time>
      </trkpt>
      <trkpt lat="46.309211" lon="13.374668">
        <ele>715.820</ele>
        <time>2018-09-07T06:20:35Z</time>
      </trkpt>
      <trkpt lat="46.309178" lon="13.374768">
        <ele>715.827</ele>
        <time>2018-09-07T06:20:36Z</time>
      </trkpt>
      <trkpt lat="46.309118" lon="13.374847">
        <ele>715.320</ele>
        <time>2018-09-07T06:20:37Z</time>
      </trkpt>
      <trkpt lat="46.309049" lon="13.374914">
        <ele>715.334</ele>
        <time>2018-09-07T06:20:38Z</time>
      </trkpt>
      <trkpt lat="46.308988" lon="13.374994">
        <ele>714.855</ele>
        <time>2018-09-07T06:20:39Z</time>
      </trkpt>
      <trkpt lat="46.308942" lon="13.375095">
        <ele>714.410</ele>
        <time>2018-09-07T06:20:40Z</time>
      </trkpt>
      <trkpt lat="46.308909" lon="13.375207">
        <ele>713.908</ele>
        <time>2018-09-07T06:20:41Z</time>
      </trkpt>
      <trkpt lat="46.308838" lon="13.375442">
        <ele>712.957</ele>
        <time>2018-09-07T06:20:43Z</time>
      </trkpt>
      <trkpt lat="46.308789" lon="13.375554">
        <ele>711.979</ele>
        <time>2018-09-07T06:20:44Z</time>
      </trkpt>
      <trkpt lat="46.308527" lon="13.376130">
        <ele>709.175</ele>
        <time>2018-09-07T06:20:49Z</time>
      </trkpt>
      <trkpt lat="46.308489" lon="13.376264">
        <ele>708.142</ele>
        <time>2018-09-07T06:20:50Z</time>
      </trkpt>
      <trkpt lat="46.308447" lon="13.376401">
        <ele>707.673</ele>
        <time>2018-09-07T06:20:51Z</time>
      </trkpt>
      <trkpt lat="46.308396" lon="13.376532">
        <ele>706.761</ele>
        <time>2018-09-07T06:20:52Z</time>
      </trkpt>
      <trkpt lat="46.308335" lon="13.376660">
        <ele>705.718</ele>
        <time>2018-09-07T06:20:53Z</time>
      </trkpt>
      <trkpt lat="46.308126" lon="13.377185">
        <ele>701.951</ele>
        <time>2018-09-07T06:20:57Z</time>
      </trkpt>
      <trkpt lat="46.308100" lon="13.377327">
        <ele>700.977</ele>
        <time>2018-09-07T06:20:58Z</time>
      </trkpt>
      <trkpt lat="46.308093" lon="13.377463">
        <ele>699.961</ele>
        <time>2018-09-07T06:20:59Z</time>
      </trkpt>
      <trkpt lat="46.308083" lon="13.377719">
        <ele>698.527</ele>
        <time>2018-09-07T06:21:01Z</time>
      </trkpt>
      <trkpt lat="46.308050" lon="13.377835">
        <ele>697.508</ele>
        <time>2018-09-07T06:21:02Z</time>
      </trkpt>
      <trkpt lat="46.308003" lon="13.377940">
        <ele>697.031</ele>
        <time>2018-09-07T06:21:03Z</time>
      </trkpt>
      <trkpt lat="46.307896" lon="13.378123">
        <ele>695.683</ele>
        <time>2018-09-07T06:21:05Z</time>
      </trkpt>
      <trkpt lat="46.307827" lon="13.378179">
        <ele>694.649</ele>
        <time>2018-09-07T06:21:06Z</time>
      </trkpt>
      <trkpt lat="46.307748" lon="13.378193">
        <ele>694.246</ele>
        <time>2018-09-07T06:21:07Z</time>
      </trkpt>
      <trkpt lat="46.307665" lon="13.378179">
        <ele>693.217</ele>
        <time>2018-09-07T06:21:08Z</time>
      </trkpt>
      <trkpt lat="46.307579" lon="13.378154">
        <ele>692.735</ele>
        <time>2018-09-07T06:21:09Z</time>
      </trkpt>
      <trkpt lat="46.307497" lon="13.378139">
        <ele>692.242</ele>
        <time>2018-09-07T06:21:10Z</time>
      </trkpt>
      <trkpt lat="46.307411" lon="13.378143">
        <ele>691.835</ele>
        <time>2018-09-07T06:21:11Z</time>
      </trkpt>
      <trkpt lat="46.307324" lon="13.378174">
        <ele>691.869</ele>
        <time>2018-09-07T06:21:12Z</time>
      </trkpt>
      <trkpt lat="46.307238" lon="13.378221">
        <ele>691.304</ele>
        <time>2018-09-07T06:21:13Z</time>
      </trkpt>
      <trkpt lat="46.307156" lon="13.378279">
        <ele>690.824</ele>
        <time>2018-09-07T06:21:14Z</time>
      </trkpt>
      <trkpt lat="46.307078" lon="13.378353">
        <ele>690.308</ele>
        <time>2018-09-07T06:21:15Z</time>
      </trkpt>
      <trkpt lat="46.307009" lon="13.378441">
        <ele>689.880</ele>
        <time>2018-09-07T06:21:16Z</time>
      </trkpt>
      <trkpt lat="46.306944" lon="13.378541">
        <ele>688.932</ele>
        <time>2018-09-07T06:21:17Z</time>
      </trkpt>
      <trkpt lat="46.306883" lon="13.378649">
        <ele>687.968</ele>
        <time>2018-09-07T06:21:18Z</time>
      </trkpt>
      <trkpt lat="46.306768" lon="13.378883">
        <ele>686.535</ele>
        <time>2018-09-07T06:21:20Z</time>
      </trkpt>
      <trkpt lat="46.306728" lon="13.379019">
        <ele>685.516</ele>
        <time>2018-09-07T06:21:21Z</time>
      </trkpt>
      <trkpt lat="46.306540" lon="13.379736">
        <ele>680.774</ele>
        <time>2018-09-07T06:21:26Z</time>
      </trkpt>
      <trkpt lat="46.306513" lon="13.379886">
        <ele>679.771</ele>
        <time>2018-09-07T06:21:27Z</time>
      </trkpt>
      <trkpt lat="46.306371" lon="13.380484">
        <ele>676.434</ele>
        <time>2018-09-07T06:21:31Z</time>
      </trkpt>
      <trkpt lat="46.306304" lon="13.380600">
        <ele>674.979</ele>
        <time>2018-09-07T06:21:32Z</time>
      </trkpt>
      <trkpt lat="46.306155" lon="13.380809">
        <ele>672.505</ele>
        <time>2018-09-07T06:21:34Z</time>
      </trkpt>
      <trkpt lat="46.306088" lon="13.380926">
        <ele>671.625</ele>
        <time>2018-09-07T06:21:35Z</time>
      </trkpt>
      <trkpt lat="46.305890" lon="13.381279">
        <ele>667.708</ele>
        <time>2018-09-07T06:21:38Z</time>
      </trkpt>
      <trkpt lat="46.305837" lon="13.381409">
        <ele>666.821</ele>
        <time>2018-09-07T06:21:39Z</time>
      </trkpt>
      <trkpt lat="46.305792" lon="13.381544">
        <ele>665.313</ele>
        <time>2018-09-07T06:21:40Z</time>
      </trkpt>
      <trkpt lat="46.305756" lon="13.381690">
        <ele>663.919</ele>
        <time>2018-09-07T06:21:41Z</time>
      </trkpt>
      <trkpt lat="46.305735" lon="13.381840">
        <ele>662.956</ele>
        <time>2018-09-07T06:21:42Z</time>
      </trkpt>
      <trkpt lat="46.305730" lon="13.381993">
        <ele>661.587</ele>
        <time>2018-09-07T06:21:43Z</time>
      </trkpt>
      <trkpt lat="46.305725" lon="13.382146">
        <ele>661.045</ele>
        <time>2018-09-07T06:21:44Z</time>
      </trkpt>
      <trkpt lat="46.305716" lon="13.382299">
        <ele>660.562</ele>
        <time>2018-09-07T06:21:45Z</time>
      </trkpt>
      <trkpt lat="46.305692" lon="13.382442">
        <ele>660.575</ele>
        <time>2018-09-07T06:21:46Z</time>
      </trkpt>
      <trkpt lat="46.305658" lon="13.382572">
        <ele>660.018</ele>
        <time>2018-09-07T06:21:47Z</time>
      </trkpt>
      <trkpt lat="46.305614" lon="13.382695">
        <ele>659.698</ele>
        <time>2018-09-07T06:21:48Z</time>
      </trkpt>
      <trkpt lat="46.305570" lon="13.382815">
        <ele>659.117</ele>
        <time>2018-09-07T06:21:49Z</time>
      </trkpt>
      <trkpt lat="46.305483" lon="13.383066">
        <ele>657.608</ele>
        <time>2018-09-07T06:21:51Z</time>
      </trkpt>
      <trkpt lat="46.305459" lon="13.383203">
        <ele>657.255</ele>
        <time>2018-09-07T06:21:52Z</time>
      </trkpt>
      <trkpt lat="46.305454" lon="13.383339">
        <ele>656.747</ele>
        <time>2018-09-07T06:21:53Z</time>
      </trkpt>
      <trkpt lat="46.305461" lon="13.383476">
        <ele>656.273</ele>
        <time>2018-09-07T06:21:54Z</time>
      </trkpt>
      <trkpt lat="46.305475" lon="13.383617">
        <ele>656.280</ele>
        <time>2018-09-07T06:21:55Z</time>
      </trkpt>
      <trkpt lat="46.305490" lon="13.383763">
        <ele>656.291</ele>
        <time>2018-09-07T06:21:56Z</time>
      </trkpt>
      <trkpt lat="46.305502" lon="13.384044">
        <ele>656.769</ele>
        <time>2018-09-07T06:21:58Z</time>
      </trkpt>
      <trkpt lat="46.305486" lon="13.384181">
        <ele>656.736</ele>
        <time>2018-09-07T06:21:59Z</time>
      </trkpt>
      <trkpt lat="46.305456" lon="13.384309">
        <ele>656.289</ele>
        <time>2018-09-07T06:22:00Z</time>
      </trkpt>
      <trkpt lat="46.305387" lon="13.384564">
        <ele>655.725</ele>
        <time>2018-09-07T06:22:02Z</time>
      </trkpt>
      <trkpt lat="46.305364" lon="13.384698">
        <ele>655.226</ele>
        <time>2018-09-07T06:22:03Z</time>
      </trkpt>
      <trkpt lat="46.305353" lon="13.384836">
        <ele>654.808</ele>
        <time>2018-09-07T06:22:04Z</time>
      </trkpt>
      <trkpt lat="46.305356" lon="13.384977">
        <ele>654.308</ele>
        <time>2018-09-07T06:22:05Z</time>
      </trkpt>
      <trkpt lat="46.305364" lon="13.385122">
        <ele>653.816</ele>
        <time>2018-09-07T06:22:06Z</time>
      </trkpt>
      <trkpt lat="46.305366" lon="13.385414">
        <ele>652.828</ele>
        <time>2018-09-07T06:22:08Z</time>
      </trkpt>
      <trkpt lat="46.305332" lon="13.385847">
        <ele>651.484</ele>
        <time>2018-09-07T06:22:11Z</time>
      </trkpt>
      <trkpt lat="46.305329" lon="13.385989">
        <ele>650.451</ele>
        <time>2018-09-07T06:22:12Z</time>
      </trkpt>
      <trkpt lat="46.305311" lon="13.386128">
        <ele>649.922</ele>
        <time>2018-09-07T06:22:13Z</time>
      </trkpt>
      <trkpt lat="46.305274" lon="13.386260">
        <ele>649.520</ele>
        <time>2018-09-07T06:22:14Z</time>
      </trkpt>
      <trkpt lat="46.305226" lon="13.386383">
        <ele>649.047</ele>
        <time>2018-09-07T06:22:15Z</time>
      </trkpt>
      <trkpt lat="46.305140" lon="13.386635">
        <ele>648.070</ele>
        <time>2018-09-07T06:22:17Z</time>
      </trkpt>
      <trkpt lat="46.305002" lon="13.387345">
        <ele>645.185</ele>
        <time>2018-09-07T06:22:22Z</time>
      </trkpt>
      <trkpt lat="46.304913" lon="13.387763">
        <ele>643.789</ele>
        <time>2018-09-07T06:22:25Z</time>
      </trkpt>
      <trkpt lat="46.304740" lon="13.389090">
        <ele>642.317</ele>
        <time>2018-09-07T06:22:34Z</time>
      </trkpt>
      <trkpt lat="46.304741" lon="13.389232">
        <ele>642.708</ele>
        <time>2018-09-07T06:22:35Z</time>
      </trkpt>
      <trkpt lat="46.304765" lon="13.389372">
        <ele>642.792</ele>
        <time>2018-09-07T06:22:36Z</time>
      </trkpt>
      <trkpt lat="46.304807" lon="13.389506">
        <ele>642.774</ele>
        <time>2018-09-07T06:22:37Z</time>
      </trkpt>
      <trkpt lat="46.304853" lon="13.389640">
        <ele>642.750</ele>
        <time>2018-09-07T06:22:38Z</time>
      </trkpt>
      <trkpt lat="46.304884" lon="13.389782">
        <ele>642.717</ele>
        <time>2018-09-07T06:22:39Z</time>
      </trkpt>
      <trkpt lat="46.304896" lon="13.389929">
        <ele>642.348</ele>
        <time>2018-09-07T06:22:40Z</time>
      </trkpt>
      <trkpt lat="46.304889" lon="13.390077">
        <ele>641.896</ele>
        <time>2018-09-07T06:22:41Z</time>
      </trkpt>
      <trkpt lat="46.304862" lon="13.390217">
        <ele>641.323</ele>
        <time>2018-09-07T06:22:42Z</time>
      </trkpt>
      <trkpt lat="46.304821" lon="13.390352">
        <ele>640.856</ele>
        <time>2018-09-07T06:22:43Z</time>
      </trkpt>
      <trkpt lat="46.304779" lon="13.390483">
        <ele>640.895</ele>
        <time>2018-09-07T06:22:44Z</time>
      </trkpt>
      <trkpt lat="46.304745" lon="13.390616">
        <ele>640.349</ele>
        <time>2018-09-07T06:22:45Z</time>
      </trkpt>
      <trkpt lat="46.304727" lon="13.390753">
        <ele>639.823</ele>
        <time>2018-09-07T06:22:46Z</time>
      </trkpt>
      <trkpt lat="46.304718" lon="13.390895">
        <ele>639.408</ele>
        <time>2018-09-07T06:22:47Z</time>
      </trkpt>
      <trkpt lat="46.304720" lon="13.391037">
        <ele>638.943</ele>
        <time>2018-09-07T06:22:48Z</time>
      </trkpt>
      <trkpt lat="46.304733" lon="13.391177">
        <ele>638.425</ele>
        <time>2018-09-07T06:22:49Z</time>
      </trkpt>
      <trkpt lat="46.304751" lon="13.391318">
        <ele>638.481</ele>
        <time>2018-09-07T06:22:50Z</time>
      </trkpt>
      <trkpt lat="46.305142" lon="13.392776">
        <ele>635.578</ele>
        <time>2018-09-07T06:23:01Z</time>
      </trkpt>
      <trkpt lat="46.305382" lon="13.393543">
        <ele>632.269</ele>
        <time>2018-09-07T06:23:07Z</time>
      </trkpt>
      <trkpt lat="46.305440" lon="13.393629">
        <ele>631.757</ele>
        <time>2018-09-07T06:23:08Z</time>
      </trkpt>
      <trkpt lat="46.305514" lon="13.393703">
        <ele>631.234</ele>
        <time>2018-09-07T06:23:09Z</time>
      </trkpt>
      <trkpt lat="46.306042" lon="13.394341">
        <ele>624.917</ele>
        <time>2018-09-07T06:23:16Z</time>
      </trkpt>
      <trkpt lat="46.306100" lon="13.394472">
        <ele>624.039</ele>
        <time>2018-09-07T06:23:17Z</time>
      </trkpt>
      <trkpt lat="46.306149" lon="13.394614">
        <ele>623.001</ele>
        <time>2018-09-07T06:23:18Z</time>
      </trkpt>
      <trkpt lat="46.306411" lon="13.395495">
        <ele>618.221</ele>
        <time>2018-09-07T06:23:24Z</time>
      </trkpt>
      <trkpt lat="46.306429" lon="13.395651">
        <ele>617.308</ele>
        <time>2018-09-07T06:23:25Z</time>
      </trkpt>
      <trkpt lat="46.306445" lon="13.395805">
        <ele>616.317</ele>
        <time>2018-09-07T06:23:26Z</time>
      </trkpt>
      <trkpt lat="46.306473" lon="13.395961">
        <ele>615.849</ele>
        <time>2018-09-07T06:23:27Z</time>
      </trkpt>
      <trkpt lat="46.306515" lon="13.396104">
        <ele>614.965</ele>
        <time>2018-09-07T06:23:28Z</time>
      </trkpt>
      <trkpt lat="46.306575" lon="13.396235">
        <ele>614.452</ele>
        <time>2018-09-07T06:23:29Z</time>
      </trkpt>
      <trkpt lat="46.306648" lon="13.396355">
        <ele>613.423</ele>
        <time>2018-09-07T06:23:30Z</time>
      </trkpt>
      <trkpt lat="46.306730" lon="13.396466">
        <ele>612.971</ele>
        <time>2018-09-07T06:23:31Z</time>
      </trkpt>
      <trkpt lat="46.306809" lon="13.396569">
        <ele>612.538</ele>
        <time>2018-09-07T06:23:32Z</time>
      </trkpt>
      <trkpt lat="46.306938" lon="13.396760">
        <ele>611.591</ele>
        <time>2018-09-07T06:23:34Z</time>
      </trkpt>
      <trkpt lat="46.306976" lon="13.396854">
        <ele>611.072</ele>
        <time>2018-09-07T06:23:35Z</time>
      </trkpt>
      <trkpt lat="46.306985" lon="13.396953">
        <ele>610.513</ele>
        <time>2018-09-07T06:23:36Z</time>
      </trkpt>
      <trkpt lat="46.306967" lon="13.397046">
        <ele>610.014</ele>
        <time>2018-09-07T06:23:37Z</time>
      </trkpt>
      <trkpt lat="46.306936" lon="13.397129">
        <ele>610.008</ele>
        <time>2018-09-07T06:23:38Z</time>
      </trkpt>
      <trkpt lat="46.306901" lon="13.397208">
        <ele>609.661</ele>
        <time>2018-09-07T06:23:39Z</time>
      </trkpt>
      <trkpt lat="46.306520" lon="13.397976">
        <ele>606.733</ele>
        <time>2018-09-07T06:23:50Z</time>
      </trkpt>
      <trkpt lat="46.306493" lon="13.398043">
        <ele>606.759</ele>
        <time>2018-09-07T06:23:51Z</time>
      </trkpt>
      <trkpt lat="46.306475" lon="13.398121">
        <ele>606.786</ele>
        <time>2018-09-07T06:23:52Z</time>
      </trkpt>
      <trkpt lat="46.306463" lon="13.398201">
        <ele>606.727</ele>
        <time>2018-09-07T06:23:53Z</time>
      </trkpt>
      <trkpt lat="46.306452" lon="13.398282">
        <ele>606.245</ele>
        <time>2018-09-07T06:23:54Z</time>
      </trkpt>
      <trkpt lat="46.306129" lon="13.399472">
        <ele>602.862</ele>
        <time>2018-09-07T06:24:09Z</time>
      </trkpt>
      <trkpt lat="46.306022" lon="13.399866">
        <ele>601.915</ele>
        <time>2018-09-07T06:24:14Z</time>
      </trkpt>
      <trkpt lat="46.305890" lon="13.400513">
        <ele>600.426</ele>
        <time>2018-09-07T06:24:22Z</time>
      </trkpt>
      <trkpt lat="46.305876" lon="13.400594">
        <ele>600.447</ele>
        <time>2018-09-07T06:24:23Z</time>
      </trkpt>
      <trkpt lat="46.305870" lon="13.400677">
        <ele>600.411</ele>
        <time>2018-09-07T06:24:24Z</time>
      </trkpt>
      <trkpt lat="46.305870" lon="13.400763">
        <ele>600.408</ele>
        <time>2018-09-07T06:24:25Z</time>
      </trkpt>
      <trkpt lat="46.305873" lon="13.400852">
        <ele>600.996</ele>
        <time>2018-09-07T06:24:26Z</time>
      </trkpt>
      <trkpt lat="46.305883" lon="13.401473">
        <ele>603.388</ele>
        <time>2018-09-07T06:24:33Z</time>
      </trkpt>
      <trkpt lat="46.305873" lon="13.401561">
        <ele>603.344</ele>
        <time>2018-09-07T06:24:34Z</time>
      </trkpt>
      <trkpt lat="46.305821" lon="13.401995">
        <ele>603.891</ele>
        <time>2018-09-07T06:24:39Z</time>
      </trkpt>
      <trkpt lat="46.305800" lon="13.403182">
        <ele>605.792</ele>
        <time>2018-09-07T06:24:53Z</time>
      </trkpt>
      <trkpt lat="46.305693" lon="13.404394">
        <ele>607.660</ele>
        <time>2018-09-07T06:25:09Z</time>
      </trkpt>
      <trkpt lat="46.305693" lon="13.404759">
        <ele>608.117</ele>
        <time>2018-09-07T06:25:15Z</time>
      </trkpt>
      <trkpt lat="46.305725" lon="13.404787">
        <ele>608.160</ele>
        <time>2018-09-07T06:25:16Z</time>
      </trkpt>
      <trkpt lat="46.305757" lon="13.404784">
        <ele>608.147</ele>
        <time>2018-09-07T06:25:17Z</time>
      </trkpt>
      <trkpt lat="46.305780" lon="13.404763">
        <ele>608.129</ele>
        <time>2018-09-07T06:25:18Z</time>
      </trkpt>
      <trkpt lat="46.305787" lon="13.404737">
        <ele>608.121</ele>
        <time>2018-09-07T06:25:19Z</time>
      </trkpt>
      <trkpt lat="46.305789" lon="13.404708">
        <ele>608.108</ele>
        <time>2018-09-07T06:25:20Z</time>
      </trkpt>
      <trkpt lat="46.305790" lon="13.404682">
        <ele>608.188</ele>
        <time>2018-09-07T06:25:21Z</time>
      </trkpt>
      <trkpt lat="46.305786" lon="13.404657">
        <ele>607.620</ele>
        <time>2018-09-07T06:25:22Z</time>
      </trkpt>
      <trkpt lat="46.305783" lon="13.404633">
        <ele>607.636</ele>
        <time>2018-09-07T06:25:23Z</time>
      </trkpt>
      <trkpt lat="46.305781" lon="13.404607">
        <ele>607.293</ele>
        <time>2018-09-07T06:25:24Z</time>
      </trkpt>
      <trkpt lat="46.305784" lon="13.404582">
        <ele>607.254</ele>
        <time>2018-09-07T06:25:25Z</time>
      </trkpt>
      <trkpt lat="46.305786" lon="13.404557">
        <ele>607.232</ele>
        <time>2018-09-07T06:25:26Z</time>
      </trkpt>
      <trkpt lat="46.305787" lon="13.404532">
        <ele>607.279</ele>
        <time>2018-09-07T06:25:27Z</time>
      </trkpt>
      <trkpt lat="46.305789" lon="13.404507">
        <ele>607.692</ele>
        <time>2018-09-07T06:25:28Z</time>
      </trkpt>
      <trkpt lat="46.305835" lon="13.404172">
        <ele>608.667</ele>
        <time>2018-09-07T06:25:42Z</time>
      </trkpt>
      <trkpt lat="46.305883" lon="13.403857">
        <ele>610.081</ele>
        <time>2018-09-07T06:25:56Z</time>
      </trkpt>
      <trkpt lat="46.305915" lon="13.403719">
        <ele>611.019</ele>
        <time>2018-09-07T06:26:03Z</time>
      </trkpt>
      <trkpt lat="46.305927" lon="13.403704">
        <ele>611.508</ele>
        <time>2018-09-07T06:26:04Z</time>
      </trkpt>
      <trkpt lat="46.305937" lon="13.403685">
        <ele>611.570</ele>
        <time>2018-09-07T06:26:05Z</time>
      </trkpt>
      <trkpt lat="46.305952" lon="13.403606">
        <ele>612.942</ele>
        <time>2018-09-07T06:26:09Z</time>
      </trkpt>
      <trkpt lat="46.305944" lon="13.403587">
        <ele>612.948</ele>
        <time>2018-09-07T06:26:10Z</time>
      </trkpt>
      <trkpt lat="46.305939" lon="13.403567">
        <ele>612.935</ele>
        <time>2018-09-07T06:26:11Z</time>
      </trkpt>
      <trkpt lat="46.305942" lon="13.403546">
        <ele>612.996</ele>
        <time>2018-09-07T06:26:12Z</time>
      </trkpt>
      <trkpt lat="46.305948" lon="13.403529">
        <ele>612.994</ele>
        <time>2018-09-07T06:26:13Z</time>
      </trkpt>
      <trkpt lat="46.305956" lon="13.403512">
        <ele>613.491</ele>
        <time>2018-09-07T06:26:14Z</time>
      </trkpt>
      <trkpt lat="46.306005" lon="13.403183">
        <ele>619.294</ele>
        <time>2018-09-07T06:26:30Z</time>
      </trkpt>
      <trkpt lat="46.306066" lon="13.402850">
        <ele>626.913</ele>
        <time>2018-09-07T06:26:47Z</time>
      </trkpt>
      <trkpt lat="46.306105" lon="13.402474">
        <ele>628.343</ele>
        <time>2018-09-07T06:27:05Z</time>
      </trkpt>
      <trkpt lat="46.306166" lon="13.402155">
        <ele>630.207</ele>
        <time>2018-09-07T06:27:21Z</time>
      </trkpt>
      <trkpt lat="46.306196" lon="13.401772">
        <ele>632.208</ele>
        <time>2018-09-07T06:27:39Z</time>
      </trkpt>
      <trkpt lat="46.306237" lon="13.401362">
        <ele>628.865</ele>
        <time>2018-09-07T06:27:56Z</time>
      </trkpt>
      <trkpt lat="46.306268" lon="13.400885">
        <ele>625.947</ele>
        <time>2018-09-07T06:28:17Z</time>
      </trkpt>
      <trkpt lat="46.306309" lon="13.400751">
        <ele>624.583</ele>
        <time>2018-09-07T06:28:32Z</time>
      </trkpt>
      <trkpt lat="46.306326" lon="13.400710">
        <ele>622.560</ele>
        <time>2018-09-07T06:29:09Z</time>
      </trkpt>
      <trkpt lat="46.306316" lon="13.400669">
        <ele>624.921</ele>
        <time>2018-09-07T06:29:26Z</time>
      </trkpt>
      <trkpt lat="46.306314" lon="13.400647">
        <ele>624.949</ele>
        <time>2018-09-07T06:29:27Z</time>
      </trkpt>
      <trkpt lat="46.306317" lon="13.400623">
        <ele>625.486</ele>
        <time>2018-09-07T06:29:28Z</time>
      </trkpt>
      <trkpt lat="46.306322" lon="13.400599">
        <ele>625.489</ele>
        <time>2018-09-07T06:29:29Z</time>
      </trkpt>
      <trkpt lat="46.306330" lon="13.400578">
        <ele>625.417</ele>
        <time>2018-09-07T06:29:30Z</time>
      </trkpt>
      <trkpt lat="46.306339" lon="13.400555">
        <ele>625.487</ele>
        <time>2018-09-07T06:29:31Z</time>
      </trkpt>
      <trkpt lat="46.306345" lon="13.400535">
        <ele>624.915</ele>
        <time>2018-09-07T06:29:32Z</time>
      </trkpt>
      <trkpt lat="46.306456" lon="13.400103">
        <ele>624.508</ele>
        <time>2018-09-07T06:29:50Z</time>
      </trkpt>
      <trkpt lat="46.306636" lon="13.399645">
        <ele>623.035</ele>
        <time>2018-09-07T06:30:11Z</time>
      </trkpt>
      <trkpt lat="46.306812" lon="13.399261">
        <ele>625.477</ele>
        <time>2018-09-07T06:30:30Z</time>
      </trkpt>
      <trkpt lat="46.306905" lon="13.398866">
        <ele>626.973</ele>
        <time>2018-09-07T06:30:47Z</time>
      </trkpt>
      <trkpt lat="46.306937" lon="13.398357">
        <ele>630.240</ele>
        <time>2018-09-07T06:31:05Z</time>
      </trkpt>
      <trkpt lat="46.307121" lon="13.398010">
        <ele>632.641</ele>
        <time>2018-09-07T06:31:22Z</time>
      </trkpt>
      <trkpt lat="46.307227" lon="13.397605">
        <ele>633.639</ele>
        <time>2018-09-07T06:31:39Z</time>
      </trkpt>
      <trkpt lat="46.307379" lon="13.397147">
        <ele>634.166</ele>
        <time>2018-09-07T06:31:57Z</time>
      </trkpt>
      <trkpt lat="46.307681" lon="13.396838">
        <ele>637.019</ele>
        <time>2018-09-07T06:32:14Z</time>
      </trkpt>
      <trkpt lat="46.307996" lon="13.396597">
        <ele>641.376</ele>
        <time>2018-09-07T06:32:31Z</time>
      </trkpt>
      <trkpt lat="46.308229" lon="13.396272">
        <ele>640.890</ele>
        <time>2018-09-07T06:32:47Z</time>
      </trkpt>
      <trkpt lat="46.308472" lon="13.396011">
        <ele>641.819</ele>
        <time>2018-09-07T06:33:01Z</time>
      </trkpt>
      <trkpt lat="46.308731" lon="13.395841">
        <ele>646.108</ele>
        <time>2018-09-07T06:33:14Z</time>
      </trkpt>
      <trkpt lat="46.309011" lon="13.395708">
        <ele>650.471</ele>
        <time>2018-09-07T06:33:27Z</time>
      </trkpt>
      <trkpt lat="46.309354" lon="13.395511">
        <ele>656.273</ele>
        <time>2018-09-07T06:33:43Z</time>
      </trkpt>
      <trkpt lat="46.309641" lon="13.395375">
        <ele>660.029</ele>
        <time>2018-09-07T06:33:57Z</time>
      </trkpt>
      <trkpt lat="46.309908" lon="13.395269">
        <ele>668.216</ele>
        <time>2018-09-07T06:34:10Z</time>
      </trkpt>
      <trkpt lat="46.310178" lon="13.395128">
        <ele>672.167</ele>
        <time>2018-09-07T06:34:23Z</time>
      </trkpt>
      <trkpt lat="46.310455" lon="13.395152">
        <ele>675.485</ele>
        <time>2018-09-07T06:34:36Z</time>
      </trkpt>
      <trkpt lat="46.310585" lon="13.394840">
        <ele>673.532</ele>
        <time>2018-09-07T06:34:49Z</time>
      </trkpt>
      <trkpt lat="46.310796" lon="13.394825">
        <ele>674.015</ele>
        <time>2018-09-07T06:35:01Z</time>
      </trkpt>
      <trkpt lat="46.310891" lon="13.394976">
        <ele>673.559</ele>
        <time>2018-09-07T06:35:08Z</time>
      </trkpt>
      <trkpt lat="46.310903" lon="13.395002">
        <ele>673.503</ele>
        <time>2018-09-07T06:35:09Z</time>
      </trkpt>
      <trkpt lat="46.310915" lon="13.395021">
        <ele>673.523</ele>
        <time>2018-09-07T06:35:10Z</time>
      </trkpt>
      <trkpt lat="46.311097" lon="13.395198">
        <ele>672.508</ele>
        <time>2018-09-07T06:35:23Z</time>
      </trkpt>
      <trkpt lat="46.311126" lon="13.395222">
        <ele>672.529</ele>
        <time>2018-09-07T06:35:25Z</time>
      </trkpt>
      <trkpt lat="46.311144" lon="13.395232">
        <ele>672.131</ele>
        <time>2018-09-07T06:35:26Z</time>
      </trkpt>
      <trkpt lat="46.311162" lon="13.395243">
        <ele>672.167</ele>
        <time>2018-09-07T06:35:27Z</time>
      </trkpt>
      <trkpt lat="46.311176" lon="13.395252">
        <ele>672.154</ele>
        <time>2018-09-07T06:35:28Z</time>
      </trkpt>
      <trkpt lat="46.311193" lon="13.395261">
        <ele>672.125</ele>
        <time>2018-09-07T06:35:29Z</time>
      </trkpt>
      <trkpt lat="46.311376" lon="13.395345">
        <ele>673.073</ele>
        <time>2018-09-07T06:35:40Z</time>
      </trkpt>
      <trkpt lat="46.311607" lon="13.395369">
        <ele>673.010</ele>
        <time>2018-09-07T06:35:52Z</time>
      </trkpt>
      <trkpt lat="46.311865" lon="13.395435">
        <ele>673.013</ele>
        <time>2018-09-07T06:36:06Z</time>
      </trkpt>
      <trkpt lat="46.311882" lon="13.395445">
        <ele>673.545</ele>
        <time>2018-09-07T06:36:07Z</time>
      </trkpt>
      <trkpt lat="46.311899" lon="13.395447">
        <ele>673.047</ele>
        <time>2018-09-07T06:36:08Z</time>
      </trkpt>
      <trkpt lat="46.311915" lon="13.395444">
        <ele>673.011</ele>
        <time>2018-09-07T06:36:09Z</time>
      </trkpt>
      <trkpt lat="46.311932" lon="13.395442">
        <ele>673.008</ele>
        <time>2018-09-07T06:36:10Z</time>
      </trkpt>
      <trkpt lat="46.311950" lon="13.395446">
        <ele>673.028</ele>
        <time>2018-09-07T06:36:11Z</time>
      </trkpt>
      <trkpt lat="46.311984" lon="13.395451">
        <ele>673.550</ele>
        <time>2018-09-07T06:36:13Z</time>
      </trkpt>
      <trkpt lat="46.312001" lon="13.395456">
        <ele>674.026</ele>
        <time>2018-09-07T06:36:14Z</time>
      </trkpt>
      <trkpt lat="46.312020" lon="13.395460">
        <ele>674.073</ele>
        <time>2018-09-07T06:36:15Z</time>
      </trkpt>
      <trkpt lat="46.312039" lon="13.395466">
        <ele>674.524</ele>
        <time>2018-09-07T06:36:16Z</time>
      </trkpt>
      <trkpt lat="46.312056" lon="13.395468">
        <ele>674.572</ele>
        <time>2018-09-07T06:36:17Z</time>
      </trkpt>
      <trkpt lat="46.312243" lon="13.395464">
        <ele>678.819</ele>
        <time>2018-09-07T06:36:27Z</time>
      </trkpt>
      <trkpt lat="46.312263" lon="13.395472">
        <ele>679.352</ele>
        <time>2018-09-07T06:36:28Z</time>
      </trkpt>
      <trkpt lat="46.312282" lon="13.395479">
        <ele>679.791</ele>
        <time>2018-09-07T06:36:29Z</time>
      </trkpt>
      <trkpt lat="46.312297" lon="13.395481">
        <ele>680.281</ele>
        <time>2018-09-07T06:36:30Z</time>
      </trkpt>
      <trkpt lat="46.312312" lon="13.395479">
        <ele>680.219</ele>
        <time>2018-09-07T06:36:31Z</time>
      </trkpt>
      <trkpt lat="46.312329" lon="13.395484">
        <ele>680.708</ele>
        <time>2018-09-07T06:36:32Z</time>
      </trkpt>
      <trkpt lat="46.312348" lon="13.395490">
        <ele>680.733</ele>
        <time>2018-09-07T06:36:33Z</time>
      </trkpt>
      <trkpt lat="46.312564" lon="13.395417">
        <ele>684.695</ele>
        <time>2018-09-07T06:36:45Z</time>
      </trkpt>
      <trkpt lat="46.312578" lon="13.395414">
        <ele>684.631</ele>
        <time>2018-09-07T06:36:46Z</time>
      </trkpt>
      <trkpt lat="46.312587" lon="13.395401">
        <ele>684.168</ele>
        <time>2018-09-07T06:36:47Z</time>
      </trkpt>
      <trkpt lat="46.312594" lon="13.395382">
        <ele>684.129</ele>
        <time>2018-09-07T06:36:48Z</time>
      </trkpt>
      <trkpt lat="46.312601" lon="13.395362">
        <ele>683.687</ele>
        <time>2018-09-07T06:36:49Z</time>
      </trkpt>
      <trkpt lat="46.312726" lon="13.395034">
        <ele>679.354</ele>
        <time>2018-09-07T06:37:02Z</time>
      </trkpt>
      <trkpt lat="46.312900" lon="13.394679">
        <ele>675.487</ele>
        <time>2018-09-07T06:37:16Z</time>
      </trkpt>
      <trkpt lat="46.313075" lon="13.394192">
        <ele>671.169</ele>
        <time>2018-09-07T06:37:33Z</time>
      </trkpt>
      <trkpt lat="46.313289" lon="13.393858">
        <ele>669.704</ele>
        <time>2018-09-07T06:37:48Z</time>
      </trkpt>
      <trkpt lat="46.313631" lon="13.393540">
        <ele>674.524</ele>
        <time>2018-09-07T06:38:07Z</time>
      </trkpt>
      <trkpt lat="46.313936" lon="13.393280">
        <ele>677.308</ele>
        <time>2018-09-07T06:38:25Z</time>
      </trkpt>
      <trkpt lat="46.314296" lon="13.393511">
        <ele>676.490</ele>
        <time>2018-09-07T06:38:42Z</time>
      </trkpt>
      <trkpt lat="46.314628" lon="13.393432">
        <ele>679.332</ele>
        <time>2018-09-07T06:38:55Z</time>
      </trkpt>
      <trkpt lat="46.314683" lon="13.393037">
        <ele>679.348</ele>
        <time>2018-09-07T06:39:07Z</time>
      </trkpt>
      <trkpt lat="46.314467" lon="13.392587">
        <ele>684.695</ele>
        <time>2018-09-07T06:39:23Z</time>
      </trkpt>
      <trkpt lat="46.314477" lon="13.392561">
        <ele>685.046</ele>
        <time>2018-09-07T06:39:36Z</time>
      </trkpt>
      <trkpt lat="46.314505" lon="13.392571">
        <ele>685.024</ele>
        <time>2018-09-07T06:39:38Z</time>
      </trkpt>
      <trkpt lat="46.314521" lon="13.392575">
        <ele>685.081</ele>
        <time>2018-09-07T06:39:39Z</time>
      </trkpt>
      <trkpt lat="46.314538" lon="13.392576">
        <ele>685.054</ele>
        <time>2018-09-07T06:39:40Z</time>
      </trkpt>
      <trkpt lat="46.314559" lon="13.392573">
        <ele>685.014</ele>
        <time>2018-09-07T06:39:41Z</time>
      </trkpt>
      <trkpt lat="46.314583" lon="13.392562">
        <ele>685.554</ele>
        <time>2018-09-07T06:39:42Z</time>
      </trkpt>
      <trkpt lat="46.314608" lon="13.392548">
        <ele>685.509</ele>
        <time>2018-09-07T06:39:43Z</time>
      </trkpt>
      <trkpt lat="46.314758" lon="13.392509">
        <ele>686.008</ele>
        <time>2018-09-07T06:39:51Z</time>
      </trkpt>
      <trkpt lat="46.314774" lon="13.392512">
        <ele>686.515</ele>
        <time>2018-09-07T06:39:52Z</time>
      </trkpt>
      <trkpt lat="46.314793" lon="13.392514">
        <ele>686.547</ele>
        <time>2018-09-07T06:39:53Z</time>
      </trkpt>
      <trkpt lat="46.314811" lon="13.392516">
        <ele>687.023</ele>
        <time>2018-09-07T06:39:54Z</time>
      </trkpt>
      <trkpt lat="46.314829" lon="13.392509">
        <ele>687.440</ele>
        <time>2018-09-07T06:39:55Z</time>
      </trkpt>
      <trkpt lat="46.314843" lon="13.392495">
        <ele>687.451</ele>
        <time>2018-09-07T06:39:56Z</time>
      </trkpt>
      <trkpt lat="46.314861" lon="13.392484">
        <ele>687.929</ele>
        <time>2018-09-07T06:39:57Z</time>
      </trkpt>
      <trkpt lat="46.314880" lon="13.392473">
        <ele>687.986</ele>
        <time>2018-09-07T06:39:58Z</time>
      </trkpt>
      <trkpt lat="46.315124" lon="13.392279">
        <ele>690.829</ele>
        <time>2018-09-07T06:40:11Z</time>
      </trkpt>
      <trkpt lat="46.315144" lon="13.392263">
        <ele>690.888</ele>
        <time>2018-09-07T06:40:12Z</time>
      </trkpt>
      <trkpt lat="46.315157" lon="13.392250">
        <ele>691.324</ele>
        <time>2018-09-07T06:40:13Z</time>
      </trkpt>
      <trkpt lat="46.315376" lon="13.392118">
        <ele>694.226</ele>
        <time>2018-09-07T06:40:26Z</time>
      </trkpt>
      <trkpt lat="46.315641" lon="13.392003">
        <ele>701.908</ele>
        <time>2018-09-07T06:40:40Z</time>
      </trkpt>
      <trkpt lat="46.315945" lon="13.391881">
        <ele>706.742</ele>
        <time>2018-09-07T06:40:54Z</time>
      </trkpt>
      <trkpt lat="46.316225" lon="13.391900">
        <ele>710.574</ele>
        <time>2018-09-07T06:41:07Z</time>
      </trkpt>
      <trkpt lat="46.316485" lon="13.391806">
        <ele>717.770</ele>
        <time>2018-09-07T06:41:20Z</time>
      </trkpt>
      <trkpt lat="46.316780" lon="13.391611">
        <ele>720.667</ele>
        <time>2018-09-07T06:41:35Z</time>
      </trkpt>
      <trkpt lat="46.316995" lon="13.391300">
        <ele>717.248</ele>
        <time>2018-09-07T06:41:50Z</time>
      </trkpt>
      <trkpt lat="46.317253" lon="13.391016">
        <ele>717.236</ele>
        <time>2018-09-07T06:42:05Z</time>
      </trkpt>
      <trkpt lat="46.317587" lon="13.390885">
        <ele>719.223</ele>
        <time>2018-09-07T06:42:21Z</time>
      </trkpt>
      <trkpt lat="46.317915" lon="13.390831">
        <ele>723.026</ele>
        <time>2018-09-07T06:42:38Z</time>
      </trkpt>
      <trkpt lat="46.318000" lon="13.390824">
        <ele>724.072</ele>
        <time>2018-09-07T06:42:49Z</time>
      </trkpt>
      <trkpt lat="46.318032" lon="13.390816">
        <ele>725.913</ele>
        <time>2018-09-07T06:43:09Z</time>
      </trkpt>
      <trkpt lat="46.318033" lon="13.390845">
        <ele>719.214</ele>
        <time>2018-09-07T06:43:38Z</time>
      </trkpt>
      <trkpt lat="46.318036" lon="13.390835">
        <ele>716.308</ele>
        <time>2018-09-07T06:44:12Z</time>
      </trkpt>
      <trkpt lat="46.318077" lon="13.390824">
        <ele>716.891</ele>
        <time>2018-09-07T06:44:33Z</time>
      </trkpt>
      <trkpt lat="46.318222" lon="13.390835">
        <ele>721.113</ele>
        <time>2018-09-07T06:44:45Z</time>
      </trkpt>
      <trkpt lat="46.318568" lon="13.390770">
        <ele>726.479</ele>
        <time>2018-09-07T06:45:01Z</time>
      </trkpt>
      <trkpt lat="46.318874" lon="13.390724">
        <ele>732.696</ele>
        <time>2018-09-07T06:45:15Z</time>
      </trkpt>
      <trkpt lat="46.319206" lon="13.390740">
        <ele>735.587</ele>
        <time>2018-09-07T06:45:27Z</time>
      </trkpt>
      <trkpt lat="46.319355" lon="13.390501">
        <ele>733.115</ele>
        <time>2018-09-07T06:45:35Z</time>
      </trkpt>
      <trkpt lat="46.319367" lon="13.390464">
        <ele>733.112</ele>
        <time>2018-09-07T06:45:36Z</time>
      </trkpt>
      <trkpt lat="46.319628" lon="13.390051">
        <ele>733.135</ele>
        <time>2018-09-07T06:45:50Z</time>
      </trkpt>
      <trkpt lat="46.319845" lon="13.389756">
        <ele>732.685</ele>
        <time>2018-09-07T06:46:01Z</time>
      </trkpt>
      <trkpt lat="46.319860" lon="13.389725">
        <ele>732.689</ele>
        <time>2018-09-07T06:46:02Z</time>
      </trkpt>
      <trkpt lat="46.320139" lon="13.389276">
        <ele>734.517</ele>
        <time>2018-09-07T06:46:18Z</time>
      </trkpt>
      <trkpt lat="46.320310" lon="13.389269">
        <ele>737.908</ele>
        <time>2018-09-07T06:46:25Z</time>
      </trkpt>
      <trkpt lat="46.320334" lon="13.389254">
        <ele>738.972</ele>
        <time>2018-09-07T06:46:26Z</time>
      </trkpt>
      <trkpt lat="46.320354" lon="13.389233">
        <ele>739.344</ele>
        <time>2018-09-07T06:46:27Z</time>
      </trkpt>
      <trkpt lat="46.320372" lon="13.389205">
        <ele>739.870</ele>
        <time>2018-09-07T06:46:28Z</time>
      </trkpt>
      <trkpt lat="46.320388" lon="13.389174">
        <ele>740.377</ele>
        <time>2018-09-07T06:46:29Z</time>
      </trkpt>
      <trkpt lat="46.320404" lon="13.389143">
        <ele>740.888</ele>
        <time>2018-09-07T06:46:30Z</time>
      </trkpt>
      <trkpt lat="46.320483" lon="13.388754">
        <ele>740.856</ele>
        <time>2018-09-07T06:46:41Z</time>
      </trkpt>
      <trkpt lat="46.320702" lon="13.388285">
        <ele>737.933</ele>
        <time>2018-09-07T06:46:55Z</time>
      </trkpt>
      <trkpt lat="46.320947" lon="13.387776">
        <ele>736.056</ele>
        <time>2018-09-07T06:47:10Z</time>
      </trkpt>
      <trkpt lat="46.320961" lon="13.387743">
        <ele>736.044</ele>
        <time>2018-09-07T06:47:11Z</time>
      </trkpt>
      <trkpt lat="46.320973" lon="13.387708">
        <ele>736.005</ele>
        <time>2018-09-07T06:47:12Z</time>
      </trkpt>
      <trkpt lat="46.320986" lon="13.387673">
        <ele>736.015</ele>
        <time>2018-09-07T06:47:13Z</time>
      </trkpt>
      <trkpt lat="46.320994" lon="13.387639">
        <ele>736.008</ele>
        <time>2018-09-07T06:47:14Z</time>
      </trkpt>
      <trkpt lat="46.320998" lon="13.387603">
        <ele>736.578</ele>
        <time>2018-09-07T06:47:15Z</time>
      </trkpt>
      <trkpt lat="46.321112" lon="13.387087">
        <ele>737.940</ele>
        <time>2018-09-07T06:47:28Z</time>
      </trkpt>
      <trkpt lat="46.321295" lon="13.386551">
        <ele>734.566</ele>
        <time>2018-09-07T06:47:39Z</time>
      </trkpt>
      <trkpt lat="46.321331" lon="13.386429">
        <ele>734.153</ele>
        <time>2018-09-07T06:47:41Z</time>
      </trkpt>
      <trkpt lat="46.321535" lon="13.386082">
        <ele>732.624</ele>
        <time>2018-09-07T06:47:51Z</time>
      </trkpt>
      <trkpt lat="46.321760" lon="13.385774">
        <ele>732.182</ele>
        <time>2018-09-07T06:48:04Z</time>
      </trkpt>
      <trkpt lat="46.321848" lon="13.385485">
        <ele>734.519</ele>
        <time>2018-09-07T06:48:13Z</time>
      </trkpt>
      <trkpt lat="46.321864" lon="13.385473">
        <ele>735.082</ele>
        <time>2018-09-07T06:48:14Z</time>
      </trkpt>
      <trkpt lat="46.321883" lon="13.385461">
        <ele>735.078</ele>
        <time>2018-09-07T06:48:15Z</time>
      </trkpt>
      <trkpt lat="46.321898" lon="13.385441">
        <ele>735.033</ele>
        <time>2018-09-07T06:48:16Z</time>
      </trkpt>
      <trkpt lat="46.321913" lon="13.385415">
        <ele>735.026</ele>
        <time>2018-09-07T06:48:17Z</time>
      </trkpt>
      <trkpt lat="46.322111" lon="13.385061">
        <ele>737.908</ele>
        <time>2018-09-07T06:48:30Z</time>
      </trkpt>
      <trkpt lat="46.322276" lon="13.384700">
        <ele>740.851</ele>
        <time>2018-09-07T06:48:41Z</time>
      </trkpt>
      <trkpt lat="46.322242" lon="13.384459">
        <ele>742.243</ele>
        <time>2018-09-07T06:48:47Z</time>
      </trkpt>
      <trkpt lat="46.322245" lon="13.384417">
        <ele>742.299</ele>
        <time>2018-09-07T06:48:48Z</time>
      </trkpt>
      <trkpt lat="46.322251" lon="13.384377">
        <ele>742.736</ele>
        <time>2018-09-07T06:48:49Z</time>
      </trkpt>
      <trkpt lat="46.322259" lon="13.384340">
        <ele>742.767</ele>
        <time>2018-09-07T06:48:50Z</time>
      </trkpt>
      <trkpt lat="46.322268" lon="13.384298">
        <ele>743.245</ele>
        <time>2018-09-07T06:48:51Z</time>
      </trkpt>
      <trkpt lat="46.322275" lon="13.384255">
        <ele>743.262</ele>
        <time>2018-09-07T06:48:52Z</time>
      </trkpt>
      <trkpt lat="46.322447" lon="13.383729">
        <ele>746.155</ele>
        <time>2018-09-07T06:49:07Z</time>
      </trkpt>
      <trkpt lat="46.322469" lon="13.383384">
        <ele>749.916</ele>
        <time>2018-09-07T06:49:18Z</time>
      </trkpt>
      <trkpt lat="46.322479" lon="13.382979">
        <ele>758.676</ele>
        <time>2018-09-07T06:49:32Z</time>
      </trkpt>
      <trkpt lat="46.322508" lon="13.382653">
        <ele>763.913</ele>
        <time>2018-09-07T06:49:44Z</time>
      </trkpt>
      <trkpt lat="46.322573" lon="13.382290">
        <ele>768.208</ele>
        <time>2018-09-07T06:49:56Z</time>
      </trkpt>
      <trkpt lat="46.322579" lon="13.381841">
        <ele>774.995</ele>
        <time>2018-09-07T06:50:11Z</time>
      </trkpt>
      <trkpt lat="46.322669" lon="13.381531">
        <ele>786.997</ele>
        <time>2018-09-07T06:50:24Z</time>
      </trkpt>
      <trkpt lat="46.322683" lon="13.381506">
        <ele>787.453</ele>
        <time>2018-09-07T06:50:25Z</time>
      </trkpt>
      <trkpt lat="46.322687" lon="13.381447">
        <ele>786.580</ele>
        <time>2018-09-07T06:50:26Z</time>
      </trkpt>
      <trkpt lat="46.322698" lon="13.381407">
        <ele>786.591</ele>
        <time>2018-09-07T06:50:27Z</time>
      </trkpt>
      <trkpt lat="46.322712" lon="13.381373">
        <ele>786.059</ele>
        <time>2018-09-07T06:50:28Z</time>
      </trkpt>
      <trkpt lat="46.322730" lon="13.381343">
        <ele>785.596</ele>
        <time>2018-09-07T06:50:29Z</time>
      </trkpt>
      <trkpt lat="46.322745" lon="13.381321">
        <ele>785.099</ele>
        <time>2018-09-07T06:50:30Z</time>
      </trkpt>
      <trkpt lat="46.322757" lon="13.381308">
        <ele>785.523</ele>
        <time>2018-09-07T06:50:31Z</time>
      </trkpt>
      <trkpt lat="46.322999" lon="13.381022">
        <ele>791.783</ele>
        <time>2018-09-07T06:50:42Z</time>
      </trkpt>
      <trkpt lat="46.322998" lon="13.380577">
        <ele>793.211</ele>
        <time>2018-09-07T06:50:50Z</time>
      </trkpt>
      <trkpt lat="46.322994" lon="13.380132">
        <ele>791.708</ele>
        <time>2018-09-07T06:51:02Z</time>
      </trkpt>
      <trkpt lat="46.323017" lon="13.379665">
        <ele>791.376</ele>
        <time>2018-09-07T06:51:15Z</time>
      </trkpt>
      <trkpt lat="46.323147" lon="13.379106">
        <ele>791.328</ele>
        <time>2018-09-07T06:51:32Z</time>
      </trkpt>
      <trkpt lat="46.323331" lon="13.378621">
        <ele>794.164</ele>
        <time>2018-09-07T06:51:49Z</time>
      </trkpt>
      <trkpt lat="46.323540" lon="13.378374">
        <ele>795.111</ele>
        <time>2018-09-07T06:52:01Z</time>
      </trkpt>
      <trkpt lat="46.323853" lon="13.378002">
        <ele>798.962</ele>
        <time>2018-09-07T06:52:17Z</time>
      </trkpt>
      <trkpt lat="46.324130" lon="13.377862">
        <ele>806.610</ele>
        <time>2018-09-07T06:52:29Z</time>
      </trkpt>
      <trkpt lat="46.324304" lon="13.377630">
        <ele>811.087</ele>
        <time>2018-09-07T06:52:40Z</time>
      </trkpt>
      <trkpt lat="46.324340" lon="13.377056">
        <ele>807.140</ele>
        <time>2018-09-07T06:52:59Z</time>
      </trkpt>
      <trkpt lat="46.324484" lon="13.376568">
        <ele>806.694</ele>
        <time>2018-09-07T06:53:13Z</time>
      </trkpt>
      <trkpt lat="46.324766" lon="13.376075">
        <ele>803.357</ele>
        <time>2018-09-07T06:53:29Z</time>
      </trkpt>
      <trkpt lat="46.324754" lon="13.375670">
        <ele>805.722</ele>
        <time>2018-09-07T06:53:40Z</time>
      </trkpt>
      <trkpt lat="46.324866" lon="13.375160">
        <ele>806.208</ele>
        <time>2018-09-07T06:53:55Z</time>
      </trkpt>
      <trkpt lat="46.325036" lon="13.374620">
        <ele>808.133</ele>
        <time>2018-09-07T06:54:10Z</time>
      </trkpt>
      <trkpt lat="46.325164" lon="13.374148">
        <ele>812.985</ele>
        <time>2018-09-07T06:54:25Z</time>
      </trkpt>
      <trkpt lat="46.325303" lon="13.373662">
        <ele>815.381</ele>
        <time>2018-09-07T06:54:41Z</time>
      </trkpt>
      <trkpt lat="46.325363" lon="13.373548">
        <ele>815.348</ele>
        <time>2018-09-07T06:54:45Z</time>
      </trkpt>
      <trkpt lat="46.325377" lon="13.373526">
        <ele>815.389</ele>
        <time>2018-09-07T06:54:46Z</time>
      </trkpt>
      <trkpt lat="46.325392" lon="13.373506">
        <ele>815.897</ele>
        <time>2018-09-07T06:54:47Z</time>
      </trkpt>
      <trkpt lat="46.325408" lon="13.373485">
        <ele>815.874</ele>
        <time>2018-09-07T06:54:48Z</time>
      </trkpt>
      <trkpt lat="46.325422" lon="13.373460">
        <ele>815.857</ele>
        <time>2018-09-07T06:54:49Z</time>
      </trkpt>
      <trkpt lat="46.325605" lon="13.373039">
        <ele>815.364</ele>
        <time>2018-09-07T06:55:04Z</time>
      </trkpt>
      <trkpt lat="46.325780" lon="13.372706">
        <ele>818.706</ele>
        <time>2018-09-07T06:55:17Z</time>
      </trkpt>
      <trkpt lat="46.326033" lon="13.372332">
        <ele>821.516</ele>
        <time>2018-09-07T06:55:32Z</time>
      </trkpt>
      <trkpt lat="46.326236" lon="13.372075">
        <ele>824.408</ele>
        <time>2018-09-07T06:55:44Z</time>
      </trkpt>
      <trkpt lat="46.326401" lon="13.371736">
        <ele>824.490</ele>
        <time>2018-09-07T06:55:58Z</time>
      </trkpt>
      <trkpt lat="46.326412" lon="13.371714">
        <ele>824.412</ele>
        <time>2018-09-07T06:55:59Z</time>
      </trkpt>
      <trkpt lat="46.326569" lon="13.371374">
        <ele>825.418</ele>
        <time>2018-09-07T06:56:13Z</time>
      </trkpt>
      <trkpt lat="46.326686" lon="13.371064">
        <ele>829.265</ele>
        <time>2018-09-07T06:56:25Z</time>
      </trkpt>
      <trkpt lat="46.326908" lon="13.370632">
        <ele>833.686</ele>
        <time>2018-09-07T06:56:40Z</time>
      </trkpt>
      <trkpt lat="46.327107" lon="13.370194">
        <ele>836.994</ele>
        <time>2018-09-07T06:56:54Z</time>
      </trkpt>
      <trkpt lat="46.327239" lon="13.369781">
        <ele>839.881</ele>
        <time>2018-09-07T06:57:09Z</time>
      </trkpt>
      <trkpt lat="46.327448" lon="13.369403">
        <ele>841.724</ele>
        <time>2018-09-07T06:57:23Z</time>
      </trkpt>
      <trkpt lat="46.327577" lon="13.369127">
        <ele>846.171</ele>
        <time>2018-09-07T06:57:35Z</time>
      </trkpt>
      <trkpt lat="46.327552" lon="13.369036">
        <ele>848.941</ele>
        <time>2018-09-07T06:57:39Z</time>
      </trkpt>
      <trkpt lat="46.327552" lon="13.369015">
        <ele>849.915</ele>
        <time>2018-09-07T06:57:40Z</time>
      </trkpt>
      <trkpt lat="46.327680" lon="13.368678">
        <ele>852.808</ele>
        <time>2018-09-07T06:57:53Z</time>
      </trkpt>
      <trkpt lat="46.327796" lon="13.368310">
        <ele>853.311</ele>
        <time>2018-09-07T06:58:06Z</time>
      </trkpt>
      <trkpt lat="46.328024" lon="13.367916">
        <ele>852.833</ele>
        <time>2018-09-07T06:58:20Z</time>
      </trkpt>
      <trkpt lat="46.328209" lon="13.367547">
        <ele>857.659</ele>
        <time>2018-09-07T06:58:32Z</time>
      </trkpt>
      <trkpt lat="46.327980" lon="13.367236">
        <ele>860.526</ele>
        <time>2018-09-07T06:58:42Z</time>
      </trkpt>
      <trkpt lat="46.327841" lon="13.367151">
        <ele>863.887</ele>
        <time>2018-09-07T06:58:47Z</time>
      </trkpt>
      <trkpt lat="46.327832" lon="13.367111">
        <ele>864.325</ele>
        <time>2018-09-07T06:58:48Z</time>
      </trkpt>
      <trkpt lat="46.327834" lon="13.367066">
        <ele>864.882</ele>
        <time>2018-09-07T06:58:49Z</time>
      </trkpt>
      <trkpt lat="46.327844" lon="13.367022">
        <ele>864.865</ele>
        <time>2018-09-07T06:58:50Z</time>
      </trkpt>
      <trkpt lat="46.327860" lon="13.366980">
        <ele>865.351</ele>
        <time>2018-09-07T06:58:51Z</time>
      </trkpt>
      <trkpt lat="46.327878" lon="13.366941">
        <ele>865.301</ele>
        <time>2018-09-07T06:58:52Z</time>
      </trkpt>
      <trkpt lat="46.327899" lon="13.366901">
        <ele>865.311</ele>
        <time>2018-09-07T06:58:53Z</time>
      </trkpt>
      <trkpt lat="46.328072" lon="13.366444">
        <ele>864.808</ele>
        <time>2018-09-07T06:59:05Z</time>
      </trkpt>
      <trkpt lat="46.328146" lon="13.365851">
        <ele>868.219</ele>
        <time>2018-09-07T06:59:17Z</time>
      </trkpt>
      <trkpt lat="46.328172" lon="13.365291">
        <ele>868.611</ele>
        <time>2018-09-07T06:59:29Z</time>
      </trkpt>
      <trkpt lat="46.328111" lon="13.364923">
        <ele>871.067</ele>
        <time>2018-09-07T06:59:39Z</time>
      </trkpt>
      <trkpt lat="46.328207" lon="13.364600">
        <ele>871.084</ele>
        <time>2018-09-07T06:59:50Z</time>
      </trkpt>
      <trkpt lat="46.328407" lon="13.364184">
        <ele>870.135</ele>
        <time>2018-09-07T07:00:05Z</time>
      </trkpt>
      <trkpt lat="46.328458" lon="13.364066">
        <ele>871.543</ele>
        <time>2018-09-07T07:00:09Z</time>
      </trkpt>
      <trkpt lat="46.328470" lon="13.364044">
        <ele>872.080</ele>
        <time>2018-09-07T07:00:10Z</time>
      </trkpt>
      <trkpt lat="46.328480" lon="13.364021">
        <ele>872.553</ele>
        <time>2018-09-07T07:00:11Z</time>
      </trkpt>
      <trkpt lat="46.328485" lon="13.363994">
        <ele>873.068</ele>
        <time>2018-09-07T07:00:12Z</time>
      </trkpt>
      <trkpt lat="46.328488" lon="13.363969">
        <ele>873.542</ele>
        <time>2018-09-07T07:00:13Z</time>
      </trkpt>
      <trkpt lat="46.328494" lon="13.363940">
        <ele>873.926</ele>
        <time>2018-09-07T07:00:14Z</time>
      </trkpt>
      <trkpt lat="46.328559" lon="13.363569">
        <ele>876.808</ele>
        <time>2018-09-07T07:00:21Z</time>
      </trkpt>
      <trkpt lat="46.328552" lon="13.363512">
        <ele>876.890</ele>
        <time>2018-09-07T07:00:22Z</time>
      </trkpt>
      <trkpt lat="46.328535" lon="13.363461">
        <ele>877.342</ele>
        <time>2018-09-07T07:00:23Z</time>
      </trkpt>
      <trkpt lat="46.328299" lon="13.363127">
        <ele>882.698</ele>
        <time>2018-09-07T07:00:33Z</time>
      </trkpt>
      <trkpt lat="46.328297" lon="13.362689">
        <ele>885.975</ele>
        <time>2018-09-07T07:00:44Z</time>
      </trkpt>
      <trkpt lat="46.328351" lon="13.362061">
        <ele>886.426</ele>
        <time>2018-09-07T07:01:00Z</time>
      </trkpt>
      <trkpt lat="46.328503" lon="13.361618">
        <ele>884.524</ele>
        <time>2018-09-07T07:01:14Z</time>
      </trkpt>
      <trkpt lat="46.328535" lon="13.361121">
        <ele>890.811</ele>
        <time>2018-09-07T07:01:31Z</time>
      </trkpt>
      <trkpt lat="46.328646" lon="13.360729">
        <ele>892.294</ele>
        <time>2018-09-07T07:01:45Z</time>
      </trkpt>
      <trkpt lat="46.328601" lon="13.360334">
        <ele>895.145</ele>
        <time>2018-09-07T07:01:59Z</time>
      </trkpt>
      <trkpt lat="46.328566" lon="13.359975">
        <ele>899.447</ele>
        <time>2018-09-07T07:02:12Z</time>
      </trkpt>
      <trkpt lat="46.328667" lon="13.359632">
        <ele>899.911</ele>
        <time>2018-09-07T07:02:26Z</time>
      </trkpt>
      <trkpt lat="46.328670" lon="13.359611">
        <ele>900.408</ele>
        <time>2018-09-07T07:02:27Z</time>
      </trkpt>
      <trkpt lat="46.328673" lon="13.359590">
        <ele>901.378</ele>
        <time>2018-09-07T07:02:28Z</time>
      </trkpt>
      <trkpt lat="46.328676" lon="13.359567">
        <ele>902.330</ele>
        <time>2018-09-07T07:02:29Z</time>
      </trkpt>
      <trkpt lat="46.328677" lon="13.359547">
        <ele>902.836</ele>
        <time>2018-09-07T07:02:30Z</time>
      </trkpt>
      <trkpt lat="46.328680" lon="13.359526">
        <ele>903.773</ele>
        <time>2018-09-07T07:02:31Z</time>
      </trkpt>
      <trkpt lat="46.328684" lon="13.359504">
        <ele>904.294</ele>
        <time>2018-09-07T07:02:32Z</time>
      </trkpt>
      <trkpt lat="46.328685" lon="13.359479">
        <ele>905.292</ele>
        <time>2018-09-07T07:02:33Z</time>
      </trkpt>
      <trkpt lat="46.328687" lon="13.359454">
        <ele>905.779</ele>
        <time>2018-09-07T07:02:34Z</time>
      </trkpt>
      <trkpt lat="46.328688" lon="13.359428">
        <ele>906.632</ele>
        <time>2018-09-07T07:02:35Z</time>
      </trkpt>
      <trkpt lat="46.328688" lon="13.359401">
        <ele>907.121</ele>
        <time>2018-09-07T07:02:36Z</time>
      </trkpt>
      <trkpt lat="46.328686" lon="13.359373">
        <ele>907.641</ele>
        <time>2018-09-07T07:02:37Z</time>
      </trkpt>
      <trkpt lat="46.328684" lon="13.359345">
        <ele>908.105</ele>
        <time>2018-09-07T07:02:38Z</time>
      </trkpt>
      <trkpt lat="46.328599" lon="13.358942">
        <ele>910.908</ele>
        <time>2018-09-07T07:02:51Z</time>
      </trkpt>
      <trkpt lat="46.328789" lon="13.358624">
        <ele>908.566</ele>
        <time>2018-09-07T07:03:04Z</time>
      </trkpt>
      <trkpt lat="46.328854" lon="13.358489">
        <ele>908.528</ele>
        <time>2018-09-07T07:03:09Z</time>
      </trkpt>
      <trkpt lat="46.328756" lon="13.358228">
        <ele>909.574</ele>
        <time>2018-09-07T07:03:20Z</time>
      </trkpt>
      <trkpt lat="46.328750" lon="13.357803">
        <ele>911.921</ele>
        <time>2018-09-07T07:03:34Z</time>
      </trkpt>
      <trkpt lat="46.328823" lon="13.357435">
        <ele>913.872</ele>
        <time>2018-09-07T07:03:47Z</time>
      </trkpt>
      <trkpt lat="46.328874" lon="13.357156">
        <ele>919.140</ele>
        <time>2018-09-07T07:03:58Z</time>
      </trkpt>
      <trkpt lat="46.328886" lon="13.356984">
        <ele>923.987</ele>
        <time>2018-09-07T07:04:05Z</time>
      </trkpt>
      <trkpt lat="46.328899" lon="13.356962">
        <ele>924.490</ele>
        <time>2018-09-07T07:04:06Z</time>
      </trkpt>
      <trkpt lat="46.328914" lon="13.356940">
        <ele>924.459</ele>
        <time>2018-09-07T07:04:07Z</time>
      </trkpt>
      <trkpt lat="46.328930" lon="13.356920">
        <ele>924.903</ele>
        <time>2018-09-07T07:04:08Z</time>
      </trkpt>
      <trkpt lat="46.328945" lon="13.356902">
        <ele>924.923</ele>
        <time>2018-09-07T07:04:09Z</time>
      </trkpt>
      <trkpt lat="46.328961" lon="13.356886">
        <ele>924.908</ele>
        <time>2018-09-07T07:04:10Z</time>
      </trkpt>
      <trkpt lat="46.328990" lon="13.356716">
        <ele>923.049</ele>
        <time>2018-09-07T07:04:15Z</time>
      </trkpt>
      <trkpt lat="46.329102" lon="13.356283">
        <ele>921.081</ele>
        <time>2018-09-07T07:04:28Z</time>
      </trkpt>
      <trkpt lat="46.329107" lon="13.355902">
        <ele>924.927</ele>
        <time>2018-09-07T07:04:42Z</time>
      </trkpt>
      <trkpt lat="46.329078" lon="13.355561">
        <ele>929.244</ele>
        <time>2018-09-07T07:04:54Z</time>
      </trkpt>
      <trkpt lat="46.329113" lon="13.355426">
        <ele>930.645</ele>
        <time>2018-09-07T07:04:59Z</time>
      </trkpt>
      <trkpt lat="46.329128" lon="13.355406">
        <ele>930.663</ele>
        <time>2018-09-07T07:05:00Z</time>
      </trkpt>
      <trkpt lat="46.329140" lon="13.355383">
        <ele>930.280</ele>
        <time>2018-09-07T07:05:01Z</time>
      </trkpt>
      <trkpt lat="46.329189" lon="13.355258">
        <ele>929.223</ele>
        <time>2018-09-07T07:05:06Z</time>
      </trkpt>
      <trkpt lat="46.329197" lon="13.355231">
        <ele>928.717</ele>
        <time>2018-09-07T07:05:07Z</time>
      </trkpt>
      <trkpt lat="46.329330" lon="13.354869">
        <ele>927.387</ele>
        <time>2018-09-07T07:05:21Z</time>
      </trkpt>
      <trkpt lat="46.329333" lon="13.354839">
        <ele>927.315</ele>
        <time>2018-09-07T07:05:22Z</time>
      </trkpt>
      <trkpt lat="46.329327" lon="13.354810">
        <ele>927.308</ele>
        <time>2018-09-07T07:05:23Z</time>
      </trkpt>
      <trkpt lat="46.329318" lon="13.354783">
        <ele>927.345</ele>
        <time>2018-09-07T07:05:24Z</time>
      </trkpt>
      <trkpt lat="46.329307" lon="13.354761">
        <ele>927.867</ele>
        <time>2018-09-07T07:05:25Z</time>
      </trkpt>
      <trkpt lat="46.329291" lon="13.354744">
        <ele>927.823</ele>
        <time>2018-09-07T07:05:26Z</time>
      </trkpt>
      <trkpt lat="46.329273" lon="13.354726">
        <ele>927.860</ele>
        <time>2018-09-07T07:05:27Z</time>
      </trkpt>
      <trkpt lat="46.329090" lon="13.354417">
        <ele>928.741</ele>
        <time>2018-09-07T07:05:41Z</time>
      </trkpt>
      <trkpt lat="46.329089" lon="13.354049">
        <ele>934.549</ele>
        <time>2018-09-07T07:05:54Z</time>
      </trkpt>
      <trkpt lat="46.329069" lon="13.353777">
        <ele>938.836</ele>
        <time>2018-09-07T07:06:02Z</time>
      </trkpt>
      <trkpt lat="46.329077" lon="13.353746">
        <ele>939.319</ele>
        <time>2018-09-07T07:06:03Z</time>
      </trkpt>
      <trkpt lat="46.329085" lon="13.353712">
        <ele>939.315</ele>
        <time>2018-09-07T07:06:04Z</time>
      </trkpt>
      <trkpt lat="46.329325" lon="13.353237">
        <ele>934.565</ele>
        <time>2018-09-07T07:06:19Z</time>
      </trkpt>
      <trkpt lat="46.329548" lon="13.352745">
        <ele>935.511</ele>
        <time>2018-09-07T07:06:31Z</time>
      </trkpt>
      <trkpt lat="46.329546" lon="13.352455">
        <ele>935.908</ele>
        <time>2018-09-07T07:06:36Z</time>
      </trkpt>
      <trkpt lat="46.329559" lon="13.352397">
        <ele>935.955</ele>
        <time>2018-09-07T07:06:37Z</time>
      </trkpt>
      <trkpt lat="46.329579" lon="13.352347">
        <ele>935.977</ele>
        <time>2018-09-07T07:06:38Z</time>
      </trkpt>
      <trkpt lat="46.329607" lon="13.352304">
        <ele>935.993</ele>
        <time>2018-09-07T07:06:39Z</time>
      </trkpt>
      <trkpt lat="46.329638" lon="13.352265">
        <ele>935.980</ele>
        <time>2018-09-07T07:06:40Z</time>
      </trkpt>
      <trkpt lat="46.329673" lon="13.352233">
        <ele>935.981</ele>
        <time>2018-09-07T07:06:41Z</time>
      </trkpt>
      <trkpt lat="46.329712" lon="13.352214">
        <ele>935.959</ele>
        <time>2018-09-07T07:06:42Z</time>
      </trkpt>
      <trkpt lat="46.329753" lon="13.352201">
        <ele>935.916</ele>
        <time>2018-09-07T07:06:43Z</time>
      </trkpt>
      <trkpt lat="46.330055" lon="13.352005">
        <ele>937.479</ele>
        <time>2018-09-07T07:06:52Z</time>
      </trkpt>
      <trkpt lat="46.330065" lon="13.351947">
        <ele>937.455</ele>
        <time>2018-09-07T07:06:53Z</time>
      </trkpt>
      <trkpt lat="46.330065" lon="13.351885">
        <ele>937.407</ele>
        <time>2018-09-07T07:06:54Z</time>
      </trkpt>
      <trkpt lat="46.330057" lon="13.351822">
        <ele>937.917</ele>
        <time>2018-09-07T07:06:55Z</time>
      </trkpt>
      <trkpt lat="46.330047" lon="13.351767">
        <ele>937.908</ele>
        <time>2018-09-07T07:06:56Z</time>
      </trkpt>
      <trkpt lat="46.330040" lon="13.351273">
        <ele>937.979</ele>
        <time>2018-09-07T07:07:05Z</time>
      </trkpt>
      <trkpt lat="46.330061" lon="13.351225">
        <ele>937.921</ele>
        <time>2018-09-07T07:07:06Z</time>
      </trkpt>
      <trkpt lat="46.330084" lon="13.351169">
        <ele>937.917</ele>
        <time>2018-09-07T07:07:07Z</time>
      </trkpt>
      <trkpt lat="46.330102" lon="13.351114">
        <ele>937.414</ele>
        <time>2018-09-07T07:07:08Z</time>
      </trkpt>
      <trkpt lat="46.330117" lon="13.351052">
        <ele>937.485</ele>
        <time>2018-09-07T07:07:09Z</time>
      </trkpt>
      <trkpt lat="46.330123" lon="13.350992">
        <ele>936.973</ele>
        <time>2018-09-07T07:07:10Z</time>
      </trkpt>
      <trkpt lat="46.330118" lon="13.350935">
        <ele>936.940</ele>
        <time>2018-09-07T07:07:11Z</time>
      </trkpt>
      <trkpt lat="46.330101" lon="13.350879">
        <ele>936.963</ele>
        <time>2018-09-07T07:07:12Z</time>
      </trkpt>
      <trkpt lat="46.330076" lon="13.350824">
        <ele>936.957</ele>
        <time>2018-09-07T07:07:13Z</time>
      </trkpt>
      <trkpt lat="46.330047" lon="13.350783">
        <ele>936.900</ele>
        <time>2018-09-07T07:07:14Z</time>
      </trkpt>
      <trkpt lat="46.330011" lon="13.350752">
        <ele>936.920</ele>
        <time>2018-09-07T07:07:15Z</time>
      </trkpt>
      <trkpt lat="46.329968" lon="13.350735">
        <ele>936.908</ele>
        <time>2018-09-07T07:07:16Z</time>
      </trkpt>
      <trkpt lat="46.329928" lon="13.350732">
        <ele>936.999</ele>
        <time>2018-09-07T07:07:17Z</time>
      </trkpt>
      <trkpt lat="46.329889" lon="13.350741">
        <ele>936.461</ele>
        <time>2018-09-07T07:07:18Z</time>
      </trkpt>
      <trkpt lat="46.329848" lon="13.350755">
        <ele>936.427</ele>
        <time>2018-09-07T07:07:19Z</time>
      </trkpt>
      <trkpt lat="46.329329" lon="13.350826">
        <ele>932.124</ele>
        <time>2018-09-07T07:07:34Z</time>
      </trkpt>
      <trkpt lat="46.329300" lon="13.350549">
        <ele>934.065</ele>
        <time>2018-09-07T07:07:44Z</time>
      </trkpt>
      <trkpt lat="46.329295" lon="13.350328">
        <ele>935.043</ele>
        <time>2018-09-07T07:07:52Z</time>
      </trkpt>
      <trkpt lat="46.329299" lon="13.350304">
        <ele>935.560</ele>
        <time>2018-09-07T07:07:53Z</time>
      </trkpt>
      <trkpt lat="46.329304" lon="13.350282">
        <ele>936.493</ele>
        <time>2018-09-07T07:07:54Z</time>
      </trkpt>
      <trkpt lat="46.329312" lon="13.350226">
        <ele>938.327</ele>
        <time>2018-09-07T07:07:58Z</time>
      </trkpt>
      <trkpt lat="46.329313" lon="13.350202">
        <ele>938.868</ele>
        <time>2018-09-07T07:07:59Z</time>
      </trkpt>
      <trkpt lat="46.329316" lon="13.350180">
        <ele>939.314</ele>
        <time>2018-09-07T07:08:00Z</time>
      </trkpt>
      <trkpt lat="46.329435" lon="13.349846">
        <ele>945.508</ele>
        <time>2018-09-07T07:08:16Z</time>
      </trkpt>
      <trkpt lat="46.329466" lon="13.349768">
        <ele>946.566</ele>
        <time>2018-09-07T07:08:19Z</time>
      </trkpt>
      <trkpt lat="46.329474" lon="13.349741">
        <ele>947.518</ele>
        <time>2018-09-07T07:08:20Z</time>
      </trkpt>
      <trkpt lat="46.329484" lon="13.349717">
        <ele>948.094</ele>
        <time>2018-09-07T07:08:21Z</time>
      </trkpt>
      <trkpt lat="46.329492" lon="13.349695">
        <ele>948.471</ele>
        <time>2018-09-07T07:08:22Z</time>
      </trkpt>
      <trkpt lat="46.329498" lon="13.349675">
        <ele>948.432</ele>
        <time>2018-09-07T07:08:23Z</time>
      </trkpt>
      <trkpt lat="46.329500" lon="13.349656">
        <ele>948.420</ele>
        <time>2018-09-07T07:08:24Z</time>
      </trkpt>
      <trkpt lat="46.329500" lon="13.349628">
        <ele>948.447</ele>
        <time>2018-09-07T07:08:25Z</time>
      </trkpt>
      <trkpt lat="46.329497" lon="13.349601">
        <ele>948.490</ele>
        <time>2018-09-07T07:08:26Z</time>
      </trkpt>
      <trkpt lat="46.329494" lon="13.349572">
        <ele>948.488</ele>
        <time>2018-09-07T07:08:27Z</time>
      </trkpt>
      <trkpt lat="46.329488" lon="13.349539">
        <ele>948.424</ele>
        <time>2018-09-07T07:08:28Z</time>
      </trkpt>
      <trkpt lat="46.329479" lon="13.349501">
        <ele>948.426</ele>
        <time>2018-09-07T07:08:29Z</time>
      </trkpt>
      <trkpt lat="46.329473" lon="13.349469">
        <ele>948.908</ele>
        <time>2018-09-07T07:08:30Z</time>
      </trkpt>
      <trkpt lat="46.329468" lon="13.349437">
        <ele>948.992</ele>
        <time>2018-09-07T07:08:31Z</time>
      </trkpt>
      <trkpt lat="46.329439" lon="13.349122">
        <ele>954.724</ele>
        <time>2018-09-07T07:08:43Z</time>
      </trkpt>
      <trkpt lat="46.329530" lon="13.348823">
        <ele>961.980</ele>
        <time>2018-09-07T07:08:57Z</time>
      </trkpt>
      <trkpt lat="46.329619" lon="13.348419">
        <ele>961.987</ele>
        <time>2018-09-07T07:09:12Z</time>
      </trkpt>
      <trkpt lat="46.329741" lon="13.348203">
        <ele>962.428</ele>
        <time>2018-09-07T07:09:24Z</time>
      </trkpt>
      <trkpt lat="46.329881" lon="13.347925">
        <ele>964.396</ele>
        <time>2018-09-07T07:09:39Z</time>
      </trkpt>
      <trkpt lat="46.330084" lon="13.347594">
        <ele>966.263</ele>
        <time>2018-09-07T07:09:55Z</time>
      </trkpt>
      <trkpt lat="46.330200" lon="13.347262">
        <ele>971.036</ele>
        <time>2018-09-07T07:10:08Z</time>
      </trkpt>
      <trkpt lat="46.330195" lon="13.347244">
        <ele>971.527</ele>
        <time>2018-09-07T07:10:09Z</time>
      </trkpt>
      <trkpt lat="46.330190" lon="13.347226">
        <ele>972.068</ele>
        <time>2018-09-07T07:10:10Z</time>
      </trkpt>
      <trkpt lat="46.330187" lon="13.347206">
        <ele>972.014</ele>
        <time>2018-09-07T07:10:11Z</time>
      </trkpt>
      <trkpt lat="46.330188" lon="13.347191">
        <ele>972.508</ele>
        <time>2018-09-07T07:10:12Z</time>
      </trkpt>
      <trkpt lat="46.330190" lon="13.347173">
        <ele>972.976</ele>
        <time>2018-09-07T07:10:13Z</time>
      </trkpt>
      <trkpt lat="46.330191" lon="13.347154">
        <ele>973.448</ele>
        <time>2018-09-07T07:10:14Z</time>
      </trkpt>
      <trkpt lat="46.330195" lon="13.347132">
        <ele>973.434</ele>
        <time>2018-09-07T07:10:15Z</time>
      </trkpt>
      <trkpt lat="46.330381" lon="13.346834">
        <ele>973.411</ele>
        <time>2018-09-07T07:10:27Z</time>
      </trkpt>
      <trkpt lat="46.330552" lon="13.346737">
        <ele>975.392</ele>
        <time>2018-09-07T07:10:35Z</time>
      </trkpt>
      <trkpt lat="46.330568" lon="13.346729">
        <ele>975.370</ele>
        <time>2018-09-07T07:10:36Z</time>
      </trkpt>
      <trkpt lat="46.330586" lon="13.346716">
        <ele>975.887</ele>
        <time>2018-09-07T07:10:37Z</time>
      </trkpt>
      <trkpt lat="46.330603" lon="13.346702">
        <ele>975.820</ele>
        <time>2018-09-07T07:10:38Z</time>
      </trkpt>
      <trkpt lat="46.330619" lon="13.346683">
        <ele>975.882</ele>
        <time>2018-09-07T07:10:39Z</time>
      </trkpt>
      <trkpt lat="46.330731" lon="13.346333">
        <ele>977.843</ele>
        <time>2018-09-07T07:10:52Z</time>
      </trkpt>
      <trkpt lat="46.330615" lon="13.346026">
        <ele>979.217</ele>
        <time>2018-09-07T07:11:04Z</time>
      </trkpt>
      <trkpt lat="46.330612" lon="13.345997">
        <ele>979.708</ele>
        <time>2018-09-07T07:11:05Z</time>
      </trkpt>
      <trkpt lat="46.330612" lon="13.345969">
        <ele>979.772</ele>
        <time>2018-09-07T07:11:06Z</time>
      </trkpt>
      <trkpt lat="46.330617" lon="13.345936">
        <ele>980.254</ele>
        <time>2018-09-07T07:11:07Z</time>
      </trkpt>
      <trkpt lat="46.330627" lon="13.345907">
        <ele>980.260</ele>
        <time>2018-09-07T07:11:08Z</time>
      </trkpt>
      <trkpt lat="46.330642" lon="13.345881">
        <ele>980.227</ele>
        <time>2018-09-07T07:11:09Z</time>
      </trkpt>
      <trkpt lat="46.330658" lon="13.345862">
        <ele>980.288</ele>
        <time>2018-09-07T07:11:10Z</time>
      </trkpt>
      <trkpt lat="46.330676" lon="13.345839">
        <ele>980.266</ele>
        <time>2018-09-07T07:11:11Z</time>
      </trkpt>
      <trkpt lat="46.330692" lon="13.345816">
        <ele>979.793</ele>
        <time>2018-09-07T07:11:12Z</time>
      </trkpt>
      <trkpt lat="46.330954" lon="13.345568">
        <ele>979.766</ele>
        <time>2018-09-07T07:11:27Z</time>
      </trkpt>
      <trkpt lat="46.331019" lon="13.345235">
        <ele>980.235</ele>
        <time>2018-09-07T07:11:39Z</time>
      </trkpt>
      <trkpt lat="46.330924" lon="13.344826">
        <ele>982.686</ele>
        <time>2018-09-07T07:11:52Z</time>
      </trkpt>
      <trkpt lat="46.330997" lon="13.344539">
        <ele>987.414</ele>
        <time>2018-09-07T07:12:04Z</time>
      </trkpt>
      <trkpt lat="46.331090" lon="13.344235">
        <ele>990.308</ele>
        <time>2018-09-07T07:12:18Z</time>
      </trkpt>
      <trkpt lat="46.331063" lon="13.344036">
        <ele>992.237</ele>
        <time>2018-09-07T07:12:26Z</time>
      </trkpt>
      <trkpt lat="46.331175" lon="13.343658">
        <ele>995.169</ele>
        <time>2018-09-07T07:12:43Z</time>
      </trkpt>
      <trkpt lat="46.331394" lon="13.343467">
        <ele>997.585</ele>
        <time>2018-09-07T07:12:56Z</time>
      </trkpt>
      <trkpt lat="46.331469" lon="13.343324">
        <ele>997.952</ele>
        <time>2018-09-07T07:13:02Z</time>
      </trkpt>
      <trkpt lat="46.331468" lon="13.343292">
        <ele>997.953</ele>
        <time>2018-09-07T07:13:03Z</time>
      </trkpt>
      <trkpt lat="46.331462" lon="13.343259">
        <ele>997.911</ele>
        <time>2018-09-07T07:13:04Z</time>
      </trkpt>
      <trkpt lat="46.331455" lon="13.343231">
        <ele>998.488</ele>
        <time>2018-09-07T07:13:05Z</time>
      </trkpt>
      <trkpt lat="46.331444" lon="13.343206">
        <ele>998.971</ele>
        <time>2018-09-07T07:13:06Z</time>
      </trkpt>
      <trkpt lat="46.331430" lon="13.343181">
        <ele>998.933</ele>
        <time>2018-09-07T07:13:07Z</time>
      </trkpt>
      <trkpt lat="46.331414" lon="13.343156">
        <ele>998.923</ele>
        <time>2018-09-07T07:13:08Z</time>
      </trkpt>
      <trkpt lat="46.331394" lon="13.343131">
        <ele>999.415</ele>
        <time>2018-09-07T07:13:09Z</time>
      </trkpt>
      <trkpt lat="46.331219" lon="13.342811">
        <ele>1004.208</ele>
        <time>2018-09-07T07:13:23Z</time>
      </trkpt>
      <trkpt lat="46.331230" lon="13.342503">
        <ele>1010.017</ele>
        <time>2018-09-07T07:13:36Z</time>
      </trkpt>
      <trkpt lat="46.331269" lon="13.342225">
        <ele>1016.269</ele>
        <time>2018-09-07T07:13:48Z</time>
      </trkpt>
      <trkpt lat="46.331301" lon="13.341781">
        <ele>1015.225</ele>
        <time>2018-09-07T07:14:01Z</time>
      </trkpt>
      <trkpt lat="46.331363" lon="13.341367">
        <ele>1020.172</ele>
        <time>2018-09-07T07:14:16Z</time>
      </trkpt>
      <trkpt lat="46.331521" lon="13.341067">
        <ele>1017.223</ele>
        <time>2018-09-07T07:14:28Z</time>
      </trkpt>
      <trkpt lat="46.331680" lon="13.340875">
        <ele>1020.541</ele>
        <time>2018-09-07T07:14:41Z</time>
      </trkpt>
      <trkpt lat="46.331812" lon="13.340628">
        <ele>1023.948</ele>
        <time>2018-09-07T07:14:53Z</time>
      </trkpt>
      <trkpt lat="46.331661" lon="13.340283">
        <ele>1024.451</ele>
        <time>2018-09-07T07:15:07Z</time>
      </trkpt>
      <trkpt lat="46.331624" lon="13.340177">
        <ele>1024.459</ele>
        <time>2018-09-07T07:15:11Z</time>
      </trkpt>
      <trkpt lat="46.331626" lon="13.340146">
        <ele>1023.903</ele>
        <time>2018-09-07T07:15:12Z</time>
      </trkpt>
      <trkpt lat="46.331635" lon="13.340118">
        <ele>1023.923</ele>
        <time>2018-09-07T07:15:13Z</time>
      </trkpt>
      <trkpt lat="46.331649" lon="13.340090">
        <ele>1023.908</ele>
        <time>2018-09-07T07:15:14Z</time>
      </trkpt>
      <trkpt lat="46.331664" lon="13.340066">
        <ele>1024.439</ele>
        <time>2018-09-07T07:15:15Z</time>
      </trkpt>
      <trkpt lat="46.331959" lon="13.339745">
        <ele>1024.441</ele>
        <time>2018-09-07T07:15:32Z</time>
      </trkpt>
      <trkpt lat="46.331976" lon="13.339626">
        <ele>1024.417</ele>
        <time>2018-09-07T07:15:36Z</time>
      </trkpt>
      <trkpt lat="46.331968" lon="13.339591">
        <ele>1024.434</ele>
        <time>2018-09-07T07:15:37Z</time>
      </trkpt>
      <trkpt lat="46.331958" lon="13.339556">
        <ele>1024.945</ele>
        <time>2018-09-07T07:15:38Z</time>
      </trkpt>
      <trkpt lat="46.331944" lon="13.339522">
        <ele>1025.343</ele>
        <time>2018-09-07T07:15:39Z</time>
      </trkpt>
      <trkpt lat="46.331928" lon="13.339496">
        <ele>1025.380</ele>
        <time>2018-09-07T07:15:40Z</time>
      </trkpt>
      <trkpt lat="46.331912" lon="13.339474">
        <ele>1025.873</ele>
        <time>2018-09-07T07:15:41Z</time>
      </trkpt>
      <trkpt lat="46.331772" lon="13.339200">
        <ele>1028.736</ele>
        <time>2018-09-07T07:15:54Z</time>
      </trkpt>
      <trkpt lat="46.331779" lon="13.339175">
        <ele>1028.717</ele>
        <time>2018-09-07T07:15:55Z</time>
      </trkpt>
      <trkpt lat="46.331909" lon="13.338883">
        <ele>1031.618</ele>
        <time>2018-09-07T07:16:08Z</time>
      </trkpt>
      <trkpt lat="46.332047" lon="13.338639">
        <ele>1034.008</ele>
        <time>2018-09-07T07:16:20Z</time>
      </trkpt>
      <trkpt lat="46.332327" lon="13.338276">
        <ele>1033.577</ele>
        <time>2018-09-07T07:16:38Z</time>
      </trkpt>
      <trkpt lat="46.332500" lon="13.338134">
        <ele>1035.469</ele>
        <time>2018-09-07T07:16:49Z</time>
      </trkpt>
      <trkpt lat="46.332509" lon="13.338108">
        <ele>1035.475</ele>
        <time>2018-09-07T07:16:50Z</time>
      </trkpt>
      <trkpt lat="46.332518" lon="13.338084">
        <ele>1035.962</ele>
        <time>2018-09-07T07:16:51Z</time>
      </trkpt>
      <trkpt lat="46.332524" lon="13.338064">
        <ele>1036.483</ele>
        <time>2018-09-07T07:16:52Z</time>
      </trkpt>
      <trkpt lat="46.332523" lon="13.338046">
        <ele>1036.451</ele>
        <time>2018-09-07T07:16:53Z</time>
      </trkpt>
      <trkpt lat="46.332519" lon="13.338028">
        <ele>1036.998</ele>
        <time>2018-09-07T07:16:54Z</time>
      </trkpt>
      <trkpt lat="46.332516" lon="13.338005">
        <ele>1036.941</ele>
        <time>2018-09-07T07:16:55Z</time>
      </trkpt>
      <trkpt lat="46.332499" lon="13.337690">
        <ele>1041.718</ele>
        <time>2018-09-07T07:17:09Z</time>
      </trkpt>
      <trkpt lat="46.332564" lon="13.337472">
        <ele>1043.698</ele>
        <time>2018-09-07T07:17:19Z</time>
      </trkpt>
      <trkpt lat="46.332575" lon="13.337456">
        <ele>1044.117</ele>
        <time>2018-09-07T07:17:20Z</time>
      </trkpt>
      <trkpt lat="46.332786" lon="13.337139">
        <ele>1046.008</ele>
        <time>2018-09-07T07:17:38Z</time>
      </trkpt>
      <trkpt lat="46.332984" lon="13.336883">
        <ele>1048.495</ele>
        <time>2018-09-07T07:17:53Z</time>
      </trkpt>
      <trkpt lat="46.332958" lon="13.336522">
        <ele>1049.987</ele>
        <time>2018-09-07T07:18:05Z</time>
      </trkpt>
      <trkpt lat="46.332899" lon="13.336064">
        <ele>1051.893</ele>
        <time>2018-09-07T07:18:20Z</time>
      </trkpt>
      <trkpt lat="46.333169" lon="13.335792">
        <ele>1053.230</ele>
        <time>2018-09-07T07:18:34Z</time>
      </trkpt>
      <trkpt lat="46.333263" lon="13.335639">
        <ele>1052.731</ele>
        <time>2018-09-07T07:18:39Z</time>
      </trkpt>
      <trkpt lat="46.333268" lon="13.335597">
        <ele>1052.759</ele>
        <time>2018-09-07T07:18:40Z</time>
      </trkpt>
      <trkpt lat="46.333270" lon="13.335552">
        <ele>1052.746</ele>
        <time>2018-09-07T07:18:41Z</time>
      </trkpt>
      <trkpt lat="46.333266" lon="13.335510">
        <ele>1052.779</ele>
        <time>2018-09-07T07:18:42Z</time>
      </trkpt>
      <trkpt lat="46.333257" lon="13.335468">
        <ele>1052.775</ele>
        <time>2018-09-07T07:18:43Z</time>
      </trkpt>
      <trkpt lat="46.333246" lon="13.335424">
        <ele>1052.728</ele>
        <time>2018-09-07T07:18:44Z</time>
      </trkpt>
      <trkpt lat="46.333237" lon="13.335375">
        <ele>1052.720</ele>
        <time>2018-09-07T07:18:45Z</time>
      </trkpt>
      <trkpt lat="46.333313" lon="13.334861">
        <ele>1054.208</ele>
        <time>2018-09-07T07:18:56Z</time>
      </trkpt>
      <trkpt lat="46.333630" lon="13.334101">
        <ele>1055.681</ele>
        <time>2018-09-07T07:19:13Z</time>
      </trkpt>
      <trkpt lat="46.333894" lon="13.333330">
        <ele>1058.553</ele>
        <time>2018-09-07T07:19:32Z</time>
      </trkpt>
      <trkpt lat="46.333972" lon="13.332667">
        <ele>1059.989</ele>
        <time>2018-09-07T07:19:47Z</time>
      </trkpt>
      <trkpt lat="46.334157" lon="13.332167">
        <ele>1062.866</ele>
        <time>2018-09-07T07:20:01Z</time>
      </trkpt>
      <trkpt lat="46.334560" lon="13.331886">
        <ele>1067.647</ele>
        <time>2018-09-07T07:20:18Z</time>
      </trkpt>
      <trkpt lat="46.334839" lon="13.331551">
        <ele>1070.015</ele>
        <time>2018-09-07T07:20:33Z</time>
      </trkpt>
      <trkpt lat="46.335137" lon="13.331106">
        <ele>1071.062</ele>
        <time>2018-09-07T07:20:51Z</time>
      </trkpt>
      <trkpt lat="46.335362" lon="13.330721">
        <ele>1073.935</ele>
        <time>2018-09-07T07:21:05Z</time>
      </trkpt>
      <trkpt lat="46.335434" lon="13.330085">
        <ele>1074.853</ele>
        <time>2018-09-07T07:21:22Z</time>
      </trkpt>
      <trkpt lat="46.335547" lon="13.329336">
        <ele>1074.804</ele>
        <time>2018-09-07T07:21:39Z</time>
      </trkpt>
      <trkpt lat="46.335709" lon="13.328304">
        <ele>1074.814</ele>
        <time>2018-09-07T07:21:57Z</time>
      </trkpt>
      <trkpt lat="46.335743" lon="13.327194">
        <ele>1074.808</ele>
        <time>2018-09-07T07:22:13Z</time>
      </trkpt>
      <trkpt lat="46.335783" lon="13.326168">
        <ele>1075.379</ele>
        <time>2018-09-07T07:22:28Z</time>
      </trkpt>
      <trkpt lat="46.335765" lon="13.326105">
        <ele>1075.341</ele>
        <time>2018-09-07T07:22:29Z</time>
      </trkpt>
      <trkpt lat="46.335734" lon="13.326053">
        <ele>1075.387</ele>
        <time>2018-09-07T07:22:30Z</time>
      </trkpt>
      <trkpt lat="46.335695" lon="13.326009">
        <ele>1074.894</ele>
        <time>2018-09-07T07:22:31Z</time>
      </trkpt>
      <trkpt lat="46.335654" lon="13.325974">
        <ele>1074.835</ele>
        <time>2018-09-07T07:22:32Z</time>
      </trkpt>
      <trkpt lat="46.335616" lon="13.325937">
        <ele>1074.813</ele>
        <time>2018-09-07T07:22:33Z</time>
      </trkpt>
      <trkpt lat="46.335585" lon="13.325893">
        <ele>1074.830</ele>
        <time>2018-09-07T07:22:34Z</time>
      </trkpt>
      <trkpt lat="46.335561" lon="13.325842">
        <ele>1074.843</ele>
        <time>2018-09-07T07:22:35Z</time>
      </trkpt>
      <trkpt lat="46.335342" lon="13.325203">
        <ele>1078.288</ele>
        <time>2018-09-07T07:22:50Z</time>
      </trkpt>
      <trkpt lat="46.335241" lon="13.324625">
        <ele>1081.124</ele>
        <time>2018-09-07T07:23:06Z</time>
      </trkpt>
      <trkpt lat="46.335051" lon="13.324295">
        <ele>1082.526</ele>
        <time>2018-09-07T07:23:17Z</time>
      </trkpt>
      <trkpt lat="46.334934" lon="13.324286">
        <ele>1083.008</ele>
        <time>2018-09-07T07:23:25Z</time>
      </trkpt>
      <trkpt lat="46.334926" lon="13.324271">
        <ele>1083.092</ele>
        <time>2018-09-07T07:23:26Z</time>
      </trkpt>
      <trkpt lat="46.334921" lon="13.324250">
        <ele>1083.584</ele>
        <time>2018-09-07T07:23:27Z</time>
      </trkpt>
      <trkpt lat="46.334912" lon="13.323832">
        <ele>1083.550</ele>
        <time>2018-09-07T07:23:38Z</time>
      </trkpt>
      <trkpt lat="46.335077" lon="13.323102">
        <ele>1083.587</ele>
        <time>2018-09-07T07:23:55Z</time>
      </trkpt>
      <trkpt lat="46.335247" lon="13.322660">
        <ele>1086.948</ele>
        <time>2018-09-07T07:24:08Z</time>
      </trkpt>
      <trkpt lat="46.335262" lon="13.322607">
        <ele>1087.366</ele>
        <time>2018-09-07T07:24:19Z</time>
      </trkpt>
      <trkpt lat="46.335302" lon="13.322641">
        <ele>1089.773</ele>
        <time>2018-09-07T07:24:52Z</time>
      </trkpt>
      <trkpt lat="46.335319" lon="13.322662">
        <ele>1091.286</ele>
        <time>2018-09-07T07:25:15Z</time>
      </trkpt>
      <trkpt lat="46.335333" lon="13.322667">
        <ele>1093.128</ele>
        <time>2018-09-07T07:25:36Z</time>
      </trkpt>
      <trkpt lat="46.335314" lon="13.322596">
        <ele>1090.289</ele>
        <time>2018-09-07T07:26:00Z</time>
      </trkpt>
      <trkpt lat="46.335305" lon="13.322625">
        <ele>1087.817</ele>
        <time>2018-09-07T07:26:38Z</time>
      </trkpt>
      <trkpt lat="46.335316" lon="13.322579">
        <ele>1084.908</ele>
        <time>2018-09-07T07:27:06Z</time>
      </trkpt>
      <trkpt lat="46.335328" lon="13.322652">
        <ele>1087.356</ele>
        <time>2018-09-07T07:27:32Z</time>
      </trkpt>
      <trkpt lat="46.335318" lon="13.322639">
        <ele>1092.238</ele>
        <time>2018-09-07T07:28:01Z</time>
      </trkpt>
      <trkpt lat="46.335304" lon="13.322656">
        <ele>1091.754</ele>
        <time>2018-09-07T07:28:03Z</time>
      </trkpt>
      <trkpt lat="46.335296" lon="13.322673">
        <ele>1091.771</ele>
        <time>2018-09-07T07:28:04Z</time>
      </trkpt>
      <trkpt lat="46.335286" lon="13.322690">
        <ele>1091.722</ele>
        <time>2018-09-07T07:28:05Z</time>
      </trkpt>
      <trkpt lat="46.335280" lon="13.322700">
        <ele>1091.760</ele>
        <time>2018-09-07T07:28:06Z</time>
      </trkpt>
      <trkpt lat="46.335276" lon="13.322716">
        <ele>1091.757</ele>
        <time>2018-09-07T07:28:07Z</time>
      </trkpt>
      <trkpt lat="46.335271" lon="13.322734">
        <ele>1091.780</ele>
        <time>2018-09-07T07:28:08Z</time>
      </trkpt>
      <trkpt lat="46.335263" lon="13.322748">
        <ele>1091.754</ele>
        <time>2018-09-07T07:28:09Z</time>
      </trkpt>
      <trkpt lat="46.335247" lon="13.322803">
        <ele>1092.656</ele>
        <time>2018-09-07T07:28:12Z</time>
      </trkpt>
      <trkpt lat="46.335238" lon="13.322819">
        <ele>1092.611</ele>
        <time>2018-09-07T07:28:13Z</time>
      </trkpt>
      <trkpt lat="46.335231" lon="13.322838">
        <ele>1092.608</ele>
        <time>2018-09-07T07:28:14Z</time>
      </trkpt>
      <trkpt lat="46.335212" lon="13.322934">
        <ele>1092.619</ele>
        <time>2018-09-07T07:28:20Z</time>
      </trkpt>
      <trkpt lat="46.335324" lon="13.322598">
        <ele>1093.621</ele>
        <time>2018-09-07T07:28:34Z</time>
      </trkpt>
      <trkpt lat="46.335537" lon="13.322101">
        <ele>1094.647</ele>
        <time>2018-09-07T07:28:49Z</time>
      </trkpt>
      <trkpt lat="46.335703" lon="13.321662">
        <ele>1099.424</ele>
        <time>2018-09-07T07:29:04Z</time>
      </trkpt>
      <trkpt lat="46.335845" lon="13.321351">
        <ele>1103.745</ele>
        <time>2018-09-07T07:29:18Z</time>
      </trkpt>
      <trkpt lat="46.335976" lon="13.321119">
        <ele>1107.553</ele>
        <time>2018-09-07T07:29:29Z</time>
      </trkpt>
      <trkpt lat="46.335986" lon="13.321098">
        <ele>1108.040</ele>
        <time>2018-09-07T07:29:30Z</time>
      </trkpt>
      <trkpt lat="46.336129" lon="13.320811">
        <ele>1111.473</ele>
        <time>2018-09-07T07:29:42Z</time>
      </trkpt>
      <trkpt lat="46.336139" lon="13.320787">
        <ele>1111.441</ele>
        <time>2018-09-07T07:29:43Z</time>
      </trkpt>
      <trkpt lat="46.336147" lon="13.320762">
        <ele>1111.981</ele>
        <time>2018-09-07T07:29:44Z</time>
      </trkpt>
      <trkpt lat="46.336157" lon="13.320738">
        <ele>1111.909</ele>
        <time>2018-09-07T07:29:45Z</time>
      </trkpt>
      <trkpt lat="46.336167" lon="13.320714">
        <ele>1111.908</ele>
        <time>2018-09-07T07:29:46Z</time>
      </trkpt>
      <trkpt lat="46.336176" lon="13.320690">
        <ele>1112.348</ele>
        <time>2018-09-07T07:29:47Z</time>
      </trkpt>
      <trkpt lat="46.336290" lon="13.320399">
        <ele>1117.110</ele>
        <time>2018-09-07T07:30:00Z</time>
      </trkpt>
      <trkpt lat="46.336308" lon="13.320357">
        <ele>1117.666</ele>
        <time>2018-09-07T07:30:02Z</time>
      </trkpt>
      <trkpt lat="46.336319" lon="13.320337">
        <ele>1118.173</ele>
        <time>2018-09-07T07:30:03Z</time>
      </trkpt>
      <trkpt lat="46.336327" lon="13.320309">
        <ele>1118.654</ele>
        <time>2018-09-07T07:30:04Z</time>
      </trkpt>
      <trkpt lat="46.336345" lon="13.320234">
        <ele>1118.692</ele>
        <time>2018-09-07T07:30:07Z</time>
      </trkpt>
      <trkpt lat="46.336376" lon="13.320111">
        <ele>1115.279</ele>
        <time>2018-09-07T07:30:20Z</time>
      </trkpt>
      <trkpt lat="46.336418" lon="13.320133">
        <ele>1118.172</ele>
        <time>2018-09-07T07:30:48Z</time>
      </trkpt>
      <trkpt lat="46.336407" lon="13.320176">
        <ele>1120.024</ele>
        <time>2018-09-07T07:31:13Z</time>
      </trkpt>
      <trkpt lat="46.336441" lon="13.320055">
        <ele>1122.404</ele>
        <time>2018-09-07T07:31:42Z</time>
      </trkpt>
      <trkpt lat="46.336494" lon="13.320141">
        <ele>1132.514</ele>
        <time>2018-09-07T07:32:09Z</time>
      </trkpt>
      <trkpt lat="46.336499" lon="13.320112">
        <ele>1130.108</ele>
        <time>2018-09-07T07:32:38Z</time>
      </trkpt>
      <trkpt lat="46.336411" lon="13.320091">
        <ele>1127.746</ele>
        <time>2018-09-07T07:33:11Z</time>
      </trkpt>
      <trkpt lat="46.336393" lon="13.320053">
        <ele>1127.728</ele>
        <time>2018-09-07T07:33:32Z</time>
      </trkpt>
      <trkpt lat="46.336436" lon="13.320138">
        <ele>1122.954</ele>
        <time>2018-09-07T07:33:57Z</time>
      </trkpt>
      <trkpt lat="46.336434" lon="13.320145">
        <ele>1122.471</ele>
        <time>2018-09-07T07:34:24Z</time>
      </trkpt>
      <trkpt lat="46.336444" lon="13.320125">
        <ele>1120.042</ele>
        <time>2018-09-07T07:34:42Z</time>
      </trkpt>
      <trkpt lat="46.336459" lon="13.320117">
        <ele>1111.410</ele>
        <time>2018-09-07T07:35:17Z</time>
      </trkpt>
      <trkpt lat="46.336414" lon="13.320122">
        <ele>1104.627</ele>
        <time>2018-09-07T07:35:50Z</time>
      </trkpt>
      <trkpt lat="46.336389" lon="13.320016">
        <ele>1098.430</ele>
        <time>2018-09-07T07:36:17Z</time>
      </trkpt>
      <trkpt lat="46.336375" lon="13.320004">
        <ele>1100.318</ele>
        <time>2018-09-07T07:36:45Z</time>
      </trkpt>
      <trkpt lat="46.336372" lon="13.320001">
        <ele>1109.998</ele>
        <time>2018-09-07T07:37:09Z</time>
      </trkpt>
      <trkpt lat="46.336372" lon="13.320075">
        <ele>1121.017</ele>
        <time>2018-09-07T07:37:30Z</time>
      </trkpt>
      <trkpt lat="46.336399" lon="13.320074">
        <ele>1118.608</ele>
        <time>2018-09-07T07:37:59Z</time>
      </trkpt>
      <trkpt lat="46.336442" lon="13.320106">
        <ele>1116.225</ele>
        <time>2018-09-07T07:38:24Z</time>
      </trkpt>
      <trkpt lat="46.336414" lon="13.320126">
        <ele>1122.027</ele>
        <time>2018-09-07T07:38:48Z</time>
      </trkpt>
      <trkpt lat="46.336439" lon="13.320059">
        <ele>1120.583</ele>
        <time>2018-09-07T07:39:04Z</time>
      </trkpt>
      <trkpt lat="46.336499" lon="13.319997">
        <ele>1119.510</ele>
        <time>2018-09-07T07:39:08Z</time>
      </trkpt>
      <trkpt lat="46.336513" lon="13.319977">
        <ele>1119.161</ele>
        <time>2018-09-07T07:39:09Z</time>
      </trkpt>
      <trkpt lat="46.336535" lon="13.319952">
        <ele>1118.699</ele>
        <time>2018-09-07T07:39:10Z</time>
      </trkpt>
      <trkpt lat="46.336584" lon="13.319881">
        <ele>1115.796</ele>
        <time>2018-09-07T07:39:13Z</time>
      </trkpt>
      <trkpt lat="46.336598" lon="13.319845">
        <ele>1112.859</ele>
        <time>2018-09-07T07:39:16Z</time>
      </trkpt>
      <trkpt lat="46.336712" lon="13.319383">
        <ele>1104.617</ele>
        <time>2018-09-07T07:39:28Z</time>
      </trkpt>
      <trkpt lat="46.336732" lon="13.319204">
        <ele>1103.287</ele>
        <time>2018-09-07T07:39:31Z</time>
      </trkpt>
      <trkpt lat="46.336759" lon="13.319150">
        <ele>1102.215</ele>
        <time>2018-09-07T07:39:32Z</time>
      </trkpt>
      <trkpt lat="46.336797" lon="13.319107">
        <ele>1101.808</ele>
        <time>2018-09-07T07:39:33Z</time>
      </trkpt>
      <trkpt lat="46.336845" lon="13.319071">
        <ele>1100.885</ele>
        <time>2018-09-07T07:39:34Z</time>
      </trkpt>
      <trkpt lat="46.336888" lon="13.319046">
        <ele>1099.887</ele>
        <time>2018-09-07T07:39:35Z</time>
      </trkpt>
      <trkpt lat="46.336985" lon="13.318994">
        <ele>1098.423</ele>
        <time>2018-09-07T07:39:37Z</time>
      </trkpt>
      <trkpt lat="46.337012" lon="13.318963">
        <ele>1097.990</ele>
        <time>2018-09-07T07:39:38Z</time>
      </trkpt>
      <trkpt lat="46.337026" lon="13.318913">
        <ele>1097.021</ele>
        <time>2018-09-07T07:39:39Z</time>
      </trkpt>
      <trkpt lat="46.337014" lon="13.318871">
        <ele>1096.519</ele>
        <time>2018-09-07T07:39:40Z</time>
      </trkpt>
      <trkpt lat="46.336979" lon="13.318833">
        <ele>1095.566</ele>
        <time>2018-09-07T07:39:41Z</time>
      </trkpt>
      <trkpt lat="46.336930" lon="13.318803">
        <ele>1095.099</ele>
        <time>2018-09-07T07:39:42Z</time>
      </trkpt>
      <trkpt lat="46.336889" lon="13.318764">
        <ele>1094.112</ele>
        <time>2018-09-07T07:39:43Z</time>
      </trkpt>
      <trkpt lat="46.336861" lon="13.318712">
        <ele>1093.632</ele>
        <time>2018-09-07T07:39:44Z</time>
      </trkpt>
      <trkpt lat="46.336847" lon="13.318634">
        <ele>1092.205</ele>
        <time>2018-09-07T07:39:45Z</time>
      </trkpt>
      <trkpt lat="46.336847" lon="13.318543">
        <ele>1091.208</ele>
        <time>2018-09-07T07:39:46Z</time>
      </trkpt>
      <trkpt lat="46.336865" lon="13.318432">
        <ele>1090.295</ele>
        <time>2018-09-07T07:39:47Z</time>
      </trkpt>
      <trkpt lat="46.336893" lon="13.318335">
        <ele>1089.347</ele>
        <time>2018-09-07T07:39:48Z</time>
      </trkpt>
      <trkpt lat="46.336946" lon="13.318212">
        <ele>1087.893</ele>
        <time>2018-09-07T07:39:49Z</time>
      </trkpt>
      <trkpt lat="46.337006" lon="13.318092">
        <ele>1086.450</ele>
        <time>2018-09-07T07:39:50Z</time>
      </trkpt>
      <trkpt lat="46.337444" lon="13.317172">
        <ele>1073.471</ele>
        <time>2018-09-07T07:39:58Z</time>
      </trkpt>
      <trkpt lat="46.337799" lon="13.316089">
        <ele>1059.089</ele>
        <time>2018-09-07T07:40:06Z</time>
      </trkpt>
      <trkpt lat="46.337852" lon="13.315994">
        <ele>1057.146</ele>
        <time>2018-09-07T07:40:07Z</time>
      </trkpt>
      <trkpt lat="46.338135" lon="13.315497">
        <ele>1048.999</ele>
        <time>2018-09-07T07:40:12Z</time>
      </trkpt>
      <trkpt lat="46.338205" lon="13.315406">
        <ele>1047.478</ele>
        <time>2018-09-07T07:40:13Z</time>
      </trkpt>
      <trkpt lat="46.338515" lon="13.315009">
        <ele>1040.733</ele>
        <time>2018-09-07T07:40:17Z</time>
      </trkpt>
      <trkpt lat="46.338569" lon="13.314903">
        <ele>1040.226</ele>
        <time>2018-09-07T07:40:18Z</time>
      </trkpt>
      <trkpt lat="46.338614" lon="13.314763">
        <ele>1040.208</ele>
        <time>2018-09-07T07:40:19Z</time>
      </trkpt>
      <trkpt lat="46.338644" lon="13.314603">
        <ele>1040.251</ele>
        <time>2018-09-07T07:40:20Z</time>
      </trkpt>
      <trkpt lat="46.338667" lon="13.314452">
        <ele>1039.853</ele>
        <time>2018-09-07T07:40:21Z</time>
      </trkpt>
      <trkpt lat="46.338696" lon="13.314314">
        <ele>1039.829</ele>
        <time>2018-09-07T07:40:22Z</time>
      </trkpt>
      <trkpt lat="46.338737" lon="13.314187">
        <ele>1039.386</ele>
        <time>2018-09-07T07:40:23Z</time>
      </trkpt>
      <trkpt lat="46.338793" lon="13.314063">
        <ele>1038.857</ele>
        <time>2018-09-07T07:40:24Z</time>
      </trkpt>
      <trkpt lat="46.338871" lon="13.313925">
        <ele>1038.335</ele>
        <time>2018-09-07T07:40:25Z</time>
      </trkpt>
      <trkpt lat="46.338942" lon="13.313816">
        <ele>1037.882</ele>
        <time>2018-09-07T07:40:26Z</time>
      </trkpt>
      <trkpt lat="46.339042" lon="13.313694">
        <ele>1037.455</ele>
        <time>2018-09-07T07:40:27Z</time>
      </trkpt>
      <trkpt lat="46.339142" lon="13.313585">
        <ele>1036.989</ele>
        <time>2018-09-07T07:40:28Z</time>
      </trkpt>
      <trkpt lat="46.339925" lon="13.312656">
        <ele>1029.706</ele>
        <time>2018-09-07T07:40:36Z</time>
      </trkpt>
      <trkpt lat="46.340477" lon="13.311981">
        <ele>1021.026</ele>
        <time>2018-09-07T07:40:42Z</time>
      </trkpt>
      <trkpt lat="46.340622" lon="13.311835">
        <ele>1017.208</ele>
        <time>2018-09-07T07:40:44Z</time>
      </trkpt>
      <trkpt lat="46.340677" lon="13.311755">
        <ele>1015.232</ele>
        <time>2018-09-07T07:40:45Z</time>
      </trkpt>
      <trkpt lat="46.340720" lon="13.311665">
        <ele>1013.394</ele>
        <time>2018-09-07T07:40:46Z</time>
      </trkpt>
      <trkpt lat="46.340749" lon="13.311568">
        <ele>1011.410</ele>
        <time>2018-09-07T07:40:47Z</time>
      </trkpt>
      <trkpt lat="46.340775" lon="13.311442">
        <ele>1009.037</ele>
        <time>2018-09-07T07:40:48Z</time>
      </trkpt>
      <trkpt lat="46.340808" lon="13.311325">
        <ele>1007.158</ele>
        <time>2018-09-07T07:40:49Z</time>
      </trkpt>
      <trkpt lat="46.340850" lon="13.311224">
        <ele>1005.246</ele>
        <time>2018-09-07T07:40:50Z</time>
      </trkpt>
      <trkpt lat="46.340914" lon="13.311123">
        <ele>1002.783</ele>
        <time>2018-09-07T07:40:51Z</time>
      </trkpt>
      <trkpt lat="46.341046" lon="13.310932">
        <ele>997.996</ele>
        <time>2018-09-07T07:40:53Z</time>
      </trkpt>
      <trkpt lat="46.341101" lon="13.310822">
        <ele>996.578</ele>
        <time>2018-09-07T07:40:54Z</time>
      </trkpt>
      <trkpt lat="46.341210" lon="13.310599">
        <ele>991.733</ele>
        <time>2018-09-07T07:40:56Z</time>
      </trkpt>
      <trkpt lat="46.341299" lon="13.310513">
        <ele>988.826</ele>
        <time>2018-09-07T07:40:57Z</time>
      </trkpt>
      <trkpt lat="46.341776" lon="13.310129">
        <ele>977.808</ele>
        <time>2018-09-07T07:41:02Z</time>
      </trkpt>
      <trkpt lat="46.341855" lon="13.310051">
        <ele>975.331</ele>
        <time>2018-09-07T07:41:03Z</time>
      </trkpt>
      <trkpt lat="46.341916" lon="13.309966">
        <ele>973.423</ele>
        <time>2018-09-07T07:41:04Z</time>
      </trkpt>
      <trkpt lat="46.341963" lon="13.309867">
        <ele>971.039</ele>
        <time>2018-09-07T07:41:05Z</time>
      </trkpt>
      <trkpt lat="46.341991" lon="13.309784">
        <ele>969.686</ele>
        <time>2018-09-07T07:41:06Z</time>
      </trkpt>
      <trkpt lat="46.341996" lon="13.309712">
        <ele>967.757</ele>
        <time>2018-09-07T07:41:07Z</time>
      </trkpt>
      <trkpt lat="46.341976" lon="13.309669">
        <ele>965.785</ele>
        <time>2018-09-07T07:41:08Z</time>
      </trkpt>
      <trkpt lat="46.341944" lon="13.309658">
        <ele>964.842</ele>
        <time>2018-09-07T07:41:09Z</time>
      </trkpt>
      <trkpt lat="46.341910" lon="13.309685">
        <ele>963.395</ele>
        <time>2018-09-07T07:41:10Z</time>
      </trkpt>
      <trkpt lat="46.341882" lon="13.309742">
        <ele>961.913</ele>
        <time>2018-09-07T07:41:11Z</time>
      </trkpt>
      <trkpt lat="46.341853" lon="13.309809">
        <ele>960.943</ele>
        <time>2018-09-07T07:41:12Z</time>
      </trkpt>
      <trkpt lat="46.341817" lon="13.309869">
        <ele>960.007</ele>
        <time>2018-09-07T07:41:13Z</time>
      </trkpt>
      <trkpt lat="46.341766" lon="13.309935">
        <ele>959.008</ele>
        <time>2018-09-07T07:41:14Z</time>
      </trkpt>
      <trkpt lat="46.341709" lon="13.309996">
        <ele>957.665</ele>
        <time>2018-09-07T07:41:15Z</time>
      </trkpt>
      <trkpt lat="46.341647" lon="13.310042">
        <ele>956.187</ele>
        <time>2018-09-07T07:41:16Z</time>
      </trkpt>
      <trkpt lat="46.341574" lon="13.310081">
        <ele>954.773</ele>
        <time>2018-09-07T07:41:17Z</time>
      </trkpt>
      <trkpt lat="46.341427" lon="13.310145">
        <ele>952.840</ele>
        <time>2018-09-07T07:41:19Z</time>
      </trkpt>
      <trkpt lat="46.341342" lon="13.310162">
        <ele>951.831</ele>
        <time>2018-09-07T07:41:20Z</time>
      </trkpt>
      <trkpt lat="46.341059" lon="13.310197">
        <ele>948.999</ele>
        <time>2018-09-07T07:41:23Z</time>
      </trkpt>
      <trkpt lat="46.340392" lon="13.310551">
        <ele>941.766</ele>
        <time>2018-09-07T07:41:30Z</time>
      </trkpt>
      <trkpt lat="46.340105" lon="13.310878">
        <ele>937.499</ele>
        <time>2018-09-07T07:41:34Z</time>
      </trkpt>
      <trkpt lat="46.339998" lon="13.310975">
        <ele>935.033</ele>
        <time>2018-09-07T07:41:36Z</time>
      </trkpt>
      <trkpt lat="46.339950" lon="13.310965">
        <ele>934.023</ele>
        <time>2018-09-07T07:41:37Z</time>
      </trkpt>
      <trkpt lat="46.339919" lon="13.310912">
        <ele>933.515</ele>
        <time>2018-09-07T07:41:38Z</time>
      </trkpt>
      <trkpt lat="46.339923" lon="13.310855">
        <ele>933.108</ele>
        <time>2018-09-07T07:41:39Z</time>
      </trkpt>
      <trkpt lat="46.339951" lon="13.310797">
        <ele>932.627</ele>
        <time>2018-09-07T07:41:40Z</time>
      </trkpt>
      <trkpt lat="46.339989" lon="13.310733">
        <ele>932.169</ele>
        <time>2018-09-07T07:41:41Z</time>
      </trkpt>
      <trkpt lat="46.340105" lon="13.310473">
        <ele>930.275</ele>
        <time>2018-09-07T07:41:44Z</time>
      </trkpt>
      <trkpt lat="46.340142" lon="13.310368">
        <ele>929.742</ele>
        <time>2018-09-07T07:41:45Z</time>
      </trkpt>
      <trkpt lat="46.340287" lon="13.310051">
        <ele>927.813</ele>
        <time>2018-09-07T07:41:48Z</time>
      </trkpt>
      <trkpt lat="46.340349" lon="13.309954">
        <ele>927.361</ele>
        <time>2018-09-07T07:41:49Z</time>
      </trkpt>
      <trkpt lat="46.340430" lon="13.309842">
        <ele>926.378</ele>
        <time>2018-09-07T07:41:50Z</time>
      </trkpt>
      <trkpt lat="46.340510" lon="13.309744">
        <ele>925.471</ele>
        <time>2018-09-07T07:41:51Z</time>
      </trkpt>
      <trkpt lat="46.340588" lon="13.309660">
        <ele>924.947</ele>
        <time>2018-09-07T07:41:52Z</time>
      </trkpt>
      <trkpt lat="46.340687" lon="13.309574">
        <ele>923.929</ele>
        <time>2018-09-07T07:41:53Z</time>
      </trkpt>
      <trkpt lat="46.340779" lon="13.309508">
        <ele>923.021</ele>
        <time>2018-09-07T07:41:54Z</time>
      </trkpt>
      <trkpt lat="46.340881" lon="13.309439">
        <ele>922.008</ele>
        <time>2018-09-07T07:41:55Z</time>
      </trkpt>
      <trkpt lat="46.341054" lon="13.309297">
        <ele>919.668</ele>
        <time>2018-09-07T07:41:57Z</time>
      </trkpt>
      <trkpt lat="46.341392" lon="13.308933">
        <ele>915.330</ele>
        <time>2018-09-07T07:42:02Z</time>
      </trkpt>
      <trkpt lat="46.341409" lon="13.308859">
        <ele>914.326</ele>
        <time>2018-09-07T07:42:03Z</time>
      </trkpt>
      <trkpt lat="46.341397" lon="13.308825">
        <ele>913.313</ele>
        <time>2018-09-07T07:42:04Z</time>
      </trkpt>
      <trkpt lat="46.341367" lon="13.308809">
        <ele>912.954</ele>
        <time>2018-09-07T07:42:05Z</time>
      </trkpt>
      <trkpt lat="46.341337" lon="13.308824">
        <ele>911.972</ele>
        <time>2018-09-07T07:42:06Z</time>
      </trkpt>
      <trkpt lat="46.341298" lon="13.308849">
        <ele>910.579</ele>
        <time>2018-09-07T07:42:07Z</time>
      </trkpt>
      <trkpt lat="46.341263" lon="13.308878">
        <ele>909.562</ele>
        <time>2018-09-07T07:42:08Z</time>
      </trkpt>
      <trkpt lat="46.341214" lon="13.308919">
        <ele>908.515</ele>
        <time>2018-09-07T07:42:09Z</time>
      </trkpt>
      <trkpt lat="46.341168" lon="13.308957">
        <ele>907.165</ele>
        <time>2018-09-07T07:42:10Z</time>
      </trkpt>
      <trkpt lat="46.341119" lon="13.308988">
        <ele>906.111</ele>
        <time>2018-09-07T07:42:11Z</time>
      </trkpt>
      <trkpt lat="46.341052" lon="13.309015">
        <ele>905.208</ele>
        <time>2018-09-07T07:42:12Z</time>
      </trkpt>
      <trkpt lat="46.340989" lon="13.309027">
        <ele>904.225</ele>
        <time>2018-09-07T07:42:13Z</time>
      </trkpt>
      <trkpt lat="46.340901" lon="13.309025">
        <ele>902.827</ele>
        <time>2018-09-07T07:42:14Z</time>
      </trkpt>
      <trkpt lat="46.340809" lon="13.309016">
        <ele>901.333</ele>
        <time>2018-09-07T07:42:15Z</time>
      </trkpt>
      <trkpt lat="46.340638" lon="13.309024">
        <ele>899.430</ele>
        <time>2018-09-07T07:42:17Z</time>
      </trkpt>
      <trkpt lat="46.340559" lon="13.309050">
        <ele>898.451</ele>
        <time>2018-09-07T07:42:18Z</time>
      </trkpt>
      <trkpt lat="46.340458" lon="13.309054">
        <ele>897.069</ele>
        <time>2018-09-07T07:42:20Z</time>
      </trkpt>
      <trkpt lat="46.340440" lon="13.308998">
        <ele>896.576</ele>
        <time>2018-09-07T07:42:21Z</time>
      </trkpt>
      <trkpt lat="46.340454" lon="13.308933">
        <ele>896.099</ele>
        <time>2018-09-07T07:42:22Z</time>
      </trkpt>
      <trkpt lat="46.340494" lon="13.308880">
        <ele>895.128</ele>
        <time>2018-09-07T07:42:23Z</time>
      </trkpt>
      <trkpt lat="46.340553" lon="13.308833">
        <ele>894.189</ele>
        <time>2018-09-07T07:42:24Z</time>
      </trkpt>
      <trkpt lat="46.340621" lon="13.308786">
        <ele>893.617</ele>
        <time>2018-09-07T07:42:25Z</time>
      </trkpt>
      <trkpt lat="46.340951" lon="13.308535">
        <ele>890.308</ele>
        <time>2018-09-07T07:42:29Z</time>
      </trkpt>
      <trkpt lat="46.341037" lon="13.308435">
        <ele>889.316</ele>
        <time>2018-09-07T07:42:30Z</time>
      </trkpt>
      <trkpt lat="46.341362" lon="13.308068">
        <ele>882.648</ele>
        <time>2018-09-07T07:42:34Z</time>
      </trkpt>
      <trkpt lat="46.341443" lon="13.308004">
        <ele>881.624</ele>
        <time>2018-09-07T07:42:35Z</time>
      </trkpt>
      <trkpt lat="46.341527" lon="13.307954">
        <ele>880.741</ele>
        <time>2018-09-07T07:42:36Z</time>
      </trkpt>
      <trkpt lat="46.341613" lon="13.307912">
        <ele>879.232</ele>
        <time>2018-09-07T07:42:37Z</time>
      </trkpt>
      <trkpt lat="46.341699" lon="13.307876">
        <ele>877.840</ele>
        <time>2018-09-07T07:42:38Z</time>
      </trkpt>
      <trkpt lat="46.341847" lon="13.307800">
        <ele>875.427</ele>
        <time>2018-09-07T07:42:40Z</time>
      </trkpt>
      <trkpt lat="46.341897" lon="13.307745">
        <ele>874.910</ele>
        <time>2018-09-07T07:42:41Z</time>
      </trkpt>
      <trkpt lat="46.341926" lon="13.307669">
        <ele>873.953</ele>
        <time>2018-09-07T07:42:42Z</time>
      </trkpt>
      <trkpt lat="46.341932" lon="13.307577">
        <ele>873.004</ele>
        <time>2018-09-07T07:42:43Z</time>
      </trkpt>
      <trkpt lat="46.341921" lon="13.307475">
        <ele>872.514</ele>
        <time>2018-09-07T07:42:44Z</time>
      </trkpt>
      <trkpt lat="46.341911" lon="13.307366">
        <ele>871.508</ele>
        <time>2018-09-07T07:42:45Z</time>
      </trkpt>
      <trkpt lat="46.341906" lon="13.307249">
        <ele>870.119</ele>
        <time>2018-09-07T07:42:46Z</time>
      </trkpt>
      <trkpt lat="46.341906" lon="13.307117">
        <ele>869.121</ele>
        <time>2018-09-07T07:42:47Z</time>
      </trkpt>
      <trkpt lat="46.341938" lon="13.306598">
        <ele>863.417</ele>
        <time>2018-09-07T07:42:51Z</time>
      </trkpt>
      <trkpt lat="46.341965" lon="13.306499">
        <ele>861.054</ele>
        <time>2018-09-07T07:42:52Z</time>
      </trkpt>
      <trkpt lat="46.342008" lon="13.306412">
        <ele>856.655</ele>
        <time>2018-09-07T07:42:53Z</time>
      </trkpt>
      <trkpt lat="46.342300" lon="13.305666">
        <ele>838.413</ele>
        <time>2018-09-07T07:43:00Z</time>
      </trkpt>
      <trkpt lat="46.342368" lon="13.305569">
        <ele>836.990</ele>
        <time>2018-09-07T07:43:01Z</time>
      </trkpt>
      <trkpt lat="46.342562" lon="13.305277">
        <ele>831.673</ele>
        <time>2018-09-07T07:43:04Z</time>
      </trkpt>
      <trkpt lat="46.342604" lon="13.305175">
        <ele>830.278</ele>
        <time>2018-09-07T07:43:05Z</time>
      </trkpt>
      <trkpt lat="46.342634" lon="13.305064">
        <ele>828.333</ele>
        <time>2018-09-07T07:43:06Z</time>
      </trkpt>
      <trkpt lat="46.342658" lon="13.304951">
        <ele>826.826</ele>
        <time>2018-09-07T07:43:07Z</time>
      </trkpt>
      <trkpt lat="46.342678" lon="13.304840">
        <ele>824.908</ele>
        <time>2018-09-07T07:43:08Z</time>
      </trkpt>
      <trkpt lat="46.342730" lon="13.304527">
        <ele>820.181</ele>
        <time>2018-09-07T07:43:11Z</time>
      </trkpt>
      <trkpt lat="46.342755" lon="13.304413">
        <ele>818.773</ele>
        <time>2018-09-07T07:43:12Z</time>
      </trkpt>
      <trkpt lat="46.342954" lon="13.303388">
        <ele>803.359</ele>
        <time>2018-09-07T07:43:21Z</time>
      </trkpt>
      <trkpt lat="46.343003" lon="13.303024">
        <ele>798.086</ele>
        <time>2018-09-07T07:43:24Z</time>
      </trkpt>
      <trkpt lat="46.343093" lon="13.302619">
        <ele>793.237</ele>
        <time>2018-09-07T07:43:27Z</time>
      </trkpt>
      <trkpt lat="46.343470" lon="13.301307">
        <ele>778.395</ele>
        <time>2018-09-07T07:43:37Z</time>
      </trkpt>
      <trkpt lat="46.343605" lon="13.300894">
        <ele>774.082</ele>
        <time>2018-09-07T07:43:40Z</time>
      </trkpt>
      <trkpt lat="46.343695" lon="13.300211">
        <ele>765.855</ele>
        <time>2018-09-07T07:43:46Z</time>
      </trkpt>
      <trkpt lat="46.343738" lon="13.299218">
        <ele>757.123</ele>
        <time>2018-09-07T07:43:54Z</time>
      </trkpt>
      <trkpt lat="46.343746" lon="13.299002">
        <ele>753.883</ele>
        <time>2018-09-07T07:43:58Z</time>
      </trkpt>
      <trkpt lat="46.343733" lon="13.298987">
        <ele>753.311</ele>
        <time>2018-09-07T07:43:59Z</time>
      </trkpt>
      <trkpt lat="46.343672" lon="13.298929">
        <ele>759.508</ele>
        <time>2018-09-07T07:44:19Z</time>
      </trkpt>
      <trkpt lat="46.343696" lon="13.298961">
        <ele>758.686</ele>
        <time>2018-09-07T07:44:44Z</time>
      </trkpt>
      <trkpt lat="46.343676" lon="13.298980">
        <ele>758.648</ele>
        <time>2018-09-07T07:44:48Z</time>
      </trkpt>
      <trkpt lat="46.343663" lon="13.299004">
        <ele>758.614</ele>
        <time>2018-09-07T07:44:49Z</time>
      </trkpt>
      <trkpt lat="46.343519" lon="13.299276">
        <ele>757.631</ele>
        <time>2018-09-07T07:44:54Z</time>
      </trkpt>
      <trkpt lat="46.343485" lon="13.299374">
        <ele>757.162</ele>
        <time>2018-09-07T07:44:55Z</time>
      </trkpt>
      <trkpt lat="46.343452" lon="13.299474">
        <ele>756.640</ele>
        <time>2018-09-07T07:44:56Z</time>
      </trkpt>
      <trkpt lat="46.343351" lon="13.299748">
        <ele>755.227</ele>
        <time>2018-09-07T07:44:59Z</time>
      </trkpt>
      <trkpt lat="46.343236" lon="13.299941">
        <ele>753.850</ele>
        <time>2018-09-07T07:45:01Z</time>
      </trkpt>
      <trkpt lat="46.342996" lon="13.300327">
        <ele>750.494</ele>
        <time>2018-09-07T07:45:05Z</time>
      </trkpt>
      <trkpt lat="46.342928" lon="13.300389">
        <ele>749.957</ele>
        <time>2018-09-07T07:45:06Z</time>
      </trkpt>
      <trkpt lat="46.342860" lon="13.300428">
        <ele>749.022</ele>
        <time>2018-09-07T07:45:07Z</time>
      </trkpt>
      <trkpt lat="46.342796" lon="13.300434">
        <ele>748.008</ele>
        <time>2018-09-07T07:45:08Z</time>
      </trkpt>
      <trkpt lat="46.342745" lon="13.300402">
        <ele>747.033</ele>
        <time>2018-09-07T07:45:09Z</time>
      </trkpt>
      <trkpt lat="46.342706" lon="13.300335">
        <ele>745.635</ele>
        <time>2018-09-07T07:45:10Z</time>
      </trkpt>
      <trkpt lat="46.342684" lon="13.300233">
        <ele>744.681</ele>
        <time>2018-09-07T07:45:11Z</time>
      </trkpt>
      <trkpt lat="46.342665" lon="13.300106">
        <ele>744.638</ele>
        <time>2018-09-07T07:45:12Z</time>
      </trkpt>
      <trkpt lat="46.342640" lon="13.299969">
        <ele>744.269</ele>
        <time>2018-09-07T07:45:13Z</time>
      </trkpt>
      <trkpt lat="46.342589" lon="13.299695">
        <ele>742.227</ele>
        <time>2018-09-07T07:45:15Z</time>
      </trkpt>
      <trkpt lat="46.342595" lon="13.299560">
        <ele>741.344</ele>
        <time>2018-09-07T07:45:16Z</time>
      </trkpt>
      <trkpt lat="46.342623" lon="13.299180">
        <ele>738.977</ele>
        <time>2018-09-07T07:45:19Z</time>
      </trkpt>
      <trkpt lat="46.342624" lon="13.298931">
        <ele>736.544</ele>
        <time>2018-09-07T07:45:22Z</time>
      </trkpt>
      <trkpt lat="46.342659" lon="13.298885">
        <ele>735.505</ele>
        <time>2018-09-07T07:45:23Z</time>
      </trkpt>
      <trkpt lat="46.342861" lon="13.298871">
        <ele>731.215</ele>
        <time>2018-09-07T07:45:26Z</time>
      </trkpt>
      <trkpt lat="46.342901" lon="13.298844">
        <ele>729.708</ele>
        <time>2018-09-07T07:45:27Z</time>
      </trkpt>
      <trkpt lat="46.342932" lon="13.298784">
        <ele>728.838</ele>
        <time>2018-09-07T07:45:28Z</time>
      </trkpt>
      <trkpt lat="46.342947" lon="13.298714">
        <ele>727.880</ele>
        <time>2018-09-07T07:45:29Z</time>
      </trkpt>
      <trkpt lat="46.342956" lon="13.298630">
        <ele>726.856</ele>
        <time>2018-09-07T07:45:30Z</time>
      </trkpt>
      <trkpt lat="46.342971" lon="13.298541">
        <ele>725.943</ele>
        <time>2018-09-07T07:45:31Z</time>
      </trkpt>
      <trkpt lat="46.343007" lon="13.298454">
        <ele>724.944</ele>
        <time>2018-09-07T07:45:32Z</time>
      </trkpt>
      <trkpt lat="46.343136" lon="13.298181">
        <ele>722.042</ele>
        <time>2018-09-07T07:45:35Z</time>
      </trkpt>
      <trkpt lat="46.343317" lon="13.297667">
        <ele>717.249</ele>
        <time>2018-09-07T07:45:40Z</time>
      </trkpt>
      <trkpt lat="46.343364" lon="13.297510">
        <ele>715.342</ele>
        <time>2018-09-07T07:45:42Z</time>
      </trkpt>
      <trkpt lat="46.343369" lon="13.297452">
        <ele>714.427</ele>
        <time>2018-09-07T07:45:43Z</time>
      </trkpt>
      <trkpt lat="46.343352" lon="13.297418">
        <ele>713.468</ele>
        <time>2018-09-07T07:45:44Z</time>
      </trkpt>
      <trkpt lat="46.343322" lon="13.297411">
        <ele>712.414</ele>
        <time>2018-09-07T07:45:45Z</time>
      </trkpt>
      <trkpt lat="46.343291" lon="13.297440">
        <ele>711.008</ele>
        <time>2018-09-07T07:45:46Z</time>
      </trkpt>
      <trkpt lat="46.343261" lon="13.297495">
        <ele>709.556</ele>
        <time>2018-09-07T07:45:47Z</time>
      </trkpt>
      <trkpt lat="46.343226" lon="13.297562">
        <ele>708.178</ele>
        <time>2018-09-07T07:45:48Z</time>
      </trkpt>
      <trkpt lat="46.343177" lon="13.297619">
        <ele>707.124</ele>
        <time>2018-09-07T07:45:49Z</time>
      </trkpt>
      <trkpt lat="46.343108" lon="13.297651">
        <ele>705.221</ele>
        <time>2018-09-07T07:45:50Z</time>
      </trkpt>
      <trkpt lat="46.343040" lon="13.297652">
        <ele>703.842</ele>
        <time>2018-09-07T07:45:51Z</time>
      </trkpt>
      <trkpt lat="46.342981" lon="13.297618">
        <ele>701.970</ele>
        <time>2018-09-07T07:45:52Z</time>
      </trkpt>
      <trkpt lat="46.342943" lon="13.297552">
        <ele>699.997</ele>
        <time>2018-09-07T07:45:53Z</time>
      </trkpt>
      <trkpt lat="46.342937" lon="13.297468">
        <ele>698.050</ele>
        <time>2018-09-07T07:45:54Z</time>
      </trkpt>
      <trkpt lat="46.342966" lon="13.297387">
        <ele>696.121</ele>
        <time>2018-09-07T07:45:55Z</time>
      </trkpt>
      <trkpt lat="46.343027" lon="13.297317">
        <ele>694.241</ele>
        <time>2018-09-07T07:45:56Z</time>
      </trkpt>
      <trkpt lat="46.343097" lon="13.297251">
        <ele>691.805</ele>
        <time>2018-09-07T07:45:57Z</time>
      </trkpt>
      <trkpt lat="46.343154" lon="13.297172">
        <ele>689.808</ele>
        <time>2018-09-07T07:45:58Z</time>
      </trkpt>
      <trkpt lat="46.343204" lon="13.297076">
        <ele>687.946</ele>
        <time>2018-09-07T07:45:59Z</time>
      </trkpt>
      <trkpt lat="46.343250" lon="13.296961">
        <ele>686.598</ele>
        <time>2018-09-07T07:46:00Z</time>
      </trkpt>
      <trkpt lat="46.343287" lon="13.296831">
        <ele>684.654</ele>
        <time>2018-09-07T07:46:01Z</time>
      </trkpt>
      <trkpt lat="46.343325" lon="13.296690">
        <ele>682.621</ele>
        <time>2018-09-07T07:46:02Z</time>
      </trkpt>
      <trkpt lat="46.343618" lon="13.295828">
        <ele>670.182</ele>
        <time>2018-09-07T07:46:09Z</time>
      </trkpt>
      <trkpt lat="46.343655" lon="13.295757">
        <ele>668.240</ele>
        <time>2018-09-07T07:46:10Z</time>
      </trkpt>
      <trkpt lat="46.343759" lon="13.295590">
        <ele>662.927</ele>
        <time>2018-09-07T07:46:13Z</time>
      </trkpt>
      <trkpt lat="46.343794" lon="13.295551">
        <ele>661.020</ele>
        <time>2018-09-07T07:46:14Z</time>
      </trkpt>
      <trkpt lat="46.343828" lon="13.295513">
        <ele>659.198</ele>
        <time>2018-09-07T07:46:15Z</time>
      </trkpt>
      <trkpt lat="46.343857" lon="13.295475">
        <ele>657.615</ele>
        <time>2018-09-07T07:46:16Z</time>
      </trkpt>
      <trkpt lat="46.343885" lon="13.295435">
        <ele>656.226</ele>
        <time>2018-09-07T07:46:17Z</time>
      </trkpt>
      <trkpt lat="46.343943" lon="13.295350">
        <ele>652.808</ele>
        <time>2018-09-07T07:46:19Z</time>
      </trkpt>
      <trkpt lat="46.344092" lon="13.295190">
        <ele>647.133</ele>
        <time>2018-09-07T07:46:23Z</time>
      </trkpt>
      <trkpt lat="46.344144" lon="13.295157">
        <ele>645.675</ele>
        <time>2018-09-07T07:46:24Z</time>
      </trkpt>
      <trkpt lat="46.344762" lon="13.294986">
        <ele>634.141</ele>
        <time>2018-09-07T07:46:33Z</time>
      </trkpt>
      <trkpt lat="46.344898" lon="13.294993">
        <ele>632.278</ele>
        <time>2018-09-07T07:46:35Z</time>
      </trkpt>
      <trkpt lat="46.344966" lon="13.294981">
        <ele>632.269</ele>
        <time>2018-09-07T07:46:36Z</time>
      </trkpt>
      <trkpt lat="46.345024" lon="13.294956">
        <ele>632.267</ele>
        <time>2018-09-07T07:46:37Z</time>
      </trkpt>
      <trkpt lat="46.345074" lon="13.294916">
        <ele>632.284</ele>
        <time>2018-09-07T07:46:38Z</time>
      </trkpt>
      <trkpt lat="46.345139" lon="13.294869">
        <ele>631.797</ele>
        <time>2018-09-07T07:46:39Z</time>
      </trkpt>
      <trkpt lat="46.345216" lon="13.294835">
        <ele>631.264</ele>
        <time>2018-09-07T07:46:40Z</time>
      </trkpt>
      <trkpt lat="46.345296" lon="13.294817">
        <ele>631.206</ele>
        <time>2018-09-07T07:46:41Z</time>
      </trkpt>
      <trkpt lat="46.345378" lon="13.294808">
        <ele>630.216</ele>
        <time>2018-09-07T07:46:42Z</time>
      </trkpt>
      <trkpt lat="46.345534" lon="13.294777">
        <ele>629.808</ele>
        <time>2018-09-07T07:46:44Z</time>
      </trkpt>
      <trkpt lat="46.345606" lon="13.294740">
        <ele>629.840</ele>
        <time>2018-09-07T07:46:45Z</time>
      </trkpt>
      <trkpt lat="46.345829" lon="13.294603">
        <ele>628.862</ele>
        <time>2018-09-07T07:46:48Z</time>
      </trkpt>
      <trkpt lat="46.345905" lon="13.294590">
        <ele>628.818</ele>
        <time>2018-09-07T07:46:49Z</time>
      </trkpt>
      <trkpt lat="46.345979" lon="13.294601">
        <ele>628.365</ele>
        <time>2018-09-07T07:46:50Z</time>
      </trkpt>
      <trkpt lat="46.346057" lon="13.294628">
        <ele>627.426</ele>
        <time>2018-09-07T07:46:51Z</time>
      </trkpt>
      <trkpt lat="46.346140" lon="13.294655">
        <ele>627.454</ele>
        <time>2018-09-07T07:46:52Z</time>
      </trkpt>
      <trkpt lat="46.346224" lon="13.294671">
        <ele>626.991</ele>
        <time>2018-09-07T07:46:53Z</time>
      </trkpt>
      <trkpt lat="46.346310" lon="13.294673">
        <ele>625.924</ele>
        <time>2018-09-07T07:46:54Z</time>
      </trkpt>
      <trkpt lat="46.346527" lon="13.294668">
        <ele>623.037</ele>
        <time>2018-09-07T07:46:57Z</time>
      </trkpt>
      <trkpt lat="46.346567" lon="13.294636">
        <ele>622.149</ele>
        <time>2018-09-07T07:46:58Z</time>
      </trkpt>
      <trkpt lat="46.346577" lon="13.294591">
        <ele>621.113</ele>
        <time>2018-09-07T07:46:59Z</time>
      </trkpt>
      <trkpt lat="46.346560" lon="13.294552">
        <ele>620.608</ele>
        <time>2018-09-07T07:47:00Z</time>
      </trkpt>
      <trkpt lat="46.346526" lon="13.294529">
        <ele>619.727</ele>
        <time>2018-09-07T07:47:01Z</time>
      </trkpt>
      <trkpt lat="46.346481" lon="13.294522">
        <ele>618.789</ele>
        <time>2018-09-07T07:47:02Z</time>
      </trkpt>
      <trkpt lat="46.346428" lon="13.294523">
        <ele>618.255</ele>
        <time>2018-09-07T07:47:03Z</time>
      </trkpt>
      <trkpt lat="46.346365" lon="13.294527">
        <ele>617.752</ele>
        <time>2018-09-07T07:47:04Z</time>
      </trkpt>
      <trkpt lat="46.346306" lon="13.294524">
        <ele>617.373</ele>
        <time>2018-09-07T07:47:05Z</time>
      </trkpt>
      <trkpt lat="46.346254" lon="13.294496">
        <ele>616.831</ele>
        <time>2018-09-07T07:47:06Z</time>
      </trkpt>
      <trkpt lat="46.346227" lon="13.294433">
        <ele>616.818</ele>
        <time>2018-09-07T07:47:07Z</time>
      </trkpt>
      <trkpt lat="46.346220" lon="13.294354">
        <ele>616.831</ele>
        <time>2018-09-07T07:47:08Z</time>
      </trkpt>
      <trkpt lat="46.346225" lon="13.294277">
        <ele>616.374</ele>
        <time>2018-09-07T07:47:09Z</time>
      </trkpt>
      <trkpt lat="46.346236" lon="13.294209">
        <ele>615.856</ele>
        <time>2018-09-07T07:47:10Z</time>
      </trkpt>
      <trkpt lat="46.346251" lon="13.294151">
        <ele>614.421</ele>
        <time>2018-09-07T07:47:11Z</time>
      </trkpt>
      <trkpt lat="46.346268" lon="13.294100">
        <ele>612.508</ele>
        <time>2018-09-07T07:47:12Z</time>
      </trkpt>
      <trkpt lat="46.346290" lon="13.294052">
        <ele>611.551</ele>
        <time>2018-09-07T07:47:13Z</time>
      </trkpt>
      <trkpt lat="46.346321" lon="13.294010">
        <ele>610.083</ele>
        <time>2018-09-07T07:47:14Z</time>
      </trkpt>
      <trkpt lat="46.346358" lon="13.293972">
        <ele>609.189</ele>
        <time>2018-09-07T07:47:15Z</time>
      </trkpt>
      <trkpt lat="46.346446" lon="13.293883">
        <ele>607.656</ele>
        <time>2018-09-07T07:47:17Z</time>
      </trkpt>
      <trkpt lat="46.347170" lon="13.293379">
        <ele>602.477</ele>
        <time>2018-09-07T07:47:27Z</time>
      </trkpt>
      <trkpt lat="46.347363" lon="13.293293">
        <ele>601.465</ele>
        <time>2018-09-07T07:47:29Z</time>
      </trkpt>
      <trkpt lat="46.348423" lon="13.293047">
        <ele>597.612</ele>
        <time>2018-09-07T07:47:40Z</time>
      </trkpt>
      <trkpt lat="46.348581" lon="13.292985">
        <ele>596.175</ele>
        <time>2018-09-07T07:47:42Z</time>
      </trkpt>
      <trkpt lat="46.348650" lon="13.292940">
        <ele>596.141</ele>
        <time>2018-09-07T07:47:43Z</time>
      </trkpt>
      <trkpt lat="46.348929" lon="13.292777">
        <ele>591.881</ele>
        <time>2018-09-07T07:47:47Z</time>
      </trkpt>
      <trkpt lat="46.349000" lon="13.292766">
        <ele>590.309</ele>
        <time>2018-09-07T07:47:48Z</time>
      </trkpt>
      <trkpt lat="46.349080" lon="13.292764">
        <ele>589.408</ele>
        <time>2018-09-07T07:47:49Z</time>
      </trkpt>
      <trkpt lat="46.350105" lon="13.292817">
        <ele>570.648</ele>
        <time>2018-09-07T07:48:00Z</time>
      </trkpt>
      <trkpt lat="46.350184" lon="13.292857">
        <ele>569.220</ele>
        <time>2018-09-07T07:48:01Z</time>
      </trkpt>
      <trkpt lat="46.350259" lon="13.292923">
        <ele>567.826</ele>
        <time>2018-09-07T07:48:02Z</time>
      </trkpt>
      <trkpt lat="46.350336" lon="13.292990">
        <ele>566.343</ele>
        <time>2018-09-07T07:48:03Z</time>
      </trkpt>
      <trkpt lat="46.350420" lon="13.293040">
        <ele>564.934</ele>
        <time>2018-09-07T07:48:04Z</time>
      </trkpt>
      <trkpt lat="46.350516" lon="13.293066">
        <ele>563.492</ele>
        <time>2018-09-07T07:48:05Z</time>
      </trkpt>
      <trkpt lat="46.350619" lon="13.293077">
        <ele>562.569</ele>
        <time>2018-09-07T07:48:06Z</time>
      </trkpt>
      <trkpt lat="46.351031" lon="13.293174">
        <ele>559.112</ele>
        <time>2018-09-07T07:48:11Z</time>
      </trkpt>
      <trkpt lat="46.351109" lon="13.293176">
        <ele>558.676</ele>
        <time>2018-09-07T07:48:12Z</time>
      </trkpt>
      <trkpt lat="46.351187" lon="13.293159">
        <ele>558.190</ele>
        <time>2018-09-07T07:48:13Z</time>
      </trkpt>
      <trkpt lat="46.351418" lon="13.293091">
        <ele>556.719</ele>
        <time>2018-09-07T07:48:16Z</time>
      </trkpt>
      <trkpt lat="46.351494" lon="13.293084">
        <ele>556.208</ele>
        <time>2018-09-07T07:48:17Z</time>
      </trkpt>
      <trkpt lat="46.351568" lon="13.293095">
        <ele>555.711</ele>
        <time>2018-09-07T07:48:18Z</time>
      </trkpt>
      <trkpt lat="46.351638" lon="13.293119">
        <ele>555.763</ele>
        <time>2018-09-07T07:48:19Z</time>
      </trkpt>
      <trkpt lat="46.351703" lon="13.293156">
        <ele>555.389</ele>
        <time>2018-09-07T07:48:20Z</time>
      </trkpt>
      <trkpt lat="46.351764" lon="13.293199">
        <ele>555.366</ele>
        <time>2018-09-07T07:48:21Z</time>
      </trkpt>
      <trkpt lat="46.352135" lon="13.293432">
        <ele>555.347</ele>
        <time>2018-09-07T07:48:28Z</time>
      </trkpt>
      <trkpt lat="46.352183" lon="13.293446">
        <ele>555.365</ele>
        <time>2018-09-07T07:48:29Z</time>
      </trkpt>
      <trkpt lat="46.352275" lon="13.293471">
        <ele>555.372</ele>
        <time>2018-09-07T07:48:31Z</time>
      </trkpt>
      <trkpt lat="46.352452" lon="13.293546">
        <ele>554.315</ele>
        <time>2018-09-07T07:48:35Z</time>
      </trkpt>
      <trkpt lat="46.352498" lon="13.293573">
        <ele>554.371</ele>
        <time>2018-09-07T07:48:36Z</time>
      </trkpt>
      <trkpt lat="46.352681" lon="13.293717">
        <ele>552.941</ele>
        <time>2018-09-07T07:48:40Z</time>
      </trkpt>
      <trkpt lat="46.353014" lon="13.294111">
        <ele>551.915</ele>
        <time>2018-09-07T07:48:48Z</time>
      </trkpt>
      <trkpt lat="46.353057" lon="13.294151">
        <ele>551.408</ele>
        <time>2018-09-07T07:48:49Z</time>
      </trkpt>
      <trkpt lat="46.353585" lon="13.294496">
        <ele>549.541</ele>
        <time>2018-09-07T07:49:00Z</time>
      </trkpt>
      <trkpt lat="46.354570" lon="13.294775">
        <ele>542.833</ele>
        <time>2018-09-07T07:49:15Z</time>
      </trkpt>
      <trkpt lat="46.354730" lon="13.294792">
        <ele>541.349</ele>
        <time>2018-09-07T07:49:17Z</time>
      </trkpt>
      <trkpt lat="46.354815" lon="13.294788">
        <ele>540.436</ele>
        <time>2018-09-07T07:49:18Z</time>
      </trkpt>
      <trkpt lat="46.354903" lon="13.294773">
        <ele>539.967</ele>
        <time>2018-09-07T07:49:19Z</time>
      </trkpt>
      <trkpt lat="46.354993" lon="13.294745">
        <ele>538.975</ele>
        <time>2018-09-07T07:49:20Z</time>
      </trkpt>
      <trkpt lat="46.355082" lon="13.294707">
        <ele>537.942</ele>
        <time>2018-09-07T07:49:21Z</time>
      </trkpt>
      <trkpt lat="46.355723" lon="13.294371">
        <ele>533.645</ele>
        <time>2018-09-07T07:49:30Z</time>
      </trkpt>
      <trkpt lat="46.355769" lon="13.294368">
        <ele>533.137</ele>
        <time>2018-09-07T07:49:31Z</time>
      </trkpt>
      <trkpt lat="46.356065" lon="13.294429">
        <ele>530.349</ele>
        <time>2018-09-07T07:49:43Z</time>
      </trkpt>
      <trkpt lat="46.356243" lon="13.294605">
        <ele>529.813</ele>
        <time>2018-09-07T07:49:57Z</time>
      </trkpt>
      <trkpt lat="46.356256" lon="13.294608">
        <ele>529.808</ele>
        <time>2018-09-07T07:49:58Z</time>
      </trkpt>
      <trkpt lat="46.356270" lon="13.294612">
        <ele>529.847</ele>
        <time>2018-09-07T07:49:59Z</time>
      </trkpt>
      <trkpt lat="46.356282" lon="13.294615">
        <ele>529.339</ele>
        <time>2018-09-07T07:50:00Z</time>
      </trkpt>
      <trkpt lat="46.356297" lon="13.294619">
        <ele>528.815</ele>
        <time>2018-09-07T07:50:01Z</time>
      </trkpt>
      <trkpt lat="46.356318" lon="13.294644">
        <ele>529.362</ele>
        <time>2018-09-07T07:50:03Z</time>
      </trkpt>
      <trkpt lat="46.356323" lon="13.294662">
        <ele>529.343</ele>
        <time>2018-09-07T07:50:04Z</time>
      </trkpt>
      <trkpt lat="46.356328" lon="13.294681">
        <ele>529.371</ele>
        <time>2018-09-07T07:50:05Z</time>
      </trkpt>
      <trkpt lat="46.356340" lon="13.294697">
        <ele>529.338</ele>
        <time>2018-09-07T07:50:06Z</time>
      </trkpt>
      <trkpt lat="46.356359" lon="13.294716">
        <ele>529.391</ele>
        <time>2018-09-07T07:50:07Z</time>
      </trkpt>
      <trkpt lat="46.356380" lon="13.294742">
        <ele>529.349</ele>
        <time>2018-09-07T07:50:08Z</time>
      </trkpt>
      <trkpt lat="46.356442" lon="13.294797">
        <ele>528.802</ele>
        <time>2018-09-07T07:50:10Z</time>
      </trkpt>
      <trkpt lat="46.356483" lon="13.294813">
        <ele>528.822</ele>
        <time>2018-09-07T07:50:11Z</time>
      </trkpt>
      <trkpt lat="46.356531" lon="13.294821">
        <ele>528.308</ele>
        <time>2018-09-07T07:50:12Z</time>
      </trkpt>
      <trkpt lat="46.356583" lon="13.294825">
        <ele>527.968</ele>
        <time>2018-09-07T07:50:13Z</time>
      </trkpt>
      <trkpt lat="46.356640" lon="13.294826">
        <ele>527.470</ele>
        <time>2018-09-07T07:50:14Z</time>
      </trkpt>
      <trkpt lat="46.357415" lon="13.295011">
        <ele>519.736</ele>
        <time>2018-09-07T07:50:24Z</time>
      </trkpt>
      <trkpt lat="46.358444" lon="13.295637">
        <ele>510.653</ele>
        <time>2018-09-07T07:50:35Z</time>
      </trkpt>
      <trkpt lat="46.358537" lon="13.295676">
        <ele>509.624</ele>
        <time>2018-09-07T07:50:36Z</time>
      </trkpt>
      <trkpt lat="46.358636" lon="13.295685">
        <ele>508.622</ele>
        <time>2018-09-07T07:50:37Z</time>
      </trkpt>
      <trkpt lat="46.358738" lon="13.295659">
        <ele>507.749</ele>
        <time>2018-09-07T07:50:38Z</time>
      </trkpt>
      <trkpt lat="46.358845" lon="13.295604">
        <ele>506.292</ele>
        <time>2018-09-07T07:50:39Z</time>
      </trkpt>
      <trkpt lat="46.358949" lon="13.295544">
        <ele>505.359</ele>
        <time>2018-09-07T07:50:40Z</time>
      </trkpt>
      <trkpt lat="46.359061" lon="13.295493">
        <ele>504.303</ele>
        <time>2018-09-07T07:50:41Z</time>
      </trkpt>
      <trkpt lat="46.359176" lon="13.295460">
        <ele>502.923</ele>
        <time>2018-09-07T07:50:42Z</time>
      </trkpt>
      <trkpt lat="46.359289" lon="13.295443">
        <ele>501.908</ele>
        <time>2018-09-07T07:50:43Z</time>
      </trkpt>
      <trkpt lat="46.359400" lon="13.295445">
        <ele>500.519</ele>
        <time>2018-09-07T07:50:44Z</time>
      </trkpt>
      <trkpt lat="46.359511" lon="13.295473">
        <ele>499.061</ele>
        <time>2018-09-07T07:50:45Z</time>
      </trkpt>
      <trkpt lat="46.359620" lon="13.295532">
        <ele>497.697</ele>
        <time>2018-09-07T07:50:46Z</time>
      </trkpt>
      <trkpt lat="46.359726" lon="13.295616">
        <ele>496.114</ele>
        <time>2018-09-07T07:50:47Z</time>
      </trkpt>
      <trkpt lat="46.359823" lon="13.295710">
        <ele>494.745</ele>
        <time>2018-09-07T07:50:48Z</time>
      </trkpt>
      <trkpt lat="46.359925" lon="13.295806">
        <ele>493.743</ele>
        <time>2018-09-07T07:50:49Z</time>
      </trkpt>
      <trkpt lat="46.360036" lon="13.295894">
        <ele>492.310</ele>
        <time>2018-09-07T07:50:50Z</time>
      </trkpt>
      <trkpt lat="46.360150" lon="13.295973">
        <ele>490.843</ele>
        <time>2018-09-07T07:50:51Z</time>
      </trkpt>
      <trkpt lat="46.360997" lon="13.296339">
        <ele>481.295</ele>
        <time>2018-09-07T07:50:58Z</time>
      </trkpt>
      <trkpt lat="46.361104" lon="13.296395">
        <ele>480.349</ele>
        <time>2018-09-07T07:50:59Z</time>
      </trkpt>
      <trkpt lat="46.361199" lon="13.296464">
        <ele>478.823</ele>
        <time>2018-09-07T07:51:00Z</time>
      </trkpt>
      <trkpt lat="46.361291" lon="13.296526">
        <ele>477.908</ele>
        <time>2018-09-07T07:51:01Z</time>
      </trkpt>
      <trkpt lat="46.361389" lon="13.296567">
        <ele>476.983</ele>
        <time>2018-09-07T07:51:02Z</time>
      </trkpt>
      <trkpt lat="46.361492" lon="13.296593">
        <ele>475.955</ele>
        <time>2018-09-07T07:51:03Z</time>
      </trkpt>
      <trkpt lat="46.361597" lon="13.296623">
        <ele>474.551</ele>
        <time>2018-09-07T07:51:04Z</time>
      </trkpt>
      <trkpt lat="46.361703" lon="13.296675">
        <ele>473.558</ele>
        <time>2018-09-07T07:51:05Z</time>
      </trkpt>
      <trkpt lat="46.361809" lon="13.296744">
        <ele>472.149</ele>
        <time>2018-09-07T07:51:06Z</time>
      </trkpt>
      <trkpt lat="46.361920" lon="13.296821">
        <ele>471.127</ele>
        <time>2018-09-07T07:51:07Z</time>
      </trkpt>
      <trkpt lat="46.362629" lon="13.297366">
        <ele>461.084</ele>
        <time>2018-09-07T07:51:13Z</time>
      </trkpt>
      <trkpt lat="46.362733" lon="13.297480">
        <ele>459.137</ele>
        <time>2018-09-07T07:51:14Z</time>
      </trkpt>
      <trkpt lat="46.363383" lon="13.298208">
        <ele>447.161</ele>
        <time>2018-09-07T07:51:20Z</time>
      </trkpt>
      <trkpt lat="46.363496" lon="13.298269">
        <ele>445.221</ele>
        <time>2018-09-07T07:51:21Z</time>
      </trkpt>
      <trkpt lat="46.363612" lon="13.298295">
        <ele>443.313</ele>
        <time>2018-09-07T07:51:22Z</time>
      </trkpt>
      <trkpt lat="46.363724" lon="13.298284">
        <ele>441.308</ele>
        <time>2018-09-07T07:51:23Z</time>
      </trkpt>
      <trkpt lat="46.363836" lon="13.298246">
        <ele>439.430</ele>
        <time>2018-09-07T07:51:24Z</time>
      </trkpt>
      <trkpt lat="46.363950" lon="13.298200">
        <ele>437.542</ele>
        <time>2018-09-07T07:51:25Z</time>
      </trkpt>
      <trkpt lat="46.364345" lon="13.298000">
        <ele>432.228</ele>
        <time>2018-09-07T07:51:29Z</time>
      </trkpt>
      <trkpt lat="46.364421" lon="13.297922">
        <ele>431.245</ele>
        <time>2018-09-07T07:51:30Z</time>
      </trkpt>
      <trkpt lat="46.364485" lon="13.297828">
        <ele>430.326</ele>
        <time>2018-09-07T07:51:31Z</time>
      </trkpt>
      <trkpt lat="46.364541" lon="13.297713">
        <ele>429.334</ele>
        <time>2018-09-07T07:51:32Z</time>
      </trkpt>
      <trkpt lat="46.364586" lon="13.297586">
        <ele>428.471</ele>
        <time>2018-09-07T07:51:33Z</time>
      </trkpt>
      <trkpt lat="46.364625" lon="13.297450">
        <ele>427.984</ele>
        <time>2018-09-07T07:51:34Z</time>
      </trkpt>
      <trkpt lat="46.364660" lon="13.297310">
        <ele>426.973</ele>
        <time>2018-09-07T07:51:35Z</time>
      </trkpt>
      <trkpt lat="46.364702" lon="13.297177">
        <ele>426.085</ele>
        <time>2018-09-07T07:51:36Z</time>
      </trkpt>
      <trkpt lat="46.364757" lon="13.297053">
        <ele>425.013</ele>
        <time>2018-09-07T07:51:37Z</time>
      </trkpt>
      <trkpt lat="46.364823" lon="13.296938">
        <ele>424.008</ele>
        <time>2018-09-07T07:51:38Z</time>
      </trkpt>
      <trkpt lat="46.364902" lon="13.296838">
        <ele>423.641</ele>
        <time>2018-09-07T07:51:39Z</time>
      </trkpt>
      <trkpt lat="46.364992" lon="13.296750">
        <ele>422.673</ele>
        <time>2018-09-07T07:51:40Z</time>
      </trkpt>
      <trkpt lat="46.365087" lon="13.296670">
        <ele>421.689</ele>
        <time>2018-09-07T07:51:41Z</time>
      </trkpt>
      <trkpt lat="46.365187" lon="13.296596">
        <ele>420.786</ele>
        <time>2018-09-07T07:51:42Z</time>
      </trkpt>
      <trkpt lat="46.365484" lon="13.296387">
        <ele>418.317</ele>
        <time>2018-09-07T07:51:45Z</time>
      </trkpt>
      <trkpt lat="46.365589" lon="13.296340">
        <ele>417.875</ele>
        <time>2018-09-07T07:51:46Z</time>
      </trkpt>
      <trkpt lat="46.365695" lon="13.296306">
        <ele>416.852</ele>
        <time>2018-09-07T07:51:47Z</time>
      </trkpt>
      <trkpt lat="46.365804" lon="13.296287">
        <ele>416.325</ele>
        <time>2018-09-07T07:51:48Z</time>
      </trkpt>
      <trkpt lat="46.365915" lon="13.296278">
        <ele>415.421</ele>
        <time>2018-09-07T07:51:49Z</time>
      </trkpt>
      <trkpt lat="46.366028" lon="13.296272">
        <ele>414.441</ele>
        <time>2018-09-07T07:51:50Z</time>
      </trkpt>
      <trkpt lat="46.366948" lon="13.296029">
        <ele>407.205</ele>
        <time>2018-09-07T07:51:58Z</time>
      </trkpt>
      <trkpt lat="46.367064" lon="13.296007">
        <ele>406.208</ele>
        <time>2018-09-07T07:51:59Z</time>
      </trkpt>
      <trkpt lat="46.367406" lon="13.295966">
        <ele>403.896</ele>
        <time>2018-09-07T07:52:02Z</time>
      </trkpt>
      <trkpt lat="46.367511" lon="13.295917">
        <ele>402.958</ele>
        <time>2018-09-07T07:52:03Z</time>
      </trkpt>
      <trkpt lat="46.367606" lon="13.295843">
        <ele>401.994</ele>
        <time>2018-09-07T07:52:04Z</time>
      </trkpt>
      <trkpt lat="46.367696" lon="13.295755">
        <ele>401.491</ele>
        <time>2018-09-07T07:52:05Z</time>
      </trkpt>
      <trkpt lat="46.367782" lon="13.295669">
        <ele>401.052</ele>
        <time>2018-09-07T07:52:06Z</time>
      </trkpt>
      <trkpt lat="46.368351" lon="13.295169">
        <ele>398.620</ele>
        <time>2018-09-07T07:52:13Z</time>
      </trkpt>
      <trkpt lat="46.368432" lon="13.295123">
        <ele>398.657</ele>
        <time>2018-09-07T07:52:14Z</time>
      </trkpt>
      <trkpt lat="46.368777" lon="13.295006">
        <ele>397.610</ele>
        <time>2018-09-07T07:52:18Z</time>
      </trkpt>
      <trkpt lat="46.368873" lon="13.295005">
        <ele>397.175</ele>
        <time>2018-09-07T07:52:19Z</time>
      </trkpt>
      <trkpt lat="46.368972" lon="13.295019">
        <ele>396.628</ele>
        <time>2018-09-07T07:52:20Z</time>
      </trkpt>
      <trkpt lat="46.369712" lon="13.295060">
        <ele>391.820</ele>
        <time>2018-09-07T07:52:27Z</time>
      </trkpt>
      <trkpt lat="46.369798" lon="13.295019">
        <ele>391.308</ele>
        <time>2018-09-07T07:52:28Z</time>
      </trkpt>
      <trkpt lat="46.369878" lon="13.294956">
        <ele>390.411</ele>
        <time>2018-09-07T07:52:29Z</time>
      </trkpt>
      <trkpt lat="46.369946" lon="13.294880">
        <ele>389.443</ele>
        <time>2018-09-07T07:52:30Z</time>
      </trkpt>
      <trkpt lat="46.369998" lon="13.294805">
        <ele>388.589</ele>
        <time>2018-09-07T07:52:31Z</time>
      </trkpt>
      <trkpt lat="46.370035" lon="13.294736">
        <ele>387.516</ele>
        <time>2018-09-07T07:52:32Z</time>
      </trkpt>
      <trkpt lat="46.370058" lon="13.294678">
        <ele>387.097</ele>
        <time>2018-09-07T07:52:33Z</time>
      </trkpt>
      <trkpt lat="46.370063" lon="13.294651">
        <ele>386.115</ele>
        <time>2018-09-07T07:52:34Z</time>
      </trkpt>
      <trkpt lat="46.370064" lon="13.294633">
        <ele>386.192</ele>
        <time>2018-09-07T07:52:35Z</time>
      </trkpt>
      <trkpt lat="46.370074" lon="13.294619">
        <ele>385.145</ele>
        <time>2018-09-07T07:52:37Z</time>
      </trkpt>
      <trkpt lat="46.370089" lon="13.294610">
        <ele>384.693</ele>
        <time>2018-09-07T07:52:38Z</time>
      </trkpt>
      <trkpt lat="46.370104" lon="13.294598">
        <ele>384.165</ele>
        <time>2018-09-07T07:52:39Z</time>
      </trkpt>
      <trkpt lat="46.370126" lon="13.294582">
        <ele>383.721</ele>
        <time>2018-09-07T07:52:40Z</time>
      </trkpt>
      <trkpt lat="46.370148" lon="13.294555">
        <ele>383.708</ele>
        <time>2018-09-07T07:52:41Z</time>
      </trkpt>
      <trkpt lat="46.370174" lon="13.294518">
        <ele>383.763</ele>
        <time>2018-09-07T07:52:42Z</time>
      </trkpt>
      <trkpt lat="46.370232" lon="13.294443">
        <ele>383.795</ele>
        <time>2018-09-07T07:52:44Z</time>
      </trkpt>
      <trkpt lat="46.370270" lon="13.294405">
        <ele>383.211</ele>
        <time>2018-09-07T07:52:45Z</time>
      </trkpt>
      <trkpt lat="46.370314" lon="13.294376">
        <ele>383.238</ele>
        <time>2018-09-07T07:52:46Z</time>
      </trkpt>
      <trkpt lat="46.370694" lon="13.294032">
        <ele>383.779</ele>
        <time>2018-09-07T07:52:58Z</time>
      </trkpt>
      <trkpt lat="46.370719" lon="13.293527">
        <ele>385.167</ele>
        <time>2018-09-07T07:53:09Z</time>
      </trkpt>
      <trkpt lat="46.370896" lon="13.292881">
        <ele>384.624</ele>
        <time>2018-09-07T07:53:22Z</time>
      </trkpt>
      <trkpt lat="46.371168" lon="13.292158">
        <ele>384.197</ele>
        <time>2018-09-07T07:53:39Z</time>
      </trkpt>
      <trkpt lat="46.371383" lon="13.291588">
        <ele>383.778</ele>
        <time>2018-09-07T07:53:52Z</time>
      </trkpt>
      <trkpt lat="46.371613" lon="13.290839">
        <ele>383.233</ele>
        <time>2018-09-07T07:54:07Z</time>
      </trkpt>
      <trkpt lat="46.371820" lon="13.290083">
        <ele>384.626</ele>
        <time>2018-09-07T07:54:22Z</time>
      </trkpt>
      <trkpt lat="46.372168" lon="13.289441">
        <ele>384.108</ele>
        <time>2018-09-07T07:54:38Z</time>
      </trkpt>
      <trkpt lat="46.372545" lon="13.288851">
        <ele>384.151</ele>
        <time>2018-09-07T07:54:53Z</time>
      </trkpt>
      <trkpt lat="46.372997" lon="13.288204">
        <ele>384.143</ele>
        <time>2018-09-07T07:55:09Z</time>
      </trkpt>
      <trkpt lat="46.373463" lon="13.287297">
        <ele>383.279</ele>
        <time>2018-09-07T07:55:24Z</time>
      </trkpt>
      <trkpt lat="46.373835" lon="13.285745">
        <ele>378.946</ele>
        <time>2018-09-07T07:55:39Z</time>
      </trkpt>
      <trkpt lat="46.373879" lon="13.284166">
        <ele>375.077</ele>
        <time>2018-09-07T07:55:52Z</time>
      </trkpt>
      <trkpt lat="46.373852" lon="13.282554">
        <ele>373.675</ele>
        <time>2018-09-07T07:56:07Z</time>
      </trkpt>
      <trkpt lat="46.374181" lon="13.281239">
        <ele>370.792</ele>
        <time>2018-09-07T07:56:21Z</time>
      </trkpt>
      <trkpt lat="46.374221" lon="13.281158">
        <ele>370.795</ele>
        <time>2018-09-07T07:56:22Z</time>
      </trkpt>
      <trkpt lat="46.374266" lon="13.281081">
        <ele>370.764</ele>
        <time>2018-09-07T07:56:23Z</time>
      </trkpt>
      <trkpt lat="46.374315" lon="13.281011">
        <ele>370.206</ele>
        <time>2018-09-07T07:56:24Z</time>
      </trkpt>
      <trkpt lat="46.374367" lon="13.280949">
        <ele>370.216</ele>
        <time>2018-09-07T07:56:25Z</time>
      </trkpt>
      <trkpt lat="46.374422" lon="13.280893">
        <ele>370.208</ele>
        <time>2018-09-07T07:56:26Z</time>
      </trkpt>
      <trkpt lat="46.374480" lon="13.280843">
        <ele>369.720</ele>
        <time>2018-09-07T07:56:27Z</time>
      </trkpt>
      <trkpt lat="46.374535" lon="13.280804">
        <ele>369.792</ele>
        <time>2018-09-07T07:56:28Z</time>
      </trkpt>
      <trkpt lat="46.374591" lon="13.280766">
        <ele>369.798</ele>
        <time>2018-09-07T07:56:29Z</time>
      </trkpt>
      <trkpt lat="46.375439" lon="13.280208">
        <ele>370.795</ele>
        <time>2018-09-07T07:56:47Z</time>
      </trkpt>
      <trkpt lat="46.375991" lon="13.279729">
        <ele>371.626</ele>
        <time>2018-09-07T07:57:04Z</time>
      </trkpt>
      <trkpt lat="46.376381" lon="13.279459">
        <ele>374.514</ele>
        <time>2018-09-07T07:57:20Z</time>
      </trkpt>
      <trkpt lat="46.376737" lon="13.279227">
        <ele>377.441</ele>
        <time>2018-09-07T07:57:35Z</time>
      </trkpt>
      <trkpt lat="46.376845" lon="13.278786">
        <ele>377.954</ele>
        <time>2018-09-07T07:57:44Z</time>
      </trkpt>
      <trkpt lat="46.376955" lon="13.277793">
        <ele>377.486</ele>
        <time>2018-09-07T07:58:00Z</time>
      </trkpt>
      <trkpt lat="46.376991" lon="13.276984">
        <ele>376.960</ele>
        <time>2018-09-07T07:58:12Z</time>
      </trkpt>
      <trkpt lat="46.376983" lon="13.276919">
        <ele>376.926</ele>
        <time>2018-09-07T07:58:13Z</time>
      </trkpt>
      <trkpt lat="46.376940" lon="13.276718">
        <ele>376.908</ele>
        <time>2018-09-07T07:58:16Z</time>
      </trkpt>
      <trkpt lat="46.376714" lon="13.275636">
        <ele>376.012</ele>
        <time>2018-09-07T07:58:31Z</time>
      </trkpt>
      <trkpt lat="46.376742" lon="13.274462">
        <ele>375.024</ele>
        <time>2018-09-07T07:58:47Z</time>
      </trkpt>
      <trkpt lat="46.376855" lon="13.273699">
        <ele>374.520</ele>
        <time>2018-09-07T07:58:57Z</time>
      </trkpt>
      <trkpt lat="46.377237" lon="13.272831">
        <ele>372.127</ele>
        <time>2018-09-07T07:59:10Z</time>
      </trkpt>
      <trkpt lat="46.377282" lon="13.272760">
        <ele>371.648</ele>
        <time>2018-09-07T07:59:11Z</time>
      </trkpt>
      <trkpt lat="46.377327" lon="13.272695">
        <ele>371.646</ele>
        <time>2018-09-07T07:59:12Z</time>
      </trkpt>
      <trkpt lat="46.378213" lon="13.271888">
        <ele>369.283</ele>
        <time>2018-09-07T07:59:28Z</time>
      </trkpt>
      <trkpt lat="46.378527" lon="13.271614">
        <ele>368.326</ele>
        <time>2018-09-07T07:59:34Z</time>
      </trkpt>
      <trkpt lat="46.378575" lon="13.271551">
        <ele>368.331</ele>
        <time>2018-09-07T07:59:35Z</time>
      </trkpt>
      <trkpt lat="46.378619" lon="13.271487">
        <ele>368.361</ele>
        <time>2018-09-07T07:59:36Z</time>
      </trkpt>
      <trkpt lat="46.379130" lon="13.270432">
        <ele>366.807</ele>
        <time>2018-09-07T07:59:51Z</time>
      </trkpt>
      <trkpt lat="46.379426" lon="13.269756">
        <ele>365.408</ele>
        <time>2018-09-07T08:00:01Z</time>
      </trkpt>
      <trkpt lat="46.379447" lon="13.269686">
        <ele>365.427</ele>
        <time>2018-09-07T08:00:02Z</time>
      </trkpt>
      <trkpt lat="46.379463" lon="13.269612">
        <ele>365.459</ele>
        <time>2018-09-07T08:00:03Z</time>
      </trkpt>
      <trkpt lat="46.379553" lon="13.269071">
        <ele>364.995</ele>
        <time>2018-09-07T08:00:10Z</time>
      </trkpt>
      <trkpt lat="46.379750" lon="13.267812">
        <ele>368.382</ele>
        <time>2018-09-07T08:00:29Z</time>
      </trkpt>
      <trkpt lat="46.379558" lon="13.267036">
        <ele>371.243</ele>
        <time>2018-09-07T08:00:44Z</time>
      </trkpt>
      <trkpt lat="46.379538" lon="13.266337">
        <ele>371.231</ele>
        <time>2018-09-07T08:00:56Z</time>
      </trkpt>
      <trkpt lat="46.379552" lon="13.266073">
        <ele>371.678</ele>
        <time>2018-09-07T08:01:00Z</time>
      </trkpt>
      <trkpt lat="46.379546" lon="13.266005">
        <ele>371.621</ele>
        <time>2018-09-07T08:01:01Z</time>
      </trkpt>
      <trkpt lat="46.379535" lon="13.265938">
        <ele>371.668</ele>
        <time>2018-09-07T08:01:02Z</time>
      </trkpt>
      <trkpt lat="46.379518" lon="13.265870">
        <ele>371.642</ele>
        <time>2018-09-07T08:01:03Z</time>
      </trkpt>
      <trkpt lat="46.379500" lon="13.265803">
        <ele>371.626</ele>
        <time>2018-09-07T08:01:04Z</time>
      </trkpt>
      <trkpt lat="46.379481" lon="13.265731">
        <ele>371.608</ele>
        <time>2018-09-07T08:01:05Z</time>
      </trkpt>
      <trkpt lat="46.379464" lon="13.265649">
        <ele>371.240</ele>
        <time>2018-09-07T08:01:06Z</time>
      </trkpt>
      <trkpt lat="46.379306" lon="13.264987">
        <ele>368.892</ele>
        <time>2018-09-07T08:01:13Z</time>
      </trkpt>
      <trkpt lat="46.379293" lon="13.264880">
        <ele>368.858</ele>
        <time>2018-09-07T08:01:14Z</time>
      </trkpt>
      <trkpt lat="46.379194" lon="13.263652">
        <ele>367.395</ele>
        <time>2018-09-07T08:01:27Z</time>
      </trkpt>
      <trkpt lat="46.379077" lon="13.262547">
        <ele>368.346</ele>
        <time>2018-09-07T08:01:40Z</time>
      </trkpt>
      <trkpt lat="46.378899" lon="13.260840">
        <ele>364.924</ele>
        <time>2018-09-07T08:01:58Z</time>
      </trkpt>
      <trkpt lat="46.379070" lon="13.259560">
        <ele>361.521</ele>
        <time>2018-09-07T08:02:12Z</time>
      </trkpt>
      <trkpt lat="46.379252" lon="13.258280">
        <ele>359.684</ele>
        <time>2018-09-07T08:02:26Z</time>
      </trkpt>
      <trkpt lat="46.379289" lon="13.256865">
        <ele>358.295</ele>
        <time>2018-09-07T08:02:42Z</time>
      </trkpt>
      <trkpt lat="46.379259" lon="13.256146">
        <ele>358.249</ele>
        <time>2018-09-07T08:02:50Z</time>
      </trkpt>
      <trkpt lat="46.379267" lon="13.256054">
        <ele>358.223</ele>
        <time>2018-09-07T08:02:51Z</time>
      </trkpt>
      <trkpt lat="46.379485" lon="13.254054">
        <ele>355.308</ele>
        <time>2018-09-07T08:03:13Z</time>
      </trkpt>
      <trkpt lat="46.379602" lon="13.252791">
        <ele>353.933</ele>
        <time>2018-09-07T08:03:27Z</time>
      </trkpt>
      <trkpt lat="46.379812" lon="13.252120">
        <ele>353.975</ele>
        <time>2018-09-07T08:03:36Z</time>
      </trkpt>
      <trkpt lat="46.380071" lon="13.250881">
        <ele>353.481</ele>
        <time>2018-09-07T08:03:54Z</time>
      </trkpt>
      <trkpt lat="46.380332" lon="13.249789">
        <ele>355.838</ele>
        <time>2018-09-07T08:04:12Z</time>
      </trkpt>
      <trkpt lat="46.380395" lon="13.248955">
        <ele>358.749</ele>
        <time>2018-09-07T08:04:27Z</time>
      </trkpt>
      <trkpt lat="46.380492" lon="13.247855">
        <ele>354.867</ele>
        <time>2018-09-07T08:04:42Z</time>
      </trkpt>
      <trkpt lat="46.380434" lon="13.246815">
        <ele>352.474</ele>
        <time>2018-09-07T08:04:53Z</time>
      </trkpt>
      <trkpt lat="46.380437" lon="13.246726">
        <ele>352.467</ele>
        <time>2018-09-07T08:04:54Z</time>
      </trkpt>
      <trkpt lat="46.380444" lon="13.246640">
        <ele>352.454</ele>
        <time>2018-09-07T08:04:55Z</time>
      </trkpt>
      <trkpt lat="46.380456" lon="13.246556">
        <ele>352.456</ele>
        <time>2018-09-07T08:04:56Z</time>
      </trkpt>
      <trkpt lat="46.380475" lon="13.246478">
        <ele>352.411</ele>
        <time>2018-09-07T08:04:57Z</time>
      </trkpt>
      <trkpt lat="46.380496" lon="13.246404">
        <ele>352.408</ele>
        <time>2018-09-07T08:04:58Z</time>
      </trkpt>
      <trkpt lat="46.380866" lon="13.245303">
        <ele>352.469</ele>
        <time>2018-09-07T08:05:16Z</time>
      </trkpt>
      <trkpt lat="46.380885" lon="13.245244">
        <ele>351.961</ele>
        <time>2018-09-07T08:05:17Z</time>
      </trkpt>
      <trkpt lat="46.380903" lon="13.245183">
        <ele>351.977</ele>
        <time>2018-09-07T08:05:18Z</time>
      </trkpt>
      <trkpt lat="46.381143" lon="13.244459">
        <ele>349.134</ele>
        <time>2018-09-07T08:05:32Z</time>
      </trkpt>
      <trkpt lat="46.381199" lon="13.244276">
        <ele>347.695</ele>
        <time>2018-09-07T08:05:42Z</time>
      </trkpt>
      <trkpt lat="46.381264" lon="13.244069">
        <ele>347.183</ele>
        <time>2018-09-07T08:05:53Z</time>
      </trkpt>
      <trkpt lat="46.381444" lon="13.243555">
        <ele>346.280</ele>
        <time>2018-09-07T08:06:04Z</time>
      </trkpt>
      <trkpt lat="46.381607" lon="13.242594">
        <ele>345.223</ele>
        <time>2018-09-07T08:06:20Z</time>
      </trkpt>
      <trkpt lat="46.381633" lon="13.241294">
        <ele>344.287</ele>
        <time>2018-09-07T08:06:37Z</time>
      </trkpt>
      <trkpt lat="46.381658" lon="13.240376">
        <ele>343.342</ele>
        <time>2018-09-07T08:06:47Z</time>
      </trkpt>
      <trkpt lat="46.381720" lon="13.240026">
        <ele>343.326</ele>
        <time>2018-09-07T08:06:51Z</time>
      </trkpt>
      <trkpt lat="46.382118" lon="13.239131">
        <ele>344.708</ele>
        <time>2018-09-07T08:07:05Z</time>
      </trkpt>
      <trkpt lat="46.382661" lon="13.237912">
        <ele>345.272</ele>
        <time>2018-09-07T08:07:25Z</time>
      </trkpt>
      <trkpt lat="46.383182" lon="13.236470">
        <ele>341.854</ele>
        <time>2018-09-07T08:07:44Z</time>
      </trkpt>
      <trkpt lat="46.383655" lon="13.235232">
        <ele>340.990</ele>
        <time>2018-09-07T08:08:01Z</time>
      </trkpt>
      <trkpt lat="46.383905" lon="13.234645">
        <ele>341.887</ele>
        <time>2018-09-07T08:08:11Z</time>
      </trkpt>
      <trkpt lat="46.384261" lon="13.233614">
        <ele>342.358</ele>
        <time>2018-09-07T08:08:29Z</time>
      </trkpt>
      <trkpt lat="46.384438" lon="13.232512">
        <ele>340.456</ele>
        <time>2018-09-07T08:08:43Z</time>
      </trkpt>
      <trkpt lat="46.384910" lon="13.231333">
        <ele>341.423</ele>
        <time>2018-09-07T08:09:00Z</time>
      </trkpt>
      <trkpt lat="46.385023" lon="13.231121">
        <ele>341.886</ele>
        <time>2018-09-07T08:09:04Z</time>
      </trkpt>
      <trkpt lat="46.385045" lon="13.231073">
        <ele>341.839</ele>
        <time>2018-09-07T08:09:05Z</time>
      </trkpt>
      <trkpt lat="46.385128" lon="13.230845">
        <ele>341.801</ele>
        <time>2018-09-07T08:09:09Z</time>
      </trkpt>
      <trkpt lat="46.385142" lon="13.230782">
        <ele>341.821</ele>
        <time>2018-09-07T08:09:10Z</time>
      </trkpt>
      <trkpt lat="46.385169" lon="13.230600">
        <ele>342.308</ele>
        <time>2018-09-07T08:09:13Z</time>
      </trkpt>
      <trkpt lat="46.385175" lon="13.230535">
        <ele>342.317</ele>
        <time>2018-09-07T08:09:14Z</time>
      </trkpt>
      <trkpt lat="46.385287" lon="13.229754">
        <ele>345.729</ele>
        <time>2018-09-07T08:09:30Z</time>
      </trkpt>
      <trkpt lat="46.385560" lon="13.229098">
        <ele>348.625</ele>
        <time>2018-09-07T08:09:46Z</time>
      </trkpt>
      <trkpt lat="46.385955" lon="13.228302">
        <ele>350.022</ele>
        <time>2018-09-07T08:10:04Z</time>
      </trkpt>
      <trkpt lat="46.386392" lon="13.227325">
        <ele>347.623</ele>
        <time>2018-09-07T08:10:22Z</time>
      </trkpt>
      <trkpt lat="46.386414" lon="13.227264">
        <ele>347.661</ele>
        <time>2018-09-07T08:10:23Z</time>
      </trkpt>
      <trkpt lat="46.386905" lon="13.226343">
        <ele>348.128</ele>
        <time>2018-09-07T08:10:40Z</time>
      </trkpt>
      <trkpt lat="46.386934" lon="13.226298">
        <ele>348.141</ele>
        <time>2018-09-07T08:10:41Z</time>
      </trkpt>
      <trkpt lat="46.387249" lon="13.225867">
        <ele>348.149</ele>
        <time>2018-09-07T08:10:51Z</time>
      </trkpt>
      <trkpt lat="46.387951" lon="13.225189">
        <ele>350.502</ele>
        <time>2018-09-07T08:11:08Z</time>
      </trkpt>
      <trkpt lat="46.388225" lon="13.225057">
        <ele>350.522</ele>
        <time>2018-09-07T08:11:13Z</time>
      </trkpt>
      <trkpt lat="46.389202" lon="13.224996">
        <ele>347.608</ele>
        <time>2018-09-07T08:11:30Z</time>
      </trkpt>
      <trkpt lat="46.389532" lon="13.225009">
        <ele>347.138</ele>
        <time>2018-09-07T08:11:36Z</time>
      </trkpt>
      <trkpt lat="46.389580" lon="13.224994">
        <ele>347.650</ele>
        <time>2018-09-07T08:11:37Z</time>
      </trkpt>
      <trkpt lat="46.389637" lon="13.224969">
        <ele>347.156</ele>
        <time>2018-09-07T08:11:38Z</time>
      </trkpt>
      <trkpt lat="46.389683" lon="13.224938">
        <ele>347.193</ele>
        <time>2018-09-07T08:11:39Z</time>
      </trkpt>
      <trkpt lat="46.389730" lon="13.224896">
        <ele>347.174</ele>
        <time>2018-09-07T08:11:40Z</time>
      </trkpt>
      <trkpt lat="46.389774" lon="13.224846">
        <ele>347.162</ele>
        <time>2018-09-07T08:11:41Z</time>
      </trkpt>
      <trkpt lat="46.389815" lon="13.224792">
        <ele>347.119</ele>
        <time>2018-09-07T08:11:42Z</time>
      </trkpt>
      <trkpt lat="46.389854" lon="13.224731">
        <ele>346.612</ele>
        <time>2018-09-07T08:11:43Z</time>
      </trkpt>
      <trkpt lat="46.389889" lon="13.224663">
        <ele>346.658</ele>
        <time>2018-09-07T08:11:44Z</time>
      </trkpt>
      <trkpt lat="46.389920" lon="13.224591">
        <ele>346.652</ele>
        <time>2018-09-07T08:11:45Z</time>
      </trkpt>
      <trkpt lat="46.390091" lon="13.224035">
        <ele>344.217</ele>
        <time>2018-09-07T08:11:52Z</time>
      </trkpt>
      <trkpt lat="46.390099" lon="13.223949">
        <ele>343.808</ele>
        <time>2018-09-07T08:11:53Z</time>
      </trkpt>
      <trkpt lat="46.390099" lon="13.223861">
        <ele>343.839</ele>
        <time>2018-09-07T08:11:54Z</time>
      </trkpt>
      <trkpt lat="46.390091" lon="13.223772">
        <ele>343.371</ele>
        <time>2018-09-07T08:11:55Z</time>
      </trkpt>
      <trkpt lat="46.390077" lon="13.223682">
        <ele>343.317</ele>
        <time>2018-09-07T08:11:56Z</time>
      </trkpt>
      <trkpt lat="46.390059" lon="13.223593">
        <ele>342.884</ele>
        <time>2018-09-07T08:11:57Z</time>
      </trkpt>
      <trkpt lat="46.389679" lon="13.221920">
        <ele>336.625</ele>
        <time>2018-09-07T08:12:14Z</time>
      </trkpt>
      <trkpt lat="46.389651" lon="13.221819">
        <ele>336.123</ele>
        <time>2018-09-07T08:12:15Z</time>
      </trkpt>
      <trkpt lat="46.389614" lon="13.221728">
        <ele>335.670</ele>
        <time>2018-09-07T08:12:16Z</time>
      </trkpt>
      <trkpt lat="46.389569" lon="13.221644">
        <ele>335.623</ele>
        <time>2018-09-07T08:12:17Z</time>
      </trkpt>
      <trkpt lat="46.389516" lon="13.221572">
        <ele>335.175</ele>
        <time>2018-09-07T08:12:18Z</time>
      </trkpt>
      <trkpt lat="46.389461" lon="13.221504">
        <ele>334.628</ele>
        <time>2018-09-07T08:12:19Z</time>
      </trkpt>
      <trkpt lat="46.389408" lon="13.221432">
        <ele>334.220</ele>
        <time>2018-09-07T08:12:20Z</time>
      </trkpt>
      <trkpt lat="46.389302" lon="13.221297">
        <ele>333.708</ele>
        <time>2018-09-07T08:12:22Z</time>
      </trkpt>
      <trkpt lat="46.389241" lon="13.221247">
        <ele>333.741</ele>
        <time>2018-09-07T08:12:23Z</time>
      </trkpt>
      <trkpt lat="46.389058" lon="13.221124">
        <ele>332.753</ele>
        <time>2018-09-07T08:12:26Z</time>
      </trkpt>
      <trkpt lat="46.389003" lon="13.221069">
        <ele>332.719</ele>
        <time>2018-09-07T08:12:27Z</time>
      </trkpt>
      <trkpt lat="46.388956" lon="13.221000">
        <ele>332.246</ele>
        <time>2018-09-07T08:12:28Z</time>
      </trkpt>
      <trkpt lat="46.388913" lon="13.220911">
        <ele>331.797</ele>
        <time>2018-09-07T08:12:29Z</time>
      </trkpt>
      <trkpt lat="46.388888" lon="13.220832">
        <ele>331.795</ele>
        <time>2018-09-07T08:12:30Z</time>
      </trkpt>
      <trkpt lat="46.388871" lon="13.220741">
        <ele>331.392</ele>
        <time>2018-09-07T08:12:31Z</time>
      </trkpt>
      <trkpt lat="46.388862" lon="13.220650">
        <ele>331.375</ele>
        <time>2018-09-07T08:12:32Z</time>
      </trkpt>
      <trkpt lat="46.388858" lon="13.220558">
        <ele>330.896</ele>
        <time>2018-09-07T08:12:33Z</time>
      </trkpt>
      <trkpt lat="46.388859" lon="13.220468">
        <ele>330.331</ele>
        <time>2018-09-07T08:12:34Z</time>
      </trkpt>
      <trkpt lat="46.388869" lon="13.220379">
        <ele>330.324</ele>
        <time>2018-09-07T08:12:35Z</time>
      </trkpt>
      <trkpt lat="46.388882" lon="13.220289">
        <ele>330.308</ele>
        <time>2018-09-07T08:12:36Z</time>
      </trkpt>
      <trkpt lat="46.388898" lon="13.220201">
        <ele>330.333</ele>
        <time>2018-09-07T08:12:37Z</time>
      </trkpt>
      <trkpt lat="46.388920" lon="13.220118">
        <ele>329.855</ele>
        <time>2018-09-07T08:12:38Z</time>
      </trkpt>
      <trkpt lat="46.388972" lon="13.219954">
        <ele>329.331</ele>
        <time>2018-09-07T08:12:40Z</time>
      </trkpt>
      <trkpt lat="46.389002" lon="13.219869">
        <ele>328.958</ele>
        <time>2018-09-07T08:12:41Z</time>
      </trkpt>
      <trkpt lat="46.389030" lon="13.219773">
        <ele>328.479</ele>
        <time>2018-09-07T08:12:42Z</time>
      </trkpt>
      <trkpt lat="46.389154" lon="13.219025">
        <ele>325.547</ele>
        <time>2018-09-07T08:12:49Z</time>
      </trkpt>
      <trkpt lat="46.389188" lon="13.218913">
        <ele>325.574</ele>
        <time>2018-09-07T08:12:50Z</time>
      </trkpt>
      <trkpt lat="46.389230" lon="13.218805">
        <ele>325.067</ele>
        <time>2018-09-07T08:12:51Z</time>
      </trkpt>
      <trkpt lat="46.389283" lon="13.218711">
        <ele>324.568</ele>
        <time>2018-09-07T08:12:52Z</time>
      </trkpt>
      <trkpt lat="46.389343" lon="13.218627">
        <ele>324.542</ele>
        <time>2018-09-07T08:12:53Z</time>
      </trkpt>
      <trkpt lat="46.389408" lon="13.218552">
        <ele>324.526</ele>
        <time>2018-09-07T08:12:54Z</time>
      </trkpt>
      <trkpt lat="46.389471" lon="13.218488">
        <ele>324.508</ele>
        <time>2018-09-07T08:12:55Z</time>
      </trkpt>
      <trkpt lat="46.390193" lon="13.217975">
        <ele>324.130</ele>
        <time>2018-09-07T08:13:07Z</time>
      </trkpt>
      <trkpt lat="46.390243" lon="13.217956">
        <ele>323.622</ele>
        <time>2018-09-07T08:13:08Z</time>
      </trkpt>
      <trkpt lat="46.390517" lon="13.217900">
        <ele>323.158</ele>
        <time>2018-09-07T08:13:13Z</time>
      </trkpt>
      <trkpt lat="46.391436" lon="13.217924">
        <ele>322.145</ele>
        <time>2018-09-07T08:13:28Z</time>
      </trkpt>
      <trkpt lat="46.392110" lon="13.217999">
        <ele>322.156</ele>
        <time>2018-09-07T08:13:42Z</time>
      </trkpt>
      <trkpt lat="46.392732" lon="13.218094">
        <ele>323.114</ele>
        <time>2018-09-07T08:13:57Z</time>
      </trkpt>
      <trkpt lat="46.393048" lon="13.218211">
        <ele>322.111</ele>
        <time>2018-09-07T08:14:06Z</time>
      </trkpt>
      <trkpt lat="46.393081" lon="13.218472">
        <ele>322.194</ele>
        <time>2018-09-07T08:14:17Z</time>
      </trkpt>
      <trkpt lat="46.393087" lon="13.218514">
        <ele>321.769</ele>
        <time>2018-09-07T08:14:19Z</time>
      </trkpt>
      <trkpt lat="46.393095" lon="13.218531">
        <ele>321.704</ele>
        <time>2018-09-07T08:14:20Z</time>
      </trkpt>
      <trkpt lat="46.393103" lon="13.218547">
        <ele>321.724</ele>
        <time>2018-09-07T08:14:21Z</time>
      </trkpt>
      <trkpt lat="46.393104" lon="13.218569">
        <ele>321.708</ele>
        <time>2018-09-07T08:14:22Z</time>
      </trkpt>
      <trkpt lat="46.393096" lon="13.218591">
        <ele>321.230</ele>
        <time>2018-09-07T08:14:23Z</time>
      </trkpt>
      <trkpt lat="46.393084" lon="13.218617">
        <ele>321.272</ele>
        <time>2018-09-07T08:14:24Z</time>
      </trkpt>
      <trkpt lat="46.393071" lon="13.218641">
        <ele>321.288</ele>
        <time>2018-09-07T08:14:25Z</time>
      </trkpt>
      <trkpt lat="46.393059" lon="13.218661">
        <ele>321.255</ele>
        <time>2018-09-07T08:14:26Z</time>
      </trkpt>
      <trkpt lat="46.393053" lon="13.218687">
        <ele>320.766</ele>
        <time>2018-09-07T08:14:27Z</time>
      </trkpt>
      <trkpt lat="46.393049" lon="13.218711">
        <ele>320.734</ele>
        <time>2018-09-07T08:14:28Z</time>
      </trkpt>
      <trkpt lat="46.393054" lon="13.218739">
        <ele>320.211</ele>
        <time>2018-09-07T08:14:29Z</time>
      </trkpt>
      <trkpt lat="46.393060" lon="13.218765">
        <ele>320.294</ele>
        <time>2018-09-07T08:14:30Z</time>
      </trkpt>
      <trkpt lat="46.393036" lon="13.219126">
        <ele>320.711</ele>
        <time>2018-09-07T08:14:44Z</time>
      </trkpt>
      <trkpt lat="46.393029" lon="13.219153">
        <ele>320.721</ele>
        <time>2018-09-07T08:14:45Z</time>
      </trkpt>
      <trkpt lat="46.393015" lon="13.219219">
        <ele>321.203</ele>
        <time>2018-09-07T08:14:48Z</time>
      </trkpt>
      <trkpt lat="46.393005" lon="13.219230">
        <ele>320.708</ele>
        <time>2018-09-07T08:14:49Z</time>
      </trkpt>
      <trkpt lat="46.392995" lon="13.219260">
        <ele>321.295</ele>
        <time>2018-09-07T08:14:52Z</time>
      </trkpt>
      <trkpt lat="46.392998" lon="13.219274">
        <ele>321.227</ele>
        <time>2018-09-07T08:14:53Z</time>
      </trkpt>
      <trkpt lat="46.393011" lon="13.219283">
        <ele>321.283</ele>
        <time>2018-09-07T08:14:54Z</time>
      </trkpt>
      <trkpt lat="46.393029" lon="13.219277">
        <ele>321.210</ele>
        <time>2018-09-07T08:14:55Z</time>
      </trkpt>
      <trkpt lat="46.393041" lon="13.219257">
        <ele>321.251</ele>
        <time>2018-09-07T08:14:56Z</time>
      </trkpt>
      <trkpt lat="46.393044" lon="13.219236">
        <ele>321.259</ele>
        <time>2018-09-07T08:14:57Z</time>
      </trkpt>
      <trkpt lat="46.393045" lon="13.219212">
        <ele>321.296</ele>
        <time>2018-09-07T08:14:58Z</time>
      </trkpt>
      <trkpt lat="46.393045" lon="13.219185">
        <ele>321.219</ele>
        <time>2018-09-07T08:14:59Z</time>
      </trkpt>
      <trkpt lat="46.393044" lon="13.219158">
        <ele>321.278</ele>
        <time>2018-09-07T08:15:00Z</time>
      </trkpt>
      <trkpt lat="46.393045" lon="13.219131">
        <ele>320.733</ele>
        <time>2018-09-07T08:15:01Z</time>
      </trkpt>
      <trkpt lat="46.393043" lon="13.219102">
        <ele>320.226</ele>
        <time>2018-09-07T08:15:02Z</time>
      </trkpt>
      <trkpt lat="46.393081" lon="13.218752">
        <ele>318.308</ele>
        <time>2018-09-07T08:15:17Z</time>
      </trkpt>
      <trkpt lat="46.393128" lon="13.218428">
        <ele>320.251</ele>
        <time>2018-09-07T08:15:31Z</time>
      </trkpt>
      <trkpt lat="46.393120" lon="13.218422">
        <ele>320.753</ele>
        <time>2018-09-07T08:15:32Z</time>
      </trkpt>
      <trkpt lat="46.393032" lon="13.218818">
        <ele>320.729</ele>
        <time>2018-09-07T08:15:42Z</time>
      </trkpt>
      <trkpt lat="46.392922" lon="13.219400">
        <ele>319.736</ele>
        <time>2018-09-07T08:15:56Z</time>
      </trkpt>
      <trkpt lat="46.392960" lon="13.219693">
        <ele>321.717</ele>
        <time>2018-09-07T08:16:10Z</time>
      </trkpt>
      <trkpt lat="46.393153" lon="13.220069">
        <ele>324.145</ele>
        <time>2018-09-07T08:16:23Z</time>
      </trkpt>
      <trkpt lat="46.393236" lon="13.220394">
        <ele>327.452</ele>
        <time>2018-09-07T08:16:35Z</time>
      </trkpt>
      <trkpt lat="46.393226" lon="13.220455">
        <ele>324.555</ele>
        <time>2018-09-07T08:16:48Z</time>
      </trkpt>
      <trkpt lat="46.393245" lon="13.220460">
        <ele>321.279</ele>
        <time>2018-09-07T08:17:22Z</time>
      </trkpt>
      <trkpt lat="46.393223" lon="13.220429">
        <ele>319.305</ele>
        <time>2018-09-07T08:17:54Z</time>
      </trkpt>
      <trkpt lat="46.393183" lon="13.220359">
        <ele>320.725</ele>
        <time>2018-09-07T08:18:33Z</time>
      </trkpt>
      <trkpt lat="46.393201" lon="13.220424">
        <ele>327.908</ele>
        <time>2018-09-07T08:19:09Z</time>
      </trkpt>
      <trkpt lat="46.393216" lon="13.220466">
        <ele>323.641</ele>
        <time>2018-09-07T08:19:43Z</time>
      </trkpt>
      <trkpt lat="46.393251" lon="13.220478">
        <ele>324.163</ele>
        <time>2018-09-07T08:20:13Z</time>
      </trkpt>
      <trkpt lat="46.393231" lon="13.220469">
        <ele>324.589</ele>
        <time>2018-09-07T08:20:44Z</time>
      </trkpt>
      <trkpt lat="46.393210" lon="13.220455">
        <ele>327.466</ele>
        <time>2018-09-07T08:21:12Z</time>
      </trkpt>
      <trkpt lat="46.393228" lon="13.220430">
        <ele>326.527</ele>
        <time>2018-09-07T08:22:00Z</time>
      </trkpt>
      <trkpt lat="46.393208" lon="13.220463">
        <ele>323.625</ele>
        <time>2018-09-07T08:22:36Z</time>
      </trkpt>
      <trkpt lat="46.393201" lon="13.220408">
        <ele>322.692</ele>
        <time>2018-09-07T08:23:22Z</time>
      </trkpt>
      <trkpt lat="46.393222" lon="13.220429">
        <ele>321.295</ele>
        <time>2018-09-07T08:24:00Z</time>
      </trkpt>
      <trkpt lat="46.393261" lon="13.220427">
        <ele>318.315</ele>
        <time>2018-09-07T08:24:30Z</time>
      </trkpt>
      <trkpt lat="46.393262" lon="13.220385">
        <ele>316.865</ele>
        <time>2018-09-07T08:24:58Z</time>
      </trkpt>
      <trkpt lat="46.393237" lon="13.220423">
        <ele>318.311</ele>
        <time>2018-09-07T08:25:22Z</time>
      </trkpt>
      <trkpt lat="46.393195" lon="13.220450">
        <ele>325.508</ele>
        <time>2018-09-07T08:25:55Z</time>
      </trkpt>
      <trkpt lat="46.393233" lon="13.220434">
        <ele>324.125</ele>
        <time>2018-09-07T08:26:35Z</time>
      </trkpt>
      <trkpt lat="46.393175" lon="13.220420">
        <ele>322.677</ele>
        <time>2018-09-07T08:27:13Z</time>
      </trkpt>
      <trkpt lat="46.393204" lon="13.220431">
        <ele>325.573</ele>
        <time>2018-09-07T08:27:53Z</time>
      </trkpt>
      <trkpt lat="46.393235" lon="13.220418">
        <ele>323.640</ele>
        <time>2018-09-07T08:28:33Z</time>
      </trkpt>
      <trkpt lat="46.393229" lon="13.220458">
        <ele>326.031</ele>
        <time>2018-09-07T08:29:07Z</time>
      </trkpt>
      <trkpt lat="46.393225" lon="13.220425">
        <ele>325.549</ele>
        <time>2018-09-07T08:29:58Z</time>
      </trkpt>
      <trkpt lat="46.393227" lon="13.220433">
        <ele>323.176</ele>
        <time>2018-09-07T08:30:54Z</time>
      </trkpt>
      <trkpt lat="46.393216" lon="13.220421">
        <ele>319.389</ele>
        <time>2018-09-07T08:31:35Z</time>
      </trkpt>
      <trkpt lat="46.393231" lon="13.220423">
        <ele>318.837</ele>
        <time>2018-09-07T08:32:09Z</time>
      </trkpt>
      <trkpt lat="46.393223" lon="13.220393">
        <ele>319.749</ele>
        <time>2018-09-07T08:32:23Z</time>
      </trkpt>
      <trkpt lat="46.393216" lon="13.220382">
        <ele>319.713</ele>
        <time>2018-09-07T08:32:24Z</time>
      </trkpt>
      <trkpt lat="46.393212" lon="13.220348">
        <ele>321.708</ele>
        <time>2018-09-07T08:32:34Z</time>
      </trkpt>
      <trkpt lat="46.393216" lon="13.220321">
        <ele>321.787</ele>
        <time>2018-09-07T08:32:36Z</time>
      </trkpt>
      <trkpt lat="46.393229" lon="13.220323">
        <ele>322.189</ele>
        <time>2018-09-07T08:32:37Z</time>
      </trkpt>
      <trkpt lat="46.393249" lon="13.220335">
        <ele>322.145</ele>
        <time>2018-09-07T08:32:38Z</time>
      </trkpt>
      <trkpt lat="46.393269" lon="13.220363">
        <ele>322.172</ele>
        <time>2018-09-07T08:32:39Z</time>
      </trkpt>
      <trkpt lat="46.393284" lon="13.220392">
        <ele>322.133</ele>
        <time>2018-09-07T08:32:40Z</time>
      </trkpt>
      <trkpt lat="46.393298" lon="13.220430">
        <ele>322.661</ele>
        <time>2018-09-07T08:32:41Z</time>
      </trkpt>
      <trkpt lat="46.393311" lon="13.220463">
        <ele>323.128</ele>
        <time>2018-09-07T08:32:42Z</time>
      </trkpt>
      <trkpt lat="46.393327" lon="13.220497">
        <ele>323.681</ele>
        <time>2018-09-07T08:32:43Z</time>
      </trkpt>
      <trkpt lat="46.393559" lon="13.220972">
        <ele>326.051</ele>
        <time>2018-09-07T08:32:58Z</time>
      </trkpt>
      <trkpt lat="46.393729" lon="13.221368">
        <ele>324.501</ele>
        <time>2018-09-07T08:33:14Z</time>
      </trkpt>
      <trkpt lat="46.393742" lon="13.221396">
        <ele>323.111</ele>
        <time>2018-09-07T08:33:20Z</time>
      </trkpt>
      <trkpt lat="46.393755" lon="13.221412">
        <ele>323.108</ele>
        <time>2018-09-07T08:33:21Z</time>
      </trkpt>
      <trkpt lat="46.393771" lon="13.221427">
        <ele>323.119</ele>
        <time>2018-09-07T08:33:22Z</time>
      </trkpt>
      <trkpt lat="46.393787" lon="13.221439">
        <ele>323.111</ele>
        <time>2018-09-07T08:33:23Z</time>
      </trkpt>
      <trkpt lat="46.393804" lon="13.221453">
        <ele>323.177</ele>
        <time>2018-09-07T08:33:24Z</time>
      </trkpt>
      <trkpt lat="46.393820" lon="13.221469">
        <ele>323.124</ele>
        <time>2018-09-07T08:33:25Z</time>
      </trkpt>
      <trkpt lat="46.393829" lon="13.221490">
        <ele>323.165</ele>
        <time>2018-09-07T08:33:26Z</time>
      </trkpt>
      <trkpt lat="46.393839" lon="13.221509">
        <ele>322.613</ele>
        <time>2018-09-07T08:33:27Z</time>
      </trkpt>
      <trkpt lat="46.393848" lon="13.221523">
        <ele>322.610</ele>
        <time>2018-09-07T08:33:28Z</time>
      </trkpt>
      <trkpt lat="46.393857" lon="13.221535">
        <ele>322.633</ele>
        <time>2018-09-07T08:33:29Z</time>
      </trkpt>
      <trkpt lat="46.393878" lon="13.221576">
        <ele>322.694</ele>
        <time>2018-09-07T08:33:32Z</time>
      </trkpt>
      <trkpt lat="46.393883" lon="13.221599">
        <ele>322.157</ele>
        <time>2018-09-07T08:33:33Z</time>
      </trkpt>
      <trkpt lat="46.393888" lon="13.221615">
        <ele>322.122</ele>
        <time>2018-09-07T08:33:34Z</time>
      </trkpt>
      <trkpt lat="46.393894" lon="13.221631">
        <ele>322.108</ele>
        <time>2018-09-07T08:33:35Z</time>
      </trkpt>
      <trkpt lat="46.393915" lon="13.221650">
        <ele>323.693</ele>
        <time>2018-09-07T08:33:45Z</time>
      </trkpt>
      <trkpt lat="46.393887" lon="13.221598">
        <ele>324.175</ele>
        <time>2018-09-07T08:34:11Z</time>
      </trkpt>
      <trkpt lat="46.393869" lon="13.221637">
        <ele>326.021</ele>
        <time>2018-09-07T08:34:40Z</time>
      </trkpt>
      <trkpt lat="46.393832" lon="13.221641">
        <ele>330.898</ele>
        <time>2018-09-07T08:35:08Z</time>
      </trkpt>
      <trkpt lat="46.393809" lon="13.221651">
        <ele>332.239</ele>
        <time>2018-09-07T08:35:35Z</time>
      </trkpt>
      <trkpt lat="46.393808" lon="13.221645">
        <ele>332.717</ele>
        <time>2018-09-07T08:36:02Z</time>
      </trkpt>
      <trkpt lat="46.393821" lon="13.221663">
        <ele>332.784</ele>
        <time>2018-09-07T08:36:27Z</time>
      </trkpt>
      <trkpt lat="46.393816" lon="13.221658">
        <ele>331.777</ele>
        <time>2018-09-07T08:36:51Z</time>
      </trkpt>
      <trkpt lat="46.393793" lon="13.221670">
        <ele>334.254</ele>
        <time>2018-09-07T08:37:24Z</time>
      </trkpt>
      <trkpt lat="46.393787" lon="13.221654">
        <ele>335.156</ele>
        <time>2018-09-07T08:37:52Z</time>
      </trkpt>
      <trkpt lat="46.393783" lon="13.221655">
        <ele>336.611</ele>
        <time>2018-09-07T08:38:16Z</time>
      </trkpt>
      <trkpt lat="46.393772" lon="13.221664">
        <ele>336.108</ele>
        <time>2018-09-07T08:38:46Z</time>
      </trkpt>
      <trkpt lat="46.393783" lon="13.221667">
        <ele>336.199</ele>
        <time>2018-09-07T08:39:15Z</time>
      </trkpt>
      <trkpt lat="46.393782" lon="13.221686">
        <ele>336.651</ele>
        <time>2018-09-07T08:39:39Z</time>
      </trkpt>
      <trkpt lat="46.393750" lon="13.221690">
        <ele>337.087</ele>
        <time>2018-09-07T08:40:04Z</time>
      </trkpt>
      <trkpt lat="46.393745" lon="13.221668">
        <ele>337.534</ele>
        <time>2018-09-07T08:40:33Z</time>
      </trkpt>
      <trkpt lat="46.393762" lon="13.221688">
        <ele>340.985</ele>
        <time>2018-09-07T08:41:04Z</time>
      </trkpt>
      <trkpt lat="46.393784" lon="13.221682">
        <ele>341.433</ele>
        <time>2018-09-07T08:41:28Z</time>
      </trkpt>
      <trkpt lat="46.393784" lon="13.221662">
        <ele>340.440</ele>
        <time>2018-09-07T08:41:33Z</time>
      </trkpt>
      <trkpt lat="46.393800" lon="13.221641">
        <ele>339.923</ele>
        <time>2018-09-07T08:41:34Z</time>
      </trkpt>
      <trkpt lat="46.393808" lon="13.221623">
        <ele>339.425</ele>
        <time>2018-09-07T08:41:35Z</time>
      </trkpt>
      <trkpt lat="46.393814" lon="13.221608">
        <ele>339.026</ele>
        <time>2018-09-07T08:41:36Z</time>
      </trkpt>
      <trkpt lat="46.393814" lon="13.221589">
        <ele>338.008</ele>
        <time>2018-09-07T08:41:37Z</time>
      </trkpt>
      <trkpt lat="46.393801" lon="13.221510">
        <ele>333.708</ele>
        <time>2018-09-07T08:41:41Z</time>
      </trkpt>
      <trkpt lat="46.393781" lon="13.221493">
        <ele>332.256</ele>
        <time>2018-09-07T08:41:42Z</time>
      </trkpt>
      <trkpt lat="46.393757" lon="13.221494">
        <ele>331.338</ele>
        <time>2018-09-07T08:41:43Z</time>
      </trkpt>
      <trkpt lat="46.393732" lon="13.221492">
        <ele>330.374</ele>
        <time>2018-09-07T08:41:44Z</time>
      </trkpt>
      <trkpt lat="46.393708" lon="13.221488">
        <ele>329.341</ele>
        <time>2018-09-07T08:41:45Z</time>
      </trkpt>
      <trkpt lat="46.393682" lon="13.221477">
        <ele>328.462</ele>
        <time>2018-09-07T08:41:46Z</time>
      </trkpt>
      <trkpt lat="46.393660" lon="13.221461">
        <ele>327.960</ele>
        <time>2018-09-07T08:41:47Z</time>
      </trkpt>
      <trkpt lat="46.393644" lon="13.221433">
        <ele>327.427</ele>
        <time>2018-09-07T08:41:48Z</time>
      </trkpt>
      <trkpt lat="46.393634" lon="13.221399">
        <ele>326.920</ele>
        <time>2018-09-07T08:41:49Z</time>
      </trkpt>
      <trkpt lat="46.393627" lon="13.221364">
        <ele>326.592</ele>
        <time>2018-09-07T08:41:50Z</time>
      </trkpt>
      <trkpt lat="46.393622" lon="13.221327">
        <ele>326.573</ele>
        <time>2018-09-07T08:41:51Z</time>
      </trkpt>
      <trkpt lat="46.393613" lon="13.221294">
        <ele>326.020</ele>
        <time>2018-09-07T08:41:52Z</time>
      </trkpt>
      <trkpt lat="46.393595" lon="13.221273">
        <ele>326.008</ele>
        <time>2018-09-07T08:41:53Z</time>
      </trkpt>
      <trkpt lat="46.393573" lon="13.221270">
        <ele>326.063</ele>
        <time>2018-09-07T08:41:54Z</time>
      </trkpt>
      <trkpt lat="46.393560" lon="13.221289">
        <ele>325.585</ele>
        <time>2018-09-07T08:41:55Z</time>
      </trkpt>
      <trkpt lat="46.393552" lon="13.221318">
        <ele>325.571</ele>
        <time>2018-09-07T08:41:56Z</time>
      </trkpt>
      <trkpt lat="46.393550" lon="13.221348">
        <ele>325.588</ele>
        <time>2018-09-07T08:41:57Z</time>
      </trkpt>
      <trkpt lat="46.393544" lon="13.221379">
        <ele>325.569</ele>
        <time>2018-09-07T08:41:58Z</time>
      </trkpt>
      <trkpt lat="46.393536" lon="13.221414">
        <ele>325.087</ele>
        <time>2018-09-07T08:41:59Z</time>
      </trkpt>
      <trkpt lat="46.393531" lon="13.221452">
        <ele>325.024</ele>
        <time>2018-09-07T08:42:00Z</time>
      </trkpt>
      <trkpt lat="46.393455" lon="13.222195">
        <ele>324.197</ele>
        <time>2018-09-07T08:42:18Z</time>
      </trkpt>
      <trkpt lat="46.393396" lon="13.223258">
        <ele>323.662</ele>
        <time>2018-09-07T08:42:41Z</time>
      </trkpt>
      <trkpt lat="46.393333" lon="13.224275">
        <ele>324.183</ele>
        <time>2018-09-07T08:43:02Z</time>
      </trkpt>
      <trkpt lat="46.393288" lon="13.225137">
        <ele>322.611</ele>
        <time>2018-09-07T08:43:20Z</time>
      </trkpt>
      <trkpt lat="46.393235" lon="13.225957">
        <ele>322.108</ele>
        <time>2018-09-07T08:43:37Z</time>
      </trkpt>
      <trkpt lat="46.393195" lon="13.226850">
        <ele>320.220</ele>
        <time>2018-09-07T08:43:55Z</time>
      </trkpt>
      <trkpt lat="46.393133" lon="13.227743">
        <ele>324.122</ele>
        <time>2018-09-07T08:44:12Z</time>
      </trkpt>
      <trkpt lat="46.393051" lon="13.228953">
        <ele>325.588</ele>
        <time>2018-09-07T08:44:33Z</time>
      </trkpt>
      <trkpt lat="46.392974" lon="13.230104">
        <ele>323.625</ele>
        <time>2018-09-07T08:44:53Z</time>
      </trkpt>
      <trkpt lat="46.392915" lon="13.231212">
        <ele>325.096</ele>
        <time>2018-09-07T08:45:12Z</time>
      </trkpt>
      <trkpt lat="46.392877" lon="13.231955">
        <ele>329.844</ele>
        <time>2018-09-07T08:45:25Z</time>
      </trkpt>
      <trkpt lat="46.392623" lon="13.234520">
        <ele>411.141</ele>
        <time>2018-09-07T08:46:05Z</time>
      </trkpt>
      <trkpt lat="46.392719" lon="13.235411">
        <ele>343.344</ele>
        <time>2018-09-07T08:46:23Z</time>
      </trkpt>
      <trkpt lat="46.392697" lon="13.236339">
        <ele>341.443</ele>
        <time>2018-09-07T08:46:39Z</time>
      </trkpt>
      <trkpt lat="46.392704" lon="13.237026">
        <ele>340.964</ele>
        <time>2018-09-07T08:46:51Z</time>
      </trkpt>
      <trkpt lat="46.392687" lon="13.238092">
        <ele>340.410</ele>
        <time>2018-09-07T08:47:09Z</time>
      </trkpt>
      <trkpt lat="46.392685" lon="13.238978">
        <ele>339.908</ele>
        <time>2018-09-07T08:47:24Z</time>
      </trkpt>
      <trkpt lat="46.392728" lon="13.239802">
        <ele>340.458</ele>
        <time>2018-09-07T08:47:38Z</time>
      </trkpt>
      <trkpt lat="46.392730" lon="13.239860">
        <ele>340.430</ele>
        <time>2018-09-07T08:47:39Z</time>
      </trkpt>
      <trkpt lat="46.392734" lon="13.239920">
        <ele>340.496</ele>
        <time>2018-09-07T08:47:40Z</time>
      </trkpt>
      <trkpt lat="46.392875" lon="13.240946">
        <ele>341.823</ele>
        <time>2018-09-07T08:47:58Z</time>
      </trkpt>
      <trkpt lat="46.392894" lon="13.241054">
        <ele>341.874</ele>
        <time>2018-09-07T08:48:00Z</time>
      </trkpt>
      <trkpt lat="46.393127" lon="13.241988">
        <ele>342.882</ele>
        <time>2018-09-07T08:48:17Z</time>
      </trkpt>
      <trkpt lat="46.393470" lon="13.242926">
        <ele>343.399</ele>
        <time>2018-09-07T08:48:35Z</time>
      </trkpt>
      <trkpt lat="46.393492" lon="13.242976">
        <ele>343.382</ele>
        <time>2018-09-07T08:48:36Z</time>
      </trkpt>
      <trkpt lat="46.393853" lon="13.243776">
        <ele>344.223</ele>
        <time>2018-09-07T08:48:52Z</time>
      </trkpt>
      <trkpt lat="46.394115" lon="13.244367">
        <ele>345.283</ele>
        <time>2018-09-07T08:49:04Z</time>
      </trkpt>
      <trkpt lat="46.394141" lon="13.244414">
        <ele>345.211</ele>
        <time>2018-09-07T08:49:05Z</time>
      </trkpt>
      <trkpt lat="46.394401" lon="13.245270">
        <ele>345.708</ele>
        <time>2018-09-07T08:49:21Z</time>
      </trkpt>
      <trkpt lat="46.394493" lon="13.245778">
        <ele>345.766</ele>
        <time>2018-09-07T08:49:30Z</time>
      </trkpt>
      <trkpt lat="46.394517" lon="13.245959">
        <ele>346.238</ele>
        <time>2018-09-07T08:49:33Z</time>
      </trkpt>
      <trkpt lat="46.394551" lon="13.247084">
        <ele>348.684</ele>
        <time>2018-09-07T08:49:52Z</time>
      </trkpt>
      <trkpt lat="46.394544" lon="13.247995">
        <ele>347.641</ele>
        <time>2018-09-07T08:50:07Z</time>
      </trkpt>
      <trkpt lat="46.394538" lon="13.248710">
        <ele>345.762</ele>
        <time>2018-09-07T08:50:19Z</time>
      </trkpt>
      <trkpt lat="46.394543" lon="13.248832">
        <ele>346.280</ele>
        <time>2018-09-07T08:50:21Z</time>
      </trkpt>
      <trkpt lat="46.394555" lon="13.249790">
        <ele>346.697</ele>
        <time>2018-09-07T08:50:37Z</time>
      </trkpt>
      <trkpt lat="46.394533" lon="13.250228">
        <ele>347.130</ele>
        <time>2018-09-07T08:50:44Z</time>
      </trkpt>
      <trkpt lat="46.394531" lon="13.250291">
        <ele>347.193</ele>
        <time>2018-09-07T08:50:45Z</time>
      </trkpt>
      <trkpt lat="46.394511" lon="13.251507">
        <ele>346.665</ele>
        <time>2018-09-07T08:51:05Z</time>
      </trkpt>
      <trkpt lat="46.394500" lon="13.252055">
        <ele>346.621</ele>
        <time>2018-09-07T08:51:14Z</time>
      </trkpt>
      <trkpt lat="46.394422" lon="13.253096">
        <ele>347.108</ele>
        <time>2018-09-07T08:51:31Z</time>
      </trkpt>
      <trkpt lat="46.394292" lon="13.253688">
        <ele>349.523</ele>
        <time>2018-09-07T08:51:41Z</time>
      </trkpt>
      <trkpt lat="46.394199" lon="13.253980">
        <ele>349.585</ele>
        <time>2018-09-07T08:51:46Z</time>
      </trkpt>
      <trkpt lat="46.393977" lon="13.254719">
        <ele>349.171</ele>
        <time>2018-09-07T08:51:59Z</time>
      </trkpt>
      <trkpt lat="46.393754" lon="13.255924">
        <ele>349.118</ele>
        <time>2018-09-07T08:52:18Z</time>
      </trkpt>
      <trkpt lat="46.393675" lon="13.257291">
        <ele>351.959</ele>
        <time>2018-09-07T08:52:40Z</time>
      </trkpt>
      <trkpt lat="46.393772" lon="13.258234">
        <ele>352.997</ele>
        <time>2018-09-07T08:52:56Z</time>
      </trkpt>
      <trkpt lat="46.394073" lon="13.259441">
        <ele>357.294</ele>
        <time>2018-09-07T08:53:17Z</time>
      </trkpt>
      <trkpt lat="46.394448" lon="13.260420">
        <ele>356.767</ele>
        <time>2018-09-07T08:53:35Z</time>
      </trkpt>
      <trkpt lat="46.394825" lon="13.261356">
        <ele>357.254</ele>
        <time>2018-09-07T08:53:53Z</time>
      </trkpt>
      <trkpt lat="46.395309" lon="13.262713">
        <ele>357.756</ele>
        <time>2018-09-07T08:54:18Z</time>
      </trkpt>
      <trkpt lat="46.395625" lon="13.263775">
        <ele>357.711</ele>
        <time>2018-09-07T08:54:37Z</time>
      </trkpt>
      <trkpt lat="46.396319" lon="13.267502">
        <ele>369.708</ele>
        <time>2018-09-07T08:55:41Z</time>
      </trkpt>
      <trkpt lat="46.396469" lon="13.268477">
        <ele>371.259</ele>
        <time>2018-09-07T08:56:00Z</time>
      </trkpt>
      <trkpt lat="46.396617" lon="13.269402">
        <ele>372.671</ele>
        <time>2018-09-07T08:56:20Z</time>
      </trkpt>
      <trkpt lat="46.396643" lon="13.270132">
        <ele>373.157</ele>
        <time>2018-09-07T08:56:35Z</time>
      </trkpt>
      <trkpt lat="46.396537" lon="13.271027">
        <ele>374.084</ele>
        <time>2018-09-07T08:56:52Z</time>
      </trkpt>
      <trkpt lat="46.396292" lon="13.271946">
        <ele>372.145</ele>
        <time>2018-09-07T08:57:10Z</time>
      </trkpt>
      <trkpt lat="46.396015" lon="13.272642">
        <ele>372.163</ele>
        <time>2018-09-07T08:57:25Z</time>
      </trkpt>
      <trkpt lat="46.395723" lon="13.273414">
        <ele>368.860</ele>
        <time>2018-09-07T08:57:41Z</time>
      </trkpt>
      <trkpt lat="46.395731" lon="13.276648">
        <ele>369.753</ele>
        <time>2018-09-07T09:00:13Z</time>
      </trkpt>
      <trkpt lat="46.395958" lon="13.277440">
        <ele>373.183</ele>
        <time>2018-09-07T09:00:29Z</time>
      </trkpt>
      <trkpt lat="46.396159" lon="13.278292">
        <ele>373.625</ele>
        <time>2018-09-07T09:00:44Z</time>
      </trkpt>
      <trkpt lat="46.396405" lon="13.279042">
        <ele>370.217</ele>
        <time>2018-09-07T09:00:59Z</time>
      </trkpt>
      <trkpt lat="46.397344" lon="13.280645">
        <ele>371.208</ele>
        <time>2018-09-07T09:01:33Z</time>
      </trkpt>
      <trkpt lat="46.397687" lon="13.281265">
        <ele>373.662</ele>
        <time>2018-09-07T09:01:47Z</time>
      </trkpt>
      <trkpt lat="46.398076" lon="13.281955">
        <ele>371.694</ele>
        <time>2018-09-07T09:02:03Z</time>
      </trkpt>
      <trkpt lat="46.398438" lon="13.282534">
        <ele>371.640</ele>
        <time>2018-09-07T09:02:18Z</time>
      </trkpt>
      <trkpt lat="46.399429" lon="13.283537">
        <ele>387.067</ele>
        <time>2018-09-07T09:02:48Z</time>
      </trkpt>
      <trkpt lat="46.400002" lon="13.284035">
        <ele>377.958</ele>
        <time>2018-09-07T09:03:04Z</time>
      </trkpt>
      <trkpt lat="46.400098" lon="13.284154">
        <ele>377.976</ele>
        <time>2018-09-07T09:03:07Z</time>
      </trkpt>
      <trkpt lat="46.400127" lon="13.284201">
        <ele>378.463</ele>
        <time>2018-09-07T09:03:08Z</time>
      </trkpt>
      <trkpt lat="46.400674" lon="13.285105">
        <ele>376.476</ele>
        <time>2018-09-07T09:03:28Z</time>
      </trkpt>
      <trkpt lat="46.401115" lon="13.285950">
        <ele>377.926</ele>
        <time>2018-09-07T09:03:46Z</time>
      </trkpt>
      <trkpt lat="46.401406" lon="13.286454">
        <ele>381.347</ele>
        <time>2018-09-07T09:03:57Z</time>
      </trkpt>
      <trkpt lat="46.401500" lon="13.286599">
        <ele>382.211</ele>
        <time>2018-09-07T09:04:00Z</time>
      </trkpt>
      <trkpt lat="46.401983" lon="13.287359">
        <ele>382.208</ele>
        <time>2018-09-07T09:04:17Z</time>
      </trkpt>
      <trkpt lat="46.402546" lon="13.288178">
        <ele>382.766</ele>
        <time>2018-09-07T09:04:36Z</time>
      </trkpt>
      <trkpt lat="46.403088" lon="13.288948">
        <ele>380.818</ele>
        <time>2018-09-07T09:04:54Z</time>
      </trkpt>
      <trkpt lat="46.403756" lon="13.289835">
        <ele>383.734</ele>
        <time>2018-09-07T09:05:15Z</time>
      </trkpt>
      <trkpt lat="46.403877" lon="13.289998">
        <ele>385.151</ele>
        <time>2018-09-07T09:05:19Z</time>
      </trkpt>
      <trkpt lat="46.403908" lon="13.290033">
        <ele>385.632</ele>
        <time>2018-09-07T09:05:20Z</time>
      </trkpt>
      <trkpt lat="46.405040" lon="13.291517">
        <ele>370.220</ele>
        <time>2018-09-07T09:05:56Z</time>
      </trkpt>
      <trkpt lat="46.405406" lon="13.292301">
        <ele>388.957</ele>
        <time>2018-09-07T09:06:11Z</time>
      </trkpt>
      <trkpt lat="46.405668" lon="13.295585">
        <ele>423.610</ele>
        <time>2018-09-07T09:07:04Z</time>
      </trkpt>
      <trkpt lat="46.405751" lon="13.296657">
        <ele>400.565</ele>
        <time>2018-09-07T09:07:22Z</time>
      </trkpt>
      <trkpt lat="46.405836" lon="13.297320">
        <ele>398.668</ele>
        <time>2018-09-07T09:07:33Z</time>
      </trkpt>
      <trkpt lat="46.405849" lon="13.297377">
        <ele>398.114</ele>
        <time>2018-09-07T09:07:34Z</time>
      </trkpt>
      <trkpt lat="46.405920" lon="13.297735">
        <ele>396.208</ele>
        <time>2018-09-07T09:07:40Z</time>
      </trkpt>
      <trkpt lat="46.406166" lon="13.298797">
        <ele>395.740</ele>
        <time>2018-09-07T09:07:59Z</time>
      </trkpt>
      <trkpt lat="46.406406" lon="13.299849">
        <ele>396.212</ele>
        <time>2018-09-07T09:08:19Z</time>
      </trkpt>
      <trkpt lat="46.406649" lon="13.300963">
        <ele>396.658</ele>
        <time>2018-09-07T09:08:38Z</time>
      </trkpt>
      <trkpt lat="46.406675" lon="13.301080">
        <ele>397.665</ele>
        <time>2018-09-07T09:08:40Z</time>
      </trkpt>
      <trkpt lat="46.406839" lon="13.302095">
        <ele>399.566</ele>
        <time>2018-09-07T09:08:57Z</time>
      </trkpt>
      <trkpt lat="46.407149" lon="13.303109">
        <ele>397.664</ele>
        <time>2018-09-07T09:09:15Z</time>
      </trkpt>
      <trkpt lat="46.407491" lon="13.303978">
        <ele>397.671</ele>
        <time>2018-09-07T09:09:32Z</time>
      </trkpt>
      <trkpt lat="46.407693" lon="13.304540">
        <ele>396.224</ele>
        <time>2018-09-07T09:09:46Z</time>
      </trkpt>
      <trkpt lat="46.407775" lon="13.304980">
        <ele>396.621</ele>
        <time>2018-09-07T09:10:00Z</time>
      </trkpt>
      <trkpt lat="46.407810" lon="13.305098">
        <ele>396.241</ele>
        <time>2018-09-07T09:10:12Z</time>
      </trkpt>
      <trkpt lat="46.407800" lon="13.305139">
        <ele>397.105</ele>
        <time>2018-09-07T09:10:27Z</time>
      </trkpt>
      <trkpt lat="46.407808" lon="13.305149">
        <ele>397.608</ele>
        <time>2018-09-07T09:10:28Z</time>
      </trkpt>
      <trkpt lat="46.407816" lon="13.305167">
        <ele>397.636</ele>
        <time>2018-09-07T09:10:29Z</time>
      </trkpt>
      <trkpt lat="46.407822" lon="13.305192">
        <ele>397.688</ele>
        <time>2018-09-07T09:10:30Z</time>
      </trkpt>
      <trkpt lat="46.407823" lon="13.305223">
        <ele>397.644</ele>
        <time>2018-09-07T09:10:31Z</time>
      </trkpt>
      <trkpt lat="46.407906" lon="13.305942">
        <ele>398.141</ele>
        <time>2018-09-07T09:10:46Z</time>
      </trkpt>
      <trkpt lat="46.407979" lon="13.306978">
        <ele>398.142</ele>
        <time>2018-09-07T09:11:05Z</time>
      </trkpt>
      <trkpt lat="46.408110" lon="13.308004">
        <ele>399.080</ele>
        <time>2018-09-07T09:11:23Z</time>
      </trkpt>
      <trkpt lat="46.408434" lon="13.308980">
        <ele>400.587</ele>
        <time>2018-09-07T09:11:41Z</time>
      </trkpt>
      <trkpt lat="46.408673" lon="13.309409">
        <ele>400.030</ele>
        <time>2018-09-07T09:11:50Z</time>
      </trkpt>
      <trkpt lat="46.408709" lon="13.309447">
        <ele>400.063</ele>
        <time>2018-09-07T09:11:51Z</time>
      </trkpt>
      <trkpt lat="46.409260" lon="13.310200">
        <ele>401.944</ele>
        <time>2018-09-07T09:12:09Z</time>
      </trkpt>
      <trkpt lat="46.409936" lon="13.311201">
        <ele>400.018</ele>
        <time>2018-09-07T09:12:32Z</time>
      </trkpt>
      <trkpt lat="46.410511" lon="13.312032">
        <ele>399.508</ele>
        <time>2018-09-07T09:12:51Z</time>
      </trkpt>
      <trkpt lat="46.411130" lon="13.312913">
        <ele>399.020</ele>
        <time>2018-09-07T09:13:10Z</time>
      </trkpt>
      <trkpt lat="46.411826" lon="13.313583">
        <ele>397.642</ele>
        <time>2018-09-07T09:13:29Z</time>
      </trkpt>
      <trkpt lat="46.412643" lon="13.314032">
        <ele>399.528</ele>
        <time>2018-09-07T09:13:48Z</time>
      </trkpt>
      <trkpt lat="46.413460" lon="13.314246">
        <ele>399.025</ele>
        <time>2018-09-07T09:14:03Z</time>
      </trkpt>
      <trkpt lat="46.414191" lon="13.314568">
        <ele>399.586</ele>
        <time>2018-09-07T09:14:19Z</time>
      </trkpt>
      <trkpt lat="46.414611" lon="13.314970">
        <ele>403.814</ele>
        <time>2018-09-07T09:14:31Z</time>
      </trkpt>
      <trkpt lat="46.414854" lon="13.315203">
        <ele>413.551</ele>
        <time>2018-09-07T09:14:42Z</time>
      </trkpt>
      <trkpt lat="46.415117" lon="13.315459">
        <ele>422.144</ele>
        <time>2018-09-07T09:14:52Z</time>
      </trkpt>
      <trkpt lat="46.415150" lon="13.315493">
        <ele>422.687</ele>
        <time>2018-09-07T09:14:53Z</time>
      </trkpt>
      <trkpt lat="46.415656" lon="13.315918">
        <ele>428.842</ele>
        <time>2018-09-07T09:15:06Z</time>
      </trkpt>
      <trkpt lat="46.416235" lon="13.316447">
        <ele>431.726</ele>
        <time>2018-09-07T09:15:21Z</time>
      </trkpt>
      <trkpt lat="46.416895" lon="13.317122">
        <ele>432.208</ele>
        <time>2018-09-07T09:15:40Z</time>
      </trkpt>
      <trkpt lat="46.417582" lon="13.317760">
        <ele>426.012</ele>
        <time>2018-09-07T09:15:57Z</time>
      </trkpt>
      <trkpt lat="46.418213" lon="13.318503">
        <ele>417.844</ele>
        <time>2018-09-07T09:16:16Z</time>
      </trkpt>
      <trkpt lat="46.419004" lon="13.319400">
        <ele>413.940</ele>
        <time>2018-09-07T09:16:39Z</time>
      </trkpt>
      <trkpt lat="46.419141" lon="13.319552">
        <ele>413.517</ele>
        <time>2018-09-07T09:16:43Z</time>
      </trkpt>
      <trkpt lat="46.419520" lon="13.319933">
        <ele>408.758</ele>
        <time>2018-09-07T09:16:54Z</time>
      </trkpt>
      <trkpt lat="46.419678" lon="13.320110">
        <ele>406.276</ele>
        <time>2018-09-07T09:16:59Z</time>
      </trkpt>
      <trkpt lat="46.419718" lon="13.320121">
        <ele>406.293</ele>
        <time>2018-09-07T09:17:00Z</time>
      </trkpt>
      <trkpt lat="46.419797" lon="13.320135">
        <ele>408.736</ele>
        <time>2018-09-07T09:17:02Z</time>
      </trkpt>
      <trkpt lat="46.419970" lon="13.320224">
        <ele>413.995</ele>
        <time>2018-09-07T09:17:06Z</time>
      </trkpt>
      <trkpt lat="46.420014" lon="13.320249">
        <ele>414.949</ele>
        <time>2018-09-07T09:17:07Z</time>
      </trkpt>
      <trkpt lat="46.420055" lon="13.320279">
        <ele>415.423</ele>
        <time>2018-09-07T09:17:08Z</time>
      </trkpt>
      <trkpt lat="46.420786" lon="13.320615">
        <ele>414.908</ele>
        <time>2018-09-07T09:17:24Z</time>
      </trkpt>
      <trkpt lat="46.421508" lon="13.320669">
        <ele>414.913</ele>
        <time>2018-09-07T09:17:40Z</time>
      </trkpt>
      <trkpt lat="46.422187" lon="13.320484">
        <ele>414.945</ele>
        <time>2018-09-07T09:17:57Z</time>
      </trkpt>
      <trkpt lat="46.422301" lon="13.320430">
        <ele>413.521</ele>
        <time>2018-09-07T09:18:02Z</time>
      </trkpt>
      <trkpt lat="46.422318" lon="13.320419">
        <ele>413.018</ele>
        <time>2018-09-07T09:18:03Z</time>
      </trkpt>
      <trkpt lat="46.422342" lon="13.320399">
        <ele>413.089</ele>
        <time>2018-09-07T09:18:04Z</time>
      </trkpt>
      <trkpt lat="46.422444" lon="13.320305">
        <ele>412.027</ele>
        <time>2018-09-07T09:18:08Z</time>
      </trkpt>
      <trkpt lat="46.422475" lon="13.320282">
        <ele>411.524</ele>
        <time>2018-09-07T09:18:09Z</time>
      </trkpt>
      <trkpt lat="46.422505" lon="13.320265">
        <ele>411.577</ele>
        <time>2018-09-07T09:18:10Z</time>
      </trkpt>
      <trkpt lat="46.422537" lon="13.320250">
        <ele>411.138</ele>
        <time>2018-09-07T09:18:11Z</time>
      </trkpt>
      <trkpt lat="46.422564" lon="13.320243">
        <ele>411.170</ele>
        <time>2018-09-07T09:18:12Z</time>
      </trkpt>
      <trkpt lat="46.423021" lon="13.320093">
        <ele>413.017</ele>
        <time>2018-09-07T09:18:25Z</time>
      </trkpt>
      <trkpt lat="46.423953" lon="13.319707">
        <ele>413.908</ele>
        <time>2018-09-07T09:18:40Z</time>
      </trkpt>
      <trkpt lat="46.424338" lon="13.319543">
        <ele>415.457</ele>
        <time>2018-09-07T09:18:53Z</time>
      </trkpt>
      <trkpt lat="46.424358" lon="13.319553">
        <ele>419.249</ele>
        <time>2018-09-07T09:19:19Z</time>
      </trkpt>
      <trkpt lat="46.424506" lon="13.319492">
        <ele>422.645</ele>
        <time>2018-09-07T09:19:28Z</time>
      </trkpt>
      <trkpt lat="46.425108" lon="13.319221">
        <ele>425.572</ele>
        <time>2018-09-07T09:19:44Z</time>
      </trkpt>
      <trkpt lat="46.425894" lon="13.318825">
        <ele>424.053</ele>
        <time>2018-09-07T09:20:04Z</time>
      </trkpt>
      <trkpt lat="46.426571" lon="13.318466">
        <ele>423.611</ele>
        <time>2018-09-07T09:20:21Z</time>
      </trkpt>
      <trkpt lat="46.427240" lon="13.318086">
        <ele>421.138</ele>
        <time>2018-09-07T09:20:38Z</time>
      </trkpt>
      <trkpt lat="46.428038" lon="13.317626">
        <ele>422.631</ele>
        <time>2018-09-07T09:20:58Z</time>
      </trkpt>
      <trkpt lat="46.428668" lon="13.317280">
        <ele>423.112</ele>
        <time>2018-09-07T09:21:14Z</time>
      </trkpt>
      <trkpt lat="46.428709" lon="13.317260">
        <ele>423.132</ele>
        <time>2018-09-07T09:21:15Z</time>
      </trkpt>
      <trkpt lat="46.430554" lon="13.316087">
        <ele>419.705</ele>
        <time>2018-09-07T09:22:03Z</time>
      </trkpt>
      <trkpt lat="46.430613" lon="13.316050">
        <ele>428.808</ele>
        <time>2018-09-07T09:22:05Z</time>
      </trkpt>
      <trkpt lat="46.431325" lon="13.315690">
        <ele>431.275</ele>
        <time>2018-09-07T09:22:23Z</time>
      </trkpt>
      <trkpt lat="46.432245" lon="13.315173">
        <ele>434.177</ele>
        <time>2018-09-07T09:22:46Z</time>
      </trkpt>
      <trkpt lat="46.432848" lon="13.314832">
        <ele>436.143</ele>
        <time>2018-09-07T09:23:01Z</time>
      </trkpt>
      <trkpt lat="46.433050" lon="13.314733">
        <ele>437.040</ele>
        <time>2018-09-07T09:23:06Z</time>
      </trkpt>
      <trkpt lat="46.433504" lon="13.314478">
        <ele>437.061</ele>
        <time>2018-09-07T09:23:18Z</time>
      </trkpt>
      <trkpt lat="46.433541" lon="13.314456">
        <ele>436.579</ele>
        <time>2018-09-07T09:23:19Z</time>
      </trkpt>
      <trkpt lat="46.435082" lon="13.313583">
        <ele>435.666</ele>
        <time>2018-09-07T09:23:58Z</time>
      </trkpt>
      <trkpt lat="46.435476" lon="13.313292">
        <ele>435.649</ele>
        <time>2018-09-07T09:24:12Z</time>
      </trkpt>
      <trkpt lat="46.435761" lon="13.313224">
        <ele>436.181</ele>
        <time>2018-09-07T09:24:15Z</time>
      </trkpt>
      <trkpt lat="46.436538" lon="13.312774">
        <ele>442.361</ele>
        <time>2018-09-07T09:24:34Z</time>
      </trkpt>
      <trkpt lat="46.437409" lon="13.312270">
        <ele>442.817</ele>
        <time>2018-09-07T09:24:56Z</time>
      </trkpt>
      <trkpt lat="46.438213" lon="13.311680">
        <ele>445.708</ele>
        <time>2018-09-07T09:25:17Z</time>
      </trkpt>
      <trkpt lat="46.439014" lon="13.311402">
        <ele>444.742</ele>
        <time>2018-09-07T09:25:36Z</time>
      </trkpt>
      <trkpt lat="46.439652" lon="13.311427">
        <ele>445.794</ele>
        <time>2018-09-07T09:25:51Z</time>
      </trkpt>
      <trkpt lat="46.440215" lon="13.311651">
        <ele>442.870</ele>
        <time>2018-09-07T09:26:05Z</time>
      </trkpt>
      <trkpt lat="46.440637" lon="13.311908">
        <ele>440.477</ele>
        <time>2018-09-07T09:26:16Z</time>
      </trkpt>
      <trkpt lat="46.441341" lon="13.312649">
        <ele>443.738</ele>
        <time>2018-09-07T09:26:36Z</time>
      </trkpt>
      <trkpt lat="46.442066" lon="13.313536">
        <ele>451.076</ele>
        <time>2018-09-07T09:26:58Z</time>
      </trkpt>
      <trkpt lat="46.442743" lon="13.314337">
        <ele>451.943</ele>
        <time>2018-09-07T09:27:18Z</time>
      </trkpt>
      <trkpt lat="46.443482" lon="13.315219">
        <ele>451.976</ele>
        <time>2018-09-07T09:27:40Z</time>
      </trkpt>
      <trkpt lat="46.444182" lon="13.315840">
        <ele>451.926</ele>
        <time>2018-09-07T09:27:59Z</time>
      </trkpt>
      <trkpt lat="46.444985" lon="13.316507">
        <ele>455.847</ele>
        <time>2018-09-07T09:28:20Z</time>
      </trkpt>
      <trkpt lat="46.445757" lon="13.317146">
        <ele>458.611</ele>
        <time>2018-09-07T09:28:40Z</time>
      </trkpt>
      <trkpt lat="46.446489" lon="13.317698">
        <ele>460.608</ele>
        <time>2018-09-07T09:28:59Z</time>
      </trkpt>
      <trkpt lat="46.447419" lon="13.318207">
        <ele>462.516</ele>
        <time>2018-09-07T09:29:22Z</time>
      </trkpt>
      <trkpt lat="46.448078" lon="13.318418">
        <ele>464.918</ele>
        <time>2018-09-07T09:29:39Z</time>
      </trkpt>
      <trkpt lat="46.448080" lon="13.318415">
        <ele>464.914</ele>
        <time>2018-09-07T09:30:01Z</time>
      </trkpt>
      <trkpt lat="46.448084" lon="13.318416">
        <ele>465.951</ele>
        <time>2018-09-07T09:30:24Z</time>
      </trkpt>
      <trkpt lat="46.448252" lon="13.318447">
        <ele>466.852</ele>
        <time>2018-09-07T09:30:41Z</time>
      </trkpt>
      <trkpt lat="46.448925" lon="13.318488">
        <ele>467.810</ele>
        <time>2018-09-07T09:31:01Z</time>
      </trkpt>
      <trkpt lat="46.449578" lon="13.318426">
        <ele>470.787</ele>
        <time>2018-09-07T09:31:20Z</time>
      </trkpt>
      <trkpt lat="46.449893" lon="13.318306">
        <ele>473.160</ele>
        <time>2018-09-07T09:31:35Z</time>
      </trkpt>
      <trkpt lat="46.449880" lon="13.318334">
        <ele>473.145</ele>
        <time>2018-09-07T09:31:51Z</time>
      </trkpt>
      <trkpt lat="46.449885" lon="13.318368">
        <ele>472.647</ele>
        <time>2018-09-07T09:32:12Z</time>
      </trkpt>
      <trkpt lat="46.449889" lon="13.318335">
        <ele>469.711</ele>
        <time>2018-09-07T09:32:36Z</time>
      </trkpt>
      <trkpt lat="46.449893" lon="13.318321">
        <ele>467.308</ele>
        <time>2018-09-07T09:33:14Z</time>
      </trkpt>
      <trkpt lat="46.449884" lon="13.318330">
        <ele>467.388</ele>
        <time>2018-09-07T09:33:40Z</time>
      </trkpt>
      <trkpt lat="46.449914" lon="13.318299">
        <ele>468.340</ele>
        <time>2018-09-07T09:34:05Z</time>
      </trkpt>
      <trkpt lat="46.449899" lon="13.318311">
        <ele>465.936</ele>
        <time>2018-09-07T09:34:29Z</time>
      </trkpt>
      <trkpt lat="46.449879" lon="13.318353">
        <ele>470.723</ele>
        <time>2018-09-07T09:35:04Z</time>
      </trkpt>
      <trkpt lat="46.449882" lon="13.318348">
        <ele>472.154</ele>
        <time>2018-09-07T09:35:29Z</time>
      </trkpt>
      <trkpt lat="46.449890" lon="13.318307">
        <ele>469.782</ele>
        <time>2018-09-07T09:36:03Z</time>
      </trkpt>
      <trkpt lat="46.449874" lon="13.318304">
        <ele>467.819</ele>
        <time>2018-09-07T09:36:31Z</time>
      </trkpt>
      <trkpt lat="46.449881" lon="13.318305">
        <ele>469.282</ele>
        <time>2018-09-07T09:37:03Z</time>
      </trkpt>
      <trkpt lat="46.449866" lon="13.318343">
        <ele>473.552</ele>
        <time>2018-09-07T09:37:38Z</time>
      </trkpt>
      <trkpt lat="46.449880" lon="13.318311">
        <ele>470.753</ele>
        <time>2018-09-07T09:38:08Z</time>
      </trkpt>
      <trkpt lat="46.449965" lon="13.318283">
        <ele>468.708</ele>
        <time>2018-09-07T09:38:20Z</time>
      </trkpt>
      <trkpt lat="46.450272" lon="13.318164">
        <ele>469.208</ele>
        <time>2018-09-07T09:38:34Z</time>
      </trkpt>
      <trkpt lat="46.450616" lon="13.317980">
        <ele>470.219</ele>
        <time>2018-09-07T09:38:48Z</time>
      </trkpt>
      <trkpt lat="46.451310" lon="13.317620">
        <ele>469.261</ele>
        <time>2018-09-07T09:39:08Z</time>
      </trkpt>
      <trkpt lat="46.452304" lon="13.317061">
        <ele>470.797</ele>
        <time>2018-09-07T09:39:34Z</time>
      </trkpt>
      <trkpt lat="46.452921" lon="13.316639">
        <ele>471.614</ele>
        <time>2018-09-07T09:39:51Z</time>
      </trkpt>
      <trkpt lat="46.453255" lon="13.316241">
        <ele>471.655</ele>
        <time>2018-09-07T09:40:01Z</time>
      </trkpt>
      <trkpt lat="46.453747" lon="13.315526">
        <ele>472.653</ele>
        <time>2018-09-07T09:40:18Z</time>
      </trkpt>
      <trkpt lat="46.454324" lon="13.314630">
        <ele>472.650</ele>
        <time>2018-09-07T09:40:39Z</time>
      </trkpt>
      <trkpt lat="46.454831" lon="13.313861">
        <ele>473.193</ele>
        <time>2018-09-07T09:40:57Z</time>
      </trkpt>
      <trkpt lat="46.455302" lon="13.313126">
        <ele>474.526</ele>
        <time>2018-09-07T09:41:14Z</time>
      </trkpt>
      <trkpt lat="46.455328" lon="13.313080">
        <ele>474.547</ele>
        <time>2018-09-07T09:41:15Z</time>
      </trkpt>
      <trkpt lat="46.455827" lon="13.312242">
        <ele>476.911</ele>
        <time>2018-09-07T09:41:34Z</time>
      </trkpt>
      <trkpt lat="46.456184" lon="13.311272">
        <ele>478.308</ele>
        <time>2018-09-07T09:41:53Z</time>
      </trkpt>
      <trkpt lat="46.456476" lon="13.310301">
        <ele>481.796</ele>
        <time>2018-09-07T09:42:13Z</time>
      </trkpt>
      <trkpt lat="46.456810" lon="13.309215">
        <ele>482.298</ele>
        <time>2018-09-07T09:42:31Z</time>
      </trkpt>
      <trkpt lat="46.457188" lon="13.308310">
        <ele>479.864</ele>
        <time>2018-09-07T09:42:49Z</time>
      </trkpt>
      <trkpt lat="46.457534" lon="13.307645">
        <ele>479.361</ele>
        <time>2018-09-07T09:43:03Z</time>
      </trkpt>
      <trkpt lat="46.457586" lon="13.307558">
        <ele>478.832</ele>
        <time>2018-09-07T09:43:05Z</time>
      </trkpt>
      <trkpt lat="46.457685" lon="13.307371">
        <ele>478.850</ele>
        <time>2018-09-07T09:43:09Z</time>
      </trkpt>
      <trkpt lat="46.458145" lon="13.306461">
        <ele>480.877</ele>
        <time>2018-09-07T09:43:28Z</time>
      </trkpt>
      <trkpt lat="46.458510" lon="13.305783">
        <ele>482.770</ele>
        <time>2018-09-07T09:43:44Z</time>
      </trkpt>
      <trkpt lat="46.458794" lon="13.305245">
        <ele>484.645</ele>
        <time>2018-09-07T09:43:57Z</time>
      </trkpt>
      <trkpt lat="46.459091" lon="13.304797">
        <ele>486.047</ele>
        <time>2018-09-07T09:44:09Z</time>
      </trkpt>
      <trkpt lat="46.459587" lon="13.304170">
        <ele>488.911</ele>
        <time>2018-09-07T09:44:27Z</time>
      </trkpt>
      <trkpt lat="46.459973" lon="13.303656">
        <ele>491.808</ele>
        <time>2018-09-07T09:44:41Z</time>
      </trkpt>
      <trkpt lat="46.460372" lon="13.302780">
        <ele>493.278</ele>
        <time>2018-09-07T09:44:59Z</time>
      </trkpt>
      <trkpt lat="46.460513" lon="13.302298">
        <ele>496.130</ele>
        <time>2018-09-07T09:45:08Z</time>
      </trkpt>
      <trkpt lat="46.460525" lon="13.302241">
        <ele>496.626</ele>
        <time>2018-09-07T09:45:09Z</time>
      </trkpt>
      <trkpt lat="46.460536" lon="13.302182">
        <ele>497.153</ele>
        <time>2018-09-07T09:45:10Z</time>
      </trkpt>
      <trkpt lat="46.460632" lon="13.301278">
        <ele>498.574</ele>
        <time>2018-09-07T09:45:25Z</time>
      </trkpt>
      <trkpt lat="46.460675" lon="13.300314">
        <ele>497.172</ele>
        <time>2018-09-07T09:45:41Z</time>
      </trkpt>
      <trkpt lat="46.460720" lon="13.299589">
        <ele>497.679</ele>
        <time>2018-09-07T09:45:52Z</time>
      </trkpt>
      <trkpt lat="46.460741" lon="13.299551">
        <ele>497.652</ele>
        <time>2018-09-07T09:45:53Z</time>
      </trkpt>
      <trkpt lat="46.461061" lon="13.298606">
        <ele>497.642</ele>
        <time>2018-09-07T09:46:11Z</time>
      </trkpt>
      <trkpt lat="46.461317" lon="13.298056">
        <ele>498.122</ele>
        <time>2018-09-07T09:46:22Z</time>
      </trkpt>
      <trkpt lat="46.461366" lon="13.297956">
        <ele>498.514</ele>
        <time>2018-09-07T09:46:24Z</time>
      </trkpt>
      <trkpt lat="46.461389" lon="13.297906">
        <ele>498.508</ele>
        <time>2018-09-07T09:46:25Z</time>
      </trkpt>
      <trkpt lat="46.461415" lon="13.297866">
        <ele>499.078</ele>
        <time>2018-09-07T09:46:26Z</time>
      </trkpt>
      <trkpt lat="46.461828" lon="13.297227">
        <ele>500.930</ele>
        <time>2018-09-07T09:46:40Z</time>
      </trkpt>
      <trkpt lat="46.462245" lon="13.296852">
        <ele>500.096</ele>
        <time>2018-09-07T09:46:52Z</time>
      </trkpt>
      <trkpt lat="46.462385" lon="13.296751">
        <ele>500.083</ele>
        <time>2018-09-07T09:46:56Z</time>
      </trkpt>
      <trkpt lat="46.465334" lon="13.295107">
        <ele>500.544</ele>
        <time>2018-09-07T09:48:11Z</time>
      </trkpt>
      <trkpt lat="46.465716" lon="13.294562">
        <ele>502.972</ele>
        <time>2018-09-07T09:48:27Z</time>
      </trkpt>
      <trkpt lat="46.466173" lon="13.293925">
        <ele>508.179</ele>
        <time>2018-09-07T09:48:44Z</time>
      </trkpt>
      <trkpt lat="46.466746" lon="13.293347">
        <ele>512.542</ele>
        <time>2018-09-07T09:49:01Z</time>
      </trkpt>
      <trkpt lat="46.470014" lon="13.293046">
        <ele>516.882</ele>
        <time>2018-09-07T09:50:34Z</time>
      </trkpt>
      <trkpt lat="46.470331" lon="13.292965">
        <ele>516.843</ele>
        <time>2018-09-07T09:50:41Z</time>
      </trkpt>
      <trkpt lat="46.470380" lon="13.292958">
        <ele>516.317</ele>
        <time>2018-09-07T09:50:42Z</time>
      </trkpt>
      <trkpt lat="46.470423" lon="13.292948">
        <ele>516.308</ele>
        <time>2018-09-07T09:50:43Z</time>
      </trkpt>
      <trkpt lat="46.470464" lon="13.292937">
        <ele>516.392</ele>
        <time>2018-09-07T09:50:44Z</time>
      </trkpt>
      <trkpt lat="46.470505" lon="13.292927">
        <ele>515.844</ele>
        <time>2018-09-07T09:50:45Z</time>
      </trkpt>
      <trkpt lat="46.471039" lon="13.292802">
        <ele>518.250</ele>
        <time>2018-09-07T09:50:58Z</time>
      </trkpt>
      <trkpt lat="46.471632" lon="13.292636">
        <ele>519.747</ele>
        <time>2018-09-07T09:51:13Z</time>
      </trkpt>
      <trkpt lat="46.472170" lon="13.292458">
        <ele>525.548</ele>
        <time>2018-09-07T09:51:28Z</time>
      </trkpt>
      <trkpt lat="46.474054" lon="13.292353">
        <ele>528.876</ele>
        <time>2018-09-07T09:52:12Z</time>
      </trkpt>
      <trkpt lat="46.474383" lon="13.292593">
        <ele>528.373</ele>
        <time>2018-09-07T09:52:24Z</time>
      </trkpt>
      <trkpt lat="46.474395" lon="13.292670">
        <ele>526.946</ele>
        <time>2018-09-07T09:52:34Z</time>
      </trkpt>
      <trkpt lat="46.474432" lon="13.292856">
        <ele>520.251</ele>
        <time>2018-09-07T09:52:52Z</time>
      </trkpt>
      <trkpt lat="46.474436" lon="13.292894">
        <ele>520.201</ele>
        <time>2018-09-07T09:52:54Z</time>
      </trkpt>
      <trkpt lat="46.474451" lon="13.292917">
        <ele>520.611</ele>
        <time>2018-09-07T09:52:55Z</time>
      </trkpt>
      <trkpt lat="46.474468" lon="13.292934">
        <ele>521.108</ele>
        <time>2018-09-07T09:52:56Z</time>
      </trkpt>
      <trkpt lat="46.474704" lon="13.293255">
        <ele>521.659</ele>
        <time>2018-09-07T09:53:08Z</time>
      </trkpt>
      <trkpt lat="46.475101" lon="13.293524">
        <ele>522.141</ele>
        <time>2018-09-07T09:53:23Z</time>
      </trkpt>
      <trkpt lat="46.475143" lon="13.293517">
        <ele>522.637</ele>
        <time>2018-09-07T09:53:25Z</time>
      </trkpt>
      <trkpt lat="46.475146" lon="13.293496">
        <ele>523.024</ele>
        <time>2018-09-07T09:53:26Z</time>
      </trkpt>
      <trkpt lat="46.475107" lon="13.293487">
        <ele>522.615</ele>
        <time>2018-09-07T09:53:28Z</time>
      </trkpt>
      <trkpt lat="46.475088" lon="13.293508">
        <ele>522.623</ele>
        <time>2018-09-07T09:53:29Z</time>
      </trkpt>
      <trkpt lat="46.475075" lon="13.293526">
        <ele>523.010</ele>
        <time>2018-09-07T09:53:30Z</time>
      </trkpt>
      <trkpt lat="46.475057" lon="13.293541">
        <ele>523.093</ele>
        <time>2018-09-07T09:53:31Z</time>
      </trkpt>
      <trkpt lat="46.475039" lon="13.293543">
        <ele>523.512</ele>
        <time>2018-09-07T09:53:32Z</time>
      </trkpt>
      <trkpt lat="46.475028" lon="13.293529">
        <ele>523.532</ele>
        <time>2018-09-07T09:53:33Z</time>
      </trkpt>
      <trkpt lat="46.475057" lon="13.293487">
        <ele>522.105</ele>
        <time>2018-09-07T09:53:35Z</time>
      </trkpt>
      <trkpt lat="46.475083" lon="13.293491">
        <ele>522.108</ele>
        <time>2018-09-07T09:53:36Z</time>
      </trkpt>
      <trkpt lat="46.475104" lon="13.293497">
        <ele>522.195</ele>
        <time>2018-09-07T09:53:37Z</time>
      </trkpt>
      <trkpt lat="46.475128" lon="13.293505">
        <ele>522.627</ele>
        <time>2018-09-07T09:53:38Z</time>
      </trkpt>
      <trkpt lat="46.475153" lon="13.293507">
        <ele>522.683</ele>
        <time>2018-09-07T09:53:39Z</time>
      </trkpt>
      <trkpt lat="46.475181" lon="13.293502">
        <ele>523.060</ele>
        <time>2018-09-07T09:53:40Z</time>
      </trkpt>
      <trkpt lat="46.475213" lon="13.293493">
        <ele>523.061</ele>
        <time>2018-09-07T09:53:41Z</time>
      </trkpt>
      <trkpt lat="46.475244" lon="13.293484">
        <ele>523.539</ele>
        <time>2018-09-07T09:53:42Z</time>
      </trkpt>
      <trkpt lat="46.475698" lon="13.293598">
        <ele>526.976</ele>
        <time>2018-09-07T09:53:56Z</time>
      </trkpt>
      <trkpt lat="46.476191" lon="13.293974">
        <ele>529.329</ele>
        <time>2018-09-07T09:54:13Z</time>
      </trkpt>
      <trkpt lat="46.476504" lon="13.293988">
        <ele>531.252</ele>
        <time>2018-09-07T09:54:28Z</time>
      </trkpt>
      <trkpt lat="46.476565" lon="13.293941">
        <ele>532.753</ele>
        <time>2018-09-07T09:54:35Z</time>
      </trkpt>
      <trkpt lat="46.476589" lon="13.293938">
        <ele>532.708</ele>
        <time>2018-09-07T09:54:37Z</time>
      </trkpt>
      <trkpt lat="46.476599" lon="13.293953">
        <ele>532.208</ele>
        <time>2018-09-07T09:54:38Z</time>
      </trkpt>
      <trkpt lat="46.476606" lon="13.293974">
        <ele>532.289</ele>
        <time>2018-09-07T09:54:39Z</time>
      </trkpt>
      <trkpt lat="46.476618" lon="13.293998">
        <ele>532.271</ele>
        <time>2018-09-07T09:54:41Z</time>
      </trkpt>
      <trkpt lat="46.476631" lon="13.294009">
        <ele>531.727</ele>
        <time>2018-09-07T09:54:42Z</time>
      </trkpt>
      <trkpt lat="46.476647" lon="13.294009">
        <ele>531.264</ele>
        <time>2018-09-07T09:54:43Z</time>
      </trkpt>
      <trkpt lat="46.476668" lon="13.294006">
        <ele>531.265</ele>
        <time>2018-09-07T09:54:44Z</time>
      </trkpt>
      <trkpt lat="46.476681" lon="13.294009">
        <ele>531.243</ele>
        <time>2018-09-07T09:54:45Z</time>
      </trkpt>
      <trkpt lat="46.476695" lon="13.294014">
        <ele>531.270</ele>
        <time>2018-09-07T09:54:46Z</time>
      </trkpt>
      <trkpt lat="46.476711" lon="13.294018">
        <ele>531.273</ele>
        <time>2018-09-07T09:54:47Z</time>
      </trkpt>
      <trkpt lat="46.476725" lon="13.294027">
        <ele>531.262</ele>
        <time>2018-09-07T09:54:48Z</time>
      </trkpt>
      <trkpt lat="46.476747" lon="13.294038">
        <ele>532.283</ele>
        <time>2018-09-07T09:54:50Z</time>
      </trkpt>
      <trkpt lat="46.476762" lon="13.294018">
        <ele>531.711</ele>
        <time>2018-09-07T09:54:52Z</time>
      </trkpt>
      <trkpt lat="46.476769" lon="13.294006">
        <ele>531.208</ele>
        <time>2018-09-07T09:54:53Z</time>
      </trkpt>
      <trkpt lat="46.476778" lon="13.293998">
        <ele>531.270</ele>
        <time>2018-09-07T09:54:54Z</time>
      </trkpt>
      <trkpt lat="46.476794" lon="13.294001">
        <ele>530.762</ele>
        <time>2018-09-07T09:54:55Z</time>
      </trkpt>
      <trkpt lat="46.476812" lon="13.294011">
        <ele>530.778</ele>
        <time>2018-09-07T09:54:56Z</time>
      </trkpt>
      <trkpt lat="46.476828" lon="13.294023">
        <ele>530.325</ele>
        <time>2018-09-07T09:54:57Z</time>
      </trkpt>
      <trkpt lat="46.477005" lon="13.294097">
        <ele>530.396</ele>
        <time>2018-09-07T09:55:08Z</time>
      </trkpt>
      <trkpt lat="46.477021" lon="13.294103">
        <ele>530.384</ele>
        <time>2018-09-07T09:55:09Z</time>
      </trkpt>
      <trkpt lat="46.477032" lon="13.294114">
        <ele>530.341</ele>
        <time>2018-09-07T09:55:10Z</time>
      </trkpt>
      <trkpt lat="46.477069" lon="13.294143">
        <ele>530.374</ele>
        <time>2018-09-07T09:55:13Z</time>
      </trkpt>
      <trkpt lat="46.477083" lon="13.294143">
        <ele>530.334</ele>
        <time>2018-09-07T09:55:14Z</time>
      </trkpt>
      <trkpt lat="46.477098" lon="13.294147">
        <ele>530.355</ele>
        <time>2018-09-07T09:55:15Z</time>
      </trkpt>
      <trkpt lat="46.477111" lon="13.294152">
        <ele>530.710</ele>
        <time>2018-09-07T09:55:16Z</time>
      </trkpt>
      <trkpt lat="46.477127" lon="13.294159">
        <ele>530.708</ele>
        <time>2018-09-07T09:55:17Z</time>
      </trkpt>
      <trkpt lat="46.477143" lon="13.294163">
        <ele>530.777</ele>
        <time>2018-09-07T09:55:18Z</time>
      </trkpt>
      <trkpt lat="46.477158" lon="13.294167">
        <ele>530.769</ele>
        <time>2018-09-07T09:55:19Z</time>
      </trkpt>
      <trkpt lat="46.477168" lon="13.294174">
        <ele>530.745</ele>
        <time>2018-09-07T09:55:20Z</time>
      </trkpt>
      <trkpt lat="46.477261" lon="13.294201">
        <ele>531.212</ele>
        <time>2018-09-07T09:55:27Z</time>
      </trkpt>
      <trkpt lat="46.477415" lon="13.294234">
        <ele>531.283</ele>
        <time>2018-09-07T09:55:41Z</time>
      </trkpt>
      <trkpt lat="46.477679" lon="13.294430">
        <ele>530.761</ele>
        <time>2018-09-07T09:55:52Z</time>
      </trkpt>
      <trkpt lat="46.477835" lon="13.294905">
        <ele>529.318</ele>
        <time>2018-09-07T09:56:01Z</time>
      </trkpt>
      <trkpt lat="46.477930" lon="13.295281">
        <ele>527.971</ele>
        <time>2018-09-07T09:56:06Z</time>
      </trkpt>
      <trkpt lat="46.477952" lon="13.295343">
        <ele>527.948</ele>
        <time>2018-09-07T09:56:07Z</time>
      </trkpt>
      <trkpt lat="46.477979" lon="13.295397">
        <ele>527.961</ele>
        <time>2018-09-07T09:56:08Z</time>
      </trkpt>
      <trkpt lat="46.478339" lon="13.295854">
        <ele>527.917</ele>
        <time>2018-09-07T09:56:19Z</time>
      </trkpt>
      <trkpt lat="46.478973" lon="13.296658">
        <ele>527.908</ele>
        <time>2018-09-07T09:56:39Z</time>
      </trkpt>
      <trkpt lat="46.479541" lon="13.296959">
        <ele>529.838</ele>
        <time>2018-09-07T09:56:54Z</time>
      </trkpt>
      <trkpt lat="46.479801" lon="13.297010">
        <ele>532.290</ele>
        <time>2018-09-07T09:57:04Z</time>
      </trkpt>
      <trkpt lat="46.479856" lon="13.297037">
        <ele>531.796</ele>
        <time>2018-09-07T09:57:07Z</time>
      </trkpt>
      <trkpt lat="46.479982" lon="13.296996">
        <ele>532.213</ele>
        <time>2018-09-07T09:57:18Z</time>
      </trkpt>
      <trkpt lat="46.479987" lon="13.297008">
        <ele>532.734</ele>
        <time>2018-09-07T09:57:19Z</time>
      </trkpt>
      <trkpt lat="46.479999" lon="13.297019">
        <ele>533.192</ele>
        <time>2018-09-07T09:57:20Z</time>
      </trkpt>
      <trkpt lat="46.480010" lon="13.297026">
        <ele>533.669</ele>
        <time>2018-09-07T09:57:21Z</time>
      </trkpt>
      <trkpt lat="46.480025" lon="13.297029">
        <ele>533.612</ele>
        <time>2018-09-07T09:57:22Z</time>
      </trkpt>
      <trkpt lat="46.480037" lon="13.297038">
        <ele>533.688</ele>
        <time>2018-09-07T09:57:23Z</time>
      </trkpt>
      <trkpt lat="46.480047" lon="13.297048">
        <ele>533.624</ele>
        <time>2018-09-07T09:57:24Z</time>
      </trkpt>
      <trkpt lat="46.480051" lon="13.297064">
        <ele>534.126</ele>
        <time>2018-09-07T09:57:25Z</time>
      </trkpt>
      <trkpt lat="46.480044" lon="13.297086">
        <ele>534.608</ele>
        <time>2018-09-07T09:57:26Z</time>
      </trkpt>
      <trkpt lat="46.480039" lon="13.297120">
        <ele>535.142</ele>
        <time>2018-09-07T09:57:27Z</time>
      </trkpt>
      <trkpt lat="46.480042" lon="13.297139">
        <ele>535.184</ele>
        <time>2018-09-07T09:57:28Z</time>
      </trkpt>
      <trkpt lat="46.480050" lon="13.297165">
        <ele>535.190</ele>
        <time>2018-09-07T09:57:29Z</time>
      </trkpt>
      <trkpt lat="46.480062" lon="13.297192">
        <ele>535.147</ele>
        <time>2018-09-07T09:57:30Z</time>
      </trkpt>
      <trkpt lat="46.480077" lon="13.297218">
        <ele>535.148</ele>
        <time>2018-09-07T09:57:31Z</time>
      </trkpt>
      <trkpt lat="46.480096" lon="13.297243">
        <ele>535.536</ele>
        <time>2018-09-07T09:57:32Z</time>
      </trkpt>
      <trkpt lat="46.480115" lon="13.297266">
        <ele>535.573</ele>
        <time>2018-09-07T09:57:33Z</time>
      </trkpt>
      <trkpt lat="46.480465" lon="13.297703">
        <ele>537.096</ele>
        <time>2018-09-07T09:57:47Z</time>
      </trkpt>
      <trkpt lat="46.480907" lon="13.298189">
        <ele>539.461</ele>
        <time>2018-09-07T09:58:02Z</time>
      </trkpt>
      <trkpt lat="46.481554" lon="13.298620">
        <ele>539.921</ele>
        <time>2018-09-07T09:58:22Z</time>
      </trkpt>
      <trkpt lat="46.482183" lon="13.298867">
        <ele>542.313</ele>
        <time>2018-09-07T09:58:39Z</time>
      </trkpt>
      <trkpt lat="46.482687" lon="13.299036">
        <ele>545.208</ele>
        <time>2018-09-07T09:58:53Z</time>
      </trkpt>
      <trkpt lat="46.483387" lon="13.299261">
        <ele>548.090</ele>
        <time>2018-09-07T09:59:10Z</time>
      </trkpt>
      <trkpt lat="46.484231" lon="13.299492">
        <ele>549.082</ele>
        <time>2018-09-07T09:59:30Z</time>
      </trkpt>
      <trkpt lat="46.484693" lon="13.299541">
        <ele>549.078</ele>
        <time>2018-09-07T09:59:41Z</time>
      </trkpt>
      <trkpt lat="46.485302" lon="13.299495">
        <ele>551.465</ele>
        <time>2018-09-07T09:59:55Z</time>
      </trkpt>
      <trkpt lat="46.485613" lon="13.299492">
        <ele>551.956</ele>
        <time>2018-09-07T10:00:03Z</time>
      </trkpt>
      <trkpt lat="46.485651" lon="13.299468">
        <ele>551.974</ele>
        <time>2018-09-07T10:00:04Z</time>
      </trkpt>
      <trkpt lat="46.485689" lon="13.299443">
        <ele>551.911</ele>
        <time>2018-09-07T10:00:05Z</time>
      </trkpt>
      <trkpt lat="46.485732" lon="13.299430">
        <ele>551.994</ele>
        <time>2018-09-07T10:00:06Z</time>
      </trkpt>
      <trkpt lat="46.485779" lon="13.299416">
        <ele>551.934</ele>
        <time>2018-09-07T10:00:07Z</time>
      </trkpt>
      <trkpt lat="46.485825" lon="13.299405">
        <ele>551.955</ele>
        <time>2018-09-07T10:00:08Z</time>
      </trkpt>
      <trkpt lat="46.485868" lon="13.299400">
        <ele>551.910</ele>
        <time>2018-09-07T10:00:09Z</time>
      </trkpt>
      <trkpt lat="46.485908" lon="13.299398">
        <ele>551.908</ele>
        <time>2018-09-07T10:00:10Z</time>
      </trkpt>
      <trkpt lat="46.486369" lon="13.299389">
        <ele>550.037</ele>
        <time>2018-09-07T10:00:22Z</time>
      </trkpt>
      <trkpt lat="46.486873" lon="13.299289">
        <ele>554.349</ele>
        <time>2018-09-07T10:00:34Z</time>
      </trkpt>
      <trkpt lat="46.487333" lon="13.299221">
        <ele>556.745</ele>
        <time>2018-09-07T10:00:47Z</time>
      </trkpt>
      <trkpt lat="46.487925" lon="13.299110">
        <ele>557.712</ele>
        <time>2018-09-07T10:01:04Z</time>
      </trkpt>
      <trkpt lat="46.488446" lon="13.298892">
        <ele>559.643</ele>
        <time>2018-09-07T10:01:20Z</time>
      </trkpt>
      <trkpt lat="46.489052" lon="13.298577">
        <ele>564.431</ele>
        <time>2018-09-07T10:01:38Z</time>
      </trkpt>
      <trkpt lat="46.489211" lon="13.298536">
        <ele>564.928</ele>
        <time>2018-09-07T10:01:45Z</time>
      </trkpt>
      <trkpt lat="46.489254" lon="13.298524">
        <ele>564.981</ele>
        <time>2018-09-07T10:01:48Z</time>
      </trkpt>
      <trkpt lat="46.489507" lon="13.298381">
        <ele>565.387</ele>
        <time>2018-09-07T10:02:02Z</time>
      </trkpt>
      <trkpt lat="46.489860" lon="13.298310">
        <ele>565.842</ele>
        <time>2018-09-07T10:02:15Z</time>
      </trkpt>
      <trkpt lat="46.490562" lon="13.298347">
        <ele>564.426</ele>
        <time>2018-09-07T10:02:35Z</time>
      </trkpt>
      <trkpt lat="46.491161" lon="13.298583">
        <ele>565.308</ele>
        <time>2018-09-07T10:02:53Z</time>
      </trkpt>
      <trkpt lat="46.491492" lon="13.298765">
        <ele>562.552</ele>
        <time>2018-09-07T10:03:05Z</time>
      </trkpt>
      <trkpt lat="46.491495" lon="13.298788">
        <ele>562.554</ele>
        <time>2018-09-07T10:03:06Z</time>
      </trkpt>
      <trkpt lat="46.491505" lon="13.298806">
        <ele>562.040</ele>
        <time>2018-09-07T10:03:07Z</time>
      </trkpt>
      <trkpt lat="46.491518" lon="13.298831">
        <ele>562.047</ele>
        <time>2018-09-07T10:03:08Z</time>
      </trkpt>
      <trkpt lat="46.491539" lon="13.298872">
        <ele>561.518</ele>
        <time>2018-09-07T10:03:09Z</time>
      </trkpt>
      <trkpt lat="46.491566" lon="13.298935">
        <ele>560.546</ele>
        <time>2018-09-07T10:03:10Z</time>
      </trkpt>
      <trkpt lat="46.491602" lon="13.299016">
        <ele>560.173</ele>
        <time>2018-09-07T10:03:11Z</time>
      </trkpt>
      <trkpt lat="46.491643" lon="13.299115">
        <ele>559.156</ele>
        <time>2018-09-07T10:03:12Z</time>
      </trkpt>
      <trkpt lat="46.491691" lon="13.299221">
        <ele>558.112</ele>
        <time>2018-09-07T10:03:13Z</time>
      </trkpt>
      <trkpt lat="46.491758" lon="13.299319">
        <ele>557.232</ele>
        <time>2018-09-07T10:03:14Z</time>
      </trkpt>
      <trkpt lat="46.491835" lon="13.299398">
        <ele>556.705</ele>
        <time>2018-09-07T10:03:15Z</time>
      </trkpt>
      <trkpt lat="46.491916" lon="13.299455">
        <ele>556.708</ele>
        <time>2018-09-07T10:03:16Z</time>
      </trkpt>
      <trkpt lat="46.491989" lon="13.299505">
        <ele>556.275</ele>
        <time>2018-09-07T10:03:17Z</time>
      </trkpt>
      <trkpt lat="46.492251" lon="13.299697">
        <ele>558.157</ele>
        <time>2018-09-07T10:03:24Z</time>
      </trkpt>
      <trkpt lat="46.492533" lon="13.299846">
        <ele>561.553</ele>
        <time>2018-09-07T10:03:40Z</time>
      </trkpt>
      <trkpt lat="46.492748" lon="13.300024">
        <ele>562.580</ele>
        <time>2018-09-07T10:03:53Z</time>
      </trkpt>
      <trkpt lat="46.492763" lon="13.300028">
        <ele>562.511</ele>
        <time>2018-09-07T10:03:54Z</time>
      </trkpt>
      <trkpt lat="46.492792" lon="13.300036">
        <ele>562.519</ele>
        <time>2018-09-07T10:03:56Z</time>
      </trkpt>
      <trkpt lat="46.493014" lon="13.300188">
        <ele>563.926</ele>
        <time>2018-09-07T10:04:11Z</time>
      </trkpt>
      <trkpt lat="46.493213" lon="13.300276">
        <ele>564.449</ele>
        <time>2018-09-07T10:04:24Z</time>
      </trkpt>
      <trkpt lat="46.493393" lon="13.300529">
        <ele>562.597</ele>
        <time>2018-09-07T10:04:38Z</time>
      </trkpt>
      <trkpt lat="46.493435" lon="13.300549">
        <ele>562.023</ele>
        <time>2018-09-07T10:04:39Z</time>
      </trkpt>
      <trkpt lat="46.493483" lon="13.300560">
        <ele>561.525</ele>
        <time>2018-09-07T10:04:40Z</time>
      </trkpt>
      <trkpt lat="46.493537" lon="13.300555">
        <ele>561.008</ele>
        <time>2018-09-07T10:04:41Z</time>
      </trkpt>
      <trkpt lat="46.493591" lon="13.300548">
        <ele>560.193</ele>
        <time>2018-09-07T10:04:42Z</time>
      </trkpt>
      <trkpt lat="46.493643" lon="13.300562">
        <ele>559.655</ele>
        <time>2018-09-07T10:04:43Z</time>
      </trkpt>
      <trkpt lat="46.493678" lon="13.300600">
        <ele>558.661</ele>
        <time>2018-09-07T10:04:44Z</time>
      </trkpt>
      <trkpt lat="46.493689" lon="13.300655">
        <ele>558.178</ele>
        <time>2018-09-07T10:04:45Z</time>
      </trkpt>
      <trkpt lat="46.493673" lon="13.300705">
        <ele>557.789</ele>
        <time>2018-09-07T10:04:46Z</time>
      </trkpt>
      <trkpt lat="46.493640" lon="13.300730">
        <ele>557.777</ele>
        <time>2018-09-07T10:04:47Z</time>
      </trkpt>
      <trkpt lat="46.493606" lon="13.300733">
        <ele>557.794</ele>
        <time>2018-09-07T10:04:48Z</time>
      </trkpt>
      <trkpt lat="46.493576" lon="13.300725">
        <ele>557.757</ele>
        <time>2018-09-07T10:04:49Z</time>
      </trkpt>
      <trkpt lat="46.493546" lon="13.300720">
        <ele>557.778</ele>
        <time>2018-09-07T10:04:50Z</time>
      </trkpt>
      <trkpt lat="46.493519" lon="13.300728">
        <ele>557.233</ele>
        <time>2018-09-07T10:04:51Z</time>
      </trkpt>
      <trkpt lat="46.493500" lon="13.300758">
        <ele>557.226</ele>
        <time>2018-09-07T10:04:52Z</time>
      </trkpt>
      <trkpt lat="46.493501" lon="13.300801">
        <ele>557.208</ele>
        <time>2018-09-07T10:04:53Z</time>
      </trkpt>
      <trkpt lat="46.493512" lon="13.300834">
        <ele>556.721</ele>
        <time>2018-09-07T10:04:54Z</time>
      </trkpt>
      <trkpt lat="46.493514" lon="13.300852">
        <ele>556.733</ele>
        <time>2018-09-07T10:04:55Z</time>
      </trkpt>
      <trkpt lat="46.493506" lon="13.300860">
        <ele>556.789</ele>
        <time>2018-09-07T10:04:56Z</time>
      </trkpt>
      <trkpt lat="46.493496" lon="13.300854">
        <ele>556.726</ele>
        <time>2018-09-07T10:04:57Z</time>
      </trkpt>
      <trkpt lat="46.493495" lon="13.300837">
        <ele>556.747</ele>
        <time>2018-09-07T10:04:58Z</time>
      </trkpt>
      <trkpt lat="46.493498" lon="13.300777">
        <ele>558.175</ele>
        <time>2018-09-07T10:05:07Z</time>
      </trkpt>
      <trkpt lat="46.493510" lon="13.300764">
        <ele>558.122</ele>
        <time>2018-09-07T10:05:27Z</time>
      </trkpt>
      <trkpt lat="46.493520" lon="13.300784">
        <ele>557.285</ele>
        <time>2018-09-07T10:05:46Z</time>
      </trkpt>
      <trkpt lat="46.493527" lon="13.300783">
        <ele>557.279</ele>
        <time>2018-09-07T10:05:49Z</time>
      </trkpt>
      <trkpt lat="46.493890" lon="13.300759">
        <ele>555.705</ele>
        <time>2018-09-07T10:06:01Z</time>
      </trkpt>
      <trkpt lat="46.494156" lon="13.300643">
        <ele>553.325</ele>
        <time>2018-09-07T10:06:06Z</time>
      </trkpt>
      <trkpt lat="46.494294" lon="13.300600">
        <ele>552.908</ele>
        <time>2018-09-07T10:06:08Z</time>
      </trkpt>
      <trkpt lat="46.494334" lon="13.300578">
        <ele>552.991</ele>
        <time>2018-09-07T10:06:09Z</time>
      </trkpt>
      <trkpt lat="46.494385" lon="13.300539">
        <ele>552.453</ele>
        <time>2018-09-07T10:06:10Z</time>
      </trkpt>
      <trkpt lat="46.494752" lon="13.300222">
        <ele>554.869</ele>
        <time>2018-09-07T10:06:19Z</time>
      </trkpt>
      <trkpt lat="46.495430" lon="13.300023">
        <ele>555.396</ele>
        <time>2018-09-07T10:06:35Z</time>
      </trkpt>
      <trkpt lat="46.496037" lon="13.299841">
        <ele>559.157</ele>
        <time>2018-09-07T10:06:51Z</time>
      </trkpt>
      <trkpt lat="46.496571" lon="13.299672">
        <ele>562.585</ele>
        <time>2018-09-07T10:07:06Z</time>
      </trkpt>
      <trkpt lat="46.497239" lon="13.299447">
        <ele>564.482</ele>
        <time>2018-09-07T10:07:26Z</time>
      </trkpt>
      <trkpt lat="46.497863" lon="13.299522">
        <ele>565.845</ele>
        <time>2018-09-07T10:07:44Z</time>
      </trkpt>
      <trkpt lat="46.498452" lon="13.299943">
        <ele>566.825</ele>
        <time>2018-09-07T10:08:03Z</time>
      </trkpt>
      <trkpt lat="46.499057" lon="13.300190">
        <ele>565.326</ele>
        <time>2018-09-07T10:08:19Z</time>
      </trkpt>
      <trkpt lat="46.499242" lon="13.300278">
        <ele>564.408</ele>
        <time>2018-09-07T10:08:23Z</time>
      </trkpt>
      <trkpt lat="46.499434" lon="13.300420">
        <ele>563.908</ele>
        <time>2018-09-07T10:08:27Z</time>
      </trkpt>
      <trkpt lat="46.500188" lon="13.301391">
        <ele>561.526</ele>
        <time>2018-09-07T10:08:44Z</time>
      </trkpt>
      <trkpt lat="46.500892" lon="13.302327">
        <ele>560.148</ele>
        <time>2018-09-07T10:09:00Z</time>
      </trkpt>
      <trkpt lat="46.501387" lon="13.302964">
        <ele>561.034</ele>
        <time>2018-09-07T10:09:15Z</time>
      </trkpt>
      <trkpt lat="46.501891" lon="13.303614">
        <ele>562.531</ele>
        <time>2018-09-07T10:09:31Z</time>
      </trkpt>
      <trkpt lat="46.502304" lon="13.304022">
        <ele>563.962</ele>
        <time>2018-09-07T10:09:44Z</time>
      </trkpt>
      <trkpt lat="46.502760" lon="13.304263">
        <ele>566.370</ele>
        <time>2018-09-07T10:09:59Z</time>
      </trkpt>
      <trkpt lat="46.503272" lon="13.304346">
        <ele>567.867</ele>
        <time>2018-09-07T10:10:16Z</time>
      </trkpt>
      <trkpt lat="46.503768" lon="13.304279">
        <ele>569.770</ele>
        <time>2018-09-07T10:10:35Z</time>
      </trkpt>
      <trkpt lat="46.504265" lon="13.304221">
        <ele>572.175</ele>
        <time>2018-09-07T10:10:53Z</time>
      </trkpt>
      <trkpt lat="46.504799" lon="13.304325">
        <ele>573.528</ele>
        <time>2018-09-07T10:11:09Z</time>
      </trkpt>
      <trkpt lat="46.505446" lon="13.304806">
        <ele>573.520</ele>
        <time>2018-09-07T10:11:27Z</time>
      </trkpt>
      <trkpt lat="46.505473" lon="13.304865">
        <ele>574.008</ele>
        <time>2018-09-07T10:11:28Z</time>
      </trkpt>
      <trkpt lat="46.505492" lon="13.304912">
        <ele>574.511</ele>
        <time>2018-09-07T10:11:29Z</time>
      </trkpt>
      <trkpt lat="46.505510" lon="13.304960">
        <ele>575.013</ele>
        <time>2018-09-07T10:11:30Z</time>
      </trkpt>
      <trkpt lat="46.505540" lon="13.305006">
        <ele>575.989</ele>
        <time>2018-09-07T10:11:31Z</time>
      </trkpt>
      <trkpt lat="46.505574" lon="13.305044">
        <ele>576.436</ele>
        <time>2018-09-07T10:11:32Z</time>
      </trkpt>
      <trkpt lat="46.505614" lon="13.305077">
        <ele>577.417</ele>
        <time>2018-09-07T10:11:33Z</time>
      </trkpt>
      <trkpt lat="46.505906" lon="13.305455">
        <ele>578.855</ele>
        <time>2018-09-07T10:11:46Z</time>
      </trkpt>
      <trkpt lat="46.505984" lon="13.305611">
        <ele>576.952</ele>
        <time>2018-09-07T10:11:57Z</time>
      </trkpt>
      <trkpt lat="46.505982" lon="13.305625">
        <ele>576.465</ele>
        <time>2018-09-07T10:11:58Z</time>
      </trkpt>
      <trkpt lat="46.505991" lon="13.305631">
        <ele>575.987</ele>
        <time>2018-09-07T10:11:59Z</time>
      </trkpt>
      <trkpt lat="46.506001" lon="13.305630">
        <ele>575.942</ele>
        <time>2018-09-07T10:12:00Z</time>
      </trkpt>
      <trkpt lat="46.506057" lon="13.305659">
        <ele>573.526</ele>
        <time>2018-09-07T10:12:09Z</time>
      </trkpt>
      <trkpt lat="46.506073" lon="13.305670">
        <ele>573.508</ele>
        <time>2018-09-07T10:12:10Z</time>
      </trkpt>
      <trkpt lat="46.506276" lon="13.305946">
        <ele>571.132</ele>
        <time>2018-09-07T10:12:25Z</time>
      </trkpt>
      <trkpt lat="46.506426" lon="13.306148">
        <ele>569.244</ele>
        <time>2018-09-07T10:12:38Z</time>
      </trkpt>
      <trkpt lat="46.506423" lon="13.306234">
        <ele>567.840</ele>
        <time>2018-09-07T10:12:50Z</time>
      </trkpt>
      <trkpt lat="46.506487" lon="13.306229">
        <ele>569.757</ele>
        <time>2018-09-07T10:13:13Z</time>
      </trkpt>
      <trkpt lat="46.506501" lon="13.306240">
        <ele>569.228</ele>
        <time>2018-09-07T10:13:14Z</time>
      </trkpt>
      <trkpt lat="46.506516" lon="13.306259">
        <ele>569.276</ele>
        <time>2018-09-07T10:13:15Z</time>
      </trkpt>
      <trkpt lat="46.506532" lon="13.306279">
        <ele>569.253</ele>
        <time>2018-09-07T10:13:16Z</time>
      </trkpt>
      <trkpt lat="46.506548" lon="13.306303">
        <ele>568.716</ele>
        <time>2018-09-07T10:13:17Z</time>
      </trkpt>
      <trkpt lat="46.506563" lon="13.306334">
        <ele>568.769</ele>
        <time>2018-09-07T10:13:18Z</time>
      </trkpt>
      <trkpt lat="46.506577" lon="13.306370">
        <ele>568.704</ele>
        <time>2018-09-07T10:13:19Z</time>
      </trkpt>
      <trkpt lat="46.506593" lon="13.306409">
        <ele>568.224</ele>
        <time>2018-09-07T10:13:20Z</time>
      </trkpt>
      <trkpt lat="46.506660" lon="13.306590">
        <ele>568.208</ele>
        <time>2018-09-07T10:13:25Z</time>
      </trkpt>
      <trkpt lat="46.506725" lon="13.306900">
        <ele>566.350</ele>
        <time>2018-09-07T10:13:36Z</time>
      </trkpt>
      <trkpt lat="46.506741" lon="13.306941">
        <ele>563.432</ele>
        <time>2018-09-07T10:13:46Z</time>
      </trkpt>
      <trkpt lat="46.506703" lon="13.306966">
        <ele>559.688</ele>
        <time>2018-09-07T10:14:07Z</time>
      </trkpt>
      <trkpt lat="46.506693" lon="13.306900">
        <ele>559.115</ele>
        <time>2018-09-07T10:14:28Z</time>
      </trkpt>
      <trkpt lat="46.506723" lon="13.306866">
        <ele>564.486</ele>
        <time>2018-09-07T10:14:41Z</time>
      </trkpt>
      <trkpt lat="46.506726" lon="13.306848">
        <ele>566.394</ele>
        <time>2018-09-07T10:14:43Z</time>
      </trkpt>
      <trkpt lat="46.506724" lon="13.306830">
        <ele>566.831</ele>
        <time>2018-09-07T10:14:44Z</time>
      </trkpt>
      <trkpt lat="46.506722" lon="13.306812">
        <ele>567.874</ele>
        <time>2018-09-07T10:14:45Z</time>
      </trkpt>
      <trkpt lat="46.506721" lon="13.306789">
        <ele>568.221</ele>
        <time>2018-09-07T10:14:46Z</time>
      </trkpt>
      <trkpt lat="46.506722" lon="13.306765">
        <ele>569.241</ele>
        <time>2018-09-07T10:14:47Z</time>
      </trkpt>
      <trkpt lat="46.506619" lon="13.306496">
        <ele>572.605</ele>
        <time>2018-09-07T10:14:59Z</time>
      </trkpt>
      <trkpt lat="46.506550" lon="13.306353">
        <ele>573.008</ele>
        <time>2018-09-07T10:15:13Z</time>
      </trkpt>
      <trkpt lat="46.506559" lon="13.306355">
        <ele>571.126</ele>
        <time>2018-09-07T10:15:44Z</time>
      </trkpt>
      <trkpt lat="46.506517" lon="13.306297">
        <ele>573.538</ele>
        <time>2018-09-07T10:16:00Z</time>
      </trkpt>
      <trkpt lat="46.506514" lon="13.306269">
        <ele>575.074</ele>
        <time>2018-09-07T10:16:23Z</time>
      </trkpt>
      <trkpt lat="46.506466" lon="13.306205">
        <ele>575.961</ele>
        <time>2018-09-07T10:16:46Z</time>
      </trkpt>
      <trkpt lat="46.506413" lon="13.306180">
        <ele>577.812</ele>
        <time>2018-09-07T10:17:15Z</time>
      </trkpt>
      <trkpt lat="46.506456" lon="13.306169">
        <ele>578.830</ele>
        <time>2018-09-07T10:17:43Z</time>
      </trkpt>
      <trkpt lat="46.506403" lon="13.306182">
        <ele>579.817</ele>
        <time>2018-09-07T10:18:06Z</time>
      </trkpt>
      <trkpt lat="46.506410" lon="13.306196">
        <ele>580.790</ele>
        <time>2018-09-07T10:18:34Z</time>
      </trkpt>
      <trkpt lat="46.506437" lon="13.306230">
        <ele>578.875</ele>
        <time>2018-09-07T10:18:59Z</time>
      </trkpt>
      <trkpt lat="46.506475" lon="13.306260">
        <ele>578.328</ele>
        <time>2018-09-07T10:19:32Z</time>
      </trkpt>
      <trkpt lat="46.506411" lon="13.306233">
        <ele>578.820</ele>
        <time>2018-09-07T10:20:02Z</time>
      </trkpt>
      <trkpt lat="46.506438" lon="13.306169">
        <ele>570.608</ele>
        <time>2018-09-07T10:20:39Z</time>
      </trkpt>
      <trkpt lat="46.506474" lon="13.306288">
        <ele>568.791</ele>
        <time>2018-09-07T10:21:18Z</time>
      </trkpt>
      <trkpt lat="46.506462" lon="13.306252">
        <ele>570.693</ele>
        <time>2018-09-07T10:21:50Z</time>
      </trkpt>
      <trkpt lat="46.506472" lon="13.306234">
        <ele>569.789</ele>
        <time>2018-09-07T10:22:18Z</time>
      </trkpt>
      <trkpt lat="46.506457" lon="13.306228">
        <ele>568.296</ele>
        <time>2018-09-07T10:23:04Z</time>
      </trkpt>
      <trkpt lat="46.506421" lon="13.306201">
        <ele>570.697</ele>
        <time>2018-09-07T10:23:46Z</time>
      </trkpt>
      <trkpt lat="46.506450" lon="13.306195">
        <ele>566.835</ele>
        <time>2018-09-07T10:24:22Z</time>
      </trkpt>
      <trkpt lat="46.506489" lon="13.306185">
        <ele>568.282</ele>
        <time>2018-09-07T10:24:49Z</time>
      </trkpt>
      <trkpt lat="46.506475" lon="13.306255">
        <ele>570.675</ele>
        <time>2018-09-07T10:25:20Z</time>
      </trkpt>
      <trkpt lat="46.506471" lon="13.306273">
        <ele>572.677</ele>
        <time>2018-09-07T10:25:47Z</time>
      </trkpt>
      <trkpt lat="46.506468" lon="13.306261">
        <ele>573.061</ele>
        <time>2018-09-07T10:26:25Z</time>
      </trkpt>
      <trkpt lat="46.506414" lon="13.306138">
        <ele>573.027</ele>
        <time>2018-09-07T10:26:37Z</time>
      </trkpt>
      <trkpt lat="46.506404" lon="13.306116">
        <ele>573.008</ele>
        <time>2018-09-07T10:26:38Z</time>
      </trkpt>
      <trkpt lat="46.506392" lon="13.306096">
        <ele>573.061</ele>
        <time>2018-09-07T10:26:39Z</time>
      </trkpt>
      <trkpt lat="46.506380" lon="13.306074">
        <ele>573.073</ele>
        <time>2018-09-07T10:26:40Z</time>
      </trkpt>
      <trkpt lat="46.506368" lon="13.306059">
        <ele>573.039</ele>
        <time>2018-09-07T10:26:41Z</time>
      </trkpt>
      <trkpt lat="46.506356" lon="13.306045">
        <ele>573.086</ele>
        <time>2018-09-07T10:26:42Z</time>
      </trkpt>
      <trkpt lat="46.506343" lon="13.306024">
        <ele>573.577</ele>
        <time>2018-09-07T10:26:43Z</time>
      </trkpt>
      <trkpt lat="46.506335" lon="13.306001">
        <ele>573.535</ele>
        <time>2018-09-07T10:26:44Z</time>
      </trkpt>
      <trkpt lat="46.506326" lon="13.305971">
        <ele>574.082</ele>
        <time>2018-09-07T10:26:45Z</time>
      </trkpt>
      <trkpt lat="46.506131" lon="13.305649">
        <ele>574.565</ele>
        <time>2018-09-07T10:26:59Z</time>
      </trkpt>
      <trkpt lat="46.505905" lon="13.305332">
        <ele>573.074</ele>
        <time>2018-09-07T10:27:15Z</time>
      </trkpt>
      <trkpt lat="46.505744" lon="13.305098">
        <ele>572.656</ele>
        <time>2018-09-07T10:27:23Z</time>
      </trkpt>
      <trkpt lat="46.505736" lon="13.305061">
        <ele>572.621</ele>
        <time>2018-09-07T10:27:24Z</time>
      </trkpt>
      <trkpt lat="46.505744" lon="13.305010">
        <ele>572.108</ele>
        <time>2018-09-07T10:27:25Z</time>
      </trkpt>
      <trkpt lat="46.505759" lon="13.304986">
        <ele>572.131</ele>
        <time>2018-09-07T10:27:26Z</time>
      </trkpt>
      <trkpt lat="46.505776" lon="13.304971">
        <ele>572.183</ele>
        <time>2018-09-07T10:27:27Z</time>
      </trkpt>
      <trkpt lat="46.505802" lon="13.304958">
        <ele>572.149</ele>
        <time>2018-09-07T10:27:28Z</time>
      </trkpt>
      <trkpt lat="46.506044" lon="13.304830">
        <ele>571.686</ele>
        <time>2018-09-07T10:27:38Z</time>
      </trkpt>
      <trkpt lat="46.506163" lon="13.304782">
        <ele>572.197</ele>
        <time>2018-09-07T10:27:43Z</time>
      </trkpt>
      <trkpt lat="46.506177" lon="13.304781">
        <ele>572.165</ele>
        <time>2018-09-07T10:27:44Z</time>
      </trkpt>
      <trkpt lat="46.506193" lon="13.304779">
        <ele>572.132</ele>
        <time>2018-09-07T10:27:45Z</time>
      </trkpt>
      <trkpt lat="46.506321" lon="13.304702">
        <ele>572.625</ele>
        <time>2018-09-07T10:27:51Z</time>
      </trkpt>
      <trkpt lat="46.506335" lon="13.304651">
        <ele>572.617</ele>
        <time>2018-09-07T10:27:52Z</time>
      </trkpt>
      <trkpt lat="46.506350" lon="13.304580">
        <ele>572.687</ele>
        <time>2018-09-07T10:27:53Z</time>
      </trkpt>
      <trkpt lat="46.506538" lon="13.304190">
        <ele>572.615</ele>
        <time>2018-09-07T10:28:08Z</time>
      </trkpt>
      <trkpt lat="46.506679" lon="13.303864">
        <ele>574.508</ele>
        <time>2018-09-07T10:28:22Z</time>
      </trkpt>
      <trkpt lat="46.506760" lon="13.303729">
        <ele>575.495</ele>
        <time>2018-09-07T10:28:31Z</time>
      </trkpt>
      <trkpt lat="46.506765" lon="13.303707">
        <ele>575.417</ele>
        <time>2018-09-07T10:28:32Z</time>
      </trkpt>
      <trkpt lat="46.506886" lon="13.303489">
        <ele>573.533</ele>
        <time>2018-09-07T10:28:45Z</time>
      </trkpt>
      <trkpt lat="46.506886" lon="13.303493">
        <ele>573.040</ele>
        <time>2018-09-07T10:28:47Z</time>
      </trkpt>
      <trkpt lat="46.506861" lon="13.303551">
        <ele>573.511</ele>
        <time>2018-09-07T10:28:51Z</time>
      </trkpt>
      <trkpt lat="46.506847" lon="13.303598">
        <ele>574.049</ele>
        <time>2018-09-07T10:28:54Z</time>
      </trkpt>
      <trkpt lat="46.506874" lon="13.303590">
        <ele>573.536</ele>
        <time>2018-09-07T10:28:58Z</time>
      </trkpt>
      <trkpt lat="46.507089" lon="13.303167">
        <ele>573.539</ele>
        <time>2018-09-07T10:29:13Z</time>
      </trkpt>
      <trkpt lat="46.507394" lon="13.302718">
        <ele>574.088</ele>
        <time>2018-09-07T10:29:29Z</time>
      </trkpt>
      <trkpt lat="46.507495" lon="13.302554">
        <ele>573.524</ele>
        <time>2018-09-07T10:29:35Z</time>
      </trkpt>
      <trkpt lat="46.507509" lon="13.302541">
        <ele>573.526</ele>
        <time>2018-09-07T10:29:36Z</time>
      </trkpt>
      <trkpt lat="46.507795" lon="13.302196">
        <ele>571.608</ele>
        <time>2018-09-07T10:29:51Z</time>
      </trkpt>
      <trkpt lat="46.507934" lon="13.301785">
        <ele>576.442</ele>
        <time>2018-09-07T10:30:04Z</time>
      </trkpt>
      <trkpt lat="46.508045" lon="13.301439">
        <ele>578.824</ele>
        <time>2018-09-07T10:30:16Z</time>
      </trkpt>
      <trkpt lat="46.508345" lon="13.300926">
        <ele>579.880</ele>
        <time>2018-09-07T10:30:36Z</time>
      </trkpt>
      <trkpt lat="46.508680" lon="13.300633">
        <ele>583.627</ele>
        <time>2018-09-07T10:30:53Z</time>
      </trkpt>
      <trkpt lat="46.509084" lon="13.300411">
        <ele>588.418</ele>
        <time>2018-09-07T10:31:12Z</time>
      </trkpt>
      <trkpt lat="46.508313" lon="13.300985">
        <ele>582.756</ele>
        <time>2018-09-07T10:33:52Z</time>
      </trkpt>
      <trkpt lat="46.508328" lon="13.301013">
        <ele>582.223</ele>
        <time>2018-09-07T10:33:53Z</time>
      </trkpt>
      <trkpt lat="46.508359" lon="13.301013">
        <ele>582.256</ele>
        <time>2018-09-07T10:33:54Z</time>
      </trkpt>
      <trkpt lat="46.508382" lon="13.300990">
        <ele>581.724</ele>
        <time>2018-09-07T10:33:55Z</time>
      </trkpt>
      <trkpt lat="46.508402" lon="13.300964">
        <ele>581.704</ele>
        <time>2018-09-07T10:33:56Z</time>
      </trkpt>
      <trkpt lat="46.508734" lon="13.300701">
        <ele>581.714</ele>
        <time>2018-09-07T10:34:10Z</time>
      </trkpt>
      <trkpt lat="46.509200" lon="13.300400">
        <ele>582.708</ele>
        <time>2018-09-07T10:34:27Z</time>
      </trkpt>
      <trkpt lat="46.509605" lon="13.300218">
        <ele>588.446</ele>
        <time>2018-09-07T10:34:42Z</time>
      </trkpt>
      <trkpt lat="46.509991" lon="13.299924">
        <ele>588.938</ele>
        <time>2018-09-07T10:34:58Z</time>
      </trkpt>
      <trkpt lat="46.510336" lon="13.299526">
        <ele>589.954</ele>
        <time>2018-09-07T10:35:14Z</time>
      </trkpt>
      <trkpt lat="46.510689" lon="13.299016">
        <ele>591.831</ele>
        <time>2018-09-07T10:35:32Z</time>
      </trkpt>
      <trkpt lat="46.510924" lon="13.298325">
        <ele>589.912</ele>
        <time>2018-09-07T10:35:51Z</time>
      </trkpt>
      <trkpt lat="46.511160" lon="13.297685">
        <ele>590.370</ele>
        <time>2018-09-07T10:36:07Z</time>
      </trkpt>
      <trkpt lat="46.511610" lon="13.297109">
        <ele>591.357</ele>
        <time>2018-09-07T10:36:24Z</time>
      </trkpt>
      <trkpt lat="46.512066" lon="13.296539">
        <ele>591.880</ele>
        <time>2018-09-07T10:36:41Z</time>
      </trkpt>
      <trkpt lat="46.512445" lon="13.296000">
        <ele>590.817</ele>
        <time>2018-09-07T10:36:57Z</time>
      </trkpt>
      <trkpt lat="46.512862" lon="13.295498">
        <ele>591.387</ele>
        <time>2018-09-07T10:37:14Z</time>
      </trkpt>
      <trkpt lat="46.513295" lon="13.295071">
        <ele>593.215</ele>
        <time>2018-09-07T10:37:31Z</time>
      </trkpt>
      <trkpt lat="46.513550" lon="13.294672">
        <ele>591.808</ele>
        <time>2018-09-07T10:37:43Z</time>
      </trkpt>
      <trkpt lat="46.513845" lon="13.294078">
        <ele>593.735</ele>
        <time>2018-09-07T10:38:01Z</time>
      </trkpt>
      <trkpt lat="46.514054" lon="13.293618">
        <ele>592.397</ele>
        <time>2018-09-07T10:38:16Z</time>
      </trkpt>
      <trkpt lat="46.514234" lon="13.293160">
        <ele>590.873</ele>
        <time>2018-09-07T10:38:30Z</time>
      </trkpt>
      <trkpt lat="46.514529" lon="13.292713">
        <ele>593.270</ele>
        <time>2018-09-07T10:38:47Z</time>
      </trkpt>
      <trkpt lat="46.514853" lon="13.292520">
        <ele>595.631</ele>
        <time>2018-09-07T10:39:01Z</time>
      </trkpt>
      <trkpt lat="46.515272" lon="13.292384">
        <ele>597.119</ele>
        <time>2018-09-07T10:39:18Z</time>
      </trkpt>
      <trkpt lat="46.515362" lon="13.292344">
        <ele>597.666</ele>
        <time>2018-09-07T10:39:22Z</time>
      </trkpt>
      <trkpt lat="46.515379" lon="13.292318">
        <ele>597.669</ele>
        <time>2018-09-07T10:39:23Z</time>
      </trkpt>
      <trkpt lat="46.515398" lon="13.292298">
        <ele>598.013</ele>
        <time>2018-09-07T10:39:24Z</time>
      </trkpt>
      <trkpt lat="46.515419" lon="13.292280">
        <ele>598.043</ele>
        <time>2018-09-07T10:39:25Z</time>
      </trkpt>
      <trkpt lat="46.515440" lon="13.292259">
        <ele>598.507</ele>
        <time>2018-09-07T10:39:26Z</time>
      </trkpt>
      <trkpt lat="46.515761" lon="13.291916">
        <ele>602.808</ele>
        <time>2018-09-07T10:39:43Z</time>
      </trkpt>
      <trkpt lat="46.516085" lon="13.291775">
        <ele>603.375</ele>
        <time>2018-09-07T10:40:00Z</time>
      </trkpt>
      <trkpt lat="46.516350" lon="13.291679">
        <ele>602.437</ele>
        <time>2018-09-07T10:40:14Z</time>
      </trkpt>
      <trkpt lat="46.516690" lon="13.291614">
        <ele>605.783</ele>
        <time>2018-09-07T10:40:29Z</time>
      </trkpt>
      <trkpt lat="46.517152" lon="13.291479">
        <ele>612.050</ele>
        <time>2018-09-07T10:40:49Z</time>
      </trkpt>
      <trkpt lat="46.517445" lon="13.291100">
        <ele>614.941</ele>
        <time>2018-09-07T10:41:07Z</time>
      </trkpt>
      <trkpt lat="46.517608" lon="13.290747">
        <ele>618.749</ele>
        <time>2018-09-07T10:41:23Z</time>
      </trkpt>
      <trkpt lat="46.517692" lon="13.290282">
        <ele>620.186</ele>
        <time>2018-09-07T10:41:40Z</time>
      </trkpt>
      <trkpt lat="46.517655" lon="13.289910">
        <ele>620.149</ele>
        <time>2018-09-07T10:41:53Z</time>
      </trkpt>
      <trkpt lat="46.517595" lon="13.289470">
        <ele>622.135</ele>
        <time>2018-09-07T10:42:09Z</time>
      </trkpt>
      <trkpt lat="46.517525" lon="13.289022">
        <ele>623.586</ele>
        <time>2018-09-07T10:42:26Z</time>
      </trkpt>
      <trkpt lat="46.517437" lon="13.288559">
        <ele>624.514</ele>
        <time>2018-09-07T10:42:43Z</time>
      </trkpt>
      <trkpt lat="46.517323" lon="13.288121">
        <ele>625.408</ele>
        <time>2018-09-07T10:43:00Z</time>
      </trkpt>
      <trkpt lat="46.517218" lon="13.287807">
        <ele>624.577</ele>
        <time>2018-09-07T10:43:12Z</time>
      </trkpt>
      <trkpt lat="46.517144" lon="13.287308">
        <ele>627.439</ele>
        <time>2018-09-07T10:43:28Z</time>
      </trkpt>
      <trkpt lat="46.517078" lon="13.286788">
        <ele>628.385</ele>
        <time>2018-09-07T10:43:43Z</time>
      </trkpt>
      <trkpt lat="46.517039" lon="13.286314">
        <ele>628.842</ele>
        <time>2018-09-07T10:43:57Z</time>
      </trkpt>
      <trkpt lat="46.517255" lon="13.285838">
        <ele>632.223</ele>
        <time>2018-09-07T10:44:13Z</time>
      </trkpt>
      <trkpt lat="46.517504" lon="13.285511">
        <ele>637.471</ele>
        <time>2018-09-07T10:44:27Z</time>
      </trkpt>
      <trkpt lat="46.517808" lon="13.285242">
        <ele>639.418</ele>
        <time>2018-09-07T10:44:42Z</time>
      </trkpt>
      <trkpt lat="46.518026" lon="13.284920">
        <ele>639.441</ele>
        <time>2018-09-07T10:44:55Z</time>
      </trkpt>
      <trkpt lat="46.518242" lon="13.284371">
        <ele>637.431</ele>
        <time>2018-09-07T10:45:12Z</time>
      </trkpt>
      <trkpt lat="46.518480" lon="13.283978">
        <ele>639.861</ele>
        <time>2018-09-07T10:45:27Z</time>
      </trkpt>
      <trkpt lat="46.518527" lon="13.283474">
        <ele>639.407</ele>
        <time>2018-09-07T10:45:40Z</time>
      </trkpt>
      <trkpt lat="46.518526" lon="13.282843">
        <ele>640.308</ele>
        <time>2018-09-07T10:45:56Z</time>
      </trkpt>
      <trkpt lat="46.518552" lon="13.282246">
        <ele>639.427</ele>
        <time>2018-09-07T10:46:11Z</time>
      </trkpt>
      <trkpt lat="46.518594" lon="13.281680">
        <ele>638.949</ele>
        <time>2018-09-07T10:46:24Z</time>
      </trkpt>
      <trkpt lat="46.518759" lon="13.281279">
        <ele>638.965</ele>
        <time>2018-09-07T10:46:35Z</time>
      </trkpt>
      <trkpt lat="46.519088" lon="13.280474">
        <ele>640.312</ele>
        <time>2018-09-07T10:46:53Z</time>
      </trkpt>
      <trkpt lat="46.519346" lon="13.279779">
        <ele>641.333</ele>
        <time>2018-09-07T10:47:09Z</time>
      </trkpt>
      <trkpt lat="46.519450" lon="13.279170">
        <ele>642.721</ele>
        <time>2018-09-07T10:47:24Z</time>
      </trkpt>
      <trkpt lat="46.519638" lon="13.278658">
        <ele>643.738</ele>
        <time>2018-09-07T10:47:40Z</time>
      </trkpt>
      <trkpt lat="46.519762" lon="13.278312">
        <ele>644.741</ele>
        <time>2018-09-07T10:47:52Z</time>
      </trkpt>
      <trkpt lat="46.520009" lon="13.277717">
        <ele>647.542</ele>
        <time>2018-09-07T10:48:12Z</time>
      </trkpt>
      <trkpt lat="46.520265" lon="13.277223">
        <ele>648.522</ele>
        <time>2018-09-07T10:48:29Z</time>
      </trkpt>
      <trkpt lat="46.520448" lon="13.276653">
        <ele>649.514</ele>
        <time>2018-09-07T10:48:45Z</time>
      </trkpt>
      <trkpt lat="46.520621" lon="13.275883">
        <ele>651.908</ele>
        <time>2018-09-07T10:49:05Z</time>
      </trkpt>
      <trkpt lat="46.520725" lon="13.275262">
        <ele>651.978</ele>
        <time>2018-09-07T10:49:21Z</time>
      </trkpt>
      <trkpt lat="46.520804" lon="13.274440">
        <ele>653.380</ele>
        <time>2018-09-07T10:49:41Z</time>
      </trkpt>
      <trkpt lat="46.520820" lon="13.273730">
        <ele>654.346</ele>
        <time>2018-09-07T10:49:58Z</time>
      </trkpt>
      <trkpt lat="46.520938" lon="13.273044">
        <ele>655.713</ele>
        <time>2018-09-07T10:50:16Z</time>
      </trkpt>
      <trkpt lat="46.521095" lon="13.272451">
        <ele>657.654</ele>
        <time>2018-09-07T10:50:34Z</time>
      </trkpt>
      <trkpt lat="46.521207" lon="13.272033">
        <ele>657.652</ele>
        <time>2018-09-07T10:50:47Z</time>
      </trkpt>
      <trkpt lat="46.521368" lon="13.271447">
        <ele>660.079</ele>
        <time>2018-09-07T10:51:03Z</time>
      </trkpt>
      <trkpt lat="46.521523" lon="13.270808">
        <ele>663.992</ele>
        <time>2018-09-07T10:51:19Z</time>
      </trkpt>
      <trkpt lat="46.521660" lon="13.270146">
        <ele>662.495</ele>
        <time>2018-09-07T10:51:30Z</time>
      </trkpt>
      <trkpt lat="46.521823" lon="13.269155">
        <ele>664.449</ele>
        <time>2018-09-07T10:51:44Z</time>
      </trkpt>
      <trkpt lat="46.521870" lon="13.268186">
        <ele>666.823</ele>
        <time>2018-09-07T10:52:02Z</time>
      </trkpt>
      <trkpt lat="46.522040" lon="13.267279">
        <ele>670.108</ele>
        <time>2018-09-07T10:52:22Z</time>
      </trkpt>
      <trkpt lat="46.522223" lon="13.266633">
        <ele>673.033</ele>
        <time>2018-09-07T10:52:39Z</time>
      </trkpt>
      <trkpt lat="46.522387" lon="13.265938">
        <ele>677.885</ele>
        <time>2018-09-07T10:52:57Z</time>
      </trkpt>
      <trkpt lat="46.522562" lon="13.265253">
        <ele>679.761</ele>
        <time>2018-09-07T10:53:13Z</time>
      </trkpt>
      <trkpt lat="46.522745" lon="13.264559">
        <ele>682.148</ele>
        <time>2018-09-07T10:53:32Z</time>
      </trkpt>
      <trkpt lat="46.522830" lon="13.263986">
        <ele>685.029</ele>
        <time>2018-09-07T10:53:48Z</time>
      </trkpt>
      <trkpt lat="46.523057" lon="13.263420">
        <ele>686.537</ele>
        <time>2018-09-07T10:54:05Z</time>
      </trkpt>
      <trkpt lat="46.523366" lon="13.262739">
        <ele>689.464</ele>
        <time>2018-09-07T10:54:25Z</time>
      </trkpt>
      <trkpt lat="46.523569" lon="13.262261">
        <ele>692.277</ele>
        <time>2018-09-07T10:54:40Z</time>
      </trkpt>
      <trkpt lat="46.523667" lon="13.261706">
        <ele>693.722</ele>
        <time>2018-09-07T10:54:55Z</time>
      </trkpt>
      <trkpt lat="46.523545" lon="13.261108">
        <ele>694.662</ele>
        <time>2018-09-07T10:55:10Z</time>
      </trkpt>
      <trkpt lat="46.523721" lon="13.260762">
        <ele>696.108</ele>
        <time>2018-09-07T10:55:20Z</time>
      </trkpt>
      <trkpt lat="46.524004" lon="13.260640">
        <ele>698.008</ele>
        <time>2018-09-07T10:55:30Z</time>
      </trkpt>
      <trkpt lat="46.524020" lon="13.260603">
        <ele>698.046</ele>
        <time>2018-09-07T10:55:31Z</time>
      </trkpt>
      <trkpt lat="46.524231" lon="13.260126">
        <ele>699.518</ele>
        <time>2018-09-07T10:55:47Z</time>
      </trkpt>
      <trkpt lat="46.524369" lon="13.259754">
        <ele>701.444</ele>
        <time>2018-09-07T10:56:02Z</time>
      </trkpt>
      <trkpt lat="46.524505" lon="13.259516">
        <ele>703.381</ele>
        <time>2018-09-07T10:56:16Z</time>
      </trkpt>
      <trkpt lat="46.524522" lon="13.259475">
        <ele>700.452</ele>
        <time>2018-09-07T10:56:37Z</time>
      </trkpt>
      <trkpt lat="46.524514" lon="13.259487">
        <ele>700.990</ele>
        <time>2018-09-07T10:57:10Z</time>
      </trkpt>
      <trkpt lat="46.524528" lon="13.259527">
        <ele>705.777</ele>
        <time>2018-09-07T10:57:40Z</time>
      </trkpt>
      <trkpt lat="46.524535" lon="13.259517">
        <ele>705.290</ele>
        <time>2018-09-07T10:57:43Z</time>
      </trkpt>
      <trkpt lat="46.524548" lon="13.259511">
        <ele>705.212</ele>
        <time>2018-09-07T10:57:44Z</time>
      </trkpt>
      <trkpt lat="46.524562" lon="13.259499">
        <ele>704.732</ele>
        <time>2018-09-07T10:57:45Z</time>
      </trkpt>
      <trkpt lat="46.524574" lon="13.259478">
        <ele>704.705</ele>
        <time>2018-09-07T10:57:46Z</time>
      </trkpt>
      <trkpt lat="46.524588" lon="13.259455">
        <ele>704.708</ele>
        <time>2018-09-07T10:57:47Z</time>
      </trkpt>
      <trkpt lat="46.524600" lon="13.259427">
        <ele>704.735</ele>
        <time>2018-09-07T10:57:48Z</time>
      </trkpt>
      <trkpt lat="46.524790" lon="13.259080">
        <ele>703.827</ele>
        <time>2018-09-07T10:58:02Z</time>
      </trkpt>
      <trkpt lat="46.524764" lon="13.258608">
        <ele>703.833</ele>
        <time>2018-09-07T10:58:15Z</time>
      </trkpt>
      <trkpt lat="46.524783" lon="13.258338">
        <ele>705.270</ele>
        <time>2018-09-07T10:58:23Z</time>
      </trkpt>
      <trkpt lat="46.524792" lon="13.258314">
        <ele>705.271</ele>
        <time>2018-09-07T10:58:24Z</time>
      </trkpt>
      <trkpt lat="46.524799" lon="13.258289">
        <ele>705.239</ele>
        <time>2018-09-07T10:58:25Z</time>
      </trkpt>
      <trkpt lat="46.524802" lon="13.258262">
        <ele>705.276</ele>
        <time>2018-09-07T10:58:26Z</time>
      </trkpt>
      <trkpt lat="46.524806" lon="13.258234">
        <ele>705.739</ele>
        <time>2018-09-07T10:58:27Z</time>
      </trkpt>
      <trkpt lat="46.524904" lon="13.257907">
        <ele>707.195</ele>
        <time>2018-09-07T10:58:39Z</time>
      </trkpt>
      <trkpt lat="46.524931" lon="13.257441">
        <ele>709.549</ele>
        <time>2018-09-07T10:58:54Z</time>
      </trkpt>
      <trkpt lat="46.525034" lon="13.256915">
        <ele>713.423</ele>
        <time>2018-09-07T10:59:11Z</time>
      </trkpt>
      <trkpt lat="46.525100" lon="13.256539">
        <ele>718.208</ele>
        <time>2018-09-07T10:59:25Z</time>
      </trkpt>
      <trkpt lat="46.525145" lon="13.256233">
        <ele>718.233</ele>
        <time>2018-09-07T10:59:38Z</time>
      </trkpt>
      <trkpt lat="46.525061" lon="13.255926">
        <ele>717.735</ele>
        <time>2018-09-07T10:59:51Z</time>
      </trkpt>
      <trkpt lat="46.525036" lon="13.255883">
        <ele>718.781</ele>
        <time>2018-09-07T10:59:53Z</time>
      </trkpt>
      <trkpt lat="46.525022" lon="13.255864">
        <ele>719.258</ele>
        <time>2018-09-07T10:59:54Z</time>
      </trkpt>
      <trkpt lat="46.524898" lon="13.255484">
        <ele>726.429</ele>
        <time>2018-09-07T11:00:06Z</time>
      </trkpt>
      <trkpt lat="46.524819" lon="13.254932">
        <ele>729.337</ele>
        <time>2018-09-07T11:00:16Z</time>
      </trkpt>
      <trkpt lat="46.524953" lon="13.254557">
        <ele>729.784</ele>
        <time>2018-09-07T11:00:27Z</time>
      </trkpt>
      <trkpt lat="46.525083" lon="13.254291">
        <ele>731.297</ele>
        <time>2018-09-07T11:00:34Z</time>
      </trkpt>
      <trkpt lat="46.525075" lon="13.254250">
        <ele>731.232</ele>
        <time>2018-09-07T11:00:35Z</time>
      </trkpt>
      <trkpt lat="46.525061" lon="13.254211">
        <ele>731.792</ele>
        <time>2018-09-07T11:00:36Z</time>
      </trkpt>
      <trkpt lat="46.525048" lon="13.254172">
        <ele>732.111</ele>
        <time>2018-09-07T11:00:37Z</time>
      </trkpt>
      <trkpt lat="46.525038" lon="13.254132">
        <ele>732.108</ele>
        <time>2018-09-07T11:00:38Z</time>
      </trkpt>
      <trkpt lat="46.525068" lon="13.253611">
        <ele>730.797</ele>
        <time>2018-09-07T11:00:51Z</time>
      </trkpt>
      <trkpt lat="46.525227" lon="13.252985">
        <ele>731.239</ele>
        <time>2018-09-07T11:01:08Z</time>
      </trkpt>
      <trkpt lat="46.525423" lon="13.252640">
        <ele>734.585</ele>
        <time>2018-09-07T11:01:20Z</time>
      </trkpt>
      <trkpt lat="46.525637" lon="13.252296">
        <ele>735.052</ele>
        <time>2018-09-07T11:01:34Z</time>
      </trkpt>
      <trkpt lat="46.525870" lon="13.251926">
        <ele>734.523</ele>
        <time>2018-09-07T11:01:49Z</time>
      </trkpt>
      <trkpt lat="46.526000" lon="13.251749">
        <ele>737.481</ele>
        <time>2018-09-07T11:01:57Z</time>
      </trkpt>
      <trkpt lat="46.526021" lon="13.251728">
        <ele>737.448</ele>
        <time>2018-09-07T11:01:58Z</time>
      </trkpt>
      <trkpt lat="46.526038" lon="13.251706">
        <ele>737.971</ele>
        <time>2018-09-07T11:01:59Z</time>
      </trkpt>
      <trkpt lat="46.526291" lon="13.251280">
        <ele>743.215</ele>
        <time>2018-09-07T11:02:17Z</time>
      </trkpt>
      <trkpt lat="46.526403" lon="13.250683">
        <ele>741.365</ele>
        <time>2018-09-07T11:02:34Z</time>
      </trkpt>
      <trkpt lat="46.526517" lon="13.249904">
        <ele>738.411</ele>
        <time>2018-09-07T11:02:51Z</time>
      </trkpt>
      <trkpt lat="46.526597" lon="13.249409">
        <ele>736.008</ele>
        <time>2018-09-07T11:03:04Z</time>
      </trkpt>
      <trkpt lat="46.526552" lon="13.248852">
        <ele>737.985</ele>
        <time>2018-09-07T11:03:18Z</time>
      </trkpt>
      <trkpt lat="46.526514" lon="13.248415">
        <ele>740.367</ele>
        <time>2018-09-07T11:03:31Z</time>
      </trkpt>
      <trkpt lat="46.526519" lon="13.248371">
        <ele>739.323</ele>
        <time>2018-09-07T11:03:40Z</time>
      </trkpt>
      <trkpt lat="46.526494" lon="13.248385">
        <ele>738.940</ele>
        <time>2018-09-07T11:04:08Z</time>
      </trkpt>
      <trkpt lat="46.526457" lon="13.248351">
        <ele>740.851</ele>
        <time>2018-09-07T11:04:32Z</time>
      </trkpt>
      <trkpt lat="46.526439" lon="13.248334">
        <ele>738.459</ele>
        <time>2018-09-07T11:04:59Z</time>
      </trkpt>
      <trkpt lat="46.526458" lon="13.248367">
        <ele>740.816</ele>
        <time>2018-09-07T11:05:24Z</time>
      </trkpt>
      <trkpt lat="46.526476" lon="13.248328">
        <ele>740.899</ele>
        <time>2018-09-07T11:05:52Z</time>
      </trkpt>
      <trkpt lat="46.526472" lon="13.248319">
        <ele>746.679</ele>
        <time>2018-09-07T11:06:27Z</time>
      </trkpt>
      <trkpt lat="46.526475" lon="13.248311">
        <ele>745.605</ele>
        <time>2018-09-07T11:06:53Z</time>
      </trkpt>
      <trkpt lat="46.526444" lon="13.248319">
        <ele>746.125</ele>
        <time>2018-09-07T11:07:17Z</time>
      </trkpt>
      <trkpt lat="46.526487" lon="13.248359">
        <ele>748.008</ele>
        <time>2018-09-07T11:07:36Z</time>
      </trkpt>
      <trkpt lat="46.526509" lon="13.248348">
        <ele>747.061</ele>
        <time>2018-09-07T11:07:52Z</time>
      </trkpt>
      <trkpt lat="46.526537" lon="13.248302">
        <ele>747.063</ele>
        <time>2018-09-07T11:07:56Z</time>
      </trkpt>
      <trkpt lat="46.526551" lon="13.248284">
        <ele>747.079</ele>
        <time>2018-09-07T11:07:57Z</time>
      </trkpt>
      <trkpt lat="46.526565" lon="13.248265">
        <ele>747.046</ele>
        <time>2018-09-07T11:07:58Z</time>
      </trkpt>
      <trkpt lat="46.526579" lon="13.248247">
        <ele>747.097</ele>
        <time>2018-09-07T11:07:59Z</time>
      </trkpt>
      <trkpt lat="46.526591" lon="13.248228">
        <ele>747.585</ele>
        <time>2018-09-07T11:08:00Z</time>
      </trkpt>
      <trkpt lat="46.526693" lon="13.248094">
        <ele>749.472</ele>
        <time>2018-09-07T11:08:07Z</time>
      </trkpt>
      <trkpt lat="46.526708" lon="13.248080">
        <ele>749.935</ele>
        <time>2018-09-07T11:08:08Z</time>
      </trkpt>
      <trkpt lat="46.526758" lon="13.247990">
        <ele>751.429</ele>
        <time>2018-09-07T11:08:13Z</time>
      </trkpt>
      <trkpt lat="46.526766" lon="13.247965">
        <ele>751.400</ele>
        <time>2018-09-07T11:08:14Z</time>
      </trkpt>
      <trkpt lat="46.526968" lon="13.247580">
        <ele>753.820</ele>
        <time>2018-09-07T11:08:30Z</time>
      </trkpt>
      <trkpt lat="46.526934" lon="13.247006">
        <ele>751.808</ele>
        <time>2018-09-07T11:08:45Z</time>
      </trkpt>
      <trkpt lat="46.526676" lon="13.246717">
        <ele>751.866</ele>
        <time>2018-09-07T11:08:55Z</time>
      </trkpt>
      <trkpt lat="46.526582" lon="13.246414">
        <ele>750.448</ele>
        <time>2018-09-07T11:09:01Z</time>
      </trkpt>
      <trkpt lat="46.526585" lon="13.245417">
        <ele>751.844</ele>
        <time>2018-09-07T11:09:18Z</time>
      </trkpt>
      <trkpt lat="46.526721" lon="13.244679">
        <ele>754.211</ele>
        <time>2018-09-07T11:09:33Z</time>
      </trkpt>
      <trkpt lat="46.526884" lon="13.243995">
        <ele>759.562</ele>
        <time>2018-09-07T11:09:51Z</time>
      </trkpt>
      <trkpt lat="46.526871" lon="13.243438">
        <ele>761.580</ele>
        <time>2018-09-07T11:10:06Z</time>
      </trkpt>
      <trkpt lat="46.526988" lon="13.242896">
        <ele>762.497</ele>
        <time>2018-09-07T11:10:21Z</time>
      </trkpt>
      <trkpt lat="46.527136" lon="13.242206">
        <ele>765.870</ele>
        <time>2018-09-07T11:10:40Z</time>
      </trkpt>
      <trkpt lat="46.527044" lon="13.241442">
        <ele>766.788</ele>
        <time>2018-09-07T11:10:59Z</time>
      </trkpt>
      <trkpt lat="46.526901" lon="13.240757">
        <ele>768.224</ele>
        <time>2018-09-07T11:11:15Z</time>
      </trkpt>
      <trkpt lat="46.526703" lon="13.240040">
        <ele>770.626</ele>
        <time>2018-09-07T11:11:32Z</time>
      </trkpt>
      <trkpt lat="46.526477" lon="13.239622">
        <ele>772.008</ele>
        <time>2018-09-07T11:11:46Z</time>
      </trkpt>
      <trkpt lat="46.526225" lon="13.239165">
        <ele>776.412</ele>
        <time>2018-09-07T11:12:04Z</time>
      </trkpt>
      <trkpt lat="46.526044" lon="13.238770">
        <ele>781.684</ele>
        <time>2018-09-07T11:12:20Z</time>
      </trkpt>
      <trkpt lat="46.525899" lon="13.238387">
        <ele>784.580</ele>
        <time>2018-09-07T11:12:36Z</time>
      </trkpt>
      <trkpt lat="46.525778" lon="13.238015">
        <ele>785.067</ele>
        <time>2018-09-07T11:12:50Z</time>
      </trkpt>
      <trkpt lat="46.525696" lon="13.237519">
        <ele>786.098</ele>
        <time>2018-09-07T11:13:06Z</time>
      </trkpt>
      <trkpt lat="46.525671" lon="13.237133">
        <ele>787.916</ele>
        <time>2018-09-07T11:13:19Z</time>
      </trkpt>
      <trkpt lat="46.525614" lon="13.236590">
        <ele>788.963</ele>
        <time>2018-09-07T11:13:36Z</time>
      </trkpt>
      <trkpt lat="46.525766" lon="13.236289">
        <ele>790.366</ele>
        <time>2018-09-07T11:13:48Z</time>
      </trkpt>
      <trkpt lat="46.525893" lon="13.235962">
        <ele>795.637</ele>
        <time>2018-09-07T11:13:59Z</time>
      </trkpt>
      <trkpt lat="46.525726" lon="13.235487">
        <ele>798.549</ele>
        <time>2018-09-07T11:14:14Z</time>
      </trkpt>
      <trkpt lat="46.525546" lon="13.235041">
        <ele>801.813</ele>
        <time>2018-09-07T11:14:28Z</time>
      </trkpt>
      <trkpt lat="46.525368" lon="13.234640">
        <ele>806.208</ele>
        <time>2018-09-07T11:14:43Z</time>
      </trkpt>
      <trkpt lat="46.525403" lon="13.234243">
        <ele>807.147</ele>
        <time>2018-09-07T11:14:57Z</time>
      </trkpt>
      <trkpt lat="46.525398" lon="13.233838">
        <ele>808.189</ele>
        <time>2018-09-07T11:15:10Z</time>
      </trkpt>
      <trkpt lat="46.525317" lon="13.233383">
        <ele>807.165</ele>
        <time>2018-09-07T11:15:21Z</time>
      </trkpt>
      <trkpt lat="46.525284" lon="13.233328">
        <ele>807.112</ele>
        <time>2018-09-07T11:15:22Z</time>
      </trkpt>
      <trkpt lat="46.525249" lon="13.233282">
        <ele>806.683</ele>
        <time>2018-09-07T11:15:23Z</time>
      </trkpt>
      <trkpt lat="46.525004" lon="13.232981">
        <ele>804.771</ele>
        <time>2018-09-07T11:15:30Z</time>
      </trkpt>
      <trkpt lat="46.524988" lon="13.232936">
        <ele>804.758</ele>
        <time>2018-09-07T11:15:31Z</time>
      </trkpt>
      <trkpt lat="46.524980" lon="13.232881">
        <ele>804.231</ele>
        <time>2018-09-07T11:15:32Z</time>
      </trkpt>
      <trkpt lat="46.524981" lon="13.232834">
        <ele>804.232</ele>
        <time>2018-09-07T11:15:33Z</time>
      </trkpt>
      <trkpt lat="46.524986" lon="13.232786">
        <ele>804.292</ele>
        <time>2018-09-07T11:15:34Z</time>
      </trkpt>
      <trkpt lat="46.525093" lon="13.232250">
        <ele>806.211</ele>
        <time>2018-09-07T11:15:49Z</time>
      </trkpt>
      <trkpt lat="46.525193" lon="13.231843">
        <ele>808.108</ele>
        <time>2018-09-07T11:16:02Z</time>
      </trkpt>
      <trkpt lat="46.525206" lon="13.231331">
        <ele>809.537</ele>
        <time>2018-09-07T11:16:18Z</time>
      </trkpt>
      <trkpt lat="46.525127" lon="13.230903">
        <ele>810.529</ele>
        <time>2018-09-07T11:16:31Z</time>
      </trkpt>
      <trkpt lat="46.525094" lon="13.230350">
        <ele>811.475</ele>
        <time>2018-09-07T11:16:46Z</time>
      </trkpt>
      <trkpt lat="46.525039" lon="13.229821">
        <ele>812.412</ele>
        <time>2018-09-07T11:17:00Z</time>
      </trkpt>
      <trkpt lat="46.525090" lon="13.229213">
        <ele>813.843</ele>
        <time>2018-09-07T11:17:15Z</time>
      </trkpt>
      <trkpt lat="46.525032" lon="13.228788">
        <ele>815.311</ele>
        <time>2018-09-07T11:17:29Z</time>
      </trkpt>
      <trkpt lat="46.525128" lon="13.228364">
        <ele>818.288</ele>
        <time>2018-09-07T11:17:44Z</time>
      </trkpt>
      <trkpt lat="46.525184" lon="13.227983">
        <ele>820.151</ele>
        <time>2018-09-07T11:17:59Z</time>
      </trkpt>
      <trkpt lat="46.525171" lon="13.227450">
        <ele>824.413</ele>
        <time>2018-09-07T11:18:19Z</time>
      </trkpt>
      <trkpt lat="46.525168" lon="13.226934">
        <ele>827.843</ele>
        <time>2018-09-07T11:18:38Z</time>
      </trkpt>
      <trkpt lat="46.525329" lon="13.226633">
        <ele>830.707</ele>
        <time>2018-09-07T11:18:52Z</time>
      </trkpt>
      <trkpt lat="46.525503" lon="13.226385">
        <ele>833.108</ele>
        <time>2018-09-07T11:19:05Z</time>
      </trkpt>
      <trkpt lat="46.525822" lon="13.225937">
        <ele>832.615</ele>
        <time>2018-09-07T11:19:25Z</time>
      </trkpt>
      <trkpt lat="46.525879" lon="13.225764">
        <ele>834.577</ele>
        <time>2018-09-07T11:19:32Z</time>
      </trkpt>
      <trkpt lat="46.525881" lon="13.225739">
        <ele>834.543</ele>
        <time>2018-09-07T11:19:33Z</time>
      </trkpt>
      <trkpt lat="46.525886" lon="13.225716">
        <ele>834.560</ele>
        <time>2018-09-07T11:19:34Z</time>
      </trkpt>
      <trkpt lat="46.525893" lon="13.225693">
        <ele>834.591</ele>
        <time>2018-09-07T11:19:35Z</time>
      </trkpt>
      <trkpt lat="46.525896" lon="13.225666">
        <ele>834.569</ele>
        <time>2018-09-07T11:19:36Z</time>
      </trkpt>
      <trkpt lat="46.525900" lon="13.225639">
        <ele>834.586</ele>
        <time>2018-09-07T11:19:37Z</time>
      </trkpt>
      <trkpt lat="46.525907" lon="13.225614">
        <ele>834.519</ele>
        <time>2018-09-07T11:19:38Z</time>
      </trkpt>
      <trkpt lat="46.525915" lon="13.225591">
        <ele>834.598</ele>
        <time>2018-09-07T11:19:39Z</time>
      </trkpt>
      <trkpt lat="46.525997" lon="13.225315">
        <ele>836.415</ele>
        <time>2018-09-07T11:19:51Z</time>
      </trkpt>
      <trkpt lat="46.526065" lon="13.225023">
        <ele>840.826</ele>
        <time>2018-09-07T11:20:06Z</time>
      </trkpt>
      <trkpt lat="46.526074" lon="13.224964">
        <ele>841.708</ele>
        <time>2018-09-07T11:20:09Z</time>
      </trkpt>
      <trkpt lat="46.526074" lon="13.224944">
        <ele>842.273</ele>
        <time>2018-09-07T11:20:10Z</time>
      </trkpt>
      <trkpt lat="46.526084" lon="13.224867">
        <ele>844.165</ele>
        <time>2018-09-07T11:20:14Z</time>
      </trkpt>
      <trkpt lat="46.526090" lon="13.224852">
        <ele>844.161</ele>
        <time>2018-09-07T11:20:15Z</time>
      </trkpt>
      <trkpt lat="46.526091" lon="13.224832">
        <ele>844.698</ele>
        <time>2018-09-07T11:20:16Z</time>
      </trkpt>
      <trkpt lat="46.526091" lon="13.224809">
        <ele>845.189</ele>
        <time>2018-09-07T11:20:17Z</time>
      </trkpt>
      <trkpt lat="46.526091" lon="13.224790">
        <ele>845.617</ele>
        <time>2018-09-07T11:20:18Z</time>
      </trkpt>
      <trkpt lat="46.526091" lon="13.224751">
        <ele>845.644</ele>
        <time>2018-09-07T11:20:20Z</time>
      </trkpt>
      <trkpt lat="46.526079" lon="13.224670">
        <ele>846.587</ele>
        <time>2018-09-07T11:20:24Z</time>
      </trkpt>
      <trkpt lat="46.526084" lon="13.224648">
        <ele>846.559</ele>
        <time>2018-09-07T11:20:25Z</time>
      </trkpt>
      <trkpt lat="46.526087" lon="13.224625">
        <ele>847.003</ele>
        <time>2018-09-07T11:20:26Z</time>
      </trkpt>
      <trkpt lat="46.526087" lon="13.224602">
        <ele>847.023</ele>
        <time>2018-09-07T11:20:27Z</time>
      </trkpt>
      <trkpt lat="46.526088" lon="13.224579">
        <ele>847.008</ele>
        <time>2018-09-07T11:20:28Z</time>
      </trkpt>
      <trkpt lat="46.526091" lon="13.224557">
        <ele>847.089</ele>
        <time>2018-09-07T11:20:29Z</time>
      </trkpt>
      <trkpt lat="46.526135" lon="13.224215">
        <ele>849.951</ele>
        <time>2018-09-07T11:20:45Z</time>
      </trkpt>
      <trkpt lat="46.526148" lon="13.224172">
        <ele>849.987</ele>
        <time>2018-09-07T11:20:47Z</time>
      </trkpt>
      <trkpt lat="46.526159" lon="13.224156">
        <ele>849.924</ele>
        <time>2018-09-07T11:20:48Z</time>
      </trkpt>
      <trkpt lat="46.526173" lon="13.224145">
        <ele>850.475</ele>
        <time>2018-09-07T11:20:49Z</time>
      </trkpt>
      <trkpt lat="46.526188" lon="13.224138">
        <ele>850.463</ele>
        <time>2018-09-07T11:20:50Z</time>
      </trkpt>
      <trkpt lat="46.526203" lon="13.224134">
        <ele>850.920</ele>
        <time>2018-09-07T11:20:51Z</time>
      </trkpt>
      <trkpt lat="46.526218" lon="13.224132">
        <ele>850.973</ele>
        <time>2018-09-07T11:20:52Z</time>
      </trkpt>
      <trkpt lat="46.526328" lon="13.224340">
        <ele>854.719</ele>
        <time>2018-09-07T11:21:04Z</time>
      </trkpt>
      <trkpt lat="46.526328" lon="13.224366">
        <ele>854.709</ele>
        <time>2018-09-07T11:21:05Z</time>
      </trkpt>
      <trkpt lat="46.526327" lon="13.224388">
        <ele>854.719</ele>
        <time>2018-09-07T11:21:06Z</time>
      </trkpt>
      <trkpt lat="46.526326" lon="13.224412">
        <ele>855.208</ele>
        <time>2018-09-07T11:21:07Z</time>
      </trkpt>
      <trkpt lat="46.526328" lon="13.224436">
        <ele>855.255</ele>
        <time>2018-09-07T11:21:08Z</time>
      </trkpt>
      <trkpt lat="46.526309" lon="13.224810">
        <ele>861.497</ele>
        <time>2018-09-07T11:21:22Z</time>
      </trkpt>
      <trkpt lat="46.526322" lon="13.224931">
        <ele>862.493</ele>
        <time>2018-09-07T11:21:27Z</time>
      </trkpt>
      <trkpt lat="46.526339" lon="13.224936">
        <ele>861.990</ele>
        <time>2018-09-07T11:21:28Z</time>
      </trkpt>
      <trkpt lat="46.526358" lon="13.224943">
        <ele>861.921</ele>
        <time>2018-09-07T11:21:29Z</time>
      </trkpt>
      <trkpt lat="46.526377" lon="13.224943">
        <ele>861.939</ele>
        <time>2018-09-07T11:21:30Z</time>
      </trkpt>
      <trkpt lat="46.526396" lon="13.224936">
        <ele>861.956</ele>
        <time>2018-09-07T11:21:31Z</time>
      </trkpt>
      <trkpt lat="46.526413" lon="13.224920">
        <ele>861.989</ele>
        <time>2018-09-07T11:21:32Z</time>
      </trkpt>
      <trkpt lat="46.526424" lon="13.224898">
        <ele>862.481</ele>
        <time>2018-09-07T11:21:33Z</time>
      </trkpt>
      <trkpt lat="46.526432" lon="13.224872">
        <ele>862.461</ele>
        <time>2018-09-07T11:21:34Z</time>
      </trkpt>
      <trkpt lat="46.526431" lon="13.224846">
        <ele>862.417</ele>
        <time>2018-09-07T11:21:35Z</time>
      </trkpt>
      <trkpt lat="46.526427" lon="13.224821">
        <ele>862.408</ele>
        <time>2018-09-07T11:21:36Z</time>
      </trkpt>
      <trkpt lat="46.526424" lon="13.224796">
        <ele>862.962</ele>
        <time>2018-09-07T11:21:37Z</time>
      </trkpt>
      <trkpt lat="46.526419" lon="13.224769">
        <ele>862.924</ele>
        <time>2018-09-07T11:21:38Z</time>
      </trkpt>
      <trkpt lat="46.526461" lon="13.224533">
        <ele>862.970</ele>
        <time>2018-09-07T11:21:48Z</time>
      </trkpt>
      <trkpt lat="46.526468" lon="13.224505">
        <ele>862.467</ele>
        <time>2018-09-07T11:21:49Z</time>
      </trkpt>
      <trkpt lat="46.526474" lon="13.224480">
        <ele>862.938</ele>
        <time>2018-09-07T11:21:50Z</time>
      </trkpt>
      <trkpt lat="46.526481" lon="13.224452">
        <ele>862.966</ele>
        <time>2018-09-07T11:21:51Z</time>
      </trkpt>
      <trkpt lat="46.526487" lon="13.224426">
        <ele>863.433</ele>
        <time>2018-09-07T11:21:52Z</time>
      </trkpt>
      <trkpt lat="46.526496" lon="13.224402">
        <ele>862.936</ele>
        <time>2018-09-07T11:21:53Z</time>
      </trkpt>
      <trkpt lat="46.526504" lon="13.224375">
        <ele>862.968</ele>
        <time>2018-09-07T11:21:54Z</time>
      </trkpt>
      <trkpt lat="46.526510" lon="13.224349">
        <ele>862.442</ele>
        <time>2018-09-07T11:21:55Z</time>
      </trkpt>
      <trkpt lat="46.526516" lon="13.224325">
        <ele>862.426</ele>
        <time>2018-09-07T11:21:56Z</time>
      </trkpt>
      <trkpt lat="46.526551" lon="13.224085">
        <ele>862.908</ele>
        <time>2018-09-07T11:22:07Z</time>
      </trkpt>
      <trkpt lat="46.526547" lon="13.224062">
        <ele>862.940</ele>
        <time>2018-09-07T11:22:08Z</time>
      </trkpt>
      <trkpt lat="46.526542" lon="13.224037">
        <ele>863.462</ele>
        <time>2018-09-07T11:22:09Z</time>
      </trkpt>
      <trkpt lat="46.526540" lon="13.224015">
        <ele>863.418</ele>
        <time>2018-09-07T11:22:10Z</time>
      </trkpt>
      <trkpt lat="46.526541" lon="13.223994">
        <ele>863.495</ele>
        <time>2018-09-07T11:22:11Z</time>
      </trkpt>
      <trkpt lat="46.526543" lon="13.223974">
        <ele>863.896</ele>
        <time>2018-09-07T11:22:12Z</time>
      </trkpt>
      <trkpt lat="46.526543" lon="13.223950">
        <ele>863.834</ele>
        <time>2018-09-07T11:22:13Z</time>
      </trkpt>
      <trkpt lat="46.526521" lon="13.223780">
        <ele>865.311</ele>
        <time>2018-09-07T11:22:21Z</time>
      </trkpt>
      <trkpt lat="46.526524" lon="13.223758">
        <ele>865.374</ele>
        <time>2018-09-07T11:22:22Z</time>
      </trkpt>
      <trkpt lat="46.526527" lon="13.223737">
        <ele>865.898</ele>
        <time>2018-09-07T11:22:23Z</time>
      </trkpt>
      <trkpt lat="46.526531" lon="13.223715">
        <ele>865.815</ele>
        <time>2018-09-07T11:22:24Z</time>
      </trkpt>
      <trkpt lat="46.526537" lon="13.223692">
        <ele>865.826</ele>
        <time>2018-09-07T11:22:25Z</time>
      </trkpt>
      <trkpt lat="46.526550" lon="13.223531">
        <ele>868.208</ele>
        <time>2018-09-07T11:22:32Z</time>
      </trkpt>
      <trkpt lat="46.526554" lon="13.223508">
        <ele>868.243</ele>
        <time>2018-09-07T11:22:33Z</time>
      </trkpt>
      <trkpt lat="46.526558" lon="13.223485">
        <ele>868.295</ele>
        <time>2018-09-07T11:22:34Z</time>
      </trkpt>
      <trkpt lat="46.526562" lon="13.223464">
        <ele>868.211</ele>
        <time>2018-09-07T11:22:35Z</time>
      </trkpt>
      <trkpt lat="46.526563" lon="13.223440">
        <ele>868.698</ele>
        <time>2018-09-07T11:22:36Z</time>
      </trkpt>
      <trkpt lat="46.526563" lon="13.223418">
        <ele>868.669</ele>
        <time>2018-09-07T11:22:37Z</time>
      </trkpt>
      <trkpt lat="46.526567" lon="13.223396">
        <ele>868.667</ele>
        <time>2018-09-07T11:22:38Z</time>
      </trkpt>
      <trkpt lat="46.526572" lon="13.223375">
        <ele>868.624</ele>
        <time>2018-09-07T11:22:39Z</time>
      </trkpt>
      <trkpt lat="46.526578" lon="13.223353">
        <ele>868.617</ele>
        <time>2018-09-07T11:22:40Z</time>
      </trkpt>
      <trkpt lat="46.526562" lon="13.223000">
        <ele>871.038</ele>
        <time>2018-09-07T11:22:56Z</time>
      </trkpt>
      <trkpt lat="46.526545" lon="13.222933">
        <ele>871.570</ele>
        <time>2018-09-07T11:22:59Z</time>
      </trkpt>
      <trkpt lat="46.526543" lon="13.222911">
        <ele>871.517</ele>
        <time>2018-09-07T11:23:00Z</time>
      </trkpt>
      <trkpt lat="46.526540" lon="13.222886">
        <ele>871.508</ele>
        <time>2018-09-07T11:23:01Z</time>
      </trkpt>
      <trkpt lat="46.526538" lon="13.222863">
        <ele>871.587</ele>
        <time>2018-09-07T11:23:02Z</time>
      </trkpt>
      <trkpt lat="46.526536" lon="13.222843">
        <ele>871.059</ele>
        <time>2018-09-07T11:23:03Z</time>
      </trkpt>
      <trkpt lat="46.526532" lon="13.222821">
        <ele>871.025</ele>
        <time>2018-09-07T11:23:04Z</time>
      </trkpt>
      <trkpt lat="46.526530" lon="13.222797">
        <ele>871.592</ele>
        <time>2018-09-07T11:23:05Z</time>
      </trkpt>
      <trkpt lat="46.526530" lon="13.222774">
        <ele>871.533</ele>
        <time>2018-09-07T11:23:06Z</time>
      </trkpt>
      <trkpt lat="46.526488" lon="13.222508">
        <ele>870.121</ele>
        <time>2018-09-07T11:23:17Z</time>
      </trkpt>
      <trkpt lat="46.526443" lon="13.222365">
        <ele>873.048</ele>
        <time>2018-09-07T11:23:24Z</time>
      </trkpt>
      <trkpt lat="46.526392" lon="13.222088">
        <ele>878.351</ele>
        <time>2018-09-07T11:23:38Z</time>
      </trkpt>
      <trkpt lat="46.526390" lon="13.222072">
        <ele>878.397</ele>
        <time>2018-09-07T11:23:39Z</time>
      </trkpt>
      <trkpt lat="46.526387" lon="13.222055">
        <ele>878.323</ele>
        <time>2018-09-07T11:23:40Z</time>
      </trkpt>
      <trkpt lat="46.526385" lon="13.222040">
        <ele>879.225</ele>
        <time>2018-09-07T11:23:41Z</time>
      </trkpt>
      <trkpt lat="46.526381" lon="13.222008">
        <ele>880.208</ele>
        <time>2018-09-07T11:23:43Z</time>
      </trkpt>
      <trkpt lat="46.526381" lon="13.221988">
        <ele>880.713</ele>
        <time>2018-09-07T11:23:44Z</time>
      </trkpt>
      <trkpt lat="46.526383" lon="13.221968">
        <ele>881.665</ele>
        <time>2018-09-07T11:23:45Z</time>
      </trkpt>
      <trkpt lat="46.526386" lon="13.221949">
        <ele>882.141</ele>
        <time>2018-09-07T11:23:46Z</time>
      </trkpt>
      <trkpt lat="46.526389" lon="13.221927">
        <ele>883.148</ele>
        <time>2018-09-07T11:23:47Z</time>
      </trkpt>
      <trkpt lat="46.526392" lon="13.221907">
        <ele>883.539</ele>
        <time>2018-09-07T11:23:48Z</time>
      </trkpt>
      <trkpt lat="46.526394" lon="13.221888">
        <ele>884.037</ele>
        <time>2018-09-07T11:23:49Z</time>
      </trkpt>
      <trkpt lat="46.526397" lon="13.221868">
        <ele>884.524</ele>
        <time>2018-09-07T11:23:50Z</time>
      </trkpt>
      <trkpt lat="46.526395" lon="13.221845">
        <ele>884.517</ele>
        <time>2018-09-07T11:23:51Z</time>
      </trkpt>
      <trkpt lat="46.526391" lon="13.221824">
        <ele>885.052</ele>
        <time>2018-09-07T11:23:52Z</time>
      </trkpt>
      <trkpt lat="46.526386" lon="13.221800">
        <ele>885.053</ele>
        <time>2018-09-07T11:23:53Z</time>
      </trkpt>
      <trkpt lat="46.526391" lon="13.221765">
        <ele>885.908</ele>
        <time>2018-09-07T11:23:55Z</time>
      </trkpt>
      <trkpt lat="46.526391" lon="13.221749">
        <ele>886.408</ele>
        <time>2018-09-07T11:23:56Z</time>
      </trkpt>
      <trkpt lat="46.526388" lon="13.221734">
        <ele>886.949</ele>
        <time>2018-09-07T11:23:57Z</time>
      </trkpt>
      <trkpt lat="46.526386" lon="13.221690">
        <ele>888.441</ele>
        <time>2018-09-07T11:24:00Z</time>
      </trkpt>
      <trkpt lat="46.526374" lon="13.221665">
        <ele>889.377</ele>
        <time>2018-09-07T11:24:02Z</time>
      </trkpt>
      <trkpt lat="46.526365" lon="13.221649">
        <ele>889.844</ele>
        <time>2018-09-07T11:24:03Z</time>
      </trkpt>
      <trkpt lat="46.526355" lon="13.221628">
        <ele>890.375</ele>
        <time>2018-09-07T11:24:04Z</time>
      </trkpt>
      <trkpt lat="46.526345" lon="13.221595">
        <ele>890.353</ele>
        <time>2018-09-07T11:24:05Z</time>
      </trkpt>
      <trkpt lat="46.526340" lon="13.221567">
        <ele>889.810</ele>
        <time>2018-09-07T11:24:06Z</time>
      </trkpt>
      <trkpt lat="46.526333" lon="13.221534">
        <ele>889.833</ele>
        <time>2018-09-07T11:24:07Z</time>
      </trkpt>
      <trkpt lat="46.526329" lon="13.221511">
        <ele>890.393</ele>
        <time>2018-09-07T11:24:08Z</time>
      </trkpt>
      <trkpt lat="46.526325" lon="13.221487">
        <ele>890.365</ele>
        <time>2018-09-07T11:24:09Z</time>
      </trkpt>
      <trkpt lat="46.526322" lon="13.221464">
        <ele>890.821</ele>
        <time>2018-09-07T11:24:10Z</time>
      </trkpt>
      <trkpt lat="46.526317" lon="13.221439">
        <ele>890.808</ele>
        <time>2018-09-07T11:24:11Z</time>
      </trkpt>
      <trkpt lat="46.526312" lon="13.221415">
        <ele>891.223</ele>
        <time>2018-09-07T11:24:12Z</time>
      </trkpt>
      <trkpt lat="46.526311" lon="13.221400">
        <ele>891.215</ele>
        <time>2018-09-07T11:24:13Z</time>
      </trkpt>
      <trkpt lat="46.526222" lon="13.221089">
        <ele>889.321</ele>
        <time>2018-09-07T11:24:28Z</time>
      </trkpt>
      <trkpt lat="46.526221" lon="13.221067">
        <ele>888.838</ele>
        <time>2018-09-07T11:24:29Z</time>
      </trkpt>
      <trkpt lat="46.526220" lon="13.221048">
        <ele>888.859</ele>
        <time>2018-09-07T11:24:30Z</time>
      </trkpt>
      <trkpt lat="46.526199" lon="13.220968">
        <ele>888.487</ele>
        <time>2018-09-07T11:24:34Z</time>
      </trkpt>
      <trkpt lat="46.526202" lon="13.220948">
        <ele>888.484</ele>
        <time>2018-09-07T11:24:35Z</time>
      </trkpt>
      <trkpt lat="46.526204" lon="13.220928">
        <ele>887.977</ele>
        <time>2018-09-07T11:24:36Z</time>
      </trkpt>
      <trkpt lat="46.526205" lon="13.220907">
        <ele>887.961</ele>
        <time>2018-09-07T11:24:37Z</time>
      </trkpt>
      <trkpt lat="46.526207" lon="13.220881">
        <ele>887.421</ele>
        <time>2018-09-07T11:24:38Z</time>
      </trkpt>
      <trkpt lat="46.526208" lon="13.220857">
        <ele>886.913</ele>
        <time>2018-09-07T11:24:39Z</time>
      </trkpt>
      <trkpt lat="46.526207" lon="13.220686">
        <ele>887.408</ele>
        <time>2018-09-07T11:24:47Z</time>
      </trkpt>
      <trkpt lat="46.526206" lon="13.220664">
        <ele>887.430</ele>
        <time>2018-09-07T11:24:48Z</time>
      </trkpt>
      <trkpt lat="46.526209" lon="13.220644">
        <ele>887.492</ele>
        <time>2018-09-07T11:24:49Z</time>
      </trkpt>
      <trkpt lat="46.526207" lon="13.220624">
        <ele>887.488</ele>
        <time>2018-09-07T11:24:50Z</time>
      </trkpt>
      <trkpt lat="46.526206" lon="13.220608">
        <ele>887.485</ele>
        <time>2018-09-07T11:24:51Z</time>
      </trkpt>
      <trkpt lat="46.526232" lon="13.220347">
        <ele>889.826</ele>
        <time>2018-09-07T11:25:07Z</time>
      </trkpt>
      <trkpt lat="46.526279" lon="13.220144">
        <ele>892.734</ele>
        <time>2018-09-07T11:25:21Z</time>
      </trkpt>
      <trkpt lat="46.526280" lon="13.220126">
        <ele>893.211</ele>
        <time>2018-09-07T11:25:22Z</time>
      </trkpt>
      <trkpt lat="46.526283" lon="13.220106">
        <ele>893.234</ele>
        <time>2018-09-07T11:25:23Z</time>
      </trkpt>
      <trkpt lat="46.526285" lon="13.220090">
        <ele>893.297</ele>
        <time>2018-09-07T11:25:24Z</time>
      </trkpt>
      <trkpt lat="46.526289" lon="13.220074">
        <ele>893.223</ele>
        <time>2018-09-07T11:25:25Z</time>
      </trkpt>
      <trkpt lat="46.526290" lon="13.220057">
        <ele>893.625</ele>
        <time>2018-09-07T11:25:26Z</time>
      </trkpt>
      <trkpt lat="46.526295" lon="13.220042">
        <ele>894.108</ele>
        <time>2018-09-07T11:25:27Z</time>
      </trkpt>
      <trkpt lat="46.526301" lon="13.220026">
        <ele>894.153</ele>
        <time>2018-09-07T11:25:28Z</time>
      </trkpt>
      <trkpt lat="46.526363" lon="13.219841">
        <ele>895.125</ele>
        <time>2018-09-07T11:25:39Z</time>
      </trkpt>
      <trkpt lat="46.526362" lon="13.219822">
        <ele>895.661</ele>
        <time>2018-09-07T11:25:40Z</time>
      </trkpt>
      <trkpt lat="46.526367" lon="13.219803">
        <ele>896.038</ele>
        <time>2018-09-07T11:25:41Z</time>
      </trkpt>
      <trkpt lat="46.526369" lon="13.219782">
        <ele>896.059</ele>
        <time>2018-09-07T11:25:42Z</time>
      </trkpt>
      <trkpt lat="46.526373" lon="13.219760">
        <ele>896.597</ele>
        <time>2018-09-07T11:25:43Z</time>
      </trkpt>
      <trkpt lat="46.526376" lon="13.219741">
        <ele>897.044</ele>
        <time>2018-09-07T11:25:44Z</time>
      </trkpt>
      <trkpt lat="46.526381" lon="13.219721">
        <ele>897.057</ele>
        <time>2018-09-07T11:25:45Z</time>
      </trkpt>
      <trkpt lat="46.526388" lon="13.219701">
        <ele>897.557</ele>
        <time>2018-09-07T11:25:46Z</time>
      </trkpt>
      <trkpt lat="46.526394" lon="13.219686">
        <ele>898.000</ele>
        <time>2018-09-07T11:25:47Z</time>
      </trkpt>
      <trkpt lat="46.526401" lon="13.219671">
        <ele>898.020</ele>
        <time>2018-09-07T11:25:48Z</time>
      </trkpt>
      <trkpt lat="46.526407" lon="13.219656">
        <ele>898.408</ele>
        <time>2018-09-07T11:25:49Z</time>
      </trkpt>
      <trkpt lat="46.526413" lon="13.219638">
        <ele>898.449</ele>
        <time>2018-09-07T11:25:50Z</time>
      </trkpt>
      <trkpt lat="46.526409" lon="13.219300">
        <ele>900.451</ele>
        <time>2018-09-07T11:26:06Z</time>
      </trkpt>
      <trkpt lat="46.526407" lon="13.219224">
        <ele>899.937</ele>
        <time>2018-09-07T11:26:09Z</time>
      </trkpt>
      <trkpt lat="46.526410" lon="13.219198">
        <ele>899.964</ele>
        <time>2018-09-07T11:26:10Z</time>
      </trkpt>
      <trkpt lat="46.526409" lon="13.219168">
        <ele>899.975</ele>
        <time>2018-09-07T11:26:11Z</time>
      </trkpt>
      <trkpt lat="46.526405" lon="13.219141">
        <ele>899.973</ele>
        <time>2018-09-07T11:26:12Z</time>
      </trkpt>
      <trkpt lat="46.526405" lon="13.219114">
        <ele>899.970</ele>
        <time>2018-09-07T11:26:13Z</time>
      </trkpt>
      <trkpt lat="46.526403" lon="13.219087">
        <ele>900.463</ele>
        <time>2018-09-07T11:26:14Z</time>
      </trkpt>
      <trkpt lat="46.526343" lon="13.218784">
        <ele>902.319</ele>
        <time>2018-09-07T11:26:27Z</time>
      </trkpt>
      <trkpt lat="46.526337" lon="13.218768">
        <ele>902.309</ele>
        <time>2018-09-07T11:26:28Z</time>
      </trkpt>
      <trkpt lat="46.526330" lon="13.218752">
        <ele>902.819</ele>
        <time>2018-09-07T11:26:29Z</time>
      </trkpt>
      <trkpt lat="46.526326" lon="13.218738">
        <ele>902.808</ele>
        <time>2018-09-07T11:26:30Z</time>
      </trkpt>
      <trkpt lat="46.526325" lon="13.218719">
        <ele>903.335</ele>
        <time>2018-09-07T11:26:31Z</time>
      </trkpt>
      <trkpt lat="46.526327" lon="13.218701">
        <ele>903.347</ele>
        <time>2018-09-07T11:26:32Z</time>
      </trkpt>
      <trkpt lat="46.526330" lon="13.218683">
        <ele>903.363</ele>
        <time>2018-09-07T11:26:33Z</time>
      </trkpt>
      <trkpt lat="46.526340" lon="13.218651">
        <ele>904.290</ele>
        <time>2018-09-07T11:26:35Z</time>
      </trkpt>
      <trkpt lat="46.526348" lon="13.218641">
        <ele>904.291</ele>
        <time>2018-09-07T11:26:36Z</time>
      </trkpt>
      <trkpt lat="46.526357" lon="13.218634">
        <ele>904.259</ele>
        <time>2018-09-07T11:26:37Z</time>
      </trkpt>
      <trkpt lat="46.526369" lon="13.218630">
        <ele>904.776</ele>
        <time>2018-09-07T11:26:38Z</time>
      </trkpt>
      <trkpt lat="46.526382" lon="13.218631">
        <ele>905.229</ele>
        <time>2018-09-07T11:26:39Z</time>
      </trkpt>
      <trkpt lat="46.526396" lon="13.218639">
        <ele>905.797</ele>
        <time>2018-09-07T11:26:40Z</time>
      </trkpt>
      <trkpt lat="46.526405" lon="13.218650">
        <ele>906.123</ele>
        <time>2018-09-07T11:26:41Z</time>
      </trkpt>
      <trkpt lat="46.526415" lon="13.218668">
        <ele>906.625</ele>
        <time>2018-09-07T11:26:42Z</time>
      </trkpt>
      <trkpt lat="46.526421" lon="13.218687">
        <ele>907.108</ele>
        <time>2018-09-07T11:26:43Z</time>
      </trkpt>
      <trkpt lat="46.526426" lon="13.218708">
        <ele>907.623</ele>
        <time>2018-09-07T11:26:44Z</time>
      </trkpt>
      <trkpt lat="46.526429" lon="13.218730">
        <ele>907.685</ele>
        <time>2018-09-07T11:26:45Z</time>
      </trkpt>
      <trkpt lat="46.526436" lon="13.218750">
        <ele>908.171</ele>
        <time>2018-09-07T11:26:46Z</time>
      </trkpt>
      <trkpt lat="46.526444" lon="13.218767">
        <ele>908.518</ele>
        <time>2018-09-07T11:26:47Z</time>
      </trkpt>
      <trkpt lat="46.526453" lon="13.218784">
        <ele>908.549</ele>
        <time>2018-09-07T11:26:48Z</time>
      </trkpt>
      <trkpt lat="46.526460" lon="13.218802">
        <ele>909.027</ele>
        <time>2018-09-07T11:26:49Z</time>
      </trkpt>
      <trkpt lat="46.526571" lon="13.218948">
        <ele>910.944</ele>
        <time>2018-09-07T11:26:59Z</time>
      </trkpt>
      <trkpt lat="46.526583" lon="13.218956">
        <ele>911.457</ele>
        <time>2018-09-07T11:27:00Z</time>
      </trkpt>
      <trkpt lat="46.526593" lon="13.218968">
        <ele>910.095</ele>
        <time>2018-09-07T11:27:10Z</time>
      </trkpt>
      <trkpt lat="46.526539" lon="13.218888">
        <ele>910.049</ele>
        <time>2018-09-07T11:27:44Z</time>
      </trkpt>
      <trkpt lat="46.526536" lon="13.218912">
        <ele>910.523</ele>
        <time>2018-09-07T11:28:20Z</time>
      </trkpt>
      <trkpt lat="46.526572" lon="13.218914">
        <ele>912.908</ele>
        <time>2018-09-07T11:29:00Z</time>
      </trkpt>
      <trkpt lat="46.526567" lon="13.218844">
        <ele>910.963</ele>
        <time>2018-09-07T11:29:25Z</time>
      </trkpt>
      <trkpt lat="46.526610" lon="13.218837">
        <ele>913.855</ele>
        <time>2018-09-07T11:29:58Z</time>
      </trkpt>
      <trkpt lat="46.526564" lon="13.218917">
        <ele>915.791</ele>
        <time>2018-09-07T11:30:23Z</time>
      </trkpt>
      <trkpt lat="46.526581" lon="13.218919">
        <ele>907.628</ele>
        <time>2018-09-07T11:30:44Z</time>
      </trkpt>
      <trkpt lat="46.526562" lon="13.218945">
        <ele>909.099</ele>
        <time>2018-09-07T11:31:00Z</time>
      </trkpt>
      <trkpt lat="46.526565" lon="13.218935">
        <ele>910.087</ele>
        <time>2018-09-07T11:31:27Z</time>
      </trkpt>
      <trkpt lat="46.526529" lon="13.218912">
        <ele>906.114</ele>
        <time>2018-09-07T11:32:00Z</time>
      </trkpt>
      <trkpt lat="46.526597" lon="13.218947">
        <ele>902.867</ele>
        <time>2018-09-07T11:32:33Z</time>
      </trkpt>
      <trkpt lat="46.526618" lon="13.218967">
        <ele>906.631</ele>
        <time>2018-09-07T11:32:59Z</time>
      </trkpt>
      <trkpt lat="46.526615" lon="13.218940">
        <ele>909.061</ele>
        <time>2018-09-07T11:33:46Z</time>
      </trkpt>
      <trkpt lat="46.526589" lon="13.218962">
        <ele>906.607</ele>
        <time>2018-09-07T11:34:20Z</time>
      </trkpt>
      <trkpt lat="46.526641" lon="13.218984">
        <ele>906.608</ele>
        <time>2018-09-07T11:34:26Z</time>
      </trkpt>
      <trkpt lat="46.526808" lon="13.219094">
        <ele>908.527</ele>
        <time>2018-09-07T11:34:42Z</time>
      </trkpt>
      <trkpt lat="46.526899" lon="13.219165">
        <ele>910.589</ele>
        <time>2018-09-07T11:34:50Z</time>
      </trkpt>
      <trkpt lat="46.526908" lon="13.219178">
        <ele>910.925</ele>
        <time>2018-09-07T11:34:51Z</time>
      </trkpt>
      <trkpt lat="46.526928" lon="13.219190">
        <ele>911.992</ele>
        <time>2018-09-07T11:34:53Z</time>
      </trkpt>
      <trkpt lat="46.526940" lon="13.219196">
        <ele>912.443</ele>
        <time>2018-09-07T11:34:54Z</time>
      </trkpt>
      <trkpt lat="46.526953" lon="13.219204">
        <ele>912.941</ele>
        <time>2018-09-07T11:34:55Z</time>
      </trkpt>
      <trkpt lat="46.526999" lon="13.219213">
        <ele>913.398</ele>
        <time>2018-09-07T11:34:59Z</time>
      </trkpt>
      <trkpt lat="46.527009" lon="13.219207">
        <ele>913.851</ele>
        <time>2018-09-07T11:35:00Z</time>
      </trkpt>
      <trkpt lat="46.527019" lon="13.219042">
        <ele>916.786</ele>
        <time>2018-09-07T11:35:14Z</time>
      </trkpt>
      <trkpt lat="46.527010" lon="13.219034">
        <ele>916.760</ele>
        <time>2018-09-07T11:35:15Z</time>
      </trkpt>
      <trkpt lat="46.527000" lon="13.219030">
        <ele>916.726</ele>
        <time>2018-09-07T11:35:16Z</time>
      </trkpt>
      <trkpt lat="46.526989" lon="13.219024">
        <ele>917.208</ele>
        <time>2018-09-07T11:35:17Z</time>
      </trkpt>
      <trkpt lat="46.526978" lon="13.219012">
        <ele>917.222</ele>
        <time>2018-09-07T11:35:18Z</time>
      </trkpt>
      <trkpt lat="46.526969" lon="13.219000">
        <ele>917.244</ele>
        <time>2018-09-07T11:35:19Z</time>
      </trkpt>
      <trkpt lat="46.526960" lon="13.218989">
        <ele>917.270</ele>
        <time>2018-09-07T11:35:20Z</time>
      </trkpt>
      <trkpt lat="46.526952" lon="13.218979">
        <ele>917.277</ele>
        <time>2018-09-07T11:35:21Z</time>
      </trkpt>
      <trkpt lat="46.526944" lon="13.218968">
        <ele>917.738</ele>
        <time>2018-09-07T11:35:22Z</time>
      </trkpt>
      <trkpt lat="46.526935" lon="13.218959">
        <ele>917.796</ele>
        <time>2018-09-07T11:35:23Z</time>
      </trkpt>
      <trkpt lat="46.526830" lon="13.218804">
        <ele>921.573</ele>
        <time>2018-09-07T11:35:36Z</time>
      </trkpt>
      <trkpt lat="46.526804" lon="13.218698">
        <ele>924.976</ele>
        <time>2018-09-07T11:35:44Z</time>
      </trkpt>
      <trkpt lat="46.526788" lon="13.218670">
        <ele>924.942</ele>
        <time>2018-09-07T11:35:46Z</time>
      </trkpt>
      <trkpt lat="46.526772" lon="13.218622">
        <ele>923.922</ele>
        <time>2018-09-07T11:35:49Z</time>
      </trkpt>
      <trkpt lat="46.526770" lon="13.218607">
        <ele>923.914</ele>
        <time>2018-09-07T11:35:50Z</time>
      </trkpt>
      <trkpt lat="46.526770" lon="13.218593">
        <ele>923.408</ele>
        <time>2018-09-07T11:35:51Z</time>
      </trkpt>
      <trkpt lat="46.526769" lon="13.218576">
        <ele>923.918</ele>
        <time>2018-09-07T11:35:52Z</time>
      </trkpt>
      <trkpt lat="46.526764" lon="13.218559">
        <ele>923.990</ele>
        <time>2018-09-07T11:35:53Z</time>
      </trkpt>
      <trkpt lat="46.526761" lon="13.218544">
        <ele>923.946</ele>
        <time>2018-09-07T11:35:54Z</time>
      </trkpt>
      <trkpt lat="46.526755" lon="13.218531">
        <ele>923.983</ele>
        <time>2018-09-07T11:35:55Z</time>
      </trkpt>
      <trkpt lat="46.526750" lon="13.218516">
        <ele>923.954</ele>
        <time>2018-09-07T11:35:56Z</time>
      </trkpt>
      <trkpt lat="46.526748" lon="13.218501">
        <ele>923.422</ele>
        <time>2018-09-07T11:35:57Z</time>
      </trkpt>
      <trkpt lat="46.526666" lon="13.218283">
        <ele>925.429</ele>
        <time>2018-09-07T11:36:11Z</time>
      </trkpt>
      <trkpt lat="46.526661" lon="13.218268">
        <ele>925.482</ele>
        <time>2018-09-07T11:36:12Z</time>
      </trkpt>
      <trkpt lat="46.526657" lon="13.218252">
        <ele>925.865</ele>
        <time>2018-09-07T11:36:13Z</time>
      </trkpt>
      <trkpt lat="46.526653" lon="13.218236">
        <ele>925.868</ele>
        <time>2018-09-07T11:36:14Z</time>
      </trkpt>
      <trkpt lat="46.526649" lon="13.218219">
        <ele>925.814</ele>
        <time>2018-09-07T11:36:15Z</time>
      </trkpt>
      <trkpt lat="46.526623" lon="13.217825">
        <ele>925.408</ele>
        <time>2018-09-07T11:36:29Z</time>
      </trkpt>
      <trkpt lat="46.526654" lon="13.217580">
        <ele>927.350</ele>
        <time>2018-09-07T11:36:41Z</time>
      </trkpt>
      <trkpt lat="46.526655" lon="13.217564">
        <ele>927.332</ele>
        <time>2018-09-07T11:36:42Z</time>
      </trkpt>
      <trkpt lat="46.526651" lon="13.217546">
        <ele>927.838</ele>
        <time>2018-09-07T11:36:43Z</time>
      </trkpt>
      <trkpt lat="46.526643" lon="13.217444">
        <ele>930.265</ele>
        <time>2018-09-07T11:36:50Z</time>
      </trkpt>
      <trkpt lat="46.526649" lon="13.217430">
        <ele>930.216</ele>
        <time>2018-09-07T11:36:51Z</time>
      </trkpt>
      <trkpt lat="46.526672" lon="13.217346">
        <ele>930.694</ele>
        <time>2018-09-07T11:36:57Z</time>
      </trkpt>
      <trkpt lat="46.526712" lon="13.217076">
        <ele>932.691</ele>
        <time>2018-09-07T11:37:16Z</time>
      </trkpt>
      <trkpt lat="46.526722" lon="13.216955">
        <ele>932.694</ele>
        <time>2018-09-07T11:37:24Z</time>
      </trkpt>
      <trkpt lat="46.526747" lon="13.216851">
        <ele>932.648</ele>
        <time>2018-09-07T11:37:32Z</time>
      </trkpt>
      <trkpt lat="46.526779" lon="13.216667">
        <ele>934.561</ele>
        <time>2018-09-07T11:37:46Z</time>
      </trkpt>
      <trkpt lat="46.526791" lon="13.216627">
        <ele>935.017</ele>
        <time>2018-09-07T11:37:49Z</time>
      </trkpt>
      <trkpt lat="46.526800" lon="13.216599">
        <ele>935.508</ele>
        <time>2018-09-07T11:37:51Z</time>
      </trkpt>
      <trkpt lat="46.526801" lon="13.216556">
        <ele>936.428</ele>
        <time>2018-09-07T11:37:54Z</time>
      </trkpt>
      <trkpt lat="46.526805" lon="13.216383">
        <ele>936.960</ele>
        <time>2018-09-07T11:38:06Z</time>
      </trkpt>
      <trkpt lat="46.526809" lon="13.216204">
        <ele>938.826</ele>
        <time>2018-09-07T11:38:18Z</time>
      </trkpt>
      <trkpt lat="46.526812" lon="13.216022">
        <ele>939.393</ele>
        <time>2018-09-07T11:38:29Z</time>
      </trkpt>
      <trkpt lat="46.526816" lon="13.216006">
        <ele>939.344</ele>
        <time>2018-09-07T11:38:30Z</time>
      </trkpt>
      <trkpt lat="46.526820" lon="13.215990">
        <ele>939.342</ele>
        <time>2018-09-07T11:38:31Z</time>
      </trkpt>
      <trkpt lat="46.526822" lon="13.215971">
        <ele>939.379</ele>
        <time>2018-09-07T11:38:32Z</time>
      </trkpt>
      <trkpt lat="46.526823" lon="13.215951">
        <ele>939.322</ele>
        <time>2018-09-07T11:38:33Z</time>
      </trkpt>
      <trkpt lat="46.526830" lon="13.215860">
        <ele>939.816</ele>
        <time>2018-09-07T11:38:38Z</time>
      </trkpt>
      <trkpt lat="46.526848" lon="13.215804">
        <ele>940.376</ele>
        <time>2018-09-07T11:38:42Z</time>
      </trkpt>
      <trkpt lat="46.526857" lon="13.215792">
        <ele>940.713</ele>
        <time>2018-09-07T11:38:43Z</time>
      </trkpt>
      <trkpt lat="46.526902" lon="13.215713">
        <ele>942.208</ele>
        <time>2018-09-07T11:38:50Z</time>
      </trkpt>
      <trkpt lat="46.526907" lon="13.215700">
        <ele>942.265</ele>
        <time>2018-09-07T11:38:51Z</time>
      </trkpt>
      <trkpt lat="46.526910" lon="13.215662">
        <ele>943.117</ele>
        <time>2018-09-07T11:38:54Z</time>
      </trkpt>
      <trkpt lat="46.526913" lon="13.215647">
        <ele>943.153</ele>
        <time>2018-09-07T11:38:55Z</time>
      </trkpt>
      <trkpt lat="46.526922" lon="13.215619">
        <ele>944.140</ele>
        <time>2018-09-07T11:38:57Z</time>
      </trkpt>
      <trkpt lat="46.526930" lon="13.215609">
        <ele>944.171</ele>
        <time>2018-09-07T11:38:58Z</time>
      </trkpt>
      <trkpt lat="46.526975" lon="13.215560">
        <ele>944.649</ele>
        <time>2018-09-07T11:39:03Z</time>
      </trkpt>
      <trkpt lat="46.527058" lon="13.215377">
        <ele>946.596</ele>
        <time>2018-09-07T11:39:16Z</time>
      </trkpt>
      <trkpt lat="46.527127" lon="13.215257">
        <ele>948.449</ele>
        <time>2018-09-07T11:39:25Z</time>
      </trkpt>
      <trkpt lat="46.527170" lon="13.215176">
        <ele>949.427</ele>
        <time>2018-09-07T11:39:31Z</time>
      </trkpt>
      <trkpt lat="46.527172" lon="13.215157">
        <ele>949.468</ele>
        <time>2018-09-07T11:39:32Z</time>
      </trkpt>
      <trkpt lat="46.527176" lon="13.215142">
        <ele>949.414</ele>
        <time>2018-09-07T11:39:33Z</time>
      </trkpt>
      <trkpt lat="46.527180" lon="13.215125">
        <ele>949.908</ele>
        <time>2018-09-07T11:39:34Z</time>
      </trkpt>
      <trkpt lat="46.527184" lon="13.215109">
        <ele>949.916</ele>
        <time>2018-09-07T11:39:35Z</time>
      </trkpt>
      <trkpt lat="46.527187" lon="13.215095">
        <ele>950.428</ele>
        <time>2018-09-07T11:39:36Z</time>
      </trkpt>
      <trkpt lat="46.527200" lon="13.214955">
        <ele>952.314</ele>
        <time>2018-09-07T11:39:45Z</time>
      </trkpt>
      <trkpt lat="46.527205" lon="13.214943">
        <ele>952.881</ele>
        <time>2018-09-07T11:39:46Z</time>
      </trkpt>
      <trkpt lat="46.527208" lon="13.214928">
        <ele>952.852</ele>
        <time>2018-09-07T11:39:47Z</time>
      </trkpt>
      <trkpt lat="46.527211" lon="13.214912">
        <ele>952.870</ele>
        <time>2018-09-07T11:39:48Z</time>
      </trkpt>
      <trkpt lat="46.527217" lon="13.214894">
        <ele>952.877</ele>
        <time>2018-09-07T11:39:49Z</time>
      </trkpt>
      <trkpt lat="46.527220" lon="13.214881">
        <ele>952.850</ele>
        <time>2018-09-07T11:39:50Z</time>
      </trkpt>
      <trkpt lat="46.527289" lon="13.214647">
        <ele>955.653</ele>
        <time>2018-09-07T11:40:05Z</time>
      </trkpt>
      <trkpt lat="46.527415" lon="13.214334">
        <ele>953.204</ele>
        <time>2018-09-07T11:40:19Z</time>
      </trkpt>
      <trkpt lat="46.527431" lon="13.214307">
        <ele>952.814</ele>
        <time>2018-09-07T11:40:20Z</time>
      </trkpt>
      <trkpt lat="46.527448" lon="13.214284">
        <ele>952.308</ele>
        <time>2018-09-07T11:40:21Z</time>
      </trkpt>
      <trkpt lat="46.527462" lon="13.214258">
        <ele>951.889</ele>
        <time>2018-09-07T11:40:22Z</time>
      </trkpt>
      <trkpt lat="46.527475" lon="13.214234">
        <ele>951.841</ele>
        <time>2018-09-07T11:40:23Z</time>
      </trkpt>
      <trkpt lat="46.527493" lon="13.214212">
        <ele>951.387</ele>
        <time>2018-09-07T11:40:24Z</time>
      </trkpt>
      <trkpt lat="46.527510" lon="13.214185">
        <ele>951.374</ele>
        <time>2018-09-07T11:40:25Z</time>
      </trkpt>
      <trkpt lat="46.527527" lon="13.214149">
        <ele>951.395</ele>
        <time>2018-09-07T11:40:26Z</time>
      </trkpt>
      <trkpt lat="46.527816" lon="13.213707">
        <ele>951.343</ele>
        <time>2018-09-07T11:40:39Z</time>
      </trkpt>
      <trkpt lat="46.528037" lon="13.213357">
        <ele>953.720</ele>
        <time>2018-09-07T11:40:54Z</time>
      </trkpt>
      <trkpt lat="46.528091" lon="13.212934">
        <ele>955.663</ele>
        <time>2018-09-07T11:41:08Z</time>
      </trkpt>
      <trkpt lat="46.528168" lon="13.212431">
        <ele>955.242</ele>
        <time>2018-09-07T11:41:24Z</time>
      </trkpt>
      <trkpt lat="46.528367" lon="13.211967">
        <ele>956.622</ele>
        <time>2018-09-07T11:41:41Z</time>
      </trkpt>
      <trkpt lat="46.528693" lon="13.211438">
        <ele>958.514</ele>
        <time>2018-09-07T11:42:02Z</time>
      </trkpt>
      <trkpt lat="46.528994" lon="13.211086">
        <ele>960.908</ele>
        <time>2018-09-07T11:42:20Z</time>
      </trkpt>
      <trkpt lat="46.529073" lon="13.211016">
        <ele>962.458</ele>
        <time>2018-09-07T11:42:26Z</time>
      </trkpt>
      <trkpt lat="46.529085" lon="13.211013">
        <ele>962.450</ele>
        <time>2018-09-07T11:42:27Z</time>
      </trkpt>
      <trkpt lat="46.529402" lon="13.210877">
        <ele>960.986</ele>
        <time>2018-09-07T11:42:39Z</time>
      </trkpt>
      <trkpt lat="46.529554" lon="13.210724">
        <ele>963.393</ele>
        <time>2018-09-07T11:42:51Z</time>
      </trkpt>
      <trkpt lat="46.529680" lon="13.210702">
        <ele>963.874</ele>
        <time>2018-09-07T11:43:04Z</time>
      </trkpt>
      <trkpt lat="46.529761" lon="13.210714">
        <ele>965.792</ele>
        <time>2018-09-07T11:43:13Z</time>
      </trkpt>
      <trkpt lat="46.529868" lon="13.210699">
        <ele>967.779</ele>
        <time>2018-09-07T11:43:25Z</time>
      </trkpt>
      <trkpt lat="46.529974" lon="13.210699">
        <ele>971.542</ele>
        <time>2018-09-07T11:43:38Z</time>
      </trkpt>
      <trkpt lat="46.530085" lon="13.210689">
        <ele>973.434</ele>
        <time>2018-09-07T11:43:50Z</time>
      </trkpt>
      <trkpt lat="46.530177" lon="13.210675">
        <ele>972.955</ele>
        <time>2018-09-07T11:44:00Z</time>
      </trkpt>
      <trkpt lat="46.530187" lon="13.210668">
        <ele>972.510</ele>
        <time>2018-09-07T11:44:01Z</time>
      </trkpt>
      <trkpt lat="46.530237" lon="13.210667">
        <ele>973.408</ele>
        <time>2018-09-07T11:44:06Z</time>
      </trkpt>
      <trkpt lat="46.530283" lon="13.210690">
        <ele>973.937</ele>
        <time>2018-09-07T11:44:11Z</time>
      </trkpt>
      <trkpt lat="46.530292" lon="13.210685">
        <ele>973.939</ele>
        <time>2018-09-07T11:44:12Z</time>
      </trkpt>
      <trkpt lat="46.530301" lon="13.210679">
        <ele>973.935</ele>
        <time>2018-09-07T11:44:13Z</time>
      </trkpt>
      <trkpt lat="46.530320" lon="13.210675">
        <ele>973.962</ele>
        <time>2018-09-07T11:44:15Z</time>
      </trkpt>
      <trkpt lat="46.530419" lon="13.210680">
        <ele>974.463</ele>
        <time>2018-09-07T11:44:25Z</time>
      </trkpt>
      <trkpt lat="46.530450" lon="13.210662">
        <ele>974.961</ele>
        <time>2018-09-07T11:44:29Z</time>
      </trkpt>
      <trkpt lat="46.530462" lon="13.210677">
        <ele>976.328</ele>
        <time>2018-09-07T11:44:45Z</time>
      </trkpt>
      <trkpt lat="46.530473" lon="13.210672">
        <ele>976.881</ele>
        <time>2018-09-07T11:44:46Z</time>
      </trkpt>
      <trkpt lat="46.530486" lon="13.210666">
        <ele>976.871</ele>
        <time>2018-09-07T11:44:47Z</time>
      </trkpt>
      <trkpt lat="46.530500" lon="13.210667">
        <ele>976.841</ele>
        <time>2018-09-07T11:44:48Z</time>
      </trkpt>
      <trkpt lat="46.530514" lon="13.210672">
        <ele>976.315</ele>
        <time>2018-09-07T11:44:49Z</time>
      </trkpt>
      <trkpt lat="46.530526" lon="13.210678">
        <ele>975.808</ele>
        <time>2018-09-07T11:44:50Z</time>
      </trkpt>
      <trkpt lat="46.530569" lon="13.210674">
        <ele>975.321</ele>
        <time>2018-09-07T11:44:54Z</time>
      </trkpt>
      <trkpt lat="46.530583" lon="13.210670">
        <ele>975.313</ele>
        <time>2018-09-07T11:44:55Z</time>
      </trkpt>
      <trkpt lat="46.530594" lon="13.210664">
        <ele>975.399</ele>
        <time>2018-09-07T11:44:56Z</time>
      </trkpt>
      <trkpt lat="46.530603" lon="13.210665">
        <ele>975.346</ele>
        <time>2018-09-07T11:44:57Z</time>
      </trkpt>
      <trkpt lat="46.530611" lon="13.210670">
        <ele>975.337</ele>
        <time>2018-09-07T11:44:58Z</time>
      </trkpt>
      <trkpt lat="46.530621" lon="13.210677">
        <ele>975.325</ele>
        <time>2018-09-07T11:44:59Z</time>
      </trkpt>
      <trkpt lat="46.530631" lon="13.210680">
        <ele>975.852</ele>
        <time>2018-09-07T11:45:00Z</time>
      </trkpt>
      <trkpt lat="46.530825" lon="13.210719">
        <ele>973.965</ele>
        <time>2018-09-07T11:45:14Z</time>
      </trkpt>
      <trkpt lat="46.531024" lon="13.210650">
        <ele>977.895</ele>
        <time>2018-09-07T11:45:30Z</time>
      </trkpt>
      <trkpt lat="46.531042" lon="13.210630">
        <ele>978.249</ele>
        <time>2018-09-07T11:45:32Z</time>
      </trkpt>
      <trkpt lat="46.531231" lon="13.210513">
        <ele>982.623</ele>
        <time>2018-09-07T11:45:51Z</time>
      </trkpt>
      <trkpt lat="46.531253" lon="13.210514">
        <ele>983.508</ele>
        <time>2018-09-07T11:45:53Z</time>
      </trkpt>
      <trkpt lat="46.531274" lon="13.210520">
        <ele>983.553</ele>
        <time>2018-09-07T11:45:55Z</time>
      </trkpt>
      <trkpt lat="46.531285" lon="13.210521">
        <ele>984.045</ele>
        <time>2018-09-07T11:45:56Z</time>
      </trkpt>
      <trkpt lat="46.531305" lon="13.210513">
        <ele>984.571</ele>
        <time>2018-09-07T11:45:58Z</time>
      </trkpt>
      <trkpt lat="46.531316" lon="13.210506">
        <ele>985.048</ele>
        <time>2018-09-07T11:45:59Z</time>
      </trkpt>
      <trkpt lat="46.531326" lon="13.210500">
        <ele>985.089</ele>
        <time>2018-09-07T11:46:00Z</time>
      </trkpt>
      <trkpt lat="46.531462" lon="13.210486">
        <ele>988.357</ele>
        <time>2018-09-07T11:46:15Z</time>
      </trkpt>
      <trkpt lat="46.531533" lon="13.210475">
        <ele>992.224</ele>
        <time>2018-09-07T11:46:30Z</time>
      </trkpt>
      <trkpt lat="46.531534" lon="13.210453">
        <ele>992.297</ele>
        <time>2018-09-07T11:46:53Z</time>
      </trkpt>
      <trkpt lat="46.531645" lon="13.210412">
        <ele>995.152</ele>
        <time>2018-09-07T11:47:07Z</time>
      </trkpt>
      <trkpt lat="46.531678" lon="13.210395">
        <ele>997.053</ele>
        <time>2018-09-07T11:47:10Z</time>
      </trkpt>
      <trkpt lat="46.531689" lon="13.210391">
        <ele>997.508</ele>
        <time>2018-09-07T11:47:11Z</time>
      </trkpt>
      <trkpt lat="46.531769" lon="13.210357">
        <ele>998.408</ele>
        <time>2018-09-07T11:47:19Z</time>
      </trkpt>
      <trkpt lat="46.531856" lon="13.210306">
        <ele>1000.319</ele>
        <time>2018-09-07T11:47:28Z</time>
      </trkpt>
      <trkpt lat="46.531892" lon="13.210261">
        <ele>999.951</ele>
        <time>2018-09-07T11:47:32Z</time>
      </trkpt>
      <trkpt lat="46.531902" lon="13.210258">
        <ele>1000.337</ele>
        <time>2018-09-07T11:47:33Z</time>
      </trkpt>
      <trkpt lat="46.531911" lon="13.210255">
        <ele>999.974</ele>
        <time>2018-09-07T11:47:34Z</time>
      </trkpt>
      <trkpt lat="46.531932" lon="13.210227">
        <ele>1000.375</ele>
        <time>2018-09-07T11:47:37Z</time>
      </trkpt>
      <trkpt lat="46.532023" lon="13.210137">
        <ele>999.463</ele>
        <time>2018-09-07T11:47:49Z</time>
      </trkpt>
      <trkpt lat="46.532043" lon="13.210145">
        <ele>999.440</ele>
        <time>2018-09-07T11:47:51Z</time>
      </trkpt>
      <trkpt lat="46.532063" lon="13.210140">
        <ele>999.493</ele>
        <time>2018-09-07T11:47:53Z</time>
      </trkpt>
      <trkpt lat="46.532116" lon="13.210100">
        <ele>999.912</ele>
        <time>2018-09-07T11:47:59Z</time>
      </trkpt>
      <trkpt lat="46.532253" lon="13.210056">
        <ele>1002.732</ele>
        <time>2018-09-07T11:48:15Z</time>
      </trkpt>
      <trkpt lat="46.532366" lon="13.210036">
        <ele>1004.705</ele>
        <time>2018-09-07T11:48:28Z</time>
      </trkpt>
      <trkpt lat="46.532473" lon="13.210027">
        <ele>1007.108</ele>
        <time>2018-09-07T11:48:41Z</time>
      </trkpt>
      <trkpt lat="46.532513" lon="13.210037">
        <ele>1009.095</ele>
        <time>2018-09-07T11:48:45Z</time>
      </trkpt>
      <trkpt lat="46.532619" lon="13.209963">
        <ele>1012.437</ele>
        <time>2018-09-07T11:48:58Z</time>
      </trkpt>
      <trkpt lat="46.532725" lon="13.209885">
        <ele>1013.373</ele>
        <time>2018-09-07T11:49:13Z</time>
      </trkpt>
      <trkpt lat="46.532750" lon="13.209842">
        <ele>1013.830</ele>
        <time>2018-09-07T11:49:17Z</time>
      </trkpt>
      <trkpt lat="46.532895" lon="13.209738">
        <ele>1016.231</ele>
        <time>2018-09-07T11:49:34Z</time>
      </trkpt>
      <trkpt lat="46.533015" lon="13.209670">
        <ele>1018.649</ele>
        <time>2018-09-07T11:49:47Z</time>
      </trkpt>
      <trkpt lat="46.533130" lon="13.209618">
        <ele>1020.186</ele>
        <time>2018-09-07T11:50:00Z</time>
      </trkpt>
      <trkpt lat="46.533250" lon="13.209545">
        <ele>1022.989</ele>
        <time>2018-09-07T11:50:14Z</time>
      </trkpt>
      <trkpt lat="46.533385" lon="13.209445">
        <ele>1024.971</ele>
        <time>2018-09-07T11:50:30Z</time>
      </trkpt>
      <trkpt lat="46.533404" lon="13.209427">
        <ele>1026.341</ele>
        <time>2018-09-07T11:50:32Z</time>
      </trkpt>
      <trkpt lat="46.533416" lon="13.209425">
        <ele>1026.815</ele>
        <time>2018-09-07T11:50:33Z</time>
      </trkpt>
      <trkpt lat="46.533425" lon="13.209430">
        <ele>1026.808</ele>
        <time>2018-09-07T11:50:34Z</time>
      </trkpt>
      <trkpt lat="46.533434" lon="13.209441">
        <ele>1027.351</ele>
        <time>2018-09-07T11:50:35Z</time>
      </trkpt>
      <trkpt lat="46.533444" lon="13.209453">
        <ele>1027.333</ele>
        <time>2018-09-07T11:50:36Z</time>
      </trkpt>
      <trkpt lat="46.533453" lon="13.209467">
        <ele>1027.389</ele>
        <time>2018-09-07T11:50:37Z</time>
      </trkpt>
      <trkpt lat="46.533463" lon="13.209481">
        <ele>1027.796</ele>
        <time>2018-09-07T11:50:38Z</time>
      </trkpt>
      <trkpt lat="46.533463" lon="13.209544">
        <ele>1027.787</ele>
        <time>2018-09-07T11:50:42Z</time>
      </trkpt>
      <trkpt lat="46.533418" lon="13.209622">
        <ele>1028.235</ele>
        <time>2018-09-07T11:50:49Z</time>
      </trkpt>
      <trkpt lat="46.533269" lon="13.209819">
        <ele>1031.682</ele>
        <time>2018-09-07T11:51:09Z</time>
      </trkpt>
      <trkpt lat="46.533207" lon="13.209882">
        <ele>1032.115</ele>
        <time>2018-09-07T11:51:17Z</time>
      </trkpt>
      <trkpt lat="46.533181" lon="13.209925">
        <ele>1031.668</ele>
        <time>2018-09-07T11:51:21Z</time>
      </trkpt>
      <trkpt lat="46.533174" lon="13.209941">
        <ele>1031.142</ele>
        <time>2018-09-07T11:51:22Z</time>
      </trkpt>
      <trkpt lat="46.533168" lon="13.209981">
        <ele>1030.626</ele>
        <time>2018-09-07T11:51:25Z</time>
      </trkpt>
      <trkpt lat="46.533172" lon="13.209994">
        <ele>1030.108</ele>
        <time>2018-09-07T11:51:26Z</time>
      </trkpt>
      <trkpt lat="46.533187" lon="13.210010">
        <ele>1030.630</ele>
        <time>2018-09-07T11:51:28Z</time>
      </trkpt>
      <trkpt lat="46.533336" lon="13.209966">
        <ele>1028.732</ele>
        <time>2018-09-07T11:51:42Z</time>
      </trkpt>
      <trkpt lat="46.533399" lon="13.209912">
        <ele>1029.238</ele>
        <time>2018-09-07T11:51:49Z</time>
      </trkpt>
      <trkpt lat="46.533518" lon="13.209776">
        <ele>1032.145</ele>
        <time>2018-09-07T11:52:05Z</time>
      </trkpt>
      <trkpt lat="46.533665" lon="13.209658">
        <ele>1037.826</ele>
        <time>2018-09-07T11:52:23Z</time>
      </trkpt>
      <trkpt lat="46.533774" lon="13.209560">
        <ele>1042.214</ele>
        <time>2018-09-07T11:52:38Z</time>
      </trkpt>
      <trkpt lat="46.533799" lon="13.209553">
        <ele>1042.621</ele>
        <time>2018-09-07T11:52:41Z</time>
      </trkpt>
      <trkpt lat="46.533930" lon="13.209523">
        <ele>1046.554</ele>
        <time>2018-09-07T11:52:56Z</time>
      </trkpt>
      <trkpt lat="46.534081" lon="13.209371">
        <ele>1050.392</ele>
        <time>2018-09-07T11:53:12Z</time>
      </trkpt>
      <trkpt lat="46.534162" lon="13.209231">
        <ele>1055.173</ele>
        <time>2018-09-07T11:53:28Z</time>
      </trkpt>
      <trkpt lat="46.534252" lon="13.209082">
        <ele>1058.520</ele>
        <time>2018-09-07T11:53:42Z</time>
      </trkpt>
      <trkpt lat="46.534330" lon="13.208951">
        <ele>1064.808</ele>
        <time>2018-09-07T11:53:56Z</time>
      </trkpt>
      <trkpt lat="46.534420" lon="13.208871">
        <ele>1064.353</ele>
        <time>2018-09-07T11:54:10Z</time>
      </trkpt>
      <trkpt lat="46.534570" lon="13.208881">
        <ele>1067.265</ele>
        <time>2018-09-07T11:54:27Z</time>
      </trkpt>
      <trkpt lat="46.534698" lon="13.208795">
        <ele>1070.551</ele>
        <time>2018-09-07T11:54:43Z</time>
      </trkpt>
      <trkpt lat="46.534754" lon="13.208700">
        <ele>1071.528</ele>
        <time>2018-09-07T11:54:56Z</time>
      </trkpt>
      <trkpt lat="46.534886" lon="13.208649">
        <ele>1076.859</ele>
        <time>2018-09-07T11:55:13Z</time>
      </trkpt>
      <trkpt lat="46.535020" lon="13.208563">
        <ele>1075.867</ele>
        <time>2018-09-07T11:55:28Z</time>
      </trkpt>
      <trkpt lat="46.535028" lon="13.208553">
        <ele>1075.814</ele>
        <time>2018-09-07T11:55:29Z</time>
      </trkpt>
      <trkpt lat="46.535105" lon="13.208473">
        <ele>1075.827</ele>
        <time>2018-09-07T11:55:38Z</time>
      </trkpt>
      <trkpt lat="46.535110" lon="13.208456">
        <ele>1075.884</ele>
        <time>2018-09-07T11:55:39Z</time>
      </trkpt>
      <trkpt lat="46.535215" lon="13.208356">
        <ele>1077.207</ele>
        <time>2018-09-07T11:55:52Z</time>
      </trkpt>
      <trkpt lat="46.535328" lon="13.208245">
        <ele>1080.617</ele>
        <time>2018-09-07T11:56:07Z</time>
      </trkpt>
      <trkpt lat="46.535479" lon="13.208120">
        <ele>1083.008</ele>
        <time>2018-09-07T11:56:21Z</time>
      </trkpt>
      <trkpt lat="46.535633" lon="13.207875">
        <ele>1086.972</ele>
        <time>2018-09-07T11:56:37Z</time>
      </trkpt>
      <trkpt lat="46.535641" lon="13.207863">
        <ele>1086.964</ele>
        <time>2018-09-07T11:56:38Z</time>
      </trkpt>
      <trkpt lat="46.535730" lon="13.207734">
        <ele>1084.070</ele>
        <time>2018-09-07T11:56:45Z</time>
      </trkpt>
      <trkpt lat="46.535740" lon="13.207715">
        <ele>1083.067</ele>
        <time>2018-09-07T11:56:46Z</time>
      </trkpt>
      <trkpt lat="46.535750" lon="13.207697">
        <ele>1082.598</ele>
        <time>2018-09-07T11:56:47Z</time>
      </trkpt>
      <trkpt lat="46.535760" lon="13.207672">
        <ele>1082.166</ele>
        <time>2018-09-07T11:56:48Z</time>
      </trkpt>
      <trkpt lat="46.535767" lon="13.207651">
        <ele>1082.153</ele>
        <time>2018-09-07T11:56:49Z</time>
      </trkpt>
      <trkpt lat="46.535779" lon="13.207629">
        <ele>1081.656</ele>
        <time>2018-09-07T11:56:50Z</time>
      </trkpt>
      <trkpt lat="46.535793" lon="13.207609">
        <ele>1082.193</ele>
        <time>2018-09-07T11:56:51Z</time>
      </trkpt>
      <trkpt lat="46.535809" lon="13.207586">
        <ele>1082.565</ele>
        <time>2018-09-07T11:56:52Z</time>
      </trkpt>
      <trkpt lat="46.535989" lon="13.207391">
        <ele>1084.021</ele>
        <time>2018-09-07T11:57:02Z</time>
      </trkpt>
      <trkpt lat="46.536269" lon="13.207219">
        <ele>1086.908</ele>
        <time>2018-09-07T11:57:14Z</time>
      </trkpt>
      <trkpt lat="46.536602" lon="13.207036">
        <ele>1085.463</ele>
        <time>2018-09-07T11:57:26Z</time>
      </trkpt>
      <trkpt lat="46.536747" lon="13.206542">
        <ele>1081.155</ele>
        <time>2018-09-07T11:57:38Z</time>
      </trkpt>
      <trkpt lat="46.537011" lon="13.206039">
        <ele>1075.841</ele>
        <time>2018-09-07T11:57:50Z</time>
      </trkpt>
      <trkpt lat="46.537303" lon="13.205694">
        <ele>1076.388</ele>
        <time>2018-09-07T11:58:02Z</time>
      </trkpt>
      <trkpt lat="46.537628" lon="13.205638">
        <ele>1081.639</ele>
        <time>2018-09-07T11:58:13Z</time>
      </trkpt>
      <trkpt lat="46.538045" lon="13.205594">
        <ele>1086.467</ele>
        <time>2018-09-07T11:58:29Z</time>
      </trkpt>
      <trkpt lat="46.538321" lon="13.205565">
        <ele>1090.714</ele>
        <time>2018-09-07T11:58:43Z</time>
      </trkpt>
      <trkpt lat="46.538552" lon="13.205610">
        <ele>1092.227</ele>
        <time>2018-09-07T11:58:56Z</time>
      </trkpt>
      <trkpt lat="46.538812" lon="13.205713">
        <ele>1093.639</ele>
        <time>2018-09-07T11:59:14Z</time>
      </trkpt>
      <trkpt lat="46.539027" lon="13.205630">
        <ele>1093.101</ele>
        <time>2018-09-07T11:59:30Z</time>
      </trkpt>
      <trkpt lat="46.539222" lon="13.205578">
        <ele>1093.121</ele>
        <time>2018-09-07T11:59:46Z</time>
      </trkpt>
      <trkpt lat="46.539256" lon="13.205568">
        <ele>1093.608</ele>
        <time>2018-09-07T11:59:49Z</time>
      </trkpt>
      <trkpt lat="46.539266" lon="13.205564">
        <ele>1094.137</ele>
        <time>2018-09-07T11:59:50Z</time>
      </trkpt>
      <trkpt lat="46.539277" lon="13.205562">
        <ele>1094.159</ele>
        <time>2018-09-07T11:59:51Z</time>
      </trkpt>
      <trkpt lat="46.539291" lon="13.205557">
        <ele>1094.175</ele>
        <time>2018-09-07T11:59:52Z</time>
      </trkpt>
      <trkpt lat="46.539304" lon="13.205552">
        <ele>1094.662</ele>
        <time>2018-09-07T11:59:53Z</time>
      </trkpt>
      <trkpt lat="46.539315" lon="13.205543">
        <ele>1094.673</ele>
        <time>2018-09-07T11:59:54Z</time>
      </trkpt>
      <trkpt lat="46.539423" lon="13.205501">
        <ele>1097.441</ele>
        <time>2018-09-07T12:00:04Z</time>
      </trkpt>
      <trkpt lat="46.539435" lon="13.205496">
        <ele>1097.918</ele>
        <time>2018-09-07T12:00:05Z</time>
      </trkpt>
      <trkpt lat="46.539443" lon="13.205490">
        <ele>1097.951</ele>
        <time>2018-09-07T12:00:06Z</time>
      </trkpt>
      <trkpt lat="46.539453" lon="13.205482">
        <ele>1098.456</ele>
        <time>2018-09-07T12:00:07Z</time>
      </trkpt>
      <trkpt lat="46.539465" lon="13.205474">
        <ele>1098.459</ele>
        <time>2018-09-07T12:00:08Z</time>
      </trkpt>
      <trkpt lat="46.539477" lon="13.205471">
        <ele>1098.914</ele>
        <time>2018-09-07T12:00:09Z</time>
      </trkpt>
      <trkpt lat="46.539488" lon="13.205466">
        <ele>1098.908</ele>
        <time>2018-09-07T12:00:10Z</time>
      </trkpt>
      <trkpt lat="46.539499" lon="13.205458">
        <ele>1098.919</ele>
        <time>2018-09-07T12:00:11Z</time>
      </trkpt>
      <trkpt lat="46.539510" lon="13.205452">
        <ele>1098.951</ele>
        <time>2018-09-07T12:00:12Z</time>
      </trkpt>
      <trkpt lat="46.539521" lon="13.205449">
        <ele>1099.467</ele>
        <time>2018-09-07T12:00:13Z</time>
      </trkpt>
      <trkpt lat="46.539687" lon="13.205392">
        <ele>1101.834</ele>
        <time>2018-09-07T12:00:31Z</time>
      </trkpt>
      <trkpt lat="46.539731" lon="13.205356">
        <ele>1101.325</ele>
        <time>2018-09-07T12:00:43Z</time>
      </trkpt>
      <trkpt lat="46.539770" lon="13.205338">
        <ele>1099.883</ele>
        <time>2018-09-07T12:00:59Z</time>
      </trkpt>
      <trkpt lat="46.539865" lon="13.205307">
        <ele>1101.380</ele>
        <time>2018-09-07T12:01:11Z</time>
      </trkpt>
      <trkpt lat="46.539943" lon="13.205260">
        <ele>1103.293</ele>
        <time>2018-09-07T12:01:17Z</time>
      </trkpt>
      <trkpt lat="46.539958" lon="13.205262">
        <ele>1104.657</ele>
        <time>2018-09-07T12:01:18Z</time>
      </trkpt>
      <trkpt lat="46.540142" lon="13.205220">
        <ele>1112.300</ele>
        <time>2018-09-07T12:01:33Z</time>
      </trkpt>
      <trkpt lat="46.540220" lon="13.205186">
        <ele>1113.320</ele>
        <time>2018-09-07T12:01:39Z</time>
      </trkpt>
      <trkpt lat="46.540231" lon="13.205188">
        <ele>1113.308</ele>
        <time>2018-09-07T12:01:40Z</time>
      </trkpt>
      <trkpt lat="46.540244" lon="13.205186">
        <ele>1113.879</ele>
        <time>2018-09-07T12:01:41Z</time>
      </trkpt>
      <trkpt lat="46.540256" lon="13.205185">
        <ele>1113.811</ele>
        <time>2018-09-07T12:01:42Z</time>
      </trkpt>
      <trkpt lat="46.540269" lon="13.205182">
        <ele>1113.837</ele>
        <time>2018-09-07T12:01:43Z</time>
      </trkpt>
      <trkpt lat="46.540281" lon="13.205178">
        <ele>1114.374</ele>
        <time>2018-09-07T12:01:44Z</time>
      </trkpt>
      <trkpt lat="46.540372" lon="13.205172">
        <ele>1115.785</ele>
        <time>2018-09-07T12:01:51Z</time>
      </trkpt>
      <trkpt lat="46.540385" lon="13.205168">
        <ele>1116.263</ele>
        <time>2018-09-07T12:01:52Z</time>
      </trkpt>
      <trkpt lat="46.540640" lon="13.205171">
        <ele>1122.920</ele>
        <time>2018-09-07T12:02:11Z</time>
      </trkpt>
      <trkpt lat="46.540884" lon="13.205135">
        <ele>1122.093</ele>
        <time>2018-09-07T12:02:28Z</time>
      </trkpt>
      <trkpt lat="46.540999" lon="13.205124">
        <ele>1122.413</ele>
        <time>2018-09-07T12:02:36Z</time>
      </trkpt>
      <trkpt lat="46.541014" lon="13.205126">
        <ele>1122.443</ele>
        <time>2018-09-07T12:02:37Z</time>
      </trkpt>
      <trkpt lat="46.541027" lon="13.205126">
        <ele>1122.407</ele>
        <time>2018-09-07T12:02:38Z</time>
      </trkpt>
      <trkpt lat="46.541043" lon="13.205122">
        <ele>1122.008</ele>
        <time>2018-09-07T12:02:39Z</time>
      </trkpt>
      <trkpt lat="46.541055" lon="13.205115">
        <ele>1121.535</ele>
        <time>2018-09-07T12:02:40Z</time>
      </trkpt>
      <trkpt lat="46.541066" lon="13.205107">
        <ele>1120.547</ele>
        <time>2018-09-07T12:02:41Z</time>
      </trkpt>
      <trkpt lat="46.541080" lon="13.205100">
        <ele>1120.063</ele>
        <time>2018-09-07T12:02:42Z</time>
      </trkpt>
      <trkpt lat="46.541092" lon="13.205098">
        <ele>1119.530</ele>
        <time>2018-09-07T12:02:43Z</time>
      </trkpt>
      <trkpt lat="46.541107" lon="13.205097">
        <ele>1119.581</ele>
        <time>2018-09-07T12:02:44Z</time>
      </trkpt>
      <trkpt lat="46.541359" lon="13.205165">
        <ele>1120.559</ele>
        <time>2018-09-07T12:03:00Z</time>
      </trkpt>
      <trkpt lat="46.541591" lon="13.205231">
        <ele>1121.026</ele>
        <time>2018-09-07T12:03:15Z</time>
      </trkpt>
      <trkpt lat="46.541856" lon="13.205182">
        <ele>1123.939</ele>
        <time>2018-09-07T12:03:31Z</time>
      </trkpt>
      <trkpt lat="46.542060" lon="13.204970">
        <ele>1125.328</ele>
        <time>2018-09-07T12:03:45Z</time>
      </trkpt>
      <trkpt lat="46.542226" lon="13.204693">
        <ele>1123.989</ele>
        <time>2018-09-07T12:03:58Z</time>
      </trkpt>
      <trkpt lat="46.542409" lon="13.204585">
        <ele>1124.417</ele>
        <time>2018-09-07T12:04:11Z</time>
      </trkpt>
      <trkpt lat="46.542600" lon="13.204517">
        <ele>1127.208</ele>
        <time>2018-09-07T12:04:26Z</time>
      </trkpt>
      <trkpt lat="46.542686" lon="13.204485">
        <ele>1128.746</ele>
        <time>2018-09-07T12:04:33Z</time>
      </trkpt>
      <trkpt lat="46.542700" lon="13.204490">
        <ele>1128.738</ele>
        <time>2018-09-07T12:04:34Z</time>
      </trkpt>
      <trkpt lat="46.542711" lon="13.204492">
        <ele>1128.724</ele>
        <time>2018-09-07T12:04:35Z</time>
      </trkpt>
      <trkpt lat="46.542734" lon="13.204488">
        <ele>1128.711</ele>
        <time>2018-09-07T12:04:37Z</time>
      </trkpt>
      <trkpt lat="46.542903" lon="13.204428">
        <ele>1130.622</ele>
        <time>2018-09-07T12:04:53Z</time>
      </trkpt>
      <trkpt lat="46.542920" lon="13.204427">
        <ele>1131.150</ele>
        <time>2018-09-07T12:04:55Z</time>
      </trkpt>
      <trkpt lat="46.542932" lon="13.204425">
        <ele>1131.117</ele>
        <time>2018-09-07T12:04:56Z</time>
      </trkpt>
      <trkpt lat="46.542981" lon="13.204422">
        <ele>1132.060</ele>
        <time>2018-09-07T12:05:01Z</time>
      </trkpt>
      <trkpt lat="46.542992" lon="13.204413">
        <ele>1132.019</ele>
        <time>2018-09-07T12:05:02Z</time>
      </trkpt>
      <trkpt lat="46.543003" lon="13.204407">
        <ele>1132.509</ele>
        <time>2018-09-07T12:05:03Z</time>
      </trkpt>
      <trkpt lat="46.543015" lon="13.204401">
        <ele>1132.519</ele>
        <time>2018-09-07T12:05:04Z</time>
      </trkpt>
      <trkpt lat="46.543054" lon="13.204380">
        <ele>1133.508</ele>
        <time>2018-09-07T12:05:08Z</time>
      </trkpt>
      <trkpt lat="46.543134" lon="13.204386">
        <ele>1134.495</ele>
        <time>2018-09-07T12:05:16Z</time>
      </trkpt>
      <trkpt lat="46.543144" lon="13.204384">
        <ele>1134.447</ele>
        <time>2018-09-07T12:05:17Z</time>
      </trkpt>
      <trkpt lat="46.543153" lon="13.204381">
        <ele>1135.433</ele>
        <time>2018-09-07T12:05:18Z</time>
      </trkpt>
      <trkpt lat="46.543162" lon="13.204376">
        <ele>1135.470</ele>
        <time>2018-09-07T12:05:19Z</time>
      </trkpt>
      <trkpt lat="46.543170" lon="13.204370">
        <ele>1135.431</ele>
        <time>2018-09-07T12:05:20Z</time>
      </trkpt>
      <trkpt lat="46.543179" lon="13.204361">
        <ele>1135.939</ele>
        <time>2018-09-07T12:05:21Z</time>
      </trkpt>
      <trkpt lat="46.543191" lon="13.204355">
        <ele>1135.986</ele>
        <time>2018-09-07T12:05:22Z</time>
      </trkpt>
      <trkpt lat="46.543366" lon="13.204234">
        <ele>1140.289</ele>
        <time>2018-09-07T12:05:39Z</time>
      </trkpt>
      <trkpt lat="46.543417" lon="13.204196">
        <ele>1141.788</ele>
        <time>2018-09-07T12:05:44Z</time>
      </trkpt>
      <trkpt lat="46.543429" lon="13.204181">
        <ele>1141.724</ele>
        <time>2018-09-07T12:05:45Z</time>
      </trkpt>
      <trkpt lat="46.543439" lon="13.204172">
        <ele>1142.126</ele>
        <time>2018-09-07T12:05:46Z</time>
      </trkpt>
      <trkpt lat="46.543449" lon="13.204165">
        <ele>1142.608</ele>
        <time>2018-09-07T12:05:47Z</time>
      </trkpt>
      <trkpt lat="46.543515" lon="13.204103">
        <ele>1145.052</ele>
        <time>2018-09-07T12:05:55Z</time>
      </trkpt>
      <trkpt lat="46.543525" lon="13.204108">
        <ele>1145.064</ele>
        <time>2018-09-07T12:05:56Z</time>
      </trkpt>
      <trkpt lat="46.543534" lon="13.204110">
        <ele>1146.060</ele>
        <time>2018-09-07T12:05:57Z</time>
      </trkpt>
      <trkpt lat="46.543543" lon="13.204111">
        <ele>1146.057</ele>
        <time>2018-09-07T12:05:58Z</time>
      </trkpt>
      <trkpt lat="46.543551" lon="13.204112">
        <ele>1146.068</ele>
        <time>2018-09-07T12:05:59Z</time>
      </trkpt>
      <trkpt lat="46.543561" lon="13.204109">
        <ele>1146.066</ele>
        <time>2018-09-07T12:06:00Z</time>
      </trkpt>
      <trkpt lat="46.543570" lon="13.204103">
        <ele>1146.043</ele>
        <time>2018-09-07T12:06:01Z</time>
      </trkpt>
      <trkpt lat="46.543580" lon="13.204098">
        <ele>1146.596</ele>
        <time>2018-09-07T12:06:02Z</time>
      </trkpt>
      <trkpt lat="46.543588" lon="13.204093">
        <ele>1146.969</ele>
        <time>2018-09-07T12:06:03Z</time>
      </trkpt>
      <trkpt lat="46.543599" lon="13.204090">
        <ele>1147.404</ele>
        <time>2018-09-07T12:06:04Z</time>
      </trkpt>
      <trkpt lat="46.543611" lon="13.204087">
        <ele>1146.924</ele>
        <time>2018-09-07T12:06:05Z</time>
      </trkpt>
      <trkpt lat="46.543633" lon="13.204071">
        <ele>1147.408</ele>
        <time>2018-09-07T12:06:07Z</time>
      </trkpt>
      <trkpt lat="46.543642" lon="13.204064">
        <ele>1147.930</ele>
        <time>2018-09-07T12:06:08Z</time>
      </trkpt>
      <trkpt lat="46.543789" lon="13.204078">
        <ele>1149.862</ele>
        <time>2018-09-07T12:06:23Z</time>
      </trkpt>
      <trkpt lat="46.543799" lon="13.204088">
        <ele>1150.328</ele>
        <time>2018-09-07T12:06:24Z</time>
      </trkpt>
      <trkpt lat="46.543809" lon="13.204092">
        <ele>1150.355</ele>
        <time>2018-09-07T12:06:25Z</time>
      </trkpt>
      <trkpt lat="46.543818" lon="13.204097">
        <ele>1150.836</ele>
        <time>2018-09-07T12:06:26Z</time>
      </trkpt>
      <trkpt lat="46.543830" lon="13.204101">
        <ele>1150.814</ele>
        <time>2018-09-07T12:06:27Z</time>
      </trkpt>
      <trkpt lat="46.543841" lon="13.204104">
        <ele>1151.311</ele>
        <time>2018-09-07T12:06:28Z</time>
      </trkpt>
      <trkpt lat="46.543849" lon="13.204107">
        <ele>1151.344</ele>
        <time>2018-09-07T12:06:29Z</time>
      </trkpt>
      <trkpt lat="46.543859" lon="13.204104">
        <ele>1151.362</ele>
        <time>2018-09-07T12:06:30Z</time>
      </trkpt>
      <trkpt lat="46.543872" lon="13.204101">
        <ele>1151.383</ele>
        <time>2018-09-07T12:06:31Z</time>
      </trkpt>
      <trkpt lat="46.543884" lon="13.204098">
        <ele>1151.311</ele>
        <time>2018-09-07T12:06:32Z</time>
      </trkpt>
      <trkpt lat="46.543896" lon="13.204094">
        <ele>1151.308</ele>
        <time>2018-09-07T12:06:33Z</time>
      </trkpt>
      <trkpt lat="46.543905" lon="13.204097">
        <ele>1151.340</ele>
        <time>2018-09-07T12:06:34Z</time>
      </trkpt>
      <trkpt lat="46.543916" lon="13.204103">
        <ele>1151.842</ele>
        <time>2018-09-07T12:06:35Z</time>
      </trkpt>
      <trkpt lat="46.543927" lon="13.204104">
        <ele>1151.888</ele>
        <time>2018-09-07T12:06:36Z</time>
      </trkpt>
      <trkpt lat="46.543939" lon="13.204105">
        <ele>1151.385</ele>
        <time>2018-09-07T12:06:37Z</time>
      </trkpt>
      <trkpt lat="46.543950" lon="13.204112">
        <ele>1151.816</ele>
        <time>2018-09-07T12:06:38Z</time>
      </trkpt>
      <trkpt lat="46.544157" lon="13.204116">
        <ele>1153.794</ele>
        <time>2018-09-07T12:06:57Z</time>
      </trkpt>
      <trkpt lat="46.544166" lon="13.204110">
        <ele>1154.281</ele>
        <time>2018-09-07T12:06:58Z</time>
      </trkpt>
      <trkpt lat="46.544177" lon="13.204107">
        <ele>1154.294</ele>
        <time>2018-09-07T12:06:59Z</time>
      </trkpt>
      <trkpt lat="46.544190" lon="13.204117">
        <ele>1154.265</ele>
        <time>2018-09-07T12:07:00Z</time>
      </trkpt>
      <trkpt lat="46.544200" lon="13.204128">
        <ele>1154.268</ele>
        <time>2018-09-07T12:07:01Z</time>
      </trkpt>
      <trkpt lat="46.544210" lon="13.204138">
        <ele>1154.214</ele>
        <time>2018-09-07T12:07:02Z</time>
      </trkpt>
      <trkpt lat="46.544222" lon="13.204145">
        <ele>1153.708</ele>
        <time>2018-09-07T12:07:03Z</time>
      </trkpt>
      <trkpt lat="46.544233" lon="13.204145">
        <ele>1153.790</ele>
        <time>2018-09-07T12:07:04Z</time>
      </trkpt>
      <trkpt lat="46.544244" lon="13.204145">
        <ele>1153.742</ele>
        <time>2018-09-07T12:07:05Z</time>
      </trkpt>
      <trkpt lat="46.544254" lon="13.204147">
        <ele>1153.788</ele>
        <time>2018-09-07T12:07:06Z</time>
      </trkpt>
      <trkpt lat="46.544386" lon="13.204140">
        <ele>1155.635</ele>
        <time>2018-09-07T12:07:18Z</time>
      </trkpt>
      <trkpt lat="46.544397" lon="13.204142">
        <ele>1155.636</ele>
        <time>2018-09-07T12:07:19Z</time>
      </trkpt>
      <trkpt lat="46.544406" lon="13.204141">
        <ele>1155.674</ele>
        <time>2018-09-07T12:07:20Z</time>
      </trkpt>
      <trkpt lat="46.544415" lon="13.204141">
        <ele>1156.151</ele>
        <time>2018-09-07T12:07:21Z</time>
      </trkpt>
      <trkpt lat="46.544426" lon="13.204148">
        <ele>1156.164</ele>
        <time>2018-09-07T12:07:22Z</time>
      </trkpt>
      <trkpt lat="46.544437" lon="13.204148">
        <ele>1157.055</ele>
        <time>2018-09-07T12:07:23Z</time>
      </trkpt>
      <trkpt lat="46.544449" lon="13.204151">
        <ele>1157.007</ele>
        <time>2018-09-07T12:07:24Z</time>
      </trkpt>
      <trkpt lat="46.544462" lon="13.204158">
        <ele>1156.617</ele>
        <time>2018-09-07T12:07:25Z</time>
      </trkpt>
      <trkpt lat="46.544471" lon="13.204161">
        <ele>1157.008</ele>
        <time>2018-09-07T12:07:26Z</time>
      </trkpt>
      <trkpt lat="46.544541" lon="13.204153">
        <ele>1159.019</ele>
        <time>2018-09-07T12:07:33Z</time>
      </trkpt>
      <trkpt lat="46.544553" lon="13.204161">
        <ele>1159.061</ele>
        <time>2018-09-07T12:07:34Z</time>
      </trkpt>
      <trkpt lat="46.544565" lon="13.204171">
        <ele>1159.057</ele>
        <time>2018-09-07T12:07:35Z</time>
      </trkpt>
      <trkpt lat="46.544577" lon="13.204180">
        <ele>1159.084</ele>
        <time>2018-09-07T12:07:36Z</time>
      </trkpt>
      <trkpt lat="46.544586" lon="13.204186">
        <ele>1159.435</ele>
        <time>2018-09-07T12:07:37Z</time>
      </trkpt>
      <trkpt lat="46.544594" lon="13.204194">
        <ele>1159.053</ele>
        <time>2018-09-07T12:07:38Z</time>
      </trkpt>
      <trkpt lat="46.544689" lon="13.204239">
        <ele>1161.410</ele>
        <time>2018-09-07T12:07:48Z</time>
      </trkpt>
      <trkpt lat="46.544732" lon="13.204238">
        <ele>1162.343</ele>
        <time>2018-09-07T12:07:52Z</time>
      </trkpt>
      <trkpt lat="46.544744" lon="13.204244">
        <ele>1162.328</ele>
        <time>2018-09-07T12:07:53Z</time>
      </trkpt>
      <trkpt lat="46.544752" lon="13.204251">
        <ele>1162.889</ele>
        <time>2018-09-07T12:07:54Z</time>
      </trkpt>
      <trkpt lat="46.544759" lon="13.204265">
        <ele>1162.817</ele>
        <time>2018-09-07T12:07:55Z</time>
      </trkpt>
      <trkpt lat="46.544768" lon="13.204277">
        <ele>1162.808</ele>
        <time>2018-09-07T12:07:56Z</time>
      </trkpt>
      <trkpt lat="46.544777" lon="13.204286">
        <ele>1163.366</ele>
        <time>2018-09-07T12:07:57Z</time>
      </trkpt>
      <trkpt lat="46.544787" lon="13.204292">
        <ele>1163.378</ele>
        <time>2018-09-07T12:07:58Z</time>
      </trkpt>
      <trkpt lat="46.544797" lon="13.204298">
        <ele>1163.364</ele>
        <time>2018-09-07T12:07:59Z</time>
      </trkpt>
      <trkpt lat="46.544808" lon="13.204300">
        <ele>1163.811</ele>
        <time>2018-09-07T12:08:00Z</time>
      </trkpt>
      <trkpt lat="46.544960" lon="13.204348">
        <ele>1165.742</ele>
        <time>2018-09-07T12:08:14Z</time>
      </trkpt>
      <trkpt lat="46.544999" lon="13.204364">
        <ele>1166.790</ele>
        <time>2018-09-07T12:08:18Z</time>
      </trkpt>
      <trkpt lat="46.545009" lon="13.204360">
        <ele>1166.737</ele>
        <time>2018-09-07T12:08:19Z</time>
      </trkpt>
      <trkpt lat="46.545019" lon="13.204359">
        <ele>1166.750</ele>
        <time>2018-09-07T12:08:20Z</time>
      </trkpt>
      <trkpt lat="46.545030" lon="13.204356">
        <ele>1166.743</ele>
        <time>2018-09-07T12:08:21Z</time>
      </trkpt>
      <trkpt lat="46.545042" lon="13.204353">
        <ele>1166.764</ele>
        <time>2018-09-07T12:08:22Z</time>
      </trkpt>
      <trkpt lat="46.545052" lon="13.204352">
        <ele>1167.110</ele>
        <time>2018-09-07T12:08:23Z</time>
      </trkpt>
      <trkpt lat="46.545062" lon="13.204353">
        <ele>1167.108</ele>
        <time>2018-09-07T12:08:24Z</time>
      </trkpt>
      <trkpt lat="46.545074" lon="13.204355">
        <ele>1167.178</ele>
        <time>2018-09-07T12:08:25Z</time>
      </trkpt>
      <trkpt lat="46.545085" lon="13.204354">
        <ele>1167.660</ele>
        <time>2018-09-07T12:08:26Z</time>
      </trkpt>
      <trkpt lat="46.545095" lon="13.204357">
        <ele>1167.686</ele>
        <time>2018-09-07T12:08:27Z</time>
      </trkpt>
      <trkpt lat="46.545104" lon="13.204361">
        <ele>1168.183</ele>
        <time>2018-09-07T12:08:28Z</time>
      </trkpt>
      <trkpt lat="46.545150" lon="13.204407">
        <ele>1169.124</ele>
        <time>2018-09-07T12:08:34Z</time>
      </trkpt>
      <trkpt lat="46.545155" lon="13.204427">
        <ele>1169.152</ele>
        <time>2018-09-07T12:08:35Z</time>
      </trkpt>
      <trkpt lat="46.545155" lon="13.204448">
        <ele>1169.179</ele>
        <time>2018-09-07T12:08:36Z</time>
      </trkpt>
      <trkpt lat="46.545148" lon="13.204466">
        <ele>1169.152</ele>
        <time>2018-09-07T12:08:37Z</time>
      </trkpt>
      <trkpt lat="46.545138" lon="13.204484">
        <ele>1169.577</ele>
        <time>2018-09-07T12:08:38Z</time>
      </trkpt>
      <trkpt lat="46.544946" lon="13.204689">
        <ele>1171.961</ele>
        <time>2018-09-07T12:08:54Z</time>
      </trkpt>
      <trkpt lat="46.544703" lon="13.204833">
        <ele>1173.927</ele>
        <time>2018-09-07T12:09:11Z</time>
      </trkpt>
      <trkpt lat="46.544625" lon="13.204864">
        <ele>1175.808</ele>
        <time>2018-09-07T12:09:25Z</time>
      </trkpt>
      <trkpt lat="46.544621" lon="13.204873">
        <ele>1175.811</ele>
        <time>2018-09-07T12:09:26Z</time>
      </trkpt>
      <trkpt lat="46.544556" lon="13.204928">
        <ele>1176.373</ele>
        <time>2018-09-07T12:09:39Z</time>
      </trkpt>
      <trkpt lat="46.544514" lon="13.204985">
        <ele>1175.349</ele>
        <time>2018-09-07T12:10:00Z</time>
      </trkpt>
      <trkpt lat="46.544462" lon="13.205049">
        <ele>1172.936</ele>
        <time>2018-09-07T12:10:14Z</time>
      </trkpt>
      <trkpt lat="46.544454" lon="13.205034">
        <ele>1170.017</ele>
        <time>2018-09-07T12:10:54Z</time>
      </trkpt>
      <trkpt lat="46.544453" lon="13.205042">
        <ele>1167.175</ele>
        <time>2018-09-07T12:11:26Z</time>
      </trkpt>
      <trkpt lat="46.544455" lon="13.205060">
        <ele>1168.662</ele>
        <time>2018-09-07T12:12:02Z</time>
      </trkpt>
      <trkpt lat="46.544458" lon="13.205093">
        <ele>1168.685</ele>
        <time>2018-09-07T12:12:36Z</time>
      </trkpt>
      <trkpt lat="46.544456" lon="13.205090">
        <ele>1166.784</ele>
        <time>2018-09-07T12:13:17Z</time>
      </trkpt>
      <trkpt lat="46.544479" lon="13.205078">
        <ele>1167.107</ele>
        <time>2018-09-07T12:13:47Z</time>
      </trkpt>
      <trkpt lat="46.544500" lon="13.205122">
        <ele>1166.717</ele>
        <time>2018-09-07T12:14:28Z</time>
      </trkpt>
      <trkpt lat="46.544491" lon="13.205105">
        <ele>1168.108</ele>
        <time>2018-09-07T12:15:12Z</time>
      </trkpt>
      <trkpt lat="46.544502" lon="13.205076">
        <ele>1169.512</ele>
        <time>2018-09-07T12:15:49Z</time>
      </trkpt>
      <trkpt lat="46.544489" lon="13.205064">
        <ele>1170.534</ele>
        <time>2018-09-07T12:16:29Z</time>
      </trkpt>
      <trkpt lat="46.544466" lon="13.205059">
        <ele>1169.560</ele>
        <time>2018-09-07T12:17:02Z</time>
      </trkpt>
      <trkpt lat="46.544461" lon="13.205043">
        <ele>1168.647</ele>
        <time>2018-09-07T12:17:39Z</time>
      </trkpt>
      <trkpt lat="46.544454" lon="13.205038">
        <ele>1166.278</ele>
        <time>2018-09-07T12:18:25Z</time>
      </trkpt>
      <trkpt lat="46.544463" lon="13.205039">
        <ele>1164.296</ele>
        <time>2018-09-07T12:19:07Z</time>
      </trkpt>
      <trkpt lat="46.544475" lon="13.205068">
        <ele>1162.353</ele>
        <time>2018-09-07T12:19:39Z</time>
      </trkpt>
      <trkpt lat="46.544472" lon="13.205043">
        <ele>1164.276</ele>
        <time>2018-09-07T12:20:11Z</time>
      </trkpt>
      <trkpt lat="46.544481" lon="13.205051">
        <ele>1164.762</ele>
        <time>2018-09-07T12:20:55Z</time>
      </trkpt>
      <trkpt lat="46.544471" lon="13.205052">
        <ele>1168.183</ele>
        <time>2018-09-07T12:21:35Z</time>
      </trkpt>
      <trkpt lat="46.544477" lon="13.205068">
        <ele>1166.711</ele>
        <time>2018-09-07T12:22:09Z</time>
      </trkpt>
      <trkpt lat="46.544482" lon="13.205043">
        <ele>1170.008</ele>
        <time>2018-09-07T12:22:40Z</time>
      </trkpt>
      <trkpt lat="46.544468" lon="13.205034">
        <ele>1172.480</ele>
        <time>2018-09-07T12:23:09Z</time>
      </trkpt>
      <trkpt lat="46.544476" lon="13.205032">
        <ele>1171.092</ele>
        <time>2018-09-07T12:23:41Z</time>
      </trkpt>
      <trkpt lat="46.544475" lon="13.205026">
        <ele>1172.928</ele>
        <time>2018-09-07T12:24:08Z</time>
      </trkpt>
      <trkpt lat="46.544450" lon="13.205033">
        <ele>1174.345</ele>
        <time>2018-09-07T12:24:29Z</time>
      </trkpt>
      <trkpt lat="46.544446" lon="13.205026">
        <ele>1175.856</ele>
        <time>2018-09-07T12:24:56Z</time>
      </trkpt>
      <trkpt lat="46.544460" lon="13.205048">
        <ele>1175.354</ele>
        <time>2018-09-07T12:25:36Z</time>
      </trkpt>
      <trkpt lat="46.544449" lon="13.205045">
        <ele>1173.981</ele>
        <time>2018-09-07T12:26:09Z</time>
      </trkpt>
      <trkpt lat="46.544437" lon="13.205048">
        <ele>1174.394</ele>
        <time>2018-09-07T12:26:33Z</time>
      </trkpt>
      <trkpt lat="46.544436" lon="13.205038">
        <ele>1176.747</ele>
        <time>2018-09-07T12:26:57Z</time>
      </trkpt>
      <trkpt lat="46.544440" lon="13.205033">
        <ele>1176.729</ele>
        <time>2018-09-07T12:27:35Z</time>
      </trkpt>
      <trkpt lat="46.544433" lon="13.205042">
        <ele>1174.321</ele>
        <time>2018-09-07T12:28:08Z</time>
      </trkpt>
      <trkpt lat="46.544455" lon="13.205040">
        <ele>1176.308</ele>
        <time>2018-09-07T12:28:37Z</time>
      </trkpt>
      <trkpt lat="46.544446" lon="13.205035">
        <ele>1174.838</ele>
        <time>2018-09-07T12:29:05Z</time>
      </trkpt>
      <trkpt lat="46.544455" lon="13.205042">
        <ele>1174.330</ele>
        <time>2018-09-07T12:29:38Z</time>
      </trkpt>
      <trkpt lat="46.544446" lon="13.205027">
        <ele>1175.396</ele>
        <time>2018-09-07T12:30:19Z</time>
      </trkpt>
      <trkpt lat="46.544441" lon="13.205038">
        <ele>1174.843</ele>
        <time>2018-09-07T12:30:52Z</time>
      </trkpt>
      <trkpt lat="46.544451" lon="13.205042">
        <ele>1174.874</ele>
        <time>2018-09-07T12:31:29Z</time>
      </trkpt>
      <trkpt lat="46.545154" lon="13.204296">
        <ele>1133.182</ele>
        <time>2018-09-07T12:57:05Z</time>
      </trkpt>
      <trkpt lat="46.545278" lon="13.204291">
        <ele>1133.149</ele>
        <time>2018-09-07T12:57:18Z</time>
      </trkpt>
      <trkpt lat="46.545314" lon="13.204288">
        <ele>1133.142</ele>
        <time>2018-09-07T12:57:23Z</time>
      </trkpt>
      <trkpt lat="46.545341" lon="13.204273">
        <ele>1133.113</ele>
        <time>2018-09-07T12:57:26Z</time>
      </trkpt>
      <trkpt lat="46.545359" lon="13.204287">
        <ele>1132.843</ele>
        <time>2018-09-07T12:57:28Z</time>
      </trkpt>
      <trkpt lat="46.545391" lon="13.204308">
        <ele>1132.507</ele>
        <time>2018-09-07T12:57:35Z</time>
      </trkpt>
      <trkpt lat="46.545446" lon="13.204308">
        <ele>1133.108</ele>
        <time>2018-09-07T12:57:46Z</time>
      </trkpt>
      <trkpt lat="46.545545" lon="13.204315">
        <ele>1134.185</ele>
        <time>2018-09-07T12:57:58Z</time>
      </trkpt>
      <trkpt lat="46.545620" lon="13.204312">
        <ele>1135.467</ele>
        <time>2018-09-07T12:58:10Z</time>
      </trkpt>
      <trkpt lat="46.545646" lon="13.204325">
        <ele>1136.033</ele>
        <time>2018-09-07T12:58:14Z</time>
      </trkpt>
      <trkpt lat="46.545655" lon="13.204326">
        <ele>1136.160</ele>
        <time>2018-09-07T12:58:15Z</time>
      </trkpt>
      <trkpt lat="46.545674" lon="13.204333">
        <ele>1136.481</ele>
        <time>2018-09-07T12:58:18Z</time>
      </trkpt>
      <trkpt lat="46.545682" lon="13.204335">
        <ele>1136.879</ele>
        <time>2018-09-07T12:58:19Z</time>
      </trkpt>
      <trkpt lat="46.545697" lon="13.204330">
        <ele>1137.146</ele>
        <time>2018-09-07T12:58:22Z</time>
      </trkpt>
      <trkpt lat="46.545704" lon="13.204321">
        <ele>1137.139</ele>
        <time>2018-09-07T12:58:23Z</time>
      </trkpt>
      <trkpt lat="46.545716" lon="13.204310">
        <ele>1137.498</ele>
        <time>2018-09-07T12:58:25Z</time>
      </trkpt>
      <trkpt lat="46.545734" lon="13.204282">
        <ele>1137.815</ele>
        <time>2018-09-07T12:58:29Z</time>
      </trkpt>
      <trkpt lat="46.545818" lon="13.204220">
        <ele>1139.026</ele>
        <time>2018-09-07T12:58:38Z</time>
      </trkpt>
      <trkpt lat="46.545873" lon="13.204200">
        <ele>1139.508</ele>
        <time>2018-09-07T12:58:44Z</time>
      </trkpt>
      <trkpt lat="46.545897" lon="13.204193">
        <ele>1140.033</ele>
        <time>2018-09-07T12:58:46Z</time>
      </trkpt>
      <trkpt lat="46.545947" lon="13.204158">
        <ele>1140.595</ele>
        <time>2018-09-07T12:58:51Z</time>
      </trkpt>
      <trkpt lat="46.545969" lon="13.204144">
        <ele>1141.021</ele>
        <time>2018-09-07T12:58:53Z</time>
      </trkpt>
      <trkpt lat="46.546047" lon="13.204046">
        <ele>1142.188</ele>
        <time>2018-09-07T12:59:01Z</time>
      </trkpt>
      <trkpt lat="46.546098" lon="13.204014">
        <ele>1143.169</ele>
        <time>2018-09-07T12:59:07Z</time>
      </trkpt>
      <trkpt lat="46.546167" lon="13.204025">
        <ele>1144.137</ele>
        <time>2018-09-07T12:59:15Z</time>
      </trkpt>
      <trkpt lat="46.546268" lon="13.204053">
        <ele>1145.194</ele>
        <time>2018-09-07T12:59:24Z</time>
      </trkpt>
      <trkpt lat="46.546277" lon="13.204059">
        <ele>1145.517</ele>
        <time>2018-09-07T12:59:25Z</time>
      </trkpt>
      <trkpt lat="46.546285" lon="13.204065">
        <ele>1145.575</ele>
        <time>2018-09-07T12:59:26Z</time>
      </trkpt>
      <trkpt lat="46.546292" lon="13.204066">
        <ele>1145.828</ele>
        <time>2018-09-07T12:59:27Z</time>
      </trkpt>
      <trkpt lat="46.546310" lon="13.204067">
        <ele>1146.120</ele>
        <time>2018-09-07T12:59:29Z</time>
      </trkpt>
      <trkpt lat="46.546339" lon="13.204074">
        <ele>1146.408</ele>
        <time>2018-09-07T12:59:32Z</time>
      </trkpt>
      <trkpt lat="46.546347" lon="13.204077">
        <ele>1146.531</ele>
        <time>2018-09-07T12:59:33Z</time>
      </trkpt>
      <trkpt lat="46.546453" lon="13.204056">
        <ele>1147.513</ele>
        <time>2018-09-07T12:59:44Z</time>
      </trkpt>
      <trkpt lat="46.546528" lon="13.204040">
        <ele>1148.479</ele>
        <time>2018-09-07T12:59:51Z</time>
      </trkpt>
      <trkpt lat="46.546559" lon="13.204031">
        <ele>1148.876</ele>
        <time>2018-09-07T12:59:54Z</time>
      </trkpt>
      <trkpt lat="46.546602" lon="13.204020">
        <ele>1149.157</ele>
        <time>2018-09-07T12:59:58Z</time>
      </trkpt>
      <trkpt lat="46.546627" lon="13.204016">
        <ele>1149.145</ele>
        <time>2018-09-07T13:00:00Z</time>
      </trkpt>
      <trkpt lat="46.546639" lon="13.204013">
        <ele>1149.442</ele>
        <time>2018-09-07T13:00:01Z</time>
      </trkpt>
      <trkpt lat="46.546661" lon="13.204008">
        <ele>1149.575</ele>
        <time>2018-09-07T13:00:03Z</time>
      </trkpt>
      <trkpt lat="46.546672" lon="13.204011">
        <ele>1149.878</ele>
        <time>2018-09-07T13:00:04Z</time>
      </trkpt>
      <trkpt lat="46.546764" lon="13.204028">
        <ele>1150.833</ele>
        <time>2018-09-07T13:00:13Z</time>
      </trkpt>
      <trkpt lat="46.546871" lon="13.204028">
        <ele>1152.026</ele>
        <time>2018-09-07T13:00:22Z</time>
      </trkpt>
      <trkpt lat="46.546938" lon="13.204001">
        <ele>1152.808</ele>
        <time>2018-09-07T13:00:28Z</time>
      </trkpt>
      <trkpt lat="46.546944" lon="13.203990">
        <ele>1153.081</ele>
        <time>2018-09-07T13:00:29Z</time>
      </trkpt>
      <trkpt lat="46.546962" lon="13.203956">
        <ele>1153.413</ele>
        <time>2018-09-07T13:00:32Z</time>
      </trkpt>
      <trkpt lat="46.546970" lon="13.203951">
        <ele>1153.569</ele>
        <time>2018-09-07T13:00:33Z</time>
      </trkpt>
      <trkpt lat="46.546978" lon="13.203945">
        <ele>1153.886</ele>
        <time>2018-09-07T13:00:34Z</time>
      </trkpt>
      <trkpt lat="46.546986" lon="13.203940">
        <ele>1153.867</ele>
        <time>2018-09-07T13:00:35Z</time>
      </trkpt>
      <trkpt lat="46.546994" lon="13.203934">
        <ele>1154.175</ele>
        <time>2018-09-07T13:00:36Z</time>
      </trkpt>
      <trkpt lat="46.547009" lon="13.203921">
        <ele>1154.462</ele>
        <time>2018-09-07T13:00:38Z</time>
      </trkpt>
      <trkpt lat="46.547044" lon="13.203900">
        <ele>1155.085</ele>
        <time>2018-09-07T13:00:42Z</time>
      </trkpt>
      <trkpt lat="46.547053" lon="13.203894">
        <ele>1155.175</ele>
        <time>2018-09-07T13:00:43Z</time>
      </trkpt>
      <trkpt lat="46.547061" lon="13.203887">
        <ele>1155.128</ele>
        <time>2018-09-07T13:00:44Z</time>
      </trkpt>
      <trkpt lat="46.547068" lon="13.203878">
        <ele>1155.420</ele>
        <time>2018-09-07T13:00:45Z</time>
      </trkpt>
      <trkpt lat="46.547115" lon="13.203792">
        <ele>1156.108</ele>
        <time>2018-09-07T13:00:53Z</time>
      </trkpt>
      <trkpt lat="46.547121" lon="13.203779">
        <ele>1156.461</ele>
        <time>2018-09-07T13:00:54Z</time>
      </trkpt>
      <trkpt lat="46.547186" lon="13.203713">
        <ele>1157.533</ele>
        <time>2018-09-07T13:01:02Z</time>
      </trkpt>
      <trkpt lat="46.547213" lon="13.203698">
        <ele>1158.039</ele>
        <time>2018-09-07T13:01:05Z</time>
      </trkpt>
      <trkpt lat="46.547238" lon="13.203674">
        <ele>1158.426</ele>
        <time>2018-09-07T13:01:08Z</time>
      </trkpt>
      <trkpt lat="46.547259" lon="13.203645">
        <ele>1158.837</ele>
        <time>2018-09-07T13:01:11Z</time>
      </trkpt>
      <trkpt lat="46.547274" lon="13.203606">
        <ele>1159.155</ele>
        <time>2018-09-07T13:01:14Z</time>
      </trkpt>
      <trkpt lat="46.547318" lon="13.203560">
        <ele>1160.022</ele>
        <time>2018-09-07T13:01:19Z</time>
      </trkpt>
      <trkpt lat="46.547360" lon="13.203547">
        <ele>1160.495</ele>
        <time>2018-09-07T13:01:23Z</time>
      </trkpt>
      <trkpt lat="46.547369" lon="13.203542">
        <ele>1160.579</ele>
        <time>2018-09-07T13:01:24Z</time>
      </trkpt>
      <trkpt lat="46.547386" lon="13.203525">
        <ele>1161.005</ele>
        <time>2018-09-07T13:01:26Z</time>
      </trkpt>
      <trkpt lat="46.547427" lon="13.203463">
        <ele>1161.525</ele>
        <time>2018-09-07T13:01:32Z</time>
      </trkpt>
      <trkpt lat="46.547451" lon="13.203438">
        <ele>1162.008</ele>
        <time>2018-09-07T13:01:35Z</time>
      </trkpt>
      <trkpt lat="46.547509" lon="13.203334">
        <ele>1162.861</ele>
        <time>2018-09-07T13:01:44Z</time>
      </trkpt>
      <trkpt lat="46.547522" lon="13.203310">
        <ele>1163.083</ele>
        <time>2018-09-07T13:01:46Z</time>
      </trkpt>
      <trkpt lat="46.547591" lon="13.203240">
        <ele>1164.159</ele>
        <time>2018-09-07T13:01:54Z</time>
      </trkpt>
      <trkpt lat="46.547676" lon="13.203158">
        <ele>1165.176</ele>
        <time>2018-09-07T13:02:04Z</time>
      </trkpt>
      <trkpt lat="46.547723" lon="13.203119">
        <ele>1165.837</ele>
        <time>2018-09-07T13:02:09Z</time>
      </trkpt>
      <trkpt lat="46.547744" lon="13.203108">
        <ele>1166.175</ele>
        <time>2018-09-07T13:02:11Z</time>
      </trkpt>
      <trkpt lat="46.547820" lon="13.203071">
        <ele>1167.052</ele>
        <time>2018-09-07T13:02:19Z</time>
      </trkpt>
      <trkpt lat="46.547829" lon="13.203065">
        <ele>1167.195</ele>
        <time>2018-09-07T13:02:20Z</time>
      </trkpt>
      <trkpt lat="46.547839" lon="13.203060">
        <ele>1167.124</ele>
        <time>2018-09-07T13:02:21Z</time>
      </trkpt>
      <trkpt lat="46.547848" lon="13.203055">
        <ele>1167.104</ele>
        <time>2018-09-07T13:02:22Z</time>
      </trkpt>
      <trkpt lat="46.547866" lon="13.203024">
        <ele>1167.414</ele>
        <time>2018-09-07T13:02:25Z</time>
      </trkpt>
      <trkpt lat="46.547879" lon="13.202996">
        <ele>1167.808</ele>
        <time>2018-09-07T13:02:27Z</time>
      </trkpt>
      <trkpt lat="46.547932" lon="13.202994">
        <ele>1168.196</ele>
        <time>2018-09-07T13:02:32Z</time>
      </trkpt>
      <trkpt lat="46.548037" lon="13.203006">
        <ele>1169.468</ele>
        <time>2018-09-07T13:02:42Z</time>
      </trkpt>
      <trkpt lat="46.548080" lon="13.203006">
        <ele>1169.584</ele>
        <time>2018-09-07T13:02:46Z</time>
      </trkpt>
      <trkpt lat="46.548128" lon="13.202998">
        <ele>1170.131</ele>
        <time>2018-09-07T13:02:50Z</time>
      </trkpt>
      <trkpt lat="46.548141" lon="13.202998">
        <ele>1170.482</ele>
        <time>2018-09-07T13:02:51Z</time>
      </trkpt>
      <trkpt lat="46.548262" lon="13.203019">
        <ele>1171.470</ele>
        <time>2018-09-07T13:03:01Z</time>
      </trkpt>
      <trkpt lat="46.548822" lon="13.202859">
        <ele>1171.597</ele>
        <time>2018-09-07T13:03:24Z</time>
      </trkpt>
      <trkpt lat="46.549300" lon="13.202495">
        <ele>1171.530</ele>
        <time>2018-09-07T13:03:44Z</time>
      </trkpt>
      <trkpt lat="46.549453" lon="13.202424">
        <ele>1172.135</ele>
        <time>2018-09-07T13:03:50Z</time>
      </trkpt>
      <trkpt lat="46.549734" lon="13.202331">
        <ele>1172.186</ele>
        <time>2018-09-07T13:03:58Z</time>
      </trkpt>
      <trkpt lat="46.549904" lon="13.202081">
        <ele>1172.014</ele>
        <time>2018-09-07T13:04:03Z</time>
      </trkpt>
      <trkpt lat="46.550080" lon="13.201574">
        <ele>1170.508</ele>
        <time>2018-09-07T13:04:14Z</time>
      </trkpt>
      <trkpt lat="46.550175" lon="13.201361">
        <ele>1171.027</ele>
        <time>2018-09-07T13:04:21Z</time>
      </trkpt>
      <trkpt lat="46.550416" lon="13.200871">
        <ele>1171.479</ele>
        <time>2018-09-07T13:04:33Z</time>
      </trkpt>
      <trkpt lat="46.550442" lon="13.200750">
        <ele>1171.135</ele>
        <time>2018-09-07T13:04:35Z</time>
      </trkpt>
      <trkpt lat="46.550492" lon="13.200301">
        <ele>1170.142</ele>
        <time>2018-09-07T13:04:41Z</time>
      </trkpt>
      <trkpt lat="46.550583" lon="13.200031">
        <ele>1169.043</ele>
        <time>2018-09-07T13:04:44Z</time>
      </trkpt>
      <trkpt lat="46.550631" lon="13.199865">
        <ele>1167.831</ele>
        <time>2018-09-07T13:04:46Z</time>
      </trkpt>
      <trkpt lat="46.550645" lon="13.199798">
        <ele>1167.048</ele>
        <time>2018-09-07T13:04:47Z</time>
      </trkpt>
      <trkpt lat="46.550652" lon="13.199741">
        <ele>1166.461</ele>
        <time>2018-09-07T13:04:48Z</time>
      </trkpt>
      <trkpt lat="46.550661" lon="13.199670">
        <ele>1165.416</ele>
        <time>2018-09-07T13:04:50Z</time>
      </trkpt>
      <trkpt lat="46.550706" lon="13.199402">
        <ele>1166.476</ele>
        <time>2018-09-07T13:05:04Z</time>
      </trkpt>
      <trkpt lat="46.550729" lon="13.199349">
        <ele>1166.813</ele>
        <time>2018-09-07T13:05:07Z</time>
      </trkpt>
      <trkpt lat="46.550750" lon="13.199289">
        <ele>1167.408</ele>
        <time>2018-09-07T13:05:10Z</time>
      </trkpt>
      <trkpt lat="46.550767" lon="13.199228">
        <ele>1167.875</ele>
        <time>2018-09-07T13:05:13Z</time>
      </trkpt>
      <trkpt lat="46.550772" lon="13.199184">
        <ele>1168.127</ele>
        <time>2018-09-07T13:05:15Z</time>
      </trkpt>
      <trkpt lat="46.550775" lon="13.199144">
        <ele>1168.463</ele>
        <time>2018-09-07T13:05:17Z</time>
      </trkpt>
      <trkpt lat="46.550782" lon="13.199077">
        <ele>1169.150</ele>
        <time>2018-09-07T13:05:21Z</time>
      </trkpt>
      <trkpt lat="46.550779" lon="13.199033">
        <ele>1169.561</ele>
        <time>2018-09-07T13:05:24Z</time>
      </trkpt>
      <trkpt lat="46.550796" lon="13.198954">
        <ele>1170.519</ele>
        <time>2018-09-07T13:05:30Z</time>
      </trkpt>
      <trkpt lat="46.550823" lon="13.198843">
        <ele>1171.846</ele>
        <time>2018-09-07T13:05:38Z</time>
      </trkpt>
      <trkpt lat="46.550801" lon="13.198711">
        <ele>1172.839</ele>
        <time>2018-09-07T13:05:46Z</time>
      </trkpt>
      <trkpt lat="46.550800" lon="13.198601">
        <ele>1173.816</ele>
        <time>2018-09-07T13:05:52Z</time>
      </trkpt>
      <trkpt lat="46.550728" lon="13.198491">
        <ele>1175.076</ele>
        <time>2018-09-07T13:06:00Z</time>
      </trkpt>
      <trkpt lat="46.550635" lon="13.198367">
        <ele>1176.013</ele>
        <time>2018-09-07T13:06:09Z</time>
      </trkpt>
      <trkpt lat="46.550606" lon="13.198296">
        <ele>1177.008</ele>
        <time>2018-09-07T13:06:14Z</time>
      </trkpt>
      <trkpt lat="46.550594" lon="13.198146">
        <ele>1177.885</ele>
        <time>2018-09-07T13:06:22Z</time>
      </trkpt>
      <trkpt lat="46.550608" lon="13.198109">
        <ele>1178.127</ele>
        <time>2018-09-07T13:06:25Z</time>
      </trkpt>
      <trkpt lat="46.550655" lon="13.198150">
        <ele>1179.063</ele>
        <time>2018-09-07T13:06:32Z</time>
      </trkpt>
      <trkpt lat="46.550663" lon="13.198160">
        <ele>1179.170</ele>
        <time>2018-09-07T13:06:33Z</time>
      </trkpt>
      <trkpt lat="46.550735" lon="13.198211">
        <ele>1180.151</ele>
        <time>2018-09-07T13:06:41Z</time>
      </trkpt>
      <trkpt lat="46.550798" lon="13.198290">
        <ele>1181.489</ele>
        <time>2018-09-07T13:06:48Z</time>
      </trkpt>
      <trkpt lat="46.550828" lon="13.198318">
        <ele>1182.546</ele>
        <time>2018-09-07T13:06:54Z</time>
      </trkpt>
      <trkpt lat="46.550838" lon="13.198310">
        <ele>1183.529</ele>
        <time>2018-09-07T13:07:02Z</time>
      </trkpt>
      <trkpt lat="46.550828" lon="13.198275">
        <ele>1184.839</ele>
        <time>2018-09-07T13:07:11Z</time>
      </trkpt>
      <trkpt lat="46.550822" lon="13.198234">
        <ele>1185.801</ele>
        <time>2018-09-07T13:07:18Z</time>
      </trkpt>
      <trkpt lat="46.550813" lon="13.198205">
        <ele>1187.021</ele>
        <time>2018-09-07T13:07:25Z</time>
      </trkpt>
      <trkpt lat="46.550807" lon="13.198169">
        <ele>1188.008</ele>
        <time>2018-09-07T13:07:30Z</time>
      </trkpt>
      <trkpt lat="46.550789" lon="13.197957">
        <ele>1189.157</ele>
        <time>2018-09-07T13:07:36Z</time>
      </trkpt>
      <trkpt lat="46.550788" lon="13.197906">
        <ele>1189.179</ele>
        <time>2018-09-07T13:07:38Z</time>
      </trkpt>
      <trkpt lat="46.550792" lon="13.197776">
        <ele>1190.145</ele>
        <time>2018-09-07T13:07:44Z</time>
      </trkpt>
      <trkpt lat="46.550797" lon="13.197759">
        <ele>1190.492</ele>
        <time>2018-09-07T13:07:45Z</time>
      </trkpt>
      <trkpt lat="46.550813" lon="13.197655">
        <ele>1191.413</ele>
        <time>2018-09-07T13:07:50Z</time>
      </trkpt>
      <trkpt lat="46.550827" lon="13.197537">
        <ele>1192.551</ele>
        <time>2018-09-07T13:07:56Z</time>
      </trkpt>
      <trkpt lat="46.550814" lon="13.197514">
        <ele>1192.858</ele>
        <time>2018-09-07T13:07:58Z</time>
      </trkpt>
      <trkpt lat="46.550794" lon="13.197419">
        <ele>1193.871</ele>
        <time>2018-09-07T13:08:03Z</time>
      </trkpt>
      <trkpt lat="46.550760" lon="13.197333">
        <ele>1194.522</ele>
        <time>2018-09-07T13:08:08Z</time>
      </trkpt>
      <trkpt lat="46.550757" lon="13.197317">
        <ele>1194.862</ele>
        <time>2018-09-07T13:08:09Z</time>
      </trkpt>
      <trkpt lat="46.550731" lon="13.197261">
        <ele>1195.808</ele>
        <time>2018-09-07T13:08:13Z</time>
      </trkpt>
      <trkpt lat="46.550727" lon="13.197248">
        <ele>1196.008</ele>
        <time>2018-09-07T13:08:14Z</time>
      </trkpt>
      <trkpt lat="46.550712" lon="13.197214">
        <ele>1196.486</ele>
        <time>2018-09-07T13:08:17Z</time>
      </trkpt>
      <trkpt lat="46.550696" lon="13.197164">
        <ele>1197.148</ele>
        <time>2018-09-07T13:08:20Z</time>
      </trkpt>
      <trkpt lat="46.550692" lon="13.197063">
        <ele>1198.134</ele>
        <time>2018-09-07T13:08:26Z</time>
      </trkpt>
      <trkpt lat="46.550669" lon="13.197002">
        <ele>1199.181</ele>
        <time>2018-09-07T13:08:32Z</time>
      </trkpt>
      <trkpt lat="46.550708" lon="13.196929">
        <ele>1200.132</ele>
        <time>2018-09-07T13:08:39Z</time>
      </trkpt>
      <trkpt lat="46.550736" lon="13.196870">
        <ele>1201.190</ele>
        <time>2018-09-07T13:08:45Z</time>
      </trkpt>
      <trkpt lat="46.550722" lon="13.196737">
        <ele>1202.467</ele>
        <time>2018-09-07T13:08:53Z</time>
      </trkpt>
      <trkpt lat="46.550755" lon="13.196675">
        <ele>1203.530</ele>
        <time>2018-09-07T13:08:59Z</time>
      </trkpt>
      <trkpt lat="46.550815" lon="13.196618">
        <ele>1204.576</ele>
        <time>2018-09-07T13:09:05Z</time>
      </trkpt>
      <trkpt lat="46.550840" lon="13.196603">
        <ele>1205.190</ele>
        <time>2018-09-07T13:09:08Z</time>
      </trkpt>
      <trkpt lat="46.550864" lon="13.196619">
        <ele>1205.519</ele>
        <time>2018-09-07T13:09:10Z</time>
      </trkpt>
      <trkpt lat="46.550888" lon="13.196646">
        <ele>1206.108</ele>
        <time>2018-09-07T13:09:14Z</time>
      </trkpt>
      <trkpt lat="46.550893" lon="13.196665">
        <ele>1206.531</ele>
        <time>2018-09-07T13:09:16Z</time>
      </trkpt>
      <trkpt lat="46.550916" lon="13.196715">
        <ele>1207.863</ele>
        <time>2018-09-07T13:09:22Z</time>
      </trkpt>
      <trkpt lat="46.550951" lon="13.196777">
        <ele>1208.819</ele>
        <time>2018-09-07T13:09:28Z</time>
      </trkpt>
      <trkpt lat="46.550995" lon="13.196845">
        <ele>1210.086</ele>
        <time>2018-09-07T13:09:34Z</time>
      </trkpt>
      <trkpt lat="46.551049" lon="13.196909">
        <ele>1211.087</ele>
        <time>2018-09-07T13:09:41Z</time>
      </trkpt>
      <trkpt lat="46.551094" lon="13.196952">
        <ele>1212.145</ele>
        <time>2018-09-07T13:09:48Z</time>
      </trkpt>
      <trkpt lat="46.551122" lon="13.196998">
        <ele>1213.422</ele>
        <time>2018-09-07T13:09:54Z</time>
      </trkpt>
      <trkpt lat="46.551153" lon="13.197074">
        <ele>1214.435</ele>
        <time>2018-09-07T13:10:01Z</time>
      </trkpt>
      <trkpt lat="46.551184" lon="13.197134">
        <ele>1215.823</ele>
        <time>2018-09-07T13:10:06Z</time>
      </trkpt>
      <trkpt lat="46.551217" lon="13.197202">
        <ele>1216.883</ele>
        <time>2018-09-07T13:10:12Z</time>
      </trkpt>
      <trkpt lat="46.551253" lon="13.197270">
        <ele>1217.811</ele>
        <time>2018-09-07T13:10:19Z</time>
      </trkpt>
      <trkpt lat="46.551265" lon="13.197352">
        <ele>1219.008</ele>
        <time>2018-09-07T13:10:25Z</time>
      </trkpt>
      <trkpt lat="46.551280" lon="13.197398">
        <ele>1219.446</ele>
        <time>2018-09-07T13:10:28Z</time>
      </trkpt>
      <trkpt lat="46.551298" lon="13.197428">
        <ele>1220.018</ele>
        <time>2018-09-07T13:10:31Z</time>
      </trkpt>
      <trkpt lat="46.551329" lon="13.197436">
        <ele>1220.464</ele>
        <time>2018-09-07T13:10:33Z</time>
      </trkpt>
      <trkpt lat="46.551375" lon="13.197427">
        <ele>1220.881</ele>
        <time>2018-09-07T13:10:37Z</time>
      </trkpt>
      <trkpt lat="46.551378" lon="13.197411">
        <ele>1221.062</ele>
        <time>2018-09-07T13:10:38Z</time>
      </trkpt>
      <trkpt lat="46.551386" lon="13.197352">
        <ele>1221.590</ele>
        <time>2018-09-07T13:10:43Z</time>
      </trkpt>
      <trkpt lat="46.551384" lon="13.197339">
        <ele>1221.567</ele>
        <time>2018-09-07T13:10:44Z</time>
      </trkpt>
      <trkpt lat="46.551365" lon="13.197305">
        <ele>1222.020</ele>
        <time>2018-09-07T13:10:47Z</time>
      </trkpt>
      <trkpt lat="46.551358" lon="13.197292">
        <ele>1222.017</ele>
        <time>2018-09-07T13:10:48Z</time>
      </trkpt>
      <trkpt lat="46.551340" lon="13.197203">
        <ele>1223.187</ele>
        <time>2018-09-07T13:10:56Z</time>
      </trkpt>
      <trkpt lat="46.551322" lon="13.197132">
        <ele>1224.115</ele>
        <time>2018-09-07T13:11:02Z</time>
      </trkpt>
      <trkpt lat="46.551291" lon="13.197047">
        <ele>1225.108</ele>
        <time>2018-09-07T13:11:09Z</time>
      </trkpt>
      <trkpt lat="46.551294" lon="13.196961">
        <ele>1226.465</ele>
        <time>2018-09-07T13:11:14Z</time>
      </trkpt>
      <trkpt lat="46.551287" lon="13.196868">
        <ele>1227.417</ele>
        <time>2018-09-07T13:11:19Z</time>
      </trkpt>
      <trkpt lat="46.551303" lon="13.196765">
        <ele>1228.533</ele>
        <time>2018-09-07T13:11:25Z</time>
      </trkpt>
      <trkpt lat="46.551284" lon="13.196727">
        <ele>1229.120</ele>
        <time>2018-09-07T13:11:28Z</time>
      </trkpt>
      <trkpt lat="46.551276" lon="13.196691">
        <ele>1229.851</ele>
        <time>2018-09-07T13:11:31Z</time>
      </trkpt>
      <trkpt lat="46.551314" lon="13.196629">
        <ele>1230.459</ele>
        <time>2018-09-07T13:11:36Z</time>
      </trkpt>
      <trkpt lat="46.551341" lon="13.196660">
        <ele>1230.836</ele>
        <time>2018-09-07T13:11:39Z</time>
      </trkpt>
      <trkpt lat="46.551367" lon="13.196756">
        <ele>1231.849</ele>
        <time>2018-09-07T13:11:45Z</time>
      </trkpt>
      <trkpt lat="46.551367" lon="13.196773">
        <ele>1232.055</ele>
        <time>2018-09-07T13:11:46Z</time>
      </trkpt>
      <trkpt lat="46.551423" lon="13.196904">
        <ele>1233.007</ele>
        <time>2018-09-07T13:11:56Z</time>
      </trkpt>
      <trkpt lat="46.551425" lon="13.196959">
        <ele>1233.517</ele>
        <time>2018-09-07T13:12:00Z</time>
      </trkpt>
      <trkpt lat="46.551427" lon="13.197000">
        <ele>1234.108</ele>
        <time>2018-09-07T13:12:04Z</time>
      </trkpt>
      <trkpt lat="46.551480" lon="13.197099">
        <ele>1235.469</ele>
        <time>2018-09-07T13:12:11Z</time>
      </trkpt>
      <trkpt lat="46.551490" lon="13.197180">
        <ele>1236.471</ele>
        <time>2018-09-07T13:12:17Z</time>
      </trkpt>
      <trkpt lat="46.551506" lon="13.197254">
        <ele>1237.537</ele>
        <time>2018-09-07T13:12:23Z</time>
      </trkpt>
      <trkpt lat="46.551545" lon="13.197341">
        <ele>1238.864</ele>
        <time>2018-09-07T13:12:29Z</time>
      </trkpt>
      <trkpt lat="46.551573" lon="13.197389">
        <ele>1239.435</ele>
        <time>2018-09-07T13:12:34Z</time>
      </trkpt>
      <trkpt lat="46.551615" lon="13.197369">
        <ele>1239.823</ele>
        <time>2018-09-07T13:12:37Z</time>
      </trkpt>
      <trkpt lat="46.551631" lon="13.197340">
        <ele>1240.180</ele>
        <time>2018-09-07T13:12:39Z</time>
      </trkpt>
      <trkpt lat="46.551630" lon="13.197243">
        <ele>1240.853</ele>
        <time>2018-09-07T13:12:45Z</time>
      </trkpt>
      <trkpt lat="46.551594" lon="13.197108">
        <ele>1242.091</ele>
        <time>2018-09-07T13:12:54Z</time>
      </trkpt>
      <trkpt lat="46.551590" lon="13.196999">
        <ele>1243.081</ele>
        <time>2018-09-07T13:13:01Z</time>
      </trkpt>
      <trkpt lat="46.551581" lon="13.196898">
        <ele>1244.019</ele>
        <time>2018-09-07T13:13:08Z</time>
      </trkpt>
      <trkpt lat="46.551594" lon="13.196817">
        <ele>1245.008</ele>
        <time>2018-09-07T13:13:13Z</time>
      </trkpt>
      <trkpt lat="46.551601" lon="13.196758">
        <ele>1246.113</ele>
        <time>2018-09-07T13:13:18Z</time>
      </trkpt>
      <trkpt lat="46.551620" lon="13.196658">
        <ele>1247.415</ele>
        <time>2018-09-07T13:13:25Z</time>
      </trkpt>
      <trkpt lat="46.551622" lon="13.196640">
        <ele>1247.551</ele>
        <time>2018-09-07T13:13:27Z</time>
      </trkpt>
      <trkpt lat="46.551624" lon="13.196573">
        <ele>1248.568</ele>
        <time>2018-09-07T13:13:32Z</time>
      </trkpt>
      <trkpt lat="46.551631" lon="13.196480">
        <ele>1249.579</ele>
        <time>2018-09-07T13:13:38Z</time>
      </trkpt>
      <trkpt lat="46.551632" lon="13.196463">
        <ele>1249.817</ele>
        <time>2018-09-07T13:13:39Z</time>
      </trkpt>
      <trkpt lat="46.551638" lon="13.196396">
        <ele>1250.554</ele>
        <time>2018-09-07T13:13:44Z</time>
      </trkpt>
      <trkpt lat="46.551650" lon="13.196376">
        <ele>1250.827</ele>
        <time>2018-09-07T13:13:46Z</time>
      </trkpt>
      <trkpt lat="46.551653" lon="13.196353">
        <ele>1251.191</ele>
        <time>2018-09-07T13:13:48Z</time>
      </trkpt>
      <trkpt lat="46.551645" lon="13.196276">
        <ele>1252.081</ele>
        <time>2018-09-07T13:13:53Z</time>
      </trkpt>
      <trkpt lat="46.551650" lon="13.196250">
        <ele>1252.119</ele>
        <time>2018-09-07T13:13:55Z</time>
      </trkpt>
      <trkpt lat="46.551655" lon="13.196240">
        <ele>1252.408</ele>
        <time>2018-09-07T13:13:56Z</time>
      </trkpt>
      <trkpt lat="46.551660" lon="13.196227">
        <ele>1252.513</ele>
        <time>2018-09-07T13:13:57Z</time>
      </trkpt>
      <trkpt lat="46.551666" lon="13.196216">
        <ele>1252.575</ele>
        <time>2018-09-07T13:13:58Z</time>
      </trkpt>
      <trkpt lat="46.551675" lon="13.196194">
        <ele>1253.061</ele>
        <time>2018-09-07T13:14:00Z</time>
      </trkpt>
      <trkpt lat="46.551675" lon="13.196153">
        <ele>1253.598</ele>
        <time>2018-09-07T13:14:03Z</time>
      </trkpt>
      <trkpt lat="46.551672" lon="13.196123">
        <ele>1254.189</ele>
        <time>2018-09-07T13:14:05Z</time>
      </trkpt>
      <trkpt lat="46.551673" lon="13.196094">
        <ele>1254.147</ele>
        <time>2018-09-07T13:14:07Z</time>
      </trkpt>
      <trkpt lat="46.551677" lon="13.196067">
        <ele>1254.494</ele>
        <time>2018-09-07T13:14:09Z</time>
      </trkpt>
      <trkpt lat="46.551694" lon="13.196003">
        <ele>1255.157</ele>
        <time>2018-09-07T13:14:14Z</time>
      </trkpt>
      <trkpt lat="46.551714" lon="13.195945">
        <ele>1256.056</ele>
        <time>2018-09-07T13:14:18Z</time>
      </trkpt>
      <trkpt lat="46.551721" lon="13.195909">
        <ele>1256.159</ele>
        <time>2018-09-07T13:14:20Z</time>
      </trkpt>
      <trkpt lat="46.551729" lon="13.195842">
        <ele>1257.114</ele>
        <time>2018-09-07T13:14:24Z</time>
      </trkpt>
      <trkpt lat="46.551734" lon="13.195828">
        <ele>1257.508</ele>
        <time>2018-09-07T13:14:25Z</time>
      </trkpt>
      <trkpt lat="46.551746" lon="13.195779">
        <ele>1258.039</ele>
        <time>2018-09-07T13:14:28Z</time>
      </trkpt>
      <trkpt lat="46.551750" lon="13.195710">
        <ele>1258.591</ele>
        <time>2018-09-07T13:14:32Z</time>
      </trkpt>
      <trkpt lat="46.551750" lon="13.195693">
        <ele>1258.567</ele>
        <time>2018-09-07T13:14:33Z</time>
      </trkpt>
      <trkpt lat="46.551746" lon="13.195647">
        <ele>1259.164</ele>
        <time>2018-09-07T13:14:36Z</time>
      </trkpt>
      <trkpt lat="46.551747" lon="13.195633">
        <ele>1259.465</ele>
        <time>2018-09-07T13:14:37Z</time>
      </trkpt>
      <trkpt lat="46.551746" lon="13.195618">
        <ele>1259.423</ele>
        <time>2018-09-07T13:14:38Z</time>
      </trkpt>
      <trkpt lat="46.551747" lon="13.195583">
        <ele>1259.890</ele>
        <time>2018-09-07T13:14:40Z</time>
      </trkpt>
      <trkpt lat="46.551743" lon="13.195507">
        <ele>1260.513</ele>
        <time>2018-09-07T13:14:45Z</time>
      </trkpt>
      <trkpt lat="46.551738" lon="13.195494">
        <ele>1260.865</ele>
        <time>2018-09-07T13:14:46Z</time>
      </trkpt>
      <trkpt lat="46.551711" lon="13.195387">
        <ele>1262.068</ele>
        <time>2018-09-07T13:14:53Z</time>
      </trkpt>
      <trkpt lat="46.551711" lon="13.195310">
        <ele>1263.014</ele>
        <time>2018-09-07T13:14:58Z</time>
      </trkpt>
      <trkpt lat="46.551697" lon="13.195184">
        <ele>1264.008</ele>
        <time>2018-09-07T13:15:06Z</time>
      </trkpt>
      <trkpt lat="46.551703" lon="13.195100">
        <ele>1265.190</ele>
        <time>2018-09-07T13:15:12Z</time>
      </trkpt>
      <trkpt lat="46.551696" lon="13.195007">
        <ele>1266.132</ele>
        <time>2018-09-07T13:15:18Z</time>
      </trkpt>
      <trkpt lat="46.551705" lon="13.194950">
        <ele>1267.098</ele>
        <time>2018-09-07T13:15:22Z</time>
      </trkpt>
      <trkpt lat="46.551702" lon="13.194921">
        <ele>1267.475</ele>
        <time>2018-09-07T13:15:24Z</time>
      </trkpt>
      <trkpt lat="46.551696" lon="13.194877">
        <ele>1267.846</ele>
        <time>2018-09-07T13:15:27Z</time>
      </trkpt>
      <trkpt lat="46.551700" lon="13.194825">
        <ele>1268.554</ele>
        <time>2018-09-07T13:15:31Z</time>
      </trkpt>
      <trkpt lat="46.551719" lon="13.194722">
        <ele>1269.821</ele>
        <time>2018-09-07T13:15:38Z</time>
      </trkpt>
      <trkpt lat="46.551722" lon="13.194640">
        <ele>1270.834</ele>
        <time>2018-09-07T13:15:44Z</time>
      </trkpt>
      <trkpt lat="46.551716" lon="13.194583">
        <ele>1271.141</ele>
        <time>2018-09-07T13:15:48Z</time>
      </trkpt>
      <trkpt lat="46.551715" lon="13.194538">
        <ele>1272.081</ele>
        <time>2018-09-07T13:15:51Z</time>
      </trkpt>
      <trkpt lat="46.551720" lon="13.194442">
        <ele>1272.809</ele>
        <time>2018-09-07T13:15:57Z</time>
      </trkpt>
      <trkpt lat="46.551725" lon="13.194427">
        <ele>1273.008</ele>
        <time>2018-09-07T13:15:58Z</time>
      </trkpt>
      <trkpt lat="46.551763" lon="13.194328">
        <ele>1274.058</ele>
        <time>2018-09-07T13:16:05Z</time>
      </trkpt>
      <trkpt lat="46.551773" lon="13.194300">
        <ele>1274.510</ele>
        <time>2018-09-07T13:16:07Z</time>
      </trkpt>
      <trkpt lat="46.551791" lon="13.194210">
        <ele>1275.186</ele>
        <time>2018-09-07T13:16:13Z</time>
      </trkpt>
      <trkpt lat="46.551784" lon="13.194091">
        <ele>1276.173</ele>
        <time>2018-09-07T13:16:21Z</time>
      </trkpt>
      <trkpt lat="46.551777" lon="13.194001">
        <ele>1277.124</ele>
        <time>2018-09-07T13:16:27Z</time>
      </trkpt>
      <trkpt lat="46.551784" lon="13.193882">
        <ele>1278.442</ele>
        <time>2018-09-07T13:16:35Z</time>
      </trkpt>
      <trkpt lat="46.551786" lon="13.193868">
        <ele>1278.549</ele>
        <time>2018-09-07T13:16:36Z</time>
      </trkpt>
      <trkpt lat="46.551800" lon="13.193771">
        <ele>1279.562</ele>
        <time>2018-09-07T13:16:42Z</time>
      </trkpt>
      <trkpt lat="46.551814" lon="13.193641">
        <ele>1280.872</ele>
        <time>2018-09-07T13:16:50Z</time>
      </trkpt>
      <trkpt lat="46.551823" lon="13.193579">
        <ele>1281.413</ele>
        <time>2018-09-07T13:16:55Z</time>
      </trkpt>
      <trkpt lat="46.551819" lon="13.193543">
        <ele>1282.014</ele>
        <time>2018-09-07T13:16:57Z</time>
      </trkpt>
      <trkpt lat="46.551818" lon="13.193422">
        <ele>1283.008</ele>
        <time>2018-09-07T13:17:05Z</time>
      </trkpt>
      <trkpt lat="46.551811" lon="13.193375">
        <ele>1284.031</ele>
        <time>2018-09-07T13:17:22Z</time>
      </trkpt>
      <trkpt lat="46.551809" lon="13.193392">
        <ele>1284.133</ele>
        <time>2018-09-07T13:17:46Z</time>
      </trkpt>
      <trkpt lat="46.551836" lon="13.193416">
        <ele>1283.839</ele>
        <time>2018-09-07T13:19:00Z</time>
      </trkpt>
      <trkpt lat="46.551840" lon="13.193407">
        <ele>1284.076</ele>
        <time>2018-09-07T13:19:08Z</time>
      </trkpt>
      <trkpt lat="46.551842" lon="13.193410">
        <ele>1284.057</ele>
        <time>2018-09-07T13:19:16Z</time>
      </trkpt>
      <trkpt lat="46.551833" lon="13.193395">
        <ele>1284.495</ele>
        <time>2018-09-07T13:20:03Z</time>
      </trkpt>
      <trkpt lat="46.551832" lon="13.193404">
        <ele>1284.482</ele>
        <time>2018-09-07T13:20:24Z</time>
      </trkpt>
      <trkpt lat="46.551817" lon="13.193322">
        <ele>1284.425</ele>
        <time>2018-09-07T13:20:46Z</time>
      </trkpt>
      <trkpt lat="46.551774" lon="13.193169">
        <ele>1284.471</ele>
        <time>2018-09-07T13:20:53Z</time>
      </trkpt>
      <trkpt lat="46.551648" lon="13.192553">
        <ele>1289.841</ele>
        <time>2018-09-07T13:21:23Z</time>
      </trkpt>
      <trkpt lat="46.551644" lon="13.192459">
        <ele>1291.015</ele>
        <time>2018-09-07T13:21:28Z</time>
      </trkpt>
      <trkpt lat="46.551645" lon="13.192335">
        <ele>1292.108</ele>
        <time>2018-09-07T13:21:35Z</time>
      </trkpt>
      <trkpt lat="46.551657" lon="13.192265">
        <ele>1293.181</ele>
        <time>2018-09-07T13:21:39Z</time>
      </trkpt>
      <trkpt lat="46.551662" lon="13.192231">
        <ele>1292.163</ele>
        <time>2018-09-07T13:21:41Z</time>
      </trkpt>
      <trkpt lat="46.551702" lon="13.192103">
        <ele>1293.439</ele>
        <time>2018-09-07T13:21:49Z</time>
      </trkpt>
      <trkpt lat="46.551700" lon="13.192090">
        <ele>1293.596</ele>
        <time>2018-09-07T13:21:50Z</time>
      </trkpt>
      <trkpt lat="46.551694" lon="13.192063">
        <ele>1294.027</ele>
        <time>2018-09-07T13:21:52Z</time>
      </trkpt>
      <trkpt lat="46.551695" lon="13.192032">
        <ele>1294.445</ele>
        <time>2018-09-07T13:21:54Z</time>
      </trkpt>
      <trkpt lat="46.551720" lon="13.191955">
        <ele>1295.422</ele>
        <time>2018-09-07T13:22:00Z</time>
      </trkpt>
      <trkpt lat="46.551740" lon="13.191885">
        <ele>1296.525</ele>
        <time>2018-09-07T13:22:05Z</time>
      </trkpt>
      <trkpt lat="46.551760" lon="13.191809">
        <ele>1297.451</ele>
        <time>2018-09-07T13:22:11Z</time>
      </trkpt>
      <trkpt lat="46.551761" lon="13.191796">
        <ele>1297.801</ele>
        <time>2018-09-07T13:22:12Z</time>
      </trkpt>
      <trkpt lat="46.551758" lon="13.191770">
        <ele>1298.011</ele>
        <time>2018-09-07T13:22:14Z</time>
      </trkpt>
      <trkpt lat="46.551780" lon="13.191692">
        <ele>1298.808</ele>
        <time>2018-09-07T13:22:20Z</time>
      </trkpt>
      <trkpt lat="46.551801" lon="13.191636">
        <ele>1300.019</ele>
        <time>2018-09-07T13:22:25Z</time>
      </trkpt>
      <trkpt lat="46.551803" lon="13.191611">
        <ele>1300.171</ele>
        <time>2018-09-07T13:22:27Z</time>
      </trkpt>
      <trkpt lat="46.551802" lon="13.191560">
        <ele>1301.057</ele>
        <time>2018-09-07T13:22:31Z</time>
      </trkpt>
      <trkpt lat="46.551804" lon="13.191546">
        <ele>1301.154</ele>
        <time>2018-09-07T13:22:32Z</time>
      </trkpt>
      <trkpt lat="46.551815" lon="13.191525">
        <ele>1301.515</ele>
        <time>2018-09-07T13:22:34Z</time>
      </trkpt>
      <trkpt lat="46.551833" lon="13.191500">
        <ele>1302.093</ele>
        <time>2018-09-07T13:22:37Z</time>
      </trkpt>
      <trkpt lat="46.551841" lon="13.191444">
        <ele>1303.030</ele>
        <time>2018-09-07T13:22:42Z</time>
      </trkpt>
      <trkpt lat="46.551840" lon="13.191427">
        <ele>1303.123</ele>
        <time>2018-09-07T13:22:43Z</time>
      </trkpt>
      <trkpt lat="46.551844" lon="13.191413">
        <ele>1303.498</ele>
        <time>2018-09-07T13:22:44Z</time>
      </trkpt>
      <trkpt lat="46.551879" lon="13.191357">
        <ele>1304.415</ele>
        <time>2018-09-07T13:22:50Z</time>
      </trkpt>
      <trkpt lat="46.551905" lon="13.191306">
        <ele>1305.426</ele>
        <time>2018-09-07T13:22:55Z</time>
      </trkpt>
      <trkpt lat="46.551915" lon="13.191277">
        <ele>1306.008</ele>
        <time>2018-09-07T13:22:59Z</time>
      </trkpt>
      <trkpt lat="46.551912" lon="13.191267">
        <ele>1306.493</ele>
        <time>2018-09-07T13:23:00Z</time>
      </trkpt>
      <trkpt lat="46.551912" lon="13.191241">
        <ele>1306.835</ele>
        <time>2018-09-07T13:23:02Z</time>
      </trkpt>
      <trkpt lat="46.551948" lon="13.191198">
        <ele>1307.581</ele>
        <time>2018-09-07T13:23:08Z</time>
      </trkpt>
      <trkpt lat="46.551942" lon="13.191173">
        <ele>1308.098</ele>
        <time>2018-09-07T13:23:10Z</time>
      </trkpt>
      <trkpt lat="46.551949" lon="13.191131">
        <ele>1308.899</ele>
        <time>2018-09-07T13:23:13Z</time>
      </trkpt>
      <trkpt lat="46.551967" lon="13.191094">
        <ele>1309.537</ele>
        <time>2018-09-07T13:23:17Z</time>
      </trkpt>
      <trkpt lat="46.551971" lon="13.191068">
        <ele>1310.034</ele>
        <time>2018-09-07T13:23:19Z</time>
      </trkpt>
      <trkpt lat="46.551983" lon="13.191048">
        <ele>1310.497</ele>
        <time>2018-09-07T13:23:21Z</time>
      </trkpt>
      <trkpt lat="46.552001" lon="13.191047">
        <ele>1311.075</ele>
        <time>2018-09-07T13:23:25Z</time>
      </trkpt>
      <trkpt lat="46.552021" lon="13.190997">
        <ele>1312.128</ele>
        <time>2018-09-07T13:23:34Z</time>
      </trkpt>
      <trkpt lat="46.552061" lon="13.190920">
        <ele>1313.120</ele>
        <time>2018-09-07T13:23:42Z</time>
      </trkpt>
      <trkpt lat="46.552112" lon="13.190908">
        <ele>1314.408</ele>
        <time>2018-09-07T13:23:49Z</time>
      </trkpt>
      <trkpt lat="46.552141" lon="13.190982">
        <ele>1315.111</ele>
        <time>2018-09-07T13:23:56Z</time>
      </trkpt>
      <trkpt lat="46.552147" lon="13.191005">
        <ele>1315.413</ele>
        <time>2018-09-07T13:23:58Z</time>
      </trkpt>
      <trkpt lat="46.552139" lon="13.191029">
        <ele>1316.449</ele>
        <time>2018-09-07T13:24:09Z</time>
      </trkpt>
      <trkpt lat="46.552107" lon="13.191205">
        <ele>1317.586</ele>
        <time>2018-09-07T13:24:19Z</time>
      </trkpt>
      <trkpt lat="46.552048" lon="13.191481">
        <ele>1318.577</ele>
        <time>2018-09-07T13:24:31Z</time>
      </trkpt>
      <trkpt lat="46.552055" lon="13.191586">
        <ele>1319.115</ele>
        <time>2018-09-07T13:24:36Z</time>
      </trkpt>
      <trkpt lat="46.552064" lon="13.191676">
        <ele>1319.582</ele>
        <time>2018-09-07T13:24:40Z</time>
      </trkpt>
      <trkpt lat="46.552074" lon="13.191804">
        <ele>1320.545</ele>
        <time>2018-09-07T13:24:46Z</time>
      </trkpt>
      <trkpt lat="46.552087" lon="13.191841">
        <ele>1321.095</ele>
        <time>2018-09-07T13:24:48Z</time>
      </trkpt>
      <trkpt lat="46.552088" lon="13.191941">
        <ele>1321.849</ele>
        <time>2018-09-07T13:24:53Z</time>
      </trkpt>
      <trkpt lat="46.552097" lon="13.192082">
        <ele>1322.823</ele>
        <time>2018-09-07T13:25:00Z</time>
      </trkpt>
      <trkpt lat="46.552087" lon="13.192201">
        <ele>1324.008</ele>
        <time>2018-09-07T13:25:06Z</time>
      </trkpt>
      <trkpt lat="46.552099" lon="13.192280">
        <ele>1324.553</ele>
        <time>2018-09-07T13:25:10Z</time>
      </trkpt>
      <trkpt lat="46.552118" lon="13.192336">
        <ele>1325.045</ele>
        <time>2018-09-07T13:25:13Z</time>
      </trkpt>
      <trkpt lat="46.552163" lon="13.192374">
        <ele>1325.811</ele>
        <time>2018-09-07T13:25:18Z</time>
      </trkpt>
      <trkpt lat="46.552189" lon="13.192373">
        <ele>1326.188</ele>
        <time>2018-09-07T13:25:21Z</time>
      </trkpt>
      <trkpt lat="46.552208" lon="13.192339">
        <ele>1327.069</ele>
        <time>2018-09-07T13:25:24Z</time>
      </trkpt>
      <trkpt lat="46.552217" lon="13.192302">
        <ele>1327.487</ele>
        <time>2018-09-07T13:25:26Z</time>
      </trkpt>
      <trkpt lat="46.552243" lon="13.192209">
        <ele>1328.514</ele>
        <time>2018-09-07T13:25:32Z</time>
      </trkpt>
      <trkpt lat="46.552267" lon="13.192153">
        <ele>1329.417</ele>
        <time>2018-09-07T13:25:37Z</time>
      </trkpt>
      <trkpt lat="46.552277" lon="13.192110">
        <ele>1329.898</ele>
        <time>2018-09-07T13:25:40Z</time>
      </trkpt>
      <trkpt lat="46.552290" lon="13.191982">
        <ele>1331.015</ele>
        <time>2018-09-07T13:25:48Z</time>
      </trkpt>
      <trkpt lat="46.552296" lon="13.191916">
        <ele>1331.526</ele>
        <time>2018-09-07T13:25:52Z</time>
      </trkpt>
      <trkpt lat="46.552304" lon="13.191890">
        <ele>1332.008</ele>
        <time>2018-09-07T13:25:54Z</time>
      </trkpt>
      <trkpt lat="46.552315" lon="13.191836">
        <ele>1332.523</ele>
        <time>2018-09-07T13:25:58Z</time>
      </trkpt>
      <trkpt lat="46.552321" lon="13.191767">
        <ele>1333.125</ele>
        <time>2018-09-07T13:26:03Z</time>
      </trkpt>
      <trkpt lat="46.552325" lon="13.191685">
        <ele>1334.471</ele>
        <time>2018-09-07T13:26:09Z</time>
      </trkpt>
      <trkpt lat="46.552323" lon="13.191664">
        <ele>1334.848</ele>
        <time>2018-09-07T13:26:11Z</time>
      </trkpt>
      <trkpt lat="46.552328" lon="13.191598">
        <ele>1335.519</ele>
        <time>2018-09-07T13:26:16Z</time>
      </trkpt>
      <trkpt lat="46.552361" lon="13.191529">
        <ele>1337.077</ele>
        <time>2018-09-07T13:26:22Z</time>
      </trkpt>
      <trkpt lat="46.552383" lon="13.191459">
        <ele>1338.074</ele>
        <time>2018-09-07T13:26:28Z</time>
      </trkpt>
      <trkpt lat="46.552380" lon="13.191417">
        <ele>1338.587</ele>
        <time>2018-09-07T13:26:31Z</time>
      </trkpt>
      <trkpt lat="46.552365" lon="13.191323">
        <ele>1339.165</ele>
        <time>2018-09-07T13:26:37Z</time>
      </trkpt>
      <trkpt lat="46.552387" lon="13.191261">
        <ele>1340.168</ele>
        <time>2018-09-07T13:26:41Z</time>
      </trkpt>
      <trkpt lat="46.552421" lon="13.191207">
        <ele>1340.514</ele>
        <time>2018-09-07T13:26:46Z</time>
      </trkpt>
      <trkpt lat="46.552456" lon="13.191192">
        <ele>1341.408</ele>
        <time>2018-09-07T13:26:49Z</time>
      </trkpt>
      <trkpt lat="46.552514" lon="13.191181">
        <ele>1342.540</ele>
        <time>2018-09-07T13:26:54Z</time>
      </trkpt>
      <trkpt lat="46.552525" lon="13.191160">
        <ele>1342.862</ele>
        <time>2018-09-07T13:26:56Z</time>
      </trkpt>
      <trkpt lat="46.552545" lon="13.191112">
        <ele>1343.428</ele>
        <time>2018-09-07T13:27:00Z</time>
      </trkpt>
      <trkpt lat="46.552551" lon="13.191097">
        <ele>1343.575</ele>
        <time>2018-09-07T13:27:01Z</time>
      </trkpt>
      <trkpt lat="46.552570" lon="13.191088">
        <ele>1344.026</ele>
        <time>2018-09-07T13:27:04Z</time>
      </trkpt>
      <trkpt lat="46.552633" lon="13.191133">
        <ele>1344.854</ele>
        <time>2018-09-07T13:27:10Z</time>
      </trkpt>
      <trkpt lat="46.552674" lon="13.191132">
        <ele>1346.041</ele>
        <time>2018-09-07T13:27:14Z</time>
      </trkpt>
      <trkpt lat="46.552828" lon="13.191065">
        <ele>1347.144</ele>
        <time>2018-09-07T13:27:28Z</time>
      </trkpt>
      <trkpt lat="46.552903" lon="13.191079">
        <ele>1348.146</ele>
        <time>2018-09-07T13:27:33Z</time>
      </trkpt>
      <trkpt lat="46.552936" lon="13.191081">
        <ele>1348.188</ele>
        <time>2018-09-07T13:27:35Z</time>
      </trkpt>
      <trkpt lat="46.553062" lon="13.191134">
        <ele>1349.416</ele>
        <time>2018-09-07T13:27:43Z</time>
      </trkpt>
      <trkpt lat="46.553212" lon="13.191168">
        <ele>1350.408</ele>
        <time>2018-09-07T13:27:52Z</time>
      </trkpt>
      <trkpt lat="46.553284" lon="13.191180">
        <ele>1350.828</ele>
        <time>2018-09-07T13:27:56Z</time>
      </trkpt>
      <trkpt lat="46.553307" lon="13.191183">
        <ele>1351.160</ele>
        <time>2018-09-07T13:27:57Z</time>
      </trkpt>
      <trkpt lat="46.553326" lon="13.191186">
        <ele>1351.486</ele>
        <time>2018-09-07T13:27:58Z</time>
      </trkpt>
      <trkpt lat="46.553378" lon="13.191202">
        <ele>1351.823</ele>
        <time>2018-09-07T13:28:01Z</time>
      </trkpt>
      <trkpt lat="46.553463" lon="13.191218">
        <ele>1352.014</ele>
        <time>2018-09-07T13:28:05Z</time>
      </trkpt>
      <trkpt lat="46.553552" lon="13.191252">
        <ele>1352.532</ele>
        <time>2018-09-07T13:28:10Z</time>
      </trkpt>
      <trkpt lat="46.553642" lon="13.191252">
        <ele>1353.859</ele>
        <time>2018-09-07T13:28:15Z</time>
      </trkpt>
      <trkpt lat="46.553776" lon="13.191303">
        <ele>1355.092</ele>
        <time>2018-09-07T13:28:23Z</time>
      </trkpt>
      <trkpt lat="46.553827" lon="13.191333">
        <ele>1356.191</ele>
        <time>2018-09-07T13:28:27Z</time>
      </trkpt>
      <trkpt lat="46.553910" lon="13.191348">
        <ele>1357.181</ele>
        <time>2018-09-07T13:28:33Z</time>
      </trkpt>
      <trkpt lat="46.554022" lon="13.191423">
        <ele>1358.419</ele>
        <time>2018-09-07T13:28:42Z</time>
      </trkpt>
      <trkpt lat="46.554108" lon="13.191464">
        <ele>1359.408</ele>
        <time>2018-09-07T13:28:49Z</time>
      </trkpt>
      <trkpt lat="46.554169" lon="13.191494">
        <ele>1360.033</ele>
        <time>2018-09-07T13:28:54Z</time>
      </trkpt>
      <trkpt lat="46.554193" lon="13.191502">
        <ele>1360.455</ele>
        <time>2018-09-07T13:28:56Z</time>
      </trkpt>
      <trkpt lat="46.554267" lon="13.191505">
        <ele>1361.561</ele>
        <time>2018-09-07T13:29:02Z</time>
      </trkpt>
      <trkpt lat="46.554379" lon="13.191557">
        <ele>1362.568</ele>
        <time>2018-09-07T13:29:11Z</time>
      </trkpt>
      <trkpt lat="46.554436" lon="13.191624">
        <ele>1363.549</ele>
        <time>2018-09-07T13:29:17Z</time>
      </trkpt>
      <trkpt lat="46.554514" lon="13.191667">
        <ele>1364.877</ele>
        <time>2018-09-07T13:29:24Z</time>
      </trkpt>
      <trkpt lat="46.554572" lon="13.191670">
        <ele>1366.054</ele>
        <time>2018-09-07T13:29:28Z</time>
      </trkpt>
      <trkpt lat="46.554668" lon="13.191662">
        <ele>1367.097</ele>
        <time>2018-09-07T13:29:36Z</time>
      </trkpt>
      <trkpt lat="46.554742" lon="13.191593">
        <ele>1368.019</ele>
        <time>2018-09-07T13:29:43Z</time>
      </trkpt>
      <trkpt lat="46.554786" lon="13.191498">
        <ele>1369.109</ele>
        <time>2018-09-07T13:29:49Z</time>
      </trkpt>
      <trkpt lat="46.554837" lon="13.191400">
        <ele>1370.119</ele>
        <time>2018-09-07T13:29:55Z</time>
      </trkpt>
      <trkpt lat="46.554847" lon="13.191383">
        <ele>1370.408</ele>
        <time>2018-09-07T13:29:56Z</time>
      </trkpt>
      <trkpt lat="46.554920" lon="13.191245">
        <ele>1371.125</ele>
        <time>2018-09-07T13:30:05Z</time>
      </trkpt>
      <trkpt lat="46.554960" lon="13.191182">
        <ele>1371.897</ele>
        <time>2018-09-07T13:30:09Z</time>
      </trkpt>
      <trkpt lat="46.554993" lon="13.191145">
        <ele>1372.143</ele>
        <time>2018-09-07T13:30:12Z</time>
      </trkpt>
      <trkpt lat="46.555052" lon="13.191081">
        <ele>1373.090</ele>
        <time>2018-09-07T13:30:17Z</time>
      </trkpt>
      <trkpt lat="46.555106" lon="13.191031">
        <ele>1373.491</ele>
        <time>2018-09-07T13:30:21Z</time>
      </trkpt>
      <trkpt lat="46.555222" lon="13.190928">
        <ele>1374.479</ele>
        <time>2018-09-07T13:30:30Z</time>
      </trkpt>
      <trkpt lat="46.555294" lon="13.190862">
        <ele>1375.096</ele>
        <time>2018-09-07T13:30:36Z</time>
      </trkpt>
      <trkpt lat="46.555331" lon="13.190835">
        <ele>1375.589</ele>
        <time>2018-09-07T13:30:39Z</time>
      </trkpt>
      <trkpt lat="46.555405" lon="13.190755">
        <ele>1376.593</ele>
        <time>2018-09-07T13:30:46Z</time>
      </trkpt>
      <trkpt lat="46.555497" lon="13.190570">
        <ele>1377.865</ele>
        <time>2018-09-07T13:30:55Z</time>
      </trkpt>
      <trkpt lat="46.555611" lon="13.190286">
        <ele>1378.521</ele>
        <time>2018-09-07T13:31:04Z</time>
      </trkpt>
      <trkpt lat="46.555634" lon="13.190217">
        <ele>1378.508</ele>
        <time>2018-09-07T13:31:06Z</time>
      </trkpt>
      <trkpt lat="46.555685" lon="13.190069">
        <ele>1378.833</ele>
        <time>2018-09-07T13:31:10Z</time>
      </trkpt>
      <trkpt lat="46.555761" lon="13.189858">
        <ele>1379.055</ele>
        <time>2018-09-07T13:31:15Z</time>
      </trkpt>
      <trkpt lat="46.555776" lon="13.189818">
        <ele>1379.041</ele>
        <time>2018-09-07T13:31:16Z</time>
      </trkpt>
      <trkpt lat="46.555822" lon="13.189695">
        <ele>1379.068</ele>
        <time>2018-09-07T13:31:19Z</time>
      </trkpt>
      <trkpt lat="46.555863" lon="13.189617">
        <ele>1379.089</ele>
        <time>2018-09-07T13:31:21Z</time>
      </trkpt>
      <trkpt lat="46.556124" lon="13.189097">
        <ele>1380.027</ele>
        <time>2018-09-07T13:31:40Z</time>
      </trkpt>
      <trkpt lat="46.556130" lon="13.189077">
        <ele>1380.154</ele>
        <time>2018-09-07T13:31:41Z</time>
      </trkpt>
      <trkpt lat="46.556155" lon="13.188988">
        <ele>1380.817</ele>
        <time>2018-09-07T13:31:46Z</time>
      </trkpt>
      <trkpt lat="46.556158" lon="13.188964">
        <ele>1381.125</ele>
        <time>2018-09-07T13:31:47Z</time>
      </trkpt>
      <trkpt lat="46.556208" lon="13.188874">
        <ele>1382.126</ele>
        <time>2018-09-07T13:31:52Z</time>
      </trkpt>
      <trkpt lat="46.556262" lon="13.188801">
        <ele>1383.408</ele>
        <time>2018-09-07T13:31:57Z</time>
      </trkpt>
      <trkpt lat="46.556298" lon="13.188737">
        <ele>1384.408</ele>
        <time>2018-09-07T13:32:02Z</time>
      </trkpt>
      <trkpt lat="46.556348" lon="13.188678">
        <ele>1385.426</ele>
        <time>2018-09-07T13:32:07Z</time>
      </trkpt>
      <trkpt lat="46.556361" lon="13.188673">
        <ele>1385.598</ele>
        <time>2018-09-07T13:32:08Z</time>
      </trkpt>
      <trkpt lat="46.556400" lon="13.188651">
        <ele>1386.444</ele>
        <time>2018-09-07T13:32:12Z</time>
      </trkpt>
      <trkpt lat="46.556437" lon="13.188589">
        <ele>1387.491</ele>
        <time>2018-09-07T13:32:17Z</time>
      </trkpt>
      <trkpt lat="46.556488" lon="13.188505">
        <ele>1388.562</ele>
        <time>2018-09-07T13:32:24Z</time>
      </trkpt>
      <trkpt lat="46.556527" lon="13.188486">
        <ele>1389.520</ele>
        <time>2018-09-07T13:32:28Z</time>
      </trkpt>
      <trkpt lat="46.556608" lon="13.188445">
        <ele>1390.897</ele>
        <time>2018-09-07T13:32:35Z</time>
      </trkpt>
      <trkpt lat="46.556645" lon="13.188416">
        <ele>1391.890</ele>
        <time>2018-09-07T13:32:39Z</time>
      </trkpt>
      <trkpt lat="46.556697" lon="13.188346">
        <ele>1393.023</ele>
        <time>2018-09-07T13:32:47Z</time>
      </trkpt>
      <trkpt lat="46.556734" lon="13.188320">
        <ele>1394.083</ele>
        <time>2018-09-07T13:32:53Z</time>
      </trkpt>
      <trkpt lat="46.556756" lon="13.188315">
        <ele>1395.111</ele>
        <time>2018-09-07T13:33:00Z</time>
      </trkpt>
      <trkpt lat="46.556851" lon="13.188251">
        <ele>1396.108</ele>
        <time>2018-09-07T13:33:09Z</time>
      </trkpt>
      <trkpt lat="46.556864" lon="13.188245">
        <ele>1396.156</ele>
        <time>2018-09-07T13:33:10Z</time>
      </trkpt>
      <trkpt lat="46.557018" lon="13.188165">
        <ele>1397.498</ele>
        <time>2018-09-07T13:33:21Z</time>
      </trkpt>
      <trkpt lat="46.557095" lon="13.188125">
        <ele>1398.544</ele>
        <time>2018-09-07T13:33:27Z</time>
      </trkpt>
      <trkpt lat="46.557182" lon="13.188049">
        <ele>1399.591</ele>
        <time>2018-09-07T13:33:35Z</time>
      </trkpt>
      <trkpt lat="46.557265" lon="13.187976">
        <ele>1400.812</ele>
        <time>2018-09-07T13:33:43Z</time>
      </trkpt>
      <trkpt lat="46.557312" lon="13.187927">
        <ele>1401.540</ele>
        <time>2018-09-07T13:33:50Z</time>
      </trkpt>
      <trkpt lat="46.557321" lon="13.187914">
        <ele>1402.027</ele>
        <time>2018-09-07T13:33:51Z</time>
      </trkpt>
      <trkpt lat="46.557408" lon="13.187828">
        <ele>1403.040</ele>
        <time>2018-09-07T13:33:59Z</time>
      </trkpt>
      <trkpt lat="46.557611" lon="13.187538">
        <ele>1403.857</ele>
        <time>2018-09-07T13:34:11Z</time>
      </trkpt>
      <trkpt lat="46.557632" lon="13.187508">
        <ele>1403.800</ele>
        <time>2018-09-07T13:34:12Z</time>
      </trkpt>
      <trkpt lat="46.557788" lon="13.187307">
        <ele>1403.820</ele>
        <time>2018-09-07T13:34:17Z</time>
      </trkpt>
      <trkpt lat="46.557866" lon="13.187203">
        <ele>1403.808</ele>
        <time>2018-09-07T13:34:19Z</time>
      </trkpt>
      <trkpt lat="46.558276" lon="13.186687">
        <ele>1402.469</ele>
        <time>2018-09-07T13:34:30Z</time>
      </trkpt>
      <trkpt lat="46.558326" lon="13.186605">
        <ele>1402.441</ele>
        <time>2018-09-07T13:34:32Z</time>
      </trkpt>
      <trkpt lat="46.558533" lon="13.186348">
        <ele>1402.497</ele>
        <time>2018-09-07T13:34:40Z</time>
      </trkpt>
      <trkpt lat="46.558791" lon="13.186015">
        <ele>1404.034</ele>
        <time>2018-09-07T13:34:52Z</time>
      </trkpt>
      <trkpt lat="46.558912" lon="13.185846">
        <ele>1405.185</ele>
        <time>2018-09-07T13:34:59Z</time>
      </trkpt>
      <trkpt lat="46.559069" lon="13.185712">
        <ele>1406.143</ele>
        <time>2018-09-07T13:35:06Z</time>
      </trkpt>
      <trkpt lat="46.559122" lon="13.185677">
        <ele>1406.460</ele>
        <time>2018-09-07T13:35:08Z</time>
      </trkpt>
      <trkpt lat="46.559279" lon="13.185473">
        <ele>1406.883</ele>
        <time>2018-09-07T13:35:15Z</time>
      </trkpt>
      <trkpt lat="46.559360" lon="13.185086">
        <ele>1407.038</ele>
        <time>2018-09-07T13:35:25Z</time>
      </trkpt>
      <trkpt lat="46.559364" lon="13.185010">
        <ele>1407.470</ele>
        <time>2018-09-07T13:35:27Z</time>
      </trkpt>
      <trkpt lat="46.559347" lon="13.184227">
        <ele>1408.417</ele>
        <time>2018-09-07T13:35:44Z</time>
      </trkpt>
      <trkpt lat="46.559353" lon="13.184181">
        <ele>1408.408</ele>
        <time>2018-09-07T13:35:45Z</time>
      </trkpt>
      <trkpt lat="46.559388" lon="13.184080">
        <ele>1408.477</ele>
        <time>2018-09-07T13:35:47Z</time>
      </trkpt>
      <trkpt lat="46.559398" lon="13.184026">
        <ele>1408.419</ele>
        <time>2018-09-07T13:35:48Z</time>
      </trkpt>
      <trkpt lat="46.559581" lon="13.183460">
        <ele>1409.465</ele>
        <time>2018-09-07T13:36:01Z</time>
      </trkpt>
      <trkpt lat="46.559683" lon="13.182925">
        <ele>1410.172</ele>
        <time>2018-09-07T13:36:12Z</time>
      </trkpt>
      <trkpt lat="46.559766" lon="13.182760">
        <ele>1410.553</ele>
        <time>2018-09-07T13:36:17Z</time>
      </trkpt>
      <trkpt lat="46.559826" lon="13.182677">
        <ele>1410.851</ele>
        <time>2018-09-07T13:36:20Z</time>
      </trkpt>
      <trkpt lat="46.559860" lon="13.182640">
        <ele>1411.498</ele>
        <time>2018-09-07T13:36:22Z</time>
      </trkpt>
      <trkpt lat="46.559881" lon="13.182610">
        <ele>1411.511</ele>
        <time>2018-09-07T13:36:23Z</time>
      </trkpt>
      <trkpt lat="46.559912" lon="13.182554">
        <ele>1412.184</ele>
        <time>2018-09-07T13:36:25Z</time>
      </trkpt>
      <trkpt lat="46.559927" lon="13.182528">
        <ele>1412.507</ele>
        <time>2018-09-07T13:36:26Z</time>
      </trkpt>
      <trkpt lat="46.559942" lon="13.182498">
        <ele>1412.817</ele>
        <time>2018-09-07T13:36:27Z</time>
      </trkpt>
      <trkpt lat="46.559954" lon="13.182471">
        <ele>1413.008</ele>
        <time>2018-09-07T13:36:28Z</time>
      </trkpt>
      <trkpt lat="46.560015" lon="13.182322">
        <ele>1413.812</ele>
        <time>2018-09-07T13:36:33Z</time>
      </trkpt>
      <trkpt lat="46.560104" lon="13.181960">
        <ele>1414.534</ele>
        <time>2018-09-07T13:36:44Z</time>
      </trkpt>
      <trkpt lat="46.560082" lon="13.181924">
        <ele>1414.550</ele>
        <time>2018-09-07T13:36:45Z</time>
      </trkpt>
      <trkpt lat="46.560026" lon="13.181455">
        <ele>1414.827</ele>
        <time>2018-09-07T13:36:55Z</time>
      </trkpt>
      <trkpt lat="46.560165" lon="13.181014">
        <ele>1415.858</ele>
        <time>2018-09-07T13:37:08Z</time>
      </trkpt>
      <trkpt lat="46.560207" lon="13.180831">
        <ele>1417.176</ele>
        <time>2018-09-07T13:37:14Z</time>
      </trkpt>
      <trkpt lat="46.560269" lon="13.180669">
        <ele>1418.153</ele>
        <time>2018-09-07T13:37:20Z</time>
      </trkpt>
      <trkpt lat="46.560307" lon="13.180507">
        <ele>1419.416</ele>
        <time>2018-09-07T13:37:26Z</time>
      </trkpt>
      <trkpt lat="46.560394" lon="13.180172">
        <ele>1420.589</ele>
        <time>2018-09-07T13:37:38Z</time>
      </trkpt>
      <trkpt lat="46.560415" lon="13.179974">
        <ele>1421.106</ele>
        <time>2018-09-07T13:37:45Z</time>
      </trkpt>
      <trkpt lat="46.560444" lon="13.179889">
        <ele>1421.526</ele>
        <time>2018-09-07T13:37:48Z</time>
      </trkpt>
      <trkpt lat="46.560547" lon="13.179611">
        <ele>1422.508</ele>
        <time>2018-09-07T13:37:58Z</time>
      </trkpt>
      <trkpt lat="46.560586" lon="13.179394">
        <ele>1423.592</ele>
        <time>2018-09-07T13:38:05Z</time>
      </trkpt>
      <trkpt lat="46.560624" lon="13.179244">
        <ele>1424.864</ele>
        <time>2018-09-07T13:38:11Z</time>
      </trkpt>
      <trkpt lat="46.560684" lon="13.179092">
        <ele>1426.060</ele>
        <time>2018-09-07T13:38:18Z</time>
      </trkpt>
      <trkpt lat="46.560741" lon="13.178929">
        <ele>1427.037</ele>
        <time>2018-09-07T13:38:24Z</time>
      </trkpt>
      <trkpt lat="46.560803" lon="13.178768">
        <ele>1428.198</ele>
        <time>2018-09-07T13:38:30Z</time>
      </trkpt>
      <trkpt lat="46.560865" lon="13.178559">
        <ele>1428.546</ele>
        <time>2018-09-07T13:38:37Z</time>
      </trkpt>
      <trkpt lat="46.560978" lon="13.178354">
        <ele>1429.413</ele>
        <time>2018-09-07T13:38:47Z</time>
      </trkpt>
      <trkpt lat="46.561027" lon="13.178305">
        <ele>1429.516</ele>
        <time>2018-09-07T13:38:50Z</time>
      </trkpt>
      <trkpt lat="46.561177" lon="13.178169">
        <ele>1430.427</ele>
        <time>2018-09-07T13:39:00Z</time>
      </trkpt>
      <trkpt lat="46.561380" lon="13.178034">
        <ele>1431.068</ele>
        <time>2018-09-07T13:39:09Z</time>
      </trkpt>
      <trkpt lat="46.561611" lon="13.177882">
        <ele>1431.414</ele>
        <time>2018-09-07T13:39:19Z</time>
      </trkpt>
      <trkpt lat="46.561791" lon="13.177746">
        <ele>1432.508</ele>
        <time>2018-09-07T13:39:27Z</time>
      </trkpt>
      <trkpt lat="46.561890" lon="13.177511">
        <ele>1433.596</ele>
        <time>2018-09-07T13:39:36Z</time>
      </trkpt>
      <trkpt lat="46.561998" lon="13.177323">
        <ele>1434.598</ele>
        <time>2018-09-07T13:39:43Z</time>
      </trkpt>
      <trkpt lat="46.562057" lon="13.177246">
        <ele>1435.514</ele>
        <time>2018-09-07T13:39:47Z</time>
      </trkpt>
      <trkpt lat="46.562161" lon="13.177083">
        <ele>1436.511</ele>
        <time>2018-09-07T13:39:54Z</time>
      </trkpt>
      <trkpt lat="46.562205" lon="13.176946">
        <ele>1437.862</ele>
        <time>2018-09-07T13:39:59Z</time>
      </trkpt>
      <trkpt lat="46.562250" lon="13.176771">
        <ele>1438.430</ele>
        <time>2018-09-07T13:40:05Z</time>
      </trkpt>
      <trkpt lat="46.562259" lon="13.176743">
        <ele>1438.417</ele>
        <time>2018-09-07T13:40:06Z</time>
      </trkpt>
      <trkpt lat="46.562299" lon="13.176634">
        <ele>1438.830</ele>
        <time>2018-09-07T13:40:10Z</time>
      </trkpt>
      <trkpt lat="46.562376" lon="13.176464">
        <ele>1439.877</ele>
        <time>2018-09-07T13:40:19Z</time>
      </trkpt>
      <trkpt lat="46.562491" lon="13.176308">
        <ele>1441.061</ele>
        <time>2018-09-07T13:40:27Z</time>
      </trkpt>
      <trkpt lat="46.562565" lon="13.176143">
        <ele>1442.027</ele>
        <time>2018-09-07T13:40:34Z</time>
      </trkpt>
      <trkpt lat="46.562666" lon="13.175947">
        <ele>1443.108</ele>
        <time>2018-09-07T13:40:44Z</time>
      </trkpt>
      <trkpt lat="46.562717" lon="13.175846">
        <ele>1444.061</ele>
        <time>2018-09-07T13:40:49Z</time>
      </trkpt>
      <trkpt lat="46.562738" lon="13.175793">
        <ele>1444.133</ele>
        <time>2018-09-07T13:40:51Z</time>
      </trkpt>
      <trkpt lat="46.562791" lon="13.175655">
        <ele>1445.479</ele>
        <time>2018-09-07T13:40:58Z</time>
      </trkpt>
      <trkpt lat="46.562841" lon="13.175543">
        <ele>1446.496</ele>
        <time>2018-09-07T13:41:04Z</time>
      </trkpt>
      <trkpt lat="46.562958" lon="13.175343">
        <ele>1447.497</ele>
        <time>2018-09-07T13:41:14Z</time>
      </trkpt>
      <trkpt lat="46.562987" lon="13.175252">
        <ele>1448.555</ele>
        <time>2018-09-07T13:41:19Z</time>
      </trkpt>
      <trkpt lat="46.563005" lon="13.175133">
        <ele>1449.532</ele>
        <time>2018-09-07T13:41:26Z</time>
      </trkpt>
      <trkpt lat="46.563076" lon="13.175003">
        <ele>1450.515</ele>
        <time>2018-09-07T13:41:33Z</time>
      </trkpt>
      <trkpt lat="46.563083" lon="13.174983">
        <ele>1450.854</ele>
        <time>2018-09-07T13:41:34Z</time>
      </trkpt>
      <trkpt lat="46.563100" lon="13.174879">
        <ele>1451.156</ele>
        <time>2018-09-07T13:41:39Z</time>
      </trkpt>
      <trkpt lat="46.563111" lon="13.174774">
        <ele>1452.011</ele>
        <time>2018-09-07T13:41:44Z</time>
      </trkpt>
      <trkpt lat="46.563149" lon="13.174694">
        <ele>1452.508</ele>
        <time>2018-09-07T13:41:48Z</time>
      </trkpt>
      <trkpt lat="46.563173" lon="13.174657">
        <ele>1453.049</ele>
        <time>2018-09-07T13:41:50Z</time>
      </trkpt>
      <trkpt lat="46.563247" lon="13.174584">
        <ele>1454.091</ele>
        <time>2018-09-07T13:41:56Z</time>
      </trkpt>
      <trkpt lat="46.563315" lon="13.174485">
        <ele>1455.047</ele>
        <time>2018-09-07T13:42:03Z</time>
      </trkpt>
      <trkpt lat="46.563392" lon="13.174413">
        <ele>1456.054</ele>
        <time>2018-09-07T13:42:10Z</time>
      </trkpt>
      <trkpt lat="46.563419" lon="13.174372">
        <ele>1456.835</ele>
        <time>2018-09-07T13:42:13Z</time>
      </trkpt>
      <trkpt lat="46.563441" lon="13.174334">
        <ele>1457.143</ele>
        <time>2018-09-07T13:42:16Z</time>
      </trkpt>
      <trkpt lat="46.563486" lon="13.174263">
        <ele>1458.110</ele>
        <time>2018-09-07T13:42:21Z</time>
      </trkpt>
      <trkpt lat="46.563510" lon="13.174188">
        <ele>1459.463</ele>
        <time>2018-09-07T13:42:26Z</time>
      </trkpt>
      <trkpt lat="46.563519" lon="13.174125">
        <ele>1460.177</ele>
        <time>2018-09-07T13:42:30Z</time>
      </trkpt>
      <trkpt lat="46.563522" lon="13.174106">
        <ele>1460.461</ele>
        <time>2018-09-07T13:42:31Z</time>
      </trkpt>
      <trkpt lat="46.563537" lon="13.174072">
        <ele>1460.827</ele>
        <time>2018-09-07T13:42:33Z</time>
      </trkpt>
      <trkpt lat="46.563549" lon="13.174050">
        <ele>1461.108</ele>
        <time>2018-09-07T13:42:35Z</time>
      </trkpt>
      <trkpt lat="46.563557" lon="13.174005">
        <ele>1461.511</ele>
        <time>2018-09-07T13:42:38Z</time>
      </trkpt>
      <trkpt lat="46.563576" lon="13.173964">
        <ele>1461.813</ele>
        <time>2018-09-07T13:42:41Z</time>
      </trkpt>
      <trkpt lat="46.563599" lon="13.173904">
        <ele>1462.499</ele>
        <time>2018-09-07T13:42:46Z</time>
      </trkpt>
      <trkpt lat="46.563602" lon="13.173888">
        <ele>1462.816</ele>
        <time>2018-09-07T13:42:47Z</time>
      </trkpt>
      <trkpt lat="46.563631" lon="13.173843">
        <ele>1463.177</ele>
        <time>2018-09-07T13:42:50Z</time>
      </trkpt>
      <trkpt lat="46.563663" lon="13.173807">
        <ele>1464.085</ele>
        <time>2018-09-07T13:42:53Z</time>
      </trkpt>
      <trkpt lat="46.563726" lon="13.173733">
        <ele>1465.012</ele>
        <time>2018-09-07T13:43:00Z</time>
      </trkpt>
      <trkpt lat="46.563734" lon="13.173696">
        <ele>1465.535</ele>
        <time>2018-09-07T13:43:03Z</time>
      </trkpt>
      <trkpt lat="46.563748" lon="13.173646">
        <ele>1466.028</ele>
        <time>2018-09-07T13:43:06Z</time>
      </trkpt>
      <trkpt lat="46.563788" lon="13.173575">
        <ele>1467.189</ele>
        <time>2018-09-07T13:43:11Z</time>
      </trkpt>
      <trkpt lat="46.563796" lon="13.173564">
        <ele>1467.417</ele>
        <time>2018-09-07T13:43:12Z</time>
      </trkpt>
      <trkpt lat="46.563803" lon="13.173551">
        <ele>1467.508</ele>
        <time>2018-09-07T13:43:13Z</time>
      </trkpt>
      <trkpt lat="46.563836" lon="13.173510">
        <ele>1468.486</ele>
        <time>2018-09-07T13:43:17Z</time>
      </trkpt>
      <trkpt lat="46.563859" lon="13.173461">
        <ele>1469.118</ele>
        <time>2018-09-07T13:43:21Z</time>
      </trkpt>
      <trkpt lat="46.563859" lon="13.173429">
        <ele>1469.454</ele>
        <time>2018-09-07T13:43:23Z</time>
      </trkpt>
      <trkpt lat="46.563886" lon="13.173367">
        <ele>1470.531</ele>
        <time>2018-09-07T13:43:28Z</time>
      </trkpt>
      <trkpt lat="46.563941" lon="13.173309">
        <ele>1471.452</ele>
        <time>2018-09-07T13:43:34Z</time>
      </trkpt>
      <trkpt lat="46.563965" lon="13.173300">
        <ele>1471.890</ele>
        <time>2018-09-07T13:43:36Z</time>
      </trkpt>
      <trkpt lat="46.564043" lon="13.173248">
        <ele>1473.077</ele>
        <time>2018-09-07T13:43:44Z</time>
      </trkpt>
      <trkpt lat="46.564129" lon="13.173201">
        <ele>1474.170</ele>
        <time>2018-09-07T13:43:52Z</time>
      </trkpt>
      <trkpt lat="46.564198" lon="13.173167">
        <ele>1475.031</ele>
        <time>2018-09-07T13:43:58Z</time>
      </trkpt>
      <trkpt lat="46.564221" lon="13.173154">
        <ele>1475.161</ele>
        <time>2018-09-07T13:44:00Z</time>
      </trkpt>
      <trkpt lat="46.564283" lon="13.173077">
        <ele>1476.407</ele>
        <time>2018-09-07T13:44:07Z</time>
      </trkpt>
      <trkpt lat="46.564346" lon="13.172977">
        <ele>1477.408</ele>
        <time>2018-09-07T13:44:16Z</time>
      </trkpt>
      <trkpt lat="46.564401" lon="13.172912">
        <ele>1478.497</ele>
        <time>2018-09-07T13:44:23Z</time>
      </trkpt>
      <trkpt lat="46.564446" lon="13.172842">
        <ele>1479.529</ele>
        <time>2018-09-07T13:44:29Z</time>
      </trkpt>
      <trkpt lat="46.564485" lon="13.172778">
        <ele>1480.515</ele>
        <time>2018-09-07T13:44:35Z</time>
      </trkpt>
      <trkpt lat="46.564531" lon="13.172669">
        <ele>1481.592</ele>
        <time>2018-09-07T13:44:43Z</time>
      </trkpt>
      <trkpt lat="46.564601" lon="13.172595">
        <ele>1482.873</ele>
        <time>2018-09-07T13:44:51Z</time>
      </trkpt>
      <trkpt lat="46.564625" lon="13.172517">
        <ele>1483.881</ele>
        <time>2018-09-07T13:44:56Z</time>
      </trkpt>
      <trkpt lat="46.564646" lon="13.172465">
        <ele>1484.868</ele>
        <time>2018-09-07T13:45:00Z</time>
      </trkpt>
      <trkpt lat="46.564698" lon="13.172383">
        <ele>1486.021</ele>
        <time>2018-09-07T13:45:08Z</time>
      </trkpt>
      <trkpt lat="46.564725" lon="13.172327">
        <ele>1487.033</ele>
        <time>2018-09-07T13:45:13Z</time>
      </trkpt>
      <trkpt lat="46.564807" lon="13.172252">
        <ele>1488.023</ele>
        <time>2018-09-07T13:45:22Z</time>
      </trkpt>
      <trkpt lat="46.564872" lon="13.172175">
        <ele>1489.115</ele>
        <time>2018-09-07T13:45:29Z</time>
      </trkpt>
      <trkpt lat="46.564970" lon="13.172063">
        <ele>1490.408</ele>
        <time>2018-09-07T13:45:39Z</time>
      </trkpt>
      <trkpt lat="46.565063" lon="13.171959">
        <ele>1491.457</ele>
        <time>2018-09-07T13:45:49Z</time>
      </trkpt>
      <trkpt lat="46.565133" lon="13.171879">
        <ele>1492.869</ele>
        <time>2018-09-07T13:45:56Z</time>
      </trkpt>
      <trkpt lat="46.565209" lon="13.171835">
        <ele>1493.885</ele>
        <time>2018-09-07T13:46:02Z</time>
      </trkpt>
      <trkpt lat="46.565324" lon="13.171749">
        <ele>1495.072</ele>
        <time>2018-09-07T13:46:13Z</time>
      </trkpt>
      <trkpt lat="46.565380" lon="13.171715">
        <ele>1496.073</ele>
        <time>2018-09-07T13:46:18Z</time>
      </trkpt>
      <trkpt lat="46.565433" lon="13.171650">
        <ele>1496.531</ele>
        <time>2018-09-07T13:46:23Z</time>
      </trkpt>
      <trkpt lat="46.565469" lon="13.171610">
        <ele>1497.068</ele>
        <time>2018-09-07T13:46:26Z</time>
      </trkpt>
      <trkpt lat="46.565541" lon="13.171552">
        <ele>1498.111</ele>
        <time>2018-09-07T13:46:32Z</time>
      </trkpt>
      <trkpt lat="46.565633" lon="13.171489">
        <ele>1499.181</ele>
        <time>2018-09-07T13:46:39Z</time>
      </trkpt>
      <trkpt lat="46.565685" lon="13.171442">
        <ele>1500.461</ele>
        <time>2018-09-07T13:46:43Z</time>
      </trkpt>
      <trkpt lat="46.565761" lon="13.171319">
        <ele>1501.417</ele>
        <time>2018-09-07T13:46:48Z</time>
      </trkpt>
      <trkpt lat="46.565828" lon="13.171218">
        <ele>1502.408</ele>
        <time>2018-09-07T13:46:52Z</time>
      </trkpt>
      <trkpt lat="46.565895" lon="13.171132">
        <ele>1503.532</ele>
        <time>2018-09-07T13:46:57Z</time>
      </trkpt>
      <trkpt lat="46.565926" lon="13.171092">
        <ele>1504.824</ele>
        <time>2018-09-07T13:47:00Z</time>
      </trkpt>
      <trkpt lat="46.565982" lon="13.171030">
        <ele>1505.430</ele>
        <time>2018-09-07T13:47:06Z</time>
      </trkpt>
      <trkpt lat="46.565988" lon="13.171023">
        <ele>1505.877</ele>
        <time>2018-09-07T13:47:12Z</time>
      </trkpt>
      <trkpt lat="46.565991" lon="13.171023">
        <ele>1506.198</ele>
        <time>2018-09-07T13:47:16Z</time>
      </trkpt>
      <trkpt lat="46.566119" lon="13.171302">
        <ele>1506.596</ele>
        <time>2018-09-07T13:47:30Z</time>
      </trkpt>
      <trkpt lat="46.566158" lon="13.171403">
        <ele>1507.083</ele>
        <time>2018-09-07T13:47:35Z</time>
      </trkpt>
      <trkpt lat="46.565977" lon="13.171344">
        <ele>1560.814</ele>
        <time>2018-09-08T05:34:45Z</time>
      </trkpt>
      <trkpt lat="46.565972" lon="13.171193">
        <ele>1556.554</ele>
        <time>2018-09-08T05:35:12Z</time>
      </trkpt>
      <trkpt lat="46.565964" lon="13.171154">
        <ele>1556.509</ele>
        <time>2018-09-08T05:35:14Z</time>
      </trkpt>
      <trkpt lat="46.565965" lon="13.171136">
        <ele>1556.508</ele>
        <time>2018-09-08T05:35:15Z</time>
      </trkpt>
      <trkpt lat="46.565958" lon="13.171086">
        <ele>1556.065</ele>
        <time>2018-09-08T05:35:18Z</time>
      </trkpt>
      <trkpt lat="46.565957" lon="13.171067">
        <ele>1556.027</ele>
        <time>2018-09-08T05:35:19Z</time>
      </trkpt>
      <trkpt lat="46.565959" lon="13.171030">
        <ele>1556.575</ele>
        <time>2018-09-08T05:35:21Z</time>
      </trkpt>
      <trkpt lat="46.565989" lon="13.170980">
        <ele>1556.574</ele>
        <time>2018-09-08T05:35:24Z</time>
      </trkpt>
      <trkpt lat="46.566182" lon="13.170802">
        <ele>1559.848</ele>
        <time>2018-09-08T05:35:41Z</time>
      </trkpt>
      <trkpt lat="46.566407" lon="13.170639">
        <ele>1563.263</ele>
        <time>2018-09-08T05:35:58Z</time>
      </trkpt>
      <trkpt lat="46.566779" lon="13.170406">
        <ele>1565.161</ele>
        <time>2018-09-08T05:36:19Z</time>
      </trkpt>
      <trkpt lat="46.566991" lon="13.170153">
        <ele>1563.793</ele>
        <time>2018-09-08T05:36:28Z</time>
      </trkpt>
      <trkpt lat="46.567037" lon="13.170123">
        <ele>1563.293</ele>
        <time>2018-09-08T05:36:29Z</time>
      </trkpt>
      <trkpt lat="46.567500" lon="13.169808">
        <ele>1562.765</ele>
        <time>2018-09-08T05:36:42Z</time>
      </trkpt>
      <trkpt lat="46.567917" lon="13.169142">
        <ele>1558.921</ele>
        <time>2018-09-08T05:36:55Z</time>
      </trkpt>
      <trkpt lat="46.568079" lon="13.168757">
        <ele>1556.008</ele>
        <time>2018-09-08T05:36:59Z</time>
      </trkpt>
      <trkpt lat="46.568133" lon="13.168668">
        <ele>1555.563</ele>
        <time>2018-09-08T05:37:00Z</time>
      </trkpt>
      <trkpt lat="46.568194" lon="13.168588">
        <ele>1555.075</ele>
        <time>2018-09-08T05:37:01Z</time>
      </trkpt>
      <trkpt lat="46.568560" lon="13.168045">
        <ele>1555.533</ele>
        <time>2018-09-08T05:37:10Z</time>
      </trkpt>
      <trkpt lat="46.568728" lon="13.167712">
        <ele>1556.082</ele>
        <time>2018-09-08T05:37:18Z</time>
      </trkpt>
      <trkpt lat="46.568850" lon="13.167261">
        <ele>1554.556</ele>
        <time>2018-09-08T05:37:25Z</time>
      </trkpt>
      <trkpt lat="46.568877" lon="13.167196">
        <ele>1554.121</ele>
        <time>2018-09-08T05:37:26Z</time>
      </trkpt>
      <trkpt lat="46.568942" lon="13.167071">
        <ele>1553.659</ele>
        <time>2018-09-08T05:37:28Z</time>
      </trkpt>
      <trkpt lat="46.568979" lon="13.167016">
        <ele>1553.621</ele>
        <time>2018-09-08T05:37:29Z</time>
      </trkpt>
      <trkpt lat="46.569088" lon="13.166850">
        <ele>1553.188</ele>
        <time>2018-09-08T05:37:32Z</time>
      </trkpt>
      <trkpt lat="46.569629" lon="13.165977">
        <ele>1548.824</ele>
        <time>2018-09-08T05:37:44Z</time>
      </trkpt>
      <trkpt lat="46.569802" lon="13.165729">
        <ele>1546.426</ele>
        <time>2018-09-08T05:37:47Z</time>
      </trkpt>
      <trkpt lat="46.569848" lon="13.165634">
        <ele>1545.908</ele>
        <time>2018-09-08T05:37:48Z</time>
      </trkpt>
      <trkpt lat="46.569895" lon="13.165534">
        <ele>1544.992</ele>
        <time>2018-09-08T05:37:49Z</time>
      </trkpt>
      <trkpt lat="46.569945" lon="13.165439">
        <ele>1544.564</ele>
        <time>2018-09-08T05:37:50Z</time>
      </trkpt>
      <trkpt lat="46.570001" lon="13.165351">
        <ele>1543.582</ele>
        <time>2018-09-08T05:37:51Z</time>
      </trkpt>
      <trkpt lat="46.570063" lon="13.165274">
        <ele>1543.031</ele>
        <time>2018-09-08T05:37:52Z</time>
      </trkpt>
      <trkpt lat="46.570131" lon="13.165208">
        <ele>1542.085</ele>
        <time>2018-09-08T05:37:53Z</time>
      </trkpt>
      <trkpt lat="46.570205" lon="13.165150">
        <ele>1541.640</ele>
        <time>2018-09-08T05:37:54Z</time>
      </trkpt>
      <trkpt lat="46.570838" lon="13.164466">
        <ele>1535.368</ele>
        <time>2018-09-08T05:38:05Z</time>
      </trkpt>
      <trkpt lat="46.571037" lon="13.164283">
        <ele>1532.940</ele>
        <time>2018-09-08T05:38:09Z</time>
      </trkpt>
      <trkpt lat="46.571085" lon="13.164224">
        <ele>1532.011</ele>
        <time>2018-09-08T05:38:10Z</time>
      </trkpt>
      <trkpt lat="46.571271" lon="13.163933">
        <ele>1529.121</ele>
        <time>2018-09-08T05:38:14Z</time>
      </trkpt>
      <trkpt lat="46.571314" lon="13.163851">
        <ele>1528.603</ele>
        <time>2018-09-08T05:38:15Z</time>
      </trkpt>
      <trkpt lat="46.571400" lon="13.163702">
        <ele>1527.608</ele>
        <time>2018-09-08T05:38:17Z</time>
      </trkpt>
      <trkpt lat="46.571445" lon="13.163640">
        <ele>1527.175</ele>
        <time>2018-09-08T05:38:18Z</time>
      </trkpt>
      <trkpt lat="46.571494" lon="13.163590">
        <ele>1526.727</ele>
        <time>2018-09-08T05:38:19Z</time>
      </trkpt>
      <trkpt lat="46.571551" lon="13.163556">
        <ele>1526.275</ele>
        <time>2018-09-08T05:38:20Z</time>
      </trkpt>
      <trkpt lat="46.571618" lon="13.163530">
        <ele>1525.224</ele>
        <time>2018-09-08T05:38:21Z</time>
      </trkpt>
      <trkpt lat="46.572113" lon="13.163343">
        <ele>1519.978</ele>
        <time>2018-09-08T05:38:28Z</time>
      </trkpt>
      <trkpt lat="46.572188" lon="13.163270">
        <ele>1519.953</ele>
        <time>2018-09-08T05:38:29Z</time>
      </trkpt>
      <trkpt lat="46.572267" lon="13.163167">
        <ele>1519.521</ele>
        <time>2018-09-08T05:38:30Z</time>
      </trkpt>
      <trkpt lat="46.572348" lon="13.163064">
        <ele>1518.093</ele>
        <time>2018-09-08T05:38:31Z</time>
      </trkpt>
      <trkpt lat="46.572441" lon="13.162973">
        <ele>1517.177</ele>
        <time>2018-09-08T05:38:32Z</time>
      </trkpt>
      <trkpt lat="46.572543" lon="13.162870">
        <ele>1516.161</ele>
        <time>2018-09-08T05:38:33Z</time>
      </trkpt>
      <trkpt lat="46.572632" lon="13.162737">
        <ele>1514.627</ele>
        <time>2018-09-08T05:38:34Z</time>
      </trkpt>
      <trkpt lat="46.572722" lon="13.162581">
        <ele>1513.708</ele>
        <time>2018-09-08T05:38:35Z</time>
      </trkpt>
      <trkpt lat="46.572800" lon="13.162417">
        <ele>1512.231</ele>
        <time>2018-09-08T05:38:36Z</time>
      </trkpt>
      <trkpt lat="46.573430" lon="13.161123">
        <ele>1495.953</ele>
        <time>2018-09-08T05:38:45Z</time>
      </trkpt>
      <trkpt lat="46.573668" lon="13.160663">
        <ele>1488.791</ele>
        <time>2018-09-08T05:38:49Z</time>
      </trkpt>
      <trkpt lat="46.573723" lon="13.160489">
        <ele>1485.330</ele>
        <time>2018-09-08T05:38:51Z</time>
      </trkpt>
      <trkpt lat="46.573710" lon="13.160423">
        <ele>1483.954</ele>
        <time>2018-09-08T05:38:52Z</time>
      </trkpt>
      <trkpt lat="46.573670" lon="13.160381">
        <ele>1482.429</ele>
        <time>2018-09-08T05:38:53Z</time>
      </trkpt>
      <trkpt lat="46.573607" lon="13.160361">
        <ele>1481.017</ele>
        <time>2018-09-08T05:38:54Z</time>
      </trkpt>
      <trkpt lat="46.573535" lon="13.160354">
        <ele>1480.039</ele>
        <time>2018-09-08T05:38:55Z</time>
      </trkpt>
      <trkpt lat="46.573456" lon="13.160352">
        <ele>1479.135</ele>
        <time>2018-09-08T05:38:56Z</time>
      </trkpt>
      <trkpt lat="46.573195" lon="13.160302">
        <ele>1476.786</ele>
        <time>2018-09-08T05:38:59Z</time>
      </trkpt>
      <trkpt lat="46.573115" lon="13.160247">
        <ele>1475.714</ele>
        <time>2018-09-08T05:39:00Z</time>
      </trkpt>
      <trkpt lat="46.573049" lon="13.160161">
        <ele>1475.208</ele>
        <time>2018-09-08T05:39:01Z</time>
      </trkpt>
      <trkpt lat="46.572996" lon="13.160056">
        <ele>1474.877</ele>
        <time>2018-09-08T05:39:02Z</time>
      </trkpt>
      <trkpt lat="46.572955" lon="13.159948">
        <ele>1474.339</ele>
        <time>2018-09-08T05:39:03Z</time>
      </trkpt>
      <trkpt lat="46.572921" lon="13.159839">
        <ele>1474.397</ele>
        <time>2018-09-08T05:39:04Z</time>
      </trkpt>
      <trkpt lat="46.572894" lon="13.159730">
        <ele>1473.826</ele>
        <time>2018-09-08T05:39:05Z</time>
      </trkpt>
      <trkpt lat="46.572873" lon="13.159631">
        <ele>1473.810</ele>
        <time>2018-09-08T05:39:06Z</time>
      </trkpt>
      <trkpt lat="46.572864" lon="13.159530">
        <ele>1473.825</ele>
        <time>2018-09-08T05:39:07Z</time>
      </trkpt>
      <trkpt lat="46.572873" lon="13.159429">
        <ele>1473.853</ele>
        <time>2018-09-08T05:39:08Z</time>
      </trkpt>
      <trkpt lat="46.572905" lon="13.159337">
        <ele>1474.385</ele>
        <time>2018-09-08T05:39:09Z</time>
      </trkpt>
      <trkpt lat="46.572957" lon="13.159269">
        <ele>1473.831</ele>
        <time>2018-09-08T05:39:10Z</time>
      </trkpt>
      <trkpt lat="46.573022" lon="13.159220">
        <ele>1473.361</ele>
        <time>2018-09-08T05:39:11Z</time>
      </trkpt>
      <trkpt lat="46.573099" lon="13.159174">
        <ele>1472.807</ele>
        <time>2018-09-08T05:39:12Z</time>
      </trkpt>
      <trkpt lat="46.573261" lon="13.159094">
        <ele>1472.408</ele>
        <time>2018-09-08T05:39:14Z</time>
      </trkpt>
      <trkpt lat="46.573351" lon="13.159080">
        <ele>1471.977</ele>
        <time>2018-09-08T05:39:15Z</time>
      </trkpt>
      <trkpt lat="46.573441" lon="13.159091">
        <ele>1470.949</ele>
        <time>2018-09-08T05:39:16Z</time>
      </trkpt>
      <trkpt lat="46.573536" lon="13.159134">
        <ele>1470.417</ele>
        <time>2018-09-08T05:39:17Z</time>
      </trkpt>
      <trkpt lat="46.573620" lon="13.159189">
        <ele>1469.946</ele>
        <time>2018-09-08T05:39:18Z</time>
      </trkpt>
      <trkpt lat="46.573711" lon="13.159241">
        <ele>1469.050</ele>
        <time>2018-09-08T05:39:19Z</time>
      </trkpt>
      <trkpt lat="46.573796" lon="13.159294">
        <ele>1468.555</ele>
        <time>2018-09-08T05:39:20Z</time>
      </trkpt>
      <trkpt lat="46.573869" lon="13.159356">
        <ele>1468.083</ele>
        <time>2018-09-08T05:39:21Z</time>
      </trkpt>
      <trkpt lat="46.573931" lon="13.159418">
        <ele>1467.155</ele>
        <time>2018-09-08T05:39:22Z</time>
      </trkpt>
      <trkpt lat="46.573980" lon="13.159469">
        <ele>1467.158</ele>
        <time>2018-09-08T05:39:23Z</time>
      </trkpt>
      <trkpt lat="46.574028" lon="13.159492">
        <ele>1467.152</ele>
        <time>2018-09-08T05:39:24Z</time>
      </trkpt>
      <trkpt lat="46.574080" lon="13.159480">
        <ele>1467.117</ele>
        <time>2018-09-08T05:39:25Z</time>
      </trkpt>
      <trkpt lat="46.574120" lon="13.159438">
        <ele>1466.608</ele>
        <time>2018-09-08T05:39:26Z</time>
      </trkpt>
      <trkpt lat="46.574154" lon="13.159377">
        <ele>1466.689</ele>
        <time>2018-09-08T05:39:27Z</time>
      </trkpt>
      <trkpt lat="46.574180" lon="13.159309">
        <ele>1466.191</ele>
        <time>2018-09-08T05:39:28Z</time>
      </trkpt>
      <trkpt lat="46.574196" lon="13.159238">
        <ele>1465.679</ele>
        <time>2018-09-08T05:39:29Z</time>
      </trkpt>
      <trkpt lat="46.574207" lon="13.159165">
        <ele>1465.188</ele>
        <time>2018-09-08T05:39:30Z</time>
      </trkpt>
      <trkpt lat="46.574217" lon="13.159094">
        <ele>1465.152</ele>
        <time>2018-09-08T05:39:31Z</time>
      </trkpt>
      <trkpt lat="46.574231" lon="13.159025">
        <ele>1464.767</ele>
        <time>2018-09-08T05:39:32Z</time>
      </trkpt>
      <trkpt lat="46.574348" lon="13.158557">
        <ele>1461.325</ele>
        <time>2018-09-08T05:39:38Z</time>
      </trkpt>
      <trkpt lat="46.574376" lon="13.158484">
        <ele>1460.367</ele>
        <time>2018-09-08T05:39:39Z</time>
      </trkpt>
      <trkpt lat="46.574408" lon="13.158418">
        <ele>1459.979</ele>
        <time>2018-09-08T05:39:40Z</time>
      </trkpt>
      <trkpt lat="46.574474" lon="13.158294">
        <ele>1458.405</ele>
        <time>2018-09-08T05:39:42Z</time>
      </trkpt>
      <trkpt lat="46.574523" lon="13.158167">
        <ele>1456.525</ele>
        <time>2018-09-08T05:39:44Z</time>
      </trkpt>
      <trkpt lat="46.574541" lon="13.158094">
        <ele>1455.508</ele>
        <time>2018-09-08T05:39:45Z</time>
      </trkpt>
      <trkpt lat="46.574684" lon="13.157654">
        <ele>1451.791</ele>
        <time>2018-09-08T05:39:51Z</time>
      </trkpt>
      <trkpt lat="46.574718" lon="13.157582">
        <ele>1451.213</ele>
        <time>2018-09-08T05:39:52Z</time>
      </trkpt>
      <trkpt lat="46.574750" lon="13.157515">
        <ele>1450.291</ele>
        <time>2018-09-08T05:39:53Z</time>
      </trkpt>
      <trkpt lat="46.574777" lon="13.157444">
        <ele>1449.890</ele>
        <time>2018-09-08T05:39:54Z</time>
      </trkpt>
      <trkpt lat="46.574795" lon="13.157368">
        <ele>1448.854</ele>
        <time>2018-09-08T05:39:55Z</time>
      </trkpt>
      <trkpt lat="46.574802" lon="13.157286">
        <ele>1448.339</ele>
        <time>2018-09-08T05:39:56Z</time>
      </trkpt>
      <trkpt lat="46.574804" lon="13.157198">
        <ele>1447.887</ele>
        <time>2018-09-08T05:39:57Z</time>
      </trkpt>
      <trkpt lat="46.574824" lon="13.157030">
        <ele>1446.479</ele>
        <time>2018-09-08T05:39:59Z</time>
      </trkpt>
      <trkpt lat="46.574852" lon="13.156950">
        <ele>1445.489</ele>
        <time>2018-09-08T05:40:00Z</time>
      </trkpt>
      <trkpt lat="46.574891" lon="13.156884">
        <ele>1445.006</ele>
        <time>2018-09-08T05:40:01Z</time>
      </trkpt>
      <trkpt lat="46.574937" lon="13.156832">
        <ele>1444.526</ele>
        <time>2018-09-08T05:40:02Z</time>
      </trkpt>
      <trkpt lat="46.574987" lon="13.156789">
        <ele>1443.508</ele>
        <time>2018-09-08T05:40:03Z</time>
      </trkpt>
      <trkpt lat="46.575039" lon="13.156738">
        <ele>1443.062</ele>
        <time>2018-09-08T05:40:04Z</time>
      </trkpt>
      <trkpt lat="46.575086" lon="13.156672">
        <ele>1442.684</ele>
        <time>2018-09-08T05:40:05Z</time>
      </trkpt>
      <trkpt lat="46.575124" lon="13.156609">
        <ele>1442.142</ele>
        <time>2018-09-08T05:40:06Z</time>
      </trkpt>
      <trkpt lat="46.575158" lon="13.156538">
        <ele>1441.681</ele>
        <time>2018-09-08T05:40:07Z</time>
      </trkpt>
      <trkpt lat="46.575189" lon="13.156461">
        <ele>1441.135</ele>
        <time>2018-09-08T05:40:08Z</time>
      </trkpt>
      <trkpt lat="46.575295" lon="13.156231">
        <ele>1440.150</ele>
        <time>2018-09-08T05:40:11Z</time>
      </trkpt>
      <trkpt lat="46.575336" lon="13.156170">
        <ele>1439.798</ele>
        <time>2018-09-08T05:40:12Z</time>
      </trkpt>
      <trkpt lat="46.575659" lon="13.155749">
        <ele>1435.850</ele>
        <time>2018-09-08T05:40:19Z</time>
      </trkpt>
      <trkpt lat="46.575856" lon="13.155375">
        <ele>1432.574</ele>
        <time>2018-09-08T05:40:24Z</time>
      </trkpt>
      <trkpt lat="46.575903" lon="13.155310">
        <ele>1432.056</ele>
        <time>2018-09-08T05:40:25Z</time>
      </trkpt>
      <trkpt lat="46.575993" lon="13.155173">
        <ele>1430.121</ele>
        <time>2018-09-08T05:40:27Z</time>
      </trkpt>
      <trkpt lat="46.576034" lon="13.155095">
        <ele>1429.608</ele>
        <time>2018-09-08T05:40:28Z</time>
      </trkpt>
      <trkpt lat="46.576062" lon="13.155010">
        <ele>1429.181</ele>
        <time>2018-09-08T05:40:29Z</time>
      </trkpt>
      <trkpt lat="46.576080" lon="13.154925">
        <ele>1428.133</ele>
        <time>2018-09-08T05:40:30Z</time>
      </trkpt>
      <trkpt lat="46.576093" lon="13.154840">
        <ele>1427.281</ele>
        <time>2018-09-08T05:40:31Z</time>
      </trkpt>
      <trkpt lat="46.576101" lon="13.154757">
        <ele>1426.770</ele>
        <time>2018-09-08T05:40:32Z</time>
      </trkpt>
      <trkpt lat="46.576139" lon="13.154398">
        <ele>1423.354</ele>
        <time>2018-09-08T05:40:36Z</time>
      </trkpt>
      <trkpt lat="46.576164" lon="13.154319">
        <ele>1422.449</ele>
        <time>2018-09-08T05:40:37Z</time>
      </trkpt>
      <trkpt lat="46.576200" lon="13.154250">
        <ele>1421.947</ele>
        <time>2018-09-08T05:40:38Z</time>
      </trkpt>
      <trkpt lat="46.576241" lon="13.154187">
        <ele>1420.979</ele>
        <time>2018-09-08T05:40:39Z</time>
      </trkpt>
      <trkpt lat="46.576287" lon="13.154130">
        <ele>1420.099</ele>
        <time>2018-09-08T05:40:40Z</time>
      </trkpt>
      <trkpt lat="46.576336" lon="13.154074">
        <ele>1419.007</ele>
        <time>2018-09-08T05:40:41Z</time>
      </trkpt>
      <trkpt lat="46.576385" lon="13.154009">
        <ele>1418.527</ele>
        <time>2018-09-08T05:40:42Z</time>
      </trkpt>
      <trkpt lat="46.576525" lon="13.153808">
        <ele>1416.608</ele>
        <time>2018-09-08T05:40:45Z</time>
      </trkpt>
      <trkpt lat="46.576560" lon="13.153731">
        <ele>1416.113</ele>
        <time>2018-09-08T05:40:46Z</time>
      </trkpt>
      <trkpt lat="46.576586" lon="13.153648">
        <ele>1415.615</ele>
        <time>2018-09-08T05:40:47Z</time>
      </trkpt>
      <trkpt lat="46.576650" lon="13.153407">
        <ele>1413.763</ele>
        <time>2018-09-08T05:40:50Z</time>
      </trkpt>
      <trkpt lat="46.576684" lon="13.153337">
        <ele>1412.782</ele>
        <time>2018-09-08T05:40:51Z</time>
      </trkpt>
      <trkpt lat="46.576722" lon="13.153281">
        <ele>1412.336</ele>
        <time>2018-09-08T05:40:52Z</time>
      </trkpt>
      <trkpt lat="46.576761" lon="13.153237">
        <ele>1411.831</ele>
        <time>2018-09-08T05:40:53Z</time>
      </trkpt>
      <trkpt lat="46.576808" lon="13.153197">
        <ele>1411.829</ele>
        <time>2018-09-08T05:40:54Z</time>
      </trkpt>
      <trkpt lat="46.576846" lon="13.153154">
        <ele>1411.861</ele>
        <time>2018-09-08T05:40:55Z</time>
      </trkpt>
      <trkpt lat="46.576872" lon="13.153102">
        <ele>1411.813</ele>
        <time>2018-09-08T05:40:56Z</time>
      </trkpt>
      <trkpt lat="46.576893" lon="13.153045">
        <ele>1411.843</ele>
        <time>2018-09-08T05:40:57Z</time>
      </trkpt>
      <trkpt lat="46.576910" lon="13.152989">
        <ele>1411.307</ele>
        <time>2018-09-08T05:40:58Z</time>
      </trkpt>
      <trkpt lat="46.577024" lon="13.152563">
        <ele>1410.308</ele>
        <time>2018-09-08T05:41:05Z</time>
      </trkpt>
      <trkpt lat="46.577054" lon="13.152509">
        <ele>1410.335</ele>
        <time>2018-09-08T05:41:06Z</time>
      </trkpt>
      <trkpt lat="46.577091" lon="13.152463">
        <ele>1410.367</ele>
        <time>2018-09-08T05:41:07Z</time>
      </trkpt>
      <trkpt lat="46.577133" lon="13.152418">
        <ele>1410.345</ele>
        <time>2018-09-08T05:41:08Z</time>
      </trkpt>
      <trkpt lat="46.577181" lon="13.152377">
        <ele>1409.914</ele>
        <time>2018-09-08T05:41:09Z</time>
      </trkpt>
      <trkpt lat="46.577232" lon="13.152342">
        <ele>1409.938</ele>
        <time>2018-09-08T05:41:10Z</time>
      </trkpt>
      <trkpt lat="46.577286" lon="13.152309">
        <ele>1409.923</ele>
        <time>2018-09-08T05:41:11Z</time>
      </trkpt>
      <trkpt lat="46.577336" lon="13.152266">
        <ele>1409.441</ele>
        <time>2018-09-08T05:41:12Z</time>
      </trkpt>
      <trkpt lat="46.577375" lon="13.152207">
        <ele>1409.443</ele>
        <time>2018-09-08T05:41:13Z</time>
      </trkpt>
      <trkpt lat="46.577401" lon="13.152133">
        <ele>1408.918</ele>
        <time>2018-09-08T05:41:14Z</time>
      </trkpt>
      <trkpt lat="46.577408" lon="13.152067">
        <ele>1408.498</ele>
        <time>2018-09-08T05:41:15Z</time>
      </trkpt>
      <trkpt lat="46.577404" lon="13.151992">
        <ele>1408.417</ele>
        <time>2018-09-08T05:41:16Z</time>
      </trkpt>
      <trkpt lat="46.577391" lon="13.151921">
        <ele>1407.908</ele>
        <time>2018-09-08T05:41:17Z</time>
      </trkpt>
      <trkpt lat="46.577365" lon="13.151793">
        <ele>1407.595</ele>
        <time>2018-09-08T05:41:19Z</time>
      </trkpt>
      <trkpt lat="46.577338" lon="13.151738">
        <ele>1407.087</ele>
        <time>2018-09-08T05:41:20Z</time>
      </trkpt>
      <trkpt lat="46.577300" lon="13.151694">
        <ele>1406.595</ele>
        <time>2018-09-08T05:41:21Z</time>
      </trkpt>
      <trkpt lat="46.577254" lon="13.151653">
        <ele>1406.574</ele>
        <time>2018-09-08T05:41:22Z</time>
      </trkpt>
      <trkpt lat="46.577205" lon="13.151621">
        <ele>1406.078</ele>
        <time>2018-09-08T05:41:23Z</time>
      </trkpt>
      <trkpt lat="46.577112" lon="13.151550">
        <ele>1405.113</ele>
        <time>2018-09-08T05:41:25Z</time>
      </trkpt>
      <trkpt lat="46.577070" lon="13.151502">
        <ele>1404.671</ele>
        <time>2018-09-08T05:41:26Z</time>
      </trkpt>
      <trkpt lat="46.577031" lon="13.151448">
        <ele>1404.183</ele>
        <time>2018-09-08T05:41:27Z</time>
      </trkpt>
      <trkpt lat="46.576992" lon="13.151390">
        <ele>1403.669</ele>
        <time>2018-09-08T05:41:28Z</time>
      </trkpt>
      <trkpt lat="46.576950" lon="13.151331">
        <ele>1403.104</ele>
        <time>2018-09-08T05:41:29Z</time>
      </trkpt>
      <trkpt lat="46.576904" lon="13.151278">
        <ele>1402.224</ele>
        <time>2018-09-08T05:41:30Z</time>
      </trkpt>
      <trkpt lat="46.576853" lon="13.151232">
        <ele>1401.708</ele>
        <time>2018-09-08T05:41:31Z</time>
      </trkpt>
      <trkpt lat="46.576802" lon="13.151193">
        <ele>1400.710</ele>
        <time>2018-09-08T05:41:32Z</time>
      </trkpt>
      <trkpt lat="46.576752" lon="13.151163">
        <ele>1400.392</ele>
        <time>2018-09-08T05:41:33Z</time>
      </trkpt>
      <trkpt lat="46.576701" lon="13.151136">
        <ele>1399.880</ele>
        <time>2018-09-08T05:41:34Z</time>
      </trkpt>
      <trkpt lat="46.576650" lon="13.151115">
        <ele>1398.889</ele>
        <time>2018-09-08T05:41:35Z</time>
      </trkpt>
      <trkpt lat="46.576599" lon="13.151101">
        <ele>1397.833</ele>
        <time>2018-09-08T05:41:36Z</time>
      </trkpt>
      <trkpt lat="46.576350" lon="13.151041">
        <ele>1394.068</ele>
        <time>2018-09-08T05:41:41Z</time>
      </trkpt>
      <trkpt lat="46.576308" lon="13.151015">
        <ele>1393.046</ele>
        <time>2018-09-08T05:41:42Z</time>
      </trkpt>
      <trkpt lat="46.576219" lon="13.150943">
        <ele>1391.638</ele>
        <time>2018-09-08T05:41:44Z</time>
      </trkpt>
      <trkpt lat="46.576094" lon="13.150807">
        <ele>1389.272</ele>
        <time>2018-09-08T05:41:47Z</time>
      </trkpt>
      <trkpt lat="46.576063" lon="13.150754">
        <ele>1388.713</ele>
        <time>2018-09-08T05:41:48Z</time>
      </trkpt>
      <trkpt lat="46.576038" lon="13.150695">
        <ele>1388.214</ele>
        <time>2018-09-08T05:41:49Z</time>
      </trkpt>
      <trkpt lat="46.576019" lon="13.150628">
        <ele>1387.308</ele>
        <time>2018-09-08T05:41:50Z</time>
      </trkpt>
      <trkpt lat="46.576005" lon="13.150559">
        <ele>1386.841</ele>
        <time>2018-09-08T05:41:51Z</time>
      </trkpt>
      <trkpt lat="46.575996" lon="13.150485">
        <ele>1385.823</ele>
        <time>2018-09-08T05:41:52Z</time>
      </trkpt>
      <trkpt lat="46.575989" lon="13.150413">
        <ele>1385.481</ele>
        <time>2018-09-08T05:41:53Z</time>
      </trkpt>
      <trkpt lat="46.575941" lon="13.150123">
        <ele>1382.990</ele>
        <time>2018-09-08T05:41:57Z</time>
      </trkpt>
      <trkpt lat="46.575917" lon="13.150058">
        <ele>1382.524</ele>
        <time>2018-09-08T05:41:58Z</time>
      </trkpt>
      <trkpt lat="46.575883" lon="13.150004">
        <ele>1381.539</ele>
        <time>2018-09-08T05:41:59Z</time>
      </trkpt>
      <trkpt lat="46.575843" lon="13.149959">
        <ele>1381.047</ele>
        <time>2018-09-08T05:42:00Z</time>
      </trkpt>
      <trkpt lat="46.575798" lon="13.149920">
        <ele>1380.519</ele>
        <time>2018-09-08T05:42:01Z</time>
      </trkpt>
      <trkpt lat="46.575751" lon="13.149881">
        <ele>1380.121</ele>
        <time>2018-09-08T05:42:02Z</time>
      </trkpt>
      <trkpt lat="46.575707" lon="13.149835">
        <ele>1379.641</ele>
        <time>2018-09-08T05:42:03Z</time>
      </trkpt>
      <trkpt lat="46.575669" lon="13.149780">
        <ele>1379.105</ele>
        <time>2018-09-08T05:42:04Z</time>
      </trkpt>
      <trkpt lat="46.575634" lon="13.149716">
        <ele>1379.108</ele>
        <time>2018-09-08T05:42:05Z</time>
      </trkpt>
      <trkpt lat="46.575600" lon="13.149650">
        <ele>1379.126</ele>
        <time>2018-09-08T05:42:06Z</time>
      </trkpt>
      <trkpt lat="46.575530" lon="13.149530">
        <ele>1379.118</ele>
        <time>2018-09-08T05:42:08Z</time>
      </trkpt>
      <trkpt lat="46.575492" lon="13.149487">
        <ele>1379.166</ele>
        <time>2018-09-08T05:42:09Z</time>
      </trkpt>
      <trkpt lat="46.575451" lon="13.149453">
        <ele>1379.125</ele>
        <time>2018-09-08T05:42:10Z</time>
      </trkpt>
      <trkpt lat="46.575409" lon="13.149426">
        <ele>1379.179</ele>
        <time>2018-09-08T05:42:11Z</time>
      </trkpt>
      <trkpt lat="46.575368" lon="13.149398">
        <ele>1379.194</ele>
        <time>2018-09-08T05:42:12Z</time>
      </trkpt>
      <trkpt lat="46.575247" lon="13.149306">
        <ele>1378.162</ele>
        <time>2018-09-08T05:42:15Z</time>
      </trkpt>
      <trkpt lat="46.575215" lon="13.149262">
        <ele>1377.774</ele>
        <time>2018-09-08T05:42:16Z</time>
      </trkpt>
      <trkpt lat="46.575190" lon="13.149202">
        <ele>1377.239</ele>
        <time>2018-09-08T05:42:17Z</time>
      </trkpt>
      <trkpt lat="46.575177" lon="13.149138">
        <ele>1376.701</ele>
        <time>2018-09-08T05:42:18Z</time>
      </trkpt>
      <trkpt lat="46.575174" lon="13.149075">
        <ele>1376.221</ele>
        <time>2018-09-08T05:42:19Z</time>
      </trkpt>
      <trkpt lat="46.575179" lon="13.149015">
        <ele>1375.308</ele>
        <time>2018-09-08T05:42:20Z</time>
      </trkpt>
      <trkpt lat="46.575193" lon="13.148955">
        <ele>1374.377</ele>
        <time>2018-09-08T05:42:21Z</time>
      </trkpt>
      <trkpt lat="46.575211" lon="13.148896">
        <ele>1373.399</ele>
        <time>2018-09-08T05:42:22Z</time>
      </trkpt>
      <trkpt lat="46.575230" lon="13.148837">
        <ele>1372.967</ele>
        <time>2018-09-08T05:42:23Z</time>
      </trkpt>
      <trkpt lat="46.575293" lon="13.148647">
        <ele>1370.076</ele>
        <time>2018-09-08T05:42:26Z</time>
      </trkpt>
      <trkpt lat="46.575380" lon="13.148410">
        <ele>1367.160</ele>
        <time>2018-09-08T05:42:30Z</time>
      </trkpt>
      <trkpt lat="46.575388" lon="13.148349">
        <ele>1366.625</ele>
        <time>2018-09-08T05:42:31Z</time>
      </trkpt>
      <trkpt lat="46.575379" lon="13.148294">
        <ele>1366.133</ele>
        <time>2018-09-08T05:42:32Z</time>
      </trkpt>
      <trkpt lat="46.575355" lon="13.148244">
        <ele>1365.655</ele>
        <time>2018-09-08T05:42:33Z</time>
      </trkpt>
      <trkpt lat="46.575331" lon="13.148193">
        <ele>1365.285</ele>
        <time>2018-09-08T05:42:34Z</time>
      </trkpt>
      <trkpt lat="46.575309" lon="13.148131">
        <ele>1364.789</ele>
        <time>2018-09-08T05:42:35Z</time>
      </trkpt>
      <trkpt lat="46.575295" lon="13.148063">
        <ele>1364.717</ele>
        <time>2018-09-08T05:42:36Z</time>
      </trkpt>
      <trkpt lat="46.575287" lon="13.147993">
        <ele>1364.208</ele>
        <time>2018-09-08T05:42:37Z</time>
      </trkpt>
      <trkpt lat="46.575283" lon="13.147924">
        <ele>1363.712</ele>
        <time>2018-09-08T05:42:38Z</time>
      </trkpt>
      <trkpt lat="46.575280" lon="13.147858">
        <ele>1363.224</ele>
        <time>2018-09-08T05:42:39Z</time>
      </trkpt>
      <trkpt lat="46.575282" lon="13.147792">
        <ele>1362.822</ele>
        <time>2018-09-08T05:42:40Z</time>
      </trkpt>
      <trkpt lat="46.575289" lon="13.147724">
        <ele>1362.381</ele>
        <time>2018-09-08T05:42:41Z</time>
      </trkpt>
      <trkpt lat="46.575299" lon="13.147656">
        <ele>1361.375</ele>
        <time>2018-09-08T05:42:42Z</time>
      </trkpt>
      <trkpt lat="46.575317" lon="13.147588">
        <ele>1360.410</ele>
        <time>2018-09-08T05:42:43Z</time>
      </trkpt>
      <trkpt lat="46.575341" lon="13.147523">
        <ele>1359.918</ele>
        <time>2018-09-08T05:42:44Z</time>
      </trkpt>
      <trkpt lat="46.575368" lon="13.147464">
        <ele>1359.440</ele>
        <time>2018-09-08T05:42:45Z</time>
      </trkpt>
      <trkpt lat="46.575397" lon="13.147408">
        <ele>1358.971</ele>
        <time>2018-09-08T05:42:46Z</time>
      </trkpt>
      <trkpt lat="46.575449" lon="13.147294">
        <ele>1357.541</ele>
        <time>2018-09-08T05:42:48Z</time>
      </trkpt>
      <trkpt lat="46.575467" lon="13.147231">
        <ele>1357.015</ele>
        <time>2018-09-08T05:42:49Z</time>
      </trkpt>
      <trkpt lat="46.575478" lon="13.147164">
        <ele>1356.008</ele>
        <time>2018-09-08T05:42:50Z</time>
      </trkpt>
      <trkpt lat="46.575480" lon="13.147094">
        <ele>1355.121</ele>
        <time>2018-09-08T05:42:51Z</time>
      </trkpt>
      <trkpt lat="46.575478" lon="13.147025">
        <ele>1354.633</ele>
        <time>2018-09-08T05:42:52Z</time>
      </trkpt>
      <trkpt lat="46.575382" lon="13.146056">
        <ele>1344.561</ele>
        <time>2018-09-08T05:43:06Z</time>
      </trkpt>
      <trkpt lat="46.575358" lon="13.145032">
        <ele>1335.420</ele>
        <time>2018-09-08T05:43:19Z</time>
      </trkpt>
      <trkpt lat="46.575369" lon="13.144957">
        <ele>1334.454</ele>
        <time>2018-09-08T05:43:20Z</time>
      </trkpt>
      <trkpt lat="46.575385" lon="13.144881">
        <ele>1333.449</ele>
        <time>2018-09-08T05:43:21Z</time>
      </trkpt>
      <trkpt lat="46.575438" lon="13.144652">
        <ele>1330.197</ele>
        <time>2018-09-08T05:43:24Z</time>
      </trkpt>
      <trkpt lat="46.575440" lon="13.144568">
        <ele>1328.689</ele>
        <time>2018-09-08T05:43:25Z</time>
      </trkpt>
      <trkpt lat="46.575432" lon="13.144493">
        <ele>1327.786</ele>
        <time>2018-09-08T05:43:26Z</time>
      </trkpt>
      <trkpt lat="46.575415" lon="13.144417">
        <ele>1326.260</ele>
        <time>2018-09-08T05:43:27Z</time>
      </trkpt>
      <trkpt lat="46.575396" lon="13.144346">
        <ele>1325.326</ele>
        <time>2018-09-08T05:43:28Z</time>
      </trkpt>
      <trkpt lat="46.575325" lon="13.144127">
        <ele>1321.908</ele>
        <time>2018-09-08T05:43:31Z</time>
      </trkpt>
      <trkpt lat="46.575292" lon="13.144067">
        <ele>1320.912</ele>
        <time>2018-09-08T05:43:32Z</time>
      </trkpt>
      <trkpt lat="46.575251" lon="13.144016">
        <ele>1320.064</ele>
        <time>2018-09-08T05:43:33Z</time>
      </trkpt>
      <trkpt lat="46.575203" lon="13.143981">
        <ele>1319.062</ele>
        <time>2018-09-08T05:43:34Z</time>
      </trkpt>
      <trkpt lat="46.575153" lon="13.143956">
        <ele>1318.151</ele>
        <time>2018-09-08T05:43:35Z</time>
      </trkpt>
      <trkpt lat="46.575100" lon="13.143934">
        <ele>1317.185</ele>
        <time>2018-09-08T05:43:36Z</time>
      </trkpt>
      <trkpt lat="46.575047" lon="13.143914">
        <ele>1316.160</ele>
        <time>2018-09-08T05:43:37Z</time>
      </trkpt>
      <trkpt lat="46.574999" lon="13.143888">
        <ele>1314.778</ele>
        <time>2018-09-08T05:43:38Z</time>
      </trkpt>
      <trkpt lat="46.574957" lon="13.143856">
        <ele>1313.770</ele>
        <time>2018-09-08T05:43:39Z</time>
      </trkpt>
      <trkpt lat="46.574920" lon="13.143813">
        <ele>1312.874</ele>
        <time>2018-09-08T05:43:40Z</time>
      </trkpt>
      <trkpt lat="46.574889" lon="13.143761">
        <ele>1312.356</ele>
        <time>2018-09-08T05:43:41Z</time>
      </trkpt>
      <trkpt lat="46.574865" lon="13.143695">
        <ele>1311.321</ele>
        <time>2018-09-08T05:43:42Z</time>
      </trkpt>
      <trkpt lat="46.574852" lon="13.143626">
        <ele>1309.908</ele>
        <time>2018-09-08T05:43:43Z</time>
      </trkpt>
      <trkpt lat="46.574846" lon="13.143553">
        <ele>1308.951</ele>
        <time>2018-09-08T05:43:44Z</time>
      </trkpt>
      <trkpt lat="46.574846" lon="13.143482">
        <ele>1308.033</ele>
        <time>2018-09-08T05:43:45Z</time>
      </trkpt>
      <trkpt lat="46.574851" lon="13.143412">
        <ele>1306.581</ele>
        <time>2018-09-08T05:43:46Z</time>
      </trkpt>
      <trkpt lat="46.574860" lon="13.143004">
        <ele>1299.820</ele>
        <time>2018-09-08T05:43:52Z</time>
      </trkpt>
      <trkpt lat="46.574796" lon="13.142548">
        <ele>1291.684</ele>
        <time>2018-09-08T05:43:59Z</time>
      </trkpt>
      <trkpt lat="46.574778" lon="13.142481">
        <ele>1290.229</ele>
        <time>2018-09-08T05:44:00Z</time>
      </trkpt>
      <trkpt lat="46.574761" lon="13.142412">
        <ele>1289.267</ele>
        <time>2018-09-08T05:44:01Z</time>
      </trkpt>
      <trkpt lat="46.574749" lon="13.142339">
        <ele>1287.859</ele>
        <time>2018-09-08T05:44:02Z</time>
      </trkpt>
      <trkpt lat="46.574741" lon="13.142263">
        <ele>1286.835</ele>
        <time>2018-09-08T05:44:03Z</time>
      </trkpt>
      <trkpt lat="46.574741" lon="13.142180">
        <ele>1285.486</ele>
        <time>2018-09-08T05:44:04Z</time>
      </trkpt>
      <trkpt lat="46.574745" lon="13.142096">
        <ele>1283.914</ele>
        <time>2018-09-08T05:44:05Z</time>
      </trkpt>
      <trkpt lat="46.574773" lon="13.141653">
        <ele>1277.208</ele>
        <time>2018-09-08T05:44:10Z</time>
      </trkpt>
      <trkpt lat="46.574793" lon="13.141562">
        <ele>1275.897</ele>
        <time>2018-09-08T05:44:11Z</time>
      </trkpt>
      <trkpt lat="46.574827" lon="13.141470">
        <ele>1273.859</ele>
        <time>2018-09-08T05:44:12Z</time>
      </trkpt>
      <trkpt lat="46.574872" lon="13.141386">
        <ele>1272.467</ele>
        <time>2018-09-08T05:44:13Z</time>
      </trkpt>
      <trkpt lat="46.574919" lon="13.141310">
        <ele>1271.076</ele>
        <time>2018-09-08T05:44:14Z</time>
      </trkpt>
      <trkpt lat="46.575061" lon="13.141100">
        <ele>1265.720</ele>
        <time>2018-09-08T05:44:17Z</time>
      </trkpt>
      <trkpt lat="46.575102" lon="13.141026">
        <ele>1263.765</ele>
        <time>2018-09-08T05:44:18Z</time>
      </trkpt>
      <trkpt lat="46.575511" lon="13.140154">
        <ele>1251.283</ele>
        <time>2018-09-08T05:44:26Z</time>
      </trkpt>
      <trkpt lat="46.575978" lon="13.139216">
        <ele>1236.385</ele>
        <time>2018-09-08T05:44:37Z</time>
      </trkpt>
      <trkpt lat="46.575999" lon="13.139117">
        <ele>1234.926</ele>
        <time>2018-09-08T05:44:38Z</time>
      </trkpt>
      <trkpt lat="46.576008" lon="13.139015">
        <ele>1233.947</ele>
        <time>2018-09-08T05:44:39Z</time>
      </trkpt>
      <trkpt lat="46.576015" lon="13.138912">
        <ele>1233.011</ele>
        <time>2018-09-08T05:44:40Z</time>
      </trkpt>
      <trkpt lat="46.576033" lon="13.138813">
        <ele>1232.008</ele>
        <time>2018-09-08T05:44:41Z</time>
      </trkpt>
      <trkpt lat="46.576060" lon="13.138719">
        <ele>1230.626</ele>
        <time>2018-09-08T05:44:42Z</time>
      </trkpt>
      <trkpt lat="46.576096" lon="13.138637">
        <ele>1229.648</ele>
        <time>2018-09-08T05:44:43Z</time>
      </trkpt>
      <trkpt lat="46.576138" lon="13.138568">
        <ele>1228.766</ele>
        <time>2018-09-08T05:44:44Z</time>
      </trkpt>
      <trkpt lat="46.576180" lon="13.138499">
        <ele>1227.235</ele>
        <time>2018-09-08T05:44:45Z</time>
      </trkpt>
      <trkpt lat="46.576222" lon="13.138426">
        <ele>1226.389</ele>
        <time>2018-09-08T05:44:46Z</time>
      </trkpt>
      <trkpt lat="46.576386" lon="13.138137">
        <ele>1221.934</ele>
        <time>2018-09-08T05:44:50Z</time>
      </trkpt>
      <trkpt lat="46.576412" lon="13.138049">
        <ele>1221.082</ele>
        <time>2018-09-08T05:44:51Z</time>
      </trkpt>
      <trkpt lat="46.576455" lon="13.137882">
        <ele>1219.594</ele>
        <time>2018-09-08T05:44:53Z</time>
      </trkpt>
      <trkpt lat="46.576484" lon="13.137820">
        <ele>1219.024</ele>
        <time>2018-09-08T05:44:54Z</time>
      </trkpt>
      <trkpt lat="46.576515" lon="13.137766">
        <ele>1219.004</ele>
        <time>2018-09-08T05:44:55Z</time>
      </trkpt>
      <trkpt lat="46.576545" lon="13.137720">
        <ele>1218.614</ele>
        <time>2018-09-08T05:44:56Z</time>
      </trkpt>
      <trkpt lat="46.576572" lon="13.137682">
        <ele>1218.108</ele>
        <time>2018-09-08T05:44:57Z</time>
      </trkpt>
      <trkpt lat="46.576862" lon="13.137357">
        <ele>1217.646</ele>
        <time>2018-09-08T05:45:07Z</time>
      </trkpt>
      <trkpt lat="46.576909" lon="13.137338">
        <ele>1217.648</ele>
        <time>2018-09-08T05:45:08Z</time>
      </trkpt>
      <trkpt lat="46.577062" lon="13.137269">
        <ele>1218.626</ele>
        <time>2018-09-08T05:45:11Z</time>
      </trkpt>
      <trkpt lat="46.577114" lon="13.137231">
        <ele>1218.675</ele>
        <time>2018-09-08T05:45:12Z</time>
      </trkpt>
      <trkpt lat="46.577166" lon="13.137189">
        <ele>1218.659</ele>
        <time>2018-09-08T05:45:13Z</time>
      </trkpt>
      <trkpt lat="46.577258" lon="13.137111">
        <ele>1218.694</ele>
        <time>2018-09-08T05:45:15Z</time>
      </trkpt>
      <trkpt lat="46.577314" lon="13.137096">
        <ele>1218.692</ele>
        <time>2018-09-08T05:45:16Z</time>
      </trkpt>
      <trkpt lat="46.577375" lon="13.137081">
        <ele>1218.624</ele>
        <time>2018-09-08T05:45:17Z</time>
      </trkpt>
      <trkpt lat="46.577439" lon="13.137056">
        <ele>1218.629</ele>
        <time>2018-09-08T05:45:18Z</time>
      </trkpt>
      <trkpt lat="46.577502" lon="13.137016">
        <ele>1218.600</ele>
        <time>2018-09-08T05:45:19Z</time>
      </trkpt>
      <trkpt lat="46.577564" lon="13.136967">
        <ele>1218.620</ele>
        <time>2018-09-08T05:45:20Z</time>
      </trkpt>
      <trkpt lat="46.577627" lon="13.136908">
        <ele>1218.608</ele>
        <time>2018-09-08T05:45:21Z</time>
      </trkpt>
      <trkpt lat="46.577685" lon="13.136848">
        <ele>1218.196</ele>
        <time>2018-09-08T05:45:22Z</time>
      </trkpt>
      <trkpt lat="46.577745" lon="13.136777">
        <ele>1218.128</ele>
        <time>2018-09-08T05:45:23Z</time>
      </trkpt>
      <trkpt lat="46.577797" lon="13.136711">
        <ele>1217.656</ele>
        <time>2018-09-08T05:45:24Z</time>
      </trkpt>
      <trkpt lat="46.577850" lon="13.136660">
        <ele>1217.625</ele>
        <time>2018-09-08T05:45:25Z</time>
      </trkpt>
      <trkpt lat="46.577907" lon="13.136623">
        <ele>1217.179</ele>
        <time>2018-09-08T05:45:26Z</time>
      </trkpt>
      <trkpt lat="46.577967" lon="13.136591">
        <ele>1216.614</ele>
        <time>2018-09-08T05:45:27Z</time>
      </trkpt>
      <trkpt lat="46.578171" lon="13.136476">
        <ele>1215.712</ele>
        <time>2018-09-08T05:45:30Z</time>
      </trkpt>
      <trkpt lat="46.578232" lon="13.136413">
        <ele>1215.774</ele>
        <time>2018-09-08T05:45:31Z</time>
      </trkpt>
      <trkpt lat="46.578277" lon="13.136337">
        <ele>1215.767</ele>
        <time>2018-09-08T05:45:32Z</time>
      </trkpt>
      <trkpt lat="46.578302" lon="13.136255">
        <ele>1215.781</ele>
        <time>2018-09-08T05:45:33Z</time>
      </trkpt>
      <trkpt lat="46.578302" lon="13.136171">
        <ele>1215.719</ele>
        <time>2018-09-08T05:45:34Z</time>
      </trkpt>
      <trkpt lat="46.578279" lon="13.136090">
        <ele>1216.208</ele>
        <time>2018-09-08T05:45:35Z</time>
      </trkpt>
      <trkpt lat="46.578249" lon="13.136008">
        <ele>1217.120</ele>
        <time>2018-09-08T05:45:36Z</time>
      </trkpt>
      <trkpt lat="46.578234" lon="13.135920">
        <ele>1218.182</ele>
        <time>2018-09-08T05:45:37Z</time>
      </trkpt>
      <trkpt lat="46.578227" lon="13.135844">
        <ele>1218.180</ele>
        <time>2018-09-08T05:45:38Z</time>
      </trkpt>
      <trkpt lat="46.578231" lon="13.135749">
        <ele>1218.619</ele>
        <time>2018-09-08T05:45:39Z</time>
      </trkpt>
      <trkpt lat="46.578237" lon="13.135653">
        <ele>1218.673</ele>
        <time>2018-09-08T05:45:40Z</time>
      </trkpt>
      <trkpt lat="46.578247" lon="13.135556">
        <ele>1219.068</ele>
        <time>2018-09-08T05:45:41Z</time>
      </trkpt>
      <trkpt lat="46.578266" lon="13.135455">
        <ele>1219.016</ele>
        <time>2018-09-08T05:45:42Z</time>
      </trkpt>
      <trkpt lat="46.578292" lon="13.135346">
        <ele>1218.678</ele>
        <time>2018-09-08T05:45:43Z</time>
      </trkpt>
      <trkpt lat="46.578381" lon="13.135027">
        <ele>1218.162</ele>
        <time>2018-09-08T05:45:46Z</time>
      </trkpt>
      <trkpt lat="46.578863" lon="13.133979">
        <ele>1215.783</ele>
        <time>2018-09-08T05:45:56Z</time>
      </trkpt>
      <trkpt lat="46.578922" lon="13.133765">
        <ele>1215.211</ele>
        <time>2018-09-08T05:45:58Z</time>
      </trkpt>
      <trkpt lat="46.578972" lon="13.133555">
        <ele>1214.208</ele>
        <time>2018-09-08T05:46:00Z</time>
      </trkpt>
      <trkpt lat="46.579053" lon="13.133338">
        <ele>1213.880</ele>
        <time>2018-09-08T05:46:02Z</time>
      </trkpt>
      <trkpt lat="46.579321" lon="13.132631">
        <ele>1213.362</ele>
        <time>2018-09-08T05:46:07Z</time>
      </trkpt>
      <trkpt lat="46.579382" lon="13.132506">
        <ele>1212.870</ele>
        <time>2018-09-08T05:46:08Z</time>
      </trkpt>
      <trkpt lat="46.579452" lon="13.132379">
        <ele>1212.839</ele>
        <time>2018-09-08T05:46:09Z</time>
      </trkpt>
      <trkpt lat="46.579911" lon="13.131550">
        <ele>1209.453</ele>
        <time>2018-09-08T05:46:15Z</time>
      </trkpt>
      <trkpt lat="46.579943" lon="13.131444">
        <ele>1208.518</ele>
        <time>2018-09-08T05:46:16Z</time>
      </trkpt>
      <trkpt lat="46.579961" lon="13.131347">
        <ele>1208.026</ele>
        <time>2018-09-08T05:46:17Z</time>
      </trkpt>
      <trkpt lat="46.579978" lon="13.131247">
        <ele>1207.558</ele>
        <time>2018-09-08T05:46:18Z</time>
      </trkpt>
      <trkpt lat="46.580000" lon="13.131148">
        <ele>1206.567</ele>
        <time>2018-09-08T05:46:19Z</time>
      </trkpt>
      <trkpt lat="46.580046" lon="13.130954">
        <ele>1206.181</ele>
        <time>2018-09-08T05:46:21Z</time>
      </trkpt>
      <trkpt lat="46.580055" lon="13.130848">
        <ele>1205.619</ele>
        <time>2018-09-08T05:46:22Z</time>
      </trkpt>
      <trkpt lat="46.580054" lon="13.130736">
        <ele>1205.108</ele>
        <time>2018-09-08T05:46:23Z</time>
      </trkpt>
      <trkpt lat="46.580036" lon="13.130342">
        <ele>1202.730</ele>
        <time>2018-09-08T05:46:27Z</time>
      </trkpt>
      <trkpt lat="46.580040" lon="13.130252">
        <ele>1201.782</ele>
        <time>2018-09-08T05:46:28Z</time>
      </trkpt>
      <trkpt lat="46.580053" lon="13.130164">
        <ele>1201.340</ele>
        <time>2018-09-08T05:46:29Z</time>
      </trkpt>
      <trkpt lat="46.580065" lon="13.130083">
        <ele>1200.859</ele>
        <time>2018-09-08T05:46:30Z</time>
      </trkpt>
      <trkpt lat="46.580075" lon="13.130004">
        <ele>1200.833</ele>
        <time>2018-09-08T05:46:31Z</time>
      </trkpt>
      <trkpt lat="46.580083" lon="13.129917">
        <ele>1200.338</ele>
        <time>2018-09-08T05:46:32Z</time>
      </trkpt>
      <trkpt lat="46.580082" lon="13.129340">
        <ele>1197.446</ele>
        <time>2018-09-08T05:46:38Z</time>
      </trkpt>
      <trkpt lat="46.580078" lon="13.129242">
        <ele>1196.598</ele>
        <time>2018-09-08T05:46:39Z</time>
      </trkpt>
      <trkpt lat="46.580077" lon="13.128666">
        <ele>1194.031</ele>
        <time>2018-09-08T05:46:45Z</time>
      </trkpt>
      <trkpt lat="46.580095" lon="13.128574">
        <ele>1193.161</ele>
        <time>2018-09-08T05:46:46Z</time>
      </trkpt>
      <trkpt lat="46.580126" lon="13.128477">
        <ele>1192.107</ele>
        <time>2018-09-08T05:46:47Z</time>
      </trkpt>
      <trkpt lat="46.580159" lon="13.128385">
        <ele>1190.708</ele>
        <time>2018-09-08T05:46:48Z</time>
      </trkpt>
      <trkpt lat="46.580188" lon="13.128296">
        <ele>1189.247</ele>
        <time>2018-09-08T05:46:49Z</time>
      </trkpt>
      <trkpt lat="46.580206" lon="13.128197">
        <ele>1187.829</ele>
        <time>2018-09-08T05:46:50Z</time>
      </trkpt>
      <trkpt lat="46.580219" lon="13.128094">
        <ele>1186.427</ele>
        <time>2018-09-08T05:46:51Z</time>
      </trkpt>
      <trkpt lat="46.580236" lon="13.127993">
        <ele>1184.456</ele>
        <time>2018-09-08T05:46:52Z</time>
      </trkpt>
      <trkpt lat="46.580323" lon="13.127471">
        <ele>1175.810</ele>
        <time>2018-09-08T05:46:57Z</time>
      </trkpt>
      <trkpt lat="46.580335" lon="13.127357">
        <ele>1174.385</ele>
        <time>2018-09-08T05:46:58Z</time>
      </trkpt>
      <trkpt lat="46.580350" lon="13.127228">
        <ele>1172.443</ele>
        <time>2018-09-08T05:46:59Z</time>
      </trkpt>
      <trkpt lat="46.580399" lon="13.127060">
        <ele>1162.855</ele>
        <time>2018-09-08T05:47:00Z</time>
      </trkpt>
      <trkpt lat="46.580414" lon="13.126922">
        <ele>1158.092</ele>
        <time>2018-09-08T05:47:01Z</time>
      </trkpt>
      <trkpt lat="46.580417" lon="13.126085">
        <ele>1139.373</ele>
        <time>2018-09-08T05:47:08Z</time>
      </trkpt>
      <trkpt lat="46.580585" lon="13.124585">
        <ele>1116.220</ele>
        <time>2018-09-08T05:47:23Z</time>
      </trkpt>
      <trkpt lat="46.580384" lon="13.123092">
        <ele>1102.208</ele>
        <time>2018-09-08T05:47:36Z</time>
      </trkpt>
      <trkpt lat="46.580296" lon="13.122660">
        <ele>1099.873</ele>
        <time>2018-09-08T05:47:40Z</time>
      </trkpt>
      <trkpt lat="46.580280" lon="13.120891">
        <ele>1092.215</ele>
        <time>2018-09-08T05:47:55Z</time>
      </trkpt>
      <trkpt lat="46.580309" lon="13.120782">
        <ele>1091.773</ele>
        <time>2018-09-08T05:47:56Z</time>
      </trkpt>
      <trkpt lat="46.580379" lon="13.120564">
        <ele>1090.782</ele>
        <time>2018-09-08T05:47:58Z</time>
      </trkpt>
      <trkpt lat="46.580402" lon="13.120448">
        <ele>1090.276</ele>
        <time>2018-09-08T05:47:59Z</time>
      </trkpt>
      <trkpt lat="46.580411" lon="13.120328">
        <ele>1089.791</ele>
        <time>2018-09-08T05:48:00Z</time>
      </trkpt>
      <trkpt lat="46.580409" lon="13.120203">
        <ele>1089.369</ele>
        <time>2018-09-08T05:48:01Z</time>
      </trkpt>
      <trkpt lat="46.580403" lon="13.120080">
        <ele>1088.851</ele>
        <time>2018-09-08T05:48:02Z</time>
      </trkpt>
      <trkpt lat="46.580386" lon="13.119417">
        <ele>1085.995</ele>
        <time>2018-09-08T05:48:08Z</time>
      </trkpt>
      <trkpt lat="46.580409" lon="13.119338">
        <ele>1085.449</ele>
        <time>2018-09-08T05:48:09Z</time>
      </trkpt>
      <trkpt lat="46.580457" lon="13.119288">
        <ele>1085.423</ele>
        <time>2018-09-08T05:48:10Z</time>
      </trkpt>
      <trkpt lat="46.580518" lon="13.119267">
        <ele>1084.908</ele>
        <time>2018-09-08T05:48:11Z</time>
      </trkpt>
      <trkpt lat="46.580581" lon="13.119255">
        <ele>1084.993</ele>
        <time>2018-09-08T05:48:12Z</time>
      </trkpt>
      <trkpt lat="46.580818" lon="13.119205">
        <ele>1084.085</ele>
        <time>2018-09-08T05:48:16Z</time>
      </trkpt>
      <trkpt lat="46.580855" lon="13.119168">
        <ele>1084.033</ele>
        <time>2018-09-08T05:48:17Z</time>
      </trkpt>
      <trkpt lat="46.580877" lon="13.119108">
        <ele>1083.542</ele>
        <time>2018-09-08T05:48:18Z</time>
      </trkpt>
      <trkpt lat="46.580876" lon="13.119044">
        <ele>1083.546</ele>
        <time>2018-09-08T05:48:19Z</time>
      </trkpt>
      <trkpt lat="46.580853" lon="13.118991">
        <ele>1083.571</ele>
        <time>2018-09-08T05:48:20Z</time>
      </trkpt>
      <trkpt lat="46.580819" lon="13.118952">
        <ele>1083.599</ele>
        <time>2018-09-08T05:48:21Z</time>
      </trkpt>
      <trkpt lat="46.580784" lon="13.118918">
        <ele>1083.541</ele>
        <time>2018-09-08T05:48:22Z</time>
      </trkpt>
      <trkpt lat="46.580160" lon="13.118525">
        <ele>1078.269</ele>
        <time>2018-09-08T05:48:35Z</time>
      </trkpt>
      <trkpt lat="46.580112" lon="13.118472">
        <ele>1077.204</ele>
        <time>2018-09-08T05:48:36Z</time>
      </trkpt>
      <trkpt lat="46.580074" lon="13.118404">
        <ele>1076.324</ele>
        <time>2018-09-08T05:48:37Z</time>
      </trkpt>
      <trkpt lat="46.580048" lon="13.118327">
        <ele>1075.808</ele>
        <time>2018-09-08T05:48:38Z</time>
      </trkpt>
      <trkpt lat="46.580034" lon="13.118239">
        <ele>1074.440</ele>
        <time>2018-09-08T05:48:39Z</time>
      </trkpt>
      <trkpt lat="46.580029" lon="13.118143">
        <ele>1073.472</ele>
        <time>2018-09-08T05:48:40Z</time>
      </trkpt>
      <trkpt lat="46.580026" lon="13.118045">
        <ele>1072.090</ele>
        <time>2018-09-08T05:48:41Z</time>
      </trkpt>
      <trkpt lat="46.579956" lon="13.116914">
        <ele>1056.159</ele>
        <time>2018-09-08T05:48:52Z</time>
      </trkpt>
      <trkpt lat="46.579962" lon="13.116817">
        <ele>1055.183</ele>
        <time>2018-09-08T05:48:53Z</time>
      </trkpt>
      <trkpt lat="46.580048" lon="13.116247">
        <ele>1048.418</ele>
        <time>2018-09-08T05:48:59Z</time>
      </trkpt>
      <trkpt lat="46.580045" lon="13.116147">
        <ele>1047.486</ele>
        <time>2018-09-08T05:49:00Z</time>
      </trkpt>
      <trkpt lat="46.580033" lon="13.116046">
        <ele>1046.558</ele>
        <time>2018-09-08T05:49:01Z</time>
      </trkpt>
      <trkpt lat="46.580010" lon="13.115950">
        <ele>1045.551</ele>
        <time>2018-09-08T05:49:02Z</time>
      </trkpt>
      <trkpt lat="46.579976" lon="13.115860">
        <ele>1044.101</ele>
        <time>2018-09-08T05:49:03Z</time>
      </trkpt>
      <trkpt lat="46.579935" lon="13.115773">
        <ele>1043.111</ele>
        <time>2018-09-08T05:49:04Z</time>
      </trkpt>
      <trkpt lat="46.579789" lon="13.115403">
        <ele>1038.308</ele>
        <time>2018-09-08T05:49:08Z</time>
      </trkpt>
      <trkpt lat="46.579772" lon="13.115299">
        <ele>1036.949</ele>
        <time>2018-09-08T05:49:09Z</time>
      </trkpt>
      <trkpt lat="46.579761" lon="13.115189">
        <ele>1035.931</ele>
        <time>2018-09-08T05:49:10Z</time>
      </trkpt>
      <trkpt lat="46.579735" lon="13.114704">
        <ele>1030.629</ele>
        <time>2018-09-08T05:49:15Z</time>
      </trkpt>
      <trkpt lat="46.579721" lon="13.114639">
        <ele>1029.788</ele>
        <time>2018-09-08T05:49:16Z</time>
      </trkpt>
      <trkpt lat="46.579695" lon="13.114575">
        <ele>1028.712</ele>
        <time>2018-09-08T05:49:17Z</time>
      </trkpt>
      <trkpt lat="46.579659" lon="13.114523">
        <ele>1027.757</ele>
        <time>2018-09-08T05:49:18Z</time>
      </trkpt>
      <trkpt lat="46.579610" lon="13.114492">
        <ele>1027.375</ele>
        <time>2018-09-08T05:49:19Z</time>
      </trkpt>
      <trkpt lat="46.579549" lon="13.114470">
        <ele>1026.317</ele>
        <time>2018-09-08T05:49:20Z</time>
      </trkpt>
      <trkpt lat="46.579370" lon="13.114364">
        <ele>1023.935</ele>
        <time>2018-09-08T05:49:23Z</time>
      </trkpt>
      <trkpt lat="46.579312" lon="13.114313">
        <ele>1022.986</ele>
        <time>2018-09-08T05:49:24Z</time>
      </trkpt>
      <trkpt lat="46.579254" lon="13.114254">
        <ele>1022.014</ele>
        <time>2018-09-08T05:49:25Z</time>
      </trkpt>
      <trkpt lat="46.579200" lon="13.114191">
        <ele>1021.508</ele>
        <time>2018-09-08T05:49:26Z</time>
      </trkpt>
      <trkpt lat="46.579161" lon="13.114130">
        <ele>1020.587</ele>
        <time>2018-09-08T05:49:27Z</time>
      </trkpt>
      <trkpt lat="46.579129" lon="13.114054">
        <ele>1020.189</ele>
        <time>2018-09-08T05:49:28Z</time>
      </trkpt>
      <trkpt lat="46.579111" lon="13.113961">
        <ele>1019.167</ele>
        <time>2018-09-08T05:49:29Z</time>
      </trkpt>
      <trkpt lat="46.579102" lon="13.113855">
        <ele>1018.166</ele>
        <time>2018-09-08T05:49:30Z</time>
      </trkpt>
      <trkpt lat="46.579098" lon="13.113760">
        <ele>1017.660</ele>
        <time>2018-09-08T05:49:31Z</time>
      </trkpt>
      <trkpt lat="46.579097" lon="13.113671">
        <ele>1016.795</ele>
        <time>2018-09-08T05:49:32Z</time>
      </trkpt>
      <trkpt lat="46.579075" lon="13.113293">
        <ele>1013.393</ele>
        <time>2018-09-08T05:49:36Z</time>
      </trkpt>
      <trkpt lat="46.579046" lon="13.113222">
        <ele>1012.475</ele>
        <time>2018-09-08T05:49:37Z</time>
      </trkpt>
      <trkpt lat="46.579000" lon="13.113181">
        <ele>1011.458</ele>
        <time>2018-09-08T05:49:38Z</time>
      </trkpt>
      <trkpt lat="46.578946" lon="13.113186">
        <ele>1010.952</ele>
        <time>2018-09-08T05:49:39Z</time>
      </trkpt>
      <trkpt lat="46.578894" lon="13.113234">
        <ele>1010.417</ele>
        <time>2018-09-08T05:49:40Z</time>
      </trkpt>
      <trkpt lat="46.578853" lon="13.113304">
        <ele>1010.008</ele>
        <time>2018-09-08T05:49:41Z</time>
      </trkpt>
      <trkpt lat="46.578819" lon="13.113379">
        <ele>1009.529</ele>
        <time>2018-09-08T05:49:42Z</time>
      </trkpt>
      <trkpt lat="46.578786" lon="13.113460">
        <ele>1008.561</ele>
        <time>2018-09-08T05:49:43Z</time>
      </trkpt>
      <trkpt lat="46.578666" lon="13.113755">
        <ele>1006.169</ele>
        <time>2018-09-08T05:49:47Z</time>
      </trkpt>
      <trkpt lat="46.578646" lon="13.113841">
        <ele>1005.678</ele>
        <time>2018-09-08T05:49:48Z</time>
      </trkpt>
      <trkpt lat="46.578630" lon="13.113933">
        <ele>1004.772</ele>
        <time>2018-09-08T05:49:49Z</time>
      </trkpt>
      <trkpt lat="46.578617" lon="13.114029">
        <ele>1003.767</ele>
        <time>2018-09-08T05:49:50Z</time>
      </trkpt>
      <trkpt lat="46.578606" lon="13.114131">
        <ele>1002.725</ele>
        <time>2018-09-08T05:49:51Z</time>
      </trkpt>
      <trkpt lat="46.578576" lon="13.114409">
        <ele>1000.327</ele>
        <time>2018-09-08T05:49:54Z</time>
      </trkpt>
      <trkpt lat="46.578549" lon="13.114479">
        <ele>999.955</ele>
        <time>2018-09-08T05:49:55Z</time>
      </trkpt>
      <trkpt lat="46.578507" lon="13.114511">
        <ele>998.907</ele>
        <time>2018-09-08T05:49:56Z</time>
      </trkpt>
      <trkpt lat="46.578464" lon="13.114498">
        <ele>998.417</ele>
        <time>2018-09-08T05:49:57Z</time>
      </trkpt>
      <trkpt lat="46.578431" lon="13.114449">
        <ele>997.908</ele>
        <time>2018-09-08T05:49:58Z</time>
      </trkpt>
      <trkpt lat="46.578407" lon="13.114382">
        <ele>997.569</ele>
        <time>2018-09-08T05:49:59Z</time>
      </trkpt>
      <trkpt lat="46.578387" lon="13.114311">
        <ele>997.081</ele>
        <time>2018-09-08T05:50:00Z</time>
      </trkpt>
      <trkpt lat="46.578363" lon="13.114237">
        <ele>996.069</ele>
        <time>2018-09-08T05:50:01Z</time>
      </trkpt>
      <trkpt lat="46.578137" lon="13.113682">
        <ele>990.738</ele>
        <time>2018-09-08T05:50:08Z</time>
      </trkpt>
      <trkpt lat="46.578085" lon="13.113642">
        <ele>989.852</ele>
        <time>2018-09-08T05:50:09Z</time>
      </trkpt>
      <trkpt lat="46.578027" lon="13.113638">
        <ele>989.377</ele>
        <time>2018-09-08T05:50:10Z</time>
      </trkpt>
      <trkpt lat="46.577966" lon="13.113659">
        <ele>988.385</ele>
        <time>2018-09-08T05:50:11Z</time>
      </trkpt>
      <trkpt lat="46.577905" lon="13.113690">
        <ele>987.817</ele>
        <time>2018-09-08T05:50:12Z</time>
      </trkpt>
      <trkpt lat="46.577726" lon="13.113786">
        <ele>985.451</ele>
        <time>2018-09-08T05:50:15Z</time>
      </trkpt>
      <trkpt lat="46.577682" lon="13.113779">
        <ele>985.001</ele>
        <time>2018-09-08T05:50:16Z</time>
      </trkpt>
      <trkpt lat="46.577652" lon="13.113738">
        <ele>984.511</ele>
        <time>2018-09-08T05:50:17Z</time>
      </trkpt>
      <trkpt lat="46.577647" lon="13.113675">
        <ele>984.008</ele>
        <time>2018-09-08T05:50:18Z</time>
      </trkpt>
      <trkpt lat="46.577666" lon="13.113616">
        <ele>983.559</ele>
        <time>2018-09-08T05:50:19Z</time>
      </trkpt>
      <trkpt lat="46.577698" lon="13.113553">
        <ele>983.021</ele>
        <time>2018-09-08T05:50:20Z</time>
      </trkpt>
      <trkpt lat="46.577723" lon="13.113487">
        <ele>982.149</ele>
        <time>2018-09-08T05:50:21Z</time>
      </trkpt>
      <trkpt lat="46.577727" lon="13.113418">
        <ele>981.688</ele>
        <time>2018-09-08T05:50:22Z</time>
      </trkpt>
      <trkpt lat="46.577707" lon="13.113362">
        <ele>981.132</ele>
        <time>2018-09-08T05:50:23Z</time>
      </trkpt>
      <trkpt lat="46.577668" lon="13.113329">
        <ele>980.227</ele>
        <time>2018-09-08T05:50:24Z</time>
      </trkpt>
      <trkpt lat="46.577619" lon="13.113327">
        <ele>979.255</ele>
        <time>2018-09-08T05:50:25Z</time>
      </trkpt>
      <trkpt lat="46.577572" lon="13.113360">
        <ele>978.797</ele>
        <time>2018-09-08T05:50:26Z</time>
      </trkpt>
      <trkpt lat="46.577535" lon="13.113417">
        <ele>978.251</ele>
        <time>2018-09-08T05:50:27Z</time>
      </trkpt>
      <trkpt lat="46.577508" lon="13.113489">
        <ele>977.301</ele>
        <time>2018-09-08T05:50:28Z</time>
      </trkpt>
      <trkpt lat="46.577492" lon="13.113566">
        <ele>976.811</ele>
        <time>2018-09-08T05:50:29Z</time>
      </trkpt>
      <trkpt lat="46.577473" lon="13.113643">
        <ele>975.808</ele>
        <time>2018-09-08T05:50:30Z</time>
      </trkpt>
      <trkpt lat="46.577441" lon="13.113715">
        <ele>975.369</ele>
        <time>2018-09-08T05:50:31Z</time>
      </trkpt>
      <trkpt lat="46.577394" lon="13.113772">
        <ele>974.941</ele>
        <time>2018-09-08T05:50:32Z</time>
      </trkpt>
      <trkpt lat="46.577341" lon="13.113814">
        <ele>974.419</ele>
        <time>2018-09-08T05:50:33Z</time>
      </trkpt>
      <trkpt lat="46.577284" lon="13.113846">
        <ele>973.948</ele>
        <time>2018-09-08T05:50:34Z</time>
      </trkpt>
      <trkpt lat="46.577228" lon="13.113871">
        <ele>973.992</ele>
        <time>2018-09-08T05:50:35Z</time>
      </trkpt>
      <trkpt lat="46.577175" lon="13.113885">
        <ele>973.997</ele>
        <time>2018-09-08T05:50:36Z</time>
      </trkpt>
      <trkpt lat="46.577124" lon="13.113883">
        <ele>973.445</ele>
        <time>2018-09-08T05:50:37Z</time>
      </trkpt>
      <trkpt lat="46.577075" lon="13.113866">
        <ele>973.937</ele>
        <time>2018-09-08T05:50:38Z</time>
      </trkpt>
      <trkpt lat="46.577031" lon="13.113837">
        <ele>973.997</ele>
        <time>2018-09-08T05:50:39Z</time>
      </trkpt>
      <trkpt lat="46.576990" lon="13.113804">
        <ele>973.923</ele>
        <time>2018-09-08T05:50:40Z</time>
      </trkpt>
      <trkpt lat="46.576952" lon="13.113769">
        <ele>974.425</ele>
        <time>2018-09-08T05:50:41Z</time>
      </trkpt>
      <trkpt lat="46.576917" lon="13.113733">
        <ele>974.408</ele>
        <time>2018-09-08T05:50:42Z</time>
      </trkpt>
      <trkpt lat="46.576888" lon="13.113693">
        <ele>974.483</ele>
        <time>2018-09-08T05:50:43Z</time>
      </trkpt>
      <trkpt lat="46.576865" lon="13.113649">
        <ele>974.415</ele>
        <time>2018-09-08T05:50:44Z</time>
      </trkpt>
      <trkpt lat="46.576849" lon="13.113602">
        <ele>974.493</ele>
        <time>2018-09-08T05:50:45Z</time>
      </trkpt>
      <trkpt lat="46.576834" lon="13.113557">
        <ele>974.442</ele>
        <time>2018-09-08T05:50:46Z</time>
      </trkpt>
      <trkpt lat="46.576827" lon="13.113516">
        <ele>974.926</ele>
        <time>2018-09-08T05:50:47Z</time>
      </trkpt>
      <trkpt lat="46.576823" lon="13.113481">
        <ele>974.931</ele>
        <time>2018-09-08T05:50:48Z</time>
      </trkpt>
      <trkpt lat="46.576816" lon="13.113450">
        <ele>975.359</ele>
        <time>2018-09-08T05:50:49Z</time>
      </trkpt>
      <trkpt lat="46.576808" lon="13.113420">
        <ele>975.321</ele>
        <time>2018-09-08T05:50:50Z</time>
      </trkpt>
      <trkpt lat="46.576798" lon="13.113390">
        <ele>975.879</ele>
        <time>2018-09-08T05:50:51Z</time>
      </trkpt>
      <trkpt lat="46.576785" lon="13.113363">
        <ele>976.305</ele>
        <time>2018-09-08T05:50:52Z</time>
      </trkpt>
      <trkpt lat="46.576534" lon="13.113002">
        <ele>982.625</ele>
        <time>2018-09-08T05:51:08Z</time>
      </trkpt>
      <trkpt lat="46.576306" lon="13.112675">
        <ele>990.308</ele>
        <time>2018-09-08T05:51:23Z</time>
      </trkpt>
      <trkpt lat="46.576133" lon="13.112430">
        <ele>992.741</ele>
        <time>2018-09-08T05:51:37Z</time>
      </trkpt>
      <trkpt lat="46.575907" lon="13.112276">
        <ele>999.443</ele>
        <time>2018-09-08T05:51:51Z</time>
      </trkpt>
      <trkpt lat="46.575726" lon="13.112025">
        <ele>1001.371</ele>
        <time>2018-09-08T05:52:05Z</time>
      </trkpt>
      <trkpt lat="46.575685" lon="13.111969">
        <ele>1001.860</ele>
        <time>2018-09-08T05:52:09Z</time>
      </trkpt>
      <trkpt lat="46.575672" lon="13.111957">
        <ele>1001.874</ele>
        <time>2018-09-08T05:52:10Z</time>
      </trkpt>
      <trkpt lat="46.575658" lon="13.111946">
        <ele>1001.849</ele>
        <time>2018-09-08T05:52:11Z</time>
      </trkpt>
      <trkpt lat="46.575645" lon="13.111933">
        <ele>1001.877</ele>
        <time>2018-09-08T05:52:12Z</time>
      </trkpt>
      <trkpt lat="46.575633" lon="13.111917">
        <ele>1001.889</ele>
        <time>2018-09-08T05:52:13Z</time>
      </trkpt>
      <trkpt lat="46.575621" lon="13.111903">
        <ele>1002.341</ele>
        <time>2018-09-08T05:52:14Z</time>
      </trkpt>
      <trkpt lat="46.575606" lon="13.111885">
        <ele>1002.781</ele>
        <time>2018-09-08T05:52:15Z</time>
      </trkpt>
      <trkpt lat="46.575593" lon="13.111864">
        <ele>1002.709</ele>
        <time>2018-09-08T05:52:16Z</time>
      </trkpt>
      <trkpt lat="46.575580" lon="13.111843">
        <ele>1002.708</ele>
        <time>2018-09-08T05:52:17Z</time>
      </trkpt>
      <trkpt lat="46.575565" lon="13.111823">
        <ele>1002.758</ele>
        <time>2018-09-08T05:52:18Z</time>
      </trkpt>
      <trkpt lat="46.575552" lon="13.111802">
        <ele>1002.790</ele>
        <time>2018-09-08T05:52:19Z</time>
      </trkpt>
      <trkpt lat="46.575542" lon="13.111779">
        <ele>1002.348</ele>
        <time>2018-09-08T05:52:20Z</time>
      </trkpt>
      <trkpt lat="46.575531" lon="13.111755">
        <ele>1002.347</ele>
        <time>2018-09-08T05:52:21Z</time>
      </trkpt>
      <trkpt lat="46.575523" lon="13.111732">
        <ele>1002.371</ele>
        <time>2018-09-08T05:52:22Z</time>
      </trkpt>
      <trkpt lat="46.575515" lon="13.111706">
        <ele>1002.386</ele>
        <time>2018-09-08T05:52:23Z</time>
      </trkpt>
      <trkpt lat="46.575506" lon="13.111683">
        <ele>1002.334</ele>
        <time>2018-09-08T05:52:24Z</time>
      </trkpt>
      <trkpt lat="46.575495" lon="13.111661">
        <ele>1002.356</ele>
        <time>2018-09-08T05:52:25Z</time>
      </trkpt>
      <trkpt lat="46.575409" lon="13.111540">
        <ele>1002.329</ele>
        <time>2018-09-08T05:52:32Z</time>
      </trkpt>
      <trkpt lat="46.575246" lon="13.111404">
        <ele>1005.200</ele>
        <time>2018-09-08T05:52:43Z</time>
      </trkpt>
      <trkpt lat="46.575009" lon="13.111256">
        <ele>1011.420</ele>
        <time>2018-09-08T05:52:57Z</time>
      </trkpt>
      <trkpt lat="46.574730" lon="13.111201">
        <ele>1006.108</ele>
        <time>2018-09-08T05:53:13Z</time>
      </trkpt>
      <trkpt lat="46.574444" lon="13.111093">
        <ele>1003.786</ele>
        <time>2018-09-08T05:53:30Z</time>
      </trkpt>
      <trkpt lat="46.574315" lon="13.111160">
        <ele>1004.248</ele>
        <time>2018-09-08T05:53:38Z</time>
      </trkpt>
      <trkpt lat="46.574086" lon="13.111408">
        <ele>1008.016</ele>
        <time>2018-09-08T05:53:55Z</time>
      </trkpt>
      <trkpt lat="46.573893" lon="13.111671">
        <ele>1012.855</ele>
        <time>2018-09-08T05:54:11Z</time>
      </trkpt>
      <trkpt lat="46.573769" lon="13.111722">
        <ele>1012.849</ele>
        <time>2018-09-08T05:54:19Z</time>
      </trkpt>
      <trkpt lat="46.573751" lon="13.111735">
        <ele>1013.334</ele>
        <time>2018-09-08T05:54:20Z</time>
      </trkpt>
      <trkpt lat="46.573733" lon="13.111740">
        <ele>1012.872</ele>
        <time>2018-09-08T05:54:21Z</time>
      </trkpt>
      <trkpt lat="46.573429" lon="13.111787">
        <ele>1014.384</ele>
        <time>2018-09-08T05:54:39Z</time>
      </trkpt>
      <trkpt lat="46.573207" lon="13.111931">
        <ele>1016.225</ele>
        <time>2018-09-08T05:54:53Z</time>
      </trkpt>
      <trkpt lat="46.573109" lon="13.112003">
        <ele>1017.226</ele>
        <time>2018-09-08T05:54:59Z</time>
      </trkpt>
      <trkpt lat="46.573094" lon="13.112022">
        <ele>1017.208</ele>
        <time>2018-09-08T05:55:00Z</time>
      </trkpt>
      <trkpt lat="46.573075" lon="13.112033">
        <ele>1016.708</ele>
        <time>2018-09-08T05:55:01Z</time>
      </trkpt>
      <trkpt lat="46.573059" lon="13.112041">
        <ele>1016.286</ele>
        <time>2018-09-08T05:55:02Z</time>
      </trkpt>
      <trkpt lat="46.573040" lon="13.112049">
        <ele>1016.258</ele>
        <time>2018-09-08T05:55:03Z</time>
      </trkpt>
      <trkpt lat="46.573022" lon="13.112052">
        <ele>1015.786</ele>
        <time>2018-09-08T05:55:04Z</time>
      </trkpt>
      <trkpt lat="46.572729" lon="13.112019">
        <ele>1019.645</ele>
        <time>2018-09-08T05:55:21Z</time>
      </trkpt>
      <trkpt lat="46.572714" lon="13.112021">
        <ele>1019.649</ele>
        <time>2018-09-08T05:55:22Z</time>
      </trkpt>
      <trkpt lat="46.572697" lon="13.112027">
        <ele>1019.684</ele>
        <time>2018-09-08T05:55:23Z</time>
      </trkpt>
      <trkpt lat="46.572527" lon="13.112084">
        <ele>1020.162</ele>
        <time>2018-09-08T05:55:33Z</time>
      </trkpt>
      <trkpt lat="46.572515" lon="13.112081">
        <ele>1020.174</ele>
        <time>2018-09-08T05:55:34Z</time>
      </trkpt>
      <trkpt lat="46.572501" lon="13.112080">
        <ele>1020.139</ele>
        <time>2018-09-08T05:55:35Z</time>
      </trkpt>
      <trkpt lat="46.572221" lon="13.112166">
        <ele>1019.101</ele>
        <time>2018-09-08T05:55:50Z</time>
      </trkpt>
      <trkpt lat="46.571977" lon="13.111980">
        <ele>1020.521</ele>
        <time>2018-09-08T05:56:06Z</time>
      </trkpt>
      <trkpt lat="46.571872" lon="13.111659">
        <ele>1028.708</ele>
        <time>2018-09-08T05:56:21Z</time>
      </trkpt>
      <trkpt lat="46.571859" lon="13.111614">
        <ele>1030.197</ele>
        <time>2018-09-08T05:56:24Z</time>
      </trkpt>
      <trkpt lat="46.571853" lon="13.111596">
        <ele>1030.629</ele>
        <time>2018-09-08T05:56:25Z</time>
      </trkpt>
      <trkpt lat="46.571845" lon="13.111573">
        <ele>1031.117</ele>
        <time>2018-09-08T05:56:26Z</time>
      </trkpt>
      <trkpt lat="46.571620" lon="13.111426">
        <ele>1037.416</ele>
        <time>2018-09-08T05:56:42Z</time>
      </trkpt>
      <trkpt lat="46.571547" lon="13.111457">
        <ele>1037.850</ele>
        <time>2018-09-08T05:56:47Z</time>
      </trkpt>
      <trkpt lat="46.571536" lon="13.111465">
        <ele>1037.835</ele>
        <time>2018-09-08T05:56:48Z</time>
      </trkpt>
      <trkpt lat="46.571525" lon="13.111477">
        <ele>1037.863</ele>
        <time>2018-09-08T05:56:49Z</time>
      </trkpt>
      <trkpt lat="46.571515" lon="13.111489">
        <ele>1037.825</ele>
        <time>2018-09-08T05:56:50Z</time>
      </trkpt>
      <trkpt lat="46.571504" lon="13.111503">
        <ele>1037.884</ele>
        <time>2018-09-08T05:56:51Z</time>
      </trkpt>
      <trkpt lat="46.571482" lon="13.111524">
        <ele>1038.307</ele>
        <time>2018-09-08T05:56:53Z</time>
      </trkpt>
      <trkpt lat="46.571470" lon="13.111524">
        <ele>1038.317</ele>
        <time>2018-09-08T05:56:54Z</time>
      </trkpt>
      <trkpt lat="46.571455" lon="13.111524">
        <ele>1038.308</ele>
        <time>2018-09-08T05:56:55Z</time>
      </trkpt>
      <trkpt lat="46.571441" lon="13.111528">
        <ele>1038.842</ele>
        <time>2018-09-08T05:56:56Z</time>
      </trkpt>
      <trkpt lat="46.571429" lon="13.111533">
        <ele>1038.324</ele>
        <time>2018-09-08T05:56:57Z</time>
      </trkpt>
      <trkpt lat="46.571419" lon="13.111533">
        <ele>1037.872</ele>
        <time>2018-09-08T05:56:58Z</time>
      </trkpt>
      <trkpt lat="46.571407" lon="13.111521">
        <ele>1037.821</ele>
        <time>2018-09-08T05:56:59Z</time>
      </trkpt>
      <trkpt lat="46.571395" lon="13.111510">
        <ele>1037.485</ele>
        <time>2018-09-08T05:57:00Z</time>
      </trkpt>
      <trkpt lat="46.571240" lon="13.111364">
        <ele>1038.830</ele>
        <time>2018-09-08T05:57:14Z</time>
      </trkpt>
      <trkpt lat="46.571008" lon="13.111291">
        <ele>1040.258</ele>
        <time>2018-09-08T05:57:30Z</time>
      </trkpt>
      <trkpt lat="46.570845" lon="13.111273">
        <ele>1041.760</ele>
        <time>2018-09-08T05:57:43Z</time>
      </trkpt>
      <trkpt lat="46.570764" lon="13.111230">
        <ele>1044.168</ele>
        <time>2018-09-08T05:57:50Z</time>
      </trkpt>
      <trkpt lat="46.570750" lon="13.111219">
        <ele>1045.042</ele>
        <time>2018-09-08T05:57:51Z</time>
      </trkpt>
      <trkpt lat="46.570526" lon="13.111162">
        <ele>1049.426</ele>
        <time>2018-09-08T05:58:07Z</time>
      </trkpt>
      <trkpt lat="46.570420" lon="13.111169">
        <ele>1050.308</ele>
        <time>2018-09-08T05:58:15Z</time>
      </trkpt>
      <trkpt lat="46.570408" lon="13.111167">
        <ele>1050.360</ele>
        <time>2018-09-08T05:58:16Z</time>
      </trkpt>
      <trkpt lat="46.570388" lon="13.111170">
        <ele>1050.362</ele>
        <time>2018-09-08T05:58:18Z</time>
      </trkpt>
      <trkpt lat="46.570375" lon="13.111172">
        <ele>1050.340</ele>
        <time>2018-09-08T05:58:19Z</time>
      </trkpt>
      <trkpt lat="46.570298" lon="13.111160">
        <ele>1051.399</ele>
        <time>2018-09-08T05:58:25Z</time>
      </trkpt>
      <trkpt lat="46.570283" lon="13.111160">
        <ele>1051.873</ele>
        <time>2018-09-08T05:58:26Z</time>
      </trkpt>
      <trkpt lat="46.570253" lon="13.111163">
        <ele>1051.838</ele>
        <time>2018-09-08T05:58:29Z</time>
      </trkpt>
      <trkpt lat="46.570107" lon="13.111160">
        <ele>1055.176</ele>
        <time>2018-09-08T05:58:39Z</time>
      </trkpt>
      <trkpt lat="46.570090" lon="13.111165">
        <ele>1054.758</ele>
        <time>2018-09-08T05:58:40Z</time>
      </trkpt>
      <trkpt lat="46.570009" lon="13.111199">
        <ele>1053.745</ele>
        <time>2018-09-08T05:58:45Z</time>
      </trkpt>
      <trkpt lat="46.569905" lon="13.111237">
        <ele>1052.747</ele>
        <time>2018-09-08T05:58:52Z</time>
      </trkpt>
      <trkpt lat="46.569890" lon="13.111242">
        <ele>1052.711</ele>
        <time>2018-09-08T05:58:53Z</time>
      </trkpt>
      <trkpt lat="46.569871" lon="13.111252">
        <ele>1052.308</ele>
        <time>2018-09-08T05:58:54Z</time>
      </trkpt>
      <trkpt lat="46.569856" lon="13.111260">
        <ele>1051.848</ele>
        <time>2018-09-08T05:58:55Z</time>
      </trkpt>
      <trkpt lat="46.569675" lon="13.111421">
        <ele>1052.740</ele>
        <time>2018-09-08T05:59:10Z</time>
      </trkpt>
      <trkpt lat="46.569680" lon="13.111564">
        <ele>1055.178</ele>
        <time>2018-09-08T05:59:17Z</time>
      </trkpt>
      <trkpt lat="46.569688" lon="13.111583">
        <ele>1055.197</ele>
        <time>2018-09-08T05:59:18Z</time>
      </trkpt>
      <trkpt lat="46.569694" lon="13.111601">
        <ele>1055.681</ele>
        <time>2018-09-08T05:59:19Z</time>
      </trkpt>
      <trkpt lat="46.569704" lon="13.111617">
        <ele>1055.636</ele>
        <time>2018-09-08T05:59:20Z</time>
      </trkpt>
      <trkpt lat="46.569712" lon="13.111629">
        <ele>1056.164</ele>
        <time>2018-09-08T05:59:21Z</time>
      </trkpt>
      <trkpt lat="46.569720" lon="13.111642">
        <ele>1057.146</ele>
        <time>2018-09-08T05:59:22Z</time>
      </trkpt>
      <trkpt lat="46.569729" lon="13.111656">
        <ele>1057.161</ele>
        <time>2018-09-08T05:59:23Z</time>
      </trkpt>
      <trkpt lat="46.569946" lon="13.111766">
        <ele>1056.621</ele>
        <time>2018-09-08T05:59:38Z</time>
      </trkpt>
      <trkpt lat="46.570035" lon="13.111810">
        <ele>1056.613</ele>
        <time>2018-09-08T05:59:43Z</time>
      </trkpt>
      <trkpt lat="46.570056" lon="13.111810">
        <ele>1055.608</ele>
        <time>2018-09-08T05:59:44Z</time>
      </trkpt>
      <trkpt lat="46.570072" lon="13.111816">
        <ele>1055.170</ele>
        <time>2018-09-08T05:59:45Z</time>
      </trkpt>
      <trkpt lat="46.570278" lon="13.111952">
        <ele>1054.222</ele>
        <time>2018-09-08T05:59:58Z</time>
      </trkpt>
      <trkpt lat="46.570408" lon="13.112216">
        <ele>1056.630</ele>
        <time>2018-09-08T06:00:12Z</time>
      </trkpt>
      <trkpt lat="46.570645" lon="13.112384">
        <ele>1059.549</ele>
        <time>2018-09-08T06:00:25Z</time>
      </trkpt>
      <trkpt lat="46.570839" lon="13.112447">
        <ele>1062.813</ele>
        <time>2018-09-08T06:00:36Z</time>
      </trkpt>
      <trkpt lat="46.571068" lon="13.112698">
        <ele>1063.838</ele>
        <time>2018-09-08T06:00:51Z</time>
      </trkpt>
      <trkpt lat="46.571173" lon="13.112919">
        <ele>1069.186</ele>
        <time>2018-09-08T06:01:02Z</time>
      </trkpt>
      <trkpt lat="46.571165" lon="13.112941">
        <ele>1069.688</ele>
        <time>2018-09-08T06:01:03Z</time>
      </trkpt>
      <trkpt lat="46.571154" lon="13.112967">
        <ele>1070.099</ele>
        <time>2018-09-08T06:01:04Z</time>
      </trkpt>
      <trkpt lat="46.571138" lon="13.112988">
        <ele>1070.507</ele>
        <time>2018-09-08T06:01:05Z</time>
      </trkpt>
      <trkpt lat="46.571121" lon="13.113008">
        <ele>1071.027</ele>
        <time>2018-09-08T06:01:06Z</time>
      </trkpt>
      <trkpt lat="46.571102" lon="13.113021">
        <ele>1071.008</ele>
        <time>2018-09-08T06:01:07Z</time>
      </trkpt>
      <trkpt lat="46.571083" lon="13.113033">
        <ele>1071.553</ele>
        <time>2018-09-08T06:01:08Z</time>
      </trkpt>
      <trkpt lat="46.571063" lon="13.113041">
        <ele>1071.585</ele>
        <time>2018-09-08T06:01:09Z</time>
      </trkpt>
      <trkpt lat="46.571045" lon="13.113046">
        <ele>1072.083</ele>
        <time>2018-09-08T06:01:10Z</time>
      </trkpt>
      <trkpt lat="46.570858" lon="13.112985">
        <ele>1076.812</ele>
        <time>2018-09-08T06:01:21Z</time>
      </trkpt>
      <trkpt lat="46.570560" lon="13.113084">
        <ele>1081.686</ele>
        <time>2018-09-08T06:01:36Z</time>
      </trkpt>
      <trkpt lat="46.570272" lon="13.113238">
        <ele>1080.621</ele>
        <time>2018-09-08T06:01:49Z</time>
      </trkpt>
      <trkpt lat="46.569951" lon="13.113263">
        <ele>1075.869</ele>
        <time>2018-09-08T06:02:04Z</time>
      </trkpt>
      <trkpt lat="46.569731" lon="13.113216">
        <ele>1073.441</ele>
        <time>2018-09-08T06:02:17Z</time>
      </trkpt>
      <trkpt lat="46.569550" lon="13.113098">
        <ele>1077.717</ele>
        <time>2018-09-08T06:02:28Z</time>
      </trkpt>
      <trkpt lat="46.569408" lon="13.113001">
        <ele>1081.687</ele>
        <time>2018-09-08T06:02:38Z</time>
      </trkpt>
      <trkpt lat="46.569396" lon="13.112993">
        <ele>1082.115</ele>
        <time>2018-09-08T06:02:39Z</time>
      </trkpt>
      <trkpt lat="46.569264" lon="13.112943">
        <ele>1082.108</ele>
        <time>2018-09-08T06:02:47Z</time>
      </trkpt>
      <trkpt lat="46.569090" lon="13.112853">
        <ele>1079.775</ele>
        <time>2018-09-08T06:02:59Z</time>
      </trkpt>
      <trkpt lat="46.568849" lon="13.112766">
        <ele>1079.717</ele>
        <time>2018-09-08T06:03:14Z</time>
      </trkpt>
      <trkpt lat="46.568590" lon="13.112655">
        <ele>1078.735</ele>
        <time>2018-09-08T06:03:31Z</time>
      </trkpt>
      <trkpt lat="46.568365" lon="13.112609">
        <ele>1075.374</ele>
        <time>2018-09-08T06:03:46Z</time>
      </trkpt>
      <trkpt lat="46.568169" lon="13.112555">
        <ele>1073.478</ele>
        <time>2018-09-08T06:04:00Z</time>
      </trkpt>
      <trkpt lat="46.567960" lon="13.112503">
        <ele>1077.263</ele>
        <time>2018-09-08T06:04:13Z</time>
      </trkpt>
      <trkpt lat="46.567813" lon="13.112532">
        <ele>1077.711</ele>
        <time>2018-09-08T06:04:24Z</time>
      </trkpt>
      <trkpt lat="46.567799" lon="13.112540">
        <ele>1078.233</ele>
        <time>2018-09-08T06:04:25Z</time>
      </trkpt>
      <trkpt lat="46.567785" lon="13.112543">
        <ele>1078.225</ele>
        <time>2018-09-08T06:04:26Z</time>
      </trkpt>
      <trkpt lat="46.567602" lon="13.112631">
        <ele>1082.526</ele>
        <time>2018-09-08T06:04:40Z</time>
      </trkpt>
      <trkpt lat="46.567520" lon="13.112666">
        <ele>1083.508</ele>
        <time>2018-09-08T06:04:46Z</time>
      </trkpt>
      <trkpt lat="46.567504" lon="13.112680">
        <ele>1083.508</ele>
        <time>2018-09-08T06:04:47Z</time>
      </trkpt>
      <trkpt lat="46.567490" lon="13.112691">
        <ele>1084.096</ele>
        <time>2018-09-08T06:04:48Z</time>
      </trkpt>
      <trkpt lat="46.567476" lon="13.112701">
        <ele>1084.098</ele>
        <time>2018-09-08T06:04:49Z</time>
      </trkpt>
      <trkpt lat="46.567335" lon="13.112791">
        <ele>1083.066</ele>
        <time>2018-09-08T06:04:59Z</time>
      </trkpt>
      <trkpt lat="46.567321" lon="13.112799">
        <ele>1083.545</ele>
        <time>2018-09-08T06:05:00Z</time>
      </trkpt>
      <trkpt lat="46.567309" lon="13.112799">
        <ele>1084.059</ele>
        <time>2018-09-08T06:05:01Z</time>
      </trkpt>
      <trkpt lat="46.567296" lon="13.112804">
        <ele>1084.544</ele>
        <time>2018-09-08T06:05:02Z</time>
      </trkpt>
      <trkpt lat="46.567282" lon="13.112809">
        <ele>1084.942</ele>
        <time>2018-09-08T06:05:03Z</time>
      </trkpt>
      <trkpt lat="46.567268" lon="13.112812">
        <ele>1085.424</ele>
        <time>2018-09-08T06:05:04Z</time>
      </trkpt>
      <trkpt lat="46.567022" lon="13.112860">
        <ele>1089.797</ele>
        <time>2018-09-08T06:05:18Z</time>
      </trkpt>
      <trkpt lat="46.566847" lon="13.112859">
        <ele>1090.723</ele>
        <time>2018-09-08T06:05:31Z</time>
      </trkpt>
      <trkpt lat="46.566642" lon="13.112822">
        <ele>1089.325</ele>
        <time>2018-09-08T06:05:44Z</time>
      </trkpt>
      <trkpt lat="46.566358" lon="13.112740">
        <ele>1089.708</ele>
        <time>2018-09-08T06:06:01Z</time>
      </trkpt>
      <trkpt lat="46.566141" lon="13.112821">
        <ele>1089.783</ele>
        <time>2018-09-08T06:06:16Z</time>
      </trkpt>
      <trkpt lat="46.565958" lon="13.112955">
        <ele>1091.715</ele>
        <time>2018-09-08T06:06:30Z</time>
      </trkpt>
      <trkpt lat="46.565875" lon="13.113042">
        <ele>1093.633</ele>
        <time>2018-09-08T06:06:37Z</time>
      </trkpt>
      <trkpt lat="46.565866" lon="13.113056">
        <ele>1094.132</ele>
        <time>2018-09-08T06:06:38Z</time>
      </trkpt>
      <trkpt lat="46.565720" lon="13.113262">
        <ele>1097.976</ele>
        <time>2018-09-08T06:06:49Z</time>
      </trkpt>
      <trkpt lat="46.565516" lon="13.113460">
        <ele>1100.351</ele>
        <time>2018-09-08T06:07:03Z</time>
      </trkpt>
      <trkpt lat="46.565501" lon="13.113468">
        <ele>1100.329</ele>
        <time>2018-09-08T06:07:04Z</time>
      </trkpt>
      <trkpt lat="46.565483" lon="13.113483">
        <ele>1100.821</ele>
        <time>2018-09-08T06:07:05Z</time>
      </trkpt>
      <trkpt lat="46.565467" lon="13.113493">
        <ele>1101.351</ele>
        <time>2018-09-08T06:07:06Z</time>
      </trkpt>
      <trkpt lat="46.565382" lon="13.113532">
        <ele>1105.101</ele>
        <time>2018-09-08T06:07:12Z</time>
      </trkpt>
      <trkpt lat="46.565362" lon="13.113537">
        <ele>1106.611</ele>
        <time>2018-09-08T06:07:13Z</time>
      </trkpt>
      <trkpt lat="46.565344" lon="13.113544">
        <ele>1107.508</ele>
        <time>2018-09-08T06:07:14Z</time>
      </trkpt>
      <trkpt lat="46.565286" lon="13.113573">
        <ele>1108.589</ele>
        <time>2018-09-08T06:07:18Z</time>
      </trkpt>
      <trkpt lat="46.565272" lon="13.113577">
        <ele>1109.051</ele>
        <time>2018-09-08T06:07:19Z</time>
      </trkpt>
      <trkpt lat="46.565257" lon="13.113583">
        <ele>1109.549</ele>
        <time>2018-09-08T06:07:20Z</time>
      </trkpt>
      <trkpt lat="46.565242" lon="13.113590">
        <ele>1110.438</ele>
        <time>2018-09-08T06:07:21Z</time>
      </trkpt>
      <trkpt lat="46.565228" lon="13.113599">
        <ele>1111.432</ele>
        <time>2018-09-08T06:07:22Z</time>
      </trkpt>
      <trkpt lat="46.565213" lon="13.113606">
        <ele>1112.337</ele>
        <time>2018-09-08T06:07:23Z</time>
      </trkpt>
      <trkpt lat="46.565199" lon="13.113613">
        <ele>1113.315</ele>
        <time>2018-09-08T06:07:24Z</time>
      </trkpt>
      <trkpt lat="46.565042" lon="13.113666">
        <ele>1117.177</ele>
        <time>2018-09-08T06:07:34Z</time>
      </trkpt>
      <trkpt lat="46.565026" lon="13.113675">
        <ele>1117.141</ele>
        <time>2018-09-08T06:07:35Z</time>
      </trkpt>
      <trkpt lat="46.564703" lon="13.113734">
        <ele>1121.081</ele>
        <time>2018-09-08T06:07:52Z</time>
      </trkpt>
      <trkpt lat="46.564508" lon="13.113793">
        <ele>1122.909</ele>
        <time>2018-09-08T06:08:04Z</time>
      </trkpt>
      <trkpt lat="46.564490" lon="13.113805">
        <ele>1122.408</ele>
        <time>2018-09-08T06:08:05Z</time>
      </trkpt>
      <trkpt lat="46.564473" lon="13.113819">
        <ele>1122.018</ele>
        <time>2018-09-08T06:08:06Z</time>
      </trkpt>
      <trkpt lat="46.564453" lon="13.113837">
        <ele>1121.560</ele>
        <time>2018-09-08T06:08:07Z</time>
      </trkpt>
      <trkpt lat="46.564439" lon="13.113861">
        <ele>1121.058</ele>
        <time>2018-09-08T06:08:08Z</time>
      </trkpt>
      <trkpt lat="46.564423" lon="13.113878">
        <ele>1120.517</ele>
        <time>2018-09-08T06:08:09Z</time>
      </trkpt>
      <trkpt lat="46.564406" lon="13.113882">
        <ele>1120.541</ele>
        <time>2018-09-08T06:08:10Z</time>
      </trkpt>
      <trkpt lat="46.564392" lon="13.113889">
        <ele>1119.526</ele>
        <time>2018-09-08T06:08:11Z</time>
      </trkpt>
      <trkpt lat="46.564379" lon="13.113905">
        <ele>1119.154</ele>
        <time>2018-09-08T06:08:12Z</time>
      </trkpt>
      <trkpt lat="46.564367" lon="13.113918">
        <ele>1118.126</ele>
        <time>2018-09-08T06:08:13Z</time>
      </trkpt>
      <trkpt lat="46.564357" lon="13.113932">
        <ele>1117.698</ele>
        <time>2018-09-08T06:08:14Z</time>
      </trkpt>
      <trkpt lat="46.564349" lon="13.113947">
        <ele>1117.615</ele>
        <time>2018-09-08T06:08:15Z</time>
      </trkpt>
      <trkpt lat="46.564340" lon="13.113955">
        <ele>1117.126</ele>
        <time>2018-09-08T06:08:16Z</time>
      </trkpt>
      <trkpt lat="46.564320" lon="13.114004">
        <ele>1118.108</ele>
        <time>2018-09-08T06:08:27Z</time>
      </trkpt>
      <trkpt lat="46.564291" lon="13.114048">
        <ele>1119.583</ele>
        <time>2018-09-08T06:08:44Z</time>
      </trkpt>
      <trkpt lat="46.564250" lon="13.114083">
        <ele>1118.675</ele>
        <time>2018-09-08T06:08:48Z</time>
      </trkpt>
      <trkpt lat="46.564245" lon="13.114109">
        <ele>1118.163</ele>
        <time>2018-09-08T06:08:49Z</time>
      </trkpt>
      <trkpt lat="46.564234" lon="13.114133">
        <ele>1118.192</ele>
        <time>2018-09-08T06:08:50Z</time>
      </trkpt>
      <trkpt lat="46.564218" lon="13.114154">
        <ele>1118.696</ele>
        <time>2018-09-08T06:08:51Z</time>
      </trkpt>
      <trkpt lat="46.564204" lon="13.114169">
        <ele>1118.691</ele>
        <time>2018-09-08T06:08:52Z</time>
      </trkpt>
      <trkpt lat="46.564194" lon="13.114188">
        <ele>1119.159</ele>
        <time>2018-09-08T06:08:53Z</time>
      </trkpt>
      <trkpt lat="46.564142" lon="13.114274">
        <ele>1119.531</ele>
        <time>2018-09-08T06:08:58Z</time>
      </trkpt>
      <trkpt lat="46.564131" lon="13.114292">
        <ele>1119.186</ele>
        <time>2018-09-08T06:08:59Z</time>
      </trkpt>
      <trkpt lat="46.564070" lon="13.114415">
        <ele>1117.660</ele>
        <time>2018-09-08T06:09:05Z</time>
      </trkpt>
      <trkpt lat="46.564035" lon="13.114440">
        <ele>1116.726</ele>
        <time>2018-09-08T06:09:07Z</time>
      </trkpt>
      <trkpt lat="46.564021" lon="13.114459">
        <ele>1116.708</ele>
        <time>2018-09-08T06:09:08Z</time>
      </trkpt>
      <trkpt lat="46.564011" lon="13.114479">
        <ele>1116.262</ele>
        <time>2018-09-08T06:09:09Z</time>
      </trkpt>
      <trkpt lat="46.564002" lon="13.114499">
        <ele>1115.714</ele>
        <time>2018-09-08T06:09:10Z</time>
      </trkpt>
      <trkpt lat="46.563993" lon="13.114521">
        <ele>1115.282</ele>
        <time>2018-09-08T06:09:11Z</time>
      </trkpt>
      <trkpt lat="46.563935" lon="13.114821">
        <ele>1106.681</ele>
        <time>2018-09-08T06:09:26Z</time>
      </trkpt>
      <trkpt lat="46.563923" lon="13.115052">
        <ele>1108.045</ele>
        <time>2018-09-08T06:09:43Z</time>
      </trkpt>
      <trkpt lat="46.563911" lon="13.115080">
        <ele>1110.980</ele>
        <time>2018-09-08T06:10:11Z</time>
      </trkpt>
      <trkpt lat="46.563899" lon="13.115124">
        <ele>1116.728</ele>
        <time>2018-09-08T06:10:34Z</time>
      </trkpt>
      <trkpt lat="46.563883" lon="13.115447">
        <ele>1114.380</ele>
        <time>2018-09-08T06:10:47Z</time>
      </trkpt>
      <trkpt lat="46.564043" lon="13.115899">
        <ele>1114.322</ele>
        <time>2018-09-08T06:11:00Z</time>
      </trkpt>
      <trkpt lat="46.564007" lon="13.116113">
        <ele>1114.362</ele>
        <time>2018-09-08T06:11:04Z</time>
      </trkpt>
      <trkpt lat="46.563956" lon="13.116226">
        <ele>1114.308</ele>
        <time>2018-09-08T06:11:06Z</time>
      </trkpt>
      <trkpt lat="46.563930" lon="13.116280">
        <ele>1113.808</ele>
        <time>2018-09-08T06:11:07Z</time>
      </trkpt>
      <trkpt lat="46.563903" lon="13.116336">
        <ele>1113.386</ele>
        <time>2018-09-08T06:11:08Z</time>
      </trkpt>
      <trkpt lat="46.563720" lon="13.116675">
        <ele>1108.598</ele>
        <time>2018-09-08T06:11:14Z</time>
      </trkpt>
      <trkpt lat="46.563677" lon="13.116727">
        <ele>1108.016</ele>
        <time>2018-09-08T06:11:15Z</time>
      </trkpt>
      <trkpt lat="46.563382" lon="13.117059">
        <ele>1104.655</ele>
        <time>2018-09-08T06:11:21Z</time>
      </trkpt>
      <trkpt lat="46.563329" lon="13.117138">
        <ele>1104.249</ele>
        <time>2018-09-08T06:11:22Z</time>
      </trkpt>
      <trkpt lat="46.562905" lon="13.117817">
        <ele>1097.944</ele>
        <time>2018-09-08T06:11:32Z</time>
      </trkpt>
      <trkpt lat="46.562804" lon="13.118135">
        <ele>1095.062</ele>
        <time>2018-09-08T06:11:40Z</time>
      </trkpt>
      <trkpt lat="46.562814" lon="13.118165">
        <ele>1095.074</ele>
        <time>2018-09-08T06:11:41Z</time>
      </trkpt>
      <trkpt lat="46.562954" lon="13.118453">
        <ele>1095.549</ele>
        <time>2018-09-08T06:11:49Z</time>
      </trkpt>
      <trkpt lat="46.562965" lon="13.118506">
        <ele>1095.502</ele>
        <time>2018-09-08T06:11:50Z</time>
      </trkpt>
      <trkpt lat="46.562970" lon="13.118567">
        <ele>1095.522</ele>
        <time>2018-09-08T06:11:51Z</time>
      </trkpt>
      <trkpt lat="46.562968" lon="13.118629">
        <ele>1095.508</ele>
        <time>2018-09-08T06:11:52Z</time>
      </trkpt>
      <trkpt lat="46.562962" lon="13.118694">
        <ele>1095.028</ele>
        <time>2018-09-08T06:11:53Z</time>
      </trkpt>
      <trkpt lat="46.562962" lon="13.118760">
        <ele>1095.070</ele>
        <time>2018-09-08T06:11:54Z</time>
      </trkpt>
      <trkpt lat="46.562963" lon="13.118838">
        <ele>1094.638</ele>
        <time>2018-09-08T06:11:55Z</time>
      </trkpt>
      <trkpt lat="46.562954" lon="13.118920">
        <ele>1094.117</ele>
        <time>2018-09-08T06:11:56Z</time>
      </trkpt>
      <trkpt lat="46.562932" lon="13.118999">
        <ele>1093.631</ele>
        <time>2018-09-08T06:11:57Z</time>
      </trkpt>
      <trkpt lat="46.562901" lon="13.119064">
        <ele>1092.616</ele>
        <time>2018-09-08T06:11:58Z</time>
      </trkpt>
      <trkpt lat="46.562859" lon="13.119115">
        <ele>1091.714</ele>
        <time>2018-09-08T06:11:59Z</time>
      </trkpt>
      <trkpt lat="46.562810" lon="13.119168">
        <ele>1091.236</ele>
        <time>2018-09-08T06:12:00Z</time>
      </trkpt>
      <trkpt lat="46.562542" lon="13.119518">
        <ele>1087.371</ele>
        <time>2018-09-08T06:12:05Z</time>
      </trkpt>
      <trkpt lat="46.562498" lon="13.119610">
        <ele>1086.441</ele>
        <time>2018-09-08T06:12:06Z</time>
      </trkpt>
      <trkpt lat="46.562422" lon="13.119815">
        <ele>1084.015</ele>
        <time>2018-09-08T06:12:08Z</time>
      </trkpt>
      <trkpt lat="46.562396" lon="13.119923">
        <ele>1082.508</ele>
        <time>2018-09-08T06:12:09Z</time>
      </trkpt>
      <trkpt lat="46.562378" lon="13.120032">
        <ele>1081.641</ele>
        <time>2018-09-08T06:12:10Z</time>
      </trkpt>
      <trkpt lat="46.562366" lon="13.120139">
        <ele>1080.613</ele>
        <time>2018-09-08T06:12:11Z</time>
      </trkpt>
      <trkpt lat="46.562355" lon="13.120250">
        <ele>1079.731</ele>
        <time>2018-09-08T06:12:12Z</time>
      </trkpt>
      <trkpt lat="46.562337" lon="13.120354">
        <ele>1079.260</ele>
        <time>2018-09-08T06:12:13Z</time>
      </trkpt>
      <trkpt lat="46.562308" lon="13.120448">
        <ele>1078.794</ele>
        <time>2018-09-08T06:12:14Z</time>
      </trkpt>
      <trkpt lat="46.562277" lon="13.120534">
        <ele>1077.789</ele>
        <time>2018-09-08T06:12:15Z</time>
      </trkpt>
      <trkpt lat="46.562258" lon="13.120618">
        <ele>1077.267</ele>
        <time>2018-09-08T06:12:16Z</time>
      </trkpt>
      <trkpt lat="46.562249" lon="13.120709">
        <ele>1076.349</ele>
        <time>2018-09-08T06:12:17Z</time>
      </trkpt>
      <trkpt lat="46.562248" lon="13.120798">
        <ele>1075.837</ele>
        <time>2018-09-08T06:12:18Z</time>
      </trkpt>
      <trkpt lat="46.562258" lon="13.120892">
        <ele>1074.849</ele>
        <time>2018-09-08T06:12:19Z</time>
      </trkpt>
      <trkpt lat="46.562274" lon="13.120995">
        <ele>1074.813</ele>
        <time>2018-09-08T06:12:20Z</time>
      </trkpt>
      <trkpt lat="46.562297" lon="13.121086">
        <ele>1074.408</ele>
        <time>2018-09-08T06:12:21Z</time>
      </trkpt>
      <trkpt lat="46.562316" lon="13.121174">
        <ele>1073.947</ele>
        <time>2018-09-08T06:12:22Z</time>
      </trkpt>
      <trkpt lat="46.562319" lon="13.121257">
        <ele>1073.419</ele>
        <time>2018-09-08T06:12:23Z</time>
      </trkpt>
      <trkpt lat="46.562298" lon="13.121334">
        <ele>1072.967</ele>
        <time>2018-09-08T06:12:24Z</time>
      </trkpt>
      <trkpt lat="46.562256" lon="13.121390">
        <ele>1072.476</ele>
        <time>2018-09-08T06:12:25Z</time>
      </trkpt>
      <trkpt lat="46.562205" lon="13.121409">
        <ele>1072.460</ele>
        <time>2018-09-08T06:12:26Z</time>
      </trkpt>
      <trkpt lat="46.562153" lon="13.121393">
        <ele>1072.485</ele>
        <time>2018-09-08T06:12:27Z</time>
      </trkpt>
      <trkpt lat="46.562107" lon="13.121358">
        <ele>1072.043</ele>
        <time>2018-09-08T06:12:28Z</time>
      </trkpt>
      <trkpt lat="46.562060" lon="13.121321">
        <ele>1072.075</ele>
        <time>2018-09-08T06:12:29Z</time>
      </trkpt>
      <trkpt lat="46.562015" lon="13.121282">
        <ele>1072.092</ele>
        <time>2018-09-08T06:12:30Z</time>
      </trkpt>
      <trkpt lat="46.561913" lon="13.121231">
        <ele>1071.573</ele>
        <time>2018-09-08T06:12:32Z</time>
      </trkpt>
      <trkpt lat="46.561856" lon="13.121228">
        <ele>1071.520</ele>
        <time>2018-09-08T06:12:33Z</time>
      </trkpt>
      <trkpt lat="46.561797" lon="13.121241">
        <ele>1071.008</ele>
        <time>2018-09-08T06:12:34Z</time>
      </trkpt>
      <trkpt lat="46.561740" lon="13.121275">
        <ele>1071.043</ele>
        <time>2018-09-08T06:12:35Z</time>
      </trkpt>
      <trkpt lat="46.561686" lon="13.121318">
        <ele>1071.055</ele>
        <time>2018-09-08T06:12:36Z</time>
      </trkpt>
      <trkpt lat="46.561635" lon="13.121367">
        <ele>1070.533</ele>
        <time>2018-09-08T06:12:37Z</time>
      </trkpt>
      <trkpt lat="46.561490" lon="13.121508">
        <ele>1069.612</ele>
        <time>2018-09-08T06:12:40Z</time>
      </trkpt>
      <trkpt lat="46.561440" lon="13.121571">
        <ele>1069.176</ele>
        <time>2018-09-08T06:12:41Z</time>
      </trkpt>
      <trkpt lat="46.561395" lon="13.121638">
        <ele>1068.641</ele>
        <time>2018-09-08T06:12:42Z</time>
      </trkpt>
      <trkpt lat="46.561200" lon="13.121991">
        <ele>1065.739</ele>
        <time>2018-09-08T06:12:47Z</time>
      </trkpt>
      <trkpt lat="46.561174" lon="13.122064">
        <ele>1065.281</ele>
        <time>2018-09-08T06:12:48Z</time>
      </trkpt>
      <trkpt lat="46.561157" lon="13.122141">
        <ele>1064.373</ele>
        <time>2018-09-08T06:12:49Z</time>
      </trkpt>
      <trkpt lat="46.561146" lon="13.122302">
        <ele>1062.885</ele>
        <time>2018-09-08T06:12:51Z</time>
      </trkpt>
      <trkpt lat="46.561142" lon="13.122382">
        <ele>1062.313</ele>
        <time>2018-09-08T06:12:52Z</time>
      </trkpt>
      <trkpt lat="46.561127" lon="13.122465">
        <ele>1061.408</ele>
        <time>2018-09-08T06:12:53Z</time>
      </trkpt>
      <trkpt lat="46.561077" lon="13.122718">
        <ele>1059.541</ele>
        <time>2018-09-08T06:12:56Z</time>
      </trkpt>
      <trkpt lat="46.561068" lon="13.122796">
        <ele>1058.533</ele>
        <time>2018-09-08T06:12:57Z</time>
      </trkpt>
      <trkpt lat="46.561061" lon="13.122886">
        <ele>1058.031</ele>
        <time>2018-09-08T06:12:58Z</time>
      </trkpt>
      <trkpt lat="46.561062" lon="13.122988">
        <ele>1057.130</ele>
        <time>2018-09-08T06:12:59Z</time>
      </trkpt>
      <trkpt lat="46.561073" lon="13.123097">
        <ele>1056.174</ele>
        <time>2018-09-08T06:13:00Z</time>
      </trkpt>
      <trkpt lat="46.561089" lon="13.123202">
        <ele>1055.679</ele>
        <time>2018-09-08T06:13:01Z</time>
      </trkpt>
      <trkpt lat="46.561165" lon="13.123640">
        <ele>1054.267</ele>
        <time>2018-09-08T06:13:05Z</time>
      </trkpt>
      <trkpt lat="46.561165" lon="13.123731">
        <ele>1053.289</ele>
        <time>2018-09-08T06:13:06Z</time>
      </trkpt>
      <trkpt lat="46.561145" lon="13.123807">
        <ele>1053.265</ele>
        <time>2018-09-08T06:13:07Z</time>
      </trkpt>
      <trkpt lat="46.561100" lon="13.123868">
        <ele>1052.768</ele>
        <time>2018-09-08T06:13:08Z</time>
      </trkpt>
      <trkpt lat="46.561046" lon="13.123890">
        <ele>1052.714</ele>
        <time>2018-09-08T06:13:09Z</time>
      </trkpt>
      <trkpt lat="46.560997" lon="13.123875">
        <ele>1052.708</ele>
        <time>2018-09-08T06:13:10Z</time>
      </trkpt>
      <trkpt lat="46.560960" lon="13.123832">
        <ele>1052.330</ele>
        <time>2018-09-08T06:13:11Z</time>
      </trkpt>
      <trkpt lat="46.560926" lon="13.123781">
        <ele>1052.722</ele>
        <time>2018-09-08T06:13:12Z</time>
      </trkpt>
      <trkpt lat="46.560888" lon="13.123741">
        <ele>1052.710</ele>
        <time>2018-09-08T06:13:13Z</time>
      </trkpt>
      <trkpt lat="46.560843" lon="13.123719">
        <ele>1052.789</ele>
        <time>2018-09-08T06:13:14Z</time>
      </trkpt>
      <trkpt lat="46.560788" lon="13.123722">
        <ele>1052.743</ele>
        <time>2018-09-08T06:13:15Z</time>
      </trkpt>
      <trkpt lat="46.560738" lon="13.123744">
        <ele>1053.268</ele>
        <time>2018-09-08T06:13:16Z</time>
      </trkpt>
      <trkpt lat="46.560694" lon="13.123782">
        <ele>1053.266</ele>
        <time>2018-09-08T06:13:17Z</time>
      </trkpt>
      <trkpt lat="46.560652" lon="13.123837">
        <ele>1053.268</ele>
        <time>2018-09-08T06:13:18Z</time>
      </trkpt>
      <trkpt lat="46.560611" lon="13.123894">
        <ele>1053.272</ele>
        <time>2018-09-08T06:13:19Z</time>
      </trkpt>
      <trkpt lat="46.560564" lon="13.123946">
        <ele>1053.213</ele>
        <time>2018-09-08T06:13:20Z</time>
      </trkpt>
      <trkpt lat="46.560506" lon="13.123981">
        <ele>1053.214</ele>
        <time>2018-09-08T06:13:21Z</time>
      </trkpt>
      <trkpt lat="46.560445" lon="13.124002">
        <ele>1052.708</ele>
        <time>2018-09-08T06:13:22Z</time>
      </trkpt>
      <trkpt lat="46.560386" lon="13.124026">
        <ele>1052.711</ele>
        <time>2018-09-08T06:13:23Z</time>
      </trkpt>
      <trkpt lat="46.560330" lon="13.124073">
        <ele>1052.773</ele>
        <time>2018-09-08T06:13:24Z</time>
      </trkpt>
      <trkpt lat="46.560279" lon="13.124131">
        <ele>1052.341</ele>
        <time>2018-09-08T06:13:25Z</time>
      </trkpt>
      <trkpt lat="46.560232" lon="13.124192">
        <ele>1051.870</ele>
        <time>2018-09-08T06:13:26Z</time>
      </trkpt>
      <trkpt lat="46.560187" lon="13.124263">
        <ele>1051.334</ele>
        <time>2018-09-08T06:13:27Z</time>
      </trkpt>
      <trkpt lat="46.560132" lon="13.124332">
        <ele>1050.879</ele>
        <time>2018-09-08T06:13:28Z</time>
      </trkpt>
      <trkpt lat="46.560074" lon="13.124405">
        <ele>1049.947</ele>
        <time>2018-09-08T06:13:29Z</time>
      </trkpt>
      <trkpt lat="46.560031" lon="13.124488">
        <ele>1049.449</ele>
        <time>2018-09-08T06:13:30Z</time>
      </trkpt>
      <trkpt lat="46.560012" lon="13.124584">
        <ele>1048.442</ele>
        <time>2018-09-08T06:13:31Z</time>
      </trkpt>
      <trkpt lat="46.560001" lon="13.124685">
        <ele>1048.422</ele>
        <time>2018-09-08T06:13:32Z</time>
      </trkpt>
      <trkpt lat="46.559979" lon="13.124778">
        <ele>1048.414</ele>
        <time>2018-09-08T06:13:33Z</time>
      </trkpt>
      <trkpt lat="46.559933" lon="13.124848">
        <ele>1048.408</ele>
        <time>2018-09-08T06:13:34Z</time>
      </trkpt>
      <trkpt lat="46.559866" lon="13.124880">
        <ele>1047.918</ele>
        <time>2018-09-08T06:13:35Z</time>
      </trkpt>
      <trkpt lat="46.559789" lon="13.124885">
        <ele>1047.950</ele>
        <time>2018-09-08T06:13:36Z</time>
      </trkpt>
      <trkpt lat="46.559707" lon="13.124871">
        <ele>1047.068</ele>
        <time>2018-09-08T06:13:37Z</time>
      </trkpt>
      <trkpt lat="46.559621" lon="13.124845">
        <ele>1046.537</ele>
        <time>2018-09-08T06:13:38Z</time>
      </trkpt>
      <trkpt lat="46.559449" lon="13.124803">
        <ele>1045.541</ele>
        <time>2018-09-08T06:13:40Z</time>
      </trkpt>
      <trkpt lat="46.559363" lon="13.124807">
        <ele>1044.626</ele>
        <time>2018-09-08T06:13:41Z</time>
      </trkpt>
      <trkpt lat="46.559276" lon="13.124836">
        <ele>1044.114</ele>
        <time>2018-09-08T06:13:42Z</time>
      </trkpt>
      <trkpt lat="46.559187" lon="13.124864">
        <ele>1043.666</ele>
        <time>2018-09-08T06:13:43Z</time>
      </trkpt>
      <trkpt lat="46.559100" lon="13.124889">
        <ele>1042.616</ele>
        <time>2018-09-08T06:13:44Z</time>
      </trkpt>
      <trkpt lat="46.559021" lon="13.124923">
        <ele>1041.776</ele>
        <time>2018-09-08T06:13:45Z</time>
      </trkpt>
      <trkpt lat="46.558955" lon="13.124984">
        <ele>1040.713</ele>
        <time>2018-09-08T06:13:46Z</time>
      </trkpt>
      <trkpt lat="46.558898" lon="13.125074">
        <ele>1039.808</ele>
        <time>2018-09-08T06:13:47Z</time>
      </trkpt>
      <trkpt lat="46.558849" lon="13.125179">
        <ele>1038.315</ele>
        <time>2018-09-08T06:13:48Z</time>
      </trkpt>
      <trkpt lat="46.558807" lon="13.125278">
        <ele>1037.417</ele>
        <time>2018-09-08T06:13:49Z</time>
      </trkpt>
      <trkpt lat="46.558773" lon="13.125362">
        <ele>1035.985</ele>
        <time>2018-09-08T06:13:50Z</time>
      </trkpt>
      <trkpt lat="46.558753" lon="13.125439">
        <ele>1034.574</ele>
        <time>2018-09-08T06:13:51Z</time>
      </trkpt>
      <trkpt lat="46.558750" lon="13.125502">
        <ele>1033.518</ele>
        <time>2018-09-08T06:13:52Z</time>
      </trkpt>
      <trkpt lat="46.558756" lon="13.125544">
        <ele>1032.523</ele>
        <time>2018-09-08T06:13:53Z</time>
      </trkpt>
      <trkpt lat="46.558761" lon="13.125574">
        <ele>1032.151</ele>
        <time>2018-09-08T06:13:54Z</time>
      </trkpt>
      <trkpt lat="46.558768" lon="13.125709">
        <ele>1029.733</ele>
        <time>2018-09-08T06:14:05Z</time>
      </trkpt>
      <trkpt lat="46.558755" lon="13.125737">
        <ele>1030.188</ele>
        <time>2018-09-08T06:14:06Z</time>
      </trkpt>
      <trkpt lat="46.558731" lon="13.125761">
        <ele>1030.124</ele>
        <time>2018-09-08T06:14:07Z</time>
      </trkpt>
      <trkpt lat="46.558706" lon="13.125787">
        <ele>1030.126</ele>
        <time>2018-09-08T06:14:08Z</time>
      </trkpt>
      <trkpt lat="46.558674" lon="13.125812">
        <ele>1030.108</ele>
        <time>2018-09-08T06:14:09Z</time>
      </trkpt>
      <trkpt lat="46.558636" lon="13.125837">
        <ele>1030.692</ele>
        <time>2018-09-08T06:14:10Z</time>
      </trkpt>
      <trkpt lat="46.558593" lon="13.125860">
        <ele>1030.664</ele>
        <time>2018-09-08T06:14:11Z</time>
      </trkpt>
      <trkpt lat="46.558542" lon="13.125878">
        <ele>1030.612</ele>
        <time>2018-09-08T06:14:12Z</time>
      </trkpt>
      <trkpt lat="46.558198" lon="13.125963">
        <ele>1030.141</ele>
        <time>2018-09-08T06:14:17Z</time>
      </trkpt>
      <trkpt lat="46.558125" lon="13.125944">
        <ele>1030.195</ele>
        <time>2018-09-08T06:14:18Z</time>
      </trkpt>
      <trkpt lat="46.558054" lon="13.125904">
        <ele>1030.150</ele>
        <time>2018-09-08T06:14:19Z</time>
      </trkpt>
      <trkpt lat="46.557928" lon="13.125831">
        <ele>1029.768</ele>
        <time>2018-09-08T06:14:21Z</time>
      </trkpt>
      <trkpt lat="46.557871" lon="13.125825">
        <ele>1029.280</ele>
        <time>2018-09-08T06:14:22Z</time>
      </trkpt>
      <trkpt lat="46.557815" lon="13.125857">
        <ele>1028.295</ele>
        <time>2018-09-08T06:14:23Z</time>
      </trkpt>
      <trkpt lat="46.557765" lon="13.125916">
        <ele>1027.749</ele>
        <time>2018-09-08T06:14:24Z</time>
      </trkpt>
      <trkpt lat="46.557720" lon="13.125995">
        <ele>1026.323</ele>
        <time>2018-09-08T06:14:25Z</time>
      </trkpt>
      <trkpt lat="46.557679" lon="13.126091">
        <ele>1025.308</ele>
        <time>2018-09-08T06:14:26Z</time>
      </trkpt>
      <trkpt lat="46.557651" lon="13.126203">
        <ele>1024.483</ele>
        <time>2018-09-08T06:14:27Z</time>
      </trkpt>
      <trkpt lat="46.557632" lon="13.126325">
        <ele>1023.415</ele>
        <time>2018-09-08T06:14:28Z</time>
      </trkpt>
      <trkpt lat="46.557564" lon="13.126665">
        <ele>1021.043</ele>
        <time>2018-09-08T06:14:31Z</time>
      </trkpt>
      <trkpt lat="46.557532" lon="13.126761">
        <ele>1020.172</ele>
        <time>2018-09-08T06:14:32Z</time>
      </trkpt>
      <trkpt lat="46.557498" lon="13.126853">
        <ele>1019.116</ele>
        <time>2018-09-08T06:14:33Z</time>
      </trkpt>
      <trkpt lat="46.557437" lon="13.127026">
        <ele>1017.291</ele>
        <time>2018-09-08T06:14:35Z</time>
      </trkpt>
      <trkpt lat="46.557435" lon="13.127122">
        <ele>1016.239</ele>
        <time>2018-09-08T06:14:36Z</time>
      </trkpt>
      <trkpt lat="46.557454" lon="13.127216">
        <ele>1015.231</ele>
        <time>2018-09-08T06:14:37Z</time>
      </trkpt>
      <trkpt lat="46.557478" lon="13.127302">
        <ele>1014.832</ele>
        <time>2018-09-08T06:14:38Z</time>
      </trkpt>
      <trkpt lat="46.557504" lon="13.127382">
        <ele>1013.892</ele>
        <time>2018-09-08T06:14:39Z</time>
      </trkpt>
      <trkpt lat="46.557516" lon="13.127462">
        <ele>1012.811</ele>
        <time>2018-09-08T06:14:40Z</time>
      </trkpt>
      <trkpt lat="46.557516" lon="13.127543">
        <ele>1011.908</ele>
        <time>2018-09-08T06:14:41Z</time>
      </trkpt>
      <trkpt lat="46.557505" lon="13.127620">
        <ele>1011.427</ele>
        <time>2018-09-08T06:14:42Z</time>
      </trkpt>
      <trkpt lat="46.557478" lon="13.127679">
        <ele>1010.489</ele>
        <time>2018-09-08T06:14:43Z</time>
      </trkpt>
      <trkpt lat="46.557437" lon="13.127713">
        <ele>1010.057</ele>
        <time>2018-09-08T06:14:44Z</time>
      </trkpt>
      <trkpt lat="46.557392" lon="13.127735">
        <ele>1010.036</ele>
        <time>2018-09-08T06:14:45Z</time>
      </trkpt>
      <trkpt lat="46.557345" lon="13.127757">
        <ele>1010.080</ele>
        <time>2018-09-08T06:14:46Z</time>
      </trkpt>
      <trkpt lat="46.557257" lon="13.127794">
        <ele>1010.075</ele>
        <time>2018-09-08T06:14:48Z</time>
      </trkpt>
      <trkpt lat="46.557213" lon="13.127805">
        <ele>1010.083</ele>
        <time>2018-09-08T06:14:49Z</time>
      </trkpt>
      <trkpt lat="46.557167" lon="13.127817">
        <ele>1010.025</ele>
        <time>2018-09-08T06:14:50Z</time>
      </trkpt>
      <trkpt lat="46.557031" lon="13.127860">
        <ele>1010.458</ele>
        <time>2018-09-08T06:14:53Z</time>
      </trkpt>
      <trkpt lat="46.556987" lon="13.127866">
        <ele>1010.452</ele>
        <time>2018-09-08T06:14:54Z</time>
      </trkpt>
      <trkpt lat="46.556942" lon="13.127886">
        <ele>1010.417</ele>
        <time>2018-09-08T06:14:55Z</time>
      </trkpt>
      <trkpt lat="46.556901" lon="13.127917">
        <ele>1010.408</ele>
        <time>2018-09-08T06:14:56Z</time>
      </trkpt>
      <trkpt lat="46.556870" lon="13.127959">
        <ele>1010.019</ele>
        <time>2018-09-08T06:14:57Z</time>
      </trkpt>
      <trkpt lat="46.556840" lon="13.128015">
        <ele>1009.521</ele>
        <time>2018-09-08T06:14:58Z</time>
      </trkpt>
      <trkpt lat="46.556815" lon="13.128079">
        <ele>1009.089</ele>
        <time>2018-09-08T06:14:59Z</time>
      </trkpt>
      <trkpt lat="46.556790" lon="13.128150">
        <ele>1008.578</ele>
        <time>2018-09-08T06:15:00Z</time>
      </trkpt>
      <trkpt lat="46.556763" lon="13.128214">
        <ele>1008.522</ele>
        <time>2018-09-08T06:15:01Z</time>
      </trkpt>
      <trkpt lat="46.556730" lon="13.128275">
        <ele>1008.067</ele>
        <time>2018-09-08T06:15:02Z</time>
      </trkpt>
      <trkpt lat="46.556692" lon="13.128327">
        <ele>1008.015</ele>
        <time>2018-09-08T06:15:03Z</time>
      </trkpt>
      <trkpt lat="46.556651" lon="13.128373">
        <ele>1008.077</ele>
        <time>2018-09-08T06:15:04Z</time>
      </trkpt>
      <trkpt lat="46.556610" lon="13.128409">
        <ele>1008.082</ele>
        <time>2018-09-08T06:15:05Z</time>
      </trkpt>
      <trkpt lat="46.556563" lon="13.128442">
        <ele>1008.043</ele>
        <time>2018-09-08T06:15:06Z</time>
      </trkpt>
      <trkpt lat="46.556520" lon="13.128480">
        <ele>1008.017</ele>
        <time>2018-09-08T06:15:07Z</time>
      </trkpt>
      <trkpt lat="46.556483" lon="13.128529">
        <ele>1008.008</ele>
        <time>2018-09-08T06:15:08Z</time>
      </trkpt>
      <trkpt lat="46.556455" lon="13.128583">
        <ele>1007.682</ele>
        <time>2018-09-08T06:15:09Z</time>
      </trkpt>
      <trkpt lat="46.556434" lon="13.128640">
        <ele>1007.144</ele>
        <time>2018-09-08T06:15:10Z</time>
      </trkpt>
      <trkpt lat="46.556414" lon="13.128696">
        <ele>1006.682</ele>
        <time>2018-09-08T06:15:11Z</time>
      </trkpt>
      <trkpt lat="46.555993" lon="13.129099">
        <ele>1004.731</ele>
        <time>2018-09-08T06:15:24Z</time>
      </trkpt>
      <trkpt lat="46.555748" lon="13.128883">
        <ele>1011.465</ele>
        <time>2018-09-08T06:15:31Z</time>
      </trkpt>
      <trkpt lat="46.555745" lon="13.128834">
        <ele>1011.460</ele>
        <time>2018-09-08T06:15:32Z</time>
      </trkpt>
      <trkpt lat="46.555746" lon="13.128786">
        <ele>1011.918</ele>
        <time>2018-09-08T06:15:33Z</time>
      </trkpt>
      <trkpt lat="46.555749" lon="13.128740">
        <ele>1011.970</ele>
        <time>2018-09-08T06:15:34Z</time>
      </trkpt>
      <trkpt lat="46.555756" lon="13.128696">
        <ele>1011.999</ele>
        <time>2018-09-08T06:15:35Z</time>
      </trkpt>
      <trkpt lat="46.555770" lon="13.128341">
        <ele>1014.807</ele>
        <time>2018-09-08T06:15:47Z</time>
      </trkpt>
      <trkpt lat="46.555696" lon="13.128015">
        <ele>1018.627</ele>
        <time>2018-09-08T06:15:59Z</time>
      </trkpt>
      <trkpt lat="46.555690" lon="13.127989">
        <ele>1019.108</ele>
        <time>2018-09-08T06:16:00Z</time>
      </trkpt>
      <trkpt lat="46.555687" lon="13.127965">
        <ele>1019.173</ele>
        <time>2018-09-08T06:16:01Z</time>
      </trkpt>
      <trkpt lat="46.555683" lon="13.127940">
        <ele>1019.655</ele>
        <time>2018-09-08T06:16:02Z</time>
      </trkpt>
      <trkpt lat="46.555681" lon="13.127914">
        <ele>1020.123</ele>
        <time>2018-09-08T06:16:03Z</time>
      </trkpt>
      <trkpt lat="46.555678" lon="13.127893">
        <ele>1020.152</ele>
        <time>2018-09-08T06:16:04Z</time>
      </trkpt>
      <trkpt lat="46.555696" lon="13.127548">
        <ele>1022.096</ele>
        <time>2018-09-08T06:16:17Z</time>
      </trkpt>
      <trkpt lat="46.555687" lon="13.127531">
        <ele>1022.011</ele>
        <time>2018-09-08T06:16:18Z</time>
      </trkpt>
      <trkpt lat="46.555684" lon="13.127508">
        <ele>1022.019</ele>
        <time>2018-09-08T06:16:19Z</time>
      </trkpt>
      <trkpt lat="46.555682" lon="13.127487">
        <ele>1022.011</ele>
        <time>2018-09-08T06:16:20Z</time>
      </trkpt>
      <trkpt lat="46.555677" lon="13.127464">
        <ele>1022.076</ele>
        <time>2018-09-08T06:16:21Z</time>
      </trkpt>
      <trkpt lat="46.555674" lon="13.127443">
        <ele>1022.090</ele>
        <time>2018-09-08T06:16:22Z</time>
      </trkpt>
      <trkpt lat="46.555671" lon="13.127423">
        <ele>1022.519</ele>
        <time>2018-09-08T06:16:23Z</time>
      </trkpt>
      <trkpt lat="46.555665" lon="13.127403">
        <ele>1022.508</ele>
        <time>2018-09-08T06:16:24Z</time>
      </trkpt>
      <trkpt lat="46.555659" lon="13.127382">
        <ele>1022.551</ele>
        <time>2018-09-08T06:16:25Z</time>
      </trkpt>
      <trkpt lat="46.555655" lon="13.127357">
        <ele>1022.913</ele>
        <time>2018-09-08T06:16:26Z</time>
      </trkpt>
      <trkpt lat="46.555676" lon="13.126972">
        <ele>1032.571</ele>
        <time>2018-09-08T06:16:38Z</time>
      </trkpt>
      <trkpt lat="46.555641" lon="13.126602">
        <ele>1042.290</ele>
        <time>2018-09-08T06:16:53Z</time>
      </trkpt>
      <trkpt lat="46.555624" lon="13.126106">
        <ele>1046.084</ele>
        <time>2018-09-08T06:17:03Z</time>
      </trkpt>
      <trkpt lat="46.555606" lon="13.126022">
        <ele>1046.069</ele>
        <time>2018-09-08T06:17:04Z</time>
      </trkpt>
      <trkpt lat="46.555559" lon="13.125825">
        <ele>1046.527</ele>
        <time>2018-09-08T06:17:06Z</time>
      </trkpt>
      <trkpt lat="46.555516" lon="13.125547">
        <ele>1046.039</ele>
        <time>2018-09-08T06:17:09Z</time>
      </trkpt>
      <trkpt lat="46.555367" lon="13.124985">
        <ele>1044.137</ele>
        <time>2018-09-08T06:17:15Z</time>
      </trkpt>
      <trkpt lat="46.555344" lon="13.124894">
        <ele>1043.649</ele>
        <time>2018-09-08T06:17:16Z</time>
      </trkpt>
      <trkpt lat="46.555328" lon="13.124803">
        <ele>1043.113</ele>
        <time>2018-09-08T06:17:17Z</time>
      </trkpt>
      <trkpt lat="46.555312" lon="13.124593">
        <ele>1042.208</ele>
        <time>2018-09-08T06:17:19Z</time>
      </trkpt>
      <trkpt lat="46.555315" lon="13.124486">
        <ele>1042.277</ele>
        <time>2018-09-08T06:17:20Z</time>
      </trkpt>
      <trkpt lat="46.555338" lon="13.124177">
        <ele>1041.239</ele>
        <time>2018-09-08T06:17:23Z</time>
      </trkpt>
      <trkpt lat="46.555356" lon="13.124077">
        <ele>1040.767</ele>
        <time>2018-09-08T06:17:24Z</time>
      </trkpt>
      <trkpt lat="46.555384" lon="13.123975">
        <ele>1040.786</ele>
        <time>2018-09-08T06:17:25Z</time>
      </trkpt>
      <trkpt lat="46.555419" lon="13.123876">
        <ele>1040.280</ele>
        <time>2018-09-08T06:17:26Z</time>
      </trkpt>
      <trkpt lat="46.555458" lon="13.123784">
        <ele>1040.265</ele>
        <time>2018-09-08T06:17:27Z</time>
      </trkpt>
      <trkpt lat="46.555571" lon="13.123444">
        <ele>1038.843</ele>
        <time>2018-09-08T06:17:31Z</time>
      </trkpt>
      <trkpt lat="46.555593" lon="13.123360">
        <ele>1037.815</ele>
        <time>2018-09-08T06:17:32Z</time>
      </trkpt>
      <trkpt lat="46.555618" lon="13.123283">
        <ele>1037.432</ele>
        <time>2018-09-08T06:17:33Z</time>
      </trkpt>
      <trkpt lat="46.555641" lon="13.123205">
        <ele>1036.992</ele>
        <time>2018-09-08T06:17:34Z</time>
      </trkpt>
      <trkpt lat="46.555656" lon="13.123123">
        <ele>1036.411</ele>
        <time>2018-09-08T06:17:35Z</time>
      </trkpt>
      <trkpt lat="46.555669" lon="13.123028">
        <ele>1036.408</ele>
        <time>2018-09-08T06:17:36Z</time>
      </trkpt>
      <trkpt lat="46.555678" lon="13.122926">
        <ele>1036.437</ele>
        <time>2018-09-08T06:17:37Z</time>
      </trkpt>
      <trkpt lat="46.555681" lon="13.122824">
        <ele>1036.429</ele>
        <time>2018-09-08T06:17:38Z</time>
      </trkpt>
      <trkpt lat="46.555680" lon="13.122718">
        <ele>1035.967</ele>
        <time>2018-09-08T06:17:39Z</time>
      </trkpt>
      <trkpt lat="46.555679" lon="13.122610">
        <ele>1035.916</ele>
        <time>2018-09-08T06:17:40Z</time>
      </trkpt>
      <trkpt lat="46.555682" lon="13.122503">
        <ele>1035.960</ele>
        <time>2018-09-08T06:17:41Z</time>
      </trkpt>
      <trkpt lat="46.555699" lon="13.121158">
        <ele>1032.135</ele>
        <time>2018-09-08T06:17:53Z</time>
      </trkpt>
      <trkpt lat="46.555734" lon="13.120823">
        <ele>1030.163</ele>
        <time>2018-09-08T06:17:56Z</time>
      </trkpt>
      <trkpt lat="46.555721" lon="13.120719">
        <ele>1030.155</ele>
        <time>2018-09-08T06:17:57Z</time>
      </trkpt>
      <trkpt lat="46.555688" lon="13.120639">
        <ele>1029.757</ele>
        <time>2018-09-08T06:17:58Z</time>
      </trkpt>
      <trkpt lat="46.555639" lon="13.120593">
        <ele>1029.200</ele>
        <time>2018-09-08T06:17:59Z</time>
      </trkpt>
      <trkpt lat="46.555579" lon="13.120574">
        <ele>1028.720</ele>
        <time>2018-09-08T06:18:00Z</time>
      </trkpt>
      <trkpt lat="46.555526" lon="13.120571">
        <ele>1028.208</ele>
        <time>2018-09-08T06:18:01Z</time>
      </trkpt>
      <trkpt lat="46.555481" lon="13.120576">
        <ele>1027.739</ele>
        <time>2018-09-08T06:18:02Z</time>
      </trkpt>
      <trkpt lat="46.555115" lon="13.120769">
        <ele>1017.251</ele>
        <time>2018-09-08T06:18:11Z</time>
      </trkpt>
      <trkpt lat="46.555046" lon="13.120801">
        <ele>1012.829</ele>
        <time>2018-09-08T06:18:18Z</time>
      </trkpt>
      <trkpt lat="46.554924" lon="13.120865">
        <ele>1008.538</ele>
        <time>2018-09-08T06:18:27Z</time>
      </trkpt>
      <trkpt lat="46.554903" lon="13.120896">
        <ele>1005.262</ele>
        <time>2018-09-08T06:18:45Z</time>
      </trkpt>
      <trkpt lat="46.554891" lon="13.120905">
        <ele>1005.227</ele>
        <time>2018-09-08T06:19:02Z</time>
      </trkpt>
      <trkpt lat="46.554883" lon="13.120922">
        <ele>1004.775</ele>
        <time>2018-09-08T06:19:03Z</time>
      </trkpt>
      <trkpt lat="46.554870" lon="13.120946">
        <ele>1004.747</ele>
        <time>2018-09-08T06:19:04Z</time>
      </trkpt>
      <trkpt lat="46.554852" lon="13.120979">
        <ele>1004.228</ele>
        <time>2018-09-08T06:19:05Z</time>
      </trkpt>
      <trkpt lat="46.554829" lon="13.121021">
        <ele>1003.789</ele>
        <time>2018-09-08T06:19:06Z</time>
      </trkpt>
      <trkpt lat="46.554573" lon="13.121368">
        <ele>999.417</ele>
        <time>2018-09-08T06:19:12Z</time>
      </trkpt>
      <trkpt lat="46.554506" lon="13.121427">
        <ele>998.408</ele>
        <time>2018-09-08T06:19:13Z</time>
      </trkpt>
      <trkpt lat="46.554435" lon="13.121490">
        <ele>997.576</ele>
        <time>2018-09-08T06:19:14Z</time>
      </trkpt>
      <trkpt lat="46.554365" lon="13.121564">
        <ele>997.068</ele>
        <time>2018-09-08T06:19:15Z</time>
      </trkpt>
      <trkpt lat="46.554296" lon="13.121650">
        <ele>996.016</ele>
        <time>2018-09-08T06:19:16Z</time>
      </trkpt>
      <trkpt lat="46.554224" lon="13.121737">
        <ele>995.145</ele>
        <time>2018-09-08T06:19:17Z</time>
      </trkpt>
      <trkpt lat="46.554147" lon="13.121820">
        <ele>994.169</ele>
        <time>2018-09-08T06:19:18Z</time>
      </trkpt>
      <trkpt lat="46.553985" lon="13.122010">
        <ele>992.244</ele>
        <time>2018-09-08T06:19:20Z</time>
      </trkpt>
      <trkpt lat="46.553824" lon="13.122220">
        <ele>989.832</ele>
        <time>2018-09-08T06:19:22Z</time>
      </trkpt>
      <trkpt lat="46.553731" lon="13.122299">
        <ele>988.384</ele>
        <time>2018-09-08T06:19:23Z</time>
      </trkpt>
      <trkpt lat="46.553628" lon="13.122365">
        <ele>987.479</ele>
        <time>2018-09-08T06:19:24Z</time>
      </trkpt>
      <trkpt lat="46.553148" lon="13.122650">
        <ele>981.605</ele>
        <time>2018-09-08T06:19:29Z</time>
      </trkpt>
      <trkpt lat="46.553075" lon="13.122651">
        <ele>981.125</ele>
        <time>2018-09-08T06:19:30Z</time>
      </trkpt>
      <trkpt lat="46.552993" lon="13.122626">
        <ele>980.208</ele>
        <time>2018-09-08T06:19:31Z</time>
      </trkpt>
      <trkpt lat="46.552913" lon="13.122609">
        <ele>979.781</ele>
        <time>2018-09-08T06:19:32Z</time>
      </trkpt>
      <trkpt lat="46.552833" lon="13.122620">
        <ele>978.783</ele>
        <time>2018-09-08T06:19:33Z</time>
      </trkpt>
      <trkpt lat="46.552760" lon="13.122664">
        <ele>978.271</ele>
        <time>2018-09-08T06:19:34Z</time>
      </trkpt>
      <trkpt lat="46.552703" lon="13.122720">
        <ele>977.840</ele>
        <time>2018-09-08T06:19:35Z</time>
      </trkpt>
      <trkpt lat="46.552656" lon="13.122778">
        <ele>977.314</ele>
        <time>2018-09-08T06:19:36Z</time>
      </trkpt>
      <trkpt lat="46.552607" lon="13.122817">
        <ele>976.339</ele>
        <time>2018-09-08T06:19:37Z</time>
      </trkpt>
      <trkpt lat="46.552549" lon="13.122834">
        <ele>976.327</ele>
        <time>2018-09-08T06:19:38Z</time>
      </trkpt>
      <trkpt lat="46.552488" lon="13.122806">
        <ele>975.899</ele>
        <time>2018-09-08T06:19:39Z</time>
      </trkpt>
      <trkpt lat="46.552443" lon="13.122741">
        <ele>975.896</ele>
        <time>2018-09-08T06:19:40Z</time>
      </trkpt>
      <trkpt lat="46.552407" lon="13.122670">
        <ele>975.331</ele>
        <time>2018-09-08T06:19:41Z</time>
      </trkpt>
      <trkpt lat="46.552364" lon="13.122617">
        <ele>974.924</ele>
        <time>2018-09-08T06:19:42Z</time>
      </trkpt>
      <trkpt lat="46.552315" lon="13.122587">
        <ele>974.408</ele>
        <time>2018-09-08T06:19:43Z</time>
      </trkpt>
      <trkpt lat="46.552262" lon="13.122580">
        <ele>973.923</ele>
        <time>2018-09-08T06:19:44Z</time>
      </trkpt>
      <trkpt lat="46.552207" lon="13.122592">
        <ele>973.495</ele>
        <time>2018-09-08T06:19:45Z</time>
      </trkpt>
      <trkpt lat="46.552151" lon="13.122610">
        <ele>972.543</ele>
        <time>2018-09-08T06:19:46Z</time>
      </trkpt>
      <trkpt lat="46.551563" lon="13.122722">
        <ele>970.142</ele>
        <time>2018-09-08T06:19:56Z</time>
      </trkpt>
      <trkpt lat="46.551503" lon="13.122744">
        <ele>970.146</ele>
        <time>2018-09-08T06:19:57Z</time>
      </trkpt>
      <trkpt lat="46.551247" lon="13.122892">
        <ele>968.111</ele>
        <time>2018-09-08T06:20:01Z</time>
      </trkpt>
      <trkpt lat="46.551123" lon="13.122949">
        <ele>966.759</ele>
        <time>2018-09-08T06:20:03Z</time>
      </trkpt>
      <trkpt lat="46.551055" lon="13.122966">
        <ele>966.211</ele>
        <time>2018-09-08T06:20:04Z</time>
      </trkpt>
      <trkpt lat="46.550774" lon="13.123009">
        <ele>961.948</ele>
        <time>2018-09-08T06:20:08Z</time>
      </trkpt>
      <trkpt lat="46.550701" lon="13.123021">
        <ele>960.961</ele>
        <time>2018-09-08T06:20:09Z</time>
      </trkpt>
      <trkpt lat="46.550630" lon="13.123032">
        <ele>960.017</ele>
        <time>2018-09-08T06:20:10Z</time>
      </trkpt>
      <trkpt lat="46.550352" lon="13.123115">
        <ele>956.608</ele>
        <time>2018-09-08T06:20:14Z</time>
      </trkpt>
      <trkpt lat="46.549930" lon="13.123131">
        <ele>950.828</ele>
        <time>2018-09-08T06:20:20Z</time>
      </trkpt>
      <trkpt lat="46.549802" lon="13.123136">
        <ele>948.460</ele>
        <time>2018-09-08T06:20:22Z</time>
      </trkpt>
      <trkpt lat="46.549495" lon="13.123184">
        <ele>943.618</ele>
        <time>2018-09-08T06:20:27Z</time>
      </trkpt>
      <trkpt lat="46.549434" lon="13.123201">
        <ele>942.737</ele>
        <time>2018-09-08T06:20:28Z</time>
      </trkpt>
      <trkpt lat="46.549376" lon="13.123219">
        <ele>941.791</ele>
        <time>2018-09-08T06:20:29Z</time>
      </trkpt>
      <trkpt lat="46.549316" lon="13.123230">
        <ele>940.366</ele>
        <time>2018-09-08T06:20:30Z</time>
      </trkpt>
      <trkpt lat="46.549252" lon="13.123227">
        <ele>939.384</ele>
        <time>2018-09-08T06:20:31Z</time>
      </trkpt>
      <trkpt lat="46.549194" lon="13.123213">
        <ele>938.326</ele>
        <time>2018-09-08T06:20:32Z</time>
      </trkpt>
      <trkpt lat="46.549132" lon="13.123191">
        <ele>937.449</ele>
        <time>2018-09-08T06:20:33Z</time>
      </trkpt>
      <trkpt lat="46.549079" lon="13.123164">
        <ele>936.402</ele>
        <time>2018-09-08T06:20:34Z</time>
      </trkpt>
      <trkpt lat="46.549036" lon="13.123121">
        <ele>935.522</ele>
        <time>2018-09-08T06:20:35Z</time>
      </trkpt>
      <trkpt lat="46.549006" lon="13.123057">
        <ele>935.008</ele>
        <time>2018-09-08T06:20:36Z</time>
      </trkpt>
      <trkpt lat="46.548985" lon="13.122984">
        <ele>934.018</ele>
        <time>2018-09-08T06:20:37Z</time>
      </trkpt>
      <trkpt lat="46.548959" lon="13.122917">
        <ele>933.570</ele>
        <time>2018-09-08T06:20:38Z</time>
      </trkpt>
      <trkpt lat="46.548922" lon="13.122863">
        <ele>932.638</ele>
        <time>2018-09-08T06:20:39Z</time>
      </trkpt>
      <trkpt lat="46.548878" lon="13.122820">
        <ele>932.177</ele>
        <time>2018-09-08T06:20:40Z</time>
      </trkpt>
      <trkpt lat="46.548828" lon="13.122777">
        <ele>931.121</ele>
        <time>2018-09-08T06:20:41Z</time>
      </trkpt>
      <trkpt lat="46.548492" lon="13.122476">
        <ele>926.316</ele>
        <time>2018-09-08T06:20:48Z</time>
      </trkpt>
      <trkpt lat="46.548451" lon="13.122415">
        <ele>925.814</ele>
        <time>2018-09-08T06:20:49Z</time>
      </trkpt>
      <trkpt lat="46.548310" lon="13.122190">
        <ele>923.916</ele>
        <time>2018-09-08T06:20:53Z</time>
      </trkpt>
      <trkpt lat="46.548270" lon="13.122155">
        <ele>923.919</ele>
        <time>2018-09-08T06:20:54Z</time>
      </trkpt>
      <trkpt lat="46.548221" lon="13.122141">
        <ele>923.409</ele>
        <time>2018-09-08T06:20:55Z</time>
      </trkpt>
      <trkpt lat="46.548169" lon="13.122148">
        <ele>922.519</ele>
        <time>2018-09-08T06:20:56Z</time>
      </trkpt>
      <trkpt lat="46.548118" lon="13.122171">
        <ele>922.008</ele>
        <time>2018-09-08T06:20:57Z</time>
      </trkpt>
      <trkpt lat="46.548066" lon="13.122199">
        <ele>921.095</ele>
        <time>2018-09-08T06:20:58Z</time>
      </trkpt>
      <trkpt lat="46.548013" lon="13.122218">
        <ele>920.697</ele>
        <time>2018-09-08T06:20:59Z</time>
      </trkpt>
      <trkpt lat="46.547961" lon="13.122220">
        <ele>919.625</ele>
        <time>2018-09-08T06:21:00Z</time>
      </trkpt>
      <trkpt lat="46.547909" lon="13.122212">
        <ele>918.644</ele>
        <time>2018-09-08T06:21:01Z</time>
      </trkpt>
      <trkpt lat="46.547858" lon="13.122213">
        <ele>917.718</ele>
        <time>2018-09-08T06:21:02Z</time>
      </trkpt>
      <trkpt lat="46.547804" lon="13.122227">
        <ele>916.733</ele>
        <time>2018-09-08T06:21:03Z</time>
      </trkpt>
      <trkpt lat="46.547748" lon="13.122251">
        <ele>915.711</ele>
        <time>2018-09-08T06:21:04Z</time>
      </trkpt>
      <trkpt lat="46.547583" lon="13.122323">
        <ele>912.983</ele>
        <time>2018-09-08T06:21:07Z</time>
      </trkpt>
      <trkpt lat="46.547530" lon="13.122347">
        <ele>911.932</ele>
        <time>2018-09-08T06:21:08Z</time>
      </trkpt>
      <trkpt lat="46.547471" lon="13.122364">
        <ele>910.992</ele>
        <time>2018-09-08T06:21:09Z</time>
      </trkpt>
      <trkpt lat="46.547191" lon="13.122437">
        <ele>906.611</ele>
        <time>2018-09-08T06:21:14Z</time>
      </trkpt>
      <trkpt lat="46.546970" lon="13.122528">
        <ele>902.308</ele>
        <time>2018-09-08T06:21:18Z</time>
      </trkpt>
      <trkpt lat="46.546913" lon="13.122533">
        <ele>901.357</ele>
        <time>2018-09-08T06:21:19Z</time>
      </trkpt>
      <trkpt lat="46.546856" lon="13.122527">
        <ele>900.449</ele>
        <time>2018-09-08T06:21:20Z</time>
      </trkpt>
      <trkpt lat="46.546799" lon="13.122506">
        <ele>899.977</ele>
        <time>2018-09-08T06:21:21Z</time>
      </trkpt>
      <trkpt lat="46.546751" lon="13.122472">
        <ele>899.486</ele>
        <time>2018-09-08T06:21:22Z</time>
      </trkpt>
      <trkpt lat="46.546702" lon="13.122422">
        <ele>898.930</ele>
        <time>2018-09-08T06:21:23Z</time>
      </trkpt>
      <trkpt lat="46.546660" lon="13.122364">
        <ele>898.445</ele>
        <time>2018-09-08T06:21:24Z</time>
      </trkpt>
      <trkpt lat="46.546533" lon="13.122197">
        <ele>898.093</ele>
        <time>2018-09-08T06:21:27Z</time>
      </trkpt>
      <trkpt lat="46.546484" lon="13.122148">
        <ele>898.035</ele>
        <time>2018-09-08T06:21:28Z</time>
      </trkpt>
      <trkpt lat="46.546283" lon="13.121983">
        <ele>897.558</ele>
        <time>2018-09-08T06:21:32Z</time>
      </trkpt>
      <trkpt lat="46.546231" lon="13.121954">
        <ele>897.552</ele>
        <time>2018-09-08T06:21:33Z</time>
      </trkpt>
      <trkpt lat="46.546069" lon="13.121896">
        <ele>897.017</ele>
        <time>2018-09-08T06:21:36Z</time>
      </trkpt>
      <trkpt lat="46.545957" lon="13.121860">
        <ele>897.008</ele>
        <time>2018-09-08T06:21:38Z</time>
      </trkpt>
      <trkpt lat="46.545903" lon="13.121820">
        <ele>896.589</ele>
        <time>2018-09-08T06:21:39Z</time>
      </trkpt>
      <trkpt lat="46.545797" lon="13.121737">
        <ele>896.031</ele>
        <time>2018-09-08T06:21:41Z</time>
      </trkpt>
      <trkpt lat="46.545740" lon="13.121714">
        <ele>896.049</ele>
        <time>2018-09-08T06:21:42Z</time>
      </trkpt>
      <trkpt lat="46.545681" lon="13.121712">
        <ele>895.698</ele>
        <time>2018-09-08T06:21:43Z</time>
      </trkpt>
      <trkpt lat="46.545625" lon="13.121728">
        <ele>895.132</ele>
        <time>2018-09-08T06:21:44Z</time>
      </trkpt>
      <trkpt lat="46.545570" lon="13.121758">
        <ele>894.687</ele>
        <time>2018-09-08T06:21:45Z</time>
      </trkpt>
      <trkpt lat="46.545518" lon="13.121797">
        <ele>893.645</ele>
        <time>2018-09-08T06:21:46Z</time>
      </trkpt>
      <trkpt lat="46.545466" lon="13.121840">
        <ele>893.267</ele>
        <time>2018-09-08T06:21:47Z</time>
      </trkpt>
      <trkpt lat="46.545416" lon="13.121882">
        <ele>892.236</ele>
        <time>2018-09-08T06:21:48Z</time>
      </trkpt>
      <trkpt lat="46.545258" lon="13.121995">
        <ele>889.317</ele>
        <time>2018-09-08T06:21:51Z</time>
      </trkpt>
      <trkpt lat="46.545215" lon="13.122049">
        <ele>887.918</ele>
        <time>2018-09-08T06:21:52Z</time>
      </trkpt>
      <trkpt lat="46.545180" lon="13.122120">
        <ele>886.908</ele>
        <time>2018-09-08T06:21:53Z</time>
      </trkpt>
      <trkpt lat="46.544814" lon="13.122820">
        <ele>873.947</ele>
        <time>2018-09-08T06:22:02Z</time>
      </trkpt>
      <trkpt lat="46.544760" lon="13.122864">
        <ele>872.069</ele>
        <time>2018-09-08T06:22:03Z</time>
      </trkpt>
      <trkpt lat="46.544693" lon="13.122885">
        <ele>869.637</ele>
        <time>2018-09-08T06:22:04Z</time>
      </trkpt>
      <trkpt lat="46.544625" lon="13.122896">
        <ele>867.746</ele>
        <time>2018-09-08T06:22:05Z</time>
      </trkpt>
      <trkpt lat="46.544561" lon="13.122898">
        <ele>866.720</ele>
        <time>2018-09-08T06:22:06Z</time>
      </trkpt>
      <trkpt lat="46.544499" lon="13.122900">
        <ele>865.345</ele>
        <time>2018-09-08T06:22:07Z</time>
      </trkpt>
      <trkpt lat="46.544446" lon="13.122912">
        <ele>864.383</ele>
        <time>2018-09-08T06:22:08Z</time>
      </trkpt>
      <trkpt lat="46.544393" lon="13.122944">
        <ele>863.435</ele>
        <time>2018-09-08T06:22:09Z</time>
      </trkpt>
      <trkpt lat="46.544339" lon="13.123001">
        <ele>861.991</ele>
        <time>2018-09-08T06:22:10Z</time>
      </trkpt>
      <trkpt lat="46.544280" lon="13.123074">
        <ele>860.581</ele>
        <time>2018-09-08T06:22:11Z</time>
      </trkpt>
      <trkpt lat="46.544237" lon="13.123139">
        <ele>859.019</ele>
        <time>2018-09-08T06:22:12Z</time>
      </trkpt>
      <trkpt lat="46.544202" lon="13.123213">
        <ele>857.608</ele>
        <time>2018-09-08T06:22:13Z</time>
      </trkpt>
      <trkpt lat="46.544179" lon="13.123295">
        <ele>856.153</ele>
        <time>2018-09-08T06:22:14Z</time>
      </trkpt>
      <trkpt lat="46.544171" lon="13.123383">
        <ele>854.785</ele>
        <time>2018-09-08T06:22:15Z</time>
      </trkpt>
      <trkpt lat="46.544173" lon="13.123475">
        <ele>853.753</ele>
        <time>2018-09-08T06:22:16Z</time>
      </trkpt>
      <trkpt lat="46.544178" lon="13.123562">
        <ele>852.812</ele>
        <time>2018-09-08T06:22:17Z</time>
      </trkpt>
      <trkpt lat="46.544180" lon="13.123638">
        <ele>851.896</ele>
        <time>2018-09-08T06:22:18Z</time>
      </trkpt>
      <trkpt lat="46.544164" lon="13.123694">
        <ele>850.441</ele>
        <time>2018-09-08T06:22:19Z</time>
      </trkpt>
      <trkpt lat="46.544134" lon="13.123723">
        <ele>849.419</ele>
        <time>2018-09-08T06:22:20Z</time>
      </trkpt>
      <trkpt lat="46.544103" lon="13.123720">
        <ele>848.931</ele>
        <time>2018-09-08T06:22:21Z</time>
      </trkpt>
      <trkpt lat="46.544076" lon="13.123693">
        <ele>848.065</ele>
        <time>2018-09-08T06:22:22Z</time>
      </trkpt>
      <trkpt lat="46.544061" lon="13.123656">
        <ele>847.568</ele>
        <time>2018-09-08T06:22:23Z</time>
      </trkpt>
      <trkpt lat="46.544053" lon="13.123613">
        <ele>847.014</ele>
        <time>2018-09-08T06:22:24Z</time>
      </trkpt>
      <trkpt lat="46.544052" lon="13.123569">
        <ele>846.508</ele>
        <time>2018-09-08T06:22:25Z</time>
      </trkpt>
      <trkpt lat="46.544053" lon="13.123510">
        <ele>846.560</ele>
        <time>2018-09-08T06:22:26Z</time>
      </trkpt>
      <trkpt lat="46.544086" lon="13.123060">
        <ele>841.232</ele>
        <time>2018-09-08T06:22:36Z</time>
      </trkpt>
      <trkpt lat="46.544064" lon="13.123036">
        <ele>839.360</ele>
        <time>2018-09-08T06:22:51Z</time>
      </trkpt>
      <trkpt lat="46.544107" lon="13.122829">
        <ele>837.999</ele>
        <time>2018-09-08T06:23:07Z</time>
      </trkpt>
      <trkpt lat="46.544162" lon="13.122589">
        <ele>836.013</ele>
        <time>2018-09-08T06:23:10Z</time>
      </trkpt>
      <trkpt lat="46.544201" lon="13.122523">
        <ele>835.568</ele>
        <time>2018-09-08T06:23:11Z</time>
      </trkpt>
      <trkpt lat="46.544248" lon="13.122476">
        <ele>834.596</ele>
        <time>2018-09-08T06:23:12Z</time>
      </trkpt>
      <trkpt lat="46.544297" lon="13.122451">
        <ele>834.058</ele>
        <time>2018-09-08T06:23:13Z</time>
      </trkpt>
      <trkpt lat="46.544348" lon="13.122429">
        <ele>833.132</ele>
        <time>2018-09-08T06:23:14Z</time>
      </trkpt>
      <trkpt lat="46.544397" lon="13.122395">
        <ele>832.692</ele>
        <time>2018-09-08T06:23:15Z</time>
      </trkpt>
      <trkpt lat="46.544443" lon="13.122348">
        <ele>832.111</ele>
        <time>2018-09-08T06:23:16Z</time>
      </trkpt>
      <trkpt lat="46.544489" lon="13.122277">
        <ele>830.708</ele>
        <time>2018-09-08T06:23:17Z</time>
      </trkpt>
      <trkpt lat="46.544534" lon="13.122188">
        <ele>829.797</ele>
        <time>2018-09-08T06:23:18Z</time>
      </trkpt>
      <trkpt lat="46.544574" lon="13.122087">
        <ele>828.339</ele>
        <time>2018-09-08T06:23:19Z</time>
      </trkpt>
      <trkpt lat="46.544823" lon="13.121424">
        <ele>820.647</ele>
        <time>2018-09-08T06:23:25Z</time>
      </trkpt>
      <trkpt lat="46.544823" lon="13.121340">
        <ele>819.126</ele>
        <time>2018-09-08T06:23:26Z</time>
      </trkpt>
      <trkpt lat="46.544794" lon="13.121277">
        <ele>818.280</ele>
        <time>2018-09-08T06:23:27Z</time>
      </trkpt>
      <trkpt lat="46.544742" lon="13.121238">
        <ele>816.775</ele>
        <time>2018-09-08T06:23:28Z</time>
      </trkpt>
      <trkpt lat="46.544680" lon="13.121228">
        <ele>815.833</ele>
        <time>2018-09-08T06:23:29Z</time>
      </trkpt>
      <trkpt lat="46.544620" lon="13.121250">
        <ele>814.835</ele>
        <time>2018-09-08T06:23:30Z</time>
      </trkpt>
      <trkpt lat="46.544562" lon="13.121291">
        <ele>813.828</ele>
        <time>2018-09-08T06:23:31Z</time>
      </trkpt>
      <trkpt lat="46.544503" lon="13.121341">
        <ele>812.989</ele>
        <time>2018-09-08T06:23:32Z</time>
      </trkpt>
      <trkpt lat="46.544323" lon="13.121487">
        <ele>810.517</ele>
        <time>2018-09-08T06:23:35Z</time>
      </trkpt>
      <trkpt lat="46.544277" lon="13.121558">
        <ele>809.508</ele>
        <time>2018-09-08T06:23:36Z</time>
      </trkpt>
      <trkpt lat="46.544237" lon="13.121648">
        <ele>808.196</ele>
        <time>2018-09-08T06:23:37Z</time>
      </trkpt>
      <trkpt lat="46.544188" lon="13.121732">
        <ele>807.138</ele>
        <time>2018-09-08T06:23:38Z</time>
      </trkpt>
      <trkpt lat="46.544121" lon="13.121796">
        <ele>806.286</ele>
        <time>2018-09-08T06:23:39Z</time>
      </trkpt>
      <trkpt lat="46.544048" lon="13.121842">
        <ele>804.715</ele>
        <time>2018-09-08T06:23:40Z</time>
      </trkpt>
      <trkpt lat="46.543978" lon="13.121881">
        <ele>803.849</ele>
        <time>2018-09-08T06:23:41Z</time>
      </trkpt>
      <trkpt lat="46.543914" lon="13.121923">
        <ele>802.384</ele>
        <time>2018-09-08T06:23:42Z</time>
      </trkpt>
      <trkpt lat="46.543855" lon="13.121981">
        <ele>801.452</ele>
        <time>2018-09-08T06:23:43Z</time>
      </trkpt>
      <trkpt lat="46.543676" lon="13.122191">
        <ele>797.024</ele>
        <time>2018-09-08T06:23:46Z</time>
      </trkpt>
      <trkpt lat="46.543623" lon="13.122291">
        <ele>795.181</ele>
        <time>2018-09-08T06:23:47Z</time>
      </trkpt>
      <trkpt lat="46.543327" lon="13.122923">
        <ele>786.561</ele>
        <time>2018-09-08T06:23:53Z</time>
      </trkpt>
      <trkpt lat="46.543265" lon="13.122990">
        <ele>785.017</ele>
        <time>2018-09-08T06:23:54Z</time>
      </trkpt>
      <trkpt lat="46.543199" lon="13.123031">
        <ele>784.008</ele>
        <time>2018-09-08T06:23:55Z</time>
      </trkpt>
      <trkpt lat="46.543136" lon="13.123068">
        <ele>782.652</ele>
        <time>2018-09-08T06:23:56Z</time>
      </trkpt>
      <trkpt lat="46.543087" lon="13.123125">
        <ele>781.614</ele>
        <time>2018-09-08T06:23:57Z</time>
      </trkpt>
      <trkpt lat="46.543047" lon="13.123206">
        <ele>780.222</ele>
        <time>2018-09-08T06:23:58Z</time>
      </trkpt>
      <trkpt lat="46.543005" lon="13.123291">
        <ele>778.841</ele>
        <time>2018-09-08T06:23:59Z</time>
      </trkpt>
      <trkpt lat="46.542947" lon="13.123362">
        <ele>776.875</ele>
        <time>2018-09-08T06:24:00Z</time>
      </trkpt>
      <trkpt lat="46.542877" lon="13.123422">
        <ele>775.460</ele>
        <time>2018-09-08T06:24:01Z</time>
      </trkpt>
      <trkpt lat="46.542807" lon="13.123481">
        <ele>774.068</ele>
        <time>2018-09-08T06:24:02Z</time>
      </trkpt>
      <trkpt lat="46.542745" lon="13.123543">
        <ele>772.580</ele>
        <time>2018-09-08T06:24:03Z</time>
      </trkpt>
      <trkpt lat="46.542695" lon="13.123606">
        <ele>771.127</ele>
        <time>2018-09-08T06:24:04Z</time>
      </trkpt>
      <trkpt lat="46.542660" lon="13.123675">
        <ele>769.668</ele>
        <time>2018-09-08T06:24:05Z</time>
      </trkpt>
      <trkpt lat="46.542638" lon="13.123762">
        <ele>768.214</ele>
        <time>2018-09-08T06:24:06Z</time>
      </trkpt>
      <trkpt lat="46.542622" lon="13.123863">
        <ele>766.708</ele>
        <time>2018-09-08T06:24:07Z</time>
      </trkpt>
      <trkpt lat="46.542583" lon="13.124056">
        <ele>763.986</ele>
        <time>2018-09-08T06:24:09Z</time>
      </trkpt>
      <trkpt lat="46.542550" lon="13.124140">
        <ele>762.438</ele>
        <time>2018-09-08T06:24:10Z</time>
      </trkpt>
      <trkpt lat="46.542511" lon="13.124203">
        <ele>761.516</ele>
        <time>2018-09-08T06:24:11Z</time>
      </trkpt>
      <trkpt lat="46.542465" lon="13.124243">
        <ele>760.575</ele>
        <time>2018-09-08T06:24:12Z</time>
      </trkpt>
      <trkpt lat="46.542416" lon="13.124254">
        <ele>760.049</ele>
        <time>2018-09-08T06:24:13Z</time>
      </trkpt>
      <trkpt lat="46.542367" lon="13.124232">
        <ele>759.164</ele>
        <time>2018-09-08T06:24:14Z</time>
      </trkpt>
      <trkpt lat="46.542329" lon="13.124180">
        <ele>758.632</ele>
        <time>2018-09-08T06:24:15Z</time>
      </trkpt>
      <trkpt lat="46.542297" lon="13.124120">
        <ele>758.674</ele>
        <time>2018-09-08T06:24:16Z</time>
      </trkpt>
      <trkpt lat="46.542233" lon="13.123990">
        <ele>758.612</ele>
        <time>2018-09-08T06:24:18Z</time>
      </trkpt>
      <trkpt lat="46.542177" lon="13.123849">
        <ele>758.632</ele>
        <time>2018-09-08T06:24:20Z</time>
      </trkpt>
      <trkpt lat="46.542146" lon="13.123778">
        <ele>758.605</ele>
        <time>2018-09-08T06:24:21Z</time>
      </trkpt>
      <trkpt lat="46.542117" lon="13.123700">
        <ele>758.608</ele>
        <time>2018-09-08T06:24:22Z</time>
      </trkpt>
      <trkpt lat="46.542085" lon="13.123619">
        <ele>758.615</ele>
        <time>2018-09-08T06:24:23Z</time>
      </trkpt>
      <trkpt lat="46.542043" lon="13.123544">
        <ele>758.117</ele>
        <time>2018-09-08T06:24:24Z</time>
      </trkpt>
      <trkpt lat="46.541993" lon="13.123472">
        <ele>757.665</ele>
        <time>2018-09-08T06:24:25Z</time>
      </trkpt>
      <trkpt lat="46.541937" lon="13.123401">
        <ele>757.144</ele>
        <time>2018-09-08T06:24:26Z</time>
      </trkpt>
      <trkpt lat="46.541809" lon="13.123263">
        <ele>756.668</ele>
        <time>2018-09-08T06:24:28Z</time>
      </trkpt>
      <trkpt lat="46.541735" lon="13.123207">
        <ele>756.283</ele>
        <time>2018-09-08T06:24:29Z</time>
      </trkpt>
      <trkpt lat="46.541347" lon="13.122908">
        <ele>753.841</ele>
        <time>2018-09-08T06:24:35Z</time>
      </trkpt>
      <trkpt lat="46.541217" lon="13.122815">
        <ele>753.313</ele>
        <time>2018-09-08T06:24:37Z</time>
      </trkpt>
      <trkpt lat="46.541148" lon="13.122787">
        <ele>752.846</ele>
        <time>2018-09-08T06:24:38Z</time>
      </trkpt>
      <trkpt lat="46.541016" lon="13.122749">
        <ele>751.888</ele>
        <time>2018-09-08T06:24:40Z</time>
      </trkpt>
      <trkpt lat="46.540951" lon="13.122718">
        <ele>751.816</ele>
        <time>2018-09-08T06:24:41Z</time>
      </trkpt>
      <trkpt lat="46.540890" lon="13.122676">
        <ele>751.408</ele>
        <time>2018-09-08T06:24:42Z</time>
      </trkpt>
      <trkpt lat="46.540837" lon="13.122622">
        <ele>750.498</ele>
        <time>2018-09-08T06:24:43Z</time>
      </trkpt>
      <trkpt lat="46.540788" lon="13.122565">
        <ele>749.910</ele>
        <time>2018-09-08T06:24:44Z</time>
      </trkpt>
      <trkpt lat="46.540735" lon="13.122536">
        <ele>749.488</ele>
        <time>2018-09-08T06:24:45Z</time>
      </trkpt>
      <trkpt lat="46.540675" lon="13.122538">
        <ele>749.047</ele>
        <time>2018-09-08T06:24:46Z</time>
      </trkpt>
      <trkpt lat="46.540610" lon="13.122564">
        <ele>748.061</ele>
        <time>2018-09-08T06:24:47Z</time>
      </trkpt>
      <trkpt lat="46.540542" lon="13.122596">
        <ele>747.576</ele>
        <time>2018-09-08T06:24:48Z</time>
      </trkpt>
      <trkpt lat="46.540468" lon="13.122614">
        <ele>746.624</ele>
        <time>2018-09-08T06:24:49Z</time>
      </trkpt>
      <trkpt lat="46.540390" lon="13.122610">
        <ele>745.636</ele>
        <time>2018-09-08T06:24:50Z</time>
      </trkpt>
      <trkpt lat="46.540311" lon="13.122591">
        <ele>745.188</ele>
        <time>2018-09-08T06:24:51Z</time>
      </trkpt>
      <trkpt lat="46.540226" lon="13.122559">
        <ele>744.224</ele>
        <time>2018-09-08T06:24:52Z</time>
      </trkpt>
      <trkpt lat="46.540139" lon="13.122518">
        <ele>743.226</ele>
        <time>2018-09-08T06:24:53Z</time>
      </trkpt>
      <trkpt lat="46.539620" lon="13.122256">
        <ele>737.908</ele>
        <time>2018-09-08T06:24:59Z</time>
      </trkpt>
      <trkpt lat="46.539522" lon="13.122186">
        <ele>736.552</ele>
        <time>2018-09-08T06:25:01Z</time>
      </trkpt>
      <trkpt lat="46.539493" lon="13.122156">
        <ele>736.044</ele>
        <time>2018-09-08T06:25:02Z</time>
      </trkpt>
      <trkpt lat="46.539477" lon="13.122134">
        <ele>736.062</ele>
        <time>2018-09-08T06:25:03Z</time>
      </trkpt>
      <trkpt lat="46.539468" lon="13.122119">
        <ele>735.591</ele>
        <time>2018-09-08T06:25:04Z</time>
      </trkpt>
      <trkpt lat="46.539471" lon="13.122131">
        <ele>736.945</ele>
        <time>2018-09-08T06:25:19Z</time>
      </trkpt>
      <trkpt lat="46.539444" lon="13.122105">
        <ele>737.470</ele>
        <time>2018-09-08T06:25:45Z</time>
      </trkpt>
      <trkpt lat="46.539337" lon="13.121878">
        <ele>738.478</ele>
        <time>2018-09-08T06:25:55Z</time>
      </trkpt>
      <trkpt lat="46.539302" lon="13.121820">
        <ele>737.970</ele>
        <time>2018-09-08T06:25:56Z</time>
      </trkpt>
      <trkpt lat="46.539260" lon="13.121769">
        <ele>737.461</ele>
        <time>2018-09-08T06:25:57Z</time>
      </trkpt>
      <trkpt lat="46.539210" lon="13.121720">
        <ele>736.921</ele>
        <time>2018-09-08T06:25:58Z</time>
      </trkpt>
      <trkpt lat="46.539156" lon="13.121671">
        <ele>736.013</ele>
        <time>2018-09-08T06:25:59Z</time>
      </trkpt>
      <trkpt lat="46.539103" lon="13.121614">
        <ele>735.508</ele>
        <time>2018-09-08T06:26:00Z</time>
      </trkpt>
      <trkpt lat="46.539040" lon="13.121562">
        <ele>734.130</ele>
        <time>2018-09-08T06:26:01Z</time>
      </trkpt>
      <trkpt lat="46.538975" lon="13.121525">
        <ele>733.152</ele>
        <time>2018-09-08T06:26:02Z</time>
      </trkpt>
      <trkpt lat="46.538903" lon="13.121495">
        <ele>732.140</ele>
        <time>2018-09-08T06:26:03Z</time>
      </trkpt>
      <trkpt lat="46.538827" lon="13.121477">
        <ele>731.229</ele>
        <time>2018-09-08T06:26:04Z</time>
      </trkpt>
      <trkpt lat="46.538749" lon="13.121458">
        <ele>730.273</ele>
        <time>2018-09-08T06:26:05Z</time>
      </trkpt>
      <trkpt lat="46.538670" lon="13.121438">
        <ele>729.368</ele>
        <time>2018-09-08T06:26:06Z</time>
      </trkpt>
      <trkpt lat="46.538588" lon="13.121424">
        <ele>728.356</ele>
        <time>2018-09-08T06:26:07Z</time>
      </trkpt>
      <trkpt lat="46.538513" lon="13.121424">
        <ele>727.378</ele>
        <time>2018-09-08T06:26:08Z</time>
      </trkpt>
      <trkpt lat="46.538293" lon="13.121428">
        <ele>724.438</ele>
        <time>2018-09-08T06:26:11Z</time>
      </trkpt>
      <trkpt lat="46.538222" lon="13.121397">
        <ele>723.570</ele>
        <time>2018-09-08T06:26:12Z</time>
      </trkpt>
      <trkpt lat="46.538154" lon="13.121339">
        <ele>722.017</ele>
        <time>2018-09-08T06:26:13Z</time>
      </trkpt>
      <trkpt lat="46.538087" lon="13.121256">
        <ele>721.108</ele>
        <time>2018-09-08T06:26:14Z</time>
      </trkpt>
      <trkpt lat="46.538022" lon="13.121169">
        <ele>719.687</ele>
        <time>2018-09-08T06:26:15Z</time>
      </trkpt>
      <trkpt lat="46.537690" lon="13.120707">
        <ele>713.469</ele>
        <time>2018-09-08T06:26:20Z</time>
      </trkpt>
      <trkpt lat="46.537637" lon="13.120598">
        <ele>712.457</ele>
        <time>2018-09-08T06:26:21Z</time>
      </trkpt>
      <trkpt lat="46.537173" lon="13.119891">
        <ele>702.826</ele>
        <time>2018-09-08T06:26:29Z</time>
      </trkpt>
      <trkpt lat="46.537113" lon="13.119848">
        <ele>701.480</ele>
        <time>2018-09-08T06:26:30Z</time>
      </trkpt>
      <trkpt lat="46.537040" lon="13.119823">
        <ele>700.425</ele>
        <time>2018-09-08T06:26:31Z</time>
      </trkpt>
      <trkpt lat="46.536965" lon="13.119793">
        <ele>699.033</ele>
        <time>2018-09-08T06:26:32Z</time>
      </trkpt>
      <trkpt lat="46.536900" lon="13.119743">
        <ele>697.555</ele>
        <time>2018-09-08T06:26:33Z</time>
      </trkpt>
      <trkpt lat="46.536838" lon="13.119688">
        <ele>696.668</ele>
        <time>2018-09-08T06:26:34Z</time>
      </trkpt>
      <trkpt lat="46.536776" lon="13.119656">
        <ele>695.642</ele>
        <time>2018-09-08T06:26:35Z</time>
      </trkpt>
      <trkpt lat="46.536716" lon="13.119657">
        <ele>695.126</ele>
        <time>2018-09-08T06:26:36Z</time>
      </trkpt>
      <trkpt lat="46.536662" lon="13.119677">
        <ele>694.208</ele>
        <time>2018-09-08T06:26:37Z</time>
      </trkpt>
      <trkpt lat="46.536616" lon="13.119676">
        <ele>693.290</ele>
        <time>2018-09-08T06:26:38Z</time>
      </trkpt>
      <trkpt lat="46.536586" lon="13.119639">
        <ele>692.712</ele>
        <time>2018-09-08T06:26:39Z</time>
      </trkpt>
      <trkpt lat="46.536578" lon="13.119586">
        <ele>692.230</ele>
        <time>2018-09-08T06:26:40Z</time>
      </trkpt>
      <trkpt lat="46.536599" lon="13.119545">
        <ele>691.879</ele>
        <time>2018-09-08T06:26:41Z</time>
      </trkpt>
      <trkpt lat="46.536640" lon="13.119534">
        <ele>691.323</ele>
        <time>2018-09-08T06:26:42Z</time>
      </trkpt>
      <trkpt lat="46.536691" lon="13.119541">
        <ele>690.868</ele>
        <time>2018-09-08T06:26:43Z</time>
      </trkpt>
      <trkpt lat="46.536745" lon="13.119557">
        <ele>690.396</ele>
        <time>2018-09-08T06:26:44Z</time>
      </trkpt>
      <trkpt lat="46.536798" lon="13.119579">
        <ele>689.848</ele>
        <time>2018-09-08T06:26:45Z</time>
      </trkpt>
      <trkpt lat="46.536854" lon="13.119595">
        <ele>688.945</ele>
        <time>2018-09-08T06:26:46Z</time>
      </trkpt>
      <trkpt lat="46.536918" lon="13.119593">
        <ele>688.947</ele>
        <time>2018-09-08T06:26:47Z</time>
      </trkpt>
      <trkpt lat="46.536984" lon="13.119570">
        <ele>688.411</ele>
        <time>2018-09-08T06:26:48Z</time>
      </trkpt>
      <trkpt lat="46.537055" lon="13.119537">
        <ele>687.408</ele>
        <time>2018-09-08T06:26:49Z</time>
      </trkpt>
      <trkpt lat="46.537127" lon="13.119518">
        <ele>687.058</ele>
        <time>2018-09-08T06:26:50Z</time>
      </trkpt>
      <trkpt lat="46.537199" lon="13.119519">
        <ele>686.520</ele>
        <time>2018-09-08T06:26:51Z</time>
      </trkpt>
      <trkpt lat="46.537271" lon="13.119542">
        <ele>685.538</ele>
        <time>2018-09-08T06:26:52Z</time>
      </trkpt>
      <trkpt lat="46.537343" lon="13.119592">
        <ele>685.077</ele>
        <time>2018-09-08T06:26:53Z</time>
      </trkpt>
      <trkpt lat="46.537415" lon="13.119652">
        <ele>684.141</ele>
        <time>2018-09-08T06:26:54Z</time>
      </trkpt>
      <trkpt lat="46.537551" lon="13.119777">
        <ele>682.156</ele>
        <time>2018-09-08T06:26:56Z</time>
      </trkpt>
      <trkpt lat="46.537604" lon="13.119847">
        <ele>681.794</ele>
        <time>2018-09-08T06:26:57Z</time>
      </trkpt>
      <trkpt lat="46.537644" lon="13.119919">
        <ele>680.756</ele>
        <time>2018-09-08T06:26:58Z</time>
      </trkpt>
      <trkpt lat="46.537681" lon="13.119970">
        <ele>680.243</ele>
        <time>2018-09-08T06:26:59Z</time>
      </trkpt>
      <trkpt lat="46.537720" lon="13.119977">
        <ele>679.364</ele>
        <time>2018-09-08T06:27:00Z</time>
      </trkpt>
      <trkpt lat="46.537745" lon="13.119939">
        <ele>678.810</ele>
        <time>2018-09-08T06:27:01Z</time>
      </trkpt>
      <trkpt lat="46.537747" lon="13.119878">
        <ele>678.308</ele>
        <time>2018-09-08T06:27:02Z</time>
      </trkpt>
      <trkpt lat="46.537727" lon="13.119816">
        <ele>677.378</ele>
        <time>2018-09-08T06:27:03Z</time>
      </trkpt>
      <trkpt lat="46.537697" lon="13.119755">
        <ele>676.910</ele>
        <time>2018-09-08T06:27:04Z</time>
      </trkpt>
      <trkpt lat="46.537638" lon="13.119636">
        <ele>676.958</ele>
        <time>2018-09-08T06:27:06Z</time>
      </trkpt>
      <trkpt lat="46.537616" lon="13.119572">
        <ele>676.957</ele>
        <time>2018-09-08T06:27:07Z</time>
      </trkpt>
      <trkpt lat="46.537603" lon="13.119505">
        <ele>676.981</ele>
        <time>2018-09-08T06:27:08Z</time>
      </trkpt>
      <trkpt lat="46.537597" lon="13.119439">
        <ele>676.966</ele>
        <time>2018-09-08T06:27:09Z</time>
      </trkpt>
      <trkpt lat="46.537596" lon="13.119375">
        <ele>676.444</ele>
        <time>2018-09-08T06:27:10Z</time>
      </trkpt>
      <trkpt lat="46.537597" lon="13.119313">
        <ele>676.426</ele>
        <time>2018-09-08T06:27:11Z</time>
      </trkpt>
      <trkpt lat="46.537595" lon="13.119193">
        <ele>676.434</ele>
        <time>2018-09-08T06:27:13Z</time>
      </trkpt>
      <trkpt lat="46.537581" lon="13.119139">
        <ele>675.955</ele>
        <time>2018-09-08T06:27:14Z</time>
      </trkpt>
      <trkpt lat="46.537556" lon="13.119092">
        <ele>675.910</ele>
        <time>2018-09-08T06:27:15Z</time>
      </trkpt>
      <trkpt lat="46.537526" lon="13.119053">
        <ele>675.908</ele>
        <time>2018-09-08T06:27:16Z</time>
      </trkpt>
      <trkpt lat="46.537486" lon="13.119014">
        <ele>675.467</ele>
        <time>2018-09-08T06:27:17Z</time>
      </trkpt>
      <trkpt lat="46.536902" lon="13.118531">
        <ele>674.099</ele>
        <time>2018-09-08T06:27:30Z</time>
      </trkpt>
      <trkpt lat="46.536853" lon="13.118503">
        <ele>674.077</ele>
        <time>2018-09-08T06:27:31Z</time>
      </trkpt>
      <trkpt lat="46.536689" lon="13.118379">
        <ele>674.986</ele>
        <time>2018-09-08T06:27:35Z</time>
      </trkpt>
      <trkpt lat="46.536659" lon="13.118343">
        <ele>674.910</ele>
        <time>2018-09-08T06:27:36Z</time>
      </trkpt>
      <trkpt lat="46.536633" lon="13.118304">
        <ele>674.965</ele>
        <time>2018-09-08T06:27:37Z</time>
      </trkpt>
      <trkpt lat="46.536434" lon="13.118012">
        <ele>675.963</ele>
        <time>2018-09-08T06:27:49Z</time>
      </trkpt>
      <trkpt lat="46.536168" lon="13.117645">
        <ele>677.885</ele>
        <time>2018-09-08T06:28:06Z</time>
      </trkpt>
      <trkpt lat="46.536121" lon="13.117600">
        <ele>677.846</ele>
        <time>2018-09-08T06:28:09Z</time>
      </trkpt>
      <trkpt lat="46.535803" lon="13.117534">
        <ele>679.388</ele>
        <time>2018-09-08T06:28:29Z</time>
      </trkpt>
      <trkpt lat="46.535562" lon="13.117448">
        <ele>682.616</ele>
        <time>2018-09-08T06:28:48Z</time>
      </trkpt>
      <trkpt lat="46.535401" lon="13.117219">
        <ele>681.708</ele>
        <time>2018-09-08T06:29:02Z</time>
      </trkpt>
      <trkpt lat="46.535108" lon="13.117193">
        <ele>682.638</ele>
        <time>2018-09-08T06:29:18Z</time>
      </trkpt>
      <trkpt lat="46.535065" lon="13.117195">
        <ele>683.180</ele>
        <time>2018-09-08T06:29:20Z</time>
      </trkpt>
      <trkpt lat="46.535045" lon="13.117183">
        <ele>683.658</ele>
        <time>2018-09-08T06:29:21Z</time>
      </trkpt>
      <trkpt lat="46.535025" lon="13.117167">
        <ele>683.677</ele>
        <time>2018-09-08T06:29:22Z</time>
      </trkpt>
      <trkpt lat="46.535006" lon="13.117149">
        <ele>683.691</ele>
        <time>2018-09-08T06:29:23Z</time>
      </trkpt>
      <trkpt lat="46.534991" lon="13.117127">
        <ele>683.656</ele>
        <time>2018-09-08T06:29:24Z</time>
      </trkpt>
      <trkpt lat="46.534979" lon="13.117100">
        <ele>683.134</ele>
        <time>2018-09-08T06:29:25Z</time>
      </trkpt>
      <trkpt lat="46.534943" lon="13.116573">
        <ele>679.746</ele>
        <time>2018-09-08T06:29:37Z</time>
      </trkpt>
      <trkpt lat="46.534807" lon="13.116353">
        <ele>675.489</ele>
        <time>2018-09-08T06:29:46Z</time>
      </trkpt>
      <trkpt lat="46.534407" lon="13.116202">
        <ele>674.006</ele>
        <time>2018-09-08T06:29:57Z</time>
      </trkpt>
      <trkpt lat="46.533697" lon="13.115842">
        <ele>668.726</ele>
        <time>2018-09-08T06:30:12Z</time>
      </trkpt>
      <trkpt lat="46.533235" lon="13.115714">
        <ele>665.808</ele>
        <time>2018-09-08T06:30:23Z</time>
      </trkpt>
      <trkpt lat="46.533222" lon="13.115695">
        <ele>665.812</ele>
        <time>2018-09-08T06:30:24Z</time>
      </trkpt>
      <trkpt lat="46.533214" lon="13.115670">
        <ele>665.864</ele>
        <time>2018-09-08T06:30:25Z</time>
      </trkpt>
      <trkpt lat="46.533208" lon="13.115651">
        <ele>665.382</ele>
        <time>2018-09-08T06:30:26Z</time>
      </trkpt>
      <trkpt lat="46.533207" lon="13.115632">
        <ele>666.381</ele>
        <time>2018-09-08T06:30:36Z</time>
      </trkpt>
      <trkpt lat="46.533207" lon="13.115652">
        <ele>666.345</ele>
        <time>2018-09-08T06:31:02Z</time>
      </trkpt>
      <trkpt lat="46.533206" lon="13.115688">
        <ele>667.270</ele>
        <time>2018-09-08T06:31:39Z</time>
      </trkpt>
      <trkpt lat="46.533198" lon="13.115680">
        <ele>666.828</ele>
        <time>2018-09-08T06:32:13Z</time>
      </trkpt>
      <trkpt lat="46.533192" lon="13.115689">
        <ele>668.720</ele>
        <time>2018-09-08T06:32:42Z</time>
      </trkpt>
      <trkpt lat="46.533205" lon="13.115678">
        <ele>667.243</ele>
        <time>2018-09-08T06:33:16Z</time>
      </trkpt>
      <trkpt lat="46.533204" lon="13.115683">
        <ele>668.764</ele>
        <time>2018-09-08T06:33:45Z</time>
      </trkpt>
      <trkpt lat="46.533207" lon="13.115699">
        <ele>669.710</ele>
        <time>2018-09-08T06:34:18Z</time>
      </trkpt>
      <trkpt lat="46.533204" lon="13.115672">
        <ele>668.708</ele>
        <time>2018-09-08T06:34:52Z</time>
      </trkpt>
      <trkpt lat="46.533210" lon="13.115674">
        <ele>669.758</ele>
        <time>2018-09-08T06:35:17Z</time>
      </trkpt>
      <trkpt lat="46.533198" lon="13.115681">
        <ele>668.290</ele>
        <time>2018-09-08T06:35:52Z</time>
      </trkpt>
      <trkpt lat="46.533202" lon="13.115669">
        <ele>666.328</ele>
        <time>2018-09-08T06:36:18Z</time>
      </trkpt>
      <trkpt lat="46.533189" lon="13.115667">
        <ele>665.377</ele>
        <time>2018-09-08T06:37:00Z</time>
      </trkpt>
      <trkpt lat="46.533202" lon="13.115668">
        <ele>663.411</ele>
        <time>2018-09-08T06:37:38Z</time>
      </trkpt>
      <trkpt lat="46.533208" lon="13.115661">
        <ele>663.476</ele>
        <time>2018-09-08T06:38:17Z</time>
      </trkpt>
      <trkpt lat="46.533211" lon="13.115652">
        <ele>662.964</ele>
        <time>2018-09-08T06:38:49Z</time>
      </trkpt>
      <trkpt lat="46.533214" lon="13.115657">
        <ele>663.976</ele>
        <time>2018-09-08T06:39:19Z</time>
      </trkpt>
      <trkpt lat="46.533206" lon="13.115677">
        <ele>665.835</ele>
        <time>2018-09-08T06:39:51Z</time>
      </trkpt>
      <trkpt lat="46.533207" lon="13.115685">
        <ele>667.286</ele>
        <time>2018-09-08T06:40:16Z</time>
      </trkpt>
      <trkpt lat="46.533202" lon="13.115696">
        <ele>667.214</ele>
        <time>2018-09-08T06:40:41Z</time>
      </trkpt>
      <trkpt lat="46.533198" lon="13.115695">
        <ele>667.708</ele>
        <time>2018-09-08T06:41:09Z</time>
      </trkpt>
      <trkpt lat="46.533198" lon="13.115675">
        <ele>668.767</ele>
        <time>2018-09-08T06:41:47Z</time>
      </trkpt>
      <trkpt lat="46.533203" lon="13.115686">
        <ele>669.239</ele>
        <time>2018-09-08T06:42:25Z</time>
      </trkpt>
      <trkpt lat="46.533189" lon="13.115695">
        <ele>668.227</ele>
        <time>2018-09-08T06:42:59Z</time>
      </trkpt>
      <trkpt lat="46.533202" lon="13.115697">
        <ele>668.756</ele>
        <time>2018-09-08T06:43:39Z</time>
      </trkpt>
      <trkpt lat="46.533205" lon="13.115690">
        <ele>666.890</ele>
        <time>2018-09-08T06:44:24Z</time>
      </trkpt>
      <trkpt lat="46.533201" lon="13.115695">
        <ele>667.295</ele>
        <time>2018-09-08T06:44:58Z</time>
      </trkpt>
      <trkpt lat="46.533201" lon="13.115689">
        <ele>666.373</ele>
        <time>2018-09-08T06:45:34Z</time>
      </trkpt>
      <trkpt lat="46.533209" lon="13.115662">
        <ele>662.955</ele>
        <time>2018-09-08T06:46:08Z</time>
      </trkpt>
      <trkpt lat="46.533210" lon="13.115655">
        <ele>662.097</ele>
        <time>2018-09-08T06:46:47Z</time>
      </trkpt>
      <trkpt lat="46.533208" lon="13.115658">
        <ele>662.923</ele>
        <time>2018-09-08T06:47:26Z</time>
      </trkpt>
      <trkpt lat="46.533201" lon="13.115645">
        <ele>662.425</ele>
        <time>2018-09-08T06:48:00Z</time>
      </trkpt>
      <trkpt lat="46.533201" lon="13.115657">
        <ele>662.908</ele>
        <time>2018-09-08T06:48:40Z</time>
      </trkpt>
      <trkpt lat="46.533199" lon="13.115686">
        <ele>665.323</ele>
        <time>2018-09-08T06:49:12Z</time>
      </trkpt>
      <trkpt lat="46.533197" lon="13.115705">
        <ele>667.255</ele>
        <time>2018-09-08T06:49:42Z</time>
      </trkpt>
      <trkpt lat="46.533197" lon="13.115706">
        <ele>668.793</ele>
        <time>2018-09-08T06:50:19Z</time>
      </trkpt>
      <trkpt lat="46.533190" lon="13.115715">
        <ele>670.642</ele>
        <time>2018-09-08T06:51:01Z</time>
      </trkpt>
      <trkpt lat="46.533196" lon="13.115728">
        <ele>671.686</ele>
        <time>2018-09-08T06:51:46Z</time>
      </trkpt>
      <trkpt lat="46.533201" lon="13.115724">
        <ele>670.691</ele>
        <time>2018-09-08T06:52:25Z</time>
      </trkpt>
      <trkpt lat="46.533201" lon="13.115715">
        <ele>671.119</ele>
        <time>2018-09-08T06:52:56Z</time>
      </trkpt>
      <trkpt lat="46.533207" lon="13.115701">
        <ele>671.171</ele>
        <time>2018-09-08T06:53:37Z</time>
      </trkpt>
      <trkpt lat="46.533209" lon="13.115658">
        <ele>669.266</ele>
        <time>2018-09-08T06:54:25Z</time>
      </trkpt>
      <trkpt lat="46.533199" lon="13.115672">
        <ele>669.229</ele>
        <time>2018-09-08T06:55:03Z</time>
      </trkpt>
      <trkpt lat="46.533179" lon="13.115711">
        <ele>667.721</ele>
        <time>2018-09-08T06:55:11Z</time>
      </trkpt>
      <trkpt lat="46.533155" lon="13.115716">
        <ele>667.208</ele>
        <time>2018-09-08T06:55:13Z</time>
      </trkpt>
      <trkpt lat="46.533134" lon="13.115708">
        <ele>665.830</ele>
        <time>2018-09-08T06:55:15Z</time>
      </trkpt>
      <trkpt lat="46.533122" lon="13.115715">
        <ele>665.352</ele>
        <time>2018-09-08T06:55:16Z</time>
      </trkpt>
      <trkpt lat="46.533109" lon="13.115720">
        <ele>664.850</ele>
        <time>2018-09-08T06:55:17Z</time>
      </trkpt>
      <trkpt lat="46.533095" lon="13.115722">
        <ele>664.849</ele>
        <time>2018-09-08T06:55:18Z</time>
      </trkpt>
      <trkpt lat="46.533079" lon="13.115720">
        <ele>664.833</ele>
        <time>2018-09-08T06:55:19Z</time>
      </trkpt>
      <trkpt lat="46.533061" lon="13.115714">
        <ele>664.878</ele>
        <time>2018-09-08T06:55:20Z</time>
      </trkpt>
      <trkpt lat="46.533042" lon="13.115711">
        <ele>664.876</ele>
        <time>2018-09-08T06:55:21Z</time>
      </trkpt>
      <trkpt lat="46.533024" lon="13.115705">
        <ele>664.848</ele>
        <time>2018-09-08T06:55:22Z</time>
      </trkpt>
      <trkpt lat="46.533005" lon="13.115696">
        <ele>664.897</ele>
        <time>2018-09-08T06:55:23Z</time>
      </trkpt>
      <trkpt lat="46.532756" lon="13.115647">
        <ele>662.423</ele>
        <time>2018-09-08T06:55:38Z</time>
      </trkpt>
      <trkpt lat="46.532403" lon="13.115676">
        <ele>663.925</ele>
        <time>2018-09-08T06:55:53Z</time>
      </trkpt>
      <trkpt lat="46.532164" lon="13.115718">
        <ele>663.408</ele>
        <time>2018-09-08T06:56:05Z</time>
      </trkpt>
      <trkpt lat="46.532142" lon="13.115742">
        <ele>663.923</ele>
        <time>2018-09-08T06:56:08Z</time>
      </trkpt>
      <trkpt lat="46.532134" lon="13.115755">
        <ele>664.465</ele>
        <time>2018-09-08T06:56:09Z</time>
      </trkpt>
      <trkpt lat="46.532122" lon="13.115744">
        <ele>669.253</ele>
        <time>2018-09-08T06:56:20Z</time>
      </trkpt>
      <trkpt lat="46.532084" lon="13.115714">
        <ele>675.472</ele>
        <time>2018-09-08T06:56:46Z</time>
      </trkpt>
      <trkpt lat="46.532070" lon="13.115714">
        <ele>675.486</ele>
        <time>2018-09-08T06:56:47Z</time>
      </trkpt>
      <trkpt lat="46.531869" lon="13.115732">
        <ele>674.911</ele>
        <time>2018-09-08T06:57:01Z</time>
      </trkpt>
      <trkpt lat="46.531592" lon="13.115662">
        <ele>664.849</ele>
        <time>2018-09-08T06:57:15Z</time>
      </trkpt>
      <trkpt lat="46.531343" lon="13.115754">
        <ele>666.841</ele>
        <time>2018-09-08T06:57:28Z</time>
      </trkpt>
      <trkpt lat="46.531174" lon="13.116115">
        <ele>667.239</ele>
        <time>2018-09-08T06:57:42Z</time>
      </trkpt>
      <trkpt lat="46.530950" lon="13.116535">
        <ele>662.901</ele>
        <time>2018-09-08T06:57:57Z</time>
      </trkpt>
      <trkpt lat="46.530920" lon="13.116593">
        <ele>661.521</ele>
        <time>2018-09-08T06:58:00Z</time>
      </trkpt>
      <trkpt lat="46.530915" lon="13.116631">
        <ele>661.008</ele>
        <time>2018-09-08T06:58:01Z</time>
      </trkpt>
      <trkpt lat="46.530913" lon="13.116661">
        <ele>660.587</ele>
        <time>2018-09-08T06:58:02Z</time>
      </trkpt>
      <trkpt lat="46.530913" lon="13.116690">
        <ele>660.569</ele>
        <time>2018-09-08T06:58:03Z</time>
      </trkpt>
      <trkpt lat="46.530914" lon="13.116707">
        <ele>660.027</ele>
        <time>2018-09-08T06:58:04Z</time>
      </trkpt>
      <trkpt lat="46.530912" lon="13.116761">
        <ele>658.636</ele>
        <time>2018-09-08T06:58:12Z</time>
      </trkpt>
      <trkpt lat="46.530846" lon="13.116694">
        <ele>655.740</ele>
        <time>2018-09-08T06:58:38Z</time>
      </trkpt>
      <trkpt lat="46.530865" lon="13.116621">
        <ele>657.215</ele>
        <time>2018-09-08T06:59:19Z</time>
      </trkpt>
      <trkpt lat="46.530867" lon="13.116636">
        <ele>657.233</ele>
        <time>2018-09-08T06:59:52Z</time>
      </trkpt>
      <trkpt lat="46.530835" lon="13.116695">
        <ele>650.955</ele>
        <time>2018-09-08T07:00:29Z</time>
      </trkpt>
      <trkpt lat="46.530837" lon="13.116728">
        <ele>648.521</ele>
        <time>2018-09-08T07:00:54Z</time>
      </trkpt>
      <trkpt lat="46.530872" lon="13.116744">
        <ele>648.541</ele>
        <time>2018-09-08T07:01:20Z</time>
      </trkpt>
      <trkpt lat="46.530885" lon="13.116701">
        <ele>649.005</ele>
        <time>2018-09-08T07:01:35Z</time>
      </trkpt>
      <trkpt lat="46.530859" lon="13.116656">
        <ele>649.008</ele>
        <time>2018-09-08T07:01:44Z</time>
      </trkpt>
      <trkpt lat="46.530851" lon="13.116646">
        <ele>649.586</ele>
        <time>2018-09-08T07:01:45Z</time>
      </trkpt>
      <trkpt lat="46.530837" lon="13.116640">
        <ele>650.478</ele>
        <time>2018-09-08T07:01:46Z</time>
      </trkpt>
      <trkpt lat="46.530814" lon="13.116629">
        <ele>650.486</ele>
        <time>2018-09-08T07:01:47Z</time>
      </trkpt>
      <trkpt lat="46.530798" lon="13.116630">
        <ele>650.945</ele>
        <time>2018-09-08T07:01:48Z</time>
      </trkpt>
      <trkpt lat="46.530775" lon="13.116628">
        <ele>650.939</ele>
        <time>2018-09-08T07:01:49Z</time>
      </trkpt>
      <trkpt lat="46.530744" lon="13.116622">
        <ele>650.954</ele>
        <time>2018-09-08T07:01:50Z</time>
      </trkpt>
      <trkpt lat="46.530707" lon="13.116615">
        <ele>650.992</ele>
        <time>2018-09-08T07:01:51Z</time>
      </trkpt>
      <trkpt lat="46.530674" lon="13.116611">
        <ele>651.434</ele>
        <time>2018-09-08T07:01:52Z</time>
      </trkpt>
      <trkpt lat="46.530644" lon="13.116607">
        <ele>651.445</ele>
        <time>2018-09-08T07:01:53Z</time>
      </trkpt>
      <trkpt lat="46.530610" lon="13.116612">
        <ele>651.947</ele>
        <time>2018-09-08T07:01:54Z</time>
      </trkpt>
      <trkpt lat="46.530573" lon="13.116623">
        <ele>651.911</ele>
        <time>2018-09-08T07:01:55Z</time>
      </trkpt>
      <trkpt lat="46.530537" lon="13.116637">
        <ele>652.308</ele>
        <time>2018-09-08T07:01:56Z</time>
      </trkpt>
      <trkpt lat="46.530129" lon="13.116807">
        <ele>653.898</ele>
        <time>2018-09-08T07:02:09Z</time>
      </trkpt>
      <trkpt lat="46.529715" lon="13.117266">
        <ele>657.290</ele>
        <time>2018-09-08T07:02:22Z</time>
      </trkpt>
      <trkpt lat="46.529447" lon="13.117574">
        <ele>654.848</ele>
        <time>2018-09-08T07:02:30Z</time>
      </trkpt>
      <trkpt lat="46.528787" lon="13.118185">
        <ele>651.987</ele>
        <time>2018-09-08T07:02:45Z</time>
      </trkpt>
      <trkpt lat="46.528027" lon="13.118869">
        <ele>648.061</ele>
        <time>2018-09-08T07:03:02Z</time>
      </trkpt>
      <trkpt lat="46.527843" lon="13.118982">
        <ele>647.546</ele>
        <time>2018-09-08T07:03:08Z</time>
      </trkpt>
      <trkpt lat="46.527819" lon="13.118963">
        <ele>647.554</ele>
        <time>2018-09-08T07:03:09Z</time>
      </trkpt>
      <trkpt lat="46.527801" lon="13.118938">
        <ele>647.526</ele>
        <time>2018-09-08T07:03:10Z</time>
      </trkpt>
      <trkpt lat="46.527784" lon="13.118907">
        <ele>647.551</ele>
        <time>2018-09-08T07:03:11Z</time>
      </trkpt>
      <trkpt lat="46.527770" lon="13.118876">
        <ele>647.501</ele>
        <time>2018-09-08T07:03:12Z</time>
      </trkpt>
      <trkpt lat="46.527754" lon="13.118842">
        <ele>647.511</ele>
        <time>2018-09-08T07:03:13Z</time>
      </trkpt>
      <trkpt lat="46.527739" lon="13.118813">
        <ele>647.508</ele>
        <time>2018-09-08T07:03:14Z</time>
      </trkpt>
      <trkpt lat="46.527721" lon="13.118783">
        <ele>647.529</ele>
        <time>2018-09-08T07:03:15Z</time>
      </trkpt>
      <trkpt lat="46.527482" lon="13.118360">
        <ele>646.161</ele>
        <time>2018-09-08T07:03:31Z</time>
      </trkpt>
      <trkpt lat="46.527457" lon="13.118317">
        <ele>646.179</ele>
        <time>2018-09-08T07:03:33Z</time>
      </trkpt>
      <trkpt lat="46.527360" lon="13.118134">
        <ele>646.198</ele>
        <time>2018-09-08T07:03:45Z</time>
      </trkpt>
      <trkpt lat="46.527328" lon="13.118079">
        <ele>645.662</ele>
        <time>2018-09-08T07:03:51Z</time>
      </trkpt>
      <trkpt lat="46.527326" lon="13.118051">
        <ele>645.617</ele>
        <time>2018-09-08T07:03:52Z</time>
      </trkpt>
      <trkpt lat="46.527329" lon="13.118019">
        <ele>645.175</ele>
        <time>2018-09-08T07:03:53Z</time>
      </trkpt>
      <trkpt lat="46.527342" lon="13.117987">
        <ele>645.127</ele>
        <time>2018-09-08T07:03:54Z</time>
      </trkpt>
      <trkpt lat="46.527358" lon="13.117958">
        <ele>644.788</ele>
        <time>2018-09-08T07:03:55Z</time>
      </trkpt>
      <trkpt lat="46.527377" lon="13.117931">
        <ele>644.724</ele>
        <time>2018-09-08T07:03:56Z</time>
      </trkpt>
      <trkpt lat="46.527721" lon="13.117486">
        <ele>645.626</ele>
        <time>2018-09-08T07:04:13Z</time>
      </trkpt>
      <trkpt lat="46.528084" lon="13.117046">
        <ele>646.608</ele>
        <time>2018-09-08T07:04:32Z</time>
      </trkpt>
      <trkpt lat="46.528485" lon="13.116632">
        <ele>647.532</ele>
        <time>2018-09-08T07:04:52Z</time>
      </trkpt>
      <trkpt lat="46.528976" lon="13.116202">
        <ele>649.064</ele>
        <time>2018-09-08T07:05:14Z</time>
      </trkpt>
      <trkpt lat="46.529400" lon="13.115980">
        <ele>649.562</ele>
        <time>2018-09-08T07:05:31Z</time>
      </trkpt>
      <trkpt lat="46.529794" lon="13.115764">
        <ele>650.971</ele>
        <time>2018-09-08T07:05:50Z</time>
      </trkpt>
      <trkpt lat="46.530044" lon="13.115594">
        <ele>653.325</ele>
        <time>2018-09-08T07:06:05Z</time>
      </trkpt>
      <trkpt lat="46.530235" lon="13.115298">
        <ele>657.240</ele>
        <time>2018-09-08T07:06:22Z</time>
      </trkpt>
      <trkpt lat="46.530501" lon="13.115187">
        <ele>659.678</ele>
        <time>2018-09-08T07:06:38Z</time>
      </trkpt>
      <trkpt lat="46.530591" lon="13.114956">
        <ele>660.520</ele>
        <time>2018-09-08T07:06:51Z</time>
      </trkpt>
      <trkpt lat="46.530570" lon="13.114809">
        <ele>662.938</ele>
        <time>2018-09-08T07:07:04Z</time>
      </trkpt>
      <trkpt lat="46.530550" lon="13.114773">
        <ele>663.970</ele>
        <time>2018-09-08T07:07:08Z</time>
      </trkpt>
      <trkpt lat="46.530596" lon="13.114773">
        <ele>660.517</ele>
        <time>2018-09-08T07:07:50Z</time>
      </trkpt>
      <trkpt lat="46.530738" lon="13.114540">
        <ele>661.008</ele>
        <time>2018-09-08T07:08:06Z</time>
      </trkpt>
      <trkpt lat="46.530787" lon="13.114172">
        <ele>667.277</ele>
        <time>2018-09-08T07:08:25Z</time>
      </trkpt>
      <trkpt lat="46.530810" lon="13.113998">
        <ele>669.289</ele>
        <time>2018-09-08T07:08:35Z</time>
      </trkpt>
      <trkpt lat="46.530801" lon="13.113936">
        <ele>670.687</ele>
        <time>2018-09-08T07:08:39Z</time>
      </trkpt>
      <trkpt lat="46.530820" lon="13.113893">
        <ele>671.146</ele>
        <time>2018-09-08T07:08:42Z</time>
      </trkpt>
      <trkpt lat="46.530832" lon="13.113823">
        <ele>672.140</ele>
        <time>2018-09-08T07:08:47Z</time>
      </trkpt>
      <trkpt lat="46.530842" lon="13.113610">
        <ele>675.995</ele>
        <time>2018-09-08T07:09:03Z</time>
      </trkpt>
      <trkpt lat="46.530861" lon="13.113376">
        <ele>680.273</ele>
        <time>2018-09-08T07:09:21Z</time>
      </trkpt>
      <trkpt lat="46.530883" lon="13.113140">
        <ele>683.655</ele>
        <time>2018-09-08T07:09:39Z</time>
      </trkpt>
      <trkpt lat="46.530888" lon="13.112950">
        <ele>687.428</ele>
        <time>2018-09-08T07:09:54Z</time>
      </trkpt>
      <trkpt lat="46.530885" lon="13.112737">
        <ele>689.489</ele>
        <time>2018-09-08T07:10:09Z</time>
      </trkpt>
      <trkpt lat="46.530898" lon="13.112554">
        <ele>693.217</ele>
        <time>2018-09-08T07:10:23Z</time>
      </trkpt>
      <trkpt lat="46.530948" lon="13.112517">
        <ele>695.608</ele>
        <time>2018-09-08T07:10:30Z</time>
      </trkpt>
      <trkpt lat="46.530995" lon="13.112821">
        <ele>700.936</ele>
        <time>2018-09-08T07:10:48Z</time>
      </trkpt>
      <trkpt lat="46.531012" lon="13.112847">
        <ele>701.498</ele>
        <time>2018-09-08T07:10:50Z</time>
      </trkpt>
      <trkpt lat="46.531054" lon="13.112823">
        <ele>701.416</ele>
        <time>2018-09-08T07:10:54Z</time>
      </trkpt>
      <trkpt lat="46.531121" lon="13.112559">
        <ele>701.955</ele>
        <time>2018-09-08T07:11:09Z</time>
      </trkpt>
      <trkpt lat="46.531058" lon="13.112409">
        <ele>706.229</ele>
        <time>2018-09-08T07:11:21Z</time>
      </trkpt>
      <trkpt lat="46.531030" lon="13.112380">
        <ele>708.144</ele>
        <time>2018-09-08T07:11:24Z</time>
      </trkpt>
      <trkpt lat="46.530970" lon="13.112244">
        <ele>711.072</ele>
        <time>2018-09-08T07:11:34Z</time>
      </trkpt>
      <trkpt lat="46.530981" lon="13.112002">
        <ele>714.464</ele>
        <time>2018-09-08T07:11:49Z</time>
      </trkpt>
      <trkpt lat="46.530995" lon="13.111944">
        <ele>715.394</ele>
        <time>2018-09-08T07:11:53Z</time>
      </trkpt>
      <trkpt lat="46.531028" lon="13.111880">
        <ele>715.857</ele>
        <time>2018-09-08T07:11:58Z</time>
      </trkpt>
      <trkpt lat="46.531083" lon="13.111868">
        <ele>716.322</ele>
        <time>2018-09-08T07:12:03Z</time>
      </trkpt>
      <trkpt lat="46.531279" lon="13.112354">
        <ele>713.908</ele>
        <time>2018-09-08T07:12:18Z</time>
      </trkpt>
      <trkpt lat="46.531630" lon="13.112670">
        <ele>712.473</ele>
        <time>2018-09-08T07:12:30Z</time>
      </trkpt>
      <trkpt lat="46.531758" lon="13.112357">
        <ele>713.995</ele>
        <time>2018-09-08T07:12:39Z</time>
      </trkpt>
      <trkpt lat="46.531791" lon="13.111912">
        <ele>715.833</ele>
        <time>2018-09-08T07:12:55Z</time>
      </trkpt>
      <trkpt lat="46.531785" lon="13.111551">
        <ele>717.282</ele>
        <time>2018-09-08T07:13:09Z</time>
      </trkpt>
      <trkpt lat="46.531789" lon="13.111350">
        <ele>718.226</ele>
        <time>2018-09-08T07:13:17Z</time>
      </trkpt>
      <trkpt lat="46.531808" lon="13.111071">
        <ele>720.651</ele>
        <time>2018-09-08T07:13:30Z</time>
      </trkpt>
      <trkpt lat="46.531806" lon="13.110908">
        <ele>722.539</ele>
        <time>2018-09-08T07:13:40Z</time>
      </trkpt>
      <trkpt lat="46.531806" lon="13.110887">
        <ele>723.061</ele>
        <time>2018-09-08T07:13:41Z</time>
      </trkpt>
      <trkpt lat="46.531806" lon="13.110868">
        <ele>723.083</ele>
        <time>2018-09-08T07:13:42Z</time>
      </trkpt>
      <trkpt lat="46.531807" lon="13.110850">
        <ele>723.525</ele>
        <time>2018-09-08T07:13:43Z</time>
      </trkpt>
      <trkpt lat="46.531811" lon="13.110830">
        <ele>723.517</ele>
        <time>2018-09-08T07:13:44Z</time>
      </trkpt>
      <trkpt lat="46.531814" lon="13.110815">
        <ele>724.008</ele>
        <time>2018-09-08T07:13:45Z</time>
      </trkpt>
      <trkpt lat="46.531817" lon="13.110798">
        <ele>724.062</ele>
        <time>2018-09-08T07:13:46Z</time>
      </trkpt>
      <trkpt lat="46.531819" lon="13.110779">
        <ele>724.484</ele>
        <time>2018-09-08T07:13:47Z</time>
      </trkpt>
      <trkpt lat="46.531847" lon="13.110457">
        <ele>727.322</ele>
        <time>2018-09-08T07:14:03Z</time>
      </trkpt>
      <trkpt lat="46.531891" lon="13.110122">
        <ele>730.721</ele>
        <time>2018-09-08T07:14:20Z</time>
      </trkpt>
      <trkpt lat="46.531897" lon="13.110106">
        <ele>730.765</ele>
        <time>2018-09-08T07:14:21Z</time>
      </trkpt>
      <trkpt lat="46.531903" lon="13.110091">
        <ele>730.760</ele>
        <time>2018-09-08T07:14:22Z</time>
      </trkpt>
      <trkpt lat="46.531909" lon="13.110072">
        <ele>730.738</ele>
        <time>2018-09-08T07:14:23Z</time>
      </trkpt>
      <trkpt lat="46.531915" lon="13.110056">
        <ele>730.710</ele>
        <time>2018-09-08T07:14:24Z</time>
      </trkpt>
      <trkpt lat="46.531922" lon="13.110042">
        <ele>731.239</ele>
        <time>2018-09-08T07:14:25Z</time>
      </trkpt>
      <trkpt lat="46.531929" lon="13.110026">
        <ele>731.201</ele>
        <time>2018-09-08T07:14:26Z</time>
      </trkpt>
      <trkpt lat="46.531933" lon="13.110009">
        <ele>731.721</ele>
        <time>2018-09-08T07:14:27Z</time>
      </trkpt>
      <trkpt lat="46.531937" lon="13.109991">
        <ele>732.108</ele>
        <time>2018-09-08T07:14:28Z</time>
      </trkpt>
      <trkpt lat="46.531941" lon="13.109972">
        <ele>732.167</ele>
        <time>2018-09-08T07:14:29Z</time>
      </trkpt>
      <trkpt lat="46.531945" lon="13.109953">
        <ele>732.199</ele>
        <time>2018-09-08T07:14:30Z</time>
      </trkpt>
      <trkpt lat="46.531948" lon="13.109934">
        <ele>732.697</ele>
        <time>2018-09-08T07:14:31Z</time>
      </trkpt>
      <trkpt lat="46.531962" lon="13.109611">
        <ele>736.996</ele>
        <time>2018-09-08T07:14:48Z</time>
      </trkpt>
      <trkpt lat="46.531937" lon="13.109228">
        <ele>739.390</ele>
        <time>2018-09-08T07:15:06Z</time>
      </trkpt>
      <trkpt lat="46.531967" lon="13.108939">
        <ele>741.375</ele>
        <time>2018-09-08T07:15:19Z</time>
      </trkpt>
      <trkpt lat="46.531993" lon="13.108645">
        <ele>743.253</ele>
        <time>2018-09-08T07:15:32Z</time>
      </trkpt>
      <trkpt lat="46.531996" lon="13.108389">
        <ele>744.265</ele>
        <time>2018-09-08T07:15:44Z</time>
      </trkpt>
      <trkpt lat="46.531990" lon="13.108139">
        <ele>747.029</ele>
        <time>2018-09-08T07:15:57Z</time>
      </trkpt>
      <trkpt lat="46.531986" lon="13.108120">
        <ele>747.500</ele>
        <time>2018-09-08T07:15:58Z</time>
      </trkpt>
      <trkpt lat="46.531986" lon="13.108100">
        <ele>747.520</ele>
        <time>2018-09-08T07:15:59Z</time>
      </trkpt>
      <trkpt lat="46.531988" lon="13.108082">
        <ele>748.008</ele>
        <time>2018-09-08T07:16:00Z</time>
      </trkpt>
      <trkpt lat="46.531988" lon="13.108064">
        <ele>748.056</ele>
        <time>2018-09-08T07:16:01Z</time>
      </trkpt>
      <trkpt lat="46.532023" lon="13.107705">
        <ele>751.828</ele>
        <time>2018-09-08T07:16:19Z</time>
      </trkpt>
      <trkpt lat="46.532110" lon="13.107384">
        <ele>752.876</ele>
        <time>2018-09-08T07:16:35Z</time>
      </trkpt>
      <trkpt lat="46.532118" lon="13.107087">
        <ele>753.885</ele>
        <time>2018-09-08T07:16:48Z</time>
      </trkpt>
      <trkpt lat="46.532113" lon="13.107065">
        <ele>753.849</ele>
        <time>2018-09-08T07:16:49Z</time>
      </trkpt>
      <trkpt lat="46.532111" lon="13.107042">
        <ele>754.264</ele>
        <time>2018-09-08T07:16:50Z</time>
      </trkpt>
      <trkpt lat="46.532112" lon="13.107017">
        <ele>754.262</ele>
        <time>2018-09-08T07:16:51Z</time>
      </trkpt>
      <trkpt lat="46.532112" lon="13.106992">
        <ele>754.264</ele>
        <time>2018-09-08T07:16:52Z</time>
      </trkpt>
      <trkpt lat="46.532110" lon="13.106966">
        <ele>754.258</ele>
        <time>2018-09-08T07:16:53Z</time>
      </trkpt>
      <trkpt lat="46.532069" lon="13.106696">
        <ele>753.852</ele>
        <time>2018-09-08T07:17:04Z</time>
      </trkpt>
      <trkpt lat="46.532065" lon="13.106672">
        <ele>753.817</ele>
        <time>2018-09-08T07:17:05Z</time>
      </trkpt>
      <trkpt lat="46.532058" lon="13.106647">
        <ele>753.808</ele>
        <time>2018-09-08T07:17:06Z</time>
      </trkpt>
      <trkpt lat="46.532052" lon="13.106620">
        <ele>753.879</ele>
        <time>2018-09-08T07:17:07Z</time>
      </trkpt>
      <trkpt lat="46.532047" lon="13.106594">
        <ele>754.271</ele>
        <time>2018-09-08T07:17:08Z</time>
      </trkpt>
      <trkpt lat="46.531978" lon="13.106204">
        <ele>757.129</ele>
        <time>2018-09-08T07:17:21Z</time>
      </trkpt>
      <trkpt lat="46.531872" lon="13.105761">
        <ele>760.578</ele>
        <time>2018-09-08T07:17:36Z</time>
      </trkpt>
      <trkpt lat="46.531771" lon="13.105428">
        <ele>765.382</ele>
        <time>2018-09-08T07:17:53Z</time>
      </trkpt>
      <trkpt lat="46.531746" lon="13.105300">
        <ele>766.357</ele>
        <time>2018-09-08T07:18:00Z</time>
      </trkpt>
      <trkpt lat="46.531739" lon="13.105282">
        <ele>766.395</ele>
        <time>2018-09-08T07:18:01Z</time>
      </trkpt>
      <trkpt lat="46.531732" lon="13.105265">
        <ele>766.347</ele>
        <time>2018-09-08T07:18:02Z</time>
      </trkpt>
      <trkpt lat="46.531727" lon="13.105193">
        <ele>766.748</ele>
        <time>2018-09-08T07:18:06Z</time>
      </trkpt>
      <trkpt lat="46.531732" lon="13.105181">
        <ele>766.761</ele>
        <time>2018-09-08T07:18:07Z</time>
      </trkpt>
      <trkpt lat="46.531715" lon="13.105115">
        <ele>766.317</ele>
        <time>2018-09-08T07:18:14Z</time>
      </trkpt>
      <trkpt lat="46.531696" lon="13.105101">
        <ele>766.708</ele>
        <time>2018-09-08T07:18:16Z</time>
      </trkpt>
      <trkpt lat="46.531750" lon="13.105006">
        <ele>768.298</ele>
        <time>2018-09-08T07:18:23Z</time>
      </trkpt>
      <trkpt lat="46.531822" lon="13.104759">
        <ele>773.030</ele>
        <time>2018-09-08T07:18:37Z</time>
      </trkpt>
      <trkpt lat="46.531854" lon="13.104570">
        <ele>777.898</ele>
        <time>2018-09-08T07:18:47Z</time>
      </trkpt>
      <trkpt lat="46.531946" lon="13.104220">
        <ele>780.257</ele>
        <time>2018-09-08T07:19:07Z</time>
      </trkpt>
      <trkpt lat="46.532048" lon="13.103886">
        <ele>782.191</ele>
        <time>2018-09-08T07:19:26Z</time>
      </trkpt>
      <trkpt lat="46.532124" lon="13.103586">
        <ele>786.086</ele>
        <time>2018-09-08T07:19:40Z</time>
      </trkpt>
      <trkpt lat="46.532106" lon="13.103274">
        <ele>787.984</ele>
        <time>2018-09-08T07:19:52Z</time>
      </trkpt>
      <trkpt lat="46.532051" lon="13.102948">
        <ele>787.936</ele>
        <time>2018-09-08T07:20:06Z</time>
      </trkpt>
      <trkpt lat="46.532046" lon="13.102927">
        <ele>787.928</ele>
        <time>2018-09-08T07:20:07Z</time>
      </trkpt>
      <trkpt lat="46.532043" lon="13.102907">
        <ele>788.489</ele>
        <time>2018-09-08T07:20:08Z</time>
      </trkpt>
      <trkpt lat="46.532042" lon="13.102889">
        <ele>788.917</ele>
        <time>2018-09-08T07:20:09Z</time>
      </trkpt>
      <trkpt lat="46.532040" lon="13.102870">
        <ele>789.308</ele>
        <time>2018-09-08T07:20:10Z</time>
      </trkpt>
      <trkpt lat="46.532040" lon="13.102851">
        <ele>789.846</ele>
        <time>2018-09-08T07:20:11Z</time>
      </trkpt>
      <trkpt lat="46.532040" lon="13.102831">
        <ele>789.828</ele>
        <time>2018-09-08T07:20:12Z</time>
      </trkpt>
      <trkpt lat="46.532028" lon="13.102702">
        <ele>790.866</ele>
        <time>2018-09-08T07:20:19Z</time>
      </trkpt>
      <trkpt lat="46.532024" lon="13.102683">
        <ele>791.345</ele>
        <time>2018-09-08T07:20:20Z</time>
      </trkpt>
      <trkpt lat="46.531950" lon="13.102446">
        <ele>793.249</ele>
        <time>2018-09-08T07:20:34Z</time>
      </trkpt>
      <trkpt lat="46.531948" lon="13.102427">
        <ele>793.784</ele>
        <time>2018-09-08T07:20:35Z</time>
      </trkpt>
      <trkpt lat="46.531944" lon="13.102410">
        <ele>793.722</ele>
        <time>2018-09-08T07:20:36Z</time>
      </trkpt>
      <trkpt lat="46.531938" lon="13.102394">
        <ele>794.174</ele>
        <time>2018-09-08T07:20:37Z</time>
      </trkpt>
      <trkpt lat="46.531931" lon="13.102379">
        <ele>794.131</ele>
        <time>2018-09-08T07:20:38Z</time>
      </trkpt>
      <trkpt lat="46.531926" lon="13.102366">
        <ele>794.161</ele>
        <time>2018-09-08T07:20:39Z</time>
      </trkpt>
      <trkpt lat="46.531920" lon="13.102351">
        <ele>794.607</ele>
        <time>2018-09-08T07:20:40Z</time>
      </trkpt>
      <trkpt lat="46.531912" lon="13.102336">
        <ele>795.108</ele>
        <time>2018-09-08T07:20:41Z</time>
      </trkpt>
      <trkpt lat="46.531850" lon="13.102265">
        <ele>796.517</ele>
        <time>2018-09-08T07:20:47Z</time>
      </trkpt>
      <trkpt lat="46.531842" lon="13.102251">
        <ele>797.049</ele>
        <time>2018-09-08T07:20:48Z</time>
      </trkpt>
      <trkpt lat="46.531835" lon="13.102235">
        <ele>797.577</ele>
        <time>2018-09-08T07:20:49Z</time>
      </trkpt>
      <trkpt lat="46.531831" lon="13.102219">
        <ele>798.096</ele>
        <time>2018-09-08T07:20:50Z</time>
      </trkpt>
      <trkpt lat="46.531826" lon="13.102204">
        <ele>798.540</ele>
        <time>2018-09-08T07:20:51Z</time>
      </trkpt>
      <trkpt lat="46.531820" lon="13.102189">
        <ele>798.975</ele>
        <time>2018-09-08T07:20:52Z</time>
      </trkpt>
      <trkpt lat="46.531803" lon="13.102138">
        <ele>800.453</ele>
        <time>2018-09-08T07:20:55Z</time>
      </trkpt>
      <trkpt lat="46.531796" lon="13.102122">
        <ele>800.965</ele>
        <time>2018-09-08T07:20:56Z</time>
      </trkpt>
      <trkpt lat="46.531751" lon="13.101879">
        <ele>803.861</ele>
        <time>2018-09-08T07:21:09Z</time>
      </trkpt>
      <trkpt lat="46.531749" lon="13.101859">
        <ele>803.821</ele>
        <time>2018-09-08T07:21:10Z</time>
      </trkpt>
      <trkpt lat="46.531745" lon="13.101841">
        <ele>804.213</ele>
        <time>2018-09-08T07:21:11Z</time>
      </trkpt>
      <trkpt lat="46.531741" lon="13.101817">
        <ele>805.208</ele>
        <time>2018-09-08T07:21:12Z</time>
      </trkpt>
      <trkpt lat="46.531737" lon="13.101797">
        <ele>805.770</ele>
        <time>2018-09-08T07:21:13Z</time>
      </trkpt>
      <trkpt lat="46.531744" lon="13.101573">
        <ele>809.562</ele>
        <time>2018-09-08T07:21:25Z</time>
      </trkpt>
      <trkpt lat="46.531765" lon="13.101391">
        <ele>811.970</ele>
        <time>2018-09-08T07:21:35Z</time>
      </trkpt>
      <trkpt lat="46.531788" lon="13.101188">
        <ele>814.859</ele>
        <time>2018-09-08T07:21:47Z</time>
      </trkpt>
      <trkpt lat="46.531789" lon="13.101170">
        <ele>814.893</ele>
        <time>2018-09-08T07:21:48Z</time>
      </trkpt>
      <trkpt lat="46.531788" lon="13.101150">
        <ele>814.868</ele>
        <time>2018-09-08T07:21:49Z</time>
      </trkpt>
      <trkpt lat="46.531786" lon="13.101128">
        <ele>814.346</ele>
        <time>2018-09-08T07:21:50Z</time>
      </trkpt>
      <trkpt lat="46.531786" lon="13.101109">
        <ele>814.358</ele>
        <time>2018-09-08T07:21:51Z</time>
      </trkpt>
      <trkpt lat="46.531818" lon="13.100768">
        <ele>817.261</ele>
        <time>2018-09-08T07:22:11Z</time>
      </trkpt>
      <trkpt lat="46.531835" lon="13.100494">
        <ele>820.121</ele>
        <time>2018-09-08T07:22:26Z</time>
      </trkpt>
      <trkpt lat="46.531845" lon="13.100423">
        <ele>820.613</ele>
        <time>2018-09-08T07:22:30Z</time>
      </trkpt>
      <trkpt lat="46.531846" lon="13.100406">
        <ele>820.608</ele>
        <time>2018-09-08T07:22:31Z</time>
      </trkpt>
      <trkpt lat="46.531853" lon="13.100389">
        <ele>820.610</ele>
        <time>2018-09-08T07:22:32Z</time>
      </trkpt>
      <trkpt lat="46.531857" lon="13.100369">
        <ele>820.632</ele>
        <time>2018-09-08T07:22:33Z</time>
      </trkpt>
      <trkpt lat="46.531856" lon="13.100336">
        <ele>821.110</ele>
        <time>2018-09-08T07:22:35Z</time>
      </trkpt>
      <trkpt lat="46.531862" lon="13.100046">
        <ele>825.919</ele>
        <time>2018-09-08T07:22:51Z</time>
      </trkpt>
      <trkpt lat="46.531859" lon="13.100028">
        <ele>826.363</ele>
        <time>2018-09-08T07:22:52Z</time>
      </trkpt>
      <trkpt lat="46.531855" lon="13.100008">
        <ele>826.348</ele>
        <time>2018-09-08T07:22:53Z</time>
      </trkpt>
      <trkpt lat="46.531853" lon="13.099825">
        <ele>827.396</ele>
        <time>2018-09-08T07:23:03Z</time>
      </trkpt>
      <trkpt lat="46.531800" lon="13.099659">
        <ele>830.298</ele>
        <time>2018-09-08T07:23:13Z</time>
      </trkpt>
      <trkpt lat="46.531797" lon="13.099641">
        <ele>830.217</ele>
        <time>2018-09-08T07:23:14Z</time>
      </trkpt>
      <trkpt lat="46.531793" lon="13.099621">
        <ele>830.787</ele>
        <time>2018-09-08T07:23:15Z</time>
      </trkpt>
      <trkpt lat="46.531789" lon="13.099602">
        <ele>831.215</ele>
        <time>2018-09-08T07:23:16Z</time>
      </trkpt>
      <trkpt lat="46.531784" lon="13.099581">
        <ele>831.208</ele>
        <time>2018-09-08T07:23:17Z</time>
      </trkpt>
      <trkpt lat="46.531781" lon="13.099562">
        <ele>831.275</ele>
        <time>2018-09-08T07:23:18Z</time>
      </trkpt>
      <trkpt lat="46.531777" lon="13.099541">
        <ele>831.617</ele>
        <time>2018-09-08T07:23:19Z</time>
      </trkpt>
      <trkpt lat="46.531773" lon="13.099521">
        <ele>831.635</ele>
        <time>2018-09-08T07:23:20Z</time>
      </trkpt>
      <trkpt lat="46.531766" lon="13.099501">
        <ele>832.114</ele>
        <time>2018-09-08T07:23:21Z</time>
      </trkpt>
      <trkpt lat="46.531634" lon="13.099267">
        <ele>831.688</ele>
        <time>2018-09-08T07:23:36Z</time>
      </trkpt>
      <trkpt lat="46.531544" lon="13.099165">
        <ele>833.113</ele>
        <time>2018-09-08T07:23:46Z</time>
      </trkpt>
      <trkpt lat="46.531541" lon="13.099147">
        <ele>833.631</ele>
        <time>2018-09-08T07:23:47Z</time>
      </trkpt>
      <trkpt lat="46.531535" lon="13.099129">
        <ele>833.683</ele>
        <time>2018-09-08T07:23:48Z</time>
      </trkpt>
      <trkpt lat="46.531527" lon="13.099115">
        <ele>834.031</ele>
        <time>2018-09-08T07:23:49Z</time>
      </trkpt>
      <trkpt lat="46.531520" lon="13.099098">
        <ele>834.061</ele>
        <time>2018-09-08T07:23:50Z</time>
      </trkpt>
      <trkpt lat="46.531515" lon="13.099081">
        <ele>834.007</ele>
        <time>2018-09-08T07:23:51Z</time>
      </trkpt>
      <trkpt lat="46.531509" lon="13.099064">
        <ele>834.508</ele>
        <time>2018-09-08T07:23:52Z</time>
      </trkpt>
      <trkpt lat="46.531502" lon="13.099046">
        <ele>834.527</ele>
        <time>2018-09-08T07:23:53Z</time>
      </trkpt>
      <trkpt lat="46.531495" lon="13.099032">
        <ele>835.019</ele>
        <time>2018-09-08T07:23:54Z</time>
      </trkpt>
      <trkpt lat="46.531485" lon="13.099019">
        <ele>835.027</ele>
        <time>2018-09-08T07:23:55Z</time>
      </trkpt>
      <trkpt lat="46.531477" lon="13.099006">
        <ele>835.576</ele>
        <time>2018-09-08T07:23:56Z</time>
      </trkpt>
      <trkpt lat="46.531376" lon="13.098873">
        <ele>836.990</ele>
        <time>2018-09-08T07:24:07Z</time>
      </trkpt>
      <trkpt lat="46.531298" lon="13.098623">
        <ele>840.335</ele>
        <time>2018-09-08T07:24:23Z</time>
      </trkpt>
      <trkpt lat="46.531297" lon="13.098602">
        <ele>840.333</ele>
        <time>2018-09-08T07:24:24Z</time>
      </trkpt>
      <trkpt lat="46.531297" lon="13.098569">
        <ele>840.855</ele>
        <time>2018-09-08T07:24:26Z</time>
      </trkpt>
      <trkpt lat="46.531295" lon="13.098551">
        <ele>840.816</ele>
        <time>2018-09-08T07:24:27Z</time>
      </trkpt>
      <trkpt lat="46.531288" lon="13.098456">
        <ele>841.276</ele>
        <time>2018-09-08T07:24:38Z</time>
      </trkpt>
      <trkpt lat="46.531289" lon="13.098336">
        <ele>842.213</ele>
        <time>2018-09-08T07:24:51Z</time>
      </trkpt>
      <trkpt lat="46.531288" lon="13.098190">
        <ele>844.608</ele>
        <time>2018-09-08T07:25:01Z</time>
      </trkpt>
      <trkpt lat="46.531285" lon="13.098176">
        <ele>845.185</ele>
        <time>2018-09-08T07:25:02Z</time>
      </trkpt>
      <trkpt lat="46.531282" lon="13.098162">
        <ele>845.657</ele>
        <time>2018-09-08T07:25:03Z</time>
      </trkpt>
      <trkpt lat="46.531280" lon="13.098144">
        <ele>846.155</ele>
        <time>2018-09-08T07:25:04Z</time>
      </trkpt>
      <trkpt lat="46.531285" lon="13.098108">
        <ele>846.524</ele>
        <time>2018-09-08T07:25:06Z</time>
      </trkpt>
      <trkpt lat="46.531290" lon="13.098091">
        <ele>847.028</ele>
        <time>2018-09-08T07:25:07Z</time>
      </trkpt>
      <trkpt lat="46.531295" lon="13.098073">
        <ele>847.043</ele>
        <time>2018-09-08T07:25:08Z</time>
      </trkpt>
      <trkpt lat="46.531297" lon="13.098056">
        <ele>847.541</ele>
        <time>2018-09-08T07:25:09Z</time>
      </trkpt>
      <trkpt lat="46.531337" lon="13.097770">
        <ele>853.343</ele>
        <time>2018-09-08T07:25:26Z</time>
      </trkpt>
      <trkpt lat="46.531341" lon="13.097500">
        <ele>855.241</ele>
        <time>2018-09-08T07:25:44Z</time>
      </trkpt>
      <trkpt lat="46.531331" lon="13.097364">
        <ele>856.181</ele>
        <time>2018-09-08T07:25:54Z</time>
      </trkpt>
      <trkpt lat="46.531319" lon="13.097331">
        <ele>856.609</ele>
        <time>2018-09-08T07:25:56Z</time>
      </trkpt>
      <trkpt lat="46.531325" lon="13.097314">
        <ele>857.108</ele>
        <time>2018-09-08T07:25:57Z</time>
      </trkpt>
      <trkpt lat="46.531335" lon="13.097185">
        <ele>860.018</ele>
        <time>2018-09-08T07:26:06Z</time>
      </trkpt>
      <trkpt lat="46.531335" lon="13.097169">
        <ele>860.560</ele>
        <time>2018-09-08T07:26:07Z</time>
      </trkpt>
      <trkpt lat="46.531335" lon="13.097150">
        <ele>860.568</ele>
        <time>2018-09-08T07:26:08Z</time>
      </trkpt>
      <trkpt lat="46.531300" lon="13.096942">
        <ele>864.347</ele>
        <time>2018-09-08T07:26:22Z</time>
      </trkpt>
      <trkpt lat="46.531293" lon="13.096927">
        <ele>864.391</ele>
        <time>2018-09-08T07:26:23Z</time>
      </trkpt>
      <trkpt lat="46.531285" lon="13.096913">
        <ele>864.356</ele>
        <time>2018-09-08T07:26:24Z</time>
      </trkpt>
      <trkpt lat="46.531276" lon="13.096898">
        <ele>864.814</ele>
        <time>2018-09-08T07:26:25Z</time>
      </trkpt>
      <trkpt lat="46.531267" lon="13.096866">
        <ele>865.326</ele>
        <time>2018-09-08T07:26:27Z</time>
      </trkpt>
      <trkpt lat="46.531262" lon="13.096848">
        <ele>865.318</ele>
        <time>2018-09-08T07:26:28Z</time>
      </trkpt>
      <trkpt lat="46.531261" lon="13.096788">
        <ele>867.298</ele>
        <time>2018-09-08T07:26:33Z</time>
      </trkpt>
      <trkpt lat="46.531261" lon="13.096771">
        <ele>867.217</ele>
        <time>2018-09-08T07:26:34Z</time>
      </trkpt>
      <trkpt lat="46.531254" lon="13.096561">
        <ele>871.508</ele>
        <time>2018-09-08T07:26:48Z</time>
      </trkpt>
      <trkpt lat="46.531257" lon="13.096459">
        <ele>873.925</ele>
        <time>2018-09-08T07:26:55Z</time>
      </trkpt>
      <trkpt lat="46.531300" lon="13.096232">
        <ele>878.327</ele>
        <time>2018-09-08T07:27:10Z</time>
      </trkpt>
      <trkpt lat="46.531343" lon="13.096028">
        <ele>880.735</ele>
        <time>2018-09-08T07:27:24Z</time>
      </trkpt>
      <trkpt lat="46.531368" lon="13.095944">
        <ele>882.134</ele>
        <time>2018-09-08T07:27:30Z</time>
      </trkpt>
      <trkpt lat="46.531379" lon="13.095893">
        <ele>883.198</ele>
        <time>2018-09-08T07:27:34Z</time>
      </trkpt>
      <trkpt lat="46.531412" lon="13.095700">
        <ele>883.193</ele>
        <time>2018-09-08T07:27:49Z</time>
      </trkpt>
      <trkpt lat="46.531442" lon="13.095460">
        <ele>885.591</ele>
        <time>2018-09-08T07:28:06Z</time>
      </trkpt>
      <trkpt lat="46.531452" lon="13.095388">
        <ele>886.463</ele>
        <time>2018-09-08T07:28:11Z</time>
      </trkpt>
      <trkpt lat="46.531453" lon="13.095282">
        <ele>886.473</ele>
        <time>2018-09-08T07:28:17Z</time>
      </trkpt>
      <trkpt lat="46.531430" lon="13.095067">
        <ele>887.485</ele>
        <time>2018-09-08T07:28:31Z</time>
      </trkpt>
      <trkpt lat="46.531437" lon="13.094960">
        <ele>887.913</ele>
        <time>2018-09-08T07:28:38Z</time>
      </trkpt>
      <trkpt lat="46.531443" lon="13.094945">
        <ele>887.908</ele>
        <time>2018-09-08T07:28:39Z</time>
      </trkpt>
      <trkpt lat="46.531449" lon="13.094930">
        <ele>888.471</ele>
        <time>2018-09-08T07:28:40Z</time>
      </trkpt>
      <trkpt lat="46.531455" lon="13.094911">
        <ele>888.413</ele>
        <time>2018-09-08T07:28:41Z</time>
      </trkpt>
      <trkpt lat="46.531459" lon="13.094891">
        <ele>888.491</ele>
        <time>2018-09-08T07:28:42Z</time>
      </trkpt>
      <trkpt lat="46.531586" lon="13.094641">
        <ele>889.820</ele>
        <time>2018-09-08T07:28:58Z</time>
      </trkpt>
      <trkpt lat="46.531683" lon="13.094361">
        <ele>889.814</ele>
        <time>2018-09-08T07:29:11Z</time>
      </trkpt>
      <trkpt lat="46.531592" lon="13.094248">
        <ele>889.319</ele>
        <time>2018-09-08T07:29:17Z</time>
      </trkpt>
      <trkpt lat="46.531573" lon="13.094254">
        <ele>889.357</ele>
        <time>2018-09-08T07:29:18Z</time>
      </trkpt>
      <trkpt lat="46.531556" lon="13.094266">
        <ele>889.349</ele>
        <time>2018-09-08T07:29:19Z</time>
      </trkpt>
      <trkpt lat="46.531540" lon="13.094281">
        <ele>889.314</ele>
        <time>2018-09-08T07:29:20Z</time>
      </trkpt>
      <trkpt lat="46.531524" lon="13.094304">
        <ele>889.354</ele>
        <time>2018-09-08T07:29:21Z</time>
      </trkpt>
      <trkpt lat="46.531513" lon="13.094331">
        <ele>889.309</ele>
        <time>2018-09-08T07:29:22Z</time>
      </trkpt>
      <trkpt lat="46.531502" lon="13.094361">
        <ele>889.808</ele>
        <time>2018-09-08T07:29:23Z</time>
      </trkpt>
      <trkpt lat="46.531380" lon="13.094734">
        <ele>891.715</ele>
        <time>2018-09-08T07:29:37Z</time>
      </trkpt>
      <trkpt lat="46.531236" lon="13.094955">
        <ele>893.227</ele>
        <time>2018-09-08T07:29:51Z</time>
      </trkpt>
      <trkpt lat="46.531086" lon="13.095159">
        <ele>898.455</ele>
        <time>2018-09-08T07:30:06Z</time>
      </trkpt>
      <trkpt lat="46.530982" lon="13.095478">
        <ele>902.884</ele>
        <time>2018-09-08T07:30:22Z</time>
      </trkpt>
      <trkpt lat="46.530958" lon="13.095864">
        <ele>906.128</ele>
        <time>2018-09-08T07:30:39Z</time>
      </trkpt>
      <trkpt lat="46.530943" lon="13.096018">
        <ele>906.133</ele>
        <time>2018-09-08T07:30:46Z</time>
      </trkpt>
      <trkpt lat="46.530934" lon="13.096031">
        <ele>906.191</ele>
        <time>2018-09-08T07:30:47Z</time>
      </trkpt>
      <trkpt lat="46.530879" lon="13.096068">
        <ele>906.623</ele>
        <time>2018-09-08T07:30:51Z</time>
      </trkpt>
      <trkpt lat="46.530865" lon="13.096067">
        <ele>906.665</ele>
        <time>2018-09-08T07:30:52Z</time>
      </trkpt>
      <trkpt lat="46.530852" lon="13.096069">
        <ele>906.168</ele>
        <time>2018-09-08T07:30:53Z</time>
      </trkpt>
      <trkpt lat="46.530839" lon="13.096062">
        <ele>906.114</ele>
        <time>2018-09-08T07:30:54Z</time>
      </trkpt>
      <trkpt lat="46.530827" lon="13.096050">
        <ele>906.608</ele>
        <time>2018-09-08T07:30:55Z</time>
      </trkpt>
      <trkpt lat="46.530816" lon="13.096036">
        <ele>906.640</ele>
        <time>2018-09-08T07:30:56Z</time>
      </trkpt>
      <trkpt lat="46.530808" lon="13.096016">
        <ele>907.152</ele>
        <time>2018-09-08T07:30:57Z</time>
      </trkpt>
      <trkpt lat="46.530801" lon="13.095995">
        <ele>907.140</ele>
        <time>2018-09-08T07:30:58Z</time>
      </trkpt>
      <trkpt lat="46.530800" lon="13.095972">
        <ele>907.629</ele>
        <time>2018-09-08T07:30:59Z</time>
      </trkpt>
      <trkpt lat="46.530803" lon="13.095951">
        <ele>907.653</ele>
        <time>2018-09-08T07:31:00Z</time>
      </trkpt>
      <trkpt lat="46.530809" lon="13.095932">
        <ele>908.118</ele>
        <time>2018-09-08T07:31:01Z</time>
      </trkpt>
      <trkpt lat="46.530814" lon="13.095910">
        <ele>908.596</ele>
        <time>2018-09-08T07:31:02Z</time>
      </trkpt>
      <trkpt lat="46.530821" lon="13.095890">
        <ele>908.598</ele>
        <time>2018-09-08T07:31:03Z</time>
      </trkpt>
      <trkpt lat="46.530899" lon="13.095550">
        <ele>910.514</ele>
        <time>2018-09-08T07:31:18Z</time>
      </trkpt>
      <trkpt lat="46.530908" lon="13.095217">
        <ele>912.454</ele>
        <time>2018-09-08T07:31:32Z</time>
      </trkpt>
      <trkpt lat="46.530987" lon="13.094961">
        <ele>914.309</ele>
        <time>2018-09-08T07:31:45Z</time>
      </trkpt>
      <trkpt lat="46.531109" lon="13.094687">
        <ele>917.708</ele>
        <time>2018-09-08T07:31:58Z</time>
      </trkpt>
      <trkpt lat="46.531229" lon="13.094427">
        <ele>924.965</ele>
        <time>2018-09-08T07:32:12Z</time>
      </trkpt>
      <trkpt lat="46.531317" lon="13.094089">
        <ele>928.227</ele>
        <time>2018-09-08T07:32:27Z</time>
      </trkpt>
      <trkpt lat="46.531371" lon="13.093782">
        <ele>928.265</ele>
        <time>2018-09-08T07:32:40Z</time>
      </trkpt>
      <trkpt lat="46.531408" lon="13.093458">
        <ele>924.484</ele>
        <time>2018-09-08T07:32:54Z</time>
      </trkpt>
      <trkpt lat="46.531448" lon="13.093259">
        <ele>922.028</ele>
        <time>2018-09-08T07:33:03Z</time>
      </trkpt>
      <trkpt lat="46.531448" lon="13.093237">
        <ele>921.523</ele>
        <time>2018-09-08T07:33:04Z</time>
      </trkpt>
      <trkpt lat="46.531449" lon="13.093217">
        <ele>921.051</ele>
        <time>2018-09-08T07:33:05Z</time>
      </trkpt>
      <trkpt lat="46.531452" lon="13.093197">
        <ele>921.033</ele>
        <time>2018-09-08T07:33:06Z</time>
      </trkpt>
      <trkpt lat="46.531454" lon="13.093178">
        <ele>920.615</ele>
        <time>2018-09-08T07:33:07Z</time>
      </trkpt>
      <trkpt lat="46.531455" lon="13.093157">
        <ele>920.165</ele>
        <time>2018-09-08T07:33:08Z</time>
      </trkpt>
      <trkpt lat="46.531526" lon="13.092908">
        <ele>922.511</ele>
        <time>2018-09-08T07:33:21Z</time>
      </trkpt>
      <trkpt lat="46.531585" lon="13.092655">
        <ele>927.808</ele>
        <time>2018-09-08T07:33:34Z</time>
      </trkpt>
      <trkpt lat="46.531681" lon="13.092328">
        <ele>933.575</ele>
        <time>2018-09-08T07:33:50Z</time>
      </trkpt>
      <trkpt lat="46.531781" lon="13.092007">
        <ele>934.027</ele>
        <time>2018-09-08T07:34:06Z</time>
      </trkpt>
      <trkpt lat="46.531891" lon="13.091741">
        <ele>935.065</ele>
        <time>2018-09-08T07:34:20Z</time>
      </trkpt>
      <trkpt lat="46.532022" lon="13.091469">
        <ele>937.434</ele>
        <time>2018-09-08T07:34:35Z</time>
      </trkpt>
      <trkpt lat="46.532176" lon="13.091093">
        <ele>939.348</ele>
        <time>2018-09-08T07:34:54Z</time>
      </trkpt>
      <trkpt lat="46.532061" lon="13.090851">
        <ele>939.833</ele>
        <time>2018-09-08T07:35:06Z</time>
      </trkpt>
      <trkpt lat="46.532039" lon="13.090856">
        <ele>939.891</ele>
        <time>2018-09-08T07:35:07Z</time>
      </trkpt>
      <trkpt lat="46.532018" lon="13.090868">
        <ele>940.383</ele>
        <time>2018-09-08T07:35:08Z</time>
      </trkpt>
      <trkpt lat="46.532002" lon="13.090881">
        <ele>940.374</ele>
        <time>2018-09-08T07:35:09Z</time>
      </trkpt>
      <trkpt lat="46.531988" lon="13.090897">
        <ele>940.756</ele>
        <time>2018-09-08T07:35:10Z</time>
      </trkpt>
      <trkpt lat="46.531974" lon="13.090914">
        <ele>940.721</ele>
        <time>2018-09-08T07:35:11Z</time>
      </trkpt>
      <trkpt lat="46.531853" lon="13.091205">
        <ele>942.708</ele>
        <time>2018-09-08T07:35:24Z</time>
      </trkpt>
      <trkpt lat="46.531826" lon="13.091273">
        <ele>943.141</ele>
        <time>2018-09-08T07:35:27Z</time>
      </trkpt>
      <trkpt lat="46.531814" lon="13.091295">
        <ele>943.673</ele>
        <time>2018-09-08T07:35:28Z</time>
      </trkpt>
      <trkpt lat="46.531671" lon="13.091537">
        <ele>946.541</ele>
        <time>2018-09-08T07:35:43Z</time>
      </trkpt>
      <trkpt lat="46.531560" lon="13.091673">
        <ele>948.950</ele>
        <time>2018-09-08T07:35:56Z</time>
      </trkpt>
      <trkpt lat="46.531493" lon="13.091809">
        <ele>950.884</ele>
        <time>2018-09-08T07:36:06Z</time>
      </trkpt>
      <trkpt lat="46.531415" lon="13.092005">
        <ele>954.779</ele>
        <time>2018-09-08T07:36:16Z</time>
      </trkpt>
      <trkpt lat="46.531403" lon="13.092029">
        <ele>956.137</ele>
        <time>2018-09-08T07:36:17Z</time>
      </trkpt>
      <trkpt lat="46.531391" lon="13.092057">
        <ele>957.169</ele>
        <time>2018-09-08T07:36:18Z</time>
      </trkpt>
      <trkpt lat="46.531378" lon="13.092077">
        <ele>958.531</ele>
        <time>2018-09-08T07:36:19Z</time>
      </trkpt>
      <trkpt lat="46.531367" lon="13.092099">
        <ele>959.061</ele>
        <time>2018-09-08T07:36:20Z</time>
      </trkpt>
      <trkpt lat="46.531356" lon="13.092121">
        <ele>960.407</ele>
        <time>2018-09-08T07:36:21Z</time>
      </trkpt>
      <trkpt lat="46.531346" lon="13.092138">
        <ele>961.908</ele>
        <time>2018-09-08T07:36:22Z</time>
      </trkpt>
      <trkpt lat="46.531341" lon="13.092159">
        <ele>963.367</ele>
        <time>2018-09-08T07:36:23Z</time>
      </trkpt>
      <trkpt lat="46.531333" lon="13.092180">
        <ele>963.829</ele>
        <time>2018-09-08T07:36:24Z</time>
      </trkpt>
      <trkpt lat="46.531324" lon="13.092199">
        <ele>964.887</ele>
        <time>2018-09-08T07:36:25Z</time>
      </trkpt>
      <trkpt lat="46.531317" lon="13.092216">
        <ele>964.816</ele>
        <time>2018-09-08T07:36:26Z</time>
      </trkpt>
      <trkpt lat="46.531308" lon="13.092236">
        <ele>965.310</ele>
        <time>2018-09-08T07:36:27Z</time>
      </trkpt>
      <trkpt lat="46.531215" lon="13.092476">
        <ele>971.015</ele>
        <time>2018-09-08T07:36:40Z</time>
      </trkpt>
      <trkpt lat="46.531111" lon="13.092776">
        <ele>976.333</ele>
        <time>2018-09-08T07:36:55Z</time>
      </trkpt>
      <trkpt lat="46.531028" lon="13.093034">
        <ele>979.265</ele>
        <time>2018-09-08T07:37:09Z</time>
      </trkpt>
      <trkpt lat="46.530899" lon="13.093303">
        <ele>985.064</ele>
        <time>2018-09-08T07:37:25Z</time>
      </trkpt>
      <trkpt lat="46.530748" lon="13.093604">
        <ele>986.406</ele>
        <time>2018-09-08T07:37:42Z</time>
      </trkpt>
      <trkpt lat="46.530581" lon="13.093842">
        <ele>983.016</ele>
        <time>2018-09-08T07:37:55Z</time>
      </trkpt>
      <trkpt lat="46.530473" lon="13.093922">
        <ele>983.508</ele>
        <time>2018-09-08T07:38:02Z</time>
      </trkpt>
      <trkpt lat="46.530459" lon="13.093904">
        <ele>983.570</ele>
        <time>2018-09-08T07:38:03Z</time>
      </trkpt>
      <trkpt lat="46.530450" lon="13.093880">
        <ele>983.522</ele>
        <time>2018-09-08T07:38:04Z</time>
      </trkpt>
      <trkpt lat="46.530447" lon="13.093854">
        <ele>983.570</ele>
        <time>2018-09-08T07:38:05Z</time>
      </trkpt>
      <trkpt lat="46.530450" lon="13.093828">
        <ele>983.529</ele>
        <time>2018-09-08T07:38:06Z</time>
      </trkpt>
      <trkpt lat="46.530454" lon="13.093801">
        <ele>983.553</ele>
        <time>2018-09-08T07:38:07Z</time>
      </trkpt>
      <trkpt lat="46.530633" lon="13.093519">
        <ele>986.478</ele>
        <time>2018-09-08T07:38:21Z</time>
      </trkpt>
      <trkpt lat="46.530762" lon="13.093119">
        <ele>986.446</ele>
        <time>2018-09-08T07:38:35Z</time>
      </trkpt>
      <trkpt lat="46.530804" lon="13.092789">
        <ele>984.538</ele>
        <time>2018-09-08T07:38:46Z</time>
      </trkpt>
      <trkpt lat="46.530806" lon="13.092761">
        <ele>984.011</ele>
        <time>2018-09-08T07:38:47Z</time>
      </trkpt>
      <trkpt lat="46.530840" lon="13.092420">
        <ele>981.121</ele>
        <time>2018-09-08T07:38:59Z</time>
      </trkpt>
      <trkpt lat="46.530899" lon="13.092104">
        <ele>982.103</ele>
        <time>2018-09-08T07:39:12Z</time>
      </trkpt>
      <trkpt lat="46.530956" lon="13.091735">
        <ele>984.508</ele>
        <time>2018-09-08T07:39:28Z</time>
      </trkpt>
      <trkpt lat="46.531029" lon="13.091421">
        <ele>987.855</ele>
        <time>2018-09-08T07:39:41Z</time>
      </trkpt>
      <trkpt lat="46.531089" lon="13.091051">
        <ele>989.887</ele>
        <time>2018-09-08T07:39:57Z</time>
      </trkpt>
      <trkpt lat="46.531133" lon="13.090646">
        <ele>989.315</ele>
        <time>2018-09-08T07:40:14Z</time>
      </trkpt>
      <trkpt lat="46.531171" lon="13.090429">
        <ele>990.774</ele>
        <time>2018-09-08T07:40:23Z</time>
      </trkpt>
      <trkpt lat="46.531177" lon="13.090411">
        <ele>990.748</ele>
        <time>2018-09-08T07:40:24Z</time>
      </trkpt>
      <trkpt lat="46.531253" lon="13.090082">
        <ele>991.783</ele>
        <time>2018-09-08T07:40:39Z</time>
      </trkpt>
      <trkpt lat="46.531336" lon="13.089743">
        <ele>995.131</ele>
        <time>2018-09-08T07:40:56Z</time>
      </trkpt>
      <trkpt lat="46.531390" lon="13.089580">
        <ele>996.543</ele>
        <time>2018-09-08T07:41:05Z</time>
      </trkpt>
      <trkpt lat="46.531393" lon="13.089561">
        <ele>996.539</ele>
        <time>2018-09-08T07:41:06Z</time>
      </trkpt>
      <trkpt lat="46.531398" lon="13.089540">
        <ele>996.501</ele>
        <time>2018-09-08T07:41:07Z</time>
      </trkpt>
      <trkpt lat="46.531405" lon="13.089521">
        <ele>997.021</ele>
        <time>2018-09-08T07:41:08Z</time>
      </trkpt>
      <trkpt lat="46.531411" lon="13.089501">
        <ele>997.908</ele>
        <time>2018-09-08T07:41:09Z</time>
      </trkpt>
      <trkpt lat="46.531484" lon="13.089258">
        <ele>999.987</ele>
        <time>2018-09-08T07:41:21Z</time>
      </trkpt>
      <trkpt lat="46.531484" lon="13.089235">
        <ele>999.959</ele>
        <time>2018-09-08T07:41:22Z</time>
      </trkpt>
      <trkpt lat="46.531473" lon="13.089053">
        <ele>1000.847</ele>
        <time>2018-09-08T07:41:31Z</time>
      </trkpt>
      <trkpt lat="46.531477" lon="13.089031">
        <ele>1000.836</ele>
        <time>2018-09-08T07:41:32Z</time>
      </trkpt>
      <trkpt lat="46.531477" lon="13.089010">
        <ele>1000.890</ele>
        <time>2018-09-08T07:41:33Z</time>
      </trkpt>
      <trkpt lat="46.531477" lon="13.088987">
        <ele>1001.395</ele>
        <time>2018-09-08T07:41:34Z</time>
      </trkpt>
      <trkpt lat="46.531476" lon="13.088963">
        <ele>1001.373</ele>
        <time>2018-09-08T07:41:35Z</time>
      </trkpt>
      <trkpt lat="46.531479" lon="13.088940">
        <ele>1001.375</ele>
        <time>2018-09-08T07:41:36Z</time>
      </trkpt>
      <trkpt lat="46.531484" lon="13.088915">
        <ele>1001.861</ele>
        <time>2018-09-08T07:41:37Z</time>
      </trkpt>
      <trkpt lat="46.531511" lon="13.088775">
        <ele>1002.721</ele>
        <time>2018-09-08T07:41:43Z</time>
      </trkpt>
      <trkpt lat="46.531523" lon="13.088754">
        <ele>1003.213</ele>
        <time>2018-09-08T07:41:44Z</time>
      </trkpt>
      <trkpt lat="46.531530" lon="13.088729">
        <ele>1003.708</ele>
        <time>2018-09-08T07:41:45Z</time>
      </trkpt>
      <trkpt lat="46.531533" lon="13.088707">
        <ele>1003.710</ele>
        <time>2018-09-08T07:41:46Z</time>
      </trkpt>
      <trkpt lat="46.531543" lon="13.088683">
        <ele>1004.282</ele>
        <time>2018-09-08T07:41:47Z</time>
      </trkpt>
      <trkpt lat="46.531558" lon="13.088667">
        <ele>1004.220</ele>
        <time>2018-09-08T07:41:48Z</time>
      </trkpt>
      <trkpt lat="46.531571" lon="13.088647">
        <ele>1004.759</ele>
        <time>2018-09-08T07:41:49Z</time>
      </trkpt>
      <trkpt lat="46.531582" lon="13.088627">
        <ele>1004.733</ele>
        <time>2018-09-08T07:41:50Z</time>
      </trkpt>
      <trkpt lat="46.531595" lon="13.088605">
        <ele>1004.758</ele>
        <time>2018-09-08T07:41:51Z</time>
      </trkpt>
      <trkpt lat="46.531604" lon="13.088583">
        <ele>1004.736</ele>
        <time>2018-09-08T07:41:52Z</time>
      </trkpt>
      <trkpt lat="46.531727" lon="13.088241">
        <ele>1007.148</ele>
        <time>2018-09-08T07:42:08Z</time>
      </trkpt>
      <trkpt lat="46.531840" lon="13.087927">
        <ele>1004.764</ele>
        <time>2018-09-08T07:42:22Z</time>
      </trkpt>
      <trkpt lat="46.531897" lon="13.087654">
        <ele>1002.706</ele>
        <time>2018-09-08T07:42:34Z</time>
      </trkpt>
      <trkpt lat="46.531991" lon="13.087369">
        <ele>1002.716</ele>
        <time>2018-09-08T07:42:48Z</time>
      </trkpt>
      <trkpt lat="46.532097" lon="13.087137">
        <ele>1008.008</ele>
        <time>2018-09-08T07:43:03Z</time>
      </trkpt>
      <trkpt lat="46.532203" lon="13.086901">
        <ele>1011.960</ele>
        <time>2018-09-08T07:43:18Z</time>
      </trkpt>
      <trkpt lat="46.532199" lon="13.086881">
        <ele>1011.942</ele>
        <time>2018-09-08T07:43:19Z</time>
      </trkpt>
      <trkpt lat="46.532189" lon="13.086863">
        <ele>1011.920</ele>
        <time>2018-09-08T07:43:20Z</time>
      </trkpt>
      <trkpt lat="46.532177" lon="13.086843">
        <ele>1012.469</ele>
        <time>2018-09-08T07:43:21Z</time>
      </trkpt>
      <trkpt lat="46.532168" lon="13.086825">
        <ele>1012.483</ele>
        <time>2018-09-08T07:43:22Z</time>
      </trkpt>
      <trkpt lat="46.532156" lon="13.086809">
        <ele>1012.878</ele>
        <time>2018-09-08T07:43:23Z</time>
      </trkpt>
      <trkpt lat="46.532145" lon="13.086793">
        <ele>1012.816</ele>
        <time>2018-09-08T07:43:24Z</time>
      </trkpt>
      <trkpt lat="46.532131" lon="13.086778">
        <ele>1013.368</ele>
        <time>2018-09-08T07:43:25Z</time>
      </trkpt>
      <trkpt lat="46.532119" lon="13.086769">
        <ele>1013.325</ele>
        <time>2018-09-08T07:43:26Z</time>
      </trkpt>
      <trkpt lat="46.532105" lon="13.086757">
        <ele>1013.826</ele>
        <time>2018-09-08T07:43:27Z</time>
      </trkpt>
      <trkpt lat="46.532093" lon="13.086748">
        <ele>1013.808</ele>
        <time>2018-09-08T07:43:28Z</time>
      </trkpt>
      <trkpt lat="46.532080" lon="13.086746">
        <ele>1014.308</ele>
        <time>2018-09-08T07:43:29Z</time>
      </trkpt>
      <trkpt lat="46.532069" lon="13.086745">
        <ele>1014.846</ele>
        <time>2018-09-08T07:43:30Z</time>
      </trkpt>
      <trkpt lat="46.532055" lon="13.086750">
        <ele>1014.828</ele>
        <time>2018-09-08T07:43:31Z</time>
      </trkpt>
      <trkpt lat="46.532041" lon="13.086759">
        <ele>1015.226</ele>
        <time>2018-09-08T07:43:32Z</time>
      </trkpt>
      <trkpt lat="46.532030" lon="13.086773">
        <ele>1015.745</ele>
        <time>2018-09-08T07:43:33Z</time>
      </trkpt>
      <trkpt lat="46.532020" lon="13.086788">
        <ele>1015.789</ele>
        <time>2018-09-08T07:43:34Z</time>
      </trkpt>
      <trkpt lat="46.532012" lon="13.086806">
        <ele>1016.214</ele>
        <time>2018-09-08T07:43:35Z</time>
      </trkpt>
      <trkpt lat="46.532004" lon="13.086822">
        <ele>1016.712</ele>
        <time>2018-09-08T07:43:36Z</time>
      </trkpt>
      <trkpt lat="46.531894" lon="13.087138">
        <ele>1022.594</ele>
        <time>2018-09-08T07:43:53Z</time>
      </trkpt>
      <trkpt lat="46.531789" lon="13.087412">
        <ele>1025.842</ele>
        <time>2018-09-08T07:44:08Z</time>
      </trkpt>
      <trkpt lat="46.531636" lon="13.087516">
        <ele>1028.222</ele>
        <time>2018-09-08T07:44:21Z</time>
      </trkpt>
      <trkpt lat="46.531613" lon="13.087453">
        <ele>1028.214</ele>
        <time>2018-09-08T07:44:24Z</time>
      </trkpt>
      <trkpt lat="46.531615" lon="13.087409">
        <ele>1028.208</ele>
        <time>2018-09-08T07:44:26Z</time>
      </trkpt>
      <trkpt lat="46.531619" lon="13.087389">
        <ele>1028.268</ele>
        <time>2018-09-08T07:44:27Z</time>
      </trkpt>
      <trkpt lat="46.531623" lon="13.087368">
        <ele>1028.240</ele>
        <time>2018-09-08T07:44:28Z</time>
      </trkpt>
      <trkpt lat="46.531628" lon="13.087348">
        <ele>1028.778</ele>
        <time>2018-09-08T07:44:29Z</time>
      </trkpt>
      <trkpt lat="46.531635" lon="13.087324">
        <ele>1028.717</ele>
        <time>2018-09-08T07:44:30Z</time>
      </trkpt>
      <trkpt lat="46.531742" lon="13.086979">
        <ele>1032.131</ele>
        <time>2018-09-08T07:44:47Z</time>
      </trkpt>
      <trkpt lat="46.531811" lon="13.086653">
        <ele>1035.026</ele>
        <time>2018-09-08T07:45:03Z</time>
      </trkpt>
      <trkpt lat="46.531901" lon="13.086309">
        <ele>1036.444</ele>
        <time>2018-09-08T07:45:20Z</time>
      </trkpt>
      <trkpt lat="46.531988" lon="13.085978">
        <ele>1040.236</ele>
        <time>2018-09-08T07:45:36Z</time>
      </trkpt>
      <trkpt lat="46.532129" lon="13.085722">
        <ele>1043.628</ele>
        <time>2018-09-08T07:45:51Z</time>
      </trkpt>
      <trkpt lat="46.532313" lon="13.085682">
        <ele>1046.089</ele>
        <time>2018-09-08T07:46:06Z</time>
      </trkpt>
      <trkpt lat="46.532531" lon="13.085791">
        <ele>1048.917</ele>
        <time>2018-09-08T07:46:23Z</time>
      </trkpt>
      <trkpt lat="46.532545" lon="13.085801">
        <ele>1049.408</ele>
        <time>2018-09-08T07:46:24Z</time>
      </trkpt>
      <trkpt lat="46.532559" lon="13.085812">
        <ele>1048.936</ele>
        <time>2018-09-08T07:46:25Z</time>
      </trkpt>
      <trkpt lat="46.532572" lon="13.085823">
        <ele>1048.938</ele>
        <time>2018-09-08T07:46:26Z</time>
      </trkpt>
      <trkpt lat="46.532587" lon="13.085832">
        <ele>1048.966</ele>
        <time>2018-09-08T07:46:27Z</time>
      </trkpt>
      <trkpt lat="46.532598" lon="13.085839">
        <ele>1048.925</ele>
        <time>2018-09-08T07:46:28Z</time>
      </trkpt>
      <trkpt lat="46.532613" lon="13.085852">
        <ele>1048.979</ele>
        <time>2018-09-08T07:46:29Z</time>
      </trkpt>
      <trkpt lat="46.532873" lon="13.085971">
        <ele>1053.244</ele>
        <time>2018-09-08T07:46:47Z</time>
      </trkpt>
      <trkpt lat="46.533108" lon="13.086094">
        <ele>1059.072</ele>
        <time>2018-09-08T07:47:04Z</time>
      </trkpt>
      <trkpt lat="46.533148" lon="13.086107">
        <ele>1059.594</ele>
        <time>2018-09-08T07:47:07Z</time>
      </trkpt>
      <trkpt lat="46.533160" lon="13.086103">
        <ele>1059.598</ele>
        <time>2018-09-08T07:47:08Z</time>
      </trkpt>
      <trkpt lat="46.533172" lon="13.086109">
        <ele>1059.515</ele>
        <time>2018-09-08T07:47:09Z</time>
      </trkpt>
      <trkpt lat="46.533187" lon="13.086119">
        <ele>1059.526</ele>
        <time>2018-09-08T07:47:10Z</time>
      </trkpt>
      <trkpt lat="46.533202" lon="13.086128">
        <ele>1059.508</ele>
        <time>2018-09-08T07:47:11Z</time>
      </trkpt>
      <trkpt lat="46.533216" lon="13.086138">
        <ele>1059.553</ele>
        <time>2018-09-08T07:47:12Z</time>
      </trkpt>
      <trkpt lat="46.533230" lon="13.086149">
        <ele>1059.535</ele>
        <time>2018-09-08T07:47:13Z</time>
      </trkpt>
      <trkpt lat="46.533246" lon="13.086160">
        <ele>1059.093</ele>
        <time>2018-09-08T07:47:14Z</time>
      </trkpt>
      <trkpt lat="46.533260" lon="13.086172">
        <ele>1059.052</ele>
        <time>2018-09-08T07:47:15Z</time>
      </trkpt>
      <trkpt lat="46.533273" lon="13.086186">
        <ele>1059.056</ele>
        <time>2018-09-08T07:47:16Z</time>
      </trkpt>
      <trkpt lat="46.533427" lon="13.086446">
        <ele>1059.951</ele>
        <time>2018-09-08T07:47:30Z</time>
      </trkpt>
      <trkpt lat="46.533528" lon="13.086802">
        <ele>1059.589</ele>
        <time>2018-09-08T07:47:46Z</time>
      </trkpt>
      <trkpt lat="46.533527" lon="13.086860">
        <ele>1059.581</ele>
        <time>2018-09-08T07:47:49Z</time>
      </trkpt>
      <trkpt lat="46.533522" lon="13.086876">
        <ele>1059.928</ele>
        <time>2018-09-08T07:47:50Z</time>
      </trkpt>
      <trkpt lat="46.533522" lon="13.086897">
        <ele>1059.589</ele>
        <time>2018-09-08T07:47:51Z</time>
      </trkpt>
      <trkpt lat="46.533522" lon="13.086915">
        <ele>1059.517</ele>
        <time>2018-09-08T07:47:52Z</time>
      </trkpt>
      <trkpt lat="46.533522" lon="13.086935">
        <ele>1059.908</ele>
        <time>2018-09-08T07:47:53Z</time>
      </trkpt>
      <trkpt lat="46.533524" lon="13.086952">
        <ele>1059.916</ele>
        <time>2018-09-08T07:47:54Z</time>
      </trkpt>
      <trkpt lat="46.533527" lon="13.086968">
        <ele>1060.478</ele>
        <time>2018-09-08T07:47:55Z</time>
      </trkpt>
      <trkpt lat="46.533529" lon="13.086987">
        <ele>1060.446</ele>
        <time>2018-09-08T07:47:56Z</time>
      </trkpt>
      <trkpt lat="46.533530" lon="13.087007">
        <ele>1060.995</ele>
        <time>2018-09-08T07:47:57Z</time>
      </trkpt>
      <trkpt lat="46.533531" lon="13.087029">
        <ele>1060.989</ele>
        <time>2018-09-08T07:47:58Z</time>
      </trkpt>
      <trkpt lat="46.533674" lon="13.087317">
        <ele>1063.834</ele>
        <time>2018-09-08T07:48:14Z</time>
      </trkpt>
      <trkpt lat="46.533770" lon="13.087385">
        <ele>1063.832</ele>
        <time>2018-09-08T07:48:21Z</time>
      </trkpt>
      <trkpt lat="46.533785" lon="13.087390">
        <ele>1064.324</ele>
        <time>2018-09-08T07:48:22Z</time>
      </trkpt>
      <trkpt lat="46.533800" lon="13.087393">
        <ele>1064.813</ele>
        <time>2018-09-08T07:48:23Z</time>
      </trkpt>
      <trkpt lat="46.534016" lon="13.087338">
        <ele>1069.143</ele>
        <time>2018-09-08T07:48:38Z</time>
      </trkpt>
      <trkpt lat="46.534069" lon="13.087331">
        <ele>1070.507</ele>
        <time>2018-09-08T07:48:42Z</time>
      </trkpt>
      <trkpt lat="46.534082" lon="13.087332">
        <ele>1071.008</ele>
        <time>2018-09-08T07:48:43Z</time>
      </trkpt>
      <trkpt lat="46.534234" lon="13.087362">
        <ele>1076.865</ele>
        <time>2018-09-08T07:48:56Z</time>
      </trkpt>
      <trkpt lat="46.534295" lon="13.087404">
        <ele>1080.197</ele>
        <time>2018-09-08T07:49:02Z</time>
      </trkpt>
      <trkpt lat="46.534304" lon="13.087419">
        <ele>1080.155</ele>
        <time>2018-09-08T07:49:03Z</time>
      </trkpt>
      <trkpt lat="46.534314" lon="13.087435">
        <ele>1080.684</ele>
        <time>2018-09-08T07:49:04Z</time>
      </trkpt>
      <trkpt lat="46.534431" lon="13.087663">
        <ele>1082.178</ele>
        <time>2018-09-08T07:49:17Z</time>
      </trkpt>
      <trkpt lat="46.534463" lon="13.087713">
        <ele>1082.143</ele>
        <time>2018-09-08T07:49:20Z</time>
      </trkpt>
      <trkpt lat="46.534470" lon="13.087728">
        <ele>1081.641</ele>
        <time>2018-09-08T07:49:21Z</time>
      </trkpt>
      <trkpt lat="46.534483" lon="13.087754">
        <ele>1081.643</ele>
        <time>2018-09-08T07:49:23Z</time>
      </trkpt>
      <trkpt lat="46.534491" lon="13.087770">
        <ele>1081.636</ele>
        <time>2018-09-08T07:49:24Z</time>
      </trkpt>
      <trkpt lat="46.534574" lon="13.087903">
        <ele>1081.117</ele>
        <time>2018-09-08T07:49:34Z</time>
      </trkpt>
      <trkpt lat="46.534655" lon="13.087884">
        <ele>1079.718</ele>
        <time>2018-09-08T07:49:45Z</time>
      </trkpt>
      <trkpt lat="46.534661" lon="13.087935">
        <ele>1077.708</ele>
        <time>2018-09-08T07:50:01Z</time>
      </trkpt>
      <trkpt lat="46.534639" lon="13.087957">
        <ele>1071.027</ele>
        <time>2018-09-08T07:50:45Z</time>
      </trkpt>
      <trkpt lat="46.534661" lon="13.087983">
        <ele>1070.529</ele>
        <time>2018-09-08T07:51:18Z</time>
      </trkpt>
      <trkpt lat="46.534686" lon="13.087904">
        <ele>1067.697</ele>
        <time>2018-09-08T07:52:06Z</time>
      </trkpt>
      <trkpt lat="46.534681" lon="13.087882">
        <ele>1067.256</ele>
        <time>2018-09-08T07:52:47Z</time>
      </trkpt>
      <trkpt lat="46.534666" lon="13.087937">
        <ele>1065.790</ele>
        <time>2018-09-08T07:53:20Z</time>
      </trkpt>
      <trkpt lat="46.534657" lon="13.087952">
        <ele>1067.295</ele>
        <time>2018-09-08T07:54:07Z</time>
      </trkpt>
      <trkpt lat="46.534628" lon="13.087945">
        <ele>1073.493</ele>
        <time>2018-09-08T07:54:53Z</time>
      </trkpt>
      <trkpt lat="46.534655" lon="13.087918">
        <ele>1072.415</ele>
        <time>2018-09-08T07:55:31Z</time>
      </trkpt>
      <trkpt lat="46.534646" lon="13.087927">
        <ele>1080.677</ele>
        <time>2018-09-08T07:56:03Z</time>
      </trkpt>
      <trkpt lat="46.534652" lon="13.087936">
        <ele>1078.761</ele>
        <time>2018-09-08T07:56:21Z</time>
      </trkpt>
      <trkpt lat="46.534707" lon="13.087869">
        <ele>1077.227</ele>
        <time>2018-09-08T07:56:37Z</time>
      </trkpt>
      <trkpt lat="46.534715" lon="13.087857">
        <ele>1077.208</ele>
        <time>2018-09-08T07:56:38Z</time>
      </trkpt>
      <trkpt lat="46.534724" lon="13.087844">
        <ele>1077.271</ele>
        <time>2018-09-08T07:56:39Z</time>
      </trkpt>
      <trkpt lat="46.534733" lon="13.087829">
        <ele>1077.253</ele>
        <time>2018-09-08T07:56:40Z</time>
      </trkpt>
      <trkpt lat="46.534743" lon="13.087811">
        <ele>1077.251</ele>
        <time>2018-09-08T07:56:41Z</time>
      </trkpt>
      <trkpt lat="46.534754" lon="13.087792">
        <ele>1077.210</ele>
        <time>2018-09-08T07:56:42Z</time>
      </trkpt>
      <trkpt lat="46.534766" lon="13.087768">
        <ele>1077.234</ele>
        <time>2018-09-08T07:56:43Z</time>
      </trkpt>
      <trkpt lat="46.534778" lon="13.087744">
        <ele>1077.279</ele>
        <time>2018-09-08T07:56:44Z</time>
      </trkpt>
      <trkpt lat="46.534912" lon="13.087513">
        <ele>1075.397</ele>
        <time>2018-09-08T07:56:51Z</time>
      </trkpt>
      <trkpt lat="46.534930" lon="13.087455">
        <ele>1074.419</ele>
        <time>2018-09-08T07:56:52Z</time>
      </trkpt>
      <trkpt lat="46.534946" lon="13.087391">
        <ele>1073.452</ele>
        <time>2018-09-08T07:56:53Z</time>
      </trkpt>
      <trkpt lat="46.534965" lon="13.087319">
        <ele>1072.453</ele>
        <time>2018-09-08T07:56:54Z</time>
      </trkpt>
      <trkpt lat="46.534990" lon="13.087248">
        <ele>1071.508</ele>
        <time>2018-09-08T07:56:55Z</time>
      </trkpt>
      <trkpt lat="46.535026" lon="13.087189">
        <ele>1070.508</ele>
        <time>2018-09-08T07:56:56Z</time>
      </trkpt>
      <trkpt lat="46.535071" lon="13.087147">
        <ele>1069.659</ele>
        <time>2018-09-08T07:56:57Z</time>
      </trkpt>
      <trkpt lat="46.535119" lon="13.087116">
        <ele>1069.161</ele>
        <time>2018-09-08T07:56:58Z</time>
      </trkpt>
      <trkpt lat="46.535170" lon="13.087081">
        <ele>1068.179</ele>
        <time>2018-09-08T07:56:59Z</time>
      </trkpt>
      <trkpt lat="46.535217" lon="13.087035">
        <ele>1067.648</ele>
        <time>2018-09-08T07:57:00Z</time>
      </trkpt>
      <trkpt lat="46.535262" lon="13.086984">
        <ele>1066.792</ele>
        <time>2018-09-08T07:57:01Z</time>
      </trkpt>
      <trkpt lat="46.535308" lon="13.086926">
        <ele>1066.287</ele>
        <time>2018-09-08T07:57:02Z</time>
      </trkpt>
      <trkpt lat="46.535757" lon="13.086166">
        <ele>1057.125</ele>
        <time>2018-09-08T07:57:12Z</time>
      </trkpt>
      <trkpt lat="46.535789" lon="13.086073">
        <ele>1056.117</ele>
        <time>2018-09-08T07:57:13Z</time>
      </trkpt>
      <trkpt lat="46.535862" lon="13.085779">
        <ele>1053.233</ele>
        <time>2018-09-08T07:57:16Z</time>
      </trkpt>
      <trkpt lat="46.535886" lon="13.085581">
        <ele>1050.823</ele>
        <time>2018-09-08T07:57:18Z</time>
      </trkpt>
      <trkpt lat="46.535889" lon="13.085478">
        <ele>1049.915</ele>
        <time>2018-09-08T07:57:19Z</time>
      </trkpt>
      <trkpt lat="46.535885" lon="13.085382">
        <ele>1048.908</ele>
        <time>2018-09-08T07:57:20Z</time>
      </trkpt>
      <trkpt lat="46.535826" lon="13.084966">
        <ele>1043.677</ele>
        <time>2018-09-08T07:57:25Z</time>
      </trkpt>
      <trkpt lat="46.535835" lon="13.084879">
        <ele>1042.699</ele>
        <time>2018-09-08T07:57:26Z</time>
      </trkpt>
      <trkpt lat="46.535856" lon="13.084799">
        <ele>1041.747</ele>
        <time>2018-09-08T07:57:27Z</time>
      </trkpt>
      <trkpt lat="46.535904" lon="13.084653">
        <ele>1039.346</ele>
        <time>2018-09-08T07:57:29Z</time>
      </trkpt>
      <trkpt lat="46.535997" lon="13.084411">
        <ele>1036.440</ele>
        <time>2018-09-08T07:57:32Z</time>
      </trkpt>
      <trkpt lat="46.536019" lon="13.084322">
        <ele>1035.445</ele>
        <time>2018-09-08T07:57:33Z</time>
      </trkpt>
      <trkpt lat="46.536025" lon="13.084232">
        <ele>1034.523</ele>
        <time>2018-09-08T07:57:34Z</time>
      </trkpt>
      <trkpt lat="46.536018" lon="13.084144">
        <ele>1033.545</ele>
        <time>2018-09-08T07:57:35Z</time>
      </trkpt>
      <trkpt lat="46.536001" lon="13.084060">
        <ele>1032.547</ele>
        <time>2018-09-08T07:57:36Z</time>
      </trkpt>
      <trkpt lat="46.535979" lon="13.083979">
        <ele>1031.129</ele>
        <time>2018-09-08T07:57:37Z</time>
      </trkpt>
      <trkpt lat="46.535951" lon="13.083901">
        <ele>1030.121</ele>
        <time>2018-09-08T07:57:38Z</time>
      </trkpt>
      <trkpt lat="46.535922" lon="13.083828">
        <ele>1028.708</ele>
        <time>2018-09-08T07:57:39Z</time>
      </trkpt>
      <trkpt lat="46.535899" lon="13.083750">
        <ele>1027.758</ele>
        <time>2018-09-08T07:57:40Z</time>
      </trkpt>
      <trkpt lat="46.535888" lon="13.083665">
        <ele>1026.860</ele>
        <time>2018-09-08T07:57:41Z</time>
      </trkpt>
      <trkpt lat="46.535893" lon="13.083582">
        <ele>1025.848</ele>
        <time>2018-09-08T07:57:42Z</time>
      </trkpt>
      <trkpt lat="46.535917" lon="13.083500">
        <ele>1025.357</ele>
        <time>2018-09-08T07:57:43Z</time>
      </trkpt>
      <trkpt lat="46.535942" lon="13.083422">
        <ele>1024.921</ele>
        <time>2018-09-08T07:57:44Z</time>
      </trkpt>
      <trkpt lat="46.535957" lon="13.083340">
        <ele>1024.416</ele>
        <time>2018-09-08T07:57:45Z</time>
      </trkpt>
      <trkpt lat="46.535953" lon="13.083260">
        <ele>1023.954</ele>
        <time>2018-09-08T07:57:46Z</time>
      </trkpt>
      <trkpt lat="46.535936" lon="13.083181">
        <ele>1022.956</ele>
        <time>2018-09-08T07:57:47Z</time>
      </trkpt>
      <trkpt lat="46.535907" lon="13.083100">
        <ele>1022.098</ele>
        <time>2018-09-08T07:57:48Z</time>
      </trkpt>
      <trkpt lat="46.535882" lon="13.083016">
        <ele>1021.015</ele>
        <time>2018-09-08T07:57:49Z</time>
      </trkpt>
      <trkpt lat="46.535861" lon="13.082930">
        <ele>1020.526</ele>
        <time>2018-09-08T07:57:50Z</time>
      </trkpt>
      <trkpt lat="46.535834" lon="13.082845">
        <ele>1019.608</ele>
        <time>2018-09-08T07:57:51Z</time>
      </trkpt>
      <trkpt lat="46.535816" lon="13.082758">
        <ele>1018.613</ele>
        <time>2018-09-08T07:57:52Z</time>
      </trkpt>
      <trkpt lat="46.535812" lon="13.082662">
        <ele>1017.685</ele>
        <time>2018-09-08T07:57:53Z</time>
      </trkpt>
      <trkpt lat="46.535820" lon="13.082566">
        <ele>1016.723</ele>
        <time>2018-09-08T07:57:54Z</time>
      </trkpt>
      <trkpt lat="46.535833" lon="13.082467">
        <ele>1016.222</ele>
        <time>2018-09-08T07:57:55Z</time>
      </trkpt>
      <trkpt lat="46.535847" lon="13.082368">
        <ele>1015.786</ele>
        <time>2018-09-08T07:57:56Z</time>
      </trkpt>
      <trkpt lat="46.535905" lon="13.082051">
        <ele>1014.351</ele>
        <time>2018-09-08T07:58:00Z</time>
      </trkpt>
      <trkpt lat="46.535937" lon="13.081999">
        <ele>1014.399</ele>
        <time>2018-09-08T07:58:01Z</time>
      </trkpt>
      <trkpt lat="46.535975" lon="13.081984">
        <ele>1014.391</ele>
        <time>2018-09-08T07:58:02Z</time>
      </trkpt>
      <trkpt lat="46.536014" lon="13.082003">
        <ele>1014.359</ele>
        <time>2018-09-08T07:58:03Z</time>
      </trkpt>
      <trkpt lat="46.536035" lon="13.082047">
        <ele>1014.303</ele>
        <time>2018-09-08T07:58:04Z</time>
      </trkpt>
      <trkpt lat="46.536048" lon="13.082108">
        <ele>1014.323</ele>
        <time>2018-09-08T07:58:05Z</time>
      </trkpt>
      <trkpt lat="46.536062" lon="13.082163">
        <ele>1014.308</ele>
        <time>2018-09-08T07:58:06Z</time>
      </trkpt>
      <trkpt lat="46.536152" lon="13.082797">
        <ele>1012.469</ele>
        <time>2018-09-08T07:58:18Z</time>
      </trkpt>
      <trkpt lat="46.536172" lon="13.082873">
        <ele>1013.311</ele>
        <time>2018-09-08T07:58:20Z</time>
      </trkpt>
      <trkpt lat="46.536192" lon="13.082911">
        <ele>1013.829</ele>
        <time>2018-09-08T07:58:21Z</time>
      </trkpt>
      <trkpt lat="46.536216" lon="13.082941">
        <ele>1014.348</ele>
        <time>2018-09-08T07:58:22Z</time>
      </trkpt>
      <trkpt lat="46.536240" lon="13.082970">
        <ele>1014.842</ele>
        <time>2018-09-08T07:58:23Z</time>
      </trkpt>
      <trkpt lat="46.536267" lon="13.082992">
        <ele>1015.257</ele>
        <time>2018-09-08T07:58:24Z</time>
      </trkpt>
      <trkpt lat="46.536417" lon="13.083226">
        <ele>1018.185</ele>
        <time>2018-09-08T07:58:31Z</time>
      </trkpt>
      <trkpt lat="46.536430" lon="13.083289">
        <ele>1018.117</ele>
        <time>2018-09-08T07:58:32Z</time>
      </trkpt>
      <trkpt lat="46.536634" lon="13.084376">
        <ele>1015.274</ele>
        <time>2018-09-08T07:58:46Z</time>
      </trkpt>
      <trkpt lat="46.536686" lon="13.084843">
        <ele>1013.856</ele>
        <time>2018-09-08T07:58:52Z</time>
      </trkpt>
      <trkpt lat="46.536712" lon="13.084908">
        <ele>1013.821</ele>
        <time>2018-09-08T07:58:53Z</time>
      </trkpt>
      <trkpt lat="46.536747" lon="13.084958">
        <ele>1013.308</ele>
        <time>2018-09-08T07:58:54Z</time>
      </trkpt>
      <trkpt lat="46.536792" lon="13.084995">
        <ele>1012.871</ele>
        <time>2018-09-08T07:58:55Z</time>
      </trkpt>
      <trkpt lat="46.536843" lon="13.085013">
        <ele>1012.483</ele>
        <time>2018-09-08T07:58:56Z</time>
      </trkpt>
      <trkpt lat="46.536893" lon="13.085004">
        <ele>1011.961</ele>
        <time>2018-09-08T07:58:57Z</time>
      </trkpt>
      <trkpt lat="46.536934" lon="13.084976">
        <ele>1011.410</ele>
        <time>2018-09-08T07:58:58Z</time>
      </trkpt>
      <trkpt lat="46.536963" lon="13.084933">
        <ele>1010.974</ele>
        <time>2018-09-08T07:58:59Z</time>
      </trkpt>
      <trkpt lat="46.536995" lon="13.084882">
        <ele>1010.439</ele>
        <time>2018-09-08T07:59:00Z</time>
      </trkpt>
      <trkpt lat="46.537104" lon="13.084743">
        <ele>1009.047</ele>
        <time>2018-09-08T07:59:03Z</time>
      </trkpt>
      <trkpt lat="46.537148" lon="13.084712">
        <ele>1008.539</ele>
        <time>2018-09-08T07:59:04Z</time>
      </trkpt>
      <trkpt lat="46.537192" lon="13.084693">
        <ele>1007.617</ele>
        <time>2018-09-08T07:59:05Z</time>
      </trkpt>
      <trkpt lat="46.537245" lon="13.084686">
        <ele>1007.187</ele>
        <time>2018-09-08T07:59:06Z</time>
      </trkpt>
      <trkpt lat="46.537299" lon="13.084698">
        <ele>1006.615</ele>
        <time>2018-09-08T07:59:07Z</time>
      </trkpt>
      <trkpt lat="46.537349" lon="13.084728">
        <ele>1005.608</ele>
        <time>2018-09-08T07:59:08Z</time>
      </trkpt>
      <trkpt lat="46.537392" lon="13.084775">
        <ele>1005.295</ele>
        <time>2018-09-08T07:59:09Z</time>
      </trkpt>
      <trkpt lat="46.537423" lon="13.084839">
        <ele>1004.747</ele>
        <time>2018-09-08T07:59:10Z</time>
      </trkpt>
      <trkpt lat="46.537447" lon="13.084911">
        <ele>1004.785</ele>
        <time>2018-09-08T07:59:11Z</time>
      </trkpt>
      <trkpt lat="46.537467" lon="13.084985">
        <ele>1004.794</ele>
        <time>2018-09-08T07:59:12Z</time>
      </trkpt>
      <trkpt lat="46.537519" lon="13.085258">
        <ele>1004.278</ele>
        <time>2018-09-08T07:59:16Z</time>
      </trkpt>
      <trkpt lat="46.537530" lon="13.085316">
        <ele>1004.283</ele>
        <time>2018-09-08T07:59:17Z</time>
      </trkpt>
      <trkpt lat="46.537537" lon="13.085371">
        <ele>1004.751</ele>
        <time>2018-09-08T07:59:18Z</time>
      </trkpt>
      <trkpt lat="46.537590" lon="13.085939">
        <ele>1006.613</ele>
        <time>2018-09-08T07:59:34Z</time>
      </trkpt>
      <trkpt lat="46.537657" lon="13.086411">
        <ele>1006.655</ele>
        <time>2018-09-08T07:59:52Z</time>
      </trkpt>
      <trkpt lat="46.537738" lon="13.086784">
        <ele>1010.407</ele>
        <time>2018-09-08T08:00:08Z</time>
      </trkpt>
      <trkpt lat="46.537911" lon="13.087011">
        <ele>1014.817</ele>
        <time>2018-09-08T08:00:23Z</time>
      </trkpt>
      <trkpt lat="46.538051" lon="13.087010">
        <ele>1016.708</ele>
        <time>2018-09-08T08:00:35Z</time>
      </trkpt>
      <trkpt lat="46.538062" lon="13.086996">
        <ele>1016.749</ele>
        <time>2018-09-08T08:00:36Z</time>
      </trkpt>
      <trkpt lat="46.538081" lon="13.086967">
        <ele>1016.781</ele>
        <time>2018-09-08T08:00:38Z</time>
      </trkpt>
      <trkpt lat="46.538087" lon="13.086948">
        <ele>1017.269</ele>
        <time>2018-09-08T08:00:39Z</time>
      </trkpt>
      <trkpt lat="46.538097" lon="13.086930">
        <ele>1017.238</ele>
        <time>2018-09-08T08:00:40Z</time>
      </trkpt>
      <trkpt lat="46.538125" lon="13.086831">
        <ele>1019.192</ele>
        <time>2018-09-08T08:00:46Z</time>
      </trkpt>
      <trkpt lat="46.538128" lon="13.086814">
        <ele>1019.617</ele>
        <time>2018-09-08T08:00:47Z</time>
      </trkpt>
      <trkpt lat="46.538147" lon="13.086731">
        <ele>1022.045</ele>
        <time>2018-09-08T08:00:53Z</time>
      </trkpt>
      <trkpt lat="46.538143" lon="13.086489">
        <ele>1030.667</ele>
        <time>2018-09-08T08:01:07Z</time>
      </trkpt>
      <trkpt lat="46.538190" lon="13.086211">
        <ele>1033.517</ele>
        <time>2018-09-08T08:01:21Z</time>
      </trkpt>
      <trkpt lat="46.538197" lon="13.086190">
        <ele>1032.587</ele>
        <time>2018-09-08T08:01:22Z</time>
      </trkpt>
      <trkpt lat="46.538202" lon="13.086167">
        <ele>1032.115</ele>
        <time>2018-09-08T08:01:23Z</time>
      </trkpt>
      <trkpt lat="46.538229" lon="13.086038">
        <ele>1030.608</ele>
        <time>2018-09-08T08:01:29Z</time>
      </trkpt>
      <trkpt lat="46.538236" lon="13.086017">
        <ele>1030.145</ele>
        <time>2018-09-08T08:01:30Z</time>
      </trkpt>
      <trkpt lat="46.538378" lon="13.085667">
        <ele>1032.167</ele>
        <time>2018-09-08T08:01:47Z</time>
      </trkpt>
      <trkpt lat="46.538446" lon="13.085297">
        <ele>1033.085</ele>
        <time>2018-09-08T08:02:03Z</time>
      </trkpt>
      <trkpt lat="46.538508" lon="13.084885">
        <ele>1033.074</ele>
        <time>2018-09-08T08:02:21Z</time>
      </trkpt>
      <trkpt lat="46.538602" lon="13.084570">
        <ele>1034.028</ele>
        <time>2018-09-08T08:02:36Z</time>
      </trkpt>
      <trkpt lat="46.538669" lon="13.084428">
        <ele>1034.523</ele>
        <time>2018-09-08T08:02:44Z</time>
      </trkpt>
      <trkpt lat="46.538669" lon="13.084412">
        <ele>1034.511</ele>
        <time>2018-09-08T08:02:45Z</time>
      </trkpt>
      <trkpt lat="46.538642" lon="13.084362">
        <ele>1035.023</ele>
        <time>2018-09-08T08:02:57Z</time>
      </trkpt>
      <trkpt lat="46.538655" lon="13.084315">
        <ele>1034.598</ele>
        <time>2018-09-08T08:03:21Z</time>
      </trkpt>
      <trkpt lat="46.538667" lon="13.084314">
        <ele>1034.015</ele>
        <time>2018-09-08T08:03:22Z</time>
      </trkpt>
      <trkpt lat="46.538680" lon="13.084313">
        <ele>1034.526</ele>
        <time>2018-09-08T08:03:23Z</time>
      </trkpt>
      <trkpt lat="46.538692" lon="13.084304">
        <ele>1034.008</ele>
        <time>2018-09-08T08:03:24Z</time>
      </trkpt>
      <trkpt lat="46.538701" lon="13.084295">
        <ele>1034.023</ele>
        <time>2018-09-08T08:03:25Z</time>
      </trkpt>
      <trkpt lat="46.538710" lon="13.084289">
        <ele>1034.075</ele>
        <time>2018-09-08T08:03:26Z</time>
      </trkpt>
      <trkpt lat="46.538751" lon="13.084304">
        <ele>1034.553</ele>
        <time>2018-09-08T08:03:30Z</time>
      </trkpt>
      <trkpt lat="46.538764" lon="13.084291">
        <ele>1034.572</ele>
        <time>2018-09-08T08:03:31Z</time>
      </trkpt>
      <trkpt lat="46.538778" lon="13.084274">
        <ele>1034.536</ele>
        <time>2018-09-08T08:03:32Z</time>
      </trkpt>
      <trkpt lat="46.539126" lon="13.084100">
        <ele>1033.521</ele>
        <time>2018-09-08T08:03:44Z</time>
      </trkpt>
      <trkpt lat="46.539363" lon="13.084127">
        <ele>1032.559</ele>
        <time>2018-09-08T08:03:49Z</time>
      </trkpt>
      <trkpt lat="46.539412" lon="13.084124">
        <ele>1032.521</ele>
        <time>2018-09-08T08:03:50Z</time>
      </trkpt>
      <trkpt lat="46.539462" lon="13.084112">
        <ele>1032.538</ele>
        <time>2018-09-08T08:03:51Z</time>
      </trkpt>
      <trkpt lat="46.539509" lon="13.084084">
        <ele>1032.170</ele>
        <time>2018-09-08T08:03:52Z</time>
      </trkpt>
      <trkpt lat="46.539549" lon="13.084035">
        <ele>1032.117</ele>
        <time>2018-09-08T08:03:53Z</time>
      </trkpt>
      <trkpt lat="46.539574" lon="13.083967">
        <ele>1031.608</ele>
        <time>2018-09-08T08:03:54Z</time>
      </trkpt>
      <trkpt lat="46.539584" lon="13.083892">
        <ele>1031.657</ele>
        <time>2018-09-08T08:03:55Z</time>
      </trkpt>
      <trkpt lat="46.539582" lon="13.083818">
        <ele>1031.679</ele>
        <time>2018-09-08T08:03:56Z</time>
      </trkpt>
      <trkpt lat="46.539569" lon="13.083751">
        <ele>1031.637</ele>
        <time>2018-09-08T08:03:57Z</time>
      </trkpt>
      <trkpt lat="46.539550" lon="13.083691">
        <ele>1031.616</ele>
        <time>2018-09-08T08:03:58Z</time>
      </trkpt>
      <trkpt lat="46.539530" lon="13.083642">
        <ele>1032.130</ele>
        <time>2018-09-08T08:03:59Z</time>
      </trkpt>
      <trkpt lat="46.539512" lon="13.083600">
        <ele>1032.135</ele>
        <time>2018-09-08T08:04:00Z</time>
      </trkpt>
      <trkpt lat="46.539362" lon="13.083216">
        <ele>1035.093</ele>
        <time>2018-09-08T08:04:13Z</time>
      </trkpt>
      <trkpt lat="46.539485" lon="13.082844">
        <ele>1035.065</ele>
        <time>2018-09-08T08:04:25Z</time>
      </trkpt>
      <trkpt lat="46.539805" lon="13.082681">
        <ele>1034.069</ele>
        <time>2018-09-08T08:04:38Z</time>
      </trkpt>
      <trkpt lat="46.540156" lon="13.082384">
        <ele>1033.504</ele>
        <time>2018-09-08T08:04:54Z</time>
      </trkpt>
      <trkpt lat="46.540317" lon="13.082026">
        <ele>1036.924</ele>
        <time>2018-09-08T08:05:07Z</time>
      </trkpt>
      <trkpt lat="46.540285" lon="13.081580">
        <ele>1044.608</ele>
        <time>2018-09-08T08:05:21Z</time>
      </trkpt>
      <trkpt lat="46.540307" lon="13.081107">
        <ele>1045.560</ele>
        <time>2018-09-08T08:05:37Z</time>
      </trkpt>
      <trkpt lat="46.540452" lon="13.080505">
        <ele>1045.042</ele>
        <time>2018-09-08T08:05:57Z</time>
      </trkpt>
      <trkpt lat="46.540531" lon="13.080341">
        <ele>1044.150</ele>
        <time>2018-09-08T08:06:00Z</time>
      </trkpt>
      <trkpt lat="46.540750" lon="13.080021">
        <ele>1040.269</ele>
        <time>2018-09-08T08:06:06Z</time>
      </trkpt>
      <trkpt lat="46.540768" lon="13.079967">
        <ele>1039.833</ele>
        <time>2018-09-08T08:06:07Z</time>
      </trkpt>
      <trkpt lat="46.540774" lon="13.079911">
        <ele>1039.328</ele>
        <time>2018-09-08T08:06:08Z</time>
      </trkpt>
      <trkpt lat="46.540770" lon="13.079858">
        <ele>1038.896</ele>
        <time>2018-09-08T08:06:09Z</time>
      </trkpt>
      <trkpt lat="46.540760" lon="13.079814">
        <ele>1038.378</ele>
        <time>2018-09-08T08:06:10Z</time>
      </trkpt>
      <trkpt lat="46.540746" lon="13.079770">
        <ele>1038.393</ele>
        <time>2018-09-08T08:06:11Z</time>
      </trkpt>
      <trkpt lat="46.540580" lon="13.079158">
        <ele>1035.965</ele>
        <time>2018-09-08T08:06:19Z</time>
      </trkpt>
      <trkpt lat="46.540576" lon="13.079067">
        <ele>1035.921</ele>
        <time>2018-09-08T08:06:20Z</time>
      </trkpt>
      <trkpt lat="46.540580" lon="13.078981">
        <ele>1035.908</ele>
        <time>2018-09-08T08:06:21Z</time>
      </trkpt>
      <trkpt lat="46.540584" lon="13.078900">
        <ele>1035.993</ele>
        <time>2018-09-08T08:06:22Z</time>
      </trkpt>
      <trkpt lat="46.540588" lon="13.078827">
        <ele>1035.985</ele>
        <time>2018-09-08T08:06:23Z</time>
      </trkpt>
      <trkpt lat="46.540633" lon="13.078553">
        <ele>1035.493</ele>
        <time>2018-09-08T08:06:31Z</time>
      </trkpt>
      <trkpt lat="46.540640" lon="13.078509">
        <ele>1032.552</ele>
        <time>2018-09-08T08:06:44Z</time>
      </trkpt>
      <trkpt lat="46.540652" lon="13.078485">
        <ele>1031.126</ele>
        <time>2018-09-08T08:06:58Z</time>
      </trkpt>
      <trkpt lat="46.540700" lon="13.078392">
        <ele>1031.641</ele>
        <time>2018-09-08T08:07:04Z</time>
      </trkpt>
      <trkpt lat="46.541027" lon="13.078125">
        <ele>1029.719</ele>
        <time>2018-09-08T08:07:17Z</time>
      </trkpt>
      <trkpt lat="46.541291" lon="13.077855">
        <ele>1028.791</ele>
        <time>2018-09-08T08:07:26Z</time>
      </trkpt>
      <trkpt lat="46.541314" lon="13.077790">
        <ele>1028.761</ele>
        <time>2018-09-08T08:07:27Z</time>
      </trkpt>
      <trkpt lat="46.541467" lon="13.077247">
        <ele>1025.821</ele>
        <time>2018-09-08T08:07:33Z</time>
      </trkpt>
      <trkpt lat="46.541549" lon="13.077033">
        <ele>1024.413</ele>
        <time>2018-09-08T08:07:35Z</time>
      </trkpt>
      <trkpt lat="46.541568" lon="13.076906">
        <ele>1023.408</ele>
        <time>2018-09-08T08:07:36Z</time>
      </trkpt>
      <trkpt lat="46.541567" lon="13.076761">
        <ele>1022.540</ele>
        <time>2018-09-08T08:07:37Z</time>
      </trkpt>
      <trkpt lat="46.541549" lon="13.076449">
        <ele>1020.542</ele>
        <time>2018-09-08T08:07:39Z</time>
      </trkpt>
      <trkpt lat="46.541555" lon="13.076308">
        <ele>1019.610</ele>
        <time>2018-09-08T08:07:40Z</time>
      </trkpt>
      <trkpt lat="46.541586" lon="13.076143">
        <ele>1018.649</ele>
        <time>2018-09-08T08:07:41Z</time>
      </trkpt>
      <trkpt lat="46.541637" lon="13.075996">
        <ele>1017.633</ele>
        <time>2018-09-08T08:07:42Z</time>
      </trkpt>
      <trkpt lat="46.541696" lon="13.075859">
        <ele>1016.788</ele>
        <time>2018-09-08T08:07:43Z</time>
      </trkpt>
      <trkpt lat="46.541901" lon="13.075421">
        <ele>1014.316</ele>
        <time>2018-09-08T08:07:47Z</time>
      </trkpt>
      <trkpt lat="46.541923" lon="13.075323">
        <ele>1013.838</ele>
        <time>2018-09-08T08:07:48Z</time>
      </trkpt>
      <trkpt lat="46.541916" lon="13.075231">
        <ele>1013.888</ele>
        <time>2018-09-08T08:07:49Z</time>
      </trkpt>
      <trkpt lat="46.541885" lon="13.075154">
        <ele>1013.324</ele>
        <time>2018-09-08T08:07:50Z</time>
      </trkpt>
      <trkpt lat="46.541832" lon="13.075110">
        <ele>1012.826</ele>
        <time>2018-09-08T08:07:51Z</time>
      </trkpt>
      <trkpt lat="46.541765" lon="13.075100">
        <ele>1011.908</ele>
        <time>2018-09-08T08:07:52Z</time>
      </trkpt>
      <trkpt lat="46.541718" lon="13.075112">
        <ele>1011.962</ele>
        <time>2018-09-08T08:07:53Z</time>
      </trkpt>
      <trkpt lat="46.541673" lon="13.075152">
        <ele>1011.964</ele>
        <time>2018-09-08T08:07:54Z</time>
      </trkpt>
      <trkpt lat="46.541646" lon="13.075200">
        <ele>1011.452</ele>
        <time>2018-09-08T08:07:55Z</time>
      </trkpt>
      <trkpt lat="46.541624" lon="13.075273">
        <ele>1010.931</ele>
        <time>2018-09-08T08:07:56Z</time>
      </trkpt>
      <trkpt lat="46.541608" lon="13.075348">
        <ele>1010.425</ele>
        <time>2018-09-08T08:07:57Z</time>
      </trkpt>
      <trkpt lat="46.541560" lon="13.075502">
        <ele>1009.040</ele>
        <time>2018-09-08T08:07:59Z</time>
      </trkpt>
      <trkpt lat="46.541522" lon="13.075584">
        <ele>1008.528</ele>
        <time>2018-09-08T08:08:00Z</time>
      </trkpt>
      <trkpt lat="46.541466" lon="13.075670">
        <ele>1007.130</ele>
        <time>2018-09-08T08:08:01Z</time>
      </trkpt>
      <trkpt lat="46.541392" lon="13.075744">
        <ele>1006.168</ele>
        <time>2018-09-08T08:08:02Z</time>
      </trkpt>
      <trkpt lat="46.541304" lon="13.075810">
        <ele>1004.742</ele>
        <time>2018-09-08T08:08:03Z</time>
      </trkpt>
      <trkpt lat="46.541210" lon="13.075891">
        <ele>1002.726</ele>
        <time>2018-09-08T08:08:04Z</time>
      </trkpt>
      <trkpt lat="46.541121" lon="13.075993">
        <ele>1000.808</ele>
        <time>2018-09-08T08:08:05Z</time>
      </trkpt>
      <trkpt lat="46.541049" lon="13.076111">
        <ele>999.440</ele>
        <time>2018-09-08T08:08:06Z</time>
      </trkpt>
      <trkpt lat="46.540993" lon="13.076230">
        <ele>997.922</ele>
        <time>2018-09-08T08:08:07Z</time>
      </trkpt>
      <trkpt lat="46.540945" lon="13.076318">
        <ele>996.550</ele>
        <time>2018-09-08T08:08:08Z</time>
      </trkpt>
      <trkpt lat="46.540893" lon="13.076356">
        <ele>995.529</ele>
        <time>2018-09-08T08:08:09Z</time>
      </trkpt>
      <trkpt lat="46.540847" lon="13.076334">
        <ele>994.663</ele>
        <time>2018-09-08T08:08:10Z</time>
      </trkpt>
      <trkpt lat="46.540823" lon="13.076260">
        <ele>993.638</ele>
        <time>2018-09-08T08:08:11Z</time>
      </trkpt>
      <trkpt lat="46.540835" lon="13.076165">
        <ele>992.716</ele>
        <time>2018-09-08T08:08:12Z</time>
      </trkpt>
      <trkpt lat="46.540871" lon="13.076073">
        <ele>992.288</ele>
        <time>2018-09-08T08:08:13Z</time>
      </trkpt>
      <trkpt lat="46.540917" lon="13.075970">
        <ele>991.277</ele>
        <time>2018-09-08T08:08:14Z</time>
      </trkpt>
      <trkpt lat="46.541049" lon="13.075594">
        <ele>987.461</ele>
        <time>2018-09-08T08:08:17Z</time>
      </trkpt>
      <trkpt lat="46.541064" lon="13.075464">
        <ele>985.427</ele>
        <time>2018-09-08T08:08:18Z</time>
      </trkpt>
      <trkpt lat="46.541049" lon="13.075348">
        <ele>984.008</ele>
        <time>2018-09-08T08:08:19Z</time>
      </trkpt>
      <trkpt lat="46.541003" lon="13.075254">
        <ele>982.681</ele>
        <time>2018-09-08T08:08:20Z</time>
      </trkpt>
      <trkpt lat="46.540939" lon="13.075191">
        <ele>981.133</ele>
        <time>2018-09-08T08:08:21Z</time>
      </trkpt>
      <trkpt lat="46.540873" lon="13.075172">
        <ele>980.221</ele>
        <time>2018-09-08T08:08:22Z</time>
      </trkpt>
      <trkpt lat="46.540800" lon="13.075196">
        <ele>979.240</ele>
        <time>2018-09-08T08:08:23Z</time>
      </trkpt>
      <trkpt lat="46.540726" lon="13.075252">
        <ele>977.874</ele>
        <time>2018-09-08T08:08:24Z</time>
      </trkpt>
      <trkpt lat="46.540651" lon="13.075323">
        <ele>976.879</ele>
        <time>2018-09-08T08:08:25Z</time>
      </trkpt>
      <trkpt lat="46.540322" lon="13.075650">
        <ele>971.547</ele>
        <time>2018-09-08T08:08:29Z</time>
      </trkpt>
      <trkpt lat="46.540257" lon="13.075760">
        <ele>970.169</ele>
        <time>2018-09-08T08:08:30Z</time>
      </trkpt>
      <trkpt lat="46.540210" lon="13.075899">
        <ele>969.125</ele>
        <time>2018-09-08T08:08:31Z</time>
      </trkpt>
      <trkpt lat="46.540180" lon="13.076055">
        <ele>967.226</ele>
        <time>2018-09-08T08:08:32Z</time>
      </trkpt>
      <trkpt lat="46.540171" lon="13.076201">
        <ele>966.208</ele>
        <time>2018-09-08T08:08:33Z</time>
      </trkpt>
      <trkpt lat="46.540179" lon="13.076336">
        <ele>965.308</ele>
        <time>2018-09-08T08:08:34Z</time>
      </trkpt>
      <trkpt lat="46.540199" lon="13.076458">
        <ele>964.366</ele>
        <time>2018-09-08T08:08:35Z</time>
      </trkpt>
      <trkpt lat="46.540223" lon="13.076565">
        <ele>963.868</ele>
        <time>2018-09-08T08:08:36Z</time>
      </trkpt>
      <trkpt lat="46.540223" lon="13.076656">
        <ele>963.356</ele>
        <time>2018-09-08T08:08:37Z</time>
      </trkpt>
      <trkpt lat="46.540184" lon="13.076716">
        <ele>962.485</ele>
        <time>2018-09-08T08:08:38Z</time>
      </trkpt>
      <trkpt lat="46.540124" lon="13.076720">
        <ele>961.969</ele>
        <time>2018-09-08T08:08:39Z</time>
      </trkpt>
      <trkpt lat="46.540070" lon="13.076667">
        <ele>961.434</ele>
        <time>2018-09-08T08:08:40Z</time>
      </trkpt>
      <trkpt lat="46.540045" lon="13.076571">
        <ele>960.952</ele>
        <time>2018-09-08T08:08:41Z</time>
      </trkpt>
      <trkpt lat="46.540047" lon="13.076455">
        <ele>960.054</ele>
        <time>2018-09-08T08:08:42Z</time>
      </trkpt>
      <trkpt lat="46.540055" lon="13.076331">
        <ele>959.592</ele>
        <time>2018-09-08T08:08:43Z</time>
      </trkpt>
      <trkpt lat="46.540065" lon="13.076063">
        <ele>957.673</ele>
        <time>2018-09-08T08:08:45Z</time>
      </trkpt>
      <trkpt lat="46.540084" lon="13.075921">
        <ele>957.120</ele>
        <time>2018-09-08T08:08:46Z</time>
      </trkpt>
      <trkpt lat="46.540151" lon="13.075547">
        <ele>954.708</ele>
        <time>2018-09-08T08:08:49Z</time>
      </trkpt>
      <trkpt lat="46.540136" lon="13.075467">
        <ele>954.263</ele>
        <time>2018-09-08T08:08:50Z</time>
      </trkpt>
      <trkpt lat="46.540096" lon="13.075423">
        <ele>953.225</ele>
        <time>2018-09-08T08:08:51Z</time>
      </trkpt>
      <trkpt lat="46.540048" lon="13.075408">
        <ele>952.823</ele>
        <time>2018-09-08T08:08:52Z</time>
      </trkpt>
      <trkpt lat="46.540006" lon="13.075416">
        <ele>952.882</ele>
        <time>2018-09-08T08:08:53Z</time>
      </trkpt>
      <trkpt lat="46.539975" lon="13.075441">
        <ele>952.836</ele>
        <time>2018-09-08T08:08:54Z</time>
      </trkpt>
      <trkpt lat="46.539955" lon="13.075477">
        <ele>952.391</ele>
        <time>2018-09-08T08:08:55Z</time>
      </trkpt>
      <trkpt lat="46.539940" lon="13.075509">
        <ele>952.389</ele>
        <time>2018-09-08T08:08:56Z</time>
      </trkpt>
      <trkpt lat="46.539930" lon="13.075541">
        <ele>951.821</ele>
        <time>2018-09-08T08:08:57Z</time>
      </trkpt>
      <trkpt lat="46.539921" lon="13.075572">
        <ele>952.327</ele>
        <time>2018-09-08T08:08:58Z</time>
      </trkpt>
      <trkpt lat="46.539913" lon="13.075601">
        <ele>952.368</ele>
        <time>2018-09-08T08:08:59Z</time>
      </trkpt>
      <trkpt lat="46.539904" lon="13.075624">
        <ele>952.314</ele>
        <time>2018-09-08T08:09:00Z</time>
      </trkpt>
      <trkpt lat="46.539882" lon="13.075646">
        <ele>954.208</ele>
        <time>2018-09-08T08:09:12Z</time>
      </trkpt>
      <trkpt lat="46.539875" lon="13.075670">
        <ele>954.226</ele>
        <time>2018-09-08T08:09:28Z</time>
      </trkpt>
      <trkpt lat="46.539873" lon="13.075697">
        <ele>954.258</ele>
        <time>2018-09-08T08:09:29Z</time>
      </trkpt>
      <trkpt lat="46.539868" lon="13.075731">
        <ele>953.716</ele>
        <time>2018-09-08T08:09:30Z</time>
      </trkpt>
      <trkpt lat="46.539860" lon="13.075771">
        <ele>953.775</ele>
        <time>2018-09-08T08:09:31Z</time>
      </trkpt>
      <trkpt lat="46.539847" lon="13.075820">
        <ele>953.259</ele>
        <time>2018-09-08T08:09:32Z</time>
      </trkpt>
      <trkpt lat="46.539826" lon="13.075874">
        <ele>953.284</ele>
        <time>2018-09-08T08:09:33Z</time>
      </trkpt>
      <trkpt lat="46.539803" lon="13.075933">
        <ele>953.212</ele>
        <time>2018-09-08T08:09:34Z</time>
      </trkpt>
      <trkpt lat="46.539781" lon="13.075999">
        <ele>952.854</ele>
        <time>2018-09-08T08:09:35Z</time>
      </trkpt>
      <trkpt lat="46.539757" lon="13.076073">
        <ele>952.355</ele>
        <time>2018-09-08T08:09:36Z</time>
      </trkpt>
      <trkpt lat="46.539610" lon="13.076512">
        <ele>950.807</ele>
        <time>2018-09-08T08:09:41Z</time>
      </trkpt>
      <trkpt lat="46.539591" lon="13.076614">
        <ele>950.417</ele>
        <time>2018-09-08T08:09:42Z</time>
      </trkpt>
      <trkpt lat="46.539587" lon="13.076716">
        <ele>949.908</ele>
        <time>2018-09-08T08:09:43Z</time>
      </trkpt>
      <trkpt lat="46.539602" lon="13.076817">
        <ele>949.459</ele>
        <time>2018-09-08T08:09:44Z</time>
      </trkpt>
      <trkpt lat="46.539626" lon="13.076912">
        <ele>948.961</ele>
        <time>2018-09-08T08:09:45Z</time>
      </trkpt>
      <trkpt lat="46.539639" lon="13.077007">
        <ele>948.499</ele>
        <time>2018-09-08T08:09:46Z</time>
      </trkpt>
      <trkpt lat="46.539620" lon="13.077088">
        <ele>948.428</ele>
        <time>2018-09-08T08:09:47Z</time>
      </trkpt>
      <trkpt lat="46.539573" lon="13.077128">
        <ele>948.442</ele>
        <time>2018-09-08T08:09:48Z</time>
      </trkpt>
      <trkpt lat="46.539521" lon="13.077115">
        <ele>948.037</ele>
        <time>2018-09-08T08:09:49Z</time>
      </trkpt>
      <trkpt lat="46.539476" lon="13.077056">
        <ele>947.595</ele>
        <time>2018-09-08T08:09:50Z</time>
      </trkpt>
      <trkpt lat="46.539444" lon="13.076973">
        <ele>947.037</ele>
        <time>2018-09-08T08:09:51Z</time>
      </trkpt>
      <trkpt lat="46.539420" lon="13.076879">
        <ele>946.054</ele>
        <time>2018-09-08T08:09:52Z</time>
      </trkpt>
      <trkpt lat="46.539400" lon="13.076784">
        <ele>945.556</ele>
        <time>2018-09-08T08:09:53Z</time>
      </trkpt>
      <trkpt lat="46.539340" lon="13.076493">
        <ele>942.211</ele>
        <time>2018-09-08T08:09:56Z</time>
      </trkpt>
      <trkpt lat="46.539332" lon="13.076393">
        <ele>941.208</ele>
        <time>2018-09-08T08:09:57Z</time>
      </trkpt>
      <trkpt lat="46.539332" lon="13.076291">
        <ele>940.369</ele>
        <time>2018-09-08T08:09:58Z</time>
      </trkpt>
      <trkpt lat="46.539338" lon="13.075928">
        <ele>936.461</ele>
        <time>2018-09-08T08:10:02Z</time>
      </trkpt>
      <trkpt lat="46.539329" lon="13.075859">
        <ele>935.999</ele>
        <time>2018-09-08T08:10:03Z</time>
      </trkpt>
      <trkpt lat="46.539310" lon="13.075799">
        <ele>935.568</ele>
        <time>2018-09-08T08:10:04Z</time>
      </trkpt>
      <trkpt lat="46.539281" lon="13.075749">
        <ele>935.022</ele>
        <time>2018-09-08T08:10:05Z</time>
      </trkpt>
      <trkpt lat="46.539240" lon="13.075723">
        <ele>935.057</ele>
        <time>2018-09-08T08:10:06Z</time>
      </trkpt>
      <trkpt lat="46.539197" lon="13.075724">
        <ele>935.055</ele>
        <time>2018-09-08T08:10:07Z</time>
      </trkpt>
      <trkpt lat="46.539156" lon="13.075750">
        <ele>934.597</ele>
        <time>2018-09-08T08:10:08Z</time>
      </trkpt>
      <trkpt lat="46.539123" lon="13.075792">
        <ele>934.556</ele>
        <time>2018-09-08T08:10:09Z</time>
      </trkpt>
      <trkpt lat="46.539104" lon="13.075862">
        <ele>934.059</ele>
        <time>2018-09-08T08:10:10Z</time>
      </trkpt>
      <trkpt lat="46.539101" lon="13.075930">
        <ele>933.514</ele>
        <time>2018-09-08T08:10:11Z</time>
      </trkpt>
      <trkpt lat="46.539100" lon="13.076017">
        <ele>933.108</ele>
        <time>2018-09-08T08:10:12Z</time>
      </trkpt>
      <trkpt lat="46.539096" lon="13.076096">
        <ele>932.169</ele>
        <time>2018-09-08T08:10:13Z</time>
      </trkpt>
      <trkpt lat="46.539088" lon="13.076165">
        <ele>931.621</ele>
        <time>2018-09-08T08:10:14Z</time>
      </trkpt>
      <trkpt lat="46.539075" lon="13.076227">
        <ele>931.119</ele>
        <time>2018-09-08T08:10:15Z</time>
      </trkpt>
      <trkpt lat="46.539057" lon="13.076290">
        <ele>930.678</ele>
        <time>2018-09-08T08:10:16Z</time>
      </trkpt>
      <trkpt lat="46.539028" lon="13.076349">
        <ele>930.252</ele>
        <time>2018-09-08T08:10:17Z</time>
      </trkpt>
      <trkpt lat="46.538982" lon="13.076393">
        <ele>929.717</ele>
        <time>2018-09-08T08:10:18Z</time>
      </trkpt>
      <trkpt lat="46.538924" lon="13.076393">
        <ele>928.785</ele>
        <time>2018-09-08T08:10:19Z</time>
      </trkpt>
      <trkpt lat="46.538872" lon="13.076343">
        <ele>928.297</ele>
        <time>2018-09-08T08:10:20Z</time>
      </trkpt>
      <trkpt lat="46.538840" lon="13.076250">
        <ele>927.334</ele>
        <time>2018-09-08T08:10:21Z</time>
      </trkpt>
      <trkpt lat="46.538831" lon="13.076134">
        <ele>926.355</ele>
        <time>2018-09-08T08:10:22Z</time>
      </trkpt>
      <trkpt lat="46.538826" lon="13.076014">
        <ele>924.910</ele>
        <time>2018-09-08T08:10:23Z</time>
      </trkpt>
      <trkpt lat="46.538810" lon="13.075885">
        <ele>923.408</ele>
        <time>2018-09-08T08:10:24Z</time>
      </trkpt>
      <trkpt lat="46.538775" lon="13.075743">
        <ele>921.517</ele>
        <time>2018-09-08T08:10:25Z</time>
      </trkpt>
      <trkpt lat="46.538731" lon="13.075591">
        <ele>919.179</ele>
        <time>2018-09-08T08:10:26Z</time>
      </trkpt>
      <trkpt lat="46.538695" lon="13.075424">
        <ele>916.267</ele>
        <time>2018-09-08T08:10:27Z</time>
      </trkpt>
      <trkpt lat="46.538681" lon="13.075233">
        <ele>913.846</ele>
        <time>2018-09-08T08:10:28Z</time>
      </trkpt>
      <trkpt lat="46.538676" lon="13.074639">
        <ele>908.580</ele>
        <time>2018-09-08T08:10:31Z</time>
      </trkpt>
      <trkpt lat="46.538692" lon="13.074441">
        <ele>907.185</ele>
        <time>2018-09-08T08:10:32Z</time>
      </trkpt>
      <trkpt lat="46.538745" lon="13.074074">
        <ele>904.723</ele>
        <time>2018-09-08T08:10:34Z</time>
      </trkpt>
      <trkpt lat="46.538789" lon="13.073914">
        <ele>903.735</ele>
        <time>2018-09-08T08:10:35Z</time>
      </trkpt>
      <trkpt lat="46.538889" lon="13.073646">
        <ele>901.869</ele>
        <time>2018-09-08T08:10:37Z</time>
      </trkpt>
      <trkpt lat="46.538915" lon="13.073506">
        <ele>900.804</ele>
        <time>2018-09-08T08:10:38Z</time>
      </trkpt>
      <trkpt lat="46.538925" lon="13.073369">
        <ele>900.424</ele>
        <time>2018-09-08T08:10:39Z</time>
      </trkpt>
      <trkpt lat="46.538922" lon="13.073255">
        <ele>899.408</ele>
        <time>2018-09-08T08:10:40Z</time>
      </trkpt>
      <trkpt lat="46.538911" lon="13.073138">
        <ele>898.410</ele>
        <time>2018-09-08T08:10:41Z</time>
      </trkpt>
      <trkpt lat="46.538914" lon="13.073030">
        <ele>897.592</ele>
        <time>2018-09-08T08:10:42Z</time>
      </trkpt>
      <trkpt lat="46.538938" lon="13.072953">
        <ele>897.020</ele>
        <time>2018-09-08T08:10:43Z</time>
      </trkpt>
      <trkpt lat="46.538977" lon="13.072883">
        <ele>896.059</ele>
        <time>2018-09-08T08:10:44Z</time>
      </trkpt>
      <trkpt lat="46.539017" lon="13.072816">
        <ele>895.693</ele>
        <time>2018-09-08T08:10:45Z</time>
      </trkpt>
      <trkpt lat="46.539065" lon="13.072743">
        <ele>895.128</ele>
        <time>2018-09-08T08:10:46Z</time>
      </trkpt>
      <trkpt lat="46.539125" lon="13.072671">
        <ele>894.136</ele>
        <time>2018-09-08T08:10:47Z</time>
      </trkpt>
      <trkpt lat="46.539197" lon="13.072601">
        <ele>893.248</ele>
        <time>2018-09-08T08:10:48Z</time>
      </trkpt>
      <trkpt lat="46.539276" lon="13.072542">
        <ele>892.257</ele>
        <time>2018-09-08T08:10:49Z</time>
      </trkpt>
      <trkpt lat="46.539364" lon="13.072502">
        <ele>891.700</ele>
        <time>2018-09-08T08:10:50Z</time>
      </trkpt>
      <trkpt lat="46.539447" lon="13.072477">
        <ele>890.820</ele>
        <time>2018-09-08T08:10:51Z</time>
      </trkpt>
      <trkpt lat="46.539522" lon="13.072453">
        <ele>889.808</ele>
        <time>2018-09-08T08:10:52Z</time>
      </trkpt>
      <trkpt lat="46.539583" lon="13.072411">
        <ele>889.329</ele>
        <time>2018-09-08T08:10:53Z</time>
      </trkpt>
      <trkpt lat="46.539613" lon="13.072335">
        <ele>888.891</ele>
        <time>2018-09-08T08:10:54Z</time>
      </trkpt>
      <trkpt lat="46.539606" lon="13.072242">
        <ele>887.989</ele>
        <time>2018-09-08T08:10:55Z</time>
      </trkpt>
      <trkpt lat="46.539562" lon="13.072162">
        <ele>886.448</ele>
        <time>2018-09-08T08:10:56Z</time>
      </trkpt>
      <trkpt lat="46.539488" lon="13.072133">
        <ele>885.022</ele>
        <time>2018-09-08T08:10:57Z</time>
      </trkpt>
      <trkpt lat="46.539417" lon="13.072170">
        <ele>884.027</ele>
        <time>2018-09-08T08:10:58Z</time>
      </trkpt>
      <trkpt lat="46.539337" lon="13.072231">
        <ele>882.645</ele>
        <time>2018-09-08T08:10:59Z</time>
      </trkpt>
      <trkpt lat="46.539251" lon="13.072284">
        <ele>881.677</ele>
        <time>2018-09-08T08:11:00Z</time>
      </trkpt>
      <trkpt lat="46.539160" lon="13.072326">
        <ele>880.726</ele>
        <time>2018-09-08T08:11:01Z</time>
      </trkpt>
      <trkpt lat="46.539063" lon="13.072363">
        <ele>879.747</ele>
        <time>2018-09-08T08:11:02Z</time>
      </trkpt>
      <trkpt lat="46.538960" lon="13.072389">
        <ele>878.311</ele>
        <time>2018-09-08T08:11:03Z</time>
      </trkpt>
      <trkpt lat="46.538857" lon="13.072426">
        <ele>876.808</ele>
        <time>2018-09-08T08:11:04Z</time>
      </trkpt>
      <trkpt lat="46.538757" lon="13.072487">
        <ele>875.476</ele>
        <time>2018-09-08T08:11:05Z</time>
      </trkpt>
      <trkpt lat="46.538665" lon="13.072562">
        <ele>874.438</ele>
        <time>2018-09-08T08:11:06Z</time>
      </trkpt>
      <trkpt lat="46.538575" lon="13.072654">
        <ele>873.086</ele>
        <time>2018-09-08T08:11:07Z</time>
      </trkpt>
      <trkpt lat="46.538495" lon="13.072764">
        <ele>871.525</ele>
        <time>2018-09-08T08:11:08Z</time>
      </trkpt>
      <trkpt lat="46.538420" lon="13.072886">
        <ele>870.139</ele>
        <time>2018-09-08T08:11:09Z</time>
      </trkpt>
      <trkpt lat="46.538254" lon="13.073126">
        <ele>865.864</ele>
        <time>2018-09-08T08:11:12Z</time>
      </trkpt>
      <trkpt lat="46.538201" lon="13.073124">
        <ele>864.862</ele>
        <time>2018-09-08T08:11:13Z</time>
      </trkpt>
      <trkpt lat="46.538164" lon="13.073076">
        <ele>863.824</ele>
        <time>2018-09-08T08:11:14Z</time>
      </trkpt>
      <trkpt lat="46.538160" lon="13.073001">
        <ele>862.466</ele>
        <time>2018-09-08T08:11:15Z</time>
      </trkpt>
      <trkpt lat="46.538194" lon="13.072931">
        <ele>861.429</ele>
        <time>2018-09-08T08:11:16Z</time>
      </trkpt>
      <trkpt lat="46.538248" lon="13.072879">
        <ele>860.521</ele>
        <time>2018-09-08T08:11:17Z</time>
      </trkpt>
      <trkpt lat="46.538304" lon="13.072814">
        <ele>859.508</ele>
        <time>2018-09-08T08:11:18Z</time>
      </trkpt>
      <trkpt lat="46.538355" lon="13.072727">
        <ele>858.130</ele>
        <time>2018-09-08T08:11:19Z</time>
      </trkpt>
      <trkpt lat="46.538399" lon="13.072618">
        <ele>857.172</ele>
        <time>2018-09-08T08:11:20Z</time>
      </trkpt>
      <trkpt lat="46.538441" lon="13.072495">
        <ele>856.150</ele>
        <time>2018-09-08T08:11:21Z</time>
      </trkpt>
      <trkpt lat="46.538527" lon="13.072228">
        <ele>854.219</ele>
        <time>2018-09-08T08:11:23Z</time>
      </trkpt>
      <trkpt lat="46.538548" lon="13.072100">
        <ele>852.833</ele>
        <time>2018-09-08T08:11:24Z</time>
      </trkpt>
      <trkpt lat="46.538567" lon="13.071978">
        <ele>851.878</ele>
        <time>2018-09-08T08:11:25Z</time>
      </trkpt>
      <trkpt lat="46.538600" lon="13.071887">
        <ele>851.346</ele>
        <time>2018-09-08T08:11:26Z</time>
      </trkpt>
      <trkpt lat="46.538657" lon="13.071822">
        <ele>850.428</ele>
        <time>2018-09-08T08:11:27Z</time>
      </trkpt>
      <trkpt lat="46.538722" lon="13.071778">
        <ele>849.427</ele>
        <time>2018-09-08T08:11:28Z</time>
      </trkpt>
      <trkpt lat="46.538780" lon="13.071717">
        <ele>848.568</ele>
        <time>2018-09-08T08:11:29Z</time>
      </trkpt>
      <trkpt lat="46.538828" lon="13.071624">
        <ele>847.514</ele>
        <time>2018-09-08T08:11:30Z</time>
      </trkpt>
      <trkpt lat="46.538872" lon="13.071519">
        <ele>846.108</ele>
        <time>2018-09-08T08:11:31Z</time>
      </trkpt>
      <trkpt lat="46.538928" lon="13.071418">
        <ele>845.186</ele>
        <time>2018-09-08T08:11:32Z</time>
      </trkpt>
      <trkpt lat="46.538997" lon="13.071347">
        <ele>843.638</ele>
        <time>2018-09-08T08:11:33Z</time>
      </trkpt>
      <trkpt lat="46.539067" lon="13.071326">
        <ele>842.786</ele>
        <time>2018-09-08T08:11:34Z</time>
      </trkpt>
      <trkpt lat="46.539129" lon="13.071329">
        <ele>841.785</ele>
        <time>2018-09-08T08:11:35Z</time>
      </trkpt>
      <trkpt lat="46.539179" lon="13.071305">
        <ele>840.839</ele>
        <time>2018-09-08T08:11:36Z</time>
      </trkpt>
      <trkpt lat="46.539201" lon="13.071243">
        <ele>840.384</ele>
        <time>2018-09-08T08:11:37Z</time>
      </trkpt>
      <trkpt lat="46.539183" lon="13.071172">
        <ele>839.852</ele>
        <time>2018-09-08T08:11:38Z</time>
      </trkpt>
      <trkpt lat="46.539131" lon="13.071124">
        <ele>839.324</ele>
        <time>2018-09-08T08:11:39Z</time>
      </trkpt>
      <trkpt lat="46.539060" lon="13.071104">
        <ele>838.877</ele>
        <time>2018-09-08T08:11:40Z</time>
      </trkpt>
      <trkpt lat="46.538982" lon="13.071087">
        <ele>838.461</ele>
        <time>2018-09-08T08:11:41Z</time>
      </trkpt>
      <trkpt lat="46.538900" lon="13.071065">
        <ele>837.927</ele>
        <time>2018-09-08T08:11:42Z</time>
      </trkpt>
      <trkpt lat="46.538819" lon="13.071057">
        <ele>836.908</ele>
        <time>2018-09-08T08:11:43Z</time>
      </trkpt>
      <trkpt lat="46.538750" lon="13.071095">
        <ele>836.481</ele>
        <time>2018-09-08T08:11:44Z</time>
      </trkpt>
      <trkpt lat="46.538701" lon="13.071176">
        <ele>836.043</ele>
        <time>2018-09-08T08:11:45Z</time>
      </trkpt>
      <trkpt lat="46.538663" lon="13.071280">
        <ele>835.511</ele>
        <time>2018-09-08T08:11:46Z</time>
      </trkpt>
      <trkpt lat="46.538615" lon="13.071383">
        <ele>834.520</ele>
        <time>2018-09-08T08:11:47Z</time>
      </trkpt>
      <trkpt lat="46.538543" lon="13.071465">
        <ele>833.664</ele>
        <time>2018-09-08T08:11:48Z</time>
      </trkpt>
      <trkpt lat="46.538450" lon="13.071516">
        <ele>832.699</ele>
        <time>2018-09-08T08:11:49Z</time>
      </trkpt>
      <trkpt lat="46.538352" lon="13.071547">
        <ele>831.657</ele>
        <time>2018-09-08T08:11:50Z</time>
      </trkpt>
      <trkpt lat="46.538176" lon="13.071620">
        <ele>830.259</ele>
        <time>2018-09-08T08:11:52Z</time>
      </trkpt>
      <trkpt lat="46.538119" lon="13.071690">
        <ele>829.255</ele>
        <time>2018-09-08T08:11:53Z</time>
      </trkpt>
      <trkpt lat="46.538082" lon="13.071774">
        <ele>828.307</ele>
        <time>2018-09-08T08:11:54Z</time>
      </trkpt>
      <trkpt lat="46.538048" lon="13.071846">
        <ele>827.817</ele>
        <time>2018-09-08T08:11:55Z</time>
      </trkpt>
      <trkpt lat="46.538011" lon="13.071891">
        <ele>826.808</ele>
        <time>2018-09-08T08:11:56Z</time>
      </trkpt>
      <trkpt lat="46.537971" lon="13.071916">
        <ele>826.339</ele>
        <time>2018-09-08T08:11:57Z</time>
      </trkpt>
      <trkpt lat="46.537931" lon="13.071924">
        <ele>825.991</ele>
        <time>2018-09-08T08:11:58Z</time>
      </trkpt>
      <trkpt lat="46.537894" lon="13.071908">
        <ele>825.489</ele>
        <time>2018-09-08T08:11:59Z</time>
      </trkpt>
      <trkpt lat="46.537865" lon="13.071867">
        <ele>825.458</ele>
        <time>2018-09-08T08:12:00Z</time>
      </trkpt>
      <trkpt lat="46.537844" lon="13.071809">
        <ele>824.972</ele>
        <time>2018-09-08T08:12:01Z</time>
      </trkpt>
      <trkpt lat="46.537830" lon="13.071737">
        <ele>824.487</ele>
        <time>2018-09-08T08:12:02Z</time>
      </trkpt>
      <trkpt lat="46.537818" lon="13.071653">
        <ele>823.985</ele>
        <time>2018-09-08T08:12:03Z</time>
      </trkpt>
      <trkpt lat="46.537735" lon="13.071130">
        <ele>821.157</ele>
        <time>2018-09-08T08:12:08Z</time>
      </trkpt>
      <trkpt lat="46.537697" lon="13.071015">
        <ele>820.198</ele>
        <time>2018-09-08T08:12:09Z</time>
      </trkpt>
      <trkpt lat="46.537653" lon="13.070901">
        <ele>819.115</ele>
        <time>2018-09-08T08:12:10Z</time>
      </trkpt>
      <trkpt lat="46.537598" lon="13.070796">
        <ele>818.226</ele>
        <time>2018-09-08T08:12:11Z</time>
      </trkpt>
      <trkpt lat="46.537537" lon="13.070699">
        <ele>817.208</ele>
        <time>2018-09-08T08:12:12Z</time>
      </trkpt>
      <trkpt lat="46.537471" lon="13.070610">
        <ele>815.883</ele>
        <time>2018-09-08T08:12:13Z</time>
      </trkpt>
      <trkpt lat="46.536946" lon="13.069796">
        <ele>806.245</ele>
        <time>2018-09-08T08:12:21Z</time>
      </trkpt>
      <trkpt lat="46.536113" lon="13.067747">
        <ele>786.513</ele>
        <time>2018-09-08T08:12:36Z</time>
      </trkpt>
      <trkpt lat="46.535952" lon="13.067074">
        <ele>780.262</ele>
        <time>2018-09-08T08:12:40Z</time>
      </trkpt>
      <trkpt lat="46.535931" lon="13.066899">
        <ele>778.886</ele>
        <time>2018-09-08T08:12:41Z</time>
      </trkpt>
      <trkpt lat="46.535923" lon="13.066720">
        <ele>777.881</ele>
        <time>2018-09-08T08:12:42Z</time>
      </trkpt>
      <trkpt lat="46.535994" lon="13.065469">
        <ele>768.289</ele>
        <time>2018-09-08T08:12:49Z</time>
      </trkpt>
      <trkpt lat="46.536030" lon="13.065312">
        <ele>767.221</ele>
        <time>2018-09-08T08:12:50Z</time>
      </trkpt>
      <trkpt lat="46.536076" lon="13.065163">
        <ele>766.383</ele>
        <time>2018-09-08T08:12:51Z</time>
      </trkpt>
      <trkpt lat="46.536122" lon="13.065013">
        <ele>765.325</ele>
        <time>2018-09-08T08:12:52Z</time>
      </trkpt>
      <trkpt lat="46.536158" lon="13.064866">
        <ele>764.817</ele>
        <time>2018-09-08T08:12:53Z</time>
      </trkpt>
      <trkpt lat="46.536185" lon="13.064722">
        <ele>763.908</ele>
        <time>2018-09-08T08:12:54Z</time>
      </trkpt>
      <trkpt lat="46.536195" lon="13.064573">
        <ele>762.422</ele>
        <time>2018-09-08T08:12:55Z</time>
      </trkpt>
      <trkpt lat="46.536194" lon="13.064420">
        <ele>761.594</ele>
        <time>2018-09-08T08:12:56Z</time>
      </trkpt>
      <trkpt lat="46.536183" lon="13.064256">
        <ele>760.582</ele>
        <time>2018-09-08T08:12:57Z</time>
      </trkpt>
      <trkpt lat="46.536168" lon="13.064096">
        <ele>759.531</ele>
        <time>2018-09-08T08:12:58Z</time>
      </trkpt>
      <trkpt lat="46.536103" lon="13.063251">
        <ele>755.245</ele>
        <time>2018-09-08T08:13:03Z</time>
      </trkpt>
      <trkpt lat="46.536118" lon="13.063076">
        <ele>754.290</ele>
        <time>2018-09-08T08:13:04Z</time>
      </trkpt>
      <trkpt lat="46.536154" lon="13.062902">
        <ele>753.888</ele>
        <time>2018-09-08T08:13:05Z</time>
      </trkpt>
      <trkpt lat="46.536265" lon="13.062445">
        <ele>752.820</ele>
        <time>2018-09-08T08:13:08Z</time>
      </trkpt>
      <trkpt lat="46.536273" lon="13.062308">
        <ele>752.868</ele>
        <time>2018-09-08T08:13:09Z</time>
      </trkpt>
      <trkpt lat="46.536270" lon="13.062184">
        <ele>753.342</ele>
        <time>2018-09-08T08:13:10Z</time>
      </trkpt>
      <trkpt lat="46.536245" lon="13.061907">
        <ele>754.726</ele>
        <time>2018-09-08T08:13:15Z</time>
      </trkpt>
      <trkpt lat="46.536242" lon="13.061890">
        <ele>754.708</ele>
        <time>2018-09-08T08:13:16Z</time>
      </trkpt>
      <trkpt lat="46.536240" lon="13.061872">
        <ele>755.260</ele>
        <time>2018-09-08T08:13:17Z</time>
      </trkpt>
      <trkpt lat="46.536223" lon="13.061765">
        <ele>756.262</ele>
        <time>2018-09-08T08:13:32Z</time>
      </trkpt>
      <trkpt lat="46.536189" lon="13.061734">
        <ele>759.110</ele>
        <time>2018-09-08T08:13:53Z</time>
      </trkpt>
      <trkpt lat="46.536183" lon="13.061724">
        <ele>759.159</ele>
        <time>2018-09-08T08:13:54Z</time>
      </trkpt>
      <trkpt lat="46.536175" lon="13.061711">
        <ele>759.583</ele>
        <time>2018-09-08T08:13:55Z</time>
      </trkpt>
      <trkpt lat="46.536168" lon="13.061700">
        <ele>759.528</ele>
        <time>2018-09-08T08:13:56Z</time>
      </trkpt>
      <trkpt lat="46.536160" lon="13.061679">
        <ele>759.546</ele>
        <time>2018-09-08T08:13:57Z</time>
      </trkpt>
      <trkpt lat="46.536152" lon="13.061646">
        <ele>759.128</ele>
        <time>2018-09-08T08:13:58Z</time>
      </trkpt>
      <trkpt lat="46.536125" lon="13.061548">
        <ele>758.696</ele>
        <time>2018-09-08T08:14:00Z</time>
      </trkpt>
      <trkpt lat="46.536102" lon="13.061488">
        <ele>758.131</ele>
        <time>2018-09-08T08:14:01Z</time>
      </trkpt>
      <trkpt lat="46.536075" lon="13.061421">
        <ele>757.624</ele>
        <time>2018-09-08T08:14:02Z</time>
      </trkpt>
      <trkpt lat="46.535853" lon="13.060811">
        <ele>752.308</ele>
        <time>2018-09-08T08:14:08Z</time>
      </trkpt>
      <trkpt lat="46.535816" lon="13.060677">
        <ele>750.913</ele>
        <time>2018-09-08T08:14:09Z</time>
      </trkpt>
      <trkpt lat="46.535668" lon="13.059863">
        <ele>744.635</ele>
        <time>2018-09-08T08:14:14Z</time>
      </trkpt>
      <trkpt lat="46.535621" lon="13.059494">
        <ele>741.343</ele>
        <time>2018-09-08T08:14:16Z</time>
      </trkpt>
      <trkpt lat="46.535564" lon="13.059312">
        <ele>739.822</ele>
        <time>2018-09-08T08:14:17Z</time>
      </trkpt>
      <trkpt lat="46.535497" lon="13.059161">
        <ele>737.946</ele>
        <time>2018-09-08T08:14:18Z</time>
      </trkpt>
      <trkpt lat="46.535436" lon="13.059027">
        <ele>736.941</ele>
        <time>2018-09-08T08:14:19Z</time>
      </trkpt>
      <trkpt lat="46.535387" lon="13.058878">
        <ele>735.019</ele>
        <time>2018-09-08T08:14:20Z</time>
      </trkpt>
      <trkpt lat="46.535359" lon="13.058710">
        <ele>733.641</ele>
        <time>2018-09-08T08:14:21Z</time>
      </trkpt>
      <trkpt lat="46.535343" lon="13.058540">
        <ele>732.174</ele>
        <time>2018-09-08T08:14:22Z</time>
      </trkpt>
      <trkpt lat="46.535342" lon="13.056588">
        <ele>727.356</ele>
        <time>2018-09-08T08:14:34Z</time>
      </trkpt>
      <trkpt lat="46.535298" lon="13.055835">
        <ele>725.421</ele>
        <time>2018-09-08T08:14:39Z</time>
      </trkpt>
      <trkpt lat="46.535269" lon="13.055694">
        <ele>724.908</ele>
        <time>2018-09-08T08:14:40Z</time>
      </trkpt>
      <trkpt lat="46.535235" lon="13.055547">
        <ele>724.961</ele>
        <time>2018-09-08T08:14:41Z</time>
      </trkpt>
      <trkpt lat="46.535220" lon="13.055410">
        <ele>724.473</ele>
        <time>2018-09-08T08:14:42Z</time>
      </trkpt>
      <trkpt lat="46.535223" lon="13.055266">
        <ele>724.491</ele>
        <time>2018-09-08T08:14:43Z</time>
      </trkpt>
      <trkpt lat="46.535246" lon="13.055130">
        <ele>724.410</ele>
        <time>2018-09-08T08:14:44Z</time>
      </trkpt>
      <trkpt lat="46.535283" lon="13.055006">
        <ele>724.424</ele>
        <time>2018-09-08T08:14:45Z</time>
      </trkpt>
      <trkpt lat="46.535318" lon="13.054887">
        <ele>724.089</ele>
        <time>2018-09-08T08:14:46Z</time>
      </trkpt>
      <trkpt lat="46.535337" lon="13.054764">
        <ele>724.067</ele>
        <time>2018-09-08T08:14:47Z</time>
      </trkpt>
      <trkpt lat="46.535334" lon="13.054632">
        <ele>723.519</ele>
        <time>2018-09-08T08:14:48Z</time>
      </trkpt>
      <trkpt lat="46.535311" lon="13.054517">
        <ele>723.519</ele>
        <time>2018-09-08T08:14:49Z</time>
      </trkpt>
      <trkpt lat="46.535277" lon="13.054417">
        <ele>723.509</ele>
        <time>2018-09-08T08:14:50Z</time>
      </trkpt>
      <trkpt lat="46.535236" lon="13.054310">
        <ele>723.019</ele>
        <time>2018-09-08T08:14:51Z</time>
      </trkpt>
      <trkpt lat="46.535124" lon="13.054027">
        <ele>723.008</ele>
        <time>2018-09-08T08:14:54Z</time>
      </trkpt>
      <trkpt lat="46.535041" lon="13.053878">
        <ele>723.015</ele>
        <time>2018-09-08T08:14:56Z</time>
      </trkpt>
      <trkpt lat="46.535009" lon="13.053836">
        <ele>723.017</ele>
        <time>2018-09-08T08:14:57Z</time>
      </trkpt>
      <trkpt lat="46.534856" lon="13.053727">
        <ele>721.625</ele>
        <time>2018-09-08T08:15:06Z</time>
      </trkpt>
      <trkpt lat="46.534680" lon="13.053667">
        <ele>721.174</ele>
        <time>2018-09-08T08:15:17Z</time>
      </trkpt>
      <trkpt lat="46.534660" lon="13.053672">
        <ele>720.658</ele>
        <time>2018-09-08T08:15:18Z</time>
      </trkpt>
      <trkpt lat="46.534635" lon="13.053677">
        <ele>720.673</ele>
        <time>2018-09-08T08:15:19Z</time>
      </trkpt>
      <trkpt lat="46.534591" lon="13.053698">
        <ele>716.821</ele>
        <time>2018-09-08T08:17:22Z</time>
      </trkpt>
      <trkpt lat="46.534601" lon="13.053684">
        <ele>716.893</ele>
        <time>2018-09-08T08:17:23Z</time>
      </trkpt>
      <trkpt lat="46.534610" lon="13.053669">
        <ele>717.264</ele>
        <time>2018-09-08T08:17:24Z</time>
      </trkpt>
      <trkpt lat="46.534619" lon="13.053652">
        <ele>717.206</ele>
        <time>2018-09-08T08:17:25Z</time>
      </trkpt>
      <trkpt lat="46.534627" lon="13.053636">
        <ele>717.716</ele>
        <time>2018-09-08T08:17:26Z</time>
      </trkpt>
      <trkpt lat="46.534592" lon="13.053356">
        <ele>716.808</ele>
        <time>2018-09-08T08:17:41Z</time>
      </trkpt>
      <trkpt lat="46.534559" lon="13.053240">
        <ele>717.260</ele>
        <time>2018-09-08T08:17:54Z</time>
      </trkpt>
      <trkpt lat="46.534567" lon="13.053252">
        <ele>717.252</ele>
        <time>2018-09-08T08:17:55Z</time>
      </trkpt>
      <trkpt lat="46.534574" lon="13.053272">
        <ele>717.270</ele>
        <time>2018-09-08T08:17:56Z</time>
      </trkpt>
      <trkpt lat="46.534580" lon="13.053288">
        <ele>717.779</ele>
        <time>2018-09-08T08:17:57Z</time>
      </trkpt>
      <trkpt lat="46.534586" lon="13.053309">
        <ele>717.713</ele>
        <time>2018-09-08T08:17:58Z</time>
      </trkpt>
      <trkpt lat="46.534590" lon="13.053331">
        <ele>717.748</ele>
        <time>2018-09-08T08:17:59Z</time>
      </trkpt>
      <trkpt lat="46.534612" lon="13.053408">
        <ele>718.796</ele>
        <time>2018-09-08T08:18:03Z</time>
      </trkpt>
      <trkpt lat="46.534637" lon="13.053447">
        <ele>718.258</ele>
        <time>2018-09-08T08:18:07Z</time>
      </trkpt>
      <trkpt lat="46.534565" lon="13.053218">
        <ele>718.223</ele>
        <time>2018-09-08T08:18:15Z</time>
      </trkpt>
      <trkpt lat="46.534431" lon="13.052646">
        <ele>715.383</ele>
        <time>2018-09-08T08:18:26Z</time>
      </trkpt>
      <trkpt lat="46.534325" lon="13.052231">
        <ele>715.311</ele>
        <time>2018-09-08T08:18:40Z</time>
      </trkpt>
      <trkpt lat="46.534313" lon="13.051727">
        <ele>712.908</ele>
        <time>2018-09-08T08:18:50Z</time>
      </trkpt>
      <trkpt lat="46.534335" lon="13.051685">
        <ele>712.426</ele>
        <time>2018-09-08T08:18:51Z</time>
      </trkpt>
      <trkpt lat="46.534360" lon="13.051637">
        <ele>712.478</ele>
        <time>2018-09-08T08:18:52Z</time>
      </trkpt>
      <trkpt lat="46.534377" lon="13.051588">
        <ele>711.996</ele>
        <time>2018-09-08T08:18:53Z</time>
      </trkpt>
      <trkpt lat="46.534395" lon="13.051524">
        <ele>711.525</ele>
        <time>2018-09-08T08:18:54Z</time>
      </trkpt>
      <trkpt lat="46.534402" lon="13.051476">
        <ele>711.589</ele>
        <time>2018-09-08T08:18:55Z</time>
      </trkpt>
      <trkpt lat="46.534412" lon="13.051410">
        <ele>711.924</ele>
        <time>2018-09-08T08:18:56Z</time>
      </trkpt>
      <trkpt lat="46.534411" lon="13.051362">
        <ele>711.922</ele>
        <time>2018-09-08T08:18:57Z</time>
      </trkpt>
      <trkpt lat="46.534402" lon="13.051291">
        <ele>712.464</ele>
        <time>2018-09-08T08:18:58Z</time>
      </trkpt>
      <trkpt lat="46.534367" lon="13.051044">
        <ele>711.955</ele>
        <time>2018-09-08T08:19:02Z</time>
      </trkpt>
      <trkpt lat="46.534341" lon="13.050849">
        <ele>711.507</ele>
        <time>2018-09-08T08:19:05Z</time>
      </trkpt>
      <trkpt lat="46.534340" lon="13.050787">
        <ele>711.517</ele>
        <time>2018-09-08T08:19:06Z</time>
      </trkpt>
      <trkpt lat="46.534344" lon="13.050714">
        <ele>711.008</ele>
        <time>2018-09-08T08:19:07Z</time>
      </trkpt>
      <trkpt lat="46.534351" lon="13.050653">
        <ele>711.099</ele>
        <time>2018-09-08T08:19:08Z</time>
      </trkpt>
      <trkpt lat="46.534363" lon="13.050587">
        <ele>711.081</ele>
        <time>2018-09-08T08:19:09Z</time>
      </trkpt>
      <trkpt lat="46.534519" lon="13.050039">
        <ele>709.589</ele>
        <time>2018-09-08T08:19:17Z</time>
      </trkpt>
      <trkpt lat="46.534541" lon="13.049988">
        <ele>709.588</ele>
        <time>2018-09-08T08:19:18Z</time>
      </trkpt>
      <trkpt lat="46.534570" lon="13.049588">
        <ele>708.172</ele>
        <time>2018-09-08T08:19:28Z</time>
      </trkpt>
      <trkpt lat="46.534541" lon="13.049398">
        <ele>707.187</ele>
        <time>2018-09-08T08:19:31Z</time>
      </trkpt>
      <trkpt lat="46.534400" lon="13.048229">
        <ele>703.355</ele>
        <time>2018-09-08T08:19:44Z</time>
      </trkpt>
      <trkpt lat="46.534398" lon="13.048135">
        <ele>702.837</ele>
        <time>2018-09-08T08:19:45Z</time>
      </trkpt>
      <trkpt lat="46.534454" lon="13.047661">
        <ele>699.579</ele>
        <time>2018-09-08T08:19:50Z</time>
      </trkpt>
      <trkpt lat="46.534488" lon="13.047492">
        <ele>698.505</ele>
        <time>2018-09-08T08:19:52Z</time>
      </trkpt>
      <trkpt lat="46.534488" lon="13.047398">
        <ele>698.025</ele>
        <time>2018-09-08T08:19:53Z</time>
      </trkpt>
      <trkpt lat="46.534475" lon="13.047310">
        <ele>697.508</ele>
        <time>2018-09-08T08:19:54Z</time>
      </trkpt>
      <trkpt lat="46.534455" lon="13.047235">
        <ele>697.541</ele>
        <time>2018-09-08T08:19:55Z</time>
      </trkpt>
      <trkpt lat="46.534435" lon="13.047175">
        <ele>697.593</ele>
        <time>2018-09-08T08:19:56Z</time>
      </trkpt>
      <trkpt lat="46.534419" lon="13.047122">
        <ele>697.571</ele>
        <time>2018-09-08T08:19:57Z</time>
      </trkpt>
      <trkpt lat="46.534407" lon="13.047076">
        <ele>698.020</ele>
        <time>2018-09-08T08:19:58Z</time>
      </trkpt>
      <trkpt lat="46.534270" lon="13.046534">
        <ele>697.524</ele>
        <time>2018-09-08T08:20:10Z</time>
      </trkpt>
      <trkpt lat="46.534263" lon="13.046464">
        <ele>697.049</ele>
        <time>2018-09-08T08:20:11Z</time>
      </trkpt>
      <trkpt lat="46.534268" lon="13.046395">
        <ele>696.687</ele>
        <time>2018-09-08T08:20:12Z</time>
      </trkpt>
      <trkpt lat="46.534317" lon="13.045258">
        <ele>695.629</ele>
        <time>2018-09-08T08:20:28Z</time>
      </trkpt>
      <trkpt lat="46.534328" lon="13.044413">
        <ele>693.788</ele>
        <time>2018-09-08T08:20:41Z</time>
      </trkpt>
      <trkpt lat="46.534290" lon="13.044109">
        <ele>692.724</ele>
        <time>2018-09-08T08:20:48Z</time>
      </trkpt>
      <trkpt lat="46.534270" lon="13.044049">
        <ele>693.226</ele>
        <time>2018-09-08T08:20:49Z</time>
      </trkpt>
      <trkpt lat="46.534241" lon="13.043985">
        <ele>693.208</ele>
        <time>2018-09-08T08:20:50Z</time>
      </trkpt>
      <trkpt lat="46.534207" lon="13.043920">
        <ele>693.212</ele>
        <time>2018-09-08T08:20:51Z</time>
      </trkpt>
      <trkpt lat="46.534167" lon="13.043851">
        <ele>692.734</ele>
        <time>2018-09-08T08:20:52Z</time>
      </trkpt>
      <trkpt lat="46.533821" lon="13.043259">
        <ele>687.032</ele>
        <time>2018-09-08T08:21:00Z</time>
      </trkpt>
      <trkpt lat="46.533791" lon="13.043176">
        <ele>686.571</ele>
        <time>2018-09-08T08:21:01Z</time>
      </trkpt>
      <trkpt lat="46.533769" lon="13.043088">
        <ele>686.095</ele>
        <time>2018-09-08T08:21:02Z</time>
      </trkpt>
      <trkpt lat="46.533554" lon="13.042443">
        <ele>683.690</ele>
        <time>2018-09-08T08:21:13Z</time>
      </trkpt>
      <trkpt lat="46.533395" lon="13.042413">
        <ele>682.678</ele>
        <time>2018-09-08T08:21:19Z</time>
      </trkpt>
      <trkpt lat="46.533378" lon="13.042395">
        <ele>682.630</ele>
        <time>2018-09-08T08:21:20Z</time>
      </trkpt>
      <trkpt lat="46.533368" lon="13.042377">
        <ele>682.633</ele>
        <time>2018-09-08T08:21:21Z</time>
      </trkpt>
      <trkpt lat="46.533359" lon="13.042352">
        <ele>682.123</ele>
        <time>2018-09-08T08:21:22Z</time>
      </trkpt>
      <trkpt lat="46.533358" lon="13.042330">
        <ele>682.115</ele>
        <time>2018-09-08T08:21:23Z</time>
      </trkpt>
      <trkpt lat="46.533361" lon="13.042310">
        <ele>681.708</ele>
        <time>2018-09-08T08:21:24Z</time>
      </trkpt>
      <trkpt lat="46.533364" lon="13.042289">
        <ele>681.257</ele>
        <time>2018-09-08T08:21:25Z</time>
      </trkpt>
      <trkpt lat="46.533364" lon="13.042266">
        <ele>681.249</ele>
        <time>2018-09-08T08:21:26Z</time>
      </trkpt>
      <trkpt lat="46.533385" lon="13.042116">
        <ele>680.787</ele>
        <time>2018-09-08T08:21:33Z</time>
      </trkpt>
      <trkpt lat="46.533397" lon="13.042107">
        <ele>680.256</ele>
        <time>2018-09-08T08:21:34Z</time>
      </trkpt>
      <trkpt lat="46.533409" lon="13.042096">
        <ele>679.720</ele>
        <time>2018-09-08T08:21:35Z</time>
      </trkpt>
      <trkpt lat="46.533417" lon="13.042075">
        <ele>679.725</ele>
        <time>2018-09-08T08:21:36Z</time>
      </trkpt>
      <trkpt lat="46.533423" lon="13.042051">
        <ele>679.723</ele>
        <time>2018-09-08T08:21:37Z</time>
      </trkpt>
      <trkpt lat="46.533438" lon="13.042009">
        <ele>680.235</ele>
        <time>2018-09-08T08:21:39Z</time>
      </trkpt>
      <trkpt lat="46.533447" lon="13.041989">
        <ele>680.255</ele>
        <time>2018-09-08T08:21:40Z</time>
      </trkpt>
      <trkpt lat="46.533460" lon="13.041972">
        <ele>680.207</ele>
        <time>2018-09-08T08:21:41Z</time>
      </trkpt>
      <trkpt lat="46.533472" lon="13.041958">
        <ele>680.217</ele>
        <time>2018-09-08T08:21:42Z</time>
      </trkpt>
      <trkpt lat="46.533485" lon="13.041944">
        <ele>679.708</ele>
        <time>2018-09-08T08:21:43Z</time>
      </trkpt>
      <trkpt lat="46.533498" lon="13.041933">
        <ele>679.789</ele>
        <time>2018-09-08T08:21:44Z</time>
      </trkpt>
      <trkpt lat="46.533513" lon="13.041925">
        <ele>679.731</ele>
        <time>2018-09-08T08:21:45Z</time>
      </trkpt>
      <trkpt lat="46.533727" lon="13.041661">
        <ele>678.899</ele>
        <time>2018-09-08T08:22:00Z</time>
      </trkpt>
      <trkpt lat="46.533892" lon="13.041336">
        <ele>677.398</ele>
        <time>2018-09-08T08:22:07Z</time>
      </trkpt>
      <trkpt lat="46.533911" lon="13.041276">
        <ele>676.942</ele>
        <time>2018-09-08T08:22:08Z</time>
      </trkpt>
      <trkpt lat="46.533927" lon="13.041217">
        <ele>676.927</ele>
        <time>2018-09-08T08:22:09Z</time>
      </trkpt>
      <trkpt lat="46.533938" lon="13.041158">
        <ele>676.485</ele>
        <time>2018-09-08T08:22:10Z</time>
      </trkpt>
      <trkpt lat="46.533949" lon="13.041101">
        <ele>675.987</ele>
        <time>2018-09-08T08:22:11Z</time>
      </trkpt>
      <trkpt lat="46.533961" lon="13.041043">
        <ele>675.922</ele>
        <time>2018-09-08T08:22:12Z</time>
      </trkpt>
      <trkpt lat="46.533966" lon="13.040987">
        <ele>675.962</ele>
        <time>2018-09-08T08:22:13Z</time>
      </trkpt>
      <trkpt lat="46.533969" lon="13.040931">
        <ele>675.908</ele>
        <time>2018-09-08T08:22:14Z</time>
      </trkpt>
      <trkpt lat="46.533993" lon="13.040206">
        <ele>679.708</ele>
        <time>2018-09-08T08:22:30Z</time>
      </trkpt>
      <trkpt lat="46.533912" lon="13.039553">
        <ele>679.716</ele>
        <time>2018-09-08T08:22:46Z</time>
      </trkpt>
      <trkpt lat="46.533917" lon="13.038868">
        <ele>680.288</ele>
        <time>2018-09-08T08:23:01Z</time>
      </trkpt>
      <trkpt lat="46.533973" lon="13.038796">
        <ele>679.746</ele>
        <time>2018-09-08T08:23:03Z</time>
      </trkpt>
      <trkpt lat="46.534378" lon="13.038427">
        <ele>679.355</ele>
        <time>2018-09-08T08:23:14Z</time>
      </trkpt>
      <trkpt lat="46.534402" lon="13.038090">
        <ele>681.289</ele>
        <time>2018-09-08T08:23:25Z</time>
      </trkpt>
      <trkpt lat="46.534257" lon="13.037694">
        <ele>684.694</ele>
        <time>2018-09-08T08:23:40Z</time>
      </trkpt>
      <trkpt lat="46.534132" lon="13.037578">
        <ele>687.072</ele>
        <time>2018-09-08T08:23:48Z</time>
      </trkpt>
      <trkpt lat="46.534110" lon="13.037576">
        <ele>687.414</ele>
        <time>2018-09-08T08:23:49Z</time>
      </trkpt>
      <trkpt lat="46.534095" lon="13.037572">
        <ele>687.953</ele>
        <time>2018-09-08T08:23:50Z</time>
      </trkpt>
      <trkpt lat="46.534079" lon="13.037561">
        <ele>687.904</ele>
        <time>2018-09-08T08:23:51Z</time>
      </trkpt>
      <trkpt lat="46.534062" lon="13.037548">
        <ele>688.414</ele>
        <time>2018-09-08T08:23:52Z</time>
      </trkpt>
      <trkpt lat="46.533939" lon="13.037234">
        <ele>690.808</ele>
        <time>2018-09-08T08:24:07Z</time>
      </trkpt>
      <trkpt lat="46.533996" lon="13.036770">
        <ele>691.899</ele>
        <time>2018-09-08T08:24:24Z</time>
      </trkpt>
      <trkpt lat="46.534030" lon="13.036652">
        <ele>691.361</ele>
        <time>2018-09-08T08:24:29Z</time>
      </trkpt>
      <trkpt lat="46.534041" lon="13.036641">
        <ele>691.319</ele>
        <time>2018-09-08T08:24:30Z</time>
      </trkpt>
      <trkpt lat="46.534048" lon="13.036623">
        <ele>691.358</ele>
        <time>2018-09-08T08:24:31Z</time>
      </trkpt>
      <trkpt lat="46.534055" lon="13.036604">
        <ele>691.842</ele>
        <time>2018-09-08T08:24:32Z</time>
      </trkpt>
      <trkpt lat="46.534061" lon="13.036579">
        <ele>692.287</ele>
        <time>2018-09-08T08:24:33Z</time>
      </trkpt>
      <trkpt lat="46.534068" lon="13.036554">
        <ele>692.775</ele>
        <time>2018-09-08T08:24:34Z</time>
      </trkpt>
      <trkpt lat="46.534078" lon="13.036539">
        <ele>693.227</ele>
        <time>2018-09-08T08:24:35Z</time>
      </trkpt>
      <trkpt lat="46.534089" lon="13.036530">
        <ele>693.752</ele>
        <time>2018-09-08T08:24:36Z</time>
      </trkpt>
      <trkpt lat="46.534157" lon="13.036221">
        <ele>696.653</ele>
        <time>2018-09-08T08:24:47Z</time>
      </trkpt>
      <trkpt lat="46.534129" lon="13.035792">
        <ele>694.208</ele>
        <time>2018-09-08T08:24:57Z</time>
      </trkpt>
      <trkpt lat="46.534252" lon="13.035569">
        <ele>693.208</ele>
        <time>2018-09-08T08:25:05Z</time>
      </trkpt>
      <trkpt lat="46.534200" lon="13.035591">
        <ele>692.729</ele>
        <time>2018-09-08T08:25:11Z</time>
      </trkpt>
      <trkpt lat="46.534172" lon="13.035538">
        <ele>692.761</ele>
        <time>2018-09-08T08:25:20Z</time>
      </trkpt>
      <trkpt lat="46.534176" lon="13.035494">
        <ele>691.879</ele>
        <time>2018-09-08T08:25:21Z</time>
      </trkpt>
      <trkpt lat="46.534187" lon="13.035452">
        <ele>691.348</ele>
        <time>2018-09-08T08:25:22Z</time>
      </trkpt>
      <trkpt lat="46.534278" lon="13.035154">
        <ele>687.922</ele>
        <time>2018-09-08T08:25:32Z</time>
      </trkpt>
      <trkpt lat="46.534363" lon="13.034908">
        <ele>685.067</ele>
        <time>2018-09-08T08:25:38Z</time>
      </trkpt>
      <trkpt lat="46.534348" lon="13.034871">
        <ele>684.635</ele>
        <time>2018-09-08T08:25:39Z</time>
      </trkpt>
      <trkpt lat="46.534323" lon="13.034837">
        <ele>683.697</ele>
        <time>2018-09-08T08:25:40Z</time>
      </trkpt>
      <trkpt lat="46.534292" lon="13.034799">
        <ele>683.162</ele>
        <time>2018-09-08T08:25:41Z</time>
      </trkpt>
      <trkpt lat="46.534260" lon="13.034749">
        <ele>682.683</ele>
        <time>2018-09-08T08:25:42Z</time>
      </trkpt>
      <trkpt lat="46.534229" lon="13.034684">
        <ele>682.111</ele>
        <time>2018-09-08T08:25:43Z</time>
      </trkpt>
      <trkpt lat="46.534201" lon="13.034615">
        <ele>682.108</ele>
        <time>2018-09-08T08:25:44Z</time>
      </trkpt>
      <trkpt lat="46.534154" lon="13.034471">
        <ele>681.740</ele>
        <time>2018-09-08T08:25:46Z</time>
      </trkpt>
      <trkpt lat="46.534100" lon="13.034259">
        <ele>680.272</ele>
        <time>2018-09-08T08:25:49Z</time>
      </trkpt>
      <trkpt lat="46.533869" lon="13.033715">
        <ele>674.560</ele>
        <time>2018-09-08T08:26:00Z</time>
      </trkpt>
      <trkpt lat="46.533844" lon="13.033652">
        <ele>674.529</ele>
        <time>2018-09-08T08:26:01Z</time>
      </trkpt>
      <trkpt lat="46.533825" lon="13.033586">
        <ele>674.023</ele>
        <time>2018-09-08T08:26:02Z</time>
      </trkpt>
      <trkpt lat="46.533811" lon="13.033520">
        <ele>673.538</ele>
        <time>2018-09-08T08:26:03Z</time>
      </trkpt>
      <trkpt lat="46.533801" lon="13.033450">
        <ele>673.546</ele>
        <time>2018-09-08T08:26:04Z</time>
      </trkpt>
      <trkpt lat="46.533794" lon="13.033381">
        <ele>673.528</ele>
        <time>2018-09-08T08:26:05Z</time>
      </trkpt>
      <trkpt lat="46.533793" lon="13.033316">
        <ele>673.533</ele>
        <time>2018-09-08T08:26:06Z</time>
      </trkpt>
      <trkpt lat="46.533796" lon="13.033252">
        <ele>673.523</ele>
        <time>2018-09-08T08:26:07Z</time>
      </trkpt>
      <trkpt lat="46.533807" lon="13.033185">
        <ele>673.015</ele>
        <time>2018-09-08T08:26:08Z</time>
      </trkpt>
      <trkpt lat="46.533827" lon="13.033116">
        <ele>673.008</ele>
        <time>2018-09-08T08:26:09Z</time>
      </trkpt>
      <trkpt lat="46.533852" lon="13.033052">
        <ele>673.037</ele>
        <time>2018-09-08T08:26:10Z</time>
      </trkpt>
      <trkpt lat="46.533877" lon="13.032990">
        <ele>672.519</ele>
        <time>2018-09-08T08:26:11Z</time>
      </trkpt>
      <trkpt lat="46.533925" lon="13.032868">
        <ele>672.127</ele>
        <time>2018-09-08T08:26:13Z</time>
      </trkpt>
      <trkpt lat="46.533940" lon="13.032821">
        <ele>671.646</ele>
        <time>2018-09-08T08:26:14Z</time>
      </trkpt>
      <trkpt lat="46.533947" lon="13.032788">
        <ele>671.680</ele>
        <time>2018-09-08T08:26:15Z</time>
      </trkpt>
      <trkpt lat="46.533931" lon="13.032741">
        <ele>671.185</ele>
        <time>2018-09-08T08:26:18Z</time>
      </trkpt>
      <trkpt lat="46.533916" lon="13.032716">
        <ele>671.193</ele>
        <time>2018-09-08T08:26:19Z</time>
      </trkpt>
      <trkpt lat="46.533902" lon="13.032687">
        <ele>671.675</ele>
        <time>2018-09-08T08:26:20Z</time>
      </trkpt>
      <trkpt lat="46.533890" lon="13.032669">
        <ele>671.664</ele>
        <time>2018-09-08T08:26:21Z</time>
      </trkpt>
      <trkpt lat="46.533873" lon="13.032655">
        <ele>671.606</ele>
        <time>2018-09-08T08:26:22Z</time>
      </trkpt>
      <trkpt lat="46.533853" lon="13.032648">
        <ele>671.616</ele>
        <time>2018-09-08T08:26:23Z</time>
      </trkpt>
      <trkpt lat="46.533832" lon="13.032640">
        <ele>671.608</ele>
        <time>2018-09-08T08:26:24Z</time>
      </trkpt>
      <trkpt lat="46.533810" lon="13.032627">
        <ele>671.650</ele>
        <time>2018-09-08T08:26:25Z</time>
      </trkpt>
      <trkpt lat="46.533604" lon="13.032381">
        <ele>673.012</ele>
        <time>2018-09-08T08:26:33Z</time>
      </trkpt>
      <trkpt lat="46.533578" lon="13.032319">
        <ele>672.580</ele>
        <time>2018-09-08T08:26:34Z</time>
      </trkpt>
      <trkpt lat="46.533557" lon="13.032252">
        <ele>672.579</ele>
        <time>2018-09-08T08:26:35Z</time>
      </trkpt>
      <trkpt lat="46.533542" lon="13.032187">
        <ele>672.513</ele>
        <time>2018-09-08T08:26:36Z</time>
      </trkpt>
      <trkpt lat="46.533529" lon="13.032117">
        <ele>672.588</ele>
        <time>2018-09-08T08:26:37Z</time>
      </trkpt>
      <trkpt lat="46.533518" lon="13.032049">
        <ele>672.576</ele>
        <time>2018-09-08T08:26:38Z</time>
      </trkpt>
      <trkpt lat="46.533453" lon="13.031519">
        <ele>671.688</ele>
        <time>2018-09-08T08:26:46Z</time>
      </trkpt>
      <trkpt lat="46.533398" lon="13.031233">
        <ele>671.144</ele>
        <time>2018-09-08T08:26:50Z</time>
      </trkpt>
      <trkpt lat="46.533354" lon="13.031063">
        <ele>670.605</ele>
        <time>2018-09-08T08:26:53Z</time>
      </trkpt>
      <trkpt lat="46.533307" lon="13.030380">
        <ele>667.715</ele>
        <time>2018-09-08T08:27:04Z</time>
      </trkpt>
      <trkpt lat="46.533311" lon="13.030314">
        <ele>666.808</ele>
        <time>2018-09-08T08:27:05Z</time>
      </trkpt>
      <trkpt lat="46.533322" lon="13.030179">
        <ele>664.818</ele>
        <time>2018-09-08T08:27:07Z</time>
      </trkpt>
      <trkpt lat="46.533370" lon="13.029893">
        <ele>661.040</ele>
        <time>2018-09-08T08:27:11Z</time>
      </trkpt>
      <trkpt lat="46.533390" lon="13.029829">
        <ele>660.038</ele>
        <time>2018-09-08T08:27:12Z</time>
      </trkpt>
      <trkpt lat="46.533417" lon="13.029768">
        <ele>659.127</ele>
        <time>2018-09-08T08:27:13Z</time>
      </trkpt>
      <trkpt lat="46.533444" lon="13.029703">
        <ele>658.691</ele>
        <time>2018-09-08T08:27:14Z</time>
      </trkpt>
      <trkpt lat="46.533461" lon="13.029631">
        <ele>657.676</ele>
        <time>2018-09-08T08:27:15Z</time>
      </trkpt>
      <trkpt lat="46.533464" lon="13.029559">
        <ele>657.284</ele>
        <time>2018-09-08T08:27:16Z</time>
      </trkpt>
      <trkpt lat="46.533457" lon="13.029484">
        <ele>656.776</ele>
        <time>2018-09-08T08:27:17Z</time>
      </trkpt>
      <trkpt lat="46.533447" lon="13.029408">
        <ele>656.236</ele>
        <time>2018-09-08T08:27:18Z</time>
      </trkpt>
      <trkpt lat="46.533320" lon="13.028753">
        <ele>651.917</ele>
        <time>2018-09-08T08:27:28Z</time>
      </trkpt>
      <trkpt lat="46.533256" lon="13.028489">
        <ele>649.918</ele>
        <time>2018-09-08T08:27:32Z</time>
      </trkpt>
      <trkpt lat="46.533228" lon="13.028349">
        <ele>649.008</ele>
        <time>2018-09-08T08:27:34Z</time>
      </trkpt>
      <trkpt lat="46.533222" lon="13.028269">
        <ele>648.527</ele>
        <time>2018-09-08T08:27:35Z</time>
      </trkpt>
      <trkpt lat="46.533221" lon="13.028184">
        <ele>648.059</ele>
        <time>2018-09-08T08:27:36Z</time>
      </trkpt>
      <trkpt lat="46.533229" lon="13.028095">
        <ele>648.027</ele>
        <time>2018-09-08T08:27:37Z</time>
      </trkpt>
      <trkpt lat="46.533239" lon="13.028008">
        <ele>648.026</ele>
        <time>2018-09-08T08:27:38Z</time>
      </trkpt>
      <trkpt lat="46.533256" lon="13.027858">
        <ele>647.590</ele>
        <time>2018-09-08T08:27:40Z</time>
      </trkpt>
      <trkpt lat="46.533249" lon="13.027562">
        <ele>648.045</ele>
        <time>2018-09-08T08:27:48Z</time>
      </trkpt>
      <trkpt lat="46.533251" lon="13.027137">
        <ele>652.883</ele>
        <time>2018-09-08T08:28:05Z</time>
      </trkpt>
      <trkpt lat="46.533226" lon="13.026772">
        <ele>654.355</ele>
        <time>2018-09-08T08:28:20Z</time>
      </trkpt>
      <trkpt lat="46.533293" lon="13.026362">
        <ele>654.374</ele>
        <time>2018-09-08T08:28:37Z</time>
      </trkpt>
      <trkpt lat="46.533349" lon="13.026125">
        <ele>656.756</ele>
        <time>2018-09-08T08:28:49Z</time>
      </trkpt>
      <trkpt lat="46.533499" lon="13.025853">
        <ele>657.221</ele>
        <time>2018-09-08T08:29:04Z</time>
      </trkpt>
      <trkpt lat="46.533503" lon="13.025458">
        <ele>658.608</ele>
        <time>2018-09-08T08:29:20Z</time>
      </trkpt>
      <trkpt lat="46.533580" lon="13.025065">
        <ele>661.581</ele>
        <time>2018-09-08T08:29:33Z</time>
      </trkpt>
      <trkpt lat="46.533813" lon="13.024806">
        <ele>657.633</ele>
        <time>2018-09-08T08:29:46Z</time>
      </trkpt>
      <trkpt lat="46.534180" lon="13.024913">
        <ele>653.841</ele>
        <time>2018-09-08T08:29:55Z</time>
      </trkpt>
      <trkpt lat="46.534423" lon="13.025055">
        <ele>650.470</ele>
        <time>2018-09-08T08:29:59Z</time>
      </trkpt>
      <trkpt lat="46.534470" lon="13.025056">
        <ele>649.514</ele>
        <time>2018-09-08T08:30:00Z</time>
      </trkpt>
      <trkpt lat="46.534511" lon="13.025031">
        <ele>649.049</ele>
        <time>2018-09-08T08:30:01Z</time>
      </trkpt>
      <trkpt lat="46.534543" lon="13.024984">
        <ele>648.577</ele>
        <time>2018-09-08T08:30:02Z</time>
      </trkpt>
      <trkpt lat="46.534564" lon="13.024933">
        <ele>648.059</ele>
        <time>2018-09-08T08:30:03Z</time>
      </trkpt>
      <trkpt lat="46.534577" lon="13.024891">
        <ele>648.072</ele>
        <time>2018-09-08T08:30:04Z</time>
      </trkpt>
      <trkpt lat="46.534581" lon="13.024861">
        <ele>648.013</ele>
        <time>2018-09-08T08:30:05Z</time>
      </trkpt>
      <trkpt lat="46.534583" lon="13.024838">
        <ele>648.514</ele>
        <time>2018-09-08T08:30:06Z</time>
      </trkpt>
      <trkpt lat="46.534582" lon="13.024819">
        <ele>649.008</ele>
        <time>2018-09-08T08:30:07Z</time>
      </trkpt>
      <trkpt lat="46.534582" lon="13.024801">
        <ele>649.531</ele>
        <time>2018-09-08T08:30:08Z</time>
      </trkpt>
      <trkpt lat="46.534583" lon="13.024783">
        <ele>649.963</ele>
        <time>2018-09-08T08:30:09Z</time>
      </trkpt>
      <trkpt lat="46.534585" lon="13.024767">
        <ele>650.431</ele>
        <time>2018-09-08T08:30:10Z</time>
      </trkpt>
      <trkpt lat="46.534589" lon="13.024749">
        <ele>650.980</ele>
        <time>2018-09-08T08:30:11Z</time>
      </trkpt>
      <trkpt lat="46.534592" lon="13.024733">
        <ele>651.494</ele>
        <time>2018-09-08T08:30:12Z</time>
      </trkpt>
      <trkpt lat="46.534595" lon="13.024718">
        <ele>651.989</ele>
        <time>2018-09-08T08:30:13Z</time>
      </trkpt>
      <trkpt lat="46.534602" lon="13.024704">
        <ele>652.347</ele>
        <time>2018-09-08T08:30:14Z</time>
      </trkpt>
      <trkpt lat="46.534611" lon="13.024692">
        <ele>652.849</ele>
        <time>2018-09-08T08:30:15Z</time>
      </trkpt>
      <trkpt lat="46.534620" lon="13.024681">
        <ele>653.334</ele>
        <time>2018-09-08T08:30:16Z</time>
      </trkpt>
      <trkpt lat="46.534652" lon="13.024601">
        <ele>655.255</ele>
        <time>2018-09-08T08:30:22Z</time>
      </trkpt>
      <trkpt lat="46.534656" lon="13.024582">
        <ele>655.710</ele>
        <time>2018-09-08T08:30:23Z</time>
      </trkpt>
      <trkpt lat="46.534659" lon="13.024567">
        <ele>655.708</ele>
        <time>2018-09-08T08:30:24Z</time>
      </trkpt>
      <trkpt lat="46.534662" lon="13.024551">
        <ele>656.287</ele>
        <time>2018-09-08T08:30:25Z</time>
      </trkpt>
      <trkpt lat="46.534670" lon="13.024476">
        <ele>656.729</ele>
        <time>2018-09-08T08:30:30Z</time>
      </trkpt>
      <trkpt lat="46.534663" lon="13.024466">
        <ele>656.777</ele>
        <time>2018-09-08T08:30:31Z</time>
      </trkpt>
      <trkpt lat="46.534654" lon="13.024457">
        <ele>657.256</ele>
        <time>2018-09-08T08:30:32Z</time>
      </trkpt>
      <trkpt lat="46.534641" lon="13.024434">
        <ele>657.650</ele>
        <time>2018-09-08T08:30:34Z</time>
      </trkpt>
      <trkpt lat="46.534639" lon="13.024416">
        <ele>658.125</ele>
        <time>2018-09-08T08:30:35Z</time>
      </trkpt>
      <trkpt lat="46.534637" lon="13.024400">
        <ele>658.193</ele>
        <time>2018-09-08T08:30:36Z</time>
      </trkpt>
      <trkpt lat="46.534632" lon="13.024387">
        <ele>658.145</ele>
        <time>2018-09-08T08:30:37Z</time>
      </trkpt>
      <trkpt lat="46.534626" lon="13.024374">
        <ele>658.112</ele>
        <time>2018-09-08T08:30:38Z</time>
      </trkpt>
      <trkpt lat="46.534620" lon="13.024360">
        <ele>658.632</ele>
        <time>2018-09-08T08:30:39Z</time>
      </trkpt>
      <trkpt lat="46.534615" lon="13.024343">
        <ele>658.605</ele>
        <time>2018-09-08T08:30:40Z</time>
      </trkpt>
      <trkpt lat="46.534609" lon="13.024328">
        <ele>658.608</ele>
        <time>2018-09-08T08:30:41Z</time>
      </trkpt>
      <trkpt lat="46.534601" lon="13.024315">
        <ele>659.165</ele>
        <time>2018-09-08T08:30:42Z</time>
      </trkpt>
      <trkpt lat="46.534593" lon="13.024303">
        <ele>659.137</ele>
        <time>2018-09-08T08:30:43Z</time>
      </trkpt>
      <trkpt lat="46.534588" lon="13.024288">
        <ele>659.135</ele>
        <time>2018-09-08T08:30:44Z</time>
      </trkpt>
      <trkpt lat="46.534458" lon="13.023996">
        <ele>662.944</ele>
        <time>2018-09-08T08:31:02Z</time>
      </trkpt>
      <trkpt lat="46.534449" lon="13.023984">
        <ele>663.458</ele>
        <time>2018-09-08T08:31:03Z</time>
      </trkpt>
      <trkpt lat="46.534439" lon="13.023964">
        <ele>663.963</ele>
        <time>2018-09-08T08:31:04Z</time>
      </trkpt>
      <trkpt lat="46.534432" lon="13.023944">
        <ele>664.491</ele>
        <time>2018-09-08T08:31:05Z</time>
      </trkpt>
      <trkpt lat="46.534425" lon="13.023923">
        <ele>664.863</ele>
        <time>2018-09-08T08:31:06Z</time>
      </trkpt>
      <trkpt lat="46.534418" lon="13.023908">
        <ele>665.348</ele>
        <time>2018-09-08T08:31:07Z</time>
      </trkpt>
      <trkpt lat="46.534409" lon="13.023896">
        <ele>665.861</ele>
        <time>2018-09-08T08:31:08Z</time>
      </trkpt>
      <trkpt lat="46.534400" lon="13.023887">
        <ele>666.317</ele>
        <time>2018-09-08T08:31:09Z</time>
      </trkpt>
      <trkpt lat="46.534277" lon="13.023673">
        <ele>665.808</ele>
        <time>2018-09-08T08:31:25Z</time>
      </trkpt>
      <trkpt lat="46.534272" lon="13.023656">
        <ele>666.358</ele>
        <time>2018-09-08T08:31:26Z</time>
      </trkpt>
      <trkpt lat="46.534264" lon="13.023631">
        <ele>665.860</ele>
        <time>2018-09-08T08:31:27Z</time>
      </trkpt>
      <trkpt lat="46.534253" lon="13.023601">
        <ele>665.878</ele>
        <time>2018-09-08T08:31:28Z</time>
      </trkpt>
      <trkpt lat="46.534234" lon="13.023566">
        <ele>665.327</ele>
        <time>2018-09-08T08:31:29Z</time>
      </trkpt>
      <trkpt lat="46.534206" lon="13.023523">
        <ele>664.831</ele>
        <time>2018-09-08T08:31:30Z</time>
      </trkpt>
      <trkpt lat="46.534177" lon="13.023479">
        <ele>664.496</ele>
        <time>2018-09-08T08:31:31Z</time>
      </trkpt>
      <trkpt lat="46.534150" lon="13.023429">
        <ele>663.474</ele>
        <time>2018-09-08T08:31:32Z</time>
      </trkpt>
      <trkpt lat="46.534116" lon="13.023365">
        <ele>662.936</ele>
        <time>2018-09-08T08:31:33Z</time>
      </trkpt>
      <trkpt lat="46.533939" lon="13.022952">
        <ele>655.253</ele>
        <time>2018-09-08T08:31:42Z</time>
      </trkpt>
      <trkpt lat="46.533925" lon="13.022902">
        <ele>653.804</ele>
        <time>2018-09-08T08:31:55Z</time>
      </trkpt>
      <trkpt lat="46.533921" lon="13.022875">
        <ele>653.314</ele>
        <time>2018-09-08T08:32:36Z</time>
      </trkpt>
      <trkpt lat="46.533883" lon="13.022734">
        <ele>652.808</ele>
        <time>2018-09-08T08:32:42Z</time>
      </trkpt>
      <trkpt lat="46.533748" lon="13.021949">
        <ele>646.119</ele>
        <time>2018-09-08T08:32:50Z</time>
      </trkpt>
      <trkpt lat="46.533678" lon="13.021553">
        <ele>640.871</ele>
        <time>2018-09-08T08:32:55Z</time>
      </trkpt>
      <trkpt lat="46.533701" lon="13.021506">
        <ele>640.369</ele>
        <time>2018-09-08T08:32:56Z</time>
      </trkpt>
      <trkpt lat="46.533737" lon="13.021466">
        <ele>639.888</ele>
        <time>2018-09-08T08:32:57Z</time>
      </trkpt>
      <trkpt lat="46.533781" lon="13.021442">
        <ele>639.472</ele>
        <time>2018-09-08T08:32:58Z</time>
      </trkpt>
      <trkpt lat="46.533807" lon="13.021436">
        <ele>639.427</ele>
        <time>2018-09-08T08:32:59Z</time>
      </trkpt>
      <trkpt lat="46.533829" lon="13.021436">
        <ele>639.885</ele>
        <time>2018-09-08T08:33:00Z</time>
      </trkpt>
      <trkpt lat="46.533843" lon="13.021440">
        <ele>639.847</ele>
        <time>2018-09-08T08:33:01Z</time>
      </trkpt>
      <trkpt lat="46.533858" lon="13.021445">
        <ele>639.825</ele>
        <time>2018-09-08T08:33:02Z</time>
      </trkpt>
      <trkpt lat="46.533875" lon="13.021452">
        <ele>640.826</ele>
        <time>2018-09-08T08:33:03Z</time>
      </trkpt>
      <trkpt lat="46.533890" lon="13.021455">
        <ele>640.808</ele>
        <time>2018-09-08T08:33:04Z</time>
      </trkpt>
      <trkpt lat="46.533907" lon="13.021456">
        <ele>641.308</ele>
        <time>2018-09-08T08:33:05Z</time>
      </trkpt>
      <trkpt lat="46.533922" lon="13.021459">
        <ele>641.836</ele>
        <time>2018-09-08T08:33:06Z</time>
      </trkpt>
      <trkpt lat="46.534146" lon="13.021447">
        <ele>643.288</ele>
        <time>2018-09-08T08:33:20Z</time>
      </trkpt>
      <trkpt lat="46.534438" lon="13.021316">
        <ele>645.146</ele>
        <time>2018-09-08T08:33:39Z</time>
      </trkpt>
      <trkpt lat="46.534689" lon="13.021119">
        <ele>648.545</ele>
        <time>2018-09-08T08:33:57Z</time>
      </trkpt>
      <trkpt lat="46.534844" lon="13.021030">
        <ele>648.089</ele>
        <time>2018-09-08T08:34:08Z</time>
      </trkpt>
      <trkpt lat="46.534856" lon="13.021015">
        <ele>648.054</ele>
        <time>2018-09-08T08:34:09Z</time>
      </trkpt>
      <trkpt lat="46.534870" lon="13.021001">
        <ele>648.022</ele>
        <time>2018-09-08T08:34:10Z</time>
      </trkpt>
      <trkpt lat="46.534883" lon="13.020989">
        <ele>648.094</ele>
        <time>2018-09-08T08:34:11Z</time>
      </trkpt>
      <trkpt lat="46.534895" lon="13.020979">
        <ele>648.081</ele>
        <time>2018-09-08T08:34:12Z</time>
      </trkpt>
      <trkpt lat="46.535015" lon="13.020936">
        <ele>650.461</ele>
        <time>2018-09-08T08:34:20Z</time>
      </trkpt>
      <trkpt lat="46.535028" lon="13.020924">
        <ele>650.917</ele>
        <time>2018-09-08T08:34:21Z</time>
      </trkpt>
      <trkpt lat="46.535038" lon="13.020903">
        <ele>651.408</ele>
        <time>2018-09-08T08:34:22Z</time>
      </trkpt>
      <trkpt lat="46.535043" lon="13.020882">
        <ele>651.982</ele>
        <time>2018-09-08T08:34:23Z</time>
      </trkpt>
      <trkpt lat="46.535048" lon="13.020855">
        <ele>652.814</ele>
        <time>2018-09-08T08:34:24Z</time>
      </trkpt>
      <trkpt lat="46.535050" lon="13.020827">
        <ele>653.382</ele>
        <time>2018-09-08T08:34:25Z</time>
      </trkpt>
      <trkpt lat="46.535085" lon="13.020521">
        <ele>658.151</ele>
        <time>2018-09-08T08:34:37Z</time>
      </trkpt>
      <trkpt lat="46.535243" lon="13.020240">
        <ele>657.675</ele>
        <time>2018-09-08T08:34:52Z</time>
      </trkpt>
      <trkpt lat="46.535635" lon="13.019955">
        <ele>652.860</ele>
        <time>2018-09-08T08:35:03Z</time>
      </trkpt>
      <trkpt lat="46.535724" lon="13.019875">
        <ele>651.918</ele>
        <time>2018-09-08T08:35:05Z</time>
      </trkpt>
      <trkpt lat="46.535806" lon="13.019783">
        <ele>652.390</ele>
        <time>2018-09-08T08:35:07Z</time>
      </trkpt>
      <trkpt lat="46.535903" lon="13.019647">
        <ele>652.318</ele>
        <time>2018-09-08T08:35:10Z</time>
      </trkpt>
      <trkpt lat="46.535926" lon="13.019603">
        <ele>652.398</ele>
        <time>2018-09-08T08:35:11Z</time>
      </trkpt>
      <trkpt lat="46.536065" lon="13.019297">
        <ele>655.217</ele>
        <time>2018-09-08T08:35:23Z</time>
      </trkpt>
      <trkpt lat="46.536303" lon="13.018956">
        <ele>655.208</ele>
        <time>2018-09-08T08:35:36Z</time>
      </trkpt>
      <trkpt lat="46.536711" lon="13.018585">
        <ele>653.865</ele>
        <time>2018-09-08T08:35:49Z</time>
      </trkpt>
      <trkpt lat="46.536783" lon="13.018528">
        <ele>653.347</ele>
        <time>2018-09-08T08:35:51Z</time>
      </trkpt>
      <trkpt lat="46.536819" lon="13.018504">
        <ele>653.315</ele>
        <time>2018-09-08T08:35:52Z</time>
      </trkpt>
      <trkpt lat="46.536890" lon="13.018447">
        <ele>652.854</ele>
        <time>2018-09-08T08:35:54Z</time>
      </trkpt>
      <trkpt lat="46.537084" lon="13.018352">
        <ele>651.988</ele>
        <time>2018-09-08T08:35:59Z</time>
      </trkpt>
      <trkpt lat="46.537604" lon="13.017942">
        <ele>651.423</ele>
        <time>2018-09-08T08:36:14Z</time>
      </trkpt>
      <trkpt lat="46.537829" lon="13.017666">
        <ele>652.831</ele>
        <time>2018-09-08T08:36:27Z</time>
      </trkpt>
      <trkpt lat="46.537833" lon="13.017691">
        <ele>654.313</ele>
        <time>2018-09-08T08:37:07Z</time>
      </trkpt>
      <trkpt lat="46.537822" lon="13.017688">
        <ele>653.862</ele>
        <time>2018-09-08T08:37:39Z</time>
      </trkpt>
      <trkpt lat="46.537831" lon="13.017684">
        <ele>655.783</ele>
        <time>2018-09-08T08:38:17Z</time>
      </trkpt>
      <trkpt lat="46.537841" lon="13.017678">
        <ele>652.811</ele>
        <time>2018-09-08T08:38:54Z</time>
      </trkpt>
      <trkpt lat="46.537833" lon="13.017701">
        <ele>649.908</ele>
        <time>2018-09-08T08:39:26Z</time>
      </trkpt>
      <trkpt lat="46.537842" lon="13.017668">
        <ele>652.350</ele>
        <time>2018-09-08T08:39:59Z</time>
      </trkpt>
      <trkpt lat="46.537830" lon="13.017658">
        <ele>652.362</ele>
        <time>2018-09-08T08:40:26Z</time>
      </trkpt>
      <trkpt lat="46.537811" lon="13.017665">
        <ele>653.850</ele>
        <time>2018-09-08T08:40:47Z</time>
      </trkpt>
      <trkpt lat="46.537806" lon="13.017636">
        <ele>654.359</ele>
        <time>2018-09-08T08:40:53Z</time>
      </trkpt>
      <trkpt lat="46.537780" lon="13.017608">
        <ele>654.333</ele>
        <time>2018-09-08T08:40:55Z</time>
      </trkpt>
      <trkpt lat="46.537764" lon="13.017608">
        <ele>654.398</ele>
        <time>2018-09-08T08:40:56Z</time>
      </trkpt>
      <trkpt lat="46.537700" lon="13.017665">
        <ele>651.986</ele>
        <time>2018-09-08T08:41:05Z</time>
      </trkpt>
      <trkpt lat="46.537606" lon="13.017763">
        <ele>650.928</ele>
        <time>2018-09-08T08:41:08Z</time>
      </trkpt>
      <trkpt lat="46.537574" lon="13.017807">
        <ele>650.992</ele>
        <time>2018-09-08T08:41:09Z</time>
      </trkpt>
      <trkpt lat="46.537466" lon="13.017937">
        <ele>649.073</ele>
        <time>2018-09-08T08:41:12Z</time>
      </trkpt>
      <trkpt lat="46.537422" lon="13.017971">
        <ele>648.520</ele>
        <time>2018-09-08T08:41:13Z</time>
      </trkpt>
      <trkpt lat="46.537383" lon="13.018001">
        <ele>647.508</ele>
        <time>2018-09-08T08:41:14Z</time>
      </trkpt>
      <trkpt lat="46.537343" lon="13.018027">
        <ele>646.153</ele>
        <time>2018-09-08T08:41:15Z</time>
      </trkpt>
      <trkpt lat="46.537294" lon="13.018044">
        <ele>645.185</ele>
        <time>2018-09-08T08:41:16Z</time>
      </trkpt>
      <trkpt lat="46.537243" lon="13.018056">
        <ele>643.793</ele>
        <time>2018-09-08T08:41:17Z</time>
      </trkpt>
      <trkpt lat="46.537191" lon="13.018062">
        <ele>642.732</ele>
        <time>2018-09-08T08:41:18Z</time>
      </trkpt>
      <trkpt lat="46.537139" lon="13.018060">
        <ele>641.846</ele>
        <time>2018-09-08T08:41:19Z</time>
      </trkpt>
      <trkpt lat="46.536782" lon="13.018055">
        <ele>637.031</ele>
        <time>2018-09-08T08:41:25Z</time>
      </trkpt>
      <trkpt lat="46.535927" lon="13.018338">
        <ele>629.879</ele>
        <time>2018-09-08T08:41:41Z</time>
      </trkpt>
      <trkpt lat="46.535668" lon="13.018428">
        <ele>628.361</ele>
        <time>2018-09-08T08:41:46Z</time>
      </trkpt>
      <trkpt lat="46.535531" lon="13.018490">
        <ele>627.438</ele>
        <time>2018-09-08T08:41:49Z</time>
      </trkpt>
      <trkpt lat="46.535487" lon="13.018520">
        <ele>626.970</ele>
        <time>2018-09-08T08:41:50Z</time>
      </trkpt>
      <trkpt lat="46.535321" lon="13.018655">
        <ele>624.517</ele>
        <time>2018-09-08T08:41:54Z</time>
      </trkpt>
      <trkpt lat="46.535277" lon="13.018683">
        <ele>624.008</ele>
        <time>2018-09-08T08:41:55Z</time>
      </trkpt>
      <trkpt lat="46.535230" lon="13.018703">
        <ele>623.077</ele>
        <time>2018-09-08T08:41:56Z</time>
      </trkpt>
      <trkpt lat="46.535176" lon="13.018718">
        <ele>622.549</ele>
        <time>2018-09-08T08:41:57Z</time>
      </trkpt>
      <trkpt lat="46.535124" lon="13.018734">
        <ele>622.147</ele>
        <time>2018-09-08T08:41:58Z</time>
      </trkpt>
      <trkpt lat="46.535070" lon="13.018753">
        <ele>621.696</ele>
        <time>2018-09-08T08:41:59Z</time>
      </trkpt>
      <trkpt lat="46.534646" lon="13.018958">
        <ele>618.210</ele>
        <time>2018-09-08T08:42:07Z</time>
      </trkpt>
      <trkpt lat="46.534591" lon="13.018981">
        <ele>617.725</ele>
        <time>2018-09-08T08:42:08Z</time>
      </trkpt>
      <trkpt lat="46.534537" lon="13.018993">
        <ele>617.753</ele>
        <time>2018-09-08T08:42:09Z</time>
      </trkpt>
      <trkpt lat="46.534421" lon="13.018994">
        <ele>617.315</ele>
        <time>2018-09-08T08:42:11Z</time>
      </trkpt>
      <trkpt lat="46.534368" lon="13.018982">
        <ele>617.347</ele>
        <time>2018-09-08T08:42:12Z</time>
      </trkpt>
      <trkpt lat="46.533708" lon="13.018940">
        <ele>614.429</ele>
        <time>2018-09-08T08:42:24Z</time>
      </trkpt>
      <trkpt lat="46.533658" lon="13.018934">
        <ele>613.921</ele>
        <time>2018-09-08T08:42:25Z</time>
      </trkpt>
      <trkpt lat="46.533557" lon="13.018904">
        <ele>613.908</ele>
        <time>2018-09-08T08:42:27Z</time>
      </trkpt>
      <trkpt lat="46.533292" lon="13.018789">
        <ele>613.438</ele>
        <time>2018-09-08T08:42:32Z</time>
      </trkpt>
      <trkpt lat="46.533231" lon="13.018763">
        <ele>613.480</ele>
        <time>2018-09-08T08:42:33Z</time>
      </trkpt>
      <trkpt lat="46.533179" lon="13.018754">
        <ele>612.958</ele>
        <time>2018-09-08T08:42:34Z</time>
      </trkpt>
      <trkpt lat="46.533122" lon="13.018750">
        <ele>612.577</ele>
        <time>2018-09-08T08:42:35Z</time>
      </trkpt>
      <trkpt lat="46.533066" lon="13.018740">
        <ele>612.571</ele>
        <time>2018-09-08T08:42:36Z</time>
      </trkpt>
      <trkpt lat="46.532564" lon="13.018672">
        <ele>611.076</ele>
        <time>2018-09-08T08:42:49Z</time>
      </trkpt>
      <trkpt lat="46.532519" lon="13.018641">
        <ele>611.084</ele>
        <time>2018-09-08T08:42:51Z</time>
      </trkpt>
      <trkpt lat="46.532499" lon="13.018615">
        <ele>611.016</ele>
        <time>2018-09-08T08:42:52Z</time>
      </trkpt>
      <trkpt lat="46.532442" lon="13.018149">
        <ele>609.697</ele>
        <time>2018-09-08T08:43:06Z</time>
      </trkpt>
      <trkpt lat="46.532785" lon="13.017932">
        <ele>603.823</ele>
        <time>2018-09-08T08:43:17Z</time>
      </trkpt>
      <trkpt lat="46.533257" lon="13.017884">
        <ele>598.025</ele>
        <time>2018-09-08T08:43:29Z</time>
      </trkpt>
      <trkpt lat="46.533384" lon="13.017817">
        <ele>596.608</ele>
        <time>2018-09-08T08:43:40Z</time>
      </trkpt>
      <trkpt lat="46.533429" lon="13.017754">
        <ele>598.543</ele>
        <time>2018-09-08T08:44:12Z</time>
      </trkpt>
      <trkpt lat="46.533488" lon="13.017634">
        <ele>597.615</ele>
        <time>2018-09-08T08:44:15Z</time>
      </trkpt>
      <trkpt lat="46.533503" lon="13.017576">
        <ele>597.653</ele>
        <time>2018-09-08T08:44:16Z</time>
      </trkpt>
      <trkpt lat="46.533516" lon="13.017514">
        <ele>597.122</ele>
        <time>2018-09-08T08:44:17Z</time>
      </trkpt>
      <trkpt lat="46.533578" lon="13.017175">
        <ele>596.636</ele>
        <time>2018-09-08T08:44:22Z</time>
      </trkpt>
      <trkpt lat="46.533543" lon="13.016654">
        <ele>596.161</ele>
        <time>2018-09-08T08:44:33Z</time>
      </trkpt>
      <trkpt lat="46.533149" lon="13.016511">
        <ele>596.139</ele>
        <time>2018-09-08T08:44:43Z</time>
      </trkpt>
      <trkpt lat="46.533012" lon="13.016479">
        <ele>596.171</ele>
        <time>2018-09-08T08:44:46Z</time>
      </trkpt>
      <trkpt lat="46.532971" lon="13.016458">
        <ele>596.186</ele>
        <time>2018-09-08T08:44:47Z</time>
      </trkpt>
      <trkpt lat="46.532886" lon="13.016397">
        <ele>596.160</ele>
        <time>2018-09-08T08:44:49Z</time>
      </trkpt>
      <trkpt lat="46.532797" lon="13.016323">
        <ele>595.626</ele>
        <time>2018-09-08T08:44:51Z</time>
      </trkpt>
      <trkpt lat="46.532668" lon="13.016259">
        <ele>595.608</ele>
        <time>2018-09-08T08:44:54Z</time>
      </trkpt>
      <trkpt lat="46.532621" lon="13.016249">
        <ele>595.692</ele>
        <time>2018-09-08T08:44:55Z</time>
      </trkpt>
      <trkpt lat="46.532526" lon="13.016238">
        <ele>595.694</ele>
        <time>2018-09-08T08:44:57Z</time>
      </trkpt>
      <trkpt lat="46.532233" lon="13.016157">
        <ele>595.132</ele>
        <time>2018-09-08T08:45:08Z</time>
      </trkpt>
      <trkpt lat="46.532221" lon="13.016159">
        <ele>595.121</ele>
        <time>2018-09-08T08:45:09Z</time>
      </trkpt>
      <trkpt lat="46.532212" lon="13.016170">
        <ele>594.795</ele>
        <time>2018-09-08T08:45:10Z</time>
      </trkpt>
      <trkpt lat="46.532203" lon="13.016184">
        <ele>594.780</ele>
        <time>2018-09-08T08:45:11Z</time>
      </trkpt>
      <trkpt lat="46.532189" lon="13.016191">
        <ele>594.748</ele>
        <time>2018-09-08T08:45:12Z</time>
      </trkpt>
      <trkpt lat="46.532171" lon="13.016192">
        <ele>594.280</ele>
        <time>2018-09-08T08:45:13Z</time>
      </trkpt>
      <trkpt lat="46.532151" lon="13.016193">
        <ele>594.283</ele>
        <time>2018-09-08T08:45:14Z</time>
      </trkpt>
      <trkpt lat="46.532136" lon="13.016191">
        <ele>594.725</ele>
        <time>2018-09-08T08:45:15Z</time>
      </trkpt>
      <trkpt lat="46.532110" lon="13.016190">
        <ele>594.717</ele>
        <time>2018-09-08T08:45:16Z</time>
      </trkpt>
      <trkpt lat="46.532091" lon="13.016191">
        <ele>594.708</ele>
        <time>2018-09-08T08:45:17Z</time>
      </trkpt>
      <trkpt lat="46.532074" lon="13.016195">
        <ele>594.782</ele>
        <time>2018-09-08T08:45:18Z</time>
      </trkpt>
      <trkpt lat="46.532054" lon="13.016209">
        <ele>595.194</ele>
        <time>2018-09-08T08:45:19Z</time>
      </trkpt>
      <trkpt lat="46.532032" lon="13.016223">
        <ele>595.132</ele>
        <time>2018-09-08T08:45:20Z</time>
      </trkpt>
      <trkpt lat="46.532011" lon="13.016243">
        <ele>595.191</ele>
        <time>2018-09-08T08:45:21Z</time>
      </trkpt>
      <trkpt lat="46.531991" lon="13.016260">
        <ele>595.635</ele>
        <time>2018-09-08T08:45:22Z</time>
      </trkpt>
      <trkpt lat="46.531969" lon="13.016280">
        <ele>595.640</ele>
        <time>2018-09-08T08:45:23Z</time>
      </trkpt>
      <trkpt lat="46.531947" lon="13.016302">
        <ele>595.698</ele>
        <time>2018-09-08T08:45:24Z</time>
      </trkpt>
      <trkpt lat="46.531605" lon="13.016650">
        <ele>594.780</ele>
        <time>2018-09-08T08:45:40Z</time>
      </trkpt>
      <trkpt lat="46.531265" lon="13.017009">
        <ele>594.253</ele>
        <time>2018-09-08T08:45:53Z</time>
      </trkpt>
      <trkpt lat="46.530941" lon="13.017308">
        <ele>590.804</ele>
        <time>2018-09-08T08:46:07Z</time>
      </trkpt>
      <trkpt lat="46.530621" lon="13.017430">
        <ele>588.414</ele>
        <time>2018-09-08T08:46:22Z</time>
      </trkpt>
      <trkpt lat="46.530404" lon="13.017348">
        <ele>591.308</ele>
        <time>2018-09-08T08:46:35Z</time>
      </trkpt>
      <trkpt lat="46.530257" lon="13.017203">
        <ele>591.899</ele>
        <time>2018-09-08T08:46:46Z</time>
      </trkpt>
      <trkpt lat="46.529988" lon="13.017048">
        <ele>592.351</ele>
        <time>2018-09-08T08:46:59Z</time>
      </trkpt>
      <trkpt lat="46.529713" lon="13.016680">
        <ele>596.669</ele>
        <time>2018-09-08T08:47:13Z</time>
      </trkpt>
      <trkpt lat="46.529317" lon="13.016421">
        <ele>601.488</ele>
        <time>2018-09-08T08:47:27Z</time>
      </trkpt>
      <trkpt lat="46.528901" lon="13.016038">
        <ele>606.212</ele>
        <time>2018-09-08T08:47:42Z</time>
      </trkpt>
      <trkpt lat="46.528605" lon="13.015787">
        <ele>610.067</ele>
        <time>2018-09-08T08:47:52Z</time>
      </trkpt>
      <trkpt lat="46.528239" lon="13.015364">
        <ele>612.095</ele>
        <time>2018-09-08T08:48:06Z</time>
      </trkpt>
      <trkpt lat="46.527787" lon="13.014812">
        <ele>610.027</ele>
        <time>2018-09-08T08:48:23Z</time>
      </trkpt>
      <trkpt lat="46.527320" lon="13.014349">
        <ele>607.666</ele>
        <time>2018-09-08T08:48:37Z</time>
      </trkpt>
      <trkpt lat="46.527287" lon="13.014308">
        <ele>607.629</ele>
        <time>2018-09-08T08:48:38Z</time>
      </trkpt>
      <trkpt lat="46.527253" lon="13.014266">
        <ele>607.221</ele>
        <time>2018-09-08T08:48:39Z</time>
      </trkpt>
      <trkpt lat="46.527222" lon="13.014230">
        <ele>607.208</ele>
        <time>2018-09-08T08:48:40Z</time>
      </trkpt>
      <trkpt lat="46.527189" lon="13.014196">
        <ele>607.240</ele>
        <time>2018-09-08T08:48:41Z</time>
      </trkpt>
      <trkpt lat="46.526810" lon="13.014033">
        <ele>605.792</ele>
        <time>2018-09-08T08:48:52Z</time>
      </trkpt>
      <trkpt lat="46.526440" lon="13.014365">
        <ele>599.570</ele>
        <time>2018-09-08T08:49:03Z</time>
      </trkpt>
      <trkpt lat="46.526399" lon="13.014377">
        <ele>599.559</ele>
        <time>2018-09-08T08:49:04Z</time>
      </trkpt>
      <trkpt lat="46.526064" lon="13.014184">
        <ele>595.173</ele>
        <time>2018-09-08T08:49:14Z</time>
      </trkpt>
      <trkpt lat="46.525966" lon="13.014146">
        <ele>589.948</ele>
        <time>2018-09-08T09:03:37Z</time>
      </trkpt>
      <trkpt lat="46.526276" lon="13.014523">
        <ele>590.396</ele>
        <time>2018-09-08T09:03:57Z</time>
      </trkpt>
      <trkpt lat="46.526345" lon="13.014588">
        <ele>590.828</ele>
        <time>2018-09-08T09:04:02Z</time>
      </trkpt>
      <trkpt lat="46.526363" lon="13.014582">
        <ele>590.842</ele>
        <time>2018-09-08T09:04:03Z</time>
      </trkpt>
      <trkpt lat="46.526379" lon="13.014564">
        <ele>590.822</ele>
        <time>2018-09-08T09:04:04Z</time>
      </trkpt>
      <trkpt lat="46.526399" lon="13.014533">
        <ele>590.814</ele>
        <time>2018-09-08T09:04:05Z</time>
      </trkpt>
      <trkpt lat="46.526417" lon="13.014499">
        <ele>590.808</ele>
        <time>2018-09-08T09:04:06Z</time>
      </trkpt>
      <trkpt lat="46.526725" lon="13.014138">
        <ele>593.288</ele>
        <time>2018-09-08T09:04:20Z</time>
      </trkpt>
      <trkpt lat="46.527036" lon="13.014070">
        <ele>594.280</ele>
        <time>2018-09-08T09:04:33Z</time>
      </trkpt>
      <trkpt lat="46.527379" lon="13.014412">
        <ele>593.778</ele>
        <time>2018-09-08T09:04:48Z</time>
      </trkpt>
      <trkpt lat="46.527834" lon="13.014870">
        <ele>593.727</ele>
        <time>2018-09-08T09:05:09Z</time>
      </trkpt>
      <trkpt lat="46.528344" lon="13.015408">
        <ele>596.661</ele>
        <time>2018-09-08T09:05:33Z</time>
      </trkpt>
      <trkpt lat="46.528669" lon="13.015810">
        <ele>597.136</ele>
        <time>2018-09-08T09:05:50Z</time>
      </trkpt>
      <trkpt lat="46.528801" lon="13.015944">
        <ele>595.624</ele>
        <time>2018-09-08T09:06:01Z</time>
      </trkpt>
      <trkpt lat="46.529112" lon="13.016265">
        <ele>592.716</ele>
        <time>2018-09-08T09:06:17Z</time>
      </trkpt>
      <trkpt lat="46.529473" lon="13.016555">
        <ele>596.689</ele>
        <time>2018-09-08T09:06:34Z</time>
      </trkpt>
      <trkpt lat="46.529637" lon="13.016690">
        <ele>597.606</ele>
        <time>2018-09-08T09:06:43Z</time>
      </trkpt>
      <trkpt lat="46.529652" lon="13.016697">
        <ele>598.026</ele>
        <time>2018-09-08T09:06:44Z</time>
      </trkpt>
      <trkpt lat="46.529707" lon="13.016699">
        <ele>600.408</ele>
        <time>2018-09-08T09:06:49Z</time>
      </trkpt>
      <trkpt lat="46.529707" lon="13.016682">
        <ele>600.942</ele>
        <time>2018-09-08T09:06:50Z</time>
      </trkpt>
      <trkpt lat="46.529702" lon="13.016665">
        <ele>600.934</ele>
        <time>2018-09-08T09:06:51Z</time>
      </trkpt>
      <trkpt lat="46.529696" lon="13.016653">
        <ele>601.952</ele>
        <time>2018-09-08T09:07:01Z</time>
      </trkpt>
      <trkpt lat="46.529684" lon="13.016662">
        <ele>603.861</ele>
        <time>2018-09-08T09:07:11Z</time>
      </trkpt>
      <trkpt lat="46.529677" lon="13.016677">
        <ele>604.385</ele>
        <time>2018-09-08T09:07:12Z</time>
      </trkpt>
      <trkpt lat="46.529672" lon="13.016693">
        <ele>604.360</ele>
        <time>2018-09-08T09:07:13Z</time>
      </trkpt>
      <trkpt lat="46.529668" lon="13.016718">
        <ele>604.888</ele>
        <time>2018-09-08T09:07:15Z</time>
      </trkpt>
      <trkpt lat="46.529676" lon="13.016740">
        <ele>604.820</ele>
        <time>2018-09-08T09:07:26Z</time>
      </trkpt>
      <trkpt lat="46.529700" lon="13.016701">
        <ele>607.231</ele>
        <time>2018-09-08T09:07:58Z</time>
      </trkpt>
      <trkpt lat="46.529698" lon="13.016651">
        <ele>611.061</ele>
        <time>2018-09-08T09:08:25Z</time>
      </trkpt>
      <trkpt lat="46.529689" lon="13.016596">
        <ele>612.507</ele>
        <time>2018-09-08T09:09:01Z</time>
      </trkpt>
      <trkpt lat="46.529670" lon="13.016601">
        <ele>613.408</ele>
        <time>2018-09-08T09:09:33Z</time>
      </trkpt>
      <trkpt lat="46.529678" lon="13.016608">
        <ele>612.517</ele>
        <time>2018-09-08T09:10:07Z</time>
      </trkpt>
      <trkpt lat="46.529695" lon="13.016613">
        <ele>611.059</ele>
        <time>2018-09-08T09:10:35Z</time>
      </trkpt>
      <trkpt lat="46.529684" lon="13.016616">
        <ele>610.567</ele>
        <time>2018-09-08T09:11:07Z</time>
      </trkpt>
      <trkpt lat="46.529687" lon="13.016594">
        <ele>613.916</ele>
        <time>2018-09-08T09:11:36Z</time>
      </trkpt>
      <trkpt lat="46.529657" lon="13.016575">
        <ele>612.920</ele>
        <time>2018-09-08T09:12:06Z</time>
      </trkpt>
      <trkpt lat="46.529657" lon="13.016632">
        <ele>613.945</ele>
        <time>2018-09-08T09:12:40Z</time>
      </trkpt>
      <trkpt lat="46.529663" lon="13.016647">
        <ele>613.913</ele>
        <time>2018-09-08T09:13:12Z</time>
      </trkpt>
      <trkpt lat="46.529663" lon="13.016689">
        <ele>612.035</ele>
        <time>2018-09-08T09:13:55Z</time>
      </trkpt>
      <trkpt lat="46.529666" lon="13.016679">
        <ele>615.393</ele>
        <time>2018-09-08T09:14:23Z</time>
      </trkpt>
      <trkpt lat="46.529674" lon="13.016669">
        <ele>617.765</ele>
        <time>2018-09-08T09:14:50Z</time>
      </trkpt>
      <trkpt lat="46.529690" lon="13.016667">
        <ele>617.321</ele>
        <time>2018-09-08T09:15:01Z</time>
      </trkpt>
      <trkpt lat="46.529703" lon="13.016672">
        <ele>617.308</ele>
        <time>2018-09-08T09:15:02Z</time>
      </trkpt>
      <trkpt lat="46.529715" lon="13.016677">
        <ele>617.313</ele>
        <time>2018-09-08T09:15:03Z</time>
      </trkpt>
      <trkpt lat="46.529733" lon="13.016687">
        <ele>616.835</ele>
        <time>2018-09-08T09:15:04Z</time>
      </trkpt>
      <trkpt lat="46.529751" lon="13.016703">
        <ele>616.313</ele>
        <time>2018-09-08T09:15:05Z</time>
      </trkpt>
      <trkpt lat="46.529772" lon="13.016732">
        <ele>615.332</ele>
        <time>2018-09-08T09:15:06Z</time>
      </trkpt>
      <trkpt lat="46.529794" lon="13.016767">
        <ele>614.986</ele>
        <time>2018-09-08T09:15:07Z</time>
      </trkpt>
      <trkpt lat="46.529815" lon="13.016804">
        <ele>613.991</ele>
        <time>2018-09-08T09:15:08Z</time>
      </trkpt>
      <trkpt lat="46.529832" lon="13.016836">
        <ele>613.429</ele>
        <time>2018-09-08T09:15:09Z</time>
      </trkpt>
      <trkpt lat="46.529849" lon="13.016867">
        <ele>612.921</ele>
        <time>2018-09-08T09:15:10Z</time>
      </trkpt>
      <trkpt lat="46.529871" lon="13.016893">
        <ele>612.991</ele>
        <time>2018-09-08T09:15:11Z</time>
      </trkpt>
      <trkpt lat="46.529892" lon="13.016913">
        <ele>612.581</ele>
        <time>2018-09-08T09:15:12Z</time>
      </trkpt>
      <trkpt lat="46.530156" lon="13.017155">
        <ele>606.219</ele>
        <time>2018-09-08T09:15:24Z</time>
      </trkpt>
      <trkpt lat="46.530497" lon="13.017378">
        <ele>604.808</ele>
        <time>2018-09-08T09:15:34Z</time>
      </trkpt>
      <trkpt lat="46.530657" lon="13.017414">
        <ele>604.353</ele>
        <time>2018-09-08T09:15:37Z</time>
      </trkpt>
      <trkpt lat="46.530716" lon="13.017408">
        <ele>604.875</ele>
        <time>2018-09-08T09:15:38Z</time>
      </trkpt>
      <trkpt lat="46.530776" lon="13.017390">
        <ele>604.873</ele>
        <time>2018-09-08T09:15:39Z</time>
      </trkpt>
      <trkpt lat="46.530837" lon="13.017366">
        <ele>604.892</ele>
        <time>2018-09-08T09:15:40Z</time>
      </trkpt>
      <trkpt lat="46.530899" lon="13.017337">
        <ele>604.836</ele>
        <time>2018-09-08T09:15:41Z</time>
      </trkpt>
      <trkpt lat="46.531017" lon="13.017262">
        <ele>604.331</ele>
        <time>2018-09-08T09:15:43Z</time>
      </trkpt>
      <trkpt lat="46.531639" lon="13.016683">
        <ele>597.149</ele>
        <time>2018-09-08T09:15:55Z</time>
      </trkpt>
      <trkpt lat="46.532059" lon="13.016247">
        <ele>592.781</ele>
        <time>2018-09-08T09:16:06Z</time>
      </trkpt>
      <trkpt lat="46.532101" lon="13.016224">
        <ele>592.312</ele>
        <time>2018-09-08T09:16:07Z</time>
      </trkpt>
      <trkpt lat="46.532145" lon="13.016211">
        <ele>591.832</ele>
        <time>2018-09-08T09:16:08Z</time>
      </trkpt>
      <trkpt lat="46.532200" lon="13.016210">
        <ele>591.305</ele>
        <time>2018-09-08T09:16:09Z</time>
      </trkpt>
      <trkpt lat="46.532256" lon="13.016215">
        <ele>590.808</ele>
        <time>2018-09-08T09:16:10Z</time>
      </trkpt>
      <trkpt lat="46.532843" lon="13.016365">
        <ele>589.975</ele>
        <time>2018-09-08T09:16:24Z</time>
      </trkpt>
      <trkpt lat="46.533324" lon="13.016563">
        <ele>589.937</ele>
        <time>2018-09-08T09:16:39Z</time>
      </trkpt>
      <trkpt lat="46.533617" lon="13.016857">
        <ele>590.855</ele>
        <time>2018-09-08T09:16:53Z</time>
      </trkpt>
      <trkpt lat="46.533613" lon="13.016940">
        <ele>591.324</ele>
        <time>2018-09-08T09:16:58Z</time>
      </trkpt>
      <trkpt lat="46.533608" lon="13.016956">
        <ele>591.358</ele>
        <time>2018-09-08T09:16:59Z</time>
      </trkpt>
      <trkpt lat="46.533553" lon="13.017257">
        <ele>593.273</ele>
        <time>2018-09-08T09:17:14Z</time>
      </trkpt>
      <trkpt lat="46.533553" lon="13.017277">
        <ele>593.751</ele>
        <time>2018-09-08T09:17:15Z</time>
      </trkpt>
      <trkpt lat="46.533555" lon="13.017314">
        <ele>594.253</ele>
        <time>2018-09-08T09:17:18Z</time>
      </trkpt>
      <trkpt lat="46.533438" lon="13.017685">
        <ele>595.683</ele>
        <time>2018-09-08T09:17:30Z</time>
      </trkpt>
      <trkpt lat="46.533218" lon="13.017862">
        <ele>596.125</ele>
        <time>2018-09-08T09:17:44Z</time>
      </trkpt>
      <trkpt lat="46.532930" lon="13.017903">
        <ele>598.517</ele>
        <time>2018-09-08T09:18:00Z</time>
      </trkpt>
      <trkpt lat="46.532692" lon="13.017974">
        <ele>600.008</ele>
        <time>2018-09-08T09:18:14Z</time>
      </trkpt>
      <trkpt lat="46.532477" lon="13.018089">
        <ele>602.422</ele>
        <time>2018-09-08T09:18:27Z</time>
      </trkpt>
      <trkpt lat="46.532439" lon="13.018137">
        <ele>602.484</ele>
        <time>2018-09-08T09:18:30Z</time>
      </trkpt>
      <trkpt lat="46.532357" lon="13.018409">
        <ele>605.272</ele>
        <time>2018-09-08T09:18:43Z</time>
      </trkpt>
      <trkpt lat="46.532624" lon="13.018703">
        <ele>604.341</ele>
        <time>2018-09-08T09:18:57Z</time>
      </trkpt>
      <trkpt lat="46.532905" lon="13.018726">
        <ele>603.355</ele>
        <time>2018-09-08T09:19:04Z</time>
      </trkpt>
      <trkpt lat="46.532948" lon="13.018731">
        <ele>603.390</ele>
        <time>2018-09-08T09:19:05Z</time>
      </trkpt>
      <trkpt lat="46.533622" lon="13.018919">
        <ele>605.738</ele>
        <time>2018-09-08T09:19:23Z</time>
      </trkpt>
      <trkpt lat="46.534021" lon="13.018968">
        <ele>607.290</ele>
        <time>2018-09-08T09:19:36Z</time>
      </trkpt>
      <trkpt lat="46.534571" lon="13.019030">
        <ele>609.659</ele>
        <time>2018-09-08T09:19:54Z</time>
      </trkpt>
      <trkpt lat="46.534882" lon="13.018878">
        <ele>610.503</ele>
        <time>2018-09-08T09:20:08Z</time>
      </trkpt>
      <trkpt lat="46.535211" lon="13.018722">
        <ele>612.523</ele>
        <time>2018-09-08T09:20:24Z</time>
      </trkpt>
      <trkpt lat="46.535225" lon="13.018723">
        <ele>612.908</ele>
        <time>2018-09-08T09:20:25Z</time>
      </trkpt>
      <trkpt lat="46.535238" lon="13.018723">
        <ele>612.929</ele>
        <time>2018-09-08T09:20:26Z</time>
      </trkpt>
      <trkpt lat="46.535362" lon="13.018637">
        <ele>615.391</ele>
        <time>2018-09-08T09:20:36Z</time>
      </trkpt>
      <trkpt lat="46.535377" lon="13.018631">
        <ele>615.889</ele>
        <time>2018-09-08T09:20:37Z</time>
      </trkpt>
      <trkpt lat="46.535389" lon="13.018623">
        <ele>615.838</ele>
        <time>2018-09-08T09:20:38Z</time>
      </trkpt>
      <trkpt lat="46.535403" lon="13.018617">
        <ele>615.882</ele>
        <time>2018-09-08T09:20:39Z</time>
      </trkpt>
      <trkpt lat="46.535417" lon="13.018612">
        <ele>615.827</ele>
        <time>2018-09-08T09:20:40Z</time>
      </trkpt>
      <trkpt lat="46.535429" lon="13.018602">
        <ele>615.835</ele>
        <time>2018-09-08T09:20:41Z</time>
      </trkpt>
      <trkpt lat="46.535440" lon="13.018593">
        <ele>615.847</ele>
        <time>2018-09-08T09:20:42Z</time>
      </trkpt>
      <trkpt lat="46.535450" lon="13.018586">
        <ele>616.327</ele>
        <time>2018-09-08T09:20:43Z</time>
      </trkpt>
      <trkpt lat="46.535459" lon="13.018575">
        <ele>616.368</ele>
        <time>2018-09-08T09:20:44Z</time>
      </trkpt>
      <trkpt lat="46.535501" lon="13.018524">
        <ele>618.214</ele>
        <time>2018-09-08T09:20:48Z</time>
      </trkpt>
      <trkpt lat="46.535514" lon="13.018520">
        <ele>618.208</ele>
        <time>2018-09-08T09:20:49Z</time>
      </trkpt>
      <trkpt lat="46.535738" lon="13.018419">
        <ele>626.446</ele>
        <time>2018-09-08T09:21:07Z</time>
      </trkpt>
      <trkpt lat="46.536029" lon="13.018334">
        <ele>628.398</ele>
        <time>2018-09-08T09:21:27Z</time>
      </trkpt>
      <trkpt lat="46.536330" lon="13.018235">
        <ele>631.256</ele>
        <time>2018-09-08T09:21:46Z</time>
      </trkpt>
      <trkpt lat="46.536637" lon="13.018125">
        <ele>635.555</ele>
        <time>2018-09-08T09:22:06Z</time>
      </trkpt>
      <trkpt lat="46.536949" lon="13.018066">
        <ele>637.969</ele>
        <time>2018-09-08T09:22:25Z</time>
      </trkpt>
      <trkpt lat="46.537170" lon="13.018067">
        <ele>642.394</ele>
        <time>2018-09-08T09:22:41Z</time>
      </trkpt>
      <trkpt lat="46.537182" lon="13.018070">
        <ele>643.222</ele>
        <time>2018-09-08T09:22:42Z</time>
      </trkpt>
      <trkpt lat="46.537195" lon="13.018064">
        <ele>643.764</ele>
        <time>2018-09-08T09:22:43Z</time>
      </trkpt>
      <trkpt lat="46.537208" lon="13.018060">
        <ele>644.238</ele>
        <time>2018-09-08T09:22:44Z</time>
      </trkpt>
      <trkpt lat="46.537220" lon="13.018056">
        <ele>645.170</ele>
        <time>2018-09-08T09:22:45Z</time>
      </trkpt>
      <trkpt lat="46.537230" lon="13.018054">
        <ele>645.617</ele>
        <time>2018-09-08T09:22:46Z</time>
      </trkpt>
      <trkpt lat="46.537241" lon="13.018054">
        <ele>646.108</ele>
        <time>2018-09-08T09:22:47Z</time>
      </trkpt>
      <trkpt lat="46.537250" lon="13.018055">
        <ele>646.137</ele>
        <time>2018-09-08T09:22:48Z</time>
      </trkpt>
      <trkpt lat="46.537260" lon="13.018054">
        <ele>646.159</ele>
        <time>2018-09-08T09:22:49Z</time>
      </trkpt>
      <trkpt lat="46.537342" lon="13.018026">
        <ele>648.057</ele>
        <time>2018-09-08T09:22:57Z</time>
      </trkpt>
      <trkpt lat="46.537353" lon="13.018012">
        <ele>648.026</ele>
        <time>2018-09-08T09:22:58Z</time>
      </trkpt>
      <trkpt lat="46.537363" lon="13.017996">
        <ele>648.570</ele>
        <time>2018-09-08T09:22:59Z</time>
      </trkpt>
      <trkpt lat="46.537388" lon="13.017975">
        <ele>649.565</ele>
        <time>2018-09-08T09:23:01Z</time>
      </trkpt>
      <trkpt lat="46.537402" lon="13.017975">
        <ele>649.533</ele>
        <time>2018-09-08T09:23:02Z</time>
      </trkpt>
      <trkpt lat="46.537413" lon="13.017974">
        <ele>649.935</ele>
        <time>2018-09-08T09:23:03Z</time>
      </trkpt>
      <trkpt lat="46.537425" lon="13.017974">
        <ele>649.918</ele>
        <time>2018-09-08T09:23:04Z</time>
      </trkpt>
      <trkpt lat="46.537436" lon="13.017970">
        <ele>649.998</ele>
        <time>2018-09-08T09:23:05Z</time>
      </trkpt>
      <trkpt lat="46.537446" lon="13.017965">
        <ele>649.517</ele>
        <time>2018-09-08T09:23:06Z</time>
      </trkpt>
      <trkpt lat="46.537557" lon="13.017780">
        <ele>650.408</ele>
        <time>2018-09-08T09:23:21Z</time>
      </trkpt>
      <trkpt lat="46.537576" lon="13.017762">
        <ele>651.445</ele>
        <time>2018-09-08T09:23:23Z</time>
      </trkpt>
      <trkpt lat="46.537588" lon="13.017757">
        <ele>651.417</ele>
        <time>2018-09-08T09:23:24Z</time>
      </trkpt>
      <trkpt lat="46.537718" lon="13.017630">
        <ele>653.395</ele>
        <time>2018-09-08T09:23:38Z</time>
      </trkpt>
      <trkpt lat="46.537731" lon="13.017627">
        <ele>653.824</ele>
        <time>2018-09-08T09:23:39Z</time>
      </trkpt>
      <trkpt lat="46.537744" lon="13.017629">
        <ele>653.858</ele>
        <time>2018-09-08T09:23:40Z</time>
      </trkpt>
      <trkpt lat="46.537828" lon="13.017637">
        <ele>654.333</ele>
        <time>2018-09-08T09:23:47Z</time>
      </trkpt>
      <trkpt lat="46.537861" lon="13.017616">
        <ele>654.871</ele>
        <time>2018-09-08T09:23:50Z</time>
      </trkpt>
      <trkpt lat="46.537874" lon="13.017616">
        <ele>654.853</ele>
        <time>2018-09-08T09:23:51Z</time>
      </trkpt>
      <trkpt lat="46.537887" lon="13.017613">
        <ele>655.295</ele>
        <time>2018-09-08T09:23:52Z</time>
      </trkpt>
      <trkpt lat="46.537997" lon="13.017550">
        <ele>656.749</ele>
        <time>2018-09-08T09:24:03Z</time>
      </trkpt>
      <trkpt lat="46.538009" lon="13.017544">
        <ele>657.223</ele>
        <time>2018-09-08T09:24:04Z</time>
      </trkpt>
      <trkpt lat="46.538081" lon="13.017448">
        <ele>659.608</ele>
        <time>2018-09-08T09:24:13Z</time>
      </trkpt>
      <trkpt lat="46.538266" lon="13.017289">
        <ele>661.583</ele>
        <time>2018-09-08T09:24:30Z</time>
      </trkpt>
      <trkpt lat="46.538303" lon="13.017210">
        <ele>662.065</ele>
        <time>2018-09-08T09:24:35Z</time>
      </trkpt>
      <trkpt lat="46.538312" lon="13.017195">
        <ele>661.533</ele>
        <time>2018-09-08T09:24:36Z</time>
      </trkpt>
      <trkpt lat="46.538323" lon="13.017179">
        <ele>661.052</ele>
        <time>2018-09-08T09:24:37Z</time>
      </trkpt>
      <trkpt lat="46.538331" lon="13.017162">
        <ele>661.016</ele>
        <time>2018-09-08T09:24:38Z</time>
      </trkpt>
      <trkpt lat="46.538336" lon="13.017144">
        <ele>661.561</ele>
        <time>2018-09-08T09:24:39Z</time>
      </trkpt>
      <trkpt lat="46.538339" lon="13.017125">
        <ele>661.529</ele>
        <time>2018-09-08T09:24:40Z</time>
      </trkpt>
      <trkpt lat="46.538340" lon="13.017106">
        <ele>661.541</ele>
        <time>2018-09-08T09:24:41Z</time>
      </trkpt>
      <trkpt lat="46.538340" lon="13.017087">
        <ele>661.545</ele>
        <time>2018-09-08T09:24:42Z</time>
      </trkpt>
      <trkpt lat="46.538344" lon="13.017070">
        <ele>661.547</ele>
        <time>2018-09-08T09:24:43Z</time>
      </trkpt>
      <trkpt lat="46.538349" lon="13.017051">
        <ele>662.011</ele>
        <time>2018-09-08T09:24:44Z</time>
      </trkpt>
      <trkpt lat="46.538370" lon="13.017000">
        <ele>662.008</ele>
        <time>2018-09-08T09:24:47Z</time>
      </trkpt>
      <trkpt lat="46.538380" lon="13.016987">
        <ele>662.088</ele>
        <time>2018-09-08T09:24:48Z</time>
      </trkpt>
      <trkpt lat="46.538389" lon="13.016973">
        <ele>662.090</ele>
        <time>2018-09-08T09:24:49Z</time>
      </trkpt>
      <trkpt lat="46.538397" lon="13.016958">
        <ele>662.058</ele>
        <time>2018-09-08T09:24:50Z</time>
      </trkpt>
      <trkpt lat="46.538403" lon="13.016939">
        <ele>662.057</ele>
        <time>2018-09-08T09:24:51Z</time>
      </trkpt>
      <trkpt lat="46.538408" lon="13.016920">
        <ele>662.411</ele>
        <time>2018-09-08T09:24:52Z</time>
      </trkpt>
      <trkpt lat="46.538415" lon="13.016903">
        <ele>662.426</ele>
        <time>2018-09-08T09:24:53Z</time>
      </trkpt>
      <trkpt lat="46.538423" lon="13.016887">
        <ele>662.944</ele>
        <time>2018-09-08T09:24:54Z</time>
      </trkpt>
      <trkpt lat="46.538561" lon="13.016721">
        <ele>664.856</ele>
        <time>2018-09-08T09:25:08Z</time>
      </trkpt>
      <trkpt lat="46.538851" lon="13.016637">
        <ele>666.849</ele>
        <time>2018-09-08T09:25:29Z</time>
      </trkpt>
      <trkpt lat="46.539086" lon="13.016551">
        <ele>668.202</ele>
        <time>2018-09-08T09:25:47Z</time>
      </trkpt>
      <trkpt lat="46.539279" lon="13.016472">
        <ele>671.122</ele>
        <time>2018-09-08T09:26:02Z</time>
      </trkpt>
      <trkpt lat="46.539285" lon="13.016456">
        <ele>671.608</ele>
        <time>2018-09-08T09:26:03Z</time>
      </trkpt>
      <trkpt lat="46.539287" lon="13.016438">
        <ele>672.188</ele>
        <time>2018-09-08T09:26:04Z</time>
      </trkpt>
      <trkpt lat="46.539285" lon="13.016418">
        <ele>672.140</ele>
        <time>2018-09-08T09:26:05Z</time>
      </trkpt>
      <trkpt lat="46.539282" lon="13.016401">
        <ele>672.538</ele>
        <time>2018-09-08T09:26:06Z</time>
      </trkpt>
      <trkpt lat="46.539278" lon="13.016385">
        <ele>673.027</ele>
        <time>2018-09-08T09:26:07Z</time>
      </trkpt>
      <trkpt lat="46.539273" lon="13.016368">
        <ele>673.061</ele>
        <time>2018-09-08T09:26:08Z</time>
      </trkpt>
      <trkpt lat="46.539266" lon="13.016351">
        <ele>673.566</ele>
        <time>2018-09-08T09:26:09Z</time>
      </trkpt>
      <trkpt lat="46.539258" lon="13.016337">
        <ele>673.534</ele>
        <time>2018-09-08T09:26:10Z</time>
      </trkpt>
      <trkpt lat="46.539246" lon="13.016326">
        <ele>673.596</ele>
        <time>2018-09-08T09:26:11Z</time>
      </trkpt>
      <trkpt lat="46.539234" lon="13.016319">
        <ele>674.053</ele>
        <time>2018-09-08T09:26:12Z</time>
      </trkpt>
      <trkpt lat="46.539227" lon="13.016313">
        <ele>674.004</ele>
        <time>2018-09-08T09:26:13Z</time>
      </trkpt>
      <trkpt lat="46.539036" lon="13.016231">
        <ele>676.914</ele>
        <time>2018-09-08T09:26:28Z</time>
      </trkpt>
      <trkpt lat="46.539015" lon="13.016197">
        <ele>677.308</ele>
        <time>2018-09-08T09:26:30Z</time>
      </trkpt>
      <trkpt lat="46.539015" lon="13.016178">
        <ele>677.829</ele>
        <time>2018-09-08T09:26:31Z</time>
      </trkpt>
      <trkpt lat="46.539022" lon="13.016156">
        <ele>677.851</ele>
        <time>2018-09-08T09:26:32Z</time>
      </trkpt>
      <trkpt lat="46.539033" lon="13.016139">
        <ele>677.899</ele>
        <time>2018-09-08T09:26:33Z</time>
      </trkpt>
      <trkpt lat="46.539047" lon="13.016128">
        <ele>678.378</ele>
        <time>2018-09-08T09:26:34Z</time>
      </trkpt>
      <trkpt lat="46.539058" lon="13.016117">
        <ele>678.362</ele>
        <time>2018-09-08T09:26:35Z</time>
      </trkpt>
      <trkpt lat="46.539072" lon="13.016110">
        <ele>678.397</ele>
        <time>2018-09-08T09:26:36Z</time>
      </trkpt>
      <trkpt lat="46.539087" lon="13.016105">
        <ele>678.335</ele>
        <time>2018-09-08T09:26:37Z</time>
      </trkpt>
      <trkpt lat="46.539218" lon="13.016110">
        <ele>679.367</ele>
        <time>2018-09-08T09:26:45Z</time>
      </trkpt>
      <trkpt lat="46.539268" lon="13.016090">
        <ele>679.352</ele>
        <time>2018-09-08T09:26:48Z</time>
      </trkpt>
      <trkpt lat="46.539282" lon="13.016080">
        <ele>679.753</ele>
        <time>2018-09-08T09:26:49Z</time>
      </trkpt>
      <trkpt lat="46.539299" lon="13.016076">
        <ele>679.308</ele>
        <time>2018-09-08T09:26:50Z</time>
      </trkpt>
      <trkpt lat="46.539559" lon="13.015958">
        <ele>681.208</ele>
        <time>2018-09-08T09:27:07Z</time>
      </trkpt>
      <trkpt lat="46.539839" lon="13.015803">
        <ele>684.629</ele>
        <time>2018-09-08T09:27:25Z</time>
      </trkpt>
      <trkpt lat="46.539857" lon="13.015796">
        <ele>684.121</ele>
        <time>2018-09-08T09:27:26Z</time>
      </trkpt>
      <trkpt lat="46.539877" lon="13.015791">
        <ele>684.639</ele>
        <time>2018-09-08T09:27:27Z</time>
      </trkpt>
      <trkpt lat="46.540129" lon="13.015651">
        <ele>685.098</ele>
        <time>2018-09-08T09:27:39Z</time>
      </trkpt>
      <trkpt lat="46.540349" lon="13.015491">
        <ele>684.682</ele>
        <time>2018-09-08T09:27:46Z</time>
      </trkpt>
      <trkpt lat="46.540392" lon="13.015475">
        <ele>685.037</ele>
        <time>2018-09-08T09:27:47Z</time>
      </trkpt>
      <trkpt lat="46.540746" lon="13.015472">
        <ele>681.225</ele>
        <time>2018-09-08T09:27:55Z</time>
      </trkpt>
      <trkpt lat="46.540992" lon="13.015568">
        <ele>679.357</ele>
        <time>2018-09-08T09:28:00Z</time>
      </trkpt>
      <trkpt lat="46.541041" lon="13.015561">
        <ele>678.327</ele>
        <time>2018-09-08T09:28:01Z</time>
      </trkpt>
      <trkpt lat="46.541090" lon="13.015542">
        <ele>677.868</ele>
        <time>2018-09-08T09:28:02Z</time>
      </trkpt>
      <trkpt lat="46.541135" lon="13.015510">
        <ele>677.314</ele>
        <time>2018-09-08T09:28:03Z</time>
      </trkpt>
      <trkpt lat="46.541175" lon="13.015466">
        <ele>676.908</ele>
        <time>2018-09-08T09:28:04Z</time>
      </trkpt>
      <trkpt lat="46.541214" lon="13.015413">
        <ele>676.496</ele>
        <time>2018-09-08T09:28:05Z</time>
      </trkpt>
      <trkpt lat="46.541250" lon="13.015354">
        <ele>676.438</ele>
        <time>2018-09-08T09:28:06Z</time>
      </trkpt>
      <trkpt lat="46.541275" lon="13.015290">
        <ele>675.916</ele>
        <time>2018-09-08T09:28:07Z</time>
      </trkpt>
      <trkpt lat="46.541285" lon="13.015224">
        <ele>674.935</ele>
        <time>2018-09-08T09:28:08Z</time>
      </trkpt>
      <trkpt lat="46.541292" lon="13.015155">
        <ele>674.059</ele>
        <time>2018-09-08T09:28:09Z</time>
      </trkpt>
      <trkpt lat="46.541309" lon="13.015099">
        <ele>673.574</ele>
        <time>2018-09-08T09:28:10Z</time>
      </trkpt>
      <trkpt lat="46.541343" lon="13.015062">
        <ele>672.572</ele>
        <time>2018-09-08T09:28:11Z</time>
      </trkpt>
      <trkpt lat="46.541396" lon="13.015055">
        <ele>671.614</ele>
        <time>2018-09-08T09:28:12Z</time>
      </trkpt>
      <trkpt lat="46.541443" lon="13.015086">
        <ele>670.124</ele>
        <time>2018-09-08T09:28:13Z</time>
      </trkpt>
      <trkpt lat="46.541478" lon="13.015144">
        <ele>668.704</ele>
        <time>2018-09-08T09:28:14Z</time>
      </trkpt>
      <trkpt lat="46.541496" lon="13.015218">
        <ele>667.714</ele>
        <time>2018-09-08T09:28:15Z</time>
      </trkpt>
      <trkpt lat="46.541502" lon="13.015298">
        <ele>666.308</ele>
        <time>2018-09-08T09:28:16Z</time>
      </trkpt>
      <trkpt lat="46.541494" lon="13.015385">
        <ele>665.346</ele>
        <time>2018-09-08T09:28:17Z</time>
      </trkpt>
      <trkpt lat="46.541474" lon="13.015461">
        <ele>664.478</ele>
        <time>2018-09-08T09:28:18Z</time>
      </trkpt>
      <trkpt lat="46.541448" lon="13.015535">
        <ele>663.476</ele>
        <time>2018-09-08T09:28:19Z</time>
      </trkpt>
      <trkpt lat="46.541434" lon="13.015606">
        <ele>662.455</ele>
        <time>2018-09-08T09:28:20Z</time>
      </trkpt>
      <trkpt lat="46.541445" lon="13.015666">
        <ele>661.549</ele>
        <time>2018-09-08T09:28:21Z</time>
      </trkpt>
      <trkpt lat="46.541471" lon="13.015704">
        <ele>661.034</ele>
        <time>2018-09-08T09:28:22Z</time>
      </trkpt>
      <trkpt lat="46.541506" lon="13.015707">
        <ele>660.022</ele>
        <time>2018-09-08T09:28:23Z</time>
      </trkpt>
      <trkpt lat="46.541542" lon="13.015679">
        <ele>659.644</ele>
        <time>2018-09-08T09:28:24Z</time>
      </trkpt>
      <trkpt lat="46.541570" lon="13.015631">
        <ele>658.691</ele>
        <time>2018-09-08T09:28:25Z</time>
      </trkpt>
      <trkpt lat="46.541593" lon="13.015573">
        <ele>657.681</ele>
        <time>2018-09-08T09:28:26Z</time>
      </trkpt>
      <trkpt lat="46.541611" lon="13.015515">
        <ele>657.219</ele>
        <time>2018-09-08T09:28:27Z</time>
      </trkpt>
      <trkpt lat="46.541639" lon="13.015460">
        <ele>656.208</ele>
        <time>2018-09-08T09:28:28Z</time>
      </trkpt>
      <trkpt lat="46.541680" lon="13.015418">
        <ele>655.753</ele>
        <time>2018-09-08T09:28:29Z</time>
      </trkpt>
      <trkpt lat="46.541727" lon="13.015401">
        <ele>655.215</ele>
        <time>2018-09-08T09:28:30Z</time>
      </trkpt>
      <trkpt lat="46.541783" lon="13.015402">
        <ele>654.383</ele>
        <time>2018-09-08T09:28:31Z</time>
      </trkpt>
      <trkpt lat="46.541844" lon="13.015421">
        <ele>653.862</ele>
        <time>2018-09-08T09:28:32Z</time>
      </trkpt>
      <trkpt lat="46.541908" lon="13.015446">
        <ele>652.886</ele>
        <time>2018-09-08T09:28:33Z</time>
      </trkpt>
      <trkpt lat="46.541976" lon="13.015466">
        <ele>652.341</ele>
        <time>2018-09-08T09:28:34Z</time>
      </trkpt>
      <trkpt lat="46.542050" lon="13.015478">
        <ele>651.439</ele>
        <time>2018-09-08T09:28:35Z</time>
      </trkpt>
      <trkpt lat="46.542131" lon="13.015481">
        <ele>650.471</ele>
        <time>2018-09-08T09:28:36Z</time>
      </trkpt>
      <trkpt lat="46.542898" lon="13.015388">
        <ele>644.743</ele>
        <time>2018-09-08T09:28:46Z</time>
      </trkpt>
      <trkpt lat="46.542961" lon="13.015391">
        <ele>644.764</ele>
        <time>2018-09-08T09:28:47Z</time>
      </trkpt>
      <trkpt lat="46.543083" lon="13.015394">
        <ele>644.710</ele>
        <time>2018-09-08T09:28:49Z</time>
      </trkpt>
      <trkpt lat="46.543519" lon="13.015347">
        <ele>645.108</ele>
        <time>2018-09-08T09:29:00Z</time>
      </trkpt>
      <trkpt lat="46.543962" lon="13.015235">
        <ele>646.198</ele>
        <time>2018-09-08T09:29:20Z</time>
      </trkpt>
      <trkpt lat="46.544295" lon="13.015141">
        <ele>648.060</ele>
        <time>2018-09-08T09:29:39Z</time>
      </trkpt>
      <trkpt lat="46.544572" lon="13.015049">
        <ele>650.988</ele>
        <time>2018-09-08T09:29:55Z</time>
      </trkpt>
      <trkpt lat="46.544867" lon="13.014990">
        <ele>653.377</ele>
        <time>2018-09-08T09:30:11Z</time>
      </trkpt>
      <trkpt lat="46.545169" lon="13.014953">
        <ele>655.721</ele>
        <time>2018-09-08T09:30:28Z</time>
      </trkpt>
      <trkpt lat="46.545418" lon="13.014838">
        <ele>657.646</ele>
        <time>2018-09-08T09:30:44Z</time>
      </trkpt>
      <trkpt lat="46.545693" lon="13.014754">
        <ele>659.134</ele>
        <time>2018-09-08T09:31:00Z</time>
      </trkpt>
      <trkpt lat="46.546068" lon="13.014644">
        <ele>661.536</ele>
        <time>2018-09-08T09:31:20Z</time>
      </trkpt>
      <trkpt lat="46.546506" lon="13.014504">
        <ele>662.961</ele>
        <time>2018-09-08T09:31:39Z</time>
      </trkpt>
      <trkpt lat="46.546895" lon="13.014373">
        <ele>667.221</ele>
        <time>2018-09-08T09:31:59Z</time>
      </trkpt>
      <trkpt lat="46.547263" lon="13.014276">
        <ele>673.513</ele>
        <time>2018-09-08T09:32:17Z</time>
      </trkpt>
      <trkpt lat="46.547648" lon="13.014153">
        <ele>676.908</ele>
        <time>2018-09-08T09:32:36Z</time>
      </trkpt>
      <trkpt lat="46.547981" lon="13.014044">
        <ele>678.380</ele>
        <time>2018-09-08T09:32:51Z</time>
      </trkpt>
      <trkpt lat="46.548282" lon="13.013965">
        <ele>680.732</ele>
        <time>2018-09-08T09:33:06Z</time>
      </trkpt>
      <trkpt lat="46.548622" lon="13.013870">
        <ele>682.680</ele>
        <time>2018-09-08T09:33:26Z</time>
      </trkpt>
      <trkpt lat="46.548937" lon="13.013777">
        <ele>685.029</ele>
        <time>2018-09-08T09:33:45Z</time>
      </trkpt>
      <trkpt lat="46.549298" lon="13.013660">
        <ele>688.953</ele>
        <time>2018-09-08T09:34:06Z</time>
      </trkpt>
      <trkpt lat="46.549637" lon="13.013552">
        <ele>693.778</ele>
        <time>2018-09-08T09:34:26Z</time>
      </trkpt>
      <trkpt lat="46.550002" lon="13.013449">
        <ele>697.576</ele>
        <time>2018-09-08T09:34:46Z</time>
      </trkpt>
      <trkpt lat="46.550273" lon="13.013366">
        <ele>698.598</ele>
        <time>2018-09-08T09:35:02Z</time>
      </trkpt>
      <trkpt lat="46.550287" lon="13.013370">
        <ele>698.541</ele>
        <time>2018-09-08T09:35:03Z</time>
      </trkpt>
      <trkpt lat="46.550312" lon="13.013359">
        <ele>698.581</ele>
        <time>2018-09-08T09:35:19Z</time>
      </trkpt>
      <trkpt lat="46.550289" lon="13.013351">
        <ele>699.009</ele>
        <time>2018-09-08T09:35:42Z</time>
      </trkpt>
      <trkpt lat="46.550306" lon="13.013332">
        <ele>699.008</ele>
        <time>2018-09-08T09:35:55Z</time>
      </trkpt>
      <trkpt lat="46.550320" lon="13.013329">
        <ele>698.028</ele>
        <time>2018-09-08T09:36:00Z</time>
      </trkpt>
      <trkpt lat="46.550517" lon="13.013274">
        <ele>701.990</ele>
        <time>2018-09-08T09:36:13Z</time>
      </trkpt>
      <trkpt lat="46.550902" lon="13.013180">
        <ele>708.628</ele>
        <time>2018-09-08T09:36:36Z</time>
      </trkpt>
      <trkpt lat="46.551253" lon="13.013118">
        <ele>711.087</ele>
        <time>2018-09-08T09:36:56Z</time>
      </trkpt>
      <trkpt lat="46.551583" lon="13.013056">
        <ele>711.591</ele>
        <time>2018-09-08T09:37:16Z</time>
      </trkpt>
      <trkpt lat="46.551936" lon="13.012985">
        <ele>714.896</ele>
        <time>2018-09-08T09:37:37Z</time>
      </trkpt>
      <trkpt lat="46.552227" lon="13.012918">
        <ele>718.284</ele>
        <time>2018-09-08T09:37:56Z</time>
      </trkpt>
      <trkpt lat="46.552513" lon="13.012857">
        <ele>719.646</ele>
        <time>2018-09-08T09:38:14Z</time>
      </trkpt>
      <trkpt lat="46.552838" lon="13.012869">
        <ele>724.036</ele>
        <time>2018-09-08T09:38:32Z</time>
      </trkpt>
      <trkpt lat="46.553134" lon="13.012868">
        <ele>728.317</ele>
        <time>2018-09-08T09:38:50Z</time>
      </trkpt>
      <trkpt lat="46.553472" lon="13.012886">
        <ele>731.718</ele>
        <time>2018-09-08T09:39:11Z</time>
      </trkpt>
      <trkpt lat="46.553764" lon="13.012887">
        <ele>734.108</ele>
        <time>2018-09-08T09:39:29Z</time>
      </trkpt>
      <trkpt lat="46.554072" lon="13.012893">
        <ele>737.487</ele>
        <time>2018-09-08T09:39:48Z</time>
      </trkpt>
      <trkpt lat="46.554365" lon="13.012822">
        <ele>737.459</ele>
        <time>2018-09-08T09:40:06Z</time>
      </trkpt>
      <trkpt lat="46.554633" lon="13.012633">
        <ele>740.357</ele>
        <time>2018-09-08T09:40:24Z</time>
      </trkpt>
      <trkpt lat="46.554973" lon="13.012393">
        <ele>741.326</ele>
        <time>2018-09-08T09:40:45Z</time>
      </trkpt>
      <trkpt lat="46.555305" lon="13.012179">
        <ele>742.220</ele>
        <time>2018-09-08T09:41:02Z</time>
      </trkpt>
      <trkpt lat="46.555558" lon="13.012052">
        <ele>744.245</ele>
        <time>2018-09-08T09:41:18Z</time>
      </trkpt>
      <trkpt lat="46.555804" lon="13.011926">
        <ele>748.063</ele>
        <time>2018-09-08T09:41:35Z</time>
      </trkpt>
      <trkpt lat="46.556022" lon="13.011816">
        <ele>750.945</ele>
        <time>2018-09-08T09:41:50Z</time>
      </trkpt>
      <trkpt lat="46.556268" lon="13.011709">
        <ele>753.825</ele>
        <time>2018-09-08T09:42:06Z</time>
      </trkpt>
      <trkpt lat="46.556494" lon="13.011599">
        <ele>757.626</ele>
        <time>2018-09-08T09:42:22Z</time>
      </trkpt>
      <trkpt lat="46.556770" lon="13.011448">
        <ele>760.008</ele>
        <time>2018-09-08T09:42:38Z</time>
      </trkpt>
      <trkpt lat="46.557076" lon="13.011300">
        <ele>762.908</ele>
        <time>2018-09-08T09:42:57Z</time>
      </trkpt>
      <trkpt lat="46.557390" lon="13.011234">
        <ele>765.366</ele>
        <time>2018-09-08T09:43:15Z</time>
      </trkpt>
      <trkpt lat="46.557585" lon="13.011249">
        <ele>770.198</ele>
        <time>2018-09-08T09:43:30Z</time>
      </trkpt>
      <trkpt lat="46.557597" lon="13.011254">
        <ele>770.696</ele>
        <time>2018-09-08T09:43:31Z</time>
      </trkpt>
      <trkpt lat="46.557610" lon="13.011256">
        <ele>771.165</ele>
        <time>2018-09-08T09:43:32Z</time>
      </trkpt>
      <trkpt lat="46.557624" lon="13.011259">
        <ele>771.679</ele>
        <time>2018-09-08T09:43:33Z</time>
      </trkpt>
      <trkpt lat="46.557638" lon="13.011261">
        <ele>772.034</ele>
        <time>2018-09-08T09:43:34Z</time>
      </trkpt>
      <trkpt lat="46.557652" lon="13.011263">
        <ele>772.582</ele>
        <time>2018-09-08T09:43:35Z</time>
      </trkpt>
      <trkpt lat="46.557666" lon="13.011266">
        <ele>773.014</ele>
        <time>2018-09-08T09:43:36Z</time>
      </trkpt>
      <trkpt lat="46.557737" lon="13.011284">
        <ele>775.454</ele>
        <time>2018-09-08T09:43:41Z</time>
      </trkpt>
      <trkpt lat="46.557764" lon="13.011297">
        <ele>775.956</ele>
        <time>2018-09-08T09:43:43Z</time>
      </trkpt>
      <trkpt lat="46.557779" lon="13.011301">
        <ele>775.911</ele>
        <time>2018-09-08T09:43:44Z</time>
      </trkpt>
      <trkpt lat="46.557796" lon="13.011304">
        <ele>775.408</ele>
        <time>2018-09-08T09:43:45Z</time>
      </trkpt>
      <trkpt lat="46.557981" lon="13.011330">
        <ele>776.859</ele>
        <time>2018-09-08T09:43:59Z</time>
      </trkpt>
      <trkpt lat="46.558192" lon="13.011368">
        <ele>776.851</ele>
        <time>2018-09-08T09:44:15Z</time>
      </trkpt>
      <trkpt lat="46.558432" lon="13.011376">
        <ele>776.449</ele>
        <time>2018-09-08T09:44:32Z</time>
      </trkpt>
      <trkpt lat="46.558664" lon="13.011361">
        <ele>778.818</ele>
        <time>2018-09-08T09:44:49Z</time>
      </trkpt>
      <trkpt lat="46.558909" lon="13.011260">
        <ele>780.232</ele>
        <time>2018-09-08T09:45:07Z</time>
      </trkpt>
      <trkpt lat="46.559188" lon="13.011136">
        <ele>782.117</ele>
        <time>2018-09-08T09:45:26Z</time>
      </trkpt>
      <trkpt lat="46.559460" lon="13.010961">
        <ele>785.555</ele>
        <time>2018-09-08T09:45:45Z</time>
      </trkpt>
      <trkpt lat="46.559659" lon="13.010660">
        <ele>786.937</ele>
        <time>2018-09-08T09:46:03Z</time>
      </trkpt>
      <trkpt lat="46.559838" lon="13.010373">
        <ele>789.835</ele>
        <time>2018-09-08T09:46:20Z</time>
      </trkpt>
      <trkpt lat="46.559896" lon="13.010278">
        <ele>791.386</ele>
        <time>2018-09-08T09:46:26Z</time>
      </trkpt>
      <trkpt lat="46.559904" lon="13.010266">
        <ele>791.314</ele>
        <time>2018-09-08T09:46:27Z</time>
      </trkpt>
      <trkpt lat="46.559912" lon="13.010248">
        <ele>791.308</ele>
        <time>2018-09-08T09:46:28Z</time>
      </trkpt>
      <trkpt lat="46.559921" lon="13.010233">
        <ele>791.347</ele>
        <time>2018-09-08T09:46:29Z</time>
      </trkpt>
      <trkpt lat="46.559932" lon="13.010219">
        <ele>791.349</ele>
        <time>2018-09-08T09:46:30Z</time>
      </trkpt>
      <trkpt lat="46.559942" lon="13.010203">
        <ele>791.367</ele>
        <time>2018-09-08T09:46:31Z</time>
      </trkpt>
      <trkpt lat="46.560195" lon="13.009958">
        <ele>792.786</ele>
        <time>2018-09-08T09:46:50Z</time>
      </trkpt>
      <trkpt lat="46.560464" lon="13.009836">
        <ele>793.750</ele>
        <time>2018-09-08T09:47:08Z</time>
      </trkpt>
      <trkpt lat="46.560767" lon="13.009741">
        <ele>795.115</ele>
        <time>2018-09-08T09:47:26Z</time>
      </trkpt>
      <trkpt lat="46.561061" lon="13.009653">
        <ele>796.153</ele>
        <time>2018-09-08T09:47:43Z</time>
      </trkpt>
      <trkpt lat="46.561149" lon="13.009623">
        <ele>797.585</ele>
        <time>2018-09-08T09:47:49Z</time>
      </trkpt>
      <trkpt lat="46.561212" lon="13.009629">
        <ele>799.477</ele>
        <time>2018-09-08T09:47:53Z</time>
      </trkpt>
      <trkpt lat="46.561225" lon="13.009615">
        <ele>799.961</ele>
        <time>2018-09-08T09:47:54Z</time>
      </trkpt>
      <trkpt lat="46.561237" lon="13.009604">
        <ele>800.427</ele>
        <time>2018-09-08T09:47:55Z</time>
      </trkpt>
      <trkpt lat="46.561251" lon="13.009593">
        <ele>800.908</ele>
        <time>2018-09-08T09:47:56Z</time>
      </trkpt>
      <trkpt lat="46.561263" lon="13.009584">
        <ele>800.921</ele>
        <time>2018-09-08T09:47:57Z</time>
      </trkpt>
      <trkpt lat="46.561276" lon="13.009580">
        <ele>801.443</ele>
        <time>2018-09-08T09:47:58Z</time>
      </trkpt>
      <trkpt lat="46.561289" lon="13.009581">
        <ele>801.841</ele>
        <time>2018-09-08T09:47:59Z</time>
      </trkpt>
      <trkpt lat="46.561301" lon="13.009584">
        <ele>802.340</ele>
        <time>2018-09-08T09:48:00Z</time>
      </trkpt>
      <trkpt lat="46.561314" lon="13.009583">
        <ele>802.814</ele>
        <time>2018-09-08T09:48:01Z</time>
      </trkpt>
      <trkpt lat="46.561326" lon="13.009582">
        <ele>803.329</ele>
        <time>2018-09-08T09:48:02Z</time>
      </trkpt>
      <trkpt lat="46.561340" lon="13.009581">
        <ele>803.847</ele>
        <time>2018-09-08T09:48:03Z</time>
      </trkpt>
      <trkpt lat="46.561351" lon="13.009576">
        <ele>803.839</ele>
        <time>2018-09-08T09:48:04Z</time>
      </trkpt>
      <trkpt lat="46.561359" lon="13.009561">
        <ele>804.297</ele>
        <time>2018-09-08T09:48:05Z</time>
      </trkpt>
      <trkpt lat="46.561369" lon="13.009544">
        <ele>804.723</ele>
        <time>2018-09-08T09:48:06Z</time>
      </trkpt>
      <trkpt lat="46.561380" lon="13.009531">
        <ele>805.225</ele>
        <time>2018-09-08T09:48:07Z</time>
      </trkpt>
      <trkpt lat="46.561544" lon="13.009472">
        <ele>810.008</ele>
        <time>2018-09-08T09:48:23Z</time>
      </trkpt>
      <trkpt lat="46.561686" lon="13.009367">
        <ele>811.983</ele>
        <time>2018-09-08T09:48:39Z</time>
      </trkpt>
      <trkpt lat="46.561790" lon="13.009213">
        <ele>812.935</ele>
        <time>2018-09-08T09:48:52Z</time>
      </trkpt>
      <trkpt lat="46.561799" lon="13.009202">
        <ele>812.993</ele>
        <time>2018-09-08T09:48:53Z</time>
      </trkpt>
      <trkpt lat="46.561806" lon="13.009186">
        <ele>812.922</ele>
        <time>2018-09-08T09:48:54Z</time>
      </trkpt>
      <trkpt lat="46.561983" lon="13.008902">
        <ele>812.436</ele>
        <time>2018-09-08T09:49:10Z</time>
      </trkpt>
      <trkpt lat="46.562007" lon="13.008859">
        <ele>811.951</ele>
        <time>2018-09-08T09:49:11Z</time>
      </trkpt>
      <trkpt lat="46.562140" lon="13.008676">
        <ele>809.019</ele>
        <time>2018-09-08T09:49:15Z</time>
      </trkpt>
      <trkpt lat="46.562192" lon="13.008672">
        <ele>808.631</ele>
        <time>2018-09-08T09:49:16Z</time>
      </trkpt>
      <trkpt lat="46.562238" lon="13.008699">
        <ele>808.134</ele>
        <time>2018-09-08T09:49:17Z</time>
      </trkpt>
      <trkpt lat="46.562275" lon="13.008736">
        <ele>808.155</ele>
        <time>2018-09-08T09:49:18Z</time>
      </trkpt>
      <trkpt lat="46.562305" lon="13.008769">
        <ele>808.610</ele>
        <time>2018-09-08T09:49:19Z</time>
      </trkpt>
      <trkpt lat="46.562331" lon="13.008796">
        <ele>808.608</ele>
        <time>2018-09-08T09:49:20Z</time>
      </trkpt>
      <trkpt lat="46.562529" lon="13.008998">
        <ele>810.577</ele>
        <time>2018-09-08T09:49:34Z</time>
      </trkpt>
      <trkpt lat="46.562764" lon="13.009200">
        <ele>813.449</ele>
        <time>2018-09-08T09:49:51Z</time>
      </trkpt>
      <trkpt lat="46.563074" lon="13.009308">
        <ele>817.247</ele>
        <time>2018-09-08T09:50:11Z</time>
      </trkpt>
      <trkpt lat="46.563325" lon="13.009272">
        <ele>820.676</ele>
        <time>2018-09-08T09:50:26Z</time>
      </trkpt>
      <trkpt lat="46.563682" lon="13.009034">
        <ele>825.440</ele>
        <time>2018-09-08T09:50:41Z</time>
      </trkpt>
      <trkpt lat="46.564114" lon="13.008807">
        <ele>827.835</ele>
        <time>2018-09-08T09:50:58Z</time>
      </trkpt>
      <trkpt lat="46.564540" lon="13.008536">
        <ele>829.243</ele>
        <time>2018-09-08T09:51:16Z</time>
      </trkpt>
      <trkpt lat="46.564914" lon="13.008376">
        <ele>830.275</ele>
        <time>2018-09-08T09:51:32Z</time>
      </trkpt>
      <trkpt lat="46.565346" lon="13.008259">
        <ele>830.761</ele>
        <time>2018-09-08T09:51:51Z</time>
      </trkpt>
      <trkpt lat="46.565692" lon="13.008132">
        <ele>831.221</ele>
        <time>2018-09-08T09:52:08Z</time>
      </trkpt>
      <trkpt lat="46.566186" lon="13.008048">
        <ele>831.613</ele>
        <time>2018-09-08T09:52:29Z</time>
      </trkpt>
      <trkpt lat="46.566653" lon="13.007994">
        <ele>831.208</ele>
        <time>2018-09-08T09:52:44Z</time>
      </trkpt>
      <trkpt lat="46.567118" lon="13.007941">
        <ele>831.230</ele>
        <time>2018-09-08T09:52:59Z</time>
      </trkpt>
      <trkpt lat="46.567851" lon="13.008013">
        <ele>831.292</ele>
        <time>2018-09-08T09:53:17Z</time>
      </trkpt>
      <trkpt lat="46.568262" lon="13.008070">
        <ele>830.740</ele>
        <time>2018-09-08T09:53:25Z</time>
      </trkpt>
      <trkpt lat="46.568309" lon="13.008088">
        <ele>830.729</ele>
        <time>2018-09-08T09:53:26Z</time>
      </trkpt>
      <trkpt lat="46.568899" lon="13.008489">
        <ele>831.273</ele>
        <time>2018-09-08T09:53:41Z</time>
      </trkpt>
      <trkpt lat="46.569759" lon="13.009138">
        <ele>830.288</ele>
        <time>2018-09-08T09:54:01Z</time>
      </trkpt>
      <trkpt lat="46.570608" lon="13.009917">
        <ele>827.866</ele>
        <time>2018-09-08T09:54:19Z</time>
      </trkpt>
      <trkpt lat="46.570660" lon="13.009952">
        <ele>827.868</ele>
        <time>2018-09-08T09:54:20Z</time>
      </trkpt>
      <trkpt lat="46.571490" lon="13.010192">
        <ele>826.392</ele>
        <time>2018-09-08T09:54:33Z</time>
      </trkpt>
      <trkpt lat="46.572494" lon="13.010079">
        <ele>825.973</ele>
        <time>2018-09-08T09:54:50Z</time>
      </trkpt>
      <trkpt lat="46.573501" lon="13.009835">
        <ele>825.920</ele>
        <time>2018-09-08T09:55:08Z</time>
      </trkpt>
      <trkpt lat="46.574249" lon="13.009580">
        <ele>824.908</ele>
        <time>2018-09-08T09:55:23Z</time>
      </trkpt>
      <trkpt lat="46.574363" lon="13.009594">
        <ele>824.923</ele>
        <time>2018-09-08T09:55:25Z</time>
      </trkpt>
      <trkpt lat="46.574420" lon="13.009609">
        <ele>824.455</ele>
        <time>2018-09-08T09:55:26Z</time>
      </trkpt>
      <trkpt lat="46.574475" lon="13.009634">
        <ele>824.473</ele>
        <time>2018-09-08T09:55:27Z</time>
      </trkpt>
      <trkpt lat="46.575081" lon="13.009962">
        <ele>823.992</ele>
        <time>2018-09-08T09:55:38Z</time>
      </trkpt>
      <trkpt lat="46.575140" lon="13.009977">
        <ele>823.946</ele>
        <time>2018-09-08T09:55:39Z</time>
      </trkpt>
      <trkpt lat="46.575202" lon="13.009983">
        <ele>823.591</ele>
        <time>2018-09-08T09:55:40Z</time>
      </trkpt>
      <trkpt lat="46.575264" lon="13.009979">
        <ele>823.549</ele>
        <time>2018-09-08T09:55:41Z</time>
      </trkpt>
      <trkpt lat="46.575323" lon="13.009963">
        <ele>823.081</ele>
        <time>2018-09-08T09:55:42Z</time>
      </trkpt>
      <trkpt lat="46.575379" lon="13.009933">
        <ele>823.089</ele>
        <time>2018-09-08T09:55:43Z</time>
      </trkpt>
      <trkpt lat="46.575430" lon="13.009891">
        <ele>823.006</ele>
        <time>2018-09-08T09:55:44Z</time>
      </trkpt>
      <trkpt lat="46.575475" lon="13.009839">
        <ele>823.026</ele>
        <time>2018-09-08T09:55:45Z</time>
      </trkpt>
      <trkpt lat="46.575514" lon="13.009778">
        <ele>823.008</ele>
        <time>2018-09-08T09:55:46Z</time>
      </trkpt>
      <trkpt lat="46.575549" lon="13.009708">
        <ele>823.072</ele>
        <time>2018-09-08T09:55:47Z</time>
      </trkpt>
      <trkpt lat="46.575579" lon="13.009631">
        <ele>823.084</ele>
        <time>2018-09-08T09:55:48Z</time>
      </trkpt>
      <trkpt lat="46.575608" lon="13.009557">
        <ele>823.012</ele>
        <time>2018-09-08T09:55:49Z</time>
      </trkpt>
      <trkpt lat="46.575638" lon="13.009482">
        <ele>822.561</ele>
        <time>2018-09-08T09:55:50Z</time>
      </trkpt>
      <trkpt lat="46.575666" lon="13.009405">
        <ele>822.055</ele>
        <time>2018-09-08T09:55:51Z</time>
      </trkpt>
      <trkpt lat="46.576158" lon="13.007994">
        <ele>821.520</ele>
        <time>2018-09-08T09:56:11Z</time>
      </trkpt>
      <trkpt lat="46.576493" lon="13.007187">
        <ele>823.018</ele>
        <time>2018-09-08T09:56:25Z</time>
      </trkpt>
      <trkpt lat="46.576553" lon="13.007109">
        <ele>823.010</ele>
        <time>2018-09-08T09:56:27Z</time>
      </trkpt>
      <trkpt lat="46.576587" lon="13.007076">
        <ele>823.075</ele>
        <time>2018-09-08T09:56:28Z</time>
      </trkpt>
      <trkpt lat="46.576773" lon="13.006945">
        <ele>823.528</ele>
        <time>2018-09-08T09:56:33Z</time>
      </trkpt>
      <trkpt lat="46.577281" lon="13.006814">
        <ele>824.420</ele>
        <time>2018-09-08T09:56:46Z</time>
      </trkpt>
      <trkpt lat="46.577757" lon="13.007017">
        <ele>828.308</ele>
        <time>2018-09-08T09:57:02Z</time>
      </trkpt>
      <trkpt lat="46.578170" lon="13.007188">
        <ele>833.111</ele>
        <time>2018-09-08T09:57:17Z</time>
      </trkpt>
      <trkpt lat="46.578653" lon="13.007438">
        <ele>834.083</ele>
        <time>2018-09-08T09:57:32Z</time>
      </trkpt>
      <trkpt lat="46.578862" lon="13.007562">
        <ele>834.091</ele>
        <time>2018-09-08T09:57:38Z</time>
      </trkpt>
      <trkpt lat="46.578897" lon="13.007599">
        <ele>834.050</ele>
        <time>2018-09-08T09:57:39Z</time>
      </trkpt>
      <trkpt lat="46.579060" lon="13.007780">
        <ele>833.164</ele>
        <time>2018-09-08T09:57:43Z</time>
      </trkpt>
      <trkpt lat="46.579163" lon="13.007858">
        <ele>832.199</ele>
        <time>2018-09-08T09:57:45Z</time>
      </trkpt>
      <trkpt lat="46.579626" lon="13.008093">
        <ele>830.217</ele>
        <time>2018-09-08T09:57:53Z</time>
      </trkpt>
      <trkpt lat="46.579684" lon="13.008101">
        <ele>830.259</ele>
        <time>2018-09-08T09:57:54Z</time>
      </trkpt>
      <trkpt lat="46.579743" lon="13.008098">
        <ele>830.224</ele>
        <time>2018-09-08T09:57:55Z</time>
      </trkpt>
      <trkpt lat="46.579799" lon="13.008085">
        <ele>829.704</ele>
        <time>2018-09-08T09:57:56Z</time>
      </trkpt>
      <trkpt lat="46.579855" lon="13.008065">
        <ele>829.714</ele>
        <time>2018-09-08T09:57:57Z</time>
      </trkpt>
      <trkpt lat="46.579915" lon="13.008039">
        <ele>829.708</ele>
        <time>2018-09-08T09:57:58Z</time>
      </trkpt>
      <trkpt lat="46.579972" lon="13.008011">
        <ele>829.246</ele>
        <time>2018-09-08T09:57:59Z</time>
      </trkpt>
      <trkpt lat="46.580522" lon="13.007381">
        <ele>827.388</ele>
        <time>2018-09-08T09:58:13Z</time>
      </trkpt>
      <trkpt lat="46.581087" lon="13.006437">
        <ele>825.936</ele>
        <time>2018-09-08T09:58:32Z</time>
      </trkpt>
      <trkpt lat="46.581599" lon="13.005636">
        <ele>825.445</ele>
        <time>2018-09-08T09:58:50Z</time>
      </trkpt>
      <trkpt lat="46.582025" lon="13.005008">
        <ele>826.329</ele>
        <time>2018-09-08T09:59:07Z</time>
      </trkpt>
      <trkpt lat="46.582408" lon="13.004335">
        <ele>829.234</ele>
        <time>2018-09-08T09:59:23Z</time>
      </trkpt>
      <trkpt lat="46.582426" lon="13.004304">
        <ele>831.632</ele>
        <time>2018-09-08T09:59:34Z</time>
      </trkpt>
      <trkpt lat="46.582427" lon="13.004287">
        <ele>831.674</ele>
        <time>2018-09-08T10:00:13Z</time>
      </trkpt>
      <trkpt lat="46.563193" lon="13.004572">
        <ele>901.817</ele>
        <time>2018-09-09T04:59:36Z</time>
      </trkpt>
      <trkpt lat="46.563212" lon="13.004468">
        <ele>903.387</ele>
        <time>2018-09-09T04:59:59Z</time>
      </trkpt>
      <trkpt lat="46.563286" lon="13.004343">
        <ele>903.315</ele>
        <time>2018-09-09T05:00:18Z</time>
      </trkpt>
      <trkpt lat="46.563322" lon="13.004273">
        <ele>905.208</ele>
        <time>2018-09-09T05:00:30Z</time>
      </trkpt>
      <trkpt lat="46.563337" lon="13.004268">
        <ele>905.715</ele>
        <time>2018-09-09T05:00:31Z</time>
      </trkpt>
      <trkpt lat="46.563417" lon="13.004308">
        <ele>906.647</ele>
        <time>2018-09-09T05:00:36Z</time>
      </trkpt>
      <trkpt lat="46.563445" lon="13.004300">
        <ele>906.615</ele>
        <time>2018-09-09T05:00:37Z</time>
      </trkpt>
      <trkpt lat="46.563472" lon="13.004293">
        <ele>906.610</ele>
        <time>2018-09-09T05:00:38Z</time>
      </trkpt>
      <trkpt lat="46.563502" lon="13.004289">
        <ele>906.694</ele>
        <time>2018-09-09T05:00:39Z</time>
      </trkpt>
      <trkpt lat="46.563915" lon="13.004193">
        <ele>908.526</ele>
        <time>2018-09-09T05:00:53Z</time>
      </trkpt>
      <trkpt lat="46.564269" lon="13.004123">
        <ele>904.255</ele>
        <time>2018-09-09T05:01:06Z</time>
      </trkpt>
      <trkpt lat="46.564666" lon="13.004170">
        <ele>903.340</ele>
        <time>2018-09-09T05:01:20Z</time>
      </trkpt>
      <trkpt lat="46.565033" lon="13.004295">
        <ele>901.371</ele>
        <time>2018-09-09T05:01:34Z</time>
      </trkpt>
      <trkpt lat="46.565385" lon="13.004349">
        <ele>899.941</ele>
        <time>2018-09-09T05:01:48Z</time>
      </trkpt>
      <trkpt lat="46.565973" lon="13.004189">
        <ele>896.015</ele>
        <time>2018-09-09T05:02:01Z</time>
      </trkpt>
      <trkpt lat="46.566031" lon="13.004157">
        <ele>895.108</ele>
        <time>2018-09-09T05:02:02Z</time>
      </trkpt>
      <trkpt lat="46.566089" lon="13.004114">
        <ele>893.641</ele>
        <time>2018-09-09T05:02:03Z</time>
      </trkpt>
      <trkpt lat="46.566150" lon="13.004063">
        <ele>892.713</ele>
        <time>2018-09-09T05:02:04Z</time>
      </trkpt>
      <trkpt lat="46.566215" lon="13.004001">
        <ele>891.721</ele>
        <time>2018-09-09T05:02:05Z</time>
      </trkpt>
      <trkpt lat="46.566293" lon="13.003939">
        <ele>890.316</ele>
        <time>2018-09-09T05:02:06Z</time>
      </trkpt>
      <trkpt lat="46.566388" lon="13.003891">
        <ele>888.830</ele>
        <time>2018-09-09T05:02:07Z</time>
      </trkpt>
      <trkpt lat="46.566496" lon="13.003863">
        <ele>887.912</ele>
        <time>2018-09-09T05:02:08Z</time>
      </trkpt>
      <trkpt lat="46.566615" lon="13.003855">
        <ele>886.441</ele>
        <time>2018-09-09T05:02:09Z</time>
      </trkpt>
      <trkpt lat="46.566735" lon="13.003854">
        <ele>885.056</ele>
        <time>2018-09-09T05:02:10Z</time>
      </trkpt>
      <trkpt lat="46.566850" lon="13.003838">
        <ele>883.531</ele>
        <time>2018-09-09T05:02:11Z</time>
      </trkpt>
      <trkpt lat="46.566965" lon="13.003793">
        <ele>882.161</ele>
        <time>2018-09-09T05:02:12Z</time>
      </trkpt>
      <trkpt lat="46.567082" lon="13.003724">
        <ele>880.207</ele>
        <time>2018-09-09T05:02:13Z</time>
      </trkpt>
      <trkpt lat="46.568072" lon="13.003171">
        <ele>862.908</ele>
        <time>2018-09-09T05:02:22Z</time>
      </trkpt>
      <trkpt lat="46.568663" lon="13.002765">
        <ele>850.947</ele>
        <time>2018-09-09T05:02:29Z</time>
      </trkpt>
      <trkpt lat="46.568720" lon="13.002745">
        <ele>849.479</ele>
        <time>2018-09-09T05:02:30Z</time>
      </trkpt>
      <trkpt lat="46.568771" lon="13.002757">
        <ele>848.537</ele>
        <time>2018-09-09T05:02:31Z</time>
      </trkpt>
      <trkpt lat="46.568807" lon="13.002809">
        <ele>848.032</ele>
        <time>2018-09-09T05:02:32Z</time>
      </trkpt>
      <trkpt lat="46.568819" lon="13.002889">
        <ele>847.056</ele>
        <time>2018-09-09T05:02:33Z</time>
      </trkpt>
      <trkpt lat="46.568803" lon="13.002979">
        <ele>846.188</ele>
        <time>2018-09-09T05:02:34Z</time>
      </trkpt>
      <trkpt lat="46.568762" lon="13.003071">
        <ele>844.687</ele>
        <time>2018-09-09T05:02:35Z</time>
      </trkpt>
      <trkpt lat="46.568713" lon="13.003169">
        <ele>843.222</ele>
        <time>2018-09-09T05:02:36Z</time>
      </trkpt>
      <trkpt lat="46.568145" lon="13.004319">
        <ele>825.969</ele>
        <time>2018-09-09T05:02:46Z</time>
      </trkpt>
      <trkpt lat="46.568070" lon="13.004413">
        <ele>824.404</ele>
        <time>2018-09-09T05:02:47Z</time>
      </trkpt>
      <trkpt lat="46.567787" lon="13.004729">
        <ele>820.624</ele>
        <time>2018-09-09T05:02:51Z</time>
      </trkpt>
      <trkpt lat="46.567740" lon="13.004827">
        <ele>819.608</ele>
        <time>2018-09-09T05:02:52Z</time>
      </trkpt>
      <trkpt lat="46.567707" lon="13.004935">
        <ele>819.130</ele>
        <time>2018-09-09T05:02:53Z</time>
      </trkpt>
      <trkpt lat="46.567688" lon="13.005049">
        <ele>819.172</ele>
        <time>2018-09-09T05:02:54Z</time>
      </trkpt>
      <trkpt lat="46.567680" lon="13.005159">
        <ele>818.770</ele>
        <time>2018-09-09T05:02:55Z</time>
      </trkpt>
      <trkpt lat="46.567677" lon="13.005264">
        <ele>818.765</ele>
        <time>2018-09-09T05:02:56Z</time>
      </trkpt>
      <trkpt lat="46.567739" lon="13.005940">
        <ele>817.269</ele>
        <time>2018-09-09T05:03:04Z</time>
      </trkpt>
      <trkpt lat="46.567761" lon="13.005989">
        <ele>816.721</ele>
        <time>2018-09-09T05:03:05Z</time>
      </trkpt>
      <trkpt lat="46.567789" lon="13.006036">
        <ele>816.770</ele>
        <time>2018-09-09T05:03:06Z</time>
      </trkpt>
      <trkpt lat="46.567818" lon="13.006074">
        <ele>816.755</ele>
        <time>2018-09-09T05:03:07Z</time>
      </trkpt>
      <trkpt lat="46.567847" lon="13.006109">
        <ele>816.713</ele>
        <time>2018-09-09T05:03:08Z</time>
      </trkpt>
      <trkpt lat="46.568067" lon="13.006481">
        <ele>818.743</ele>
        <time>2018-09-09T05:03:22Z</time>
      </trkpt>
      <trkpt lat="46.568365" lon="13.006990">
        <ele>821.107</ele>
        <time>2018-09-09T05:03:41Z</time>
      </trkpt>
      <trkpt lat="46.568580" lon="13.007390">
        <ele>823.508</ele>
        <time>2018-09-09T05:03:56Z</time>
      </trkpt>
      <trkpt lat="46.568939" lon="13.008019">
        <ele>825.465</ele>
        <time>2018-09-09T05:04:20Z</time>
      </trkpt>
      <trkpt lat="46.569164" lon="13.008409">
        <ele>825.917</ele>
        <time>2018-09-09T05:04:36Z</time>
      </trkpt>
      <trkpt lat="46.569173" lon="13.008433">
        <ele>825.955</ele>
        <time>2018-09-09T05:04:37Z</time>
      </trkpt>
      <trkpt lat="46.569182" lon="13.008450">
        <ele>826.380</ele>
        <time>2018-09-09T05:04:38Z</time>
      </trkpt>
      <trkpt lat="46.569203" lon="13.008515">
        <ele>826.884</ele>
        <time>2018-09-09T05:04:43Z</time>
      </trkpt>
      <trkpt lat="46.569204" lon="13.008523">
        <ele>826.896</ele>
        <time>2018-09-09T05:04:44Z</time>
      </trkpt>
      <trkpt lat="46.569334" lon="13.008739">
        <ele>828.315</ele>
        <time>2018-09-09T05:04:56Z</time>
      </trkpt>
      <trkpt lat="46.569825" lon="13.009162">
        <ele>827.820</ele>
        <time>2018-09-09T05:05:13Z</time>
      </trkpt>
      <trkpt lat="46.570547" lon="13.009838">
        <ele>826.817</ele>
        <time>2018-09-09T05:05:33Z</time>
      </trkpt>
      <trkpt lat="46.571338" lon="13.010174">
        <ele>823.587</ele>
        <time>2018-09-09T05:05:49Z</time>
      </trkpt>
      <trkpt lat="46.572367" lon="13.010080">
        <ele>821.515</ele>
        <time>2018-09-09T05:06:09Z</time>
      </trkpt>
      <trkpt lat="46.573265" lon="13.009903">
        <ele>822.008</ele>
        <time>2018-09-09T05:06:30Z</time>
      </trkpt>
      <trkpt lat="46.574024" lon="13.009588">
        <ele>822.515</ele>
        <time>2018-09-09T05:06:49Z</time>
      </trkpt>
      <trkpt lat="46.574108" lon="13.009558">
        <ele>822.547</ele>
        <time>2018-09-09T05:06:51Z</time>
      </trkpt>
      <trkpt lat="46.574153" lon="13.009550">
        <ele>822.535</ele>
        <time>2018-09-09T05:06:52Z</time>
      </trkpt>
      <trkpt lat="46.574199" lon="13.009549">
        <ele>822.550</ele>
        <time>2018-09-09T05:06:53Z</time>
      </trkpt>
      <trkpt lat="46.574496" lon="13.009615">
        <ele>822.074</ele>
        <time>2018-09-09T05:06:59Z</time>
      </trkpt>
      <trkpt lat="46.575176" lon="13.009973">
        <ele>818.726</ele>
        <time>2018-09-09T05:07:13Z</time>
      </trkpt>
      <trkpt lat="46.575229" lon="13.009977">
        <ele>818.715</ele>
        <time>2018-09-09T05:07:14Z</time>
      </trkpt>
      <trkpt lat="46.575282" lon="13.009974">
        <ele>818.210</ele>
        <time>2018-09-09T05:07:15Z</time>
      </trkpt>
      <trkpt lat="46.575333" lon="13.009960">
        <ele>818.279</ele>
        <time>2018-09-09T05:07:16Z</time>
      </trkpt>
      <trkpt lat="46.575380" lon="13.009937">
        <ele>818.205</ele>
        <time>2018-09-09T05:07:17Z</time>
      </trkpt>
      <trkpt lat="46.575425" lon="13.009908">
        <ele>818.225</ele>
        <time>2018-09-09T05:07:18Z</time>
      </trkpt>
      <trkpt lat="46.575466" lon="13.009871">
        <ele>818.208</ele>
        <time>2018-09-09T05:07:19Z</time>
      </trkpt>
      <trkpt lat="46.575504" lon="13.009829">
        <ele>818.261</ele>
        <time>2018-09-09T05:07:20Z</time>
      </trkpt>
      <trkpt lat="46.575538" lon="13.009781">
        <ele>818.293</ele>
        <time>2018-09-09T05:07:21Z</time>
      </trkpt>
      <trkpt lat="46.575568" lon="13.009726">
        <ele>818.291</ele>
        <time>2018-09-09T05:07:22Z</time>
      </trkpt>
      <trkpt lat="46.575593" lon="13.009669">
        <ele>817.766</ele>
        <time>2018-09-09T05:07:23Z</time>
      </trkpt>
      <trkpt lat="46.575616" lon="13.009613">
        <ele>817.740</ele>
        <time>2018-09-09T05:07:24Z</time>
      </trkpt>
      <trkpt lat="46.576016" lon="13.008490">
        <ele>816.712</ele>
        <time>2018-09-09T05:07:45Z</time>
      </trkpt>
      <trkpt lat="46.576453" lon="13.007326">
        <ele>816.781</ele>
        <time>2018-09-09T05:08:08Z</time>
      </trkpt>
      <trkpt lat="46.576881" lon="13.006925">
        <ele>818.266</ele>
        <time>2018-09-09T05:08:23Z</time>
      </trkpt>
      <trkpt lat="46.577426" lon="13.006877">
        <ele>821.583</ele>
        <time>2018-09-09T05:08:41Z</time>
      </trkpt>
      <trkpt lat="46.577776" lon="13.007058">
        <ele>821.125</ele>
        <time>2018-09-09T05:08:55Z</time>
      </trkpt>
      <trkpt lat="46.578111" lon="13.007233">
        <ele>821.117</ele>
        <time>2018-09-09T05:09:08Z</time>
      </trkpt>
      <trkpt lat="46.578455" lon="13.007425">
        <ele>819.608</ele>
        <time>2018-09-09T05:09:21Z</time>
      </trkpt>
      <trkpt lat="46.579012" lon="13.007782">
        <ele>819.182</ele>
        <time>2018-09-09T05:09:40Z</time>
      </trkpt>
      <trkpt lat="46.579649" lon="13.008148">
        <ele>818.224</ele>
        <time>2018-09-09T05:09:53Z</time>
      </trkpt>
      <trkpt lat="46.579700" lon="13.008154">
        <ele>818.282</ele>
        <time>2018-09-09T05:09:54Z</time>
      </trkpt>
      <trkpt lat="46.579751" lon="13.008150">
        <ele>818.237</ele>
        <time>2018-09-09T05:09:55Z</time>
      </trkpt>
      <trkpt lat="46.579847" lon="13.008125">
        <ele>818.281</ele>
        <time>2018-09-09T05:09:57Z</time>
      </trkpt>
      <trkpt lat="46.579892" lon="13.008104">
        <ele>818.273</ele>
        <time>2018-09-09T05:09:58Z</time>
      </trkpt>
      <trkpt lat="46.580435" lon="13.007546">
        <ele>820.612</ele>
        <time>2018-09-09T05:10:14Z</time>
      </trkpt>
      <trkpt lat="46.580953" lon="13.006678">
        <ele>823.967</ele>
        <time>2018-09-09T05:10:36Z</time>
      </trkpt>
      <trkpt lat="46.581223" lon="13.006248">
        <ele>824.417</ele>
        <time>2018-09-09T05:10:47Z</time>
      </trkpt>
      <trkpt lat="46.581250" lon="13.006244">
        <ele>824.487</ele>
        <time>2018-09-09T05:10:48Z</time>
      </trkpt>
      <trkpt lat="46.581272" lon="13.006245">
        <ele>824.415</ele>
        <time>2018-09-09T05:10:49Z</time>
      </trkpt>
      <trkpt lat="46.581283" lon="13.006245">
        <ele>824.408</ele>
        <time>2018-09-09T05:10:50Z</time>
      </trkpt>
      <trkpt lat="46.581300" lon="13.006244">
        <ele>825.495</ele>
        <time>2018-09-09T05:11:00Z</time>
      </trkpt>
      <trkpt lat="46.581318" lon="13.006273">
        <ele>827.877</ele>
        <time>2018-09-09T05:11:34Z</time>
      </trkpt>
      <trkpt lat="46.581324" lon="13.006276">
        <ele>829.735</ele>
        <time>2018-09-09T05:11:58Z</time>
      </trkpt>
      <trkpt lat="46.581305" lon="13.006293">
        <ele>831.690</ele>
        <time>2018-09-09T05:12:20Z</time>
      </trkpt>
      <trkpt lat="46.581302" lon="13.006306">
        <ele>830.714</ele>
        <time>2018-09-09T05:12:43Z</time>
      </trkpt>
      <trkpt lat="46.581292" lon="13.006300">
        <ele>831.256</ele>
        <time>2018-09-09T05:13:12Z</time>
      </trkpt>
      <trkpt lat="46.581290" lon="13.006308">
        <ele>831.285</ele>
        <time>2018-09-09T05:13:48Z</time>
      </trkpt>
      <trkpt lat="46.581291" lon="13.006296">
        <ele>831.680</ele>
        <time>2018-09-09T05:14:10Z</time>
      </trkpt>
      <trkpt lat="46.581266" lon="13.006286">
        <ele>835.085</ele>
        <time>2018-09-09T05:14:44Z</time>
      </trkpt>
      <trkpt lat="46.581265" lon="13.006271">
        <ele>834.589</ele>
        <time>2018-09-09T05:15:12Z</time>
      </trkpt>
      <trkpt lat="46.581262" lon="13.006261">
        <ele>834.517</ele>
        <time>2018-09-09T05:15:13Z</time>
      </trkpt>
      <trkpt lat="46.581259" lon="13.006248">
        <ele>834.508</ele>
        <time>2018-09-09T05:15:14Z</time>
      </trkpt>
      <trkpt lat="46.581254" lon="13.006189">
        <ele>832.172</ele>
        <time>2018-09-09T05:15:21Z</time>
      </trkpt>
      <trkpt lat="46.581262" lon="13.006168">
        <ele>831.684</ele>
        <time>2018-09-09T05:15:22Z</time>
      </trkpt>
      <trkpt lat="46.581272" lon="13.006149">
        <ele>831.242</ele>
        <time>2018-09-09T05:15:23Z</time>
      </trkpt>
      <trkpt lat="46.581285" lon="13.006117">
        <ele>830.737</ele>
        <time>2018-09-09T05:15:24Z</time>
      </trkpt>
      <trkpt lat="46.581301" lon="13.006087">
        <ele>830.751</ele>
        <time>2018-09-09T05:15:25Z</time>
      </trkpt>
      <trkpt lat="46.581318" lon="13.006055">
        <ele>830.293</ele>
        <time>2018-09-09T05:15:26Z</time>
      </trkpt>
      <trkpt lat="46.581334" lon="13.006022">
        <ele>830.272</ele>
        <time>2018-09-09T05:15:27Z</time>
      </trkpt>
      <trkpt lat="46.581593" lon="13.005629">
        <ele>828.397</ele>
        <time>2018-09-09T05:15:40Z</time>
      </trkpt>
      <trkpt lat="46.582022" lon="13.004994">
        <ele>827.836</ele>
        <time>2018-09-09T05:15:58Z</time>
      </trkpt>
      <trkpt lat="46.582461" lon="13.004206">
        <ele>827.317</ele>
        <time>2018-09-09T05:16:18Z</time>
      </trkpt>
      <trkpt lat="46.582845" lon="13.003485">
        <ele>827.318</ele>
        <time>2018-09-09T05:16:36Z</time>
      </trkpt>
      <trkpt lat="46.583306" lon="13.002541">
        <ele>827.308</ele>
        <time>2018-09-09T05:16:59Z</time>
      </trkpt>
      <trkpt lat="46.583712" lon="13.001701">
        <ele>828.377</ele>
        <time>2018-09-09T05:17:20Z</time>
      </trkpt>
      <trkpt lat="46.584106" lon="13.000867">
        <ele>829.249</ele>
        <time>2018-09-09T05:17:41Z</time>
      </trkpt>
      <trkpt lat="46.584322" lon="13.000026">
        <ele>828.747</ele>
        <time>2018-09-09T05:18:00Z</time>
      </trkpt>
      <trkpt lat="46.584464" lon="12.999144">
        <ele>830.252</ele>
        <time>2018-09-09T05:18:19Z</time>
      </trkpt>
      <trkpt lat="46.584648" lon="12.998310">
        <ele>830.296</ele>
        <time>2018-09-09T05:18:37Z</time>
      </trkpt>
      <trkpt lat="46.584960" lon="12.997528">
        <ele>832.168</ele>
        <time>2018-09-09T05:18:57Z</time>
      </trkpt>
      <trkpt lat="46.585319" lon="12.996882">
        <ele>832.637</ele>
        <time>2018-09-09T05:19:17Z</time>
      </trkpt>
      <trkpt lat="46.585631" lon="12.996194">
        <ele>829.772</ele>
        <time>2018-09-09T05:19:39Z</time>
      </trkpt>
      <trkpt lat="46.585888" lon="12.995624">
        <ele>827.833</ele>
        <time>2018-09-09T05:19:58Z</time>
      </trkpt>
      <trkpt lat="46.586082" lon="12.995077">
        <ele>827.823</ele>
        <time>2018-09-09T05:20:16Z</time>
      </trkpt>
      <trkpt lat="46.586230" lon="12.994535">
        <ele>829.215</ele>
        <time>2018-09-09T05:20:34Z</time>
      </trkpt>
      <trkpt lat="46.586477" lon="12.994146">
        <ele>826.808</ele>
        <time>2018-09-09T05:20:51Z</time>
      </trkpt>
      <trkpt lat="46.586799" lon="12.993624">
        <ele>831.237</ele>
        <time>2018-09-09T05:21:12Z</time>
      </trkpt>
      <trkpt lat="46.586886" lon="12.993133">
        <ele>836.049</ele>
        <time>2018-09-09T05:21:28Z</time>
      </trkpt>
      <trkpt lat="46.586873" lon="12.992506">
        <ele>843.257</ele>
        <time>2018-09-09T05:21:47Z</time>
      </trkpt>
      <trkpt lat="46.586825" lon="12.991970">
        <ele>846.582</ele>
        <time>2018-09-09T05:22:04Z</time>
      </trkpt>
      <trkpt lat="46.586772" lon="12.991433">
        <ele>849.436</ele>
        <time>2018-09-09T05:22:21Z</time>
      </trkpt>
      <trkpt lat="46.586733" lon="12.990865">
        <ele>853.318</ele>
        <time>2018-09-09T05:22:39Z</time>
      </trkpt>
      <trkpt lat="46.586781" lon="12.990403">
        <ele>854.717</ele>
        <time>2018-09-09T05:22:55Z</time>
      </trkpt>
      <trkpt lat="46.586803" lon="12.989730">
        <ele>855.712</ele>
        <time>2018-09-09T05:23:16Z</time>
      </trkpt>
      <trkpt lat="46.586814" lon="12.989122">
        <ele>859.591</ele>
        <time>2018-09-09T05:23:35Z</time>
      </trkpt>
      <trkpt lat="46.586771" lon="12.988467">
        <ele>863.881</ele>
        <time>2018-09-09T05:23:55Z</time>
      </trkpt>
      <trkpt lat="46.586751" lon="12.987878">
        <ele>863.419</ele>
        <time>2018-09-09T05:24:13Z</time>
      </trkpt>
      <trkpt lat="46.586719" lon="12.987325">
        <ele>865.308</ele>
        <time>2018-09-09T05:24:32Z</time>
      </trkpt>
      <trkpt lat="46.586690" lon="12.986791">
        <ele>867.263</ele>
        <time>2018-09-09T05:24:51Z</time>
      </trkpt>
      <trkpt lat="46.586656" lon="12.986315">
        <ele>870.685</ele>
        <time>2018-09-09T05:25:08Z</time>
      </trkpt>
      <trkpt lat="46.586650" lon="12.985843">
        <ele>872.043</ele>
        <time>2018-09-09T05:25:24Z</time>
      </trkpt>
      <trkpt lat="46.586658" lon="12.985276">
        <ele>872.588</ele>
        <time>2018-09-09T05:25:44Z</time>
      </trkpt>
      <trkpt lat="46.586702" lon="12.984842">
        <ele>873.592</ele>
        <time>2018-09-09T05:25:59Z</time>
      </trkpt>
      <trkpt lat="46.586757" lon="12.984446">
        <ele>873.094</ele>
        <time>2018-09-09T05:26:13Z</time>
      </trkpt>
      <trkpt lat="46.586889" lon="12.983978">
        <ele>870.663</ele>
        <time>2018-09-09T05:26:31Z</time>
      </trkpt>
      <trkpt lat="46.587004" lon="12.983528">
        <ele>869.128</ele>
        <time>2018-09-09T05:26:49Z</time>
      </trkpt>
      <trkpt lat="46.586991" lon="12.983484">
        <ele>875.477</ele>
        <time>2018-09-09T05:27:02Z</time>
      </trkpt>
      <trkpt lat="46.586979" lon="12.983484">
        <ele>877.861</ele>
        <time>2018-09-09T05:27:31Z</time>
      </trkpt>
      <trkpt lat="46.586963" lon="12.983501">
        <ele>883.127</ele>
        <time>2018-09-09T05:27:53Z</time>
      </trkpt>
      <trkpt lat="46.586968" lon="12.983312">
        <ele>883.108</ele>
        <time>2018-09-09T05:28:06Z</time>
      </trkpt>
      <trkpt lat="46.586912" lon="12.983052">
        <ele>882.631</ele>
        <time>2018-09-09T05:28:23Z</time>
      </trkpt>
      <trkpt lat="46.586831" lon="12.982827">
        <ele>882.143</ele>
        <time>2018-09-09T05:28:37Z</time>
      </trkpt>
      <trkpt lat="46.586808" lon="12.982467">
        <ele>880.731</ele>
        <time>2018-09-09T05:28:52Z</time>
      </trkpt>
      <trkpt lat="46.586759" lon="12.982087">
        <ele>878.786</ele>
        <time>2018-09-09T05:29:08Z</time>
      </trkpt>
      <trkpt lat="46.586680" lon="12.981502">
        <ele>876.320</ele>
        <time>2018-09-09T05:29:29Z</time>
      </trkpt>
      <trkpt lat="46.586732" lon="12.980776">
        <ele>878.382</ele>
        <time>2018-09-09T05:29:53Z</time>
      </trkpt>
      <trkpt lat="46.586746" lon="12.980106">
        <ele>882.171</ele>
        <time>2018-09-09T05:30:13Z</time>
      </trkpt>
      <trkpt lat="46.586740" lon="12.979557">
        <ele>888.886</ele>
        <time>2018-09-09T05:30:33Z</time>
      </trkpt>
      <trkpt lat="46.586696" lon="12.979109">
        <ele>895.119</ele>
        <time>2018-09-09T05:30:49Z</time>
      </trkpt>
      <trkpt lat="46.586667" lon="12.978583">
        <ele>900.409</ele>
        <time>2018-09-09T05:31:07Z</time>
      </trkpt>
      <trkpt lat="46.586756" lon="12.977965">
        <ele>902.319</ele>
        <time>2018-09-09T05:31:28Z</time>
      </trkpt>
      <trkpt lat="46.586860" lon="12.977337">
        <ele>903.708</ele>
        <time>2018-09-09T05:31:49Z</time>
      </trkpt>
      <trkpt lat="46.586963" lon="12.976831">
        <ele>899.925</ele>
        <time>2018-09-09T05:31:59Z</time>
      </trkpt>
      <trkpt lat="46.587118" lon="12.976202">
        <ele>891.237</ele>
        <time>2018-09-09T05:32:12Z</time>
      </trkpt>
      <trkpt lat="46.587887" lon="12.975322">
        <ele>900.495</ele>
        <time>2018-09-09T05:32:32Z</time>
      </trkpt>
      <trkpt lat="46.588082" lon="12.974923">
        <ele>905.260</ele>
        <time>2018-09-09T05:32:50Z</time>
      </trkpt>
      <trkpt lat="46.588313" lon="12.974536">
        <ele>909.054</ele>
        <time>2018-09-09T05:33:08Z</time>
      </trkpt>
      <trkpt lat="46.588382" lon="12.974204">
        <ele>908.156</ele>
        <time>2018-09-09T05:33:27Z</time>
      </trkpt>
      <trkpt lat="46.588312" lon="12.973704">
        <ele>904.735</ele>
        <time>2018-09-09T05:33:41Z</time>
      </trkpt>
      <trkpt lat="46.588300" lon="12.973656">
        <ele>904.290</ele>
        <time>2018-09-09T05:33:42Z</time>
      </trkpt>
      <trkpt lat="46.588292" lon="12.973611">
        <ele>903.746</ele>
        <time>2018-09-09T05:33:43Z</time>
      </trkpt>
      <trkpt lat="46.588342" lon="12.972690">
        <ele>899.988</ele>
        <time>2018-09-09T05:34:02Z</time>
      </trkpt>
      <trkpt lat="46.588445" lon="12.971734">
        <ele>892.216</ele>
        <time>2018-09-09T05:34:21Z</time>
      </trkpt>
      <trkpt lat="46.588500" lon="12.971687">
        <ele>891.208</ele>
        <time>2018-09-09T05:34:22Z</time>
      </trkpt>
      <trkpt lat="46.589234" lon="12.971778">
        <ele>909.528</ele>
        <time>2018-09-09T05:34:36Z</time>
      </trkpt>
      <trkpt lat="46.589697" lon="12.972418">
        <ele>919.190</ele>
        <time>2018-09-09T05:34:51Z</time>
      </trkpt>
      <trkpt lat="46.589865" lon="12.971994">
        <ele>919.198</ele>
        <time>2018-09-09T05:35:09Z</time>
      </trkpt>
      <trkpt lat="46.590084" lon="12.971531">
        <ele>920.133</ele>
        <time>2018-09-09T05:35:29Z</time>
      </trkpt>
      <trkpt lat="46.590307" lon="12.971156">
        <ele>922.077</ele>
        <time>2018-09-09T05:35:47Z</time>
      </trkpt>
      <trkpt lat="46.590473" lon="12.970723">
        <ele>925.419</ele>
        <time>2018-09-09T05:36:06Z</time>
      </trkpt>
      <trkpt lat="46.590504" lon="12.970317">
        <ele>927.858</ele>
        <time>2018-09-09T05:36:23Z</time>
      </trkpt>
      <trkpt lat="46.590425" lon="12.969898">
        <ele>929.763</ele>
        <time>2018-09-09T05:36:41Z</time>
      </trkpt>
      <trkpt lat="46.590368" lon="12.969482">
        <ele>931.197</ele>
        <time>2018-09-09T05:36:58Z</time>
      </trkpt>
      <trkpt lat="46.590447" lon="12.969036">
        <ele>933.523</ele>
        <time>2018-09-09T05:37:17Z</time>
      </trkpt>
      <trkpt lat="46.590656" lon="12.968722">
        <ele>938.325</ele>
        <time>2018-09-09T05:37:35Z</time>
      </trkpt>
      <trkpt lat="46.590925" lon="12.968368">
        <ele>941.208</ele>
        <time>2018-09-09T05:37:56Z</time>
      </trkpt>
      <trkpt lat="46.591100" lon="12.967991">
        <ele>943.123</ele>
        <time>2018-09-09T05:38:14Z</time>
      </trkpt>
      <trkpt lat="46.591248" lon="12.967585">
        <ele>944.155</ele>
        <time>2018-09-09T05:38:32Z</time>
      </trkpt>
      <trkpt lat="46.591377" lon="12.967118">
        <ele>946.063</ele>
        <time>2018-09-09T05:38:52Z</time>
      </trkpt>
      <trkpt lat="46.591482" lon="12.966677">
        <ele>947.598</ele>
        <time>2018-09-09T05:39:11Z</time>
      </trkpt>
      <trkpt lat="46.591558" lon="12.966258">
        <ele>950.462</ele>
        <time>2018-09-09T05:39:28Z</time>
      </trkpt>
      <trkpt lat="46.591639" lon="12.965839">
        <ele>954.214</ele>
        <time>2018-09-09T05:39:45Z</time>
      </trkpt>
      <trkpt lat="46.591695" lon="12.965407">
        <ele>954.263</ele>
        <time>2018-09-09T05:40:02Z</time>
      </trkpt>
      <trkpt lat="46.591721" lon="12.964866">
        <ele>954.798</ele>
        <time>2018-09-09T05:40:23Z</time>
      </trkpt>
      <trkpt lat="46.591799" lon="12.964466">
        <ele>956.137</ele>
        <time>2018-09-09T05:40:39Z</time>
      </trkpt>
      <trkpt lat="46.591828" lon="12.964050">
        <ele>960.049</ele>
        <time>2018-09-09T05:40:56Z</time>
      </trkpt>
      <trkpt lat="46.591837" lon="12.963611">
        <ele>961.913</ele>
        <time>2018-09-09T05:41:13Z</time>
      </trkpt>
      <trkpt lat="46.591914" lon="12.963170">
        <ele>963.308</ele>
        <time>2018-09-09T05:41:31Z</time>
      </trkpt>
      <trkpt lat="46.591950" lon="12.963006">
        <ele>962.917</ele>
        <time>2018-09-09T05:41:38Z</time>
      </trkpt>
      <trkpt lat="46.591953" lon="12.962981">
        <ele>962.999</ele>
        <time>2018-09-09T05:41:39Z</time>
      </trkpt>
      <trkpt lat="46.591959" lon="12.962956">
        <ele>962.967</ele>
        <time>2018-09-09T05:41:40Z</time>
      </trkpt>
      <trkpt lat="46.592024" lon="12.962613">
        <ele>965.362</ele>
        <time>2018-09-09T05:41:55Z</time>
      </trkpt>
      <trkpt lat="46.592086" lon="12.962268">
        <ele>967.296</ele>
        <time>2018-09-09T05:42:10Z</time>
      </trkpt>
      <trkpt lat="46.592207" lon="12.961851">
        <ele>970.538</ele>
        <time>2018-09-09T05:42:28Z</time>
      </trkpt>
      <trkpt lat="46.592311" lon="12.961528">
        <ele>972.597</ele>
        <time>2018-09-09T05:42:43Z</time>
      </trkpt>
      <trkpt lat="46.592388" lon="12.961178">
        <ele>974.472</ele>
        <time>2018-09-09T05:42:58Z</time>
      </trkpt>
      <trkpt lat="46.592453" lon="12.960842">
        <ele>974.935</ele>
        <time>2018-09-09T05:43:12Z</time>
      </trkpt>
      <trkpt lat="46.592550" lon="12.960458">
        <ele>978.286</ele>
        <time>2018-09-09T05:43:28Z</time>
      </trkpt>
      <trkpt lat="46.592584" lon="12.959963">
        <ele>980.614</ele>
        <time>2018-09-09T05:43:47Z</time>
      </trkpt>
      <trkpt lat="46.592646" lon="12.959465">
        <ele>982.608</ele>
        <time>2018-09-09T05:44:06Z</time>
      </trkpt>
      <trkpt lat="46.592652" lon="12.959060">
        <ele>984.057</ele>
        <time>2018-09-09T05:44:21Z</time>
      </trkpt>
      <trkpt lat="46.592569" lon="12.958666">
        <ele>985.089</ele>
        <time>2018-09-09T05:44:39Z</time>
      </trkpt>
      <trkpt lat="46.592475" lon="12.958237">
        <ele>987.487</ele>
        <time>2018-09-09T05:44:58Z</time>
      </trkpt>
      <trkpt lat="46.592493" lon="12.957757">
        <ele>988.882</ele>
        <time>2018-09-09T05:45:17Z</time>
      </trkpt>
      <trkpt lat="46.592501" lon="12.957681">
        <ele>988.376</ele>
        <time>2018-09-09T05:45:20Z</time>
      </trkpt>
      <trkpt lat="46.592505" lon="12.957661">
        <ele>988.388</ele>
        <time>2018-09-09T05:45:21Z</time>
      </trkpt>
      <trkpt lat="46.592542" lon="12.957173">
        <ele>989.847</ele>
        <time>2018-09-09T05:45:41Z</time>
      </trkpt>
      <trkpt lat="46.592593" lon="12.956753">
        <ele>994.682</ele>
        <time>2018-09-09T05:45:59Z</time>
      </trkpt>
      <trkpt lat="46.592632" lon="12.956266">
        <ele>997.551</ele>
        <time>2018-09-09T05:46:19Z</time>
      </trkpt>
      <trkpt lat="46.592654" lon="12.955863">
        <ele>1001.801</ele>
        <time>2018-09-09T05:46:36Z</time>
      </trkpt>
      <trkpt lat="46.592667" lon="12.955407">
        <ele>1002.711</ele>
        <time>2018-09-09T05:46:55Z</time>
      </trkpt>
      <trkpt lat="46.592791" lon="12.955229">
        <ele>1003.708</ele>
        <time>2018-09-09T05:47:06Z</time>
      </trkpt>
      <trkpt lat="46.592808" lon="12.955234">
        <ele>1003.759</ele>
        <time>2018-09-09T05:47:07Z</time>
      </trkpt>
      <trkpt lat="46.592822" lon="12.955236">
        <ele>1004.261</ele>
        <time>2018-09-09T05:47:08Z</time>
      </trkpt>
      <trkpt lat="46.592828" lon="12.955280">
        <ele>1003.289</ele>
        <time>2018-09-09T05:47:19Z</time>
      </trkpt>
      <trkpt lat="46.592842" lon="12.955263">
        <ele>999.954</ele>
        <time>2018-09-09T05:47:29Z</time>
      </trkpt>
      <trkpt lat="46.592820" lon="12.955221">
        <ele>1000.888</ele>
        <time>2018-09-09T05:47:55Z</time>
      </trkpt>
      <trkpt lat="46.592841" lon="12.955254">
        <ele>1002.330</ele>
        <time>2018-09-09T05:48:28Z</time>
      </trkpt>
      <trkpt lat="46.592869" lon="12.955191">
        <ele>1002.369</ele>
        <time>2018-09-09T05:48:57Z</time>
      </trkpt>
      <trkpt lat="46.592798" lon="12.955180">
        <ele>1018.194</ele>
        <time>2018-09-09T05:49:38Z</time>
      </trkpt>
      <trkpt lat="46.592803" lon="12.955239">
        <ele>1015.723</ele>
        <time>2018-09-09T05:50:18Z</time>
      </trkpt>
      <trkpt lat="46.592789" lon="12.955151">
        <ele>1012.483</ele>
        <time>2018-09-09T05:50:45Z</time>
      </trkpt>
      <trkpt lat="46.592801" lon="12.955224">
        <ele>1012.811</ele>
        <time>2018-09-09T05:51:18Z</time>
      </trkpt>
      <trkpt lat="46.592838" lon="12.955206">
        <ele>1010.908</ele>
        <time>2018-09-09T05:51:44Z</time>
      </trkpt>
      <trkpt lat="46.592872" lon="12.955222">
        <ele>1004.766</ele>
        <time>2018-09-09T05:52:09Z</time>
      </trkpt>
      <trkpt lat="46.592842" lon="12.955239">
        <ele>1004.718</ele>
        <time>2018-09-09T05:52:34Z</time>
      </trkpt>
      <trkpt lat="46.592850" lon="12.955272">
        <ele>1009.556</ele>
        <time>2018-09-09T05:52:54Z</time>
      </trkpt>
      <trkpt lat="46.592857" lon="12.955286">
        <ele>1009.031</ele>
        <time>2018-09-09T05:52:57Z</time>
      </trkpt>
      <trkpt lat="46.592865" lon="12.955302">
        <ele>1009.085</ele>
        <time>2018-09-09T05:52:58Z</time>
      </trkpt>
      <trkpt lat="46.592874" lon="12.955314">
        <ele>1009.577</ele>
        <time>2018-09-09T05:52:59Z</time>
      </trkpt>
      <trkpt lat="46.592880" lon="12.955332">
        <ele>1009.526</ele>
        <time>2018-09-09T05:53:00Z</time>
      </trkpt>
      <trkpt lat="46.592885" lon="12.955351">
        <ele>1010.081</ele>
        <time>2018-09-09T05:53:01Z</time>
      </trkpt>
      <trkpt lat="46.592892" lon="12.955371">
        <ele>1010.048</ele>
        <time>2018-09-09T05:53:02Z</time>
      </trkpt>
      <trkpt lat="46.592897" lon="12.955390">
        <ele>1010.061</ele>
        <time>2018-09-09T05:53:03Z</time>
      </trkpt>
      <trkpt lat="46.593020" lon="12.955801">
        <ele>1011.917</ele>
        <time>2018-09-09T05:53:21Z</time>
      </trkpt>
      <trkpt lat="46.593080" lon="12.956177">
        <ele>1012.808</ele>
        <time>2018-09-09T05:53:37Z</time>
      </trkpt>
      <trkpt lat="46.593100" lon="12.956665">
        <ele>1016.228</ele>
        <time>2018-09-09T05:53:57Z</time>
      </trkpt>
      <trkpt lat="46.593078" lon="12.957002">
        <ele>1015.280</ele>
        <time>2018-09-09T05:54:11Z</time>
      </trkpt>
      <trkpt lat="46.592989" lon="12.957484">
        <ele>1014.838</ele>
        <time>2018-09-09T05:54:32Z</time>
      </trkpt>
      <trkpt lat="46.592924" lon="12.957858">
        <ele>1016.253</ele>
        <time>2018-09-09T05:54:48Z</time>
      </trkpt>
      <trkpt lat="46.592928" lon="12.958264">
        <ele>1019.667</ele>
        <time>2018-09-09T05:55:04Z</time>
      </trkpt>
      <trkpt lat="46.593130" lon="12.958270">
        <ele>1021.569</ele>
        <time>2018-09-09T05:55:16Z</time>
      </trkpt>
      <trkpt lat="46.593159" lon="12.958171">
        <ele>1022.028</ele>
        <time>2018-09-09T05:55:20Z</time>
      </trkpt>
      <trkpt lat="46.593158" lon="12.958145">
        <ele>1022.093</ele>
        <time>2018-09-09T05:55:21Z</time>
      </trkpt>
      <trkpt lat="46.593156" lon="12.958115">
        <ele>1022.044</ele>
        <time>2018-09-09T05:55:22Z</time>
      </trkpt>
      <trkpt lat="46.593154" lon="12.958086">
        <ele>1022.005</ele>
        <time>2018-09-09T05:55:23Z</time>
      </trkpt>
      <trkpt lat="46.593150" lon="12.958057">
        <ele>1022.015</ele>
        <time>2018-09-09T05:55:24Z</time>
      </trkpt>
      <trkpt lat="46.593146" lon="12.958028">
        <ele>1022.008</ele>
        <time>2018-09-09T05:55:25Z</time>
      </trkpt>
      <trkpt lat="46.593144" lon="12.958001">
        <ele>1022.038</ele>
        <time>2018-09-09T05:55:26Z</time>
      </trkpt>
      <trkpt lat="46.593142" lon="12.957973">
        <ele>1022.030</ele>
        <time>2018-09-09T05:55:27Z</time>
      </trkpt>
      <trkpt lat="46.593135" lon="12.957477">
        <ele>1022.958</ele>
        <time>2018-09-09T05:55:45Z</time>
      </trkpt>
      <trkpt lat="46.593259" lon="12.956988">
        <ele>1026.343</ele>
        <time>2018-09-09T05:56:05Z</time>
      </trkpt>
      <trkpt lat="46.593380" lon="12.956588">
        <ele>1028.267</ele>
        <time>2018-09-09T05:56:23Z</time>
      </trkpt>
      <trkpt lat="46.593444" lon="12.956184">
        <ele>1031.649</ele>
        <time>2018-09-09T05:56:41Z</time>
      </trkpt>
      <trkpt lat="46.593474" lon="12.955721">
        <ele>1033.028</ele>
        <time>2018-09-09T05:57:00Z</time>
      </trkpt>
      <trkpt lat="46.593547" lon="12.955210">
        <ele>1034.043</ele>
        <time>2018-09-09T05:57:21Z</time>
      </trkpt>
      <trkpt lat="46.593613" lon="12.954727">
        <ele>1035.477</ele>
        <time>2018-09-09T05:57:41Z</time>
      </trkpt>
      <trkpt lat="46.593695" lon="12.954275">
        <ele>1037.861</ele>
        <time>2018-09-09T05:58:00Z</time>
      </trkpt>
      <trkpt lat="46.593794" lon="12.953930">
        <ele>1043.127</ele>
        <time>2018-09-09T05:58:16Z</time>
      </trkpt>
      <trkpt lat="46.593920" lon="12.953541">
        <ele>1046.508</ele>
        <time>2018-09-09T05:58:33Z</time>
      </trkpt>
      <trkpt lat="46.594040" lon="12.953174">
        <ele>1044.691</ele>
        <time>2018-09-09T05:58:49Z</time>
      </trkpt>
      <trkpt lat="46.594099" lon="12.952971">
        <ele>1048.463</ele>
        <time>2018-09-09T05:58:58Z</time>
      </trkpt>
      <trkpt lat="46.594103" lon="12.952886">
        <ele>1049.931</ele>
        <time>2018-09-09T05:59:04Z</time>
      </trkpt>
      <trkpt lat="46.594053" lon="12.952585">
        <ele>1054.746</ele>
        <time>2018-09-09T05:59:22Z</time>
      </trkpt>
      <trkpt lat="46.594254" lon="12.952096">
        <ele>1054.760</ele>
        <time>2018-09-09T05:59:37Z</time>
      </trkpt>
      <trkpt lat="46.594284" lon="12.951824">
        <ele>1059.512</ele>
        <time>2018-09-09T05:59:47Z</time>
      </trkpt>
      <trkpt lat="46.594291" lon="12.951799">
        <ele>1059.941</ele>
        <time>2018-09-09T05:59:48Z</time>
      </trkpt>
      <trkpt lat="46.594290" lon="12.951773">
        <ele>1060.416</ele>
        <time>2018-09-09T05:59:49Z</time>
      </trkpt>
      <trkpt lat="46.594350" lon="12.951238">
        <ele>1063.858</ele>
        <time>2018-09-09T06:00:11Z</time>
      </trkpt>
      <trkpt lat="46.594461" lon="12.950817">
        <ele>1069.152</ele>
        <time>2018-09-09T06:00:29Z</time>
      </trkpt>
      <trkpt lat="46.594577" lon="12.950397">
        <ele>1071.517</ele>
        <time>2018-09-09T06:00:47Z</time>
      </trkpt>
      <trkpt lat="46.594724" lon="12.950070">
        <ele>1073.908</ele>
        <time>2018-09-09T06:01:02Z</time>
      </trkpt>
      <trkpt lat="46.594746" lon="12.950024">
        <ele>1074.859</ele>
        <time>2018-09-09T06:01:04Z</time>
      </trkpt>
      <trkpt lat="46.594757" lon="12.950007">
        <ele>1075.361</ele>
        <time>2018-09-09T06:01:05Z</time>
      </trkpt>
      <trkpt lat="46.594767" lon="12.949982">
        <ele>1075.899</ele>
        <time>2018-09-09T06:01:06Z</time>
      </trkpt>
      <trkpt lat="46.594773" lon="12.949958">
        <ele>1076.364</ele>
        <time>2018-09-09T06:01:07Z</time>
      </trkpt>
      <trkpt lat="46.594784" lon="12.949935">
        <ele>1076.338</ele>
        <time>2018-09-09T06:01:08Z</time>
      </trkpt>
      <trkpt lat="46.594857" lon="12.949547">
        <ele>1077.760</ele>
        <time>2018-09-09T06:01:25Z</time>
      </trkpt>
      <trkpt lat="46.594992" lon="12.949065">
        <ele>1077.279</ele>
        <time>2018-09-09T06:01:46Z</time>
      </trkpt>
      <trkpt lat="46.595042" lon="12.948701">
        <ele>1078.764</ele>
        <time>2018-09-09T06:02:01Z</time>
      </trkpt>
      <trkpt lat="46.595083" lon="12.948309">
        <ele>1078.728</ele>
        <time>2018-09-09T06:02:17Z</time>
      </trkpt>
      <trkpt lat="46.595095" lon="12.947852">
        <ele>1082.189</ele>
        <time>2018-09-09T06:02:35Z</time>
      </trkpt>
      <trkpt lat="46.595104" lon="12.947359">
        <ele>1089.717</ele>
        <time>2018-09-09T06:02:54Z</time>
      </trkpt>
      <trkpt lat="46.595174" lon="12.946899">
        <ele>1095.008</ele>
        <time>2018-09-09T06:03:12Z</time>
      </trkpt>
      <trkpt lat="46.595254" lon="12.946500">
        <ele>1095.556</ele>
        <time>2018-09-09T06:03:29Z</time>
      </trkpt>
      <trkpt lat="46.595310" lon="12.946099">
        <ele>1097.088</ele>
        <time>2018-09-09T06:03:45Z</time>
      </trkpt>
      <trkpt lat="46.595464" lon="12.945714">
        <ele>1095.036</ele>
        <time>2018-09-09T06:04:02Z</time>
      </trkpt>
      <trkpt lat="46.595586" lon="12.945262">
        <ele>1092.631</ele>
        <time>2018-09-09T06:04:21Z</time>
      </trkpt>
      <trkpt lat="46.595611" lon="12.945115">
        <ele>1093.145</ele>
        <time>2018-09-09T06:04:27Z</time>
      </trkpt>
      <trkpt lat="46.595616" lon="12.945093">
        <ele>1093.197</ele>
        <time>2018-09-09T06:04:28Z</time>
      </trkpt>
      <trkpt lat="46.595618" lon="12.945077">
        <ele>1093.666</ele>
        <time>2018-09-09T06:04:29Z</time>
      </trkpt>
      <trkpt lat="46.595618" lon="12.945060">
        <ele>1093.651</ele>
        <time>2018-09-09T06:04:30Z</time>
      </trkpt>
      <trkpt lat="46.595620" lon="12.945040">
        <ele>1093.639</ele>
        <time>2018-09-09T06:04:31Z</time>
      </trkpt>
      <trkpt lat="46.595625" lon="12.945019">
        <ele>1094.101</ele>
        <time>2018-09-09T06:04:32Z</time>
      </trkpt>
      <trkpt lat="46.595632" lon="12.944994">
        <ele>1094.121</ele>
        <time>2018-09-09T06:04:33Z</time>
      </trkpt>
      <trkpt lat="46.595636" lon="12.944973">
        <ele>1094.608</ele>
        <time>2018-09-09T06:04:34Z</time>
      </trkpt>
      <trkpt lat="46.595636" lon="12.944951">
        <ele>1094.617</ele>
        <time>2018-09-09T06:04:35Z</time>
      </trkpt>
      <trkpt lat="46.595633" lon="12.944933">
        <ele>1095.069</ele>
        <time>2018-09-09T06:04:36Z</time>
      </trkpt>
      <trkpt lat="46.595624" lon="12.944923">
        <ele>1095.017</ele>
        <time>2018-09-09T06:04:37Z</time>
      </trkpt>
      <trkpt lat="46.595614" lon="12.944913">
        <ele>1095.062</ele>
        <time>2018-09-09T06:04:38Z</time>
      </trkpt>
      <trkpt lat="46.595608" lon="12.944896">
        <ele>1095.056</ele>
        <time>2018-09-09T06:04:39Z</time>
      </trkpt>
      <trkpt lat="46.595610" lon="12.944878">
        <ele>1095.038</ele>
        <time>2018-09-09T06:04:40Z</time>
      </trkpt>
      <trkpt lat="46.595621" lon="12.944862">
        <ele>1095.557</ele>
        <time>2018-09-09T06:04:41Z</time>
      </trkpt>
      <trkpt lat="46.595629" lon="12.944843">
        <ele>1095.512</ele>
        <time>2018-09-09T06:04:42Z</time>
      </trkpt>
      <trkpt lat="46.595634" lon="12.944822">
        <ele>1095.548</ele>
        <time>2018-09-09T06:04:43Z</time>
      </trkpt>
      <trkpt lat="46.595638" lon="12.944803">
        <ele>1095.561</ele>
        <time>2018-09-09T06:04:44Z</time>
      </trkpt>
      <trkpt lat="46.595627" lon="12.944502">
        <ele>1098.417</ele>
        <time>2018-09-09T06:05:00Z</time>
      </trkpt>
      <trkpt lat="46.595612" lon="12.944474">
        <ele>1098.408</ele>
        <time>2018-09-09T06:05:02Z</time>
      </trkpt>
      <trkpt lat="46.595605" lon="12.944459">
        <ele>1098.978</ele>
        <time>2018-09-09T06:05:03Z</time>
      </trkpt>
      <trkpt lat="46.595601" lon="12.944445">
        <ele>1099.440</ele>
        <time>2018-09-09T06:05:04Z</time>
      </trkpt>
      <trkpt lat="46.595597" lon="12.944429">
        <ele>1099.488</ele>
        <time>2018-09-09T06:05:05Z</time>
      </trkpt>
      <trkpt lat="46.595592" lon="12.944412">
        <ele>1099.863</ele>
        <time>2018-09-09T06:05:06Z</time>
      </trkpt>
      <trkpt lat="46.595588" lon="12.944398">
        <ele>1099.827</ele>
        <time>2018-09-09T06:05:07Z</time>
      </trkpt>
      <trkpt lat="46.595584" lon="12.944236">
        <ele>1102.729</ele>
        <time>2018-09-09T06:05:17Z</time>
      </trkpt>
      <trkpt lat="46.595619" lon="12.944106">
        <ele>1106.138</ele>
        <time>2018-09-09T06:05:27Z</time>
      </trkpt>
      <trkpt lat="46.595621" lon="12.944037">
        <ele>1107.523</ele>
        <time>2018-09-09T06:05:32Z</time>
      </trkpt>
      <trkpt lat="46.595660" lon="12.943807">
        <ele>1110.488</ele>
        <time>2018-09-09T06:05:46Z</time>
      </trkpt>
      <trkpt lat="46.595670" lon="12.943746">
        <ele>1109.924</ele>
        <time>2018-09-09T06:05:50Z</time>
      </trkpt>
      <trkpt lat="46.595668" lon="12.943731">
        <ele>1109.926</ele>
        <time>2018-09-09T06:05:51Z</time>
      </trkpt>
      <trkpt lat="46.595663" lon="12.943713">
        <ele>1109.908</ele>
        <time>2018-09-09T06:05:52Z</time>
      </trkpt>
      <trkpt lat="46.595659" lon="12.943696">
        <ele>1109.912</ele>
        <time>2018-09-09T06:05:53Z</time>
      </trkpt>
      <trkpt lat="46.595656" lon="12.943680">
        <ele>1109.974</ele>
        <time>2018-09-09T06:05:54Z</time>
      </trkpt>
      <trkpt lat="46.595642" lon="12.943582">
        <ele>1111.932</ele>
        <time>2018-09-09T06:06:00Z</time>
      </trkpt>
      <trkpt lat="46.595638" lon="12.943567">
        <ele>1112.337</ele>
        <time>2018-09-09T06:06:01Z</time>
      </trkpt>
      <trkpt lat="46.595633" lon="12.943550">
        <ele>1113.321</ele>
        <time>2018-09-09T06:06:02Z</time>
      </trkpt>
      <trkpt lat="46.595626" lon="12.943536">
        <ele>1113.863</ele>
        <time>2018-09-09T06:06:03Z</time>
      </trkpt>
      <trkpt lat="46.595620" lon="12.943523">
        <ele>1114.392</ele>
        <time>2018-09-09T06:06:04Z</time>
      </trkpt>
      <trkpt lat="46.595557" lon="12.943266">
        <ele>1118.667</ele>
        <time>2018-09-09T06:06:18Z</time>
      </trkpt>
      <trkpt lat="46.595452" lon="12.942838">
        <ele>1116.279</ele>
        <time>2018-09-09T06:06:35Z</time>
      </trkpt>
      <trkpt lat="46.595316" lon="12.942556">
        <ele>1117.105</ele>
        <time>2018-09-09T06:06:48Z</time>
      </trkpt>
      <trkpt lat="46.595215" lon="12.942288">
        <ele>1116.725</ele>
        <time>2018-09-09T06:07:01Z</time>
      </trkpt>
      <trkpt lat="46.595067" lon="12.942107">
        <ele>1121.008</ele>
        <time>2018-09-09T06:07:16Z</time>
      </trkpt>
      <trkpt lat="46.595027" lon="12.942064">
        <ele>1121.081</ele>
        <time>2018-09-09T06:07:20Z</time>
      </trkpt>
      <trkpt lat="46.595017" lon="12.942054">
        <ele>1121.013</ele>
        <time>2018-09-09T06:07:21Z</time>
      </trkpt>
      <trkpt lat="46.595007" lon="12.942042">
        <ele>1121.031</ele>
        <time>2018-09-09T06:07:22Z</time>
      </trkpt>
      <trkpt lat="46.594996" lon="12.942031">
        <ele>1121.046</ele>
        <time>2018-09-09T06:07:23Z</time>
      </trkpt>
      <trkpt lat="46.594985" lon="12.942009">
        <ele>1121.030</ele>
        <time>2018-09-09T06:07:24Z</time>
      </trkpt>
      <trkpt lat="46.594973" lon="12.941999">
        <ele>1121.032</ele>
        <time>2018-09-09T06:07:25Z</time>
      </trkpt>
      <trkpt lat="46.594961" lon="12.941991">
        <ele>1121.091</ele>
        <time>2018-09-09T06:07:26Z</time>
      </trkpt>
      <trkpt lat="46.594952" lon="12.941989">
        <ele>1121.026</ele>
        <time>2018-09-09T06:07:27Z</time>
      </trkpt>
      <trkpt lat="46.594941" lon="12.941986">
        <ele>1121.034</ele>
        <time>2018-09-09T06:07:28Z</time>
      </trkpt>
      <trkpt lat="46.594930" lon="12.941980">
        <ele>1121.055</ele>
        <time>2018-09-09T06:07:29Z</time>
      </trkpt>
      <trkpt lat="46.594919" lon="12.941975">
        <ele>1121.010</ele>
        <time>2018-09-09T06:07:30Z</time>
      </trkpt>
      <trkpt lat="46.594841" lon="12.941842">
        <ele>1121.008</ele>
        <time>2018-09-09T06:07:41Z</time>
      </trkpt>
      <trkpt lat="46.594831" lon="12.941834">
        <ele>1121.557</ele>
        <time>2018-09-09T06:07:42Z</time>
      </trkpt>
      <trkpt lat="46.594821" lon="12.941827">
        <ele>1122.069</ele>
        <time>2018-09-09T06:07:43Z</time>
      </trkpt>
      <trkpt lat="46.594810" lon="12.941820">
        <ele>1122.057</ele>
        <time>2018-09-09T06:07:44Z</time>
      </trkpt>
      <trkpt lat="46.594800" lon="12.941813">
        <ele>1122.042</ele>
        <time>2018-09-09T06:07:45Z</time>
      </trkpt>
      <trkpt lat="46.594791" lon="12.941805">
        <ele>1122.066</ele>
        <time>2018-09-09T06:07:46Z</time>
      </trkpt>
      <trkpt lat="46.594782" lon="12.941793">
        <ele>1121.518</ele>
        <time>2018-09-09T06:07:47Z</time>
      </trkpt>
      <trkpt lat="46.594776" lon="12.941778">
        <ele>1121.547</ele>
        <time>2018-09-09T06:07:48Z</time>
      </trkpt>
      <trkpt lat="46.594770" lon="12.941763">
        <ele>1121.562</ele>
        <time>2018-09-09T06:07:49Z</time>
      </trkpt>
      <trkpt lat="46.594765" lon="12.941747">
        <ele>1121.068</ele>
        <time>2018-09-09T06:07:50Z</time>
      </trkpt>
      <trkpt lat="46.594759" lon="12.941733">
        <ele>1121.042</ele>
        <time>2018-09-09T06:07:51Z</time>
      </trkpt>
      <trkpt lat="46.594753" lon="12.941719">
        <ele>1121.026</ele>
        <time>2018-09-09T06:07:52Z</time>
      </trkpt>
      <trkpt lat="46.594744" lon="12.941710">
        <ele>1121.008</ele>
        <time>2018-09-09T06:07:53Z</time>
      </trkpt>
      <trkpt lat="46.594740" lon="12.941693">
        <ele>1121.060</ele>
        <time>2018-09-09T06:07:54Z</time>
      </trkpt>
      <trkpt lat="46.594736" lon="12.941677">
        <ele>1121.052</ele>
        <time>2018-09-09T06:07:55Z</time>
      </trkpt>
      <trkpt lat="46.594731" lon="12.941659">
        <ele>1121.510</ele>
        <time>2018-09-09T06:07:56Z</time>
      </trkpt>
      <trkpt lat="46.594669" lon="12.941426">
        <ele>1120.555</ele>
        <time>2018-09-09T06:08:12Z</time>
      </trkpt>
      <trkpt lat="46.594626" lon="12.941282">
        <ele>1120.539</ele>
        <time>2018-09-09T06:08:21Z</time>
      </trkpt>
      <trkpt lat="46.594617" lon="12.941266">
        <ele>1120.521</ele>
        <time>2018-09-09T06:08:22Z</time>
      </trkpt>
      <trkpt lat="46.594636" lon="12.941269">
        <ele>1120.010</ele>
        <time>2018-09-09T06:09:49Z</time>
      </trkpt>
      <trkpt lat="46.594645" lon="12.941260">
        <ele>1120.065</ele>
        <time>2018-09-09T06:09:50Z</time>
      </trkpt>
      <trkpt lat="46.594649" lon="12.941242">
        <ele>1120.088</ele>
        <time>2018-09-09T06:09:51Z</time>
      </trkpt>
      <trkpt lat="46.594652" lon="12.941221">
        <ele>1119.524</ele>
        <time>2018-09-09T06:09:52Z</time>
      </trkpt>
      <trkpt lat="46.594648" lon="12.941209">
        <ele>1119.526</ele>
        <time>2018-09-09T06:09:53Z</time>
      </trkpt>
      <trkpt lat="46.594642" lon="12.941200">
        <ele>1119.508</ele>
        <time>2018-09-09T06:09:54Z</time>
      </trkpt>
      <trkpt lat="46.594633" lon="12.941192">
        <ele>1119.572</ele>
        <time>2018-09-09T06:09:55Z</time>
      </trkpt>
      <trkpt lat="46.594625" lon="12.941182">
        <ele>1120.024</ele>
        <time>2018-09-09T06:09:56Z</time>
      </trkpt>
      <trkpt lat="46.594614" lon="12.941158">
        <ele>1120.522</ele>
        <time>2018-09-09T06:09:58Z</time>
      </trkpt>
      <trkpt lat="46.594613" lon="12.941137">
        <ele>1120.587</ele>
        <time>2018-09-09T06:09:59Z</time>
      </trkpt>
      <trkpt lat="46.594579" lon="12.940957">
        <ele>1121.071</ele>
        <time>2018-09-09T06:10:12Z</time>
      </trkpt>
      <trkpt lat="46.594570" lon="12.940733">
        <ele>1122.423</ele>
        <time>2018-09-09T06:10:26Z</time>
      </trkpt>
      <trkpt lat="46.594489" lon="12.940497">
        <ele>1121.572</ele>
        <time>2018-09-09T06:10:46Z</time>
      </trkpt>
      <trkpt lat="46.594479" lon="12.940484">
        <ele>1121.557</ele>
        <time>2018-09-09T06:10:47Z</time>
      </trkpt>
      <trkpt lat="46.594371" lon="12.940325">
        <ele>1122.979</ele>
        <time>2018-09-09T06:11:04Z</time>
      </trkpt>
      <trkpt lat="46.594314" lon="12.940236">
        <ele>1122.905</ele>
        <time>2018-09-09T06:11:13Z</time>
      </trkpt>
      <trkpt lat="46.594306" lon="12.940085">
        <ele>1124.425</ele>
        <time>2018-09-09T06:11:27Z</time>
      </trkpt>
      <trkpt lat="46.594354" lon="12.939855">
        <ele>1125.308</ele>
        <time>2018-09-09T06:11:43Z</time>
      </trkpt>
      <trkpt lat="46.594384" lon="12.939647">
        <ele>1125.391</ele>
        <time>2018-09-09T06:11:57Z</time>
      </trkpt>
      <trkpt lat="46.594377" lon="12.939610">
        <ele>1125.363</ele>
        <time>2018-09-09T06:11:59Z</time>
      </trkpt>
      <trkpt lat="46.594313" lon="12.939337">
        <ele>1124.891</ele>
        <time>2018-09-09T06:12:16Z</time>
      </trkpt>
      <trkpt lat="46.594271" lon="12.939180">
        <ele>1124.896</ele>
        <time>2018-09-09T06:12:27Z</time>
      </trkpt>
      <trkpt lat="46.594261" lon="12.939170">
        <ele>1124.810</ele>
        <time>2018-09-09T06:12:28Z</time>
      </trkpt>
      <trkpt lat="46.594249" lon="12.939163">
        <ele>1124.832</ele>
        <time>2018-09-09T06:12:29Z</time>
      </trkpt>
      <trkpt lat="46.594239" lon="12.939156">
        <ele>1124.881</ele>
        <time>2018-09-09T06:12:30Z</time>
      </trkpt>
      <trkpt lat="46.594132" lon="12.939101">
        <ele>1126.336</ele>
        <time>2018-09-09T06:12:43Z</time>
      </trkpt>
      <trkpt lat="46.594082" lon="12.939147">
        <ele>1125.839</ele>
        <time>2018-09-09T06:12:54Z</time>
      </trkpt>
      <trkpt lat="46.594034" lon="12.939148">
        <ele>1126.301</ele>
        <time>2018-09-09T06:13:05Z</time>
      </trkpt>
      <trkpt lat="46.594006" lon="12.939137">
        <ele>1126.821</ele>
        <time>2018-09-09T06:13:08Z</time>
      </trkpt>
      <trkpt lat="46.593997" lon="12.939136">
        <ele>1126.808</ele>
        <time>2018-09-09T06:13:09Z</time>
      </trkpt>
      <trkpt lat="46.593879" lon="12.939120">
        <ele>1128.257</ele>
        <time>2018-09-09T06:13:24Z</time>
      </trkpt>
      <trkpt lat="46.593756" lon="12.939132">
        <ele>1129.269</ele>
        <time>2018-09-09T06:13:37Z</time>
      </trkpt>
      <trkpt lat="46.593646" lon="12.939142">
        <ele>1129.667</ele>
        <time>2018-09-09T06:13:50Z</time>
      </trkpt>
      <trkpt lat="46.593493" lon="12.939159">
        <ele>1131.172</ele>
        <time>2018-09-09T06:14:04Z</time>
      </trkpt>
      <trkpt lat="46.593244" lon="12.939211">
        <ele>1141.286</ele>
        <time>2018-09-09T06:14:20Z</time>
      </trkpt>
      <trkpt lat="46.593130" lon="12.939171">
        <ele>1147.448</ele>
        <time>2018-09-09T06:14:34Z</time>
      </trkpt>
      <trkpt lat="46.592990" lon="12.939165">
        <ele>1147.977</ele>
        <time>2018-09-09T06:14:48Z</time>
      </trkpt>
      <trkpt lat="46.592840" lon="12.939174">
        <ele>1152.722</ele>
        <time>2018-09-09T06:15:02Z</time>
      </trkpt>
      <trkpt lat="46.592703" lon="12.939235">
        <ele>1154.664</ele>
        <time>2018-09-09T06:15:16Z</time>
      </trkpt>
      <trkpt lat="46.592601" lon="12.939288">
        <ele>1157.006</ele>
        <time>2018-09-09T06:15:28Z</time>
      </trkpt>
      <trkpt lat="46.592511" lon="12.939282">
        <ele>1159.416</ele>
        <time>2018-09-09T06:15:42Z</time>
      </trkpt>
      <trkpt lat="46.592372" lon="12.939302">
        <ele>1162.308</ele>
        <time>2018-09-09T06:15:53Z</time>
      </trkpt>
      <trkpt lat="46.592324" lon="12.939283">
        <ele>1163.890</ele>
        <time>2018-09-09T06:15:58Z</time>
      </trkpt>
      <trkpt lat="46.592183" lon="12.939228">
        <ele>1166.732</ele>
        <time>2018-09-09T06:16:11Z</time>
      </trkpt>
      <trkpt lat="46.591996" lon="12.939115">
        <ele>1169.520</ele>
        <time>2018-09-09T06:16:25Z</time>
      </trkpt>
      <trkpt lat="46.591917" lon="12.939055">
        <ele>1170.555</ele>
        <time>2018-09-09T06:16:33Z</time>
      </trkpt>
      <trkpt lat="46.591905" lon="12.939052">
        <ele>1171.029</ele>
        <time>2018-09-09T06:16:34Z</time>
      </trkpt>
      <trkpt lat="46.591894" lon="12.939046">
        <ele>1171.041</ele>
        <time>2018-09-09T06:16:35Z</time>
      </trkpt>
      <trkpt lat="46.591883" lon="12.939040">
        <ele>1171.070</ele>
        <time>2018-09-09T06:16:36Z</time>
      </trkpt>
      <trkpt lat="46.591874" lon="12.939032">
        <ele>1171.035</ele>
        <time>2018-09-09T06:16:37Z</time>
      </trkpt>
      <trkpt lat="46.591863" lon="12.939022">
        <ele>1171.025</ele>
        <time>2018-09-09T06:16:38Z</time>
      </trkpt>
      <trkpt lat="46.591727" lon="12.938915">
        <ele>1171.526</ele>
        <time>2018-09-09T06:16:53Z</time>
      </trkpt>
      <trkpt lat="46.591641" lon="12.938879">
        <ele>1171.008</ele>
        <time>2018-09-09T06:17:03Z</time>
      </trkpt>
      <trkpt lat="46.591607" lon="12.938858">
        <ele>1171.008</ele>
        <time>2018-09-09T06:17:07Z</time>
      </trkpt>
      <trkpt lat="46.591598" lon="12.938851">
        <ele>1171.076</ele>
        <time>2018-09-09T06:17:08Z</time>
      </trkpt>
      <trkpt lat="46.591430" lon="12.938736">
        <ele>1173.448</ele>
        <time>2018-09-09T06:17:24Z</time>
      </trkpt>
      <trkpt lat="46.591236" lon="12.938581">
        <ele>1173.466</ele>
        <time>2018-09-09T06:17:43Z</time>
      </trkpt>
      <trkpt lat="46.591086" lon="12.938533">
        <ele>1174.361</ele>
        <time>2018-09-09T06:17:55Z</time>
      </trkpt>
      <trkpt lat="46.591073" lon="12.938527">
        <ele>1174.395</ele>
        <time>2018-09-09T06:17:56Z</time>
      </trkpt>
      <trkpt lat="46.591062" lon="12.938520">
        <ele>1174.387</ele>
        <time>2018-09-09T06:17:57Z</time>
      </trkpt>
      <trkpt lat="46.591050" lon="12.938518">
        <ele>1174.316</ele>
        <time>2018-09-09T06:17:58Z</time>
      </trkpt>
      <trkpt lat="46.591037" lon="12.938510">
        <ele>1174.891</ele>
        <time>2018-09-09T06:17:59Z</time>
      </trkpt>
      <trkpt lat="46.591021" lon="12.938503">
        <ele>1174.818</ele>
        <time>2018-09-09T06:18:00Z</time>
      </trkpt>
      <trkpt lat="46.590841" lon="12.938301">
        <ele>1177.798</ele>
        <time>2018-09-09T06:18:16Z</time>
      </trkpt>
      <trkpt lat="46.590739" lon="12.937976">
        <ele>1181.617</ele>
        <time>2018-09-09T06:18:32Z</time>
      </trkpt>
      <trkpt lat="46.590614" lon="12.937807">
        <ele>1184.008</ele>
        <time>2018-09-09T06:18:46Z</time>
      </trkpt>
      <trkpt lat="46.590558" lon="12.937680">
        <ele>1184.075</ele>
        <time>2018-09-09T06:18:55Z</time>
      </trkpt>
      <trkpt lat="46.590463" lon="12.937410">
        <ele>1184.967</ele>
        <time>2018-09-09T06:19:12Z</time>
      </trkpt>
      <trkpt lat="46.590447" lon="12.937374">
        <ele>1184.925</ele>
        <time>2018-09-09T06:19:15Z</time>
      </trkpt>
      <trkpt lat="46.590374" lon="12.937151">
        <ele>1186.880</ele>
        <time>2018-09-09T06:19:31Z</time>
      </trkpt>
      <trkpt lat="46.590377" lon="12.937088">
        <ele>1187.394</ele>
        <time>2018-09-09T06:19:35Z</time>
      </trkpt>
      <trkpt lat="46.590374" lon="12.937061">
        <ele>1187.316</ele>
        <time>2018-09-09T06:19:37Z</time>
      </trkpt>
      <trkpt lat="46.590372" lon="12.937046">
        <ele>1187.355</ele>
        <time>2018-09-09T06:19:38Z</time>
      </trkpt>
      <trkpt lat="46.590317" lon="12.936812">
        <ele>1187.830</ele>
        <time>2018-09-09T06:19:54Z</time>
      </trkpt>
      <trkpt lat="46.590283" lon="12.936690">
        <ele>1191.697</ele>
        <time>2018-09-09T06:20:03Z</time>
      </trkpt>
      <trkpt lat="46.590295" lon="12.936668">
        <ele>1192.123</ele>
        <time>2018-09-09T06:20:05Z</time>
      </trkpt>
      <trkpt lat="46.590340" lon="12.936659">
        <ele>1192.625</ele>
        <time>2018-09-09T06:20:09Z</time>
      </trkpt>
      <trkpt lat="46.590354" lon="12.936683">
        <ele>1192.608</ele>
        <time>2018-09-09T06:20:11Z</time>
      </trkpt>
      <trkpt lat="46.590417" lon="12.936856">
        <ele>1194.083</ele>
        <time>2018-09-09T06:20:25Z</time>
      </trkpt>
      <trkpt lat="46.590483" lon="12.937057">
        <ele>1197.435</ele>
        <time>2018-09-09T06:20:42Z</time>
      </trkpt>
      <trkpt lat="46.590598" lon="12.937196">
        <ele>1202.253</ele>
        <time>2018-09-09T06:20:58Z</time>
      </trkpt>
      <trkpt lat="46.590712" lon="12.937323">
        <ele>1205.188</ele>
        <time>2018-09-09T06:21:13Z</time>
      </trkpt>
      <trkpt lat="46.590831" lon="12.937409">
        <ele>1208.082</ele>
        <time>2018-09-09T06:21:27Z</time>
      </trkpt>
      <trkpt lat="46.590909" lon="12.937455">
        <ele>1209.954</ele>
        <time>2018-09-09T06:21:32Z</time>
      </trkpt>
      <trkpt lat="46.590966" lon="12.937539">
        <ele>1211.883</ele>
        <time>2018-09-09T06:21:37Z</time>
      </trkpt>
      <trkpt lat="46.590979" lon="12.937575">
        <ele>1212.368</ele>
        <time>2018-09-09T06:21:40Z</time>
      </trkpt>
      <trkpt lat="46.591067" lon="12.937652">
        <ele>1218.628</ele>
        <time>2018-09-09T06:21:55Z</time>
      </trkpt>
      <trkpt lat="46.591073" lon="12.937574">
        <ele>1218.189</ele>
        <time>2018-09-09T06:22:00Z</time>
      </trkpt>
      <trkpt lat="46.591021" lon="12.937470">
        <ele>1218.117</ele>
        <time>2018-09-09T06:22:09Z</time>
      </trkpt>
      <trkpt lat="46.590985" lon="12.937373">
        <ele>1219.008</ele>
        <time>2018-09-09T06:22:18Z</time>
      </trkpt>
      <trkpt lat="46.590876" lon="12.937252">
        <ele>1220.516</ele>
        <time>2018-09-09T06:22:33Z</time>
      </trkpt>
      <trkpt lat="46.590765" lon="12.937022">
        <ele>1222.968</ele>
        <time>2018-09-09T06:22:52Z</time>
      </trkpt>
      <trkpt lat="46.590734" lon="12.936914">
        <ele>1226.756</ele>
        <time>2018-09-09T06:23:01Z</time>
      </trkpt>
      <trkpt lat="46.590705" lon="12.936726">
        <ele>1232.521</ele>
        <time>2018-09-09T06:23:14Z</time>
      </trkpt>
      <trkpt lat="46.590672" lon="12.936535">
        <ele>1233.025</ele>
        <time>2018-09-09T06:23:26Z</time>
      </trkpt>
      <trkpt lat="46.590717" lon="12.936483">
        <ele>1234.447</ele>
        <time>2018-09-09T06:23:33Z</time>
      </trkpt>
      <trkpt lat="46.590707" lon="12.936524">
        <ele>1236.336</ele>
        <time>2018-09-09T06:23:48Z</time>
      </trkpt>
      <trkpt lat="46.590719" lon="12.936558">
        <ele>1239.731</ele>
        <time>2018-09-09T06:24:18Z</time>
      </trkpt>
      <trkpt lat="46.590713" lon="12.936536">
        <ele>1239.225</ele>
        <time>2018-09-09T06:24:54Z</time>
      </trkpt>
      <trkpt lat="46.590761" lon="12.936644">
        <ele>1236.326</ele>
        <time>2018-09-09T06:25:12Z</time>
      </trkpt>
      <trkpt lat="46.590783" lon="12.936704">
        <ele>1234.908</ele>
        <time>2018-09-09T06:25:17Z</time>
      </trkpt>
      <trkpt lat="46.590885" lon="12.936879">
        <ele>1234.908</ele>
        <time>2018-09-09T06:25:33Z</time>
      </trkpt>
      <trkpt lat="46.590904" lon="12.936919">
        <ele>1237.866</ele>
        <time>2018-09-09T06:25:37Z</time>
      </trkpt>
      <trkpt lat="46.591002" lon="12.936967">
        <ele>1244.578</ele>
        <time>2018-09-09T06:25:52Z</time>
      </trkpt>
      <trkpt lat="46.591083" lon="12.937005">
        <ele>1244.026</ele>
        <time>2018-09-09T06:25:58Z</time>
      </trkpt>
      <trkpt lat="46.591219" lon="12.937181">
        <ele>1240.211</ele>
        <time>2018-09-09T06:26:13Z</time>
      </trkpt>
      <trkpt lat="46.591290" lon="12.937178">
        <ele>1241.675</ele>
        <time>2018-09-09T06:26:22Z</time>
      </trkpt>
      <trkpt lat="46.591298" lon="12.937084">
        <ele>1244.517</ele>
        <time>2018-09-09T06:26:37Z</time>
      </trkpt>
      <trkpt lat="46.591283" lon="12.937037">
        <ele>1247.416</ele>
        <time>2018-09-09T06:27:02Z</time>
      </trkpt>
      <trkpt lat="46.591259" lon="12.937032">
        <ele>1248.491</ele>
        <time>2018-09-09T06:27:06Z</time>
      </trkpt>
      <trkpt lat="46.591243" lon="12.937022">
        <ele>1248.479</ele>
        <time>2018-09-09T06:27:08Z</time>
      </trkpt>
      <trkpt lat="46.591220" lon="12.936983">
        <ele>1248.405</ele>
        <time>2018-09-09T06:27:12Z</time>
      </trkpt>
      <trkpt lat="46.591122" lon="12.936826">
        <ele>1248.825</ele>
        <time>2018-09-09T06:27:30Z</time>
      </trkpt>
      <trkpt lat="46.591058" lon="12.936707">
        <ele>1249.308</ele>
        <time>2018-09-09T06:27:43Z</time>
      </trkpt>
      <trkpt lat="46.590988" lon="12.936574">
        <ele>1253.271</ele>
        <time>2018-09-09T06:27:55Z</time>
      </trkpt>
      <trkpt lat="46.591023" lon="12.936391">
        <ele>1258.053</ele>
        <time>2018-09-09T06:28:08Z</time>
      </trkpt>
      <trkpt lat="46.591043" lon="12.936353">
        <ele>1258.081</ele>
        <time>2018-09-09T06:28:11Z</time>
      </trkpt>
      <trkpt lat="46.591094" lon="12.936261">
        <ele>1259.446</ele>
        <time>2018-09-09T06:28:20Z</time>
      </trkpt>
      <trkpt lat="46.591118" lon="12.936086">
        <ele>1258.950</ele>
        <time>2018-09-09T06:28:33Z</time>
      </trkpt>
      <trkpt lat="46.591123" lon="12.936048">
        <ele>1258.532</ele>
        <time>2018-09-09T06:28:36Z</time>
      </trkpt>
      <trkpt lat="46.591117" lon="12.936010">
        <ele>1258.571</ele>
        <time>2018-09-09T06:28:39Z</time>
      </trkpt>
      <trkpt lat="46.591030" lon="12.935889">
        <ele>1259.976</ele>
        <time>2018-09-09T06:28:53Z</time>
      </trkpt>
      <trkpt lat="46.590951" lon="12.935749">
        <ele>1263.733</ele>
        <time>2018-09-09T06:29:06Z</time>
      </trkpt>
      <trkpt lat="46.590917" lon="12.935634">
        <ele>1264.223</ele>
        <time>2018-09-09T06:29:15Z</time>
      </trkpt>
      <trkpt lat="46.590956" lon="12.935558">
        <ele>1264.215</ele>
        <time>2018-09-09T06:29:20Z</time>
      </trkpt>
      <trkpt lat="46.590981" lon="12.935553">
        <ele>1264.708</ele>
        <time>2018-09-09T06:29:23Z</time>
      </trkpt>
      <trkpt lat="46.591040" lon="12.935655">
        <ele>1265.297</ele>
        <time>2018-09-09T06:29:32Z</time>
      </trkpt>
      <trkpt lat="46.591157" lon="12.935788">
        <ele>1267.149</ele>
        <time>2018-09-09T06:29:48Z</time>
      </trkpt>
      <trkpt lat="46.591280" lon="12.935897">
        <ele>1270.527</ele>
        <time>2018-09-09T06:30:05Z</time>
      </trkpt>
      <trkpt lat="46.591379" lon="12.936095">
        <ele>1273.472</ele>
        <time>2018-09-09T06:30:23Z</time>
      </trkpt>
      <trkpt lat="46.591495" lon="12.936147">
        <ele>1278.216</ele>
        <time>2018-09-09T06:30:39Z</time>
      </trkpt>
      <trkpt lat="46.591593" lon="12.936169">
        <ele>1285.938</ele>
        <time>2018-09-09T06:30:55Z</time>
      </trkpt>
      <trkpt lat="46.591731" lon="12.936193">
        <ele>1293.137</ele>
        <time>2018-09-09T06:31:11Z</time>
      </trkpt>
      <trkpt lat="46.591834" lon="12.936198">
        <ele>1294.542</ele>
        <time>2018-09-09T06:31:24Z</time>
      </trkpt>
      <trkpt lat="46.591935" lon="12.936133">
        <ele>1295.528</ele>
        <time>2018-09-09T06:31:33Z</time>
      </trkpt>
      <trkpt lat="46.591981" lon="12.936099">
        <ele>1295.589</ele>
        <time>2018-09-09T06:31:38Z</time>
      </trkpt>
      <trkpt lat="46.592075" lon="12.935920">
        <ele>1294.017</ele>
        <time>2018-09-09T06:31:54Z</time>
      </trkpt>
      <trkpt lat="46.592140" lon="12.935771">
        <ele>1295.508</ele>
        <time>2018-09-09T06:32:09Z</time>
      </trkpt>
      <trkpt lat="46.592208" lon="12.935697">
        <ele>1297.456</ele>
        <time>2018-09-09T06:32:22Z</time>
      </trkpt>
      <trkpt lat="46.592326" lon="12.935588">
        <ele>1302.278</ele>
        <time>2018-09-09T06:32:40Z</time>
      </trkpt>
      <trkpt lat="46.592448" lon="12.935546">
        <ele>1305.166</ele>
        <time>2018-09-09T06:32:57Z</time>
      </trkpt>
      <trkpt lat="46.592532" lon="12.935443">
        <ele>1311.831</ele>
        <time>2018-09-09T06:33:13Z</time>
      </trkpt>
      <trkpt lat="46.592549" lon="12.935427">
        <ele>1314.265</ele>
        <time>2018-09-09T06:33:17Z</time>
      </trkpt>
      <trkpt lat="46.592596" lon="12.935392">
        <ele>1317.177</ele>
        <time>2018-09-09T06:33:23Z</time>
      </trkpt>
      <trkpt lat="46.592662" lon="12.935393">
        <ele>1318.186</ele>
        <time>2018-09-09T06:33:28Z</time>
      </trkpt>
      <trkpt lat="46.593026" lon="12.935836">
        <ele>1319.061</ele>
        <time>2018-09-09T06:33:41Z</time>
      </trkpt>
      <trkpt lat="46.593108" lon="12.935934">
        <ele>1318.566</ele>
        <time>2018-09-09T06:33:43Z</time>
      </trkpt>
      <trkpt lat="46.593151" lon="12.935965">
        <ele>1318.129</ele>
        <time>2018-09-09T06:33:44Z</time>
      </trkpt>
      <trkpt lat="46.593196" lon="12.935970">
        <ele>1318.121</ele>
        <time>2018-09-09T06:33:45Z</time>
      </trkpt>
      <trkpt lat="46.593446" lon="12.935867">
        <ele>1318.108</ele>
        <time>2018-09-09T06:33:55Z</time>
      </trkpt>
      <trkpt lat="46.593581" lon="12.935815">
        <ele>1319.510</ele>
        <time>2018-09-09T06:34:06Z</time>
      </trkpt>
      <trkpt lat="46.593827" lon="12.935875">
        <ele>1320.972</ele>
        <time>2018-09-09T06:34:22Z</time>
      </trkpt>
      <trkpt lat="46.594087" lon="12.935781">
        <ele>1325.830</ele>
        <time>2018-09-09T06:34:35Z</time>
      </trkpt>
      <trkpt lat="46.594206" lon="12.935764">
        <ele>1329.145</ele>
        <time>2018-09-09T06:34:39Z</time>
      </trkpt>
      <trkpt lat="46.594247" lon="12.935772">
        <ele>1329.639</ele>
        <time>2018-09-09T06:34:40Z</time>
      </trkpt>
      <trkpt lat="46.594278" lon="12.935793">
        <ele>1329.671</ele>
        <time>2018-09-09T06:34:41Z</time>
      </trkpt>
      <trkpt lat="46.594308" lon="12.935819">
        <ele>1329.640</ele>
        <time>2018-09-09T06:34:42Z</time>
      </trkpt>
      <trkpt lat="46.594337" lon="12.935841">
        <ele>1329.625</ele>
        <time>2018-09-09T06:34:43Z</time>
      </trkpt>
      <trkpt lat="46.594415" lon="12.935883">
        <ele>1329.676</ele>
        <time>2018-09-09T06:34:46Z</time>
      </trkpt>
      <trkpt lat="46.594518" lon="12.935927">
        <ele>1330.690</ele>
        <time>2018-09-09T06:34:52Z</time>
      </trkpt>
      <trkpt lat="46.594535" lon="12.935928">
        <ele>1331.019</ele>
        <time>2018-09-09T06:34:53Z</time>
      </trkpt>
      <trkpt lat="46.594566" lon="12.935924">
        <ele>1332.008</ele>
        <time>2018-09-09T06:34:55Z</time>
      </trkpt>
      <trkpt lat="46.594817" lon="12.935567">
        <ele>1333.491</ele>
        <time>2018-09-09T06:35:07Z</time>
      </trkpt>
      <trkpt lat="46.595063" lon="12.935234">
        <ele>1321.963</ele>
        <time>2018-09-09T06:35:20Z</time>
      </trkpt>
      <trkpt lat="46.595157" lon="12.935061">
        <ele>1319.041</ele>
        <time>2018-09-09T06:35:28Z</time>
      </trkpt>
      <trkpt lat="46.595176" lon="12.935057">
        <ele>1319.026</ele>
        <time>2018-09-09T06:35:29Z</time>
      </trkpt>
      <trkpt lat="46.595196" lon="12.935054">
        <ele>1319.040</ele>
        <time>2018-09-09T06:35:30Z</time>
      </trkpt>
      <trkpt lat="46.595248" lon="12.935064">
        <ele>1319.542</ele>
        <time>2018-09-09T06:35:34Z</time>
      </trkpt>
      <trkpt lat="46.595257" lon="12.935078">
        <ele>1319.551</ele>
        <time>2018-09-09T06:35:35Z</time>
      </trkpt>
      <trkpt lat="46.595265" lon="12.935095">
        <ele>1319.576</ele>
        <time>2018-09-09T06:35:36Z</time>
      </trkpt>
      <trkpt lat="46.595272" lon="12.935111">
        <ele>1319.044</ele>
        <time>2018-09-09T06:35:37Z</time>
      </trkpt>
      <trkpt lat="46.595280" lon="12.935128">
        <ele>1319.005</ele>
        <time>2018-09-09T06:35:38Z</time>
      </trkpt>
      <trkpt lat="46.595369" lon="12.935294">
        <ele>1318.515</ele>
        <time>2018-09-09T06:35:53Z</time>
      </trkpt>
      <trkpt lat="46.595476" lon="12.935396">
        <ele>1321.408</ele>
        <time>2018-09-09T06:36:08Z</time>
      </trkpt>
      <trkpt lat="46.595526" lon="12.935372">
        <ele>1321.488</ele>
        <time>2018-09-09T06:36:15Z</time>
      </trkpt>
      <trkpt lat="46.595531" lon="12.935357">
        <ele>1320.970</ele>
        <time>2018-09-09T06:36:16Z</time>
      </trkpt>
      <trkpt lat="46.595512" lon="12.935281">
        <ele>1320.588</ele>
        <time>2018-09-09T06:36:24Z</time>
      </trkpt>
      <trkpt lat="46.595490" lon="12.935235">
        <ele>1320.963</ele>
        <time>2018-09-09T06:36:29Z</time>
      </trkpt>
      <trkpt lat="46.595470" lon="12.935060">
        <ele>1323.877</ele>
        <time>2018-09-09T06:36:44Z</time>
      </trkpt>
      <trkpt lat="46.595445" lon="12.934866">
        <ele>1324.319</ele>
        <time>2018-09-09T06:36:57Z</time>
      </trkpt>
      <trkpt lat="46.595444" lon="12.934847">
        <ele>1324.328</ele>
        <time>2018-09-09T06:36:58Z</time>
      </trkpt>
      <trkpt lat="46.595412" lon="12.934599">
        <ele>1319.093</ele>
        <time>2018-09-09T06:37:11Z</time>
      </trkpt>
      <trkpt lat="46.595410" lon="12.934574">
        <ele>1319.091</ele>
        <time>2018-09-09T06:37:12Z</time>
      </trkpt>
      <trkpt lat="46.595407" lon="12.934556">
        <ele>1319.081</ele>
        <time>2018-09-09T06:37:13Z</time>
      </trkpt>
      <trkpt lat="46.595330" lon="12.934298">
        <ele>1326.219</ele>
        <time>2018-09-09T06:37:32Z</time>
      </trkpt>
      <trkpt lat="46.595293" lon="12.934065">
        <ele>1328.208</ele>
        <time>2018-09-09T06:37:48Z</time>
      </trkpt>
      <trkpt lat="46.595291" lon="12.933856">
        <ele>1333.913</ele>
        <time>2018-09-09T06:38:02Z</time>
      </trkpt>
      <trkpt lat="46.595346" lon="12.933635">
        <ele>1344.065</ele>
        <time>2018-09-09T06:38:18Z</time>
      </trkpt>
      <trkpt lat="46.595368" lon="12.933495">
        <ele>1346.993</ele>
        <time>2018-09-09T06:38:26Z</time>
      </trkpt>
      <trkpt lat="46.595400" lon="12.933273">
        <ele>1348.898</ele>
        <time>2018-09-09T06:38:38Z</time>
      </trkpt>
      <trkpt lat="46.595397" lon="12.933050">
        <ele>1352.782</ele>
        <time>2018-09-09T06:38:55Z</time>
      </trkpt>
      <trkpt lat="46.595325" lon="12.932845">
        <ele>1355.174</ele>
        <time>2018-09-09T06:39:10Z</time>
      </trkpt>
      <trkpt lat="46.595329" lon="12.932651">
        <ele>1350.373</ele>
        <time>2018-09-09T06:39:25Z</time>
      </trkpt>
      <trkpt lat="46.595371" lon="12.932473">
        <ele>1351.268</ele>
        <time>2018-09-09T06:39:39Z</time>
      </trkpt>
      <trkpt lat="46.595378" lon="12.932399">
        <ele>1350.735</ele>
        <time>2018-09-09T06:39:44Z</time>
      </trkpt>
      <trkpt lat="46.595388" lon="12.932369">
        <ele>1351.286</ele>
        <time>2018-09-09T06:39:46Z</time>
      </trkpt>
      <trkpt lat="46.595393" lon="12.932354">
        <ele>1351.214</ele>
        <time>2018-09-09T06:39:47Z</time>
      </trkpt>
      <trkpt lat="46.595444" lon="12.932205">
        <ele>1350.708</ele>
        <time>2018-09-09T06:40:00Z</time>
      </trkpt>
      <trkpt lat="46.595499" lon="12.932172">
        <ele>1352.257</ele>
        <time>2018-09-09T06:40:14Z</time>
      </trkpt>
      <trkpt lat="46.595504" lon="12.932150">
        <ele>1353.199</ele>
        <time>2018-09-09T06:40:46Z</time>
      </trkpt>
      <trkpt lat="46.595477" lon="12.932122">
        <ele>1346.427</ele>
        <time>2018-09-09T06:41:07Z</time>
      </trkpt>
      <trkpt lat="46.595492" lon="12.932132">
        <ele>1343.542</ele>
        <time>2018-09-09T06:41:28Z</time>
      </trkpt>
      <trkpt lat="46.595530" lon="12.932087">
        <ele>1343.586</ele>
        <time>2018-09-09T06:41:41Z</time>
      </trkpt>
      <trkpt lat="46.595531" lon="12.932071">
        <ele>1344.098</ele>
        <time>2018-09-09T06:41:42Z</time>
      </trkpt>
      <trkpt lat="46.595625" lon="12.931804">
        <ele>1352.257</ele>
        <time>2018-09-09T06:42:01Z</time>
      </trkpt>
      <trkpt lat="46.595701" lon="12.931673">
        <ele>1352.252</ele>
        <time>2018-09-09T06:42:12Z</time>
      </trkpt>
      <trkpt lat="46.595764" lon="12.931523">
        <ele>1351.262</ele>
        <time>2018-09-09T06:42:24Z</time>
      </trkpt>
      <trkpt lat="46.595819" lon="12.931320">
        <ele>1353.683</ele>
        <time>2018-09-09T06:42:40Z</time>
      </trkpt>
      <trkpt lat="46.595898" lon="12.931078">
        <ele>1357.011</ele>
        <time>2018-09-09T06:42:59Z</time>
      </trkpt>
      <trkpt lat="46.595983" lon="12.930907">
        <ele>1358.908</ele>
        <time>2018-09-09T06:43:15Z</time>
      </trkpt>
      <trkpt lat="46.595985" lon="12.930705">
        <ele>1363.250</ele>
        <time>2018-09-09T06:43:32Z</time>
      </trkpt>
      <trkpt lat="46.595997" lon="12.930625">
        <ele>1364.732</ele>
        <time>2018-09-09T06:43:38Z</time>
      </trkpt>
      <trkpt lat="46.595985" lon="12.930577">
        <ele>1366.190</ele>
        <time>2018-09-09T06:43:42Z</time>
      </trkpt>
      <trkpt lat="46.595986" lon="12.930400">
        <ele>1369.595</ele>
        <time>2018-09-09T06:43:56Z</time>
      </trkpt>
      <trkpt lat="46.595984" lon="12.930224">
        <ele>1371.449</ele>
        <time>2018-09-09T06:44:10Z</time>
      </trkpt>
      <trkpt lat="46.595977" lon="12.930154">
        <ele>1370.571</ele>
        <time>2018-09-09T06:44:15Z</time>
      </trkpt>
      <trkpt lat="46.595985" lon="12.930022">
        <ele>1370.560</ele>
        <time>2018-09-09T06:44:27Z</time>
      </trkpt>
      <trkpt lat="46.596014" lon="12.929878">
        <ele>1372.485</ele>
        <time>2018-09-09T06:44:41Z</time>
      </trkpt>
      <trkpt lat="46.596022" lon="12.929703">
        <ele>1373.825</ele>
        <time>2018-09-09T06:44:56Z</time>
      </trkpt>
      <trkpt lat="46.596044" lon="12.929571">
        <ele>1374.826</ele>
        <time>2018-09-09T06:45:11Z</time>
      </trkpt>
      <trkpt lat="46.596040" lon="12.929390">
        <ele>1377.708</ele>
        <time>2018-09-09T06:45:31Z</time>
      </trkpt>
      <trkpt lat="46.596043" lon="12.929219">
        <ele>1381.008</ele>
        <time>2018-09-09T06:45:48Z</time>
      </trkpt>
      <trkpt lat="46.596044" lon="12.929038">
        <ele>1382.936</ele>
        <time>2018-09-09T06:46:06Z</time>
      </trkpt>
      <trkpt lat="46.596041" lon="12.928880">
        <ele>1384.928</ele>
        <time>2018-09-09T06:46:24Z</time>
      </trkpt>
      <trkpt lat="46.596052" lon="12.928704">
        <ele>1388.766</ele>
        <time>2018-09-09T06:46:41Z</time>
      </trkpt>
      <trkpt lat="46.596051" lon="12.928533">
        <ele>1390.681</ele>
        <time>2018-09-09T06:47:00Z</time>
      </trkpt>
      <trkpt lat="46.596042" lon="12.928372">
        <ele>1395.015</ele>
        <time>2018-09-09T06:47:18Z</time>
      </trkpt>
      <trkpt lat="46.596061" lon="12.928198">
        <ele>1398.337</ele>
        <time>2018-09-09T06:47:36Z</time>
      </trkpt>
      <trkpt lat="46.596052" lon="12.928035">
        <ele>1399.396</ele>
        <time>2018-09-09T06:47:52Z</time>
      </trkpt>
      <trkpt lat="46.595996" lon="12.927912">
        <ele>1402.741</ele>
        <time>2018-09-09T06:48:09Z</time>
      </trkpt>
      <trkpt lat="46.596000" lon="12.927840">
        <ele>1402.224</ele>
        <time>2018-09-09T06:48:17Z</time>
      </trkpt>
      <trkpt lat="46.596011" lon="12.927831">
        <ele>1402.204</ele>
        <time>2018-09-09T06:48:18Z</time>
      </trkpt>
      <trkpt lat="46.596021" lon="12.927825">
        <ele>1401.714</ele>
        <time>2018-09-09T06:48:19Z</time>
      </trkpt>
      <trkpt lat="46.596033" lon="12.927824">
        <ele>1401.708</ele>
        <time>2018-09-09T06:48:20Z</time>
      </trkpt>
      <trkpt lat="46.596046" lon="12.927825">
        <ele>1401.736</ele>
        <time>2018-09-09T06:48:21Z</time>
      </trkpt>
      <trkpt lat="46.596060" lon="12.927822">
        <ele>1402.238</ele>
        <time>2018-09-09T06:48:22Z</time>
      </trkpt>
      <trkpt lat="46.596088" lon="12.927827">
        <ele>1402.276</ele>
        <time>2018-09-09T06:48:24Z</time>
      </trkpt>
      <trkpt lat="46.596248" lon="12.928129">
        <ele>1404.151</ele>
        <time>2018-09-09T06:48:41Z</time>
      </trkpt>
      <trkpt lat="46.596294" lon="12.928226">
        <ele>1405.145</ele>
        <time>2018-09-09T06:48:47Z</time>
      </trkpt>
      <trkpt lat="46.596302" lon="12.928242">
        <ele>1405.577</ele>
        <time>2018-09-09T06:48:48Z</time>
      </trkpt>
      <trkpt lat="46.596327" lon="12.928284">
        <ele>1407.036</ele>
        <time>2018-09-09T06:48:51Z</time>
      </trkpt>
      <trkpt lat="46.596331" lon="12.928301">
        <ele>1407.041</ele>
        <time>2018-09-09T06:48:52Z</time>
      </trkpt>
      <trkpt lat="46.596339" lon="12.928315">
        <ele>1407.568</ele>
        <time>2018-09-09T06:48:53Z</time>
      </trkpt>
      <trkpt lat="46.596347" lon="12.928328">
        <ele>1407.942</ele>
        <time>2018-09-09T06:48:54Z</time>
      </trkpt>
      <trkpt lat="46.596356" lon="12.928342">
        <ele>1408.426</ele>
        <time>2018-09-09T06:48:55Z</time>
      </trkpt>
      <trkpt lat="46.596365" lon="12.928359">
        <ele>1408.408</ele>
        <time>2018-09-09T06:48:56Z</time>
      </trkpt>
      <trkpt lat="46.596373" lon="12.928376">
        <ele>1408.930</ele>
        <time>2018-09-09T06:48:57Z</time>
      </trkpt>
      <trkpt lat="46.596536" lon="12.928633">
        <ele>1408.962</ele>
        <time>2018-09-09T06:49:15Z</time>
      </trkpt>
      <trkpt lat="46.596557" lon="12.928643">
        <ele>1409.410</ele>
        <time>2018-09-09T06:49:17Z</time>
      </trkpt>
      <trkpt lat="46.596564" lon="12.928630">
        <ele>1409.415</ele>
        <time>2018-09-09T06:49:18Z</time>
      </trkpt>
      <trkpt lat="46.596571" lon="12.928616">
        <ele>1409.989</ele>
        <time>2018-09-09T06:49:19Z</time>
      </trkpt>
      <trkpt lat="46.596579" lon="12.928581">
        <ele>1410.311</ele>
        <time>2018-09-09T06:49:21Z</time>
      </trkpt>
      <trkpt lat="46.596577" lon="12.928566">
        <ele>1410.310</ele>
        <time>2018-09-09T06:49:22Z</time>
      </trkpt>
      <trkpt lat="46.596564" lon="12.928541">
        <ele>1410.315</ele>
        <time>2018-09-09T06:49:24Z</time>
      </trkpt>
      <trkpt lat="46.596555" lon="12.928529">
        <ele>1410.813</ele>
        <time>2018-09-09T06:49:25Z</time>
      </trkpt>
      <trkpt lat="46.596549" lon="12.928516">
        <ele>1410.843</ele>
        <time>2018-09-09T06:49:26Z</time>
      </trkpt>
      <trkpt lat="46.596540" lon="12.928503">
        <ele>1410.807</ele>
        <time>2018-09-09T06:49:27Z</time>
      </trkpt>
      <trkpt lat="46.596532" lon="12.928492">
        <ele>1410.808</ele>
        <time>2018-09-09T06:49:28Z</time>
      </trkpt>
      <trkpt lat="46.596526" lon="12.928477">
        <ele>1411.335</ele>
        <time>2018-09-09T06:49:29Z</time>
      </trkpt>
      <trkpt lat="46.596520" lon="12.928466">
        <ele>1411.327</ele>
        <time>2018-09-09T06:49:30Z</time>
      </trkpt>
      <trkpt lat="46.596447" lon="12.928231">
        <ele>1415.245</ele>
        <time>2018-09-09T06:49:46Z</time>
      </trkpt>
      <trkpt lat="46.596434" lon="12.928121">
        <ele>1415.610</ele>
        <time>2018-09-09T06:49:53Z</time>
      </trkpt>
      <trkpt lat="46.596424" lon="12.928013">
        <ele>1417.124</ele>
        <time>2018-09-09T06:50:00Z</time>
      </trkpt>
      <trkpt lat="46.596421" lon="12.927996">
        <ele>1417.666</ele>
        <time>2018-09-09T06:50:01Z</time>
      </trkpt>
      <trkpt lat="46.596420" lon="12.927980">
        <ele>1417.645</ele>
        <time>2018-09-09T06:50:02Z</time>
      </trkpt>
      <trkpt lat="46.596413" lon="12.927879">
        <ele>1420.020</ele>
        <time>2018-09-09T06:50:09Z</time>
      </trkpt>
      <trkpt lat="46.596370" lon="12.927673">
        <ele>1424.837</ele>
        <time>2018-09-09T06:50:23Z</time>
      </trkpt>
      <trkpt lat="46.596284" lon="12.927465">
        <ele>1432.049</ele>
        <time>2018-09-09T06:50:37Z</time>
      </trkpt>
      <trkpt lat="46.596158" lon="12.927231">
        <ele>1436.313</ele>
        <time>2018-09-09T06:50:55Z</time>
      </trkpt>
      <trkpt lat="46.596137" lon="12.927201">
        <ele>1436.808</ele>
        <time>2018-09-09T06:50:58Z</time>
      </trkpt>
      <trkpt lat="46.596128" lon="12.927188">
        <ele>1436.827</ele>
        <time>2018-09-09T06:50:59Z</time>
      </trkpt>
      <trkpt lat="46.596121" lon="12.927176">
        <ele>1436.889</ele>
        <time>2018-09-09T06:51:00Z</time>
      </trkpt>
      <trkpt lat="46.596028" lon="12.926953">
        <ele>1439.747</ele>
        <time>2018-09-09T06:51:16Z</time>
      </trkpt>
      <trkpt lat="46.596020" lon="12.926948">
        <ele>1440.192</ele>
        <time>2018-09-09T06:51:17Z</time>
      </trkpt>
      <trkpt lat="46.595943" lon="12.926821">
        <ele>1441.166</ele>
        <time>2018-09-09T06:51:27Z</time>
      </trkpt>
      <trkpt lat="46.595907" lon="12.926784">
        <ele>1441.618</ele>
        <time>2018-09-09T06:51:32Z</time>
      </trkpt>
      <trkpt lat="46.595886" lon="12.926761">
        <ele>1441.647</ele>
        <time>2018-09-09T06:51:35Z</time>
      </trkpt>
      <trkpt lat="46.595781" lon="12.926692">
        <ele>1440.162</ele>
        <time>2018-09-09T06:51:49Z</time>
      </trkpt>
      <trkpt lat="46.595681" lon="12.926675">
        <ele>1441.681</ele>
        <time>2018-09-09T06:52:00Z</time>
      </trkpt>
      <trkpt lat="46.595667" lon="12.926684">
        <ele>1442.161</ele>
        <time>2018-09-09T06:52:01Z</time>
      </trkpt>
      <trkpt lat="46.595615" lon="12.926716">
        <ele>1442.617</ele>
        <time>2018-09-09T06:52:05Z</time>
      </trkpt>
      <trkpt lat="46.595600" lon="12.926716">
        <ele>1442.108</ele>
        <time>2018-09-09T06:52:06Z</time>
      </trkpt>
      <trkpt lat="46.595581" lon="12.926729">
        <ele>1442.192</ele>
        <time>2018-09-09T06:52:08Z</time>
      </trkpt>
      <trkpt lat="46.595569" lon="12.926736">
        <ele>1441.144</ele>
        <time>2018-09-09T06:52:09Z</time>
      </trkpt>
      <trkpt lat="46.595495" lon="12.926830">
        <ele>1440.612</ele>
        <time>2018-09-09T06:52:17Z</time>
      </trkpt>
      <trkpt lat="46.595484" lon="12.926840">
        <ele>1440.157</ele>
        <time>2018-09-09T06:52:18Z</time>
      </trkpt>
      <trkpt lat="46.595472" lon="12.926854">
        <ele>1440.661</ele>
        <time>2018-09-09T06:52:19Z</time>
      </trkpt>
      <trkpt lat="46.595462" lon="12.926864">
        <ele>1440.683</ele>
        <time>2018-09-09T06:52:20Z</time>
      </trkpt>
      <trkpt lat="46.595451" lon="12.926874">
        <ele>1440.622</ele>
        <time>2018-09-09T06:52:21Z</time>
      </trkpt>
      <trkpt lat="46.595443" lon="12.926886">
        <ele>1440.637</ele>
        <time>2018-09-09T06:52:22Z</time>
      </trkpt>
      <trkpt lat="46.595434" lon="12.926894">
        <ele>1440.151</ele>
        <time>2018-09-09T06:52:23Z</time>
      </trkpt>
      <trkpt lat="46.595424" lon="12.926899">
        <ele>1439.701</ele>
        <time>2018-09-09T06:52:24Z</time>
      </trkpt>
      <trkpt lat="46.595415" lon="12.926902">
        <ele>1439.711</ele>
        <time>2018-09-09T06:52:25Z</time>
      </trkpt>
      <trkpt lat="46.595406" lon="12.926908">
        <ele>1439.708</ele>
        <time>2018-09-09T06:52:26Z</time>
      </trkpt>
      <trkpt lat="46.595397" lon="12.926917">
        <ele>1440.149</ele>
        <time>2018-09-09T06:52:27Z</time>
      </trkpt>
      <trkpt lat="46.595385" lon="12.926926">
        <ele>1440.681</ele>
        <time>2018-09-09T06:52:28Z</time>
      </trkpt>
      <trkpt lat="46.595233" lon="12.926967">
        <ele>1442.149</ele>
        <time>2018-09-09T06:52:42Z</time>
      </trkpt>
      <trkpt lat="46.595220" lon="12.926974">
        <ele>1442.114</ele>
        <time>2018-09-09T06:52:43Z</time>
      </trkpt>
      <trkpt lat="46.595207" lon="12.926982">
        <ele>1442.148</ele>
        <time>2018-09-09T06:52:44Z</time>
      </trkpt>
      <trkpt lat="46.595145" lon="12.927008">
        <ele>1440.660</ele>
        <time>2018-09-09T06:52:57Z</time>
      </trkpt>
      <trkpt lat="46.595086" lon="12.927069">
        <ele>1440.699</ele>
        <time>2018-09-09T06:53:08Z</time>
      </trkpt>
      <trkpt lat="46.595077" lon="12.927135">
        <ele>1442.134</ele>
        <time>2018-09-09T06:53:32Z</time>
      </trkpt>
      <trkpt lat="46.594946" lon="12.927292">
        <ele>1443.093</ele>
        <time>2018-09-09T06:53:47Z</time>
      </trkpt>
      <trkpt lat="46.594830" lon="12.927513">
        <ele>1445.965</ele>
        <time>2018-09-09T06:54:03Z</time>
      </trkpt>
      <trkpt lat="46.594806" lon="12.927547">
        <ele>1446.421</ele>
        <time>2018-09-09T06:54:06Z</time>
      </trkpt>
      <trkpt lat="46.594797" lon="12.927559">
        <ele>1445.908</ele>
        <time>2018-09-09T06:54:07Z</time>
      </trkpt>
      <trkpt lat="46.594787" lon="12.927569">
        <ele>1445.923</ele>
        <time>2018-09-09T06:54:08Z</time>
      </trkpt>
      <trkpt lat="46.594777" lon="12.927576">
        <ele>1445.935</ele>
        <time>2018-09-09T06:54:09Z</time>
      </trkpt>
      <trkpt lat="46.594766" lon="12.927586">
        <ele>1445.943</ele>
        <time>2018-09-09T06:54:10Z</time>
      </trkpt>
      <trkpt lat="46.594757" lon="12.927597">
        <ele>1445.948</ele>
        <time>2018-09-09T06:54:11Z</time>
      </trkpt>
      <trkpt lat="46.594746" lon="12.927606">
        <ele>1446.442</ele>
        <time>2018-09-09T06:54:12Z</time>
      </trkpt>
      <trkpt lat="46.594734" lon="12.927612">
        <ele>1446.414</ele>
        <time>2018-09-09T06:54:13Z</time>
      </trkpt>
      <trkpt lat="46.594721" lon="12.927616">
        <ele>1446.443</ele>
        <time>2018-09-09T06:54:14Z</time>
      </trkpt>
      <trkpt lat="46.594706" lon="12.927617">
        <ele>1446.438</ele>
        <time>2018-09-09T06:54:15Z</time>
      </trkpt>
      <trkpt lat="46.594485" lon="12.927602">
        <ele>1448.818</ele>
        <time>2018-09-09T06:54:30Z</time>
      </trkpt>
      <trkpt lat="46.594471" lon="12.927595">
        <ele>1448.398</ele>
        <time>2018-09-09T06:54:31Z</time>
      </trkpt>
      <trkpt lat="46.594457" lon="12.927583">
        <ele>1448.317</ele>
        <time>2018-09-09T06:54:32Z</time>
      </trkpt>
      <trkpt lat="46.594439" lon="12.927574">
        <ele>1448.308</ele>
        <time>2018-09-09T06:54:33Z</time>
      </trkpt>
      <trkpt lat="46.594421" lon="12.927570">
        <ele>1448.395</ele>
        <time>2018-09-09T06:54:34Z</time>
      </trkpt>
      <trkpt lat="46.594403" lon="12.927563">
        <ele>1447.857</ele>
        <time>2018-09-09T06:54:35Z</time>
      </trkpt>
      <trkpt lat="46.594384" lon="12.927556">
        <ele>1448.365</ele>
        <time>2018-09-09T06:54:36Z</time>
      </trkpt>
      <trkpt lat="46.594367" lon="12.927549">
        <ele>1448.320</ele>
        <time>2018-09-09T06:54:37Z</time>
      </trkpt>
      <trkpt lat="46.594090" lon="12.927595">
        <ele>1449.834</ele>
        <time>2018-09-09T06:54:54Z</time>
      </trkpt>
      <trkpt lat="46.593895" lon="12.927771">
        <ele>1451.746</ele>
        <time>2018-09-09T06:55:09Z</time>
      </trkpt>
      <trkpt lat="46.593842" lon="12.927809">
        <ele>1452.265</ele>
        <time>2018-09-09T06:55:14Z</time>
      </trkpt>
      <trkpt lat="46.593837" lon="12.927823">
        <ele>1452.610</ele>
        <time>2018-09-09T06:55:15Z</time>
      </trkpt>
      <trkpt lat="46.593734" lon="12.927951">
        <ele>1454.115</ele>
        <time>2018-09-09T06:55:31Z</time>
      </trkpt>
      <trkpt lat="46.593619" lon="12.928011">
        <ele>1456.565</ele>
        <time>2018-09-09T06:55:44Z</time>
      </trkpt>
      <trkpt lat="46.593609" lon="12.928016">
        <ele>1456.511</ele>
        <time>2018-09-09T06:55:45Z</time>
      </trkpt>
      <trkpt lat="46.593597" lon="12.928021">
        <ele>1456.508</ele>
        <time>2018-09-09T06:55:46Z</time>
      </trkpt>
      <trkpt lat="46.593576" lon="12.928035">
        <ele>1457.015</ele>
        <time>2018-09-09T06:55:48Z</time>
      </trkpt>
      <trkpt lat="46.593563" lon="12.928062">
        <ele>1457.017</ele>
        <time>2018-09-09T06:55:50Z</time>
      </trkpt>
      <trkpt lat="46.593556" lon="12.928074">
        <ele>1457.045</ele>
        <time>2018-09-09T06:55:51Z</time>
      </trkpt>
      <trkpt lat="46.593547" lon="12.928080">
        <ele>1457.010</ele>
        <time>2018-09-09T06:55:52Z</time>
      </trkpt>
      <trkpt lat="46.593538" lon="12.928088">
        <ele>1457.564</ele>
        <time>2018-09-09T06:55:53Z</time>
      </trkpt>
      <trkpt lat="46.593529" lon="12.928100">
        <ele>1457.036</ele>
        <time>2018-09-09T06:55:54Z</time>
      </trkpt>
      <trkpt lat="46.593520" lon="12.928114">
        <ele>1457.055</ele>
        <time>2018-09-09T06:55:55Z</time>
      </trkpt>
      <trkpt lat="46.593346" lon="12.928355">
        <ele>1456.540</ele>
        <time>2018-09-09T06:56:07Z</time>
      </trkpt>
      <trkpt lat="46.593319" lon="12.928369">
        <ele>1457.049</ele>
        <time>2018-09-09T06:56:09Z</time>
      </trkpt>
      <trkpt lat="46.593302" lon="12.928375">
        <ele>1457.502</ele>
        <time>2018-09-09T06:56:11Z</time>
      </trkpt>
      <trkpt lat="46.593112" lon="12.928392">
        <ele>1458.922</ele>
        <time>2018-09-09T06:56:26Z</time>
      </trkpt>
      <trkpt lat="46.593071" lon="12.928349">
        <ele>1461.308</ele>
        <time>2018-09-09T06:56:49Z</time>
      </trkpt>
      <trkpt lat="46.593063" lon="12.928333">
        <ele>1461.328</ele>
        <time>2018-09-09T06:56:50Z</time>
      </trkpt>
      <trkpt lat="46.593055" lon="12.928318">
        <ele>1461.340</ele>
        <time>2018-09-09T06:56:51Z</time>
      </trkpt>
      <trkpt lat="46.593045" lon="12.928305">
        <ele>1461.358</ele>
        <time>2018-09-09T06:56:52Z</time>
      </trkpt>
      <trkpt lat="46.593032" lon="12.928292">
        <ele>1461.343</ele>
        <time>2018-09-09T06:56:53Z</time>
      </trkpt>
      <trkpt lat="46.593019" lon="12.928281">
        <ele>1461.367</ele>
        <time>2018-09-09T06:56:54Z</time>
      </trkpt>
      <trkpt lat="46.593001" lon="12.928257">
        <ele>1461.339</ele>
        <time>2018-09-09T06:56:56Z</time>
      </trkpt>
      <trkpt lat="46.592995" lon="12.928238">
        <ele>1461.328</ele>
        <time>2018-09-09T06:56:57Z</time>
      </trkpt>
      <trkpt lat="46.592987" lon="12.928220">
        <ele>1461.333</ele>
        <time>2018-09-09T06:56:58Z</time>
      </trkpt>
      <trkpt lat="46.592977" lon="12.928203">
        <ele>1461.894</ele>
        <time>2018-09-09T06:56:59Z</time>
      </trkpt>
      <trkpt lat="46.592968" lon="12.928192">
        <ele>1461.857</ele>
        <time>2018-09-09T06:57:00Z</time>
      </trkpt>
      <trkpt lat="46.592957" lon="12.928182">
        <ele>1461.822</ele>
        <time>2018-09-09T06:57:01Z</time>
      </trkpt>
      <trkpt lat="46.592946" lon="12.928170">
        <ele>1461.808</ele>
        <time>2018-09-09T06:57:02Z</time>
      </trkpt>
      <trkpt lat="46.592937" lon="12.928160">
        <ele>1462.343</ele>
        <time>2018-09-09T06:57:03Z</time>
      </trkpt>
      <trkpt lat="46.592928" lon="12.928148">
        <ele>1462.715</ele>
        <time>2018-09-09T06:57:04Z</time>
      </trkpt>
      <trkpt lat="46.592922" lon="12.928137">
        <ele>1462.783</ele>
        <time>2018-09-09T06:57:05Z</time>
      </trkpt>
      <trkpt lat="46.592917" lon="12.928122">
        <ele>1463.248</ele>
        <time>2018-09-09T06:57:06Z</time>
      </trkpt>
      <trkpt lat="46.592911" lon="12.928112">
        <ele>1463.282</ele>
        <time>2018-09-09T06:57:07Z</time>
      </trkpt>
      <trkpt lat="46.592906" lon="12.928100">
        <ele>1463.714</ele>
        <time>2018-09-09T06:57:08Z</time>
      </trkpt>
      <trkpt lat="46.592892" lon="12.928082">
        <ele>1464.243</ele>
        <time>2018-09-09T06:57:10Z</time>
      </trkpt>
      <trkpt lat="46.592884" lon="12.928072">
        <ele>1464.258</ele>
        <time>2018-09-09T06:57:11Z</time>
      </trkpt>
      <trkpt lat="46.592875" lon="12.928065">
        <ele>1464.796</ele>
        <time>2018-09-09T06:57:12Z</time>
      </trkpt>
      <trkpt lat="46.592866" lon="12.928057">
        <ele>1464.731</ele>
        <time>2018-09-09T06:57:13Z</time>
      </trkpt>
      <trkpt lat="46.592854" lon="12.928010">
        <ele>1465.624</ele>
        <time>2018-09-09T06:57:17Z</time>
      </trkpt>
      <trkpt lat="46.592852" lon="12.927996">
        <ele>1465.608</ele>
        <time>2018-09-09T06:57:18Z</time>
      </trkpt>
      <trkpt lat="46.592839" lon="12.927975">
        <ele>1465.683</ele>
        <time>2018-09-09T06:57:20Z</time>
      </trkpt>
      <trkpt lat="46.592809" lon="12.927929">
        <ele>1466.135</ele>
        <time>2018-09-09T06:57:25Z</time>
      </trkpt>
      <trkpt lat="46.592799" lon="12.927890">
        <ele>1466.663</ele>
        <time>2018-09-09T06:57:28Z</time>
      </trkpt>
      <trkpt lat="46.592767" lon="12.927832">
        <ele>1467.198</ele>
        <time>2018-09-09T06:57:38Z</time>
      </trkpt>
      <trkpt lat="46.592696" lon="12.927716">
        <ele>1468.582</ele>
        <time>2018-09-09T06:57:55Z</time>
      </trkpt>
      <trkpt lat="46.592623" lon="12.927596">
        <ele>1470.954</ele>
        <time>2018-09-09T06:58:13Z</time>
      </trkpt>
      <trkpt lat="46.592580" lon="12.927477">
        <ele>1472.853</ele>
        <time>2018-09-09T06:58:28Z</time>
      </trkpt>
      <trkpt lat="46.592582" lon="12.927329">
        <ele>1475.298</ele>
        <time>2018-09-09T06:58:46Z</time>
      </trkpt>
      <trkpt lat="46.592583" lon="12.927201">
        <ele>1477.616</ele>
        <time>2018-09-09T06:59:03Z</time>
      </trkpt>
      <trkpt lat="46.592548" lon="12.927074">
        <ele>1480.576</ele>
        <time>2018-09-09T06:59:22Z</time>
      </trkpt>
      <trkpt lat="46.592503" lon="12.926955">
        <ele>1482.913</ele>
        <time>2018-09-09T06:59:39Z</time>
      </trkpt>
      <trkpt lat="46.592455" lon="12.926844">
        <ele>1485.308</ele>
        <time>2018-09-09T06:59:57Z</time>
      </trkpt>
      <trkpt lat="46.592380" lon="12.926752">
        <ele>1487.795</ele>
        <time>2018-09-09T07:00:17Z</time>
      </trkpt>
      <trkpt lat="46.592328" lon="12.926642">
        <ele>1491.177</ele>
        <time>2018-09-09T07:00:36Z</time>
      </trkpt>
      <trkpt lat="46.592273" lon="12.926530">
        <ele>1494.095</ele>
        <time>2018-09-09T07:00:54Z</time>
      </trkpt>
      <trkpt lat="46.592208" lon="12.926417">
        <ele>1496.480</ele>
        <time>2018-09-09T07:01:11Z</time>
      </trkpt>
      <trkpt lat="46.592158" lon="12.926324">
        <ele>1498.364</ele>
        <time>2018-09-09T07:01:26Z</time>
      </trkpt>
      <trkpt lat="46.592099" lon="12.926211">
        <ele>1500.226</ele>
        <time>2018-09-09T07:01:42Z</time>
      </trkpt>
      <trkpt lat="46.592008" lon="12.926049">
        <ele>1504.185</ele>
        <time>2018-09-09T07:02:02Z</time>
      </trkpt>
      <trkpt lat="46.592001" lon="12.925905">
        <ele>1508.470</ele>
        <time>2018-09-09T07:02:19Z</time>
      </trkpt>
      <trkpt lat="46.591992" lon="12.925744">
        <ele>1511.887</ele>
        <time>2018-09-09T07:02:38Z</time>
      </trkpt>
      <trkpt lat="46.591985" lon="12.925688">
        <ele>1512.242</ele>
        <time>2018-09-09T07:02:45Z</time>
      </trkpt>
      <trkpt lat="46.591969" lon="12.925650">
        <ele>1512.726</ele>
        <time>2018-09-09T07:02:48Z</time>
      </trkpt>
      <trkpt lat="46.591948" lon="12.925592">
        <ele>1512.708</ele>
        <time>2018-09-09T07:02:52Z</time>
      </trkpt>
      <trkpt lat="46.591927" lon="12.925532">
        <ele>1512.732</ele>
        <time>2018-09-09T07:02:56Z</time>
      </trkpt>
      <trkpt lat="46.591924" lon="12.925517">
        <ele>1512.754</ele>
        <time>2018-09-09T07:02:57Z</time>
      </trkpt>
      <trkpt lat="46.591917" lon="12.925504">
        <ele>1513.212</ele>
        <time>2018-09-09T07:02:58Z</time>
      </trkpt>
      <trkpt lat="46.591909" lon="12.925493">
        <ele>1513.247</ele>
        <time>2018-09-09T07:02:59Z</time>
      </trkpt>
      <trkpt lat="46.591901" lon="12.925481">
        <ele>1513.711</ele>
        <time>2018-09-09T07:03:00Z</time>
      </trkpt>
      <trkpt lat="46.591877" lon="12.925447">
        <ele>1514.223</ele>
        <time>2018-09-09T07:03:03Z</time>
      </trkpt>
      <trkpt lat="46.591867" lon="12.925439">
        <ele>1514.222</ele>
        <time>2018-09-09T07:03:04Z</time>
      </trkpt>
      <trkpt lat="46.591857" lon="12.925431">
        <ele>1514.697</ele>
        <time>2018-09-09T07:03:05Z</time>
      </trkpt>
      <trkpt lat="46.591846" lon="12.925424">
        <ele>1514.657</ele>
        <time>2018-09-09T07:03:06Z</time>
      </trkpt>
      <trkpt lat="46.591833" lon="12.925417">
        <ele>1514.600</ele>
        <time>2018-09-09T07:03:07Z</time>
      </trkpt>
      <trkpt lat="46.591745" lon="12.925427">
        <ele>1515.620</ele>
        <time>2018-09-09T07:03:15Z</time>
      </trkpt>
      <trkpt lat="46.591735" lon="12.925435">
        <ele>1516.108</ele>
        <time>2018-09-09T07:03:16Z</time>
      </trkpt>
      <trkpt lat="46.591727" lon="12.925445">
        <ele>1516.159</ele>
        <time>2018-09-09T07:03:17Z</time>
      </trkpt>
      <trkpt lat="46.591719" lon="12.925456">
        <ele>1516.131</ele>
        <time>2018-09-09T07:03:18Z</time>
      </trkpt>
      <trkpt lat="46.591712" lon="12.925468">
        <ele>1516.149</ele>
        <time>2018-09-09T07:03:19Z</time>
      </trkpt>
      <trkpt lat="46.591636" lon="12.925567">
        <ele>1517.544</ele>
        <time>2018-09-09T07:03:28Z</time>
      </trkpt>
      <trkpt lat="46.591614" lon="12.925605">
        <ele>1518.038</ele>
        <time>2018-09-09T07:03:31Z</time>
      </trkpt>
      <trkpt lat="46.591605" lon="12.925615">
        <ele>1518.570</ele>
        <time>2018-09-09T07:03:32Z</time>
      </trkpt>
      <trkpt lat="46.591462" lon="12.925721">
        <ele>1521.459</ele>
        <time>2018-09-09T07:03:48Z</time>
      </trkpt>
      <trkpt lat="46.591404" lon="12.925610">
        <ele>1521.964</ele>
        <time>2018-09-09T07:04:00Z</time>
      </trkpt>
      <trkpt lat="46.591363" lon="12.925434">
        <ele>1525.283</ele>
        <time>2018-09-09T07:04:13Z</time>
      </trkpt>
      <trkpt lat="46.591347" lon="12.925228">
        <ele>1527.125</ele>
        <time>2018-09-09T07:04:28Z</time>
      </trkpt>
      <trkpt lat="46.591347" lon="12.925212">
        <ele>1527.117</ele>
        <time>2018-09-09T07:04:29Z</time>
      </trkpt>
      <trkpt lat="46.591219" lon="12.924949">
        <ele>1530.508</ele>
        <time>2018-09-09T07:04:48Z</time>
      </trkpt>
      <trkpt lat="46.591059" lon="12.924741">
        <ele>1532.472</ele>
        <time>2018-09-09T07:05:06Z</time>
      </trkpt>
      <trkpt lat="46.591051" lon="12.924738">
        <ele>1532.924</ele>
        <time>2018-09-09T07:05:07Z</time>
      </trkpt>
      <trkpt lat="46.591043" lon="12.924735">
        <ele>1532.922</ele>
        <time>2018-09-09T07:05:08Z</time>
      </trkpt>
      <trkpt lat="46.591036" lon="12.924728">
        <ele>1532.987</ele>
        <time>2018-09-09T07:05:09Z</time>
      </trkpt>
      <trkpt lat="46.591028" lon="12.924723">
        <ele>1532.931</ele>
        <time>2018-09-09T07:05:10Z</time>
      </trkpt>
      <trkpt lat="46.591017" lon="12.924728">
        <ele>1532.943</ele>
        <time>2018-09-09T07:05:11Z</time>
      </trkpt>
      <trkpt lat="46.591007" lon="12.924733">
        <ele>1533.442</ele>
        <time>2018-09-09T07:05:12Z</time>
      </trkpt>
      <trkpt lat="46.590925" lon="12.924731">
        <ele>1534.867</ele>
        <time>2018-09-09T07:05:20Z</time>
      </trkpt>
      <trkpt lat="46.590830" lon="12.924635">
        <ele>1536.389</ele>
        <time>2018-09-09T07:05:33Z</time>
      </trkpt>
      <trkpt lat="46.590818" lon="12.924641">
        <ele>1536.806</ele>
        <time>2018-09-09T07:05:34Z</time>
      </trkpt>
      <trkpt lat="46.590799" lon="12.924645">
        <ele>1537.226</ele>
        <time>2018-09-09T07:05:36Z</time>
      </trkpt>
      <trkpt lat="46.590669" lon="12.924614">
        <ele>1539.208</ele>
        <time>2018-09-09T07:05:50Z</time>
      </trkpt>
      <trkpt lat="46.590549" lon="12.924608">
        <ele>1540.122</ele>
        <time>2018-09-09T07:06:02Z</time>
      </trkpt>
      <trkpt lat="46.590519" lon="12.924603">
        <ele>1539.664</ele>
        <time>2018-09-09T07:06:05Z</time>
      </trkpt>
      <trkpt lat="46.590456" lon="12.924549">
        <ele>1539.662</ele>
        <time>2018-09-09T07:06:11Z</time>
      </trkpt>
      <trkpt lat="46.590334" lon="12.924340">
        <ele>1541.687</ele>
        <time>2018-09-09T07:06:29Z</time>
      </trkpt>
      <trkpt lat="46.590300" lon="12.924161">
        <ele>1544.531</ele>
        <time>2018-09-09T07:06:44Z</time>
      </trkpt>
      <trkpt lat="46.590309" lon="12.924121">
        <ele>1544.973</ele>
        <time>2018-09-09T07:06:47Z</time>
      </trkpt>
      <trkpt lat="46.590312" lon="12.924108">
        <ele>1544.942</ele>
        <time>2018-09-09T07:06:48Z</time>
      </trkpt>
      <trkpt lat="46.590343" lon="12.923873">
        <ele>1548.367</ele>
        <time>2018-09-09T07:07:06Z</time>
      </trkpt>
      <trkpt lat="46.590342" lon="12.923844">
        <ele>1548.877</ele>
        <time>2018-09-09T07:07:08Z</time>
      </trkpt>
      <trkpt lat="46.590317" lon="12.923648">
        <ele>1551.761</ele>
        <time>2018-09-09T07:07:23Z</time>
      </trkpt>
      <trkpt lat="46.590232" lon="12.923502">
        <ele>1553.127</ele>
        <time>2018-09-09T07:07:39Z</time>
      </trkpt>
      <trkpt lat="46.590226" lon="12.923491">
        <ele>1553.608</ele>
        <time>2018-09-09T07:07:40Z</time>
      </trkpt>
      <trkpt lat="46.590206" lon="12.923420">
        <ele>1554.531</ele>
        <time>2018-09-09T07:07:46Z</time>
      </trkpt>
      <trkpt lat="46.590107" lon="12.923223">
        <ele>1558.453</ele>
        <time>2018-09-09T07:08:04Z</time>
      </trkpt>
      <trkpt lat="46.589981" lon="12.923112">
        <ele>1560.331</ele>
        <time>2018-09-09T07:08:18Z</time>
      </trkpt>
      <trkpt lat="46.589827" lon="12.922967">
        <ele>1562.296</ele>
        <time>2018-09-09T07:08:36Z</time>
      </trkpt>
      <trkpt lat="46.589762" lon="12.922855">
        <ele>1563.270</ele>
        <time>2018-09-09T07:08:46Z</time>
      </trkpt>
      <trkpt lat="46.589761" lon="12.922841">
        <ele>1563.252</ele>
        <time>2018-09-09T07:08:47Z</time>
      </trkpt>
      <trkpt lat="46.589727" lon="12.922668">
        <ele>1565.671</ele>
        <time>2018-09-09T07:09:01Z</time>
      </trkpt>
      <trkpt lat="46.589687" lon="12.922447">
        <ele>1568.556</ele>
        <time>2018-09-09T07:09:18Z</time>
      </trkpt>
      <trkpt lat="46.589619" lon="12.922319">
        <ele>1570.499</ele>
        <time>2018-09-09T07:09:31Z</time>
      </trkpt>
      <trkpt lat="46.589578" lon="12.922144">
        <ele>1572.307</ele>
        <time>2018-09-09T07:09:45Z</time>
      </trkpt>
      <trkpt lat="46.589568" lon="12.922083">
        <ele>1572.827</ele>
        <time>2018-09-09T07:09:49Z</time>
      </trkpt>
      <trkpt lat="46.589532" lon="12.921886">
        <ele>1574.708</ele>
        <time>2018-09-09T07:10:05Z</time>
      </trkpt>
      <trkpt lat="46.589496" lon="12.921725">
        <ele>1576.223</ele>
        <time>2018-09-09T07:10:19Z</time>
      </trkpt>
      <trkpt lat="46.589477" lon="12.921583">
        <ele>1575.275</ele>
        <time>2018-09-09T07:10:32Z</time>
      </trkpt>
      <trkpt lat="46.589456" lon="12.921360">
        <ele>1575.743</ele>
        <time>2018-09-09T07:10:50Z</time>
      </trkpt>
      <trkpt lat="46.589444" lon="12.921127">
        <ele>1578.128</ele>
        <time>2018-09-09T07:11:08Z</time>
      </trkpt>
      <trkpt lat="46.589446" lon="12.920888">
        <ele>1581.562</ele>
        <time>2018-09-09T07:11:25Z</time>
      </trkpt>
      <trkpt lat="46.589457" lon="12.920701">
        <ele>1584.314</ele>
        <time>2018-09-09T07:11:39Z</time>
      </trkpt>
      <trkpt lat="46.589457" lon="12.920520">
        <ele>1586.383</ele>
        <time>2018-09-09T07:11:54Z</time>
      </trkpt>
      <trkpt lat="46.589447" lon="12.920431">
        <ele>1587.228</ele>
        <time>2018-09-09T07:12:06Z</time>
      </trkpt>
      <trkpt lat="46.589451" lon="12.920198">
        <ele>1590.694</ele>
        <time>2018-09-09T07:12:26Z</time>
      </trkpt>
      <trkpt lat="46.589455" lon="12.920009">
        <ele>1594.957</ele>
        <time>2018-09-09T07:12:44Z</time>
      </trkpt>
      <trkpt lat="46.589435" lon="12.919859">
        <ele>1596.422</ele>
        <time>2018-09-09T07:13:00Z</time>
      </trkpt>
      <trkpt lat="46.589417" lon="12.919722">
        <ele>1597.808</ele>
        <time>2018-09-09T07:13:15Z</time>
      </trkpt>
      <trkpt lat="46.589419" lon="12.919538">
        <ele>1602.143</ele>
        <time>2018-09-09T07:13:32Z</time>
      </trkpt>
      <trkpt lat="46.589427" lon="12.919351">
        <ele>1606.075</ele>
        <time>2018-09-09T07:13:50Z</time>
      </trkpt>
      <trkpt lat="46.589464" lon="12.919191">
        <ele>1609.343</ele>
        <time>2018-09-09T07:14:07Z</time>
      </trkpt>
      <trkpt lat="46.589440" lon="12.919047">
        <ele>1611.328</ele>
        <time>2018-09-09T07:14:24Z</time>
      </trkpt>
      <trkpt lat="46.589406" lon="12.918860">
        <ele>1612.262</ele>
        <time>2018-09-09T07:14:44Z</time>
      </trkpt>
      <trkpt lat="46.589375" lon="12.918715">
        <ele>1614.174</ele>
        <time>2018-09-09T07:15:02Z</time>
      </trkpt>
      <trkpt lat="46.589363" lon="12.918637">
        <ele>1616.173</ele>
        <time>2018-09-09T07:15:17Z</time>
      </trkpt>
      <trkpt lat="46.589340" lon="12.918444">
        <ele>1619.498</ele>
        <time>2018-09-09T07:15:36Z</time>
      </trkpt>
      <trkpt lat="46.589327" lon="12.918250">
        <ele>1620.497</ele>
        <time>2018-09-09T07:15:56Z</time>
      </trkpt>
      <trkpt lat="46.589297" lon="12.918102">
        <ele>1622.823</ele>
        <time>2018-09-09T07:16:13Z</time>
      </trkpt>
      <trkpt lat="46.589248" lon="12.917943">
        <ele>1625.725</ele>
        <time>2018-09-09T07:16:32Z</time>
      </trkpt>
      <trkpt lat="46.589219" lon="12.917810">
        <ele>1626.608</ele>
        <time>2018-09-09T07:16:50Z</time>
      </trkpt>
      <trkpt lat="46.589177" lon="12.917670">
        <ele>1629.033</ele>
        <time>2018-09-09T07:17:08Z</time>
      </trkpt>
      <trkpt lat="46.589118" lon="12.917557">
        <ele>1631.915</ele>
        <time>2018-09-09T07:17:25Z</time>
      </trkpt>
      <trkpt lat="46.589089" lon="12.917493">
        <ele>1633.923</ele>
        <time>2018-09-09T07:17:41Z</time>
      </trkpt>
      <trkpt lat="46.589092" lon="12.917480">
        <ele>1634.868</ele>
        <time>2018-09-09T07:17:58Z</time>
      </trkpt>
      <trkpt lat="46.589100" lon="12.917358">
        <ele>1636.792</ele>
        <time>2018-09-09T07:18:12Z</time>
      </trkpt>
      <trkpt lat="46.589098" lon="12.917335">
        <ele>1637.234</ele>
        <time>2018-09-09T07:18:14Z</time>
      </trkpt>
      <trkpt lat="46.589094" lon="12.917166">
        <ele>1639.143</ele>
        <time>2018-09-09T07:18:28Z</time>
      </trkpt>
      <trkpt lat="46.589098" lon="12.916973">
        <ele>1642.068</ele>
        <time>2018-09-09T07:18:44Z</time>
      </trkpt>
      <trkpt lat="46.589099" lon="12.916859">
        <ele>1643.528</ele>
        <time>2018-09-09T07:18:58Z</time>
      </trkpt>
      <trkpt lat="46.589098" lon="12.916682">
        <ele>1646.489</ele>
        <time>2018-09-09T07:19:14Z</time>
      </trkpt>
      <trkpt lat="46.589100" lon="12.916538">
        <ele>1647.817</ele>
        <time>2018-09-09T07:19:29Z</time>
      </trkpt>
      <trkpt lat="46.589095" lon="12.916347">
        <ele>1650.708</ele>
        <time>2018-09-09T07:19:46Z</time>
      </trkpt>
      <trkpt lat="46.589094" lon="12.916175">
        <ele>1652.126</ele>
        <time>2018-09-09T07:20:02Z</time>
      </trkpt>
      <trkpt lat="46.589090" lon="12.915952">
        <ele>1654.518</ele>
        <time>2018-09-09T07:20:23Z</time>
      </trkpt>
      <trkpt lat="46.589085" lon="12.915820">
        <ele>1657.966</ele>
        <time>2018-09-09T07:20:38Z</time>
      </trkpt>
      <trkpt lat="46.589101" lon="12.915674">
        <ele>1661.381</ele>
        <time>2018-09-09T07:20:56Z</time>
      </trkpt>
      <trkpt lat="46.589111" lon="12.915517">
        <ele>1662.235</ele>
        <time>2018-09-09T07:21:16Z</time>
      </trkpt>
      <trkpt lat="46.589097" lon="12.915366">
        <ele>1663.757</ele>
        <time>2018-09-09T07:21:34Z</time>
      </trkpt>
      <trkpt lat="46.589101" lon="12.915212">
        <ele>1666.526</ele>
        <time>2018-09-09T07:21:53Z</time>
      </trkpt>
      <trkpt lat="46.589125" lon="12.915082">
        <ele>1668.951</ele>
        <time>2018-09-09T07:22:09Z</time>
      </trkpt>
      <trkpt lat="46.589193" lon="12.915010">
        <ele>1671.863</ele>
        <time>2018-09-09T07:22:25Z</time>
      </trkpt>
      <trkpt lat="46.589227" lon="12.914931">
        <ele>1674.744</ele>
        <time>2018-09-09T07:22:39Z</time>
      </trkpt>
      <trkpt lat="46.589217" lon="12.914801">
        <ele>1675.718</ele>
        <time>2018-09-09T07:22:55Z</time>
      </trkpt>
      <trkpt lat="46.589200" lon="12.914680">
        <ele>1677.108</ele>
        <time>2018-09-09T07:23:12Z</time>
      </trkpt>
      <trkpt lat="46.589196" lon="12.914537">
        <ele>1678.640</ele>
        <time>2018-09-09T07:23:28Z</time>
      </trkpt>
      <trkpt lat="46.589200" lon="12.914387">
        <ele>1681.922</ele>
        <time>2018-09-09T07:23:45Z</time>
      </trkpt>
      <trkpt lat="46.589209" lon="12.914236">
        <ele>1683.820</ele>
        <time>2018-09-09T07:24:03Z</time>
      </trkpt>
      <trkpt lat="46.589211" lon="12.914106">
        <ele>1684.885</ele>
        <time>2018-09-09T07:24:19Z</time>
      </trkpt>
      <trkpt lat="46.589191" lon="12.913945">
        <ele>1687.229</ele>
        <time>2018-09-09T07:24:38Z</time>
      </trkpt>
      <trkpt lat="46.589163" lon="12.913908">
        <ele>1689.111</ele>
        <time>2018-09-09T07:24:53Z</time>
      </trkpt>
      <trkpt lat="46.589171" lon="12.913779">
        <ele>1690.150</ele>
        <time>2018-09-09T07:25:02Z</time>
      </trkpt>
      <trkpt lat="46.589177" lon="12.913692">
        <ele>1691.115</ele>
        <time>2018-09-09T07:25:08Z</time>
      </trkpt>
      <trkpt lat="46.589177" lon="12.913676">
        <ele>1691.558</ele>
        <time>2018-09-09T07:25:09Z</time>
      </trkpt>
      <trkpt lat="46.589176" lon="12.913661">
        <ele>1691.552</ele>
        <time>2018-09-09T07:25:10Z</time>
      </trkpt>
      <trkpt lat="46.589166" lon="12.913546">
        <ele>1693.017</ele>
        <time>2018-09-09T07:25:18Z</time>
      </trkpt>
      <trkpt lat="46.589160" lon="12.913518">
        <ele>1693.508</ele>
        <time>2018-09-09T07:25:20Z</time>
      </trkpt>
      <trkpt lat="46.589131" lon="12.913340">
        <ele>1696.339</ele>
        <time>2018-09-09T07:25:34Z</time>
      </trkpt>
      <trkpt lat="46.589130" lon="12.913116">
        <ele>1699.771</ele>
        <time>2018-09-09T07:25:52Z</time>
      </trkpt>
      <trkpt lat="46.589133" lon="12.913040">
        <ele>1700.289</ele>
        <time>2018-09-09T07:26:02Z</time>
      </trkpt>
      <trkpt lat="46.589139" lon="12.912847">
        <ele>1705.054</ele>
        <time>2018-09-09T07:26:21Z</time>
      </trkpt>
      <trkpt lat="46.589127" lon="12.912689">
        <ele>1706.918</ele>
        <time>2018-09-09T07:26:37Z</time>
      </trkpt>
      <trkpt lat="46.589131" lon="12.912559">
        <ele>1709.830</ele>
        <time>2018-09-09T07:26:52Z</time>
      </trkpt>
      <trkpt lat="46.589135" lon="12.912413">
        <ele>1711.729</ele>
        <time>2018-09-09T07:27:09Z</time>
      </trkpt>
      <trkpt lat="46.589139" lon="12.912277">
        <ele>1713.614</ele>
        <time>2018-09-09T07:27:24Z</time>
      </trkpt>
      <trkpt lat="46.589147" lon="12.912145">
        <ele>1715.623</ele>
        <time>2018-09-09T07:27:40Z</time>
      </trkpt>
      <trkpt lat="46.589154" lon="12.912014">
        <ele>1716.583</ele>
        <time>2018-09-09T07:27:56Z</time>
      </trkpt>
      <trkpt lat="46.589166" lon="12.911880">
        <ele>1718.411</ele>
        <time>2018-09-09T07:28:11Z</time>
      </trkpt>
      <trkpt lat="46.589172" lon="12.911728">
        <ele>1721.808</ele>
        <time>2018-09-09T07:28:28Z</time>
      </trkpt>
      <trkpt lat="46.589195" lon="12.911591">
        <ele>1723.746</ele>
        <time>2018-09-09T07:28:43Z</time>
      </trkpt>
      <trkpt lat="46.589217" lon="12.911487">
        <ele>1726.668</ele>
        <time>2018-09-09T07:28:58Z</time>
      </trkpt>
      <trkpt lat="46.589246" lon="12.911352">
        <ele>1728.536</ele>
        <time>2018-09-09T07:29:16Z</time>
      </trkpt>
      <trkpt lat="46.589290" lon="12.911223">
        <ele>1730.561</ele>
        <time>2018-09-09T07:29:34Z</time>
      </trkpt>
      <trkpt lat="46.589315" lon="12.911203">
        <ele>1729.575</ele>
        <time>2018-09-09T07:29:51Z</time>
      </trkpt>
      <trkpt lat="46.589323" lon="12.911153">
        <ele>1729.517</ele>
        <time>2018-09-09T07:30:29Z</time>
      </trkpt>
      <trkpt lat="46.589342" lon="12.911165">
        <ele>1728.156</ele>
        <time>2018-09-09T07:30:57Z</time>
      </trkpt>
      <trkpt lat="46.589340" lon="12.911141">
        <ele>1730.011</ele>
        <time>2018-09-09T07:31:27Z</time>
      </trkpt>
      <trkpt lat="46.589376" lon="12.910983">
        <ele>1732.498</ele>
        <time>2018-09-09T07:31:44Z</time>
      </trkpt>
      <trkpt lat="46.589395" lon="12.910932">
        <ele>1733.315</ele>
        <time>2018-09-09T07:31:56Z</time>
      </trkpt>
      <trkpt lat="46.589407" lon="12.910919">
        <ele>1733.326</ele>
        <time>2018-09-09T07:31:58Z</time>
      </trkpt>
      <trkpt lat="46.589413" lon="12.910908">
        <ele>1733.308</ele>
        <time>2018-09-09T07:31:59Z</time>
      </trkpt>
      <trkpt lat="46.589430" lon="12.910757">
        <ele>1736.793</ele>
        <time>2018-09-09T07:32:11Z</time>
      </trkpt>
      <trkpt lat="46.589427" lon="12.910573">
        <ele>1738.295</ele>
        <time>2018-09-09T07:32:26Z</time>
      </trkpt>
      <trkpt lat="46.589403" lon="12.910387">
        <ele>1740.193</ele>
        <time>2018-09-09T07:32:41Z</time>
      </trkpt>
      <trkpt lat="46.589429" lon="12.910190">
        <ele>1742.098</ele>
        <time>2018-09-09T07:32:56Z</time>
      </trkpt>
      <trkpt lat="46.589443" lon="12.910135">
        <ele>1743.072</ele>
        <time>2018-09-09T07:33:01Z</time>
      </trkpt>
      <trkpt lat="46.589452" lon="12.910129">
        <ele>1743.074</ele>
        <time>2018-09-09T07:33:02Z</time>
      </trkpt>
      <trkpt lat="46.589460" lon="12.910131">
        <ele>1743.023</ele>
        <time>2018-09-09T07:33:03Z</time>
      </trkpt>
      <trkpt lat="46.589464" lon="12.910130">
        <ele>1743.948</ele>
        <time>2018-09-09T07:33:13Z</time>
      </trkpt>
      <trkpt lat="46.589489" lon="12.910155">
        <ele>1743.496</ele>
        <time>2018-09-09T07:33:29Z</time>
      </trkpt>
      <trkpt lat="46.589495" lon="12.910167">
        <ele>1743.431</ele>
        <time>2018-09-09T07:33:30Z</time>
      </trkpt>
      <trkpt lat="46.589489" lon="12.910391">
        <ele>1745.824</ele>
        <time>2018-09-09T07:33:45Z</time>
      </trkpt>
      <trkpt lat="46.589571" lon="12.910601">
        <ele>1749.708</ele>
        <time>2018-09-09T07:34:04Z</time>
      </trkpt>
      <trkpt lat="46.589610" lon="12.910844">
        <ele>1751.113</ele>
        <time>2018-09-09T07:34:22Z</time>
      </trkpt>
      <trkpt lat="46.589617" lon="12.911090">
        <ele>1752.165</ele>
        <time>2018-09-09T07:34:41Z</time>
      </trkpt>
      <trkpt lat="46.589659" lon="12.911127">
        <ele>1751.123</ele>
        <time>2018-09-09T07:34:53Z</time>
      </trkpt>
      <trkpt lat="46.589673" lon="12.911113">
        <ele>1751.638</ele>
        <time>2018-09-09T07:34:55Z</time>
      </trkpt>
      <trkpt lat="46.589680" lon="12.911074">
        <ele>1752.122</ele>
        <time>2018-09-09T07:34:58Z</time>
      </trkpt>
      <trkpt lat="46.589677" lon="12.910990">
        <ele>1753.564</ele>
        <time>2018-09-09T07:35:04Z</time>
      </trkpt>
      <trkpt lat="46.589698" lon="12.910772">
        <ele>1756.953</ele>
        <time>2018-09-09T07:35:19Z</time>
      </trkpt>
      <trkpt lat="46.589717" lon="12.910614">
        <ele>1759.368</ele>
        <time>2018-09-09T07:35:32Z</time>
      </trkpt>
      <trkpt lat="46.589720" lon="12.910449">
        <ele>1761.272</ele>
        <time>2018-09-09T07:35:45Z</time>
      </trkpt>
      <trkpt lat="46.589775" lon="12.910282">
        <ele>1765.113</ele>
        <time>2018-09-09T07:36:00Z</time>
      </trkpt>
      <trkpt lat="46.589807" lon="12.910183">
        <ele>1765.614</ele>
        <time>2018-09-09T07:36:08Z</time>
      </trkpt>
      <trkpt lat="46.589877" lon="12.910057">
        <ele>1766.508</ele>
        <time>2018-09-09T07:36:24Z</time>
      </trkpt>
      <trkpt lat="46.589957" lon="12.909945">
        <ele>1768.081</ele>
        <time>2018-09-09T07:36:40Z</time>
      </trkpt>
      <trkpt lat="46.590082" lon="12.909853">
        <ele>1770.473</ele>
        <time>2018-09-09T07:37:01Z</time>
      </trkpt>
      <trkpt lat="46.590158" lon="12.909820">
        <ele>1773.731</ele>
        <time>2018-09-09T07:37:18Z</time>
      </trkpt>
      <trkpt lat="46.590213" lon="12.909807">
        <ele>1774.786</ele>
        <time>2018-09-09T07:37:32Z</time>
      </trkpt>
      <trkpt lat="46.590213" lon="12.909804">
        <ele>1774.760</ele>
        <time>2018-09-09T07:37:39Z</time>
      </trkpt>
      <trkpt lat="46.590233" lon="12.909804">
        <ele>1774.722</ele>
        <time>2018-09-09T07:37:47Z</time>
      </trkpt>
      <trkpt lat="46.590241" lon="12.909806">
        <ele>1774.771</ele>
        <time>2018-09-09T07:37:48Z</time>
      </trkpt>
      <trkpt lat="46.590400" lon="12.909806">
        <ele>1779.036</ele>
        <time>2018-09-09T07:38:06Z</time>
      </trkpt>
      <trkpt lat="46.590521" lon="12.909755">
        <ele>1781.439</ele>
        <time>2018-09-09T07:38:19Z</time>
      </trkpt>
      <trkpt lat="46.590617" lon="12.909731">
        <ele>1782.901</ele>
        <time>2018-09-09T07:38:31Z</time>
      </trkpt>
      <trkpt lat="46.590621" lon="12.909744">
        <ele>1782.921</ele>
        <time>2018-09-09T07:38:32Z</time>
      </trkpt>
      <trkpt lat="46.590622" lon="12.909760">
        <ele>1782.408</ele>
        <time>2018-09-09T07:38:33Z</time>
      </trkpt>
      <trkpt lat="46.590620" lon="12.909821">
        <ele>1782.977</ele>
        <time>2018-09-09T07:38:37Z</time>
      </trkpt>
      <trkpt lat="46.590612" lon="12.909837">
        <ele>1782.959</ele>
        <time>2018-09-09T07:38:38Z</time>
      </trkpt>
      <trkpt lat="46.590603" lon="12.909848">
        <ele>1783.347</ele>
        <time>2018-09-09T07:38:39Z</time>
      </trkpt>
      <trkpt lat="46.590574" lon="12.909873">
        <ele>1783.872</ele>
        <time>2018-09-09T07:38:42Z</time>
      </trkpt>
      <trkpt lat="46.590518" lon="12.909960">
        <ele>1785.336</ele>
        <time>2018-09-09T07:38:51Z</time>
      </trkpt>
      <trkpt lat="46.590485" lon="12.910094">
        <ele>1787.218</ele>
        <time>2018-09-09T07:39:02Z</time>
      </trkpt>
      <trkpt lat="46.590479" lon="12.910306">
        <ele>1791.047</ele>
        <time>2018-09-09T07:39:18Z</time>
      </trkpt>
      <trkpt lat="46.590498" lon="12.910397">
        <ele>1791.572</ele>
        <time>2018-09-09T07:39:26Z</time>
      </trkpt>
      <trkpt lat="46.590499" lon="12.910411">
        <ele>1792.031</ele>
        <time>2018-09-09T07:39:27Z</time>
      </trkpt>
      <trkpt lat="46.590483" lon="12.910480">
        <ele>1793.061</ele>
        <time>2018-09-09T07:39:33Z</time>
      </trkpt>
      <trkpt lat="46.590440" lon="12.910653">
        <ele>1795.807</ele>
        <time>2018-09-09T07:39:48Z</time>
      </trkpt>
      <trkpt lat="46.590404" lon="12.910828">
        <ele>1797.308</ele>
        <time>2018-09-09T07:40:02Z</time>
      </trkpt>
      <trkpt lat="46.590393" lon="12.910851">
        <ele>1797.837</ele>
        <time>2018-09-09T07:40:04Z</time>
      </trkpt>
      <trkpt lat="46.590262" lon="12.911072">
        <ele>1799.789</ele>
        <time>2018-09-09T07:40:22Z</time>
      </trkpt>
      <trkpt lat="46.590219" lon="12.911192">
        <ele>1800.617</ele>
        <time>2018-09-09T07:40:30Z</time>
      </trkpt>
      <trkpt lat="46.590219" lon="12.911207">
        <ele>1800.672</ele>
        <time>2018-09-09T07:40:31Z</time>
      </trkpt>
      <trkpt lat="46.590231" lon="12.911242">
        <ele>1801.176</ele>
        <time>2018-09-09T07:40:34Z</time>
      </trkpt>
      <trkpt lat="46.590279" lon="12.911223">
        <ele>1801.658</ele>
        <time>2018-09-09T07:40:40Z</time>
      </trkpt>
      <trkpt lat="46.590281" lon="12.911209">
        <ele>1801.687</ele>
        <time>2018-09-09T07:40:41Z</time>
      </trkpt>
      <trkpt lat="46.590315" lon="12.911084">
        <ele>1803.092</ele>
        <time>2018-09-09T07:40:49Z</time>
      </trkpt>
      <trkpt lat="46.590324" lon="12.911077">
        <ele>1803.061</ele>
        <time>2018-09-09T07:40:50Z</time>
      </trkpt>
      <trkpt lat="46.590450" lon="12.910983">
        <ele>1806.421</ele>
        <time>2018-09-09T07:41:06Z</time>
      </trkpt>
      <trkpt lat="46.590528" lon="12.910934">
        <ele>1807.913</ele>
        <time>2018-09-09T07:41:19Z</time>
      </trkpt>
      <trkpt lat="46.590591" lon="12.910846">
        <ele>1809.808</ele>
        <time>2018-09-09T07:41:34Z</time>
      </trkpt>
      <trkpt lat="46.590689" lon="12.910774">
        <ele>1811.240</ele>
        <time>2018-09-09T07:41:51Z</time>
      </trkpt>
      <trkpt lat="46.590744" lon="12.910746">
        <ele>1812.282</ele>
        <time>2018-09-09T07:42:07Z</time>
      </trkpt>
      <trkpt lat="46.590754" lon="12.910744">
        <ele>1812.790</ele>
        <time>2018-09-09T07:42:09Z</time>
      </trkpt>
      <trkpt lat="46.590784" lon="12.910737">
        <ele>1813.125</ele>
        <time>2018-09-09T07:42:12Z</time>
      </trkpt>
      <trkpt lat="46.590811" lon="12.910700">
        <ele>1814.199</ele>
        <time>2018-09-09T07:42:16Z</time>
      </trkpt>
      <trkpt lat="46.590818" lon="12.910688">
        <ele>1814.111</ele>
        <time>2018-09-09T07:42:17Z</time>
      </trkpt>
      <trkpt lat="46.590908" lon="12.910524">
        <ele>1816.090</ele>
        <time>2018-09-09T07:42:32Z</time>
      </trkpt>
      <trkpt lat="46.591031" lon="12.910426">
        <ele>1817.965</ele>
        <time>2018-09-09T07:42:47Z</time>
      </trkpt>
      <trkpt lat="46.591105" lon="12.910196">
        <ele>1818.429</ele>
        <time>2018-09-09T07:43:02Z</time>
      </trkpt>
      <trkpt lat="46.591250" lon="12.910028">
        <ele>1819.400</ele>
        <time>2018-09-09T07:43:21Z</time>
      </trkpt>
      <trkpt lat="46.591261" lon="12.910031">
        <ele>1819.920</ele>
        <time>2018-09-09T07:43:22Z</time>
      </trkpt>
      <trkpt lat="46.591271" lon="12.910041">
        <ele>1819.908</ele>
        <time>2018-09-09T07:43:23Z</time>
      </trkpt>
      <trkpt lat="46.591280" lon="12.910051">
        <ele>1820.316</ele>
        <time>2018-09-09T07:43:24Z</time>
      </trkpt>
      <trkpt lat="46.591312" lon="12.910198">
        <ele>1821.828</ele>
        <time>2018-09-09T07:43:33Z</time>
      </trkpt>
      <trkpt lat="46.591311" lon="12.910218">
        <ele>1821.876</ele>
        <time>2018-09-09T07:43:34Z</time>
      </trkpt>
      <trkpt lat="46.591309" lon="12.910237">
        <ele>1822.321</ele>
        <time>2018-09-09T07:43:35Z</time>
      </trkpt>
      <trkpt lat="46.591307" lon="12.910255">
        <ele>1822.385</ele>
        <time>2018-09-09T07:43:36Z</time>
      </trkpt>
      <trkpt lat="46.591305" lon="12.910274">
        <ele>1822.347</ele>
        <time>2018-09-09T07:43:37Z</time>
      </trkpt>
      <trkpt lat="46.591338" lon="12.910514">
        <ele>1824.266</ele>
        <time>2018-09-09T07:43:52Z</time>
      </trkpt>
      <trkpt lat="46.591370" lon="12.910600">
        <ele>1825.621</ele>
        <time>2018-09-09T07:43:58Z</time>
      </trkpt>
      <trkpt lat="46.591378" lon="12.910624">
        <ele>1825.645</ele>
        <time>2018-09-09T07:44:00Z</time>
      </trkpt>
      <trkpt lat="46.591394" lon="12.910641">
        <ele>1826.147</ele>
        <time>2018-09-09T07:44:02Z</time>
      </trkpt>
      <trkpt lat="46.591403" lon="12.910648">
        <ele>1826.611</ele>
        <time>2018-09-09T07:44:03Z</time>
      </trkpt>
      <trkpt lat="46.591413" lon="12.910661">
        <ele>1826.608</ele>
        <time>2018-09-09T07:44:04Z</time>
      </trkpt>
      <trkpt lat="46.591422" lon="12.910672">
        <ele>1826.698</ele>
        <time>2018-09-09T07:44:05Z</time>
      </trkpt>
      <trkpt lat="46.591432" lon="12.910679">
        <ele>1827.180</ele>
        <time>2018-09-09T07:44:06Z</time>
      </trkpt>
      <trkpt lat="46.591467" lon="12.910711">
        <ele>1827.638</ele>
        <time>2018-09-09T07:44:10Z</time>
      </trkpt>
      <trkpt lat="46.591477" lon="12.910715">
        <ele>1827.633</ele>
        <time>2018-09-09T07:44:11Z</time>
      </trkpt>
      <trkpt lat="46.591495" lon="12.910722">
        <ele>1827.657</ele>
        <time>2018-09-09T07:44:13Z</time>
      </trkpt>
      <trkpt lat="46.591536" lon="12.910765">
        <ele>1828.519</ele>
        <time>2018-09-09T07:44:18Z</time>
      </trkpt>
      <trkpt lat="46.591553" lon="12.910784">
        <ele>1829.078</ele>
        <time>2018-09-09T07:44:20Z</time>
      </trkpt>
      <trkpt lat="46.591562" lon="12.910793">
        <ele>1829.513</ele>
        <time>2018-09-09T07:44:21Z</time>
      </trkpt>
      <trkpt lat="46.591672" lon="12.910911">
        <ele>1831.941</ele>
        <time>2018-09-09T07:44:37Z</time>
      </trkpt>
      <trkpt lat="46.591697" lon="12.910904">
        <ele>1832.481</ele>
        <time>2018-09-09T07:44:40Z</time>
      </trkpt>
      <trkpt lat="46.591724" lon="12.910861">
        <ele>1833.309</ele>
        <time>2018-09-09T07:44:44Z</time>
      </trkpt>
      <trkpt lat="46.591742" lon="12.910795">
        <ele>1833.808</ele>
        <time>2018-09-09T07:44:49Z</time>
      </trkpt>
      <trkpt lat="46.591762" lon="12.910727">
        <ele>1834.358</ele>
        <time>2018-09-09T07:44:54Z</time>
      </trkpt>
      <trkpt lat="46.591849" lon="12.910660">
        <ele>1834.870</ele>
        <time>2018-09-09T07:45:04Z</time>
      </trkpt>
      <trkpt lat="46.591861" lon="12.910656">
        <ele>1834.838</ele>
        <time>2018-09-09T07:45:05Z</time>
      </trkpt>
      <trkpt lat="46.591937" lon="12.910631">
        <ele>1835.293</ele>
        <time>2018-09-09T07:45:13Z</time>
      </trkpt>
      <trkpt lat="46.592010" lon="12.910608">
        <ele>1836.777</ele>
        <time>2018-09-09T07:45:21Z</time>
      </trkpt>
      <trkpt lat="46.592021" lon="12.910608">
        <ele>1836.749</ele>
        <time>2018-09-09T07:45:22Z</time>
      </trkpt>
      <trkpt lat="46.592054" lon="12.910624">
        <ele>1837.268</ele>
        <time>2018-09-09T07:45:36Z</time>
      </trkpt>
      <trkpt lat="46.592044" lon="12.910626">
        <ele>1838.163</ele>
        <time>2018-09-09T07:45:54Z</time>
      </trkpt>
      <trkpt lat="46.592165" lon="12.910776">
        <ele>1840.531</ele>
        <time>2018-09-09T07:46:08Z</time>
      </trkpt>
      <trkpt lat="46.592233" lon="12.910844">
        <ele>1842.561</ele>
        <time>2018-09-09T07:46:16Z</time>
      </trkpt>
      <trkpt lat="46.592243" lon="12.910843">
        <ele>1842.507</ele>
        <time>2018-09-09T07:46:17Z</time>
      </trkpt>
      <trkpt lat="46.592252" lon="12.910840">
        <ele>1842.908</ele>
        <time>2018-09-09T07:46:18Z</time>
      </trkpt>
      <trkpt lat="46.592263" lon="12.910835">
        <ele>1842.997</ele>
        <time>2018-09-09T07:46:19Z</time>
      </trkpt>
      <trkpt lat="46.592274" lon="12.910831">
        <ele>1842.989</ele>
        <time>2018-09-09T07:46:20Z</time>
      </trkpt>
      <trkpt lat="46.592284" lon="12.910831">
        <ele>1842.997</ele>
        <time>2018-09-09T07:46:21Z</time>
      </trkpt>
      <trkpt lat="46.592423" lon="12.910786">
        <ele>1844.482</ele>
        <time>2018-09-09T07:46:36Z</time>
      </trkpt>
      <trkpt lat="46.592435" lon="12.910784">
        <ele>1844.456</ele>
        <time>2018-09-09T07:46:37Z</time>
      </trkpt>
      <trkpt lat="46.592557" lon="12.910748">
        <ele>1846.888</ele>
        <time>2018-09-09T07:46:51Z</time>
      </trkpt>
      <trkpt lat="46.592590" lon="12.910717">
        <ele>1847.397</ele>
        <time>2018-09-09T07:46:55Z</time>
      </trkpt>
      <trkpt lat="46.592598" lon="12.910701">
        <ele>1847.342</ele>
        <time>2018-09-09T07:46:56Z</time>
      </trkpt>
      <trkpt lat="46.592605" lon="12.910691">
        <ele>1847.382</ele>
        <time>2018-09-09T07:46:57Z</time>
      </trkpt>
      <trkpt lat="46.592649" lon="12.910614">
        <ele>1848.243</ele>
        <time>2018-09-09T07:47:03Z</time>
      </trkpt>
      <trkpt lat="46.592657" lon="12.910603">
        <ele>1848.717</ele>
        <time>2018-09-09T07:47:04Z</time>
      </trkpt>
      <trkpt lat="46.592666" lon="12.910593">
        <ele>1848.708</ele>
        <time>2018-09-09T07:47:05Z</time>
      </trkpt>
      <trkpt lat="46.592674" lon="12.910582">
        <ele>1848.762</ele>
        <time>2018-09-09T07:47:06Z</time>
      </trkpt>
      <trkpt lat="46.592684" lon="12.910574">
        <ele>1849.264</ele>
        <time>2018-09-09T07:47:07Z</time>
      </trkpt>
      <trkpt lat="46.592794" lon="12.910377">
        <ele>1849.792</ele>
        <time>2018-09-09T07:47:22Z</time>
      </trkpt>
      <trkpt lat="46.592798" lon="12.910362">
        <ele>1850.167</ele>
        <time>2018-09-09T07:47:23Z</time>
      </trkpt>
      <trkpt lat="46.592803" lon="12.910347">
        <ele>1850.141</ele>
        <time>2018-09-09T07:47:24Z</time>
      </trkpt>
      <trkpt lat="46.592808" lon="12.910332">
        <ele>1850.613</ele>
        <time>2018-09-09T07:47:25Z</time>
      </trkpt>
      <trkpt lat="46.592812" lon="12.910317">
        <ele>1850.682</ele>
        <time>2018-09-09T07:47:26Z</time>
      </trkpt>
      <trkpt lat="46.592892" lon="12.910031">
        <ele>1852.627</ele>
        <time>2018-09-09T07:47:44Z</time>
      </trkpt>
      <trkpt lat="46.593050" lon="12.909815">
        <ele>1855.074</ele>
        <time>2018-09-09T07:48:03Z</time>
      </trkpt>
      <trkpt lat="46.593191" lon="12.909742">
        <ele>1857.456</ele>
        <time>2018-09-09T07:48:18Z</time>
      </trkpt>
      <trkpt lat="46.593264" lon="12.909602">
        <ele>1858.321</ele>
        <time>2018-09-09T07:48:30Z</time>
      </trkpt>
      <trkpt lat="46.593264" lon="12.909587">
        <ele>1858.808</ele>
        <time>2018-09-09T07:48:31Z</time>
      </trkpt>
      <trkpt lat="46.593262" lon="12.909532">
        <ele>1859.851</ele>
        <time>2018-09-09T07:48:35Z</time>
      </trkpt>
      <trkpt lat="46.593258" lon="12.909517">
        <ele>1860.243</ele>
        <time>2018-09-09T07:48:36Z</time>
      </trkpt>
      <trkpt lat="46.593243" lon="12.909468">
        <ele>1860.771</ele>
        <time>2018-09-09T07:48:40Z</time>
      </trkpt>
      <trkpt lat="46.593246" lon="12.909452">
        <ele>1860.746</ele>
        <time>2018-09-09T07:48:41Z</time>
      </trkpt>
      <trkpt lat="46.593247" lon="12.909435">
        <ele>1861.250</ele>
        <time>2018-09-09T07:48:42Z</time>
      </trkpt>
      <trkpt lat="46.593247" lon="12.909418">
        <ele>1861.232</ele>
        <time>2018-09-09T07:48:43Z</time>
      </trkpt>
      <trkpt lat="46.593248" lon="12.909403">
        <ele>1861.291</ele>
        <time>2018-09-09T07:48:44Z</time>
      </trkpt>
      <trkpt lat="46.593356" lon="12.909170">
        <ele>1863.186</ele>
        <time>2018-09-09T07:49:02Z</time>
      </trkpt>
      <trkpt lat="46.593366" lon="12.909114">
        <ele>1864.156</ele>
        <time>2018-09-09T07:49:06Z</time>
      </trkpt>
      <trkpt lat="46.593365" lon="12.909098">
        <ele>1864.159</ele>
        <time>2018-09-09T07:49:07Z</time>
      </trkpt>
      <trkpt lat="46.593407" lon="12.908843">
        <ele>1867.014</ele>
        <time>2018-09-09T07:49:24Z</time>
      </trkpt>
      <trkpt lat="46.593554" lon="12.908649">
        <ele>1868.908</ele>
        <time>2018-09-09T07:49:42Z</time>
      </trkpt>
      <trkpt lat="46.593572" lon="12.908629">
        <ele>1868.969</ele>
        <time>2018-09-09T07:49:44Z</time>
      </trkpt>
      <trkpt lat="46.593583" lon="12.908622">
        <ele>1868.991</ele>
        <time>2018-09-09T07:49:45Z</time>
      </trkpt>
      <trkpt lat="46.593593" lon="12.908615">
        <ele>1868.959</ele>
        <time>2018-09-09T07:49:46Z</time>
      </trkpt>
      <trkpt lat="46.593634" lon="12.908582">
        <ele>1869.944</ele>
        <time>2018-09-09T07:49:50Z</time>
      </trkpt>
      <trkpt lat="46.593644" lon="12.908573">
        <ele>1869.988</ele>
        <time>2018-09-09T07:49:51Z</time>
      </trkpt>
      <trkpt lat="46.593769" lon="12.908492">
        <ele>1871.360</ele>
        <time>2018-09-09T07:50:04Z</time>
      </trkpt>
      <trkpt lat="46.593777" lon="12.908481">
        <ele>1871.819</ele>
        <time>2018-09-09T07:50:05Z</time>
      </trkpt>
      <trkpt lat="46.593810" lon="12.908431">
        <ele>1872.364</ele>
        <time>2018-09-09T07:50:10Z</time>
      </trkpt>
      <trkpt lat="46.593809" lon="12.908415">
        <ele>1872.323</ele>
        <time>2018-09-09T07:50:11Z</time>
      </trkpt>
      <trkpt lat="46.593688" lon="12.908253">
        <ele>1874.783</ele>
        <time>2018-09-09T07:50:27Z</time>
      </trkpt>
      <trkpt lat="46.593681" lon="12.908227">
        <ele>1874.711</ele>
        <time>2018-09-09T07:50:29Z</time>
      </trkpt>
      <trkpt lat="46.593676" lon="12.908211">
        <ele>1874.708</ele>
        <time>2018-09-09T07:50:30Z</time>
      </trkpt>
      <trkpt lat="46.593668" lon="12.908199">
        <ele>1875.136</ele>
        <time>2018-09-09T07:50:31Z</time>
      </trkpt>
      <trkpt lat="46.593661" lon="12.908186">
        <ele>1875.178</ele>
        <time>2018-09-09T07:50:32Z</time>
      </trkpt>
      <trkpt lat="46.593653" lon="12.908172">
        <ele>1875.136</ele>
        <time>2018-09-09T07:50:33Z</time>
      </trkpt>
      <trkpt lat="46.593644" lon="12.908160">
        <ele>1875.161</ele>
        <time>2018-09-09T07:50:34Z</time>
      </trkpt>
      <trkpt lat="46.593636" lon="12.908145">
        <ele>1875.185</ele>
        <time>2018-09-09T07:50:35Z</time>
      </trkpt>
      <trkpt lat="46.593628" lon="12.908131">
        <ele>1875.197</ele>
        <time>2018-09-09T07:50:36Z</time>
      </trkpt>
      <trkpt lat="46.593620" lon="12.908119">
        <ele>1875.686</ele>
        <time>2018-09-09T07:50:37Z</time>
      </trkpt>
      <trkpt lat="46.593612" lon="12.908110">
        <ele>1875.671</ele>
        <time>2018-09-09T07:50:38Z</time>
      </trkpt>
      <trkpt lat="46.593603" lon="12.908101">
        <ele>1875.645</ele>
        <time>2018-09-09T07:50:39Z</time>
      </trkpt>
      <trkpt lat="46.593595" lon="12.908088">
        <ele>1875.647</ele>
        <time>2018-09-09T07:50:40Z</time>
      </trkpt>
      <trkpt lat="46.593589" lon="12.908074">
        <ele>1875.611</ele>
        <time>2018-09-09T07:50:41Z</time>
      </trkpt>
      <trkpt lat="46.593582" lon="12.908061">
        <ele>1875.608</ele>
        <time>2018-09-09T07:50:42Z</time>
      </trkpt>
      <trkpt lat="46.593575" lon="12.908047">
        <ele>1876.138</ele>
        <time>2018-09-09T07:50:43Z</time>
      </trkpt>
      <trkpt lat="46.593526" lon="12.907944">
        <ele>1876.610</ele>
        <time>2018-09-09T07:50:51Z</time>
      </trkpt>
      <trkpt lat="46.593523" lon="12.907929">
        <ele>1876.688</ele>
        <time>2018-09-09T07:50:52Z</time>
      </trkpt>
      <trkpt lat="46.593518" lon="12.907916">
        <ele>1876.693</ele>
        <time>2018-09-09T07:50:53Z</time>
      </trkpt>
      <trkpt lat="46.593511" lon="12.907903">
        <ele>1876.617</ele>
        <time>2018-09-09T07:50:54Z</time>
      </trkpt>
      <trkpt lat="46.593505" lon="12.907890">
        <ele>1876.699</ele>
        <time>2018-09-09T07:50:55Z</time>
      </trkpt>
      <trkpt lat="46.593497" lon="12.907876">
        <ele>1877.118</ele>
        <time>2018-09-09T07:50:56Z</time>
      </trkpt>
      <trkpt lat="46.593490" lon="12.907863">
        <ele>1877.173</ele>
        <time>2018-09-09T07:50:57Z</time>
      </trkpt>
      <trkpt lat="46.593482" lon="12.907850">
        <ele>1877.166</ele>
        <time>2018-09-09T07:50:58Z</time>
      </trkpt>
      <trkpt lat="46.593406" lon="12.907721">
        <ele>1878.029</ele>
        <time>2018-09-09T07:51:09Z</time>
      </trkpt>
      <trkpt lat="46.593401" lon="12.907707">
        <ele>1878.021</ele>
        <time>2018-09-09T07:51:10Z</time>
      </trkpt>
      <trkpt lat="46.593343" lon="12.907399">
        <ele>1880.908</ele>
        <time>2018-09-09T07:51:30Z</time>
      </trkpt>
      <trkpt lat="46.593310" lon="12.907167">
        <ele>1884.340</ele>
        <time>2018-09-09T07:51:45Z</time>
      </trkpt>
      <trkpt lat="46.593312" lon="12.907151">
        <ele>1884.362</ele>
        <time>2018-09-09T07:51:46Z</time>
      </trkpt>
      <trkpt lat="46.593318" lon="12.907068">
        <ele>1885.270</ele>
        <time>2018-09-09T07:51:51Z</time>
      </trkpt>
      <trkpt lat="46.593325" lon="12.907055">
        <ele>1885.245</ele>
        <time>2018-09-09T07:51:52Z</time>
      </trkpt>
      <trkpt lat="46.593327" lon="12.907026">
        <ele>1885.249</ele>
        <time>2018-09-09T07:51:54Z</time>
      </trkpt>
      <trkpt lat="46.593326" lon="12.907009">
        <ele>1885.221</ele>
        <time>2018-09-09T07:51:55Z</time>
      </trkpt>
      <trkpt lat="46.593323" lon="12.906993">
        <ele>1885.770</ele>
        <time>2018-09-09T07:51:56Z</time>
      </trkpt>
      <trkpt lat="46.593321" lon="12.906977">
        <ele>1885.745</ele>
        <time>2018-09-09T07:51:57Z</time>
      </trkpt>
      <trkpt lat="46.593321" lon="12.906962">
        <ele>1885.789</ele>
        <time>2018-09-09T07:51:58Z</time>
      </trkpt>
      <trkpt lat="46.593321" lon="12.906947">
        <ele>1885.706</ele>
        <time>2018-09-09T07:51:59Z</time>
      </trkpt>
      <trkpt lat="46.593320" lon="12.906932">
        <ele>1885.726</ele>
        <time>2018-09-09T07:52:00Z</time>
      </trkpt>
      <trkpt lat="46.593320" lon="12.906916">
        <ele>1885.708</ele>
        <time>2018-09-09T07:52:01Z</time>
      </trkpt>
      <trkpt lat="46.593265" lon="12.906643">
        <ele>1885.212</ele>
        <time>2018-09-09T07:52:19Z</time>
      </trkpt>
      <trkpt lat="46.593137" lon="12.906432">
        <ele>1887.234</ele>
        <time>2018-09-09T07:52:36Z</time>
      </trkpt>
      <trkpt lat="46.593005" lon="12.906262">
        <ele>1889.652</ele>
        <time>2018-09-09T07:52:53Z</time>
      </trkpt>
      <trkpt lat="46.592892" lon="12.906081">
        <ele>1892.427</ele>
        <time>2018-09-09T07:53:09Z</time>
      </trkpt>
      <trkpt lat="46.592890" lon="12.906052">
        <ele>1892.911</ele>
        <time>2018-09-09T07:53:11Z</time>
      </trkpt>
      <trkpt lat="46.592945" lon="12.905852">
        <ele>1895.883</ele>
        <time>2018-09-09T07:53:27Z</time>
      </trkpt>
      <trkpt lat="46.593008" lon="12.905713">
        <ele>1898.282</ele>
        <time>2018-09-09T07:53:41Z</time>
      </trkpt>
      <trkpt lat="46.593018" lon="12.905689">
        <ele>1898.797</ele>
        <time>2018-09-09T07:53:43Z</time>
      </trkpt>
      <trkpt lat="46.593059" lon="12.905594">
        <ele>1899.746</ele>
        <time>2018-09-09T07:53:56Z</time>
      </trkpt>
      <trkpt lat="46.593069" lon="12.905595">
        <ele>1900.688</ele>
        <time>2018-09-09T07:54:24Z</time>
      </trkpt>
      <trkpt lat="46.593055" lon="12.905600">
        <ele>1899.216</ele>
        <time>2018-09-09T07:55:03Z</time>
      </trkpt>
      <trkpt lat="46.593038" lon="12.905590">
        <ele>1898.708</ele>
        <time>2018-09-09T07:55:50Z</time>
      </trkpt>
      <trkpt lat="46.593042" lon="12.905582">
        <ele>1896.378</ele>
        <time>2018-09-09T07:56:38Z</time>
      </trkpt>
      <trkpt lat="46.593054" lon="12.905583">
        <ele>1896.310</ele>
        <time>2018-09-09T07:57:14Z</time>
      </trkpt>
      <trkpt lat="46.593069" lon="12.905603">
        <ele>1898.258</ele>
        <time>2018-09-09T07:57:49Z</time>
      </trkpt>
      <trkpt lat="46.593087" lon="12.905605">
        <ele>1898.773</ele>
        <time>2018-09-09T07:58:03Z</time>
      </trkpt>
      <trkpt lat="46.593139" lon="12.905550">
        <ele>1900.657</ele>
        <time>2018-09-09T07:58:11Z</time>
      </trkpt>
      <trkpt lat="46.593151" lon="12.905543">
        <ele>1900.629</ele>
        <time>2018-09-09T07:58:12Z</time>
      </trkpt>
      <trkpt lat="46.593228" lon="12.905463">
        <ele>1903.088</ele>
        <time>2018-09-09T07:58:21Z</time>
      </trkpt>
      <trkpt lat="46.593292" lon="12.905329">
        <ele>1905.973</ele>
        <time>2018-09-09T07:58:34Z</time>
      </trkpt>
      <trkpt lat="46.593330" lon="12.905294">
        <ele>1906.935</ele>
        <time>2018-09-09T07:58:39Z</time>
      </trkpt>
      <trkpt lat="46.593362" lon="12.905312">
        <ele>1907.886</ele>
        <time>2018-09-09T07:58:43Z</time>
      </trkpt>
      <trkpt lat="46.593363" lon="12.905328">
        <ele>1908.314</ele>
        <time>2018-09-09T07:58:44Z</time>
      </trkpt>
      <trkpt lat="46.593360" lon="12.905345">
        <ele>1908.308</ele>
        <time>2018-09-09T07:58:45Z</time>
      </trkpt>
      <trkpt lat="46.593264" lon="12.905548">
        <ele>1909.327</ele>
        <time>2018-09-09T07:59:00Z</time>
      </trkpt>
      <trkpt lat="46.593145" lon="12.905855">
        <ele>1910.739</ele>
        <time>2018-09-09T07:59:20Z</time>
      </trkpt>
      <trkpt lat="46.593148" lon="12.905890">
        <ele>1910.767</ele>
        <time>2018-09-09T07:59:22Z</time>
      </trkpt>
      <trkpt lat="46.593154" lon="12.905900">
        <ele>1910.732</ele>
        <time>2018-09-09T07:59:23Z</time>
      </trkpt>
      <trkpt lat="46.593164" lon="12.905904">
        <ele>1910.786</ele>
        <time>2018-09-09T07:59:24Z</time>
      </trkpt>
      <trkpt lat="46.593175" lon="12.905900">
        <ele>1911.278</ele>
        <time>2018-09-09T07:59:25Z</time>
      </trkpt>
      <trkpt lat="46.593185" lon="12.905889">
        <ele>1911.237</ele>
        <time>2018-09-09T07:59:26Z</time>
      </trkpt>
      <trkpt lat="46.593193" lon="12.905875">
        <ele>1911.272</ele>
        <time>2018-09-09T07:59:27Z</time>
      </trkpt>
      <trkpt lat="46.593199" lon="12.905860">
        <ele>1911.272</ele>
        <time>2018-09-09T07:59:28Z</time>
      </trkpt>
      <trkpt lat="46.593207" lon="12.905845">
        <ele>1911.213</ele>
        <time>2018-09-09T07:59:29Z</time>
      </trkpt>
      <trkpt lat="46.593225" lon="12.905824">
        <ele>1911.714</ele>
        <time>2018-09-09T07:59:31Z</time>
      </trkpt>
      <trkpt lat="46.593231" lon="12.905812">
        <ele>1911.708</ele>
        <time>2018-09-09T07:59:32Z</time>
      </trkpt>
      <trkpt lat="46.593296" lon="12.905715">
        <ele>1913.681</ele>
        <time>2018-09-09T07:59:42Z</time>
      </trkpt>
      <trkpt lat="46.593387" lon="12.905608">
        <ele>1916.083</ele>
        <time>2018-09-09T07:59:54Z</time>
      </trkpt>
      <trkpt lat="46.593453" lon="12.905516">
        <ele>1917.061</ele>
        <time>2018-09-09T08:00:04Z</time>
      </trkpt>
      <trkpt lat="46.593572" lon="12.905343">
        <ele>1919.486</ele>
        <time>2018-09-09T08:00:21Z</time>
      </trkpt>
      <trkpt lat="46.593613" lon="12.905180">
        <ele>1921.390</ele>
        <time>2018-09-09T08:00:33Z</time>
      </trkpt>
      <trkpt lat="46.593614" lon="12.905164">
        <ele>1921.852</ele>
        <time>2018-09-09T08:00:34Z</time>
      </trkpt>
      <trkpt lat="46.593615" lon="12.905103">
        <ele>1922.771</ele>
        <time>2018-09-09T08:00:38Z</time>
      </trkpt>
      <trkpt lat="46.593561" lon="12.904857">
        <ele>1924.286</ele>
        <time>2018-09-09T08:00:57Z</time>
      </trkpt>
      <trkpt lat="46.593550" lon="12.904811">
        <ele>1925.115</ele>
        <time>2018-09-09T08:01:01Z</time>
      </trkpt>
      <trkpt lat="46.593545" lon="12.904799">
        <ele>1925.165</ele>
        <time>2018-09-09T08:01:02Z</time>
      </trkpt>
      <trkpt lat="46.593487" lon="12.904578">
        <ele>1926.611</ele>
        <time>2018-09-09T08:01:19Z</time>
      </trkpt>
      <trkpt lat="46.593431" lon="12.904481">
        <ele>1927.108</ele>
        <time>2018-09-09T08:01:36Z</time>
      </trkpt>
      <trkpt lat="46.593399" lon="12.904472">
        <ele>1926.685</ele>
        <time>2018-09-09T08:01:43Z</time>
      </trkpt>
      <trkpt lat="46.593388" lon="12.904464">
        <ele>1926.667</ele>
        <time>2018-09-09T08:01:44Z</time>
      </trkpt>
      <trkpt lat="46.593262" lon="12.904402">
        <ele>1927.565</ele>
        <time>2018-09-09T08:01:56Z</time>
      </trkpt>
      <trkpt lat="46.593250" lon="12.904399">
        <ele>1928.070</ele>
        <time>2018-09-09T08:01:57Z</time>
      </trkpt>
      <trkpt lat="46.593239" lon="12.904400">
        <ele>1928.014</ele>
        <time>2018-09-09T08:01:58Z</time>
      </trkpt>
      <trkpt lat="46.593199" lon="12.904400">
        <ele>1929.096</ele>
        <time>2018-09-09T08:02:02Z</time>
      </trkpt>
      <trkpt lat="46.593174" lon="12.904394">
        <ele>1929.095</ele>
        <time>2018-09-09T08:02:05Z</time>
      </trkpt>
      <trkpt lat="46.593115" lon="12.904388">
        <ele>1929.060</ele>
        <time>2018-09-09T08:02:11Z</time>
      </trkpt>
      <trkpt lat="46.593051" lon="12.904335">
        <ele>1930.497</ele>
        <time>2018-09-09T08:02:18Z</time>
      </trkpt>
      <trkpt lat="46.593006" lon="12.904186">
        <ele>1932.823</ele>
        <time>2018-09-09T08:02:31Z</time>
      </trkpt>
      <trkpt lat="46.593014" lon="12.904175">
        <ele>1932.325</ele>
        <time>2018-09-09T08:02:32Z</time>
      </trkpt>
      <trkpt lat="46.593022" lon="12.904167">
        <ele>1932.308</ele>
        <time>2018-09-09T08:02:33Z</time>
      </trkpt>
      <trkpt lat="46.593075" lon="12.904027">
        <ele>1934.783</ele>
        <time>2018-09-09T08:02:46Z</time>
      </trkpt>
      <trkpt lat="46.593079" lon="12.904013">
        <ele>1934.785</ele>
        <time>2018-09-09T08:02:47Z</time>
      </trkpt>
      <trkpt lat="46.593084" lon="12.904001">
        <ele>1934.753</ele>
        <time>2018-09-09T08:02:48Z</time>
      </trkpt>
      <trkpt lat="46.593113" lon="12.903888">
        <ele>1936.788</ele>
        <time>2018-09-09T08:02:57Z</time>
      </trkpt>
      <trkpt lat="46.593127" lon="12.903792">
        <ele>1938.152</ele>
        <time>2018-09-09T08:03:04Z</time>
      </trkpt>
      <trkpt lat="46.593126" lon="12.903711">
        <ele>1939.124</ele>
        <time>2018-09-09T08:03:14Z</time>
      </trkpt>
      <trkpt lat="46.593216" lon="12.903573">
        <ele>1942.073</ele>
        <time>2018-09-09T08:03:33Z</time>
      </trkpt>
      <trkpt lat="46.593326" lon="12.903451">
        <ele>1946.838</ele>
        <time>2018-09-09T08:03:52Z</time>
      </trkpt>
      <trkpt lat="46.593410" lon="12.903326">
        <ele>1948.792</ele>
        <time>2018-09-09T08:04:09Z</time>
      </trkpt>
      <trkpt lat="46.593474" lon="12.903198">
        <ele>1950.173</ele>
        <time>2018-09-09T08:04:24Z</time>
      </trkpt>
      <trkpt lat="46.593517" lon="12.902998">
        <ele>1951.620</ele>
        <time>2018-09-09T08:04:43Z</time>
      </trkpt>
      <trkpt lat="46.593530" lon="12.902837">
        <ele>1954.008</ele>
        <time>2018-09-09T08:05:00Z</time>
      </trkpt>
      <trkpt lat="46.593523" lon="12.902704">
        <ele>1956.913</ele>
        <time>2018-09-09T08:05:18Z</time>
      </trkpt>
      <trkpt lat="46.593520" lon="12.902684">
        <ele>1958.875</ele>
        <time>2018-09-09T08:05:47Z</time>
      </trkpt>
      <trkpt lat="46.593531" lon="12.902666">
        <ele>1958.863</ele>
        <time>2018-09-09T08:05:52Z</time>
      </trkpt>
      <trkpt lat="46.593536" lon="12.902650">
        <ele>1958.838</ele>
        <time>2018-09-09T08:05:53Z</time>
      </trkpt>
      <trkpt lat="46.593538" lon="12.902633">
        <ele>1958.872</ele>
        <time>2018-09-09T08:05:54Z</time>
      </trkpt>
      <trkpt lat="46.593542" lon="12.902614">
        <ele>1958.824</ele>
        <time>2018-09-09T08:05:55Z</time>
      </trkpt>
      <trkpt lat="46.593546" lon="12.902595">
        <ele>1959.373</ele>
        <time>2018-09-09T08:05:56Z</time>
      </trkpt>
      <trkpt lat="46.593551" lon="12.902577">
        <ele>1959.368</ele>
        <time>2018-09-09T08:05:57Z</time>
      </trkpt>
      <trkpt lat="46.593654" lon="12.902303">
        <ele>1961.268</ele>
        <time>2018-09-09T08:06:14Z</time>
      </trkpt>
      <trkpt lat="46.593660" lon="12.902290">
        <ele>1961.242</ele>
        <time>2018-09-09T08:06:15Z</time>
      </trkpt>
      <trkpt lat="46.593665" lon="12.902274">
        <ele>1961.226</ele>
        <time>2018-09-09T08:06:16Z</time>
      </trkpt>
      <trkpt lat="46.593668" lon="12.902258">
        <ele>1961.708</ele>
        <time>2018-09-09T08:06:17Z</time>
      </trkpt>
      <trkpt lat="46.593704" lon="12.902174">
        <ele>1962.640</ele>
        <time>2018-09-09T08:06:23Z</time>
      </trkpt>
      <trkpt lat="46.593713" lon="12.902164">
        <ele>1963.152</ele>
        <time>2018-09-09T08:06:24Z</time>
      </trkpt>
      <trkpt lat="46.593720" lon="12.902150">
        <ele>1963.170</ele>
        <time>2018-09-09T08:06:25Z</time>
      </trkpt>
      <trkpt lat="46.593725" lon="12.902136">
        <ele>1963.685</ele>
        <time>2018-09-09T08:06:26Z</time>
      </trkpt>
      <trkpt lat="46.593733" lon="12.902123">
        <ele>1963.649</ele>
        <time>2018-09-09T08:06:27Z</time>
      </trkpt>
      <trkpt lat="46.593738" lon="12.902108">
        <ele>1963.631</ele>
        <time>2018-09-09T08:06:28Z</time>
      </trkpt>
      <trkpt lat="46.593814" lon="12.901945">
        <ele>1965.010</ele>
        <time>2018-09-09T08:06:41Z</time>
      </trkpt>
      <trkpt lat="46.593933" lon="12.901871">
        <ele>1967.485</ele>
        <time>2018-09-09T08:06:55Z</time>
      </trkpt>
      <trkpt lat="46.594077" lon="12.901849">
        <ele>1968.961</ele>
        <time>2018-09-09T08:07:10Z</time>
      </trkpt>
      <trkpt lat="46.594129" lon="12.901824">
        <ele>1970.321</ele>
        <time>2018-09-09T08:07:16Z</time>
      </trkpt>
      <trkpt lat="46.594200" lon="12.901719">
        <ele>1972.213</ele>
        <time>2018-09-09T08:07:26Z</time>
      </trkpt>
      <trkpt lat="46.594201" lon="12.901702">
        <ele>1971.808</ele>
        <time>2018-09-09T08:07:27Z</time>
      </trkpt>
      <trkpt lat="46.594208" lon="12.901631">
        <ele>1972.240</ele>
        <time>2018-09-09T08:07:32Z</time>
      </trkpt>
      <trkpt lat="46.594203" lon="12.901598">
        <ele>1972.712</ele>
        <time>2018-09-09T08:07:34Z</time>
      </trkpt>
      <trkpt lat="46.594203" lon="12.901584">
        <ele>1972.720</ele>
        <time>2018-09-09T08:07:35Z</time>
      </trkpt>
      <trkpt lat="46.594200" lon="12.901568">
        <ele>1973.285</ele>
        <time>2018-09-09T08:07:36Z</time>
      </trkpt>
      <trkpt lat="46.594197" lon="12.901553">
        <ele>1973.299</ele>
        <time>2018-09-09T08:07:37Z</time>
      </trkpt>
      <trkpt lat="46.594197" lon="12.901537">
        <ele>1973.241</ele>
        <time>2018-09-09T08:07:38Z</time>
      </trkpt>
      <trkpt lat="46.594199" lon="12.901523">
        <ele>1973.270</ele>
        <time>2018-09-09T08:07:39Z</time>
      </trkpt>
      <trkpt lat="46.594201" lon="12.901507">
        <ele>1973.795</ele>
        <time>2018-09-09T08:07:40Z</time>
      </trkpt>
      <trkpt lat="46.594200" lon="12.901491">
        <ele>1973.718</ele>
        <time>2018-09-09T08:07:41Z</time>
      </trkpt>
      <trkpt lat="46.594193" lon="12.901441">
        <ele>1974.298</ele>
        <time>2018-09-09T08:07:45Z</time>
      </trkpt>
      <trkpt lat="46.594230" lon="12.901280">
        <ele>1976.617</ele>
        <time>2018-09-09T08:07:58Z</time>
      </trkpt>
      <trkpt lat="46.594262" lon="12.901260">
        <ele>1976.608</ele>
        <time>2018-09-09T08:08:02Z</time>
      </trkpt>
      <trkpt lat="46.594330" lon="12.901100">
        <ele>1979.485</ele>
        <time>2018-09-09T08:08:16Z</time>
      </trkpt>
      <trkpt lat="46.594409" lon="12.900910">
        <ele>1980.987</ele>
        <time>2018-09-09T08:08:32Z</time>
      </trkpt>
      <trkpt lat="46.594409" lon="12.900812">
        <ele>1981.995</ele>
        <time>2018-09-09T08:08:39Z</time>
      </trkpt>
      <trkpt lat="46.594390" lon="12.900705">
        <ele>1982.820</ele>
        <time>2018-09-09T08:08:47Z</time>
      </trkpt>
      <trkpt lat="46.594369" lon="12.900558">
        <ele>1983.864</ele>
        <time>2018-09-09T08:08:59Z</time>
      </trkpt>
      <trkpt lat="46.594337" lon="12.900318">
        <ele>1986.726</ele>
        <time>2018-09-09T08:09:17Z</time>
      </trkpt>
      <trkpt lat="46.594300" lon="12.900125">
        <ele>1989.565</ele>
        <time>2018-09-09T08:09:32Z</time>
      </trkpt>
      <trkpt lat="46.594299" lon="12.900112">
        <ele>1989.510</ele>
        <time>2018-09-09T08:09:33Z</time>
      </trkpt>
      <trkpt lat="46.594289" lon="12.900002">
        <ele>1991.073</ele>
        <time>2018-09-09T08:09:41Z</time>
      </trkpt>
      <trkpt lat="46.594278" lon="12.899972">
        <ele>1991.985</ele>
        <time>2018-09-09T08:09:53Z</time>
      </trkpt>
      <trkpt lat="46.594276" lon="12.899981">
        <ele>1990.513</ele>
        <time>2018-09-09T08:10:23Z</time>
      </trkpt>
      <trkpt lat="46.594234" lon="12.899716">
        <ele>1993.908</ele>
        <time>2018-09-09T08:10:44Z</time>
      </trkpt>
      <trkpt lat="46.594192" lon="12.899492">
        <ele>1995.881</ele>
        <time>2018-09-09T08:11:02Z</time>
      </trkpt>
      <trkpt lat="46.594175" lon="12.899295">
        <ele>1997.773</ele>
        <time>2018-09-09T08:11:20Z</time>
      </trkpt>
      <trkpt lat="46.594155" lon="12.899165">
        <ele>2000.131</ele>
        <time>2018-09-09T08:11:34Z</time>
      </trkpt>
      <trkpt lat="46.594106" lon="12.899013">
        <ele>2002.546</ele>
        <time>2018-09-09T08:11:52Z</time>
      </trkpt>
      <trkpt lat="46.594065" lon="12.898839">
        <ele>2003.510</ele>
        <time>2018-09-09T08:12:08Z</time>
      </trkpt>
      <trkpt lat="46.594058" lon="12.898654">
        <ele>2006.412</ele>
        <time>2018-09-09T08:12:26Z</time>
      </trkpt>
      <trkpt lat="46.594118" lon="12.898535">
        <ele>2008.391</ele>
        <time>2018-09-09T08:12:42Z</time>
      </trkpt>
      <trkpt lat="46.594183" lon="12.898450">
        <ele>2010.776</ele>
        <time>2018-09-09T08:12:56Z</time>
      </trkpt>
      <trkpt lat="46.594257" lon="12.898356">
        <ele>2012.171</ele>
        <time>2018-09-09T08:13:12Z</time>
      </trkpt>
      <trkpt lat="46.594314" lon="12.898289">
        <ele>2014.541</ele>
        <time>2018-09-09T08:13:27Z</time>
      </trkpt>
      <trkpt lat="46.594419" lon="12.898176">
        <ele>2016.915</ele>
        <time>2018-09-09T08:13:45Z</time>
      </trkpt>
      <trkpt lat="46.594527" lon="12.898084">
        <ele>2019.808</ele>
        <time>2018-09-09T08:14:02Z</time>
      </trkpt>
      <trkpt lat="46.594627" lon="12.898042">
        <ele>2021.761</ele>
        <time>2018-09-09T08:14:17Z</time>
      </trkpt>
      <trkpt lat="46.594750" lon="12.897986">
        <ele>2025.653</ele>
        <time>2018-09-09T08:14:35Z</time>
      </trkpt>
      <trkpt lat="46.594867" lon="12.897866">
        <ele>2029.031</ele>
        <time>2018-09-09T08:14:53Z</time>
      </trkpt>
      <trkpt lat="46.594978" lon="12.897825">
        <ele>2029.486</ele>
        <time>2018-09-09T08:15:10Z</time>
      </trkpt>
      <trkpt lat="46.594949" lon="12.897764">
        <ele>2029.410</ele>
        <time>2018-09-09T08:15:23Z</time>
      </trkpt>
      <trkpt lat="46.594840" lon="12.897770">
        <ele>2032.852</ele>
        <time>2018-09-09T08:15:39Z</time>
      </trkpt>
      <trkpt lat="46.594705" lon="12.897768">
        <ele>2037.661</ele>
        <time>2018-09-09T08:15:56Z</time>
      </trkpt>
      <trkpt lat="46.594687" lon="12.897764">
        <ele>2037.656</ele>
        <time>2018-09-09T08:15:58Z</time>
      </trkpt>
      <trkpt lat="46.594493" lon="12.897795">
        <ele>2039.084</ele>
        <time>2018-09-09T08:16:18Z</time>
      </trkpt>
      <trkpt lat="46.594483" lon="12.897797">
        <ele>2039.007</ele>
        <time>2018-09-09T08:16:19Z</time>
      </trkpt>
      <trkpt lat="46.594326" lon="12.897817">
        <ele>2037.617</ele>
        <time>2018-09-09T08:16:37Z</time>
      </trkpt>
      <trkpt lat="46.594205" lon="12.897838">
        <ele>2037.608</ele>
        <time>2018-09-09T08:16:54Z</time>
      </trkpt>
      <trkpt lat="46.594105" lon="12.897851">
        <ele>2039.542</ele>
        <time>2018-09-09T08:17:09Z</time>
      </trkpt>
      <trkpt lat="46.593979" lon="12.897832">
        <ele>2041.094</ele>
        <time>2018-09-09T08:17:28Z</time>
      </trkpt>
      <trkpt lat="46.593887" lon="12.897809">
        <ele>2041.992</ele>
        <time>2018-09-09T08:17:44Z</time>
      </trkpt>
      <trkpt lat="46.593807" lon="12.897827">
        <ele>2044.397</ele>
        <time>2018-09-09T08:18:02Z</time>
      </trkpt>
      <trkpt lat="46.593755" lon="12.897824">
        <ele>2044.881</ele>
        <time>2018-09-09T08:18:17Z</time>
      </trkpt>
      <trkpt lat="46.593641" lon="12.897875">
        <ele>2047.243</ele>
        <time>2018-09-09T08:18:33Z</time>
      </trkpt>
      <trkpt lat="46.593513" lon="12.897902">
        <ele>2049.642</ele>
        <time>2018-09-09T08:18:52Z</time>
      </trkpt>
      <trkpt lat="46.593444" lon="12.897889">
        <ele>2050.647</ele>
        <time>2018-09-09T08:19:05Z</time>
      </trkpt>
      <trkpt lat="46.593325" lon="12.897913">
        <ele>2052.095</ele>
        <time>2018-09-09T08:19:24Z</time>
      </trkpt>
      <trkpt lat="46.593197" lon="12.897938">
        <ele>2053.549</ele>
        <time>2018-09-09T08:19:40Z</time>
      </trkpt>
      <trkpt lat="46.593120" lon="12.897951">
        <ele>2055.923</ele>
        <time>2018-09-09T08:19:54Z</time>
      </trkpt>
      <trkpt lat="46.593048" lon="12.898001">
        <ele>2057.808</ele>
        <time>2018-09-09T08:20:05Z</time>
      </trkpt>
      <trkpt lat="46.592913" lon="12.898049">
        <ele>2059.283</ele>
        <time>2018-09-09T08:20:23Z</time>
      </trkpt>
      <trkpt lat="46.592801" lon="12.898072">
        <ele>2059.795</ele>
        <time>2018-09-09T08:20:39Z</time>
      </trkpt>
      <trkpt lat="46.592717" lon="12.898100">
        <ele>2061.693</ele>
        <time>2018-09-09T08:20:53Z</time>
      </trkpt>
      <trkpt lat="46.592625" lon="12.898133">
        <ele>2063.628</ele>
        <time>2018-09-09T08:21:10Z</time>
      </trkpt>
      <trkpt lat="46.592507" lon="12.898213">
        <ele>2065.052</ele>
        <time>2018-09-09T08:21:28Z</time>
      </trkpt>
      <trkpt lat="46.592393" lon="12.898272">
        <ele>2068.874</ele>
        <time>2018-09-09T08:21:46Z</time>
      </trkpt>
      <trkpt lat="46.592284" lon="12.898291">
        <ele>2069.843</ele>
        <time>2018-09-09T08:22:02Z</time>
      </trkpt>
      <trkpt lat="46.592179" lon="12.898303">
        <ele>2070.398</ele>
        <time>2018-09-09T08:22:17Z</time>
      </trkpt>
      <trkpt lat="46.592071" lon="12.898382">
        <ele>2073.754</ele>
        <time>2018-09-09T08:22:36Z</time>
      </trkpt>
      <trkpt lat="46.591973" lon="12.898465">
        <ele>2076.556</ele>
        <time>2018-09-09T08:22:54Z</time>
      </trkpt>
      <trkpt lat="46.591909" lon="12.898543">
        <ele>2078.911</ele>
        <time>2018-09-09T08:23:09Z</time>
      </trkpt>
      <trkpt lat="46.591850" lon="12.898580">
        <ele>2078.508</ele>
        <time>2018-09-09T08:23:23Z</time>
      </trkpt>
      <trkpt lat="46.591807" lon="12.898580">
        <ele>2082.339</ele>
        <time>2018-09-09T08:23:39Z</time>
      </trkpt>
      <trkpt lat="46.591771" lon="12.898542">
        <ele>2084.251</ele>
        <time>2018-09-09T08:23:51Z</time>
      </trkpt>
      <trkpt lat="46.591826" lon="12.898459">
        <ele>2084.749</ele>
        <time>2018-09-09T08:24:07Z</time>
      </trkpt>
      <trkpt lat="46.591869" lon="12.898417">
        <ele>2086.664</ele>
        <time>2018-09-09T08:24:22Z</time>
      </trkpt>
      <trkpt lat="46.591879" lon="12.898382">
        <ele>2086.628</ele>
        <time>2018-09-09T08:24:43Z</time>
      </trkpt>
      <trkpt lat="46.591884" lon="12.898381">
        <ele>2086.640</ele>
        <time>2018-09-09T08:24:45Z</time>
      </trkpt>
      <trkpt lat="46.591928" lon="12.898306">
        <ele>2088.139</ele>
        <time>2018-09-09T08:24:51Z</time>
      </trkpt>
      <trkpt lat="46.592077" lon="12.898137">
        <ele>2091.044</ele>
        <time>2018-09-09T08:25:08Z</time>
      </trkpt>
      <trkpt lat="46.592125" lon="12.898057">
        <ele>2091.952</ele>
        <time>2018-09-09T08:25:20Z</time>
      </trkpt>
      <trkpt lat="46.592216" lon="12.897949">
        <ele>2092.953</ele>
        <time>2018-09-09T08:25:38Z</time>
      </trkpt>
      <trkpt lat="46.592330" lon="12.897855">
        <ele>2095.308</ele>
        <time>2018-09-09T08:25:55Z</time>
      </trkpt>
      <trkpt lat="46.592397" lon="12.897757">
        <ele>2097.708</ele>
        <time>2018-09-09T08:26:11Z</time>
      </trkpt>
      <trkpt lat="46.592496" lon="12.897664">
        <ele>2100.179</ele>
        <time>2018-09-09T08:26:28Z</time>
      </trkpt>
      <trkpt lat="46.592583" lon="12.897591">
        <ele>2101.551</ele>
        <time>2018-09-09T08:26:43Z</time>
      </trkpt>
      <trkpt lat="46.592658" lon="12.897529">
        <ele>2103.019</ele>
        <time>2018-09-09T08:26:58Z</time>
      </trkpt>
      <trkpt lat="46.592750" lon="12.897462">
        <ele>2105.464</ele>
        <time>2018-09-09T08:27:15Z</time>
      </trkpt>
      <trkpt lat="46.592772" lon="12.897343">
        <ele>2107.848</ele>
        <time>2018-09-09T08:27:28Z</time>
      </trkpt>
      <trkpt lat="46.592882" lon="12.897282">
        <ele>2110.270</ele>
        <time>2018-09-09T08:27:43Z</time>
      </trkpt>
      <trkpt lat="46.592981" lon="12.897105">
        <ele>2112.149</ele>
        <time>2018-09-09T08:28:02Z</time>
      </trkpt>
      <trkpt lat="46.593040" lon="12.897043">
        <ele>2112.684</ele>
        <time>2018-09-09T08:28:14Z</time>
      </trkpt>
      <trkpt lat="46.593121" lon="12.896968">
        <ele>2114.063</ele>
        <time>2018-09-09T08:28:32Z</time>
      </trkpt>
      <trkpt lat="46.593197" lon="12.896871">
        <ele>2114.544</ele>
        <time>2018-09-09T08:28:52Z</time>
      </trkpt>
      <trkpt lat="46.593218" lon="12.896845">
        <ele>2114.518</ele>
        <time>2018-09-09T08:28:55Z</time>
      </trkpt>
      <trkpt lat="46.593329" lon="12.896919">
        <ele>2117.408</ele>
        <time>2018-09-09T08:29:13Z</time>
      </trkpt>
      <trkpt lat="46.593312" lon="12.896900">
        <ele>2119.370</ele>
        <time>2018-09-09T08:29:49Z</time>
      </trkpt>
      <trkpt lat="46.593285" lon="12.896914">
        <ele>2116.422</ele>
        <time>2018-09-09T08:30:23Z</time>
      </trkpt>
      <trkpt lat="46.593334" lon="12.896928">
        <ele>2116.430</ele>
        <time>2018-09-09T08:31:05Z</time>
      </trkpt>
      <trkpt lat="46.593334" lon="12.896900">
        <ele>2118.415</ele>
        <time>2018-09-09T08:31:52Z</time>
      </trkpt>
      <trkpt lat="46.593337" lon="12.896882">
        <ele>2119.329</ele>
        <time>2018-09-09T08:32:33Z</time>
      </trkpt>
      <trkpt lat="46.593346" lon="12.896871">
        <ele>2119.331</ele>
        <time>2018-09-09T08:32:35Z</time>
      </trkpt>
      <trkpt lat="46.593355" lon="12.896854">
        <ele>2119.320</ele>
        <time>2018-09-09T08:32:37Z</time>
      </trkpt>
      <trkpt lat="46.593341" lon="12.896768">
        <ele>2119.375</ele>
        <time>2018-09-09T08:32:43Z</time>
      </trkpt>
      <trkpt lat="46.593230" lon="12.896597">
        <ele>2121.744</ele>
        <time>2018-09-09T08:33:01Z</time>
      </trkpt>
      <trkpt lat="46.593200" lon="12.896574">
        <ele>2120.805</ele>
        <time>2018-09-09T08:33:23Z</time>
      </trkpt>
      <trkpt lat="46.593185" lon="12.896595">
        <ele>2118.815</ele>
        <time>2018-09-09T08:33:41Z</time>
      </trkpt>
      <trkpt lat="46.593188" lon="12.896587">
        <ele>2119.808</ele>
        <time>2018-09-09T08:34:04Z</time>
      </trkpt>
      <trkpt lat="46.593197" lon="12.896608">
        <ele>2119.828</ele>
        <time>2018-09-09T08:34:38Z</time>
      </trkpt>
      <trkpt lat="46.593221" lon="12.896597">
        <ele>2118.860</ele>
        <time>2018-09-09T08:35:14Z</time>
      </trkpt>
      <trkpt lat="46.593201" lon="12.896607">
        <ele>2119.858</ele>
        <time>2018-09-09T08:35:48Z</time>
      </trkpt>
      <trkpt lat="46.593210" lon="12.896580">
        <ele>2121.753</ele>
        <time>2018-09-09T08:36:09Z</time>
      </trkpt>
      <trkpt lat="46.593214" lon="12.896559">
        <ele>2121.717</ele>
        <time>2018-09-09T08:36:10Z</time>
      </trkpt>
      <trkpt lat="46.593308" lon="12.895971">
        <ele>2116.089</ele>
        <time>2018-09-09T08:36:23Z</time>
      </trkpt>
      <trkpt lat="46.593352" lon="12.895606">
        <ele>2112.688</ele>
        <time>2018-09-09T08:36:28Z</time>
      </trkpt>
      <trkpt lat="46.593355" lon="12.895525">
        <ele>2111.663</ele>
        <time>2018-09-09T08:36:29Z</time>
      </trkpt>
      <trkpt lat="46.593355" lon="12.895184">
        <ele>2109.229</ele>
        <time>2018-09-09T08:36:33Z</time>
      </trkpt>
      <trkpt lat="46.593367" lon="12.895105">
        <ele>2108.300</ele>
        <time>2018-09-09T08:36:34Z</time>
      </trkpt>
      <trkpt lat="46.593381" lon="12.894934">
        <ele>2106.820</ele>
        <time>2018-09-09T08:36:37Z</time>
      </trkpt>
      <trkpt lat="46.593359" lon="12.894927">
        <ele>2106.308</ele>
        <time>2018-09-09T08:36:38Z</time>
      </trkpt>
      <trkpt lat="46.593334" lon="12.894939">
        <ele>2105.996</ele>
        <time>2018-09-09T08:36:39Z</time>
      </trkpt>
      <trkpt lat="46.593311" lon="12.894959">
        <ele>2104.998</ele>
        <time>2018-09-09T08:36:40Z</time>
      </trkpt>
      <trkpt lat="46.593297" lon="12.894991">
        <ele>2104.416</ele>
        <time>2018-09-09T08:36:41Z</time>
      </trkpt>
      <trkpt lat="46.593289" lon="12.895026">
        <ele>2103.981</ele>
        <time>2018-09-09T08:36:42Z</time>
      </trkpt>
      <trkpt lat="46.593080" lon="12.895726">
        <ele>2096.265</ele>
        <time>2018-09-09T08:36:55Z</time>
      </trkpt>
      <trkpt lat="46.593027" lon="12.895849">
        <ele>2094.837</ele>
        <time>2018-09-09T08:36:57Z</time>
      </trkpt>
      <trkpt lat="46.593010" lon="12.895907">
        <ele>2093.866</ele>
        <time>2018-09-09T08:36:58Z</time>
      </trkpt>
      <trkpt lat="46.592994" lon="12.895957">
        <ele>2093.481</ele>
        <time>2018-09-09T08:36:59Z</time>
      </trkpt>
      <trkpt lat="46.592969" lon="12.895990">
        <ele>2092.945</ele>
        <time>2018-09-09T08:37:00Z</time>
      </trkpt>
      <trkpt lat="46.592947" lon="12.895992">
        <ele>2092.447</ele>
        <time>2018-09-09T08:37:01Z</time>
      </trkpt>
      <trkpt lat="46.592931" lon="12.895962">
        <ele>2091.911</ele>
        <time>2018-09-09T08:37:02Z</time>
      </trkpt>
      <trkpt lat="46.592929" lon="12.895916">
        <ele>2091.408</ele>
        <time>2018-09-09T08:37:03Z</time>
      </trkpt>
      <trkpt lat="46.592935" lon="12.895862">
        <ele>2091.068</ele>
        <time>2018-09-09T08:37:04Z</time>
      </trkpt>
      <trkpt lat="46.592949" lon="12.895802">
        <ele>2090.050</ele>
        <time>2018-09-09T08:37:05Z</time>
      </trkpt>
      <trkpt lat="46.592963" lon="12.895749">
        <ele>2089.588</ele>
        <time>2018-09-09T08:37:06Z</time>
      </trkpt>
      <trkpt lat="46.592976" lon="12.895688">
        <ele>2089.033</ele>
        <time>2018-09-09T08:37:07Z</time>
      </trkpt>
      <trkpt lat="46.592982" lon="12.895624">
        <ele>2088.187</ele>
        <time>2018-09-09T08:37:08Z</time>
      </trkpt>
      <trkpt lat="46.592992" lon="12.895247">
        <ele>2084.789</ele>
        <time>2018-09-09T08:37:13Z</time>
      </trkpt>
      <trkpt lat="46.592992" lon="12.895179">
        <ele>2084.268</ele>
        <time>2018-09-09T08:37:14Z</time>
      </trkpt>
      <trkpt lat="46.592988" lon="12.895040">
        <ele>2082.833</ele>
        <time>2018-09-09T08:37:16Z</time>
      </trkpt>
      <trkpt lat="46.592975" lon="12.894958">
        <ele>2082.325</ele>
        <time>2018-09-09T08:37:17Z</time>
      </trkpt>
      <trkpt lat="46.592954" lon="12.894881">
        <ele>2081.326</ele>
        <time>2018-09-09T08:37:18Z</time>
      </trkpt>
      <trkpt lat="46.592926" lon="12.894801">
        <ele>2080.908</ele>
        <time>2018-09-09T08:37:19Z</time>
      </trkpt>
      <trkpt lat="46.592905" lon="12.894733">
        <ele>2080.408</ele>
        <time>2018-09-09T08:37:20Z</time>
      </trkpt>
      <trkpt lat="46.592894" lon="12.894658">
        <ele>2079.436</ele>
        <time>2018-09-09T08:37:21Z</time>
      </trkpt>
      <trkpt lat="46.592900" lon="12.894583">
        <ele>2078.988</ele>
        <time>2018-09-09T08:37:22Z</time>
      </trkpt>
      <trkpt lat="46.592920" lon="12.894515">
        <ele>2078.046</ele>
        <time>2018-09-09T08:37:23Z</time>
      </trkpt>
      <trkpt lat="46.592950" lon="12.894450">
        <ele>2077.591</ele>
        <time>2018-09-09T08:37:24Z</time>
      </trkpt>
      <trkpt lat="46.592981" lon="12.894397">
        <ele>2076.535</ele>
        <time>2018-09-09T08:37:25Z</time>
      </trkpt>
      <trkpt lat="46.593017" lon="12.894345">
        <ele>2075.647</ele>
        <time>2018-09-09T08:37:26Z</time>
      </trkpt>
      <trkpt lat="46.593058" lon="12.894290">
        <ele>2074.636</ele>
        <time>2018-09-09T08:37:27Z</time>
      </trkpt>
      <trkpt lat="46.593117" lon="12.894185">
        <ele>2072.751</ele>
        <time>2018-09-09T08:37:29Z</time>
      </trkpt>
      <trkpt lat="46.593139" lon="12.894121">
        <ele>2071.718</ele>
        <time>2018-09-09T08:37:30Z</time>
      </trkpt>
      <trkpt lat="46.593156" lon="12.894054">
        <ele>2070.898</ele>
        <time>2018-09-09T08:37:31Z</time>
      </trkpt>
      <trkpt lat="46.593186" lon="12.893912">
        <ele>2068.817</ele>
        <time>2018-09-09T08:37:33Z</time>
      </trkpt>
      <trkpt lat="46.593202" lon="12.893773">
        <ele>2067.408</ele>
        <time>2018-09-09T08:37:35Z</time>
      </trkpt>
      <trkpt lat="46.593209" lon="12.893626">
        <ele>2066.045</ele>
        <time>2018-09-09T08:37:37Z</time>
      </trkpt>
      <trkpt lat="46.593220" lon="12.893471">
        <ele>2064.587</ele>
        <time>2018-09-09T08:37:39Z</time>
      </trkpt>
      <trkpt lat="46.593213" lon="12.892827">
        <ele>2058.375</ele>
        <time>2018-09-09T08:37:47Z</time>
      </trkpt>
      <trkpt lat="46.593219" lon="12.892743">
        <ele>2057.890</ele>
        <time>2018-09-09T08:37:48Z</time>
      </trkpt>
      <trkpt lat="46.593218" lon="12.892672">
        <ele>2056.824</ele>
        <time>2018-09-09T08:37:49Z</time>
      </trkpt>
      <trkpt lat="46.593208" lon="12.892603">
        <ele>2056.476</ele>
        <time>2018-09-09T08:37:50Z</time>
      </trkpt>
      <trkpt lat="46.593189" lon="12.892536">
        <ele>2055.935</ele>
        <time>2018-09-09T08:37:51Z</time>
      </trkpt>
      <trkpt lat="46.593161" lon="12.892469">
        <ele>2055.440</ele>
        <time>2018-09-09T08:37:52Z</time>
      </trkpt>
      <trkpt lat="46.593130" lon="12.892400">
        <ele>2054.943</ele>
        <time>2018-09-09T08:37:53Z</time>
      </trkpt>
      <trkpt lat="46.593078" lon="12.892265">
        <ele>2053.564</ele>
        <time>2018-09-09T08:37:55Z</time>
      </trkpt>
      <trkpt lat="46.593029" lon="12.892127">
        <ele>2052.010</ele>
        <time>2018-09-09T08:37:57Z</time>
      </trkpt>
      <trkpt lat="46.592890" lon="12.891792">
        <ele>2049.108</ele>
        <time>2018-09-09T08:38:02Z</time>
      </trkpt>
      <trkpt lat="46.592857" lon="12.891743">
        <ele>2048.778</ele>
        <time>2018-09-09T08:38:03Z</time>
      </trkpt>
      <trkpt lat="46.592812" lon="12.891698">
        <ele>2047.210</ele>
        <time>2018-09-09T08:38:04Z</time>
      </trkpt>
      <trkpt lat="46.592768" lon="12.891669">
        <ele>2046.798</ele>
        <time>2018-09-09T08:38:05Z</time>
      </trkpt>
      <trkpt lat="46.592716" lon="12.891646">
        <ele>2045.843</ele>
        <time>2018-09-09T08:38:06Z</time>
      </trkpt>
      <trkpt lat="46.592665" lon="12.891624">
        <ele>2044.857</ele>
        <time>2018-09-09T08:38:07Z</time>
      </trkpt>
      <trkpt lat="46.592618" lon="12.891595">
        <ele>2044.389</ele>
        <time>2018-09-09T08:38:08Z</time>
      </trkpt>
      <trkpt lat="46.592575" lon="12.891563">
        <ele>2043.458</ele>
        <time>2018-09-09T08:38:09Z</time>
      </trkpt>
      <trkpt lat="46.592097" lon="12.891124">
        <ele>2035.233</ele>
        <time>2018-09-09T08:38:22Z</time>
      </trkpt>
      <trkpt lat="46.591871" lon="12.890825">
        <ele>2030.498</ele>
        <time>2018-09-09T08:38:32Z</time>
      </trkpt>
      <trkpt lat="46.591850" lon="12.890768">
        <ele>2029.915</ele>
        <time>2018-09-09T08:38:33Z</time>
      </trkpt>
      <trkpt lat="46.591679" lon="12.890154">
        <ele>2022.726</ele>
        <time>2018-09-09T08:38:42Z</time>
      </trkpt>
      <trkpt lat="46.591669" lon="12.890082">
        <ele>2022.208</ele>
        <time>2018-09-09T08:38:43Z</time>
      </trkpt>
      <trkpt lat="46.591638" lon="12.889857">
        <ele>2020.363</ele>
        <time>2018-09-09T08:38:46Z</time>
      </trkpt>
      <trkpt lat="46.591578" lon="12.889644">
        <ele>2017.945</ele>
        <time>2018-09-09T08:38:49Z</time>
      </trkpt>
      <trkpt lat="46.591549" lon="12.889579">
        <ele>2017.443</ele>
        <time>2018-09-09T08:38:50Z</time>
      </trkpt>
      <trkpt lat="46.591353" lon="12.889178">
        <ele>2011.728</ele>
        <time>2018-09-09T08:38:56Z</time>
      </trkpt>
      <trkpt lat="46.591043" lon="12.888629">
        <ele>2003.062</ele>
        <time>2018-09-09T08:39:06Z</time>
      </trkpt>
      <trkpt lat="46.590966" lon="12.888439">
        <ele>1999.274</ele>
        <time>2018-09-09T08:39:09Z</time>
      </trkpt>
      <trkpt lat="46.590936" lon="12.888384">
        <ele>1998.243</ele>
        <time>2018-09-09T08:39:10Z</time>
      </trkpt>
      <trkpt lat="46.590877" lon="12.888272">
        <ele>1996.398</ele>
        <time>2018-09-09T08:39:12Z</time>
      </trkpt>
      <trkpt lat="46.590857" lon="12.888210">
        <ele>1995.389</ele>
        <time>2018-09-09T08:39:13Z</time>
      </trkpt>
      <trkpt lat="46.590844" lon="12.888138">
        <ele>1994.306</ele>
        <time>2018-09-09T08:39:14Z</time>
      </trkpt>
      <trkpt lat="46.590839" lon="12.888077">
        <ele>1993.926</ele>
        <time>2018-09-09T08:39:15Z</time>
      </trkpt>
      <trkpt lat="46.590834" lon="12.888006">
        <ele>1992.908</ele>
        <time>2018-09-09T08:39:16Z</time>
      </trkpt>
      <trkpt lat="46.590721" lon="12.887373">
        <ele>1986.292</ele>
        <time>2018-09-09T08:39:25Z</time>
      </trkpt>
      <trkpt lat="46.590709" lon="12.887242">
        <ele>1984.784</ele>
        <time>2018-09-09T08:39:27Z</time>
      </trkpt>
      <trkpt lat="46.590719" lon="12.887183">
        <ele>1984.322</ele>
        <time>2018-09-09T08:39:28Z</time>
      </trkpt>
      <trkpt lat="46.590726" lon="12.887137">
        <ele>1984.377</ele>
        <time>2018-09-09T08:39:29Z</time>
      </trkpt>
      <trkpt lat="46.590718" lon="12.887103">
        <ele>1983.811</ele>
        <time>2018-09-09T08:39:30Z</time>
      </trkpt>
      <trkpt lat="46.590701" lon="12.887093">
        <ele>1983.883</ele>
        <time>2018-09-09T08:39:31Z</time>
      </trkpt>
      <trkpt lat="46.590681" lon="12.887108">
        <ele>1983.392</ele>
        <time>2018-09-09T08:39:32Z</time>
      </trkpt>
      <trkpt lat="46.590662" lon="12.887138">
        <ele>1982.857</ele>
        <time>2018-09-09T08:39:33Z</time>
      </trkpt>
      <trkpt lat="46.590649" lon="12.887176">
        <ele>1982.348</ele>
        <time>2018-09-09T08:39:34Z</time>
      </trkpt>
      <trkpt lat="46.590640" lon="12.887224">
        <ele>1981.461</ele>
        <time>2018-09-09T08:39:35Z</time>
      </trkpt>
      <trkpt lat="46.590634" lon="12.887271">
        <ele>1980.917</ele>
        <time>2018-09-09T08:39:36Z</time>
      </trkpt>
      <trkpt lat="46.590629" lon="12.887324">
        <ele>1979.908</ele>
        <time>2018-09-09T08:39:37Z</time>
      </trkpt>
      <trkpt lat="46.590626" lon="12.887387">
        <ele>1979.048</ele>
        <time>2018-09-09T08:39:38Z</time>
      </trkpt>
      <trkpt lat="46.590585" lon="12.887842">
        <ele>1973.290</ele>
        <time>2018-09-09T08:39:45Z</time>
      </trkpt>
      <trkpt lat="46.590568" lon="12.887913">
        <ele>1972.298</ele>
        <time>2018-09-09T08:39:46Z</time>
      </trkpt>
      <trkpt lat="46.590490" lon="12.888321">
        <ele>1967.953</ele>
        <time>2018-09-09T08:39:52Z</time>
      </trkpt>
      <trkpt lat="46.590489" lon="12.888387">
        <ele>1966.997</ele>
        <time>2018-09-09T08:39:53Z</time>
      </trkpt>
      <trkpt lat="46.590494" lon="12.888452">
        <ele>1966.549</ele>
        <time>2018-09-09T08:39:54Z</time>
      </trkpt>
      <trkpt lat="46.590506" lon="12.888517">
        <ele>1965.518</ele>
        <time>2018-09-09T08:39:55Z</time>
      </trkpt>
      <trkpt lat="46.590523" lon="12.888578">
        <ele>1965.013</ele>
        <time>2018-09-09T08:39:56Z</time>
      </trkpt>
      <trkpt lat="46.590542" lon="12.888643">
        <ele>1964.146</ele>
        <time>2018-09-09T08:39:57Z</time>
      </trkpt>
      <trkpt lat="46.590561" lon="12.888704">
        <ele>1963.688</ele>
        <time>2018-09-09T08:39:58Z</time>
      </trkpt>
      <trkpt lat="46.590578" lon="12.888763">
        <ele>1963.116</ele>
        <time>2018-09-09T08:39:59Z</time>
      </trkpt>
      <trkpt lat="46.590728" lon="12.889309">
        <ele>1957.808</ele>
        <time>2018-09-09T08:40:08Z</time>
      </trkpt>
      <trkpt lat="46.590732" lon="12.889376">
        <ele>1957.318</ele>
        <time>2018-09-09T08:40:09Z</time>
      </trkpt>
      <trkpt lat="46.590637" lon="12.890340">
        <ele>1947.770</ele>
        <time>2018-09-09T08:40:24Z</time>
      </trkpt>
      <trkpt lat="46.590611" lon="12.890526">
        <ele>1945.358</ele>
        <time>2018-09-09T08:40:27Z</time>
      </trkpt>
      <trkpt lat="46.590607" lon="12.890586">
        <ele>1944.463</ele>
        <time>2018-09-09T08:40:28Z</time>
      </trkpt>
      <trkpt lat="46.590609" lon="12.890645">
        <ele>1943.427</ele>
        <time>2018-09-09T08:40:29Z</time>
      </trkpt>
      <trkpt lat="46.590613" lon="12.890709">
        <ele>1942.939</ele>
        <time>2018-09-09T08:40:30Z</time>
      </trkpt>
      <trkpt lat="46.590613" lon="12.890770">
        <ele>1942.088</ele>
        <time>2018-09-09T08:40:31Z</time>
      </trkpt>
      <trkpt lat="46.590610" lon="12.890829">
        <ele>1941.593</ele>
        <time>2018-09-09T08:40:32Z</time>
      </trkpt>
      <trkpt lat="46.590601" lon="12.890892">
        <ele>1941.011</ele>
        <time>2018-09-09T08:40:33Z</time>
      </trkpt>
      <trkpt lat="46.590584" lon="12.890957">
        <ele>1940.021</ele>
        <time>2018-09-09T08:40:34Z</time>
      </trkpt>
      <trkpt lat="46.590565" lon="12.891014">
        <ele>1939.603</ele>
        <time>2018-09-09T08:40:35Z</time>
      </trkpt>
      <trkpt lat="46.590544" lon="12.891071">
        <ele>1938.608</ele>
        <time>2018-09-09T08:40:36Z</time>
      </trkpt>
      <trkpt lat="46.590526" lon="12.891132">
        <ele>1938.155</ele>
        <time>2018-09-09T08:40:37Z</time>
      </trkpt>
      <trkpt lat="46.590513" lon="12.891190">
        <ele>1937.647</ele>
        <time>2018-09-09T08:40:38Z</time>
      </trkpt>
      <trkpt lat="46.590490" lon="12.891315">
        <ele>1935.735</ele>
        <time>2018-09-09T08:40:40Z</time>
      </trkpt>
      <trkpt lat="46.590482" lon="12.891380">
        <ele>1935.270</ele>
        <time>2018-09-09T08:40:41Z</time>
      </trkpt>
      <trkpt lat="46.590473" lon="12.891645">
        <ele>1932.374</ele>
        <time>2018-09-09T08:40:45Z</time>
      </trkpt>
      <trkpt lat="46.590480" lon="12.891707">
        <ele>1931.996</ele>
        <time>2018-09-09T08:40:46Z</time>
      </trkpt>
      <trkpt lat="46.590493" lon="12.891762">
        <ele>1930.965</ele>
        <time>2018-09-09T08:40:47Z</time>
      </trkpt>
      <trkpt lat="46.590505" lon="12.891816">
        <ele>1930.430</ele>
        <time>2018-09-09T08:40:48Z</time>
      </trkpt>
      <trkpt lat="46.590498" lon="12.891859">
        <ele>1930.433</ele>
        <time>2018-09-09T08:40:49Z</time>
      </trkpt>
      <trkpt lat="46.590474" lon="12.891879">
        <ele>1929.923</ele>
        <time>2018-09-09T08:40:50Z</time>
      </trkpt>
      <trkpt lat="46.590450" lon="12.891867">
        <ele>1929.515</ele>
        <time>2018-09-09T08:40:51Z</time>
      </trkpt>
      <trkpt lat="46.590433" lon="12.891829">
        <ele>1929.008</ele>
        <time>2018-09-09T08:40:52Z</time>
      </trkpt>
      <trkpt lat="46.590420" lon="12.891785">
        <ele>1928.087</ele>
        <time>2018-09-09T08:40:53Z</time>
      </trkpt>
      <trkpt lat="46.590406" lon="12.891741">
        <ele>1927.529</ele>
        <time>2018-09-09T08:40:54Z</time>
      </trkpt>
      <trkpt lat="46.590391" lon="12.891687">
        <ele>1926.617</ele>
        <time>2018-09-09T08:40:55Z</time>
      </trkpt>
      <trkpt lat="46.590246" lon="12.890907">
        <ele>1919.472</ele>
        <time>2018-09-09T08:41:09Z</time>
      </trkpt>
      <trkpt lat="46.590202" lon="12.890801">
        <ele>1917.916</ele>
        <time>2018-09-09T08:41:11Z</time>
      </trkpt>
      <trkpt lat="46.590099" lon="12.890600">
        <ele>1915.078</ele>
        <time>2018-09-09T08:41:15Z</time>
      </trkpt>
      <trkpt lat="46.590074" lon="12.890546">
        <ele>1914.687</ele>
        <time>2018-09-09T08:41:16Z</time>
      </trkpt>
      <trkpt lat="46.590051" lon="12.890495">
        <ele>1914.132</ele>
        <time>2018-09-09T08:41:17Z</time>
      </trkpt>
      <trkpt lat="46.589902" lon="12.890093">
        <ele>1909.395</ele>
        <time>2018-09-09T08:41:24Z</time>
      </trkpt>
      <trkpt lat="46.589889" lon="12.890031">
        <ele>1908.849</ele>
        <time>2018-09-09T08:41:25Z</time>
      </trkpt>
      <trkpt lat="46.589874" lon="12.889972">
        <ele>1908.323</ele>
        <time>2018-09-09T08:41:26Z</time>
      </trkpt>
      <trkpt lat="46.589783" lon="12.889687">
        <ele>1904.508</ele>
        <time>2018-09-09T08:41:31Z</time>
      </trkpt>
      <trkpt lat="46.589758" lon="12.889638">
        <ele>1904.063</ele>
        <time>2018-09-09T08:41:32Z</time>
      </trkpt>
      <trkpt lat="46.589727" lon="12.889593">
        <ele>1903.595</ele>
        <time>2018-09-09T08:41:33Z</time>
      </trkpt>
      <trkpt lat="46.589558" lon="12.889286">
        <ele>1899.213</ele>
        <time>2018-09-09T08:41:40Z</time>
      </trkpt>
      <trkpt lat="46.589260" lon="12.888526">
        <ele>1890.098</ele>
        <time>2018-09-09T08:41:53Z</time>
      </trkpt>
      <trkpt lat="46.589215" lon="12.888333">
        <ele>1887.632</ele>
        <time>2018-09-09T08:41:56Z</time>
      </trkpt>
      <trkpt lat="46.589208" lon="12.888270">
        <ele>1886.774</ele>
        <time>2018-09-09T08:41:57Z</time>
      </trkpt>
      <trkpt lat="46.589206" lon="12.888207">
        <ele>1886.293</ele>
        <time>2018-09-09T08:41:58Z</time>
      </trkpt>
      <trkpt lat="46.589203" lon="12.888140">
        <ele>1885.758</ele>
        <time>2018-09-09T08:41:59Z</time>
      </trkpt>
      <trkpt lat="46.589197" lon="12.888078">
        <ele>1884.864</ele>
        <time>2018-09-09T08:42:00Z</time>
      </trkpt>
      <trkpt lat="46.589158" lon="12.887716">
        <ele>1880.406</ele>
        <time>2018-09-09T08:42:06Z</time>
      </trkpt>
      <trkpt lat="46.589153" lon="12.887657">
        <ele>1880.016</ele>
        <time>2018-09-09T08:42:07Z</time>
      </trkpt>
      <trkpt lat="46.589139" lon="12.887277">
        <ele>1875.608</ele>
        <time>2018-09-09T08:42:13Z</time>
      </trkpt>
      <trkpt lat="46.589167" lon="12.886566">
        <ele>1868.420</ele>
        <time>2018-09-09T08:42:24Z</time>
      </trkpt>
      <trkpt lat="46.589212" lon="12.886312">
        <ele>1865.562</ele>
        <time>2018-09-09T08:42:28Z</time>
      </trkpt>
      <trkpt lat="46.589232" lon="12.886251">
        <ele>1864.690</ele>
        <time>2018-09-09T08:42:29Z</time>
      </trkpt>
      <trkpt lat="46.589311" lon="12.885941">
        <ele>1860.745</ele>
        <time>2018-09-09T08:42:34Z</time>
      </trkpt>
      <trkpt lat="46.589331" lon="12.885882">
        <ele>1859.339</ele>
        <time>2018-09-09T08:42:35Z</time>
      </trkpt>
      <trkpt lat="46.589372" lon="12.885766">
        <ele>1857.411</ele>
        <time>2018-09-09T08:42:37Z</time>
      </trkpt>
      <trkpt lat="46.589383" lon="12.885706">
        <ele>1856.420</ele>
        <time>2018-09-09T08:42:38Z</time>
      </trkpt>
      <trkpt lat="46.589389" lon="12.885649">
        <ele>1855.945</ele>
        <time>2018-09-09T08:42:39Z</time>
      </trkpt>
      <trkpt lat="46.589419" lon="12.885218">
        <ele>1850.648</ele>
        <time>2018-09-09T08:42:46Z</time>
      </trkpt>
      <trkpt lat="46.589432" lon="12.885161">
        <ele>1849.761</ele>
        <time>2018-09-09T08:42:47Z</time>
      </trkpt>
      <trkpt lat="46.589532" lon="12.884712">
        <ele>1843.417</ele>
        <time>2018-09-09T08:42:55Z</time>
      </trkpt>
      <trkpt lat="46.589539" lon="12.884648">
        <ele>1842.908</ele>
        <time>2018-09-09T08:42:56Z</time>
      </trkpt>
      <trkpt lat="46.589548" lon="12.884584">
        <ele>1842.068</ele>
        <time>2018-09-09T08:42:57Z</time>
      </trkpt>
      <trkpt lat="46.589558" lon="12.884520">
        <ele>1841.570</ele>
        <time>2018-09-09T08:42:58Z</time>
      </trkpt>
      <trkpt lat="46.589567" lon="12.884457">
        <ele>1841.068</ele>
        <time>2018-09-09T08:42:59Z</time>
      </trkpt>
      <trkpt lat="46.589712" lon="12.883570">
        <ele>1832.883</ele>
        <time>2018-09-09T08:43:13Z</time>
      </trkpt>
      <trkpt lat="46.589882" lon="12.882592">
        <ele>1823.227</ele>
        <time>2018-09-09T08:43:27Z</time>
      </trkpt>
      <trkpt lat="46.589922" lon="12.882325">
        <ele>1820.399</ele>
        <time>2018-09-09T08:43:31Z</time>
      </trkpt>
      <trkpt lat="46.590006" lon="12.882093">
        <ele>1817.588</ele>
        <time>2018-09-09T08:43:35Z</time>
      </trkpt>
      <trkpt lat="46.590037" lon="12.882046">
        <ele>1816.583</ele>
        <time>2018-09-09T08:43:36Z</time>
      </trkpt>
      <trkpt lat="46.590075" lon="12.882011">
        <ele>1815.582</ele>
        <time>2018-09-09T08:43:37Z</time>
      </trkpt>
      <trkpt lat="46.590115" lon="12.881987">
        <ele>1815.143</ele>
        <time>2018-09-09T08:43:38Z</time>
      </trkpt>
      <trkpt lat="46.590151" lon="12.881971">
        <ele>1814.117</ele>
        <time>2018-09-09T08:43:39Z</time>
      </trkpt>
      <trkpt lat="46.590186" lon="12.881957">
        <ele>1813.108</ele>
        <time>2018-09-09T08:43:40Z</time>
      </trkpt>
      <trkpt lat="46.590223" lon="12.881942">
        <ele>1812.232</ele>
        <time>2018-09-09T08:43:41Z</time>
      </trkpt>
      <trkpt lat="46.590260" lon="12.881922">
        <ele>1810.784</ele>
        <time>2018-09-09T08:43:42Z</time>
      </trkpt>
      <trkpt lat="46.590293" lon="12.881892">
        <ele>1809.892</ele>
        <time>2018-09-09T08:43:43Z</time>
      </trkpt>
      <trkpt lat="46.590327" lon="12.881860">
        <ele>1808.877</ele>
        <time>2018-09-09T08:43:44Z</time>
      </trkpt>
      <trkpt lat="46.590361" lon="12.881832">
        <ele>1808.351</ele>
        <time>2018-09-09T08:43:45Z</time>
      </trkpt>
      <trkpt lat="46.590395" lon="12.881813">
        <ele>1807.493</ele>
        <time>2018-09-09T08:43:46Z</time>
      </trkpt>
      <trkpt lat="46.590431" lon="12.881809">
        <ele>1806.412</ele>
        <time>2018-09-09T08:43:47Z</time>
      </trkpt>
      <trkpt lat="46.590471" lon="12.881818">
        <ele>1805.417</ele>
        <time>2018-09-09T08:43:48Z</time>
      </trkpt>
      <trkpt lat="46.590517" lon="12.881838">
        <ele>1804.541</ele>
        <time>2018-09-09T08:43:49Z</time>
      </trkpt>
      <trkpt lat="46.590565" lon="12.881862">
        <ele>1804.081</ele>
        <time>2018-09-09T08:43:50Z</time>
      </trkpt>
      <trkpt lat="46.590755" lon="12.881978">
        <ele>1800.209</ele>
        <time>2018-09-09T08:43:54Z</time>
      </trkpt>
      <trkpt lat="46.590833" lon="12.882052">
        <ele>1798.708</ele>
        <time>2018-09-09T08:43:56Z</time>
      </trkpt>
      <trkpt lat="46.591220" lon="12.882499">
        <ele>1793.058</ele>
        <time>2018-09-09T08:44:06Z</time>
      </trkpt>
      <trkpt lat="46.591418" lon="12.882584">
        <ele>1791.050</ele>
        <time>2018-09-09T08:44:11Z</time>
      </trkpt>
      <trkpt lat="46.591442" lon="12.882557">
        <ele>1790.578</ele>
        <time>2018-09-09T08:44:12Z</time>
      </trkpt>
      <trkpt lat="46.591450" lon="12.882515">
        <ele>1790.583</ele>
        <time>2018-09-09T08:44:13Z</time>
      </trkpt>
      <trkpt lat="46.591442" lon="12.882477">
        <ele>1790.137</ele>
        <time>2018-09-09T08:44:14Z</time>
      </trkpt>
      <trkpt lat="46.591417" lon="12.882453">
        <ele>1790.129</ele>
        <time>2018-09-09T08:44:15Z</time>
      </trkpt>
      <trkpt lat="46.591386" lon="12.882436">
        <ele>1789.628</ele>
        <time>2018-09-09T08:44:16Z</time>
      </trkpt>
      <trkpt lat="46.591258" lon="12.882338">
        <ele>1787.213</ele>
        <time>2018-09-09T08:44:20Z</time>
      </trkpt>
      <trkpt lat="46.591242" lon="12.882288">
        <ele>1786.717</ele>
        <time>2018-09-09T08:44:21Z</time>
      </trkpt>
      <trkpt lat="46.591234" lon="12.882237">
        <ele>1786.287</ele>
        <time>2018-09-09T08:44:22Z</time>
      </trkpt>
      <trkpt lat="46.591232" lon="12.882182">
        <ele>1785.715</ele>
        <time>2018-09-09T08:44:23Z</time>
      </trkpt>
      <trkpt lat="46.591232" lon="12.882127">
        <ele>1785.308</ele>
        <time>2018-09-09T08:44:24Z</time>
      </trkpt>
      <trkpt lat="46.591231" lon="12.882070">
        <ele>1785.395</ele>
        <time>2018-09-09T08:44:25Z</time>
      </trkpt>
      <trkpt lat="46.591228" lon="12.882011">
        <ele>1784.817</ele>
        <time>2018-09-09T08:44:26Z</time>
      </trkpt>
      <trkpt lat="46.591219" lon="12.881835">
        <ele>1783.385</ele>
        <time>2018-09-09T08:44:29Z</time>
      </trkpt>
      <trkpt lat="46.591177" lon="12.881651">
        <ele>1782.440</ele>
        <time>2018-09-09T08:44:32Z</time>
      </trkpt>
      <trkpt lat="46.591154" lon="12.881603">
        <ele>1782.454</ele>
        <time>2018-09-09T08:44:33Z</time>
      </trkpt>
      <trkpt lat="46.591128" lon="12.881558">
        <ele>1782.456</ele>
        <time>2018-09-09T08:44:34Z</time>
      </trkpt>
      <trkpt lat="46.591095" lon="12.881522">
        <ele>1781.975</ele>
        <time>2018-09-09T08:44:35Z</time>
      </trkpt>
      <trkpt lat="46.591060" lon="12.881488">
        <ele>1781.990</ele>
        <time>2018-09-09T08:44:36Z</time>
      </trkpt>
      <trkpt lat="46.590870" lon="12.881303">
        <ele>1779.587</ele>
        <time>2018-09-09T08:44:41Z</time>
      </trkpt>
      <trkpt lat="46.590652" lon="12.881057">
        <ele>1777.142</ele>
        <time>2018-09-09T08:44:47Z</time>
      </trkpt>
      <trkpt lat="46.590525" lon="12.880969">
        <ele>1775.626</ele>
        <time>2018-09-09T08:44:50Z</time>
      </trkpt>
      <trkpt lat="46.590478" lon="12.880945">
        <ele>1774.708</ele>
        <time>2018-09-09T08:44:51Z</time>
      </trkpt>
      <trkpt lat="46.590430" lon="12.880930">
        <ele>1774.272</ele>
        <time>2018-09-09T08:44:52Z</time>
      </trkpt>
      <trkpt lat="46.590374" lon="12.880927">
        <ele>1773.774</ele>
        <time>2018-09-09T08:44:53Z</time>
      </trkpt>
      <trkpt lat="46.590322" lon="12.880925">
        <ele>1772.852</ele>
        <time>2018-09-09T08:44:54Z</time>
      </trkpt>
      <trkpt lat="46.590265" lon="12.880922">
        <ele>1771.817</ele>
        <time>2018-09-09T08:44:55Z</time>
      </trkpt>
      <trkpt lat="46.590115" lon="12.880925">
        <ele>1769.451</ele>
        <time>2018-09-09T08:44:58Z</time>
      </trkpt>
      <trkpt lat="46.589817" lon="12.880997">
        <ele>1763.673</ele>
        <time>2018-09-09T08:45:04Z</time>
      </trkpt>
      <trkpt lat="46.589769" lon="12.881003">
        <ele>1762.782</ele>
        <time>2018-09-09T08:45:05Z</time>
      </trkpt>
      <trkpt lat="46.589671" lon="12.881023">
        <ele>1760.787</ele>
        <time>2018-09-09T08:45:07Z</time>
      </trkpt>
      <trkpt lat="46.589629" lon="12.881048">
        <ele>1759.828</ele>
        <time>2018-09-09T08:45:08Z</time>
      </trkpt>
      <trkpt lat="46.589591" lon="12.881083">
        <ele>1758.889</ele>
        <time>2018-09-09T08:45:09Z</time>
      </trkpt>
      <trkpt lat="46.589554" lon="12.881123">
        <ele>1757.917</ele>
        <time>2018-09-09T08:45:10Z</time>
      </trkpt>
      <trkpt lat="46.589516" lon="12.881162">
        <ele>1756.908</ele>
        <time>2018-09-09T08:45:11Z</time>
      </trkpt>
      <trkpt lat="46.589407" lon="12.881301">
        <ele>1754.036</ele>
        <time>2018-09-09T08:45:14Z</time>
      </trkpt>
      <trkpt lat="46.589373" lon="12.881355">
        <ele>1753.118</ele>
        <time>2018-09-09T08:45:15Z</time>
      </trkpt>
      <trkpt lat="46.589339" lon="12.881406">
        <ele>1751.646</ele>
        <time>2018-09-09T08:45:16Z</time>
      </trkpt>
      <trkpt lat="46.589302" lon="12.881454">
        <ele>1750.741</ele>
        <time>2018-09-09T08:45:17Z</time>
      </trkpt>
      <trkpt lat="46.589263" lon="12.881501">
        <ele>1749.235</ele>
        <time>2018-09-09T08:45:18Z</time>
      </trkpt>
      <trkpt lat="46.589179" lon="12.881582">
        <ele>1746.847</ele>
        <time>2018-09-09T08:45:20Z</time>
      </trkpt>
      <trkpt lat="46.589005" lon="12.881730">
        <ele>1741.546</ele>
        <time>2018-09-09T08:45:24Z</time>
      </trkpt>
      <trkpt lat="46.588937" lon="12.881825">
        <ele>1739.111</ele>
        <time>2018-09-09T08:45:26Z</time>
      </trkpt>
      <trkpt lat="46.588903" lon="12.881876">
        <ele>1737.729</ele>
        <time>2018-09-09T08:45:27Z</time>
      </trkpt>
      <trkpt lat="46.588863" lon="12.881919">
        <ele>1736.700</ele>
        <time>2018-09-09T08:45:28Z</time>
      </trkpt>
      <trkpt lat="46.588373" lon="12.882525">
        <ele>1724.220</ele>
        <time>2018-09-09T08:45:41Z</time>
      </trkpt>
      <trkpt lat="46.587899" lon="12.883082">
        <ele>1714.608</ele>
        <time>2018-09-09T08:45:55Z</time>
      </trkpt>
      <trkpt lat="46.587508" lon="12.883747">
        <ele>1705.086</ele>
        <time>2018-09-09T08:46:09Z</time>
      </trkpt>
      <trkpt lat="46.587313" lon="12.883921">
        <ele>1701.168</ele>
        <time>2018-09-09T08:46:15Z</time>
      </trkpt>
      <trkpt lat="46.587272" lon="12.883941">
        <ele>1700.286</ele>
        <time>2018-09-09T08:46:16Z</time>
      </trkpt>
      <trkpt lat="46.587234" lon="12.883957">
        <ele>1699.261</ele>
        <time>2018-09-09T08:46:17Z</time>
      </trkpt>
      <trkpt lat="46.587193" lon="12.883970">
        <ele>1698.755</ele>
        <time>2018-09-09T08:46:18Z</time>
      </trkpt>
      <trkpt lat="46.587152" lon="12.883980">
        <ele>1697.817</ele>
        <time>2018-09-09T08:46:19Z</time>
      </trkpt>
      <trkpt lat="46.587111" lon="12.883984">
        <ele>1696.856</ele>
        <time>2018-09-09T08:46:20Z</time>
      </trkpt>
      <trkpt lat="46.587067" lon="12.883984">
        <ele>1695.931</ele>
        <time>2018-09-09T08:46:21Z</time>
      </trkpt>
      <trkpt lat="46.587025" lon="12.883975">
        <ele>1694.983</ele>
        <time>2018-09-09T08:46:22Z</time>
      </trkpt>
      <trkpt lat="46.586989" lon="12.883950">
        <ele>1693.925</ele>
        <time>2018-09-09T08:46:23Z</time>
      </trkpt>
      <trkpt lat="46.586960" lon="12.883916">
        <ele>1693.517</ele>
        <time>2018-09-09T08:46:24Z</time>
      </trkpt>
      <trkpt lat="46.586933" lon="12.883879">
        <ele>1693.508</ele>
        <time>2018-09-09T08:46:25Z</time>
      </trkpt>
      <trkpt lat="46.586908" lon="12.883840">
        <ele>1693.052</ele>
        <time>2018-09-09T08:46:26Z</time>
      </trkpt>
      <trkpt lat="46.586834" lon="12.883735">
        <ele>1692.054</ele>
        <time>2018-09-09T08:46:29Z</time>
      </trkpt>
      <trkpt lat="46.586796" lon="12.883727">
        <ele>1691.572</ele>
        <time>2018-09-09T08:46:30Z</time>
      </trkpt>
      <trkpt lat="46.586761" lon="12.883732">
        <ele>1691.177</ele>
        <time>2018-09-09T08:46:31Z</time>
      </trkpt>
      <trkpt lat="46.586730" lon="12.883743">
        <ele>1690.661</ele>
        <time>2018-09-09T08:46:32Z</time>
      </trkpt>
      <trkpt lat="46.586697" lon="12.883761">
        <ele>1689.633</ele>
        <time>2018-09-09T08:46:33Z</time>
      </trkpt>
      <trkpt lat="46.586668" lon="12.883766">
        <ele>1689.172</ele>
        <time>2018-09-09T08:46:34Z</time>
      </trkpt>
      <trkpt lat="46.586639" lon="12.883748">
        <ele>1688.687</ele>
        <time>2018-09-09T08:46:35Z</time>
      </trkpt>
      <trkpt lat="46.586623" lon="12.883711">
        <ele>1688.283</ele>
        <time>2018-09-09T08:46:36Z</time>
      </trkpt>
      <trkpt lat="46.586622" lon="12.883664">
        <ele>1687.225</ele>
        <time>2018-09-09T08:46:37Z</time>
      </trkpt>
      <trkpt lat="46.586629" lon="12.883625">
        <ele>1687.217</ele>
        <time>2018-09-09T08:46:38Z</time>
      </trkpt>
      <trkpt lat="46.586645" lon="12.883599">
        <ele>1686.708</ele>
        <time>2018-09-09T08:46:39Z</time>
      </trkpt>
      <trkpt lat="46.586664" lon="12.883576">
        <ele>1686.712</ele>
        <time>2018-09-09T08:46:40Z</time>
      </trkpt>
      <trkpt lat="46.586685" lon="12.883548">
        <ele>1686.274</ele>
        <time>2018-09-09T08:46:41Z</time>
      </trkpt>
      <trkpt lat="46.586705" lon="12.883512">
        <ele>1685.862</ele>
        <time>2018-09-09T08:46:42Z</time>
      </trkpt>
      <trkpt lat="46.586724" lon="12.883477">
        <ele>1685.317</ele>
        <time>2018-09-09T08:46:43Z</time>
      </trkpt>
      <trkpt lat="46.586745" lon="12.883443">
        <ele>1684.881</ele>
        <time>2018-09-09T08:46:44Z</time>
      </trkpt>
      <trkpt lat="46.586768" lon="12.883411">
        <ele>1684.373</ele>
        <time>2018-09-09T08:46:45Z</time>
      </trkpt>
      <trkpt lat="46.586877" lon="12.883276">
        <ele>1682.482</ele>
        <time>2018-09-09T08:46:49Z</time>
      </trkpt>
      <trkpt lat="46.586916" lon="12.883259">
        <ele>1682.417</ele>
        <time>2018-09-09T08:46:50Z</time>
      </trkpt>
      <trkpt lat="46.586958" lon="12.883248">
        <ele>1681.935</ele>
        <time>2018-09-09T08:46:51Z</time>
      </trkpt>
      <trkpt lat="46.587041" lon="12.883229">
        <ele>1681.086</ele>
        <time>2018-09-09T08:46:53Z</time>
      </trkpt>
      <trkpt lat="46.587082" lon="12.883204">
        <ele>1681.014</ele>
        <time>2018-09-09T08:46:54Z</time>
      </trkpt>
      <trkpt lat="46.587118" lon="12.883164">
        <ele>1680.508</ele>
        <time>2018-09-09T08:46:55Z</time>
      </trkpt>
      <trkpt lat="46.587145" lon="12.883111">
        <ele>1680.067</ele>
        <time>2018-09-09T08:46:56Z</time>
      </trkpt>
      <trkpt lat="46.587168" lon="12.883054">
        <ele>1679.519</ele>
        <time>2018-09-09T08:46:57Z</time>
      </trkpt>
      <trkpt lat="46.587282" lon="12.882780">
        <ele>1676.687</ele>
        <time>2018-09-09T08:47:02Z</time>
      </trkpt>
      <trkpt lat="46.587416" lon="12.882421">
        <ele>1673.342</ele>
        <time>2018-09-09T08:47:10Z</time>
      </trkpt>
      <trkpt lat="46.587428" lon="12.882361">
        <ele>1672.846</ele>
        <time>2018-09-09T08:47:11Z</time>
      </trkpt>
      <trkpt lat="46.587592" lon="12.881724">
        <ele>1665.668</ele>
        <time>2018-09-09T08:47:24Z</time>
      </trkpt>
      <trkpt lat="46.587778" lon="12.881217">
        <ele>1660.867</ele>
        <time>2018-09-09T08:47:36Z</time>
      </trkpt>
      <trkpt lat="46.588012" lon="12.880599">
        <ele>1652.622</ele>
        <time>2018-09-09T08:47:50Z</time>
      </trkpt>
      <trkpt lat="46.588044" lon="12.880496">
        <ele>1651.287</ele>
        <time>2018-09-09T08:47:52Z</time>
      </trkpt>
      <trkpt lat="46.588237" lon="12.879857">
        <ele>1643.942</ele>
        <time>2018-09-09T08:48:06Z</time>
      </trkpt>
      <trkpt lat="46.588580" lon="12.879390">
        <ele>1637.226</ele>
        <time>2018-09-09T08:48:20Z</time>
      </trkpt>
      <trkpt lat="46.588612" lon="12.879341">
        <ele>1636.708</ele>
        <time>2018-09-09T08:48:29Z</time>
      </trkpt>
      <trkpt lat="46.588635" lon="12.879350">
        <ele>1636.772</ele>
        <time>2018-09-09T08:49:08Z</time>
      </trkpt>
      <trkpt lat="46.588975" lon="12.879003">
        <ele>1631.084</ele>
        <time>2018-09-09T08:49:20Z</time>
      </trkpt>
      <trkpt lat="46.589382" lon="12.878407">
        <ele>1623.332</ele>
        <time>2018-09-09T08:49:35Z</time>
      </trkpt>
      <trkpt lat="46.589600" lon="12.877936">
        <ele>1617.047</ele>
        <time>2018-09-09T08:49:44Z</time>
      </trkpt>
      <trkpt lat="46.589710" lon="12.877560">
        <ele>1614.151</ele>
        <time>2018-09-09T08:49:50Z</time>
      </trkpt>
      <trkpt lat="46.589744" lon="12.877445">
        <ele>1612.793</ele>
        <time>2018-09-09T08:49:52Z</time>
      </trkpt>
      <trkpt lat="46.589766" lon="12.877396">
        <ele>1612.252</ele>
        <time>2018-09-09T08:49:53Z</time>
      </trkpt>
      <trkpt lat="46.589795" lon="12.877361">
        <ele>1611.777</ele>
        <time>2018-09-09T08:49:54Z</time>
      </trkpt>
      <trkpt lat="46.589830" lon="12.877351">
        <ele>1611.313</ele>
        <time>2018-09-09T08:49:55Z</time>
      </trkpt>
      <trkpt lat="46.589866" lon="12.877366">
        <ele>1610.343</ele>
        <time>2018-09-09T08:49:56Z</time>
      </trkpt>
      <trkpt lat="46.589902" lon="12.877392">
        <ele>1609.807</ele>
        <time>2018-09-09T08:49:57Z</time>
      </trkpt>
      <trkpt lat="46.590025" lon="12.877479">
        <ele>1608.408</ele>
        <time>2018-09-09T08:50:00Z</time>
      </trkpt>
      <trkpt lat="46.590070" lon="12.877495">
        <ele>1607.955</ele>
        <time>2018-09-09T08:50:01Z</time>
      </trkpt>
      <trkpt lat="46.590425" lon="12.877575">
        <ele>1604.187</ele>
        <time>2018-09-09T08:50:09Z</time>
      </trkpt>
      <trkpt lat="46.590466" lon="12.877572">
        <ele>1604.115</ele>
        <time>2018-09-09T08:50:10Z</time>
      </trkpt>
      <trkpt lat="46.590506" lon="12.877555">
        <ele>1604.180</ele>
        <time>2018-09-09T08:50:11Z</time>
      </trkpt>
      <trkpt lat="46.590542" lon="12.877525">
        <ele>1603.644</ele>
        <time>2018-09-09T08:50:12Z</time>
      </trkpt>
      <trkpt lat="46.590575" lon="12.877487">
        <ele>1603.636</ele>
        <time>2018-09-09T08:50:13Z</time>
      </trkpt>
      <trkpt lat="46.590606" lon="12.877443">
        <ele>1603.195</ele>
        <time>2018-09-09T08:50:14Z</time>
      </trkpt>
      <trkpt lat="46.590635" lon="12.877400">
        <ele>1602.180</ele>
        <time>2018-09-09T08:50:15Z</time>
      </trkpt>
      <trkpt lat="46.590935" lon="12.876884">
        <ele>1596.821</ele>
        <time>2018-09-09T08:50:26Z</time>
      </trkpt>
      <trkpt lat="46.590979" lon="12.876768">
        <ele>1595.441</ele>
        <time>2018-09-09T08:50:28Z</time>
      </trkpt>
      <trkpt lat="46.590995" lon="12.876702">
        <ele>1594.905</ele>
        <time>2018-09-09T08:50:29Z</time>
      </trkpt>
      <trkpt lat="46.591089" lon="12.876133">
        <ele>1591.608</ele>
        <time>2018-09-09T08:50:39Z</time>
      </trkpt>
      <trkpt lat="46.591095" lon="12.876076">
        <ele>1591.666</ele>
        <time>2018-09-09T08:50:40Z</time>
      </trkpt>
      <trkpt lat="46.591289" lon="12.875571">
        <ele>1587.278</ele>
        <time>2018-09-09T08:50:51Z</time>
      </trkpt>
      <trkpt lat="46.591341" lon="12.875476">
        <ele>1586.336</ele>
        <time>2018-09-09T08:50:53Z</time>
      </trkpt>
      <trkpt lat="46.591349" lon="12.875414">
        <ele>1585.811</ele>
        <time>2018-09-09T08:50:54Z</time>
      </trkpt>
      <trkpt lat="46.591347" lon="12.875343">
        <ele>1585.385</ele>
        <time>2018-09-09T08:50:55Z</time>
      </trkpt>
      <trkpt lat="46.591338" lon="12.875280">
        <ele>1584.337</ele>
        <time>2018-09-09T08:50:56Z</time>
      </trkpt>
      <trkpt lat="46.591329" lon="12.875232">
        <ele>1583.956</ele>
        <time>2018-09-09T08:50:57Z</time>
      </trkpt>
      <trkpt lat="46.591316" lon="12.875165">
        <ele>1583.451</ele>
        <time>2018-09-09T08:50:58Z</time>
      </trkpt>
      <trkpt lat="46.591310" lon="12.875101">
        <ele>1582.442</ele>
        <time>2018-09-09T08:50:59Z</time>
      </trkpt>
      <trkpt lat="46.591312" lon="12.875038">
        <ele>1581.522</ele>
        <time>2018-09-09T08:51:00Z</time>
      </trkpt>
      <trkpt lat="46.591319" lon="12.874969">
        <ele>1580.514</ele>
        <time>2018-09-09T08:51:01Z</time>
      </trkpt>
      <trkpt lat="46.591328" lon="12.874909">
        <ele>1579.508</ele>
        <time>2018-09-09T08:51:02Z</time>
      </trkpt>
      <trkpt lat="46.591421" lon="12.874465">
        <ele>1571.848</ele>
        <time>2018-09-09T08:51:10Z</time>
      </trkpt>
      <trkpt lat="46.591426" lon="12.874405">
        <ele>1571.440</ele>
        <time>2018-09-09T08:51:11Z</time>
      </trkpt>
      <trkpt lat="46.591429" lon="12.874346">
        <ele>1570.988</ele>
        <time>2018-09-09T08:51:12Z</time>
      </trkpt>
      <trkpt lat="46.591436" lon="12.873999">
        <ele>1568.073</ele>
        <time>2018-09-09T08:51:18Z</time>
      </trkpt>
      <trkpt lat="46.591468" lon="12.873901">
        <ele>1566.657</ele>
        <time>2018-09-09T08:51:20Z</time>
      </trkpt>
      <trkpt lat="46.591462" lon="12.873853">
        <ele>1566.139</ele>
        <time>2018-09-09T08:51:21Z</time>
      </trkpt>
      <trkpt lat="46.591437" lon="12.873827">
        <ele>1565.698</ele>
        <time>2018-09-09T08:51:22Z</time>
      </trkpt>
      <trkpt lat="46.591407" lon="12.873838">
        <ele>1565.123</ele>
        <time>2018-09-09T08:51:23Z</time>
      </trkpt>
      <trkpt lat="46.591380" lon="12.873880">
        <ele>1564.624</ele>
        <time>2018-09-09T08:51:24Z</time>
      </trkpt>
      <trkpt lat="46.591361" lon="12.873929">
        <ele>1564.204</ele>
        <time>2018-09-09T08:51:25Z</time>
      </trkpt>
      <trkpt lat="46.591345" lon="12.873983">
        <ele>1563.714</ele>
        <time>2018-09-09T08:51:26Z</time>
      </trkpt>
      <trkpt lat="46.591331" lon="12.874035">
        <ele>1562.708</ele>
        <time>2018-09-09T08:51:27Z</time>
      </trkpt>
      <trkpt lat="46.591144" lon="12.874456">
        <ele>1555.596</ele>
        <time>2018-09-09T08:51:36Z</time>
      </trkpt>
      <trkpt lat="46.591119" lon="12.874511">
        <ele>1554.558</ele>
        <time>2018-09-09T08:51:37Z</time>
      </trkpt>
      <trkpt lat="46.591038" lon="12.874758">
        <ele>1551.776</ele>
        <time>2018-09-09T08:51:41Z</time>
      </trkpt>
      <trkpt lat="46.591012" lon="12.874805">
        <ele>1550.721</ele>
        <time>2018-09-09T08:51:42Z</time>
      </trkpt>
      <trkpt lat="46.590979" lon="12.874830">
        <ele>1550.245</ele>
        <time>2018-09-09T08:51:43Z</time>
      </trkpt>
      <trkpt lat="46.590943" lon="12.874828">
        <ele>1549.387</ele>
        <time>2018-09-09T08:51:44Z</time>
      </trkpt>
      <trkpt lat="46.590919" lon="12.874802">
        <ele>1548.826</ele>
        <time>2018-09-09T08:51:45Z</time>
      </trkpt>
      <trkpt lat="46.590911" lon="12.874756">
        <ele>1548.371</ele>
        <time>2018-09-09T08:51:46Z</time>
      </trkpt>
      <trkpt lat="46.590919" lon="12.874703">
        <ele>1547.865</ele>
        <time>2018-09-09T08:51:47Z</time>
      </trkpt>
      <trkpt lat="46.590939" lon="12.874654">
        <ele>1547.368</ele>
        <time>2018-09-09T08:51:48Z</time>
      </trkpt>
      <trkpt lat="46.590963" lon="12.874608">
        <ele>1546.914</ele>
        <time>2018-09-09T08:51:49Z</time>
      </trkpt>
      <trkpt lat="46.590980" lon="12.874566">
        <ele>1546.408</ele>
        <time>2018-09-09T08:51:50Z</time>
      </trkpt>
      <trkpt lat="46.590995" lon="12.874514">
        <ele>1545.930</ele>
        <time>2018-09-09T08:51:51Z</time>
      </trkpt>
      <trkpt lat="46.591004" lon="12.874464">
        <ele>1545.422</ele>
        <time>2018-09-09T08:51:52Z</time>
      </trkpt>
      <trkpt lat="46.591014" lon="12.874409">
        <ele>1544.540</ele>
        <time>2018-09-09T08:51:53Z</time>
      </trkpt>
      <trkpt lat="46.591023" lon="12.874354">
        <ele>1544.045</ele>
        <time>2018-09-09T08:51:54Z</time>
      </trkpt>
      <trkpt lat="46.591031" lon="12.874306">
        <ele>1543.559</ele>
        <time>2018-09-09T08:51:55Z</time>
      </trkpt>
      <trkpt lat="46.591036" lon="12.874252">
        <ele>1543.091</ele>
        <time>2018-09-09T08:51:56Z</time>
      </trkpt>
      <trkpt lat="46.591056" lon="12.874143">
        <ele>1542.560</ele>
        <time>2018-09-09T08:51:58Z</time>
      </trkpt>
      <trkpt lat="46.591054" lon="12.874086">
        <ele>1542.015</ele>
        <time>2018-09-09T08:51:59Z</time>
      </trkpt>
      <trkpt lat="46.591049" lon="12.874032">
        <ele>1542.038</ele>
        <time>2018-09-09T08:52:00Z</time>
      </trkpt>
      <trkpt lat="46.591041" lon="12.873976">
        <ele>1542.570</ele>
        <time>2018-09-09T08:52:01Z</time>
      </trkpt>
      <trkpt lat="46.591029" lon="12.873915">
        <ele>1542.517</ele>
        <time>2018-09-09T08:52:02Z</time>
      </trkpt>
      <trkpt lat="46.591019" lon="12.873860">
        <ele>1543.008</ele>
        <time>2018-09-09T08:52:03Z</time>
      </trkpt>
      <trkpt lat="46.591037" lon="12.873612">
        <ele>1543.547</ele>
        <time>2018-09-09T08:52:07Z</time>
      </trkpt>
      <trkpt lat="46.591058" lon="12.873559">
        <ele>1543.019</ele>
        <time>2018-09-09T08:52:08Z</time>
      </trkpt>
      <trkpt lat="46.591109" lon="12.873450">
        <ele>1541.627</ele>
        <time>2018-09-09T08:52:10Z</time>
      </trkpt>
      <trkpt lat="46.591163" lon="12.873265">
        <ele>1539.642</ele>
        <time>2018-09-09T08:52:13Z</time>
      </trkpt>
      <trkpt lat="46.591306" lon="12.872722">
        <ele>1531.526</ele>
        <time>2018-09-09T08:52:23Z</time>
      </trkpt>
      <trkpt lat="46.591351" lon="12.872176">
        <ele>1525.798</ele>
        <time>2018-09-09T08:52:35Z</time>
      </trkpt>
      <trkpt lat="46.591439" lon="12.871819">
        <ele>1523.817</ele>
        <time>2018-09-09T08:52:45Z</time>
      </trkpt>
      <trkpt lat="46.591490" lon="12.871683">
        <ele>1521.922</ele>
        <time>2018-09-09T08:52:49Z</time>
      </trkpt>
      <trkpt lat="46.591489" lon="12.871651">
        <ele>1521.945</ele>
        <time>2018-09-09T08:52:50Z</time>
      </trkpt>
      <trkpt lat="46.591471" lon="12.871628">
        <ele>1521.947</ele>
        <time>2018-09-09T08:52:51Z</time>
      </trkpt>
      <trkpt lat="46.591444" lon="12.871619">
        <ele>1521.911</ele>
        <time>2018-09-09T08:52:52Z</time>
      </trkpt>
      <trkpt lat="46.591423" lon="12.871624">
        <ele>1521.408</ele>
        <time>2018-09-09T08:52:53Z</time>
      </trkpt>
      <trkpt lat="46.591407" lon="12.871639">
        <ele>1520.928</ele>
        <time>2018-09-09T08:52:54Z</time>
      </trkpt>
      <trkpt lat="46.591396" lon="12.871661">
        <ele>1520.430</ele>
        <time>2018-09-09T08:52:55Z</time>
      </trkpt>
      <trkpt lat="46.591222" lon="12.872078">
        <ele>1513.778</ele>
        <time>2018-09-09T08:53:09Z</time>
      </trkpt>
      <trkpt lat="46.590954" lon="12.872373">
        <ele>1507.983</ele>
        <time>2018-09-09T08:53:19Z</time>
      </trkpt>
      <trkpt lat="46.590782" lon="12.872744">
        <ele>1502.677</ele>
        <time>2018-09-09T08:53:29Z</time>
      </trkpt>
      <trkpt lat="46.590533" lon="12.872941">
        <ele>1497.369</ele>
        <time>2018-09-09T08:53:38Z</time>
      </trkpt>
      <trkpt lat="46.590338" lon="12.873278">
        <ele>1487.728</ele>
        <time>2018-09-09T08:53:49Z</time>
      </trkpt>
      <trkpt lat="46.590112" lon="12.873735">
        <ele>1480.593</ele>
        <time>2018-09-09T08:54:02Z</time>
      </trkpt>
      <trkpt lat="46.590086" lon="12.873738">
        <ele>1480.099</ele>
        <time>2018-09-09T08:54:03Z</time>
      </trkpt>
      <trkpt lat="46.590061" lon="12.873730">
        <ele>1480.007</ele>
        <time>2018-09-09T08:54:04Z</time>
      </trkpt>
      <trkpt lat="46.590044" lon="12.873711">
        <ele>1480.027</ele>
        <time>2018-09-09T08:54:05Z</time>
      </trkpt>
      <trkpt lat="46.590035" lon="12.873676">
        <ele>1479.608</ele>
        <time>2018-09-09T08:54:06Z</time>
      </trkpt>
      <trkpt lat="46.590037" lon="12.873643">
        <ele>1479.123</ele>
        <time>2018-09-09T08:54:07Z</time>
      </trkpt>
      <trkpt lat="46.590046" lon="12.873610">
        <ele>1478.675</ele>
        <time>2018-09-09T08:54:08Z</time>
      </trkpt>
      <trkpt lat="46.590057" lon="12.873578">
        <ele>1478.123</ele>
        <time>2018-09-09T08:54:09Z</time>
      </trkpt>
      <trkpt lat="46.590131" lon="12.873072">
        <ele>1471.428</ele>
        <time>2018-09-09T08:54:19Z</time>
      </trkpt>
      <trkpt lat="46.590143" lon="12.873017">
        <ele>1470.412</ele>
        <time>2018-09-09T08:54:20Z</time>
      </trkpt>
      <trkpt lat="46.590159" lon="12.872976">
        <ele>1469.534</ele>
        <time>2018-09-09T08:54:21Z</time>
      </trkpt>
      <trkpt lat="46.590177" lon="12.872944">
        <ele>1469.073</ele>
        <time>2018-09-09T08:54:22Z</time>
      </trkpt>
      <trkpt lat="46.590199" lon="12.872916">
        <ele>1468.048</ele>
        <time>2018-09-09T08:54:23Z</time>
      </trkpt>
      <trkpt lat="46.590221" lon="12.872886">
        <ele>1467.537</ele>
        <time>2018-09-09T08:54:24Z</time>
      </trkpt>
      <trkpt lat="46.590240" lon="12.872851">
        <ele>1467.149</ele>
        <time>2018-09-09T08:54:25Z</time>
      </trkpt>
      <trkpt lat="46.590344" lon="12.872599">
        <ele>1464.213</ele>
        <time>2018-09-09T08:54:31Z</time>
      </trkpt>
      <trkpt lat="46.590369" lon="12.872565">
        <ele>1463.708</ele>
        <time>2018-09-09T08:54:32Z</time>
      </trkpt>
      <trkpt lat="46.590390" lon="12.872521">
        <ele>1462.767</ele>
        <time>2018-09-09T08:54:33Z</time>
      </trkpt>
      <trkpt lat="46.590427" lon="12.871972">
        <ele>1455.559</ele>
        <time>2018-09-09T08:54:44Z</time>
      </trkpt>
      <trkpt lat="46.590456" lon="12.871846">
        <ele>1454.197</ele>
        <time>2018-09-09T08:54:47Z</time>
      </trkpt>
      <trkpt lat="46.590475" lon="12.871818">
        <ele>1453.182</ele>
        <time>2018-09-09T08:54:48Z</time>
      </trkpt>
      <trkpt lat="46.590492" lon="12.871790">
        <ele>1452.666</ele>
        <time>2018-09-09T08:54:49Z</time>
      </trkpt>
      <trkpt lat="46.590507" lon="12.871757">
        <ele>1452.228</ele>
        <time>2018-09-09T08:54:50Z</time>
      </trkpt>
      <trkpt lat="46.590521" lon="12.871719">
        <ele>1451.787</ele>
        <time>2018-09-09T08:54:51Z</time>
      </trkpt>
      <trkpt lat="46.590816" lon="12.871217">
        <ele>1444.592</ele>
        <time>2018-09-09T08:55:04Z</time>
      </trkpt>
      <trkpt lat="46.590957" lon="12.871032">
        <ele>1441.165</ele>
        <time>2018-09-09T08:55:09Z</time>
      </trkpt>
      <trkpt lat="46.590981" lon="12.870984">
        <ele>1440.668</ele>
        <time>2018-09-09T08:55:10Z</time>
      </trkpt>
      <trkpt lat="46.591005" lon="12.870932">
        <ele>1440.114</ele>
        <time>2018-09-09T08:55:11Z</time>
      </trkpt>
      <trkpt lat="46.591024" lon="12.870880">
        <ele>1439.708</ele>
        <time>2018-09-09T08:55:12Z</time>
      </trkpt>
      <trkpt lat="46.591041" lon="12.870828">
        <ele>1439.260</ele>
        <time>2018-09-09T08:55:13Z</time>
      </trkpt>
      <trkpt lat="46.591052" lon="12.870775">
        <ele>1438.742</ele>
        <time>2018-09-09T08:55:14Z</time>
      </trkpt>
      <trkpt lat="46.591057" lon="12.870718">
        <ele>1438.740</ele>
        <time>2018-09-09T08:55:15Z</time>
      </trkpt>
      <trkpt lat="46.591058" lon="12.870660">
        <ele>1438.255</ele>
        <time>2018-09-09T08:55:16Z</time>
      </trkpt>
      <trkpt lat="46.591056" lon="12.870601">
        <ele>1438.249</ele>
        <time>2018-09-09T08:55:17Z</time>
      </trkpt>
      <trkpt lat="46.591188" lon="12.870128">
        <ele>1432.041</ele>
        <time>2018-09-09T08:55:26Z</time>
      </trkpt>
      <trkpt lat="46.591241" lon="12.870006">
        <ele>1427.770</ele>
        <time>2018-09-09T08:55:35Z</time>
      </trkpt>
      <trkpt lat="46.591245" lon="12.869972">
        <ele>1427.765</ele>
        <time>2018-09-09T08:55:55Z</time>
      </trkpt>
      <trkpt lat="46.591261" lon="12.869955">
        <ele>1427.771</ele>
        <time>2018-09-09T08:55:56Z</time>
      </trkpt>
      <trkpt lat="46.591283" lon="12.869936">
        <ele>1427.241</ele>
        <time>2018-09-09T08:55:57Z</time>
      </trkpt>
      <trkpt lat="46.591306" lon="12.869906">
        <ele>1426.715</ele>
        <time>2018-09-09T08:55:58Z</time>
      </trkpt>
      <trkpt lat="46.591331" lon="12.869855">
        <ele>1425.708</ele>
        <time>2018-09-09T08:55:59Z</time>
      </trkpt>
      <trkpt lat="46.591350" lon="12.869802">
        <ele>1424.811</ele>
        <time>2018-09-09T08:56:00Z</time>
      </trkpt>
      <trkpt lat="46.591452" lon="12.869490">
        <ele>1420.423</ele>
        <time>2018-09-09T08:56:05Z</time>
      </trkpt>
      <trkpt lat="46.591487" lon="12.869423">
        <ele>1419.511</ele>
        <time>2018-09-09T08:56:06Z</time>
      </trkpt>
      <trkpt lat="46.591532" lon="12.869372">
        <ele>1419.016</ele>
        <time>2018-09-09T08:56:07Z</time>
      </trkpt>
      <trkpt lat="46.591575" lon="12.869341">
        <ele>1418.050</ele>
        <time>2018-09-09T08:56:08Z</time>
      </trkpt>
      <trkpt lat="46.591611" lon="12.869315">
        <ele>1417.122</ele>
        <time>2018-09-09T08:56:09Z</time>
      </trkpt>
      <trkpt lat="46.591634" lon="12.869273">
        <ele>1416.121</ele>
        <time>2018-09-09T08:56:10Z</time>
      </trkpt>
      <trkpt lat="46.591631" lon="12.869224">
        <ele>1415.696</ele>
        <time>2018-09-09T08:56:11Z</time>
      </trkpt>
      <trkpt lat="46.591605" lon="12.869184">
        <ele>1415.222</ele>
        <time>2018-09-09T08:56:12Z</time>
      </trkpt>
      <trkpt lat="46.591561" lon="12.869162">
        <ele>1414.262</ele>
        <time>2018-09-09T08:56:13Z</time>
      </trkpt>
      <trkpt lat="46.591515" lon="12.869149">
        <ele>1413.708</ele>
        <time>2018-09-09T08:56:14Z</time>
      </trkpt>
      <trkpt lat="46.591477" lon="12.869136">
        <ele>1413.208</ele>
        <time>2018-09-09T08:56:15Z</time>
      </trkpt>
      <trkpt lat="46.591452" lon="12.869096">
        <ele>1412.746</ele>
        <time>2018-09-09T08:56:16Z</time>
      </trkpt>
      <trkpt lat="46.591454" lon="12.869041">
        <ele>1412.338</ele>
        <time>2018-09-09T08:56:17Z</time>
      </trkpt>
      <trkpt lat="46.591478" lon="12.869002">
        <ele>1411.816</ele>
        <time>2018-09-09T08:56:18Z</time>
      </trkpt>
      <trkpt lat="46.591515" lon="12.868992">
        <ele>1411.851</ele>
        <time>2018-09-09T08:56:19Z</time>
      </trkpt>
      <trkpt lat="46.591555" lon="12.868989">
        <ele>1411.345</ele>
        <time>2018-09-09T08:56:20Z</time>
      </trkpt>
      <trkpt lat="46.591957" lon="12.868905">
        <ele>1407.037</ele>
        <time>2018-09-09T08:56:28Z</time>
      </trkpt>
      <trkpt lat="46.592007" lon="12.868894">
        <ele>1406.046</ele>
        <time>2018-09-09T08:56:29Z</time>
      </trkpt>
      <trkpt lat="46.592050" lon="12.868868">
        <ele>1405.511</ele>
        <time>2018-09-09T08:56:30Z</time>
      </trkpt>
      <trkpt lat="46.592078" lon="12.868829">
        <ele>1405.194</ele>
        <time>2018-09-09T08:56:31Z</time>
      </trkpt>
      <trkpt lat="46.592081" lon="12.868783">
        <ele>1404.157</ele>
        <time>2018-09-09T08:56:32Z</time>
      </trkpt>
      <trkpt lat="46.592056" lon="12.868740">
        <ele>1403.622</ele>
        <time>2018-09-09T08:56:33Z</time>
      </trkpt>
      <trkpt lat="46.592010" lon="12.868715">
        <ele>1403.608</ele>
        <time>2018-09-09T08:56:34Z</time>
      </trkpt>
      <trkpt lat="46.591949" lon="12.868705">
        <ele>1403.163</ele>
        <time>2018-09-09T08:56:35Z</time>
      </trkpt>
      <trkpt lat="46.591887" lon="12.868686">
        <ele>1402.775</ele>
        <time>2018-09-09T08:56:36Z</time>
      </trkpt>
      <trkpt lat="46.591825" lon="12.868651">
        <ele>1402.793</ele>
        <time>2018-09-09T08:56:37Z</time>
      </trkpt>
      <trkpt lat="46.591768" lon="12.868601">
        <ele>1401.728</ele>
        <time>2018-09-09T08:56:38Z</time>
      </trkpt>
      <trkpt lat="46.591711" lon="12.868549">
        <ele>1401.272</ele>
        <time>2018-09-09T08:56:39Z</time>
      </trkpt>
      <trkpt lat="46.591651" lon="12.868506">
        <ele>1400.724</ele>
        <time>2018-09-09T08:56:40Z</time>
      </trkpt>
      <trkpt lat="46.591596" lon="12.868476">
        <ele>1399.833</ele>
        <time>2018-09-09T08:56:41Z</time>
      </trkpt>
      <trkpt lat="46.591548" lon="12.868450">
        <ele>1398.818</ele>
        <time>2018-09-09T08:56:42Z</time>
      </trkpt>
      <trkpt lat="46.591516" lon="12.868415">
        <ele>1398.366</ele>
        <time>2018-09-09T08:56:43Z</time>
      </trkpt>
      <trkpt lat="46.591503" lon="12.868372">
        <ele>1397.429</ele>
        <time>2018-09-09T08:56:44Z</time>
      </trkpt>
      <trkpt lat="46.591512" lon="12.868333">
        <ele>1396.421</ele>
        <time>2018-09-09T08:56:45Z</time>
      </trkpt>
      <trkpt lat="46.591539" lon="12.868307">
        <ele>1395.408</ele>
        <time>2018-09-09T08:56:46Z</time>
      </trkpt>
      <trkpt lat="46.591580" lon="12.868299">
        <ele>1395.070</ele>
        <time>2018-09-09T08:56:47Z</time>
      </trkpt>
      <trkpt lat="46.591625" lon="12.868298">
        <ele>1394.022</ele>
        <time>2018-09-09T08:56:48Z</time>
      </trkpt>
      <trkpt lat="46.591893" lon="12.868259">
        <ele>1388.290</ele>
        <time>2018-09-09T08:56:55Z</time>
      </trkpt>
      <trkpt lat="46.591932" lon="12.868246">
        <ele>1388.255</ele>
        <time>2018-09-09T08:56:56Z</time>
      </trkpt>
      <trkpt lat="46.591975" lon="12.868237">
        <ele>1387.339</ele>
        <time>2018-09-09T08:56:57Z</time>
      </trkpt>
      <trkpt lat="46.592020" lon="12.868227">
        <ele>1386.861</ele>
        <time>2018-09-09T08:56:58Z</time>
      </trkpt>
      <trkpt lat="46.592063" lon="12.868216">
        <ele>1386.370</ele>
        <time>2018-09-09T08:56:59Z</time>
      </trkpt>
      <trkpt lat="46.592283" lon="12.868195">
        <ele>1382.095</ele>
        <time>2018-09-09T08:57:06Z</time>
      </trkpt>
      <trkpt lat="46.592290" lon="12.868163">
        <ele>1381.541</ele>
        <time>2018-09-09T08:57:07Z</time>
      </trkpt>
      <trkpt lat="46.592282" lon="12.868129">
        <ele>1381.581</ele>
        <time>2018-09-09T08:57:08Z</time>
      </trkpt>
      <trkpt lat="46.592266" lon="12.868098">
        <ele>1381.009</ele>
        <time>2018-09-09T08:57:09Z</time>
      </trkpt>
      <trkpt lat="46.592243" lon="12.868074">
        <ele>1380.508</ele>
        <time>2018-09-09T08:57:10Z</time>
      </trkpt>
      <trkpt lat="46.592218" lon="12.868053">
        <ele>1380.138</ele>
        <time>2018-09-09T08:57:11Z</time>
      </trkpt>
      <trkpt lat="46.592191" lon="12.868029">
        <ele>1380.150</ele>
        <time>2018-09-09T08:57:12Z</time>
      </trkpt>
      <trkpt lat="46.592161" lon="12.867998">
        <ele>1379.138</ele>
        <time>2018-09-09T08:57:13Z</time>
      </trkpt>
      <trkpt lat="46.592130" lon="12.867961">
        <ele>1378.633</ele>
        <time>2018-09-09T08:57:14Z</time>
      </trkpt>
      <trkpt lat="46.591752" lon="12.867606">
        <ele>1370.037</ele>
        <time>2018-09-09T08:57:26Z</time>
      </trkpt>
      <trkpt lat="46.591515" lon="12.867371">
        <ele>1363.759</ele>
        <time>2018-09-09T08:57:37Z</time>
      </trkpt>
      <trkpt lat="46.591452" lon="12.867227">
        <ele>1361.868</ele>
        <time>2018-09-09T08:57:46Z</time>
      </trkpt>
      <trkpt lat="46.591448" lon="12.867206">
        <ele>1360.423</ele>
        <time>2018-09-09T08:57:55Z</time>
      </trkpt>
      <trkpt lat="46.591443" lon="12.867223">
        <ele>1361.831</ele>
        <time>2018-09-09T08:58:12Z</time>
      </trkpt>
      <trkpt lat="46.591373" lon="12.867082">
        <ele>1361.361</ele>
        <time>2018-09-09T08:58:26Z</time>
      </trkpt>
      <trkpt lat="46.591329" lon="12.866969">
        <ele>1360.807</ele>
        <time>2018-09-09T08:58:28Z</time>
      </trkpt>
      <trkpt lat="46.591156" lon="12.866236">
        <ele>1354.608</ele>
        <time>2018-09-09T08:58:36Z</time>
      </trkpt>
      <trkpt lat="46.591023" lon="12.864927">
        <ele>1342.637</ele>
        <time>2018-09-09T08:58:49Z</time>
      </trkpt>
      <trkpt lat="46.590964" lon="12.863833">
        <ele>1336.379</ele>
        <time>2018-09-09T08:59:00Z</time>
      </trkpt>
      <trkpt lat="46.590977" lon="12.863740">
        <ele>1335.817</ele>
        <time>2018-09-09T08:59:01Z</time>
      </trkpt>
      <trkpt lat="46.590993" lon="12.863650">
        <ele>1334.952</ele>
        <time>2018-09-09T08:59:02Z</time>
      </trkpt>
      <trkpt lat="46.591012" lon="12.863565">
        <ele>1333.936</ele>
        <time>2018-09-09T08:59:03Z</time>
      </trkpt>
      <trkpt lat="46.591037" lon="12.863478">
        <ele>1333.438</ele>
        <time>2018-09-09T08:59:04Z</time>
      </trkpt>
      <trkpt lat="46.591218" lon="12.862197">
        <ele>1320.067</ele>
        <time>2018-09-09T08:59:17Z</time>
      </trkpt>
      <trkpt lat="46.591360" lon="12.860999">
        <ele>1308.492</ele>
        <time>2018-09-09T08:59:30Z</time>
      </trkpt>
      <trkpt lat="46.591487" lon="12.860254">
        <ele>1301.712</ele>
        <time>2018-09-09T08:59:38Z</time>
      </trkpt>
      <trkpt lat="46.591561" lon="12.859651">
        <ele>1297.932</ele>
        <time>2018-09-09T08:59:46Z</time>
      </trkpt>
      <trkpt lat="46.591556" lon="12.859590">
        <ele>1297.405</ele>
        <time>2018-09-09T08:59:47Z</time>
      </trkpt>
      <trkpt lat="46.591544" lon="12.859525">
        <ele>1296.908</ele>
        <time>2018-09-09T08:59:48Z</time>
      </trkpt>
      <trkpt lat="46.591478" lon="12.859320">
        <ele>1295.055</ele>
        <time>2018-09-09T08:59:51Z</time>
      </trkpt>
      <trkpt lat="46.591428" lon="12.859190">
        <ele>1292.657</ele>
        <time>2018-09-09T08:59:58Z</time>
      </trkpt>
      <trkpt lat="46.591401" lon="12.859131">
        <ele>1292.145</ele>
        <time>2018-09-09T09:00:01Z</time>
      </trkpt>
      <trkpt lat="46.591169" lon="12.858561">
        <ele>1287.870</ele>
        <time>2018-09-09T09:00:12Z</time>
      </trkpt>
      <trkpt lat="46.590648" lon="12.857585">
        <ele>1283.054</ele>
        <time>2018-09-09T09:00:24Z</time>
      </trkpt>
      <trkpt lat="46.590236" lon="12.856753">
        <ele>1279.646</ele>
        <time>2018-09-09T09:00:32Z</time>
      </trkpt>
      <trkpt lat="46.590074" lon="12.856226">
        <ele>1277.255</ele>
        <time>2018-09-09T09:00:37Z</time>
      </trkpt>
      <trkpt lat="46.590067" lon="12.856110">
        <ele>1277.250</ele>
        <time>2018-09-09T09:00:38Z</time>
      </trkpt>
      <trkpt lat="46.590050" lon="12.855881">
        <ele>1276.294</ele>
        <time>2018-09-09T09:00:40Z</time>
      </trkpt>
      <trkpt lat="46.589841" lon="12.854718">
        <ele>1272.457</ele>
        <time>2018-09-09T09:00:49Z</time>
      </trkpt>
      <trkpt lat="46.589809" lon="12.854592">
        <ele>1271.922</ele>
        <time>2018-09-09T09:00:50Z</time>
      </trkpt>
      <trkpt lat="46.589769" lon="12.854474">
        <ele>1271.408</ele>
        <time>2018-09-09T09:00:51Z</time>
      </trkpt>
      <trkpt lat="46.589513" lon="12.853809">
        <ele>1267.683</ele>
        <time>2018-09-09T09:00:57Z</time>
      </trkpt>
      <trkpt lat="46.589490" lon="12.853690">
        <ele>1266.695</ele>
        <time>2018-09-09T09:00:58Z</time>
      </trkpt>
      <trkpt lat="46.589480" lon="12.853575">
        <ele>1266.183</ele>
        <time>2018-09-09T09:00:59Z</time>
      </trkpt>
      <trkpt lat="46.589479" lon="12.853465">
        <ele>1265.258</ele>
        <time>2018-09-09T09:01:00Z</time>
      </trkpt>
      <trkpt lat="46.589486" lon="12.853364">
        <ele>1264.262</ele>
        <time>2018-09-09T09:01:01Z</time>
      </trkpt>
      <trkpt lat="46.589498" lon="12.853259">
        <ele>1263.754</ele>
        <time>2018-09-09T09:01:02Z</time>
      </trkpt>
      <trkpt lat="46.589526" lon="12.853034">
        <ele>1261.873</ele>
        <time>2018-09-09T09:01:04Z</time>
      </trkpt>
      <trkpt lat="46.589545" lon="12.852924">
        <ele>1261.388</ele>
        <time>2018-09-09T09:01:05Z</time>
      </trkpt>
      <trkpt lat="46.589542" lon="12.852806">
        <ele>1261.359</ele>
        <time>2018-09-09T09:01:06Z</time>
      </trkpt>
      <trkpt lat="46.589517" lon="12.852696">
        <ele>1260.903</ele>
        <time>2018-09-09T09:01:07Z</time>
      </trkpt>
      <trkpt lat="46.589476" lon="12.852593">
        <ele>1260.423</ele>
        <time>2018-09-09T09:01:08Z</time>
      </trkpt>
      <trkpt lat="46.589428" lon="12.852478">
        <ele>1259.408</ele>
        <time>2018-09-09T09:01:09Z</time>
      </trkpt>
      <trkpt lat="46.589381" lon="12.852350">
        <ele>1258.049</ele>
        <time>2018-09-09T09:01:10Z</time>
      </trkpt>
      <trkpt lat="46.589306" lon="12.852071">
        <ele>1256.521</ele>
        <time>2018-09-09T09:01:12Z</time>
      </trkpt>
      <trkpt lat="46.589222" lon="12.851602">
        <ele>1253.789</ele>
        <time>2018-09-09T09:01:15Z</time>
      </trkpt>
      <trkpt lat="46.589184" lon="12.851461">
        <ele>1252.794</ele>
        <time>2018-09-09T09:01:16Z</time>
      </trkpt>
      <trkpt lat="46.589140" lon="12.851340">
        <ele>1251.798</ele>
        <time>2018-09-09T09:01:17Z</time>
      </trkpt>
      <trkpt lat="46.588888" lon="12.850794">
        <ele>1248.460</ele>
        <time>2018-09-09T09:01:23Z</time>
      </trkpt>
      <trkpt lat="46.588843" lon="12.850729">
        <ele>1247.999</ele>
        <time>2018-09-09T09:01:24Z</time>
      </trkpt>
      <trkpt lat="46.588663" lon="12.850464">
        <ele>1246.034</ele>
        <time>2018-09-09T09:01:28Z</time>
      </trkpt>
      <trkpt lat="46.588638" lon="12.850395">
        <ele>1245.575</ele>
        <time>2018-09-09T09:01:29Z</time>
      </trkpt>
      <trkpt lat="46.588628" lon="12.850317">
        <ele>1245.028</ele>
        <time>2018-09-09T09:01:30Z</time>
      </trkpt>
      <trkpt lat="46.588630" lon="12.850231">
        <ele>1245.020</ele>
        <time>2018-09-09T09:01:31Z</time>
      </trkpt>
      <trkpt lat="46.588639" lon="12.850144">
        <ele>1245.008</ele>
        <time>2018-09-09T09:01:32Z</time>
      </trkpt>
      <trkpt lat="46.588650" lon="12.850061">
        <ele>1244.591</ele>
        <time>2018-09-09T09:01:33Z</time>
      </trkpt>
      <trkpt lat="46.588686" lon="12.849441">
        <ele>1244.083</ele>
        <time>2018-09-09T09:01:44Z</time>
      </trkpt>
      <trkpt lat="46.588667" lon="12.848981">
        <ele>1245.071</ele>
        <time>2018-09-09T09:01:57Z</time>
      </trkpt>
      <trkpt lat="46.588402" lon="12.848382">
        <ele>1245.016</ele>
        <time>2018-09-09T09:02:12Z</time>
      </trkpt>
      <trkpt lat="46.587985" lon="12.847760">
        <ele>1244.070</ele>
        <time>2018-09-09T09:02:28Z</time>
      </trkpt>
      <trkpt lat="46.587669" lon="12.847148">
        <ele>1243.142</ele>
        <time>2018-09-09T09:02:42Z</time>
      </trkpt>
      <trkpt lat="46.587649" lon="12.847093">
        <ele>1242.611</ele>
        <time>2018-09-09T09:02:43Z</time>
      </trkpt>
      <trkpt lat="46.587622" lon="12.847044">
        <ele>1242.626</ele>
        <time>2018-09-09T09:02:44Z</time>
      </trkpt>
      <trkpt lat="46.587587" lon="12.847007">
        <ele>1242.168</ele>
        <time>2018-09-09T09:02:45Z</time>
      </trkpt>
      <trkpt lat="46.587511" lon="12.846944">
        <ele>1242.142</ele>
        <time>2018-09-09T09:02:47Z</time>
      </trkpt>
      <trkpt lat="46.587471" lon="12.846921">
        <ele>1241.626</ele>
        <time>2018-09-09T09:02:48Z</time>
      </trkpt>
      <trkpt lat="46.587429" lon="12.846906">
        <ele>1241.608</ele>
        <time>2018-09-09T09:02:49Z</time>
      </trkpt>
      <trkpt lat="46.587390" lon="12.846884">
        <ele>1241.280</ele>
        <time>2018-09-09T09:02:50Z</time>
      </trkpt>
      <trkpt lat="46.587351" lon="12.846859">
        <ele>1241.212</ele>
        <time>2018-09-09T09:02:51Z</time>
      </trkpt>
      <trkpt lat="46.587314" lon="12.846831">
        <ele>1241.290</ele>
        <time>2018-09-09T09:02:52Z</time>
      </trkpt>
      <trkpt lat="46.587282" lon="12.846794">
        <ele>1241.265</ele>
        <time>2018-09-09T09:02:53Z</time>
      </trkpt>
      <trkpt lat="46.587253" lon="12.846751">
        <ele>1241.289</ele>
        <time>2018-09-09T09:02:54Z</time>
      </trkpt>
      <trkpt lat="46.587230" lon="12.846709">
        <ele>1240.771</ele>
        <time>2018-09-09T09:02:55Z</time>
      </trkpt>
      <trkpt lat="46.587214" lon="12.846665">
        <ele>1240.780</ele>
        <time>2018-09-09T09:02:56Z</time>
      </trkpt>
      <trkpt lat="46.587202" lon="12.846624">
        <ele>1240.725</ele>
        <time>2018-09-09T09:02:57Z</time>
      </trkpt>
      <trkpt lat="46.587121" lon="12.846187">
        <ele>1246.038</ele>
        <time>2018-09-09T09:03:11Z</time>
      </trkpt>
      <trkpt lat="46.587087" lon="12.845957">
        <ele>1246.470</ele>
        <time>2018-09-09T09:03:19Z</time>
      </trkpt>
      <trkpt lat="46.587087" lon="12.845929">
        <ele>1246.417</ele>
        <time>2018-09-09T09:03:20Z</time>
      </trkpt>
      <trkpt lat="46.587088" lon="12.845903">
        <ele>1246.408</ele>
        <time>2018-09-09T09:03:21Z</time>
      </trkpt>
      <trkpt lat="46.586960" lon="12.845516">
        <ele>1246.977</ele>
        <time>2018-09-09T09:03:36Z</time>
      </trkpt>
      <trkpt lat="46.586837" lon="12.845249">
        <ele>1245.039</ele>
        <time>2018-09-09T09:03:50Z</time>
      </trkpt>
      <trkpt lat="46.586820" lon="12.845252">
        <ele>1239.747</ele>
        <time>2018-09-09T09:04:09Z</time>
      </trkpt>
      <trkpt lat="46.586813" lon="12.845244">
        <ele>1237.862</ele>
        <time>2018-09-09T09:04:38Z</time>
      </trkpt>
      <trkpt lat="46.586839" lon="12.845251">
        <ele>1239.766</ele>
        <time>2018-09-09T09:05:02Z</time>
      </trkpt>
      <trkpt lat="46.586729" lon="12.845132">
        <ele>1242.138</ele>
        <time>2018-09-09T09:05:14Z</time>
      </trkpt>
      <trkpt lat="46.586407" lon="12.844780">
        <ele>1244.017</ele>
        <time>2018-09-09T09:05:28Z</time>
      </trkpt>
      <trkpt lat="46.586181" lon="12.844290">
        <ele>1243.622</ele>
        <time>2018-09-09T09:05:42Z</time>
      </trkpt>
      <trkpt lat="46.586149" lon="12.843847">
        <ele>1249.348</ele>
        <time>2018-09-09T09:05:52Z</time>
      </trkpt>
      <trkpt lat="46.586366" lon="12.843317">
        <ele>1249.361</ele>
        <time>2018-09-09T09:06:03Z</time>
      </trkpt>
      <trkpt lat="46.586358" lon="12.843256">
        <ele>1249.817</ele>
        <time>2018-09-09T09:06:04Z</time>
      </trkpt>
      <trkpt lat="46.586347" lon="12.843198">
        <ele>1249.808</ele>
        <time>2018-09-09T09:06:05Z</time>
      </trkpt>
      <trkpt lat="46.586328" lon="12.843144">
        <ele>1249.828</ele>
        <time>2018-09-09T09:06:06Z</time>
      </trkpt>
      <trkpt lat="46.586303" lon="12.843097">
        <ele>1249.890</ele>
        <time>2018-09-09T09:06:07Z</time>
      </trkpt>
      <trkpt lat="46.586279" lon="12.843053">
        <ele>1249.888</ele>
        <time>2018-09-09T09:06:08Z</time>
      </trkpt>
      <trkpt lat="46.585855" lon="12.842569">
        <ele>1246.953</ele>
        <time>2018-09-09T09:06:21Z</time>
      </trkpt>
      <trkpt lat="46.585208" lon="12.841873">
        <ele>1238.317</ele>
        <time>2018-09-09T09:06:31Z</time>
      </trkpt>
      <trkpt lat="46.584977" lon="12.841554">
        <ele>1236.369</ele>
        <time>2018-09-09T09:06:35Z</time>
      </trkpt>
      <trkpt lat="46.584937" lon="12.841482">
        <ele>1235.448</ele>
        <time>2018-09-09T09:06:36Z</time>
      </trkpt>
      <trkpt lat="46.584773" lon="12.841242">
        <ele>1233.573</ele>
        <time>2018-09-09T09:06:39Z</time>
      </trkpt>
      <trkpt lat="46.584726" lon="12.841147">
        <ele>1233.037</ele>
        <time>2018-09-09T09:06:40Z</time>
      </trkpt>
      <trkpt lat="46.584696" lon="12.841044">
        <ele>1231.549</ele>
        <time>2018-09-09T09:06:41Z</time>
      </trkpt>
      <trkpt lat="46.584682" lon="12.840935">
        <ele>1230.613</ele>
        <time>2018-09-09T09:06:42Z</time>
      </trkpt>
      <trkpt lat="46.584686" lon="12.840816">
        <ele>1229.108</ele>
        <time>2018-09-09T09:06:43Z</time>
      </trkpt>
      <trkpt lat="46.584707" lon="12.840705">
        <ele>1227.777</ele>
        <time>2018-09-09T09:06:44Z</time>
      </trkpt>
      <trkpt lat="46.584730" lon="12.840580">
        <ele>1226.749</ele>
        <time>2018-09-09T09:06:45Z</time>
      </trkpt>
      <trkpt lat="46.584732" lon="12.840439">
        <ele>1225.367</ele>
        <time>2018-09-09T09:06:46Z</time>
      </trkpt>
      <trkpt lat="46.584709" lon="12.840317">
        <ele>1224.382</ele>
        <time>2018-09-09T09:06:47Z</time>
      </trkpt>
      <trkpt lat="46.584662" lon="12.840194">
        <ele>1222.996</ele>
        <time>2018-09-09T09:06:48Z</time>
      </trkpt>
      <trkpt lat="46.584612" lon="12.840087">
        <ele>1221.968</ele>
        <time>2018-09-09T09:06:49Z</time>
      </trkpt>
      <trkpt lat="46.584524" lon="12.839861">
        <ele>1219.537</ele>
        <time>2018-09-09T09:06:51Z</time>
      </trkpt>
      <trkpt lat="46.584491" lon="12.839730">
        <ele>1218.162</ele>
        <time>2018-09-09T09:06:52Z</time>
      </trkpt>
      <trkpt lat="46.584460" lon="12.839611">
        <ele>1216.657</ele>
        <time>2018-09-09T09:06:53Z</time>
      </trkpt>
      <trkpt lat="46.584414" lon="12.839483">
        <ele>1215.200</ele>
        <time>2018-09-09T09:06:54Z</time>
      </trkpt>
      <trkpt lat="46.584351" lon="12.839353">
        <ele>1213.820</ele>
        <time>2018-09-09T09:06:55Z</time>
      </trkpt>
      <trkpt lat="46.584273" lon="12.839225">
        <ele>1212.308</ele>
        <time>2018-09-09T09:06:56Z</time>
      </trkpt>
      <trkpt lat="46.584184" lon="12.839103">
        <ele>1211.499</ele>
        <time>2018-09-09T09:06:57Z</time>
      </trkpt>
      <trkpt lat="46.584118" lon="12.839027">
        <ele>1210.481</ele>
        <time>2018-09-09T09:06:58Z</time>
      </trkpt>
      <trkpt lat="46.584033" lon="12.838965">
        <ele>1209.979</ele>
        <time>2018-09-09T09:06:59Z</time>
      </trkpt>
      <trkpt lat="46.583953" lon="12.838952">
        <ele>1209.494</ele>
        <time>2018-09-09T09:07:00Z</time>
      </trkpt>
      <trkpt lat="46.583875" lon="12.838976">
        <ele>1209.078</ele>
        <time>2018-09-09T09:07:01Z</time>
      </trkpt>
      <trkpt lat="46.583811" lon="12.839015">
        <ele>1208.530</ele>
        <time>2018-09-09T09:07:02Z</time>
      </trkpt>
      <trkpt lat="46.583753" lon="12.839047">
        <ele>1208.559</ele>
        <time>2018-09-09T09:07:03Z</time>
      </trkpt>
      <trkpt lat="46.583579" lon="12.839126">
        <ele>1208.054</ele>
        <time>2018-09-09T09:07:06Z</time>
      </trkpt>
      <trkpt lat="46.583532" lon="12.839121">
        <ele>1208.011</ele>
        <time>2018-09-09T09:07:07Z</time>
      </trkpt>
      <trkpt lat="46.583487" lon="12.839090">
        <ele>1208.521</ele>
        <time>2018-09-09T09:07:08Z</time>
      </trkpt>
      <trkpt lat="46.583454" lon="12.839052">
        <ele>1208.003</ele>
        <time>2018-09-09T09:07:09Z</time>
      </trkpt>
      <trkpt lat="46.583417" lon="12.839006">
        <ele>1208.008</ele>
        <time>2018-09-09T09:07:10Z</time>
      </trkpt>
      <trkpt lat="46.583381" lon="12.838953">
        <ele>1207.595</ele>
        <time>2018-09-09T09:07:11Z</time>
      </trkpt>
      <trkpt lat="46.582792" lon="12.838168">
        <ele>1201.747</ele>
        <time>2018-09-09T09:07:22Z</time>
      </trkpt>
      <trkpt lat="46.582501" lon="12.837768">
        <ele>1197.425</ele>
        <time>2018-09-09T09:07:27Z</time>
      </trkpt>
      <trkpt lat="46.582479" lon="12.837680">
        <ele>1196.520</ele>
        <time>2018-09-09T09:07:28Z</time>
      </trkpt>
      <trkpt lat="46.582479" lon="12.837600">
        <ele>1195.094</ele>
        <time>2018-09-09T09:07:29Z</time>
      </trkpt>
      <trkpt lat="46.582495" lon="12.837540">
        <ele>1194.576</ele>
        <time>2018-09-09T09:07:30Z</time>
      </trkpt>
      <trkpt lat="46.582515" lon="12.837506">
        <ele>1194.535</ele>
        <time>2018-09-09T09:07:31Z</time>
      </trkpt>
      <trkpt lat="46.582536" lon="12.837480">
        <ele>1194.510</ele>
        <time>2018-09-09T09:07:32Z</time>
      </trkpt>
      <trkpt lat="46.582553" lon="12.837462">
        <ele>1194.511</ele>
        <time>2018-09-09T09:07:33Z</time>
      </trkpt>
      <trkpt lat="46.582564" lon="12.837447">
        <ele>1195.021</ele>
        <time>2018-09-09T09:07:34Z</time>
      </trkpt>
      <trkpt lat="46.582572" lon="12.837433">
        <ele>1195.003</ele>
        <time>2018-09-09T09:07:35Z</time>
      </trkpt>
      <trkpt lat="46.582583" lon="12.837418">
        <ele>1195.008</ele>
        <time>2018-09-09T09:07:36Z</time>
      </trkpt>
      <trkpt lat="46.582599" lon="12.837404">
        <ele>1195.035</ele>
        <time>2018-09-09T09:07:37Z</time>
      </trkpt>
      <trkpt lat="46.582840" lon="12.837286">
        <ele>1193.177</ele>
        <time>2018-09-09T09:07:44Z</time>
      </trkpt>
      <trkpt lat="46.582883" lon="12.837249">
        <ele>1192.645</ele>
        <time>2018-09-09T09:07:45Z</time>
      </trkpt>
      <trkpt lat="46.582919" lon="12.837199">
        <ele>1192.130</ele>
        <time>2018-09-09T09:07:46Z</time>
      </trkpt>
      <trkpt lat="46.582946" lon="12.837132">
        <ele>1192.124</ele>
        <time>2018-09-09T09:07:47Z</time>
      </trkpt>
      <trkpt lat="46.582964" lon="12.837056">
        <ele>1191.636</ele>
        <time>2018-09-09T09:07:48Z</time>
      </trkpt>
      <trkpt lat="46.582976" lon="12.836970">
        <ele>1191.215</ele>
        <time>2018-09-09T09:07:49Z</time>
      </trkpt>
      <trkpt lat="46.582982" lon="12.836877">
        <ele>1191.250</ele>
        <time>2018-09-09T09:07:50Z</time>
      </trkpt>
      <trkpt lat="46.582978" lon="12.836776">
        <ele>1190.792</ele>
        <time>2018-09-09T09:07:51Z</time>
      </trkpt>
      <trkpt lat="46.582964" lon="12.836673">
        <ele>1190.273</ele>
        <time>2018-09-09T09:07:52Z</time>
      </trkpt>
      <trkpt lat="46.582945" lon="12.836567">
        <ele>1189.720</ele>
        <time>2018-09-09T09:07:53Z</time>
      </trkpt>
      <trkpt lat="46.582921" lon="12.836465">
        <ele>1189.208</ele>
        <time>2018-09-09T09:07:54Z</time>
      </trkpt>
      <trkpt lat="46.582890" lon="12.836362">
        <ele>1189.243</ele>
        <time>2018-09-09T09:07:55Z</time>
      </trkpt>
      <trkpt lat="46.582278" lon="12.834770">
        <ele>1183.585</ele>
        <time>2018-09-09T09:08:10Z</time>
      </trkpt>
      <trkpt lat="46.582149" lon="12.834456">
        <ele>1181.623</ele>
        <time>2018-09-09T09:08:13Z</time>
      </trkpt>
      <trkpt lat="46.582126" lon="12.834338">
        <ele>1181.158</ele>
        <time>2018-09-09T09:08:14Z</time>
      </trkpt>
      <trkpt lat="46.582114" lon="12.834218">
        <ele>1180.642</ele>
        <time>2018-09-09T09:08:15Z</time>
      </trkpt>
      <trkpt lat="46.582085" lon="12.833972">
        <ele>1179.134</ele>
        <time>2018-09-09T09:08:17Z</time>
      </trkpt>
      <trkpt lat="46.581983" lon="12.833367">
        <ele>1176.743</ele>
        <time>2018-09-09T09:08:22Z</time>
      </trkpt>
      <trkpt lat="46.581977" lon="12.833243">
        <ele>1176.318</ele>
        <time>2018-09-09T09:08:23Z</time>
      </trkpt>
      <trkpt lat="46.581972" lon="12.831466">
        <ele>1170.574</ele>
        <time>2018-09-09T09:08:37Z</time>
      </trkpt>
      <trkpt lat="46.582029" lon="12.830954">
        <ele>1168.656</ele>
        <time>2018-09-09T09:08:41Z</time>
      </trkpt>
      <trkpt lat="46.582021" lon="12.830832">
        <ele>1167.621</ele>
        <time>2018-09-09T09:08:42Z</time>
      </trkpt>
      <trkpt lat="46.582004" lon="12.830725">
        <ele>1167.608</ele>
        <time>2018-09-09T09:08:43Z</time>
      </trkpt>
      <trkpt lat="46.581831" lon="12.829739">
        <ele>1165.721</ele>
        <time>2018-09-09T09:08:54Z</time>
      </trkpt>
      <trkpt lat="46.581799" lon="12.829556">
        <ele>1166.223</ele>
        <time>2018-09-09T09:08:57Z</time>
      </trkpt>
      <trkpt lat="46.581784" lon="12.829505">
        <ele>1166.221</ele>
        <time>2018-09-09T09:08:58Z</time>
      </trkpt>
      <trkpt lat="46.581768" lon="12.829460">
        <ele>1166.786</ele>
        <time>2018-09-09T09:08:59Z</time>
      </trkpt>
      <trkpt lat="46.581683" lon="12.828870">
        <ele>1169.160</ele>
        <time>2018-09-09T09:09:12Z</time>
      </trkpt>
      <trkpt lat="46.581670" lon="12.828188">
        <ele>1171.582</ele>
        <time>2018-09-09T09:09:28Z</time>
      </trkpt>
      <trkpt lat="46.581578" lon="12.827536">
        <ele>1171.071</ele>
        <time>2018-09-09T09:09:44Z</time>
      </trkpt>
      <trkpt lat="46.581268" lon="12.827120">
        <ele>1173.986</ele>
        <time>2018-09-09T09:09:58Z</time>
      </trkpt>
      <trkpt lat="46.581014" lon="12.826697">
        <ele>1175.818</ele>
        <time>2018-09-09T09:10:12Z</time>
      </trkpt>
      <trkpt lat="46.581329" lon="12.826321">
        <ele>1175.398</ele>
        <time>2018-09-09T09:10:22Z</time>
      </trkpt>
      <trkpt lat="46.581367" lon="12.826287">
        <ele>1175.317</ele>
        <time>2018-09-09T09:10:23Z</time>
      </trkpt>
      <trkpt lat="46.581512" lon="12.826101">
        <ele>1174.308</ele>
        <time>2018-09-09T09:10:27Z</time>
      </trkpt>
      <trkpt lat="46.581545" lon="12.826046">
        <ele>1174.345</ele>
        <time>2018-09-09T09:10:28Z</time>
      </trkpt>
      <trkpt lat="46.581735" lon="12.825650">
        <ele>1175.317</ele>
        <time>2018-09-09T09:10:35Z</time>
      </trkpt>
      <trkpt lat="46.581897" lon="12.825278">
        <ele>1175.375</ele>
        <time>2018-09-09T09:10:42Z</time>
      </trkpt>
      <trkpt lat="46.581930" lon="12.825234">
        <ele>1174.840</ele>
        <time>2018-09-09T09:10:43Z</time>
      </trkpt>
      <trkpt lat="46.582156" lon="12.824979">
        <ele>1176.724</ele>
        <time>2018-09-09T09:10:50Z</time>
      </trkpt>
      <trkpt lat="46.582176" lon="12.824921">
        <ele>1177.266</ele>
        <time>2018-09-09T09:10:51Z</time>
      </trkpt>
      <trkpt lat="46.582193" lon="12.824865">
        <ele>1178.245</ele>
        <time>2018-09-09T09:10:52Z</time>
      </trkpt>
      <trkpt lat="46.582205" lon="12.824811">
        <ele>1178.210</ele>
        <time>2018-09-09T09:10:53Z</time>
      </trkpt>
      <trkpt lat="46.582206" lon="12.824752">
        <ele>1178.712</ele>
        <time>2018-09-09T09:10:54Z</time>
      </trkpt>
      <trkpt lat="46.582197" lon="12.824692">
        <ele>1179.132</ele>
        <time>2018-09-09T09:10:55Z</time>
      </trkpt>
      <trkpt lat="46.582179" lon="12.824645">
        <ele>1179.105</ele>
        <time>2018-09-09T09:10:56Z</time>
      </trkpt>
      <trkpt lat="46.582155" lon="12.824607">
        <ele>1179.108</ele>
        <time>2018-09-09T09:10:57Z</time>
      </trkpt>
      <trkpt lat="46.582125" lon="12.824577">
        <ele>1179.665</ele>
        <time>2018-09-09T09:10:58Z</time>
      </trkpt>
      <trkpt lat="46.582092" lon="12.824552">
        <ele>1179.647</ele>
        <time>2018-09-09T09:10:59Z</time>
      </trkpt>
      <trkpt lat="46.582055" lon="12.824530">
        <ele>1179.675</ele>
        <time>2018-09-09T09:11:00Z</time>
      </trkpt>
      <trkpt lat="46.582018" lon="12.824512">
        <ele>1179.610</ele>
        <time>2018-09-09T09:11:01Z</time>
      </trkpt>
      <trkpt lat="46.581980" lon="12.824493">
        <ele>1179.644</ele>
        <time>2018-09-09T09:11:02Z</time>
      </trkpt>
      <trkpt lat="46.581940" lon="12.824472">
        <ele>1179.626</ele>
        <time>2018-09-09T09:11:03Z</time>
      </trkpt>
      <trkpt lat="46.581321" lon="12.824155">
        <ele>1179.125</ele>
        <time>2018-09-09T09:11:18Z</time>
      </trkpt>
      <trkpt lat="46.581283" lon="12.824114">
        <ele>1178.720</ele>
        <time>2018-09-09T09:11:19Z</time>
      </trkpt>
      <trkpt lat="46.581250" lon="12.824058">
        <ele>1178.738</ele>
        <time>2018-09-09T09:11:20Z</time>
      </trkpt>
      <trkpt lat="46.581232" lon="12.823984">
        <ele>1178.270</ele>
        <time>2018-09-09T09:11:21Z</time>
      </trkpt>
      <trkpt lat="46.581232" lon="12.823908">
        <ele>1177.717</ele>
        <time>2018-09-09T09:11:22Z</time>
      </trkpt>
      <trkpt lat="46.581249" lon="12.823836">
        <ele>1177.708</ele>
        <time>2018-09-09T09:11:23Z</time>
      </trkpt>
      <trkpt lat="46.581285" lon="12.823773">
        <ele>1177.257</ele>
        <time>2018-09-09T09:11:24Z</time>
      </trkpt>
      <trkpt lat="46.581332" lon="12.823723">
        <ele>1176.349</ele>
        <time>2018-09-09T09:11:25Z</time>
      </trkpt>
      <trkpt lat="46.581384" lon="12.823673">
        <ele>1175.897</ele>
        <time>2018-09-09T09:11:26Z</time>
      </trkpt>
      <trkpt lat="46.581603" lon="12.823435">
        <ele>1173.452</ele>
        <time>2018-09-09T09:11:30Z</time>
      </trkpt>
      <trkpt lat="46.581658" lon="12.823354">
        <ele>1172.926</ele>
        <time>2018-09-09T09:11:31Z</time>
      </trkpt>
      <trkpt lat="46.581884" lon="12.823026">
        <ele>1169.568</ele>
        <time>2018-09-09T09:11:35Z</time>
      </trkpt>
      <trkpt lat="46.582143" lon="12.822726">
        <ele>1167.147</ele>
        <time>2018-09-09T09:11:39Z</time>
      </trkpt>
      <trkpt lat="46.582199" lon="12.822637">
        <ele>1167.182</ele>
        <time>2018-09-09T09:11:40Z</time>
      </trkpt>
      <trkpt lat="46.582245" lon="12.822542">
        <ele>1166.792</ele>
        <time>2018-09-09T09:11:41Z</time>
      </trkpt>
      <trkpt lat="46.582280" lon="12.822434">
        <ele>1166.273</ele>
        <time>2018-09-09T09:11:42Z</time>
      </trkpt>
      <trkpt lat="46.582292" lon="12.822309">
        <ele>1166.220</ele>
        <time>2018-09-09T09:11:43Z</time>
      </trkpt>
      <trkpt lat="46.582284" lon="12.822187">
        <ele>1165.708</ele>
        <time>2018-09-09T09:11:44Z</time>
      </trkpt>
      <trkpt lat="46.582254" lon="12.822075">
        <ele>1165.243</ele>
        <time>2018-09-09T09:11:45Z</time>
      </trkpt>
      <trkpt lat="46.582208" lon="12.821978">
        <ele>1165.215</ele>
        <time>2018-09-09T09:11:46Z</time>
      </trkpt>
      <trkpt lat="46.582154" lon="12.821888">
        <ele>1164.743</ele>
        <time>2018-09-09T09:11:47Z</time>
      </trkpt>
      <trkpt lat="46.582098" lon="12.821806">
        <ele>1164.788</ele>
        <time>2018-09-09T09:11:48Z</time>
      </trkpt>
      <trkpt lat="46.582047" lon="12.821719">
        <ele>1164.212</ele>
        <time>2018-09-09T09:11:49Z</time>
      </trkpt>
      <trkpt lat="46.582003" lon="12.821624">
        <ele>1163.864</ele>
        <time>2018-09-09T09:11:50Z</time>
      </trkpt>
      <trkpt lat="46.581971" lon="12.821520">
        <ele>1163.813</ele>
        <time>2018-09-09T09:11:51Z</time>
      </trkpt>
      <trkpt lat="46.581951" lon="12.821410">
        <ele>1163.348</ele>
        <time>2018-09-09T09:11:52Z</time>
      </trkpt>
      <trkpt lat="46.581948" lon="12.821297">
        <ele>1162.866</ele>
        <time>2018-09-09T09:11:53Z</time>
      </trkpt>
      <trkpt lat="46.581961" lon="12.821185">
        <ele>1162.829</ele>
        <time>2018-09-09T09:11:54Z</time>
      </trkpt>
      <trkpt lat="46.581980" lon="12.821077">
        <ele>1162.321</ele>
        <time>2018-09-09T09:11:55Z</time>
      </trkpt>
      <trkpt lat="46.582012" lon="12.820750">
        <ele>1160.908</ele>
        <time>2018-09-09T09:11:58Z</time>
      </trkpt>
      <trkpt lat="46.581982" lon="12.820061">
        <ele>1159.940</ele>
        <time>2018-09-09T09:12:04Z</time>
      </trkpt>
      <trkpt lat="46.581997" lon="12.819940">
        <ele>1159.982</ele>
        <time>2018-09-09T09:12:05Z</time>
      </trkpt>
      <trkpt lat="46.582018" lon="12.819820">
        <ele>1159.460</ele>
        <time>2018-09-09T09:12:06Z</time>
      </trkpt>
      <trkpt lat="46.582188" lon="12.818982">
        <ele>1155.165</ele>
        <time>2018-09-09T09:12:13Z</time>
      </trkpt>
      <trkpt lat="46.582186" lon="12.818859">
        <ele>1154.639</ele>
        <time>2018-09-09T09:12:14Z</time>
      </trkpt>
      <trkpt lat="46.582163" lon="12.818742">
        <ele>1153.761</ele>
        <time>2018-09-09T09:12:15Z</time>
      </trkpt>
      <trkpt lat="46.582126" lon="12.818638">
        <ele>1153.210</ele>
        <time>2018-09-09T09:12:16Z</time>
      </trkpt>
      <trkpt lat="46.582082" lon="12.818549">
        <ele>1152.745</ele>
        <time>2018-09-09T09:12:17Z</time>
      </trkpt>
      <trkpt lat="46.582039" lon="12.818483">
        <ele>1151.848</ele>
        <time>2018-09-09T09:12:18Z</time>
      </trkpt>
      <trkpt lat="46.582001" lon="12.818430">
        <ele>1151.361</ele>
        <time>2018-09-09T09:12:19Z</time>
      </trkpt>
      <trkpt lat="46.581965" lon="12.818374">
        <ele>1150.817</ele>
        <time>2018-09-09T09:12:20Z</time>
      </trkpt>
      <trkpt lat="46.581932" lon="12.818311">
        <ele>1150.308</ele>
        <time>2018-09-09T09:12:21Z</time>
      </trkpt>
      <trkpt lat="46.581904" lon="12.818248">
        <ele>1150.378</ele>
        <time>2018-09-09T09:12:22Z</time>
      </trkpt>
      <trkpt lat="46.581877" lon="12.818176">
        <ele>1149.850</ele>
        <time>2018-09-09T09:12:23Z</time>
      </trkpt>
      <trkpt lat="46.581851" lon="12.818099">
        <ele>1149.888</ele>
        <time>2018-09-09T09:12:24Z</time>
      </trkpt>
      <trkpt lat="46.581776" lon="12.817852">
        <ele>1148.973</ele>
        <time>2018-09-09T09:12:27Z</time>
      </trkpt>
      <trkpt lat="46.581743" lon="12.817773">
        <ele>1148.467</ele>
        <time>2018-09-09T09:12:28Z</time>
      </trkpt>
      <trkpt lat="46.581705" lon="12.817698">
        <ele>1147.959</ele>
        <time>2018-09-09T09:12:29Z</time>
      </trkpt>
      <trkpt lat="46.581659" lon="12.817629">
        <ele>1147.438</ele>
        <time>2018-09-09T09:12:30Z</time>
      </trkpt>
      <trkpt lat="46.581604" lon="12.817564">
        <ele>1146.923</ele>
        <time>2018-09-09T09:12:31Z</time>
      </trkpt>
      <trkpt lat="46.581553" lon="12.817514">
        <ele>1146.916</ele>
        <time>2018-09-09T09:12:32Z</time>
      </trkpt>
      <trkpt lat="46.581497" lon="12.817466">
        <ele>1146.576</ele>
        <time>2018-09-09T09:12:33Z</time>
      </trkpt>
      <trkpt lat="46.581274" lon="12.817261">
        <ele>1144.513</ele>
        <time>2018-09-09T09:12:37Z</time>
      </trkpt>
      <trkpt lat="46.580882" lon="12.816739">
        <ele>1141.708</ele>
        <time>2018-09-09T09:12:45Z</time>
      </trkpt>
      <trkpt lat="46.580823" lon="12.816679">
        <ele>1141.795</ele>
        <time>2018-09-09T09:12:46Z</time>
      </trkpt>
      <trkpt lat="46.580203" lon="12.816092">
        <ele>1138.357</ele>
        <time>2018-09-09T09:12:56Z</time>
      </trkpt>
      <trkpt lat="46.580155" lon="12.815993">
        <ele>1137.845</ele>
        <time>2018-09-09T09:12:57Z</time>
      </trkpt>
      <trkpt lat="46.580124" lon="12.815901">
        <ele>1137.870</ele>
        <time>2018-09-09T09:12:58Z</time>
      </trkpt>
      <trkpt lat="46.580096" lon="12.815799">
        <ele>1137.384</ele>
        <time>2018-09-09T09:12:59Z</time>
      </trkpt>
      <trkpt lat="46.580072" lon="12.815693">
        <ele>1136.916</ele>
        <time>2018-09-09T09:13:00Z</time>
      </trkpt>
      <trkpt lat="46.580056" lon="12.815584">
        <ele>1136.475</ele>
        <time>2018-09-09T09:13:01Z</time>
      </trkpt>
      <trkpt lat="46.580044" lon="12.815473">
        <ele>1136.470</ele>
        <time>2018-09-09T09:13:02Z</time>
      </trkpt>
      <trkpt lat="46.580012" lon="12.815254">
        <ele>1135.912</ele>
        <time>2018-09-09T09:13:04Z</time>
      </trkpt>
      <trkpt lat="46.579983" lon="12.815145">
        <ele>1135.932</ele>
        <time>2018-09-09T09:13:05Z</time>
      </trkpt>
      <trkpt lat="46.579943" lon="12.815038">
        <ele>1135.905</ele>
        <time>2018-09-09T09:13:06Z</time>
      </trkpt>
      <trkpt lat="46.579893" lon="12.814937">
        <ele>1135.408</ele>
        <time>2018-09-09T09:13:07Z</time>
      </trkpt>
      <trkpt lat="46.579832" lon="12.814851">
        <ele>1135.485</ele>
        <time>2018-09-09T09:13:08Z</time>
      </trkpt>
      <trkpt lat="46.579762" lon="12.814786">
        <ele>1134.917</ele>
        <time>2018-09-09T09:13:09Z</time>
      </trkpt>
      <trkpt lat="46.579685" lon="12.814754">
        <ele>1134.485</ele>
        <time>2018-09-09T09:13:10Z</time>
      </trkpt>
      <trkpt lat="46.579605" lon="12.814767">
        <ele>1133.550</ele>
        <time>2018-09-09T09:13:11Z</time>
      </trkpt>
      <trkpt lat="46.579525" lon="12.814811">
        <ele>1132.544</ele>
        <time>2018-09-09T09:13:12Z</time>
      </trkpt>
      <trkpt lat="46.579444" lon="12.814864">
        <ele>1132.046</ele>
        <time>2018-09-09T09:13:13Z</time>
      </trkpt>
      <trkpt lat="46.579358" lon="12.814909">
        <ele>1131.195</ele>
        <time>2018-09-09T09:13:14Z</time>
      </trkpt>
      <trkpt lat="46.579271" lon="12.814940">
        <ele>1130.690</ele>
        <time>2018-09-09T09:13:15Z</time>
      </trkpt>
      <trkpt lat="46.579183" lon="12.814948">
        <ele>1130.124</ele>
        <time>2018-09-09T09:13:16Z</time>
      </trkpt>
      <trkpt lat="46.579090" lon="12.814930">
        <ele>1129.204</ele>
        <time>2018-09-09T09:13:17Z</time>
      </trkpt>
      <trkpt lat="46.579013" lon="12.814903">
        <ele>1128.714</ele>
        <time>2018-09-09T09:13:18Z</time>
      </trkpt>
      <trkpt lat="46.578925" lon="12.814858">
        <ele>1128.208</ele>
        <time>2018-09-09T09:13:19Z</time>
      </trkpt>
      <trkpt lat="46.578857" lon="12.814805">
        <ele>1127.776</ele>
        <time>2018-09-09T09:13:20Z</time>
      </trkpt>
      <trkpt lat="46.578793" lon="12.814728">
        <ele>1127.758</ele>
        <time>2018-09-09T09:13:21Z</time>
      </trkpt>
      <trkpt lat="46.578739" lon="12.814638">
        <ele>1127.296</ele>
        <time>2018-09-09T09:13:22Z</time>
      </trkpt>
      <trkpt lat="46.578692" lon="12.814541">
        <ele>1127.251</ele>
        <time>2018-09-09T09:13:23Z</time>
      </trkpt>
      <trkpt lat="46.578657" lon="12.814438">
        <ele>1127.285</ele>
        <time>2018-09-09T09:13:24Z</time>
      </trkpt>
      <trkpt lat="46.578627" lon="12.814330">
        <ele>1126.837</ele>
        <time>2018-09-09T09:13:25Z</time>
      </trkpt>
      <trkpt lat="46.578601" lon="12.814217">
        <ele>1126.896</ele>
        <time>2018-09-09T09:13:26Z</time>
      </trkpt>
      <trkpt lat="46.578554" lon="12.814003">
        <ele>1125.861</ele>
        <time>2018-09-09T09:13:28Z</time>
      </trkpt>
      <trkpt lat="46.578525" lon="12.813902">
        <ele>1125.352</ele>
        <time>2018-09-09T09:13:29Z</time>
      </trkpt>
      <trkpt lat="46.578375" lon="12.813530">
        <ele>1123.953</ele>
        <time>2018-09-09T09:13:33Z</time>
      </trkpt>
      <trkpt lat="46.578339" lon="12.813454">
        <ele>1123.908</ele>
        <time>2018-09-09T09:13:34Z</time>
      </trkpt>
      <trkpt lat="46.578300" lon="12.813387">
        <ele>1123.408</ele>
        <time>2018-09-09T09:13:35Z</time>
      </trkpt>
      <trkpt lat="46.578263" lon="12.813322">
        <ele>1123.499</ele>
        <time>2018-09-09T09:13:36Z</time>
      </trkpt>
      <trkpt lat="46.578233" lon="12.813254">
        <ele>1122.941</ele>
        <time>2018-09-09T09:13:37Z</time>
      </trkpt>
      <trkpt lat="46.578205" lon="12.813179">
        <ele>1122.459</ele>
        <time>2018-09-09T09:13:38Z</time>
      </trkpt>
      <trkpt lat="46.578185" lon="12.813116">
        <ele>1122.464</ele>
        <time>2018-09-09T09:13:39Z</time>
      </trkpt>
      <trkpt lat="46.578173" lon="12.813050">
        <ele>1122.428</ele>
        <time>2018-09-09T09:13:40Z</time>
      </trkpt>
      <trkpt lat="46.578076" lon="12.812566">
        <ele>1125.860</ele>
        <time>2018-09-09T09:13:50Z</time>
      </trkpt>
      <trkpt lat="46.577799" lon="12.812289">
        <ele>1125.859</ele>
        <time>2018-09-09T09:14:00Z</time>
      </trkpt>
      <trkpt lat="46.577615" lon="12.812025">
        <ele>1124.884</ele>
        <time>2018-09-09T09:14:09Z</time>
      </trkpt>
      <trkpt lat="46.577588" lon="12.811973">
        <ele>1124.421</ele>
        <time>2018-09-09T09:14:10Z</time>
      </trkpt>
      <trkpt lat="46.577557" lon="12.811920">
        <ele>1123.941</ele>
        <time>2018-09-09T09:14:11Z</time>
      </trkpt>
      <trkpt lat="46.576961" lon="12.811237">
        <ele>1120.005</ele>
        <time>2018-09-09T09:14:23Z</time>
      </trkpt>
      <trkpt lat="46.576784" lon="12.811047">
        <ele>1119.508</ele>
        <time>2018-09-09T09:14:27Z</time>
      </trkpt>
      <trkpt lat="46.576749" lon="12.811002">
        <ele>1119.526</ele>
        <time>2018-09-09T09:14:28Z</time>
      </trkpt>
      <trkpt lat="46.576725" lon="12.810950">
        <ele>1120.038</ele>
        <time>2018-09-09T09:14:29Z</time>
      </trkpt>
      <trkpt lat="46.576704" lon="12.810897">
        <ele>1119.516</ele>
        <time>2018-09-09T09:14:30Z</time>
      </trkpt>
      <trkpt lat="46.576687" lon="12.810834">
        <ele>1119.521</ele>
        <time>2018-09-09T09:14:31Z</time>
      </trkpt>
      <trkpt lat="46.576674" lon="12.810764">
        <ele>1119.115</ele>
        <time>2018-09-09T09:14:32Z</time>
      </trkpt>
      <trkpt lat="46.576408" lon="12.809822">
        <ele>1117.137</ele>
        <time>2018-09-09T09:14:44Z</time>
      </trkpt>
      <trkpt lat="46.576388" lon="12.809727">
        <ele>1116.796</ele>
        <time>2018-09-09T09:14:45Z</time>
      </trkpt>
      <trkpt lat="46.576377" lon="12.809630">
        <ele>1116.261</ele>
        <time>2018-09-09T09:14:46Z</time>
      </trkpt>
      <trkpt lat="46.576376" lon="12.809521">
        <ele>1116.277</ele>
        <time>2018-09-09T09:14:47Z</time>
      </trkpt>
      <trkpt lat="46.576382" lon="12.809420">
        <ele>1115.761</ele>
        <time>2018-09-09T09:14:48Z</time>
      </trkpt>
      <trkpt lat="46.576492" lon="12.807731">
        <ele>1110.927</ele>
        <time>2018-09-09T09:15:03Z</time>
      </trkpt>
      <trkpt lat="46.576487" lon="12.805837">
        <ele>1108.008</ele>
        <time>2018-09-09T09:15:20Z</time>
      </trkpt>
      <trkpt lat="46.576554" lon="12.805270">
        <ele>1106.651</ele>
        <time>2018-09-09T09:15:25Z</time>
      </trkpt>
      <trkpt lat="46.576594" lon="12.805161">
        <ele>1106.163</ele>
        <time>2018-09-09T09:15:26Z</time>
      </trkpt>
      <trkpt lat="46.576644" lon="12.805054">
        <ele>1105.151</ele>
        <time>2018-09-09T09:15:27Z</time>
      </trkpt>
      <trkpt lat="46.576704" lon="12.804952">
        <ele>1104.266</ele>
        <time>2018-09-09T09:15:28Z</time>
      </trkpt>
      <trkpt lat="46.576778" lon="12.804860">
        <ele>1103.780</ele>
        <time>2018-09-09T09:15:29Z</time>
      </trkpt>
      <trkpt lat="46.576859" lon="12.804775">
        <ele>1102.762</ele>
        <time>2018-09-09T09:15:30Z</time>
      </trkpt>
      <trkpt lat="46.576946" lon="12.804699">
        <ele>1102.221</ele>
        <time>2018-09-09T09:15:31Z</time>
      </trkpt>
      <trkpt lat="46.577040" lon="12.804636">
        <ele>1101.336</ele>
        <time>2018-09-09T09:15:32Z</time>
      </trkpt>
      <trkpt lat="46.577138" lon="12.804583">
        <ele>1100.823</ele>
        <time>2018-09-09T09:15:33Z</time>
      </trkpt>
      <trkpt lat="46.577738" lon="12.804315">
        <ele>1097.483</ele>
        <time>2018-09-09T09:15:39Z</time>
      </trkpt>
      <trkpt lat="46.577837" lon="12.804301">
        <ele>1096.511</ele>
        <time>2018-09-09T09:15:40Z</time>
      </trkpt>
      <trkpt lat="46.577933" lon="12.804304">
        <ele>1096.008</ele>
        <time>2018-09-09T09:15:41Z</time>
      </trkpt>
      <trkpt lat="46.578214" lon="12.804305">
        <ele>1093.656</ele>
        <time>2018-09-09T09:15:44Z</time>
      </trkpt>
      <trkpt lat="46.578299" lon="12.804260">
        <ele>1092.668</ele>
        <time>2018-09-09T09:15:45Z</time>
      </trkpt>
      <trkpt lat="46.578380" lon="12.804188">
        <ele>1092.246</ele>
        <time>2018-09-09T09:15:46Z</time>
      </trkpt>
      <trkpt lat="46.578453" lon="12.804105">
        <ele>1091.731</ele>
        <time>2018-09-09T09:15:47Z</time>
      </trkpt>
      <trkpt lat="46.578524" lon="12.804014">
        <ele>1091.265</ele>
        <time>2018-09-09T09:15:48Z</time>
      </trkpt>
      <trkpt lat="46.578593" lon="12.803915">
        <ele>1090.777</ele>
        <time>2018-09-09T09:15:49Z</time>
      </trkpt>
      <trkpt lat="46.579564" lon="12.802332">
        <ele>1084.046</ele>
        <time>2018-09-09T09:16:04Z</time>
      </trkpt>
      <trkpt lat="46.580146" lon="12.801490">
        <ele>1081.111</ele>
        <time>2018-09-09T09:16:13Z</time>
      </trkpt>
      <trkpt lat="46.580201" lon="12.801405">
        <ele>1081.192</ele>
        <time>2018-09-09T09:16:14Z</time>
      </trkpt>
      <trkpt lat="46.580266" lon="12.801335">
        <ele>1080.673</ele>
        <time>2018-09-09T09:16:15Z</time>
      </trkpt>
      <trkpt lat="46.580336" lon="12.801281">
        <ele>1080.620</ele>
        <time>2018-09-09T09:16:16Z</time>
      </trkpt>
      <trkpt lat="46.580404" lon="12.801226">
        <ele>1080.108</ele>
        <time>2018-09-09T09:16:17Z</time>
      </trkpt>
      <trkpt lat="46.580456" lon="12.801153">
        <ele>1080.113</ele>
        <time>2018-09-09T09:16:18Z</time>
      </trkpt>
      <trkpt lat="46.580476" lon="12.801063">
        <ele>1080.185</ele>
        <time>2018-09-09T09:16:19Z</time>
      </trkpt>
      <trkpt lat="46.580457" lon="12.800970">
        <ele>1079.713</ele>
        <time>2018-09-09T09:16:20Z</time>
      </trkpt>
      <trkpt lat="46.580409" lon="12.800887">
        <ele>1079.758</ele>
        <time>2018-09-09T09:16:21Z</time>
      </trkpt>
      <trkpt lat="46.580356" lon="12.800818">
        <ele>1079.222</ele>
        <time>2018-09-09T09:16:22Z</time>
      </trkpt>
      <trkpt lat="46.580309" lon="12.800751">
        <ele>1079.254</ele>
        <time>2018-09-09T09:16:23Z</time>
      </trkpt>
      <trkpt lat="46.580276" lon="12.800672">
        <ele>1078.733</ele>
        <time>2018-09-09T09:16:24Z</time>
      </trkpt>
      <trkpt lat="46.580260" lon="12.800577">
        <ele>1078.738</ele>
        <time>2018-09-09T09:16:25Z</time>
      </trkpt>
      <trkpt lat="46.580176" lon="12.800002">
        <ele>1077.258</ele>
        <time>2018-09-09T09:16:31Z</time>
      </trkpt>
      <trkpt lat="46.580168" lon="12.799910">
        <ele>1076.852</ele>
        <time>2018-09-09T09:16:32Z</time>
      </trkpt>
      <trkpt lat="46.580167" lon="12.799820">
        <ele>1076.317</ele>
        <time>2018-09-09T09:16:33Z</time>
      </trkpt>
      <trkpt lat="46.580174" lon="12.799727">
        <ele>1075.808</ele>
        <time>2018-09-09T09:16:34Z</time>
      </trkpt>
      <trkpt lat="46.580186" lon="12.799641">
        <ele>1075.349</ele>
        <time>2018-09-09T09:16:35Z</time>
      </trkpt>
      <trkpt lat="46.580203" lon="12.799471">
        <ele>1075.341</ele>
        <time>2018-09-09T09:16:37Z</time>
      </trkpt>
      <trkpt lat="46.580202" lon="12.799385">
        <ele>1075.359</ele>
        <time>2018-09-09T09:16:38Z</time>
      </trkpt>
      <trkpt lat="46.580164" lon="12.798814">
        <ele>1074.454</ele>
        <time>2018-09-09T09:16:45Z</time>
      </trkpt>
      <trkpt lat="46.580170" lon="12.798733">
        <ele>1074.448</ele>
        <time>2018-09-09T09:16:46Z</time>
      </trkpt>
      <trkpt lat="46.580186" lon="12.798655">
        <ele>1074.440</ele>
        <time>2018-09-09T09:16:47Z</time>
      </trkpt>
      <trkpt lat="46.580212" lon="12.798576">
        <ele>1074.489</ele>
        <time>2018-09-09T09:16:48Z</time>
      </trkpt>
      <trkpt lat="46.580240" lon="12.798500">
        <ele>1074.484</ele>
        <time>2018-09-09T09:16:49Z</time>
      </trkpt>
      <trkpt lat="46.580314" lon="12.798242">
        <ele>1073.412</ele>
        <time>2018-09-09T09:16:52Z</time>
      </trkpt>
      <trkpt lat="46.580323" lon="12.798145">
        <ele>1073.432</ele>
        <time>2018-09-09T09:16:53Z</time>
      </trkpt>
      <trkpt lat="46.580348" lon="12.797859">
        <ele>1072.905</ele>
        <time>2018-09-09T09:16:56Z</time>
      </trkpt>
      <trkpt lat="46.580370" lon="12.797748">
        <ele>1072.408</ele>
        <time>2018-09-09T09:16:57Z</time>
      </trkpt>
      <trkpt lat="46.580401" lon="12.797641">
        <ele>1072.415</ele>
        <time>2018-09-09T09:16:58Z</time>
      </trkpt>
      <trkpt lat="46.580570" lon="12.797251">
        <ele>1072.487</ele>
        <time>2018-09-09T09:17:02Z</time>
      </trkpt>
      <trkpt lat="46.580623" lon="12.797176">
        <ele>1072.495</ele>
        <time>2018-09-09T09:17:03Z</time>
      </trkpt>
      <trkpt lat="46.581397" lon="12.796454">
        <ele>1067.210</ele>
        <time>2018-09-09T09:17:16Z</time>
      </trkpt>
      <trkpt lat="46.581559" lon="12.796358">
        <ele>1065.294</ele>
        <time>2018-09-09T09:17:18Z</time>
      </trkpt>
      <trkpt lat="46.581724" lon="12.796277">
        <ele>1062.896</ele>
        <time>2018-09-09T09:17:20Z</time>
      </trkpt>
      <trkpt lat="46.581797" lon="12.796217">
        <ele>1061.975</ele>
        <time>2018-09-09T09:17:21Z</time>
      </trkpt>
      <trkpt lat="46.581859" lon="12.796139">
        <ele>1060.990</ele>
        <time>2018-09-09T09:17:22Z</time>
      </trkpt>
      <trkpt lat="46.581910" lon="12.796055">
        <ele>1059.552</ele>
        <time>2018-09-09T09:17:23Z</time>
      </trkpt>
      <trkpt lat="46.581963" lon="12.795978">
        <ele>1058.553</ele>
        <time>2018-09-09T09:17:24Z</time>
      </trkpt>
      <trkpt lat="46.582024" lon="12.795924">
        <ele>1057.508</ele>
        <time>2018-09-09T09:17:25Z</time>
      </trkpt>
      <trkpt lat="46.582091" lon="12.795894">
        <ele>1056.608</ele>
        <time>2018-09-09T09:17:26Z</time>
      </trkpt>
      <trkpt lat="46.582164" lon="12.795874">
        <ele>1055.159</ele>
        <time>2018-09-09T09:17:27Z</time>
      </trkpt>
      <trkpt lat="46.582240" lon="12.795837">
        <ele>1054.271</ele>
        <time>2018-09-09T09:17:28Z</time>
      </trkpt>
      <trkpt lat="46.582312" lon="12.795771">
        <ele>1053.249</ele>
        <time>2018-09-09T09:17:29Z</time>
      </trkpt>
      <trkpt lat="46.582377" lon="12.795681">
        <ele>1052.344</ele>
        <time>2018-09-09T09:17:30Z</time>
      </trkpt>
      <trkpt lat="46.582644" lon="12.795198">
        <ele>1050.868</ele>
        <time>2018-09-09T09:17:35Z</time>
      </trkpt>
      <trkpt lat="46.582652" lon="12.795089">
        <ele>1050.860</ele>
        <time>2018-09-09T09:17:36Z</time>
      </trkpt>
      <trkpt lat="46.582630" lon="12.794992">
        <ele>1050.869</ele>
        <time>2018-09-09T09:17:37Z</time>
      </trkpt>
      <trkpt lat="46.582588" lon="12.794920">
        <ele>1050.834</ele>
        <time>2018-09-09T09:17:38Z</time>
      </trkpt>
      <trkpt lat="46.582537" lon="12.794870">
        <ele>1050.829</ele>
        <time>2018-09-09T09:17:39Z</time>
      </trkpt>
      <trkpt lat="46.582486" lon="12.794834">
        <ele>1050.300</ele>
        <time>2018-09-09T09:17:40Z</time>
      </trkpt>
      <trkpt lat="46.582437" lon="12.794807">
        <ele>1050.320</ele>
        <time>2018-09-09T09:17:41Z</time>
      </trkpt>
      <trkpt lat="46.582390" lon="12.794788">
        <ele>1050.308</ele>
        <time>2018-09-09T09:17:42Z</time>
      </trkpt>
      <trkpt lat="46.582344" lon="12.794780">
        <ele>1050.336</ele>
        <time>2018-09-09T09:17:43Z</time>
      </trkpt>
      <trkpt lat="46.582302" lon="12.794780">
        <ele>1050.378</ele>
        <time>2018-09-09T09:17:44Z</time>
      </trkpt>
      <trkpt lat="46.582209" lon="12.794746">
        <ele>1050.836</ele>
        <time>2018-09-09T09:17:47Z</time>
      </trkpt>
      <trkpt lat="46.582192" lon="12.794714">
        <ele>1050.391</ele>
        <time>2018-09-09T09:17:48Z</time>
      </trkpt>
      <trkpt lat="46.582165" lon="12.794628">
        <ele>1049.465</ele>
        <time>2018-09-09T09:17:50Z</time>
      </trkpt>
      <trkpt lat="46.582162" lon="12.794581">
        <ele>1048.467</ele>
        <time>2018-09-09T09:17:51Z</time>
      </trkpt>
      <trkpt lat="46.582164" lon="12.794533">
        <ele>1047.946</ele>
        <time>2018-09-09T09:17:52Z</time>
      </trkpt>
      <trkpt lat="46.582175" lon="12.794060">
        <ele>1044.681</ele>
        <time>2018-09-09T09:18:02Z</time>
      </trkpt>
      <trkpt lat="46.582324" lon="12.792971">
        <ele>1041.741</ele>
        <time>2018-09-09T09:18:16Z</time>
      </trkpt>
      <trkpt lat="46.582543" lon="12.791865">
        <ele>1039.881</ele>
        <time>2018-09-09T09:18:26Z</time>
      </trkpt>
      <trkpt lat="46.582591" lon="12.791755">
        <ele>1039.809</ele>
        <time>2018-09-09T09:18:27Z</time>
      </trkpt>
      <trkpt lat="46.583251" lon="12.790287">
        <ele>1031.108</ele>
        <time>2018-09-09T09:18:39Z</time>
      </trkpt>
      <trkpt lat="46.583537" lon="12.789331">
        <ele>1027.398</ele>
        <time>2018-09-09T09:18:46Z</time>
      </trkpt>
      <trkpt lat="46.583593" lon="12.789211">
        <ele>1026.310</ele>
        <time>2018-09-09T09:18:47Z</time>
      </trkpt>
      <trkpt lat="46.583662" lon="12.789094">
        <ele>1025.388</ele>
        <time>2018-09-09T09:18:48Z</time>
      </trkpt>
      <trkpt lat="46.583733" lon="12.788987">
        <ele>1024.413</ele>
        <time>2018-09-09T09:18:49Z</time>
      </trkpt>
      <trkpt lat="46.583806" lon="12.788887">
        <ele>1023.987</ele>
        <time>2018-09-09T09:18:50Z</time>
      </trkpt>
      <trkpt lat="46.584075" lon="12.788438">
        <ele>1020.119</ele>
        <time>2018-09-09T09:18:54Z</time>
      </trkpt>
      <trkpt lat="46.584133" lon="12.788326">
        <ele>1019.198</ele>
        <time>2018-09-09T09:18:55Z</time>
      </trkpt>
      <trkpt lat="46.584197" lon="12.788231">
        <ele>1018.133</ele>
        <time>2018-09-09T09:18:56Z</time>
      </trkpt>
      <trkpt lat="46.584270" lon="12.788161">
        <ele>1017.232</ele>
        <time>2018-09-09T09:18:57Z</time>
      </trkpt>
      <trkpt lat="46.584347" lon="12.788114">
        <ele>1015.792</ele>
        <time>2018-09-09T09:18:58Z</time>
      </trkpt>
      <trkpt lat="46.584424" lon="12.788092">
        <ele>1014.811</ele>
        <time>2018-09-09T09:18:59Z</time>
      </trkpt>
      <trkpt lat="46.584499" lon="12.788103">
        <ele>1013.808</ele>
        <time>2018-09-09T09:19:00Z</time>
      </trkpt>
      <trkpt lat="46.584567" lon="12.788144">
        <ele>1012.427</ele>
        <time>2018-09-09T09:19:01Z</time>
      </trkpt>
      <trkpt lat="46.584636" lon="12.788205">
        <ele>1011.459</ele>
        <time>2018-09-09T09:19:02Z</time>
      </trkpt>
      <trkpt lat="46.584829" lon="12.788349">
        <ele>1009.047</ele>
        <time>2018-09-09T09:19:05Z</time>
      </trkpt>
      <trkpt lat="46.584884" lon="12.788367">
        <ele>1008.522</ele>
        <time>2018-09-09T09:19:06Z</time>
      </trkpt>
      <trkpt lat="46.585218" lon="12.788362">
        <ele>1004.766</ele>
        <time>2018-09-09T09:19:11Z</time>
      </trkpt>
      <trkpt lat="46.585294" lon="12.788325">
        <ele>1003.748</ele>
        <time>2018-09-09T09:19:12Z</time>
      </trkpt>
      <trkpt lat="46.585367" lon="12.788271">
        <ele>1002.717</ele>
        <time>2018-09-09T09:19:13Z</time>
      </trkpt>
      <trkpt lat="46.585430" lon="12.788201">
        <ele>1001.862</ele>
        <time>2018-09-09T09:19:14Z</time>
      </trkpt>
      <trkpt lat="46.585485" lon="12.788112">
        <ele>1001.397</ele>
        <time>2018-09-09T09:19:15Z</time>
      </trkpt>
      <trkpt lat="46.585524" lon="12.788018">
        <ele>1000.323</ele>
        <time>2018-09-09T09:19:16Z</time>
      </trkpt>
      <trkpt lat="46.585547" lon="12.787910">
        <ele>999.925</ele>
        <time>2018-09-09T09:19:17Z</time>
      </trkpt>
      <trkpt lat="46.585553" lon="12.787798">
        <ele>998.908</ele>
        <time>2018-09-09T09:19:18Z</time>
      </trkpt>
      <trkpt lat="46.585539" lon="12.787679">
        <ele>997.953</ele>
        <time>2018-09-09T09:19:19Z</time>
      </trkpt>
      <trkpt lat="46.585515" lon="12.787562">
        <ele>997.085</ele>
        <time>2018-09-09T09:19:20Z</time>
      </trkpt>
      <trkpt lat="46.585486" lon="12.787449">
        <ele>996.563</ele>
        <time>2018-09-09T09:19:21Z</time>
      </trkpt>
      <trkpt lat="46.585255" lon="12.786051">
        <ele>987.498</ele>
        <time>2018-09-09T09:19:31Z</time>
      </trkpt>
      <trkpt lat="46.585306" lon="12.784826">
        <ele>976.892</ele>
        <time>2018-09-09T09:19:40Z</time>
      </trkpt>
      <trkpt lat="46.585474" lon="12.784137">
        <ele>970.174</ele>
        <time>2018-09-09T09:19:46Z</time>
      </trkpt>
      <trkpt lat="46.585515" lon="12.784052">
        <ele>968.613</ele>
        <time>2018-09-09T09:19:47Z</time>
      </trkpt>
      <trkpt lat="46.585573" lon="12.783991">
        <ele>967.298</ele>
        <time>2018-09-09T09:19:48Z</time>
      </trkpt>
      <trkpt lat="46.585640" lon="12.783945">
        <ele>965.741</ele>
        <time>2018-09-09T09:19:49Z</time>
      </trkpt>
      <trkpt lat="46.585704" lon="12.783891">
        <ele>964.881</ele>
        <time>2018-09-09T09:19:50Z</time>
      </trkpt>
      <trkpt lat="46.585756" lon="12.783820">
        <ele>963.309</ele>
        <time>2018-09-09T09:19:51Z</time>
      </trkpt>
      <trkpt lat="46.585796" lon="12.783734">
        <ele>961.908</ele>
        <time>2018-09-09T09:19:52Z</time>
      </trkpt>
      <trkpt lat="46.585825" lon="12.783634">
        <ele>960.968</ele>
        <time>2018-09-09T09:19:53Z</time>
      </trkpt>
      <trkpt lat="46.585848" lon="12.783524">
        <ele>959.090</ele>
        <time>2018-09-09T09:19:54Z</time>
      </trkpt>
      <trkpt lat="46.585871" lon="12.783411">
        <ele>957.688</ele>
        <time>2018-09-09T09:19:55Z</time>
      </trkpt>
      <trkpt lat="46.585904" lon="12.783296">
        <ele>956.123</ele>
        <time>2018-09-09T09:19:56Z</time>
      </trkpt>
      <trkpt lat="46.585948" lon="12.783185">
        <ele>955.297</ele>
        <time>2018-09-09T09:19:57Z</time>
      </trkpt>
      <trkpt lat="46.586006" lon="12.783084">
        <ele>953.759</ele>
        <time>2018-09-09T09:19:58Z</time>
      </trkpt>
      <trkpt lat="46.586074" lon="12.782994">
        <ele>951.888</ele>
        <time>2018-09-09T09:19:59Z</time>
      </trkpt>
      <trkpt lat="46.586144" lon="12.782911">
        <ele>950.413</ele>
        <time>2018-09-09T09:20:00Z</time>
      </trkpt>
      <trkpt lat="46.586310" lon="12.782698">
        <ele>946.597</ele>
        <time>2018-09-09T09:20:03Z</time>
      </trkpt>
      <trkpt lat="46.586331" lon="12.782641">
        <ele>946.023</ele>
        <time>2018-09-09T09:20:04Z</time>
      </trkpt>
      <trkpt lat="46.586341" lon="12.782583">
        <ele>945.125</ele>
        <time>2018-09-09T09:20:05Z</time>
      </trkpt>
      <trkpt lat="46.586347" lon="12.782519">
        <ele>944.608</ele>
        <time>2018-09-09T09:20:06Z</time>
      </trkpt>
      <trkpt lat="46.586350" lon="12.782450">
        <ele>943.633</ele>
        <time>2018-09-09T09:20:07Z</time>
      </trkpt>
      <trkpt lat="46.586344" lon="12.782373">
        <ele>943.165</ele>
        <time>2018-09-09T09:20:08Z</time>
      </trkpt>
      <trkpt lat="46.586333" lon="12.782281">
        <ele>942.753</ele>
        <time>2018-09-09T09:20:09Z</time>
      </trkpt>
      <trkpt lat="46.586281" lon="12.781724">
        <ele>937.918</ele>
        <time>2018-09-09T09:20:15Z</time>
      </trkpt>
      <trkpt lat="46.586288" lon="12.781668">
        <ele>936.912</ele>
        <time>2018-09-09T09:20:16Z</time>
      </trkpt>
      <trkpt lat="46.586360" lon="12.781360">
        <ele>933.534</ele>
        <time>2018-09-09T09:20:22Z</time>
      </trkpt>
      <trkpt lat="46.586531" lon="12.780243">
        <ele>924.923</ele>
        <time>2018-09-09T09:20:32Z</time>
      </trkpt>
      <trkpt lat="46.586759" lon="12.778923">
        <ele>914.378</ele>
        <time>2018-09-09T09:20:42Z</time>
      </trkpt>
      <trkpt lat="46.586766" lon="12.778802">
        <ele>912.995</ele>
        <time>2018-09-09T09:20:43Z</time>
      </trkpt>
      <trkpt lat="46.586762" lon="12.778685">
        <ele>911.949</ele>
        <time>2018-09-09T09:20:44Z</time>
      </trkpt>
      <trkpt lat="46.586742" lon="12.778103">
        <ele>905.723</ele>
        <time>2018-09-09T09:20:52Z</time>
      </trkpt>
      <trkpt lat="46.586756" lon="12.777872">
        <ele>904.208</ele>
        <time>2018-09-09T09:21:01Z</time>
      </trkpt>
      <trkpt lat="46.586765" lon="12.777856">
        <ele>908.153</ele>
        <time>2018-09-09T09:21:36Z</time>
      </trkpt>
      <trkpt lat="46.586757" lon="12.777856">
        <ele>908.115</ele>
        <time>2018-09-09T09:22:02Z</time>
      </trkpt>
      <trkpt lat="46.586761" lon="12.777846">
        <ele>908.523</ele>
        <time>2018-09-09T09:22:11Z</time>
      </trkpt>
      <trkpt lat="46.586772" lon="12.777831">
        <ele>908.558</ele>
        <time>2018-09-09T09:22:12Z</time>
      </trkpt>
      <trkpt lat="46.586790" lon="12.777809">
        <ele>908.542</ele>
        <time>2018-09-09T09:22:13Z</time>
      </trkpt>
      <trkpt lat="46.586809" lon="12.777773">
        <ele>908.184</ele>
        <time>2018-09-09T09:22:14Z</time>
      </trkpt>
      <trkpt lat="46.586829" lon="12.777724">
        <ele>908.113</ele>
        <time>2018-09-09T09:22:15Z</time>
      </trkpt>
      <trkpt lat="46.586850" lon="12.777665">
        <ele>908.128</ele>
        <time>2018-09-09T09:22:16Z</time>
      </trkpt>
      <trkpt lat="46.587146" lon="12.776845">
        <ele>903.765</ele>
        <time>2018-09-09T09:22:26Z</time>
      </trkpt>
      <trkpt lat="46.587169" lon="12.776776">
        <ele>903.368</ele>
        <time>2018-09-09T09:22:27Z</time>
      </trkpt>
      <trkpt lat="46.587175" lon="12.776704">
        <ele>902.814</ele>
        <time>2018-09-09T09:22:28Z</time>
      </trkpt>
      <trkpt lat="46.587165" lon="12.776640">
        <ele>902.808</ele>
        <time>2018-09-09T09:22:29Z</time>
      </trkpt>
      <trkpt lat="46.587134" lon="12.776582">
        <ele>902.310</ele>
        <time>2018-09-09T09:22:30Z</time>
      </trkpt>
      <trkpt lat="46.587094" lon="12.776554">
        <ele>901.882</ele>
        <time>2018-09-09T09:22:31Z</time>
      </trkpt>
      <trkpt lat="46.587042" lon="12.776561">
        <ele>901.880</ele>
        <time>2018-09-09T09:22:32Z</time>
      </trkpt>
      <trkpt lat="46.586999" lon="12.776589">
        <ele>901.375</ele>
        <time>2018-09-09T09:22:33Z</time>
      </trkpt>
      <trkpt lat="46.586950" lon="12.776630">
        <ele>900.859</ele>
        <time>2018-09-09T09:22:34Z</time>
      </trkpt>
      <trkpt lat="46.586897" lon="12.776670">
        <ele>900.471</ele>
        <time>2018-09-09T09:22:35Z</time>
      </trkpt>
      <trkpt lat="46.586841" lon="12.776695">
        <ele>899.920</ele>
        <time>2018-09-09T09:22:36Z</time>
      </trkpt>
      <trkpt lat="46.586716" lon="12.776738">
        <ele>899.435</ele>
        <time>2018-09-09T09:22:38Z</time>
      </trkpt>
      <trkpt lat="46.586436" lon="12.776824">
        <ele>897.066</ele>
        <time>2018-09-09T09:22:43Z</time>
      </trkpt>
      <trkpt lat="46.586387" lon="12.776844">
        <ele>896.529</ele>
        <time>2018-09-09T09:22:44Z</time>
      </trkpt>
      <trkpt lat="46.586338" lon="12.776858">
        <ele>896.021</ele>
        <time>2018-09-09T09:22:45Z</time>
      </trkpt>
      <trkpt lat="46.585887" lon="12.776853">
        <ele>892.208</ele>
        <time>2018-09-09T09:22:56Z</time>
      </trkpt>
      <trkpt lat="46.585675" lon="12.776796">
        <ele>894.680</ele>
        <time>2018-09-09T09:23:07Z</time>
      </trkpt>
      <trkpt lat="46.585487" lon="12.776909">
        <ele>893.692</ele>
        <time>2018-09-09T09:23:20Z</time>
      </trkpt>
      <trkpt lat="46.585215" lon="12.776828">
        <ele>892.760</ele>
        <time>2018-09-09T09:23:32Z</time>
      </trkpt>
      <trkpt lat="46.585169" lon="12.776855">
        <ele>892.775</ele>
        <time>2018-09-09T09:23:41Z</time>
      </trkpt>
      <trkpt lat="46.585179" lon="12.776866">
        <ele>893.259</ele>
        <time>2018-09-09T09:23:52Z</time>
      </trkpt>
      <trkpt lat="46.585194" lon="12.776871">
        <ele>897.031</ele>
        <time>2018-09-09T09:24:21Z</time>
      </trkpt>
      <trkpt lat="46.585213" lon="12.776876">
        <ele>901.850</ele>
        <time>2018-09-09T09:24:57Z</time>
      </trkpt>
      <trkpt lat="46.585235" lon="12.776914">
        <ele>902.375</ele>
        <time>2018-09-09T09:25:30Z</time>
      </trkpt>
      <trkpt lat="46.585216" lon="12.776956">
        <ele>901.328</ele>
        <time>2018-09-09T09:25:38Z</time>
      </trkpt>
      <trkpt lat="46.585175" lon="12.777094">
        <ele>896.589</ele>
        <time>2018-09-09T09:25:50Z</time>
      </trkpt>
      <trkpt lat="46.585048" lon="12.777478">
        <ele>898.017</ele>
        <time>2018-09-09T09:26:02Z</time>
      </trkpt>
      <trkpt lat="46.584994" lon="12.777568">
        <ele>898.908</ele>
        <time>2018-09-09T09:26:05Z</time>
      </trkpt>
      <trkpt lat="46.584992" lon="12.777617">
        <ele>898.976</ele>
        <time>2018-09-09T09:26:06Z</time>
      </trkpt>
      <trkpt lat="46.584890" lon="12.778440">
        <ele>896.528</ele>
        <time>2018-09-09T09:26:23Z</time>
      </trkpt>
      <trkpt lat="46.584766" lon="12.779061">
        <ele>894.146</ele>
        <time>2018-09-09T09:26:37Z</time>
      </trkpt>
      <trkpt lat="46.584797" lon="12.779571">
        <ele>881.691</ele>
        <time>2018-09-09T09:37:49Z</time>
      </trkpt>
      <trkpt lat="46.584816" lon="12.779511">
        <ele>882.655</ele>
        <time>2018-09-09T09:37:59Z</time>
      </trkpt>
      <trkpt lat="46.584790" lon="12.779489">
        <ele>882.677</ele>
        <time>2018-09-09T09:38:00Z</time>
      </trkpt>
      <trkpt lat="46.584778" lon="12.779458">
        <ele>883.166</ele>
        <time>2018-09-09T09:38:01Z</time>
      </trkpt>
      <trkpt lat="46.584767" lon="12.779431">
        <ele>883.181</ele>
        <time>2018-09-09T09:38:02Z</time>
      </trkpt>
      <trkpt lat="46.584764" lon="12.779402">
        <ele>883.176</ele>
        <time>2018-09-09T09:38:03Z</time>
      </trkpt>
      <trkpt lat="46.584764" lon="12.779370">
        <ele>883.190</ele>
        <time>2018-09-09T09:38:04Z</time>
      </trkpt>
      <trkpt lat="46.584766" lon="12.779338">
        <ele>883.519</ele>
        <time>2018-09-09T09:38:05Z</time>
      </trkpt>
      <trkpt lat="46.584825" lon="12.778791">
        <ele>884.508</ele>
        <time>2018-09-09T09:38:21Z</time>
      </trkpt>
      <trkpt lat="46.584920" lon="12.778247">
        <ele>885.071</ele>
        <time>2018-09-09T09:38:38Z</time>
      </trkpt>
      <trkpt lat="46.585015" lon="12.777682">
        <ele>886.943</ele>
        <time>2018-09-09T09:38:55Z</time>
      </trkpt>
      <trkpt lat="46.585076" lon="12.777260">
        <ele>883.581</ele>
        <time>2018-09-09T09:39:08Z</time>
      </trkpt>
      <trkpt lat="46.585168" lon="12.776839">
        <ele>881.166</ele>
        <time>2018-09-09T09:39:21Z</time>
      </trkpt>
      <trkpt lat="46.585480" lon="12.776537">
        <ele>883.120</ele>
        <time>2018-09-09T09:39:32Z</time>
      </trkpt>
      <trkpt lat="46.585522" lon="12.776525">
        <ele>883.532</ele>
        <time>2018-09-09T09:39:33Z</time>
      </trkpt>
      <trkpt lat="46.585564" lon="12.776512">
        <ele>884.051</ele>
        <time>2018-09-09T09:39:34Z</time>
      </trkpt>
      <trkpt lat="46.586156" lon="12.776327">
        <ele>885.556</ele>
        <time>2018-09-09T09:39:48Z</time>
      </trkpt>
      <trkpt lat="46.586664" lon="12.776230">
        <ele>891.289</ele>
        <time>2018-09-09T09:40:02Z</time>
      </trkpt>
      <trkpt lat="46.587098" lon="12.775984">
        <ele>891.206</ele>
        <time>2018-09-09T09:40:18Z</time>
      </trkpt>
      <trkpt lat="46.587536" lon="12.775586">
        <ele>892.726</ele>
        <time>2018-09-09T09:40:38Z</time>
      </trkpt>
      <trkpt lat="46.587908" lon="12.775455">
        <ele>897.508</ele>
        <time>2018-09-09T09:40:55Z</time>
      </trkpt>
      <trkpt lat="46.588204" lon="12.775422">
        <ele>901.322</ele>
        <time>2018-09-09T09:41:09Z</time>
      </trkpt>
      <trkpt lat="46.588600" lon="12.775385">
        <ele>904.294</ele>
        <time>2018-09-09T09:41:27Z</time>
      </trkpt>
      <trkpt lat="46.589036" lon="12.775361">
        <ele>908.592</ele>
        <time>2018-09-09T09:41:47Z</time>
      </trkpt>
      <trkpt lat="46.589436" lon="12.775136">
        <ele>912.947</ele>
        <time>2018-09-09T09:42:07Z</time>
      </trkpt>
      <trkpt lat="46.589787" lon="12.775046">
        <ele>915.761</ele>
        <time>2018-09-09T09:42:24Z</time>
      </trkpt>
      <trkpt lat="46.590186" lon="12.775203">
        <ele>919.633</ele>
        <time>2018-09-09T09:42:44Z</time>
      </trkpt>
      <trkpt lat="46.590589" lon="12.775417">
        <ele>921.092</ele>
        <time>2018-09-09T09:43:02Z</time>
      </trkpt>
      <trkpt lat="46.590894" lon="12.775430">
        <ele>921.587</ele>
        <time>2018-09-09T09:43:17Z</time>
      </trkpt>
      <trkpt lat="46.591087" lon="12.774928">
        <ele>916.753</ele>
        <time>2018-09-09T09:43:32Z</time>
      </trkpt>
      <trkpt lat="46.591290" lon="12.774026">
        <ele>914.804</ele>
        <time>2018-09-09T09:43:52Z</time>
      </trkpt>
      <trkpt lat="46.591182" lon="12.773741">
        <ele>916.214</ele>
        <time>2018-09-09T09:44:04Z</time>
      </trkpt>
      <trkpt lat="46.590884" lon="12.773543">
        <ele>919.608</ele>
        <time>2018-09-09T09:44:20Z</time>
      </trkpt>
      <trkpt lat="46.590533" lon="12.773358">
        <ele>921.579</ele>
        <time>2018-09-09T09:44:37Z</time>
      </trkpt>
      <trkpt lat="46.590140" lon="12.773192">
        <ele>923.461</ele>
        <time>2018-09-09T09:44:53Z</time>
      </trkpt>
      <trkpt lat="46.589750" lon="12.773141">
        <ele>926.829</ele>
        <time>2018-09-09T09:45:12Z</time>
      </trkpt>
      <trkpt lat="46.589409" lon="12.773203">
        <ele>929.284</ele>
        <time>2018-09-09T09:45:29Z</time>
      </trkpt>
      <trkpt lat="46.589082" lon="12.773254">
        <ele>934.558</ele>
        <time>2018-09-09T09:45:46Z</time>
      </trkpt>
      <trkpt lat="46.588763" lon="12.773131">
        <ele>932.650</ele>
        <time>2018-09-09T09:46:02Z</time>
      </trkpt>
      <trkpt lat="46.588555" lon="12.772924">
        <ele>934.589</ele>
        <time>2018-09-09T09:46:15Z</time>
      </trkpt>
      <trkpt lat="46.588339" lon="12.772524">
        <ele>937.924</ele>
        <time>2018-09-09T09:46:31Z</time>
      </trkpt>
      <trkpt lat="46.588070" lon="12.772038">
        <ele>940.785</ele>
        <time>2018-09-09T09:46:50Z</time>
      </trkpt>
      <trkpt lat="46.587866" lon="12.771728">
        <ele>945.589</ele>
        <time>2018-09-09T09:47:05Z</time>
      </trkpt>
      <trkpt lat="46.587637" lon="12.771343">
        <ele>947.017</ele>
        <time>2018-09-09T09:47:23Z</time>
      </trkpt>
      <trkpt lat="46.587453" lon="12.770994">
        <ele>948.008</ele>
        <time>2018-09-09T09:47:39Z</time>
      </trkpt>
      <trkpt lat="46.587257" lon="12.770571">
        <ele>948.912</ele>
        <time>2018-09-09T09:47:57Z</time>
      </trkpt>
      <trkpt lat="46.587048" lon="12.770177">
        <ele>951.344</ele>
        <time>2018-09-09T09:48:14Z</time>
      </trkpt>
      <trkpt lat="46.586792" lon="12.769754">
        <ele>958.572</ele>
        <time>2018-09-09T09:48:33Z</time>
      </trkpt>
      <trkpt lat="46.586714" lon="12.769557">
        <ele>958.547</ele>
        <time>2018-09-09T09:48:41Z</time>
      </trkpt>
      <trkpt lat="46.586702" lon="12.769545">
        <ele>958.511</ele>
        <time>2018-09-09T09:48:42Z</time>
      </trkpt>
      <trkpt lat="46.586689" lon="12.769534">
        <ele>958.543</ele>
        <time>2018-09-09T09:48:43Z</time>
      </trkpt>
      <trkpt lat="46.586359" lon="12.769329">
        <ele>958.542</ele>
        <time>2018-09-09T09:49:03Z</time>
      </trkpt>
      <trkpt lat="46.586121" lon="12.768823">
        <ele>958.077</ele>
        <time>2018-09-09T09:49:23Z</time>
      </trkpt>
      <trkpt lat="46.586019" lon="12.768687">
        <ele>958.588</ele>
        <time>2018-09-09T09:49:29Z</time>
      </trkpt>
      <trkpt lat="46.586000" lon="12.768670">
        <ele>958.524</ele>
        <time>2018-09-09T09:49:30Z</time>
      </trkpt>
      <trkpt lat="46.585983" lon="12.768655">
        <ele>958.526</ele>
        <time>2018-09-09T09:49:31Z</time>
      </trkpt>
      <trkpt lat="46.585830" lon="12.768305">
        <ele>954.708</ele>
        <time>2018-09-09T09:49:45Z</time>
      </trkpt>
      <trkpt lat="46.585823" lon="12.768269">
        <ele>954.732</ele>
        <time>2018-09-09T09:49:46Z</time>
      </trkpt>
      <trkpt lat="46.585843" lon="12.767946">
        <ele>956.634</ele>
        <time>2018-09-09T09:49:47Z</time>
      </trkpt>
      <trkpt lat="46.585948" lon="12.767714">
        <ele>955.682</ele>
        <time>2018-09-09T09:49:48Z</time>
      </trkpt>
      <trkpt lat="46.585957" lon="12.767653">
        <ele>956.657</ele>
        <time>2018-09-09T09:49:49Z</time>
      </trkpt>
      <trkpt lat="46.585949" lon="12.767610">
        <ele>957.681</ele>
        <time>2018-09-09T09:49:50Z</time>
      </trkpt>
      <trkpt lat="46.585854" lon="12.767103">
        <ele>968.683</ele>
        <time>2018-09-09T09:50:05Z</time>
      </trkpt>
      <trkpt lat="46.585699" lon="12.766634">
        <ele>972.572</ele>
        <time>2018-09-09T09:50:21Z</time>
      </trkpt>
      <trkpt lat="46.585491" lon="12.766229">
        <ele>974.977</ele>
        <time>2018-09-09T09:50:36Z</time>
      </trkpt>
      <trkpt lat="46.585227" lon="12.765750">
        <ele>978.722</ele>
        <time>2018-09-09T09:50:54Z</time>
      </trkpt>
      <trkpt lat="46.585002" lon="12.765324">
        <ele>979.262</ele>
        <time>2018-09-09T09:51:10Z</time>
      </trkpt>
      <trkpt lat="46.584676" lon="12.765031">
        <ele>979.208</ele>
        <time>2018-09-09T09:51:27Z</time>
      </trkpt>
      <trkpt lat="46.584221" lon="12.764866">
        <ele>980.208</ele>
        <time>2018-09-09T09:51:48Z</time>
      </trkpt>
      <trkpt lat="46.583933" lon="12.764765">
        <ele>983.556</ele>
        <time>2018-09-09T09:52:02Z</time>
      </trkpt>
      <trkpt lat="46.583559" lon="12.764666">
        <ele>987.478</ele>
        <time>2018-09-09T09:52:19Z</time>
      </trkpt>
      <trkpt lat="46.583129" lon="12.764573">
        <ele>989.356</ele>
        <time>2018-09-09T09:52:37Z</time>
      </trkpt>
      <trkpt lat="46.582670" lon="12.764444">
        <ele>989.311</ele>
        <time>2018-09-09T09:52:54Z</time>
      </trkpt>
      <trkpt lat="46.582211" lon="12.764220">
        <ele>994.165</ele>
        <time>2018-09-09T09:53:13Z</time>
      </trkpt>
      <trkpt lat="46.581940" lon="12.763818">
        <ele>997.927</ele>
        <time>2018-09-09T09:53:30Z</time>
      </trkpt>
      <trkpt lat="46.581765" lon="12.763274">
        <ele>996.546</ele>
        <time>2018-09-09T09:53:45Z</time>
      </trkpt>
      <trkpt lat="46.581603" lon="12.762937">
        <ele>997.061</ele>
        <time>2018-09-09T09:53:56Z</time>
      </trkpt>
      <trkpt lat="46.581330" lon="12.762704">
        <ele>999.494</ele>
        <time>2018-09-09T09:54:10Z</time>
      </trkpt>
      <trkpt lat="46.581311" lon="12.762686">
        <ele>999.957</ele>
        <time>2018-09-09T09:54:11Z</time>
      </trkpt>
      <trkpt lat="46.580947" lon="12.762356">
        <ele>1001.822</ele>
        <time>2018-09-09T09:54:29Z</time>
      </trkpt>
      <trkpt lat="46.580751" lon="12.761974">
        <ele>1001.808</ele>
        <time>2018-09-09T09:54:43Z</time>
      </trkpt>
      <trkpt lat="46.580663" lon="12.761672">
        <ele>1004.733</ele>
        <time>2018-09-09T09:54:53Z</time>
      </trkpt>
      <trkpt lat="46.580652" lon="12.761645">
        <ele>1004.715</ele>
        <time>2018-09-09T09:54:54Z</time>
      </trkpt>
      <trkpt lat="46.580394" lon="12.761341">
        <ele>1009.043</ele>
        <time>2018-09-09T09:55:09Z</time>
      </trkpt>
      <trkpt lat="46.580115" lon="12.761040">
        <ele>1010.498</ele>
        <time>2018-09-09T09:55:24Z</time>
      </trkpt>
      <trkpt lat="46.579833" lon="12.760928">
        <ele>1013.372</ele>
        <time>2018-09-09T09:55:38Z</time>
      </trkpt>
      <trkpt lat="46.579490" lon="12.761055">
        <ele>1021.064</ele>
        <time>2018-09-09T09:55:54Z</time>
      </trkpt>
      <trkpt lat="46.579301" lon="12.760938">
        <ele>1023.913</ele>
        <time>2018-09-09T09:56:07Z</time>
      </trkpt>
      <trkpt lat="46.579077" lon="12.760567">
        <ele>1025.878</ele>
        <time>2018-09-09T09:56:22Z</time>
      </trkpt>
      <trkpt lat="46.578752" lon="12.760087">
        <ele>1029.258</ele>
        <time>2018-09-09T09:56:39Z</time>
      </trkpt>
      <trkpt lat="46.578319" lon="12.759443">
        <ele>1030.152</ele>
        <time>2018-09-09T09:56:56Z</time>
      </trkpt>
      <trkpt lat="46.577883" lon="12.758575">
        <ele>1031.617</ele>
        <time>2018-09-09T09:57:16Z</time>
      </trkpt>
      <trkpt lat="46.577654" lon="12.757887">
        <ele>1035.008</ele>
        <time>2018-09-09T09:57:34Z</time>
      </trkpt>
      <trkpt lat="46.577625" lon="12.757191">
        <ele>1037.889</ele>
        <time>2018-09-09T09:57:51Z</time>
      </trkpt>
      <trkpt lat="46.577749" lon="12.756623">
        <ele>1038.831</ele>
        <time>2018-09-09T09:58:08Z</time>
      </trkpt>
      <trkpt lat="46.577754" lon="12.756482">
        <ele>1039.379</ele>
        <time>2018-09-09T09:58:14Z</time>
      </trkpt>
      <trkpt lat="46.577741" lon="12.756469">
        <ele>1039.354</ele>
        <time>2018-09-09T09:58:15Z</time>
      </trkpt>
      <trkpt lat="46.577730" lon="12.756454">
        <ele>1039.368</ele>
        <time>2018-09-09T09:58:16Z</time>
      </trkpt>
      <trkpt lat="46.577726" lon="12.756436">
        <ele>1039.310</ele>
        <time>2018-09-09T09:58:17Z</time>
      </trkpt>
      <trkpt lat="46.577723" lon="12.756424">
        <ele>1040.789</ele>
        <time>2018-09-09T09:58:31Z</time>
      </trkpt>
      <trkpt lat="46.577735" lon="12.756416">
        <ele>1040.734</ele>
        <time>2018-09-09T09:58:32Z</time>
      </trkpt>
      <trkpt lat="46.577746" lon="12.756406">
        <ele>1040.781</ele>
        <time>2018-09-09T09:58:33Z</time>
      </trkpt>
      <trkpt lat="46.577756" lon="12.756395">
        <ele>1041.261</ele>
        <time>2018-09-09T09:58:34Z</time>
      </trkpt>
      <trkpt lat="46.577768" lon="12.756378">
        <ele>1041.717</ele>
        <time>2018-09-09T09:58:35Z</time>
      </trkpt>
      <trkpt lat="46.577780" lon="12.756353">
        <ele>1041.708</ele>
        <time>2018-09-09T09:58:36Z</time>
      </trkpt>
      <trkpt lat="46.577792" lon="12.756324">
        <ele>1042.222</ele>
        <time>2018-09-09T09:58:37Z</time>
      </trkpt>
      <trkpt lat="46.577802" lon="12.756290">
        <ele>1042.664</ele>
        <time>2018-09-09T09:58:38Z</time>
      </trkpt>
      <trkpt lat="46.577808" lon="12.756250">
        <ele>1042.652</ele>
        <time>2018-09-09T09:58:39Z</time>
      </trkpt>
      <trkpt lat="46.577748" lon="12.755600">
        <ele>1044.117</ele>
        <time>2018-09-09T09:58:55Z</time>
      </trkpt>
      <trkpt lat="46.577516" lon="12.755002">
        <ele>1041.261</ele>
        <time>2018-09-09T09:59:03Z</time>
      </trkpt>
      <trkpt lat="46.577133" lon="12.753649">
        <ele>1037.843</ele>
        <time>2018-09-09T09:59:16Z</time>
      </trkpt>
      <trkpt lat="46.577113" lon="12.753529">
        <ele>1037.872</ele>
        <time>2018-09-09T09:59:17Z</time>
      </trkpt>
      <trkpt lat="46.576921" lon="12.752211">
        <ele>1035.467</ele>
        <time>2018-09-09T09:59:28Z</time>
      </trkpt>
      <trkpt lat="46.576883" lon="12.752100">
        <ele>1035.044</ele>
        <time>2018-09-09T09:59:29Z</time>
      </trkpt>
      <trkpt lat="46.576834" lon="12.751997">
        <ele>1034.505</ele>
        <time>2018-09-09T09:59:30Z</time>
      </trkpt>
      <trkpt lat="46.576773" lon="12.751908">
        <ele>1034.515</ele>
        <time>2018-09-09T09:59:31Z</time>
      </trkpt>
      <trkpt lat="46.576703" lon="12.751833">
        <ele>1034.008</ele>
        <time>2018-09-09T09:59:32Z</time>
      </trkpt>
      <trkpt lat="46.576631" lon="12.751766">
        <ele>1033.588</ele>
        <time>2018-09-09T09:59:33Z</time>
      </trkpt>
      <trkpt lat="46.576559" lon="12.751705">
        <ele>1033.590</ele>
        <time>2018-09-09T09:59:34Z</time>
      </trkpt>
      <trkpt lat="46.575813" lon="12.751321">
        <ele>1034.518</ele>
        <time>2018-09-09T09:59:45Z</time>
      </trkpt>
      <trkpt lat="46.575067" lon="12.750906">
        <ele>1034.063</ele>
        <time>2018-09-09T10:00:00Z</time>
      </trkpt>
      <trkpt lat="46.574092" lon="12.750603">
        <ele>1035.957</ele>
        <time>2018-09-09T10:00:19Z</time>
      </trkpt>
      <trkpt lat="46.573949" lon="12.750512">
        <ele>1035.979</ele>
        <time>2018-09-09T10:00:22Z</time>
      </trkpt>
      <trkpt lat="46.573747" lon="12.750279">
        <ele>1036.968</ele>
        <time>2018-09-09T10:00:27Z</time>
      </trkpt>
      <trkpt lat="46.573718" lon="12.750223">
        <ele>1036.953</ele>
        <time>2018-09-09T10:00:28Z</time>
      </trkpt>
      <trkpt lat="46.573692" lon="12.750167">
        <ele>1036.985</ele>
        <time>2018-09-09T10:00:29Z</time>
      </trkpt>
      <trkpt lat="46.573556" lon="12.749769">
        <ele>1039.389</ele>
        <time>2018-09-09T10:00:36Z</time>
      </trkpt>
      <trkpt lat="46.573539" lon="12.749717">
        <ele>1039.817</ele>
        <time>2018-09-09T10:00:37Z</time>
      </trkpt>
      <trkpt lat="46.573487" lon="12.749555">
        <ele>1040.708</ele>
        <time>2018-09-09T10:00:40Z</time>
      </trkpt>
      <trkpt lat="46.573470" lon="12.749497">
        <ele>1041.242</ele>
        <time>2018-09-09T10:00:41Z</time>
      </trkpt>
      <trkpt lat="46.573409" lon="12.749272">
        <ele>1043.174</ele>
        <time>2018-09-09T10:00:45Z</time>
      </trkpt>
      <trkpt lat="46.573292" lon="12.748894">
        <ele>1045.512</ele>
        <time>2018-09-09T10:00:52Z</time>
      </trkpt>
      <trkpt lat="46.573236" lon="12.748647">
        <ele>1045.577</ele>
        <time>2018-09-09T10:00:56Z</time>
      </trkpt>
      <trkpt lat="46.573045" lon="12.747445">
        <ele>1044.151</ele>
        <time>2018-09-09T10:01:14Z</time>
      </trkpt>
      <trkpt lat="46.572855" lon="12.746584">
        <ele>1044.693</ele>
        <time>2018-09-09T10:01:29Z</time>
      </trkpt>
      <trkpt lat="46.572739" lon="12.745646">
        <ele>1047.012</ele>
        <time>2018-09-09T10:01:47Z</time>
      </trkpt>
      <trkpt lat="46.572555" lon="12.744764">
        <ele>1048.977</ele>
        <time>2018-09-09T10:02:09Z</time>
      </trkpt>
      <trkpt lat="46.572324" lon="12.744189">
        <ele>1050.859</ele>
        <time>2018-09-09T10:02:25Z</time>
      </trkpt>
      <trkpt lat="46.571938" lon="12.743559">
        <ele>1054.203</ele>
        <time>2018-09-09T10:02:44Z</time>
      </trkpt>
      <trkpt lat="46.571458" lon="12.742786">
        <ele>1057.523</ele>
        <time>2018-09-09T10:03:07Z</time>
      </trkpt>
      <trkpt lat="46.571096" lon="12.742150">
        <ele>1060.408</ele>
        <time>2018-09-09T10:03:26Z</time>
      </trkpt>
      <trkpt lat="46.570863" lon="12.741711">
        <ele>1062.839</ele>
        <time>2018-09-09T10:03:43Z</time>
      </trkpt>
      <trkpt lat="46.570644" lon="12.741293">
        <ele>1067.651</ele>
        <time>2018-09-09T10:04:02Z</time>
      </trkpt>
      <trkpt lat="46.570520" lon="12.741053">
        <ele>1067.689</ele>
        <time>2018-09-09T10:04:14Z</time>
      </trkpt>
      <trkpt lat="46.570410" lon="12.740850">
        <ele>1066.744</ele>
        <time>2018-09-09T10:04:25Z</time>
      </trkpt>
      <trkpt lat="46.570270" lon="12.740590">
        <ele>1070.538</ele>
        <time>2018-09-09T10:04:42Z</time>
      </trkpt>
      <trkpt lat="46.570125" lon="12.740328">
        <ele>1072.910</ele>
        <time>2018-09-09T10:05:00Z</time>
      </trkpt>
      <trkpt lat="46.570016" lon="12.740132">
        <ele>1072.999</ele>
        <time>2018-09-09T10:05:13Z</time>
      </trkpt>
      <trkpt lat="46.570009" lon="12.740115">
        <ele>1072.434</ele>
        <time>2018-09-09T10:05:14Z</time>
      </trkpt>
      <trkpt lat="46.569999" lon="12.740104">
        <ele>1072.453</ele>
        <time>2018-09-09T10:05:15Z</time>
      </trkpt>
      <trkpt lat="46.569988" lon="12.740093">
        <ele>1072.404</ele>
        <time>2018-09-09T10:05:16Z</time>
      </trkpt>
      <trkpt lat="46.569979" lon="12.740079">
        <ele>1072.414</ele>
        <time>2018-09-09T10:05:17Z</time>
      </trkpt>
      <trkpt lat="46.569971" lon="12.740062">
        <ele>1072.008</ele>
        <time>2018-09-09T10:05:18Z</time>
      </trkpt>
      <trkpt lat="46.569860" lon="12.739878">
        <ele>1072.499</ele>
        <time>2018-09-09T10:05:30Z</time>
      </trkpt>
      <trkpt lat="46.569850" lon="12.739864">
        <ele>1072.411</ele>
        <time>2018-09-09T10:05:31Z</time>
      </trkpt>
      <trkpt lat="46.569840" lon="12.739848">
        <ele>1072.999</ele>
        <time>2018-09-09T10:05:32Z</time>
      </trkpt>
      <trkpt lat="46.569831" lon="12.739830">
        <ele>1072.994</ele>
        <time>2018-09-09T10:05:33Z</time>
      </trkpt>
      <trkpt lat="46.569822" lon="12.739814">
        <ele>1072.938</ele>
        <time>2018-09-09T10:05:34Z</time>
      </trkpt>
      <trkpt lat="46.569813" lon="12.739799">
        <ele>1072.970</ele>
        <time>2018-09-09T10:05:35Z</time>
      </trkpt>
      <trkpt lat="46.569806" lon="12.739782">
        <ele>1072.979</ele>
        <time>2018-09-09T10:05:36Z</time>
      </trkpt>
      <trkpt lat="46.569799" lon="12.739763">
        <ele>1073.434</ele>
        <time>2018-09-09T10:05:37Z</time>
      </trkpt>
      <trkpt lat="46.569716" lon="12.739583">
        <ele>1075.886</ele>
        <time>2018-09-09T10:05:47Z</time>
      </trkpt>
      <trkpt lat="46.569709" lon="12.739567">
        <ele>1075.860</ele>
        <time>2018-09-09T10:05:48Z</time>
      </trkpt>
      <trkpt lat="46.569701" lon="12.739549">
        <ele>1076.326</ele>
        <time>2018-09-09T10:05:49Z</time>
      </trkpt>
      <trkpt lat="46.569693" lon="12.739533">
        <ele>1076.308</ele>
        <time>2018-09-09T10:05:50Z</time>
      </trkpt>
      <trkpt lat="46.569684" lon="12.739517">
        <ele>1076.852</ele>
        <time>2018-09-09T10:05:51Z</time>
      </trkpt>
      <trkpt lat="46.569677" lon="12.739499">
        <ele>1077.234</ele>
        <time>2018-09-09T10:05:52Z</time>
      </trkpt>
      <trkpt lat="46.569670" lon="12.739482">
        <ele>1077.252</ele>
        <time>2018-09-09T10:05:53Z</time>
      </trkpt>
      <trkpt lat="46.569584" lon="12.739249">
        <ele>1081.687</ele>
        <time>2018-09-09T10:06:07Z</time>
      </trkpt>
      <trkpt lat="46.569516" lon="12.739062">
        <ele>1084.041</ele>
        <time>2018-09-09T10:06:20Z</time>
      </trkpt>
      <trkpt lat="46.569451" lon="12.738833">
        <ele>1089.353</ele>
        <time>2018-09-09T10:06:36Z</time>
      </trkpt>
      <trkpt lat="46.569363" lon="12.738672">
        <ele>1095.082</ele>
        <time>2018-09-09T10:06:51Z</time>
      </trkpt>
      <trkpt lat="46.569324" lon="12.738581">
        <ele>1097.457</ele>
        <time>2018-09-09T10:06:59Z</time>
      </trkpt>
      <trkpt lat="46.569317" lon="12.738569">
        <ele>1097.916</ele>
        <time>2018-09-09T10:07:00Z</time>
      </trkpt>
      <trkpt lat="46.569309" lon="12.738557">
        <ele>1097.976</ele>
        <time>2018-09-09T10:07:01Z</time>
      </trkpt>
      <trkpt lat="46.569209" lon="12.738397">
        <ele>1100.813</ele>
        <time>2018-09-09T10:07:15Z</time>
      </trkpt>
      <trkpt lat="46.569186" lon="12.738362">
        <ele>1101.308</ele>
        <time>2018-09-09T10:07:18Z</time>
      </trkpt>
      <trkpt lat="46.569180" lon="12.738347">
        <ele>1101.385</ele>
        <time>2018-09-09T10:07:19Z</time>
      </trkpt>
      <trkpt lat="46.569102" lon="12.738231">
        <ele>1102.227</ele>
        <time>2018-09-09T10:07:29Z</time>
      </trkpt>
      <trkpt lat="46.569093" lon="12.738222">
        <ele>1102.295</ele>
        <time>2018-09-09T10:07:30Z</time>
      </trkpt>
      <trkpt lat="46.569085" lon="12.738209">
        <ele>1102.240</ele>
        <time>2018-09-09T10:07:31Z</time>
      </trkpt>
      <trkpt lat="46.569077" lon="12.738198">
        <ele>1102.784</ele>
        <time>2018-09-09T10:07:32Z</time>
      </trkpt>
      <trkpt lat="46.569068" lon="12.738185">
        <ele>1102.746</ele>
        <time>2018-09-09T10:07:33Z</time>
      </trkpt>
      <trkpt lat="46.569060" lon="12.738172">
        <ele>1102.775</ele>
        <time>2018-09-09T10:07:34Z</time>
      </trkpt>
      <trkpt lat="46.569053" lon="12.738158">
        <ele>1103.240</ele>
        <time>2018-09-09T10:07:35Z</time>
      </trkpt>
      <trkpt lat="46.569048" lon="12.738143">
        <ele>1103.245</ele>
        <time>2018-09-09T10:07:36Z</time>
      </trkpt>
      <trkpt lat="46.569040" lon="12.738130">
        <ele>1102.747</ele>
        <time>2018-09-09T10:07:37Z</time>
      </trkpt>
      <trkpt lat="46.569032" lon="12.738118">
        <ele>1103.211</ele>
        <time>2018-09-09T10:07:38Z</time>
      </trkpt>
      <trkpt lat="46.569023" lon="12.738106">
        <ele>1103.708</ele>
        <time>2018-09-09T10:07:39Z</time>
      </trkpt>
      <trkpt lat="46.569014" lon="12.738093">
        <ele>1103.788</ele>
        <time>2018-09-09T10:07:40Z</time>
      </trkpt>
      <trkpt lat="46.569005" lon="12.738078">
        <ele>1103.720</ele>
        <time>2018-09-09T10:07:41Z</time>
      </trkpt>
      <trkpt lat="46.568998" lon="12.738062">
        <ele>1103.738</ele>
        <time>2018-09-09T10:07:42Z</time>
      </trkpt>
      <trkpt lat="46.568991" lon="12.738047">
        <ele>1103.743</ele>
        <time>2018-09-09T10:07:43Z</time>
      </trkpt>
      <trkpt lat="46.568983" lon="12.738032">
        <ele>1103.787</ele>
        <time>2018-09-09T10:07:44Z</time>
      </trkpt>
      <trkpt lat="46.568975" lon="12.738016">
        <ele>1103.729</ele>
        <time>2018-09-09T10:07:45Z</time>
      </trkpt>
      <trkpt lat="46.568963" lon="12.738004">
        <ele>1104.248</ele>
        <time>2018-09-09T10:07:46Z</time>
      </trkpt>
      <trkpt lat="46.568951" lon="12.737994">
        <ele>1104.233</ele>
        <time>2018-09-09T10:07:47Z</time>
      </trkpt>
      <trkpt lat="46.568943" lon="12.737980">
        <ele>1104.697</ele>
        <time>2018-09-09T10:07:48Z</time>
      </trkpt>
      <trkpt lat="46.568766" lon="12.737756">
        <ele>1106.123</ele>
        <time>2018-09-09T10:08:05Z</time>
      </trkpt>
      <trkpt lat="46.568572" lon="12.737521">
        <ele>1108.025</ele>
        <time>2018-09-09T10:08:24Z</time>
      </trkpt>
      <trkpt lat="46.568436" lon="12.737233">
        <ele>1108.508</ele>
        <time>2018-09-09T10:08:41Z</time>
      </trkpt>
      <trkpt lat="46.568290" lon="12.736955">
        <ele>1110.493</ele>
        <time>2018-09-09T10:08:57Z</time>
      </trkpt>
      <trkpt lat="46.568058" lon="12.736808">
        <ele>1112.365</ele>
        <time>2018-09-09T10:09:13Z</time>
      </trkpt>
      <trkpt lat="46.567804" lon="12.736674">
        <ele>1114.713</ele>
        <time>2018-09-09T10:09:30Z</time>
      </trkpt>
      <trkpt lat="46.567635" lon="12.736534">
        <ele>1115.278</ele>
        <time>2018-09-09T10:09:43Z</time>
      </trkpt>
      <trkpt lat="46.567417" lon="12.736383">
        <ele>1120.052</ele>
        <time>2018-09-09T10:10:02Z</time>
      </trkpt>
      <trkpt lat="46.567253" lon="12.736227">
        <ele>1125.884</ele>
        <time>2018-09-09T10:10:18Z</time>
      </trkpt>
      <trkpt lat="46.567123" lon="12.735941">
        <ele>1129.243</ele>
        <time>2018-09-09T10:10:35Z</time>
      </trkpt>
      <trkpt lat="46.567009" lon="12.735683">
        <ele>1132.588</ele>
        <time>2018-09-09T10:10:51Z</time>
      </trkpt>
      <trkpt lat="46.566819" lon="12.735467">
        <ele>1134.414</ele>
        <time>2018-09-09T10:11:08Z</time>
      </trkpt>
      <trkpt lat="46.566703" lon="12.735324">
        <ele>1137.354</ele>
        <time>2018-09-09T10:11:19Z</time>
      </trkpt>
      <trkpt lat="46.566694" lon="12.735309">
        <ele>1137.809</ele>
        <time>2018-09-09T10:11:20Z</time>
      </trkpt>
      <trkpt lat="46.566549" lon="12.735136">
        <ele>1143.108</ele>
        <time>2018-09-09T10:11:36Z</time>
      </trkpt>
      <trkpt lat="46.566539" lon="12.735122">
        <ele>1143.195</ele>
        <time>2018-09-09T10:11:37Z</time>
      </trkpt>
      <trkpt lat="46.566530" lon="12.735107">
        <ele>1143.657</ele>
        <time>2018-09-09T10:11:38Z</time>
      </trkpt>
      <trkpt lat="46.566520" lon="12.735098">
        <ele>1144.145</ele>
        <time>2018-09-09T10:11:39Z</time>
      </trkpt>
      <trkpt lat="46.566510" lon="12.735084">
        <ele>1144.160</ele>
        <time>2018-09-09T10:11:40Z</time>
      </trkpt>
      <trkpt lat="46.566500" lon="12.735071">
        <ele>1144.534</ele>
        <time>2018-09-09T10:11:41Z</time>
      </trkpt>
      <trkpt lat="46.566489" lon="12.735063">
        <ele>1145.026</ele>
        <time>2018-09-09T10:11:42Z</time>
      </trkpt>
      <trkpt lat="46.566388" lon="12.734922">
        <ele>1147.985</ele>
        <time>2018-09-09T10:11:54Z</time>
      </trkpt>
      <trkpt lat="46.566277" lon="12.734746">
        <ele>1150.310</ele>
        <time>2018-09-09T10:12:07Z</time>
      </trkpt>
      <trkpt lat="46.566267" lon="12.734731">
        <ele>1150.343</ele>
        <time>2018-09-09T10:12:08Z</time>
      </trkpt>
      <trkpt lat="46.566102" lon="12.734485">
        <ele>1152.764</ele>
        <time>2018-09-09T10:12:24Z</time>
      </trkpt>
      <trkpt lat="46.565907" lon="12.734215">
        <ele>1152.210</ele>
        <time>2018-09-09T10:12:43Z</time>
      </trkpt>
      <trkpt lat="46.565735" lon="12.733915">
        <ele>1153.708</ele>
        <time>2018-09-09T10:13:02Z</time>
      </trkpt>
      <trkpt lat="46.565734" lon="12.733859">
        <ele>1153.738</ele>
        <time>2018-09-09T10:13:05Z</time>
      </trkpt>
      <trkpt lat="46.565813" lon="12.733777">
        <ele>1155.140</ele>
        <time>2018-09-09T10:13:14Z</time>
      </trkpt>
      <trkpt lat="46.565827" lon="12.733779">
        <ele>1155.198</ele>
        <time>2018-09-09T10:13:15Z</time>
      </trkpt>
      <trkpt lat="46.565840" lon="12.733781">
        <ele>1155.653</ele>
        <time>2018-09-09T10:13:16Z</time>
      </trkpt>
      <trkpt lat="46.565853" lon="12.733780">
        <ele>1155.667</ele>
        <time>2018-09-09T10:13:17Z</time>
      </trkpt>
      <trkpt lat="46.565865" lon="12.733781">
        <ele>1155.669</ele>
        <time>2018-09-09T10:13:18Z</time>
      </trkpt>
      <trkpt lat="46.565877" lon="12.733784">
        <ele>1155.628</ele>
        <time>2018-09-09T10:13:19Z</time>
      </trkpt>
      <trkpt lat="46.565889" lon="12.733785">
        <ele>1155.673</ele>
        <time>2018-09-09T10:13:20Z</time>
      </trkpt>
      <trkpt lat="46.565901" lon="12.733786">
        <ele>1155.692</ele>
        <time>2018-09-09T10:13:21Z</time>
      </trkpt>
      <trkpt lat="46.565914" lon="12.733787">
        <ele>1155.673</ele>
        <time>2018-09-09T10:13:22Z</time>
      </trkpt>
      <trkpt lat="46.566173" lon="12.733823">
        <ele>1157.520</ele>
        <time>2018-09-09T10:13:41Z</time>
      </trkpt>
      <trkpt lat="46.566390" lon="12.733899">
        <ele>1160.908</ele>
        <time>2018-09-09T10:13:58Z</time>
      </trkpt>
      <trkpt lat="46.566680" lon="12.734121">
        <ele>1162.363</ele>
        <time>2018-09-09T10:14:16Z</time>
      </trkpt>
      <trkpt lat="46.566808" lon="12.733938">
        <ele>1165.785</ele>
        <time>2018-09-09T10:14:28Z</time>
      </trkpt>
      <trkpt lat="46.566797" lon="12.733915">
        <ele>1165.793</ele>
        <time>2018-09-09T10:14:29Z</time>
      </trkpt>
      <trkpt lat="46.566783" lon="12.733893">
        <ele>1166.268</ele>
        <time>2018-09-09T10:14:30Z</time>
      </trkpt>
      <trkpt lat="46.566766" lon="12.733872">
        <ele>1166.262</ele>
        <time>2018-09-09T10:14:31Z</time>
      </trkpt>
      <trkpt lat="46.566747" lon="12.733853">
        <ele>1166.254</ele>
        <time>2018-09-09T10:14:32Z</time>
      </trkpt>
      <trkpt lat="46.566727" lon="12.733836">
        <ele>1166.783</ele>
        <time>2018-09-09T10:14:33Z</time>
      </trkpt>
      <trkpt lat="46.566704" lon="12.733821">
        <ele>1166.788</ele>
        <time>2018-09-09T10:14:34Z</time>
      </trkpt>
      <trkpt lat="46.566679" lon="12.733803">
        <ele>1166.252</ele>
        <time>2018-09-09T10:14:35Z</time>
      </trkpt>
      <trkpt lat="46.566374" lon="12.733454">
        <ele>1165.753</ele>
        <time>2018-09-09T10:14:50Z</time>
      </trkpt>
      <trkpt lat="46.566112" lon="12.733098">
        <ele>1169.508</ele>
        <time>2018-09-09T10:15:05Z</time>
      </trkpt>
      <trkpt lat="46.565913" lon="12.732672">
        <ele>1172.908</ele>
        <time>2018-09-09T10:15:23Z</time>
      </trkpt>
      <trkpt lat="46.565887" lon="12.732216">
        <ele>1175.359</ele>
        <time>2018-09-09T10:15:41Z</time>
      </trkpt>
      <trkpt lat="46.565881" lon="12.731807">
        <ele>1179.111</ele>
        <time>2018-09-09T10:15:58Z</time>
      </trkpt>
      <trkpt lat="46.565876" lon="12.731359">
        <ele>1183.569</ele>
        <time>2018-09-09T10:16:16Z</time>
      </trkpt>
      <trkpt lat="46.565869" lon="12.730980">
        <ele>1185.434</ele>
        <time>2018-09-09T10:16:31Z</time>
      </trkpt>
      <trkpt lat="46.565850" lon="12.730500">
        <ele>1186.878</ele>
        <time>2018-09-09T10:16:48Z</time>
      </trkpt>
      <trkpt lat="46.565835" lon="12.730082">
        <ele>1190.710</ele>
        <time>2018-09-09T10:17:06Z</time>
      </trkpt>
      <trkpt lat="46.565789" lon="12.729687">
        <ele>1195.549</ele>
        <time>2018-09-09T10:17:23Z</time>
      </trkpt>
      <trkpt lat="46.565766" lon="12.729284">
        <ele>1198.984</ele>
        <time>2018-09-09T10:17:39Z</time>
      </trkpt>
      <trkpt lat="46.565814" lon="12.728898">
        <ele>1202.749</ele>
        <time>2018-09-09T10:17:55Z</time>
      </trkpt>
      <trkpt lat="46.565928" lon="12.728636">
        <ele>1205.602</ele>
        <time>2018-09-09T10:18:11Z</time>
      </trkpt>
      <trkpt lat="46.566079" lon="12.728378">
        <ele>1208.522</ele>
        <time>2018-09-09T10:18:28Z</time>
      </trkpt>
      <trkpt lat="46.566220" lon="12.728045">
        <ele>1209.908</ele>
        <time>2018-09-09T10:18:47Z</time>
      </trkpt>
      <trkpt lat="46.566322" lon="12.727968">
        <ele>1210.458</ele>
        <time>2018-09-09T10:18:55Z</time>
      </trkpt>
      <trkpt lat="46.566337" lon="12.727979">
        <ele>1210.980</ele>
        <time>2018-09-09T10:18:56Z</time>
      </trkpt>
      <trkpt lat="46.566350" lon="12.727992">
        <ele>1210.958</ele>
        <time>2018-09-09T10:18:57Z</time>
      </trkpt>
      <trkpt lat="46.566359" lon="12.728008">
        <ele>1211.413</ele>
        <time>2018-09-09T10:18:58Z</time>
      </trkpt>
      <trkpt lat="46.566367" lon="12.728028">
        <ele>1211.477</ele>
        <time>2018-09-09T10:18:59Z</time>
      </trkpt>
      <trkpt lat="46.566371" lon="12.728049">
        <ele>1211.469</ele>
        <time>2018-09-09T10:19:00Z</time>
      </trkpt>
      <trkpt lat="46.566374" lon="12.728072">
        <ele>1211.448</ele>
        <time>2018-09-09T10:19:01Z</time>
      </trkpt>
      <trkpt lat="46.566376" lon="12.728096">
        <ele>1211.843</ele>
        <time>2018-09-09T10:19:02Z</time>
      </trkpt>
      <trkpt lat="46.566296" lon="12.728397">
        <ele>1212.892</ele>
        <time>2018-09-09T10:19:16Z</time>
      </trkpt>
      <trkpt lat="46.566129" lon="12.728755">
        <ele>1215.773</ele>
        <time>2018-09-09T10:19:33Z</time>
      </trkpt>
      <trkpt lat="46.566053" lon="12.729026">
        <ele>1217.620</ele>
        <time>2018-09-09T10:19:45Z</time>
      </trkpt>
      <trkpt lat="46.566059" lon="12.729082">
        <ele>1217.608</ele>
        <time>2018-09-09T10:19:47Z</time>
      </trkpt>
      <trkpt lat="46.566071" lon="12.729105">
        <ele>1218.153</ele>
        <time>2018-09-09T10:19:48Z</time>
      </trkpt>
      <trkpt lat="46.566083" lon="12.729129">
        <ele>1218.195</ele>
        <time>2018-09-09T10:19:49Z</time>
      </trkpt>
      <trkpt lat="46.566093" lon="12.729157">
        <ele>1218.653</ele>
        <time>2018-09-09T10:19:50Z</time>
      </trkpt>
      <trkpt lat="46.566105" lon="12.729180">
        <ele>1219.068</ele>
        <time>2018-09-09T10:19:51Z</time>
      </trkpt>
      <trkpt lat="46.566319" lon="12.729203">
        <ele>1220.562</ele>
        <time>2018-09-09T10:20:04Z</time>
      </trkpt>
      <trkpt lat="46.566468" lon="12.728845">
        <ele>1223.464</ele>
        <time>2018-09-09T10:20:19Z</time>
      </trkpt>
      <trkpt lat="46.566601" lon="12.728379">
        <ele>1228.783</ele>
        <time>2018-09-09T10:20:36Z</time>
      </trkpt>
      <trkpt lat="46.566708" lon="12.728022">
        <ele>1232.538</ele>
        <time>2018-09-09T10:20:52Z</time>
      </trkpt>
      <trkpt lat="46.566820" lon="12.727591">
        <ele>1235.916</ele>
        <time>2018-09-09T10:21:12Z</time>
      </trkpt>
      <trkpt lat="46.566926" lon="12.727198">
        <ele>1240.276</ele>
        <time>2018-09-09T10:21:30Z</time>
      </trkpt>
      <trkpt lat="46.567038" lon="12.726824">
        <ele>1242.613</ele>
        <time>2018-09-09T10:21:49Z</time>
      </trkpt>
      <trkpt lat="46.567118" lon="12.726456">
        <ele>1246.908</ele>
        <time>2018-09-09T10:22:06Z</time>
      </trkpt>
      <trkpt lat="46.567088" lon="12.726025">
        <ele>1256.565</ele>
        <time>2018-09-09T10:22:25Z</time>
      </trkpt>
      <trkpt lat="46.567009" lon="12.725786">
        <ele>1253.227</ele>
        <time>2018-09-09T10:22:39Z</time>
      </trkpt>
      <trkpt lat="46.566935" lon="12.725672">
        <ele>1252.785</ele>
        <time>2018-09-09T10:22:48Z</time>
      </trkpt>
      <trkpt lat="46.566870" lon="12.725602">
        <ele>1253.230</ele>
        <time>2018-09-09T10:22:54Z</time>
      </trkpt>
      <trkpt lat="46.566806" lon="12.725518">
        <ele>1258.984</ele>
        <time>2018-09-09T10:23:09Z</time>
      </trkpt>
      <trkpt lat="46.566557" lon="12.725334">
        <ele>1258.086</ele>
        <time>2018-09-09T10:23:26Z</time>
      </trkpt>
      <trkpt lat="46.566166" lon="12.725068">
        <ele>1256.155</ele>
        <time>2018-09-09T10:23:48Z</time>
      </trkpt>
      <trkpt lat="46.565820" lon="12.724400">
        <ele>1255.670</ele>
        <time>2018-09-09T10:24:19Z</time>
      </trkpt>
      <trkpt lat="46.565824" lon="12.724286">
        <ele>1255.689</ele>
        <time>2018-09-09T10:24:20Z</time>
      </trkpt>
      <trkpt lat="46.565817" lon="12.724235">
        <ele>1256.106</ele>
        <time>2018-09-09T10:24:21Z</time>
      </trkpt>
      <trkpt lat="46.565808" lon="12.724187">
        <ele>1256.526</ele>
        <time>2018-09-09T10:24:22Z</time>
      </trkpt>
      <trkpt lat="46.565647" lon="12.723797">
        <ele>1265.208</ele>
        <time>2018-09-09T10:24:39Z</time>
      </trkpt>
      <trkpt lat="46.565507" lon="12.723481">
        <ele>1267.132</ele>
        <time>2018-09-09T10:24:56Z</time>
      </trkpt>
      <trkpt lat="46.565358" lon="12.723087">
        <ele>1271.054</ele>
        <time>2018-09-09T10:25:15Z</time>
      </trkpt>
      <trkpt lat="46.565307" lon="12.722674">
        <ele>1272.442</ele>
        <time>2018-09-09T10:25:31Z</time>
      </trkpt>
      <trkpt lat="46.565290" lon="12.722257">
        <ele>1276.217</ele>
        <time>2018-09-09T10:25:49Z</time>
      </trkpt>
      <trkpt lat="46.565319" lon="12.721937">
        <ele>1278.671</ele>
        <time>2018-09-09T10:26:03Z</time>
      </trkpt>
      <trkpt lat="46.565533" lon="12.721615">
        <ele>1278.283</ele>
        <time>2018-09-09T10:26:20Z</time>
      </trkpt>
      <trkpt lat="46.565868" lon="12.721133">
        <ele>1279.112</ele>
        <time>2018-09-09T10:26:37Z</time>
      </trkpt>
      <trkpt lat="46.566105" lon="12.720490">
        <ele>1280.657</ele>
        <time>2018-09-09T10:26:54Z</time>
      </trkpt>
      <trkpt lat="46.566359" lon="12.719793">
        <ele>1279.112</ele>
        <time>2018-09-09T10:27:12Z</time>
      </trkpt>
      <trkpt lat="46.566676" lon="12.719730">
        <ele>1280.632</ele>
        <time>2018-09-09T10:27:24Z</time>
      </trkpt>
      <trkpt lat="46.567120" lon="12.720074">
        <ele>1283.505</ele>
        <time>2018-09-09T10:27:44Z</time>
      </trkpt>
      <trkpt lat="46.567504" lon="12.720360">
        <ele>1285.408</ele>
        <time>2018-09-09T10:28:01Z</time>
      </trkpt>
      <trkpt lat="46.568041" lon="12.720753">
        <ele>1287.815</ele>
        <time>2018-09-09T10:28:24Z</time>
      </trkpt>
      <trkpt lat="46.568521" lon="12.721122">
        <ele>1290.277</ele>
        <time>2018-09-09T10:28:46Z</time>
      </trkpt>
      <trkpt lat="46.568772" lon="12.721295">
        <ele>1292.135</ele>
        <time>2018-09-09T10:28:59Z</time>
      </trkpt>
      <trkpt lat="46.569085" lon="12.721343">
        <ele>1292.650</ele>
        <time>2018-09-09T10:29:14Z</time>
      </trkpt>
      <trkpt lat="46.569110" lon="12.721371">
        <ele>1293.114</ele>
        <time>2018-09-09T10:29:16Z</time>
      </trkpt>
      <trkpt lat="46.569117" lon="12.721395">
        <ele>1293.136</ele>
        <time>2018-09-09T10:29:17Z</time>
      </trkpt>
      <trkpt lat="46.569122" lon="12.721417">
        <ele>1293.165</ele>
        <time>2018-09-09T10:29:18Z</time>
      </trkpt>
      <trkpt lat="46.569131" lon="12.721442">
        <ele>1293.190</ele>
        <time>2018-09-09T10:29:19Z</time>
      </trkpt>
      <trkpt lat="46.569145" lon="12.721467">
        <ele>1293.147</ele>
        <time>2018-09-09T10:29:20Z</time>
      </trkpt>
      <trkpt lat="46.569181" lon="12.721532">
        <ele>1293.529</ele>
        <time>2018-09-09T10:29:23Z</time>
      </trkpt>
      <trkpt lat="46.569179" lon="12.721555">
        <ele>1293.521</ele>
        <time>2018-09-09T10:29:24Z</time>
      </trkpt>
      <trkpt lat="46.569176" lon="12.721573">
        <ele>1293.508</ele>
        <time>2018-09-09T10:29:25Z</time>
      </trkpt>
      <trkpt lat="46.569167" lon="12.721575">
        <ele>1295.568</ele>
        <time>2018-09-09T10:29:36Z</time>
      </trkpt>
      <trkpt lat="46.569153" lon="12.721546">
        <ele>1295.090</ele>
        <time>2018-09-09T10:30:07Z</time>
      </trkpt>
      <trkpt lat="46.569134" lon="12.721530">
        <ele>1298.818</ele>
        <time>2018-09-09T10:30:39Z</time>
      </trkpt>
      <trkpt lat="46.569134" lon="12.721578">
        <ele>1299.363</ele>
        <time>2018-09-09T10:31:11Z</time>
      </trkpt>
      <trkpt lat="46.569172" lon="12.721619">
        <ele>1297.417</ele>
        <time>2018-09-09T10:31:28Z</time>
      </trkpt>
      <trkpt lat="46.569193" lon="12.721655">
        <ele>1296.969</ele>
        <time>2018-09-09T10:31:44Z</time>
      </trkpt>
      <trkpt lat="46.569191" lon="12.721647">
        <ele>1297.458</ele>
        <time>2018-09-09T10:32:18Z</time>
      </trkpt>
      <trkpt lat="46.569185" lon="12.721639">
        <ele>1299.373</ele>
        <time>2018-09-09T10:32:49Z</time>
      </trkpt>
      <trkpt lat="46.569187" lon="12.721652">
        <ele>1299.329</ele>
        <time>2018-09-09T10:33:26Z</time>
      </trkpt>
      <trkpt lat="46.569217" lon="12.721673">
        <ele>1298.800</ele>
        <time>2018-09-09T10:34:00Z</time>
      </trkpt>
      <trkpt lat="46.569211" lon="12.721679">
        <ele>1293.520</ele>
        <time>2018-09-09T10:34:41Z</time>
      </trkpt>
      <trkpt lat="46.569188" lon="12.721656">
        <ele>1294.008</ele>
        <time>2018-09-09T10:35:19Z</time>
      </trkpt>
      <trkpt lat="46.569187" lon="12.721687">
        <ele>1293.516</ele>
        <time>2018-09-09T10:36:05Z</time>
      </trkpt>
      <trkpt lat="46.569152" lon="12.721680">
        <ele>1294.528</ele>
        <time>2018-09-09T10:36:43Z</time>
      </trkpt>
      <trkpt lat="46.569154" lon="12.721670">
        <ele>1295.056</ele>
        <time>2018-09-09T10:37:11Z</time>
      </trkpt>
      <trkpt lat="46.569148" lon="12.721663">
        <ele>1295.591</ele>
        <time>2018-09-09T10:37:38Z</time>
      </trkpt>
      <trkpt lat="46.569161" lon="12.721666">
        <ele>1294.525</ele>
        <time>2018-09-09T10:38:18Z</time>
      </trkpt>
      <trkpt lat="46.569156" lon="12.721634">
        <ele>1294.527</ele>
        <time>2018-09-09T10:38:53Z</time>
      </trkpt>
      <trkpt lat="46.569170" lon="12.721664">
        <ele>1294.096</ele>
        <time>2018-09-09T10:39:18Z</time>
      </trkpt>
      <trkpt lat="46.569164" lon="12.721667">
        <ele>1293.551</ele>
        <time>2018-09-09T10:39:53Z</time>
      </trkpt>
      <trkpt lat="46.569164" lon="12.721645">
        <ele>1295.539</ele>
        <time>2018-09-09T10:40:24Z</time>
      </trkpt>
      <trkpt lat="46.569171" lon="12.721652">
        <ele>1294.501</ele>
        <time>2018-09-09T10:41:02Z</time>
      </trkpt>
      <trkpt lat="46.569161" lon="12.721661">
        <ele>1295.021</ele>
        <time>2018-09-09T10:41:44Z</time>
      </trkpt>
      <trkpt lat="46.569146" lon="12.721634">
        <ele>1295.908</ele>
        <time>2018-09-09T10:42:15Z</time>
      </trkpt>
      <trkpt lat="46.569169" lon="12.721658">
        <ele>1297.417</ele>
        <time>2018-09-09T10:42:40Z</time>
      </trkpt>
      <trkpt lat="46.569169" lon="12.721656">
        <ele>1297.919</ele>
        <time>2018-09-09T10:43:12Z</time>
      </trkpt>
      <trkpt lat="46.569152" lon="12.721627">
        <ele>1298.477</ele>
        <time>2018-09-09T10:43:49Z</time>
      </trkpt>
      <trkpt lat="46.569157" lon="12.721638">
        <ele>1298.462</ele>
        <time>2018-09-09T10:44:25Z</time>
      </trkpt>
      <trkpt lat="46.569153" lon="12.721645">
        <ele>1296.486</ele>
        <time>2018-09-09T10:44:55Z</time>
      </trkpt>
      <trkpt lat="46.569171" lon="12.721664">
        <ele>1295.038</ele>
        <time>2018-09-09T10:45:36Z</time>
      </trkpt>
      <trkpt lat="46.569200" lon="12.721664">
        <ele>1294.047</ele>
        <time>2018-09-09T10:46:00Z</time>
      </trkpt>
      <trkpt lat="46.569200" lon="12.721674">
        <ele>1293.552</ele>
        <time>2018-09-09T10:46:31Z</time>
      </trkpt>
      <trkpt lat="46.569186" lon="12.721661">
        <ele>1295.988</ele>
        <time>2018-09-09T10:47:04Z</time>
      </trkpt>
      <trkpt lat="46.569169" lon="12.721655">
        <ele>1298.424</ele>
        <time>2018-09-09T10:47:34Z</time>
      </trkpt>
      <trkpt lat="46.569154" lon="12.721638">
        <ele>1300.826</ele>
        <time>2018-09-09T10:48:08Z</time>
      </trkpt>
      <trkpt lat="46.569143" lon="12.721651">
        <ele>1303.608</ele>
        <time>2018-09-09T10:48:37Z</time>
      </trkpt>
      <trkpt lat="46.569149" lon="12.721640">
        <ele>1302.282</ele>
        <time>2018-09-09T10:49:05Z</time>
      </trkpt>
      <trkpt lat="46.569146" lon="12.721649">
        <ele>1301.234</ele>
        <time>2018-09-09T10:49:33Z</time>
      </trkpt>
      <trkpt lat="46.569165" lon="12.721659">
        <ele>1298.852</ele>
        <time>2018-09-09T10:50:04Z</time>
      </trkpt>
      <trkpt lat="46.569168" lon="12.721659">
        <ele>1296.497</ele>
        <time>2018-09-09T10:50:40Z</time>
      </trkpt>
      <trkpt lat="46.569191" lon="12.721675">
        <ele>1294.581</ele>
        <time>2018-09-09T10:51:11Z</time>
      </trkpt>
      <trkpt lat="46.569186" lon="12.721695">
        <ele>1292.613</ele>
        <time>2018-09-09T10:51:47Z</time>
      </trkpt>
      <trkpt lat="46.569201" lon="12.721672">
        <ele>1292.662</ele>
        <time>2018-09-09T10:52:20Z</time>
      </trkpt>
      <trkpt lat="46.569160" lon="12.721657">
        <ele>1293.137</ele>
        <time>2018-09-09T10:52:58Z</time>
      </trkpt>
      <trkpt lat="46.569166" lon="12.721650">
        <ele>1295.943</ele>
        <time>2018-09-09T10:53:25Z</time>
      </trkpt>
      <trkpt lat="46.569172" lon="12.721633">
        <ele>1297.464</ele>
        <time>2018-09-09T10:53:54Z</time>
      </trkpt>
      <trkpt lat="46.569176" lon="12.721621">
        <ele>1297.910</ele>
        <time>2018-09-09T10:54:30Z</time>
      </trkpt>
      <trkpt lat="46.569186" lon="12.721663">
        <ele>1296.908</ele>
        <time>2018-09-09T10:55:07Z</time>
      </trkpt>
      <trkpt lat="46.569185" lon="12.721643">
        <ele>1297.968</ele>
        <time>2018-09-09T10:55:40Z</time>
      </trkpt>
      <trkpt lat="46.569192" lon="12.721657">
        <ele>1297.450</ele>
        <time>2018-09-09T10:56:13Z</time>
      </trkpt>
      <trkpt lat="46.569195" lon="12.721640">
        <ele>1297.458</ele>
        <time>2018-09-09T10:56:46Z</time>
      </trkpt>
      <trkpt lat="46.569171" lon="12.721649">
        <ele>1297.493</ele>
        <time>2018-09-09T10:57:18Z</time>
      </trkpt>
      <trkpt lat="46.569184" lon="12.721659">
        <ele>1297.487</ele>
        <time>2018-09-09T10:57:52Z</time>
      </trkpt>
      <trkpt lat="46.569185" lon="12.721667">
        <ele>1295.959</ele>
        <time>2018-09-09T10:58:21Z</time>
      </trkpt>
      <trkpt lat="46.569207" lon="12.721660">
        <ele>1295.988</ele>
        <time>2018-09-09T10:58:54Z</time>
      </trkpt>
      <trkpt lat="46.569195" lon="12.721658">
        <ele>1295.053</ele>
        <time>2018-09-09T10:59:25Z</time>
      </trkpt>
      <trkpt lat="46.569169" lon="12.721658">
        <ele>1294.568</ele>
        <time>2018-09-09T10:59:59Z</time>
      </trkpt>
      <trkpt lat="46.569192" lon="12.721643">
        <ele>1295.542</ele>
        <time>2018-09-09T11:00:26Z</time>
      </trkpt>
      <trkpt lat="46.569179" lon="12.721672">
        <ele>1294.526</ele>
        <time>2018-09-09T11:00:42Z</time>
      </trkpt>
      <trkpt lat="46.569174" lon="12.721675">
        <ele>1293.108</ele>
        <time>2018-09-09T11:01:22Z</time>
      </trkpt>
      <trkpt lat="46.569194" lon="12.721669">
        <ele>1294.580</ele>
        <time>2018-09-09T11:01:52Z</time>
      </trkpt>
      <trkpt lat="46.569186" lon="12.721682">
        <ele>1295.932</ele>
        <time>2018-09-09T11:02:28Z</time>
      </trkpt>
      <trkpt lat="46.569212" lon="12.721696">
        <ele>1293.510</ele>
        <time>2018-09-09T11:03:01Z</time>
      </trkpt>
      <trkpt lat="46.569188" lon="12.721703">
        <ele>1292.145</ele>
        <time>2018-09-09T11:03:31Z</time>
      </trkpt>
      <trkpt lat="46.569215" lon="12.721677">
        <ele>1293.199</ele>
        <time>2018-09-09T11:04:03Z</time>
      </trkpt>
      <trkpt lat="46.569208" lon="12.721688">
        <ele>1294.031</ele>
        <time>2018-09-09T11:04:39Z</time>
      </trkpt>
      <trkpt lat="46.569222" lon="12.721701">
        <ele>1292.690</ele>
        <time>2018-09-09T11:05:11Z</time>
      </trkpt>
      <trkpt lat="46.569215" lon="12.721692">
        <ele>1291.615</ele>
        <time>2018-09-09T11:05:46Z</time>
      </trkpt>
      <trkpt lat="46.569203" lon="12.721663">
        <ele>1295.578</ele>
        <time>2018-09-09T11:06:18Z</time>
      </trkpt>
      <trkpt lat="46.569197" lon="12.721668">
        <ele>1294.533</ele>
        <time>2018-09-09T11:06:47Z</time>
      </trkpt>
      <trkpt lat="46.569191" lon="12.721684">
        <ele>1294.526</ele>
        <time>2018-09-09T11:07:17Z</time>
      </trkpt>
      <trkpt lat="46.569218" lon="12.721686">
        <ele>1296.408</ele>
        <time>2018-09-09T11:07:41Z</time>
      </trkpt>
      <trkpt lat="46.569207" lon="12.721663">
        <ele>1296.951</ele>
        <time>2018-09-09T11:08:06Z</time>
      </trkpt>
      <trkpt lat="46.569199" lon="12.721706">
        <ele>1295.993</ele>
        <time>2018-09-09T11:08:33Z</time>
      </trkpt>
      <trkpt lat="46.569192" lon="12.721698">
        <ele>1293.561</ele>
        <time>2018-09-09T11:09:02Z</time>
      </trkpt>
      <trkpt lat="46.569196" lon="12.721688">
        <ele>1293.526</ele>
        <time>2018-09-09T11:09:24Z</time>
      </trkpt>
      <trkpt lat="46.569211" lon="12.721685">
        <ele>1295.040</ele>
        <time>2018-09-09T11:09:47Z</time>
      </trkpt>
      <trkpt lat="46.569213" lon="12.721707">
        <ele>1293.532</ele>
        <time>2018-09-09T11:10:15Z</time>
      </trkpt>
      <trkpt lat="46.569210" lon="12.721723">
        <ele>1290.271</ele>
        <time>2018-09-09T11:10:43Z</time>
      </trkpt>
      <trkpt lat="46.569199" lon="12.721705">
        <ele>1287.826</ele>
        <time>2018-09-09T11:11:05Z</time>
      </trkpt>
      <trkpt lat="46.569209" lon="12.721714">
        <ele>1288.719</ele>
        <time>2018-09-09T11:11:38Z</time>
      </trkpt>
      <trkpt lat="46.569205" lon="12.721712">
        <ele>1287.809</ele>
        <time>2018-09-09T11:12:07Z</time>
      </trkpt>
      <trkpt lat="46.569201" lon="12.721715">
        <ele>1287.319</ele>
        <time>2018-09-09T11:12:40Z</time>
      </trkpt>
      <trkpt lat="46.569177" lon="12.721671">
        <ele>1289.708</ele>
        <time>2018-09-09T11:13:07Z</time>
      </trkpt>
      <trkpt lat="46.569184" lon="12.721655">
        <ele>1290.735</ele>
        <time>2018-09-09T11:13:35Z</time>
      </trkpt>
      <trkpt lat="46.569186" lon="12.721677">
        <ele>1291.617</ele>
        <time>2018-09-09T11:13:57Z</time>
      </trkpt>
      <trkpt lat="46.569187" lon="12.721689">
        <ele>1292.165</ele>
        <time>2018-09-09T11:14:27Z</time>
      </trkpt>
      <trkpt lat="46.569186" lon="12.721671">
        <ele>1293.150</ele>
        <time>2018-09-09T11:14:52Z</time>
      </trkpt>
      <trkpt lat="46.569204" lon="12.721668">
        <ele>1293.524</ele>
        <time>2018-09-09T11:15:10Z</time>
      </trkpt>
      <trkpt lat="46.569193" lon="12.721673">
        <ele>1291.126</ele>
        <time>2018-09-09T11:15:39Z</time>
      </trkpt>
      <trkpt lat="46.569169" lon="12.721676">
        <ele>1291.195</ele>
        <time>2018-09-09T11:16:05Z</time>
      </trkpt>
      <trkpt lat="46.569176" lon="12.721670">
        <ele>1291.670</ele>
        <time>2018-09-09T11:16:40Z</time>
      </trkpt>
      <trkpt lat="46.569174" lon="12.721679">
        <ele>1291.695</ele>
        <time>2018-09-09T11:17:03Z</time>
      </trkpt>
      <trkpt lat="46.569155" lon="12.721684">
        <ele>1292.149</ele>
        <time>2018-09-09T11:17:28Z</time>
      </trkpt>
      <trkpt lat="46.569156" lon="12.721648">
        <ele>1294.023</ele>
        <time>2018-09-09T11:17:58Z</time>
      </trkpt>
      <trkpt lat="46.569203" lon="12.721670">
        <ele>1295.908</ele>
        <time>2018-09-09T11:18:23Z</time>
      </trkpt>
      <trkpt lat="46.569191" lon="12.721662">
        <ele>1296.983</ele>
        <time>2018-09-09T11:18:44Z</time>
      </trkpt>
      <trkpt lat="46.569171" lon="12.721657">
        <ele>1297.415</ele>
        <time>2018-09-09T11:19:17Z</time>
      </trkpt>
      <trkpt lat="46.569147" lon="12.721657">
        <ele>1295.983</ele>
        <time>2018-09-09T11:19:42Z</time>
      </trkpt>
      <trkpt lat="46.569145" lon="12.721679">
        <ele>1293.528</ele>
        <time>2018-09-09T11:20:05Z</time>
      </trkpt>
      <trkpt lat="46.569138" lon="12.721684">
        <ele>1292.642</ele>
        <time>2018-09-09T11:20:30Z</time>
      </trkpt>
      <trkpt lat="46.569148" lon="12.721677">
        <ele>1290.774</ele>
        <time>2018-09-09T11:20:54Z</time>
      </trkpt>
      <trkpt lat="46.569147" lon="12.721680">
        <ele>1290.213</ele>
        <time>2018-09-09T11:21:29Z</time>
      </trkpt>
      <trkpt lat="46.569157" lon="12.721651">
        <ele>1290.218</ele>
        <time>2018-09-09T11:21:55Z</time>
      </trkpt>
      <trkpt lat="46.569152" lon="12.721661">
        <ele>1291.168</ele>
        <time>2018-09-09T11:22:22Z</time>
      </trkpt>
      <trkpt lat="46.569162" lon="12.721679">
        <ele>1291.642</ele>
        <time>2018-09-09T11:22:50Z</time>
      </trkpt>
      <trkpt lat="46.569151" lon="12.721678">
        <ele>1291.126</ele>
        <time>2018-09-09T11:23:17Z</time>
      </trkpt>
      <trkpt lat="46.569140" lon="12.721661">
        <ele>1292.608</ele>
        <time>2018-09-09T11:23:48Z</time>
      </trkpt>
      <trkpt lat="46.569144" lon="12.721671">
        <ele>1294.050</ele>
        <time>2018-09-09T11:24:10Z</time>
      </trkpt>
      <trkpt lat="46.569168" lon="12.721671">
        <ele>1293.562</ele>
        <time>2018-09-09T11:24:26Z</time>
      </trkpt>
      <trkpt lat="46.569180" lon="12.721665">
        <ele>1292.660</ele>
        <time>2018-09-09T11:24:49Z</time>
      </trkpt>
      <trkpt lat="46.569196" lon="12.721624">
        <ele>1292.695</ele>
        <time>2018-09-09T11:24:55Z</time>
      </trkpt>
      <trkpt lat="46.569244" lon="12.721637">
        <ele>1292.619</ele>
        <time>2018-09-09T11:25:05Z</time>
      </trkpt>
      <trkpt lat="46.569260" lon="12.721631">
        <ele>1292.611</ele>
        <time>2018-09-09T11:25:20Z</time>
      </trkpt>
      <trkpt lat="46.569270" lon="12.721637">
        <ele>1292.690</ele>
        <time>2018-09-09T11:25:21Z</time>
      </trkpt>
      <trkpt lat="46.569282" lon="12.721644">
        <ele>1292.655</ele>
        <time>2018-09-09T11:25:22Z</time>
      </trkpt>
      <trkpt lat="46.569294" lon="12.721658">
        <ele>1292.673</ele>
        <time>2018-09-09T11:25:23Z</time>
      </trkpt>
      <trkpt lat="46.569300" lon="12.721678">
        <ele>1292.685</ele>
        <time>2018-09-09T11:25:24Z</time>
      </trkpt>
      <trkpt lat="46.569309" lon="12.721698">
        <ele>1292.613</ele>
        <time>2018-09-09T11:25:25Z</time>
      </trkpt>
      <trkpt lat="46.569473" lon="12.722000">
        <ele>1293.508</ele>
        <time>2018-09-09T11:25:41Z</time>
      </trkpt>
      <trkpt lat="46.569662" lon="12.722328">
        <ele>1293.561</ele>
        <time>2018-09-09T11:25:58Z</time>
      </trkpt>
      <trkpt lat="46.569855" lon="12.722612">
        <ele>1295.093</ele>
        <time>2018-09-09T11:26:14Z</time>
      </trkpt>
      <trkpt lat="46.570027" lon="12.722849">
        <ele>1295.551</ele>
        <time>2018-09-09T11:26:28Z</time>
      </trkpt>
      <trkpt lat="46.570088" lon="12.722945">
        <ele>1295.996</ele>
        <time>2018-09-09T11:26:33Z</time>
      </trkpt>
      <trkpt lat="46.570096" lon="12.722968">
        <ele>1295.990</ele>
        <time>2018-09-09T11:26:34Z</time>
      </trkpt>
      <trkpt lat="46.570347" lon="12.723159">
        <ele>1297.442</ele>
        <time>2018-09-09T11:26:50Z</time>
      </trkpt>
      <trkpt lat="46.570628" lon="12.723127">
        <ele>1296.961</ele>
        <time>2018-09-09T11:27:05Z</time>
      </trkpt>
      <trkpt lat="46.570910" lon="12.723058">
        <ele>1299.896</ele>
        <time>2018-09-09T11:27:22Z</time>
      </trkpt>
      <trkpt lat="46.571010" lon="12.723067">
        <ele>1301.253</ele>
        <time>2018-09-09T11:27:29Z</time>
      </trkpt>
      <trkpt lat="46.571025" lon="12.723077">
        <ele>1301.204</ele>
        <time>2018-09-09T11:27:30Z</time>
      </trkpt>
      <trkpt lat="46.571042" lon="12.723087">
        <ele>1301.214</ele>
        <time>2018-09-09T11:27:31Z</time>
      </trkpt>
      <trkpt lat="46.571061" lon="12.723095">
        <ele>1300.808</ele>
        <time>2018-09-09T11:27:32Z</time>
      </trkpt>
      <trkpt lat="46.571079" lon="12.723101">
        <ele>1300.879</ele>
        <time>2018-09-09T11:27:33Z</time>
      </trkpt>
      <trkpt lat="46.571329" lon="12.723217">
        <ele>1301.211</ele>
        <time>2018-09-09T11:27:48Z</time>
      </trkpt>
      <trkpt lat="46.571422" lon="12.723294">
        <ele>1300.819</ele>
        <time>2018-09-09T11:27:54Z</time>
      </trkpt>
      <trkpt lat="46.571429" lon="12.723313">
        <ele>1300.874</ele>
        <time>2018-09-09T11:27:55Z</time>
      </trkpt>
      <trkpt lat="46.571443" lon="12.723328">
        <ele>1300.388</ele>
        <time>2018-09-09T11:27:56Z</time>
      </trkpt>
      <trkpt lat="46.571702" lon="12.723591">
        <ele>1300.840</ele>
        <time>2018-09-09T11:28:12Z</time>
      </trkpt>
      <trkpt lat="46.571880" lon="12.724052">
        <ele>1303.279</ele>
        <time>2018-09-09T11:28:31Z</time>
      </trkpt>
      <trkpt lat="46.571927" lon="12.724562">
        <ele>1303.214</ele>
        <time>2018-09-09T11:28:47Z</time>
      </trkpt>
      <trkpt lat="46.572064" lon="12.725222">
        <ele>1304.146</ele>
        <time>2018-09-09T11:29:08Z</time>
      </trkpt>
      <trkpt lat="46.572207" lon="12.725793">
        <ele>1308.088</ele>
        <time>2018-09-09T11:29:27Z</time>
      </trkpt>
      <trkpt lat="46.572240" lon="12.726173">
        <ele>1308.916</ele>
        <time>2018-09-09T11:29:42Z</time>
      </trkpt>
      <trkpt lat="46.572292" lon="12.726451">
        <ele>1309.408</ele>
        <time>2018-09-09T11:29:53Z</time>
      </trkpt>
      <trkpt lat="46.572301" lon="12.726474">
        <ele>1308.968</ele>
        <time>2018-09-09T11:29:54Z</time>
      </trkpt>
      <trkpt lat="46.572308" lon="12.726499">
        <ele>1308.920</ele>
        <time>2018-09-09T11:29:55Z</time>
      </trkpt>
      <trkpt lat="46.572317" lon="12.726526">
        <ele>1308.998</ele>
        <time>2018-09-09T11:29:56Z</time>
      </trkpt>
      <trkpt lat="46.572327" lon="12.726552">
        <ele>1308.483</ele>
        <time>2018-09-09T11:29:57Z</time>
      </trkpt>
      <trkpt lat="46.572333" lon="12.726578">
        <ele>1308.447</ele>
        <time>2018-09-09T11:29:58Z</time>
      </trkpt>
      <trkpt lat="46.572340" lon="12.726600">
        <ele>1308.449</ele>
        <time>2018-09-09T11:29:59Z</time>
      </trkpt>
      <trkpt lat="46.572347" lon="12.726624">
        <ele>1308.468</ele>
        <time>2018-09-09T11:30:00Z</time>
      </trkpt>
      <trkpt lat="46.572352" lon="12.726648">
        <ele>1308.413</ele>
        <time>2018-09-09T11:30:01Z</time>
      </trkpt>
      <trkpt lat="46.572428" lon="12.726918">
        <ele>1308.494</ele>
        <time>2018-09-09T11:30:12Z</time>
      </trkpt>
      <trkpt lat="46.572429" lon="12.726942">
        <ele>1308.457</ele>
        <time>2018-09-09T11:30:13Z</time>
      </trkpt>
      <trkpt lat="46.572435" lon="12.726969">
        <ele>1308.022</ele>
        <time>2018-09-09T11:30:14Z</time>
      </trkpt>
      <trkpt lat="46.572595" lon="12.727369">
        <ele>1309.908</ele>
        <time>2018-09-09T11:30:31Z</time>
      </trkpt>
      <trkpt lat="46.572791" lon="12.727596">
        <ele>1311.343</ele>
        <time>2018-09-09T11:30:44Z</time>
      </trkpt>
      <trkpt lat="46.572929" lon="12.728005">
        <ele>1310.925</ele>
        <time>2018-09-09T11:30:53Z</time>
      </trkpt>
      <trkpt lat="46.572960" lon="12.728068">
        <ele>1310.933</ele>
        <time>2018-09-09T11:30:54Z</time>
      </trkpt>
      <trkpt lat="46.572997" lon="12.728132">
        <ele>1310.458</ele>
        <time>2018-09-09T11:30:55Z</time>
      </trkpt>
      <trkpt lat="46.573296" lon="12.728471">
        <ele>1310.432</ele>
        <time>2018-09-09T11:31:02Z</time>
      </trkpt>
      <trkpt lat="46.573634" lon="12.728766">
        <ele>1310.914</ele>
        <time>2018-09-09T11:31:14Z</time>
      </trkpt>
      <trkpt lat="46.574014" lon="12.728640">
        <ele>1309.923</ele>
        <time>2018-09-09T11:31:25Z</time>
      </trkpt>
      <trkpt lat="46.574042" lon="12.728600">
        <ele>1309.488</ele>
        <time>2018-09-09T11:31:26Z</time>
      </trkpt>
      <trkpt lat="46.574068" lon="12.728556">
        <ele>1309.485</ele>
        <time>2018-09-09T11:31:27Z</time>
      </trkpt>
      <trkpt lat="46.574090" lon="12.728506">
        <ele>1308.989</ele>
        <time>2018-09-09T11:31:28Z</time>
      </trkpt>
      <trkpt lat="46.574112" lon="12.728453">
        <ele>1308.917</ele>
        <time>2018-09-09T11:31:29Z</time>
      </trkpt>
      <trkpt lat="46.574133" lon="12.728395">
        <ele>1308.408</ele>
        <time>2018-09-09T11:31:30Z</time>
      </trkpt>
      <trkpt lat="46.574291" lon="12.727741">
        <ele>1306.582</ele>
        <time>2018-09-09T11:31:39Z</time>
      </trkpt>
      <trkpt lat="46.574293" lon="12.727662">
        <ele>1306.584</ele>
        <time>2018-09-09T11:31:40Z</time>
      </trkpt>
      <trkpt lat="46.574208" lon="12.726924">
        <ele>1308.052</ele>
        <time>2018-09-09T11:31:53Z</time>
      </trkpt>
      <trkpt lat="46.574103" lon="12.726230">
        <ele>1310.947</ele>
        <time>2018-09-09T11:32:14Z</time>
      </trkpt>
      <trkpt lat="46.574094" lon="12.725619">
        <ele>1312.841</ele>
        <time>2018-09-09T11:32:35Z</time>
      </trkpt>
      <trkpt lat="46.574235" lon="12.725013">
        <ele>1315.293</ele>
        <time>2018-09-09T11:32:57Z</time>
      </trkpt>
      <trkpt lat="46.574486" lon="12.724697">
        <ele>1317.612</ele>
        <time>2018-09-09T11:33:14Z</time>
      </trkpt>
      <trkpt lat="46.574887" lon="12.724602">
        <ele>1317.667</ele>
        <time>2018-09-09T11:33:33Z</time>
      </trkpt>
      <trkpt lat="46.575268" lon="12.724584">
        <ele>1319.547</ele>
        <time>2018-09-09T11:33:53Z</time>
      </trkpt>
      <trkpt lat="46.575517" lon="12.724692">
        <ele>1322.429</ele>
        <time>2018-09-09T11:34:11Z</time>
      </trkpt>
      <trkpt lat="46.575731" lon="12.724770">
        <ele>1325.821</ele>
        <time>2018-09-09T11:34:27Z</time>
      </trkpt>
      <trkpt lat="46.575939" lon="12.724748">
        <ele>1330.608</ele>
        <time>2018-09-09T11:34:43Z</time>
      </trkpt>
      <trkpt lat="46.576162" lon="12.724643">
        <ele>1334.928</ele>
        <time>2018-09-09T11:35:00Z</time>
      </trkpt>
      <trkpt lat="46.576371" lon="12.724485">
        <ele>1336.850</ele>
        <time>2018-09-09T11:35:17Z</time>
      </trkpt>
      <trkpt lat="46.576619" lon="12.724353">
        <ele>1339.268</ele>
        <time>2018-09-09T11:35:35Z</time>
      </trkpt>
      <trkpt lat="46.576839" lon="12.724258">
        <ele>1342.193</ele>
        <time>2018-09-09T11:35:52Z</time>
      </trkpt>
      <trkpt lat="46.576996" lon="12.724205">
        <ele>1345.037</ele>
        <time>2018-09-09T11:36:07Z</time>
      </trkpt>
      <trkpt lat="46.577007" lon="12.724205">
        <ele>1345.089</ele>
        <time>2018-09-09T11:36:08Z</time>
      </trkpt>
      <trkpt lat="46.577179" lon="12.724193">
        <ele>1346.978</ele>
        <time>2018-09-09T11:36:23Z</time>
      </trkpt>
      <trkpt lat="46.577191" lon="12.724193">
        <ele>1347.463</ele>
        <time>2018-09-09T11:36:24Z</time>
      </trkpt>
      <trkpt lat="46.577408" lon="12.724241">
        <ele>1350.396</ele>
        <time>2018-09-09T11:36:42Z</time>
      </trkpt>
      <trkpt lat="46.577438" lon="12.724265">
        <ele>1350.731</ele>
        <time>2018-09-09T11:36:45Z</time>
      </trkpt>
      <trkpt lat="46.577449" lon="12.724274">
        <ele>1350.724</ele>
        <time>2018-09-09T11:36:46Z</time>
      </trkpt>
      <trkpt lat="46.577462" lon="12.724281">
        <ele>1350.708</ele>
        <time>2018-09-09T11:36:47Z</time>
      </trkpt>
      <trkpt lat="46.577473" lon="12.724289">
        <ele>1350.793</ele>
        <time>2018-09-09T11:36:48Z</time>
      </trkpt>
      <trkpt lat="46.577483" lon="12.724300">
        <ele>1350.715</ele>
        <time>2018-09-09T11:36:49Z</time>
      </trkpt>
      <trkpt lat="46.577492" lon="12.724308">
        <ele>1350.763</ele>
        <time>2018-09-09T11:36:50Z</time>
      </trkpt>
      <trkpt lat="46.577501" lon="12.724316">
        <ele>1350.738</ele>
        <time>2018-09-09T11:36:51Z</time>
      </trkpt>
      <trkpt lat="46.577512" lon="12.724327">
        <ele>1350.772</ele>
        <time>2018-09-09T11:36:52Z</time>
      </trkpt>
      <trkpt lat="46.577521" lon="12.724343">
        <ele>1351.254</ele>
        <time>2018-09-09T11:36:53Z</time>
      </trkpt>
      <trkpt lat="46.577529" lon="12.724359">
        <ele>1351.743</ele>
        <time>2018-09-09T11:36:54Z</time>
      </trkpt>
      <trkpt lat="46.577632" lon="12.724693">
        <ele>1353.198</ele>
        <time>2018-09-09T11:37:10Z</time>
      </trkpt>
      <trkpt lat="46.577668" lon="12.724802">
        <ele>1353.679</ele>
        <time>2018-09-09T11:37:15Z</time>
      </trkpt>
      <trkpt lat="46.577874" lon="12.725054">
        <ele>1354.605</ele>
        <time>2018-09-09T11:37:33Z</time>
      </trkpt>
      <trkpt lat="46.578035" lon="12.725115">
        <ele>1354.125</ele>
        <time>2018-09-09T11:37:45Z</time>
      </trkpt>
      <trkpt lat="46.578226" lon="12.725350">
        <ele>1355.108</ele>
        <time>2018-09-09T11:37:59Z</time>
      </trkpt>
      <trkpt lat="46.578429" lon="12.725492">
        <ele>1356.031</ele>
        <time>2018-09-09T11:38:13Z</time>
      </trkpt>
      <trkpt lat="46.578695" lon="12.725526">
        <ele>1357.073</ele>
        <time>2018-09-09T11:38:26Z</time>
      </trkpt>
      <trkpt lat="46.579025" lon="12.725848">
        <ele>1354.611</ele>
        <time>2018-09-09T11:38:37Z</time>
      </trkpt>
      <trkpt lat="46.579481" lon="12.726086">
        <ele>1354.186</ele>
        <time>2018-09-09T11:38:51Z</time>
      </trkpt>
      <trkpt lat="46.579764" lon="12.726175">
        <ele>1356.070</ele>
        <time>2018-09-09T11:39:05Z</time>
      </trkpt>
      <trkpt lat="46.580132" lon="12.726346">
        <ele>1355.632</ele>
        <time>2018-09-09T11:39:18Z</time>
      </trkpt>
      <trkpt lat="46.580251" lon="12.726381">
        <ele>1356.081</ele>
        <time>2018-09-09T11:39:21Z</time>
      </trkpt>
      <trkpt lat="46.580342" lon="12.726405">
        <ele>1356.596</ele>
        <time>2018-09-09T11:39:23Z</time>
      </trkpt>
      <trkpt lat="46.580498" lon="12.726507">
        <ele>1357.545</ele>
        <time>2018-09-09T11:39:27Z</time>
      </trkpt>
      <trkpt lat="46.580615" lon="12.726615">
        <ele>1357.047</ele>
        <time>2018-09-09T11:39:30Z</time>
      </trkpt>
      <trkpt lat="46.580662" lon="12.726641">
        <ele>1357.511</ele>
        <time>2018-09-09T11:39:31Z</time>
      </trkpt>
      <trkpt lat="46.580708" lon="12.726643">
        <ele>1357.008</ele>
        <time>2018-09-09T11:39:32Z</time>
      </trkpt>
      <trkpt lat="46.580750" lon="12.726628">
        <ele>1357.048</ele>
        <time>2018-09-09T11:39:33Z</time>
      </trkpt>
      <trkpt lat="46.580790" lon="12.726603">
        <ele>1357.060</ele>
        <time>2018-09-09T11:39:34Z</time>
      </trkpt>
      <trkpt lat="46.580826" lon="12.726569">
        <ele>1356.528</ele>
        <time>2018-09-09T11:39:35Z</time>
      </trkpt>
      <trkpt lat="46.580858" lon="12.726534">
        <ele>1356.553</ele>
        <time>2018-09-09T11:39:36Z</time>
      </trkpt>
      <trkpt lat="46.580930" lon="12.726467">
        <ele>1355.677</ele>
        <time>2018-09-09T11:39:38Z</time>
      </trkpt>
      <trkpt lat="46.580971" lon="12.726442">
        <ele>1355.129</ele>
        <time>2018-09-09T11:39:39Z</time>
      </trkpt>
      <trkpt lat="46.581063" lon="12.726412">
        <ele>1354.648</ele>
        <time>2018-09-09T11:39:41Z</time>
      </trkpt>
      <trkpt lat="46.581216" lon="12.726392">
        <ele>1354.113</ele>
        <time>2018-09-09T11:39:44Z</time>
      </trkpt>
      <trkpt lat="46.581267" lon="12.726399">
        <ele>1353.653</ele>
        <time>2018-09-09T11:39:45Z</time>
      </trkpt>
      <trkpt lat="46.581315" lon="12.726412">
        <ele>1353.604</ele>
        <time>2018-09-09T11:39:46Z</time>
      </trkpt>
      <trkpt lat="46.581838" lon="12.726683">
        <ele>1352.714</ele>
        <time>2018-09-09T11:40:00Z</time>
      </trkpt>
      <trkpt lat="46.582075" lon="12.726785">
        <ele>1353.608</ele>
        <time>2018-09-09T11:40:13Z</time>
      </trkpt>
      <trkpt lat="46.582089" lon="12.726774">
        <ele>1354.149</ele>
        <time>2018-09-09T11:40:14Z</time>
      </trkpt>
      <trkpt lat="46.582099" lon="12.726757">
        <ele>1354.111</ele>
        <time>2018-09-09T11:40:15Z</time>
      </trkpt>
      <trkpt lat="46.582109" lon="12.726737">
        <ele>1354.699</ele>
        <time>2018-09-09T11:40:16Z</time>
      </trkpt>
      <trkpt lat="46.582120" lon="12.726716">
        <ele>1354.614</ele>
        <time>2018-09-09T11:40:17Z</time>
      </trkpt>
      <trkpt lat="46.582130" lon="12.726694">
        <ele>1354.688</ele>
        <time>2018-09-09T11:40:18Z</time>
      </trkpt>
      <trkpt lat="46.582191" lon="12.726392">
        <ele>1355.630</ele>
        <time>2018-09-09T11:40:33Z</time>
      </trkpt>
      <trkpt lat="46.582188" lon="12.726377">
        <ele>1355.649</ele>
        <time>2018-09-09T11:40:34Z</time>
      </trkpt>
      <trkpt lat="46.582181" lon="12.726367">
        <ele>1355.694</ele>
        <time>2018-09-09T11:40:35Z</time>
      </trkpt>
      <trkpt lat="46.582109" lon="12.726164">
        <ele>1357.088</ele>
        <time>2018-09-09T11:40:49Z</time>
      </trkpt>
      <trkpt lat="46.582139" lon="12.725991">
        <ele>1356.524</ele>
        <time>2018-09-09T11:41:01Z</time>
      </trkpt>
      <trkpt lat="46.582158" lon="12.725998">
        <ele>1357.026</ele>
        <time>2018-09-09T11:41:03Z</time>
      </trkpt>
      <trkpt lat="46.582164" lon="12.726012">
        <ele>1357.508</ele>
        <time>2018-09-09T11:41:04Z</time>
      </trkpt>
      <trkpt lat="46.582168" lon="12.726027">
        <ele>1357.592</ele>
        <time>2018-09-09T11:41:05Z</time>
      </trkpt>
      <trkpt lat="46.582173" lon="12.726044">
        <ele>1358.094</ele>
        <time>2018-09-09T11:41:06Z</time>
      </trkpt>
      <trkpt lat="46.582178" lon="12.726056">
        <ele>1358.412</ele>
        <time>2018-09-09T11:41:07Z</time>
      </trkpt>
      <trkpt lat="46.582182" lon="12.726069">
        <ele>1358.937</ele>
        <time>2018-09-09T11:41:08Z</time>
      </trkpt>
      <trkpt lat="46.582194" lon="12.726116">
        <ele>1359.971</ele>
        <time>2018-09-09T11:41:11Z</time>
      </trkpt>
      <trkpt lat="46.582202" lon="12.726129">
        <ele>1360.473</ele>
        <time>2018-09-09T11:41:12Z</time>
      </trkpt>
      <trkpt lat="46.582220" lon="12.726149">
        <ele>1361.372</ele>
        <time>2018-09-09T11:41:14Z</time>
      </trkpt>
      <trkpt lat="46.582287" lon="12.726233">
        <ele>1363.747</ele>
        <time>2018-09-09T11:41:23Z</time>
      </trkpt>
      <trkpt lat="46.582312" lon="12.726292">
        <ele>1364.783</ele>
        <time>2018-09-09T11:41:28Z</time>
      </trkpt>
      <trkpt lat="46.582371" lon="12.726504">
        <ele>1366.125</ele>
        <time>2018-09-09T11:41:43Z</time>
      </trkpt>
      <trkpt lat="46.582407" lon="12.726695">
        <ele>1364.717</ele>
        <time>2018-09-09T11:41:56Z</time>
      </trkpt>
      <trkpt lat="46.582509" lon="12.726778">
        <ele>1368.008</ele>
        <time>2018-09-09T11:42:10Z</time>
      </trkpt>
      <trkpt lat="46.582608" lon="12.726854">
        <ele>1372.412</ele>
        <time>2018-09-09T11:42:23Z</time>
      </trkpt>
      <trkpt lat="46.582713" lon="12.726940">
        <ele>1376.774</ele>
        <time>2018-09-09T11:42:38Z</time>
      </trkpt>
      <trkpt lat="46.582850" lon="12.726979">
        <ele>1381.052</ele>
        <time>2018-09-09T11:42:52Z</time>
      </trkpt>
      <trkpt lat="46.582853" lon="12.726968">
        <ele>1381.037</ele>
        <time>2018-09-09T11:42:53Z</time>
      </trkpt>
      <trkpt lat="46.582849" lon="12.726955">
        <ele>1382.041</ele>
        <time>2018-09-09T11:42:54Z</time>
      </trkpt>
      <trkpt lat="46.582842" lon="12.726942">
        <ele>1382.023</ele>
        <time>2018-09-09T11:42:55Z</time>
      </trkpt>
      <trkpt lat="46.582835" lon="12.726928">
        <ele>1382.522</ele>
        <time>2018-09-09T11:42:56Z</time>
      </trkpt>
      <trkpt lat="46.582736" lon="12.726800">
        <ele>1382.947</ele>
        <time>2018-09-09T11:43:11Z</time>
      </trkpt>
      <trkpt lat="46.582666" lon="12.726608">
        <ele>1385.845</ele>
        <time>2018-09-09T11:43:26Z</time>
      </trkpt>
      <trkpt lat="46.582653" lon="12.726382">
        <ele>1388.747</ele>
        <time>2018-09-09T11:43:41Z</time>
      </trkpt>
      <trkpt lat="46.582646" lon="12.726147">
        <ele>1390.611</ele>
        <time>2018-09-09T11:43:56Z</time>
      </trkpt>
      <trkpt lat="46.582650" lon="12.726129">
        <ele>1390.608</ele>
        <time>2018-09-09T11:43:57Z</time>
      </trkpt>
      <trkpt lat="46.582648" lon="12.726094">
        <ele>1390.658</ele>
        <time>2018-09-09T11:43:59Z</time>
      </trkpt>
      <trkpt lat="46.582645" lon="12.726075">
        <ele>1390.630</ele>
        <time>2018-09-09T11:44:00Z</time>
      </trkpt>
      <trkpt lat="46.582624" lon="12.726023">
        <ele>1390.658</ele>
        <time>2018-09-09T11:44:04Z</time>
      </trkpt>
      <trkpt lat="46.582537" lon="12.725870">
        <ele>1393.023</ele>
        <time>2018-09-09T11:44:19Z</time>
      </trkpt>
      <trkpt lat="46.582574" lon="12.725804">
        <ele>1393.057</ele>
        <time>2018-09-09T11:44:25Z</time>
      </trkpt>
      <trkpt lat="46.582604" lon="12.725808">
        <ele>1394.599</ele>
        <time>2018-09-09T11:44:28Z</time>
      </trkpt>
      <trkpt lat="46.582611" lon="12.725820">
        <ele>1394.538</ele>
        <time>2018-09-09T11:44:29Z</time>
      </trkpt>
      <trkpt lat="46.582713" lon="12.725981">
        <ele>1402.713</ele>
        <time>2018-09-09T11:44:45Z</time>
      </trkpt>
      <trkpt lat="46.582787" lon="12.726046">
        <ele>1400.736</ele>
        <time>2018-09-09T11:44:54Z</time>
      </trkpt>
      <trkpt lat="46.582798" lon="12.726053">
        <ele>1400.717</ele>
        <time>2018-09-09T11:44:55Z</time>
      </trkpt>
      <trkpt lat="46.582847" lon="12.726142">
        <ele>1399.818</ele>
        <time>2018-09-09T11:45:02Z</time>
      </trkpt>
      <trkpt lat="46.582861" lon="12.726147">
        <ele>1399.808</ele>
        <time>2018-09-09T11:45:03Z</time>
      </trkpt>
      <trkpt lat="46.582875" lon="12.726148">
        <ele>1399.897</ele>
        <time>2018-09-09T11:45:04Z</time>
      </trkpt>
      <trkpt lat="46.582885" lon="12.726142">
        <ele>1399.879</ele>
        <time>2018-09-09T11:45:05Z</time>
      </trkpt>
      <trkpt lat="46.582894" lon="12.726127">
        <ele>1400.357</ele>
        <time>2018-09-09T11:45:06Z</time>
      </trkpt>
      <trkpt lat="46.582898" lon="12.726107">
        <ele>1400.352</ele>
        <time>2018-09-09T11:45:07Z</time>
      </trkpt>
      <trkpt lat="46.582899" lon="12.726089">
        <ele>1400.736</ele>
        <time>2018-09-09T11:45:08Z</time>
      </trkpt>
      <trkpt lat="46.582914" lon="12.725882">
        <ele>1399.828</ele>
        <time>2018-09-09T11:45:20Z</time>
      </trkpt>
      <trkpt lat="46.582923" lon="12.725872">
        <ele>1399.887</ele>
        <time>2018-09-09T11:45:21Z</time>
      </trkpt>
      <trkpt lat="46.582934" lon="12.725865">
        <ele>1399.872</ele>
        <time>2018-09-09T11:45:22Z</time>
      </trkpt>
      <trkpt lat="46.582947" lon="12.725865">
        <ele>1399.873</ele>
        <time>2018-09-09T11:45:23Z</time>
      </trkpt>
      <trkpt lat="46.582958" lon="12.725873">
        <ele>1400.385</ele>
        <time>2018-09-09T11:45:24Z</time>
      </trkpt>
      <trkpt lat="46.582967" lon="12.725882">
        <ele>1400.713</ele>
        <time>2018-09-09T11:45:25Z</time>
      </trkpt>
      <trkpt lat="46.582974" lon="12.725896">
        <ele>1401.208</ele>
        <time>2018-09-09T11:45:26Z</time>
      </trkpt>
      <trkpt lat="46.582979" lon="12.725911">
        <ele>1401.771</ele>
        <time>2018-09-09T11:45:27Z</time>
      </trkpt>
      <trkpt lat="46.582981" lon="12.725927">
        <ele>1402.223</ele>
        <time>2018-09-09T11:45:28Z</time>
      </trkpt>
      <trkpt lat="46.582979" lon="12.725945">
        <ele>1402.291</ele>
        <time>2018-09-09T11:45:29Z</time>
      </trkpt>
      <trkpt lat="46.582977" lon="12.725962">
        <ele>1402.786</ele>
        <time>2018-09-09T11:45:30Z</time>
      </trkpt>
      <trkpt lat="46.582978" lon="12.726011">
        <ele>1403.180</ele>
        <time>2018-09-09T11:45:33Z</time>
      </trkpt>
      <trkpt lat="46.582981" lon="12.726024">
        <ele>1403.112</ele>
        <time>2018-09-09T11:45:34Z</time>
      </trkpt>
      <trkpt lat="46.582983" lon="12.726039">
        <ele>1403.651</ele>
        <time>2018-09-09T11:45:35Z</time>
      </trkpt>
      <trkpt lat="46.582991" lon="12.726174">
        <ele>1404.126</ele>
        <time>2018-09-09T11:45:42Z</time>
      </trkpt>
      <trkpt lat="46.583008" lon="12.726365">
        <ele>1404.646</ele>
        <time>2018-09-09T11:45:52Z</time>
      </trkpt>
      <trkpt lat="46.583044" lon="12.726466">
        <ele>1404.188</ele>
        <time>2018-09-09T11:45:58Z</time>
      </trkpt>
      <trkpt lat="46.583057" lon="12.726479">
        <ele>1404.116</ele>
        <time>2018-09-09T11:45:59Z</time>
      </trkpt>
      <trkpt lat="46.583068" lon="12.726492">
        <ele>1404.108</ele>
        <time>2018-09-09T11:46:00Z</time>
      </trkpt>
      <trkpt lat="46.583092" lon="12.726518">
        <ele>1404.148</ele>
        <time>2018-09-09T11:46:03Z</time>
      </trkpt>
      <trkpt lat="46.583101" lon="12.726517">
        <ele>1404.120</ele>
        <time>2018-09-09T11:46:04Z</time>
      </trkpt>
      <trkpt lat="46.583210" lon="12.726478">
        <ele>1406.588</ele>
        <time>2018-09-09T11:46:17Z</time>
      </trkpt>
      <trkpt lat="46.583234" lon="12.726468">
        <ele>1406.553</ele>
        <time>2018-09-09T11:46:20Z</time>
      </trkpt>
      <trkpt lat="46.583239" lon="12.726425">
        <ele>1407.547</ele>
        <time>2018-09-09T11:46:23Z</time>
      </trkpt>
      <trkpt lat="46.583291" lon="12.726394">
        <ele>1408.929</ele>
        <time>2018-09-09T11:46:30Z</time>
      </trkpt>
      <trkpt lat="46.583342" lon="12.726330">
        <ele>1410.388</ele>
        <time>2018-09-09T11:46:37Z</time>
      </trkpt>
      <trkpt lat="46.583341" lon="12.726318">
        <ele>1410.383</ele>
        <time>2018-09-09T11:46:38Z</time>
      </trkpt>
      <trkpt lat="46.583396" lon="12.726165">
        <ele>1411.369</ele>
        <time>2018-09-09T11:46:51Z</time>
      </trkpt>
      <trkpt lat="46.583406" lon="12.726137">
        <ele>1411.304</ele>
        <time>2018-09-09T11:46:53Z</time>
      </trkpt>
      <trkpt lat="46.583448" lon="12.725968">
        <ele>1411.824</ele>
        <time>2018-09-09T11:47:06Z</time>
      </trkpt>
      <trkpt lat="46.583454" lon="12.725877">
        <ele>1413.708</ele>
        <time>2018-09-09T11:47:12Z</time>
      </trkpt>
      <trkpt lat="46.583497" lon="12.725780">
        <ele>1414.720</ele>
        <time>2018-09-09T11:47:20Z</time>
      </trkpt>
      <trkpt lat="46.583544" lon="12.725671">
        <ele>1416.642</ele>
        <time>2018-09-09T11:47:28Z</time>
      </trkpt>
      <trkpt lat="46.583620" lon="12.725643">
        <ele>1418.570</ele>
        <time>2018-09-09T11:47:35Z</time>
      </trkpt>
      <trkpt lat="46.583890" lon="12.725551">
        <ele>1418.065</ele>
        <time>2018-09-09T11:47:55Z</time>
      </trkpt>
      <trkpt lat="46.584219" lon="12.725689">
        <ele>1420.419</ele>
        <time>2018-09-09T11:48:10Z</time>
      </trkpt>
      <trkpt lat="46.584416" lon="12.725999">
        <ele>1424.831</ele>
        <time>2018-09-09T11:48:25Z</time>
      </trkpt>
      <trkpt lat="46.584665" lon="12.726291">
        <ele>1427.270</ele>
        <time>2018-09-09T11:48:41Z</time>
      </trkpt>
      <trkpt lat="46.584998" lon="12.726439">
        <ele>1425.235</ele>
        <time>2018-09-09T11:48:55Z</time>
      </trkpt>
      <trkpt lat="46.585092" lon="12.726486">
        <ele>1424.839</ele>
        <time>2018-09-09T11:48:57Z</time>
      </trkpt>
      <trkpt lat="46.585139" lon="12.726530">
        <ele>1424.301</ele>
        <time>2018-09-09T11:48:58Z</time>
      </trkpt>
      <trkpt lat="46.585177" lon="12.726594">
        <ele>1423.821</ele>
        <time>2018-09-09T11:48:59Z</time>
      </trkpt>
      <trkpt lat="46.585201" lon="12.726676">
        <ele>1423.808</ele>
        <time>2018-09-09T11:49:00Z</time>
      </trkpt>
      <trkpt lat="46.585220" lon="12.726757">
        <ele>1423.337</ele>
        <time>2018-09-09T11:49:01Z</time>
      </trkpt>
      <trkpt lat="46.585248" lon="12.726839">
        <ele>1422.869</ele>
        <time>2018-09-09T11:49:02Z</time>
      </trkpt>
      <trkpt lat="46.585284" lon="12.726916">
        <ele>1422.417</ele>
        <time>2018-09-09T11:49:03Z</time>
      </trkpt>
      <trkpt lat="46.585326" lon="12.726987">
        <ele>1421.982</ele>
        <time>2018-09-09T11:49:04Z</time>
      </trkpt>
      <trkpt lat="46.585367" lon="12.727052">
        <ele>1421.976</ele>
        <time>2018-09-09T11:49:05Z</time>
      </trkpt>
      <trkpt lat="46.585408" lon="12.727109">
        <ele>1421.968</ele>
        <time>2018-09-09T11:49:06Z</time>
      </trkpt>
      <trkpt lat="46.585486" lon="12.727201">
        <ele>1421.947</ele>
        <time>2018-09-09T11:49:08Z</time>
      </trkpt>
      <trkpt lat="46.585522" lon="12.727232">
        <ele>1421.452</ele>
        <time>2018-09-09T11:49:09Z</time>
      </trkpt>
      <trkpt lat="46.585823" lon="12.727380">
        <ele>1422.857</ele>
        <time>2018-09-09T11:49:21Z</time>
      </trkpt>
      <trkpt lat="46.586188" lon="12.727270">
        <ele>1422.400</ele>
        <time>2018-09-09T11:49:36Z</time>
      </trkpt>
      <trkpt lat="46.586612" lon="12.727113">
        <ele>1423.320</ele>
        <time>2018-09-09T11:49:53Z</time>
      </trkpt>
      <trkpt lat="46.586919" lon="12.726880">
        <ele>1425.208</ele>
        <time>2018-09-09T11:50:09Z</time>
      </trkpt>
      <trkpt lat="46.587207" lon="12.726636">
        <ele>1430.529</ele>
        <time>2018-09-09T11:50:27Z</time>
      </trkpt>
      <trkpt lat="46.587405" lon="12.726421">
        <ele>1431.521</ele>
        <time>2018-09-09T11:50:42Z</time>
      </trkpt>
      <trkpt lat="46.587620" lon="12.726165">
        <ele>1432.099</ele>
        <time>2018-09-09T11:50:58Z</time>
      </trkpt>
      <trkpt lat="46.587902" lon="12.725889">
        <ele>1432.964</ele>
        <time>2018-09-09T11:51:13Z</time>
      </trkpt>
      <trkpt lat="46.588142" lon="12.725614">
        <ele>1433.958</ele>
        <time>2018-09-09T11:51:29Z</time>
      </trkpt>
      <trkpt lat="46.588332" lon="12.725388">
        <ele>1435.320</ele>
        <time>2018-09-09T11:51:43Z</time>
      </trkpt>
      <trkpt lat="46.588565" lon="12.725191">
        <ele>1435.349</ele>
        <time>2018-09-09T11:51:58Z</time>
      </trkpt>
      <trkpt lat="46.588878" lon="12.725027">
        <ele>1435.354</ele>
        <time>2018-09-09T11:52:14Z</time>
      </trkpt>
      <trkpt lat="46.589322" lon="12.724950">
        <ele>1435.378</ele>
        <time>2018-09-09T11:52:33Z</time>
      </trkpt>
      <trkpt lat="46.589645" lon="12.724885">
        <ele>1435.333</ele>
        <time>2018-09-09T11:52:45Z</time>
      </trkpt>
      <trkpt lat="46.590072" lon="12.724788">
        <ele>1436.826</ele>
        <time>2018-09-09T11:52:58Z</time>
      </trkpt>
      <trkpt lat="46.590571" lon="12.724543">
        <ele>1437.708</ele>
        <time>2018-09-09T11:53:14Z</time>
      </trkpt>
      <trkpt lat="46.590900" lon="12.724353">
        <ele>1441.111</ele>
        <time>2018-09-09T11:53:30Z</time>
      </trkpt>
      <trkpt lat="46.591241" lon="12.724101">
        <ele>1442.643</ele>
        <time>2018-09-09T11:53:45Z</time>
      </trkpt>
      <trkpt lat="46.591419" lon="12.723684">
        <ele>1442.181</ele>
        <time>2018-09-09T11:54:02Z</time>
      </trkpt>
      <trkpt lat="46.591579" lon="12.723375">
        <ele>1446.976</ele>
        <time>2018-09-09T11:54:20Z</time>
      </trkpt>
      <trkpt lat="46.591616" lon="12.723275">
        <ele>1446.930</ele>
        <time>2018-09-09T11:54:25Z</time>
      </trkpt>
      <trkpt lat="46.591618" lon="12.723256">
        <ele>1446.942</ele>
        <time>2018-09-09T11:54:26Z</time>
      </trkpt>
      <trkpt lat="46.591621" lon="12.723238">
        <ele>1446.971</ele>
        <time>2018-09-09T11:54:27Z</time>
      </trkpt>
      <trkpt lat="46.591635" lon="12.723206">
        <ele>1445.976</ele>
        <time>2018-09-09T11:54:29Z</time>
      </trkpt>
      <trkpt lat="46.591683" lon="12.723124">
        <ele>1446.459</ele>
        <time>2018-09-09T11:54:34Z</time>
      </trkpt>
      <trkpt lat="46.591694" lon="12.723110">
        <ele>1446.903</ele>
        <time>2018-09-09T11:54:35Z</time>
      </trkpt>
      <trkpt lat="46.591704" lon="12.723091">
        <ele>1446.923</ele>
        <time>2018-09-09T11:54:36Z</time>
      </trkpt>
      <trkpt lat="46.591717" lon="12.723077">
        <ele>1446.908</ele>
        <time>2018-09-09T11:54:37Z</time>
      </trkpt>
      <trkpt lat="46.591728" lon="12.723062">
        <ele>1446.979</ele>
        <time>2018-09-09T11:54:38Z</time>
      </trkpt>
      <trkpt lat="46.591741" lon="12.723051">
        <ele>1446.461</ele>
        <time>2018-09-09T11:54:39Z</time>
      </trkpt>
      <trkpt lat="46.591751" lon="12.723044">
        <ele>1446.489</ele>
        <time>2018-09-09T11:54:40Z</time>
      </trkpt>
      <trkpt lat="46.592036" lon="12.722779">
        <ele>1449.314</ele>
        <time>2018-09-09T11:54:54Z</time>
      </trkpt>
      <trkpt lat="46.592502" lon="12.722344">
        <ele>1448.398</ele>
        <time>2018-09-09T11:55:10Z</time>
      </trkpt>
      <trkpt lat="46.592861" lon="12.722056">
        <ele>1449.820</ele>
        <time>2018-09-09T11:55:26Z</time>
      </trkpt>
      <trkpt lat="46.593216" lon="12.721739">
        <ele>1452.289</ele>
        <time>2018-09-09T11:55:44Z</time>
      </trkpt>
      <trkpt lat="46.593428" lon="12.721580">
        <ele>1452.664</ele>
        <time>2018-09-09T11:55:59Z</time>
      </trkpt>
      <trkpt lat="46.593734" lon="12.721334">
        <ele>1454.172</ele>
        <time>2018-09-09T11:56:19Z</time>
      </trkpt>
      <trkpt lat="46.594084" lon="12.721066">
        <ele>1455.013</ele>
        <time>2018-09-09T11:56:36Z</time>
      </trkpt>
      <trkpt lat="46.594170" lon="12.721024">
        <ele>1455.514</ele>
        <time>2018-09-09T11:56:41Z</time>
      </trkpt>
      <trkpt lat="46.594183" lon="12.721029">
        <ele>1456.008</ele>
        <time>2018-09-09T11:56:42Z</time>
      </trkpt>
      <trkpt lat="46.594195" lon="12.721034">
        <ele>1456.061</ele>
        <time>2018-09-09T11:56:43Z</time>
      </trkpt>
      <trkpt lat="46.594209" lon="12.721042">
        <ele>1456.063</ele>
        <time>2018-09-09T11:56:44Z</time>
      </trkpt>
      <trkpt lat="46.594225" lon="12.721051">
        <ele>1456.531</ele>
        <time>2018-09-09T11:56:45Z</time>
      </trkpt>
      <trkpt lat="46.594234" lon="12.721065">
        <ele>1457.066</ele>
        <time>2018-09-09T11:56:46Z</time>
      </trkpt>
      <trkpt lat="46.594241" lon="12.721082">
        <ele>1457.090</ele>
        <time>2018-09-09T11:56:47Z</time>
      </trkpt>
      <trkpt lat="46.594248" lon="12.721101">
        <ele>1457.092</ele>
        <time>2018-09-09T11:56:48Z</time>
      </trkpt>
      <trkpt lat="46.594253" lon="12.721120">
        <ele>1457.571</ele>
        <time>2018-09-09T11:56:49Z</time>
      </trkpt>
      <trkpt lat="46.594259" lon="12.721141">
        <ele>1457.526</ele>
        <time>2018-09-09T11:56:50Z</time>
      </trkpt>
      <trkpt lat="46.594266" lon="12.721163">
        <ele>1457.519</ele>
        <time>2018-09-09T11:56:51Z</time>
      </trkpt>
      <trkpt lat="46.594269" lon="12.721185">
        <ele>1457.509</ele>
        <time>2018-09-09T11:56:52Z</time>
      </trkpt>
      <trkpt lat="46.594271" lon="12.721204">
        <ele>1457.519</ele>
        <time>2018-09-09T11:56:53Z</time>
      </trkpt>
      <trkpt lat="46.594265" lon="12.721222">
        <ele>1457.008</ele>
        <time>2018-09-09T11:56:54Z</time>
      </trkpt>
      <trkpt lat="46.594257" lon="12.721238">
        <ele>1457.525</ele>
        <time>2018-09-09T11:56:55Z</time>
      </trkpt>
      <trkpt lat="46.594248" lon="12.721255">
        <ele>1457.527</ele>
        <time>2018-09-09T11:56:56Z</time>
      </trkpt>
      <trkpt lat="46.594240" lon="12.721271">
        <ele>1457.555</ele>
        <time>2018-09-09T11:56:57Z</time>
      </trkpt>
      <trkpt lat="46.594223" lon="12.721302">
        <ele>1457.950</ele>
        <time>2018-09-09T11:56:59Z</time>
      </trkpt>
      <trkpt lat="46.594217" lon="12.721317">
        <ele>1457.984</ele>
        <time>2018-09-09T11:57:00Z</time>
      </trkpt>
      <trkpt lat="46.594212" lon="12.721334">
        <ele>1457.556</ele>
        <time>2018-09-09T11:57:01Z</time>
      </trkpt>
      <trkpt lat="46.594205" lon="12.721351">
        <ele>1457.595</ele>
        <time>2018-09-09T11:57:02Z</time>
      </trkpt>
      <trkpt lat="46.594199" lon="12.721367">
        <ele>1457.570</ele>
        <time>2018-09-09T11:57:03Z</time>
      </trkpt>
      <trkpt lat="46.594181" lon="12.721390">
        <ele>1457.571</ele>
        <time>2018-09-09T11:57:05Z</time>
      </trkpt>
      <trkpt lat="46.594170" lon="12.721401">
        <ele>1457.541</ele>
        <time>2018-09-09T11:57:06Z</time>
      </trkpt>
      <trkpt lat="46.594161" lon="12.721417">
        <ele>1457.915</ele>
        <time>2018-09-09T11:57:07Z</time>
      </trkpt>
      <trkpt lat="46.594153" lon="12.721431">
        <ele>1457.908</ele>
        <time>2018-09-09T11:57:08Z</time>
      </trkpt>
      <trkpt lat="46.594144" lon="12.721442">
        <ele>1458.491</ele>
        <time>2018-09-09T11:57:09Z</time>
      </trkpt>
      <trkpt lat="46.594133" lon="12.721454">
        <ele>1458.453</ele>
        <time>2018-09-09T11:57:10Z</time>
      </trkpt>
      <trkpt lat="46.594124" lon="12.721466">
        <ele>1458.951</ele>
        <time>2018-09-09T11:57:11Z</time>
      </trkpt>
      <trkpt lat="46.594118" lon="12.721496">
        <ele>1459.496</ele>
        <time>2018-09-09T11:57:13Z</time>
      </trkpt>
      <trkpt lat="46.594117" lon="12.721512">
        <ele>1459.990</ele>
        <time>2018-09-09T11:57:14Z</time>
      </trkpt>
      <trkpt lat="46.594114" lon="12.721528">
        <ele>1460.312</ele>
        <time>2018-09-09T11:57:15Z</time>
      </trkpt>
      <trkpt lat="46.594108" lon="12.721542">
        <ele>1460.821</ele>
        <time>2018-09-09T11:57:16Z</time>
      </trkpt>
      <trkpt lat="46.594102" lon="12.721557">
        <ele>1461.316</ele>
        <time>2018-09-09T11:57:17Z</time>
      </trkpt>
      <trkpt lat="46.594084" lon="12.721607">
        <ele>1462.759</ele>
        <time>2018-09-09T11:57:21Z</time>
      </trkpt>
      <trkpt lat="46.594083" lon="12.721624">
        <ele>1462.703</ele>
        <time>2018-09-09T11:57:22Z</time>
      </trkpt>
      <trkpt lat="46.594080" lon="12.721657">
        <ele>1463.223</ele>
        <time>2018-09-09T11:57:24Z</time>
      </trkpt>
      <trkpt lat="46.594079" lon="12.721675">
        <ele>1463.708</ele>
        <time>2018-09-09T11:57:25Z</time>
      </trkpt>
      <trkpt lat="46.594080" lon="12.721691">
        <ele>1463.769</ele>
        <time>2018-09-09T11:57:26Z</time>
      </trkpt>
      <trkpt lat="46.594086" lon="12.721703">
        <ele>1464.231</ele>
        <time>2018-09-09T11:57:27Z</time>
      </trkpt>
      <trkpt lat="46.594097" lon="12.721709">
        <ele>1464.269</ele>
        <time>2018-09-09T11:57:28Z</time>
      </trkpt>
      <trkpt lat="46.594109" lon="12.721708">
        <ele>1464.214</ele>
        <time>2018-09-09T11:57:29Z</time>
      </trkpt>
      <trkpt lat="46.594120" lon="12.721706">
        <ele>1464.788</ele>
        <time>2018-09-09T11:57:30Z</time>
      </trkpt>
      <trkpt lat="46.594133" lon="12.721701">
        <ele>1464.790</ele>
        <time>2018-09-09T11:57:31Z</time>
      </trkpt>
      <trkpt lat="46.594188" lon="12.721692">
        <ele>1465.119</ele>
        <time>2018-09-09T11:57:36Z</time>
      </trkpt>
      <trkpt lat="46.594201" lon="12.721688">
        <ele>1465.184</ele>
        <time>2018-09-09T11:57:37Z</time>
      </trkpt>
      <trkpt lat="46.594212" lon="12.721683">
        <ele>1465.154</ele>
        <time>2018-09-09T11:57:38Z</time>
      </trkpt>
      <trkpt lat="46.594308" lon="12.721617">
        <ele>1466.156</ele>
        <time>2018-09-09T11:57:47Z</time>
      </trkpt>
      <trkpt lat="46.594318" lon="12.721608">
        <ele>1466.111</ele>
        <time>2018-09-09T11:57:48Z</time>
      </trkpt>
      <trkpt lat="46.594325" lon="12.721598">
        <ele>1466.108</ele>
        <time>2018-09-09T11:57:49Z</time>
      </trkpt>
      <trkpt lat="46.594335" lon="12.721591">
        <ele>1465.699</ele>
        <time>2018-09-09T11:57:50Z</time>
      </trkpt>
      <trkpt lat="46.594347" lon="12.721585">
        <ele>1465.661</ele>
        <time>2018-09-09T11:57:51Z</time>
      </trkpt>
      <trkpt lat="46.594360" lon="12.721578">
        <ele>1465.619</ele>
        <time>2018-09-09T11:57:52Z</time>
      </trkpt>
      <trkpt lat="46.594371" lon="12.721573">
        <ele>1465.674</ele>
        <time>2018-09-09T11:57:53Z</time>
      </trkpt>
      <trkpt lat="46.594460" lon="12.721485">
        <ele>1466.648</ele>
        <time>2018-09-09T11:58:03Z</time>
      </trkpt>
      <trkpt lat="46.594467" lon="12.721470">
        <ele>1466.690</ele>
        <time>2018-09-09T11:58:04Z</time>
      </trkpt>
      <trkpt lat="46.594578" lon="12.721368">
        <ele>1470.969</ele>
        <time>2018-09-09T11:58:16Z</time>
      </trkpt>
      <trkpt lat="46.594585" lon="12.721353">
        <ele>1471.474</ele>
        <time>2018-09-09T11:58:17Z</time>
      </trkpt>
      <trkpt lat="46.594594" lon="12.721337">
        <ele>1471.455</ele>
        <time>2018-09-09T11:58:18Z</time>
      </trkpt>
      <trkpt lat="46.594599" lon="12.721289">
        <ele>1474.807</ele>
        <time>2018-09-09T11:58:31Z</time>
      </trkpt>
      <trkpt lat="46.594594" lon="12.721240">
        <ele>1476.717</ele>
        <time>2018-09-09T11:58:55Z</time>
      </trkpt>
      <trkpt lat="46.594622" lon="12.721265">
        <ele>1478.608</ele>
        <time>2018-09-09T11:59:12Z</time>
      </trkpt>
      <trkpt lat="46.594649" lon="12.721283">
        <ele>1478.619</ele>
        <time>2018-09-09T11:59:16Z</time>
      </trkpt>
      <trkpt lat="46.594665" lon="12.721269">
        <ele>1479.131</ele>
        <time>2018-09-09T11:59:18Z</time>
      </trkpt>
      <trkpt lat="46.594672" lon="12.721256">
        <ele>1479.169</ele>
        <time>2018-09-09T11:59:19Z</time>
      </trkpt>
      <trkpt lat="46.594701" lon="12.721233">
        <ele>1478.654</ele>
        <time>2018-09-09T11:59:22Z</time>
      </trkpt>
      <trkpt lat="46.594711" lon="12.721230">
        <ele>1478.198</ele>
        <time>2018-09-09T11:59:23Z</time>
      </trkpt>
      <trkpt lat="46.594719" lon="12.721222">
        <ele>1478.630</ele>
        <time>2018-09-09T11:59:24Z</time>
      </trkpt>
      <trkpt lat="46.594735" lon="12.721212">
        <ele>1478.699</ele>
        <time>2018-09-09T11:59:26Z</time>
      </trkpt>
      <trkpt lat="46.594743" lon="12.721210">
        <ele>1479.114</ele>
        <time>2018-09-09T11:59:27Z</time>
      </trkpt>
      <trkpt lat="46.594753" lon="12.721209">
        <ele>1479.143</ele>
        <time>2018-09-09T11:59:28Z</time>
      </trkpt>
      <trkpt lat="46.594762" lon="12.721202">
        <ele>1479.664</ele>
        <time>2018-09-09T11:59:29Z</time>
      </trkpt>
      <trkpt lat="46.594892" lon="12.721119">
        <ele>1483.410</ele>
        <time>2018-09-09T11:59:44Z</time>
      </trkpt>
      <trkpt lat="46.595039" lon="12.721046">
        <ele>1488.708</ele>
        <time>2018-09-09T12:00:00Z</time>
      </trkpt>
      <trkpt lat="46.595164" lon="12.720987">
        <ele>1493.038</ele>
        <time>2018-09-09T12:00:13Z</time>
      </trkpt>
      <trkpt lat="46.595277" lon="12.720917">
        <ele>1494.920</ele>
        <time>2018-09-09T12:00:24Z</time>
      </trkpt>
      <trkpt lat="46.595405" lon="12.720842">
        <ele>1495.438</ele>
        <time>2018-09-09T12:00:37Z</time>
      </trkpt>
      <trkpt lat="46.595535" lon="12.720800">
        <ele>1497.393</ele>
        <time>2018-09-09T12:00:49Z</time>
      </trkpt>
      <trkpt lat="46.595547" lon="12.720796">
        <ele>1497.337</ele>
        <time>2018-09-09T12:00:50Z</time>
      </trkpt>
      <trkpt lat="46.595559" lon="12.720795">
        <ele>1497.399</ele>
        <time>2018-09-09T12:00:51Z</time>
      </trkpt>
      <trkpt lat="46.595572" lon="12.720797">
        <ele>1497.348</ele>
        <time>2018-09-09T12:00:52Z</time>
      </trkpt>
      <trkpt lat="46.595584" lon="12.720798">
        <ele>1497.363</ele>
        <time>2018-09-09T12:00:53Z</time>
      </trkpt>
      <trkpt lat="46.595595" lon="12.720800">
        <ele>1497.329</ele>
        <time>2018-09-09T12:00:54Z</time>
      </trkpt>
      <trkpt lat="46.595734" lon="12.720779">
        <ele>1498.800</ele>
        <time>2018-09-09T12:01:06Z</time>
      </trkpt>
      <trkpt lat="46.595743" lon="12.720782">
        <ele>1498.320</ele>
        <time>2018-09-09T12:01:07Z</time>
      </trkpt>
      <trkpt lat="46.595926" lon="12.720905">
        <ele>1499.708</ele>
        <time>2018-09-09T12:01:24Z</time>
      </trkpt>
      <trkpt lat="46.596082" lon="12.720987">
        <ele>1501.286</ele>
        <time>2018-09-09T12:01:38Z</time>
      </trkpt>
      <trkpt lat="46.596353" lon="12.720958">
        <ele>1502.698</ele>
        <time>2018-09-09T12:01:55Z</time>
      </trkpt>
      <trkpt lat="46.596581" lon="12.720809">
        <ele>1504.176</ele>
        <time>2018-09-09T12:02:11Z</time>
      </trkpt>
      <trkpt lat="46.596596" lon="12.720798">
        <ele>1504.131</ele>
        <time>2018-09-09T12:02:12Z</time>
      </trkpt>
      <trkpt lat="46.596610" lon="12.720789">
        <ele>1504.635</ele>
        <time>2018-09-09T12:02:13Z</time>
      </trkpt>
      <trkpt lat="46.596626" lon="12.720781">
        <ele>1504.157</ele>
        <time>2018-09-09T12:02:14Z</time>
      </trkpt>
      <trkpt lat="46.596642" lon="12.720774">
        <ele>1504.176</ele>
        <time>2018-09-09T12:02:15Z</time>
      </trkpt>
      <trkpt lat="46.596710" lon="12.720768">
        <ele>1504.611</ele>
        <time>2018-09-09T12:02:19Z</time>
      </trkpt>
      <trkpt lat="46.596726" lon="12.720768">
        <ele>1504.648</ele>
        <time>2018-09-09T12:02:20Z</time>
      </trkpt>
      <trkpt lat="46.596742" lon="12.720773">
        <ele>1504.661</ele>
        <time>2018-09-09T12:02:21Z</time>
      </trkpt>
      <trkpt lat="46.596817" lon="12.720788">
        <ele>1504.617</ele>
        <time>2018-09-09T12:02:25Z</time>
      </trkpt>
      <trkpt lat="46.596836" lon="12.720795">
        <ele>1504.608</ele>
        <time>2018-09-09T12:02:26Z</time>
      </trkpt>
      <trkpt lat="46.596858" lon="12.720793">
        <ele>1505.058</ele>
        <time>2018-09-09T12:02:27Z</time>
      </trkpt>
      <trkpt lat="46.596897" lon="12.720793">
        <ele>1506.010</ele>
        <time>2018-09-09T12:02:29Z</time>
      </trkpt>
      <trkpt lat="46.596915" lon="12.720797">
        <ele>1506.068</ele>
        <time>2018-09-09T12:02:30Z</time>
      </trkpt>
      <trkpt lat="46.597251" lon="12.720796">
        <ele>1510.373</ele>
        <time>2018-09-09T12:02:47Z</time>
      </trkpt>
      <trkpt lat="46.597625" lon="12.720972">
        <ele>1508.937</ele>
        <time>2018-09-09T12:03:03Z</time>
      </trkpt>
      <trkpt lat="46.597991" lon="12.721042">
        <ele>1507.089</ele>
        <time>2018-09-09T12:03:15Z</time>
      </trkpt>
      <trkpt lat="46.598405" lon="12.721218">
        <ele>1504.168</ele>
        <time>2018-09-09T12:03:25Z</time>
      </trkpt>
      <trkpt lat="46.598463" lon="12.721225">
        <ele>1504.133</ele>
        <time>2018-09-09T12:03:26Z</time>
      </trkpt>
      <trkpt lat="46.598518" lon="12.721210">
        <ele>1503.633</ele>
        <time>2018-09-09T12:03:27Z</time>
      </trkpt>
      <trkpt lat="46.598564" lon="12.721170">
        <ele>1503.623</ele>
        <time>2018-09-09T12:03:28Z</time>
      </trkpt>
      <trkpt lat="46.598601" lon="12.721118">
        <ele>1503.115</ele>
        <time>2018-09-09T12:03:29Z</time>
      </trkpt>
      <trkpt lat="46.598635" lon="12.721064">
        <ele>1503.108</ele>
        <time>2018-09-09T12:03:30Z</time>
      </trkpt>
      <trkpt lat="46.598675" lon="12.721016">
        <ele>1503.177</ele>
        <time>2018-09-09T12:03:31Z</time>
      </trkpt>
      <trkpt lat="46.598721" lon="12.720982">
        <ele>1503.139</ele>
        <time>2018-09-09T12:03:32Z</time>
      </trkpt>
      <trkpt lat="46.598768" lon="12.720966">
        <ele>1502.647</ele>
        <time>2018-09-09T12:03:33Z</time>
      </trkpt>
      <trkpt lat="46.598813" lon="12.720959">
        <ele>1502.612</ele>
        <time>2018-09-09T12:03:34Z</time>
      </trkpt>
      <trkpt lat="46.598852" lon="12.720964">
        <ele>1502.616</ele>
        <time>2018-09-09T12:03:35Z</time>
      </trkpt>
      <trkpt lat="46.598883" lon="12.720978">
        <ele>1502.268</ele>
        <time>2018-09-09T12:03:36Z</time>
      </trkpt>
      <trkpt lat="46.598909" lon="12.720997">
        <ele>1502.637</ele>
        <time>2018-09-09T12:03:37Z</time>
      </trkpt>
      <trkpt lat="46.598931" lon="12.721015">
        <ele>1502.612</ele>
        <time>2018-09-09T12:03:38Z</time>
      </trkpt>
      <trkpt lat="46.599225" lon="12.721264">
        <ele>1505.038</ele>
        <time>2018-09-09T12:03:55Z</time>
      </trkpt>
      <trkpt lat="46.599504" lon="12.721489">
        <ele>1506.570</ele>
        <time>2018-09-09T12:04:13Z</time>
      </trkpt>
      <trkpt lat="46.599760" lon="12.721472">
        <ele>1507.917</ele>
        <time>2018-09-09T12:04:29Z</time>
      </trkpt>
      <trkpt lat="46.600020" lon="12.721392">
        <ele>1510.308</ele>
        <time>2018-09-09T12:04:46Z</time>
      </trkpt>
      <trkpt lat="46.600416" lon="12.721427">
        <ele>1511.897</ele>
        <time>2018-09-09T12:05:10Z</time>
      </trkpt>
      <trkpt lat="46.600684" lon="12.721577">
        <ele>1513.759</ele>
        <time>2018-09-09T12:05:29Z</time>
      </trkpt>
      <trkpt lat="46.600898" lon="12.721802">
        <ele>1519.037</ele>
        <time>2018-09-09T12:05:48Z</time>
      </trkpt>
      <trkpt lat="46.601078" lon="12.722056">
        <ele>1520.982</ele>
        <time>2018-09-09T12:06:08Z</time>
      </trkpt>
      <trkpt lat="46.601195" lon="12.722284">
        <ele>1522.396</ele>
        <time>2018-09-09T12:06:24Z</time>
      </trkpt>
      <trkpt lat="46.601218" lon="12.722324">
        <ele>1522.878</ele>
        <time>2018-09-09T12:06:27Z</time>
      </trkpt>
      <trkpt lat="46.601254" lon="12.722357">
        <ele>1523.857</ele>
        <time>2018-09-09T12:06:31Z</time>
      </trkpt>
      <trkpt lat="46.601260" lon="12.722368">
        <ele>1524.312</ele>
        <time>2018-09-09T12:06:32Z</time>
      </trkpt>
      <trkpt lat="46.601421" lon="12.722343">
        <ele>1525.733</ele>
        <time>2018-09-09T12:06:49Z</time>
      </trkpt>
      <trkpt lat="46.601445" lon="12.722314">
        <ele>1526.223</ele>
        <time>2018-09-09T12:06:52Z</time>
      </trkpt>
      <trkpt lat="46.601452" lon="12.722299">
        <ele>1526.715</ele>
        <time>2018-09-09T12:06:53Z</time>
      </trkpt>
      <trkpt lat="46.601454" lon="12.722287">
        <ele>1526.708</ele>
        <time>2018-09-09T12:06:54Z</time>
      </trkpt>
      <trkpt lat="46.601451" lon="12.722273">
        <ele>1526.777</ele>
        <time>2018-09-09T12:06:55Z</time>
      </trkpt>
      <trkpt lat="46.601449" lon="12.722256">
        <ele>1527.169</ele>
        <time>2018-09-09T12:06:56Z</time>
      </trkpt>
      <trkpt lat="46.601448" lon="12.722243">
        <ele>1527.167</ele>
        <time>2018-09-09T12:06:57Z</time>
      </trkpt>
      <trkpt lat="46.601445" lon="12.722227">
        <ele>1527.182</ele>
        <time>2018-09-09T12:06:58Z</time>
      </trkpt>
      <trkpt lat="46.601325" lon="12.722097">
        <ele>1530.026</ele>
        <time>2018-09-09T12:07:12Z</time>
      </trkpt>
      <trkpt lat="46.601319" lon="12.722084">
        <ele>1530.058</ele>
        <time>2018-09-09T12:07:13Z</time>
      </trkpt>
      <trkpt lat="46.601315" lon="12.722069">
        <ele>1530.017</ele>
        <time>2018-09-09T12:07:14Z</time>
      </trkpt>
      <trkpt lat="46.601312" lon="12.722052">
        <ele>1530.582</ele>
        <time>2018-09-09T12:07:15Z</time>
      </trkpt>
      <trkpt lat="46.601311" lon="12.722037">
        <ele>1530.559</ele>
        <time>2018-09-09T12:07:16Z</time>
      </trkpt>
      <trkpt lat="46.601308" lon="12.722021">
        <ele>1531.003</ele>
        <time>2018-09-09T12:07:17Z</time>
      </trkpt>
      <trkpt lat="46.601306" lon="12.721989">
        <ele>1531.523</ele>
        <time>2018-09-09T12:07:19Z</time>
      </trkpt>
      <trkpt lat="46.601309" lon="12.721972">
        <ele>1531.508</ele>
        <time>2018-09-09T12:07:20Z</time>
      </trkpt>
      <trkpt lat="46.601312" lon="12.721958">
        <ele>1532.049</ele>
        <time>2018-09-09T12:07:21Z</time>
      </trkpt>
      <trkpt lat="46.601327" lon="12.721936">
        <ele>1532.011</ele>
        <time>2018-09-09T12:07:23Z</time>
      </trkpt>
      <trkpt lat="46.601338" lon="12.721937">
        <ele>1532.089</ele>
        <time>2018-09-09T12:07:24Z</time>
      </trkpt>
      <trkpt lat="46.601467" lon="12.722028">
        <ele>1533.494</ele>
        <time>2018-09-09T12:07:38Z</time>
      </trkpt>
      <trkpt lat="46.601593" lon="12.722090">
        <ele>1536.318</ele>
        <time>2018-09-09T12:07:54Z</time>
      </trkpt>
      <trkpt lat="46.601650" lon="12.722068">
        <ele>1538.220</ele>
        <time>2018-09-09T12:08:01Z</time>
      </trkpt>
      <trkpt lat="46.601680" lon="12.722037">
        <ele>1538.749</ele>
        <time>2018-09-09T12:08:05Z</time>
      </trkpt>
      <trkpt lat="46.601681" lon="12.722021">
        <ele>1538.774</ele>
        <time>2018-09-09T12:08:06Z</time>
      </trkpt>
      <trkpt lat="46.601659" lon="12.721978">
        <ele>1538.735</ele>
        <time>2018-09-09T12:08:10Z</time>
      </trkpt>
      <trkpt lat="46.601654" lon="12.721965">
        <ele>1538.786</ele>
        <time>2018-09-09T12:08:11Z</time>
      </trkpt>
      <trkpt lat="46.601575" lon="12.721840">
        <ele>1542.514</ele>
        <time>2018-09-09T12:08:23Z</time>
      </trkpt>
      <trkpt lat="46.601565" lon="12.721834">
        <ele>1543.008</ele>
        <time>2018-09-09T12:08:24Z</time>
      </trkpt>
      <trkpt lat="46.601471" lon="12.721741">
        <ele>1544.537</ele>
        <time>2018-09-09T12:08:36Z</time>
      </trkpt>
      <trkpt lat="46.601452" lon="12.721733">
        <ele>1544.949</ele>
        <time>2018-09-09T12:08:38Z</time>
      </trkpt>
      <trkpt lat="46.601397" lon="12.721649">
        <ele>1545.997</ele>
        <time>2018-09-09T12:08:46Z</time>
      </trkpt>
      <trkpt lat="46.601395" lon="12.721633">
        <ele>1546.482</ele>
        <time>2018-09-09T12:08:47Z</time>
      </trkpt>
      <trkpt lat="46.601419" lon="12.721598">
        <ele>1546.956</ele>
        <time>2018-09-09T12:08:51Z</time>
      </trkpt>
      <trkpt lat="46.601430" lon="12.721603">
        <ele>1547.318</ele>
        <time>2018-09-09T12:08:52Z</time>
      </trkpt>
      <trkpt lat="46.601440" lon="12.721610">
        <ele>1547.367</ele>
        <time>2018-09-09T12:08:53Z</time>
      </trkpt>
      <trkpt lat="46.601450" lon="12.721619">
        <ele>1547.862</ele>
        <time>2018-09-09T12:08:54Z</time>
      </trkpt>
      <trkpt lat="46.601462" lon="12.721629">
        <ele>1547.851</ele>
        <time>2018-09-09T12:08:55Z</time>
      </trkpt>
      <trkpt lat="46.601474" lon="12.721636">
        <ele>1547.801</ele>
        <time>2018-09-09T12:08:56Z</time>
      </trkpt>
      <trkpt lat="46.601484" lon="12.721638">
        <ele>1547.811</ele>
        <time>2018-09-09T12:08:57Z</time>
      </trkpt>
      <trkpt lat="46.601495" lon="12.721638">
        <ele>1547.808</ele>
        <time>2018-09-09T12:08:58Z</time>
      </trkpt>
      <trkpt lat="46.601506" lon="12.721642">
        <ele>1547.819</ele>
        <time>2018-09-09T12:08:59Z</time>
      </trkpt>
      <trkpt lat="46.601516" lon="12.721648">
        <ele>1547.841</ele>
        <time>2018-09-09T12:09:00Z</time>
      </trkpt>
      <trkpt lat="46.601525" lon="12.721657">
        <ele>1547.889</ele>
        <time>2018-09-09T12:09:01Z</time>
      </trkpt>
      <trkpt lat="46.601655" lon="12.721711">
        <ele>1549.754</ele>
        <time>2018-09-09T12:09:13Z</time>
      </trkpt>
      <trkpt lat="46.601683" lon="12.721729">
        <ele>1550.258</ele>
        <time>2018-09-09T12:09:16Z</time>
      </trkpt>
      <trkpt lat="46.601735" lon="12.721751">
        <ele>1551.230</ele>
        <time>2018-09-09T12:09:20Z</time>
      </trkpt>
      <trkpt lat="46.601909" lon="12.721840">
        <ele>1553.649</ele>
        <time>2018-09-09T12:09:37Z</time>
      </trkpt>
      <trkpt lat="46.602077" lon="12.722011">
        <ele>1552.624</ele>
        <time>2018-09-09T12:09:53Z</time>
      </trkpt>
      <trkpt lat="46.602358" lon="12.722073">
        <ele>1552.651</ele>
        <time>2018-09-09T12:10:10Z</time>
      </trkpt>
      <trkpt lat="46.602596" lon="12.722211">
        <ele>1555.501</ele>
        <time>2018-09-09T12:10:27Z</time>
      </trkpt>
      <trkpt lat="46.602865" lon="12.722410">
        <ele>1558.411</ele>
        <time>2018-09-09T12:10:45Z</time>
      </trkpt>
      <trkpt lat="46.603125" lon="12.722481">
        <ele>1561.808</ele>
        <time>2018-09-09T12:11:03Z</time>
      </trkpt>
      <trkpt lat="46.603289" lon="12.722468">
        <ele>1565.159</ele>
        <time>2018-09-09T12:11:15Z</time>
      </trkpt>
      <trkpt lat="46.603480" lon="12.722479">
        <ele>1570.421</ele>
        <time>2018-09-09T12:11:28Z</time>
      </trkpt>
      <trkpt lat="46.603639" lon="12.722489">
        <ele>1574.359</ele>
        <time>2018-09-09T12:11:45Z</time>
      </trkpt>
      <trkpt lat="46.603688" lon="12.722489">
        <ele>1575.714</ele>
        <time>2018-09-09T12:11:50Z</time>
      </trkpt>
      <trkpt lat="46.603760" lon="12.722520">
        <ele>1576.268</ele>
        <time>2018-09-09T12:11:58Z</time>
      </trkpt>
      <trkpt lat="46.603935" lon="12.722551">
        <ele>1579.530</ele>
        <time>2018-09-09T12:12:15Z</time>
      </trkpt>
      <trkpt lat="46.604140" lon="12.722495">
        <ele>1580.549</ele>
        <time>2018-09-09T12:12:34Z</time>
      </trkpt>
      <trkpt lat="46.604263" lon="12.722410">
        <ele>1584.394</ele>
        <time>2018-09-09T12:12:49Z</time>
      </trkpt>
      <trkpt lat="46.604376" lon="12.722355">
        <ele>1587.213</ele>
        <time>2018-09-09T12:13:02Z</time>
      </trkpt>
      <trkpt lat="46.604507" lon="12.722287">
        <ele>1591.643</ele>
        <time>2018-09-09T12:13:17Z</time>
      </trkpt>
      <trkpt lat="46.604528" lon="12.722279">
        <ele>1591.607</ele>
        <time>2018-09-09T12:13:19Z</time>
      </trkpt>
      <trkpt lat="46.604683" lon="12.722212">
        <ele>1594.008</ele>
        <time>2018-09-09T12:13:35Z</time>
      </trkpt>
      <trkpt lat="46.604760" lon="12.722095">
        <ele>1595.915</ele>
        <time>2018-09-09T12:13:47Z</time>
      </trkpt>
      <trkpt lat="46.604953" lon="12.722036">
        <ele>1597.817</ele>
        <time>2018-09-09T12:14:05Z</time>
      </trkpt>
      <trkpt lat="46.605143" lon="12.722114">
        <ele>1600.285</ele>
        <time>2018-09-09T12:14:23Z</time>
      </trkpt>
      <trkpt lat="46.605285" lon="12.722195">
        <ele>1604.150</ele>
        <time>2018-09-09T12:14:37Z</time>
      </trkpt>
      <trkpt lat="46.605365" lon="12.722204">
        <ele>1604.584</ele>
        <time>2018-09-09T12:14:45Z</time>
      </trkpt>
      <trkpt lat="46.605475" lon="12.722200">
        <ele>1606.036</ele>
        <time>2018-09-09T12:14:55Z</time>
      </trkpt>
      <trkpt lat="46.605484" lon="12.722186">
        <ele>1605.515</ele>
        <time>2018-09-09T12:14:56Z</time>
      </trkpt>
      <trkpt lat="46.605494" lon="12.722174">
        <ele>1605.060</ele>
        <time>2018-09-09T12:14:57Z</time>
      </trkpt>
      <trkpt lat="46.605547" lon="12.722170">
        <ele>1605.591</ele>
        <time>2018-09-09T12:15:03Z</time>
      </trkpt>
      <trkpt lat="46.605726" lon="12.722164">
        <ele>1608.981</ele>
        <time>2018-09-09T12:15:20Z</time>
      </trkpt>
      <trkpt lat="46.605889" lon="12.722108">
        <ele>1612.719</ele>
        <time>2018-09-09T12:15:36Z</time>
      </trkpt>
      <trkpt lat="46.605903" lon="12.722108">
        <ele>1612.708</ele>
        <time>2018-09-09T12:15:37Z</time>
      </trkpt>
      <trkpt lat="46.606061" lon="12.722078">
        <ele>1615.123</ele>
        <time>2018-09-09T12:15:52Z</time>
      </trkpt>
      <trkpt lat="46.606269" lon="12.722025">
        <ele>1617.575</ele>
        <time>2018-09-09T12:16:12Z</time>
      </trkpt>
      <trkpt lat="46.606317" lon="12.721993">
        <ele>1618.043</ele>
        <time>2018-09-09T12:16:17Z</time>
      </trkpt>
      <trkpt lat="46.606324" lon="12.721983">
        <ele>1618.048</ele>
        <time>2018-09-09T12:16:18Z</time>
      </trkpt>
      <trkpt lat="46.606480" lon="12.721771">
        <ele>1617.042</ele>
        <time>2018-09-09T12:16:37Z</time>
      </trkpt>
      <trkpt lat="46.606603" lon="12.721599">
        <ele>1618.024</ele>
        <time>2018-09-09T12:16:53Z</time>
      </trkpt>
      <trkpt lat="46.606615" lon="12.721590">
        <ele>1618.033</ele>
        <time>2018-09-09T12:16:54Z</time>
      </trkpt>
      <trkpt lat="46.606736" lon="12.721472">
        <ele>1619.978</ele>
        <time>2018-09-09T12:17:07Z</time>
      </trkpt>
      <trkpt lat="46.606785" lon="12.721430">
        <ele>1619.978</ele>
        <time>2018-09-09T12:17:12Z</time>
      </trkpt>
      <trkpt lat="46.606897" lon="12.721302">
        <ele>1622.333</ele>
        <time>2018-09-09T12:17:26Z</time>
      </trkpt>
      <trkpt lat="46.606917" lon="12.721290">
        <ele>1622.326</ele>
        <time>2018-09-09T12:17:28Z</time>
      </trkpt>
      <trkpt lat="46.606926" lon="12.721286">
        <ele>1622.308</ele>
        <time>2018-09-09T12:17:29Z</time>
      </trkpt>
      <trkpt lat="46.606971" lon="12.721255">
        <ele>1622.891</ele>
        <time>2018-09-09T12:17:34Z</time>
      </trkpt>
      <trkpt lat="46.606983" lon="12.721255">
        <ele>1622.853</ele>
        <time>2018-09-09T12:17:35Z</time>
      </trkpt>
      <trkpt lat="46.607200" lon="12.721243">
        <ele>1625.731</ele>
        <time>2018-09-09T12:17:55Z</time>
      </trkpt>
      <trkpt lat="46.607212" lon="12.721243">
        <ele>1625.766</ele>
        <time>2018-09-09T12:17:56Z</time>
      </trkpt>
      <trkpt lat="46.607401" lon="12.721182">
        <ele>1626.630</ele>
        <time>2018-09-09T12:18:11Z</time>
      </trkpt>
      <trkpt lat="46.607652" lon="12.721000">
        <ele>1628.132</ele>
        <time>2018-09-09T12:18:25Z</time>
      </trkpt>
      <trkpt lat="46.607928" lon="12.720974">
        <ele>1629.561</ele>
        <time>2018-09-09T12:18:39Z</time>
      </trkpt>
      <trkpt lat="46.608036" lon="12.720917">
        <ele>1631.916</ele>
        <time>2018-09-09T12:18:49Z</time>
      </trkpt>
      <trkpt lat="46.608201" lon="12.720848">
        <ele>1634.367</ele>
        <time>2018-09-09T12:19:03Z</time>
      </trkpt>
      <trkpt lat="46.608219" lon="12.720830">
        <ele>1634.881</ele>
        <time>2018-09-09T12:19:05Z</time>
      </trkpt>
      <trkpt lat="46.608230" lon="12.720823">
        <ele>1635.319</ele>
        <time>2018-09-09T12:19:06Z</time>
      </trkpt>
      <trkpt lat="46.608325" lon="12.720799">
        <ele>1637.208</ele>
        <time>2018-09-09T12:19:15Z</time>
      </trkpt>
      <trkpt lat="46.608335" lon="12.720795">
        <ele>1637.230</ele>
        <time>2018-09-09T12:19:16Z</time>
      </trkpt>
      <trkpt lat="46.608549" lon="12.720764">
        <ele>1639.642</ele>
        <time>2018-09-09T12:19:34Z</time>
      </trkpt>
      <trkpt lat="46.608813" lon="12.720585">
        <ele>1641.540</ele>
        <time>2018-09-09T12:19:52Z</time>
      </trkpt>
      <trkpt lat="46.609108" lon="12.720666">
        <ele>1641.165</ele>
        <time>2018-09-09T12:20:07Z</time>
      </trkpt>
      <trkpt lat="46.609485" lon="12.720888">
        <ele>1638.239</ele>
        <time>2018-09-09T12:20:18Z</time>
      </trkpt>
      <trkpt lat="46.609529" lon="12.720892">
        <ele>1637.741</ele>
        <time>2018-09-09T12:20:19Z</time>
      </trkpt>
      <trkpt lat="46.609571" lon="12.720894">
        <ele>1637.750</ele>
        <time>2018-09-09T12:20:20Z</time>
      </trkpt>
      <trkpt lat="46.609615" lon="12.720895">
        <ele>1637.265</ele>
        <time>2018-09-09T12:20:21Z</time>
      </trkpt>
      <trkpt lat="46.609661" lon="12.720891">
        <ele>1637.245</ele>
        <time>2018-09-09T12:20:22Z</time>
      </trkpt>
      <trkpt lat="46.609708" lon="12.720884">
        <ele>1637.247</ele>
        <time>2018-09-09T12:20:23Z</time>
      </trkpt>
      <trkpt lat="46.610333" lon="12.720776">
        <ele>1637.711</ele>
        <time>2018-09-09T12:20:40Z</time>
      </trkpt>
      <trkpt lat="46.610717" lon="12.720439">
        <ele>1639.108</ele>
        <time>2018-09-09T12:20:56Z</time>
      </trkpt>
      <trkpt lat="46.611154" lon="12.720184">
        <ele>1643.028</ele>
        <time>2018-09-09T12:21:15Z</time>
      </trkpt>
      <trkpt lat="46.611562" lon="12.720403">
        <ele>1643.550</ele>
        <time>2018-09-09T12:21:34Z</time>
      </trkpt>
      <trkpt lat="46.611629" lon="12.720511">
        <ele>1644.488</ele>
        <time>2018-09-09T12:21:40Z</time>
      </trkpt>
      <trkpt lat="46.611641" lon="12.720531">
        <ele>1644.433</ele>
        <time>2018-09-09T12:21:41Z</time>
      </trkpt>
      <trkpt lat="46.611655" lon="12.720550">
        <ele>1644.487</ele>
        <time>2018-09-09T12:21:42Z</time>
      </trkpt>
      <trkpt lat="46.611667" lon="12.720569">
        <ele>1643.969</ele>
        <time>2018-09-09T12:21:43Z</time>
      </trkpt>
      <trkpt lat="46.611681" lon="12.720586">
        <ele>1643.978</ele>
        <time>2018-09-09T12:21:44Z</time>
      </trkpt>
      <trkpt lat="46.611696" lon="12.720599">
        <ele>1643.983</ele>
        <time>2018-09-09T12:21:45Z</time>
      </trkpt>
      <trkpt lat="46.611713" lon="12.720608">
        <ele>1643.967</ele>
        <time>2018-09-09T12:21:46Z</time>
      </trkpt>
      <trkpt lat="46.611727" lon="12.720618">
        <ele>1643.581</ele>
        <time>2018-09-09T12:21:47Z</time>
      </trkpt>
      <trkpt lat="46.611757" lon="12.720634">
        <ele>1643.519</ele>
        <time>2018-09-09T12:21:49Z</time>
      </trkpt>
      <trkpt lat="46.612054" lon="12.720695">
        <ele>1645.908</ele>
        <time>2018-09-09T12:22:07Z</time>
      </trkpt>
      <trkpt lat="46.612149" lon="12.720714">
        <ele>1647.330</ele>
        <time>2018-09-09T12:22:14Z</time>
      </trkpt>
      <trkpt lat="46.612157" lon="12.720723">
        <ele>1647.382</ele>
        <time>2018-09-09T12:22:15Z</time>
      </trkpt>
      <trkpt lat="46.612165" lon="12.720734">
        <ele>1647.870</ele>
        <time>2018-09-09T12:22:16Z</time>
      </trkpt>
      <trkpt lat="46.612171" lon="12.720746">
        <ele>1648.365</ele>
        <time>2018-09-09T12:22:17Z</time>
      </trkpt>
      <trkpt lat="46.612178" lon="12.720759">
        <ele>1648.819</ele>
        <time>2018-09-09T12:22:18Z</time>
      </trkpt>
      <trkpt lat="46.612186" lon="12.720769">
        <ele>1648.881</ele>
        <time>2018-09-09T12:22:19Z</time>
      </trkpt>
      <trkpt lat="46.612196" lon="12.720773">
        <ele>1648.860</ele>
        <time>2018-09-09T12:22:20Z</time>
      </trkpt>
      <trkpt lat="46.612206" lon="12.720778">
        <ele>1648.845</ele>
        <time>2018-09-09T12:22:21Z</time>
      </trkpt>
      <trkpt lat="46.612310" lon="12.720919">
        <ele>1652.679</ele>
        <time>2018-09-09T12:22:36Z</time>
      </trkpt>
      <trkpt lat="46.612401" lon="12.721039">
        <ele>1653.605</ele>
        <time>2018-09-09T12:22:49Z</time>
      </trkpt>
      <trkpt lat="46.612564" lon="12.721015">
        <ele>1655.525</ele>
        <time>2018-09-09T12:23:06Z</time>
      </trkpt>
      <trkpt lat="46.612571" lon="12.721004">
        <ele>1655.508</ele>
        <time>2018-09-09T12:23:07Z</time>
      </trkpt>
      <trkpt lat="46.612579" lon="12.720991">
        <ele>1656.071</ele>
        <time>2018-09-09T12:23:08Z</time>
      </trkpt>
      <trkpt lat="46.612587" lon="12.720982">
        <ele>1656.093</ele>
        <time>2018-09-09T12:23:09Z</time>
      </trkpt>
      <trkpt lat="46.612593" lon="12.720967">
        <ele>1656.061</ele>
        <time>2018-09-09T12:23:10Z</time>
      </trkpt>
      <trkpt lat="46.612607" lon="12.720952">
        <ele>1656.416</ele>
        <time>2018-09-09T12:23:12Z</time>
      </trkpt>
      <trkpt lat="46.612789" lon="12.720862">
        <ele>1659.850</ele>
        <time>2018-09-09T12:23:30Z</time>
      </trkpt>
      <trkpt lat="46.612963" lon="12.720731">
        <ele>1663.762</ele>
        <time>2018-09-09T12:23:48Z</time>
      </trkpt>
      <trkpt lat="46.613099" lon="12.720630">
        <ele>1667.581</ele>
        <time>2018-09-09T12:24:03Z</time>
      </trkpt>
      <trkpt lat="46.613200" lon="12.720550">
        <ele>1668.946</ele>
        <time>2018-09-09T12:24:14Z</time>
      </trkpt>
      <trkpt lat="46.613348" lon="12.720423">
        <ele>1670.972</ele>
        <time>2018-09-09T12:24:30Z</time>
      </trkpt>
      <trkpt lat="46.613391" lon="12.720364">
        <ele>1671.813</ele>
        <time>2018-09-09T12:24:36Z</time>
      </trkpt>
      <trkpt lat="46.613402" lon="12.720361">
        <ele>1672.314</ele>
        <time>2018-09-09T12:24:37Z</time>
      </trkpt>
      <trkpt lat="46.613576" lon="12.720203">
        <ele>1673.708</ele>
        <time>2018-09-09T12:24:55Z</time>
      </trkpt>
      <trkpt lat="46.613642" lon="12.720130">
        <ele>1674.261</ele>
        <time>2018-09-09T12:25:02Z</time>
      </trkpt>
      <trkpt lat="46.613796" lon="12.719889">
        <ele>1674.733</ele>
        <time>2018-09-09T12:25:21Z</time>
      </trkpt>
      <trkpt lat="46.613815" lon="12.719852">
        <ele>1674.761</ele>
        <time>2018-09-09T12:25:24Z</time>
      </trkpt>
      <trkpt lat="46.613815" lon="12.719836">
        <ele>1675.216</ele>
        <time>2018-09-09T12:25:25Z</time>
      </trkpt>
      <trkpt lat="46.613816" lon="12.719820">
        <ele>1675.250</ele>
        <time>2018-09-09T12:25:26Z</time>
      </trkpt>
      <trkpt lat="46.613820" lon="12.719806">
        <ele>1675.272</ele>
        <time>2018-09-09T12:25:27Z</time>
      </trkpt>
      <trkpt lat="46.613827" lon="12.719793">
        <ele>1675.751</ele>
        <time>2018-09-09T12:25:28Z</time>
      </trkpt>
      <trkpt lat="46.613891" lon="12.719666">
        <ele>1677.166</ele>
        <time>2018-09-09T12:25:37Z</time>
      </trkpt>
      <trkpt lat="46.613896" lon="12.719651">
        <ele>1677.163</ele>
        <time>2018-09-09T12:25:38Z</time>
      </trkpt>
      <trkpt lat="46.613898" lon="12.719634">
        <ele>1677.144</ele>
        <time>2018-09-09T12:25:39Z</time>
      </trkpt>
      <trkpt lat="46.613993" lon="12.719400">
        <ele>1680.018</ele>
        <time>2018-09-09T12:25:55Z</time>
      </trkpt>
      <trkpt lat="46.614149" lon="12.719184">
        <ele>1682.408</ele>
        <time>2018-09-09T12:26:14Z</time>
      </trkpt>
      <trkpt lat="46.614277" lon="12.719000">
        <ele>1683.860</ele>
        <time>2018-09-09T12:26:30Z</time>
      </trkpt>
      <trkpt lat="46.614399" lon="12.719036">
        <ele>1686.242</ele>
        <time>2018-09-09T12:26:44Z</time>
      </trkpt>
      <trkpt lat="46.614400" lon="12.719051">
        <ele>1686.290</ele>
        <time>2018-09-09T12:26:45Z</time>
      </trkpt>
      <trkpt lat="46.614397" lon="12.719068">
        <ele>1686.735</ele>
        <time>2018-09-09T12:26:46Z</time>
      </trkpt>
      <trkpt lat="46.614396" lon="12.719084">
        <ele>1686.789</ele>
        <time>2018-09-09T12:26:47Z</time>
      </trkpt>
      <trkpt lat="46.614395" lon="12.719100">
        <ele>1687.281</ele>
        <time>2018-09-09T12:26:48Z</time>
      </trkpt>
      <trkpt lat="46.614395" lon="12.719118">
        <ele>1687.290</ele>
        <time>2018-09-09T12:26:49Z</time>
      </trkpt>
      <trkpt lat="46.614395" lon="12.719295">
        <ele>1687.295</ele>
        <time>2018-09-09T12:27:01Z</time>
      </trkpt>
      <trkpt lat="46.614393" lon="12.719310">
        <ele>1687.731</ele>
        <time>2018-09-09T12:27:02Z</time>
      </trkpt>
      <trkpt lat="46.614344" lon="12.719668">
        <ele>1689.661</ele>
        <time>2018-09-09T12:27:23Z</time>
      </trkpt>
      <trkpt lat="46.614286" lon="12.719931">
        <ele>1693.007</ele>
        <time>2018-09-09T12:27:40Z</time>
      </trkpt>
      <trkpt lat="46.614212" lon="12.720202">
        <ele>1693.008</ele>
        <time>2018-09-09T12:27:55Z</time>
      </trkpt>
      <trkpt lat="46.614147" lon="12.720431">
        <ele>1695.987</ele>
        <time>2018-09-09T12:28:08Z</time>
      </trkpt>
      <trkpt lat="46.614064" lon="12.720676">
        <ele>1699.299</ele>
        <time>2018-09-09T12:28:23Z</time>
      </trkpt>
      <trkpt lat="46.614059" lon="12.720693">
        <ele>1699.757</ele>
        <time>2018-09-09T12:28:24Z</time>
      </trkpt>
      <trkpt lat="46.614054" lon="12.720712">
        <ele>1699.712</ele>
        <time>2018-09-09T12:28:25Z</time>
      </trkpt>
      <trkpt lat="46.614051" lon="12.720728">
        <ele>1699.716</ele>
        <time>2018-09-09T12:28:26Z</time>
      </trkpt>
      <trkpt lat="46.614045" lon="12.720745">
        <ele>1700.288</ele>
        <time>2018-09-09T12:28:27Z</time>
      </trkpt>
      <trkpt lat="46.614039" lon="12.720762">
        <ele>1700.267</ele>
        <time>2018-09-09T12:28:28Z</time>
      </trkpt>
      <trkpt lat="46.613968" lon="12.721039">
        <ele>1702.662</ele>
        <time>2018-09-09T12:28:43Z</time>
      </trkpt>
      <trkpt lat="46.613962" lon="12.721057">
        <ele>1702.662</ele>
        <time>2018-09-09T12:28:44Z</time>
      </trkpt>
      <trkpt lat="46.613955" lon="12.721075">
        <ele>1703.183</ele>
        <time>2018-09-09T12:28:45Z</time>
      </trkpt>
      <trkpt lat="46.613945" lon="12.721099">
        <ele>1704.011</ele>
        <time>2018-09-09T12:28:46Z</time>
      </trkpt>
      <trkpt lat="46.613939" lon="12.721125">
        <ele>1704.008</ele>
        <time>2018-09-09T12:28:47Z</time>
      </trkpt>
      <trkpt lat="46.613934" lon="12.721154">
        <ele>1704.060</ele>
        <time>2018-09-09T12:28:48Z</time>
      </trkpt>
      <trkpt lat="46.613846" lon="12.721482">
        <ele>1705.092</ele>
        <time>2018-09-09T12:29:03Z</time>
      </trkpt>
      <trkpt lat="46.613829" lon="12.721820">
        <ele>1706.940</ele>
        <time>2018-09-09T12:29:22Z</time>
      </trkpt>
      <trkpt lat="46.613829" lon="12.721837">
        <ele>1706.425</ele>
        <time>2018-09-09T12:29:23Z</time>
      </trkpt>
      <trkpt lat="46.613829" lon="12.721854">
        <ele>1706.979</ele>
        <time>2018-09-09T12:29:24Z</time>
      </trkpt>
      <trkpt lat="46.613827" lon="12.721870">
        <ele>1706.951</ele>
        <time>2018-09-09T12:29:25Z</time>
      </trkpt>
      <trkpt lat="46.613827" lon="12.721887">
        <ele>1706.950</ele>
        <time>2018-09-09T12:29:26Z</time>
      </trkpt>
      <trkpt lat="46.613827" lon="12.721903">
        <ele>1707.415</ele>
        <time>2018-09-09T12:29:27Z</time>
      </trkpt>
      <trkpt lat="46.613829" lon="12.721919">
        <ele>1707.484</ele>
        <time>2018-09-09T12:29:28Z</time>
      </trkpt>
      <trkpt lat="46.613835" lon="12.721936">
        <ele>1707.407</ele>
        <time>2018-09-09T12:29:29Z</time>
      </trkpt>
      <trkpt lat="46.613839" lon="12.721956">
        <ele>1707.417</ele>
        <time>2018-09-09T12:29:30Z</time>
      </trkpt>
      <trkpt lat="46.613842" lon="12.721971">
        <ele>1707.408</ele>
        <time>2018-09-09T12:29:31Z</time>
      </trkpt>
      <trkpt lat="46.613841" lon="12.721986">
        <ele>1706.962</ele>
        <time>2018-09-09T12:29:32Z</time>
      </trkpt>
      <trkpt lat="46.613867" lon="12.722230">
        <ele>1708.434</ele>
        <time>2018-09-09T12:29:49Z</time>
      </trkpt>
      <trkpt lat="46.613883" lon="12.722292">
        <ele>1709.872</ele>
        <time>2018-09-09T12:29:54Z</time>
      </trkpt>
      <trkpt lat="46.613942" lon="12.722386">
        <ele>1713.297</ele>
        <time>2018-09-09T12:30:03Z</time>
      </trkpt>
      <trkpt lat="46.613971" lon="12.722423">
        <ele>1714.151</ele>
        <time>2018-09-09T12:30:07Z</time>
      </trkpt>
      <trkpt lat="46.613984" lon="12.722448">
        <ele>1715.193</ele>
        <time>2018-09-09T12:30:09Z</time>
      </trkpt>
      <trkpt lat="46.614122" lon="12.722550">
        <ele>1718.032</ele>
        <time>2018-09-09T12:30:24Z</time>
      </trkpt>
      <trkpt lat="46.614250" lon="12.722643">
        <ele>1720.427</ele>
        <time>2018-09-09T12:30:38Z</time>
      </trkpt>
      <trkpt lat="46.614386" lon="12.722742">
        <ele>1724.243</ele>
        <time>2018-09-09T12:30:53Z</time>
      </trkpt>
      <trkpt lat="46.614411" lon="12.722769">
        <ele>1725.264</ele>
        <time>2018-09-09T12:30:56Z</time>
      </trkpt>
      <trkpt lat="46.614553" lon="12.722902">
        <ele>1729.010</ele>
        <time>2018-09-09T12:31:13Z</time>
      </trkpt>
      <trkpt lat="46.614686" lon="12.723004">
        <ele>1730.008</ele>
        <time>2018-09-09T12:31:27Z</time>
      </trkpt>
      <trkpt lat="46.614696" lon="12.723004">
        <ele>1730.088</ele>
        <time>2018-09-09T12:31:28Z</time>
      </trkpt>
      <trkpt lat="46.614707" lon="12.723013">
        <ele>1730.520</ele>
        <time>2018-09-09T12:31:29Z</time>
      </trkpt>
      <trkpt lat="46.614802" lon="12.723095">
        <ele>1733.878</ele>
        <time>2018-09-09T12:31:41Z</time>
      </trkpt>
      <trkpt lat="46.614840" lon="12.723116">
        <ele>1734.323</ele>
        <time>2018-09-09T12:31:45Z</time>
      </trkpt>
      <trkpt lat="46.614903" lon="12.723159">
        <ele>1736.247</ele>
        <time>2018-09-09T12:31:52Z</time>
      </trkpt>
      <trkpt lat="46.615012" lon="12.723247">
        <ele>1738.659</ele>
        <time>2018-09-09T12:32:06Z</time>
      </trkpt>
      <trkpt lat="46.615083" lon="12.723294">
        <ele>1739.188</ele>
        <time>2018-09-09T12:32:14Z</time>
      </trkpt>
      <trkpt lat="46.615141" lon="12.723324">
        <ele>1739.673</ele>
        <time>2018-09-09T12:32:20Z</time>
      </trkpt>
      <trkpt lat="46.615360" lon="12.723536">
        <ele>1740.664</ele>
        <time>2018-09-09T12:32:42Z</time>
      </trkpt>
      <trkpt lat="46.615504" lon="12.723775">
        <ele>1741.006</ele>
        <time>2018-09-09T12:33:00Z</time>
      </trkpt>
      <trkpt lat="46.615556" lon="12.723862">
        <ele>1742.016</ele>
        <time>2018-09-09T12:33:08Z</time>
      </trkpt>
      <trkpt lat="46.615597" lon="12.723945">
        <ele>1743.408</ele>
        <time>2018-09-09T12:33:14Z</time>
      </trkpt>
      <trkpt lat="46.615721" lon="12.724142">
        <ele>1746.390</ele>
        <time>2018-09-09T12:33:31Z</time>
      </trkpt>
      <trkpt lat="46.615862" lon="12.724369">
        <ele>1747.892</ele>
        <time>2018-09-09T12:33:49Z</time>
      </trkpt>
      <trkpt lat="46.615968" lon="12.724429">
        <ele>1747.810</ele>
        <time>2018-09-09T12:33:59Z</time>
      </trkpt>
      <trkpt lat="46.615978" lon="12.724423">
        <ele>1748.295</ele>
        <time>2018-09-09T12:34:00Z</time>
      </trkpt>
      <trkpt lat="46.615993" lon="12.724420">
        <ele>1748.259</ele>
        <time>2018-09-09T12:34:01Z</time>
      </trkpt>
      <trkpt lat="46.616007" lon="12.724419">
        <ele>1748.231</ele>
        <time>2018-09-09T12:34:02Z</time>
      </trkpt>
      <trkpt lat="46.616019" lon="12.724418">
        <ele>1748.720</ele>
        <time>2018-09-09T12:34:03Z</time>
      </trkpt>
      <trkpt lat="46.616030" lon="12.724415">
        <ele>1749.235</ele>
        <time>2018-09-09T12:34:04Z</time>
      </trkpt>
      <trkpt lat="46.616038" lon="12.724383">
        <ele>1749.786</ele>
        <time>2018-09-09T12:34:07Z</time>
      </trkpt>
      <trkpt lat="46.616025" lon="12.724282">
        <ele>1751.660</ele>
        <time>2018-09-09T12:34:16Z</time>
      </trkpt>
      <trkpt lat="46.616002" lon="12.724182">
        <ele>1752.626</ele>
        <time>2018-09-09T12:34:23Z</time>
      </trkpt>
      <trkpt lat="46.616011" lon="12.724155">
        <ele>1752.608</ele>
        <time>2018-09-09T12:34:25Z</time>
      </trkpt>
      <trkpt lat="46.616018" lon="12.724142">
        <ele>1752.662</ele>
        <time>2018-09-09T12:34:26Z</time>
      </trkpt>
      <trkpt lat="46.616056" lon="12.724088">
        <ele>1754.534</ele>
        <time>2018-09-09T12:34:32Z</time>
      </trkpt>
      <trkpt lat="46.616097" lon="12.724050">
        <ele>1755.912</ele>
        <time>2018-09-09T12:34:37Z</time>
      </trkpt>
      <trkpt lat="46.616109" lon="12.724042">
        <ele>1755.947</ele>
        <time>2018-09-09T12:34:38Z</time>
      </trkpt>
      <trkpt lat="46.616155" lon="12.724007">
        <ele>1756.451</ele>
        <time>2018-09-09T12:34:43Z</time>
      </trkpt>
      <trkpt lat="46.616180" lon="12.723980">
        <ele>1756.953</ele>
        <time>2018-09-09T12:34:46Z</time>
      </trkpt>
      <trkpt lat="46.616296" lon="12.723865">
        <ele>1759.842</ele>
        <time>2018-09-09T12:35:00Z</time>
      </trkpt>
      <trkpt lat="46.616306" lon="12.723859">
        <ele>1759.877</ele>
        <time>2018-09-09T12:35:01Z</time>
      </trkpt>
      <trkpt lat="46.616326" lon="12.723813">
        <ele>1760.336</ele>
        <time>2018-09-09T12:35:05Z</time>
      </trkpt>
      <trkpt lat="46.616371" lon="12.723710">
        <ele>1761.717</ele>
        <time>2018-09-09T12:35:13Z</time>
      </trkpt>
      <trkpt lat="46.616426" lon="12.723622">
        <ele>1762.718</ele>
        <time>2018-09-09T12:35:22Z</time>
      </trkpt>
      <trkpt lat="46.616440" lon="12.723604">
        <ele>1763.208</ele>
        <time>2018-09-09T12:35:24Z</time>
      </trkpt>
      <trkpt lat="46.616574" lon="12.723461">
        <ele>1765.187</ele>
        <time>2018-09-09T12:35:40Z</time>
      </trkpt>
      <trkpt lat="46.616592" lon="12.723411">
        <ele>1766.599</ele>
        <time>2018-09-09T12:35:44Z</time>
      </trkpt>
      <trkpt lat="46.616594" lon="12.723396">
        <ele>1766.547</ele>
        <time>2018-09-09T12:35:45Z</time>
      </trkpt>
      <trkpt lat="46.616599" lon="12.723381">
        <ele>1767.062</ele>
        <time>2018-09-09T12:35:46Z</time>
      </trkpt>
      <trkpt lat="46.616606" lon="12.723366">
        <ele>1767.086</ele>
        <time>2018-09-09T12:35:47Z</time>
      </trkpt>
      <trkpt lat="46.616711" lon="12.723139">
        <ele>1768.018</ele>
        <time>2018-09-09T12:36:03Z</time>
      </trkpt>
      <trkpt lat="46.616731" lon="12.723116">
        <ele>1768.437</ele>
        <time>2018-09-09T12:36:05Z</time>
      </trkpt>
      <trkpt lat="46.616737" lon="12.723104">
        <ele>1768.042</ele>
        <time>2018-09-09T12:36:06Z</time>
      </trkpt>
      <trkpt lat="46.616742" lon="12.723089">
        <ele>1768.478</ele>
        <time>2018-09-09T12:36:07Z</time>
      </trkpt>
      <trkpt lat="46.616746" lon="12.723072">
        <ele>1768.033</ele>
        <time>2018-09-09T12:36:08Z</time>
      </trkpt>
      <trkpt lat="46.616855" lon="12.722777">
        <ele>1770.426</ele>
        <time>2018-09-09T12:36:25Z</time>
      </trkpt>
      <trkpt lat="46.617025" lon="12.722428">
        <ele>1770.808</ele>
        <time>2018-09-09T12:36:43Z</time>
      </trkpt>
      <trkpt lat="46.617117" lon="12.722183">
        <ele>1771.371</ele>
        <time>2018-09-09T12:36:57Z</time>
      </trkpt>
      <trkpt lat="46.617129" lon="12.722175">
        <ele>1771.353</ele>
        <time>2018-09-09T12:36:58Z</time>
      </trkpt>
      <trkpt lat="46.617138" lon="12.722166">
        <ele>1771.321</ele>
        <time>2018-09-09T12:36:59Z</time>
      </trkpt>
      <trkpt lat="46.617149" lon="12.722156">
        <ele>1771.386</ele>
        <time>2018-09-09T12:37:00Z</time>
      </trkpt>
      <trkpt lat="46.617159" lon="12.722148">
        <ele>1771.360</ele>
        <time>2018-09-09T12:37:01Z</time>
      </trkpt>
      <trkpt lat="46.617168" lon="12.722139">
        <ele>1771.892</ele>
        <time>2018-09-09T12:37:02Z</time>
      </trkpt>
      <trkpt lat="46.617185" lon="12.722108">
        <ele>1771.831</ele>
        <time>2018-09-09T12:37:05Z</time>
      </trkpt>
      <trkpt lat="46.617264" lon="12.721951">
        <ele>1773.796</ele>
        <time>2018-09-09T12:37:17Z</time>
      </trkpt>
      <trkpt lat="46.617355" lon="12.721834">
        <ele>1775.292</ele>
        <time>2018-09-09T12:37:28Z</time>
      </trkpt>
      <trkpt lat="46.617363" lon="12.721824">
        <ele>1775.673</ele>
        <time>2018-09-09T12:37:29Z</time>
      </trkpt>
      <trkpt lat="46.617404" lon="12.721755">
        <ele>1776.620</ele>
        <time>2018-09-09T12:37:35Z</time>
      </trkpt>
      <trkpt lat="46.617453" lon="12.721717">
        <ele>1777.108</ele>
        <time>2018-09-09T12:37:40Z</time>
      </trkpt>
      <trkpt lat="46.617463" lon="12.721707">
        <ele>1777.133</ele>
        <time>2018-09-09T12:37:41Z</time>
      </trkpt>
      <trkpt lat="46.617472" lon="12.721695">
        <ele>1777.185</ele>
        <time>2018-09-09T12:37:42Z</time>
      </trkpt>
      <trkpt lat="46.617480" lon="12.721685">
        <ele>1777.643</ele>
        <time>2018-09-09T12:37:43Z</time>
      </trkpt>
      <trkpt lat="46.617490" lon="12.721673">
        <ele>1777.688</ele>
        <time>2018-09-09T12:37:44Z</time>
      </trkpt>
      <trkpt lat="46.617499" lon="12.721666">
        <ele>1777.662</ele>
        <time>2018-09-09T12:37:45Z</time>
      </trkpt>
      <trkpt lat="46.617510" lon="12.721657">
        <ele>1777.624</ele>
        <time>2018-09-09T12:37:46Z</time>
      </trkpt>
      <trkpt lat="46.617521" lon="12.721650">
        <ele>1778.153</ele>
        <time>2018-09-09T12:37:47Z</time>
      </trkpt>
      <trkpt lat="46.617532" lon="12.721643">
        <ele>1778.148</ele>
        <time>2018-09-09T12:37:48Z</time>
      </trkpt>
      <trkpt lat="46.617542" lon="12.721634">
        <ele>1778.182</ele>
        <time>2018-09-09T12:37:49Z</time>
      </trkpt>
      <trkpt lat="46.617719" lon="12.721376">
        <ele>1778.543</ele>
        <time>2018-09-09T12:38:06Z</time>
      </trkpt>
      <trkpt lat="46.617890" lon="12.721064">
        <ele>1780.017</ele>
        <time>2018-09-09T12:38:23Z</time>
      </trkpt>
      <trkpt lat="46.618022" lon="12.720855">
        <ele>1778.508</ele>
        <time>2018-09-09T12:38:39Z</time>
      </trkpt>
      <trkpt lat="46.618020" lon="12.720837">
        <ele>1780.972</ele>
        <time>2018-09-09T12:39:14Z</time>
      </trkpt>
      <trkpt lat="46.618018" lon="12.720862">
        <ele>1782.424</ele>
        <time>2018-09-09T12:39:41Z</time>
      </trkpt>
      <trkpt lat="46.618026" lon="12.720854">
        <ele>1781.992</ele>
        <time>2018-09-09T12:39:49Z</time>
      </trkpt>
      <trkpt lat="46.618155" lon="12.720693">
        <ele>1781.977</ele>
        <time>2018-09-09T12:40:01Z</time>
      </trkpt>
      <trkpt lat="46.618389" lon="12.720375">
        <ele>1782.971</ele>
        <time>2018-09-09T12:40:20Z</time>
      </trkpt>
      <trkpt lat="46.618477" lon="12.720280">
        <ele>1783.863</ele>
        <time>2018-09-09T12:40:28Z</time>
      </trkpt>
      <trkpt lat="46.618597" lon="12.720003">
        <ele>1785.782</ele>
        <time>2018-09-09T12:40:46Z</time>
      </trkpt>
      <trkpt lat="46.618602" lon="12.719988">
        <ele>1786.247</ele>
        <time>2018-09-09T12:40:47Z</time>
      </trkpt>
      <trkpt lat="46.618677" lon="12.719784">
        <ele>1787.285</ele>
        <time>2018-09-09T12:41:00Z</time>
      </trkpt>
      <trkpt lat="46.618716" lon="12.719720">
        <ele>1788.189</ele>
        <time>2018-09-09T12:41:05Z</time>
      </trkpt>
      <trkpt lat="46.618834" lon="12.719462">
        <ele>1791.517</ele>
        <time>2018-09-09T12:41:23Z</time>
      </trkpt>
      <trkpt lat="46.618945" lon="12.719264">
        <ele>1794.408</ele>
        <time>2018-09-09T12:41:38Z</time>
      </trkpt>
      <trkpt lat="46.618965" lon="12.719229">
        <ele>1794.452</ele>
        <time>2018-09-09T12:41:41Z</time>
      </trkpt>
      <trkpt lat="46.619134" lon="12.718982">
        <ele>1798.254</ele>
        <time>2018-09-09T12:42:02Z</time>
      </trkpt>
      <trkpt lat="46.619230" lon="12.718715">
        <ele>1800.642</ele>
        <time>2018-09-09T12:42:19Z</time>
      </trkpt>
      <trkpt lat="46.619410" lon="12.718470">
        <ele>1802.667</ele>
        <time>2018-09-09T12:42:36Z</time>
      </trkpt>
      <trkpt lat="46.619605" lon="12.718202">
        <ele>1805.431</ele>
        <time>2018-09-09T12:42:54Z</time>
      </trkpt>
      <trkpt lat="46.619750" lon="12.717871">
        <ele>1806.923</ele>
        <time>2018-09-09T12:43:11Z</time>
      </trkpt>
      <trkpt lat="46.619864" lon="12.717422">
        <ele>1810.392</ele>
        <time>2018-09-09T12:43:31Z</time>
      </trkpt>
      <trkpt lat="46.619966" lon="12.717019">
        <ele>1811.287</ele>
        <time>2018-09-09T12:43:49Z</time>
      </trkpt>
      <trkpt lat="46.620097" lon="12.716574">
        <ele>1812.778</ele>
        <time>2018-09-09T12:44:09Z</time>
      </trkpt>
      <trkpt lat="46.620299" lon="12.716162">
        <ele>1814.633</ele>
        <time>2018-09-09T12:44:28Z</time>
      </trkpt>
      <trkpt lat="46.620511" lon="12.715583">
        <ele>1817.026</ele>
        <time>2018-09-09T12:44:51Z</time>
      </trkpt>
      <trkpt lat="46.620859" lon="12.715218">
        <ele>1818.908</ele>
        <time>2018-09-09T12:45:10Z</time>
      </trkpt>
      <trkpt lat="46.621262" lon="12.714587">
        <ele>1819.461</ele>
        <time>2018-09-09T12:45:26Z</time>
      </trkpt>
      <trkpt lat="46.621521" lon="12.713831">
        <ele>1819.433</ele>
        <time>2018-09-09T12:45:41Z</time>
      </trkpt>
      <trkpt lat="46.621527" lon="12.713771">
        <ele>1819.451</ele>
        <time>2018-09-09T12:45:42Z</time>
      </trkpt>
      <trkpt lat="46.621527" lon="12.713707">
        <ele>1819.486</ele>
        <time>2018-09-09T12:45:43Z</time>
      </trkpt>
      <trkpt lat="46.621556" lon="12.712953">
        <ele>1818.980</ele>
        <time>2018-09-09T12:45:57Z</time>
      </trkpt>
      <trkpt lat="46.621924" lon="12.712475">
        <ele>1819.992</ele>
        <time>2018-09-09T12:46:12Z</time>
      </trkpt>
      <trkpt lat="46.622375" lon="12.712227">
        <ele>1822.321</ele>
        <time>2018-09-09T12:46:29Z</time>
      </trkpt>
      <trkpt lat="46.622519" lon="12.711804">
        <ele>1824.296</ele>
        <time>2018-09-09T12:46:41Z</time>
      </trkpt>
      <trkpt lat="46.622784" lon="12.711321">
        <ele>1826.146</ele>
        <time>2018-09-09T12:46:58Z</time>
      </trkpt>
      <trkpt lat="46.623076" lon="12.710964">
        <ele>1828.588</ele>
        <time>2018-09-09T12:47:13Z</time>
      </trkpt>
      <trkpt lat="46.623230" lon="12.710634">
        <ele>1830.416</ele>
        <time>2018-09-09T12:47:29Z</time>
      </trkpt>
      <trkpt lat="46.623394" lon="12.710300">
        <ele>1832.408</ele>
        <time>2018-09-09T12:47:44Z</time>
      </trkpt>
      <trkpt lat="46.623439" lon="12.710022">
        <ele>1830.488</ele>
        <time>2018-09-09T12:47:48Z</time>
      </trkpt>
      <trkpt lat="46.623447" lon="12.709901">
        <ele>1830.410</ele>
        <time>2018-09-09T12:47:50Z</time>
      </trkpt>
      <trkpt lat="46.623265" lon="12.709702">
        <ele>1831.928</ele>
        <time>2018-09-09T12:48:01Z</time>
      </trkpt>
      <trkpt lat="46.623168" lon="12.709661">
        <ele>1833.833</ele>
        <time>2018-09-09T12:48:10Z</time>
      </trkpt>
      <trkpt lat="46.623135" lon="12.709497">
        <ele>1833.887</ele>
        <time>2018-09-09T12:48:21Z</time>
      </trkpt>
      <trkpt lat="46.623173" lon="12.709428">
        <ele>1834.869</ele>
        <time>2018-09-09T12:48:35Z</time>
      </trkpt>
      <trkpt lat="46.623264" lon="12.709290">
        <ele>1844.454</ele>
        <time>2018-09-10T05:17:11Z</time>
      </trkpt>
      <trkpt lat="46.623279" lon="12.709236">
        <ele>1842.956</ele>
        <time>2018-09-10T05:17:29Z</time>
      </trkpt>
      <trkpt lat="46.623380" lon="12.709158">
        <ele>1842.511</ele>
        <time>2018-09-10T05:17:39Z</time>
      </trkpt>
      <trkpt lat="46.623445" lon="12.709018">
        <ele>1842.008</ele>
        <time>2018-09-10T05:17:48Z</time>
      </trkpt>
      <trkpt lat="46.623440" lon="12.708883">
        <ele>1840.599</ele>
        <time>2018-09-10T05:17:57Z</time>
      </trkpt>
      <trkpt lat="46.623515" lon="12.708551">
        <ele>1843.481</ele>
        <time>2018-09-10T05:18:17Z</time>
      </trkpt>
      <trkpt lat="46.623534" lon="12.708243">
        <ele>1844.489</ele>
        <time>2018-09-10T05:18:34Z</time>
      </trkpt>
      <trkpt lat="46.623556" lon="12.708110">
        <ele>1844.984</ele>
        <time>2018-09-10T05:18:42Z</time>
      </trkpt>
      <trkpt lat="46.623636" lon="12.707729">
        <ele>1845.312</ele>
        <time>2018-09-10T05:19:03Z</time>
      </trkpt>
      <trkpt lat="46.623645" lon="12.707677">
        <ele>1845.312</ele>
        <time>2018-09-10T05:19:06Z</time>
      </trkpt>
      <trkpt lat="46.623609" lon="12.707336">
        <ele>1845.377</ele>
        <time>2018-09-10T05:19:23Z</time>
      </trkpt>
      <trkpt lat="46.623602" lon="12.707234">
        <ele>1845.315</ele>
        <time>2018-09-10T05:19:28Z</time>
      </trkpt>
      <trkpt lat="46.623590" lon="12.707151">
        <ele>1845.357</ele>
        <time>2018-09-10T05:19:32Z</time>
      </trkpt>
      <trkpt lat="46.623581" lon="12.707070">
        <ele>1845.800</ele>
        <time>2018-09-10T05:19:36Z</time>
      </trkpt>
      <trkpt lat="46.623542" lon="12.706780">
        <ele>1844.920</ele>
        <time>2018-09-10T05:19:50Z</time>
      </trkpt>
      <trkpt lat="46.623554" lon="12.706404">
        <ele>1842.908</ele>
        <time>2018-09-10T05:20:06Z</time>
      </trkpt>
      <trkpt lat="46.623700" lon="12.705914">
        <ele>1841.579</ele>
        <time>2018-09-10T05:20:20Z</time>
      </trkpt>
      <trkpt lat="46.623911" lon="12.705364">
        <ele>1834.311</ele>
        <time>2018-09-10T05:20:33Z</time>
      </trkpt>
      <trkpt lat="46.624052" lon="12.704815">
        <ele>1825.219</ele>
        <time>2018-09-10T05:20:45Z</time>
      </trkpt>
      <trkpt lat="46.624190" lon="12.704388">
        <ele>1817.524</ele>
        <time>2018-09-10T05:20:55Z</time>
      </trkpt>
      <trkpt lat="46.624256" lon="12.704244">
        <ele>1814.142</ele>
        <time>2018-09-10T05:20:59Z</time>
      </trkpt>
      <trkpt lat="46.624278" lon="12.704229">
        <ele>1813.112</ele>
        <time>2018-09-10T05:21:00Z</time>
      </trkpt>
      <trkpt lat="46.624295" lon="12.704207">
        <ele>1812.737</ele>
        <time>2018-09-10T05:21:01Z</time>
      </trkpt>
      <trkpt lat="46.624308" lon="12.704180">
        <ele>1812.295</ele>
        <time>2018-09-10T05:21:02Z</time>
      </trkpt>
      <trkpt lat="46.624322" lon="12.704151">
        <ele>1812.254</ele>
        <time>2018-09-10T05:21:03Z</time>
      </trkpt>
      <trkpt lat="46.624339" lon="12.704118">
        <ele>1811.756</ele>
        <time>2018-09-10T05:21:04Z</time>
      </trkpt>
      <trkpt lat="46.624358" lon="12.704084">
        <ele>1810.711</ele>
        <time>2018-09-10T05:21:05Z</time>
      </trkpt>
      <trkpt lat="46.624411" lon="12.704009">
        <ele>1808.808</ele>
        <time>2018-09-10T05:21:08Z</time>
      </trkpt>
      <trkpt lat="46.624437" lon="12.703987">
        <ele>1807.969</ele>
        <time>2018-09-10T05:21:09Z</time>
      </trkpt>
      <trkpt lat="46.624462" lon="12.703970">
        <ele>1806.961</ele>
        <time>2018-09-10T05:21:10Z</time>
      </trkpt>
      <trkpt lat="46.624485" lon="12.703958">
        <ele>1805.969</ele>
        <time>2018-09-10T05:21:11Z</time>
      </trkpt>
      <trkpt lat="46.624503" lon="12.703949">
        <ele>1805.934</ele>
        <time>2018-09-10T05:21:12Z</time>
      </trkpt>
      <trkpt lat="46.624523" lon="12.703939">
        <ele>1805.022</ele>
        <time>2018-09-10T05:21:13Z</time>
      </trkpt>
      <trkpt lat="46.624535" lon="12.703918">
        <ele>1804.552</ele>
        <time>2018-09-10T05:21:14Z</time>
      </trkpt>
      <trkpt lat="46.624556" lon="12.703900">
        <ele>1803.517</ele>
        <time>2018-09-10T05:21:15Z</time>
      </trkpt>
      <trkpt lat="46.624578" lon="12.703898">
        <ele>1803.515</ele>
        <time>2018-09-10T05:21:16Z</time>
      </trkpt>
      <trkpt lat="46.624598" lon="12.703900">
        <ele>1803.557</ele>
        <time>2018-09-10T05:21:17Z</time>
      </trkpt>
      <trkpt lat="46.624751" lon="12.704120">
        <ele>1799.200</ele>
        <time>2018-09-10T05:21:27Z</time>
      </trkpt>
      <trkpt lat="46.624748" lon="12.704207">
        <ele>1797.320</ele>
        <time>2018-09-10T05:21:30Z</time>
      </trkpt>
      <trkpt lat="46.624751" lon="12.704231">
        <ele>1796.808</ele>
        <time>2018-09-10T05:21:31Z</time>
      </trkpt>
      <trkpt lat="46.624770" lon="12.704309">
        <ele>1795.879</ele>
        <time>2018-09-10T05:21:34Z</time>
      </trkpt>
      <trkpt lat="46.624787" lon="12.704318">
        <ele>1795.811</ele>
        <time>2018-09-10T05:21:35Z</time>
      </trkpt>
      <trkpt lat="46.624805" lon="12.704312">
        <ele>1795.439</ele>
        <time>2018-09-10T05:21:36Z</time>
      </trkpt>
      <trkpt lat="46.624815" lon="12.704290">
        <ele>1794.474</ele>
        <time>2018-09-10T05:21:37Z</time>
      </trkpt>
      <trkpt lat="46.624811" lon="12.704261">
        <ele>1793.492</ele>
        <time>2018-09-10T05:21:38Z</time>
      </trkpt>
      <trkpt lat="46.624815" lon="12.704231">
        <ele>1792.512</ele>
        <time>2018-09-10T05:21:39Z</time>
      </trkpt>
      <trkpt lat="46.624815" lon="12.704195">
        <ele>1791.037</ele>
        <time>2018-09-10T05:21:40Z</time>
      </trkpt>
      <trkpt lat="46.624816" lon="12.704165">
        <ele>1790.175</ele>
        <time>2018-09-10T05:21:41Z</time>
      </trkpt>
      <trkpt lat="46.624821" lon="12.704131">
        <ele>1789.194</ele>
        <time>2018-09-10T05:21:42Z</time>
      </trkpt>
      <trkpt lat="46.624830" lon="12.704099">
        <ele>1788.157</ele>
        <time>2018-09-10T05:21:43Z</time>
      </trkpt>
      <trkpt lat="46.624838" lon="12.704072">
        <ele>1787.722</ele>
        <time>2018-09-10T05:21:44Z</time>
      </trkpt>
      <trkpt lat="46.624848" lon="12.704037">
        <ele>1786.708</ele>
        <time>2018-09-10T05:21:45Z</time>
      </trkpt>
      <trkpt lat="46.624857" lon="12.704003">
        <ele>1785.783</ele>
        <time>2018-09-10T05:21:46Z</time>
      </trkpt>
      <trkpt lat="46.624870" lon="12.703980">
        <ele>1785.785</ele>
        <time>2018-09-10T05:21:47Z</time>
      </trkpt>
      <trkpt lat="46.624881" lon="12.703941">
        <ele>1784.813</ele>
        <time>2018-09-10T05:21:49Z</time>
      </trkpt>
      <trkpt lat="46.624879" lon="12.703912">
        <ele>1784.868</ele>
        <time>2018-09-10T05:21:50Z</time>
      </trkpt>
      <trkpt lat="46.624877" lon="12.703879">
        <ele>1784.856</ele>
        <time>2018-09-10T05:21:51Z</time>
      </trkpt>
      <trkpt lat="46.624877" lon="12.703843">
        <ele>1784.356</ele>
        <time>2018-09-10T05:21:52Z</time>
      </trkpt>
      <trkpt lat="46.624869" lon="12.703811">
        <ele>1783.881</ele>
        <time>2018-09-10T05:21:53Z</time>
      </trkpt>
      <trkpt lat="46.624856" lon="12.703785">
        <ele>1783.869</ele>
        <time>2018-09-10T05:21:54Z</time>
      </trkpt>
      <trkpt lat="46.624840" lon="12.703766">
        <ele>1783.396</ele>
        <time>2018-09-10T05:21:55Z</time>
      </trkpt>
      <trkpt lat="46.624819" lon="12.703748">
        <ele>1782.931</ele>
        <time>2018-09-10T05:21:56Z</time>
      </trkpt>
      <trkpt lat="46.624802" lon="12.703722">
        <ele>1782.424</ele>
        <time>2018-09-10T05:21:57Z</time>
      </trkpt>
      <trkpt lat="46.624794" lon="12.703697">
        <ele>1781.908</ele>
        <time>2018-09-10T05:21:58Z</time>
      </trkpt>
      <trkpt lat="46.624792" lon="12.703665">
        <ele>1780.973</ele>
        <time>2018-09-10T05:21:59Z</time>
      </trkpt>
      <trkpt lat="46.624794" lon="12.703641">
        <ele>1780.545</ele>
        <time>2018-09-10T05:22:00Z</time>
      </trkpt>
      <trkpt lat="46.624807" lon="12.703624">
        <ele>1780.093</ele>
        <time>2018-09-10T05:22:01Z</time>
      </trkpt>
      <trkpt lat="46.624818" lon="12.703627">
        <ele>1779.068</ele>
        <time>2018-09-10T05:22:02Z</time>
      </trkpt>
      <trkpt lat="46.624890" lon="12.703676">
        <ele>1777.186</ele>
        <time>2018-09-10T05:22:05Z</time>
      </trkpt>
      <trkpt lat="46.624918" lon="12.703723">
        <ele>1776.186</ele>
        <time>2018-09-10T05:22:07Z</time>
      </trkpt>
      <trkpt lat="46.624925" lon="12.703750">
        <ele>1775.611</ele>
        <time>2018-09-10T05:22:08Z</time>
      </trkpt>
      <trkpt lat="46.624933" lon="12.703773">
        <ele>1774.789</ele>
        <time>2018-09-10T05:22:09Z</time>
      </trkpt>
      <trkpt lat="46.624941" lon="12.703796">
        <ele>1774.245</ele>
        <time>2018-09-10T05:22:10Z</time>
      </trkpt>
      <trkpt lat="46.624952" lon="12.703821">
        <ele>1773.247</ele>
        <time>2018-09-10T05:22:11Z</time>
      </trkpt>
      <trkpt lat="46.625122" lon="12.704247">
        <ele>1761.711</ele>
        <time>2018-09-10T05:22:24Z</time>
      </trkpt>
      <trkpt lat="46.625138" lon="12.704276">
        <ele>1760.708</ele>
        <time>2018-09-10T05:22:25Z</time>
      </trkpt>
      <trkpt lat="46.625149" lon="12.704302">
        <ele>1759.848</ele>
        <time>2018-09-10T05:22:26Z</time>
      </trkpt>
      <trkpt lat="46.625160" lon="12.704334">
        <ele>1758.880</ele>
        <time>2018-09-10T05:22:27Z</time>
      </trkpt>
      <trkpt lat="46.625172" lon="12.704366">
        <ele>1757.928</ele>
        <time>2018-09-10T05:22:28Z</time>
      </trkpt>
      <trkpt lat="46.625181" lon="12.704396">
        <ele>1757.483</ele>
        <time>2018-09-10T05:22:29Z</time>
      </trkpt>
      <trkpt lat="46.625192" lon="12.704421">
        <ele>1756.441</ele>
        <time>2018-09-10T05:22:30Z</time>
      </trkpt>
      <trkpt lat="46.625209" lon="12.704433">
        <ele>1755.571</ele>
        <time>2018-09-10T05:22:31Z</time>
      </trkpt>
      <trkpt lat="46.625227" lon="12.704440">
        <ele>1754.526</ele>
        <time>2018-09-10T05:22:32Z</time>
      </trkpt>
      <trkpt lat="46.625243" lon="12.704441">
        <ele>1754.024</ele>
        <time>2018-09-10T05:22:33Z</time>
      </trkpt>
      <trkpt lat="46.625260" lon="12.704437">
        <ele>1753.565</ele>
        <time>2018-09-10T05:22:34Z</time>
      </trkpt>
      <trkpt lat="46.625353" lon="12.704425">
        <ele>1749.768</ele>
        <time>2018-09-10T05:22:38Z</time>
      </trkpt>
      <trkpt lat="46.625473" lon="12.704452">
        <ele>1746.314</ele>
        <time>2018-09-10T05:22:42Z</time>
      </trkpt>
      <trkpt lat="46.625517" lon="12.704469">
        <ele>1745.808</ele>
        <time>2018-09-10T05:22:44Z</time>
      </trkpt>
      <trkpt lat="46.625532" lon="12.704464">
        <ele>1745.830</ele>
        <time>2018-09-10T05:22:45Z</time>
      </trkpt>
      <trkpt lat="46.625540" lon="12.704449">
        <ele>1744.982</ele>
        <time>2018-09-10T05:22:46Z</time>
      </trkpt>
      <trkpt lat="46.625545" lon="12.704421">
        <ele>1744.970</ele>
        <time>2018-09-10T05:22:47Z</time>
      </trkpt>
      <trkpt lat="46.625541" lon="12.704398">
        <ele>1743.925</ele>
        <time>2018-09-10T05:22:48Z</time>
      </trkpt>
      <trkpt lat="46.625530" lon="12.704387">
        <ele>1743.443</ele>
        <time>2018-09-10T05:22:49Z</time>
      </trkpt>
      <trkpt lat="46.625515" lon="12.704381">
        <ele>1742.523</ele>
        <time>2018-09-10T05:22:50Z</time>
      </trkpt>
      <trkpt lat="46.625490" lon="12.704371">
        <ele>1742.028</ele>
        <time>2018-09-10T05:22:51Z</time>
      </trkpt>
      <trkpt lat="46.625473" lon="12.704359">
        <ele>1741.596</ele>
        <time>2018-09-10T05:22:52Z</time>
      </trkpt>
      <trkpt lat="46.625451" lon="12.704344">
        <ele>1740.111</ele>
        <time>2018-09-10T05:22:53Z</time>
      </trkpt>
      <trkpt lat="46.625436" lon="12.704325">
        <ele>1739.121</ele>
        <time>2018-09-10T05:22:54Z</time>
      </trkpt>
      <trkpt lat="46.625424" lon="12.704300">
        <ele>1738.203</ele>
        <time>2018-09-10T05:22:55Z</time>
      </trkpt>
      <trkpt lat="46.625416" lon="12.704271">
        <ele>1737.208</ele>
        <time>2018-09-10T05:22:56Z</time>
      </trkpt>
      <trkpt lat="46.625411" lon="12.704248">
        <ele>1736.215</ele>
        <time>2018-09-10T05:22:57Z</time>
      </trkpt>
      <trkpt lat="46.625415" lon="12.704228">
        <ele>1735.327</ele>
        <time>2018-09-10T05:22:58Z</time>
      </trkpt>
      <trkpt lat="46.625429" lon="12.704209">
        <ele>1733.875</ele>
        <time>2018-09-10T05:22:59Z</time>
      </trkpt>
      <trkpt lat="46.625450" lon="12.704199">
        <ele>1733.350</ele>
        <time>2018-09-10T05:23:00Z</time>
      </trkpt>
      <trkpt lat="46.625473" lon="12.704199">
        <ele>1732.478</ele>
        <time>2018-09-10T05:23:01Z</time>
      </trkpt>
      <trkpt lat="46.625495" lon="12.704204">
        <ele>1731.928</ele>
        <time>2018-09-10T05:23:02Z</time>
      </trkpt>
      <trkpt lat="46.625512" lon="12.704214">
        <ele>1731.453</ele>
        <time>2018-09-10T05:23:03Z</time>
      </trkpt>
      <trkpt lat="46.625537" lon="12.704225">
        <ele>1731.491</ele>
        <time>2018-09-10T05:23:04Z</time>
      </trkpt>
      <trkpt lat="46.625560" lon="12.704237">
        <ele>1730.953</ele>
        <time>2018-09-10T05:23:05Z</time>
      </trkpt>
      <trkpt lat="46.625628" lon="12.704252">
        <ele>1730.904</ele>
        <time>2018-09-10T05:23:08Z</time>
      </trkpt>
      <trkpt lat="46.625643" lon="12.704237">
        <ele>1730.514</ele>
        <time>2018-09-10T05:23:09Z</time>
      </trkpt>
      <trkpt lat="46.625629" lon="12.704181">
        <ele>1729.508</ele>
        <time>2018-09-10T05:23:11Z</time>
      </trkpt>
      <trkpt lat="46.625616" lon="12.704161">
        <ele>1729.059</ele>
        <time>2018-09-10T05:23:12Z</time>
      </trkpt>
      <trkpt lat="46.625601" lon="12.704146">
        <ele>1728.531</ele>
        <time>2018-09-10T05:23:13Z</time>
      </trkpt>
      <trkpt lat="46.625393" lon="12.703935">
        <ele>1725.269</ele>
        <time>2018-09-10T05:23:25Z</time>
      </trkpt>
      <trkpt lat="46.625387" lon="12.703907">
        <ele>1724.714</ele>
        <time>2018-09-10T05:23:26Z</time>
      </trkpt>
      <trkpt lat="46.625336" lon="12.703453">
        <ele>1714.152</ele>
        <time>2018-09-10T05:23:38Z</time>
      </trkpt>
      <trkpt lat="46.625340" lon="12.703367">
        <ele>1712.752</ele>
        <time>2018-09-10T05:23:40Z</time>
      </trkpt>
      <trkpt lat="46.625335" lon="12.703331">
        <ele>1711.767</ele>
        <time>2018-09-10T05:23:41Z</time>
      </trkpt>
      <trkpt lat="46.625329" lon="12.703267">
        <ele>1709.825</ele>
        <time>2018-09-10T05:23:43Z</time>
      </trkpt>
      <trkpt lat="46.625327" lon="12.703237">
        <ele>1708.822</ele>
        <time>2018-09-10T05:23:44Z</time>
      </trkpt>
      <trkpt lat="46.625321" lon="12.703208">
        <ele>1708.462</ele>
        <time>2018-09-10T05:23:45Z</time>
      </trkpt>
      <trkpt lat="46.625254" lon="12.703078">
        <ele>1704.508</ele>
        <time>2018-09-10T05:23:49Z</time>
      </trkpt>
      <trkpt lat="46.625234" lon="12.703051">
        <ele>1703.108</ele>
        <time>2018-09-10T05:23:50Z</time>
      </trkpt>
      <trkpt lat="46.625220" lon="12.703023">
        <ele>1701.666</ele>
        <time>2018-09-10T05:23:51Z</time>
      </trkpt>
      <trkpt lat="46.625210" lon="12.702999">
        <ele>1700.728</ele>
        <time>2018-09-10T05:23:52Z</time>
      </trkpt>
      <trkpt lat="46.625187" lon="12.702882">
        <ele>1693.536</ele>
        <time>2018-09-10T05:23:58Z</time>
      </trkpt>
      <trkpt lat="46.625202" lon="12.702871">
        <ele>1692.511</ele>
        <time>2018-09-10T05:23:59Z</time>
      </trkpt>
      <trkpt lat="46.625218" lon="12.702875">
        <ele>1691.589</ele>
        <time>2018-09-10T05:24:00Z</time>
      </trkpt>
      <trkpt lat="46.625239" lon="12.702892">
        <ele>1690.699</ele>
        <time>2018-09-10T05:24:01Z</time>
      </trkpt>
      <trkpt lat="46.625260" lon="12.702912">
        <ele>1689.154</ele>
        <time>2018-09-10T05:24:02Z</time>
      </trkpt>
      <trkpt lat="46.625278" lon="12.702933">
        <ele>1687.762</ele>
        <time>2018-09-10T05:24:03Z</time>
      </trkpt>
      <trkpt lat="46.625449" lon="12.703140">
        <ele>1682.969</ele>
        <time>2018-09-10T05:24:14Z</time>
      </trkpt>
      <trkpt lat="46.625696" lon="12.703421">
        <ele>1677.604</ele>
        <time>2018-09-10T05:24:26Z</time>
      </trkpt>
      <trkpt lat="46.625951" lon="12.703633">
        <ele>1675.724</ele>
        <time>2018-09-10T05:24:37Z</time>
      </trkpt>
      <trkpt lat="46.626118" lon="12.703709">
        <ele>1672.308</ele>
        <time>2018-09-10T05:24:46Z</time>
      </trkpt>
      <trkpt lat="46.626122" lon="12.703698">
        <ele>1671.370</ele>
        <time>2018-09-10T05:24:48Z</time>
      </trkpt>
      <trkpt lat="46.626119" lon="12.703688">
        <ele>1670.932</ele>
        <time>2018-09-10T05:24:49Z</time>
      </trkpt>
      <trkpt lat="46.626115" lon="12.703672">
        <ele>1670.480</ele>
        <time>2018-09-10T05:24:50Z</time>
      </trkpt>
      <trkpt lat="46.626104" lon="12.703656">
        <ele>1669.985</ele>
        <time>2018-09-10T05:24:51Z</time>
      </trkpt>
      <trkpt lat="46.626089" lon="12.703636">
        <ele>1668.943</ele>
        <time>2018-09-10T05:24:52Z</time>
      </trkpt>
      <trkpt lat="46.626075" lon="12.703621">
        <ele>1668.963</ele>
        <time>2018-09-10T05:24:53Z</time>
      </trkpt>
      <trkpt lat="46.626057" lon="12.703605">
        <ele>1668.018</ele>
        <time>2018-09-10T05:24:54Z</time>
      </trkpt>
      <trkpt lat="46.626040" lon="12.703585">
        <ele>1667.566</ele>
        <time>2018-09-10T05:24:55Z</time>
      </trkpt>
      <trkpt lat="46.626026" lon="12.703562">
        <ele>1667.041</ele>
        <time>2018-09-10T05:24:56Z</time>
      </trkpt>
      <trkpt lat="46.626017" lon="12.703540">
        <ele>1666.581</ele>
        <time>2018-09-10T05:24:57Z</time>
      </trkpt>
      <trkpt lat="46.626010" lon="12.703519">
        <ele>1666.109</ele>
        <time>2018-09-10T05:24:58Z</time>
      </trkpt>
      <trkpt lat="46.625919" lon="12.703257">
        <ele>1660.308</ele>
        <time>2018-09-10T05:25:09Z</time>
      </trkpt>
      <trkpt lat="46.625825" lon="12.703129">
        <ele>1655.598</ele>
        <time>2018-09-10T05:25:16Z</time>
      </trkpt>
      <trkpt lat="46.625808" lon="12.703115">
        <ele>1655.060</ele>
        <time>2018-09-10T05:25:17Z</time>
      </trkpt>
      <trkpt lat="46.625789" lon="12.703094">
        <ele>1655.028</ele>
        <time>2018-09-10T05:25:18Z</time>
      </trkpt>
      <trkpt lat="46.625774" lon="12.703073">
        <ele>1654.513</ele>
        <time>2018-09-10T05:25:19Z</time>
      </trkpt>
      <trkpt lat="46.625757" lon="12.703045">
        <ele>1654.541</ele>
        <time>2018-09-10T05:25:20Z</time>
      </trkpt>
      <trkpt lat="46.625735" lon="12.703025">
        <ele>1655.071</ele>
        <time>2018-09-10T05:25:21Z</time>
      </trkpt>
      <trkpt lat="46.625716" lon="12.702998">
        <ele>1655.516</ele>
        <time>2018-09-10T05:25:22Z</time>
      </trkpt>
      <trkpt lat="46.625708" lon="12.702963">
        <ele>1656.424</ele>
        <time>2018-09-10T05:25:23Z</time>
      </trkpt>
      <trkpt lat="46.625696" lon="12.702927">
        <ele>1657.463</ele>
        <time>2018-09-10T05:25:24Z</time>
      </trkpt>
      <trkpt lat="46.625622" lon="12.702608">
        <ele>1661.744</ele>
        <time>2018-09-10T05:25:34Z</time>
      </trkpt>
      <trkpt lat="46.625624" lon="12.702571">
        <ele>1662.218</ele>
        <time>2018-09-10T05:25:35Z</time>
      </trkpt>
      <trkpt lat="46.625550" lon="12.702282">
        <ele>1662.208</ele>
        <time>2018-09-10T05:25:44Z</time>
      </trkpt>
      <trkpt lat="46.625533" lon="12.702260">
        <ele>1662.220</ele>
        <time>2018-09-10T05:25:45Z</time>
      </trkpt>
      <trkpt lat="46.625527" lon="12.702226">
        <ele>1662.742</ele>
        <time>2018-09-10T05:25:46Z</time>
      </trkpt>
      <trkpt lat="46.625500" lon="12.702124">
        <ele>1666.160</ele>
        <time>2018-09-10T05:25:49Z</time>
      </trkpt>
      <trkpt lat="46.625493" lon="12.702104">
        <ele>1666.585</ele>
        <time>2018-09-10T05:25:50Z</time>
      </trkpt>
      <trkpt lat="46.625485" lon="12.702079">
        <ele>1667.583</ele>
        <time>2018-09-10T05:25:51Z</time>
      </trkpt>
      <trkpt lat="46.625465" lon="12.702046">
        <ele>1668.563</ele>
        <time>2018-09-10T05:25:52Z</time>
      </trkpt>
      <trkpt lat="46.625443" lon="12.702021">
        <ele>1668.918</ele>
        <time>2018-09-10T05:25:53Z</time>
      </trkpt>
      <trkpt lat="46.625424" lon="12.701996">
        <ele>1669.996</ele>
        <time>2018-09-10T05:25:54Z</time>
      </trkpt>
      <trkpt lat="46.625399" lon="12.701949">
        <ele>1671.847</ele>
        <time>2018-09-10T05:25:56Z</time>
      </trkpt>
      <trkpt lat="46.625390" lon="12.701937">
        <ele>1671.829</ele>
        <time>2018-09-10T05:25:57Z</time>
      </trkpt>
      <trkpt lat="46.625389" lon="12.701928">
        <ele>1672.321</ele>
        <time>2018-09-10T05:25:58Z</time>
      </trkpt>
      <trkpt lat="46.625414" lon="12.701915">
        <ele>1673.308</ele>
        <time>2018-09-10T05:25:59Z</time>
      </trkpt>
      <trkpt lat="46.625439" lon="12.701911">
        <ele>1674.238</ele>
        <time>2018-09-10T05:26:00Z</time>
      </trkpt>
      <trkpt lat="46.625461" lon="12.701910">
        <ele>1674.210</ele>
        <time>2018-09-10T05:26:01Z</time>
      </trkpt>
      <trkpt lat="46.625482" lon="12.701917">
        <ele>1674.758</ele>
        <time>2018-09-10T05:26:02Z</time>
      </trkpt>
      <trkpt lat="46.625588" lon="12.702025">
        <ele>1674.783</ele>
        <time>2018-09-10T05:26:09Z</time>
      </trkpt>
      <trkpt lat="46.625600" lon="12.702051">
        <ele>1674.221</ele>
        <time>2018-09-10T05:26:10Z</time>
      </trkpt>
      <trkpt lat="46.625611" lon="12.702083">
        <ele>1673.791</ele>
        <time>2018-09-10T05:26:11Z</time>
      </trkpt>
      <trkpt lat="46.625624" lon="12.702098">
        <ele>1673.316</ele>
        <time>2018-09-10T05:26:12Z</time>
      </trkpt>
      <trkpt lat="46.625642" lon="12.702118">
        <ele>1673.314</ele>
        <time>2018-09-10T05:26:13Z</time>
      </trkpt>
      <trkpt lat="46.625709" lon="12.702190">
        <ele>1672.326</ele>
        <time>2018-09-10T05:26:17Z</time>
      </trkpt>
      <trkpt lat="46.625718" lon="12.702218">
        <ele>1671.847</ele>
        <time>2018-09-10T05:26:18Z</time>
      </trkpt>
      <trkpt lat="46.625720" lon="12.702252">
        <ele>1671.811</ele>
        <time>2018-09-10T05:26:19Z</time>
      </trkpt>
      <trkpt lat="46.625721" lon="12.702281">
        <ele>1671.308</ele>
        <time>2018-09-10T05:26:20Z</time>
      </trkpt>
      <trkpt lat="46.625727" lon="12.702308">
        <ele>1670.926</ele>
        <time>2018-09-10T05:26:21Z</time>
      </trkpt>
      <trkpt lat="46.625741" lon="12.702334">
        <ele>1670.438</ele>
        <time>2018-09-10T05:26:22Z</time>
      </trkpt>
      <trkpt lat="46.625758" lon="12.702348">
        <ele>1669.496</ele>
        <time>2018-09-10T05:26:23Z</time>
      </trkpt>
      <trkpt lat="46.625773" lon="12.702358">
        <ele>1668.911</ele>
        <time>2018-09-10T05:26:24Z</time>
      </trkpt>
      <trkpt lat="46.625788" lon="12.702360">
        <ele>1668.559</ele>
        <time>2018-09-10T05:26:25Z</time>
      </trkpt>
      <trkpt lat="46.625805" lon="12.702364">
        <ele>1668.029</ele>
        <time>2018-09-10T05:26:26Z</time>
      </trkpt>
      <trkpt lat="46.625821" lon="12.702378">
        <ele>1667.554</ele>
        <time>2018-09-10T05:26:27Z</time>
      </trkpt>
      <trkpt lat="46.625840" lon="12.702392">
        <ele>1666.592</ele>
        <time>2018-09-10T05:26:28Z</time>
      </trkpt>
      <trkpt lat="46.625862" lon="12.702402">
        <ele>1666.544</ele>
        <time>2018-09-10T05:26:29Z</time>
      </trkpt>
      <trkpt lat="46.625883" lon="12.702412">
        <ele>1667.005</ele>
        <time>2018-09-10T05:26:30Z</time>
      </trkpt>
      <trkpt lat="46.625903" lon="12.702416">
        <ele>1668.015</ele>
        <time>2018-09-10T05:26:31Z</time>
      </trkpt>
      <trkpt lat="46.625941" lon="12.702422">
        <ele>1668.908</ele>
        <time>2018-09-10T05:26:33Z</time>
      </trkpt>
      <trkpt lat="46.626045" lon="12.702491">
        <ele>1669.448</ele>
        <time>2018-09-10T05:26:39Z</time>
      </trkpt>
      <trkpt lat="46.626065" lon="12.702500">
        <ele>1668.560</ele>
        <time>2018-09-10T05:26:40Z</time>
      </trkpt>
      <trkpt lat="46.626083" lon="12.702512">
        <ele>1668.028</ele>
        <time>2018-09-10T05:26:41Z</time>
      </trkpt>
      <trkpt lat="46.626117" lon="12.702533">
        <ele>1667.033</ele>
        <time>2018-09-10T05:26:44Z</time>
      </trkpt>
      <trkpt lat="46.626129" lon="12.702523">
        <ele>1666.521</ele>
        <time>2018-09-10T05:26:45Z</time>
      </trkpt>
      <trkpt lat="46.626138" lon="12.702509">
        <ele>1666.131</ele>
        <time>2018-09-10T05:26:46Z</time>
      </trkpt>
      <trkpt lat="46.626140" lon="12.702487">
        <ele>1666.126</ele>
        <time>2018-09-10T05:26:47Z</time>
      </trkpt>
      <trkpt lat="46.626138" lon="12.702467">
        <ele>1665.684</ele>
        <time>2018-09-10T05:26:48Z</time>
      </trkpt>
      <trkpt lat="46.626127" lon="12.702445">
        <ele>1665.123</ele>
        <time>2018-09-10T05:26:49Z</time>
      </trkpt>
      <trkpt lat="46.626109" lon="12.702426">
        <ele>1664.183</ele>
        <time>2018-09-10T05:26:50Z</time>
      </trkpt>
      <trkpt lat="46.626088" lon="12.702411">
        <ele>1663.711</ele>
        <time>2018-09-10T05:26:51Z</time>
      </trkpt>
      <trkpt lat="46.626065" lon="12.702393">
        <ele>1663.208</ele>
        <time>2018-09-10T05:26:52Z</time>
      </trkpt>
      <trkpt lat="46.626043" lon="12.702366">
        <ele>1662.226</ele>
        <time>2018-09-10T05:26:53Z</time>
      </trkpt>
      <trkpt lat="46.626027" lon="12.702333">
        <ele>1661.728</ele>
        <time>2018-09-10T05:26:54Z</time>
      </trkpt>
      <trkpt lat="46.626011" lon="12.702308">
        <ele>1661.376</ele>
        <time>2018-09-10T05:26:55Z</time>
      </trkpt>
      <trkpt lat="46.625989" lon="12.702292">
        <ele>1662.761</ele>
        <time>2018-09-10T05:26:56Z</time>
      </trkpt>
      <trkpt lat="46.625982" lon="12.702254">
        <ele>1662.299</ele>
        <time>2018-09-10T05:26:57Z</time>
      </trkpt>
      <trkpt lat="46.625977" lon="12.702212">
        <ele>1662.219</ele>
        <time>2018-09-10T05:26:58Z</time>
      </trkpt>
      <trkpt lat="46.625970" lon="12.702176">
        <ele>1661.384</ele>
        <time>2018-09-10T05:26:59Z</time>
      </trkpt>
      <trkpt lat="46.625964" lon="12.702149">
        <ele>1660.352</ele>
        <time>2018-09-10T05:27:00Z</time>
      </trkpt>
      <trkpt lat="46.625961" lon="12.702113">
        <ele>1657.964</ele>
        <time>2018-09-10T05:27:02Z</time>
      </trkpt>
      <trkpt lat="46.625959" lon="12.702090">
        <ele>1657.906</ele>
        <time>2018-09-10T05:27:03Z</time>
      </trkpt>
      <trkpt lat="46.625953" lon="12.702064">
        <ele>1657.416</ele>
        <time>2018-09-10T05:27:04Z</time>
      </trkpt>
      <trkpt lat="46.625944" lon="12.702039">
        <ele>1657.408</ele>
        <time>2018-09-10T05:27:05Z</time>
      </trkpt>
      <trkpt lat="46.625931" lon="12.702015">
        <ele>1657.420</ele>
        <time>2018-09-10T05:27:06Z</time>
      </trkpt>
      <trkpt lat="46.625919" lon="12.701993">
        <ele>1657.482</ele>
        <time>2018-09-10T05:27:07Z</time>
      </trkpt>
      <trkpt lat="46.625917" lon="12.701971">
        <ele>1657.450</ele>
        <time>2018-09-10T05:27:08Z</time>
      </trkpt>
      <trkpt lat="46.625873" lon="12.701749">
        <ele>1658.435</ele>
        <time>2018-09-10T05:27:15Z</time>
      </trkpt>
      <trkpt lat="46.625858" lon="12.701726">
        <ele>1658.443</ele>
        <time>2018-09-10T05:27:16Z</time>
      </trkpt>
      <trkpt lat="46.625841" lon="12.701707">
        <ele>1658.883</ele>
        <time>2018-09-10T05:27:17Z</time>
      </trkpt>
      <trkpt lat="46.625819" lon="12.701686">
        <ele>1658.858</ele>
        <time>2018-09-10T05:27:18Z</time>
      </trkpt>
      <trkpt lat="46.625795" lon="12.701665">
        <ele>1658.896</ele>
        <time>2018-09-10T05:27:19Z</time>
      </trkpt>
      <trkpt lat="46.625773" lon="12.701639">
        <ele>1658.851</ele>
        <time>2018-09-10T05:27:20Z</time>
      </trkpt>
      <trkpt lat="46.625757" lon="12.701614">
        <ele>1659.301</ele>
        <time>2018-09-10T05:27:21Z</time>
      </trkpt>
      <trkpt lat="46.625744" lon="12.701597">
        <ele>1660.311</ele>
        <time>2018-09-10T05:27:22Z</time>
      </trkpt>
      <trkpt lat="46.625733" lon="12.701575">
        <ele>1661.308</ele>
        <time>2018-09-10T05:27:23Z</time>
      </trkpt>
      <trkpt lat="46.625725" lon="12.701544">
        <ele>1661.779</ele>
        <time>2018-09-10T05:27:24Z</time>
      </trkpt>
      <trkpt lat="46.625721" lon="12.701516">
        <ele>1661.711</ele>
        <time>2018-09-10T05:27:25Z</time>
      </trkpt>
      <trkpt lat="46.625727" lon="12.701489">
        <ele>1661.749</ele>
        <time>2018-09-10T05:27:26Z</time>
      </trkpt>
      <trkpt lat="46.625774" lon="12.701481">
        <ele>1661.364</ele>
        <time>2018-09-10T05:27:29Z</time>
      </trkpt>
      <trkpt lat="46.625794" lon="12.701501">
        <ele>1660.892</ele>
        <time>2018-09-10T05:27:30Z</time>
      </trkpt>
      <trkpt lat="46.625809" lon="12.701512">
        <ele>1660.862</ele>
        <time>2018-09-10T05:27:31Z</time>
      </trkpt>
      <trkpt lat="46.625818" lon="12.701529">
        <ele>1661.787</ele>
        <time>2018-09-10T05:27:32Z</time>
      </trkpt>
      <trkpt lat="46.625944" lon="12.701606">
        <ele>1660.835</ele>
        <time>2018-09-10T05:27:39Z</time>
      </trkpt>
      <trkpt lat="46.625950" lon="12.701635">
        <ele>1660.831</ele>
        <time>2018-09-10T05:27:40Z</time>
      </trkpt>
      <trkpt lat="46.625958" lon="12.701658">
        <ele>1660.861</ele>
        <time>2018-09-10T05:27:41Z</time>
      </trkpt>
      <trkpt lat="46.625967" lon="12.701676">
        <ele>1660.807</ele>
        <time>2018-09-10T05:27:42Z</time>
      </trkpt>
      <trkpt lat="46.625980" lon="12.701700">
        <ele>1660.808</ele>
        <time>2018-09-10T05:27:43Z</time>
      </trkpt>
      <trkpt lat="46.625995" lon="12.701722">
        <ele>1660.337</ele>
        <time>2018-09-10T05:27:44Z</time>
      </trkpt>
      <trkpt lat="46.626010" lon="12.701739">
        <ele>1659.869</ele>
        <time>2018-09-10T05:27:45Z</time>
      </trkpt>
      <trkpt lat="46.626116" lon="12.701796">
        <ele>1659.377</ele>
        <time>2018-09-10T05:27:51Z</time>
      </trkpt>
      <trkpt lat="46.626122" lon="12.701797">
        <ele>1660.862</ele>
        <time>2018-09-10T05:27:52Z</time>
      </trkpt>
      <trkpt lat="46.626131" lon="12.701797">
        <ele>1661.760</ele>
        <time>2018-09-10T05:27:53Z</time>
      </trkpt>
      <trkpt lat="46.626147" lon="12.701798">
        <ele>1662.290</ele>
        <time>2018-09-10T05:27:54Z</time>
      </trkpt>
      <trkpt lat="46.626189" lon="12.701806">
        <ele>1662.725</ele>
        <time>2018-09-10T05:27:57Z</time>
      </trkpt>
      <trkpt lat="46.626203" lon="12.701815">
        <ele>1663.283</ele>
        <time>2018-09-10T05:27:58Z</time>
      </trkpt>
      <trkpt lat="46.626223" lon="12.701823">
        <ele>1663.298</ele>
        <time>2018-09-10T05:27:59Z</time>
      </trkpt>
      <trkpt lat="46.626240" lon="12.701829">
        <ele>1663.215</ele>
        <time>2018-09-10T05:28:00Z</time>
      </trkpt>
      <trkpt lat="46.626262" lon="12.701834">
        <ele>1663.226</ele>
        <time>2018-09-10T05:28:01Z</time>
      </trkpt>
      <trkpt lat="46.626281" lon="12.701833">
        <ele>1662.708</ele>
        <time>2018-09-10T05:28:02Z</time>
      </trkpt>
      <trkpt lat="46.626294" lon="12.701837">
        <ele>1662.713</ele>
        <time>2018-09-10T05:28:03Z</time>
      </trkpt>
      <trkpt lat="46.626308" lon="12.701847">
        <ele>1662.295</ele>
        <time>2018-09-10T05:28:04Z</time>
      </trkpt>
      <trkpt lat="46.626320" lon="12.701859">
        <ele>1662.223</ele>
        <time>2018-09-10T05:28:05Z</time>
      </trkpt>
      <trkpt lat="46.626337" lon="12.701872">
        <ele>1661.788</ele>
        <time>2018-09-10T05:28:06Z</time>
      </trkpt>
      <trkpt lat="46.626354" lon="12.701884">
        <ele>1661.746</ele>
        <time>2018-09-10T05:28:07Z</time>
      </trkpt>
      <trkpt lat="46.626368" lon="12.701895">
        <ele>1660.866</ele>
        <time>2018-09-10T05:28:08Z</time>
      </trkpt>
      <trkpt lat="46.626383" lon="12.701906">
        <ele>1660.831</ele>
        <time>2018-09-10T05:28:09Z</time>
      </trkpt>
      <trkpt lat="46.626399" lon="12.701907">
        <ele>1660.359</ele>
        <time>2018-09-10T05:28:10Z</time>
      </trkpt>
      <trkpt lat="46.626408" lon="12.701896">
        <ele>1660.365</ele>
        <time>2018-09-10T05:28:11Z</time>
      </trkpt>
      <trkpt lat="46.626385" lon="12.701864">
        <ele>1659.368</ele>
        <time>2018-09-10T05:28:14Z</time>
      </trkpt>
      <trkpt lat="46.626374" lon="12.701853">
        <ele>1658.414</ele>
        <time>2018-09-10T05:28:15Z</time>
      </trkpt>
      <trkpt lat="46.626368" lon="12.701838">
        <ele>1657.908</ele>
        <time>2018-09-10T05:28:16Z</time>
      </trkpt>
      <trkpt lat="46.626182" lon="12.701628">
        <ele>1652.680</ele>
        <time>2018-09-10T05:28:28Z</time>
      </trkpt>
      <trkpt lat="46.626119" lon="12.701390">
        <ele>1645.942</ele>
        <time>2018-09-10T05:28:41Z</time>
      </trkpt>
      <trkpt lat="46.626099" lon="12.701294">
        <ele>1647.370</ele>
        <time>2018-09-10T05:28:46Z</time>
      </trkpt>
      <trkpt lat="46.626085" lon="12.701274">
        <ele>1646.855</ele>
        <time>2018-09-10T05:28:47Z</time>
      </trkpt>
      <trkpt lat="46.626071" lon="12.701257">
        <ele>1647.353</ele>
        <time>2018-09-10T05:28:48Z</time>
      </trkpt>
      <trkpt lat="46.626055" lon="12.701239">
        <ele>1647.393</ele>
        <time>2018-09-10T05:28:49Z</time>
      </trkpt>
      <trkpt lat="46.626040" lon="12.701216">
        <ele>1647.368</ele>
        <time>2018-09-10T05:28:50Z</time>
      </trkpt>
      <trkpt lat="46.626018" lon="12.701196">
        <ele>1648.366</ele>
        <time>2018-09-10T05:28:51Z</time>
      </trkpt>
      <trkpt lat="46.626002" lon="12.701178">
        <ele>1648.347</ele>
        <time>2018-09-10T05:28:52Z</time>
      </trkpt>
      <trkpt lat="46.625989" lon="12.701163">
        <ele>1649.229</ele>
        <time>2018-09-10T05:28:53Z</time>
      </trkpt>
      <trkpt lat="46.625980" lon="12.701143">
        <ele>1649.721</ele>
        <time>2018-09-10T05:28:54Z</time>
      </trkpt>
      <trkpt lat="46.625974" lon="12.701120">
        <ele>1650.208</ele>
        <time>2018-09-10T05:28:55Z</time>
      </trkpt>
      <trkpt lat="46.625972" lon="12.701090">
        <ele>1650.228</ele>
        <time>2018-09-10T05:28:56Z</time>
      </trkpt>
      <trkpt lat="46.625975" lon="12.701067">
        <ele>1650.210</ele>
        <time>2018-09-10T05:28:57Z</time>
      </trkpt>
      <trkpt lat="46.625987" lon="12.701056">
        <ele>1649.788</ele>
        <time>2018-09-10T05:28:58Z</time>
      </trkpt>
      <trkpt lat="46.626001" lon="12.701063">
        <ele>1649.283</ele>
        <time>2018-09-10T05:28:59Z</time>
      </trkpt>
      <trkpt lat="46.626017" lon="12.701077">
        <ele>1648.841</ele>
        <time>2018-09-10T05:29:00Z</time>
      </trkpt>
      <trkpt lat="46.626031" lon="12.701093">
        <ele>1647.891</ele>
        <time>2018-09-10T05:29:01Z</time>
      </trkpt>
      <trkpt lat="46.626047" lon="12.701119">
        <ele>1646.856</ele>
        <time>2018-09-10T05:29:02Z</time>
      </trkpt>
      <trkpt lat="46.626059" lon="12.701137">
        <ele>1645.934</ele>
        <time>2018-09-10T05:29:03Z</time>
      </trkpt>
      <trkpt lat="46.626059" lon="12.701164">
        <ele>1645.997</ele>
        <time>2018-09-10T05:29:04Z</time>
      </trkpt>
      <trkpt lat="46.626072" lon="12.701180">
        <ele>1644.923</ele>
        <time>2018-09-10T05:29:05Z</time>
      </trkpt>
      <trkpt lat="46.626090" lon="12.701187">
        <ele>1644.425</ele>
        <time>2018-09-10T05:29:06Z</time>
      </trkpt>
      <trkpt lat="46.626105" lon="12.701194">
        <ele>1644.908</ele>
        <time>2018-09-10T05:29:07Z</time>
      </trkpt>
      <trkpt lat="46.626123" lon="12.701199">
        <ele>1643.953</ele>
        <time>2018-09-10T05:29:08Z</time>
      </trkpt>
      <trkpt lat="46.626146" lon="12.701205">
        <ele>1643.545</ele>
        <time>2018-09-10T05:29:09Z</time>
      </trkpt>
      <trkpt lat="46.626164" lon="12.701209">
        <ele>1642.563</ele>
        <time>2018-09-10T05:29:10Z</time>
      </trkpt>
      <trkpt lat="46.626181" lon="12.701218">
        <ele>1642.068</ele>
        <time>2018-09-10T05:29:11Z</time>
      </trkpt>
      <trkpt lat="46.626201" lon="12.701222">
        <ele>1641.566</ele>
        <time>2018-09-10T05:29:12Z</time>
      </trkpt>
      <trkpt lat="46.626217" lon="12.701232">
        <ele>1641.186</ele>
        <time>2018-09-10T05:29:13Z</time>
      </trkpt>
      <trkpt lat="46.626348" lon="12.701269">
        <ele>1637.211</ele>
        <time>2018-09-10T05:29:21Z</time>
      </trkpt>
      <trkpt lat="46.626365" lon="12.701278">
        <ele>1636.779</ele>
        <time>2018-09-10T05:29:22Z</time>
      </trkpt>
      <trkpt lat="46.626381" lon="12.701285">
        <ele>1636.342</ele>
        <time>2018-09-10T05:29:23Z</time>
      </trkpt>
      <trkpt lat="46.626397" lon="12.701294">
        <ele>1635.322</ele>
        <time>2018-09-10T05:29:24Z</time>
      </trkpt>
      <trkpt lat="46.626413" lon="12.701302">
        <ele>1634.314</ele>
        <time>2018-09-10T05:29:25Z</time>
      </trkpt>
      <trkpt lat="46.626430" lon="12.701314">
        <ele>1633.908</ele>
        <time>2018-09-10T05:29:26Z</time>
      </trkpt>
      <trkpt lat="46.626447" lon="12.701328">
        <ele>1632.428</ele>
        <time>2018-09-10T05:29:27Z</time>
      </trkpt>
      <trkpt lat="46.626457" lon="12.701342">
        <ele>1631.920</ele>
        <time>2018-09-10T05:29:28Z</time>
      </trkpt>
      <trkpt lat="46.626468" lon="12.701357">
        <ele>1631.098</ele>
        <time>2018-09-10T05:29:29Z</time>
      </trkpt>
      <trkpt lat="46.626493" lon="12.701372">
        <ele>1630.513</ele>
        <time>2018-09-10T05:29:30Z</time>
      </trkpt>
      <trkpt lat="46.626507" lon="12.701385">
        <ele>1629.581</ele>
        <time>2018-09-10T05:29:31Z</time>
      </trkpt>
      <trkpt lat="46.626518" lon="12.701396">
        <ele>1629.021</ele>
        <time>2018-09-10T05:29:32Z</time>
      </trkpt>
      <trkpt lat="46.626544" lon="12.701331">
        <ele>1627.616</ele>
        <time>2018-09-10T05:29:40Z</time>
      </trkpt>
      <trkpt lat="46.626518" lon="12.701234">
        <ele>1628.624</ele>
        <time>2018-09-10T05:29:44Z</time>
      </trkpt>
      <trkpt lat="46.626505" lon="12.701210">
        <ele>1629.037</ele>
        <time>2018-09-10T05:29:45Z</time>
      </trkpt>
      <trkpt lat="46.626329" lon="12.700931">
        <ele>1629.049</ele>
        <time>2018-09-10T05:29:58Z</time>
      </trkpt>
      <trkpt lat="46.626250" lon="12.700898">
        <ele>1628.113</ele>
        <time>2018-09-10T05:30:03Z</time>
      </trkpt>
      <trkpt lat="46.626237" lon="12.700885">
        <ele>1627.608</ele>
        <time>2018-09-10T05:30:04Z</time>
      </trkpt>
      <trkpt lat="46.626229" lon="12.700869">
        <ele>1627.677</ele>
        <time>2018-09-10T05:30:05Z</time>
      </trkpt>
      <trkpt lat="46.626222" lon="12.700855">
        <ele>1627.199</ele>
        <time>2018-09-10T05:30:06Z</time>
      </trkpt>
      <trkpt lat="46.626267" lon="12.700837">
        <ele>1621.877</ele>
        <time>2018-09-10T05:30:16Z</time>
      </trkpt>
      <trkpt lat="46.626272" lon="12.700856">
        <ele>1619.912</ele>
        <time>2018-09-10T05:30:30Z</time>
      </trkpt>
      <trkpt lat="46.626312" lon="12.700828">
        <ele>1621.840</ele>
        <time>2018-09-10T05:30:37Z</time>
      </trkpt>
      <trkpt lat="46.626329" lon="12.700825">
        <ele>1621.840</ele>
        <time>2018-09-10T05:30:38Z</time>
      </trkpt>
      <trkpt lat="46.626350" lon="12.700829">
        <ele>1622.365</ele>
        <time>2018-09-10T05:30:39Z</time>
      </trkpt>
      <trkpt lat="46.626370" lon="12.700838">
        <ele>1621.823</ele>
        <time>2018-09-10T05:30:40Z</time>
      </trkpt>
      <trkpt lat="46.626480" lon="12.700911">
        <ele>1623.827</ele>
        <time>2018-09-10T05:30:49Z</time>
      </trkpt>
      <trkpt lat="46.626492" lon="12.700922">
        <ele>1623.868</ele>
        <time>2018-09-10T05:30:50Z</time>
      </trkpt>
      <trkpt lat="46.626507" lon="12.700929">
        <ele>1623.814</ele>
        <time>2018-09-10T05:30:51Z</time>
      </trkpt>
      <trkpt lat="46.626521" lon="12.700937">
        <ele>1623.308</ele>
        <time>2018-09-10T05:30:52Z</time>
      </trkpt>
      <trkpt lat="46.626535" lon="12.700946">
        <ele>1622.846</ele>
        <time>2018-09-10T05:30:53Z</time>
      </trkpt>
      <trkpt lat="46.626550" lon="12.700953">
        <ele>1622.878</ele>
        <time>2018-09-10T05:30:54Z</time>
      </trkpt>
      <trkpt lat="46.626572" lon="12.700964">
        <ele>1622.896</ele>
        <time>2018-09-10T05:30:55Z</time>
      </trkpt>
      <trkpt lat="46.626600" lon="12.700973">
        <ele>1622.861</ele>
        <time>2018-09-10T05:30:56Z</time>
      </trkpt>
      <trkpt lat="46.626625" lon="12.700983">
        <ele>1622.339</ele>
        <time>2018-09-10T05:30:57Z</time>
      </trkpt>
      <trkpt lat="46.626639" lon="12.700998">
        <ele>1621.889</ele>
        <time>2018-09-10T05:30:58Z</time>
      </trkpt>
      <trkpt lat="46.626654" lon="12.701011">
        <ele>1621.844</ele>
        <time>2018-09-10T05:30:59Z</time>
      </trkpt>
      <trkpt lat="46.626671" lon="12.701024">
        <ele>1621.482</ele>
        <time>2018-09-10T05:31:00Z</time>
      </trkpt>
      <trkpt lat="46.626693" lon="12.701034">
        <ele>1620.432</ele>
        <time>2018-09-10T05:31:01Z</time>
      </trkpt>
      <trkpt lat="46.626710" lon="12.701045">
        <ele>1619.992</ele>
        <time>2018-09-10T05:31:02Z</time>
      </trkpt>
      <trkpt lat="46.626820" lon="12.701056">
        <ele>1614.611</ele>
        <time>2018-09-10T05:31:11Z</time>
      </trkpt>
      <trkpt lat="46.626821" lon="12.701044">
        <ele>1613.708</ele>
        <time>2018-09-10T05:31:12Z</time>
      </trkpt>
      <trkpt lat="46.626823" lon="12.701021">
        <ele>1612.247</ele>
        <time>2018-09-10T05:31:13Z</time>
      </trkpt>
      <trkpt lat="46.626829" lon="12.700985">
        <ele>1611.329</ele>
        <time>2018-09-10T05:31:14Z</time>
      </trkpt>
      <trkpt lat="46.626831" lon="12.700957">
        <ele>1610.317</ele>
        <time>2018-09-10T05:31:15Z</time>
      </trkpt>
      <trkpt lat="46.626716" lon="12.700748">
        <ele>1604.592</ele>
        <time>2018-09-10T05:31:25Z</time>
      </trkpt>
      <trkpt lat="46.626703" lon="12.700725">
        <ele>1605.040</ele>
        <time>2018-09-10T05:31:26Z</time>
      </trkpt>
      <trkpt lat="46.626652" lon="12.700653">
        <ele>1604.540</ele>
        <time>2018-09-10T05:31:30Z</time>
      </trkpt>
      <trkpt lat="46.626642" lon="12.700638">
        <ele>1605.085</ele>
        <time>2018-09-10T05:31:31Z</time>
      </trkpt>
      <trkpt lat="46.626631" lon="12.700621">
        <ele>1605.083</ele>
        <time>2018-09-10T05:31:32Z</time>
      </trkpt>
      <trkpt lat="46.626618" lon="12.700605">
        <ele>1605.017</ele>
        <time>2018-09-10T05:31:33Z</time>
      </trkpt>
      <trkpt lat="46.626606" lon="12.700592">
        <ele>1605.087</ele>
        <time>2018-09-10T05:31:34Z</time>
      </trkpt>
      <trkpt lat="46.626597" lon="12.700579">
        <ele>1605.015</ele>
        <time>2018-09-10T05:31:35Z</time>
      </trkpt>
      <trkpt lat="46.626584" lon="12.700563">
        <ele>1605.008</ele>
        <time>2018-09-10T05:31:36Z</time>
      </trkpt>
      <trkpt lat="46.626543" lon="12.700510">
        <ele>1605.035</ele>
        <time>2018-09-10T05:31:39Z</time>
      </trkpt>
      <trkpt lat="46.626523" lon="12.700497">
        <ele>1605.587</ele>
        <time>2018-09-10T05:31:40Z</time>
      </trkpt>
      <trkpt lat="46.626505" lon="12.700487">
        <ele>1605.015</ele>
        <time>2018-09-10T05:31:41Z</time>
      </trkpt>
      <trkpt lat="46.626489" lon="12.700473">
        <ele>1605.540</ele>
        <time>2018-09-10T05:31:42Z</time>
      </trkpt>
      <trkpt lat="46.626475" lon="12.700452">
        <ele>1605.048</ele>
        <time>2018-09-10T05:31:43Z</time>
      </trkpt>
      <trkpt lat="46.626457" lon="12.700437">
        <ele>1604.528</ele>
        <time>2018-09-10T05:31:44Z</time>
      </trkpt>
      <trkpt lat="46.626441" lon="12.700424">
        <ele>1604.533</ele>
        <time>2018-09-10T05:31:45Z</time>
      </trkpt>
      <trkpt lat="46.626425" lon="12.700414">
        <ele>1604.121</ele>
        <time>2018-09-10T05:31:46Z</time>
      </trkpt>
      <trkpt lat="46.626418" lon="12.700399">
        <ele>1604.527</ele>
        <time>2018-09-10T05:31:47Z</time>
      </trkpt>
      <trkpt lat="46.626406" lon="12.700394">
        <ele>1604.568</ele>
        <time>2018-09-10T05:31:48Z</time>
      </trkpt>
      <trkpt lat="46.626392" lon="12.700386">
        <ele>1605.014</ele>
        <time>2018-09-10T05:31:49Z</time>
      </trkpt>
      <trkpt lat="46.626378" lon="12.700381">
        <ele>1605.508</ele>
        <time>2018-09-10T05:31:50Z</time>
      </trkpt>
      <trkpt lat="46.626359" lon="12.700379">
        <ele>1606.066</ele>
        <time>2018-09-10T05:31:51Z</time>
      </trkpt>
      <trkpt lat="46.626339" lon="12.700385">
        <ele>1607.498</ele>
        <time>2018-09-10T05:31:52Z</time>
      </trkpt>
      <trkpt lat="46.626322" lon="12.700388">
        <ele>1607.946</ele>
        <time>2018-09-10T05:31:53Z</time>
      </trkpt>
      <trkpt lat="46.626300" lon="12.700387">
        <ele>1608.491</ele>
        <time>2018-09-10T05:31:54Z</time>
      </trkpt>
      <trkpt lat="46.626264" lon="12.700353">
        <ele>1610.369</ele>
        <time>2018-09-10T05:31:57Z</time>
      </trkpt>
      <trkpt lat="46.626258" lon="12.700337">
        <ele>1610.349</ele>
        <time>2018-09-10T05:31:58Z</time>
      </trkpt>
      <trkpt lat="46.626254" lon="12.700317">
        <ele>1610.374</ele>
        <time>2018-09-10T05:31:59Z</time>
      </trkpt>
      <trkpt lat="46.626250" lon="12.700301">
        <ele>1609.882</ele>
        <time>2018-09-10T05:32:00Z</time>
      </trkpt>
      <trkpt lat="46.626253" lon="12.700282">
        <ele>1609.313</ele>
        <time>2018-09-10T05:32:01Z</time>
      </trkpt>
      <trkpt lat="46.626263" lon="12.700265">
        <ele>1609.343</ele>
        <time>2018-09-10T05:32:03Z</time>
      </trkpt>
      <trkpt lat="46.626274" lon="12.700265">
        <ele>1609.307</ele>
        <time>2018-09-10T05:32:04Z</time>
      </trkpt>
      <trkpt lat="46.626344" lon="12.700251">
        <ele>1607.908</ele>
        <time>2018-09-10T05:32:13Z</time>
      </trkpt>
      <trkpt lat="46.626357" lon="12.700240">
        <ele>1607.465</ele>
        <time>2018-09-10T05:32:14Z</time>
      </trkpt>
      <trkpt lat="46.626409" lon="12.700259">
        <ele>1606.927</ele>
        <time>2018-09-10T05:32:18Z</time>
      </trkpt>
      <trkpt lat="46.626421" lon="12.700266">
        <ele>1606.565</ele>
        <time>2018-09-10T05:32:19Z</time>
      </trkpt>
      <trkpt lat="46.626525" lon="12.700276">
        <ele>1606.550</ele>
        <time>2018-09-10T05:32:26Z</time>
      </trkpt>
      <trkpt lat="46.626575" lon="12.700276">
        <ele>1607.988</ele>
        <time>2018-09-10T05:32:29Z</time>
      </trkpt>
      <trkpt lat="46.626852" lon="12.700369">
        <ele>1609.848</ele>
        <time>2018-09-10T05:32:43Z</time>
      </trkpt>
      <trkpt lat="46.627059" lon="12.700379">
        <ele>1606.943</ele>
        <time>2018-09-10T05:32:55Z</time>
      </trkpt>
      <trkpt lat="46.627079" lon="12.700409">
        <ele>1605.531</ele>
        <time>2018-09-10T05:32:57Z</time>
      </trkpt>
      <trkpt lat="46.627170" lon="12.700445">
        <ele>1605.067</ele>
        <time>2018-09-10T05:33:04Z</time>
      </trkpt>
      <trkpt lat="46.627267" lon="12.700688">
        <ele>1603.181</ele>
        <time>2018-09-10T05:33:18Z</time>
      </trkpt>
      <trkpt lat="46.627266" lon="12.700759">
        <ele>1599.719</ele>
        <time>2018-09-10T05:33:22Z</time>
      </trkpt>
      <trkpt lat="46.627269" lon="12.700777">
        <ele>1599.208</ele>
        <time>2018-09-10T05:33:23Z</time>
      </trkpt>
      <trkpt lat="46.627270" lon="12.700798">
        <ele>1598.390</ele>
        <time>2018-09-10T05:33:24Z</time>
      </trkpt>
      <trkpt lat="46.627271" lon="12.700817">
        <ele>1597.332</ele>
        <time>2018-09-10T05:33:25Z</time>
      </trkpt>
      <trkpt lat="46.627272" lon="12.700833">
        <ele>1596.440</ele>
        <time>2018-09-10T05:33:26Z</time>
      </trkpt>
      <trkpt lat="46.627273" lon="12.700850">
        <ele>1595.965</ele>
        <time>2018-09-10T05:33:27Z</time>
      </trkpt>
      <trkpt lat="46.627264" lon="12.700991">
        <ele>1592.573</ele>
        <time>2018-09-10T05:33:37Z</time>
      </trkpt>
      <trkpt lat="46.627265" lon="12.701006">
        <ele>1592.593</ele>
        <time>2018-09-10T05:33:38Z</time>
      </trkpt>
      <trkpt lat="46.627269" lon="12.701020">
        <ele>1592.538</ele>
        <time>2018-09-10T05:33:39Z</time>
      </trkpt>
      <trkpt lat="46.627275" lon="12.701033">
        <ele>1593.036</ele>
        <time>2018-09-10T05:33:40Z</time>
      </trkpt>
      <trkpt lat="46.627281" lon="12.701044">
        <ele>1593.065</ele>
        <time>2018-09-10T05:33:41Z</time>
      </trkpt>
      <trkpt lat="46.627315" lon="12.701048">
        <ele>1595.968</ele>
        <time>2018-09-10T05:33:49Z</time>
      </trkpt>
      <trkpt lat="46.627326" lon="12.701049">
        <ele>1596.414</ele>
        <time>2018-09-10T05:33:50Z</time>
      </trkpt>
      <trkpt lat="46.627336" lon="12.701047">
        <ele>1596.408</ele>
        <time>2018-09-10T05:33:51Z</time>
      </trkpt>
      <trkpt lat="46.627440" lon="12.701000">
        <ele>1594.920</ele>
        <time>2018-09-10T05:34:04Z</time>
      </trkpt>
      <trkpt lat="46.627522" lon="12.700890">
        <ele>1594.922</ele>
        <time>2018-09-10T05:34:17Z</time>
      </trkpt>
      <trkpt lat="46.627611" lon="12.700788">
        <ele>1597.320</ele>
        <time>2018-09-10T05:34:30Z</time>
      </trkpt>
      <trkpt lat="46.627691" lon="12.700712">
        <ele>1595.495</ele>
        <time>2018-09-10T05:34:45Z</time>
      </trkpt>
      <trkpt lat="46.627825" lon="12.700499">
        <ele>1594.093</ele>
        <time>2018-09-10T05:34:58Z</time>
      </trkpt>
      <trkpt lat="46.627867" lon="12.700427">
        <ele>1591.183</ele>
        <time>2018-09-10T05:35:08Z</time>
      </trkpt>
      <trkpt lat="46.627917" lon="12.700356">
        <ele>1590.658</ele>
        <time>2018-09-10T05:35:21Z</time>
      </trkpt>
      <trkpt lat="46.627967" lon="12.700214">
        <ele>1588.736</ele>
        <time>2018-09-10T05:35:31Z</time>
      </trkpt>
      <trkpt lat="46.628015" lon="12.700039">
        <ele>1586.375</ele>
        <time>2018-09-10T05:35:38Z</time>
      </trkpt>
      <trkpt lat="46.628040" lon="12.700015">
        <ele>1585.828</ele>
        <time>2018-09-10T05:35:40Z</time>
      </trkpt>
      <trkpt lat="46.628056" lon="12.700014">
        <ele>1585.320</ele>
        <time>2018-09-10T05:35:41Z</time>
      </trkpt>
      <trkpt lat="46.628074" lon="12.700015">
        <ele>1584.808</ele>
        <time>2018-09-10T05:35:42Z</time>
      </trkpt>
      <trkpt lat="46.628096" lon="12.700012">
        <ele>1584.361</ele>
        <time>2018-09-10T05:35:43Z</time>
      </trkpt>
      <trkpt lat="46.628114" lon="12.700014">
        <ele>1583.433</ele>
        <time>2018-09-10T05:35:44Z</time>
      </trkpt>
      <trkpt lat="46.628133" lon="12.700009">
        <ele>1582.991</ele>
        <time>2018-09-10T05:35:45Z</time>
      </trkpt>
      <trkpt lat="46.628332" lon="12.699981">
        <ele>1578.166</ele>
        <time>2018-09-10T05:35:57Z</time>
      </trkpt>
      <trkpt lat="46.628383" lon="12.699984">
        <ele>1577.194</ele>
        <time>2018-09-10T05:36:00Z</time>
      </trkpt>
      <trkpt lat="46.628396" lon="12.699972">
        <ele>1576.794</ele>
        <time>2018-09-10T05:36:01Z</time>
      </trkpt>
      <trkpt lat="46.628408" lon="12.699952">
        <ele>1576.799</ele>
        <time>2018-09-10T05:36:02Z</time>
      </trkpt>
      <trkpt lat="46.628418" lon="12.699928">
        <ele>1577.127</ele>
        <time>2018-09-10T05:36:03Z</time>
      </trkpt>
      <trkpt lat="46.628431" lon="12.699902">
        <ele>1577.184</ele>
        <time>2018-09-10T05:36:04Z</time>
      </trkpt>
      <trkpt lat="46.628444" lon="12.699876">
        <ele>1577.107</ele>
        <time>2018-09-10T05:36:05Z</time>
      </trkpt>
      <trkpt lat="46.628458" lon="12.699859">
        <ele>1577.117</ele>
        <time>2018-09-10T05:36:06Z</time>
      </trkpt>
      <trkpt lat="46.628473" lon="12.699843">
        <ele>1577.108</ele>
        <time>2018-09-10T05:36:07Z</time>
      </trkpt>
      <trkpt lat="46.628489" lon="12.699826">
        <ele>1577.182</ele>
        <time>2018-09-10T05:36:08Z</time>
      </trkpt>
      <trkpt lat="46.628505" lon="12.699807">
        <ele>1577.154</ele>
        <time>2018-09-10T05:36:09Z</time>
      </trkpt>
      <trkpt lat="46.628522" lon="12.699792">
        <ele>1576.792</ele>
        <time>2018-09-10T05:36:10Z</time>
      </trkpt>
      <trkpt lat="46.628538" lon="12.699777">
        <ele>1576.717</ele>
        <time>2018-09-10T05:36:11Z</time>
      </trkpt>
      <trkpt lat="46.628554" lon="12.699761">
        <ele>1576.275</ele>
        <time>2018-09-10T05:36:12Z</time>
      </trkpt>
      <trkpt lat="46.628570" lon="12.699747">
        <ele>1576.295</ele>
        <time>2018-09-10T05:36:13Z</time>
      </trkpt>
      <trkpt lat="46.628589" lon="12.699729">
        <ele>1576.210</ele>
        <time>2018-09-10T05:36:14Z</time>
      </trkpt>
      <trkpt lat="46.628686" lon="12.699561">
        <ele>1574.798</ele>
        <time>2018-09-10T05:36:23Z</time>
      </trkpt>
      <trkpt lat="46.628686" lon="12.699537">
        <ele>1574.399</ele>
        <time>2018-09-10T05:36:24Z</time>
      </trkpt>
      <trkpt lat="46.628670" lon="12.699509">
        <ele>1570.407</ele>
        <time>2018-09-10T05:36:34Z</time>
      </trkpt>
      <trkpt lat="46.628661" lon="12.699511">
        <ele>1569.927</ele>
        <time>2018-09-10T05:36:35Z</time>
      </trkpt>
      <trkpt lat="46.628557" lon="12.699603">
        <ele>1565.108</ele>
        <time>2018-09-10T05:36:48Z</time>
      </trkpt>
      <trkpt lat="46.628488" lon="12.699609">
        <ele>1566.133</ele>
        <time>2018-09-10T05:36:55Z</time>
      </trkpt>
      <trkpt lat="46.628474" lon="12.699614">
        <ele>1566.115</ele>
        <time>2018-09-10T05:36:56Z</time>
      </trkpt>
      <trkpt lat="46.628329" lon="12.699627">
        <ele>1569.023</ele>
        <time>2018-09-10T05:37:11Z</time>
      </trkpt>
      <trkpt lat="46.628313" lon="12.699601">
        <ele>1569.958</ele>
        <time>2018-09-10T05:37:14Z</time>
      </trkpt>
      <trkpt lat="46.628336" lon="12.699552">
        <ele>1570.476</ele>
        <time>2018-09-10T05:37:21Z</time>
      </trkpt>
      <trkpt lat="46.628412" lon="12.699443">
        <ele>1567.586</ele>
        <time>2018-09-10T05:37:34Z</time>
      </trkpt>
      <trkpt lat="46.628475" lon="12.699270">
        <ele>1563.241</ele>
        <time>2018-09-10T05:37:49Z</time>
      </trkpt>
      <trkpt lat="46.628441" lon="12.699265">
        <ele>1560.389</ele>
        <time>2018-09-10T05:38:01Z</time>
      </trkpt>
      <trkpt lat="46.628470" lon="12.699224">
        <ele>1556.593</ele>
        <time>2018-09-10T05:38:30Z</time>
      </trkpt>
      <trkpt lat="46.628428" lon="12.699244">
        <ele>1556.965</ele>
        <time>2018-09-10T05:38:38Z</time>
      </trkpt>
      <trkpt lat="46.628406" lon="12.699250">
        <ele>1556.921</ele>
        <time>2018-09-10T05:38:39Z</time>
      </trkpt>
      <trkpt lat="46.628239" lon="12.699267">
        <ele>1554.508</ele>
        <time>2018-09-10T05:38:47Z</time>
      </trkpt>
      <trkpt lat="46.627876" lon="12.699172">
        <ele>1548.383</ele>
        <time>2018-09-10T05:38:58Z</time>
      </trkpt>
      <trkpt lat="46.627458" lon="12.698805">
        <ele>1543.525</ele>
        <time>2018-09-10T05:39:12Z</time>
      </trkpt>
      <trkpt lat="46.627422" lon="12.698699">
        <ele>1540.173</ele>
        <time>2018-09-10T05:39:17Z</time>
      </trkpt>
      <trkpt lat="46.627421" lon="12.698677">
        <ele>1539.668</ele>
        <time>2018-09-10T05:39:18Z</time>
      </trkpt>
      <trkpt lat="46.627419" lon="12.698650">
        <ele>1539.236</ele>
        <time>2018-09-10T05:39:19Z</time>
      </trkpt>
      <trkpt lat="46.627418" lon="12.698626">
        <ele>1538.786</ele>
        <time>2018-09-10T05:39:20Z</time>
      </trkpt>
      <trkpt lat="46.627419" lon="12.698605">
        <ele>1538.291</ele>
        <time>2018-09-10T05:39:21Z</time>
      </trkpt>
      <trkpt lat="46.627369" lon="12.698330">
        <ele>1534.889</ele>
        <time>2018-09-10T05:39:29Z</time>
      </trkpt>
      <trkpt lat="46.627264" lon="12.698045">
        <ele>1532.023</ele>
        <time>2018-09-10T05:39:34Z</time>
      </trkpt>
      <trkpt lat="46.627236" lon="12.697993">
        <ele>1531.583</ele>
        <time>2018-09-10T05:39:35Z</time>
      </trkpt>
      <trkpt lat="46.627206" lon="12.697940">
        <ele>1531.511</ele>
        <time>2018-09-10T05:39:36Z</time>
      </trkpt>
      <trkpt lat="46.627039" lon="12.697650">
        <ele>1528.608</ele>
        <time>2018-09-10T05:39:41Z</time>
      </trkpt>
      <trkpt lat="46.627002" lon="12.697606">
        <ele>1528.136</ele>
        <time>2018-09-10T05:39:42Z</time>
      </trkpt>
      <trkpt lat="46.626964" lon="12.697571">
        <ele>1527.178</ele>
        <time>2018-09-10T05:39:43Z</time>
      </trkpt>
      <trkpt lat="46.626926" lon="12.697543">
        <ele>1526.726</ele>
        <time>2018-09-10T05:39:44Z</time>
      </trkpt>
      <trkpt lat="46.626889" lon="12.697519">
        <ele>1525.761</ele>
        <time>2018-09-10T05:39:45Z</time>
      </trkpt>
      <trkpt lat="46.626850" lon="12.697504">
        <ele>1525.269</ele>
        <time>2018-09-10T05:39:46Z</time>
      </trkpt>
      <trkpt lat="46.626813" lon="12.697496">
        <ele>1524.799</ele>
        <time>2018-09-10T05:39:47Z</time>
      </trkpt>
      <trkpt lat="46.626642" lon="12.697596">
        <ele>1520.464</ele>
        <time>2018-09-10T05:39:56Z</time>
      </trkpt>
      <trkpt lat="46.626600" lon="12.697660">
        <ele>1520.932</ele>
        <time>2018-09-10T05:40:01Z</time>
      </trkpt>
      <trkpt lat="46.626485" lon="12.697715">
        <ele>1520.951</ele>
        <time>2018-09-10T05:40:05Z</time>
      </trkpt>
      <trkpt lat="46.626129" lon="12.697694">
        <ele>1522.801</ele>
        <time>2018-09-10T05:40:14Z</time>
      </trkpt>
      <trkpt lat="46.626109" lon="12.697661">
        <ele>1522.311</ele>
        <time>2018-09-10T05:40:15Z</time>
      </trkpt>
      <trkpt lat="46.626097" lon="12.697620">
        <ele>1522.308</ele>
        <time>2018-09-10T05:40:16Z</time>
      </trkpt>
      <trkpt lat="46.626089" lon="12.697580">
        <ele>1521.969</ele>
        <time>2018-09-10T05:40:17Z</time>
      </trkpt>
      <trkpt lat="46.626081" lon="12.697540">
        <ele>1521.431</ele>
        <time>2018-09-10T05:40:18Z</time>
      </trkpt>
      <trkpt lat="46.626079" lon="12.697503">
        <ele>1520.419</ele>
        <time>2018-09-10T05:40:19Z</time>
      </trkpt>
      <trkpt lat="46.626080" lon="12.697470">
        <ele>1519.944</ele>
        <time>2018-09-10T05:40:20Z</time>
      </trkpt>
      <trkpt lat="46.626057" lon="12.697351">
        <ele>1519.592</ele>
        <time>2018-09-10T05:40:27Z</time>
      </trkpt>
      <trkpt lat="46.625755" lon="12.697298">
        <ele>1519.052</ele>
        <time>2018-09-10T05:40:38Z</time>
      </trkpt>
      <trkpt lat="46.625676" lon="12.697314">
        <ele>1518.577</ele>
        <time>2018-09-10T05:40:40Z</time>
      </trkpt>
      <trkpt lat="46.625631" lon="12.697314">
        <ele>1518.025</ele>
        <time>2018-09-10T05:40:41Z</time>
      </trkpt>
      <trkpt lat="46.625584" lon="12.697311">
        <ele>1518.064</ele>
        <time>2018-09-10T05:40:42Z</time>
      </trkpt>
      <trkpt lat="46.625536" lon="12.697307">
        <ele>1517.506</ele>
        <time>2018-09-10T05:40:43Z</time>
      </trkpt>
      <trkpt lat="46.625490" lon="12.697303">
        <ele>1517.516</ele>
        <time>2018-09-10T05:40:44Z</time>
      </trkpt>
      <trkpt lat="46.625448" lon="12.697290">
        <ele>1517.108</ele>
        <time>2018-09-10T05:40:45Z</time>
      </trkpt>
      <trkpt lat="46.625411" lon="12.697266">
        <ele>1516.660</ele>
        <time>2018-09-10T05:40:46Z</time>
      </trkpt>
      <trkpt lat="46.625374" lon="12.697233">
        <ele>1516.612</ele>
        <time>2018-09-10T05:40:47Z</time>
      </trkpt>
      <trkpt lat="46.625337" lon="12.697189">
        <ele>1516.680</ele>
        <time>2018-09-10T05:40:48Z</time>
      </trkpt>
      <trkpt lat="46.625303" lon="12.697143">
        <ele>1516.125</ele>
        <time>2018-09-10T05:40:49Z</time>
      </trkpt>
      <trkpt lat="46.625273" lon="12.697091">
        <ele>1515.633</ele>
        <time>2018-09-10T05:40:50Z</time>
      </trkpt>
      <trkpt lat="46.625247" lon="12.697032">
        <ele>1515.113</ele>
        <time>2018-09-10T05:40:51Z</time>
      </trkpt>
      <trkpt lat="46.625223" lon="12.696970">
        <ele>1514.658</ele>
        <time>2018-09-10T05:40:52Z</time>
      </trkpt>
      <trkpt lat="46.625124" lon="12.696669">
        <ele>1511.326</ele>
        <time>2018-09-10T05:40:57Z</time>
      </trkpt>
      <trkpt lat="46.625101" lon="12.696618">
        <ele>1510.311</ele>
        <time>2018-09-10T05:40:58Z</time>
      </trkpt>
      <trkpt lat="46.625076" lon="12.696571">
        <ele>1509.821</ele>
        <time>2018-09-10T05:40:59Z</time>
      </trkpt>
      <trkpt lat="46.625048" lon="12.696530">
        <ele>1508.903</ele>
        <time>2018-09-10T05:41:00Z</time>
      </trkpt>
      <trkpt lat="46.625022" lon="12.696495">
        <ele>1507.908</ele>
        <time>2018-09-10T05:41:01Z</time>
      </trkpt>
      <trkpt lat="46.625000" lon="12.696468">
        <ele>1507.445</ele>
        <time>2018-09-10T05:41:02Z</time>
      </trkpt>
      <trkpt lat="46.624939" lon="12.696392">
        <ele>1505.587</ele>
        <time>2018-09-10T05:41:06Z</time>
      </trkpt>
      <trkpt lat="46.624932" lon="12.696373">
        <ele>1505.525</ele>
        <time>2018-09-10T05:41:07Z</time>
      </trkpt>
      <trkpt lat="46.624927" lon="12.696355">
        <ele>1505.050</ele>
        <time>2018-09-10T05:41:08Z</time>
      </trkpt>
      <trkpt lat="46.624921" lon="12.696338">
        <ele>1504.628</ele>
        <time>2018-09-10T05:41:09Z</time>
      </trkpt>
      <trkpt lat="46.624911" lon="12.696325">
        <ele>1504.638</ele>
        <time>2018-09-10T05:41:10Z</time>
      </trkpt>
      <trkpt lat="46.624903" lon="12.696311">
        <ele>1505.013</ele>
        <time>2018-09-10T05:41:11Z</time>
      </trkpt>
      <trkpt lat="46.624897" lon="12.696295">
        <ele>1505.081</ele>
        <time>2018-09-10T05:41:12Z</time>
      </trkpt>
      <trkpt lat="46.624892" lon="12.696278">
        <ele>1504.625</ele>
        <time>2018-09-10T05:41:13Z</time>
      </trkpt>
      <trkpt lat="46.624891" lon="12.696261">
        <ele>1504.626</ele>
        <time>2018-09-10T05:41:14Z</time>
      </trkpt>
      <trkpt lat="46.624888" lon="12.696245">
        <ele>1504.608</ele>
        <time>2018-09-10T05:41:15Z</time>
      </trkpt>
      <trkpt lat="46.624884" lon="12.696225">
        <ele>1505.008</ele>
        <time>2018-09-10T05:41:16Z</time>
      </trkpt>
      <trkpt lat="46.624881" lon="12.696200">
        <ele>1505.026</ele>
        <time>2018-09-10T05:41:17Z</time>
      </trkpt>
      <trkpt lat="46.624877" lon="12.696168">
        <ele>1505.058</ele>
        <time>2018-09-10T05:41:18Z</time>
      </trkpt>
      <trkpt lat="46.624872" lon="12.696125">
        <ele>1505.066</ele>
        <time>2018-09-10T05:41:19Z</time>
      </trkpt>
      <trkpt lat="46.624837" lon="12.695682">
        <ele>1502.621</ele>
        <time>2018-09-10T05:41:28Z</time>
      </trkpt>
      <trkpt lat="46.624776" lon="12.694250">
        <ele>1492.519</ele>
        <time>2018-09-10T05:41:44Z</time>
      </trkpt>
      <trkpt lat="46.624752" lon="12.694161">
        <ele>1492.159</ele>
        <time>2018-09-10T05:41:45Z</time>
      </trkpt>
      <trkpt lat="46.624715" lon="12.694082">
        <ele>1491.624</ele>
        <time>2018-09-10T05:41:46Z</time>
      </trkpt>
      <trkpt lat="46.624637" lon="12.693934">
        <ele>1491.182</ele>
        <time>2018-09-10T05:41:48Z</time>
      </trkpt>
      <trkpt lat="46.624610" lon="12.693854">
        <ele>1490.671</ele>
        <time>2018-09-10T05:41:49Z</time>
      </trkpt>
      <trkpt lat="46.624592" lon="12.693771">
        <ele>1490.141</ele>
        <time>2018-09-10T05:41:50Z</time>
      </trkpt>
      <trkpt lat="46.624485" lon="12.693229">
        <ele>1489.215</ele>
        <time>2018-09-10T05:41:57Z</time>
      </trkpt>
      <trkpt lat="46.624475" lon="12.693146">
        <ele>1489.208</ele>
        <time>2018-09-10T05:41:58Z</time>
      </trkpt>
      <trkpt lat="46.624472" lon="12.693069">
        <ele>1489.271</ele>
        <time>2018-09-10T05:41:59Z</time>
      </trkpt>
      <trkpt lat="46.624485" lon="12.692661">
        <ele>1488.293</ele>
        <time>2018-09-10T05:42:09Z</time>
      </trkpt>
      <trkpt lat="46.624486" lon="12.692643">
        <ele>1488.261</ele>
        <time>2018-09-10T05:42:10Z</time>
      </trkpt>
      <trkpt lat="46.624494" lon="12.692585">
        <ele>1488.746</ele>
        <time>2018-09-10T05:42:20Z</time>
      </trkpt>
      <trkpt lat="46.624490" lon="12.692597">
        <ele>1487.314</ele>
        <time>2018-09-10T05:42:37Z</time>
      </trkpt>
      <trkpt lat="46.624511" lon="12.692581">
        <ele>1487.314</ele>
        <time>2018-09-10T05:43:01Z</time>
      </trkpt>
      <trkpt lat="46.624483" lon="12.692432">
        <ele>1487.379</ele>
        <time>2018-09-10T05:43:14Z</time>
      </trkpt>
      <trkpt lat="46.624477" lon="12.692379">
        <ele>1486.377</ele>
        <time>2018-09-10T05:43:20Z</time>
      </trkpt>
      <trkpt lat="46.624468" lon="12.692360">
        <ele>1486.326</ele>
        <time>2018-09-10T05:43:21Z</time>
      </trkpt>
      <trkpt lat="46.624463" lon="12.692339">
        <ele>1485.847</ele>
        <time>2018-09-10T05:43:22Z</time>
      </trkpt>
      <trkpt lat="46.624455" lon="12.692316">
        <ele>1485.811</ele>
        <time>2018-09-10T05:43:23Z</time>
      </trkpt>
      <trkpt lat="46.624443" lon="12.692291">
        <ele>1485.808</ele>
        <time>2018-09-10T05:43:24Z</time>
      </trkpt>
      <trkpt lat="46.624428" lon="12.692262">
        <ele>1485.356</ele>
        <time>2018-09-10T05:43:25Z</time>
      </trkpt>
      <trkpt lat="46.624411" lon="12.692233">
        <ele>1485.328</ele>
        <time>2018-09-10T05:43:26Z</time>
      </trkpt>
      <trkpt lat="46.624220" lon="12.691834">
        <ele>1482.036</ele>
        <time>2018-09-10T05:43:35Z</time>
      </trkpt>
      <trkpt lat="46.624090" lon="12.691704">
        <ele>1481.041</ele>
        <time>2018-09-10T05:43:38Z</time>
      </trkpt>
      <trkpt lat="46.624047" lon="12.691636">
        <ele>1481.039</ele>
        <time>2018-09-10T05:43:39Z</time>
      </trkpt>
      <trkpt lat="46.624012" lon="12.691562">
        <ele>1480.569</ele>
        <time>2018-09-10T05:43:40Z</time>
      </trkpt>
      <trkpt lat="46.623988" lon="12.691481">
        <ele>1480.564</ele>
        <time>2018-09-10T05:43:41Z</time>
      </trkpt>
      <trkpt lat="46.623964" lon="12.691408">
        <ele>1481.062</ele>
        <time>2018-09-10T05:43:42Z</time>
      </trkpt>
      <trkpt lat="46.623914" lon="12.691279">
        <ele>1481.046</ele>
        <time>2018-09-10T05:43:44Z</time>
      </trkpt>
      <trkpt lat="46.623887" lon="12.691223">
        <ele>1481.588</ele>
        <time>2018-09-10T05:43:45Z</time>
      </trkpt>
      <trkpt lat="46.623854" lon="12.691169">
        <ele>1481.016</ele>
        <time>2018-09-10T05:43:46Z</time>
      </trkpt>
      <trkpt lat="46.623777" lon="12.691063">
        <ele>1481.008</ele>
        <time>2018-09-10T05:43:48Z</time>
      </trkpt>
      <trkpt lat="46.623744" lon="12.691006">
        <ele>1481.018</ele>
        <time>2018-09-10T05:43:49Z</time>
      </trkpt>
      <trkpt lat="46.623716" lon="12.690944">
        <ele>1481.070</ele>
        <time>2018-09-10T05:43:50Z</time>
      </trkpt>
      <trkpt lat="46.623667" lon="12.690819">
        <ele>1481.028</ele>
        <time>2018-09-10T05:43:52Z</time>
      </trkpt>
      <trkpt lat="46.623638" lon="12.690762">
        <ele>1481.043</ele>
        <time>2018-09-10T05:43:53Z</time>
      </trkpt>
      <trkpt lat="46.623461" lon="12.690410">
        <ele>1480.561</ele>
        <time>2018-09-10T05:43:59Z</time>
      </trkpt>
      <trkpt lat="46.623337" lon="12.690217">
        <ele>1480.071</ele>
        <time>2018-09-10T05:44:03Z</time>
      </trkpt>
      <trkpt lat="46.623030" lon="12.689814">
        <ele>1471.466</ele>
        <time>2018-09-10T05:44:15Z</time>
      </trkpt>
      <trkpt lat="46.623052" lon="12.689762">
        <ele>1470.474</ele>
        <time>2018-09-10T05:44:17Z</time>
      </trkpt>
      <trkpt lat="46.623078" lon="12.689757">
        <ele>1469.914</ele>
        <time>2018-09-10T05:44:18Z</time>
      </trkpt>
      <trkpt lat="46.623102" lon="12.689761">
        <ele>1469.554</ele>
        <time>2018-09-10T05:44:19Z</time>
      </trkpt>
      <trkpt lat="46.623131" lon="12.689772">
        <ele>1468.509</ele>
        <time>2018-09-10T05:44:20Z</time>
      </trkpt>
      <trkpt lat="46.623547" lon="12.689939">
        <ele>1463.208</ele>
        <time>2018-09-10T05:44:31Z</time>
      </trkpt>
      <trkpt lat="46.623591" lon="12.689957">
        <ele>1463.275</ele>
        <time>2018-09-10T05:44:32Z</time>
      </trkpt>
      <trkpt lat="46.623634" lon="12.689978">
        <ele>1463.297</ele>
        <time>2018-09-10T05:44:33Z</time>
      </trkpt>
      <trkpt lat="46.623717" lon="12.690016">
        <ele>1462.775</ele>
        <time>2018-09-10T05:44:35Z</time>
      </trkpt>
      <trkpt lat="46.623765" lon="12.690017">
        <ele>1462.750</ele>
        <time>2018-09-10T05:44:36Z</time>
      </trkpt>
      <trkpt lat="46.623805" lon="12.690000">
        <ele>1462.398</ele>
        <time>2018-09-10T05:44:37Z</time>
      </trkpt>
      <trkpt lat="46.623841" lon="12.689971">
        <ele>1462.318</ele>
        <time>2018-09-10T05:44:38Z</time>
      </trkpt>
      <trkpt lat="46.623868" lon="12.689934">
        <ele>1462.333</ele>
        <time>2018-09-10T05:44:39Z</time>
      </trkpt>
      <trkpt lat="46.623884" lon="12.689893">
        <ele>1462.331</ele>
        <time>2018-09-10T05:44:40Z</time>
      </trkpt>
      <trkpt lat="46.623890" lon="12.689858">
        <ele>1461.896</ele>
        <time>2018-09-10T05:44:41Z</time>
      </trkpt>
      <trkpt lat="46.623888" lon="12.689830">
        <ele>1461.831</ele>
        <time>2018-09-10T05:44:42Z</time>
      </trkpt>
      <trkpt lat="46.623883" lon="12.689810">
        <ele>1461.824</ele>
        <time>2018-09-10T05:44:43Z</time>
      </trkpt>
      <trkpt lat="46.623673" lon="12.689449">
        <ele>1461.308</ele>
        <time>2018-09-10T05:44:54Z</time>
      </trkpt>
      <trkpt lat="46.623500" lon="12.689186">
        <ele>1461.363</ele>
        <time>2018-09-10T05:44:59Z</time>
      </trkpt>
      <trkpt lat="46.623369" lon="12.689040">
        <ele>1461.355</ele>
        <time>2018-09-10T05:45:02Z</time>
      </trkpt>
      <trkpt lat="46.623188" lon="12.688872">
        <ele>1460.883</ele>
        <time>2018-09-10T05:45:06Z</time>
      </trkpt>
      <trkpt lat="46.623144" lon="12.688807">
        <ele>1460.898</ele>
        <time>2018-09-10T05:45:07Z</time>
      </trkpt>
      <trkpt lat="46.623113" lon="12.688746">
        <ele>1460.356</ele>
        <time>2018-09-10T05:45:08Z</time>
      </trkpt>
      <trkpt lat="46.623083" lon="12.688670">
        <ele>1460.366</ele>
        <time>2018-09-10T05:45:09Z</time>
      </trkpt>
      <trkpt lat="46.623055" lon="12.688589">
        <ele>1459.911</ele>
        <time>2018-09-10T05:45:10Z</time>
      </trkpt>
      <trkpt lat="46.623034" lon="12.688505">
        <ele>1459.939</ele>
        <time>2018-09-10T05:45:11Z</time>
      </trkpt>
      <trkpt lat="46.623019" lon="12.688425">
        <ele>1459.972</ele>
        <time>2018-09-10T05:45:12Z</time>
      </trkpt>
      <trkpt lat="46.623007" lon="12.688352">
        <ele>1459.913</ele>
        <time>2018-09-10T05:45:13Z</time>
      </trkpt>
      <trkpt lat="46.622995" lon="12.688291">
        <ele>1459.914</ele>
        <time>2018-09-10T05:45:14Z</time>
      </trkpt>
      <trkpt lat="46.622979" lon="12.688244">
        <ele>1459.908</ele>
        <time>2018-09-10T05:45:15Z</time>
      </trkpt>
      <trkpt lat="46.622952" lon="12.688202">
        <ele>1459.991</ele>
        <time>2018-09-10T05:45:16Z</time>
      </trkpt>
      <trkpt lat="46.622919" lon="12.688158">
        <ele>1459.983</ele>
        <time>2018-09-10T05:45:17Z</time>
      </trkpt>
      <trkpt lat="46.622877" lon="12.688116">
        <ele>1459.481</ele>
        <time>2018-09-10T05:45:18Z</time>
      </trkpt>
      <trkpt lat="46.622831" lon="12.688069">
        <ele>1459.466</ele>
        <time>2018-09-10T05:45:19Z</time>
      </trkpt>
      <trkpt lat="46.622783" lon="12.688015">
        <ele>1459.494</ele>
        <time>2018-09-10T05:45:20Z</time>
      </trkpt>
      <trkpt lat="46.622739" lon="12.687955">
        <ele>1459.424</ele>
        <time>2018-09-10T05:45:21Z</time>
      </trkpt>
      <trkpt lat="46.622699" lon="12.687899">
        <ele>1459.449</ele>
        <time>2018-09-10T05:45:22Z</time>
      </trkpt>
      <trkpt lat="46.622664" lon="12.687846">
        <ele>1459.467</ele>
        <time>2018-09-10T05:45:23Z</time>
      </trkpt>
      <trkpt lat="46.622635" lon="12.687785">
        <ele>1459.484</ele>
        <time>2018-09-10T05:45:24Z</time>
      </trkpt>
      <trkpt lat="46.622613" lon="12.687715">
        <ele>1458.907</ele>
        <time>2018-09-10T05:45:25Z</time>
      </trkpt>
      <trkpt lat="46.622596" lon="12.687636">
        <ele>1458.917</ele>
        <time>2018-09-10T05:45:26Z</time>
      </trkpt>
      <trkpt lat="46.622566" lon="12.687476">
        <ele>1458.908</ele>
        <time>2018-09-10T05:45:28Z</time>
      </trkpt>
      <trkpt lat="46.622462" lon="12.687041">
        <ele>1458.982</ele>
        <time>2018-09-10T05:45:33Z</time>
      </trkpt>
      <trkpt lat="46.622426" lon="12.686961">
        <ele>1458.424</ele>
        <time>2018-09-10T05:45:34Z</time>
      </trkpt>
      <trkpt lat="46.622062" lon="12.686340">
        <ele>1456.032</ele>
        <time>2018-09-10T05:45:42Z</time>
      </trkpt>
      <trkpt lat="46.622036" lon="12.686252">
        <ele>1455.067</ele>
        <time>2018-09-10T05:45:43Z</time>
      </trkpt>
      <trkpt lat="46.622015" lon="12.686157">
        <ele>1455.075</ele>
        <time>2018-09-10T05:45:44Z</time>
      </trkpt>
      <trkpt lat="46.622002" lon="12.686052">
        <ele>1454.615</ele>
        <time>2018-09-10T05:45:45Z</time>
      </trkpt>
      <trkpt lat="46.621995" lon="12.685947">
        <ele>1454.180</ele>
        <time>2018-09-10T05:45:46Z</time>
      </trkpt>
      <trkpt lat="46.621992" lon="12.685848">
        <ele>1453.128</ele>
        <time>2018-09-10T05:45:47Z</time>
      </trkpt>
      <trkpt lat="46.621996" lon="12.685759">
        <ele>1452.658</ele>
        <time>2018-09-10T05:45:48Z</time>
      </trkpt>
      <trkpt lat="46.622004" lon="12.685587">
        <ele>1452.252</ele>
        <time>2018-09-10T05:45:50Z</time>
      </trkpt>
      <trkpt lat="46.622013" lon="12.685504">
        <ele>1451.717</ele>
        <time>2018-09-10T05:45:51Z</time>
      </trkpt>
      <trkpt lat="46.622020" lon="12.685419">
        <ele>1451.708</ele>
        <time>2018-09-10T05:45:52Z</time>
      </trkpt>
      <trkpt lat="46.622020" lon="12.685331">
        <ele>1451.239</ele>
        <time>2018-09-10T05:45:53Z</time>
      </trkpt>
      <trkpt lat="46.622015" lon="12.685238">
        <ele>1450.741</ele>
        <time>2018-09-10T05:45:54Z</time>
      </trkpt>
      <trkpt lat="46.622009" lon="12.685146">
        <ele>1449.879</ele>
        <time>2018-09-10T05:45:55Z</time>
      </trkpt>
      <trkpt lat="46.621991" lon="12.684954">
        <ele>1448.324</ele>
        <time>2018-09-10T05:45:57Z</time>
      </trkpt>
      <trkpt lat="46.621973" lon="12.684862">
        <ele>1447.852</ele>
        <time>2018-09-10T05:45:58Z</time>
      </trkpt>
      <trkpt lat="46.621832" lon="12.684155">
        <ele>1445.082</ele>
        <time>2018-09-10T05:46:06Z</time>
      </trkpt>
      <trkpt lat="46.621810" lon="12.684070">
        <ele>1444.577</ele>
        <time>2018-09-10T05:46:07Z</time>
      </trkpt>
      <trkpt lat="46.621763" lon="12.683794">
        <ele>1443.075</ele>
        <time>2018-09-10T05:46:10Z</time>
      </trkpt>
      <trkpt lat="46.621759" lon="12.683698">
        <ele>1442.176</ele>
        <time>2018-09-10T05:46:11Z</time>
      </trkpt>
      <trkpt lat="46.621753" lon="12.683603">
        <ele>1441.690</ele>
        <time>2018-09-10T05:46:12Z</time>
      </trkpt>
      <trkpt lat="46.621747" lon="12.683506">
        <ele>1441.119</ele>
        <time>2018-09-10T05:46:13Z</time>
      </trkpt>
      <trkpt lat="46.621744" lon="12.683417">
        <ele>1440.608</ele>
        <time>2018-09-10T05:46:14Z</time>
      </trkpt>
      <trkpt lat="46.621711" lon="12.683081">
        <ele>1438.721</ele>
        <time>2018-09-10T05:46:18Z</time>
      </trkpt>
      <trkpt lat="46.621691" lon="12.683007">
        <ele>1438.223</ele>
        <time>2018-09-10T05:46:19Z</time>
      </trkpt>
      <trkpt lat="46.621649" lon="12.682850">
        <ele>1437.371</ele>
        <time>2018-09-10T05:46:21Z</time>
      </trkpt>
      <trkpt lat="46.621591" lon="12.682512">
        <ele>1437.376</ele>
        <time>2018-09-10T05:46:25Z</time>
      </trkpt>
      <trkpt lat="46.621590" lon="12.682417">
        <ele>1437.354</ele>
        <time>2018-09-10T05:46:26Z</time>
      </trkpt>
      <trkpt lat="46.621591" lon="12.682326">
        <ele>1436.844</ele>
        <time>2018-09-10T05:46:27Z</time>
      </trkpt>
      <trkpt lat="46.621594" lon="12.682243">
        <ele>1436.859</ele>
        <time>2018-09-10T05:46:28Z</time>
      </trkpt>
      <trkpt lat="46.621613" lon="12.682167">
        <ele>1436.827</ele>
        <time>2018-09-10T05:46:29Z</time>
      </trkpt>
      <trkpt lat="46.621639" lon="12.682096">
        <ele>1436.885</ele>
        <time>2018-09-10T05:46:30Z</time>
      </trkpt>
      <trkpt lat="46.621785" lon="12.681667">
        <ele>1434.989</ele>
        <time>2018-09-10T05:46:36Z</time>
      </trkpt>
      <trkpt lat="46.621840" lon="12.681485">
        <ele>1432.917</ele>
        <time>2018-09-10T05:46:39Z</time>
      </trkpt>
      <trkpt lat="46.621859" lon="12.681407">
        <ele>1431.508</ele>
        <time>2018-09-10T05:46:40Z</time>
      </trkpt>
      <trkpt lat="46.622074" lon="12.680318">
        <ele>1425.232</ele>
        <time>2018-09-10T05:46:53Z</time>
      </trkpt>
      <trkpt lat="46.622108" lon="12.680178">
        <ele>1424.334</ele>
        <time>2018-09-10T05:46:55Z</time>
      </trkpt>
      <trkpt lat="46.622125" lon="12.680102">
        <ele>1423.372</ele>
        <time>2018-09-10T05:46:56Z</time>
      </trkpt>
      <trkpt lat="46.622146" lon="12.680023">
        <ele>1422.467</ele>
        <time>2018-09-10T05:46:57Z</time>
      </trkpt>
      <trkpt lat="46.622508" lon="12.678718">
        <ele>1402.755</ele>
        <time>2018-09-10T05:47:11Z</time>
      </trkpt>
      <trkpt lat="46.622591" lon="12.678577">
        <ele>1401.275</ele>
        <time>2018-09-10T05:47:13Z</time>
      </trkpt>
      <trkpt lat="46.622670" lon="12.678458">
        <ele>1400.370</ele>
        <time>2018-09-10T05:47:15Z</time>
      </trkpt>
      <trkpt lat="46.622701" lon="12.678395">
        <ele>1399.898</ele>
        <time>2018-09-10T05:47:16Z</time>
      </trkpt>
      <trkpt lat="46.622719" lon="12.678321">
        <ele>1399.369</ele>
        <time>2018-09-10T05:47:17Z</time>
      </trkpt>
      <trkpt lat="46.622727" lon="12.678235">
        <ele>1398.304</ele>
        <time>2018-09-10T05:47:18Z</time>
      </trkpt>
      <trkpt lat="46.622725" lon="12.678155">
        <ele>1397.824</ele>
        <time>2018-09-10T05:47:19Z</time>
      </trkpt>
      <trkpt lat="46.622719" lon="12.678073">
        <ele>1396.908</ele>
        <time>2018-09-10T05:47:20Z</time>
      </trkpt>
      <trkpt lat="46.622740" lon="12.677295">
        <ele>1392.640</ele>
        <time>2018-09-10T05:47:29Z</time>
      </trkpt>
      <trkpt lat="46.622762" lon="12.677012">
        <ele>1391.192</ele>
        <time>2018-09-10T05:47:32Z</time>
      </trkpt>
      <trkpt lat="46.622786" lon="12.676918">
        <ele>1390.680</ele>
        <time>2018-09-10T05:47:33Z</time>
      </trkpt>
      <trkpt lat="46.622820" lon="12.676824">
        <ele>1389.795</ele>
        <time>2018-09-10T05:47:34Z</time>
      </trkpt>
      <trkpt lat="46.622855" lon="12.676743">
        <ele>1389.253</ele>
        <time>2018-09-10T05:47:35Z</time>
      </trkpt>
      <trkpt lat="46.622891" lon="12.676660">
        <ele>1388.243</ele>
        <time>2018-09-10T05:47:36Z</time>
      </trkpt>
      <trkpt lat="46.623387" lon="12.675771">
        <ele>1381.598</ele>
        <time>2018-09-10T05:47:48Z</time>
      </trkpt>
      <trkpt lat="46.623521" lon="12.675559">
        <ele>1380.186</ele>
        <time>2018-09-10T05:47:51Z</time>
      </trkpt>
      <trkpt lat="46.623566" lon="12.675485">
        <ele>1379.664</ele>
        <time>2018-09-10T05:47:52Z</time>
      </trkpt>
      <trkpt lat="46.623615" lon="12.675419">
        <ele>1379.106</ele>
        <time>2018-09-10T05:47:53Z</time>
      </trkpt>
      <trkpt lat="46.623670" lon="12.675358">
        <ele>1379.116</ele>
        <time>2018-09-10T05:47:54Z</time>
      </trkpt>
      <trkpt lat="46.623722" lon="12.675306">
        <ele>1378.608</ele>
        <time>2018-09-10T05:47:55Z</time>
      </trkpt>
      <trkpt lat="46.623777" lon="12.675259">
        <ele>1378.620</ele>
        <time>2018-09-10T05:47:56Z</time>
      </trkpt>
      <trkpt lat="46.623827" lon="12.675205">
        <ele>1377.782</ele>
        <time>2018-09-10T05:47:57Z</time>
      </trkpt>
      <trkpt lat="46.623873" lon="12.675139">
        <ele>1376.740</ele>
        <time>2018-09-10T05:47:58Z</time>
      </trkpt>
      <trkpt lat="46.623957" lon="12.674990">
        <ele>1374.875</ele>
        <time>2018-09-10T05:48:00Z</time>
      </trkpt>
      <trkpt lat="46.623992" lon="12.674914">
        <ele>1373.323</ele>
        <time>2018-09-10T05:48:01Z</time>
      </trkpt>
      <trkpt lat="46.624242" lon="12.674475">
        <ele>1366.163</ele>
        <time>2018-09-10T05:48:10Z</time>
      </trkpt>
      <trkpt lat="46.624423" lon="12.674159">
        <ele>1368.098</ele>
        <time>2018-09-10T05:48:25Z</time>
      </trkpt>
      <trkpt lat="46.624548" lon="12.673816">
        <ele>1370.576</ele>
        <time>2018-09-10T05:48:38Z</time>
      </trkpt>
      <trkpt lat="46.624543" lon="12.673075">
        <ele>1369.583</ele>
        <time>2018-09-10T05:48:51Z</time>
      </trkpt>
      <trkpt lat="46.624484" lon="12.672220">
        <ele>1366.625</ele>
        <time>2018-09-10T05:49:03Z</time>
      </trkpt>
      <trkpt lat="46.624458" lon="12.671171">
        <ele>1363.217</ele>
        <time>2018-09-10T05:49:16Z</time>
      </trkpt>
      <trkpt lat="46.624459" lon="12.670941">
        <ele>1362.308</ele>
        <time>2018-09-10T05:49:19Z</time>
      </trkpt>
      <trkpt lat="46.624463" lon="12.670868">
        <ele>1361.832</ele>
        <time>2018-09-10T05:49:20Z</time>
      </trkpt>
      <trkpt lat="46.624462" lon="12.670795">
        <ele>1361.844</ele>
        <time>2018-09-10T05:49:21Z</time>
      </trkpt>
      <trkpt lat="46.624448" lon="12.670568">
        <ele>1361.382</ele>
        <time>2018-09-10T05:49:24Z</time>
      </trkpt>
      <trkpt lat="46.624205" lon="12.669607">
        <ele>1361.367</ele>
        <time>2018-09-10T05:49:35Z</time>
      </trkpt>
      <trkpt lat="46.624069" lon="12.669051">
        <ele>1360.495</ele>
        <time>2018-09-10T05:49:42Z</time>
      </trkpt>
      <trkpt lat="46.624037" lon="12.668988">
        <ele>1360.815</ele>
        <time>2018-09-10T05:49:43Z</time>
      </trkpt>
      <trkpt lat="46.624000" lon="12.668928">
        <ele>1361.380</ele>
        <time>2018-09-10T05:49:44Z</time>
      </trkpt>
      <trkpt lat="46.623958" lon="12.668875">
        <ele>1361.838</ele>
        <time>2018-09-10T05:49:45Z</time>
      </trkpt>
      <trkpt lat="46.623910" lon="12.668830">
        <ele>1361.831</ele>
        <time>2018-09-10T05:49:46Z</time>
      </trkpt>
      <trkpt lat="46.623699" lon="12.668652">
        <ele>1361.861</ele>
        <time>2018-09-10T05:49:50Z</time>
      </trkpt>
      <trkpt lat="46.623642" lon="12.668612">
        <ele>1362.307</ele>
        <time>2018-09-10T05:49:51Z</time>
      </trkpt>
      <trkpt lat="46.623538" lon="12.668528">
        <ele>1363.208</ele>
        <time>2018-09-10T05:49:53Z</time>
      </trkpt>
      <trkpt lat="46.623487" lon="12.668475">
        <ele>1363.237</ele>
        <time>2018-09-10T05:49:54Z</time>
      </trkpt>
      <trkpt lat="46.623445" lon="12.668420">
        <ele>1363.289</ele>
        <time>2018-09-10T05:49:55Z</time>
      </trkpt>
      <trkpt lat="46.623410" lon="12.668357">
        <ele>1363.797</ele>
        <time>2018-09-10T05:49:56Z</time>
      </trkpt>
      <trkpt lat="46.623372" lon="12.668284">
        <ele>1363.762</ele>
        <time>2018-09-10T05:49:57Z</time>
      </trkpt>
      <trkpt lat="46.623183" lon="12.667957">
        <ele>1365.230</ele>
        <time>2018-09-10T05:50:01Z</time>
      </trkpt>
      <trkpt lat="46.622714" lon="12.667040">
        <ele>1363.270</ele>
        <time>2018-09-10T05:50:12Z</time>
      </trkpt>
      <trkpt lat="46.622674" lon="12.666960">
        <ele>1363.255</ele>
        <time>2018-09-10T05:50:13Z</time>
      </trkpt>
      <trkpt lat="46.622631" lon="12.666876">
        <ele>1362.833</ele>
        <time>2018-09-10T05:50:14Z</time>
      </trkpt>
      <trkpt lat="46.622437" lon="12.666440">
        <ele>1361.394</ele>
        <time>2018-09-10T05:50:19Z</time>
      </trkpt>
      <trkpt lat="46.622383" lon="12.666235">
        <ele>1361.357</ele>
        <time>2018-09-10T05:50:21Z</time>
      </trkpt>
      <trkpt lat="46.622362" lon="12.666129">
        <ele>1360.822</ele>
        <time>2018-09-10T05:50:22Z</time>
      </trkpt>
      <trkpt lat="46.622158" lon="12.664890">
        <ele>1350.308</ele>
        <time>2018-09-10T05:50:34Z</time>
      </trkpt>
      <trkpt lat="46.622035" lon="12.664409">
        <ele>1346.983</ele>
        <time>2018-09-10T05:50:39Z</time>
      </trkpt>
      <trkpt lat="46.622059" lon="12.663828">
        <ele>1345.985</ele>
        <time>2018-09-10T05:50:49Z</time>
      </trkpt>
      <trkpt lat="46.622315" lon="12.663207">
        <ele>1346.973</ele>
        <time>2018-09-10T05:51:04Z</time>
      </trkpt>
      <trkpt lat="46.622579" lon="12.663035">
        <ele>1350.748</ele>
        <time>2018-09-10T05:51:15Z</time>
      </trkpt>
      <trkpt lat="46.622815" lon="12.662723">
        <ele>1354.646</ele>
        <time>2018-09-10T05:51:27Z</time>
      </trkpt>
      <trkpt lat="46.623046" lon="12.662335">
        <ele>1351.776</ele>
        <time>2018-09-10T05:51:38Z</time>
      </trkpt>
      <trkpt lat="46.623266" lon="12.661788">
        <ele>1347.991</ele>
        <time>2018-09-10T05:51:49Z</time>
      </trkpt>
      <trkpt lat="46.623369" lon="12.661196">
        <ele>1347.469</ele>
        <time>2018-09-10T05:52:00Z</time>
      </trkpt>
      <trkpt lat="46.623476" lon="12.660512">
        <ele>1348.867</ele>
        <time>2018-09-10T05:52:11Z</time>
      </trkpt>
      <trkpt lat="46.623492" lon="12.660448">
        <ele>1348.881</ele>
        <time>2018-09-10T05:52:12Z</time>
      </trkpt>
      <trkpt lat="46.623576" lon="12.660040">
        <ele>1347.919</ele>
        <time>2018-09-10T05:52:18Z</time>
      </trkpt>
      <trkpt lat="46.623597" lon="12.659975">
        <ele>1347.908</ele>
        <time>2018-09-10T05:52:19Z</time>
      </trkpt>
      <trkpt lat="46.623621" lon="12.659911">
        <ele>1347.930</ele>
        <time>2018-09-10T05:52:20Z</time>
      </trkpt>
      <trkpt lat="46.623655" lon="12.659846">
        <ele>1347.452</ele>
        <time>2018-09-10T05:52:21Z</time>
      </trkpt>
      <trkpt lat="46.623689" lon="12.659787">
        <ele>1347.470</ele>
        <time>2018-09-10T05:52:22Z</time>
      </trkpt>
      <trkpt lat="46.623965" lon="12.659321">
        <ele>1346.455</ele>
        <time>2018-09-10T05:52:32Z</time>
      </trkpt>
      <trkpt lat="46.623976" lon="12.659211">
        <ele>1345.993</ele>
        <time>2018-09-10T05:52:34Z</time>
      </trkpt>
      <trkpt lat="46.623975" lon="12.659145">
        <ele>1345.523</ele>
        <time>2018-09-10T05:52:35Z</time>
      </trkpt>
      <trkpt lat="46.623971" lon="12.659076">
        <ele>1345.558</ele>
        <time>2018-09-10T05:52:36Z</time>
      </trkpt>
      <trkpt lat="46.623962" lon="12.659002">
        <ele>1345.086</ele>
        <time>2018-09-10T05:52:37Z</time>
      </trkpt>
      <trkpt lat="46.623951" lon="12.658927">
        <ele>1344.556</ele>
        <time>2018-09-10T05:52:38Z</time>
      </trkpt>
      <trkpt lat="46.623934" lon="12.658851">
        <ele>1344.559</ele>
        <time>2018-09-10T05:52:39Z</time>
      </trkpt>
      <trkpt lat="46.623913" lon="12.658771">
        <ele>1344.014</ele>
        <time>2018-09-10T05:52:40Z</time>
      </trkpt>
      <trkpt lat="46.623484" lon="12.657308">
        <ele>1338.708</ele>
        <time>2018-09-10T05:52:56Z</time>
      </trkpt>
      <trkpt lat="46.623192" lon="12.656347">
        <ele>1335.859</ele>
        <time>2018-09-10T05:53:07Z</time>
      </trkpt>
      <trkpt lat="46.622876" lon="12.655611">
        <ele>1335.471</ele>
        <time>2018-09-10T05:53:21Z</time>
      </trkpt>
      <trkpt lat="46.622749" lon="12.655243">
        <ele>1334.449</ele>
        <time>2018-09-10T05:53:28Z</time>
      </trkpt>
      <trkpt lat="46.622727" lon="12.655193">
        <ele>1334.484</ele>
        <time>2018-09-10T05:53:29Z</time>
      </trkpt>
      <trkpt lat="46.622328" lon="12.654361">
        <ele>1333.012</ele>
        <time>2018-09-10T05:53:46Z</time>
      </trkpt>
      <trkpt lat="46.621980" lon="12.653196">
        <ele>1333.952</ele>
        <time>2018-09-10T05:54:04Z</time>
      </trkpt>
      <trkpt lat="46.621803" lon="12.652428">
        <ele>1334.447</ele>
        <time>2018-09-10T05:54:14Z</time>
      </trkpt>
      <trkpt lat="46.621727" lon="12.652217">
        <ele>1334.435</ele>
        <time>2018-09-10T05:54:17Z</time>
      </trkpt>
      <trkpt lat="46.621698" lon="12.652153">
        <ele>1334.474</ele>
        <time>2018-09-10T05:54:18Z</time>
      </trkpt>
      <trkpt lat="46.621467" lon="12.651346">
        <ele>1333.956</ele>
        <time>2018-09-10T05:54:29Z</time>
      </trkpt>
      <trkpt lat="46.621454" lon="12.651270">
        <ele>1333.921</ele>
        <time>2018-09-10T05:54:30Z</time>
      </trkpt>
      <trkpt lat="46.621446" lon="12.651190">
        <ele>1333.908</ele>
        <time>2018-09-10T05:54:31Z</time>
      </trkpt>
      <trkpt lat="46.621416" lon="12.650698">
        <ele>1332.571</ele>
        <time>2018-09-10T05:54:37Z</time>
      </trkpt>
      <trkpt lat="46.621409" lon="12.650616">
        <ele>1332.513</ele>
        <time>2018-09-10T05:54:38Z</time>
      </trkpt>
      <trkpt lat="46.621349" lon="12.650016">
        <ele>1329.621</ele>
        <time>2018-09-10T05:54:45Z</time>
      </trkpt>
      <trkpt lat="46.621223" lon="12.649482">
        <ele>1328.246</ele>
        <time>2018-09-10T05:54:51Z</time>
      </trkpt>
      <trkpt lat="46.621197" lon="12.649392">
        <ele>1328.274</ele>
        <time>2018-09-10T05:54:52Z</time>
      </trkpt>
      <trkpt lat="46.620945" lon="12.648201">
        <ele>1325.884</ele>
        <time>2018-09-10T05:55:04Z</time>
      </trkpt>
      <trkpt lat="46.620809" lon="12.647671">
        <ele>1323.369</ele>
        <time>2018-09-10T05:55:09Z</time>
      </trkpt>
      <trkpt lat="46.620754" lon="12.647572">
        <ele>1322.917</ele>
        <time>2018-09-10T05:55:10Z</time>
      </trkpt>
      <trkpt lat="46.620691" lon="12.647479">
        <ele>1322.414</ele>
        <time>2018-09-10T05:55:11Z</time>
      </trkpt>
      <trkpt lat="46.619999" lon="12.646507">
        <ele>1316.154</ele>
        <time>2018-09-10T05:55:21Z</time>
      </trkpt>
      <trkpt lat="46.619947" lon="12.646393">
        <ele>1315.709</ele>
        <time>2018-09-10T05:55:22Z</time>
      </trkpt>
      <trkpt lat="46.619903" lon="12.646274">
        <ele>1315.208</ele>
        <time>2018-09-10T05:55:23Z</time>
      </trkpt>
      <trkpt lat="46.619866" lon="12.646149">
        <ele>1314.735</ele>
        <time>2018-09-10T05:55:24Z</time>
      </trkpt>
      <trkpt lat="46.619844" lon="12.646013">
        <ele>1314.257</ele>
        <time>2018-09-10T05:55:25Z</time>
      </trkpt>
      <trkpt lat="46.619832" lon="12.645871">
        <ele>1313.345</ele>
        <time>2018-09-10T05:55:26Z</time>
      </trkpt>
      <trkpt lat="46.619826" lon="12.645723">
        <ele>1312.380</ele>
        <time>2018-09-10T05:55:27Z</time>
      </trkpt>
      <trkpt lat="46.619809" lon="12.645569">
        <ele>1311.348</ele>
        <time>2018-09-10T05:55:28Z</time>
      </trkpt>
      <trkpt lat="46.619781" lon="12.645427">
        <ele>1310.918</ele>
        <time>2018-09-10T05:55:29Z</time>
      </trkpt>
      <trkpt lat="46.619564" lon="12.644751">
        <ele>1309.993</ele>
        <time>2018-09-10T05:55:35Z</time>
      </trkpt>
      <trkpt lat="46.619543" lon="12.644647">
        <ele>1309.941</ele>
        <time>2018-09-10T05:55:36Z</time>
      </trkpt>
      <trkpt lat="46.619529" lon="12.644537">
        <ele>1309.958</ele>
        <time>2018-09-10T05:55:37Z</time>
      </trkpt>
      <trkpt lat="46.619525" lon="12.644413">
        <ele>1309.952</ele>
        <time>2018-09-10T05:55:38Z</time>
      </trkpt>
      <trkpt lat="46.619538" lon="12.644300">
        <ele>1309.917</ele>
        <time>2018-09-10T05:55:39Z</time>
      </trkpt>
      <trkpt lat="46.619564" lon="12.644186">
        <ele>1309.408</ele>
        <time>2018-09-10T05:55:40Z</time>
      </trkpt>
      <trkpt lat="46.619601" lon="12.644072">
        <ele>1308.939</ele>
        <time>2018-09-10T05:55:41Z</time>
      </trkpt>
      <trkpt lat="46.619640" lon="12.643962">
        <ele>1308.441</ele>
        <time>2018-09-10T05:55:42Z</time>
      </trkpt>
      <trkpt lat="46.619791" lon="12.643503">
        <ele>1306.529</ele>
        <time>2018-09-10T05:55:46Z</time>
      </trkpt>
      <trkpt lat="46.619819" lon="12.643386">
        <ele>1306.074</ele>
        <time>2018-09-10T05:55:47Z</time>
      </trkpt>
      <trkpt lat="46.619840" lon="12.643264">
        <ele>1305.642</ele>
        <time>2018-09-10T05:55:48Z</time>
      </trkpt>
      <trkpt lat="46.619852" lon="12.643143">
        <ele>1305.122</ele>
        <time>2018-09-10T05:55:49Z</time>
      </trkpt>
      <trkpt lat="46.619851" lon="12.643023">
        <ele>1304.657</ele>
        <time>2018-09-10T05:55:50Z</time>
      </trkpt>
      <trkpt lat="46.619838" lon="12.642904">
        <ele>1304.195</ele>
        <time>2018-09-10T05:55:51Z</time>
      </trkpt>
      <trkpt lat="46.619815" lon="12.642790">
        <ele>1304.139</ele>
        <time>2018-09-10T05:55:52Z</time>
      </trkpt>
      <trkpt lat="46.619788" lon="12.642684">
        <ele>1304.101</ele>
        <time>2018-09-10T05:55:53Z</time>
      </trkpt>
      <trkpt lat="46.619663" lon="12.642259">
        <ele>1303.621</ele>
        <time>2018-09-10T05:55:57Z</time>
      </trkpt>
      <trkpt lat="46.619486" lon="12.641781">
        <ele>1302.708</ele>
        <time>2018-09-10T05:56:02Z</time>
      </trkpt>
      <trkpt lat="46.619199" lon="12.640478">
        <ele>1296.997</ele>
        <time>2018-09-10T05:56:15Z</time>
      </trkpt>
      <trkpt lat="46.619068" lon="12.640006">
        <ele>1295.059</ele>
        <time>2018-09-10T05:56:20Z</time>
      </trkpt>
      <trkpt lat="46.618397" lon="12.638861">
        <ele>1291.657</ele>
        <time>2018-09-10T05:56:35Z</time>
      </trkpt>
      <trkpt lat="46.618084" lon="12.638148">
        <ele>1292.672</ele>
        <time>2018-09-10T05:56:43Z</time>
      </trkpt>
      <trkpt lat="46.618050" lon="12.638055">
        <ele>1292.670</ele>
        <time>2018-09-10T05:56:44Z</time>
      </trkpt>
      <trkpt lat="46.618015" lon="12.637962">
        <ele>1292.660</ele>
        <time>2018-09-10T05:56:45Z</time>
      </trkpt>
      <trkpt lat="46.617451" lon="12.636686">
        <ele>1290.255</ele>
        <time>2018-09-10T05:57:00Z</time>
      </trkpt>
      <trkpt lat="46.616627" lon="12.635476">
        <ele>1282.013</ele>
        <time>2018-09-10T05:57:17Z</time>
      </trkpt>
      <trkpt lat="46.615794" lon="12.634710">
        <ele>1276.218</ele>
        <time>2018-09-10T05:57:32Z</time>
      </trkpt>
      <trkpt lat="46.615570" lon="12.634454">
        <ele>1274.898</ele>
        <time>2018-09-10T05:57:37Z</time>
      </trkpt>
      <trkpt lat="46.615481" lon="12.634347">
        <ele>1274.317</ele>
        <time>2018-09-10T05:57:39Z</time>
      </trkpt>
      <trkpt lat="46.615384" lon="12.634250">
        <ele>1274.308</ele>
        <time>2018-09-10T05:57:41Z</time>
      </trkpt>
      <trkpt lat="46.614671" lon="12.633855">
        <ele>1276.255</ele>
        <time>2018-09-10T05:57:55Z</time>
      </trkpt>
      <trkpt lat="46.614355" lon="12.633768">
        <ele>1273.847</ele>
        <time>2018-09-10T05:58:02Z</time>
      </trkpt>
      <trkpt lat="46.614218" lon="12.633741">
        <ele>1272.965</ele>
        <time>2018-09-10T05:58:05Z</time>
      </trkpt>
      <trkpt lat="46.614174" lon="12.633729">
        <ele>1272.920</ele>
        <time>2018-09-10T05:58:06Z</time>
      </trkpt>
      <trkpt lat="46.614055" lon="12.633662">
        <ele>1271.958</ele>
        <time>2018-09-10T05:58:09Z</time>
      </trkpt>
      <trkpt lat="46.614027" lon="12.633614">
        <ele>1271.418</ele>
        <time>2018-09-10T05:58:10Z</time>
      </trkpt>
      <trkpt lat="46.614020" lon="12.633552">
        <ele>1271.443</ele>
        <time>2018-09-10T05:58:11Z</time>
      </trkpt>
      <trkpt lat="46.614038" lon="12.633494">
        <ele>1271.961</ele>
        <time>2018-09-10T05:58:12Z</time>
      </trkpt>
      <trkpt lat="46.614064" lon="12.633465">
        <ele>1271.963</ele>
        <time>2018-09-10T05:58:13Z</time>
      </trkpt>
      <trkpt lat="46.614094" lon="12.633446">
        <ele>1272.444</ele>
        <time>2018-09-10T05:58:14Z</time>
      </trkpt>
      <trkpt lat="46.614123" lon="12.633440">
        <ele>1272.418</ele>
        <time>2018-09-10T05:58:15Z</time>
      </trkpt>
      <trkpt lat="46.614153" lon="12.633436">
        <ele>1272.908</ele>
        <time>2018-09-10T05:58:16Z</time>
      </trkpt>
      <trkpt lat="46.614182" lon="12.633426">
        <ele>1272.940</ele>
        <time>2018-09-10T05:58:17Z</time>
      </trkpt>
      <trkpt lat="46.614213" lon="12.633409">
        <ele>1273.422</ele>
        <time>2018-09-10T05:58:18Z</time>
      </trkpt>
      <trkpt lat="46.614243" lon="12.633387">
        <ele>1273.870</ele>
        <time>2018-09-10T05:58:19Z</time>
      </trkpt>
      <trkpt lat="46.614272" lon="12.633360">
        <ele>1273.825</ele>
        <time>2018-09-10T05:58:20Z</time>
      </trkpt>
      <trkpt lat="46.614624" lon="12.632929">
        <ele>1274.843</ele>
        <time>2018-09-10T05:58:34Z</time>
      </trkpt>
      <trkpt lat="46.614907" lon="12.632509">
        <ele>1275.883</ele>
        <time>2018-09-10T05:58:49Z</time>
      </trkpt>
      <trkpt lat="46.615302" lon="12.631967">
        <ele>1275.358</ele>
        <time>2018-09-10T05:59:09Z</time>
      </trkpt>
      <trkpt lat="46.615540" lon="12.631646">
        <ele>1276.796</ele>
        <time>2018-09-10T05:59:25Z</time>
      </trkpt>
      <trkpt lat="46.615547" lon="12.631673">
        <ele>1276.716</ele>
        <time>2018-09-10T05:59:48Z</time>
      </trkpt>
      <trkpt lat="46.615619" lon="12.631565">
        <ele>1275.876</ele>
        <time>2018-09-10T06:00:02Z</time>
      </trkpt>
      <trkpt lat="46.615756" lon="12.631390">
        <ele>1277.713</ele>
        <time>2018-09-10T06:00:14Z</time>
      </trkpt>
      <trkpt lat="46.615768" lon="12.631374">
        <ele>1277.708</ele>
        <time>2018-09-10T06:00:15Z</time>
      </trkpt>
      <trkpt lat="46.615780" lon="12.631359">
        <ele>1277.795</ele>
        <time>2018-09-10T06:00:16Z</time>
      </trkpt>
      <trkpt lat="46.615869" lon="12.631277">
        <ele>1279.687</ele>
        <time>2018-09-10T06:00:23Z</time>
      </trkpt>
      <trkpt lat="46.615880" lon="12.631272">
        <ele>1279.695</ele>
        <time>2018-09-10T06:00:24Z</time>
      </trkpt>
      <trkpt lat="46.616114" lon="12.631313">
        <ele>1283.960</ele>
        <time>2018-09-10T06:00:42Z</time>
      </trkpt>
      <trkpt lat="46.616343" lon="12.631369">
        <ele>1285.438</ele>
        <time>2018-09-10T06:00:59Z</time>
      </trkpt>
      <trkpt lat="46.616600" lon="12.631275">
        <ele>1286.848</ele>
        <time>2018-09-10T06:01:18Z</time>
      </trkpt>
      <trkpt lat="46.616676" lon="12.631253">
        <ele>1286.883</ele>
        <time>2018-09-10T06:01:24Z</time>
      </trkpt>
      <trkpt lat="46.616690" lon="12.631251">
        <ele>1287.341</ele>
        <time>2018-09-10T06:01:25Z</time>
      </trkpt>
      <trkpt lat="46.616706" lon="12.631247">
        <ele>1287.327</ele>
        <time>2018-09-10T06:01:26Z</time>
      </trkpt>
      <trkpt lat="46.616719" lon="12.631240">
        <ele>1286.868</ele>
        <time>2018-09-10T06:01:27Z</time>
      </trkpt>
      <trkpt lat="46.616731" lon="12.631233">
        <ele>1286.814</ele>
        <time>2018-09-10T06:01:28Z</time>
      </trkpt>
      <trkpt lat="46.616745" lon="12.631228">
        <ele>1286.808</ele>
        <time>2018-09-10T06:01:29Z</time>
      </trkpt>
      <trkpt lat="46.616759" lon="12.631226">
        <ele>1286.856</ele>
        <time>2018-09-10T06:01:30Z</time>
      </trkpt>
      <trkpt lat="46.616774" lon="12.631222">
        <ele>1286.838</ele>
        <time>2018-09-10T06:01:31Z</time>
      </trkpt>
      <trkpt lat="46.616844" lon="12.631196">
        <ele>1286.386</ele>
        <time>2018-09-10T06:01:36Z</time>
      </trkpt>
      <trkpt lat="46.616889" lon="12.631191">
        <ele>1286.871</ele>
        <time>2018-09-10T06:01:39Z</time>
      </trkpt>
      <trkpt lat="46.617076" lon="12.631111">
        <ele>1286.829</ele>
        <time>2018-09-10T06:01:53Z</time>
      </trkpt>
      <trkpt lat="46.617249" lon="12.631020">
        <ele>1288.729</ele>
        <time>2018-09-10T06:02:06Z</time>
      </trkpt>
      <trkpt lat="46.617453" lon="12.630803">
        <ele>1289.784</ele>
        <time>2018-09-10T06:02:23Z</time>
      </trkpt>
      <trkpt lat="46.617629" lon="12.630555">
        <ele>1291.672</ele>
        <time>2018-09-10T06:02:39Z</time>
      </trkpt>
      <trkpt lat="46.617743" lon="12.630390">
        <ele>1291.675</ele>
        <time>2018-09-10T06:02:56Z</time>
      </trkpt>
      <trkpt lat="46.617746" lon="12.630378">
        <ele>1291.128</ele>
        <time>2018-09-10T06:03:18Z</time>
      </trkpt>
      <trkpt lat="46.617758" lon="12.630369">
        <ele>1291.620</ele>
        <time>2018-09-10T06:03:19Z</time>
      </trkpt>
      <trkpt lat="46.617931" lon="12.630159">
        <ele>1294.008</ele>
        <time>2018-09-10T06:03:34Z</time>
      </trkpt>
      <trkpt lat="46.618127" lon="12.629865">
        <ele>1296.491</ele>
        <time>2018-09-10T06:03:50Z</time>
      </trkpt>
      <trkpt lat="46.618405" lon="12.629443">
        <ele>1298.443</ele>
        <time>2018-09-10T06:04:10Z</time>
      </trkpt>
      <trkpt lat="46.618693" lon="12.629029">
        <ele>1299.311</ele>
        <time>2018-09-10T06:04:29Z</time>
      </trkpt>
      <trkpt lat="46.619049" lon="12.628640">
        <ele>1300.386</ele>
        <time>2018-09-10T06:04:48Z</time>
      </trkpt>
      <trkpt lat="46.619412" lon="12.628416">
        <ele>1301.784</ele>
        <time>2018-09-10T06:05:05Z</time>
      </trkpt>
      <trkpt lat="46.619776" lon="12.628186">
        <ele>1304.664</ele>
        <time>2018-09-10T06:05:22Z</time>
      </trkpt>
      <trkpt lat="46.620137" lon="12.628038">
        <ele>1305.139</ele>
        <time>2018-09-10T06:05:38Z</time>
      </trkpt>
      <trkpt lat="46.620475" lon="12.628073">
        <ele>1308.057</ele>
        <time>2018-09-10T06:05:53Z</time>
      </trkpt>
      <trkpt lat="46.620891" lon="12.628152">
        <ele>1310.965</ele>
        <time>2018-09-10T06:06:11Z</time>
      </trkpt>
      <trkpt lat="46.621290" lon="12.628185">
        <ele>1308.968</ele>
        <time>2018-09-10T06:06:28Z</time>
      </trkpt>
      <trkpt lat="46.621698" lon="12.628015">
        <ele>1309.914</ele>
        <time>2018-09-10T06:06:46Z</time>
      </trkpt>
      <trkpt lat="46.622215" lon="12.627703">
        <ele>1312.308</ele>
        <time>2018-09-10T06:07:09Z</time>
      </trkpt>
      <trkpt lat="46.622694" lon="12.627409">
        <ele>1314.280</ele>
        <time>2018-09-10T06:07:31Z</time>
      </trkpt>
      <trkpt lat="46.623083" lon="12.627165">
        <ele>1315.742</ele>
        <time>2018-09-10T06:07:49Z</time>
      </trkpt>
      <trkpt lat="46.623652" lon="12.626800">
        <ele>1318.150</ele>
        <time>2018-09-10T06:08:15Z</time>
      </trkpt>
      <trkpt lat="46.624097" lon="12.626528">
        <ele>1318.175</ele>
        <time>2018-09-10T06:08:35Z</time>
      </trkpt>
      <trkpt lat="46.624540" lon="12.626285">
        <ele>1317.613</ele>
        <time>2018-09-10T06:08:55Z</time>
      </trkpt>
      <trkpt lat="46.624897" lon="12.626044">
        <ele>1320.983</ele>
        <time>2018-09-10T06:09:12Z</time>
      </trkpt>
      <trkpt lat="46.624933" lon="12.626043">
        <ele>1320.918</ele>
        <time>2018-09-10T06:09:27Z</time>
      </trkpt>
      <trkpt lat="46.624932" lon="12.625975">
        <ele>1325.826</ele>
        <time>2018-09-10T06:10:16Z</time>
      </trkpt>
      <trkpt lat="46.624912" lon="12.626001">
        <ele>1324.314</ele>
        <time>2018-09-10T06:10:50Z</time>
      </trkpt>
      <trkpt lat="46.624935" lon="12.626015">
        <ele>1321.954</ele>
        <time>2018-09-10T06:11:26Z</time>
      </trkpt>
      <trkpt lat="46.624960" lon="12.625919">
        <ele>1327.209</ele>
        <time>2018-09-10T06:12:11Z</time>
      </trkpt>
      <trkpt lat="46.624906" lon="12.625975">
        <ele>1332.508</ele>
        <time>2018-09-10T06:12:54Z</time>
      </trkpt>
      <trkpt lat="46.624895" lon="12.625957">
        <ele>1330.695</ele>
        <time>2018-09-10T06:13:29Z</time>
      </trkpt>
      <trkpt lat="46.624915" lon="12.625946">
        <ele>1326.797</ele>
        <time>2018-09-10T06:14:08Z</time>
      </trkpt>
      <trkpt lat="46.624894" lon="12.625935">
        <ele>1327.795</ele>
        <time>2018-09-10T06:14:37Z</time>
      </trkpt>
      <trkpt lat="46.624866" lon="12.625939">
        <ele>1332.570</ele>
        <time>2018-09-10T06:15:10Z</time>
      </trkpt>
      <trkpt lat="46.624888" lon="12.625870">
        <ele>1329.138</ele>
        <time>2018-09-10T06:15:46Z</time>
      </trkpt>
      <trkpt lat="46.624903" lon="12.625897">
        <ele>1335.458</ele>
        <time>2018-09-10T06:16:13Z</time>
      </trkpt>
      <trkpt lat="46.624926" lon="12.626048">
        <ele>1336.833</ele>
        <time>2018-09-10T06:16:53Z</time>
      </trkpt>
      <trkpt lat="46.624914" lon="12.626069">
        <ele>1331.581</ele>
        <time>2018-09-10T06:17:11Z</time>
      </trkpt>
      <trkpt lat="46.624888" lon="12.626017">
        <ele>1333.466</ele>
        <time>2018-09-10T06:17:49Z</time>
      </trkpt>
      <trkpt lat="46.624947" lon="12.626062">
        <ele>1332.529</ele>
        <time>2018-09-10T06:18:18Z</time>
      </trkpt>
      <trkpt lat="46.624972" lon="12.626060">
        <ele>1332.521</ele>
        <time>2018-09-10T06:18:21Z</time>
      </trkpt>
      <trkpt lat="46.625147" lon="12.625964">
        <ele>1338.208</ele>
        <time>2018-09-10T06:18:33Z</time>
      </trkpt>
      <trkpt lat="46.625423" lon="12.625895">
        <ele>1338.220</ele>
        <time>2018-09-10T06:18:46Z</time>
      </trkpt>
      <trkpt lat="46.625708" lon="12.625676">
        <ele>1337.372</ele>
        <time>2018-09-10T06:19:00Z</time>
      </trkpt>
      <trkpt lat="46.625937" lon="12.625439">
        <ele>1344.540</ele>
        <time>2018-09-10T06:19:14Z</time>
      </trkpt>
      <trkpt lat="46.626171" lon="12.625234">
        <ele>1354.685</ele>
        <time>2018-09-10T06:19:27Z</time>
      </trkpt>
      <trkpt lat="46.626411" lon="12.625101">
        <ele>1364.793</ele>
        <time>2018-09-10T06:19:40Z</time>
      </trkpt>
      <trkpt lat="46.626443" lon="12.625091">
        <ele>1366.183</ele>
        <time>2018-09-10T06:19:42Z</time>
      </trkpt>
      <trkpt lat="46.626457" lon="12.625092">
        <ele>1366.668</ele>
        <time>2018-09-10T06:19:43Z</time>
      </trkpt>
      <trkpt lat="46.626595" lon="12.625088">
        <ele>1371.436</ele>
        <time>2018-09-10T06:19:51Z</time>
      </trkpt>
      <trkpt lat="46.626612" lon="12.625080">
        <ele>1371.925</ele>
        <time>2018-09-10T06:19:52Z</time>
      </trkpt>
      <trkpt lat="46.626807" lon="12.625066">
        <ele>1378.626</ele>
        <time>2018-09-10T06:20:02Z</time>
      </trkpt>
      <trkpt lat="46.627128" lon="12.624936">
        <ele>1383.908</ele>
        <time>2018-09-10T06:20:15Z</time>
      </trkpt>
      <trkpt lat="46.627364" lon="12.624731">
        <ele>1381.508</ele>
        <time>2018-09-10T06:20:26Z</time>
      </trkpt>
      <trkpt lat="46.627558" lon="12.624572">
        <ele>1381.086</ele>
        <time>2018-09-10T06:20:35Z</time>
      </trkpt>
      <trkpt lat="46.627806" lon="12.624352">
        <ele>1377.748</ele>
        <time>2018-09-10T06:20:46Z</time>
      </trkpt>
      <trkpt lat="46.627826" lon="12.624336">
        <ele>1377.746</ele>
        <time>2018-09-10T06:20:47Z</time>
      </trkpt>
      <trkpt lat="46.627845" lon="12.624320">
        <ele>1377.771</ele>
        <time>2018-09-10T06:20:48Z</time>
      </trkpt>
      <trkpt lat="46.627863" lon="12.624307">
        <ele>1377.269</ele>
        <time>2018-09-10T06:20:49Z</time>
      </trkpt>
      <trkpt lat="46.627882" lon="12.624293">
        <ele>1377.299</ele>
        <time>2018-09-10T06:20:50Z</time>
      </trkpt>
      <trkpt lat="46.628171" lon="12.624038">
        <ele>1374.844</ele>
        <time>2018-09-10T06:21:02Z</time>
      </trkpt>
      <trkpt lat="46.628411" lon="12.623857">
        <ele>1373.342</ele>
        <time>2018-09-10T06:21:15Z</time>
      </trkpt>
      <trkpt lat="46.628658" lon="12.623639">
        <ele>1370.964</ele>
        <time>2018-09-10T06:21:27Z</time>
      </trkpt>
      <trkpt lat="46.628912" lon="12.623437">
        <ele>1367.106</ele>
        <time>2018-09-10T06:21:41Z</time>
      </trkpt>
      <trkpt lat="46.629118" lon="12.623280">
        <ele>1368.516</ele>
        <time>2018-09-10T06:21:53Z</time>
      </trkpt>
      <trkpt lat="46.629295" lon="12.623158">
        <ele>1371.408</ele>
        <time>2018-09-10T06:22:02Z</time>
      </trkpt>
      <trkpt lat="46.629337" lon="12.623121">
        <ele>1372.450</ele>
        <time>2018-09-10T06:22:05Z</time>
      </trkpt>
      <trkpt lat="46.629556" lon="12.622969">
        <ele>1379.612</ele>
        <time>2018-09-10T06:22:17Z</time>
      </trkpt>
      <trkpt lat="46.629570" lon="12.622952">
        <ele>1380.120</ele>
        <time>2018-09-10T06:22:18Z</time>
      </trkpt>
      <trkpt lat="46.629586" lon="12.622939">
        <ele>1380.175</ele>
        <time>2018-09-10T06:22:19Z</time>
      </trkpt>
      <trkpt lat="46.629788" lon="12.622768">
        <ele>1388.233</ele>
        <time>2018-09-10T06:22:31Z</time>
      </trkpt>
      <trkpt lat="46.630095" lon="12.622452">
        <ele>1390.653</ele>
        <time>2018-09-10T06:22:45Z</time>
      </trkpt>
      <trkpt lat="46.630398" lon="12.622160">
        <ele>1387.848</ele>
        <time>2018-09-10T06:22:58Z</time>
      </trkpt>
      <trkpt lat="46.630667" lon="12.621852">
        <ele>1379.196</ele>
        <time>2018-09-10T06:23:12Z</time>
      </trkpt>
      <trkpt lat="46.630889" lon="12.621622">
        <ele>1372.954</ele>
        <time>2018-09-10T06:23:25Z</time>
      </trkpt>
      <trkpt lat="46.631116" lon="12.621343">
        <ele>1368.056</ele>
        <time>2018-09-10T06:23:38Z</time>
      </trkpt>
      <trkpt lat="46.631345" lon="12.621042">
        <ele>1364.211</ele>
        <time>2018-09-10T06:23:53Z</time>
      </trkpt>
      <trkpt lat="46.631550" lon="12.620699">
        <ele>1362.808</ele>
        <time>2018-09-10T06:24:10Z</time>
      </trkpt>
      <trkpt lat="46.631725" lon="12.620290">
        <ele>1365.219</ele>
        <time>2018-09-10T06:24:29Z</time>
      </trkpt>
      <trkpt lat="46.631809" lon="12.619899">
        <ele>1363.271</ele>
        <time>2018-09-10T06:24:44Z</time>
      </trkpt>
      <trkpt lat="46.631976" lon="12.619418">
        <ele>1360.449</ele>
        <time>2018-09-10T06:25:01Z</time>
      </trkpt>
      <trkpt lat="46.632176" lon="12.619118">
        <ele>1359.414</ele>
        <time>2018-09-10T06:25:16Z</time>
      </trkpt>
      <trkpt lat="46.632395" lon="12.618864">
        <ele>1361.392</ele>
        <time>2018-09-10T06:25:31Z</time>
      </trkpt>
      <trkpt lat="46.632575" lon="12.618480">
        <ele>1363.782</ele>
        <time>2018-09-10T06:25:48Z</time>
      </trkpt>
      <trkpt lat="46.632687" lon="12.618179">
        <ele>1366.167</ele>
        <time>2018-09-10T06:26:01Z</time>
      </trkpt>
      <trkpt lat="46.632760" lon="12.617801">
        <ele>1368.085</ele>
        <time>2018-09-10T06:26:17Z</time>
      </trkpt>
      <trkpt lat="46.632775" lon="12.617523">
        <ele>1369.516</ele>
        <time>2018-09-10T06:26:31Z</time>
      </trkpt>
      <trkpt lat="46.632808" lon="12.617233">
        <ele>1376.276</ele>
        <time>2018-09-10T06:26:44Z</time>
      </trkpt>
      <trkpt lat="46.632826" lon="12.616857">
        <ele>1382.513</ele>
        <time>2018-09-10T06:26:59Z</time>
      </trkpt>
      <trkpt lat="46.632803" lon="12.616475">
        <ele>1384.408</ele>
        <time>2018-09-10T06:27:13Z</time>
      </trkpt>
      <trkpt lat="46.632703" lon="12.616024">
        <ele>1380.585</ele>
        <time>2018-09-10T06:27:30Z</time>
      </trkpt>
      <trkpt lat="46.632785" lon="12.615618">
        <ele>1381.027</ele>
        <time>2018-09-10T06:27:47Z</time>
      </trkpt>
      <trkpt lat="46.632963" lon="12.615288">
        <ele>1380.535</ele>
        <time>2018-09-10T06:28:03Z</time>
      </trkpt>
      <trkpt lat="46.633143" lon="12.615022">
        <ele>1381.580</ele>
        <time>2018-09-10T06:28:18Z</time>
      </trkpt>
      <trkpt lat="46.633283" lon="12.614906">
        <ele>1389.288</ele>
        <time>2018-09-10T06:28:30Z</time>
      </trkpt>
      <trkpt lat="46.633495" lon="12.614745">
        <ele>1394.538</ele>
        <time>2018-09-10T06:28:45Z</time>
      </trkpt>
      <trkpt lat="46.633625" lon="12.614515">
        <ele>1395.963</ele>
        <time>2018-09-10T06:28:58Z</time>
      </trkpt>
      <trkpt lat="46.633651" lon="12.614456">
        <ele>1395.041</ele>
        <time>2018-09-10T06:29:01Z</time>
      </trkpt>
      <trkpt lat="46.633662" lon="12.614433">
        <ele>1395.458</ele>
        <time>2018-09-10T06:29:02Z</time>
      </trkpt>
      <trkpt lat="46.633780" lon="12.614119">
        <ele>1396.952</ele>
        <time>2018-09-10T06:29:17Z</time>
      </trkpt>
      <trkpt lat="46.633852" lon="12.613815">
        <ele>1399.817</ele>
        <time>2018-09-10T06:29:30Z</time>
      </trkpt>
      <trkpt lat="46.633892" lon="12.613597">
        <ele>1399.808</ele>
        <time>2018-09-10T06:29:40Z</time>
      </trkpt>
      <trkpt lat="46.633895" lon="12.613568">
        <ele>1398.839</ele>
        <time>2018-09-10T06:29:41Z</time>
      </trkpt>
      <trkpt lat="46.633962" lon="12.613294">
        <ele>1394.511</ele>
        <time>2018-09-10T06:29:52Z</time>
      </trkpt>
      <trkpt lat="46.633968" lon="12.613255">
        <ele>1394.059</ele>
        <time>2018-09-10T06:29:54Z</time>
      </trkpt>
      <trkpt lat="46.633973" lon="12.613236">
        <ele>1394.054</ele>
        <time>2018-09-10T06:29:55Z</time>
      </trkpt>
      <trkpt lat="46.633978" lon="12.613217">
        <ele>1394.042</ele>
        <time>2018-09-10T06:29:56Z</time>
      </trkpt>
      <trkpt lat="46.634059" lon="12.612886">
        <ele>1398.382</ele>
        <time>2018-09-10T06:30:10Z</time>
      </trkpt>
      <trkpt lat="46.634066" lon="12.612866">
        <ele>1398.337</ele>
        <time>2018-09-10T06:30:11Z</time>
      </trkpt>
      <trkpt lat="46.634072" lon="12.612847">
        <ele>1398.835</ele>
        <time>2018-09-10T06:30:12Z</time>
      </trkpt>
      <trkpt lat="46.634137" lon="12.612529">
        <ele>1397.427</ele>
        <time>2018-09-10T06:30:26Z</time>
      </trkpt>
      <trkpt lat="46.634158" lon="12.612226">
        <ele>1398.368</ele>
        <time>2018-09-10T06:30:38Z</time>
      </trkpt>
      <trkpt lat="46.634148" lon="12.611942">
        <ele>1397.414</ele>
        <time>2018-09-10T06:30:50Z</time>
      </trkpt>
      <trkpt lat="46.634147" lon="12.611917">
        <ele>1396.908</ele>
        <time>2018-09-10T06:30:51Z</time>
      </trkpt>
      <trkpt lat="46.634145" lon="12.611894">
        <ele>1396.996</ele>
        <time>2018-09-10T06:30:52Z</time>
      </trkpt>
      <trkpt lat="46.634143" lon="12.611870">
        <ele>1396.438</ele>
        <time>2018-09-10T06:30:53Z</time>
      </trkpt>
      <trkpt lat="46.634142" lon="12.611848">
        <ele>1396.476</ele>
        <time>2018-09-10T06:30:54Z</time>
      </trkpt>
      <trkpt lat="46.634147" lon="12.611822">
        <ele>1396.941</ele>
        <time>2018-09-10T06:30:55Z</time>
      </trkpt>
      <trkpt lat="46.634153" lon="12.611795">
        <ele>1397.469</ele>
        <time>2018-09-10T06:30:56Z</time>
      </trkpt>
      <trkpt lat="46.634159" lon="12.611768">
        <ele>1398.319</ele>
        <time>2018-09-10T06:30:57Z</time>
      </trkpt>
      <trkpt lat="46.634166" lon="12.611742">
        <ele>1399.344</ele>
        <time>2018-09-10T06:30:58Z</time>
      </trkpt>
      <trkpt lat="46.634170" lon="12.611719">
        <ele>1400.392</ele>
        <time>2018-09-10T06:30:59Z</time>
      </trkpt>
      <trkpt lat="46.634176" lon="12.611693">
        <ele>1400.793</ele>
        <time>2018-09-10T06:31:00Z</time>
      </trkpt>
      <trkpt lat="46.634182" lon="12.611669">
        <ele>1401.265</ele>
        <time>2018-09-10T06:31:01Z</time>
      </trkpt>
      <trkpt lat="46.634195" lon="12.611297">
        <ele>1404.121</ele>
        <time>2018-09-10T06:31:14Z</time>
      </trkpt>
      <trkpt lat="46.634228" lon="12.610940">
        <ele>1405.508</ele>
        <time>2018-09-10T06:31:29Z</time>
      </trkpt>
      <trkpt lat="46.634306" lon="12.610619">
        <ele>1407.593</ele>
        <time>2018-09-10T06:31:46Z</time>
      </trkpt>
      <trkpt lat="46.634390" lon="12.610368">
        <ele>1410.375</ele>
        <time>2018-09-10T06:32:00Z</time>
      </trkpt>
      <trkpt lat="46.634402" lon="12.610099">
        <ele>1410.843</ele>
        <time>2018-09-10T06:32:14Z</time>
      </trkpt>
      <trkpt lat="46.634382" lon="12.609905">
        <ele>1412.368</ele>
        <time>2018-09-10T06:32:27Z</time>
      </trkpt>
      <trkpt lat="46.634364" lon="12.609802">
        <ele>1412.386</ele>
        <time>2018-09-10T06:32:33Z</time>
      </trkpt>
      <trkpt lat="46.634334" lon="12.609681">
        <ele>1411.366</ele>
        <time>2018-09-10T06:32:41Z</time>
      </trkpt>
      <trkpt lat="46.634246" lon="12.609479">
        <ele>1411.391</ele>
        <time>2018-09-10T06:32:56Z</time>
      </trkpt>
      <trkpt lat="46.634160" lon="12.609215">
        <ele>1413.799</ele>
        <time>2018-09-10T06:33:14Z</time>
      </trkpt>
      <trkpt lat="46.634140" lon="12.609173">
        <ele>1413.769</ele>
        <time>2018-09-10T06:33:17Z</time>
      </trkpt>
      <trkpt lat="46.634132" lon="12.609157">
        <ele>1413.704</ele>
        <time>2018-09-10T06:33:18Z</time>
      </trkpt>
      <trkpt lat="46.634127" lon="12.609143">
        <ele>1413.724</ele>
        <time>2018-09-10T06:33:19Z</time>
      </trkpt>
      <trkpt lat="46.634122" lon="12.609130">
        <ele>1413.208</ele>
        <time>2018-09-10T06:33:20Z</time>
      </trkpt>
      <trkpt lat="46.634095" lon="12.609039">
        <ele>1412.710</ele>
        <time>2018-09-10T06:33:26Z</time>
      </trkpt>
      <trkpt lat="46.634003" lon="12.608822">
        <ele>1414.242</ele>
        <time>2018-09-10T06:33:41Z</time>
      </trkpt>
      <trkpt lat="46.633947" lon="12.608658">
        <ele>1414.750</ele>
        <time>2018-09-10T06:33:51Z</time>
      </trkpt>
      <trkpt lat="46.633938" lon="12.608643">
        <ele>1414.215</ele>
        <time>2018-09-10T06:33:52Z</time>
      </trkpt>
      <trkpt lat="46.633931" lon="12.608629">
        <ele>1414.283</ele>
        <time>2018-09-10T06:33:53Z</time>
      </trkpt>
      <trkpt lat="46.633924" lon="12.608613">
        <ele>1413.753</ele>
        <time>2018-09-10T06:33:54Z</time>
      </trkpt>
      <trkpt lat="46.633828" lon="12.608371">
        <ele>1416.668</ele>
        <time>2018-09-10T06:34:11Z</time>
      </trkpt>
      <trkpt lat="46.633740" lon="12.608156">
        <ele>1421.916</ele>
        <time>2018-09-10T06:34:26Z</time>
      </trkpt>
      <trkpt lat="46.633735" lon="12.608141">
        <ele>1421.936</ele>
        <time>2018-09-10T06:34:27Z</time>
      </trkpt>
      <trkpt lat="46.633730" lon="12.608128">
        <ele>1422.417</ele>
        <time>2018-09-10T06:34:28Z</time>
      </trkpt>
      <trkpt lat="46.633724" lon="12.608112">
        <ele>1422.818</ele>
        <time>2018-09-10T06:34:29Z</time>
      </trkpt>
      <trkpt lat="46.633718" lon="12.608096">
        <ele>1422.808</ele>
        <time>2018-09-10T06:34:30Z</time>
      </trkpt>
      <trkpt lat="46.633593" lon="12.607855">
        <ele>1423.867</ele>
        <time>2018-09-10T06:34:48Z</time>
      </trkpt>
      <trkpt lat="46.633565" lon="12.607801">
        <ele>1423.399</ele>
        <time>2018-09-10T06:34:52Z</time>
      </trkpt>
      <trkpt lat="46.633546" lon="12.607759">
        <ele>1422.847</ele>
        <time>2018-09-10T06:34:55Z</time>
      </trkpt>
      <trkpt lat="46.633537" lon="12.607749">
        <ele>1422.872</ele>
        <time>2018-09-10T06:34:56Z</time>
      </trkpt>
      <trkpt lat="46.633438" lon="12.607569">
        <ele>1420.070</ele>
        <time>2018-09-10T06:35:10Z</time>
      </trkpt>
      <trkpt lat="46.633350" lon="12.607391">
        <ele>1422.430</ele>
        <time>2018-09-10T06:35:24Z</time>
      </trkpt>
      <trkpt lat="46.633263" lon="12.607202">
        <ele>1427.765</ele>
        <time>2018-09-10T06:35:39Z</time>
      </trkpt>
      <trkpt lat="46.633252" lon="12.607166">
        <ele>1428.683</ele>
        <time>2018-09-10T06:35:41Z</time>
      </trkpt>
      <trkpt lat="46.633246" lon="12.606968">
        <ele>1428.694</ele>
        <time>2018-09-10T06:35:53Z</time>
      </trkpt>
      <trkpt lat="46.633215" lon="12.606750">
        <ele>1433.457</ele>
        <time>2018-09-10T06:36:08Z</time>
      </trkpt>
      <trkpt lat="46.633197" lon="12.606466">
        <ele>1436.322</ele>
        <time>2018-09-10T06:36:24Z</time>
      </trkpt>
      <trkpt lat="46.633188" lon="12.606241">
        <ele>1438.208</ele>
        <time>2018-09-10T06:36:38Z</time>
      </trkpt>
      <trkpt lat="46.633182" lon="12.606011">
        <ele>1439.723</ele>
        <time>2018-09-10T06:36:53Z</time>
      </trkpt>
      <trkpt lat="46.633109" lon="12.605771">
        <ele>1443.075</ele>
        <time>2018-09-10T06:37:08Z</time>
      </trkpt>
      <trkpt lat="46.633036" lon="12.605497">
        <ele>1445.413</ele>
        <time>2018-09-10T06:37:24Z</time>
      </trkpt>
      <trkpt lat="46.633036" lon="12.605479">
        <ele>1445.948</ele>
        <time>2018-09-10T06:37:25Z</time>
      </trkpt>
      <trkpt lat="46.633038" lon="12.605462">
        <ele>1445.966</ele>
        <time>2018-09-10T06:37:26Z</time>
      </trkpt>
      <trkpt lat="46.633039" lon="12.605446">
        <ele>1445.936</ele>
        <time>2018-09-10T06:37:27Z</time>
      </trkpt>
      <trkpt lat="46.633016" lon="12.605190">
        <ele>1448.381</ele>
        <time>2018-09-10T06:37:43Z</time>
      </trkpt>
      <trkpt lat="46.633114" lon="12.604880">
        <ele>1448.389</ele>
        <time>2018-09-10T06:37:59Z</time>
      </trkpt>
      <trkpt lat="46.633138" lon="12.604613">
        <ele>1450.218</ele>
        <time>2018-09-10T06:38:16Z</time>
      </trkpt>
      <trkpt lat="46.633120" lon="12.604556">
        <ele>1451.298</ele>
        <time>2018-09-10T06:38:20Z</time>
      </trkpt>
      <trkpt lat="46.633111" lon="12.604546">
        <ele>1451.717</ele>
        <time>2018-09-10T06:38:21Z</time>
      </trkpt>
      <trkpt lat="46.633106" lon="12.604532">
        <ele>1452.208</ele>
        <time>2018-09-10T06:38:22Z</time>
      </trkpt>
      <trkpt lat="46.633104" lon="12.604514">
        <ele>1452.625</ele>
        <time>2018-09-10T06:38:23Z</time>
      </trkpt>
      <trkpt lat="46.633106" lon="12.604489">
        <ele>1453.187</ele>
        <time>2018-09-10T06:38:24Z</time>
      </trkpt>
      <trkpt lat="46.633096" lon="12.604343">
        <ele>1456.535</ele>
        <time>2018-09-10T06:38:36Z</time>
      </trkpt>
      <trkpt lat="46.633051" lon="12.604130">
        <ele>1460.320</ele>
        <time>2018-09-10T06:38:51Z</time>
      </trkpt>
      <trkpt lat="46.633092" lon="12.603963">
        <ele>1459.428</ele>
        <time>2018-09-10T06:39:01Z</time>
      </trkpt>
      <trkpt lat="46.633198" lon="12.603738">
        <ele>1457.538</ele>
        <time>2018-09-10T06:39:18Z</time>
      </trkpt>
      <trkpt lat="46.633206" lon="12.603589">
        <ele>1459.493</ele>
        <time>2018-09-10T06:39:30Z</time>
      </trkpt>
      <trkpt lat="46.633212" lon="12.603518">
        <ele>1460.891</ele>
        <time>2018-09-10T06:39:34Z</time>
      </trkpt>
      <trkpt lat="46.633260" lon="12.603246">
        <ele>1459.966</ele>
        <time>2018-09-10T06:39:49Z</time>
      </trkpt>
      <trkpt lat="46.633260" lon="12.603034">
        <ele>1460.329</ele>
        <time>2018-09-10T06:40:02Z</time>
      </trkpt>
      <trkpt lat="46.633223" lon="12.602820">
        <ele>1462.321</ele>
        <time>2018-09-10T06:40:15Z</time>
      </trkpt>
      <trkpt lat="46.633192" lon="12.602662">
        <ele>1465.108</ele>
        <time>2018-09-10T06:40:25Z</time>
      </trkpt>
      <trkpt lat="46.633227" lon="12.602432">
        <ele>1466.640</ele>
        <time>2018-09-10T06:40:39Z</time>
      </trkpt>
      <trkpt lat="46.633249" lon="12.602250">
        <ele>1468.052</ele>
        <time>2018-09-10T06:40:52Z</time>
      </trkpt>
      <trkpt lat="46.633278" lon="12.601960">
        <ele>1468.590</ele>
        <time>2018-09-10T06:41:09Z</time>
      </trkpt>
      <trkpt lat="46.633278" lon="12.601885">
        <ele>1469.045</ele>
        <time>2018-09-10T06:41:14Z</time>
      </trkpt>
      <trkpt lat="46.633255" lon="12.601624">
        <ele>1474.883</ele>
        <time>2018-09-10T06:41:31Z</time>
      </trkpt>
      <trkpt lat="46.633222" lon="12.601455">
        <ele>1480.523</ele>
        <time>2018-09-10T06:41:44Z</time>
      </trkpt>
      <trkpt lat="46.633213" lon="12.601399">
        <ele>1481.588</ele>
        <time>2018-09-10T06:41:47Z</time>
      </trkpt>
      <trkpt lat="46.633183" lon="12.601262">
        <ele>1482.046</ele>
        <time>2018-09-10T06:41:55Z</time>
      </trkpt>
      <trkpt lat="46.633178" lon="12.601244">
        <ele>1482.032</ele>
        <time>2018-09-10T06:41:56Z</time>
      </trkpt>
      <trkpt lat="46.633173" lon="12.601227">
        <ele>1482.092</ele>
        <time>2018-09-10T06:41:57Z</time>
      </trkpt>
      <trkpt lat="46.633160" lon="12.601145">
        <ele>1483.411</ele>
        <time>2018-09-10T06:42:02Z</time>
      </trkpt>
      <trkpt lat="46.633155" lon="12.601127">
        <ele>1483.908</ele>
        <time>2018-09-10T06:42:03Z</time>
      </trkpt>
      <trkpt lat="46.633122" lon="12.600821">
        <ele>1481.567</ele>
        <time>2018-09-10T06:42:18Z</time>
      </trkpt>
      <trkpt lat="46.633119" lon="12.600616">
        <ele>1479.649</ele>
        <time>2018-09-10T06:42:30Z</time>
      </trkpt>
      <trkpt lat="46.633097" lon="12.600418">
        <ele>1484.857</ele>
        <time>2018-09-10T06:42:44Z</time>
      </trkpt>
      <trkpt lat="46.633146" lon="12.600290">
        <ele>1488.292</ele>
        <time>2018-09-10T06:42:53Z</time>
      </trkpt>
      <trkpt lat="46.633152" lon="12.600253">
        <ele>1488.270</ele>
        <time>2018-09-10T06:42:55Z</time>
      </trkpt>
      <trkpt lat="46.633163" lon="12.600139">
        <ele>1489.740</ele>
        <time>2018-09-10T06:43:02Z</time>
      </trkpt>
      <trkpt lat="46.633154" lon="12.599922">
        <ele>1493.525</ele>
        <time>2018-09-10T06:43:16Z</time>
      </trkpt>
      <trkpt lat="46.633144" lon="12.599732">
        <ele>1496.423</ele>
        <time>2018-09-10T06:43:30Z</time>
      </trkpt>
      <trkpt lat="46.633136" lon="12.599530">
        <ele>1502.296</ele>
        <time>2018-09-10T06:43:45Z</time>
      </trkpt>
      <trkpt lat="46.633128" lon="12.599322">
        <ele>1504.631</ele>
        <time>2018-09-10T06:43:59Z</time>
      </trkpt>
      <trkpt lat="46.633120" lon="12.599072">
        <ele>1508.424</ele>
        <time>2018-09-10T06:44:15Z</time>
      </trkpt>
      <trkpt lat="46.633108" lon="12.598866">
        <ele>1510.808</ele>
        <time>2018-09-10T06:44:30Z</time>
      </trkpt>
      <trkpt lat="46.633044" lon="12.598679">
        <ele>1508.953</ele>
        <time>2018-09-10T06:44:45Z</time>
      </trkpt>
      <trkpt lat="46.633026" lon="12.598623">
        <ele>1508.985</ele>
        <time>2018-09-10T06:44:49Z</time>
      </trkpt>
      <trkpt lat="46.632954" lon="12.598340">
        <ele>1508.413</ele>
        <time>2018-09-10T06:45:07Z</time>
      </trkpt>
      <trkpt lat="46.632877" lon="12.598080">
        <ele>1509.478</ele>
        <time>2018-09-10T06:45:25Z</time>
      </trkpt>
      <trkpt lat="46.632847" lon="12.597894">
        <ele>1515.136</ele>
        <time>2018-09-10T06:45:39Z</time>
      </trkpt>
      <trkpt lat="46.632820" lon="12.597676">
        <ele>1518.016</ele>
        <time>2018-09-10T06:45:54Z</time>
      </trkpt>
      <trkpt lat="46.632800" lon="12.597523">
        <ele>1522.871</ele>
        <time>2018-09-10T06:46:10Z</time>
      </trkpt>
      <trkpt lat="46.632800" lon="12.597326">
        <ele>1526.219</ele>
        <time>2018-09-10T06:46:25Z</time>
      </trkpt>
      <trkpt lat="46.632870" lon="12.597142">
        <ele>1526.271</ele>
        <time>2018-09-10T06:46:37Z</time>
      </trkpt>
      <trkpt lat="46.632950" lon="12.596814">
        <ele>1523.341</ele>
        <time>2018-09-10T06:46:55Z</time>
      </trkpt>
      <trkpt lat="46.633007" lon="12.596625">
        <ele>1521.915</ele>
        <time>2018-09-10T06:47:10Z</time>
      </trkpt>
      <trkpt lat="46.633053" lon="12.596407">
        <ele>1521.908</ele>
        <time>2018-09-10T06:47:25Z</time>
      </trkpt>
      <trkpt lat="46.633081" lon="12.596229">
        <ele>1523.831</ele>
        <time>2018-09-10T06:47:37Z</time>
      </trkpt>
      <trkpt lat="46.633086" lon="12.596102">
        <ele>1525.783</ele>
        <time>2018-09-10T06:47:52Z</time>
      </trkpt>
      <trkpt lat="46.633071" lon="12.595959">
        <ele>1530.071</ele>
        <time>2018-09-10T06:48:08Z</time>
      </trkpt>
      <trkpt lat="46.633049" lon="12.595783">
        <ele>1532.416</ele>
        <time>2018-09-10T06:48:25Z</time>
      </trkpt>
      <trkpt lat="46.633036" lon="12.595604">
        <ele>1538.284</ele>
        <time>2018-09-10T06:48:43Z</time>
      </trkpt>
      <trkpt lat="46.633078" lon="12.595364">
        <ele>1543.574</ele>
        <time>2018-09-10T06:48:58Z</time>
      </trkpt>
      <trkpt lat="46.633138" lon="12.595109">
        <ele>1548.379</ele>
        <time>2018-09-10T06:49:14Z</time>
      </trkpt>
      <trkpt lat="46.633153" lon="12.594889">
        <ele>1552.197</ele>
        <time>2018-09-10T06:49:33Z</time>
      </trkpt>
      <trkpt lat="46.633142" lon="12.594703">
        <ele>1553.662</ele>
        <time>2018-09-10T06:49:48Z</time>
      </trkpt>
      <trkpt lat="46.633117" lon="12.594601">
        <ele>1555.583</ele>
        <time>2018-09-10T06:50:00Z</time>
      </trkpt>
      <trkpt lat="46.633114" lon="12.594490">
        <ele>1556.011</ele>
        <time>2018-09-10T06:50:06Z</time>
      </trkpt>
      <trkpt lat="46.633116" lon="12.594470">
        <ele>1555.508</ele>
        <time>2018-09-10T06:50:07Z</time>
      </trkpt>
      <trkpt lat="46.633113" lon="12.594449">
        <ele>1555.570</ele>
        <time>2018-09-10T06:50:08Z</time>
      </trkpt>
      <trkpt lat="46.633042" lon="12.594142">
        <ele>1557.472</ele>
        <time>2018-09-10T06:50:26Z</time>
      </trkpt>
      <trkpt lat="46.633039" lon="12.594124">
        <ele>1557.440</ele>
        <time>2018-09-10T06:50:27Z</time>
      </trkpt>
      <trkpt lat="46.632954" lon="12.593859">
        <ele>1559.485</ele>
        <time>2018-09-10T06:50:42Z</time>
      </trkpt>
      <trkpt lat="46.632750" lon="12.593677">
        <ele>1559.473</ele>
        <time>2018-09-10T06:50:59Z</time>
      </trkpt>
      <trkpt lat="46.632633" lon="12.593688">
        <ele>1558.923</ele>
        <time>2018-09-10T06:51:07Z</time>
      </trkpt>
      <trkpt lat="46.632521" lon="12.593792">
        <ele>1559.458</ele>
        <time>2018-09-10T06:51:20Z</time>
      </trkpt>
      <trkpt lat="46.632487" lon="12.593843">
        <ele>1560.396</ele>
        <time>2018-09-10T06:51:24Z</time>
      </trkpt>
      <trkpt lat="46.632475" lon="12.593852">
        <ele>1560.898</ele>
        <time>2018-09-10T06:51:25Z</time>
      </trkpt>
      <trkpt lat="46.632318" lon="12.593907">
        <ele>1561.815</ele>
        <time>2018-09-10T06:51:40Z</time>
      </trkpt>
      <trkpt lat="46.632286" lon="12.593863">
        <ele>1560.826</ele>
        <time>2018-09-10T06:51:44Z</time>
      </trkpt>
      <trkpt lat="46.632240" lon="12.593635">
        <ele>1560.308</ele>
        <time>2018-09-10T06:51:59Z</time>
      </trkpt>
      <trkpt lat="46.632222" lon="12.593493">
        <ele>1560.323</ele>
        <time>2018-09-10T06:52:09Z</time>
      </trkpt>
      <trkpt lat="46.632214" lon="12.593355">
        <ele>1562.755</ele>
        <time>2018-09-10T06:52:18Z</time>
      </trkpt>
      <trkpt lat="46.632215" lon="12.593335">
        <ele>1562.753</ele>
        <time>2018-09-10T06:52:19Z</time>
      </trkpt>
      <trkpt lat="46.632245" lon="12.593097">
        <ele>1564.698</ele>
        <time>2018-09-10T06:52:35Z</time>
      </trkpt>
      <trkpt lat="46.632286" lon="12.592851">
        <ele>1565.616</ele>
        <time>2018-09-10T06:52:51Z</time>
      </trkpt>
      <trkpt lat="46.632273" lon="12.592773">
        <ele>1566.666</ele>
        <time>2018-09-10T06:52:56Z</time>
      </trkpt>
      <trkpt lat="46.632291" lon="12.592664">
        <ele>1567.541</ele>
        <time>2018-09-10T06:53:04Z</time>
      </trkpt>
      <trkpt lat="46.632283" lon="12.592527">
        <ele>1567.519</ele>
        <time>2018-09-10T06:53:13Z</time>
      </trkpt>
      <trkpt lat="46.632286" lon="12.592329">
        <ele>1570.419</ele>
        <time>2018-09-10T06:53:27Z</time>
      </trkpt>
      <trkpt lat="46.632277" lon="12.592316">
        <ele>1570.909</ele>
        <time>2018-09-10T06:53:28Z</time>
      </trkpt>
      <trkpt lat="46.632270" lon="12.592287">
        <ele>1570.919</ele>
        <time>2018-09-10T06:53:30Z</time>
      </trkpt>
      <trkpt lat="46.632255" lon="12.592242">
        <ele>1570.908</ele>
        <time>2018-09-10T06:53:33Z</time>
      </trkpt>
      <trkpt lat="46.632250" lon="12.592212">
        <ele>1571.485</ele>
        <time>2018-09-10T06:53:35Z</time>
      </trkpt>
      <trkpt lat="46.632244" lon="12.592201">
        <ele>1571.847</ele>
        <time>2018-09-10T06:53:36Z</time>
      </trkpt>
      <trkpt lat="46.632242" lon="12.592189">
        <ele>1572.385</ele>
        <time>2018-09-10T06:53:37Z</time>
      </trkpt>
      <trkpt lat="46.632202" lon="12.592089">
        <ele>1572.890</ele>
        <time>2018-09-10T06:53:50Z</time>
      </trkpt>
      <trkpt lat="46.632196" lon="12.592098">
        <ele>1573.328</ele>
        <time>2018-09-10T06:54:13Z</time>
      </trkpt>
      <trkpt lat="46.632179" lon="12.592067">
        <ele>1573.818</ele>
        <time>2018-09-10T06:54:16Z</time>
      </trkpt>
      <trkpt lat="46.632173" lon="12.592052">
        <ele>1573.333</ele>
        <time>2018-09-10T06:54:17Z</time>
      </trkpt>
      <trkpt lat="46.632169" lon="12.592036">
        <ele>1573.311</ele>
        <time>2018-09-10T06:54:18Z</time>
      </trkpt>
      <trkpt lat="46.632164" lon="12.592022">
        <ele>1573.341</ele>
        <time>2018-09-10T06:54:19Z</time>
      </trkpt>
      <trkpt lat="46.632160" lon="12.592006">
        <ele>1573.381</ele>
        <time>2018-09-10T06:54:20Z</time>
      </trkpt>
      <trkpt lat="46.632157" lon="12.591986">
        <ele>1573.809</ele>
        <time>2018-09-10T06:54:21Z</time>
      </trkpt>
      <trkpt lat="46.632157" lon="12.591970">
        <ele>1574.308</ele>
        <time>2018-09-10T06:54:22Z</time>
      </trkpt>
      <trkpt lat="46.632154" lon="12.591947">
        <ele>1574.768</ele>
        <time>2018-09-10T06:54:23Z</time>
      </trkpt>
      <trkpt lat="46.632151" lon="12.591930">
        <ele>1575.760</ele>
        <time>2018-09-10T06:54:24Z</time>
      </trkpt>
      <trkpt lat="46.632146" lon="12.591915">
        <ele>1575.718</ele>
        <time>2018-09-10T06:54:25Z</time>
      </trkpt>
      <trkpt lat="46.632141" lon="12.591898">
        <ele>1576.293</ele>
        <time>2018-09-10T06:54:26Z</time>
      </trkpt>
      <trkpt lat="46.632132" lon="12.591885">
        <ele>1576.761</ele>
        <time>2018-09-10T06:54:27Z</time>
      </trkpt>
      <trkpt lat="46.632124" lon="12.591875">
        <ele>1576.271</ele>
        <time>2018-09-10T06:54:28Z</time>
      </trkpt>
      <trkpt lat="46.632118" lon="12.591859">
        <ele>1576.776</ele>
        <time>2018-09-10T06:54:29Z</time>
      </trkpt>
      <trkpt lat="46.632115" lon="12.591842">
        <ele>1577.154</ele>
        <time>2018-09-10T06:54:30Z</time>
      </trkpt>
      <trkpt lat="46.632087" lon="12.591734">
        <ele>1577.695</ele>
        <time>2018-09-10T06:54:37Z</time>
      </trkpt>
      <trkpt lat="46.632055" lon="12.591691">
        <ele>1578.649</ele>
        <time>2018-09-10T06:54:41Z</time>
      </trkpt>
      <trkpt lat="46.632043" lon="12.591643">
        <ele>1578.123</ele>
        <time>2018-09-10T06:54:44Z</time>
      </trkpt>
      <trkpt lat="46.632043" lon="12.591630">
        <ele>1578.608</ele>
        <time>2018-09-10T06:54:45Z</time>
      </trkpt>
      <trkpt lat="46.632039" lon="12.591612">
        <ele>1578.663</ele>
        <time>2018-09-10T06:54:46Z</time>
      </trkpt>
      <trkpt lat="46.632034" lon="12.591597">
        <ele>1578.695</ele>
        <time>2018-09-10T06:54:47Z</time>
      </trkpt>
      <trkpt lat="46.632027" lon="12.591582">
        <ele>1579.153</ele>
        <time>2018-09-10T06:54:48Z</time>
      </trkpt>
      <trkpt lat="46.632020" lon="12.591571">
        <ele>1579.148</ele>
        <time>2018-09-10T06:54:49Z</time>
      </trkpt>
      <trkpt lat="46.632013" lon="12.591560">
        <ele>1579.116</ele>
        <time>2018-09-10T06:54:50Z</time>
      </trkpt>
      <trkpt lat="46.632007" lon="12.591548">
        <ele>1579.576</ele>
        <time>2018-09-10T06:54:51Z</time>
      </trkpt>
      <trkpt lat="46.632003" lon="12.591530">
        <ele>1579.521</ele>
        <time>2018-09-10T06:54:52Z</time>
      </trkpt>
      <trkpt lat="46.631938" lon="12.591298">
        <ele>1583.499</ele>
        <time>2018-09-10T06:55:07Z</time>
      </trkpt>
      <trkpt lat="46.631933" lon="12.591281">
        <ele>1583.436</ele>
        <time>2018-09-10T06:55:08Z</time>
      </trkpt>
      <trkpt lat="46.631929" lon="12.591266">
        <ele>1583.917</ele>
        <time>2018-09-10T06:55:09Z</time>
      </trkpt>
      <trkpt lat="46.631889" lon="12.590950">
        <ele>1586.318</ele>
        <time>2018-09-10T06:55:28Z</time>
      </trkpt>
      <trkpt lat="46.631872" lon="12.590778">
        <ele>1586.308</ele>
        <time>2018-09-10T06:55:39Z</time>
      </trkpt>
      <trkpt lat="46.631866" lon="12.590761">
        <ele>1586.767</ele>
        <time>2018-09-10T06:55:40Z</time>
      </trkpt>
      <trkpt lat="46.631862" lon="12.590744">
        <ele>1586.759</ele>
        <time>2018-09-10T06:55:41Z</time>
      </trkpt>
      <trkpt lat="46.631861" lon="12.590724">
        <ele>1587.227</ele>
        <time>2018-09-10T06:55:42Z</time>
      </trkpt>
      <trkpt lat="46.631828" lon="12.590412">
        <ele>1593.022</ele>
        <time>2018-09-10T06:56:00Z</time>
      </trkpt>
      <trkpt lat="46.631866" lon="12.590101">
        <ele>1596.410</ele>
        <time>2018-09-10T06:56:17Z</time>
      </trkpt>
      <trkpt lat="46.631869" lon="12.590086">
        <ele>1596.440</ele>
        <time>2018-09-10T06:56:18Z</time>
      </trkpt>
      <trkpt lat="46.631881" lon="12.589834">
        <ele>1599.265</ele>
        <time>2018-09-10T06:56:35Z</time>
      </trkpt>
      <trkpt lat="46.631887" lon="12.589562">
        <ele>1603.193</ele>
        <time>2018-09-10T06:56:53Z</time>
      </trkpt>
      <trkpt lat="46.631898" lon="12.589507">
        <ele>1603.628</ele>
        <time>2018-09-10T06:56:57Z</time>
      </trkpt>
      <trkpt lat="46.631902" lon="12.589498">
        <ele>1604.189</ele>
        <time>2018-09-10T06:56:58Z</time>
      </trkpt>
      <trkpt lat="46.631896" lon="12.589283">
        <ele>1605.517</ele>
        <time>2018-09-10T06:57:14Z</time>
      </trkpt>
      <trkpt lat="46.631878" lon="12.589109">
        <ele>1606.908</ele>
        <time>2018-09-10T06:57:25Z</time>
      </trkpt>
      <trkpt lat="46.631874" lon="12.588903">
        <ele>1610.346</ele>
        <time>2018-09-10T06:57:41Z</time>
      </trkpt>
      <trkpt lat="46.631858" lon="12.588653">
        <ele>1613.738</ele>
        <time>2018-09-10T06:58:01Z</time>
      </trkpt>
      <trkpt lat="46.631832" lon="12.588427">
        <ele>1616.186</ele>
        <time>2018-09-10T06:58:21Z</time>
      </trkpt>
      <trkpt lat="46.631805" lon="12.588264">
        <ele>1619.041</ele>
        <time>2018-09-10T06:58:37Z</time>
      </trkpt>
      <trkpt lat="46.631771" lon="12.588146">
        <ele>1620.479</ele>
        <time>2018-09-10T06:58:52Z</time>
      </trkpt>
      <trkpt lat="46.631727" lon="12.587951">
        <ele>1622.329</ele>
        <time>2018-09-10T06:59:11Z</time>
      </trkpt>
      <trkpt lat="46.631722" lon="12.587764">
        <ele>1628.634</ele>
        <time>2018-09-10T06:59:28Z</time>
      </trkpt>
      <trkpt lat="46.631694" lon="12.587565">
        <ele>1629.532</ele>
        <time>2018-09-10T06:59:49Z</time>
      </trkpt>
      <trkpt lat="46.631684" lon="12.587376">
        <ele>1632.433</ele>
        <time>2018-09-10T07:00:07Z</time>
      </trkpt>
      <trkpt lat="46.631643" lon="12.587187">
        <ele>1636.323</ele>
        <time>2018-09-10T07:00:26Z</time>
      </trkpt>
      <trkpt lat="46.631551" lon="12.586989">
        <ele>1637.715</ele>
        <time>2018-09-10T07:00:44Z</time>
      </trkpt>
      <trkpt lat="46.631470" lon="12.586822">
        <ele>1639.108</ele>
        <time>2018-09-10T07:01:03Z</time>
      </trkpt>
      <trkpt lat="46.631387" lon="12.586635">
        <ele>1641.577</ele>
        <time>2018-09-10T07:01:22Z</time>
      </trkpt>
      <trkpt lat="46.631384" lon="12.586548">
        <ele>1642.059</ele>
        <time>2018-09-10T07:01:34Z</time>
      </trkpt>
      <trkpt lat="46.631364" lon="12.586286">
        <ele>1643.937</ele>
        <time>2018-09-10T07:01:50Z</time>
      </trkpt>
      <trkpt lat="46.631365" lon="12.586267">
        <ele>1644.452</ele>
        <time>2018-09-10T07:01:51Z</time>
      </trkpt>
      <trkpt lat="46.631364" lon="12.586248">
        <ele>1644.940</ele>
        <time>2018-09-10T07:01:52Z</time>
      </trkpt>
      <trkpt lat="46.631356" lon="12.586183">
        <ele>1645.960</ele>
        <time>2018-09-10T07:01:56Z</time>
      </trkpt>
      <trkpt lat="46.631353" lon="12.586137">
        <ele>1646.835</ele>
        <time>2018-09-10T07:01:59Z</time>
      </trkpt>
      <trkpt lat="46.631350" lon="12.586121">
        <ele>1647.313</ele>
        <time>2018-09-10T07:02:00Z</time>
      </trkpt>
      <trkpt lat="46.631353" lon="12.586072">
        <ele>1648.391</ele>
        <time>2018-09-10T07:02:03Z</time>
      </trkpt>
      <trkpt lat="46.631357" lon="12.586055">
        <ele>1648.381</ele>
        <time>2018-09-10T07:02:04Z</time>
      </trkpt>
      <trkpt lat="46.631359" lon="12.586039">
        <ele>1649.219</ele>
        <time>2018-09-10T07:02:05Z</time>
      </trkpt>
      <trkpt lat="46.631367" lon="12.585827">
        <ele>1653.108</ele>
        <time>2018-09-10T07:02:17Z</time>
      </trkpt>
      <trkpt lat="46.631373" lon="12.585811">
        <ele>1653.153</ele>
        <time>2018-09-10T07:02:18Z</time>
      </trkpt>
      <trkpt lat="46.631378" lon="12.585794">
        <ele>1653.145</ele>
        <time>2018-09-10T07:02:19Z</time>
      </trkpt>
      <trkpt lat="46.631383" lon="12.585777">
        <ele>1653.163</ele>
        <time>2018-09-10T07:02:20Z</time>
      </trkpt>
      <trkpt lat="46.631389" lon="12.585762">
        <ele>1653.628</ele>
        <time>2018-09-10T07:02:21Z</time>
      </trkpt>
      <trkpt lat="46.631516" lon="12.585584">
        <ele>1655.046</ele>
        <time>2018-09-10T07:02:37Z</time>
      </trkpt>
      <trkpt lat="46.631520" lon="12.585570">
        <ele>1655.036</ele>
        <time>2018-09-10T07:02:38Z</time>
      </trkpt>
      <trkpt lat="46.631534" lon="12.585532">
        <ele>1656.071</ele>
        <time>2018-09-10T07:02:41Z</time>
      </trkpt>
      <trkpt lat="46.631541" lon="12.585520">
        <ele>1656.089</ele>
        <time>2018-09-10T07:02:42Z</time>
      </trkpt>
      <trkpt lat="46.631624" lon="12.585334">
        <ele>1657.434</ele>
        <time>2018-09-10T07:02:57Z</time>
      </trkpt>
      <trkpt lat="46.631674" lon="12.585195">
        <ele>1657.455</ele>
        <time>2018-09-10T07:03:07Z</time>
      </trkpt>
      <trkpt lat="46.631680" lon="12.585184">
        <ele>1657.410</ele>
        <time>2018-09-10T07:03:08Z</time>
      </trkpt>
      <trkpt lat="46.631788" lon="12.584986">
        <ele>1659.308</ele>
        <time>2018-09-10T07:03:26Z</time>
      </trkpt>
      <trkpt lat="46.631821" lon="12.584937">
        <ele>1660.397</ele>
        <time>2018-09-10T07:03:31Z</time>
      </trkpt>
      <trkpt lat="46.631901" lon="12.584791">
        <ele>1661.729</ele>
        <time>2018-09-10T07:03:46Z</time>
      </trkpt>
      <trkpt lat="46.631945" lon="12.584714">
        <ele>1663.257</ele>
        <time>2018-09-10T07:03:57Z</time>
      </trkpt>
      <trkpt lat="46.632031" lon="12.584558">
        <ele>1665.172</ele>
        <time>2018-09-10T07:04:14Z</time>
      </trkpt>
      <trkpt lat="46.632111" lon="12.584424">
        <ele>1668.570</ele>
        <time>2018-09-10T07:04:30Z</time>
      </trkpt>
      <trkpt lat="46.632174" lon="12.584295">
        <ele>1671.810</ele>
        <time>2018-09-10T07:04:47Z</time>
      </trkpt>
      <trkpt lat="46.632217" lon="12.584193">
        <ele>1674.765</ele>
        <time>2018-09-10T07:05:00Z</time>
      </trkpt>
      <trkpt lat="46.632260" lon="12.584050">
        <ele>1678.113</ele>
        <time>2018-09-10T07:05:17Z</time>
      </trkpt>
      <trkpt lat="46.632339" lon="12.583904">
        <ele>1681.939</ele>
        <time>2018-09-10T07:05:35Z</time>
      </trkpt>
      <trkpt lat="46.632386" lon="12.583741">
        <ele>1684.801</ele>
        <time>2018-09-10T07:05:52Z</time>
      </trkpt>
      <trkpt lat="46.632410" lon="12.583583">
        <ele>1688.221</ele>
        <time>2018-09-10T07:06:08Z</time>
      </trkpt>
      <trkpt lat="46.632427" lon="12.583471">
        <ele>1691.108</ele>
        <time>2018-09-10T07:06:22Z</time>
      </trkpt>
      <trkpt lat="46.632404" lon="12.583337">
        <ele>1694.927</ele>
        <time>2018-09-10T07:06:37Z</time>
      </trkpt>
      <trkpt lat="46.632416" lon="12.583162">
        <ele>1697.829</ele>
        <time>2018-09-10T07:06:54Z</time>
      </trkpt>
      <trkpt lat="46.632424" lon="12.582997">
        <ele>1699.747</ele>
        <time>2018-09-10T07:07:09Z</time>
      </trkpt>
      <trkpt lat="46.632435" lon="12.582833">
        <ele>1701.672</ele>
        <time>2018-09-10T07:07:26Z</time>
      </trkpt>
      <trkpt lat="46.632442" lon="12.582666">
        <ele>1704.020</ele>
        <time>2018-09-10T07:07:43Z</time>
      </trkpt>
      <trkpt lat="46.632433" lon="12.582560">
        <ele>1704.080</ele>
        <time>2018-09-10T07:07:57Z</time>
      </trkpt>
      <trkpt lat="46.632434" lon="12.582545">
        <ele>1703.515</ele>
        <time>2018-09-10T07:07:58Z</time>
      </trkpt>
      <trkpt lat="46.632441" lon="12.582499">
        <ele>1704.023</ele>
        <time>2018-09-10T07:08:02Z</time>
      </trkpt>
      <trkpt lat="46.632445" lon="12.582484">
        <ele>1704.074</ele>
        <time>2018-09-10T07:08:03Z</time>
      </trkpt>
      <trkpt lat="46.632441" lon="12.582275">
        <ele>1704.056</ele>
        <time>2018-09-10T07:08:17Z</time>
      </trkpt>
      <trkpt lat="46.632428" lon="12.582210">
        <ele>1705.021</ele>
        <time>2018-09-10T07:08:22Z</time>
      </trkpt>
      <trkpt lat="46.632423" lon="12.582009">
        <ele>1708.408</ele>
        <time>2018-09-10T07:08:37Z</time>
      </trkpt>
      <trkpt lat="46.632432" lon="12.581814">
        <ele>1710.311</ele>
        <time>2018-09-10T07:08:53Z</time>
      </trkpt>
      <trkpt lat="46.632579" lon="12.581804">
        <ele>1713.263</ele>
        <time>2018-09-10T07:09:09Z</time>
      </trkpt>
      <trkpt lat="46.632606" lon="12.581800">
        <ele>1713.661</ele>
        <time>2018-09-10T07:09:12Z</time>
      </trkpt>
      <trkpt lat="46.632660" lon="12.581741">
        <ele>1716.026</ele>
        <time>2018-09-10T07:09:24Z</time>
      </trkpt>
      <trkpt lat="46.632700" lon="12.581571">
        <ele>1716.594</ele>
        <time>2018-09-10T07:09:43Z</time>
      </trkpt>
      <trkpt lat="46.632715" lon="12.581402">
        <ele>1718.444</ele>
        <time>2018-09-10T07:10:01Z</time>
      </trkpt>
      <trkpt lat="46.632703" lon="12.581263">
        <ele>1719.959</ele>
        <time>2018-09-10T07:10:16Z</time>
      </trkpt>
      <trkpt lat="46.632719" lon="12.581041">
        <ele>1721.877</ele>
        <time>2018-09-10T07:10:35Z</time>
      </trkpt>
      <trkpt lat="46.632757" lon="12.580878">
        <ele>1722.341</ele>
        <time>2018-09-10T07:10:52Z</time>
      </trkpt>
      <trkpt lat="46.632764" lon="12.580800">
        <ele>1722.381</ele>
        <time>2018-09-10T07:11:05Z</time>
      </trkpt>
      <trkpt lat="46.632754" lon="12.580748">
        <ele>1722.809</ele>
        <time>2018-09-10T07:11:09Z</time>
      </trkpt>
      <trkpt lat="46.632757" lon="12.580734">
        <ele>1722.808</ele>
        <time>2018-09-10T07:11:10Z</time>
      </trkpt>
      <trkpt lat="46.632757" lon="12.580718">
        <ele>1722.858</ele>
        <time>2018-09-10T07:11:11Z</time>
      </trkpt>
      <trkpt lat="46.632783" lon="12.580588">
        <ele>1722.870</ele>
        <time>2018-09-10T07:11:20Z</time>
      </trkpt>
      <trkpt lat="46.632782" lon="12.580573">
        <ele>1722.858</ele>
        <time>2018-09-10T07:11:21Z</time>
      </trkpt>
      <trkpt lat="46.632792" lon="12.580320">
        <ele>1725.253</ele>
        <time>2018-09-10T07:11:37Z</time>
      </trkpt>
      <trkpt lat="46.632808" lon="12.579945">
        <ele>1727.681</ele>
        <time>2018-09-10T07:11:55Z</time>
      </trkpt>
      <trkpt lat="46.632871" lon="12.579684">
        <ele>1731.931</ele>
        <time>2018-09-10T07:12:11Z</time>
      </trkpt>
      <trkpt lat="46.632946" lon="12.579541">
        <ele>1734.356</ele>
        <time>2018-09-10T07:12:25Z</time>
      </trkpt>
      <trkpt lat="46.633014" lon="12.579465">
        <ele>1736.724</ele>
        <time>2018-09-10T07:12:40Z</time>
      </trkpt>
      <trkpt lat="46.633082" lon="12.579390">
        <ele>1738.691</ele>
        <time>2018-09-10T07:12:56Z</time>
      </trkpt>
      <trkpt lat="46.633095" lon="12.579273">
        <ele>1740.681</ele>
        <time>2018-09-10T07:13:10Z</time>
      </trkpt>
      <trkpt lat="46.633119" lon="12.579139">
        <ele>1743.419</ele>
        <time>2018-09-10T07:13:25Z</time>
      </trkpt>
      <trkpt lat="46.633134" lon="12.579027">
        <ele>1745.408</ele>
        <time>2018-09-10T07:13:40Z</time>
      </trkpt>
      <trkpt lat="46.633174" lon="12.578883">
        <ele>1747.363</ele>
        <time>2018-09-10T07:13:57Z</time>
      </trkpt>
      <trkpt lat="46.633189" lon="12.578847">
        <ele>1748.225</ele>
        <time>2018-09-10T07:14:09Z</time>
      </trkpt>
      <trkpt lat="46.633207" lon="12.578675">
        <ele>1747.863</ele>
        <time>2018-09-10T07:14:21Z</time>
      </trkpt>
      <trkpt lat="46.633255" lon="12.578478">
        <ele>1750.738</ele>
        <time>2018-09-10T07:14:36Z</time>
      </trkpt>
      <trkpt lat="46.633258" lon="12.578459">
        <ele>1750.716</ele>
        <time>2018-09-10T07:14:37Z</time>
      </trkpt>
      <trkpt lat="46.633310" lon="12.578248">
        <ele>1753.176</ele>
        <time>2018-09-10T07:14:52Z</time>
      </trkpt>
      <trkpt lat="46.633325" lon="12.578194">
        <ele>1753.191</ele>
        <time>2018-09-10T07:14:56Z</time>
      </trkpt>
      <trkpt lat="46.633330" lon="12.578178">
        <ele>1753.149</ele>
        <time>2018-09-10T07:14:57Z</time>
      </trkpt>
      <trkpt lat="46.633392" lon="12.577960">
        <ele>1754.522</ele>
        <time>2018-09-10T07:15:13Z</time>
      </trkpt>
      <trkpt lat="46.633470" lon="12.577753">
        <ele>1757.462</ele>
        <time>2018-09-10T07:15:29Z</time>
      </trkpt>
      <trkpt lat="46.633557" lon="12.577541">
        <ele>1759.808</ele>
        <time>2018-09-10T07:15:45Z</time>
      </trkpt>
      <trkpt lat="46.633561" lon="12.577525">
        <ele>1759.808</ele>
        <time>2018-09-10T07:15:46Z</time>
      </trkpt>
      <trkpt lat="46.633565" lon="12.577513">
        <ele>1760.366</ele>
        <time>2018-09-10T07:15:47Z</time>
      </trkpt>
      <trkpt lat="46.633567" lon="12.577487">
        <ele>1760.328</ele>
        <time>2018-09-10T07:15:49Z</time>
      </trkpt>
      <trkpt lat="46.633573" lon="12.577460">
        <ele>1760.336</ele>
        <time>2018-09-10T07:15:51Z</time>
      </trkpt>
      <trkpt lat="46.633578" lon="12.577447">
        <ele>1760.321</ele>
        <time>2018-09-10T07:15:52Z</time>
      </trkpt>
      <trkpt lat="46.633582" lon="12.577433">
        <ele>1760.319</ele>
        <time>2018-09-10T07:15:53Z</time>
      </trkpt>
      <trkpt lat="46.633583" lon="12.577417">
        <ele>1760.369</ele>
        <time>2018-09-10T07:15:54Z</time>
      </trkpt>
      <trkpt lat="46.633587" lon="12.577402">
        <ele>1760.314</ele>
        <time>2018-09-10T07:15:55Z</time>
      </trkpt>
      <trkpt lat="46.633656" lon="12.577197">
        <ele>1762.742</ele>
        <time>2018-09-10T07:16:11Z</time>
      </trkpt>
      <trkpt lat="46.633714" lon="12.576931">
        <ele>1764.688</ele>
        <time>2018-09-10T07:16:28Z</time>
      </trkpt>
      <trkpt lat="46.633728" lon="12.576761">
        <ele>1765.124</ele>
        <time>2018-09-10T07:16:43Z</time>
      </trkpt>
      <trkpt lat="46.633754" lon="12.576698">
        <ele>1764.126</ele>
        <time>2018-09-10T07:17:20Z</time>
      </trkpt>
      <trkpt lat="46.633755" lon="12.576521">
        <ele>1771.308</ele>
        <time>2018-09-10T07:17:40Z</time>
      </trkpt>
      <trkpt lat="46.633767" lon="12.576388">
        <ele>1774.732</ele>
        <time>2018-09-10T07:17:57Z</time>
      </trkpt>
      <trkpt lat="46.633774" lon="12.576270">
        <ele>1776.194</ele>
        <time>2018-09-10T07:18:12Z</time>
      </trkpt>
      <trkpt lat="46.633769" lon="12.576146">
        <ele>1780.032</ele>
        <time>2018-09-10T07:18:28Z</time>
      </trkpt>
      <trkpt lat="46.633729" lon="12.576003">
        <ele>1780.577</ele>
        <time>2018-09-10T07:18:42Z</time>
      </trkpt>
      <trkpt lat="46.633674" lon="12.575841">
        <ele>1783.385</ele>
        <time>2018-09-10T07:18:59Z</time>
      </trkpt>
      <trkpt lat="46.633712" lon="12.575716">
        <ele>1784.365</ele>
        <time>2018-09-10T07:19:15Z</time>
      </trkpt>
      <trkpt lat="46.633788" lon="12.575782">
        <ele>1785.320</ele>
        <time>2018-09-10T07:19:32Z</time>
      </trkpt>
      <trkpt lat="46.633913" lon="12.575882">
        <ele>1787.758</ele>
        <time>2018-09-10T07:19:50Z</time>
      </trkpt>
      <trkpt lat="46.634030" lon="12.575911">
        <ele>1787.292</ele>
        <time>2018-09-10T07:20:04Z</time>
      </trkpt>
      <trkpt lat="46.634085" lon="12.576064">
        <ele>1789.173</ele>
        <time>2018-09-10T07:20:21Z</time>
      </trkpt>
      <trkpt lat="46.634136" lon="12.576234">
        <ele>1790.120</ele>
        <time>2018-09-10T07:20:39Z</time>
      </trkpt>
      <trkpt lat="46.634187" lon="12.576408">
        <ele>1792.508</ele>
        <time>2018-09-10T07:20:58Z</time>
      </trkpt>
      <trkpt lat="46.634288" lon="12.576563">
        <ele>1794.483</ele>
        <time>2018-09-10T07:21:15Z</time>
      </trkpt>
      <trkpt lat="46.634386" lon="12.576669">
        <ele>1795.865</ele>
        <time>2018-09-10T07:21:32Z</time>
      </trkpt>
      <trkpt lat="46.634505" lon="12.576676">
        <ele>1798.223</ele>
        <time>2018-09-10T07:21:49Z</time>
      </trkpt>
      <trkpt lat="46.634618" lon="12.576559">
        <ele>1801.188</ele>
        <time>2018-09-10T07:22:09Z</time>
      </trkpt>
      <trkpt lat="46.634628" lon="12.576373">
        <ele>1803.056</ele>
        <time>2018-09-10T07:22:26Z</time>
      </trkpt>
      <trkpt lat="46.634618" lon="12.576229">
        <ele>1804.576</ele>
        <time>2018-09-10T07:22:40Z</time>
      </trkpt>
      <trkpt lat="46.634622" lon="12.576027">
        <ele>1806.941</ele>
        <time>2018-09-10T07:22:59Z</time>
      </trkpt>
      <trkpt lat="46.634608" lon="12.575903">
        <ele>1808.819</ele>
        <time>2018-09-10T07:23:16Z</time>
      </trkpt>
      <trkpt lat="46.634600" lon="12.575838">
        <ele>1809.314</ele>
        <time>2018-09-10T07:23:28Z</time>
      </trkpt>
      <trkpt lat="46.634600" lon="12.575822">
        <ele>1809.354</ele>
        <time>2018-09-10T07:23:29Z</time>
      </trkpt>
      <trkpt lat="46.634553" lon="12.575561">
        <ele>1810.709</ele>
        <time>2018-09-10T07:23:45Z</time>
      </trkpt>
      <trkpt lat="46.634500" lon="12.575287">
        <ele>1813.608</ele>
        <time>2018-09-10T07:24:04Z</time>
      </trkpt>
      <trkpt lat="46.634415" lon="12.575101">
        <ele>1816.565</ele>
        <time>2018-09-10T07:24:19Z</time>
      </trkpt>
      <trkpt lat="46.634350" lon="12.574929">
        <ele>1817.917</ele>
        <time>2018-09-10T07:24:35Z</time>
      </trkpt>
      <trkpt lat="46.634299" lon="12.574848">
        <ele>1819.495</ele>
        <time>2018-09-10T07:24:46Z</time>
      </trkpt>
      <trkpt lat="46.634259" lon="12.574750">
        <ele>1821.310</ele>
        <time>2018-09-10T07:25:01Z</time>
      </trkpt>
      <trkpt lat="46.634241" lon="12.574638">
        <ele>1823.758</ele>
        <time>2018-09-10T07:25:15Z</time>
      </trkpt>
      <trkpt lat="46.634306" lon="12.574656">
        <ele>1824.718</ele>
        <time>2018-09-10T07:25:30Z</time>
      </trkpt>
      <trkpt lat="46.634313" lon="12.574667">
        <ele>1824.763</ele>
        <time>2018-09-10T07:25:31Z</time>
      </trkpt>
      <trkpt lat="46.634322" lon="12.574681">
        <ele>1824.721</ele>
        <time>2018-09-10T07:25:32Z</time>
      </trkpt>
      <trkpt lat="46.634333" lon="12.574693">
        <ele>1824.795</ele>
        <time>2018-09-10T07:25:33Z</time>
      </trkpt>
      <trkpt lat="46.634346" lon="12.574701">
        <ele>1824.749</ele>
        <time>2018-09-10T07:25:34Z</time>
      </trkpt>
      <trkpt lat="46.634361" lon="12.574711">
        <ele>1824.723</ele>
        <time>2018-09-10T07:25:35Z</time>
      </trkpt>
      <trkpt lat="46.634572" lon="12.574853">
        <ele>1828.008</ele>
        <time>2018-09-10T07:25:53Z</time>
      </trkpt>
      <trkpt lat="46.634734" lon="12.575019">
        <ele>1828.543</ele>
        <time>2018-09-10T07:26:10Z</time>
      </trkpt>
      <trkpt lat="46.634807" lon="12.575125">
        <ele>1831.445</ele>
        <time>2018-09-10T07:26:24Z</time>
      </trkpt>
      <trkpt lat="46.634860" lon="12.575259">
        <ele>1832.843</ele>
        <time>2018-09-10T07:26:39Z</time>
      </trkpt>
      <trkpt lat="46.634940" lon="12.575356">
        <ele>1833.888</ele>
        <time>2018-09-10T07:26:56Z</time>
      </trkpt>
      <trkpt lat="46.635079" lon="12.575348">
        <ele>1836.726</ele>
        <time>2018-09-10T07:27:16Z</time>
      </trkpt>
      <trkpt lat="46.635075" lon="12.575241">
        <ele>1839.156</ele>
        <time>2018-09-10T07:27:30Z</time>
      </trkpt>
      <trkpt lat="46.635038" lon="12.575180">
        <ele>1840.571</ele>
        <time>2018-09-10T07:27:39Z</time>
      </trkpt>
      <trkpt lat="46.635050" lon="12.575037">
        <ele>1841.049</ele>
        <time>2018-09-10T07:27:54Z</time>
      </trkpt>
      <trkpt lat="46.634994" lon="12.574854">
        <ele>1842.051</ele>
        <time>2018-09-10T07:28:11Z</time>
      </trkpt>
      <trkpt lat="46.634957" lon="12.574713">
        <ele>1844.401</ele>
        <time>2018-09-10T07:28:27Z</time>
      </trkpt>
      <trkpt lat="46.635014" lon="12.574626">
        <ele>1847.311</ele>
        <time>2018-09-10T07:28:43Z</time>
      </trkpt>
      <trkpt lat="46.635090" lon="12.574558">
        <ele>1850.108</ele>
        <time>2018-09-10T07:29:00Z</time>
      </trkpt>
      <trkpt lat="46.635141" lon="12.574471">
        <ele>1852.619</ele>
        <time>2018-09-10T07:29:14Z</time>
      </trkpt>
      <trkpt lat="46.635103" lon="12.574303">
        <ele>1853.531</ele>
        <time>2018-09-10T07:29:31Z</time>
      </trkpt>
      <trkpt lat="46.635074" lon="12.574276">
        <ele>1854.019</ele>
        <time>2018-09-10T07:29:35Z</time>
      </trkpt>
      <trkpt lat="46.634943" lon="12.574243">
        <ele>1856.924</ele>
        <time>2018-09-10T07:29:53Z</time>
      </trkpt>
      <trkpt lat="46.634913" lon="12.574212">
        <ele>1857.432</ele>
        <time>2018-09-10T07:29:59Z</time>
      </trkpt>
      <trkpt lat="46.634930" lon="12.574142">
        <ele>1857.452</ele>
        <time>2018-09-10T07:30:11Z</time>
      </trkpt>
      <trkpt lat="46.634990" lon="12.574081">
        <ele>1859.357</ele>
        <time>2018-09-10T07:30:20Z</time>
      </trkpt>
      <trkpt lat="46.635065" lon="12.574036">
        <ele>1859.385</ele>
        <time>2018-09-10T07:30:34Z</time>
      </trkpt>
      <trkpt lat="46.635077" lon="12.574041">
        <ele>1859.369</ele>
        <time>2018-09-10T07:30:35Z</time>
      </trkpt>
      <trkpt lat="46.635091" lon="12.574045">
        <ele>1859.304</ele>
        <time>2018-09-10T07:30:36Z</time>
      </trkpt>
      <trkpt lat="46.635106" lon="12.574052">
        <ele>1859.324</ele>
        <time>2018-09-10T07:30:37Z</time>
      </trkpt>
      <trkpt lat="46.635119" lon="12.574054">
        <ele>1859.308</ele>
        <time>2018-09-10T07:30:38Z</time>
      </trkpt>
      <trkpt lat="46.635133" lon="12.574058">
        <ele>1859.810</ele>
        <time>2018-09-10T07:30:39Z</time>
      </trkpt>
      <trkpt lat="46.635145" lon="12.574062">
        <ele>1860.252</ele>
        <time>2018-09-10T07:30:40Z</time>
      </trkpt>
      <trkpt lat="46.635291" lon="12.574078">
        <ele>1862.270</ele>
        <time>2018-09-10T07:30:55Z</time>
      </trkpt>
      <trkpt lat="46.635307" lon="12.574016">
        <ele>1863.695</ele>
        <time>2018-09-10T07:31:09Z</time>
      </trkpt>
      <trkpt lat="46.635203" lon="12.573937">
        <ele>1866.573</ele>
        <time>2018-09-10T07:31:26Z</time>
      </trkpt>
      <trkpt lat="46.635118" lon="12.573858">
        <ele>1868.423</ele>
        <time>2018-09-10T07:31:42Z</time>
      </trkpt>
      <trkpt lat="46.635047" lon="12.573723">
        <ele>1869.918</ele>
        <time>2018-09-10T07:32:00Z</time>
      </trkpt>
      <trkpt lat="46.634961" lon="12.573590">
        <ele>1870.886</ele>
        <time>2018-09-10T07:32:18Z</time>
      </trkpt>
      <trkpt lat="46.634848" lon="12.573659">
        <ele>1873.744</ele>
        <time>2018-09-10T07:32:36Z</time>
      </trkpt>
      <trkpt lat="46.634789" lon="12.573607">
        <ele>1877.505</ele>
        <time>2018-09-10T07:32:53Z</time>
      </trkpt>
      <trkpt lat="46.634814" lon="12.573542">
        <ele>1878.015</ele>
        <time>2018-09-10T07:33:05Z</time>
      </trkpt>
      <trkpt lat="46.634842" lon="12.573418">
        <ele>1880.008</ele>
        <time>2018-09-10T07:33:21Z</time>
      </trkpt>
      <trkpt lat="46.634872" lon="12.573349">
        <ele>1881.978</ele>
        <time>2018-09-10T07:33:33Z</time>
      </trkpt>
      <trkpt lat="46.634917" lon="12.573271">
        <ele>1885.260</ele>
        <time>2018-09-10T07:33:50Z</time>
      </trkpt>
      <trkpt lat="46.634939" lon="12.573224">
        <ele>1886.788</ele>
        <time>2018-09-10T07:34:04Z</time>
      </trkpt>
      <trkpt lat="46.634987" lon="12.573232">
        <ele>1887.243</ele>
        <time>2018-09-10T07:34:17Z</time>
      </trkpt>
      <trkpt lat="46.635032" lon="12.573257">
        <ele>1887.691</ele>
        <time>2018-09-10T07:34:31Z</time>
      </trkpt>
      <trkpt lat="46.635081" lon="12.573261">
        <ele>1888.141</ele>
        <time>2018-09-10T07:34:47Z</time>
      </trkpt>
      <trkpt lat="46.635088" lon="12.573168">
        <ele>1890.086</ele>
        <time>2018-09-10T07:35:00Z</time>
      </trkpt>
      <trkpt lat="46.635034" lon="12.573056">
        <ele>1891.534</ele>
        <time>2018-09-10T07:35:15Z</time>
      </trkpt>
      <trkpt lat="46.634972" lon="12.572896">
        <ele>1892.994</ele>
        <time>2018-09-10T07:35:32Z</time>
      </trkpt>
      <trkpt lat="46.634920" lon="12.572777">
        <ele>1894.957</ele>
        <time>2018-09-10T07:35:49Z</time>
      </trkpt>
      <trkpt lat="46.634901" lon="12.572722">
        <ele>1897.322</ele>
        <time>2018-09-10T07:36:01Z</time>
      </trkpt>
      <trkpt lat="46.634861" lon="12.572658">
        <ele>1899.208</ele>
        <time>2018-09-10T07:36:14Z</time>
      </trkpt>
      <trkpt lat="46.634873" lon="12.572576">
        <ele>1900.113</ele>
        <time>2018-09-10T07:36:29Z</time>
      </trkpt>
      <trkpt lat="46.634934" lon="12.572528">
        <ele>1902.185</ele>
        <time>2018-09-10T07:36:45Z</time>
      </trkpt>
      <trkpt lat="46.634988" lon="12.572537">
        <ele>1904.593</ele>
        <time>2018-09-10T07:37:01Z</time>
      </trkpt>
      <trkpt lat="46.635036" lon="12.572505">
        <ele>1905.428</ele>
        <time>2018-09-10T07:37:16Z</time>
      </trkpt>
      <trkpt lat="46.635049" lon="12.572462">
        <ele>1905.936</ele>
        <time>2018-09-10T07:37:31Z</time>
      </trkpt>
      <trkpt lat="46.635032" lon="12.572418">
        <ele>1907.336</ele>
        <time>2018-09-10T07:37:45Z</time>
      </trkpt>
      <trkpt lat="46.635026" lon="12.572328">
        <ele>1909.381</ele>
        <time>2018-09-10T07:38:00Z</time>
      </trkpt>
      <trkpt lat="46.635011" lon="12.572257">
        <ele>1910.249</ele>
        <time>2018-09-10T07:38:13Z</time>
      </trkpt>
      <trkpt lat="46.634987" lon="12.572165">
        <ele>1910.799</ele>
        <time>2018-09-10T07:38:30Z</time>
      </trkpt>
      <trkpt lat="46.634959" lon="12.572042">
        <ele>1913.607</ele>
        <time>2018-09-10T07:38:47Z</time>
      </trkpt>
      <trkpt lat="46.634952" lon="12.571936">
        <ele>1916.527</ele>
        <time>2018-09-10T07:39:02Z</time>
      </trkpt>
      <trkpt lat="46.634946" lon="12.571805">
        <ele>1918.408</ele>
        <time>2018-09-10T07:39:18Z</time>
      </trkpt>
      <trkpt lat="46.634931" lon="12.571687">
        <ele>1920.363</ele>
        <time>2018-09-10T07:39:36Z</time>
      </trkpt>
      <trkpt lat="46.634906" lon="12.571592">
        <ele>1921.885</ele>
        <time>2018-09-10T07:39:51Z</time>
      </trkpt>
      <trkpt lat="46.634909" lon="12.571499">
        <ele>1923.783</ele>
        <time>2018-09-10T07:40:08Z</time>
      </trkpt>
      <trkpt lat="46.634898" lon="12.571431">
        <ele>1927.198</ele>
        <time>2018-09-10T07:40:25Z</time>
      </trkpt>
      <trkpt lat="46.634901" lon="12.571382">
        <ele>1927.556</ele>
        <time>2018-09-10T07:40:45Z</time>
      </trkpt>
      <trkpt lat="46.634924" lon="12.571290">
        <ele>1929.956</ele>
        <time>2018-09-10T07:40:59Z</time>
      </trkpt>
      <trkpt lat="46.634932" lon="12.571211">
        <ele>1929.981</ele>
        <time>2018-09-10T07:41:06Z</time>
      </trkpt>
      <trkpt lat="46.634924" lon="12.571067">
        <ele>1929.519</ele>
        <time>2018-09-10T07:41:18Z</time>
      </trkpt>
      <trkpt lat="46.634897" lon="12.570890">
        <ele>1932.377</ele>
        <time>2018-09-10T07:41:33Z</time>
      </trkpt>
      <trkpt lat="46.634869" lon="12.570662">
        <ele>1935.261</ele>
        <time>2018-09-10T07:41:52Z</time>
      </trkpt>
      <trkpt lat="46.634903" lon="12.570476">
        <ele>1937.127</ele>
        <time>2018-09-10T07:42:13Z</time>
      </trkpt>
      <trkpt lat="46.634907" lon="12.570333">
        <ele>1939.108</ele>
        <time>2018-09-10T07:42:31Z</time>
      </trkpt>
      <trkpt lat="46.634919" lon="12.570205">
        <ele>1942.451</ele>
        <time>2018-09-10T07:42:51Z</time>
      </trkpt>
      <trkpt lat="46.634913" lon="12.570148">
        <ele>1942.413</ele>
        <time>2018-09-10T07:43:07Z</time>
      </trkpt>
      <trkpt lat="46.634887" lon="12.570072">
        <ele>1942.461</ele>
        <time>2018-09-10T07:43:15Z</time>
      </trkpt>
      <trkpt lat="46.634849" lon="12.569804">
        <ele>1942.936</ele>
        <time>2018-09-10T07:43:31Z</time>
      </trkpt>
      <trkpt lat="46.634874" lon="12.569606">
        <ele>1944.424</ele>
        <time>2018-09-10T07:43:43Z</time>
      </trkpt>
      <trkpt lat="46.634869" lon="12.569584">
        <ele>1944.434</ele>
        <time>2018-09-10T07:43:44Z</time>
      </trkpt>
      <trkpt lat="46.634862" lon="12.569566">
        <ele>1944.829</ele>
        <time>2018-09-10T07:43:45Z</time>
      </trkpt>
      <trkpt lat="46.634834" lon="12.569501">
        <ele>1945.877</ele>
        <time>2018-09-10T07:43:49Z</time>
      </trkpt>
      <trkpt lat="46.634825" lon="12.569484">
        <ele>1945.825</ele>
        <time>2018-09-10T07:43:50Z</time>
      </trkpt>
      <trkpt lat="46.634818" lon="12.569462">
        <ele>1945.826</ele>
        <time>2018-09-10T07:43:51Z</time>
      </trkpt>
      <trkpt lat="46.634814" lon="12.569435">
        <ele>1945.808</ele>
        <time>2018-09-10T07:43:52Z</time>
      </trkpt>
      <trkpt lat="46.634812" lon="12.569411">
        <ele>1945.308</ele>
        <time>2018-09-10T07:43:53Z</time>
      </trkpt>
      <trkpt lat="46.634811" lon="12.569392">
        <ele>1945.376</ele>
        <time>2018-09-10T07:43:54Z</time>
      </trkpt>
      <trkpt lat="46.634773" lon="12.569174">
        <ele>1945.338</ele>
        <time>2018-09-10T07:44:07Z</time>
      </trkpt>
      <trkpt lat="46.634755" lon="12.569008">
        <ele>1946.356</ele>
        <time>2018-09-10T07:44:16Z</time>
      </trkpt>
      <trkpt lat="46.634749" lon="12.568990">
        <ele>1946.361</ele>
        <time>2018-09-10T07:44:17Z</time>
      </trkpt>
      <trkpt lat="46.634743" lon="12.568974">
        <ele>1946.869</ele>
        <time>2018-09-10T07:44:18Z</time>
      </trkpt>
      <trkpt lat="46.634716" lon="12.568932">
        <ele>1948.229</ele>
        <time>2018-09-10T07:44:27Z</time>
      </trkpt>
      <trkpt lat="46.634691" lon="12.568808">
        <ele>1949.664</ele>
        <time>2018-09-10T07:44:40Z</time>
      </trkpt>
      <trkpt lat="46.634685" lon="12.568669">
        <ele>1952.582</ele>
        <time>2018-09-10T07:44:57Z</time>
      </trkpt>
      <trkpt lat="46.634666" lon="12.568593">
        <ele>1953.555</ele>
        <time>2018-09-10T07:45:09Z</time>
      </trkpt>
      <trkpt lat="46.634690" lon="12.568435">
        <ele>1956.407</ele>
        <time>2018-09-10T07:45:26Z</time>
      </trkpt>
      <trkpt lat="46.634703" lon="12.568326">
        <ele>1957.317</ele>
        <time>2018-09-10T07:45:41Z</time>
      </trkpt>
      <trkpt lat="46.634723" lon="12.568159">
        <ele>1958.308</ele>
        <time>2018-09-10T07:45:58Z</time>
      </trkpt>
      <trkpt lat="46.634727" lon="12.568014">
        <ele>1958.889</ele>
        <time>2018-09-10T07:46:09Z</time>
      </trkpt>
      <trkpt lat="46.634732" lon="12.567998">
        <ele>1958.891</ele>
        <time>2018-09-10T07:46:10Z</time>
      </trkpt>
      <trkpt lat="46.634731" lon="12.567981">
        <ele>1958.889</ele>
        <time>2018-09-10T07:46:11Z</time>
      </trkpt>
      <trkpt lat="46.634732" lon="12.567965">
        <ele>1958.854</ele>
        <time>2018-09-10T07:46:12Z</time>
      </trkpt>
      <trkpt lat="46.634783" lon="12.567814">
        <ele>1960.282</ele>
        <time>2018-09-10T07:46:26Z</time>
      </trkpt>
      <trkpt lat="46.634798" lon="12.567616">
        <ele>1960.262</ele>
        <time>2018-09-10T07:46:41Z</time>
      </trkpt>
      <trkpt lat="46.634786" lon="12.567356">
        <ele>1962.157</ele>
        <time>2018-09-10T07:46:59Z</time>
      </trkpt>
      <trkpt lat="46.634805" lon="12.567111">
        <ele>1964.115</ele>
        <time>2018-09-10T07:47:20Z</time>
      </trkpt>
      <trkpt lat="46.634799" lon="12.566966">
        <ele>1967.486</ele>
        <time>2018-09-10T07:47:34Z</time>
      </trkpt>
      <trkpt lat="46.634812" lon="12.566783">
        <ele>1970.360</ele>
        <time>2018-09-10T07:47:49Z</time>
      </trkpt>
      <trkpt lat="46.634781" lon="12.566637">
        <ele>1972.226</ele>
        <time>2018-09-10T07:48:04Z</time>
      </trkpt>
      <trkpt lat="46.634768" lon="12.566514">
        <ele>1973.708</ele>
        <time>2018-09-10T07:48:19Z</time>
      </trkpt>
      <trkpt lat="46.634754" lon="12.566370">
        <ele>1976.182</ele>
        <time>2018-09-10T07:48:34Z</time>
      </trkpt>
      <trkpt lat="46.634736" lon="12.566249">
        <ele>1978.074</ele>
        <time>2018-09-10T07:48:48Z</time>
      </trkpt>
      <trkpt lat="46.634743" lon="12.566115">
        <ele>1980.472</ele>
        <time>2018-09-10T07:49:02Z</time>
      </trkpt>
      <trkpt lat="46.634741" lon="12.565913">
        <ele>1981.427</ele>
        <time>2018-09-10T07:49:21Z</time>
      </trkpt>
      <trkpt lat="46.634737" lon="12.565751">
        <ele>1983.855</ele>
        <time>2018-09-10T07:49:37Z</time>
      </trkpt>
      <trkpt lat="46.634721" lon="12.565712">
        <ele>1983.385</ele>
        <time>2018-09-10T07:49:58Z</time>
      </trkpt>
      <trkpt lat="46.634735" lon="12.565625">
        <ele>1985.260</ele>
        <time>2018-09-10T07:50:13Z</time>
      </trkpt>
      <trkpt lat="46.634743" lon="12.565518">
        <ele>1987.188</ele>
        <time>2018-09-10T07:50:27Z</time>
      </trkpt>
      <trkpt lat="46.634719" lon="12.565423">
        <ele>1989.539</ele>
        <time>2018-09-10T07:50:41Z</time>
      </trkpt>
      <trkpt lat="46.634701" lon="12.565335">
        <ele>1991.001</ele>
        <time>2018-09-10T07:50:55Z</time>
      </trkpt>
      <trkpt lat="46.634735" lon="12.565292">
        <ele>1992.921</ele>
        <time>2018-09-10T07:51:10Z</time>
      </trkpt>
      <trkpt lat="46.634782" lon="12.565295">
        <ele>1993.908</ele>
        <time>2018-09-10T07:51:22Z</time>
      </trkpt>
      <trkpt lat="46.634826" lon="12.565290">
        <ele>1996.837</ele>
        <time>2018-09-10T07:51:36Z</time>
      </trkpt>
      <trkpt lat="46.634855" lon="12.565300">
        <ele>1998.759</ele>
        <time>2018-09-10T07:51:49Z</time>
      </trkpt>
      <trkpt lat="46.634867" lon="12.565307">
        <ele>1997.737</ele>
        <time>2018-09-10T07:52:07Z</time>
      </trkpt>
      <trkpt lat="46.634893" lon="12.565247">
        <ele>1998.762</ele>
        <time>2018-09-10T07:52:19Z</time>
      </trkpt>
      <trkpt lat="46.634913" lon="12.565169">
        <ele>2000.170</ele>
        <time>2018-09-10T07:52:31Z</time>
      </trkpt>
      <trkpt lat="46.634937" lon="12.565092">
        <ele>2001.160</ele>
        <time>2018-09-10T07:52:45Z</time>
      </trkpt>
      <trkpt lat="46.634933" lon="12.565033">
        <ele>2002.555</ele>
        <time>2018-09-10T07:52:56Z</time>
      </trkpt>
      <trkpt lat="46.634900" lon="12.564962">
        <ele>2004.433</ele>
        <time>2018-09-10T07:53:12Z</time>
      </trkpt>
      <trkpt lat="46.634856" lon="12.564907">
        <ele>2005.483</ele>
        <time>2018-09-10T07:53:27Z</time>
      </trkpt>
      <trkpt lat="46.634817" lon="12.564892">
        <ele>2004.925</ele>
        <time>2018-09-10T07:53:41Z</time>
      </trkpt>
      <trkpt lat="46.634817" lon="12.564829">
        <ele>2008.817</ele>
        <time>2018-09-10T07:54:03Z</time>
      </trkpt>
      <trkpt lat="46.634795" lon="12.564779">
        <ele>2009.708</ele>
        <time>2018-09-10T07:54:16Z</time>
      </trkpt>
      <trkpt lat="46.634771" lon="12.564739">
        <ele>2011.262</ele>
        <time>2018-09-10T07:54:27Z</time>
      </trkpt>
      <trkpt lat="46.634738" lon="12.564659">
        <ele>2013.654</ele>
        <time>2018-09-10T07:54:41Z</time>
      </trkpt>
      <trkpt lat="46.634722" lon="12.564620">
        <ele>2014.582</ele>
        <time>2018-09-10T07:54:54Z</time>
      </trkpt>
      <trkpt lat="46.634748" lon="12.564608">
        <ele>2015.527</ele>
        <time>2018-09-10T07:55:10Z</time>
      </trkpt>
      <trkpt lat="46.634751" lon="12.564542">
        <ele>2017.995</ele>
        <time>2018-09-10T07:55:25Z</time>
      </trkpt>
      <trkpt lat="46.634730" lon="12.564477">
        <ele>2018.995</ele>
        <time>2018-09-10T07:55:40Z</time>
      </trkpt>
      <trkpt lat="46.634718" lon="12.564428">
        <ele>2019.320</ele>
        <time>2018-09-10T07:55:53Z</time>
      </trkpt>
      <trkpt lat="46.634681" lon="12.564367">
        <ele>2020.318</ele>
        <time>2018-09-10T07:56:06Z</time>
      </trkpt>
      <trkpt lat="46.634682" lon="12.564312">
        <ele>2022.799</ele>
        <time>2018-09-10T07:56:21Z</time>
      </trkpt>
      <trkpt lat="46.634658" lon="12.564246">
        <ele>2023.707</ele>
        <time>2018-09-10T07:56:34Z</time>
      </trkpt>
      <trkpt lat="46.634642" lon="12.564199">
        <ele>2025.127</ele>
        <time>2018-09-10T07:56:47Z</time>
      </trkpt>
      <trkpt lat="46.634610" lon="12.564087">
        <ele>2026.108</ele>
        <time>2018-09-10T07:57:03Z</time>
      </trkpt>
      <trkpt lat="46.634562" lon="12.563958">
        <ele>2028.063</ele>
        <time>2018-09-10T07:57:22Z</time>
      </trkpt>
      <trkpt lat="46.634513" lon="12.563862">
        <ele>2030.495</ele>
        <time>2018-09-10T07:57:39Z</time>
      </trkpt>
      <trkpt lat="46.634483" lon="12.563786">
        <ele>2032.353</ele>
        <time>2018-09-10T07:57:54Z</time>
      </trkpt>
      <trkpt lat="46.634434" lon="12.563689">
        <ele>2036.278</ele>
        <time>2018-09-10T07:58:12Z</time>
      </trkpt>
      <trkpt lat="46.634386" lon="12.563594">
        <ele>2038.176</ele>
        <time>2018-09-10T07:58:29Z</time>
      </trkpt>
      <trkpt lat="46.634361" lon="12.563483">
        <ele>2039.096</ele>
        <time>2018-09-10T07:58:45Z</time>
      </trkpt>
      <trkpt lat="46.634386" lon="12.563457">
        <ele>2039.061</ele>
        <time>2018-09-10T07:59:02Z</time>
      </trkpt>
      <trkpt lat="46.634420" lon="12.563475">
        <ele>2036.699</ele>
        <time>2018-09-10T07:59:37Z</time>
      </trkpt>
      <trkpt lat="46.634424" lon="12.563465">
        <ele>2040.039</ele>
        <time>2018-09-10T08:00:08Z</time>
      </trkpt>
      <trkpt lat="46.634440" lon="12.563474">
        <ele>2039.501</ele>
        <time>2018-09-10T08:00:41Z</time>
      </trkpt>
      <trkpt lat="46.634446" lon="12.563477">
        <ele>2041.921</ele>
        <time>2018-09-10T08:01:31Z</time>
      </trkpt>
      <trkpt lat="46.634428" lon="12.563493">
        <ele>2041.908</ele>
        <time>2018-09-10T08:02:08Z</time>
      </trkpt>
      <trkpt lat="46.634402" lon="12.563376">
        <ele>2042.447</ele>
        <time>2018-09-10T08:02:24Z</time>
      </trkpt>
      <trkpt lat="46.634421" lon="12.563271">
        <ele>2040.559</ele>
        <time>2018-09-10T08:02:37Z</time>
      </trkpt>
      <trkpt lat="46.634502" lon="12.563054">
        <ele>2034.727</ele>
        <time>2018-09-10T08:02:54Z</time>
      </trkpt>
      <trkpt lat="46.634510" lon="12.563042">
        <ele>2034.732</ele>
        <time>2018-09-10T08:02:55Z</time>
      </trkpt>
      <trkpt lat="46.634517" lon="12.563029">
        <ele>2034.230</ele>
        <time>2018-09-10T08:02:56Z</time>
      </trkpt>
      <trkpt lat="46.634538" lon="12.562994">
        <ele>2033.360</ele>
        <time>2018-09-10T08:02:59Z</time>
      </trkpt>
      <trkpt lat="46.634643" lon="12.562886">
        <ele>2028.525</ele>
        <time>2018-09-10T08:03:14Z</time>
      </trkpt>
      <trkpt lat="46.634652" lon="12.562883">
        <ele>2028.583</ele>
        <time>2018-09-10T08:03:15Z</time>
      </trkpt>
      <trkpt lat="46.634663" lon="12.562877">
        <ele>2028.045</ele>
        <time>2018-09-10T08:03:16Z</time>
      </trkpt>
      <trkpt lat="46.634673" lon="12.562870">
        <ele>2028.047</ele>
        <time>2018-09-10T08:03:17Z</time>
      </trkpt>
      <trkpt lat="46.634683" lon="12.562862">
        <ele>2027.511</ele>
        <time>2018-09-10T08:03:18Z</time>
      </trkpt>
      <trkpt lat="46.634753" lon="12.562783">
        <ele>2024.608</ele>
        <time>2018-09-10T08:03:30Z</time>
      </trkpt>
      <trkpt lat="46.634730" lon="12.562686">
        <ele>2022.238</ele>
        <time>2018-09-10T08:03:42Z</time>
      </trkpt>
      <trkpt lat="46.634745" lon="12.562584">
        <ele>2020.320</ele>
        <time>2018-09-10T08:03:49Z</time>
      </trkpt>
      <trkpt lat="46.634759" lon="12.562559">
        <ele>2019.368</ele>
        <time>2018-09-10T08:03:52Z</time>
      </trkpt>
      <trkpt lat="46.634815" lon="12.562551">
        <ele>2016.593</ele>
        <time>2018-09-10T08:04:02Z</time>
      </trkpt>
      <trkpt lat="46.634852" lon="12.562562">
        <ele>2015.591</ele>
        <time>2018-09-10T08:04:27Z</time>
      </trkpt>
      <trkpt lat="46.634862" lon="12.562568">
        <ele>2015.591</ele>
        <time>2018-09-10T08:04:28Z</time>
      </trkpt>
      <trkpt lat="46.634938" lon="12.562577">
        <ele>2013.126</ele>
        <time>2018-09-10T08:04:41Z</time>
      </trkpt>
      <trkpt lat="46.634973" lon="12.562548">
        <ele>2011.784</ele>
        <time>2018-09-10T08:04:46Z</time>
      </trkpt>
      <trkpt lat="46.634972" lon="12.562518">
        <ele>2011.267</ele>
        <time>2018-09-10T08:04:48Z</time>
      </trkpt>
      <trkpt lat="46.634935" lon="12.562367">
        <ele>2008.381</ele>
        <time>2018-09-10T08:05:01Z</time>
      </trkpt>
      <trkpt lat="46.634939" lon="12.562157">
        <ele>2006.419</ele>
        <time>2018-09-10T08:05:16Z</time>
      </trkpt>
      <trkpt lat="46.634927" lon="12.562071">
        <ele>2004.008</ele>
        <time>2018-09-10T08:05:23Z</time>
      </trkpt>
      <trkpt lat="46.634912" lon="12.561914">
        <ele>2000.630</ele>
        <time>2018-09-10T08:05:36Z</time>
      </trkpt>
      <trkpt lat="46.634949" lon="12.561923">
        <ele>1999.222</ele>
        <time>2018-09-10T08:05:40Z</time>
      </trkpt>
      <trkpt lat="46.635058" lon="12.562014">
        <ele>1996.320</ele>
        <time>2018-09-10T08:05:56Z</time>
      </trkpt>
      <trkpt lat="46.635294" lon="12.562124">
        <ele>1993.495</ele>
        <time>2018-09-10T08:06:10Z</time>
      </trkpt>
      <trkpt lat="46.635647" lon="12.562136">
        <ele>1988.133</ele>
        <time>2018-09-10T08:06:26Z</time>
      </trkpt>
      <trkpt lat="46.635821" lon="12.562018">
        <ele>1982.313</ele>
        <time>2018-09-10T08:06:38Z</time>
      </trkpt>
      <trkpt lat="46.635859" lon="12.561992">
        <ele>1981.958</ele>
        <time>2018-09-10T08:06:48Z</time>
      </trkpt>
      <trkpt lat="46.635956" lon="12.561927">
        <ele>1978.586</ele>
        <time>2018-09-10T08:06:58Z</time>
      </trkpt>
      <trkpt lat="46.635963" lon="12.561916">
        <ele>1978.576</ele>
        <time>2018-09-10T08:06:59Z</time>
      </trkpt>
      <trkpt lat="46.636121" lon="12.561820">
        <ele>1973.790</ele>
        <time>2018-09-10T08:07:14Z</time>
      </trkpt>
      <trkpt lat="46.636131" lon="12.561812">
        <ele>1973.719</ele>
        <time>2018-09-10T08:07:15Z</time>
      </trkpt>
      <trkpt lat="46.636228" lon="12.561737">
        <ele>1970.808</ele>
        <time>2018-09-10T08:07:23Z</time>
      </trkpt>
      <trkpt lat="46.636241" lon="12.561730">
        <ele>1970.331</ele>
        <time>2018-09-10T08:07:24Z</time>
      </trkpt>
      <trkpt lat="46.636413" lon="12.561611">
        <ele>1966.073</ele>
        <time>2018-09-10T08:07:37Z</time>
      </trkpt>
      <trkpt lat="46.636579" lon="12.561500">
        <ele>1964.181</ele>
        <time>2018-09-10T08:07:46Z</time>
      </trkpt>
      <trkpt lat="46.636588" lon="12.561481">
        <ele>1963.646</ele>
        <time>2018-09-10T08:07:47Z</time>
      </trkpt>
      <trkpt lat="46.636588" lon="12.561461">
        <ele>1963.654</ele>
        <time>2018-09-10T08:07:48Z</time>
      </trkpt>
      <trkpt lat="46.636580" lon="12.561446">
        <ele>1963.674</ele>
        <time>2018-09-10T08:07:49Z</time>
      </trkpt>
      <trkpt lat="46.636570" lon="12.561438">
        <ele>1963.179</ele>
        <time>2018-09-10T08:07:50Z</time>
      </trkpt>
      <trkpt lat="46.636555" lon="12.561433">
        <ele>1962.667</ele>
        <time>2018-09-10T08:07:51Z</time>
      </trkpt>
      <trkpt lat="46.636541" lon="12.561429">
        <ele>1962.184</ele>
        <time>2018-09-10T08:07:52Z</time>
      </trkpt>
      <trkpt lat="46.636526" lon="12.561418">
        <ele>1961.707</ele>
        <time>2018-09-10T08:07:53Z</time>
      </trkpt>
      <trkpt lat="46.636480" lon="12.561319">
        <ele>1959.317</ele>
        <time>2018-09-10T08:07:58Z</time>
      </trkpt>
      <trkpt lat="46.636486" lon="12.561295">
        <ele>1959.308</ele>
        <time>2018-09-10T08:07:59Z</time>
      </trkpt>
      <trkpt lat="46.636497" lon="12.561276">
        <ele>1958.892</ele>
        <time>2018-09-10T08:08:00Z</time>
      </trkpt>
      <trkpt lat="46.636511" lon="12.561269">
        <ele>1958.314</ele>
        <time>2018-09-10T08:08:01Z</time>
      </trkpt>
      <trkpt lat="46.636529" lon="12.561265">
        <ele>1957.892</ele>
        <time>2018-09-10T08:08:02Z</time>
      </trkpt>
      <trkpt lat="46.636547" lon="12.561258">
        <ele>1957.397</ele>
        <time>2018-09-10T08:08:03Z</time>
      </trkpt>
      <trkpt lat="46.636725" lon="12.561143">
        <ele>1952.045</ele>
        <time>2018-09-10T08:08:16Z</time>
      </trkpt>
      <trkpt lat="46.636743" lon="12.561153">
        <ele>1951.635</ele>
        <time>2018-09-10T08:08:17Z</time>
      </trkpt>
      <trkpt lat="46.637026" lon="12.561404">
        <ele>1946.340</ele>
        <time>2018-09-10T08:08:30Z</time>
      </trkpt>
      <trkpt lat="46.637188" lon="12.561560">
        <ele>1942.978</ele>
        <time>2018-09-10T08:08:41Z</time>
      </trkpt>
      <trkpt lat="46.637393" lon="12.561769">
        <ele>1937.684</ele>
        <time>2018-09-10T08:08:54Z</time>
      </trkpt>
      <trkpt lat="46.637402" lon="12.561757">
        <ele>1936.707</ele>
        <time>2018-09-10T08:08:55Z</time>
      </trkpt>
      <trkpt lat="46.637411" lon="12.561742">
        <ele>1936.217</ele>
        <time>2018-09-10T08:08:56Z</time>
      </trkpt>
      <trkpt lat="46.637422" lon="12.561728">
        <ele>1935.708</ele>
        <time>2018-09-10T08:08:57Z</time>
      </trkpt>
      <trkpt lat="46.637434" lon="12.561713">
        <ele>1935.282</ele>
        <time>2018-09-10T08:08:58Z</time>
      </trkpt>
      <trkpt lat="46.637623" lon="12.561511">
        <ele>1927.544</ele>
        <time>2018-09-10T08:09:11Z</time>
      </trkpt>
      <trkpt lat="46.637831" lon="12.561408">
        <ele>1922.782</ele>
        <time>2018-09-10T08:09:21Z</time>
      </trkpt>
      <trkpt lat="46.638070" lon="12.561230">
        <ele>1915.077</ele>
        <time>2018-09-10T08:09:33Z</time>
      </trkpt>
      <trkpt lat="46.638335" lon="12.561143">
        <ele>1911.715</ele>
        <time>2018-09-10T08:09:46Z</time>
      </trkpt>
      <trkpt lat="46.638418" lon="12.561068">
        <ele>1909.895</ele>
        <time>2018-09-10T08:09:52Z</time>
      </trkpt>
      <trkpt lat="46.638422" lon="12.561045">
        <ele>1909.850</ele>
        <time>2018-09-10T08:09:53Z</time>
      </trkpt>
      <trkpt lat="46.638417" lon="12.561021">
        <ele>1909.398</ele>
        <time>2018-09-10T08:09:54Z</time>
      </trkpt>
      <trkpt lat="46.638406" lon="12.561000">
        <ele>1909.387</ele>
        <time>2018-09-10T08:09:55Z</time>
      </trkpt>
      <trkpt lat="46.638395" lon="12.560976">
        <ele>1909.342</ele>
        <time>2018-09-10T08:09:56Z</time>
      </trkpt>
      <trkpt lat="46.638383" lon="12.560953">
        <ele>1909.326</ele>
        <time>2018-09-10T08:09:57Z</time>
      </trkpt>
      <trkpt lat="46.638369" lon="12.560931">
        <ele>1909.308</ele>
        <time>2018-09-10T08:09:58Z</time>
      </trkpt>
      <trkpt lat="46.638352" lon="12.560916">
        <ele>1908.812</ele>
        <time>2018-09-10T08:09:59Z</time>
      </trkpt>
      <trkpt lat="46.638342" lon="12.560896">
        <ele>1908.374</ele>
        <time>2018-09-10T08:10:00Z</time>
      </trkpt>
      <trkpt lat="46.638338" lon="12.560876">
        <ele>1907.852</ele>
        <time>2018-09-10T08:10:01Z</time>
      </trkpt>
      <trkpt lat="46.638338" lon="12.560855">
        <ele>1907.357</ele>
        <time>2018-09-10T08:10:02Z</time>
      </trkpt>
      <trkpt lat="46.638344" lon="12.560833">
        <ele>1906.935</ele>
        <time>2018-09-10T08:10:03Z</time>
      </trkpt>
      <trkpt lat="46.638355" lon="12.560813">
        <ele>1906.415</ele>
        <time>2018-09-10T08:10:04Z</time>
      </trkpt>
      <trkpt lat="46.638368" lon="12.560797">
        <ele>1905.990</ele>
        <time>2018-09-10T08:10:05Z</time>
      </trkpt>
      <trkpt lat="46.638379" lon="12.560780">
        <ele>1904.938</ele>
        <time>2018-09-10T08:10:06Z</time>
      </trkpt>
      <trkpt lat="46.638386" lon="12.560756">
        <ele>1904.034</ele>
        <time>2018-09-10T08:10:07Z</time>
      </trkpt>
      <trkpt lat="46.638394" lon="12.560731">
        <ele>1903.555</ele>
        <time>2018-09-10T08:10:08Z</time>
      </trkpt>
      <trkpt lat="46.638404" lon="12.560707">
        <ele>1902.510</ele>
        <time>2018-09-10T08:10:09Z</time>
      </trkpt>
      <trkpt lat="46.638412" lon="12.560682">
        <ele>1902.108</ele>
        <time>2018-09-10T08:10:10Z</time>
      </trkpt>
      <trkpt lat="46.638419" lon="12.560657">
        <ele>1901.667</ele>
        <time>2018-09-10T08:10:11Z</time>
      </trkpt>
      <trkpt lat="46.638429" lon="12.560628">
        <ele>1901.139</ele>
        <time>2018-09-10T08:10:12Z</time>
      </trkpt>
      <trkpt lat="46.638495" lon="12.560403">
        <ele>1897.757</ele>
        <time>2018-09-10T08:10:20Z</time>
      </trkpt>
      <trkpt lat="46.638507" lon="12.560376">
        <ele>1897.392</ele>
        <time>2018-09-10T08:10:21Z</time>
      </trkpt>
      <trkpt lat="46.638522" lon="12.560352">
        <ele>1896.350</ele>
        <time>2018-09-10T08:10:22Z</time>
      </trkpt>
      <trkpt lat="46.638541" lon="12.560330">
        <ele>1895.890</ele>
        <time>2018-09-10T08:10:23Z</time>
      </trkpt>
      <trkpt lat="46.638563" lon="12.560312">
        <ele>1895.335</ele>
        <time>2018-09-10T08:10:24Z</time>
      </trkpt>
      <trkpt lat="46.638585" lon="12.560300">
        <ele>1894.943</ele>
        <time>2018-09-10T08:10:25Z</time>
      </trkpt>
      <trkpt lat="46.638813" lon="12.560092">
        <ele>1887.226</ele>
        <time>2018-09-10T08:10:40Z</time>
      </trkpt>
      <trkpt lat="46.638849" lon="12.560086">
        <ele>1886.247</ele>
        <time>2018-09-10T08:10:42Z</time>
      </trkpt>
      <trkpt lat="46.638867" lon="12.560095">
        <ele>1885.711</ele>
        <time>2018-09-10T08:10:43Z</time>
      </trkpt>
      <trkpt lat="46.638884" lon="12.560110">
        <ele>1885.708</ele>
        <time>2018-09-10T08:10:44Z</time>
      </trkpt>
      <trkpt lat="46.638898" lon="12.560128">
        <ele>1885.236</ele>
        <time>2018-09-10T08:10:45Z</time>
      </trkpt>
      <trkpt lat="46.638910" lon="12.560146">
        <ele>1885.278</ele>
        <time>2018-09-10T08:10:46Z</time>
      </trkpt>
      <trkpt lat="46.638919" lon="12.560164">
        <ele>1884.866</ele>
        <time>2018-09-10T08:10:47Z</time>
      </trkpt>
      <trkpt lat="46.638975" lon="12.560372">
        <ele>1880.471</ele>
        <time>2018-09-10T08:10:55Z</time>
      </trkpt>
      <trkpt lat="46.638978" lon="12.560398">
        <ele>1880.039</ele>
        <time>2018-09-10T08:10:56Z</time>
      </trkpt>
      <trkpt lat="46.638984" lon="12.560424">
        <ele>1879.049</ele>
        <time>2018-09-10T08:10:57Z</time>
      </trkpt>
      <trkpt lat="46.638987" lon="12.560450">
        <ele>1878.514</ele>
        <time>2018-09-10T08:10:58Z</time>
      </trkpt>
      <trkpt lat="46.638989" lon="12.560480">
        <ele>1878.082</ele>
        <time>2018-09-10T08:10:59Z</time>
      </trkpt>
      <trkpt lat="46.638991" lon="12.560513">
        <ele>1877.178</ele>
        <time>2018-09-10T08:11:00Z</time>
      </trkpt>
      <trkpt lat="46.638990" lon="12.560554">
        <ele>1876.633</ele>
        <time>2018-09-10T08:11:01Z</time>
      </trkpt>
      <trkpt lat="46.638970" lon="12.561087">
        <ele>1875.626</ele>
        <time>2018-09-10T08:11:13Z</time>
      </trkpt>
      <trkpt lat="46.639023" lon="12.561267">
        <ele>1878.008</ele>
        <time>2018-09-10T08:11:24Z</time>
      </trkpt>
      <trkpt lat="46.639070" lon="12.561300">
        <ele>1878.511</ele>
        <time>2018-09-10T08:11:36Z</time>
      </trkpt>
      <trkpt lat="46.639086" lon="12.561283">
        <ele>1878.043</ele>
        <time>2018-09-10T08:11:38Z</time>
      </trkpt>
      <trkpt lat="46.639097" lon="12.561263">
        <ele>1878.021</ele>
        <time>2018-09-10T08:11:39Z</time>
      </trkpt>
      <trkpt lat="46.639107" lon="12.561236">
        <ele>1877.566</ele>
        <time>2018-09-10T08:11:40Z</time>
      </trkpt>
      <trkpt lat="46.639120" lon="12.561205">
        <ele>1877.584</ele>
        <time>2018-09-10T08:11:41Z</time>
      </trkpt>
      <trkpt lat="46.639136" lon="12.561172">
        <ele>1877.134</ele>
        <time>2018-09-10T08:11:42Z</time>
      </trkpt>
      <trkpt lat="46.639180" lon="12.561123">
        <ele>1876.199</ele>
        <time>2018-09-10T08:11:44Z</time>
      </trkpt>
      <trkpt lat="46.639204" lon="12.561121">
        <ele>1876.117</ele>
        <time>2018-09-10T08:11:45Z</time>
      </trkpt>
      <trkpt lat="46.639226" lon="12.561127">
        <ele>1876.189</ele>
        <time>2018-09-10T08:11:46Z</time>
      </trkpt>
      <trkpt lat="46.639248" lon="12.561133">
        <ele>1875.606</ele>
        <time>2018-09-10T08:11:47Z</time>
      </trkpt>
      <trkpt lat="46.639271" lon="12.561135">
        <ele>1875.626</ele>
        <time>2018-09-10T08:11:48Z</time>
      </trkpt>
      <trkpt lat="46.639290" lon="12.561130">
        <ele>1875.608</ele>
        <time>2018-09-10T08:11:49Z</time>
      </trkpt>
      <trkpt lat="46.639303" lon="12.561122">
        <ele>1875.622</ele>
        <time>2018-09-10T08:11:50Z</time>
      </trkpt>
      <trkpt lat="46.639398" lon="12.560966">
        <ele>1877.174</ele>
        <time>2018-09-10T08:12:03Z</time>
      </trkpt>
      <trkpt lat="46.639402" lon="12.560948">
        <ele>1877.132</ele>
        <time>2018-09-10T08:12:04Z</time>
      </trkpt>
      <trkpt lat="46.639409" lon="12.560932">
        <ele>1877.137</ele>
        <time>2018-09-10T08:12:05Z</time>
      </trkpt>
      <trkpt lat="46.639562" lon="12.560647">
        <ele>1875.145</ele>
        <time>2018-09-10T08:12:18Z</time>
      </trkpt>
      <trkpt lat="46.639811" lon="12.560489">
        <ele>1874.245</ele>
        <time>2018-09-10T08:12:30Z</time>
      </trkpt>
      <trkpt lat="46.640037" lon="12.560564">
        <ele>1874.750</ele>
        <time>2018-09-10T08:12:42Z</time>
      </trkpt>
      <trkpt lat="46.640057" lon="12.560567">
        <ele>1874.728</ele>
        <time>2018-09-10T08:12:43Z</time>
      </trkpt>
      <trkpt lat="46.640075" lon="12.560562">
        <ele>1874.787</ele>
        <time>2018-09-10T08:12:44Z</time>
      </trkpt>
      <trkpt lat="46.640090" lon="12.560553">
        <ele>1874.242</ele>
        <time>2018-09-10T08:12:45Z</time>
      </trkpt>
      <trkpt lat="46.640109" lon="12.560531">
        <ele>1874.226</ele>
        <time>2018-09-10T08:12:46Z</time>
      </trkpt>
      <trkpt lat="46.640130" lon="12.560506">
        <ele>1874.208</ele>
        <time>2018-09-10T08:12:47Z</time>
      </trkpt>
      <trkpt lat="46.640149" lon="12.560485">
        <ele>1874.242</ele>
        <time>2018-09-10T08:12:48Z</time>
      </trkpt>
      <trkpt lat="46.640316" lon="12.560380">
        <ele>1874.754</ele>
        <time>2018-09-10T08:12:56Z</time>
      </trkpt>
      <trkpt lat="46.640338" lon="12.560390">
        <ele>1874.732</ele>
        <time>2018-09-10T08:12:57Z</time>
      </trkpt>
      <trkpt lat="46.640352" lon="12.560396">
        <ele>1874.757</ele>
        <time>2018-09-10T08:12:58Z</time>
      </trkpt>
      <trkpt lat="46.640367" lon="12.560394">
        <ele>1874.735</ele>
        <time>2018-09-10T08:12:59Z</time>
      </trkpt>
      <trkpt lat="46.640382" lon="12.560402">
        <ele>1875.175</ele>
        <time>2018-09-10T08:13:00Z</time>
      </trkpt>
      <trkpt lat="46.640399" lon="12.560409">
        <ele>1875.110</ele>
        <time>2018-09-10T08:13:01Z</time>
      </trkpt>
      <trkpt lat="46.640416" lon="12.560418">
        <ele>1874.788</ele>
        <time>2018-09-10T08:13:02Z</time>
      </trkpt>
      <trkpt lat="46.640614" lon="12.560400">
        <ele>1876.115</ele>
        <time>2018-09-10T08:13:14Z</time>
      </trkpt>
      <trkpt lat="46.640799" lon="12.560334">
        <ele>1875.665</ele>
        <time>2018-09-10T08:13:26Z</time>
      </trkpt>
      <trkpt lat="46.640940" lon="12.560266">
        <ele>1877.511</ele>
        <time>2018-09-10T08:13:38Z</time>
      </trkpt>
      <trkpt lat="46.641128" lon="12.560143">
        <ele>1876.108</ele>
        <time>2018-09-10T08:13:50Z</time>
      </trkpt>
      <trkpt lat="46.641183" lon="12.560090">
        <ele>1874.715</ele>
        <time>2018-09-10T08:13:54Z</time>
      </trkpt>
      <trkpt lat="46.641274" lon="12.559937">
        <ele>1873.717</ele>
        <time>2018-09-10T08:14:03Z</time>
      </trkpt>
      <trkpt lat="46.641287" lon="12.559887">
        <ele>1873.215</ele>
        <time>2018-09-10T08:14:05Z</time>
      </trkpt>
      <trkpt lat="46.641294" lon="12.559870">
        <ele>1872.740</ele>
        <time>2018-09-10T08:14:06Z</time>
      </trkpt>
      <trkpt lat="46.641308" lon="12.559858">
        <ele>1872.748</ele>
        <time>2018-09-10T08:14:07Z</time>
      </trkpt>
      <trkpt lat="46.641322" lon="12.559841">
        <ele>1871.868</ele>
        <time>2018-09-10T08:14:08Z</time>
      </trkpt>
      <trkpt lat="46.641341" lon="12.559824">
        <ele>1871.323</ele>
        <time>2018-09-10T08:14:09Z</time>
      </trkpt>
      <trkpt lat="46.641358" lon="12.559815">
        <ele>1870.351</ele>
        <time>2018-09-10T08:14:10Z</time>
      </trkpt>
      <trkpt lat="46.641404" lon="12.559795">
        <ele>1868.448</ele>
        <time>2018-09-10T08:14:13Z</time>
      </trkpt>
      <trkpt lat="46.641420" lon="12.559786">
        <ele>1867.961</ele>
        <time>2018-09-10T08:14:14Z</time>
      </trkpt>
      <trkpt lat="46.641438" lon="12.559778">
        <ele>1867.017</ele>
        <time>2018-09-10T08:14:15Z</time>
      </trkpt>
      <trkpt lat="46.641456" lon="12.559770">
        <ele>1866.508</ele>
        <time>2018-09-10T08:14:16Z</time>
      </trkpt>
      <trkpt lat="46.641475" lon="12.559762">
        <ele>1866.098</ele>
        <time>2018-09-10T08:14:17Z</time>
      </trkpt>
      <trkpt lat="46.641691" lon="12.559633">
        <ele>1861.230</ele>
        <time>2018-09-10T08:14:29Z</time>
      </trkpt>
      <trkpt lat="46.641702" lon="12.559609">
        <ele>1861.718</ele>
        <time>2018-09-10T08:14:30Z</time>
      </trkpt>
      <trkpt lat="46.641713" lon="12.559584">
        <ele>1861.793</ele>
        <time>2018-09-10T08:14:31Z</time>
      </trkpt>
      <trkpt lat="46.641798" lon="12.559454">
        <ele>1859.851</ele>
        <time>2018-09-10T08:14:37Z</time>
      </trkpt>
      <trkpt lat="46.641832" lon="12.559381">
        <ele>1857.891</ele>
        <time>2018-09-10T08:14:40Z</time>
      </trkpt>
      <trkpt lat="46.641848" lon="12.559366">
        <ele>1857.426</ele>
        <time>2018-09-10T08:14:41Z</time>
      </trkpt>
      <trkpt lat="46.641866" lon="12.559353">
        <ele>1856.964</ele>
        <time>2018-09-10T08:14:42Z</time>
      </trkpt>
      <trkpt lat="46.641886" lon="12.559337">
        <ele>1856.497</ele>
        <time>2018-09-10T08:14:43Z</time>
      </trkpt>
      <trkpt lat="46.641906" lon="12.559312">
        <ele>1855.423</ele>
        <time>2018-09-10T08:14:44Z</time>
      </trkpt>
      <trkpt lat="46.642044" lon="12.559114">
        <ele>1852.625</ele>
        <time>2018-09-10T08:14:52Z</time>
      </trkpt>
      <trkpt lat="46.642059" lon="12.559098">
        <ele>1852.108</ele>
        <time>2018-09-10T08:14:53Z</time>
      </trkpt>
      <trkpt lat="46.642131" lon="12.559061">
        <ele>1850.693</ele>
        <time>2018-09-10T08:14:57Z</time>
      </trkpt>
      <trkpt lat="46.642148" lon="12.559054">
        <ele>1850.145</ele>
        <time>2018-09-10T08:14:58Z</time>
      </trkpt>
      <trkpt lat="46.642165" lon="12.559039">
        <ele>1849.723</ele>
        <time>2018-09-10T08:14:59Z</time>
      </trkpt>
      <trkpt lat="46.642179" lon="12.559024">
        <ele>1849.278</ele>
        <time>2018-09-10T08:15:00Z</time>
      </trkpt>
      <trkpt lat="46.642190" lon="12.559008">
        <ele>1848.296</ele>
        <time>2018-09-10T08:15:01Z</time>
      </trkpt>
      <trkpt lat="46.642199" lon="12.558991">
        <ele>1847.716</ele>
        <time>2018-09-10T08:15:02Z</time>
      </trkpt>
      <trkpt lat="46.642305" lon="12.558875">
        <ele>1844.951</ele>
        <time>2018-09-10T08:15:11Z</time>
      </trkpt>
      <trkpt lat="46.642282" lon="12.558859">
        <ele>1845.889</ele>
        <time>2018-09-10T08:15:16Z</time>
      </trkpt>
      <trkpt lat="46.642266" lon="12.558863">
        <ele>1845.892</ele>
        <time>2018-09-10T08:15:17Z</time>
      </trkpt>
      <trkpt lat="46.642251" lon="12.558865">
        <ele>1845.873</ele>
        <time>2018-09-10T08:15:18Z</time>
      </trkpt>
      <trkpt lat="46.642239" lon="12.558868">
        <ele>1845.820</ele>
        <time>2018-09-10T08:15:19Z</time>
      </trkpt>
      <trkpt lat="46.642225" lon="12.558869">
        <ele>1845.808</ele>
        <time>2018-09-10T08:15:20Z</time>
      </trkpt>
      <trkpt lat="46.642098" lon="12.558816">
        <ele>1844.993</ele>
        <time>2018-09-10T08:15:31Z</time>
      </trkpt>
      <trkpt lat="46.641966" lon="12.558735">
        <ele>1844.445</ele>
        <time>2018-09-10T08:15:37Z</time>
      </trkpt>
      <trkpt lat="46.641572" lon="12.558778">
        <ele>1837.753</ele>
        <time>2018-09-10T08:15:51Z</time>
      </trkpt>
      <trkpt lat="46.641291" lon="12.558969">
        <ele>1831.948</ele>
        <time>2018-09-10T08:16:03Z</time>
      </trkpt>
      <trkpt lat="46.641220" lon="12.558883">
        <ele>1830.096</ele>
        <time>2018-09-10T08:16:07Z</time>
      </trkpt>
      <trkpt lat="46.641235" lon="12.558743">
        <ele>1829.036</ele>
        <time>2018-09-10T08:16:11Z</time>
      </trkpt>
      <trkpt lat="46.641251" lon="12.558720">
        <ele>1828.551</ele>
        <time>2018-09-10T08:16:12Z</time>
      </trkpt>
      <trkpt lat="46.641266" lon="12.558700">
        <ele>1828.589</ele>
        <time>2018-09-10T08:16:13Z</time>
      </trkpt>
      <trkpt lat="46.641284" lon="12.558686">
        <ele>1828.543</ele>
        <time>2018-09-10T08:16:14Z</time>
      </trkpt>
      <trkpt lat="46.641302" lon="12.558665">
        <ele>1828.564</ele>
        <time>2018-09-10T08:16:15Z</time>
      </trkpt>
      <trkpt lat="46.641513" lon="12.558411">
        <ele>1827.610</ele>
        <time>2018-09-10T08:16:26Z</time>
      </trkpt>
      <trkpt lat="46.641614" lon="12.558396">
        <ele>1826.608</ele>
        <time>2018-09-10T08:16:30Z</time>
      </trkpt>
      <trkpt lat="46.641708" lon="12.558370">
        <ele>1824.758</ele>
        <time>2018-09-10T08:16:34Z</time>
      </trkpt>
      <trkpt lat="46.641778" lon="12.558330">
        <ele>1823.790</ele>
        <time>2018-09-10T08:16:38Z</time>
      </trkpt>
      <trkpt lat="46.641798" lon="12.558326">
        <ele>1823.748</ele>
        <time>2018-09-10T08:16:39Z</time>
      </trkpt>
      <trkpt lat="46.641811" lon="12.558319">
        <ele>1823.773</ele>
        <time>2018-09-10T08:16:40Z</time>
      </trkpt>
      <trkpt lat="46.642011" lon="12.558267">
        <ele>1822.311</ele>
        <time>2018-09-10T08:16:51Z</time>
      </trkpt>
      <trkpt lat="46.642190" lon="12.558142">
        <ele>1818.931</ele>
        <time>2018-09-10T08:17:03Z</time>
      </trkpt>
      <trkpt lat="46.642211" lon="12.558123">
        <ele>1818.456</ele>
        <time>2018-09-10T08:17:05Z</time>
      </trkpt>
      <trkpt lat="46.642223" lon="12.558106">
        <ele>1818.434</ele>
        <time>2018-09-10T08:17:06Z</time>
      </trkpt>
      <trkpt lat="46.642237" lon="12.558087">
        <ele>1817.952</ele>
        <time>2018-09-10T08:17:07Z</time>
      </trkpt>
      <trkpt lat="46.642298" lon="12.558018">
        <ele>1816.553</ele>
        <time>2018-09-10T08:17:11Z</time>
      </trkpt>
      <trkpt lat="46.642311" lon="12.557998">
        <ele>1816.008</ele>
        <time>2018-09-10T08:17:12Z</time>
      </trkpt>
      <trkpt lat="46.642328" lon="12.557973">
        <ele>1815.108</ele>
        <time>2018-09-10T08:17:13Z</time>
      </trkpt>
      <trkpt lat="46.642344" lon="12.557947">
        <ele>1814.629</ele>
        <time>2018-09-10T08:17:14Z</time>
      </trkpt>
      <trkpt lat="46.642363" lon="12.557924">
        <ele>1813.621</ele>
        <time>2018-09-10T08:17:15Z</time>
      </trkpt>
      <trkpt lat="46.642381" lon="12.557904">
        <ele>1813.179</ele>
        <time>2018-09-10T08:17:16Z</time>
      </trkpt>
      <trkpt lat="46.642399" lon="12.557885">
        <ele>1812.234</ele>
        <time>2018-09-10T08:17:17Z</time>
      </trkpt>
      <trkpt lat="46.642423" lon="12.557866">
        <ele>1811.782</ele>
        <time>2018-09-10T08:17:18Z</time>
      </trkpt>
      <trkpt lat="46.642445" lon="12.557846">
        <ele>1811.222</ele>
        <time>2018-09-10T08:17:19Z</time>
      </trkpt>
      <trkpt lat="46.642463" lon="12.557824">
        <ele>1810.727</ele>
        <time>2018-09-10T08:17:20Z</time>
      </trkpt>
      <trkpt lat="46.642477" lon="12.557808">
        <ele>1810.345</ele>
        <time>2018-09-10T08:17:21Z</time>
      </trkpt>
      <trkpt lat="46.642706" lon="12.557495">
        <ele>1802.179</ele>
        <time>2018-09-10T08:17:35Z</time>
      </trkpt>
      <trkpt lat="46.642900" lon="12.557131">
        <ele>1793.905</ele>
        <time>2018-09-10T08:17:49Z</time>
      </trkpt>
      <trkpt lat="46.643093" lon="12.556817">
        <ele>1787.225</ele>
        <time>2018-09-10T08:18:02Z</time>
      </trkpt>
      <trkpt lat="46.643185" lon="12.556592">
        <ele>1783.808</ele>
        <time>2018-09-10T08:18:11Z</time>
      </trkpt>
      <trkpt lat="46.643169" lon="12.556571">
        <ele>1783.871</ele>
        <time>2018-09-10T08:18:12Z</time>
      </trkpt>
      <trkpt lat="46.643146" lon="12.556566">
        <ele>1783.323</ele>
        <time>2018-09-10T08:18:13Z</time>
      </trkpt>
      <trkpt lat="46.643120" lon="12.556572">
        <ele>1782.931</ele>
        <time>2018-09-10T08:18:14Z</time>
      </trkpt>
      <trkpt lat="46.643094" lon="12.556587">
        <ele>1782.426</ele>
        <time>2018-09-10T08:18:15Z</time>
      </trkpt>
      <trkpt lat="46.643072" lon="12.556612">
        <ele>1782.484</ele>
        <time>2018-09-10T08:18:16Z</time>
      </trkpt>
      <trkpt lat="46.643056" lon="12.556640">
        <ele>1782.414</ele>
        <time>2018-09-10T08:18:17Z</time>
      </trkpt>
      <trkpt lat="46.643017" lon="12.556731">
        <ele>1782.499</ele>
        <time>2018-09-10T08:18:21Z</time>
      </trkpt>
      <trkpt lat="46.643006" lon="12.556747">
        <ele>1782.497</ele>
        <time>2018-09-10T08:18:22Z</time>
      </trkpt>
      <trkpt lat="46.642995" lon="12.556765">
        <ele>1782.483</ele>
        <time>2018-09-10T08:18:23Z</time>
      </trkpt>
      <trkpt lat="46.642984" lon="12.556785">
        <ele>1781.925</ele>
        <time>2018-09-10T08:18:24Z</time>
      </trkpt>
      <trkpt lat="46.642971" lon="12.556801">
        <ele>1781.917</ele>
        <time>2018-09-10T08:18:25Z</time>
      </trkpt>
      <trkpt lat="46.642955" lon="12.556814">
        <ele>1781.908</ele>
        <time>2018-09-10T08:18:26Z</time>
      </trkpt>
      <trkpt lat="46.642937" lon="12.556825">
        <ele>1781.472</ele>
        <time>2018-09-10T08:18:27Z</time>
      </trkpt>
      <trkpt lat="46.642916" lon="12.556832">
        <ele>1781.444</ele>
        <time>2018-09-10T08:18:28Z</time>
      </trkpt>
      <trkpt lat="46.642893" lon="12.556837">
        <ele>1780.982</ele>
        <time>2018-09-10T08:18:29Z</time>
      </trkpt>
      <trkpt lat="46.642530" lon="12.556901">
        <ele>1775.697</ele>
        <time>2018-09-10T08:18:45Z</time>
      </trkpt>
      <trkpt lat="46.642217" lon="12.557027">
        <ele>1770.815</ele>
        <time>2018-09-10T08:18:58Z</time>
      </trkpt>
      <trkpt lat="46.641870" lon="12.557155">
        <ele>1766.025</ele>
        <time>2018-09-10T08:19:12Z</time>
      </trkpt>
      <trkpt lat="46.641571" lon="12.557106">
        <ele>1761.260</ele>
        <time>2018-09-10T08:19:26Z</time>
      </trkpt>
      <trkpt lat="46.641363" lon="12.557100">
        <ele>1757.928</ele>
        <time>2018-09-10T08:19:40Z</time>
      </trkpt>
      <trkpt lat="46.641162" lon="12.556851">
        <ele>1755.554</ele>
        <time>2018-09-10T08:19:53Z</time>
      </trkpt>
      <trkpt lat="46.641093" lon="12.556409">
        <ele>1749.256</ele>
        <time>2018-09-10T08:20:06Z</time>
      </trkpt>
      <trkpt lat="46.641107" lon="12.556387">
        <ele>1748.211</ele>
        <time>2018-09-10T08:20:07Z</time>
      </trkpt>
      <trkpt lat="46.641123" lon="12.556367">
        <ele>1747.308</ele>
        <time>2018-09-10T08:20:08Z</time>
      </trkpt>
      <trkpt lat="46.641346" lon="12.556046">
        <ele>1739.669</ele>
        <time>2018-09-10T08:20:21Z</time>
      </trkpt>
      <trkpt lat="46.641560" lon="12.555608">
        <ele>1732.971</ele>
        <time>2018-09-10T08:20:36Z</time>
      </trkpt>
      <trkpt lat="46.641577" lon="12.555166">
        <ele>1727.149</ele>
        <time>2018-09-10T08:20:48Z</time>
      </trkpt>
      <trkpt lat="46.641511" lon="12.554889">
        <ele>1726.164</ele>
        <time>2018-09-10T08:20:56Z</time>
      </trkpt>
      <trkpt lat="46.641512" lon="12.554859">
        <ele>1725.762</ele>
        <time>2018-09-10T08:20:57Z</time>
      </trkpt>
      <trkpt lat="46.641517" lon="12.554832">
        <ele>1725.252</ele>
        <time>2018-09-10T08:20:58Z</time>
      </trkpt>
      <trkpt lat="46.641522" lon="12.554813">
        <ele>1725.247</ele>
        <time>2018-09-10T08:20:59Z</time>
      </trkpt>
      <trkpt lat="46.641529" lon="12.554788">
        <ele>1724.235</ele>
        <time>2018-09-10T08:21:08Z</time>
      </trkpt>
      <trkpt lat="46.641594" lon="12.554810">
        <ele>1723.756</ele>
        <time>2018-09-10T08:21:15Z</time>
      </trkpt>
      <trkpt lat="46.641665" lon="12.554719">
        <ele>1722.859</ele>
        <time>2018-09-10T08:21:28Z</time>
      </trkpt>
      <trkpt lat="46.641668" lon="12.554702">
        <ele>1722.314</ele>
        <time>2018-09-10T08:21:29Z</time>
      </trkpt>
      <trkpt lat="46.641668" lon="12.554684">
        <ele>1722.308</ele>
        <time>2018-09-10T08:21:30Z</time>
      </trkpt>
      <trkpt lat="46.641634" lon="12.554602">
        <ele>1720.989</ele>
        <time>2018-09-10T08:21:43Z</time>
      </trkpt>
      <trkpt lat="46.641614" lon="12.554573">
        <ele>1718.071</ele>
        <time>2018-09-10T08:22:15Z</time>
      </trkpt>
      <trkpt lat="46.641626" lon="12.554590">
        <ele>1718.429</ele>
        <time>2018-09-10T08:22:43Z</time>
      </trkpt>
      <trkpt lat="46.641611" lon="12.554544">
        <ele>1722.354</ele>
        <time>2018-09-10T08:23:07Z</time>
      </trkpt>
      <trkpt lat="46.641657" lon="12.554150">
        <ele>1718.432</ele>
        <time>2018-09-10T08:23:18Z</time>
      </trkpt>
      <trkpt lat="46.641723" lon="12.553835">
        <ele>1716.552</ele>
        <time>2018-09-10T08:23:26Z</time>
      </trkpt>
      <trkpt lat="46.641738" lon="12.553800">
        <ele>1716.067</ele>
        <time>2018-09-10T08:23:27Z</time>
      </trkpt>
      <trkpt lat="46.641749" lon="12.553767">
        <ele>1715.665</ele>
        <time>2018-09-10T08:23:28Z</time>
      </trkpt>
      <trkpt lat="46.641838" lon="12.553231">
        <ele>1707.498</ele>
        <time>2018-09-10T08:23:42Z</time>
      </trkpt>
      <trkpt lat="46.641789" lon="12.553038">
        <ele>1704.515</ele>
        <time>2018-09-10T08:23:48Z</time>
      </trkpt>
      <trkpt lat="46.641769" lon="12.553020">
        <ele>1704.026</ele>
        <time>2018-09-10T08:23:49Z</time>
      </trkpt>
      <trkpt lat="46.641543" lon="12.552800">
        <ele>1699.208</ele>
        <time>2018-09-10T08:24:01Z</time>
      </trkpt>
      <trkpt lat="46.641608" lon="12.552431">
        <ele>1694.463</ele>
        <time>2018-09-10T08:24:12Z</time>
      </trkpt>
      <trkpt lat="46.641723" lon="12.552004">
        <ele>1688.665</ele>
        <time>2018-09-10T08:24:25Z</time>
      </trkpt>
      <trkpt lat="46.641928" lon="12.551486">
        <ele>1682.413</ele>
        <time>2018-09-10T08:24:40Z</time>
      </trkpt>
      <trkpt lat="46.642059" lon="12.551298">
        <ele>1678.648</ele>
        <time>2018-09-10T08:24:47Z</time>
      </trkpt>
      <trkpt lat="46.642085" lon="12.551292">
        <ele>1678.646</ele>
        <time>2018-09-10T08:24:48Z</time>
      </trkpt>
      <trkpt lat="46.642112" lon="12.551283">
        <ele>1678.616</ele>
        <time>2018-09-10T08:24:49Z</time>
      </trkpt>
      <trkpt lat="46.642154" lon="12.551265">
        <ele>1678.151</ele>
        <time>2018-09-10T08:24:51Z</time>
      </trkpt>
      <trkpt lat="46.642174" lon="12.551243">
        <ele>1678.149</ele>
        <time>2018-09-10T08:24:52Z</time>
      </trkpt>
      <trkpt lat="46.642191" lon="12.551219">
        <ele>1678.198</ele>
        <time>2018-09-10T08:24:53Z</time>
      </trkpt>
      <trkpt lat="46.642201" lon="12.551190">
        <ele>1677.615</ele>
        <time>2018-09-10T08:24:54Z</time>
      </trkpt>
      <trkpt lat="46.642208" lon="12.551159">
        <ele>1677.626</ele>
        <time>2018-09-10T08:24:55Z</time>
      </trkpt>
      <trkpt lat="46.642212" lon="12.551117">
        <ele>1676.608</ele>
        <time>2018-09-10T08:24:56Z</time>
      </trkpt>
      <trkpt lat="46.642211" lon="12.551066">
        <ele>1676.213</ele>
        <time>2018-09-10T08:24:57Z</time>
      </trkpt>
      <trkpt lat="46.642210" lon="12.550998">
        <ele>1675.725</ele>
        <time>2018-09-10T08:24:58Z</time>
      </trkpt>
      <trkpt lat="46.642222" lon="12.550731">
        <ele>1672.833</ele>
        <time>2018-09-10T08:25:01Z</time>
      </trkpt>
      <trkpt lat="46.642241" lon="12.550614">
        <ele>1671.878</ele>
        <time>2018-09-10T08:25:02Z</time>
      </trkpt>
      <trkpt lat="46.642263" lon="12.550503">
        <ele>1671.316</ele>
        <time>2018-09-10T08:25:03Z</time>
      </trkpt>
      <trkpt lat="46.642325" lon="12.550147">
        <ele>1669.996</ele>
        <time>2018-09-10T08:25:06Z</time>
      </trkpt>
      <trkpt lat="46.642338" lon="12.549916">
        <ele>1669.931</ele>
        <time>2018-09-10T08:25:08Z</time>
      </trkpt>
      <trkpt lat="46.642355" lon="12.549616">
        <ele>1668.939</ele>
        <time>2018-09-10T08:25:11Z</time>
      </trkpt>
      <trkpt lat="46.642383" lon="12.549534">
        <ele>1668.556</ele>
        <time>2018-09-10T08:25:12Z</time>
      </trkpt>
      <trkpt lat="46.642423" lon="12.549467">
        <ele>1668.059</ele>
        <time>2018-09-10T08:25:13Z</time>
      </trkpt>
      <trkpt lat="46.642473" lon="12.549410">
        <ele>1668.014</ele>
        <time>2018-09-10T08:25:14Z</time>
      </trkpt>
      <trkpt lat="46.642520" lon="12.549362">
        <ele>1668.008</ele>
        <time>2018-09-10T08:25:15Z</time>
      </trkpt>
      <trkpt lat="46.642609" lon="12.549257">
        <ele>1668.069</ele>
        <time>2018-09-10T08:25:17Z</time>
      </trkpt>
      <trkpt lat="46.642644" lon="12.549189">
        <ele>1668.031</ele>
        <time>2018-09-10T08:25:18Z</time>
      </trkpt>
      <trkpt lat="46.642669" lon="12.549123">
        <ele>1668.039</ele>
        <time>2018-09-10T08:25:19Z</time>
      </trkpt>
      <trkpt lat="46.642689" lon="12.549055">
        <ele>1668.044</ele>
        <time>2018-09-10T08:25:20Z</time>
      </trkpt>
      <trkpt lat="46.642707" lon="12.548993">
        <ele>1668.552</ele>
        <time>2018-09-10T08:25:21Z</time>
      </trkpt>
      <trkpt lat="46.642726" lon="12.548940">
        <ele>1668.972</ele>
        <time>2018-09-10T08:25:22Z</time>
      </trkpt>
      <trkpt lat="46.642954" lon="12.548611">
        <ele>1668.517</ele>
        <time>2018-09-10T08:25:33Z</time>
      </trkpt>
      <trkpt lat="46.643111" lon="12.548424">
        <ele>1666.195</ele>
        <time>2018-09-10T08:25:39Z</time>
      </trkpt>
      <trkpt lat="46.643138" lon="12.548362">
        <ele>1665.141</ele>
        <time>2018-09-10T08:25:40Z</time>
      </trkpt>
      <trkpt lat="46.643165" lon="12.548299">
        <ele>1664.181</ele>
        <time>2018-09-10T08:25:41Z</time>
      </trkpt>
      <trkpt lat="46.643199" lon="12.548247">
        <ele>1663.209</ele>
        <time>2018-09-10T08:25:42Z</time>
      </trkpt>
      <trkpt lat="46.643243" lon="12.548220">
        <ele>1662.208</ele>
        <time>2018-09-10T08:25:43Z</time>
      </trkpt>
      <trkpt lat="46.643292" lon="12.548221">
        <ele>1661.358</ele>
        <time>2018-09-10T08:25:44Z</time>
      </trkpt>
      <trkpt lat="46.643340" lon="12.548232">
        <ele>1660.330</ele>
        <time>2018-09-10T08:25:45Z</time>
      </trkpt>
      <trkpt lat="46.643380" lon="12.548223">
        <ele>1659.398</ele>
        <time>2018-09-10T08:25:46Z</time>
      </trkpt>
      <trkpt lat="46.643408" lon="12.548191">
        <ele>1658.423</ele>
        <time>2018-09-10T08:25:47Z</time>
      </trkpt>
      <trkpt lat="46.643420" lon="12.548145">
        <ele>1657.481</ele>
        <time>2018-09-10T08:25:48Z</time>
      </trkpt>
      <trkpt lat="46.643423" lon="12.548094">
        <ele>1656.421</ele>
        <time>2018-09-10T08:25:49Z</time>
      </trkpt>
      <trkpt lat="46.643427" lon="12.548040">
        <ele>1656.046</ele>
        <time>2018-09-10T08:25:50Z</time>
      </trkpt>
      <trkpt lat="46.643436" lon="12.547981">
        <ele>1655.034</ele>
        <time>2018-09-10T08:25:51Z</time>
      </trkpt>
      <trkpt lat="46.643456" lon="12.547916">
        <ele>1654.549</ele>
        <time>2018-09-10T08:25:52Z</time>
      </trkpt>
      <trkpt lat="46.643492" lon="12.547864">
        <ele>1653.602</ele>
        <time>2018-09-10T08:25:53Z</time>
      </trkpt>
      <trkpt lat="46.643540" lon="12.547826">
        <ele>1652.622</ele>
        <time>2018-09-10T08:25:54Z</time>
      </trkpt>
      <trkpt lat="46.643582" lon="12.547785">
        <ele>1651.608</ele>
        <time>2018-09-10T08:25:55Z</time>
      </trkpt>
      <trkpt lat="46.643610" lon="12.547730">
        <ele>1651.228</ele>
        <time>2018-09-10T08:25:56Z</time>
      </trkpt>
      <trkpt lat="46.643621" lon="12.547659">
        <ele>1650.260</ele>
        <time>2018-09-10T08:25:57Z</time>
      </trkpt>
      <trkpt lat="46.643613" lon="12.547580">
        <ele>1649.778</ele>
        <time>2018-09-10T08:25:58Z</time>
      </trkpt>
      <trkpt lat="46.643598" lon="12.547495">
        <ele>1649.243</ele>
        <time>2018-09-10T08:25:59Z</time>
      </trkpt>
      <trkpt lat="46.643581" lon="12.547327">
        <ele>1648.311</ele>
        <time>2018-09-10T08:26:01Z</time>
      </trkpt>
      <trkpt lat="46.643593" lon="12.547158">
        <ele>1646.891</ele>
        <time>2018-09-10T08:26:03Z</time>
      </trkpt>
      <trkpt lat="46.643613" lon="12.547063">
        <ele>1645.986</ele>
        <time>2018-09-10T08:26:04Z</time>
      </trkpt>
      <trkpt lat="46.643638" lon="12.546971">
        <ele>1644.934</ele>
        <time>2018-09-10T08:26:05Z</time>
      </trkpt>
      <trkpt lat="46.643659" lon="12.546882">
        <ele>1643.956</ele>
        <time>2018-09-10T08:26:06Z</time>
      </trkpt>
      <trkpt lat="46.643674" lon="12.546794">
        <ele>1643.059</ele>
        <time>2018-09-10T08:26:07Z</time>
      </trkpt>
      <trkpt lat="46.643684" lon="12.546709">
        <ele>1641.514</ele>
        <time>2018-09-10T08:26:08Z</time>
      </trkpt>
      <trkpt lat="46.643694" lon="12.546335">
        <ele>1637.708</ele>
        <time>2018-09-10T08:26:12Z</time>
      </trkpt>
      <trkpt lat="46.643750" lon="12.545908">
        <ele>1632.969</ele>
        <time>2018-09-10T08:26:16Z</time>
      </trkpt>
      <trkpt lat="46.643774" lon="12.545795">
        <ele>1631.941</ele>
        <time>2018-09-10T08:26:17Z</time>
      </trkpt>
      <trkpt lat="46.643796" lon="12.545676">
        <ele>1631.069</ele>
        <time>2018-09-10T08:26:18Z</time>
      </trkpt>
      <trkpt lat="46.643829" lon="12.545442">
        <ele>1629.064</ele>
        <time>2018-09-10T08:26:20Z</time>
      </trkpt>
      <trkpt lat="46.643849" lon="12.545335">
        <ele>1628.612</ele>
        <time>2018-09-10T08:26:21Z</time>
      </trkpt>
      <trkpt lat="46.643927" lon="12.544667">
        <ele>1624.252</ele>
        <time>2018-09-10T08:26:26Z</time>
      </trkpt>
      <trkpt lat="46.643954" lon="12.544545">
        <ele>1623.357</ele>
        <time>2018-09-10T08:26:27Z</time>
      </trkpt>
      <trkpt lat="46.643987" lon="12.544438">
        <ele>1622.335</ele>
        <time>2018-09-10T08:26:28Z</time>
      </trkpt>
      <trkpt lat="46.644156" lon="12.543900">
        <ele>1619.458</ele>
        <time>2018-09-10T08:26:36Z</time>
      </trkpt>
      <trkpt lat="46.644266" lon="12.543226">
        <ele>1615.652</ele>
        <time>2018-09-10T08:26:44Z</time>
      </trkpt>
      <trkpt lat="46.644278" lon="12.543156">
        <ele>1615.117</ele>
        <time>2018-09-10T08:26:45Z</time>
      </trkpt>
      <trkpt lat="46.644295" lon="12.543084">
        <ele>1614.608</ele>
        <time>2018-09-10T08:26:46Z</time>
      </trkpt>
      <trkpt lat="46.644310" lon="12.543013">
        <ele>1614.179</ele>
        <time>2018-09-10T08:26:47Z</time>
      </trkpt>
      <trkpt lat="46.644321" lon="12.542947">
        <ele>1613.711</ele>
        <time>2018-09-10T08:26:48Z</time>
      </trkpt>
      <trkpt lat="46.644328" lon="12.542883">
        <ele>1613.299</ele>
        <time>2018-09-10T08:26:49Z</time>
      </trkpt>
      <trkpt lat="46.644332" lon="12.542817">
        <ele>1612.714</ele>
        <time>2018-09-10T08:26:50Z</time>
      </trkpt>
      <trkpt lat="46.644342" lon="12.542474">
        <ele>1609.312</ele>
        <time>2018-09-10T08:26:55Z</time>
      </trkpt>
      <trkpt lat="46.644342" lon="12.542398">
        <ele>1608.982</ele>
        <time>2018-09-10T08:26:56Z</time>
      </trkpt>
      <trkpt lat="46.644336" lon="12.542315">
        <ele>1608.417</ele>
        <time>2018-09-10T08:26:57Z</time>
      </trkpt>
      <trkpt lat="46.644323" lon="12.542231">
        <ele>1607.965</ele>
        <time>2018-09-10T08:26:58Z</time>
      </trkpt>
      <trkpt lat="46.644304" lon="12.542148">
        <ele>1607.419</ele>
        <time>2018-09-10T08:26:59Z</time>
      </trkpt>
      <trkpt lat="46.644279" lon="12.542062">
        <ele>1607.409</ele>
        <time>2018-09-10T08:27:00Z</time>
      </trkpt>
      <trkpt lat="46.644253" lon="12.541976">
        <ele>1606.919</ele>
        <time>2018-09-10T08:27:01Z</time>
      </trkpt>
      <trkpt lat="46.644233" lon="12.541891">
        <ele>1606.508</ele>
        <time>2018-09-10T08:27:02Z</time>
      </trkpt>
      <trkpt lat="46.644218" lon="12.541799">
        <ele>1606.085</ele>
        <time>2018-09-10T08:27:03Z</time>
      </trkpt>
      <trkpt lat="46.644176" lon="12.541559">
        <ele>1606.067</ele>
        <time>2018-09-10T08:27:06Z</time>
      </trkpt>
      <trkpt lat="46.644158" lon="12.541491">
        <ele>1606.075</ele>
        <time>2018-09-10T08:27:07Z</time>
      </trkpt>
      <trkpt lat="46.644139" lon="12.541425">
        <ele>1606.020</ele>
        <time>2018-09-10T08:27:08Z</time>
      </trkpt>
      <trkpt lat="46.644125" lon="12.541358">
        <ele>1605.518</ele>
        <time>2018-09-10T08:27:09Z</time>
      </trkpt>
      <trkpt lat="46.644116" lon="12.541290">
        <ele>1605.568</ele>
        <time>2018-09-10T08:27:10Z</time>
      </trkpt>
      <trkpt lat="46.644112" lon="12.541219">
        <ele>1605.563</ele>
        <time>2018-09-10T08:27:11Z</time>
      </trkpt>
      <trkpt lat="46.644110" lon="12.541145">
        <ele>1605.551</ele>
        <time>2018-09-10T08:27:12Z</time>
      </trkpt>
      <trkpt lat="46.644117" lon="12.540996">
        <ele>1605.584</ele>
        <time>2018-09-10T08:27:14Z</time>
      </trkpt>
      <trkpt lat="46.644129" lon="12.540919">
        <ele>1605.007</ele>
        <time>2018-09-10T08:27:15Z</time>
      </trkpt>
      <trkpt lat="46.644142" lon="12.540844">
        <ele>1604.517</ele>
        <time>2018-09-10T08:27:16Z</time>
      </trkpt>
      <trkpt lat="46.644193" lon="12.540480">
        <ele>1600.708</ele>
        <time>2018-09-10T08:27:21Z</time>
      </trkpt>
      <trkpt lat="46.644211" lon="12.540241">
        <ele>1598.342</ele>
        <time>2018-09-10T08:27:25Z</time>
      </trkpt>
      <trkpt lat="46.644230" lon="12.540210">
        <ele>1597.824</ele>
        <time>2018-09-10T08:27:26Z</time>
      </trkpt>
      <trkpt lat="46.644252" lon="12.540193">
        <ele>1597.372</ele>
        <time>2018-09-10T08:27:27Z</time>
      </trkpt>
      <trkpt lat="46.644272" lon="12.540178">
        <ele>1596.877</ele>
        <time>2018-09-10T08:27:28Z</time>
      </trkpt>
      <trkpt lat="46.644287" lon="12.540160">
        <ele>1596.885</ele>
        <time>2018-09-10T08:27:29Z</time>
      </trkpt>
      <trkpt lat="46.644299" lon="12.540144">
        <ele>1596.445</ele>
        <time>2018-09-10T08:27:30Z</time>
      </trkpt>
      <trkpt lat="46.644312" lon="12.540129">
        <ele>1596.450</ele>
        <time>2018-09-10T08:27:31Z</time>
      </trkpt>
      <trkpt lat="46.644333" lon="12.540089">
        <ele>1596.498</ele>
        <time>2018-09-10T08:27:33Z</time>
      </trkpt>
      <trkpt lat="46.644332" lon="12.540067">
        <ele>1596.415</ele>
        <time>2018-09-10T08:27:34Z</time>
      </trkpt>
      <trkpt lat="46.644426" lon="12.539619">
        <ele>1591.665</ele>
        <time>2018-09-10T08:27:47Z</time>
      </trkpt>
      <trkpt lat="46.644594" lon="12.539159">
        <ele>1581.911</ele>
        <time>2018-09-10T08:27:57Z</time>
      </trkpt>
      <trkpt lat="46.644606" lon="12.539095">
        <ele>1581.508</ele>
        <time>2018-09-10T08:27:58Z</time>
      </trkpt>
      <trkpt lat="46.644643" lon="12.538795">
        <ele>1578.665</ele>
        <time>2018-09-10T08:28:02Z</time>
      </trkpt>
      <trkpt lat="46.644643" lon="12.538721">
        <ele>1578.177</ele>
        <time>2018-09-10T08:28:03Z</time>
      </trkpt>
      <trkpt lat="46.644638" lon="12.538650">
        <ele>1577.165</ele>
        <time>2018-09-10T08:28:04Z</time>
      </trkpt>
      <trkpt lat="46.644625" lon="12.538583">
        <ele>1577.160</ele>
        <time>2018-09-10T08:28:05Z</time>
      </trkpt>
      <trkpt lat="46.644605" lon="12.538515">
        <ele>1576.788</ele>
        <time>2018-09-10T08:28:06Z</time>
      </trkpt>
      <trkpt lat="46.644581" lon="12.538453">
        <ele>1576.228</ele>
        <time>2018-09-10T08:28:07Z</time>
      </trkpt>
      <trkpt lat="46.644554" lon="12.538394">
        <ele>1576.273</ele>
        <time>2018-09-10T08:28:08Z</time>
      </trkpt>
      <trkpt lat="46.644526" lon="12.538337">
        <ele>1575.731</ele>
        <time>2018-09-10T08:28:09Z</time>
      </trkpt>
      <trkpt lat="46.644481" lon="12.538214">
        <ele>1576.285</ele>
        <time>2018-09-10T08:28:11Z</time>
      </trkpt>
      <trkpt lat="46.644427" lon="12.538012">
        <ele>1576.289</ele>
        <time>2018-09-10T08:28:14Z</time>
      </trkpt>
      <trkpt lat="46.644414" lon="12.537942">
        <ele>1575.717</ele>
        <time>2018-09-10T08:28:15Z</time>
      </trkpt>
      <trkpt lat="46.644404" lon="12.537872">
        <ele>1575.708</ele>
        <time>2018-09-10T08:28:16Z</time>
      </trkpt>
      <trkpt lat="46.644401" lon="12.537806">
        <ele>1575.232</ele>
        <time>2018-09-10T08:28:17Z</time>
      </trkpt>
      <trkpt lat="46.644405" lon="12.537742">
        <ele>1575.274</ele>
        <time>2018-09-10T08:28:18Z</time>
      </trkpt>
      <trkpt lat="46.644466" lon="12.537311">
        <ele>1571.822</ele>
        <time>2018-09-10T08:28:25Z</time>
      </trkpt>
      <trkpt lat="46.644493" lon="12.537256">
        <ele>1570.967</ele>
        <time>2018-09-10T08:28:26Z</time>
      </trkpt>
      <trkpt lat="46.644517" lon="12.537193">
        <ele>1569.415</ele>
        <time>2018-09-10T08:28:27Z</time>
      </trkpt>
      <trkpt lat="46.644575" lon="12.536981">
        <ele>1565.655</ele>
        <time>2018-09-10T08:28:30Z</time>
      </trkpt>
      <trkpt lat="46.644582" lon="12.536908">
        <ele>1564.610</ele>
        <time>2018-09-10T08:28:31Z</time>
      </trkpt>
      <trkpt lat="46.644579" lon="12.536765">
        <ele>1563.288</ele>
        <time>2018-09-10T08:28:33Z</time>
      </trkpt>
      <trkpt lat="46.644569" lon="12.536684">
        <ele>1562.291</ele>
        <time>2018-09-10T08:28:34Z</time>
      </trkpt>
      <trkpt lat="46.644516" lon="12.536087">
        <ele>1559.881</ele>
        <time>2018-09-10T08:28:42Z</time>
      </trkpt>
      <trkpt lat="46.644520" lon="12.536017">
        <ele>1559.819</ele>
        <time>2018-09-10T08:28:43Z</time>
      </trkpt>
      <trkpt lat="46.644527" lon="12.535942">
        <ele>1559.808</ele>
        <time>2018-09-10T08:28:44Z</time>
      </trkpt>
      <trkpt lat="46.644541" lon="12.535870">
        <ele>1559.873</ele>
        <time>2018-09-10T08:28:45Z</time>
      </trkpt>
      <trkpt lat="46.644560" lon="12.535807">
        <ele>1559.865</ele>
        <time>2018-09-10T08:28:46Z</time>
      </trkpt>
      <trkpt lat="46.644577" lon="12.535747">
        <ele>1559.473</ele>
        <time>2018-09-10T08:28:47Z</time>
      </trkpt>
      <trkpt lat="46.644590" lon="12.535685">
        <ele>1559.498</ele>
        <time>2018-09-10T08:28:48Z</time>
      </trkpt>
      <trkpt lat="46.644598" lon="12.535622">
        <ele>1558.916</ele>
        <time>2018-09-10T08:28:49Z</time>
      </trkpt>
      <trkpt lat="46.644607" lon="12.535561">
        <ele>1558.436</ele>
        <time>2018-09-10T08:28:50Z</time>
      </trkpt>
      <trkpt lat="46.644616" lon="12.535509">
        <ele>1557.961</ele>
        <time>2018-09-10T08:28:51Z</time>
      </trkpt>
      <trkpt lat="46.644622" lon="12.534926">
        <ele>1552.679</ele>
        <time>2018-09-10T08:29:02Z</time>
      </trkpt>
      <trkpt lat="46.644602" lon="12.534397">
        <ele>1550.725</ele>
        <time>2018-09-10T08:29:12Z</time>
      </trkpt>
      <trkpt lat="46.644589" lon="12.533830">
        <ele>1547.326</ele>
        <time>2018-09-10T08:29:23Z</time>
      </trkpt>
      <trkpt lat="46.644575" lon="12.533780">
        <ele>1546.908</ele>
        <time>2018-09-10T08:29:24Z</time>
      </trkpt>
      <trkpt lat="46.644556" lon="12.533732">
        <ele>1546.408</ele>
        <time>2018-09-10T08:29:25Z</time>
      </trkpt>
      <trkpt lat="46.644532" lon="12.533683">
        <ele>1545.926</ele>
        <time>2018-09-10T08:29:26Z</time>
      </trkpt>
      <trkpt lat="46.644508" lon="12.533639">
        <ele>1545.448</ele>
        <time>2018-09-10T08:29:27Z</time>
      </trkpt>
      <trkpt lat="46.644485" lon="12.533588">
        <ele>1544.546</ele>
        <time>2018-09-10T08:29:28Z</time>
      </trkpt>
      <trkpt lat="46.644466" lon="12.533528">
        <ele>1543.551</ele>
        <time>2018-09-10T08:29:29Z</time>
      </trkpt>
      <trkpt lat="46.644455" lon="12.533466">
        <ele>1543.059</ele>
        <time>2018-09-10T08:29:30Z</time>
      </trkpt>
      <trkpt lat="46.644421" lon="12.533068">
        <ele>1537.269</ele>
        <time>2018-09-10T08:29:36Z</time>
      </trkpt>
      <trkpt lat="46.644406" lon="12.533008">
        <ele>1536.894</ele>
        <time>2018-09-10T08:29:37Z</time>
      </trkpt>
      <trkpt lat="46.644385" lon="12.532950">
        <ele>1535.832</ele>
        <time>2018-09-10T08:29:38Z</time>
      </trkpt>
      <trkpt lat="46.644358" lon="12.532894">
        <ele>1535.369</ele>
        <time>2018-09-10T08:29:39Z</time>
      </trkpt>
      <trkpt lat="46.644324" lon="12.532845">
        <ele>1534.804</ele>
        <time>2018-09-10T08:29:40Z</time>
      </trkpt>
      <trkpt lat="46.644286" lon="12.532805">
        <ele>1534.424</ele>
        <time>2018-09-10T08:29:41Z</time>
      </trkpt>
      <trkpt lat="46.644245" lon="12.532774">
        <ele>1533.908</ele>
        <time>2018-09-10T08:29:42Z</time>
      </trkpt>
      <trkpt lat="46.644207" lon="12.532750">
        <ele>1533.410</ele>
        <time>2018-09-10T08:29:43Z</time>
      </trkpt>
      <trkpt lat="46.644077" lon="12.532549">
        <ele>1530.542</ele>
        <time>2018-09-10T08:29:48Z</time>
      </trkpt>
      <trkpt lat="46.644069" lon="12.532493">
        <ele>1530.060</ele>
        <time>2018-09-10T08:29:49Z</time>
      </trkpt>
      <trkpt lat="46.644062" lon="12.532376">
        <ele>1529.195</ele>
        <time>2018-09-10T08:29:51Z</time>
      </trkpt>
      <trkpt lat="46.644075" lon="12.532199">
        <ele>1527.123</ele>
        <time>2018-09-10T08:29:54Z</time>
      </trkpt>
      <trkpt lat="46.644186" lon="12.531580">
        <ele>1518.543</ele>
        <time>2018-09-10T08:30:03Z</time>
      </trkpt>
      <trkpt lat="46.644261" lon="12.530758">
        <ele>1509.838</ele>
        <time>2018-09-10T08:30:17Z</time>
      </trkpt>
      <trkpt lat="46.644264" lon="12.530671">
        <ele>1509.446</ele>
        <time>2018-09-10T08:30:19Z</time>
      </trkpt>
      <trkpt lat="46.644254" lon="12.530643">
        <ele>1508.949</ele>
        <time>2018-09-10T08:30:20Z</time>
      </trkpt>
      <trkpt lat="46.644239" lon="12.530620">
        <ele>1508.902</ele>
        <time>2018-09-10T08:30:21Z</time>
      </trkpt>
      <trkpt lat="46.644222" lon="12.530599">
        <ele>1508.922</ele>
        <time>2018-09-10T08:30:22Z</time>
      </trkpt>
      <trkpt lat="46.644206" lon="12.530584">
        <ele>1508.908</ele>
        <time>2018-09-10T08:30:23Z</time>
      </trkpt>
      <trkpt lat="46.644182" lon="12.530577">
        <ele>1508.998</ele>
        <time>2018-09-10T08:30:25Z</time>
      </trkpt>
      <trkpt lat="46.644170" lon="12.530583">
        <ele>1508.450</ele>
        <time>2018-09-10T08:30:26Z</time>
      </trkpt>
      <trkpt lat="46.644159" lon="12.530592">
        <ele>1508.458</ele>
        <time>2018-09-10T08:30:27Z</time>
      </trkpt>
      <trkpt lat="46.644137" lon="12.530616">
        <ele>1507.443</ele>
        <time>2018-09-10T08:30:30Z</time>
      </trkpt>
      <trkpt lat="46.644132" lon="12.530632">
        <ele>1507.081</ele>
        <time>2018-09-10T08:30:31Z</time>
      </trkpt>
      <trkpt lat="46.644021" lon="12.530888">
        <ele>1503.191</ele>
        <time>2018-09-10T08:30:38Z</time>
      </trkpt>
      <trkpt lat="46.643986" lon="12.530945">
        <ele>1502.646</ele>
        <time>2018-09-10T08:30:39Z</time>
      </trkpt>
      <trkpt lat="46.643948" lon="12.531006">
        <ele>1501.734</ele>
        <time>2018-09-10T08:30:40Z</time>
      </trkpt>
      <trkpt lat="46.643881" lon="12.531120">
        <ele>1500.224</ele>
        <time>2018-09-10T08:30:42Z</time>
      </trkpt>
      <trkpt lat="46.643859" lon="12.531171">
        <ele>1499.304</ele>
        <time>2018-09-10T08:30:43Z</time>
      </trkpt>
      <trkpt lat="46.643837" lon="12.531212">
        <ele>1498.314</ele>
        <time>2018-09-10T08:30:44Z</time>
      </trkpt>
      <trkpt lat="46.643810" lon="12.531240">
        <ele>1497.308</ele>
        <time>2018-09-10T08:30:45Z</time>
      </trkpt>
      <trkpt lat="46.643779" lon="12.531260">
        <ele>1496.446</ele>
        <time>2018-09-10T08:30:46Z</time>
      </trkpt>
      <trkpt lat="46.643746" lon="12.531254">
        <ele>1495.928</ele>
        <time>2018-09-10T08:30:47Z</time>
      </trkpt>
      <trkpt lat="46.643719" lon="12.531219">
        <ele>1494.946</ele>
        <time>2018-09-10T08:30:48Z</time>
      </trkpt>
      <trkpt lat="46.643702" lon="12.531172">
        <ele>1494.081</ele>
        <time>2018-09-10T08:30:49Z</time>
      </trkpt>
      <trkpt lat="46.643695" lon="12.531116">
        <ele>1493.569</ele>
        <time>2018-09-10T08:30:50Z</time>
      </trkpt>
      <trkpt lat="46.643697" lon="12.531059">
        <ele>1492.549</ele>
        <time>2018-09-10T08:30:51Z</time>
      </trkpt>
      <trkpt lat="46.643701" lon="12.530995">
        <ele>1491.674</ele>
        <time>2018-09-10T08:30:52Z</time>
      </trkpt>
      <trkpt lat="46.643697" lon="12.530934">
        <ele>1491.172</ele>
        <time>2018-09-10T08:30:53Z</time>
      </trkpt>
      <trkpt lat="46.643679" lon="12.530881">
        <ele>1490.622</ele>
        <time>2018-09-10T08:30:54Z</time>
      </trkpt>
      <trkpt lat="46.643645" lon="12.530849">
        <ele>1490.662</ele>
        <time>2018-09-10T08:30:55Z</time>
      </trkpt>
      <trkpt lat="46.643606" lon="12.530835">
        <ele>1490.108</ele>
        <time>2018-09-10T08:30:56Z</time>
      </trkpt>
      <trkpt lat="46.643564" lon="12.530826">
        <ele>1490.108</ele>
        <time>2018-09-10T08:30:57Z</time>
      </trkpt>
      <trkpt lat="46.643524" lon="12.530810">
        <ele>1489.296</ele>
        <time>2018-09-10T08:30:58Z</time>
      </trkpt>
      <trkpt lat="46.643485" lon="12.530782">
        <ele>1488.728</ele>
        <time>2018-09-10T08:30:59Z</time>
      </trkpt>
      <trkpt lat="46.643451" lon="12.530738">
        <ele>1487.796</ele>
        <time>2018-09-10T08:31:00Z</time>
      </trkpt>
      <trkpt lat="46.643307" lon="12.530476">
        <ele>1482.991</ele>
        <time>2018-09-10T08:31:05Z</time>
      </trkpt>
      <trkpt lat="46.643053" lon="12.530104">
        <ele>1476.259</ele>
        <time>2018-09-10T08:31:12Z</time>
      </trkpt>
      <trkpt lat="46.642989" lon="12.529976">
        <ele>1474.869</ele>
        <time>2018-09-10T08:31:14Z</time>
      </trkpt>
      <trkpt lat="46.642952" lon="12.529925">
        <ele>1474.324</ele>
        <time>2018-09-10T08:31:15Z</time>
      </trkpt>
      <trkpt lat="46.642910" lon="12.529895">
        <ele>1473.312</ele>
        <time>2018-09-10T08:31:16Z</time>
      </trkpt>
      <trkpt lat="46.642587" lon="12.529713">
        <ele>1469.585</ele>
        <time>2018-09-10T08:31:26Z</time>
      </trkpt>
      <trkpt lat="46.642562" lon="12.529678">
        <ele>1469.089</ele>
        <time>2018-09-10T08:31:28Z</time>
      </trkpt>
      <trkpt lat="46.642568" lon="12.529752">
        <ele>1470.417</ele>
        <time>2018-09-10T08:31:37Z</time>
      </trkpt>
      <trkpt lat="46.642579" lon="12.529836">
        <ele>1471.908</ele>
        <time>2018-09-10T08:31:53Z</time>
      </trkpt>
      <trkpt lat="46.642663" lon="12.529862">
        <ele>1473.382</ele>
        <time>2018-09-10T08:32:24Z</time>
      </trkpt>
      <trkpt lat="46.642677" lon="12.529791">
        <ele>1479.694</ele>
        <time>2018-09-10T08:32:52Z</time>
      </trkpt>
      <trkpt lat="46.642595" lon="12.529779">
        <ele>1479.612</ele>
        <time>2018-09-10T08:32:58Z</time>
      </trkpt>
      <trkpt lat="46.642581" lon="12.529764">
        <ele>1479.677</ele>
        <time>2018-09-10T08:32:59Z</time>
      </trkpt>
      <trkpt lat="46.642566" lon="12.529742">
        <ele>1479.145</ele>
        <time>2018-09-10T08:33:00Z</time>
      </trkpt>
      <trkpt lat="46.642553" lon="12.529714">
        <ele>1479.165</ele>
        <time>2018-09-10T08:33:01Z</time>
      </trkpt>
      <trkpt lat="46.642542" lon="12.529679">
        <ele>1479.110</ele>
        <time>2018-09-10T08:33:02Z</time>
      </trkpt>
      <trkpt lat="46.642535" lon="12.529639">
        <ele>1479.158</ele>
        <time>2018-09-10T08:33:03Z</time>
      </trkpt>
      <trkpt lat="46.642524" lon="12.529600">
        <ele>1478.152</ele>
        <time>2018-09-10T08:33:04Z</time>
      </trkpt>
      <trkpt lat="46.642502" lon="12.529566">
        <ele>1477.653</ele>
        <time>2018-09-10T08:33:05Z</time>
      </trkpt>
      <trkpt lat="46.642476" lon="12.529533">
        <ele>1477.208</ele>
        <time>2018-09-10T08:33:06Z</time>
      </trkpt>
      <trkpt lat="46.642447" lon="12.529498">
        <ele>1476.708</ele>
        <time>2018-09-10T08:33:07Z</time>
      </trkpt>
      <trkpt lat="46.642414" lon="12.529468">
        <ele>1475.799</ele>
        <time>2018-09-10T08:33:08Z</time>
      </trkpt>
      <trkpt lat="46.642203" lon="12.529214">
        <ele>1472.421</ele>
        <time>2018-09-10T08:33:16Z</time>
      </trkpt>
      <trkpt lat="46.642201" lon="12.529195">
        <ele>1472.449</ele>
        <time>2018-09-10T08:33:17Z</time>
      </trkpt>
      <trkpt lat="46.642207" lon="12.529168">
        <ele>1470.964</ele>
        <time>2018-09-10T08:33:31Z</time>
      </trkpt>
      <trkpt lat="46.642242" lon="12.529149">
        <ele>1470.472</ele>
        <time>2018-09-10T08:33:35Z</time>
      </trkpt>
      <trkpt lat="46.642259" lon="12.529152">
        <ele>1470.482</ele>
        <time>2018-09-10T08:33:36Z</time>
      </trkpt>
      <trkpt lat="46.642277" lon="12.529155">
        <ele>1470.927</ele>
        <time>2018-09-10T08:33:37Z</time>
      </trkpt>
      <trkpt lat="46.642661" lon="12.529208">
        <ele>1470.495</ele>
        <time>2018-09-10T08:33:53Z</time>
      </trkpt>
      <trkpt lat="46.642929" lon="12.529257">
        <ele>1470.428</ele>
        <time>2018-09-10T08:34:08Z</time>
      </trkpt>
      <trkpt lat="46.643164" lon="12.529360">
        <ele>1470.489</ele>
        <time>2018-09-10T08:34:23Z</time>
      </trkpt>
      <trkpt lat="46.643333" lon="12.529451">
        <ele>1470.417</ele>
        <time>2018-09-10T08:34:34Z</time>
      </trkpt>
      <trkpt lat="46.643349" lon="12.529454">
        <ele>1470.408</ele>
        <time>2018-09-10T08:34:35Z</time>
      </trkpt>
      <trkpt lat="46.643556" lon="12.529555">
        <ele>1471.496</ele>
        <time>2018-09-10T08:34:49Z</time>
      </trkpt>
      <trkpt lat="46.643825" lon="12.529612">
        <ele>1475.788</ele>
        <time>2018-09-10T08:35:08Z</time>
      </trkpt>
      <trkpt lat="46.644022" lon="12.529546">
        <ele>1478.676</ele>
        <time>2018-09-10T08:35:21Z</time>
      </trkpt>
      <trkpt lat="46.644284" lon="12.529592">
        <ele>1480.571</ele>
        <time>2018-09-10T08:35:38Z</time>
      </trkpt>
      <trkpt lat="46.644544" lon="12.529696">
        <ele>1482.479</ele>
        <time>2018-09-10T08:35:56Z</time>
      </trkpt>
      <trkpt lat="46.644780" lon="12.529762">
        <ele>1482.939</ele>
        <time>2018-09-10T08:36:12Z</time>
      </trkpt>
      <trkpt lat="46.645043" lon="12.529891">
        <ele>1484.854</ele>
        <time>2018-09-10T08:36:30Z</time>
      </trkpt>
      <trkpt lat="46.645158" lon="12.529951">
        <ele>1472.832</ele>
        <time>2018-09-10T08:41:07Z</time>
      </trkpt>
      <trkpt lat="46.645158" lon="12.529966">
        <ele>1488.242</ele>
        <time>2018-09-10T08:45:28Z</time>
      </trkpt>
      <trkpt lat="46.645169" lon="12.529975">
        <ele>1488.222</ele>
        <time>2018-09-10T08:45:29Z</time>
      </trkpt>
      <trkpt lat="46.645178" lon="12.529988">
        <ele>1488.214</ele>
        <time>2018-09-10T08:45:30Z</time>
      </trkpt>
      <trkpt lat="46.645189" lon="12.530001">
        <ele>1488.708</ele>
        <time>2018-09-10T08:45:31Z</time>
      </trkpt>
      <trkpt lat="46.645202" lon="12.530016">
        <ele>1488.798</ele>
        <time>2018-09-10T08:45:32Z</time>
      </trkpt>
      <trkpt lat="46.645449" lon="12.530127">
        <ele>1487.780</ele>
        <time>2018-09-10T08:45:47Z</time>
      </trkpt>
      <trkpt lat="46.645535" lon="12.530116">
        <ele>1486.868</ele>
        <time>2018-09-10T08:45:53Z</time>
      </trkpt>
      <trkpt lat="46.645751" lon="12.530088">
        <ele>1485.323</ele>
        <time>2018-09-10T08:46:09Z</time>
      </trkpt>
      <trkpt lat="46.645973" lon="12.530072">
        <ele>1485.361</ele>
        <time>2018-09-10T08:46:24Z</time>
      </trkpt>
      <trkpt lat="46.646215" lon="12.530003">
        <ele>1488.721</ele>
        <time>2018-09-10T08:46:42Z</time>
      </trkpt>
      <trkpt lat="46.646427" lon="12.529829">
        <ele>1489.786</ele>
        <time>2018-09-10T08:46:58Z</time>
      </trkpt>
      <trkpt lat="46.646592" lon="12.529583">
        <ele>1490.114</ele>
        <time>2018-09-10T08:47:14Z</time>
      </trkpt>
      <trkpt lat="46.646623" lon="12.529539">
        <ele>1490.652</ele>
        <time>2018-09-10T08:47:17Z</time>
      </trkpt>
      <trkpt lat="46.646633" lon="12.529526">
        <ele>1490.653</ele>
        <time>2018-09-10T08:47:18Z</time>
      </trkpt>
      <trkpt lat="46.646643" lon="12.529515">
        <ele>1490.608</ele>
        <time>2018-09-10T08:47:19Z</time>
      </trkpt>
      <trkpt lat="46.646839" lon="12.529348">
        <ele>1493.008</ele>
        <time>2018-09-10T08:47:36Z</time>
      </trkpt>
      <trkpt lat="46.647044" lon="12.529233">
        <ele>1492.569</ele>
        <time>2018-09-10T08:47:52Z</time>
      </trkpt>
      <trkpt lat="46.647157" lon="12.529133">
        <ele>1492.591</ele>
        <time>2018-09-10T08:48:01Z</time>
      </trkpt>
      <trkpt lat="46.647170" lon="12.529123">
        <ele>1493.059</ele>
        <time>2018-09-10T08:48:02Z</time>
      </trkpt>
      <trkpt lat="46.647226" lon="12.529033">
        <ele>1493.544</ele>
        <time>2018-09-10T08:48:08Z</time>
      </trkpt>
      <trkpt lat="46.647384" lon="12.528727">
        <ele>1497.342</ele>
        <time>2018-09-10T08:48:26Z</time>
      </trkpt>
      <trkpt lat="46.647603" lon="12.528573">
        <ele>1496.942</ele>
        <time>2018-09-10T08:48:43Z</time>
      </trkpt>
      <trkpt lat="46.647794" lon="12.528524">
        <ele>1500.737</ele>
        <time>2018-09-10T08:48:58Z</time>
      </trkpt>
      <trkpt lat="46.648016" lon="12.528629">
        <ele>1504.695</ele>
        <time>2018-09-10T08:49:15Z</time>
      </trkpt>
      <trkpt lat="46.648225" lon="12.528756">
        <ele>1505.015</ele>
        <time>2018-09-10T08:49:32Z</time>
      </trkpt>
      <trkpt lat="46.648357" lon="12.528744">
        <ele>1509.865</ele>
        <time>2018-09-10T08:49:44Z</time>
      </trkpt>
      <trkpt lat="46.648370" lon="12.528741">
        <ele>1510.311</ele>
        <time>2018-09-10T08:49:45Z</time>
      </trkpt>
      <trkpt lat="46.648386" lon="12.528736">
        <ele>1510.308</ele>
        <time>2018-09-10T08:49:46Z</time>
      </trkpt>
      <trkpt lat="46.648627" lon="12.528620">
        <ele>1509.835</ele>
        <time>2018-09-10T08:50:05Z</time>
      </trkpt>
      <trkpt lat="46.648666" lon="12.528603">
        <ele>1509.897</ele>
        <time>2018-09-10T08:50:08Z</time>
      </trkpt>
      <trkpt lat="46.648678" lon="12.528593">
        <ele>1509.885</ele>
        <time>2018-09-10T08:50:09Z</time>
      </trkpt>
      <trkpt lat="46.648691" lon="12.528582">
        <ele>1509.860</ele>
        <time>2018-09-10T08:50:10Z</time>
      </trkpt>
      <trkpt lat="46.648702" lon="12.528571">
        <ele>1509.828</ele>
        <time>2018-09-10T08:50:11Z</time>
      </trkpt>
      <trkpt lat="46.648716" lon="12.528563">
        <ele>1509.828</ele>
        <time>2018-09-10T08:50:12Z</time>
      </trkpt>
      <trkpt lat="46.648730" lon="12.528556">
        <ele>1509.823</ele>
        <time>2018-09-10T08:50:13Z</time>
      </trkpt>
      <trkpt lat="46.648849" lon="12.528458">
        <ele>1511.341</ele>
        <time>2018-09-10T08:50:25Z</time>
      </trkpt>
      <trkpt lat="46.649014" lon="12.528401">
        <ele>1516.199</ele>
        <time>2018-09-10T08:50:41Z</time>
      </trkpt>
      <trkpt lat="46.649200" lon="12.528361">
        <ele>1519.007</ele>
        <time>2018-09-10T08:50:58Z</time>
      </trkpt>
      <trkpt lat="46.649349" lon="12.528347">
        <ele>1522.827</ele>
        <time>2018-09-10T08:51:11Z</time>
      </trkpt>
      <trkpt lat="46.649500" lon="12.528283">
        <ele>1527.108</ele>
        <time>2018-09-10T08:51:28Z</time>
      </trkpt>
      <trkpt lat="46.649607" lon="12.528222">
        <ele>1530.553</ele>
        <time>2018-09-10T08:51:41Z</time>
      </trkpt>
      <trkpt lat="46.649624" lon="12.528174">
        <ele>1531.565</ele>
        <time>2018-09-10T08:51:45Z</time>
      </trkpt>
      <trkpt lat="46.649729" lon="12.528060">
        <ele>1533.913</ele>
        <time>2018-09-10T08:51:58Z</time>
      </trkpt>
      <trkpt lat="46.649734" lon="12.528045">
        <ele>1533.998</ele>
        <time>2018-09-10T08:51:59Z</time>
      </trkpt>
      <trkpt lat="46.649744" lon="12.528033">
        <ele>1533.916</ele>
        <time>2018-09-10T08:52:00Z</time>
      </trkpt>
      <trkpt lat="46.649884" lon="12.527793">
        <ele>1534.876</ele>
        <time>2018-09-10T08:52:19Z</time>
      </trkpt>
      <trkpt lat="46.649961" lon="12.527661">
        <ele>1535.381</ele>
        <time>2018-09-10T08:52:30Z</time>
      </trkpt>
      <trkpt lat="46.649971" lon="12.527649">
        <ele>1535.319</ele>
        <time>2018-09-10T08:52:31Z</time>
      </trkpt>
      <trkpt lat="46.649978" lon="12.527636">
        <ele>1535.878</ele>
        <time>2018-09-10T08:52:32Z</time>
      </trkpt>
      <trkpt lat="46.650093" lon="12.527413">
        <ele>1537.733</ele>
        <time>2018-09-10T08:52:50Z</time>
      </trkpt>
      <trkpt lat="46.650102" lon="12.527386">
        <ele>1538.226</ele>
        <time>2018-09-10T08:52:52Z</time>
      </trkpt>
      <trkpt lat="46.650107" lon="12.527370">
        <ele>1538.708</ele>
        <time>2018-09-10T08:52:53Z</time>
      </trkpt>
      <trkpt lat="46.650254" lon="12.527156">
        <ele>1543.041</ele>
        <time>2018-09-10T08:53:13Z</time>
      </trkpt>
      <trkpt lat="46.650431" lon="12.527028">
        <ele>1544.043</ele>
        <time>2018-09-10T08:53:31Z</time>
      </trkpt>
      <trkpt lat="46.650594" lon="12.526867">
        <ele>1544.081</ele>
        <time>2018-09-10T08:53:49Z</time>
      </trkpt>
      <trkpt lat="46.650776" lon="12.526680">
        <ele>1550.296</ele>
        <time>2018-09-10T08:54:10Z</time>
      </trkpt>
      <trkpt lat="46.650821" lon="12.526609">
        <ele>1551.714</ele>
        <time>2018-09-10T08:54:16Z</time>
      </trkpt>
      <trkpt lat="46.650833" lon="12.526601">
        <ele>1552.184</ele>
        <time>2018-09-10T08:54:17Z</time>
      </trkpt>
      <trkpt lat="46.650843" lon="12.526592">
        <ele>1552.139</ele>
        <time>2018-09-10T08:54:18Z</time>
      </trkpt>
      <trkpt lat="46.650854" lon="12.526583">
        <ele>1552.197</ele>
        <time>2018-09-10T08:54:19Z</time>
      </trkpt>
      <trkpt lat="46.650865" lon="12.526574">
        <ele>1552.177</ele>
        <time>2018-09-10T08:54:20Z</time>
      </trkpt>
      <trkpt lat="46.651050" lon="12.526388">
        <ele>1552.661</ele>
        <time>2018-09-10T08:54:37Z</time>
      </trkpt>
      <trkpt lat="46.651257" lon="12.526151">
        <ele>1553.627</ele>
        <time>2018-09-10T08:54:53Z</time>
      </trkpt>
      <trkpt lat="46.651444" lon="12.525844">
        <ele>1556.508</ele>
        <time>2018-09-10T08:55:11Z</time>
      </trkpt>
      <trkpt lat="46.651535" lon="12.525478">
        <ele>1558.441</ele>
        <time>2018-09-10T08:55:29Z</time>
      </trkpt>
      <trkpt lat="46.651664" lon="12.525154">
        <ele>1557.983</ele>
        <time>2018-09-10T08:55:46Z</time>
      </trkpt>
      <trkpt lat="46.651679" lon="12.525116">
        <ele>1557.951</ele>
        <time>2018-09-10T08:55:48Z</time>
      </trkpt>
      <trkpt lat="46.651689" lon="12.525099">
        <ele>1558.436</ele>
        <time>2018-09-10T08:55:49Z</time>
      </trkpt>
      <trkpt lat="46.651697" lon="12.525080">
        <ele>1558.484</ele>
        <time>2018-09-10T08:55:50Z</time>
      </trkpt>
      <trkpt lat="46.651709" lon="12.525062">
        <ele>1558.464</ele>
        <time>2018-09-10T08:55:51Z</time>
      </trkpt>
      <trkpt lat="46.651720" lon="12.525046">
        <ele>1558.469</ele>
        <time>2018-09-10T08:55:52Z</time>
      </trkpt>
      <trkpt lat="46.651732" lon="12.525031">
        <ele>1558.947</ele>
        <time>2018-09-10T08:55:53Z</time>
      </trkpt>
      <trkpt lat="46.651746" lon="12.525020">
        <ele>1558.943</ele>
        <time>2018-09-10T08:55:54Z</time>
      </trkpt>
      <trkpt lat="46.651760" lon="12.525012">
        <ele>1558.964</ele>
        <time>2018-09-10T08:55:55Z</time>
      </trkpt>
      <trkpt lat="46.651772" lon="12.525003">
        <ele>1558.910</ele>
        <time>2018-09-10T08:55:56Z</time>
      </trkpt>
      <trkpt lat="46.651784" lon="12.524989">
        <ele>1558.908</ele>
        <time>2018-09-10T08:55:57Z</time>
      </trkpt>
      <trkpt lat="46.651795" lon="12.524978">
        <ele>1558.938</ele>
        <time>2018-09-10T08:55:58Z</time>
      </trkpt>
      <trkpt lat="46.651808" lon="12.524970">
        <ele>1558.980</ele>
        <time>2018-09-10T08:55:59Z</time>
      </trkpt>
      <trkpt lat="46.651820" lon="12.524962">
        <ele>1558.418</ele>
        <time>2018-09-10T08:56:00Z</time>
      </trkpt>
      <trkpt lat="46.651980" lon="12.524811">
        <ele>1556.093</ele>
        <time>2018-09-10T08:56:13Z</time>
      </trkpt>
      <trkpt lat="46.651995" lon="12.524805">
        <ele>1556.081</ele>
        <time>2018-09-10T08:56:14Z</time>
      </trkpt>
      <trkpt lat="46.652008" lon="12.524796">
        <ele>1556.031</ele>
        <time>2018-09-10T08:56:15Z</time>
      </trkpt>
      <trkpt lat="46.652020" lon="12.524784">
        <ele>1556.086</ele>
        <time>2018-09-10T08:56:16Z</time>
      </trkpt>
      <trkpt lat="46.652031" lon="12.524770">
        <ele>1556.044</ele>
        <time>2018-09-10T08:56:17Z</time>
      </trkpt>
      <trkpt lat="46.652043" lon="12.524751">
        <ele>1556.595</ele>
        <time>2018-09-10T08:56:18Z</time>
      </trkpt>
      <trkpt lat="46.652054" lon="12.524731">
        <ele>1556.549</ele>
        <time>2018-09-10T08:56:19Z</time>
      </trkpt>
      <trkpt lat="46.652066" lon="12.524716">
        <ele>1556.023</ele>
        <time>2018-09-10T08:56:20Z</time>
      </trkpt>
      <trkpt lat="46.652077" lon="12.524704">
        <ele>1556.008</ele>
        <time>2018-09-10T08:56:21Z</time>
      </trkpt>
      <trkpt lat="46.652089" lon="12.524689">
        <ele>1556.073</ele>
        <time>2018-09-10T08:56:22Z</time>
      </trkpt>
      <trkpt lat="46.652277" lon="12.524424">
        <ele>1557.925</ele>
        <time>2018-09-10T08:56:39Z</time>
      </trkpt>
      <trkpt lat="46.652450" lon="12.524118">
        <ele>1559.893</ele>
        <time>2018-09-10T08:56:57Z</time>
      </trkpt>
      <trkpt lat="46.652664" lon="12.523909">
        <ele>1562.218</ele>
        <time>2018-09-10T08:57:14Z</time>
      </trkpt>
      <trkpt lat="46.652817" lon="12.523675">
        <ele>1566.666</ele>
        <time>2018-09-10T08:57:30Z</time>
      </trkpt>
      <trkpt lat="46.652966" lon="12.523408">
        <ele>1569.466</ele>
        <time>2018-09-10T08:57:48Z</time>
      </trkpt>
      <trkpt lat="46.652975" lon="12.523398">
        <ele>1569.931</ele>
        <time>2018-09-10T08:57:49Z</time>
      </trkpt>
      <trkpt lat="46.652981" lon="12.523386">
        <ele>1570.429</ele>
        <time>2018-09-10T08:57:50Z</time>
      </trkpt>
      <trkpt lat="46.653060" lon="12.523125">
        <ele>1573.377</ele>
        <time>2018-09-10T08:58:06Z</time>
      </trkpt>
      <trkpt lat="46.653056" lon="12.523105">
        <ele>1574.361</ele>
        <time>2018-09-10T08:58:07Z</time>
      </trkpt>
      <trkpt lat="46.653058" lon="12.523086">
        <ele>1574.727</ele>
        <time>2018-09-10T08:58:08Z</time>
      </trkpt>
      <trkpt lat="46.653059" lon="12.523068">
        <ele>1575.208</ele>
        <time>2018-09-10T08:58:09Z</time>
      </trkpt>
      <trkpt lat="46.653057" lon="12.523051">
        <ele>1575.721</ele>
        <time>2018-09-10T08:58:10Z</time>
      </trkpt>
      <trkpt lat="46.653054" lon="12.523032">
        <ele>1575.743</ele>
        <time>2018-09-10T08:58:11Z</time>
      </trkpt>
      <trkpt lat="46.653053" lon="12.522975">
        <ele>1576.771</ele>
        <time>2018-09-10T08:58:14Z</time>
      </trkpt>
      <trkpt lat="46.653055" lon="12.522957">
        <ele>1576.796</ele>
        <time>2018-09-10T08:58:15Z</time>
      </trkpt>
      <trkpt lat="46.653055" lon="12.522938">
        <ele>1576.734</ele>
        <time>2018-09-10T08:58:16Z</time>
      </trkpt>
      <trkpt lat="46.653054" lon="12.522920">
        <ele>1576.714</ele>
        <time>2018-09-10T08:58:17Z</time>
      </trkpt>
      <trkpt lat="46.653050" lon="12.522902">
        <ele>1577.149</ele>
        <time>2018-09-10T08:58:18Z</time>
      </trkpt>
      <trkpt lat="46.653048" lon="12.522886">
        <ele>1577.167</ele>
        <time>2018-09-10T08:58:19Z</time>
      </trkpt>
      <trkpt lat="46.653048" lon="12.522869">
        <ele>1577.693</ele>
        <time>2018-09-10T08:58:20Z</time>
      </trkpt>
      <trkpt lat="46.653127" lon="12.522551">
        <ele>1580.065</ele>
        <time>2018-09-10T08:58:36Z</time>
      </trkpt>
      <trkpt lat="46.653270" lon="12.522386">
        <ele>1581.021</ele>
        <time>2018-09-10T08:58:49Z</time>
      </trkpt>
      <trkpt lat="46.653374" lon="12.522266">
        <ele>1581.508</ele>
        <time>2018-09-10T08:58:59Z</time>
      </trkpt>
      <trkpt lat="46.653387" lon="12.522263">
        <ele>1581.013</ele>
        <time>2018-09-10T08:59:00Z</time>
      </trkpt>
      <trkpt lat="46.653398" lon="12.522253">
        <ele>1581.065</ele>
        <time>2018-09-10T08:59:01Z</time>
      </trkpt>
      <trkpt lat="46.653408" lon="12.522241">
        <ele>1581.033</ele>
        <time>2018-09-10T08:59:02Z</time>
      </trkpt>
      <trkpt lat="46.653419" lon="12.522229">
        <ele>1581.598</ele>
        <time>2018-09-10T08:59:03Z</time>
      </trkpt>
      <trkpt lat="46.653431" lon="12.522219">
        <ele>1581.586</ele>
        <time>2018-09-10T08:59:04Z</time>
      </trkpt>
      <trkpt lat="46.653443" lon="12.522208">
        <ele>1581.556</ele>
        <time>2018-09-10T08:59:05Z</time>
      </trkpt>
      <trkpt lat="46.653452" lon="12.522197">
        <ele>1581.991</ele>
        <time>2018-09-10T08:59:06Z</time>
      </trkpt>
      <trkpt lat="46.653459" lon="12.522185">
        <ele>1582.449</ele>
        <time>2018-09-10T08:59:07Z</time>
      </trkpt>
      <trkpt lat="46.653519" lon="12.522099">
        <ele>1582.976</ele>
        <time>2018-09-10T08:59:14Z</time>
      </trkpt>
      <trkpt lat="46.653539" lon="12.522064">
        <ele>1583.990</ele>
        <time>2018-09-10T08:59:17Z</time>
      </trkpt>
      <trkpt lat="46.653531" lon="12.521814">
        <ele>1589.219</ele>
        <time>2018-09-10T08:59:33Z</time>
      </trkpt>
      <trkpt lat="46.653553" lon="12.521728">
        <ele>1590.108</ele>
        <time>2018-09-10T08:59:38Z</time>
      </trkpt>
      <trkpt lat="46.653556" lon="12.521708">
        <ele>1590.181</ele>
        <time>2018-09-10T08:59:39Z</time>
      </trkpt>
      <trkpt lat="46.653560" lon="12.521690">
        <ele>1590.653</ele>
        <time>2018-09-10T08:59:40Z</time>
      </trkpt>
      <trkpt lat="46.653565" lon="12.521671">
        <ele>1590.641</ele>
        <time>2018-09-10T08:59:41Z</time>
      </trkpt>
      <trkpt lat="46.653588" lon="12.521607">
        <ele>1590.676</ele>
        <time>2018-09-10T08:59:45Z</time>
      </trkpt>
      <trkpt lat="46.653599" lon="12.521597">
        <ele>1590.654</ele>
        <time>2018-09-10T08:59:46Z</time>
      </trkpt>
      <trkpt lat="46.653666" lon="12.521524">
        <ele>1591.154</ele>
        <time>2018-09-10T08:59:53Z</time>
      </trkpt>
      <trkpt lat="46.653685" lon="12.521505">
        <ele>1591.149</ele>
        <time>2018-09-10T08:59:55Z</time>
      </trkpt>
      <trkpt lat="46.653694" lon="12.521494">
        <ele>1591.167</ele>
        <time>2018-09-10T08:59:56Z</time>
      </trkpt>
      <trkpt lat="46.653705" lon="12.521490">
        <ele>1591.145</ele>
        <time>2018-09-10T08:59:57Z</time>
      </trkpt>
      <trkpt lat="46.653716" lon="12.521483">
        <ele>1591.147</ele>
        <time>2018-09-10T08:59:58Z</time>
      </trkpt>
      <trkpt lat="46.653846" lon="12.521371">
        <ele>1589.611</ele>
        <time>2018-09-10T09:00:11Z</time>
      </trkpt>
      <trkpt lat="46.653856" lon="12.521359">
        <ele>1589.608</ele>
        <time>2018-09-10T09:00:12Z</time>
      </trkpt>
      <trkpt lat="46.653866" lon="12.521347">
        <ele>1589.638</ele>
        <time>2018-09-10T09:00:13Z</time>
      </trkpt>
      <trkpt lat="46.653874" lon="12.521333">
        <ele>1589.640</ele>
        <time>2018-09-10T09:00:14Z</time>
      </trkpt>
      <trkpt lat="46.653884" lon="12.521322">
        <ele>1589.668</ele>
        <time>2018-09-10T09:00:15Z</time>
      </trkpt>
      <trkpt lat="46.653895" lon="12.521311">
        <ele>1589.653</ele>
        <time>2018-09-10T09:00:16Z</time>
      </trkpt>
      <trkpt lat="46.653908" lon="12.521302">
        <ele>1589.691</ele>
        <time>2018-09-10T09:00:17Z</time>
      </trkpt>
      <trkpt lat="46.653920" lon="12.521296">
        <ele>1589.231</ele>
        <time>2018-09-10T09:00:18Z</time>
      </trkpt>
      <trkpt lat="46.653933" lon="12.521296">
        <ele>1588.716</ele>
        <time>2018-09-10T09:00:19Z</time>
      </trkpt>
      <trkpt lat="46.653947" lon="12.521296">
        <ele>1588.774</ele>
        <time>2018-09-10T09:00:20Z</time>
      </trkpt>
      <trkpt lat="46.653961" lon="12.521289">
        <ele>1588.245</ele>
        <time>2018-09-10T09:00:21Z</time>
      </trkpt>
      <trkpt lat="46.653974" lon="12.521280">
        <ele>1588.247</ele>
        <time>2018-09-10T09:00:22Z</time>
      </trkpt>
      <trkpt lat="46.653988" lon="12.521271">
        <ele>1587.711</ele>
        <time>2018-09-10T09:00:23Z</time>
      </trkpt>
      <trkpt lat="46.654003" lon="12.521262">
        <ele>1587.208</ele>
        <time>2018-09-10T09:00:24Z</time>
      </trkpt>
      <trkpt lat="46.654018" lon="12.521252">
        <ele>1587.288</ele>
        <time>2018-09-10T09:00:25Z</time>
      </trkpt>
      <trkpt lat="46.654034" lon="12.521243">
        <ele>1587.210</ele>
        <time>2018-09-10T09:00:26Z</time>
      </trkpt>
      <trkpt lat="46.654051" lon="12.521237">
        <ele>1586.768</ele>
        <time>2018-09-10T09:00:27Z</time>
      </trkpt>
      <trkpt lat="46.654067" lon="12.521227">
        <ele>1586.793</ele>
        <time>2018-09-10T09:00:28Z</time>
      </trkpt>
      <trkpt lat="46.654085" lon="12.521218">
        <ele>1586.341</ele>
        <time>2018-09-10T09:00:29Z</time>
      </trkpt>
      <trkpt lat="46.654102" lon="12.521207">
        <ele>1586.341</ele>
        <time>2018-09-10T09:00:30Z</time>
      </trkpt>
      <trkpt lat="46.654118" lon="12.521192">
        <ele>1585.886</ele>
        <time>2018-09-10T09:00:31Z</time>
      </trkpt>
      <trkpt lat="46.654135" lon="12.521183">
        <ele>1585.874</ele>
        <time>2018-09-10T09:00:32Z</time>
      </trkpt>
      <trkpt lat="46.654402" lon="12.520929">
        <ele>1587.282</ele>
        <time>2018-09-10T09:00:51Z</time>
      </trkpt>
      <trkpt lat="46.654586" lon="12.520568">
        <ele>1591.143</ele>
        <time>2018-09-10T09:01:09Z</time>
      </trkpt>
      <trkpt lat="46.654744" lon="12.520157">
        <ele>1594.017</ele>
        <time>2018-09-10T09:01:23Z</time>
      </trkpt>
      <trkpt lat="46.654797" lon="12.520004">
        <ele>1595.908</ele>
        <time>2018-09-10T09:01:29Z</time>
      </trkpt>
      <trkpt lat="46.654805" lon="12.519982">
        <ele>1595.912</ele>
        <time>2018-09-10T09:01:30Z</time>
      </trkpt>
      <trkpt lat="46.654812" lon="12.519953">
        <ele>1596.494</ele>
        <time>2018-09-10T09:01:31Z</time>
      </trkpt>
      <trkpt lat="46.654819" lon="12.519923">
        <ele>1596.852</ele>
        <time>2018-09-10T09:01:32Z</time>
      </trkpt>
      <trkpt lat="46.654822" lon="12.519893">
        <ele>1597.317</ele>
        <time>2018-09-10T09:01:33Z</time>
      </trkpt>
      <trkpt lat="46.654885" lon="12.519389">
        <ele>1599.265</ele>
        <time>2018-09-10T09:01:49Z</time>
      </trkpt>
      <trkpt lat="46.654977" lon="12.518888">
        <ele>1600.285</ele>
        <time>2018-09-10T09:02:06Z</time>
      </trkpt>
      <trkpt lat="46.654995" lon="12.518800">
        <ele>1600.260</ele>
        <time>2018-09-10T09:02:09Z</time>
      </trkpt>
      <trkpt lat="46.655005" lon="12.518782">
        <ele>1600.788</ele>
        <time>2018-09-10T09:02:10Z</time>
      </trkpt>
      <trkpt lat="46.655011" lon="12.518759">
        <ele>1600.729</ele>
        <time>2018-09-10T09:02:11Z</time>
      </trkpt>
      <trkpt lat="46.655012" lon="12.518728">
        <ele>1601.200</ele>
        <time>2018-09-10T09:02:12Z</time>
      </trkpt>
      <trkpt lat="46.655013" lon="12.518697">
        <ele>1601.220</ele>
        <time>2018-09-10T09:02:13Z</time>
      </trkpt>
      <trkpt lat="46.655019" lon="12.518667">
        <ele>1601.608</ele>
        <time>2018-09-10T09:02:14Z</time>
      </trkpt>
      <trkpt lat="46.655123" lon="12.518158">
        <ele>1602.146</ele>
        <time>2018-09-10T09:02:30Z</time>
      </trkpt>
      <trkpt lat="46.655233" lon="12.517815">
        <ele>1605.098</ele>
        <time>2018-09-10T09:02:44Z</time>
      </trkpt>
      <trkpt lat="46.655318" lon="12.517449">
        <ele>1608.476</ele>
        <time>2018-09-10T09:02:58Z</time>
      </trkpt>
      <trkpt lat="46.655419" lon="12.517006">
        <ele>1611.791</ele>
        <time>2018-09-10T09:03:15Z</time>
      </trkpt>
      <trkpt lat="46.655427" lon="12.516600">
        <ele>1614.189</ele>
        <time>2018-09-10T09:03:29Z</time>
      </trkpt>
      <trkpt lat="46.655593" lon="12.516136">
        <ele>1612.289</ele>
        <time>2018-09-10T09:03:47Z</time>
      </trkpt>
      <trkpt lat="46.655604" lon="12.516083">
        <ele>1612.244</ele>
        <time>2018-09-10T09:03:49Z</time>
      </trkpt>
      <trkpt lat="46.655603" lon="12.516056">
        <ele>1612.742</ele>
        <time>2018-09-10T09:03:50Z</time>
      </trkpt>
      <trkpt lat="46.655599" lon="12.516028">
        <ele>1612.758</ele>
        <time>2018-09-10T09:03:51Z</time>
      </trkpt>
      <trkpt lat="46.655583" lon="12.515946">
        <ele>1612.752</ele>
        <time>2018-09-10T09:03:54Z</time>
      </trkpt>
      <trkpt lat="46.655587" lon="12.515920">
        <ele>1612.717</ele>
        <time>2018-09-10T09:03:55Z</time>
      </trkpt>
      <trkpt lat="46.655620" lon="12.515788">
        <ele>1613.208</ele>
        <time>2018-09-10T09:04:00Z</time>
      </trkpt>
      <trkpt lat="46.655633" lon="12.515766">
        <ele>1612.779</ele>
        <time>2018-09-10T09:04:01Z</time>
      </trkpt>
      <trkpt lat="46.655644" lon="12.515742">
        <ele>1612.721</ele>
        <time>2018-09-10T09:04:02Z</time>
      </trkpt>
      <trkpt lat="46.655655" lon="12.515719">
        <ele>1612.289</ele>
        <time>2018-09-10T09:04:03Z</time>
      </trkpt>
      <trkpt lat="46.655668" lon="12.515697">
        <ele>1612.224</ele>
        <time>2018-09-10T09:04:04Z</time>
      </trkpt>
      <trkpt lat="46.655681" lon="12.515675">
        <ele>1612.292</ele>
        <time>2018-09-10T09:04:05Z</time>
      </trkpt>
      <trkpt lat="46.655695" lon="12.515654">
        <ele>1611.722</ele>
        <time>2018-09-10T09:04:06Z</time>
      </trkpt>
      <trkpt lat="46.655708" lon="12.515633">
        <ele>1611.787</ele>
        <time>2018-09-10T09:04:07Z</time>
      </trkpt>
      <trkpt lat="46.655874" lon="12.515220">
        <ele>1613.765</ele>
        <time>2018-09-10T09:04:24Z</time>
      </trkpt>
      <trkpt lat="46.655988" lon="12.514837">
        <ele>1614.116</ele>
        <time>2018-09-10T09:04:39Z</time>
      </trkpt>
      <trkpt lat="46.656111" lon="12.514487">
        <ele>1613.276</ele>
        <time>2018-09-10T09:04:56Z</time>
      </trkpt>
      <trkpt lat="46.656202" lon="12.514151">
        <ele>1613.713</ele>
        <time>2018-09-10T09:05:12Z</time>
      </trkpt>
      <trkpt lat="46.656215" lon="12.513987">
        <ele>1616.508</ele>
        <time>2018-09-10T09:05:20Z</time>
      </trkpt>
      <trkpt lat="46.656256" lon="12.513724">
        <ele>1619.945</ele>
        <time>2018-09-10T09:05:34Z</time>
      </trkpt>
      <trkpt lat="46.656267" lon="12.513711">
        <ele>1620.477</ele>
        <time>2018-09-10T09:05:35Z</time>
      </trkpt>
      <trkpt lat="46.656282" lon="12.513702">
        <ele>1620.945</ele>
        <time>2018-09-10T09:05:36Z</time>
      </trkpt>
      <trkpt lat="46.656292" lon="12.513692">
        <ele>1620.950</ele>
        <time>2018-09-10T09:05:37Z</time>
      </trkpt>
      <trkpt lat="46.656302" lon="12.513682">
        <ele>1621.448</ele>
        <time>2018-09-10T09:05:38Z</time>
      </trkpt>
      <trkpt lat="46.656311" lon="12.513671">
        <ele>1621.458</ele>
        <time>2018-09-10T09:05:39Z</time>
      </trkpt>
      <trkpt lat="46.656323" lon="12.513664">
        <ele>1622.363</ele>
        <time>2018-09-10T09:05:40Z</time>
      </trkpt>
      <trkpt lat="46.656336" lon="12.513660">
        <ele>1622.871</ele>
        <time>2018-09-10T09:05:41Z</time>
      </trkpt>
      <trkpt lat="46.656496" lon="12.513543">
        <ele>1623.362</ele>
        <time>2018-09-10T09:05:56Z</time>
      </trkpt>
      <trkpt lat="46.656653" lon="12.513170">
        <ele>1623.883</ele>
        <time>2018-09-10T09:06:17Z</time>
      </trkpt>
      <trkpt lat="46.656789" lon="12.512718">
        <ele>1624.211</ele>
        <time>2018-09-10T09:06:38Z</time>
      </trkpt>
      <trkpt lat="46.656935" lon="12.512341">
        <ele>1623.808</ele>
        <time>2018-09-10T09:06:55Z</time>
      </trkpt>
      <trkpt lat="46.657092" lon="12.511956">
        <ele>1626.280</ele>
        <time>2018-09-10T09:07:14Z</time>
      </trkpt>
      <trkpt lat="46.657225" lon="12.511636">
        <ele>1629.092</ele>
        <time>2018-09-10T09:07:31Z</time>
      </trkpt>
      <trkpt lat="46.657384" lon="12.511375">
        <ele>1629.050</ele>
        <time>2018-09-10T09:07:48Z</time>
      </trkpt>
      <trkpt lat="46.657395" lon="12.511363">
        <ele>1629.045</ele>
        <time>2018-09-10T09:07:49Z</time>
      </trkpt>
      <trkpt lat="46.657426" lon="12.511295">
        <ele>1629.543</ele>
        <time>2018-09-10T09:07:53Z</time>
      </trkpt>
      <trkpt lat="46.657568" lon="12.511062">
        <ele>1633.483</ele>
        <time>2018-09-10T09:08:08Z</time>
      </trkpt>
      <trkpt lat="46.657572" lon="12.511048">
        <ele>1633.958</ele>
        <time>2018-09-10T09:08:09Z</time>
      </trkpt>
      <trkpt lat="46.657622" lon="12.510856">
        <ele>1634.866</ele>
        <time>2018-09-10T09:08:21Z</time>
      </trkpt>
      <trkpt lat="46.657756" lon="12.510642">
        <ele>1634.885</ele>
        <time>2018-09-10T09:08:36Z</time>
      </trkpt>
      <trkpt lat="46.657910" lon="12.510416">
        <ele>1635.389</ele>
        <time>2018-09-10T09:08:52Z</time>
      </trkpt>
      <trkpt lat="46.658050" lon="12.510164">
        <ele>1640.617</ele>
        <time>2018-09-10T09:09:09Z</time>
      </trkpt>
      <trkpt lat="46.658102" lon="12.510076">
        <ele>1643.508</ele>
        <time>2018-09-10T09:09:15Z</time>
      </trkpt>
      <trkpt lat="46.658109" lon="12.510060">
        <ele>1643.932</ele>
        <time>2018-09-10T09:09:16Z</time>
      </trkpt>
      <trkpt lat="46.658225" lon="12.509895">
        <ele>1644.964</ele>
        <time>2018-09-10T09:09:30Z</time>
      </trkpt>
      <trkpt lat="46.658332" lon="12.509700">
        <ele>1641.122</ele>
        <time>2018-09-10T09:09:46Z</time>
      </trkpt>
      <trkpt lat="46.658364" lon="12.509632">
        <ele>1645.497</ele>
        <time>2018-09-10T09:10:04Z</time>
      </trkpt>
      <trkpt lat="46.658393" lon="12.509622">
        <ele>1647.395</ele>
        <time>2018-09-10T09:10:15Z</time>
      </trkpt>
      <trkpt lat="46.658402" lon="12.509609">
        <ele>1647.355</ele>
        <time>2018-09-10T09:10:16Z</time>
      </trkpt>
      <trkpt lat="46.658543" lon="12.509341">
        <ele>1653.650</ele>
        <time>2018-09-10T09:10:33Z</time>
      </trkpt>
      <trkpt lat="46.658680" lon="12.509158">
        <ele>1648.848</ele>
        <time>2018-09-10T09:10:48Z</time>
      </trkpt>
      <trkpt lat="46.658882" lon="12.509041">
        <ele>1652.634</ele>
        <time>2018-09-10T09:11:05Z</time>
      </trkpt>
      <trkpt lat="46.658909" lon="12.509006">
        <ele>1653.655</ele>
        <time>2018-09-10T09:11:08Z</time>
      </trkpt>
      <trkpt lat="46.658920" lon="12.509006">
        <ele>1653.610</ele>
        <time>2018-09-10T09:11:09Z</time>
      </trkpt>
      <trkpt lat="46.658946" lon="12.508997">
        <ele>1654.008</ele>
        <time>2018-09-10T09:11:12Z</time>
      </trkpt>
      <trkpt lat="46.658950" lon="12.508983">
        <ele>1654.097</ele>
        <time>2018-09-10T09:11:13Z</time>
      </trkpt>
      <trkpt lat="46.658972" lon="12.508946">
        <ele>1654.579</ele>
        <time>2018-09-10T09:11:16Z</time>
      </trkpt>
      <trkpt lat="46.658992" lon="12.508942">
        <ele>1655.057</ele>
        <time>2018-09-10T09:11:18Z</time>
      </trkpt>
      <trkpt lat="46.659002" lon="12.508943">
        <ele>1655.552</ele>
        <time>2018-09-10T09:11:19Z</time>
      </trkpt>
      <trkpt lat="46.659012" lon="12.508939">
        <ele>1655.590</ele>
        <time>2018-09-10T09:11:20Z</time>
      </trkpt>
      <trkpt lat="46.659092" lon="12.508925">
        <ele>1656.440</ele>
        <time>2018-09-10T09:11:29Z</time>
      </trkpt>
      <trkpt lat="46.659141" lon="12.508931">
        <ele>1657.975</ele>
        <time>2018-09-10T09:11:34Z</time>
      </trkpt>
      <trkpt lat="46.659181" lon="12.508929">
        <ele>1658.443</ele>
        <time>2018-09-10T09:11:38Z</time>
      </trkpt>
      <trkpt lat="46.659209" lon="12.508941">
        <ele>1658.847</ele>
        <time>2018-09-10T09:11:41Z</time>
      </trkpt>
      <trkpt lat="46.659216" lon="12.508949">
        <ele>1658.829</ele>
        <time>2018-09-10T09:11:42Z</time>
      </trkpt>
      <trkpt lat="46.659223" lon="12.508959">
        <ele>1659.321</ele>
        <time>2018-09-10T09:11:43Z</time>
      </trkpt>
      <trkpt lat="46.659287" lon="12.509039">
        <ele>1660.308</ele>
        <time>2018-09-10T09:11:52Z</time>
      </trkpt>
      <trkpt lat="46.659300" lon="12.509083">
        <ele>1660.358</ele>
        <time>2018-09-10T09:11:55Z</time>
      </trkpt>
      <trkpt lat="46.659298" lon="12.509097">
        <ele>1660.380</ele>
        <time>2018-09-10T09:11:56Z</time>
      </trkpt>
      <trkpt lat="46.659298" lon="12.509115">
        <ele>1660.878</ele>
        <time>2018-09-10T09:11:57Z</time>
      </trkpt>
      <trkpt lat="46.659297" lon="12.509145">
        <ele>1660.863</ele>
        <time>2018-09-10T09:11:59Z</time>
      </trkpt>
      <trkpt lat="46.659297" lon="12.509158">
        <ele>1661.371</ele>
        <time>2018-09-10T09:12:00Z</time>
      </trkpt>
      <trkpt lat="46.659303" lon="12.509186">
        <ele>1661.391</ele>
        <time>2018-09-10T09:12:02Z</time>
      </trkpt>
      <trkpt lat="46.659308" lon="12.509198">
        <ele>1661.746</ele>
        <time>2018-09-10T09:12:03Z</time>
      </trkpt>
      <trkpt lat="46.659312" lon="12.509211">
        <ele>1661.744</ele>
        <time>2018-09-10T09:12:04Z</time>
      </trkpt>
      <trkpt lat="46.659312" lon="12.509227">
        <ele>1661.792</ele>
        <time>2018-09-10T09:12:05Z</time>
      </trkpt>
      <trkpt lat="46.659311" lon="12.509244">
        <ele>1661.773</ele>
        <time>2018-09-10T09:12:06Z</time>
      </trkpt>
      <trkpt lat="46.659315" lon="12.509259">
        <ele>1661.720</ele>
        <time>2018-09-10T09:12:07Z</time>
      </trkpt>
      <trkpt lat="46.659317" lon="12.509275">
        <ele>1661.708</ele>
        <time>2018-09-10T09:12:08Z</time>
      </trkpt>
      <trkpt lat="46.659375" lon="12.509491">
        <ele>1663.233</ele>
        <time>2018-09-10T09:12:23Z</time>
      </trkpt>
      <trkpt lat="46.659399" lon="12.509554">
        <ele>1663.215</ele>
        <time>2018-09-10T09:12:28Z</time>
      </trkpt>
      <trkpt lat="46.659408" lon="12.509562">
        <ele>1663.223</ele>
        <time>2018-09-10T09:12:29Z</time>
      </trkpt>
      <trkpt lat="46.659418" lon="12.509570">
        <ele>1663.748</ele>
        <time>2018-09-10T09:12:30Z</time>
      </trkpt>
      <trkpt lat="46.659444" lon="12.509590">
        <ele>1664.116</ele>
        <time>2018-09-10T09:12:33Z</time>
      </trkpt>
      <trkpt lat="46.659450" lon="12.509604">
        <ele>1664.176</ele>
        <time>2018-09-10T09:12:34Z</time>
      </trkpt>
      <trkpt lat="46.659476" lon="12.509633">
        <ele>1665.131</ele>
        <time>2018-09-10T09:12:37Z</time>
      </trkpt>
      <trkpt lat="46.659489" lon="12.509634">
        <ele>1665.159</ele>
        <time>2018-09-10T09:12:38Z</time>
      </trkpt>
      <trkpt lat="46.659499" lon="12.509627">
        <ele>1665.122</ele>
        <time>2018-09-10T09:12:39Z</time>
      </trkpt>
      <trkpt lat="46.659508" lon="12.509615">
        <ele>1665.162</ele>
        <time>2018-09-10T09:12:40Z</time>
      </trkpt>
      <trkpt lat="46.659515" lon="12.509602">
        <ele>1665.108</ele>
        <time>2018-09-10T09:12:41Z</time>
      </trkpt>
      <trkpt lat="46.659523" lon="12.509589">
        <ele>1665.108</ele>
        <time>2018-09-10T09:12:42Z</time>
      </trkpt>
      <trkpt lat="46.659532" lon="12.509577">
        <ele>1665.146</ele>
        <time>2018-09-10T09:12:43Z</time>
      </trkpt>
      <trkpt lat="46.659539" lon="12.509569">
        <ele>1665.188</ele>
        <time>2018-09-10T09:12:44Z</time>
      </trkpt>
      <trkpt lat="46.659562" lon="12.509537">
        <ele>1665.636</ele>
        <time>2018-09-10T09:12:47Z</time>
      </trkpt>
      <trkpt lat="46.659722" lon="12.509362">
        <ele>1667.561</ele>
        <time>2018-09-10T09:13:05Z</time>
      </trkpt>
      <trkpt lat="46.659739" lon="12.509290">
        <ele>1668.529</ele>
        <time>2018-09-10T09:13:10Z</time>
      </trkpt>
      <trkpt lat="46.659739" lon="12.509273">
        <ele>1668.959</ele>
        <time>2018-09-10T09:13:11Z</time>
      </trkpt>
      <trkpt lat="46.659781" lon="12.509087">
        <ele>1670.944</ele>
        <time>2018-09-10T09:13:23Z</time>
      </trkpt>
      <trkpt lat="46.659818" lon="12.508968">
        <ele>1671.862</ele>
        <time>2018-09-10T09:13:32Z</time>
      </trkpt>
      <trkpt lat="46.659903" lon="12.508861">
        <ele>1670.445</ele>
        <time>2018-09-10T09:13:42Z</time>
      </trkpt>
      <trkpt lat="46.659911" lon="12.508851">
        <ele>1669.947</ele>
        <time>2018-09-10T09:13:43Z</time>
      </trkpt>
      <trkpt lat="46.659919" lon="12.508843">
        <ele>1669.911</ele>
        <time>2018-09-10T09:13:44Z</time>
      </trkpt>
      <trkpt lat="46.660037" lon="12.508665">
        <ele>1671.808</ele>
        <time>2018-09-10T09:14:00Z</time>
      </trkpt>
      <trkpt lat="46.660116" lon="12.508500">
        <ele>1672.828</ele>
        <time>2018-09-10T09:14:15Z</time>
      </trkpt>
      <trkpt lat="46.660159" lon="12.508410">
        <ele>1675.250</ele>
        <time>2018-09-10T09:14:27Z</time>
      </trkpt>
      <trkpt lat="46.660225" lon="12.508259">
        <ele>1677.128</ele>
        <time>2018-09-10T09:14:43Z</time>
      </trkpt>
      <trkpt lat="46.660314" lon="12.508118">
        <ele>1681.463</ele>
        <time>2018-09-10T09:15:00Z</time>
      </trkpt>
      <trkpt lat="46.660381" lon="12.507989">
        <ele>1680.571</ele>
        <time>2018-09-10T09:15:15Z</time>
      </trkpt>
      <trkpt lat="46.660453" lon="12.507826">
        <ele>1678.661</ele>
        <time>2018-09-10T09:15:33Z</time>
      </trkpt>
      <trkpt lat="46.660503" lon="12.507670">
        <ele>1680.066</ele>
        <time>2018-09-10T09:15:50Z</time>
      </trkpt>
      <trkpt lat="46.660455" lon="12.507425">
        <ele>1691.544</ele>
        <time>2018-09-10T09:16:11Z</time>
      </trkpt>
      <trkpt lat="46.660400" lon="12.507246">
        <ele>1699.293</ele>
        <time>2018-09-10T09:16:28Z</time>
      </trkpt>
      <trkpt lat="46.660343" lon="12.507056">
        <ele>1703.565</ele>
        <time>2018-09-10T09:16:45Z</time>
      </trkpt>
      <trkpt lat="46.660290" lon="12.506867">
        <ele>1708.821</ele>
        <time>2018-09-10T09:17:02Z</time>
      </trkpt>
      <trkpt lat="46.660244" lon="12.506675">
        <ele>1717.508</ele>
        <time>2018-09-10T09:17:21Z</time>
      </trkpt>
      <trkpt lat="46.660307" lon="12.506640">
        <ele>1716.083</ele>
        <time>2018-09-10T09:17:37Z</time>
      </trkpt>
      <trkpt lat="46.660321" lon="12.506707">
        <ele>1713.655</ele>
        <time>2018-09-10T09:17:49Z</time>
      </trkpt>
      <trkpt lat="46.660432" lon="12.506887">
        <ele>1716.543</ele>
        <time>2018-09-10T09:18:06Z</time>
      </trkpt>
      <trkpt lat="46.660529" lon="12.506971">
        <ele>1717.088</ele>
        <time>2018-09-10T09:18:19Z</time>
      </trkpt>
      <trkpt lat="46.660560" lon="12.506947">
        <ele>1717.066</ele>
        <time>2018-09-10T09:18:22Z</time>
      </trkpt>
      <trkpt lat="46.660566" lon="12.506905">
        <ele>1717.076</ele>
        <time>2018-09-10T09:18:25Z</time>
      </trkpt>
      <trkpt lat="46.660533" lon="12.506831">
        <ele>1718.051</ele>
        <time>2018-09-10T09:18:32Z</time>
      </trkpt>
      <trkpt lat="46.660528" lon="12.506740">
        <ele>1718.089</ele>
        <time>2018-09-10T09:18:39Z</time>
      </trkpt>
      <trkpt lat="46.660521" lon="12.506729">
        <ele>1718.028</ele>
        <time>2018-09-10T09:18:40Z</time>
      </trkpt>
      <trkpt lat="46.660486" lon="12.506677">
        <ele>1719.489</ele>
        <time>2018-09-10T09:18:46Z</time>
      </trkpt>
      <trkpt lat="46.660486" lon="12.506662">
        <ele>1719.417</ele>
        <time>2018-09-10T09:18:47Z</time>
      </trkpt>
      <trkpt lat="46.660445" lon="12.506388">
        <ele>1722.308</ele>
        <time>2018-09-10T09:19:05Z</time>
      </trkpt>
      <trkpt lat="46.660442" lon="12.506355">
        <ele>1723.786</ele>
        <time>2018-09-10T09:19:07Z</time>
      </trkpt>
      <trkpt lat="46.660449" lon="12.506115">
        <ele>1727.198</ele>
        <time>2018-09-10T09:19:23Z</time>
      </trkpt>
      <trkpt lat="46.660484" lon="12.505893">
        <ele>1724.716</ele>
        <time>2018-09-10T09:19:41Z</time>
      </trkpt>
      <trkpt lat="46.660517" lon="12.505692">
        <ele>1723.361</ele>
        <time>2018-09-10T09:19:56Z</time>
      </trkpt>
      <trkpt lat="46.660531" lon="12.505650">
        <ele>1723.769</ele>
        <time>2018-09-10T09:19:59Z</time>
      </trkpt>
      <trkpt lat="46.660579" lon="12.505503">
        <ele>1725.769</ele>
        <time>2018-09-10T09:20:10Z</time>
      </trkpt>
      <trkpt lat="46.660619" lon="12.505356">
        <ele>1728.114</ele>
        <time>2018-09-10T09:20:21Z</time>
      </trkpt>
      <trkpt lat="46.660685" lon="12.505110">
        <ele>1729.032</ele>
        <time>2018-09-10T09:20:38Z</time>
      </trkpt>
      <trkpt lat="46.660691" lon="12.504909">
        <ele>1733.352</ele>
        <time>2018-09-10T09:20:53Z</time>
      </trkpt>
      <trkpt lat="46.660709" lon="12.504639">
        <ele>1733.353</ele>
        <time>2018-09-10T09:21:09Z</time>
      </trkpt>
      <trkpt lat="46.660817" lon="12.504331">
        <ele>1730.908</ele>
        <time>2018-09-10T09:21:26Z</time>
      </trkpt>
      <trkpt lat="46.660918" lon="12.504096">
        <ele>1730.508</ele>
        <time>2018-09-10T09:21:38Z</time>
      </trkpt>
      <trkpt lat="46.660924" lon="12.504079">
        <ele>1730.589</ele>
        <time>2018-09-10T09:21:39Z</time>
      </trkpt>
      <trkpt lat="46.660961" lon="12.504022">
        <ele>1731.911</ele>
        <time>2018-09-10T09:21:43Z</time>
      </trkpt>
      <trkpt lat="46.660967" lon="12.504008">
        <ele>1732.939</ele>
        <time>2018-09-10T09:21:44Z</time>
      </trkpt>
      <trkpt lat="46.660974" lon="12.503994">
        <ele>1733.344</ele>
        <time>2018-09-10T09:21:45Z</time>
      </trkpt>
      <trkpt lat="46.661077" lon="12.503850">
        <ele>1738.252</ele>
        <time>2018-09-10T09:21:58Z</time>
      </trkpt>
      <trkpt lat="46.661131" lon="12.503751">
        <ele>1740.612</ele>
        <time>2018-09-10T09:22:05Z</time>
      </trkpt>
      <trkpt lat="46.661140" lon="12.503737">
        <ele>1740.697</ele>
        <time>2018-09-10T09:22:06Z</time>
      </trkpt>
      <trkpt lat="46.661172" lon="12.503684">
        <ele>1741.595</ele>
        <time>2018-09-10T09:22:10Z</time>
      </trkpt>
      <trkpt lat="46.661177" lon="12.503670">
        <ele>1741.598</ele>
        <time>2018-09-10T09:22:11Z</time>
      </trkpt>
      <trkpt lat="46.661269" lon="12.503485">
        <ele>1743.015</ele>
        <time>2018-09-10T09:22:24Z</time>
      </trkpt>
      <trkpt lat="46.661388" lon="12.503303">
        <ele>1742.526</ele>
        <time>2018-09-10T09:22:39Z</time>
      </trkpt>
      <trkpt lat="46.661463" lon="12.503120">
        <ele>1745.408</ele>
        <time>2018-09-10T09:22:53Z</time>
      </trkpt>
      <trkpt lat="46.661532" lon="12.502980">
        <ele>1745.493</ele>
        <time>2018-09-10T09:23:04Z</time>
      </trkpt>
      <trkpt lat="46.661545" lon="12.502916">
        <ele>1746.895</ele>
        <time>2018-09-10T09:23:09Z</time>
      </trkpt>
      <trkpt lat="46.661630" lon="12.502760">
        <ele>1747.373</ele>
        <time>2018-09-10T09:23:23Z</time>
      </trkpt>
      <trkpt lat="46.661708" lon="12.502566">
        <ele>1749.748</ele>
        <time>2018-09-10T09:23:38Z</time>
      </trkpt>
      <trkpt lat="46.661751" lon="12.502481">
        <ele>1750.786</ele>
        <time>2018-09-10T09:23:45Z</time>
      </trkpt>
      <trkpt lat="46.661802" lon="12.502358">
        <ele>1752.156</ele>
        <time>2018-09-10T09:23:54Z</time>
      </trkpt>
      <trkpt lat="46.661808" lon="12.502342">
        <ele>1752.651</ele>
        <time>2018-09-10T09:23:55Z</time>
      </trkpt>
      <trkpt lat="46.661869" lon="12.502158">
        <ele>1754.019</ele>
        <time>2018-09-10T09:24:09Z</time>
      </trkpt>
      <trkpt lat="46.661879" lon="12.502057">
        <ele>1755.065</ele>
        <time>2018-09-10T09:24:15Z</time>
      </trkpt>
      <trkpt lat="46.661875" lon="12.502043">
        <ele>1755.568</ele>
        <time>2018-09-10T09:24:16Z</time>
      </trkpt>
      <trkpt lat="46.661870" lon="12.502029">
        <ele>1755.514</ele>
        <time>2018-09-10T09:24:17Z</time>
      </trkpt>
      <trkpt lat="46.661865" lon="12.502015">
        <ele>1755.508</ele>
        <time>2018-09-10T09:24:18Z</time>
      </trkpt>
      <trkpt lat="46.661861" lon="12.502002">
        <ele>1755.980</ele>
        <time>2018-09-10T09:24:19Z</time>
      </trkpt>
      <trkpt lat="46.661857" lon="12.501975">
        <ele>1756.432</ele>
        <time>2018-09-10T09:24:21Z</time>
      </trkpt>
      <trkpt lat="46.661850" lon="12.501786">
        <ele>1758.890</ele>
        <time>2018-09-10T09:24:35Z</time>
      </trkpt>
      <trkpt lat="46.661849" lon="12.501736">
        <ele>1759.315</ele>
        <time>2018-09-10T09:24:39Z</time>
      </trkpt>
      <trkpt lat="46.661840" lon="12.501728">
        <ele>1759.343</ele>
        <time>2018-09-10T09:24:40Z</time>
      </trkpt>
      <trkpt lat="46.661831" lon="12.501718">
        <ele>1759.843</ele>
        <time>2018-09-10T09:24:41Z</time>
      </trkpt>
      <trkpt lat="46.661827" lon="12.501706">
        <ele>1759.828</ele>
        <time>2018-09-10T09:24:42Z</time>
      </trkpt>
      <trkpt lat="46.661829" lon="12.501629">
        <ele>1760.716</ele>
        <time>2018-09-10T09:24:47Z</time>
      </trkpt>
      <trkpt lat="46.661827" lon="12.501612">
        <ele>1760.784</ele>
        <time>2018-09-10T09:24:48Z</time>
      </trkpt>
      <trkpt lat="46.661826" lon="12.501596">
        <ele>1761.207</ele>
        <time>2018-09-10T09:24:49Z</time>
      </trkpt>
      <trkpt lat="46.661813" lon="12.501561">
        <ele>1761.217</ele>
        <time>2018-09-10T09:24:52Z</time>
      </trkpt>
      <trkpt lat="46.661801" lon="12.501522">
        <ele>1761.708</ele>
        <time>2018-09-10T09:24:55Z</time>
      </trkpt>
      <trkpt lat="46.661805" lon="12.501506">
        <ele>1762.222</ele>
        <time>2018-09-10T09:24:56Z</time>
      </trkpt>
      <trkpt lat="46.661806" lon="12.501492">
        <ele>1762.724</ele>
        <time>2018-09-10T09:24:57Z</time>
      </trkpt>
      <trkpt lat="46.661804" lon="12.501411">
        <ele>1762.782</ele>
        <time>2018-09-10T09:25:02Z</time>
      </trkpt>
      <trkpt lat="46.661803" lon="12.501395">
        <ele>1763.217</ele>
        <time>2018-09-10T09:25:03Z</time>
      </trkpt>
      <trkpt lat="46.661804" lon="12.501380">
        <ele>1763.295</ele>
        <time>2018-09-10T09:25:04Z</time>
      </trkpt>
      <trkpt lat="46.661806" lon="12.501366">
        <ele>1763.655</ele>
        <time>2018-09-10T09:25:05Z</time>
      </trkpt>
      <trkpt lat="46.661843" lon="12.501132">
        <ele>1764.150</ele>
        <time>2018-09-10T09:25:21Z</time>
      </trkpt>
      <trkpt lat="46.661846" lon="12.501117">
        <ele>1764.158</ele>
        <time>2018-09-10T09:25:22Z</time>
      </trkpt>
      <trkpt lat="46.661850" lon="12.501102">
        <ele>1764.194</ele>
        <time>2018-09-10T09:25:23Z</time>
      </trkpt>
      <trkpt lat="46.661857" lon="12.501087">
        <ele>1764.157</ele>
        <time>2018-09-10T09:25:24Z</time>
      </trkpt>
      <trkpt lat="46.661861" lon="12.501073">
        <ele>1764.122</ele>
        <time>2018-09-10T09:25:25Z</time>
      </trkpt>
      <trkpt lat="46.661907" lon="12.500855">
        <ele>1765.108</ele>
        <time>2018-09-10T09:25:39Z</time>
      </trkpt>
      <trkpt lat="46.661910" lon="12.500838">
        <ele>1765.123</ele>
        <time>2018-09-10T09:25:40Z</time>
      </trkpt>
      <trkpt lat="46.661915" lon="12.500822">
        <ele>1765.165</ele>
        <time>2018-09-10T09:25:41Z</time>
      </trkpt>
      <trkpt lat="46.661949" lon="12.500645">
        <ele>1767.083</ele>
        <time>2018-09-10T09:25:53Z</time>
      </trkpt>
      <trkpt lat="46.661949" lon="12.500626">
        <ele>1767.098</ele>
        <time>2018-09-10T09:25:54Z</time>
      </trkpt>
      <trkpt lat="46.661949" lon="12.500609">
        <ele>1767.526</ele>
        <time>2018-09-10T09:25:55Z</time>
      </trkpt>
      <trkpt lat="46.661951" lon="12.500595">
        <ele>1767.566</ele>
        <time>2018-09-10T09:25:56Z</time>
      </trkpt>
      <trkpt lat="46.661955" lon="12.500578">
        <ele>1767.051</ele>
        <time>2018-09-10T09:25:57Z</time>
      </trkpt>
      <trkpt lat="46.661961" lon="12.500519">
        <ele>1768.049</ele>
        <time>2018-09-10T09:26:01Z</time>
      </trkpt>
      <trkpt lat="46.661975" lon="12.500496">
        <ele>1768.017</ele>
        <time>2018-09-10T09:26:03Z</time>
      </trkpt>
      <trkpt lat="46.661981" lon="12.500482">
        <ele>1768.087</ele>
        <time>2018-09-10T09:26:04Z</time>
      </trkpt>
      <trkpt lat="46.662061" lon="12.500245">
        <ele>1770.815</ele>
        <time>2018-09-10T09:26:21Z</time>
      </trkpt>
      <trkpt lat="46.662064" lon="12.500230">
        <ele>1771.308</ele>
        <time>2018-09-10T09:26:22Z</time>
      </trkpt>
      <trkpt lat="46.662066" lon="12.500214">
        <ele>1771.325</ele>
        <time>2018-09-10T09:26:23Z</time>
      </trkpt>
      <trkpt lat="46.662069" lon="12.500196">
        <ele>1771.367</ele>
        <time>2018-09-10T09:26:24Z</time>
      </trkpt>
      <trkpt lat="46.662082" lon="12.500158">
        <ele>1771.885</ele>
        <time>2018-09-10T09:26:27Z</time>
      </trkpt>
      <trkpt lat="46.662154" lon="12.500038">
        <ele>1773.730</ele>
        <time>2018-09-10T09:26:38Z</time>
      </trkpt>
      <trkpt lat="46.662155" lon="12.500021">
        <ele>1773.738</ele>
        <time>2018-09-10T09:26:39Z</time>
      </trkpt>
      <trkpt lat="46.662158" lon="12.500005">
        <ele>1773.748</ele>
        <time>2018-09-10T09:26:40Z</time>
      </trkpt>
      <trkpt lat="46.662230" lon="12.499868">
        <ele>1776.173</ele>
        <time>2018-09-10T09:26:52Z</time>
      </trkpt>
      <trkpt lat="46.662240" lon="12.499862">
        <ele>1776.161</ele>
        <time>2018-09-10T09:26:53Z</time>
      </trkpt>
      <trkpt lat="46.662249" lon="12.499858">
        <ele>1776.112</ele>
        <time>2018-09-10T09:26:54Z</time>
      </trkpt>
      <trkpt lat="46.662256" lon="12.499848">
        <ele>1776.132</ele>
        <time>2018-09-10T09:26:55Z</time>
      </trkpt>
      <trkpt lat="46.662261" lon="12.499836">
        <ele>1776.105</ele>
        <time>2018-09-10T09:26:56Z</time>
      </trkpt>
      <trkpt lat="46.662273" lon="12.499813">
        <ele>1776.608</ele>
        <time>2018-09-10T09:26:58Z</time>
      </trkpt>
      <trkpt lat="46.662280" lon="12.499803">
        <ele>1776.645</ele>
        <time>2018-09-10T09:26:59Z</time>
      </trkpt>
      <trkpt lat="46.662341" lon="12.499587">
        <ele>1779.027</ele>
        <time>2018-09-10T09:27:15Z</time>
      </trkpt>
      <trkpt lat="46.662340" lon="12.499570">
        <ele>1779.045</ele>
        <time>2018-09-10T09:27:16Z</time>
      </trkpt>
      <trkpt lat="46.662334" lon="12.499555">
        <ele>1779.580</ele>
        <time>2018-09-10T09:27:17Z</time>
      </trkpt>
      <trkpt lat="46.662318" lon="12.499502">
        <ele>1780.528</ele>
        <time>2018-09-10T09:27:21Z</time>
      </trkpt>
      <trkpt lat="46.662318" lon="12.499485">
        <ele>1780.598</ele>
        <time>2018-09-10T09:27:22Z</time>
      </trkpt>
      <trkpt lat="46.662316" lon="12.499472">
        <ele>1780.963</ele>
        <time>2018-09-10T09:27:23Z</time>
      </trkpt>
      <trkpt lat="46.662309" lon="12.499460">
        <ele>1780.931</ele>
        <time>2018-09-10T09:27:24Z</time>
      </trkpt>
      <trkpt lat="46.662303" lon="12.499445">
        <ele>1781.466</ele>
        <time>2018-09-10T09:27:25Z</time>
      </trkpt>
      <trkpt lat="46.662298" lon="12.499430">
        <ele>1781.429</ele>
        <time>2018-09-10T09:27:26Z</time>
      </trkpt>
      <trkpt lat="46.662295" lon="12.499413">
        <ele>1781.421</ele>
        <time>2018-09-10T09:27:27Z</time>
      </trkpt>
      <trkpt lat="46.662291" lon="12.499395">
        <ele>1781.408</ele>
        <time>2018-09-10T09:27:28Z</time>
      </trkpt>
      <trkpt lat="46.662287" lon="12.499377">
        <ele>1781.990</ele>
        <time>2018-09-10T09:27:29Z</time>
      </trkpt>
      <trkpt lat="46.662226" lon="12.499181">
        <ele>1782.952</ele>
        <time>2018-09-10T09:27:41Z</time>
      </trkpt>
      <trkpt lat="46.662222" lon="12.499166">
        <ele>1782.910</ele>
        <time>2018-09-10T09:27:42Z</time>
      </trkpt>
      <trkpt lat="46.662219" lon="12.499153">
        <ele>1783.325</ele>
        <time>2018-09-10T09:27:43Z</time>
      </trkpt>
      <trkpt lat="46.662218" lon="12.499136">
        <ele>1783.363</ele>
        <time>2018-09-10T09:27:44Z</time>
      </trkpt>
      <trkpt lat="46.662218" lon="12.499117">
        <ele>1783.353</ele>
        <time>2018-09-10T09:27:45Z</time>
      </trkpt>
      <trkpt lat="46.662219" lon="12.499099">
        <ele>1783.388</ele>
        <time>2018-09-10T09:27:46Z</time>
      </trkpt>
      <trkpt lat="46.662179" lon="12.498823">
        <ele>1786.236</ele>
        <time>2018-09-10T09:28:02Z</time>
      </trkpt>
      <trkpt lat="46.662286" lon="12.498770">
        <ele>1788.615</ele>
        <time>2018-09-10T09:28:14Z</time>
      </trkpt>
      <trkpt lat="46.662291" lon="12.498785">
        <ele>1788.665</ele>
        <time>2018-09-10T09:28:15Z</time>
      </trkpt>
      <trkpt lat="46.662301" lon="12.498812">
        <ele>1789.111</ele>
        <time>2018-09-10T09:28:17Z</time>
      </trkpt>
      <trkpt lat="46.662308" lon="12.498826">
        <ele>1789.108</ele>
        <time>2018-09-10T09:28:18Z</time>
      </trkpt>
      <trkpt lat="46.662312" lon="12.498839">
        <ele>1789.125</ele>
        <time>2018-09-10T09:28:19Z</time>
      </trkpt>
      <trkpt lat="46.662314" lon="12.498856">
        <ele>1789.147</ele>
        <time>2018-09-10T09:28:20Z</time>
      </trkpt>
      <trkpt lat="46.662318" lon="12.498872">
        <ele>1789.115</ele>
        <time>2018-09-10T09:28:21Z</time>
      </trkpt>
      <trkpt lat="46.662320" lon="12.498887">
        <ele>1789.680</ele>
        <time>2018-09-10T09:28:22Z</time>
      </trkpt>
      <trkpt lat="46.662324" lon="12.498902">
        <ele>1789.618</ele>
        <time>2018-09-10T09:28:23Z</time>
      </trkpt>
      <trkpt lat="46.662328" lon="12.498917">
        <ele>1789.648</ele>
        <time>2018-09-10T09:28:24Z</time>
      </trkpt>
      <trkpt lat="46.662428" lon="12.499006">
        <ele>1790.523</ele>
        <time>2018-09-10T09:28:35Z</time>
      </trkpt>
      <trkpt lat="46.662439" lon="12.499005">
        <ele>1790.531</ele>
        <time>2018-09-10T09:28:36Z</time>
      </trkpt>
      <trkpt lat="46.662449" lon="12.499001">
        <ele>1791.046</ele>
        <time>2018-09-10T09:28:37Z</time>
      </trkpt>
      <trkpt lat="46.662458" lon="12.498993">
        <ele>1791.088</ele>
        <time>2018-09-10T09:28:38Z</time>
      </trkpt>
      <trkpt lat="46.662462" lon="12.498978">
        <ele>1791.016</ele>
        <time>2018-09-10T09:28:39Z</time>
      </trkpt>
      <trkpt lat="46.662467" lon="12.498965">
        <ele>1791.008</ele>
        <time>2018-09-10T09:28:40Z</time>
      </trkpt>
      <trkpt lat="46.662472" lon="12.498953">
        <ele>1791.598</ele>
        <time>2018-09-10T09:28:41Z</time>
      </trkpt>
      <trkpt lat="46.662475" lon="12.498937">
        <ele>1791.520</ele>
        <time>2018-09-10T09:28:42Z</time>
      </trkpt>
      <trkpt lat="46.662434" lon="12.498691">
        <ele>1792.568</ele>
        <time>2018-09-10T09:28:58Z</time>
      </trkpt>
      <trkpt lat="46.662430" lon="12.498676">
        <ele>1792.513</ele>
        <time>2018-09-10T09:28:59Z</time>
      </trkpt>
      <trkpt lat="46.662426" lon="12.498661">
        <ele>1793.081</ele>
        <time>2018-09-10T09:29:00Z</time>
      </trkpt>
      <trkpt lat="46.662424" lon="12.498646">
        <ele>1793.041</ele>
        <time>2018-09-10T09:29:01Z</time>
      </trkpt>
      <trkpt lat="46.662424" lon="12.498631">
        <ele>1793.086</ele>
        <time>2018-09-10T09:29:02Z</time>
      </trkpt>
      <trkpt lat="46.662423" lon="12.498615">
        <ele>1793.464</ele>
        <time>2018-09-10T09:29:03Z</time>
      </trkpt>
      <trkpt lat="46.662421" lon="12.498601">
        <ele>1793.445</ele>
        <time>2018-09-10T09:29:04Z</time>
      </trkpt>
      <trkpt lat="46.662426" lon="12.498515">
        <ele>1793.947</ele>
        <time>2018-09-10T09:29:10Z</time>
      </trkpt>
      <trkpt lat="46.662426" lon="12.498501">
        <ele>1793.911</ele>
        <time>2018-09-10T09:29:11Z</time>
      </trkpt>
      <trkpt lat="46.662426" lon="12.498487">
        <ele>1793.908</ele>
        <time>2018-09-10T09:29:12Z</time>
      </trkpt>
      <trkpt lat="46.662425" lon="12.498469">
        <ele>1793.938</ele>
        <time>2018-09-10T09:29:13Z</time>
      </trkpt>
      <trkpt lat="46.662421" lon="12.498452">
        <ele>1794.470</ele>
        <time>2018-09-10T09:29:14Z</time>
      </trkpt>
      <trkpt lat="46.662420" lon="12.498436">
        <ele>1794.438</ele>
        <time>2018-09-10T09:29:15Z</time>
      </trkpt>
      <trkpt lat="46.662420" lon="12.498421">
        <ele>1794.963</ele>
        <time>2018-09-10T09:29:16Z</time>
      </trkpt>
      <trkpt lat="46.662415" lon="12.498408">
        <ele>1794.911</ele>
        <time>2018-09-10T09:29:17Z</time>
      </trkpt>
      <trkpt lat="46.662411" lon="12.498393">
        <ele>1795.491</ele>
        <time>2018-09-10T09:29:18Z</time>
      </trkpt>
      <trkpt lat="46.662410" lon="12.498372">
        <ele>1795.816</ele>
        <time>2018-09-10T09:29:19Z</time>
      </trkpt>
      <trkpt lat="46.662429" lon="12.498256">
        <ele>1795.894</ele>
        <time>2018-09-10T09:29:27Z</time>
      </trkpt>
      <trkpt lat="46.662427" lon="12.498239">
        <ele>1796.398</ele>
        <time>2018-09-10T09:29:28Z</time>
      </trkpt>
      <trkpt lat="46.662425" lon="12.498224">
        <ele>1796.315</ele>
        <time>2018-09-10T09:29:29Z</time>
      </trkpt>
      <trkpt lat="46.662431" lon="12.498210">
        <ele>1796.826</ele>
        <time>2018-09-10T09:29:30Z</time>
      </trkpt>
      <trkpt lat="46.662436" lon="12.498203">
        <ele>1796.808</ele>
        <time>2018-09-10T09:29:31Z</time>
      </trkpt>
      <trkpt lat="46.662444" lon="12.498194">
        <ele>1796.813</ele>
        <time>2018-09-10T09:29:32Z</time>
      </trkpt>
      <trkpt lat="46.662478" lon="12.498075">
        <ele>1797.355</ele>
        <time>2018-09-10T09:29:41Z</time>
      </trkpt>
      <trkpt lat="46.662509" lon="12.497922">
        <ele>1798.253</ele>
        <time>2018-09-10T09:29:52Z</time>
      </trkpt>
      <trkpt lat="46.662560" lon="12.497745">
        <ele>1801.198</ele>
        <time>2018-09-10T09:30:07Z</time>
      </trkpt>
      <trkpt lat="46.662612" lon="12.497664">
        <ele>1803.516</ele>
        <time>2018-09-10T09:30:15Z</time>
      </trkpt>
      <trkpt lat="46.662693" lon="12.497490">
        <ele>1806.416</ele>
        <time>2018-09-10T09:30:30Z</time>
      </trkpt>
      <trkpt lat="46.662791" lon="12.497353">
        <ele>1809.391</ele>
        <time>2018-09-10T09:30:45Z</time>
      </trkpt>
      <trkpt lat="46.662796" lon="12.497327">
        <ele>1809.839</ele>
        <time>2018-09-10T09:30:47Z</time>
      </trkpt>
      <trkpt lat="46.662802" lon="12.497316">
        <ele>1809.854</ele>
        <time>2018-09-10T09:30:48Z</time>
      </trkpt>
      <trkpt lat="46.662820" lon="12.497300">
        <ele>1810.356</ele>
        <time>2018-09-10T09:30:50Z</time>
      </trkpt>
      <trkpt lat="46.662916" lon="12.497177">
        <ele>1812.711</ele>
        <time>2018-09-10T09:31:04Z</time>
      </trkpt>
      <trkpt lat="46.662971" lon="12.497131">
        <ele>1814.608</ele>
        <time>2018-09-10T09:31:11Z</time>
      </trkpt>
      <trkpt lat="46.663020" lon="12.497111">
        <ele>1816.049</ele>
        <time>2018-09-10T09:31:16Z</time>
      </trkpt>
      <trkpt lat="46.663040" lon="12.497119">
        <ele>1816.041</ele>
        <time>2018-09-10T09:31:18Z</time>
      </trkpt>
      <trkpt lat="46.663046" lon="12.497130">
        <ele>1816.579</ele>
        <time>2018-09-10T09:31:19Z</time>
      </trkpt>
      <trkpt lat="46.663049" lon="12.497196">
        <ele>1817.044</ele>
        <time>2018-09-10T09:31:24Z</time>
      </trkpt>
      <trkpt lat="46.662991" lon="12.497407">
        <ele>1818.422</ele>
        <time>2018-09-10T09:31:40Z</time>
      </trkpt>
      <trkpt lat="46.663016" lon="12.497664">
        <ele>1820.852</ele>
        <time>2018-09-10T09:31:58Z</time>
      </trkpt>
      <trkpt lat="46.663050" lon="12.497745">
        <ele>1821.337</ele>
        <time>2018-09-10T09:32:05Z</time>
      </trkpt>
      <trkpt lat="46.663061" lon="12.497764">
        <ele>1821.365</ele>
        <time>2018-09-10T09:32:07Z</time>
      </trkpt>
      <trkpt lat="46.663069" lon="12.497827">
        <ele>1821.898</ele>
        <time>2018-09-10T09:32:11Z</time>
      </trkpt>
      <trkpt lat="46.663071" lon="12.497843">
        <ele>1821.815</ele>
        <time>2018-09-10T09:32:12Z</time>
      </trkpt>
      <trkpt lat="46.663075" lon="12.497860">
        <ele>1821.826</ele>
        <time>2018-09-10T09:32:13Z</time>
      </trkpt>
      <trkpt lat="46.663100" lon="12.497924">
        <ele>1822.808</ele>
        <time>2018-09-10T09:32:18Z</time>
      </trkpt>
      <trkpt lat="46.663102" lon="12.497942">
        <ele>1822.873</ele>
        <time>2018-09-10T09:32:19Z</time>
      </trkpt>
      <trkpt lat="46.663109" lon="12.498041">
        <ele>1823.245</ele>
        <time>2018-09-10T09:32:26Z</time>
      </trkpt>
      <trkpt lat="46.663079" lon="12.498163">
        <ele>1823.273</ele>
        <time>2018-09-10T09:32:36Z</time>
      </trkpt>
      <trkpt lat="46.663028" lon="12.498395">
        <ele>1824.288</ele>
        <time>2018-09-10T09:32:54Z</time>
      </trkpt>
      <trkpt lat="46.663012" lon="12.498455">
        <ele>1824.256</ele>
        <time>2018-09-10T09:33:08Z</time>
      </trkpt>
      <trkpt lat="46.662990" lon="12.498452">
        <ele>1826.126</ele>
        <time>2018-09-10T09:33:19Z</time>
      </trkpt>
      <trkpt lat="46.662992" lon="12.498446">
        <ele>1828.551</ele>
        <time>2018-09-10T09:33:57Z</time>
      </trkpt>
      <trkpt lat="46.662975" lon="12.498448">
        <ele>1828.099</ele>
        <time>2018-09-10T09:34:40Z</time>
      </trkpt>
      <trkpt lat="46.662968" lon="12.498465">
        <ele>1826.155</ele>
        <time>2018-09-10T09:35:21Z</time>
      </trkpt>
      <trkpt lat="46.662980" lon="12.498452">
        <ele>1826.607</ele>
        <time>2018-09-10T09:36:04Z</time>
      </trkpt>
      <trkpt lat="46.663003" lon="12.498454">
        <ele>1826.117</ele>
        <time>2018-09-10T09:36:43Z</time>
      </trkpt>
      <trkpt lat="46.663000" lon="12.498450">
        <ele>1826.608</ele>
        <time>2018-09-10T09:37:22Z</time>
      </trkpt>
      <trkpt lat="46.663004" lon="12.498448">
        <ele>1824.769</ele>
        <time>2018-09-10T09:37:58Z</time>
      </trkpt>
      <trkpt lat="46.662990" lon="12.498477">
        <ele>1824.741</ele>
        <time>2018-09-10T09:38:30Z</time>
      </trkpt>
      <trkpt lat="46.663006" lon="12.498472">
        <ele>1825.619</ele>
        <time>2018-09-10T09:39:13Z</time>
      </trkpt>
      <trkpt lat="46.663002" lon="12.498468">
        <ele>1825.624</ele>
        <time>2018-09-10T09:39:46Z</time>
      </trkpt>
      <trkpt lat="46.662994" lon="12.498466">
        <ele>1825.292</ele>
        <time>2018-09-10T09:40:24Z</time>
      </trkpt>
      <trkpt lat="46.663029" lon="12.498454">
        <ele>1826.622</ele>
        <time>2018-09-10T09:40:54Z</time>
      </trkpt>
      <trkpt lat="46.663045" lon="12.498394">
        <ele>1825.697</ele>
        <time>2018-09-10T09:41:03Z</time>
      </trkpt>
      <trkpt lat="46.663051" lon="12.498367">
        <ele>1825.645</ele>
        <time>2018-09-10T09:41:04Z</time>
      </trkpt>
      <trkpt lat="46.663059" lon="12.498342">
        <ele>1825.221</ele>
        <time>2018-09-10T09:41:05Z</time>
      </trkpt>
      <trkpt lat="46.663143" lon="12.497835">
        <ele>1820.841</ele>
        <time>2018-09-10T09:41:17Z</time>
      </trkpt>
      <trkpt lat="46.663165" lon="12.497603">
        <ele>1822.805</ele>
        <time>2018-09-10T09:41:28Z</time>
      </trkpt>
      <trkpt lat="46.663250" lon="12.497383">
        <ele>1824.708</ele>
        <time>2018-09-10T09:41:44Z</time>
      </trkpt>
      <trkpt lat="46.663369" lon="12.497252">
        <ele>1827.666</ele>
        <time>2018-09-10T09:42:01Z</time>
      </trkpt>
      <trkpt lat="46.663499" lon="12.497073">
        <ele>1830.988</ele>
        <time>2018-09-10T09:42:22Z</time>
      </trkpt>
      <trkpt lat="46.663599" lon="12.496935">
        <ele>1834.356</ele>
        <time>2018-09-10T09:42:40Z</time>
      </trkpt>
      <trkpt lat="46.663602" lon="12.496922">
        <ele>1834.341</ele>
        <time>2018-09-10T09:42:41Z</time>
      </trkpt>
      <trkpt lat="46.663698" lon="12.496778">
        <ele>1837.289</ele>
        <time>2018-09-10T09:42:58Z</time>
      </trkpt>
      <trkpt lat="46.663793" lon="12.496601">
        <ele>1839.129</ele>
        <time>2018-09-10T09:43:17Z</time>
      </trkpt>
      <trkpt lat="46.663917" lon="12.496501">
        <ele>1842.064</ele>
        <time>2018-09-10T09:43:34Z</time>
      </trkpt>
      <trkpt lat="46.664060" lon="12.496436">
        <ele>1843.412</ele>
        <time>2018-09-10T09:43:51Z</time>
      </trkpt>
      <trkpt lat="46.664088" lon="12.496443">
        <ele>1844.453</ele>
        <time>2018-09-10T09:44:08Z</time>
      </trkpt>
      <trkpt lat="46.664223" lon="12.496389">
        <ele>1846.304</ele>
        <time>2018-09-10T09:44:25Z</time>
      </trkpt>
      <trkpt lat="46.664268" lon="12.496434">
        <ele>1846.314</ele>
        <time>2018-09-10T09:44:32Z</time>
      </trkpt>
      <trkpt lat="46.664174" lon="12.496557">
        <ele>1848.708</ele>
        <time>2018-09-10T09:44:48Z</time>
      </trkpt>
      <trkpt lat="46.664164" lon="12.496564">
        <ele>1849.229</ele>
        <time>2018-09-10T09:44:49Z</time>
      </trkpt>
      <trkpt lat="46.664029" lon="12.496739">
        <ele>1849.781</ele>
        <time>2018-09-10T09:45:08Z</time>
      </trkpt>
      <trkpt lat="46.664022" lon="12.496755">
        <ele>1849.719</ele>
        <time>2018-09-10T09:45:09Z</time>
      </trkpt>
      <trkpt lat="46.663949" lon="12.496979">
        <ele>1851.634</ele>
        <time>2018-09-10T09:45:28Z</time>
      </trkpt>
      <trkpt lat="46.663903" lon="12.497235">
        <ele>1854.092</ele>
        <time>2018-09-10T09:45:49Z</time>
      </trkpt>
      <trkpt lat="46.663905" lon="12.497432">
        <ele>1855.972</ele>
        <time>2018-09-10T09:46:07Z</time>
      </trkpt>
      <trkpt lat="46.663981" lon="12.497349">
        <ele>1857.897</ele>
        <time>2018-09-10T09:46:20Z</time>
      </trkpt>
      <trkpt lat="46.664014" lon="12.497304">
        <ele>1858.365</ele>
        <time>2018-09-10T09:46:33Z</time>
      </trkpt>
      <trkpt lat="46.664023" lon="12.497296">
        <ele>1858.337</ele>
        <time>2018-09-10T09:46:34Z</time>
      </trkpt>
      <trkpt lat="46.664032" lon="12.497291">
        <ele>1858.349</ele>
        <time>2018-09-10T09:46:35Z</time>
      </trkpt>
      <trkpt lat="46.664082" lon="12.497270">
        <ele>1858.813</ele>
        <time>2018-09-10T09:46:40Z</time>
      </trkpt>
      <trkpt lat="46.664087" lon="12.497260">
        <ele>1858.808</ele>
        <time>2018-09-10T09:46:41Z</time>
      </trkpt>
      <trkpt lat="46.664227" lon="12.497168">
        <ele>1860.737</ele>
        <time>2018-09-10T09:46:57Z</time>
      </trkpt>
      <trkpt lat="46.664276" lon="12.497139">
        <ele>1861.219</ele>
        <time>2018-09-10T09:47:02Z</time>
      </trkpt>
      <trkpt lat="46.664379" lon="12.497063">
        <ele>1862.657</ele>
        <time>2018-09-10T09:47:15Z</time>
      </trkpt>
      <trkpt lat="46.664506" lon="12.496974">
        <ele>1866.082</ele>
        <time>2018-09-10T09:47:31Z</time>
      </trkpt>
      <trkpt lat="46.664557" lon="12.496952">
        <ele>1867.010</ele>
        <time>2018-09-10T09:47:36Z</time>
      </trkpt>
      <trkpt lat="46.664700" lon="12.496912">
        <ele>1870.360</ele>
        <time>2018-09-10T09:47:51Z</time>
      </trkpt>
      <trkpt lat="46.664732" lon="12.496928">
        <ele>1870.825</ele>
        <time>2018-09-10T09:47:55Z</time>
      </trkpt>
      <trkpt lat="46.664738" lon="12.496996">
        <ele>1871.883</ele>
        <time>2018-09-10T09:48:01Z</time>
      </trkpt>
      <trkpt lat="46.664618" lon="12.497184">
        <ele>1872.736</ele>
        <time>2018-09-10T09:48:18Z</time>
      </trkpt>
      <trkpt lat="46.664568" lon="12.497282">
        <ele>1874.217</ele>
        <time>2018-09-10T09:48:27Z</time>
      </trkpt>
      <trkpt lat="46.664585" lon="12.497576">
        <ele>1875.618</ele>
        <time>2018-09-10T09:48:49Z</time>
      </trkpt>
      <trkpt lat="46.664646" lon="12.497800">
        <ele>1878.508</ele>
        <time>2018-09-10T09:49:07Z</time>
      </trkpt>
      <trkpt lat="46.664657" lon="12.497867">
        <ele>1879.567</ele>
        <time>2018-09-10T09:49:12Z</time>
      </trkpt>
      <trkpt lat="46.664641" lon="12.497965">
        <ele>1879.599</ele>
        <time>2018-09-10T09:49:19Z</time>
      </trkpt>
      <trkpt lat="46.664539" lon="12.498162">
        <ele>1881.967</ele>
        <time>2018-09-10T09:49:37Z</time>
      </trkpt>
      <trkpt lat="46.664515" lon="12.498227">
        <ele>1882.422</ele>
        <time>2018-09-10T09:49:42Z</time>
      </trkpt>
      <trkpt lat="46.664456" lon="12.498432">
        <ele>1884.350</ele>
        <time>2018-09-10T09:49:58Z</time>
      </trkpt>
      <trkpt lat="46.664374" lon="12.498671">
        <ele>1886.220</ele>
        <time>2018-09-10T09:50:17Z</time>
      </trkpt>
      <trkpt lat="46.664332" lon="12.498882">
        <ele>1887.665</ele>
        <time>2018-09-10T09:50:33Z</time>
      </trkpt>
      <trkpt lat="46.664376" lon="12.499030">
        <ele>1891.063</ele>
        <time>2018-09-10T09:50:47Z</time>
      </trkpt>
      <trkpt lat="46.664410" lon="12.499012">
        <ele>1891.525</ele>
        <time>2018-09-10T09:50:51Z</time>
      </trkpt>
      <trkpt lat="46.664505" lon="12.498885">
        <ele>1892.926</ele>
        <time>2018-09-10T09:51:04Z</time>
      </trkpt>
      <trkpt lat="46.664665" lon="12.498827">
        <ele>1895.808</ele>
        <time>2018-09-10T09:51:21Z</time>
      </trkpt>
      <trkpt lat="46.664682" lon="12.498828">
        <ele>1896.308</ele>
        <time>2018-09-10T09:51:23Z</time>
      </trkpt>
      <trkpt lat="46.664835" lon="12.498762">
        <ele>1899.256</ele>
        <time>2018-09-10T09:51:41Z</time>
      </trkpt>
      <trkpt lat="46.664902" lon="12.498661">
        <ele>1900.668</ele>
        <time>2018-09-10T09:51:54Z</time>
      </trkpt>
      <trkpt lat="46.664934" lon="12.498538">
        <ele>1901.116</ele>
        <time>2018-09-10T09:52:04Z</time>
      </trkpt>
      <trkpt lat="46.664995" lon="12.498304">
        <ele>1903.551</ele>
        <time>2018-09-10T09:52:23Z</time>
      </trkpt>
      <trkpt lat="46.665070" lon="12.498084">
        <ele>1906.439</ele>
        <time>2018-09-10T09:52:44Z</time>
      </trkpt>
      <trkpt lat="46.665132" lon="12.497869">
        <ele>1909.359</ele>
        <time>2018-09-10T09:53:05Z</time>
      </trkpt>
      <trkpt lat="46.665193" lon="12.497691">
        <ele>1913.144</ele>
        <time>2018-09-10T09:53:24Z</time>
      </trkpt>
      <trkpt lat="46.665238" lon="12.497816">
        <ele>1914.122</ele>
        <time>2018-09-10T09:53:40Z</time>
      </trkpt>
      <trkpt lat="46.665233" lon="12.497970">
        <ele>1915.562</ele>
        <time>2018-09-10T09:53:57Z</time>
      </trkpt>
      <trkpt lat="46.665222" lon="12.498039">
        <ele>1915.583</ele>
        <time>2018-09-10T09:54:04Z</time>
      </trkpt>
      <trkpt lat="46.665223" lon="12.498055">
        <ele>1915.511</ele>
        <time>2018-09-10T09:54:05Z</time>
      </trkpt>
      <trkpt lat="46.665228" lon="12.498322">
        <ele>1917.908</ele>
        <time>2018-09-10T09:54:23Z</time>
      </trkpt>
      <trkpt lat="46.665227" lon="12.498532">
        <ele>1919.480</ele>
        <time>2018-09-10T09:54:38Z</time>
      </trkpt>
      <trkpt lat="46.665220" lon="12.498565">
        <ele>1919.862</ele>
        <time>2018-09-10T09:54:40Z</time>
      </trkpt>
      <trkpt lat="46.665217" lon="12.498582">
        <ele>1919.890</ele>
        <time>2018-09-10T09:54:41Z</time>
      </trkpt>
      <trkpt lat="46.665193" lon="12.498771">
        <ele>1921.355</ele>
        <time>2018-09-10T09:54:55Z</time>
      </trkpt>
      <trkpt lat="46.665175" lon="12.499013">
        <ele>1924.253</ele>
        <time>2018-09-10T09:55:12Z</time>
      </trkpt>
      <trkpt lat="46.665135" lon="12.499297">
        <ele>1926.163</ele>
        <time>2018-09-10T09:55:31Z</time>
      </trkpt>
      <trkpt lat="46.665055" lon="12.499501">
        <ele>1929.998</ele>
        <time>2018-09-10T09:55:48Z</time>
      </trkpt>
      <trkpt lat="46.665047" lon="12.499583">
        <ele>1930.426</ele>
        <time>2018-09-10T09:55:54Z</time>
      </trkpt>
      <trkpt lat="46.665046" lon="12.499623">
        <ele>1930.931</ele>
        <time>2018-09-10T09:55:57Z</time>
      </trkpt>
      <trkpt lat="46.664996" lon="12.499853">
        <ele>1932.861</ele>
        <time>2018-09-10T09:56:14Z</time>
      </trkpt>
      <trkpt lat="46.664910" lon="12.500066">
        <ele>1935.707</ele>
        <time>2018-09-10T09:56:32Z</time>
      </trkpt>
      <trkpt lat="46.664859" lon="12.500198">
        <ele>1937.608</ele>
        <time>2018-09-10T09:56:44Z</time>
      </trkpt>
      <trkpt lat="46.664900" lon="12.500450">
        <ele>1938.657</ele>
        <time>2018-09-10T09:57:02Z</time>
      </trkpt>
      <trkpt lat="46.664912" lon="12.500485">
        <ele>1939.189</ele>
        <time>2018-09-10T09:57:05Z</time>
      </trkpt>
      <trkpt lat="46.664910" lon="12.500614">
        <ele>1940.577</ele>
        <time>2018-09-10T09:57:14Z</time>
      </trkpt>
      <trkpt lat="46.664904" lon="12.500647">
        <ele>1941.032</ele>
        <time>2018-09-10T09:57:16Z</time>
      </trkpt>
      <trkpt lat="46.664903" lon="12.500662">
        <ele>1941.040</ele>
        <time>2018-09-10T09:57:17Z</time>
      </trkpt>
      <trkpt lat="46.664869" lon="12.500883">
        <ele>1942.410</ele>
        <time>2018-09-10T09:57:34Z</time>
      </trkpt>
      <trkpt lat="46.664846" lon="12.501091">
        <ele>1944.415</ele>
        <time>2018-09-10T09:57:50Z</time>
      </trkpt>
      <trkpt lat="46.664855" lon="12.501225">
        <ele>1946.363</ele>
        <time>2018-09-10T09:58:00Z</time>
      </trkpt>
      <trkpt lat="46.664859" lon="12.501471">
        <ele>1949.651</ele>
        <time>2018-09-10T09:58:19Z</time>
      </trkpt>
      <trkpt lat="46.664848" lon="12.501650">
        <ele>1950.101</ele>
        <time>2018-09-10T09:58:32Z</time>
      </trkpt>
      <trkpt lat="46.664917" lon="12.501733">
        <ele>1951.611</ele>
        <time>2018-09-10T09:58:46Z</time>
      </trkpt>
      <trkpt lat="46.664934" lon="12.501724">
        <ele>1951.608</ele>
        <time>2018-09-10T09:59:02Z</time>
      </trkpt>
      <trkpt lat="46.665001" lon="12.501554">
        <ele>1954.559</ele>
        <time>2018-09-10T09:59:20Z</time>
      </trkpt>
      <trkpt lat="46.665011" lon="12.501535">
        <ele>1954.911</ele>
        <time>2018-09-10T09:59:22Z</time>
      </trkpt>
      <trkpt lat="46.665106" lon="12.501347">
        <ele>1956.449</ele>
        <time>2018-09-10T09:59:40Z</time>
      </trkpt>
      <trkpt lat="46.665184" lon="12.501170">
        <ele>1958.334</ele>
        <time>2018-09-10T09:59:57Z</time>
      </trkpt>
      <trkpt lat="46.665221" lon="12.500994">
        <ele>1960.252</ele>
        <time>2018-09-10T10:00:13Z</time>
      </trkpt>
      <trkpt lat="46.665258" lon="12.500778">
        <ele>1962.182</ele>
        <time>2018-09-10T10:00:31Z</time>
      </trkpt>
      <trkpt lat="46.665305" lon="12.500597">
        <ele>1965.047</ele>
        <time>2018-09-10T10:00:48Z</time>
      </trkpt>
      <trkpt lat="46.665375" lon="12.500395">
        <ele>1967.935</ele>
        <time>2018-09-10T10:01:07Z</time>
      </trkpt>
      <trkpt lat="46.665425" lon="12.500237">
        <ele>1969.858</ele>
        <time>2018-09-10T10:01:24Z</time>
      </trkpt>
      <trkpt lat="46.665526" lon="12.500052">
        <ele>1972.252</ele>
        <time>2018-09-10T10:01:43Z</time>
      </trkpt>
      <trkpt lat="46.665593" lon="12.499867">
        <ele>1975.117</ele>
        <time>2018-09-10T10:02:02Z</time>
      </trkpt>
      <trkpt lat="46.665630" lon="12.499799">
        <ele>1976.608</ele>
        <time>2018-09-10T10:02:16Z</time>
      </trkpt>
      <trkpt lat="46.665633" lon="12.499787">
        <ele>1976.639</ele>
        <time>2018-09-10T10:02:17Z</time>
      </trkpt>
      <trkpt lat="46.665666" lon="12.499640">
        <ele>1978.041</ele>
        <time>2018-09-10T10:02:30Z</time>
      </trkpt>
      <trkpt lat="46.665696" lon="12.499593">
        <ele>1978.599</ele>
        <time>2018-09-10T10:02:34Z</time>
      </trkpt>
      <trkpt lat="46.665787" lon="12.499413">
        <ele>1980.994</ele>
        <time>2018-09-10T10:02:52Z</time>
      </trkpt>
      <trkpt lat="46.665872" lon="12.499298">
        <ele>1982.332</ele>
        <time>2018-09-10T10:03:05Z</time>
      </trkpt>
      <trkpt lat="46.665958" lon="12.499152">
        <ele>1983.392</ele>
        <time>2018-09-10T10:03:20Z</time>
      </trkpt>
      <trkpt lat="46.666041" lon="12.499006">
        <ele>1984.737</ele>
        <time>2018-09-10T10:03:35Z</time>
      </trkpt>
      <trkpt lat="46.666133" lon="12.498846">
        <ele>1986.725</ele>
        <time>2018-09-10T10:03:51Z</time>
      </trkpt>
      <trkpt lat="46.666197" lon="12.498670">
        <ele>1988.659</ele>
        <time>2018-09-10T10:04:06Z</time>
      </trkpt>
      <trkpt lat="46.666257" lon="12.498510">
        <ele>1990.503</ele>
        <time>2018-09-10T10:04:20Z</time>
      </trkpt>
      <trkpt lat="46.666351" lon="12.498350">
        <ele>1992.923</ele>
        <time>2018-09-10T10:04:37Z</time>
      </trkpt>
      <trkpt lat="46.666415" lon="12.498234">
        <ele>1994.308</ele>
        <time>2018-09-10T10:04:48Z</time>
      </trkpt>
      <trkpt lat="46.666464" lon="12.498101">
        <ele>1996.359</ele>
        <time>2018-09-10T10:05:00Z</time>
      </trkpt>
      <trkpt lat="46.666528" lon="12.497963">
        <ele>1998.231</ele>
        <time>2018-09-10T10:05:12Z</time>
      </trkpt>
      <trkpt lat="46.666620" lon="12.497788">
        <ele>2000.139</ele>
        <time>2018-09-10T10:05:28Z</time>
      </trkpt>
      <trkpt lat="46.666714" lon="12.497626">
        <ele>2002.074</ele>
        <time>2018-09-10T10:05:44Z</time>
      </trkpt>
      <trkpt lat="46.666820" lon="12.497531">
        <ele>2004.032</ele>
        <time>2018-09-10T10:05:57Z</time>
      </trkpt>
      <trkpt lat="46.666962" lon="12.497448">
        <ele>2005.462</ele>
        <time>2018-09-10T10:06:13Z</time>
      </trkpt>
      <trkpt lat="46.667105" lon="12.497372">
        <ele>2007.357</ele>
        <time>2018-09-10T10:06:28Z</time>
      </trkpt>
      <trkpt lat="46.667233" lon="12.497352">
        <ele>2008.895</ele>
        <time>2018-09-10T10:06:43Z</time>
      </trkpt>
      <trkpt lat="46.667367" lon="12.497325">
        <ele>2011.248</ele>
        <time>2018-09-10T10:06:57Z</time>
      </trkpt>
      <trkpt lat="46.667498" lon="12.497246">
        <ele>2013.661</ele>
        <time>2018-09-10T10:07:14Z</time>
      </trkpt>
      <trkpt lat="46.667628" lon="12.497192">
        <ele>2015.517</ele>
        <time>2018-09-10T10:07:29Z</time>
      </trkpt>
      <trkpt lat="46.667781" lon="12.497083">
        <ele>2018.408</ele>
        <time>2018-09-10T10:07:48Z</time>
      </trkpt>
      <trkpt lat="46.667867" lon="12.496986">
        <ele>2019.828</ele>
        <time>2018-09-10T10:08:00Z</time>
      </trkpt>
      <trkpt lat="46.667941" lon="12.496846">
        <ele>2021.730</ele>
        <time>2018-09-10T10:08:13Z</time>
      </trkpt>
      <trkpt lat="46.668053" lon="12.496704">
        <ele>2024.688</ele>
        <time>2018-09-10T10:08:30Z</time>
      </trkpt>
      <trkpt lat="46.668094" lon="12.496675">
        <ele>2025.663</ele>
        <time>2018-09-10T10:08:35Z</time>
      </trkpt>
      <trkpt lat="46.668117" lon="12.496667">
        <ele>2025.661</ele>
        <time>2018-09-10T10:08:46Z</time>
      </trkpt>
      <trkpt lat="46.668112" lon="12.496664">
        <ele>2025.671</ele>
        <time>2018-09-10T10:09:13Z</time>
      </trkpt>
      <trkpt lat="46.668112" lon="12.496674">
        <ele>2025.666</ele>
        <time>2018-09-10T10:09:49Z</time>
      </trkpt>
      <trkpt lat="46.668108" lon="12.496662">
        <ele>2025.134</ele>
        <time>2018-09-10T10:10:15Z</time>
      </trkpt>
      <trkpt lat="46.668108" lon="12.496658">
        <ele>2024.193</ele>
        <time>2018-09-10T10:10:39Z</time>
      </trkpt>
      <trkpt lat="46.668117" lon="12.496670">
        <ele>2022.265</ele>
        <time>2018-09-10T10:11:03Z</time>
      </trkpt>
      <trkpt lat="46.668109" lon="12.496660">
        <ele>2020.821</ele>
        <time>2018-09-10T10:11:46Z</time>
      </trkpt>
      <trkpt lat="46.668104" lon="12.496657">
        <ele>2021.308</ele>
        <time>2018-09-10T10:12:34Z</time>
      </trkpt>
      <trkpt lat="46.668111" lon="12.496654">
        <ele>2022.793</ele>
        <time>2018-09-10T10:12:57Z</time>
      </trkpt>
      <trkpt lat="46.668129" lon="12.496643">
        <ele>2023.295</ele>
        <time>2018-09-10T10:13:00Z</time>
      </trkpt>
      <trkpt lat="46.668138" lon="12.496636">
        <ele>2023.793</ele>
        <time>2018-09-10T10:13:01Z</time>
      </trkpt>
      <trkpt lat="46.668145" lon="12.496624">
        <ele>2024.138</ele>
        <time>2018-09-10T10:13:02Z</time>
      </trkpt>
      <trkpt lat="46.668153" lon="12.496616">
        <ele>2024.156</ele>
        <time>2018-09-10T10:13:03Z</time>
      </trkpt>
      <trkpt lat="46.668161" lon="12.496611">
        <ele>2024.126</ele>
        <time>2018-09-10T10:13:04Z</time>
      </trkpt>
      <trkpt lat="46.668171" lon="12.496606">
        <ele>2024.671</ele>
        <time>2018-09-10T10:13:05Z</time>
      </trkpt>
      <trkpt lat="46.668294" lon="12.496481">
        <ele>2028.559</ele>
        <time>2018-09-10T10:13:21Z</time>
      </trkpt>
      <trkpt lat="46.668397" lon="12.496393">
        <ele>2031.867</ele>
        <time>2018-09-10T10:13:35Z</time>
      </trkpt>
      <trkpt lat="46.668472" lon="12.496254">
        <ele>2034.281</ele>
        <time>2018-09-10T10:13:49Z</time>
      </trkpt>
      <trkpt lat="46.668568" lon="12.496151">
        <ele>2036.219</ele>
        <time>2018-09-10T10:14:03Z</time>
      </trkpt>
      <trkpt lat="46.668634" lon="12.496112">
        <ele>2037.108</ele>
        <time>2018-09-10T10:14:17Z</time>
      </trkpt>
      <trkpt lat="46.668664" lon="12.496229">
        <ele>2038.170</ele>
        <time>2018-09-10T10:14:33Z</time>
      </trkpt>
      <trkpt lat="46.668605" lon="12.496402">
        <ele>2040.092</ele>
        <time>2018-09-10T10:14:49Z</time>
      </trkpt>
      <trkpt lat="46.668534" lon="12.496586">
        <ele>2042.950</ele>
        <time>2018-09-10T10:15:07Z</time>
      </trkpt>
      <trkpt lat="46.668520" lon="12.496637">
        <ele>2043.915</ele>
        <time>2018-09-10T10:15:12Z</time>
      </trkpt>
      <trkpt lat="46.668522" lon="12.496854">
        <ele>2045.323</ele>
        <time>2018-09-10T10:15:30Z</time>
      </trkpt>
      <trkpt lat="46.668551" lon="12.497078">
        <ele>2046.713</ele>
        <time>2018-09-10T10:15:49Z</time>
      </trkpt>
      <trkpt lat="46.668549" lon="12.497206">
        <ele>2046.748</ele>
        <time>2018-09-10T10:16:03Z</time>
      </trkpt>
      <trkpt lat="46.668516" lon="12.497371">
        <ele>2048.226</ele>
        <time>2018-09-10T10:16:14Z</time>
      </trkpt>
      <trkpt lat="46.668403" lon="12.497614">
        <ele>2050.151</ele>
        <time>2018-09-10T10:16:33Z</time>
      </trkpt>
      <trkpt lat="46.668379" lon="12.497648">
        <ele>2050.601</ele>
        <time>2018-09-10T10:16:36Z</time>
      </trkpt>
      <trkpt lat="46.668368" lon="12.497654">
        <ele>2051.111</ele>
        <time>2018-09-10T10:16:37Z</time>
      </trkpt>
      <trkpt lat="46.668358" lon="12.497660">
        <ele>2051.108</ele>
        <time>2018-09-10T10:16:38Z</time>
      </trkpt>
      <trkpt lat="46.668348" lon="12.497669">
        <ele>2051.129</ele>
        <time>2018-09-10T10:16:39Z</time>
      </trkpt>
      <trkpt lat="46.668337" lon="12.497679">
        <ele>2051.581</ele>
        <time>2018-09-10T10:16:40Z</time>
      </trkpt>
      <trkpt lat="46.668326" lon="12.497687">
        <ele>2051.599</ele>
        <time>2018-09-10T10:16:41Z</time>
      </trkpt>
      <trkpt lat="46.668317" lon="12.497695">
        <ele>2051.594</ele>
        <time>2018-09-10T10:16:42Z</time>
      </trkpt>
      <trkpt lat="46.668307" lon="12.497700">
        <ele>2051.592</ele>
        <time>2018-09-10T10:16:43Z</time>
      </trkpt>
      <trkpt lat="46.668297" lon="12.497706">
        <ele>2052.062</ele>
        <time>2018-09-10T10:16:44Z</time>
      </trkpt>
      <trkpt lat="46.668148" lon="12.497883">
        <ele>2054.427</ele>
        <time>2018-09-10T10:17:02Z</time>
      </trkpt>
      <trkpt lat="46.668017" lon="12.498063">
        <ele>2055.465</ele>
        <time>2018-09-10T10:17:19Z</time>
      </trkpt>
      <trkpt lat="46.667839" lon="12.498254">
        <ele>2057.357</ele>
        <time>2018-09-10T10:17:39Z</time>
      </trkpt>
      <trkpt lat="46.667716" lon="12.498451">
        <ele>2059.200</ele>
        <time>2018-09-10T10:17:55Z</time>
      </trkpt>
      <trkpt lat="46.667591" lon="12.498643">
        <ele>2061.220</ele>
        <time>2018-09-10T10:18:11Z</time>
      </trkpt>
      <trkpt lat="46.667474" lon="12.498876">
        <ele>2063.108</ele>
        <time>2018-09-10T10:18:29Z</time>
      </trkpt>
      <trkpt lat="46.667411" lon="12.499119">
        <ele>2063.689</ele>
        <time>2018-09-10T10:18:45Z</time>
      </trkpt>
      <trkpt lat="46.667381" lon="12.499187">
        <ele>2064.571</ele>
        <time>2018-09-10T10:18:50Z</time>
      </trkpt>
      <trkpt lat="46.667375" lon="12.499199">
        <ele>2064.549</ele>
        <time>2018-09-10T10:18:51Z</time>
      </trkpt>
      <trkpt lat="46.667368" lon="12.499212">
        <ele>2064.574</ele>
        <time>2018-09-10T10:18:52Z</time>
      </trkpt>
      <trkpt lat="46.667192" lon="12.499435">
        <ele>2067.442</ele>
        <time>2018-09-10T10:19:13Z</time>
      </trkpt>
      <trkpt lat="46.667125" lon="12.499527">
        <ele>2067.922</ele>
        <time>2018-09-10T10:19:21Z</time>
      </trkpt>
      <trkpt lat="46.667114" lon="12.499537">
        <ele>2067.947</ele>
        <time>2018-09-10T10:19:22Z</time>
      </trkpt>
      <trkpt lat="46.667105" lon="12.499550">
        <ele>2068.475</ele>
        <time>2018-09-10T10:19:23Z</time>
      </trkpt>
      <trkpt lat="46.667099" lon="12.499565">
        <ele>2068.473</ele>
        <time>2018-09-10T10:19:24Z</time>
      </trkpt>
      <trkpt lat="46.667094" lon="12.499581">
        <ele>2068.485</ele>
        <time>2018-09-10T10:19:25Z</time>
      </trkpt>
      <trkpt lat="46.667089" lon="12.499594">
        <ele>2068.813</ele>
        <time>2018-09-10T10:19:26Z</time>
      </trkpt>
      <trkpt lat="46.667070" lon="12.499686">
        <ele>2069.308</ele>
        <time>2018-09-10T10:19:32Z</time>
      </trkpt>
      <trkpt lat="46.667072" lon="12.499698">
        <ele>2069.821</ele>
        <time>2018-09-10T10:19:33Z</time>
      </trkpt>
      <trkpt lat="46.667085" lon="12.499718">
        <ele>2069.843</ele>
        <time>2018-09-10T10:19:35Z</time>
      </trkpt>
      <trkpt lat="46.667097" lon="12.499723">
        <ele>2069.841</ele>
        <time>2018-09-10T10:19:36Z</time>
      </trkpt>
      <trkpt lat="46.667118" lon="12.499727">
        <ele>2070.396</ele>
        <time>2018-09-10T10:19:38Z</time>
      </trkpt>
      <trkpt lat="46.667131" lon="12.499721">
        <ele>2070.334</ele>
        <time>2018-09-10T10:19:39Z</time>
      </trkpt>
      <trkpt lat="46.667155" lon="12.499700">
        <ele>2070.824</ele>
        <time>2018-09-10T10:19:41Z</time>
      </trkpt>
      <trkpt lat="46.667184" lon="12.499621">
        <ele>2070.819</ele>
        <time>2018-09-10T10:19:46Z</time>
      </trkpt>
      <trkpt lat="46.667382" lon="12.499427">
        <ele>2072.777</ele>
        <time>2018-09-10T10:20:04Z</time>
      </trkpt>
      <trkpt lat="46.667512" lon="12.499318">
        <ele>2073.284</ele>
        <time>2018-09-10T10:20:16Z</time>
      </trkpt>
      <trkpt lat="46.667640" lon="12.499194">
        <ele>2074.107</ele>
        <time>2018-09-10T10:20:32Z</time>
      </trkpt>
      <trkpt lat="46.667672" lon="12.499173">
        <ele>2075.117</ele>
        <time>2018-09-10T10:20:58Z</time>
      </trkpt>
      <trkpt lat="46.667826" lon="12.498980">
        <ele>2077.508</ele>
        <time>2018-09-10T10:21:14Z</time>
      </trkpt>
      <trkpt lat="46.667835" lon="12.498968">
        <ele>2077.572</ele>
        <time>2018-09-10T10:21:15Z</time>
      </trkpt>
      <trkpt lat="46.667845" lon="12.498958">
        <ele>2078.094</ele>
        <time>2018-09-10T10:21:16Z</time>
      </trkpt>
      <trkpt lat="46.667856" lon="12.498949">
        <ele>2078.022</ele>
        <time>2018-09-10T10:21:17Z</time>
      </trkpt>
      <trkpt lat="46.667866" lon="12.498941">
        <ele>2078.557</ele>
        <time>2018-09-10T10:21:18Z</time>
      </trkpt>
      <trkpt lat="46.667876" lon="12.498933">
        <ele>2078.595</ele>
        <time>2018-09-10T10:21:19Z</time>
      </trkpt>
      <trkpt lat="46.667887" lon="12.498925">
        <ele>2078.515</ele>
        <time>2018-09-10T10:21:20Z</time>
      </trkpt>
      <trkpt lat="46.668077" lon="12.498842">
        <ele>2080.480</ele>
        <time>2018-09-10T10:21:36Z</time>
      </trkpt>
      <trkpt lat="46.668250" lon="12.498794">
        <ele>2081.398</ele>
        <time>2018-09-10T10:21:53Z</time>
      </trkpt>
      <trkpt lat="46.668450" lon="12.498734">
        <ele>2083.785</ele>
        <time>2018-09-10T10:22:11Z</time>
      </trkpt>
      <trkpt lat="46.668461" lon="12.498733">
        <ele>2083.789</ele>
        <time>2018-09-10T10:22:12Z</time>
      </trkpt>
      <trkpt lat="46.668474" lon="12.498731">
        <ele>2083.717</ele>
        <time>2018-09-10T10:22:13Z</time>
      </trkpt>
      <trkpt lat="46.668486" lon="12.498729">
        <ele>2084.208</ele>
        <time>2018-09-10T10:22:14Z</time>
      </trkpt>
      <trkpt lat="46.668496" lon="12.498727">
        <ele>2084.232</ele>
        <time>2018-09-10T10:22:15Z</time>
      </trkpt>
      <trkpt lat="46.668509" lon="12.498725">
        <ele>2084.274</ele>
        <time>2018-09-10T10:22:16Z</time>
      </trkpt>
      <trkpt lat="46.668519" lon="12.498725">
        <ele>2084.762</ele>
        <time>2018-09-10T10:22:17Z</time>
      </trkpt>
      <trkpt lat="46.668528" lon="12.498725">
        <ele>2084.727</ele>
        <time>2018-09-10T10:22:18Z</time>
      </trkpt>
      <trkpt lat="46.668540" lon="12.498724">
        <ele>2084.785</ele>
        <time>2018-09-10T10:22:19Z</time>
      </trkpt>
      <trkpt lat="46.668550" lon="12.498722">
        <ele>2084.715</ele>
        <time>2018-09-10T10:22:20Z</time>
      </trkpt>
      <trkpt lat="46.668561" lon="12.498725">
        <ele>2084.790</ele>
        <time>2018-09-10T10:22:21Z</time>
      </trkpt>
      <trkpt lat="46.668753" lon="12.498672">
        <ele>2087.188</ele>
        <time>2018-09-10T10:22:38Z</time>
      </trkpt>
      <trkpt lat="46.668962" lon="12.498617">
        <ele>2090.016</ele>
        <time>2018-09-10T10:22:56Z</time>
      </trkpt>
      <trkpt lat="46.669135" lon="12.498548">
        <ele>2091.976</ele>
        <time>2018-09-10T10:23:11Z</time>
      </trkpt>
      <trkpt lat="46.669331" lon="12.498434">
        <ele>2093.813</ele>
        <time>2018-09-10T10:23:29Z</time>
      </trkpt>
      <trkpt lat="46.669481" lon="12.498308">
        <ele>2095.308</ele>
        <time>2018-09-10T10:23:44Z</time>
      </trkpt>
      <trkpt lat="46.669490" lon="12.498301">
        <ele>2095.325</ele>
        <time>2018-09-10T10:23:45Z</time>
      </trkpt>
      <trkpt lat="46.669503" lon="12.498292">
        <ele>2095.397</ele>
        <time>2018-09-10T10:23:46Z</time>
      </trkpt>
      <trkpt lat="46.669515" lon="12.498283">
        <ele>2095.355</ele>
        <time>2018-09-10T10:23:47Z</time>
      </trkpt>
      <trkpt lat="46.669526" lon="12.498277">
        <ele>2095.820</ele>
        <time>2018-09-10T10:23:48Z</time>
      </trkpt>
      <trkpt lat="46.669537" lon="12.498270">
        <ele>2095.838</ele>
        <time>2018-09-10T10:23:49Z</time>
      </trkpt>
      <trkpt lat="46.669548" lon="12.498264">
        <ele>2095.898</ele>
        <time>2018-09-10T10:23:50Z</time>
      </trkpt>
      <trkpt lat="46.669555" lon="12.498255">
        <ele>2095.853</ele>
        <time>2018-09-10T10:23:51Z</time>
      </trkpt>
      <trkpt lat="46.669739" lon="12.498152">
        <ele>2098.271</ele>
        <time>2018-09-10T10:24:08Z</time>
      </trkpt>
      <trkpt lat="46.669859" lon="12.498007">
        <ele>2099.696</ele>
        <time>2018-09-10T10:24:22Z</time>
      </trkpt>
      <trkpt lat="46.669912" lon="12.497951">
        <ele>2100.131</ele>
        <time>2018-09-10T10:24:28Z</time>
      </trkpt>
      <trkpt lat="46.669926" lon="12.497947">
        <ele>2100.124</ele>
        <time>2018-09-10T10:24:29Z</time>
      </trkpt>
      <trkpt lat="46.669941" lon="12.497942">
        <ele>2100.108</ele>
        <time>2018-09-10T10:24:30Z</time>
      </trkpt>
      <trkpt lat="46.670136" lon="12.497768">
        <ele>2103.043</ele>
        <time>2018-09-10T10:24:50Z</time>
      </trkpt>
      <trkpt lat="46.670204" lon="12.497658">
        <ele>2103.915</ele>
        <time>2018-09-10T10:25:00Z</time>
      </trkpt>
      <trkpt lat="46.670214" lon="12.497648">
        <ele>2104.423</ele>
        <time>2018-09-10T10:25:01Z</time>
      </trkpt>
      <trkpt lat="46.670333" lon="12.497410">
        <ele>2105.968</ele>
        <time>2018-09-10T10:25:18Z</time>
      </trkpt>
      <trkpt lat="46.670491" lon="12.497185">
        <ele>2107.876</ele>
        <time>2018-09-10T10:25:37Z</time>
      </trkpt>
      <trkpt lat="46.670521" lon="12.497163">
        <ele>2108.396</ele>
        <time>2018-09-10T10:25:40Z</time>
      </trkpt>
      <trkpt lat="46.670571" lon="12.497156">
        <ele>2108.761</ele>
        <time>2018-09-10T10:25:44Z</time>
      </trkpt>
      <trkpt lat="46.670582" lon="12.497151">
        <ele>2108.729</ele>
        <time>2018-09-10T10:25:45Z</time>
      </trkpt>
      <trkpt lat="46.670594" lon="12.497147">
        <ele>2108.764</ele>
        <time>2018-09-10T10:25:46Z</time>
      </trkpt>
      <trkpt lat="46.670608" lon="12.497145">
        <ele>2108.706</ele>
        <time>2018-09-10T10:25:47Z</time>
      </trkpt>
      <trkpt lat="46.670620" lon="12.497141">
        <ele>2109.216</ele>
        <time>2018-09-10T10:25:48Z</time>
      </trkpt>
      <trkpt lat="46.670630" lon="12.497133">
        <ele>2109.208</ele>
        <time>2018-09-10T10:25:49Z</time>
      </trkpt>
      <trkpt lat="46.670644" lon="12.497125">
        <ele>2109.750</ele>
        <time>2018-09-10T10:25:50Z</time>
      </trkpt>
      <trkpt lat="46.670653" lon="12.497122">
        <ele>2109.762</ele>
        <time>2018-09-10T10:25:51Z</time>
      </trkpt>
      <trkpt lat="46.670662" lon="12.497114">
        <ele>2109.770</ele>
        <time>2018-09-10T10:25:52Z</time>
      </trkpt>
      <trkpt lat="46.670668" lon="12.497104">
        <ele>2109.755</ele>
        <time>2018-09-10T10:25:53Z</time>
      </trkpt>
      <trkpt lat="46.670677" lon="12.497093">
        <ele>2109.753</ele>
        <time>2018-09-10T10:25:54Z</time>
      </trkpt>
      <trkpt lat="46.670685" lon="12.497084">
        <ele>2109.713</ele>
        <time>2018-09-10T10:25:55Z</time>
      </trkpt>
      <trkpt lat="46.670701" lon="12.497065">
        <ele>2109.748</ele>
        <time>2018-09-10T10:25:57Z</time>
      </trkpt>
      <trkpt lat="46.670708" lon="12.497049">
        <ele>2109.746</ele>
        <time>2018-09-10T10:25:58Z</time>
      </trkpt>
      <trkpt lat="46.670712" lon="12.497036">
        <ele>2109.779</ele>
        <time>2018-09-10T10:25:59Z</time>
      </trkpt>
      <trkpt lat="46.670722" lon="12.497025">
        <ele>2110.205</ele>
        <time>2018-09-10T10:26:00Z</time>
      </trkpt>
      <trkpt lat="46.670731" lon="12.497014">
        <ele>2110.225</ele>
        <time>2018-09-10T10:26:01Z</time>
      </trkpt>
      <trkpt lat="46.670738" lon="12.497001">
        <ele>2110.208</ele>
        <time>2018-09-10T10:26:02Z</time>
      </trkpt>
      <trkpt lat="46.670747" lon="12.496986">
        <ele>2110.731</ele>
        <time>2018-09-10T10:26:03Z</time>
      </trkpt>
      <trkpt lat="46.670862" lon="12.496746">
        <ele>2113.163</ele>
        <time>2018-09-10T10:26:20Z</time>
      </trkpt>
      <trkpt lat="46.670925" lon="12.496391">
        <ele>2114.591</ele>
        <time>2018-09-10T10:26:41Z</time>
      </trkpt>
      <trkpt lat="46.670934" lon="12.496274">
        <ele>2115.596</ele>
        <time>2018-09-10T10:26:49Z</time>
      </trkpt>
      <trkpt lat="46.670939" lon="12.496258">
        <ele>2115.534</ele>
        <time>2018-09-10T10:26:50Z</time>
      </trkpt>
      <trkpt lat="46.670942" lon="12.496246">
        <ele>2115.534</ele>
        <time>2018-09-10T10:26:51Z</time>
      </trkpt>
      <trkpt lat="46.670979" lon="12.496001">
        <ele>2117.969</ele>
        <time>2018-09-10T10:27:06Z</time>
      </trkpt>
      <trkpt lat="46.670982" lon="12.495950">
        <ele>2118.427</ele>
        <time>2018-09-10T10:27:09Z</time>
      </trkpt>
      <trkpt lat="46.671021" lon="12.495705">
        <ele>2120.853</ele>
        <time>2018-09-10T10:27:25Z</time>
      </trkpt>
      <trkpt lat="46.671038" lon="12.495576">
        <ele>2121.704</ele>
        <time>2018-09-10T10:27:33Z</time>
      </trkpt>
      <trkpt lat="46.671047" lon="12.495415">
        <ele>2123.214</ele>
        <time>2018-09-10T10:27:44Z</time>
      </trkpt>
      <trkpt lat="46.671048" lon="12.495378">
        <ele>2123.208</ele>
        <time>2018-09-10T10:27:47Z</time>
      </trkpt>
      <trkpt lat="46.671040" lon="12.495349">
        <ele>2123.639</ele>
        <time>2018-09-10T10:27:49Z</time>
      </trkpt>
      <trkpt lat="46.671042" lon="12.495332">
        <ele>2123.691</ele>
        <time>2018-09-10T10:27:50Z</time>
      </trkpt>
      <trkpt lat="46.671049" lon="12.495317">
        <ele>2124.179</ele>
        <time>2018-09-10T10:27:51Z</time>
      </trkpt>
      <trkpt lat="46.671057" lon="12.495304">
        <ele>2124.644</ele>
        <time>2018-09-10T10:27:52Z</time>
      </trkpt>
      <trkpt lat="46.671064" lon="12.495293">
        <ele>2124.612</ele>
        <time>2018-09-10T10:27:53Z</time>
      </trkpt>
      <trkpt lat="46.671074" lon="12.495284">
        <ele>2124.652</ele>
        <time>2018-09-10T10:27:54Z</time>
      </trkpt>
      <trkpt lat="46.671080" lon="12.495274">
        <ele>2124.647</ele>
        <time>2018-09-10T10:27:55Z</time>
      </trkpt>
      <trkpt lat="46.671087" lon="12.495265">
        <ele>2124.655</ele>
        <time>2018-09-10T10:27:56Z</time>
      </trkpt>
      <trkpt lat="46.671139" lon="12.495040">
        <ele>2127.548</ele>
        <time>2018-09-10T10:28:13Z</time>
      </trkpt>
      <trkpt lat="46.671104" lon="12.494874">
        <ele>2128.561</ele>
        <time>2018-09-10T10:28:28Z</time>
      </trkpt>
      <trkpt lat="46.671098" lon="12.494834">
        <ele>2128.917</ele>
        <time>2018-09-10T10:28:49Z</time>
      </trkpt>
      <trkpt lat="46.671044" lon="12.494635">
        <ele>2130.408</ele>
        <time>2018-09-10T10:29:06Z</time>
      </trkpt>
      <trkpt lat="46.671048" lon="12.494434">
        <ele>2132.318</ele>
        <time>2018-09-10T10:29:24Z</time>
      </trkpt>
      <trkpt lat="46.671080" lon="12.494240">
        <ele>2134.770</ele>
        <time>2018-09-10T10:29:40Z</time>
      </trkpt>
      <trkpt lat="46.671088" lon="12.494016">
        <ele>2136.678</ele>
        <time>2018-09-10T10:30:00Z</time>
      </trkpt>
      <trkpt lat="46.671052" lon="12.493989">
        <ele>2137.693</ele>
        <time>2018-09-10T10:30:15Z</time>
      </trkpt>
      <trkpt lat="46.671033" lon="12.493876">
        <ele>2138.591</ele>
        <time>2018-09-10T10:30:38Z</time>
      </trkpt>
      <trkpt lat="46.671012" lon="12.493626">
        <ele>2140.511</ele>
        <time>2018-09-10T10:30:56Z</time>
      </trkpt>
      <trkpt lat="46.670988" lon="12.493402">
        <ele>2142.916</ele>
        <time>2018-09-10T10:31:16Z</time>
      </trkpt>
      <trkpt lat="46.670999" lon="12.493292">
        <ele>2144.834</ele>
        <time>2018-09-10T10:31:28Z</time>
      </trkpt>
      <trkpt lat="46.671016" lon="12.493231">
        <ele>2145.812</ele>
        <time>2018-09-10T10:31:33Z</time>
      </trkpt>
      <trkpt lat="46.671055" lon="12.492969">
        <ele>2147.732</ele>
        <time>2018-09-10T10:31:51Z</time>
      </trkpt>
      <trkpt lat="46.671057" lon="12.492953">
        <ele>2147.705</ele>
        <time>2018-09-10T10:31:52Z</time>
      </trkpt>
      <trkpt lat="46.671061" lon="12.492941">
        <ele>2147.708</ele>
        <time>2018-09-10T10:31:53Z</time>
      </trkpt>
      <trkpt lat="46.671060" lon="12.492926">
        <ele>2147.715</ele>
        <time>2018-09-10T10:31:54Z</time>
      </trkpt>
      <trkpt lat="46.671062" lon="12.492912">
        <ele>2147.757</ele>
        <time>2018-09-10T10:31:55Z</time>
      </trkpt>
      <trkpt lat="46.671064" lon="12.492897">
        <ele>2148.275</ele>
        <time>2018-09-10T10:31:56Z</time>
      </trkpt>
      <trkpt lat="46.671080" lon="12.492825">
        <ele>2149.120</ele>
        <time>2018-09-10T10:32:01Z</time>
      </trkpt>
      <trkpt lat="46.671094" lon="12.492805">
        <ele>2149.168</ele>
        <time>2018-09-10T10:32:03Z</time>
      </trkpt>
      <trkpt lat="46.671099" lon="12.492792">
        <ele>2149.138</ele>
        <time>2018-09-10T10:32:04Z</time>
      </trkpt>
      <trkpt lat="46.671107" lon="12.492780">
        <ele>2149.693</ele>
        <time>2018-09-10T10:32:05Z</time>
      </trkpt>
      <trkpt lat="46.671206" lon="12.492563">
        <ele>2151.051</ele>
        <time>2018-09-10T10:32:23Z</time>
      </trkpt>
      <trkpt lat="46.671210" lon="12.492549">
        <ele>2151.035</ele>
        <time>2018-09-10T10:32:24Z</time>
      </trkpt>
      <trkpt lat="46.671261" lon="12.492435">
        <ele>2152.086</ele>
        <time>2018-09-10T10:32:33Z</time>
      </trkpt>
      <trkpt lat="46.671265" lon="12.492424">
        <ele>2152.014</ele>
        <time>2018-09-10T10:32:34Z</time>
      </trkpt>
      <trkpt lat="46.671279" lon="12.492400">
        <ele>2152.008</ele>
        <time>2018-09-10T10:32:36Z</time>
      </trkpt>
      <trkpt lat="46.671292" lon="12.492338">
        <ele>2152.077</ele>
        <time>2018-09-10T10:32:40Z</time>
      </trkpt>
      <trkpt lat="46.671295" lon="12.492323">
        <ele>2152.539</ele>
        <time>2018-09-10T10:32:41Z</time>
      </trkpt>
      <trkpt lat="46.671380" lon="12.492079">
        <ele>2153.937</ele>
        <time>2018-09-10T10:32:58Z</time>
      </trkpt>
      <trkpt lat="46.671398" lon="12.492023">
        <ele>2153.912</ele>
        <time>2018-09-10T10:33:02Z</time>
      </trkpt>
      <trkpt lat="46.671403" lon="12.492012">
        <ele>2153.990</ele>
        <time>2018-09-10T10:33:03Z</time>
      </trkpt>
      <trkpt lat="46.671521" lon="12.491817">
        <ele>2156.370</ele>
        <time>2018-09-10T10:33:19Z</time>
      </trkpt>
      <trkpt lat="46.671549" lon="12.491650">
        <ele>2156.875</ele>
        <time>2018-09-10T10:33:29Z</time>
      </trkpt>
      <trkpt lat="46.671557" lon="12.491642">
        <ele>2156.823</ele>
        <time>2018-09-10T10:33:30Z</time>
      </trkpt>
      <trkpt lat="46.671571" lon="12.491622">
        <ele>2157.313</ele>
        <time>2018-09-10T10:33:32Z</time>
      </trkpt>
      <trkpt lat="46.671581" lon="12.491588">
        <ele>2157.843</ele>
        <time>2018-09-10T10:33:34Z</time>
      </trkpt>
      <trkpt lat="46.671586" lon="12.491574">
        <ele>2157.807</ele>
        <time>2018-09-10T10:33:35Z</time>
      </trkpt>
      <trkpt lat="46.671592" lon="12.491564">
        <ele>2157.808</ele>
        <time>2018-09-10T10:33:36Z</time>
      </trkpt>
      <trkpt lat="46.671598" lon="12.491555">
        <ele>2157.815</ele>
        <time>2018-09-10T10:33:37Z</time>
      </trkpt>
      <trkpt lat="46.671603" lon="12.491541">
        <ele>2157.847</ele>
        <time>2018-09-10T10:33:38Z</time>
      </trkpt>
      <trkpt lat="46.671604" lon="12.491524">
        <ele>2158.375</ele>
        <time>2018-09-10T10:33:39Z</time>
      </trkpt>
      <trkpt lat="46.671603" lon="12.491503">
        <ele>2158.370</ele>
        <time>2018-09-10T10:33:40Z</time>
      </trkpt>
      <trkpt lat="46.671609" lon="12.491479">
        <ele>2158.378</ele>
        <time>2018-09-10T10:33:42Z</time>
      </trkpt>
      <trkpt lat="46.671614" lon="12.491464">
        <ele>2158.748</ele>
        <time>2018-09-10T10:33:43Z</time>
      </trkpt>
      <trkpt lat="46.671743" lon="12.491314">
        <ele>2160.293</ele>
        <time>2018-09-10T10:33:59Z</time>
      </trkpt>
      <trkpt lat="46.671863" lon="12.491186">
        <ele>2161.651</ele>
        <time>2018-09-10T10:34:14Z</time>
      </trkpt>
      <trkpt lat="46.671967" lon="12.490962">
        <ele>2162.166</ele>
        <time>2018-09-10T10:34:32Z</time>
      </trkpt>
      <trkpt lat="46.671965" lon="12.490896">
        <ele>2162.629</ele>
        <time>2018-09-10T10:34:36Z</time>
      </trkpt>
      <trkpt lat="46.671966" lon="12.490876">
        <ele>2162.621</ele>
        <time>2018-09-10T10:34:37Z</time>
      </trkpt>
      <trkpt lat="46.671967" lon="12.490861">
        <ele>2162.608</ele>
        <time>2018-09-10T10:34:38Z</time>
      </trkpt>
      <trkpt lat="46.672020" lon="12.490626">
        <ele>2165.010</ele>
        <time>2018-09-10T10:34:54Z</time>
      </trkpt>
      <trkpt lat="46.672050" lon="12.490589">
        <ele>2165.562</ele>
        <time>2018-09-10T10:34:58Z</time>
      </trkpt>
      <trkpt lat="46.672079" lon="12.490490">
        <ele>2165.990</ele>
        <time>2018-09-10T10:35:05Z</time>
      </trkpt>
      <trkpt lat="46.672084" lon="12.490474">
        <ele>2166.415</ele>
        <time>2018-09-10T10:35:06Z</time>
      </trkpt>
      <trkpt lat="46.672171" lon="12.490322">
        <ele>2167.413</ele>
        <time>2018-09-10T10:35:19Z</time>
      </trkpt>
      <trkpt lat="46.672309" lon="12.490124">
        <ele>2169.333</ele>
        <time>2018-09-10T10:35:37Z</time>
      </trkpt>
      <trkpt lat="46.672406" lon="12.489867">
        <ele>2172.258</ele>
        <time>2018-09-10T10:35:56Z</time>
      </trkpt>
      <trkpt lat="46.672480" lon="12.489720">
        <ele>2172.736</ele>
        <time>2018-09-10T10:36:08Z</time>
      </trkpt>
      <trkpt lat="46.672486" lon="12.489706">
        <ele>2172.786</ele>
        <time>2018-09-10T10:36:09Z</time>
      </trkpt>
      <trkpt lat="46.672491" lon="12.489693">
        <ele>2172.760</ele>
        <time>2018-09-10T10:36:10Z</time>
      </trkpt>
      <trkpt lat="46.672497" lon="12.489680">
        <ele>2172.726</ele>
        <time>2018-09-10T10:36:11Z</time>
      </trkpt>
      <trkpt lat="46.672505" lon="12.489669">
        <ele>2173.208</ele>
        <time>2018-09-10T10:36:12Z</time>
      </trkpt>
      <trkpt lat="46.672606" lon="12.489511">
        <ele>2174.112</ele>
        <time>2018-09-10T10:36:26Z</time>
      </trkpt>
      <trkpt lat="46.672610" lon="12.489496">
        <ele>2174.114</ele>
        <time>2018-09-10T10:36:27Z</time>
      </trkpt>
      <trkpt lat="46.672614" lon="12.489463">
        <ele>2174.622</ele>
        <time>2018-09-10T10:36:29Z</time>
      </trkpt>
      <trkpt lat="46.672613" lon="12.489447">
        <ele>2174.647</ele>
        <time>2018-09-10T10:36:30Z</time>
      </trkpt>
      <trkpt lat="46.672615" lon="12.489432">
        <ele>2174.655</ele>
        <time>2018-09-10T10:36:31Z</time>
      </trkpt>
      <trkpt lat="46.672621" lon="12.489251">
        <ele>2175.635</ele>
        <time>2018-09-10T10:36:43Z</time>
      </trkpt>
      <trkpt lat="46.672618" lon="12.489234">
        <ele>2176.050</ele>
        <time>2018-09-10T10:36:44Z</time>
      </trkpt>
      <trkpt lat="46.672620" lon="12.489219">
        <ele>2176.088</ele>
        <time>2018-09-10T10:36:45Z</time>
      </trkpt>
      <trkpt lat="46.672622" lon="12.489203">
        <ele>2176.045</ele>
        <time>2018-09-10T10:36:46Z</time>
      </trkpt>
      <trkpt lat="46.672623" lon="12.489188">
        <ele>2176.047</ele>
        <time>2018-09-10T10:36:47Z</time>
      </trkpt>
      <trkpt lat="46.672625" lon="12.489173">
        <ele>2176.511</ele>
        <time>2018-09-10T10:36:48Z</time>
      </trkpt>
      <trkpt lat="46.672628" lon="12.489157">
        <ele>2176.508</ele>
        <time>2018-09-10T10:36:49Z</time>
      </trkpt>
      <trkpt lat="46.672631" lon="12.489142">
        <ele>2176.588</ele>
        <time>2018-09-10T10:36:50Z</time>
      </trkpt>
      <trkpt lat="46.672631" lon="12.489124">
        <ele>2176.520</ele>
        <time>2018-09-10T10:36:51Z</time>
      </trkpt>
      <trkpt lat="46.672635" lon="12.489108">
        <ele>2176.568</ele>
        <time>2018-09-10T10:36:52Z</time>
      </trkpt>
      <trkpt lat="46.672645" lon="12.489009">
        <ele>2177.583</ele>
        <time>2018-09-10T10:36:58Z</time>
      </trkpt>
      <trkpt lat="46.672644" lon="12.488994">
        <ele>2177.581</ele>
        <time>2018-09-10T10:36:59Z</time>
      </trkpt>
      <trkpt lat="46.672641" lon="12.488977">
        <ele>2178.051</ele>
        <time>2018-09-10T10:37:00Z</time>
      </trkpt>
      <trkpt lat="46.672638" lon="12.488960">
        <ele>2178.036</ele>
        <time>2018-09-10T10:37:01Z</time>
      </trkpt>
      <trkpt lat="46.672637" lon="12.488945">
        <ele>2178.054</ele>
        <time>2018-09-10T10:37:02Z</time>
      </trkpt>
      <trkpt lat="46.672612" lon="12.488754">
        <ele>2179.927</ele>
        <time>2018-09-10T10:37:15Z</time>
      </trkpt>
      <trkpt lat="46.672609" lon="12.488741">
        <ele>2180.468</ele>
        <time>2018-09-10T10:37:16Z</time>
      </trkpt>
      <trkpt lat="46.672611" lon="12.488673">
        <ele>2180.414</ele>
        <time>2018-09-10T10:37:21Z</time>
      </trkpt>
      <trkpt lat="46.672622" lon="12.488666">
        <ele>2180.808</ele>
        <time>2018-09-10T10:37:22Z</time>
      </trkpt>
      <trkpt lat="46.672633" lon="12.488661">
        <ele>2180.846</ele>
        <time>2018-09-10T10:37:23Z</time>
      </trkpt>
      <trkpt lat="46.672644" lon="12.488657">
        <ele>2180.818</ele>
        <time>2018-09-10T10:37:24Z</time>
      </trkpt>
      <trkpt lat="46.672655" lon="12.488652">
        <ele>2181.326</ele>
        <time>2018-09-10T10:37:25Z</time>
      </trkpt>
      <trkpt lat="46.672665" lon="12.488646">
        <ele>2181.351</ele>
        <time>2018-09-10T10:37:26Z</time>
      </trkpt>
      <trkpt lat="46.672677" lon="12.488635">
        <ele>2181.849</ele>
        <time>2018-09-10T10:37:27Z</time>
      </trkpt>
      <trkpt lat="46.672686" lon="12.488626">
        <ele>2181.899</ele>
        <time>2018-09-10T10:37:28Z</time>
      </trkpt>
      <trkpt lat="46.672695" lon="12.488614">
        <ele>2182.344</ele>
        <time>2018-09-10T10:37:29Z</time>
      </trkpt>
      <trkpt lat="46.672727" lon="12.488519">
        <ele>2182.352</ele>
        <time>2018-09-10T10:37:36Z</time>
      </trkpt>
      <trkpt lat="46.672737" lon="12.488252">
        <ele>2183.753</ele>
        <time>2018-09-10T10:37:54Z</time>
      </trkpt>
      <trkpt lat="46.672765" lon="12.488088">
        <ele>2185.604</ele>
        <time>2018-09-10T10:38:06Z</time>
      </trkpt>
      <trkpt lat="46.672764" lon="12.488072">
        <ele>2185.614</ele>
        <time>2018-09-10T10:38:07Z</time>
      </trkpt>
      <trkpt lat="46.672745" lon="12.487783">
        <ele>2188.108</ele>
        <time>2018-09-10T10:38:26Z</time>
      </trkpt>
      <trkpt lat="46.672755" lon="12.487562">
        <ele>2190.089</ele>
        <time>2018-09-10T10:38:41Z</time>
      </trkpt>
      <trkpt lat="46.672739" lon="12.487331">
        <ele>2191.971</ele>
        <time>2018-09-10T10:38:57Z</time>
      </trkpt>
      <trkpt lat="46.672742" lon="12.487319">
        <ele>2191.949</ele>
        <time>2018-09-10T10:38:58Z</time>
      </trkpt>
      <trkpt lat="46.672742" lon="12.487291">
        <ele>2192.444</ele>
        <time>2018-09-10T10:39:00Z</time>
      </trkpt>
      <trkpt lat="46.672723" lon="12.487082">
        <ele>2193.892</ele>
        <time>2018-09-10T10:39:15Z</time>
      </trkpt>
      <trkpt lat="46.672677" lon="12.486891">
        <ele>2195.762</ele>
        <time>2018-09-10T10:39:30Z</time>
      </trkpt>
      <trkpt lat="46.672621" lon="12.486696">
        <ele>2198.647</ele>
        <time>2018-09-10T10:39:45Z</time>
      </trkpt>
      <trkpt lat="46.672582" lon="12.486503">
        <ele>2200.525</ele>
        <time>2018-09-10T10:40:00Z</time>
      </trkpt>
      <trkpt lat="46.672513" lon="12.486332">
        <ele>2200.578</ele>
        <time>2018-09-10T10:40:16Z</time>
      </trkpt>
      <trkpt lat="46.672500" lon="12.486325">
        <ele>2199.633</ele>
        <time>2018-09-10T10:40:29Z</time>
      </trkpt>
      <trkpt lat="46.672479" lon="12.486233">
        <ele>2200.526</ele>
        <time>2018-09-10T10:40:58Z</time>
      </trkpt>
      <trkpt lat="46.672368" lon="12.486045">
        <ele>2202.008</ele>
        <time>2018-09-10T10:41:16Z</time>
      </trkpt>
      <trkpt lat="46.672335" lon="12.486016">
        <ele>2204.491</ele>
        <time>2018-09-10T10:41:29Z</time>
      </trkpt>
      <trkpt lat="46.672335" lon="12.486009">
        <ele>2204.923</ele>
        <time>2018-09-10T10:41:30Z</time>
      </trkpt>
      <trkpt lat="46.672328" lon="12.485990">
        <ele>2204.981</ele>
        <time>2018-09-10T10:41:32Z</time>
      </trkpt>
      <trkpt lat="46.672319" lon="12.485976">
        <ele>2204.946</ele>
        <time>2018-09-10T10:41:33Z</time>
      </trkpt>
      <trkpt lat="46.672313" lon="12.485959">
        <ele>2204.924</ele>
        <time>2018-09-10T10:41:34Z</time>
      </trkpt>
      <trkpt lat="46.672309" lon="12.485945">
        <ele>2204.954</ele>
        <time>2018-09-10T10:41:35Z</time>
      </trkpt>
      <trkpt lat="46.672306" lon="12.485928">
        <ele>2204.969</ele>
        <time>2018-09-10T10:41:36Z</time>
      </trkpt>
      <trkpt lat="46.672303" lon="12.485914">
        <ele>2205.487</ele>
        <time>2018-09-10T10:41:37Z</time>
      </trkpt>
      <trkpt lat="46.672278" lon="12.485773">
        <ele>2206.848</ele>
        <time>2018-09-10T10:41:46Z</time>
      </trkpt>
      <trkpt lat="46.672246" lon="12.485630">
        <ele>2208.261</ele>
        <time>2018-09-10T10:41:56Z</time>
      </trkpt>
      <trkpt lat="46.672246" lon="12.485614">
        <ele>2208.717</ele>
        <time>2018-09-10T10:41:57Z</time>
      </trkpt>
      <trkpt lat="46.672213" lon="12.485479">
        <ele>2209.708</ele>
        <time>2018-09-10T10:42:06Z</time>
      </trkpt>
      <trkpt lat="46.672191" lon="12.485375">
        <ele>2210.268</ele>
        <time>2018-09-10T10:42:13Z</time>
      </trkpt>
      <trkpt lat="46.672151" lon="12.485195">
        <ele>2210.620</ele>
        <time>2018-09-10T10:42:27Z</time>
      </trkpt>
      <trkpt lat="46.672148" lon="12.485178">
        <ele>2210.648</ele>
        <time>2018-09-10T10:42:28Z</time>
      </trkpt>
      <trkpt lat="46.672087" lon="12.484973">
        <ele>2212.143</ele>
        <time>2018-09-10T10:42:43Z</time>
      </trkpt>
      <trkpt lat="46.672032" lon="12.484863">
        <ele>2213.531</ele>
        <time>2018-09-10T10:42:52Z</time>
      </trkpt>
      <trkpt lat="46.672023" lon="12.484858">
        <ele>2213.531</ele>
        <time>2018-09-10T10:42:53Z</time>
      </trkpt>
      <trkpt lat="46.671999" lon="12.484839">
        <ele>2213.536</ele>
        <time>2018-09-10T10:42:56Z</time>
      </trkpt>
      <trkpt lat="46.671943" lon="12.484653">
        <ele>2214.534</ele>
        <time>2018-09-10T10:43:09Z</time>
      </trkpt>
      <trkpt lat="46.671892" lon="12.484489">
        <ele>2215.995</ele>
        <time>2018-09-10T10:43:20Z</time>
      </trkpt>
      <trkpt lat="46.671885" lon="12.484477">
        <ele>2215.949</ele>
        <time>2018-09-10T10:43:21Z</time>
      </trkpt>
      <trkpt lat="46.671879" lon="12.484463">
        <ele>2215.923</ele>
        <time>2018-09-10T10:43:22Z</time>
      </trkpt>
      <trkpt lat="46.671822" lon="12.484350">
        <ele>2217.408</ele>
        <time>2018-09-10T10:43:31Z</time>
      </trkpt>
      <trkpt lat="46.671812" lon="12.484327">
        <ele>2217.943</ele>
        <time>2018-09-10T10:43:33Z</time>
      </trkpt>
      <trkpt lat="46.671805" lon="12.484314">
        <ele>2217.935</ele>
        <time>2018-09-10T10:43:34Z</time>
      </trkpt>
      <trkpt lat="46.671800" lon="12.484301">
        <ele>2217.923</ele>
        <time>2018-09-10T10:43:35Z</time>
      </trkpt>
      <trkpt lat="46.671795" lon="12.484285">
        <ele>2218.358</ele>
        <time>2018-09-10T10:43:36Z</time>
      </trkpt>
      <trkpt lat="46.671792" lon="12.484270">
        <ele>2218.366</ele>
        <time>2018-09-10T10:43:37Z</time>
      </trkpt>
      <trkpt lat="46.671790" lon="12.484252">
        <ele>2218.826</ele>
        <time>2018-09-10T10:43:38Z</time>
      </trkpt>
      <trkpt lat="46.671789" lon="12.484236">
        <ele>2218.851</ele>
        <time>2018-09-10T10:43:39Z</time>
      </trkpt>
      <trkpt lat="46.671783" lon="12.484220">
        <ele>2218.889</ele>
        <time>2018-09-10T10:43:40Z</time>
      </trkpt>
      <trkpt lat="46.671779" lon="12.484204">
        <ele>2219.341</ele>
        <time>2018-09-10T10:43:41Z</time>
      </trkpt>
      <trkpt lat="46.671775" lon="12.484188">
        <ele>2219.381</ele>
        <time>2018-09-10T10:43:42Z</time>
      </trkpt>
      <trkpt lat="46.671771" lon="12.484172">
        <ele>2219.309</ele>
        <time>2018-09-10T10:43:43Z</time>
      </trkpt>
      <trkpt lat="46.671777" lon="12.483939">
        <ele>2220.308</ele>
        <time>2018-09-10T10:43:59Z</time>
      </trkpt>
      <trkpt lat="46.671689" lon="12.483827">
        <ele>2220.778</ele>
        <time>2018-09-10T10:44:11Z</time>
      </trkpt>
      <trkpt lat="46.671679" lon="12.483821">
        <ele>2220.710</ele>
        <time>2018-09-10T10:44:12Z</time>
      </trkpt>
      <trkpt lat="46.671669" lon="12.483812">
        <ele>2220.788</ele>
        <time>2018-09-10T10:44:13Z</time>
      </trkpt>
      <trkpt lat="46.671659" lon="12.483802">
        <ele>2220.793</ele>
        <time>2018-09-10T10:44:14Z</time>
      </trkpt>
      <trkpt lat="46.671651" lon="12.483791">
        <ele>2221.221</ele>
        <time>2018-09-10T10:44:15Z</time>
      </trkpt>
      <trkpt lat="46.671645" lon="12.483777">
        <ele>2221.231</ele>
        <time>2018-09-10T10:44:16Z</time>
      </trkpt>
      <trkpt lat="46.671638" lon="12.483761">
        <ele>2221.246</ele>
        <time>2018-09-10T10:44:17Z</time>
      </trkpt>
      <trkpt lat="46.671630" lon="12.483744">
        <ele>2221.264</ele>
        <time>2018-09-10T10:44:18Z</time>
      </trkpt>
      <trkpt lat="46.671623" lon="12.483729">
        <ele>2221.266</ele>
        <time>2018-09-10T10:44:19Z</time>
      </trkpt>
      <trkpt lat="46.671615" lon="12.483717">
        <ele>2221.229</ele>
        <time>2018-09-10T10:44:20Z</time>
      </trkpt>
      <trkpt lat="46.671535" lon="12.483637">
        <ele>2222.721</ele>
        <time>2018-09-10T10:44:29Z</time>
      </trkpt>
      <trkpt lat="46.671525" lon="12.483634">
        <ele>2222.708</ele>
        <time>2018-09-10T10:44:30Z</time>
      </trkpt>
      <trkpt lat="46.671481" lon="12.483607">
        <ele>2223.190</ele>
        <time>2018-09-10T10:44:35Z</time>
      </trkpt>
      <trkpt lat="46.671474" lon="12.483605">
        <ele>2223.122</ele>
        <time>2018-09-10T10:44:36Z</time>
      </trkpt>
      <trkpt lat="46.671462" lon="12.483598">
        <ele>2223.150</ele>
        <time>2018-09-10T10:44:37Z</time>
      </trkpt>
      <trkpt lat="46.671453" lon="12.483592">
        <ele>2223.645</ele>
        <time>2018-09-10T10:44:38Z</time>
      </trkpt>
      <trkpt lat="46.671443" lon="12.483586">
        <ele>2223.643</ele>
        <time>2018-09-10T10:44:39Z</time>
      </trkpt>
      <trkpt lat="46.671434" lon="12.483577">
        <ele>2223.673</ele>
        <time>2018-09-10T10:44:40Z</time>
      </trkpt>
      <trkpt lat="46.671428" lon="12.483569">
        <ele>2223.628</ele>
        <time>2018-09-10T10:44:41Z</time>
      </trkpt>
      <trkpt lat="46.671419" lon="12.483562">
        <ele>2223.686</ele>
        <time>2018-09-10T10:44:42Z</time>
      </trkpt>
      <trkpt lat="46.671412" lon="12.483554">
        <ele>2223.611</ele>
        <time>2018-09-10T10:44:43Z</time>
      </trkpt>
      <trkpt lat="46.671402" lon="12.483548">
        <ele>2223.621</ele>
        <time>2018-09-10T10:44:44Z</time>
      </trkpt>
      <trkpt lat="46.671391" lon="12.483540">
        <ele>2224.103</ele>
        <time>2018-09-10T10:44:45Z</time>
      </trkpt>
      <trkpt lat="46.671288" lon="12.483306">
        <ele>2226.508</ele>
        <time>2018-09-10T10:45:03Z</time>
      </trkpt>
      <trkpt lat="46.671291" lon="12.483292">
        <ele>2226.565</ele>
        <time>2018-09-10T10:45:04Z</time>
      </trkpt>
      <trkpt lat="46.671293" lon="12.483277">
        <ele>2226.577</ele>
        <time>2018-09-10T10:45:05Z</time>
      </trkpt>
      <trkpt lat="46.671297" lon="12.483261">
        <ele>2226.555</ele>
        <time>2018-09-10T10:45:06Z</time>
      </trkpt>
      <trkpt lat="46.671298" lon="12.483245">
        <ele>2227.040</ele>
        <time>2018-09-10T10:45:07Z</time>
      </trkpt>
      <trkpt lat="46.671360" lon="12.483041">
        <ele>2228.968</ele>
        <time>2018-09-10T10:45:22Z</time>
      </trkpt>
      <trkpt lat="46.671395" lon="12.482757">
        <ele>2229.968</ele>
        <time>2018-09-10T10:45:40Z</time>
      </trkpt>
      <trkpt lat="46.671394" lon="12.482741">
        <ele>2229.983</ele>
        <time>2018-09-10T10:45:41Z</time>
      </trkpt>
      <trkpt lat="46.671401" lon="12.482651">
        <ele>2230.471</ele>
        <time>2018-09-10T10:45:47Z</time>
      </trkpt>
      <trkpt lat="46.671401" lon="12.482636">
        <ele>2230.493</ele>
        <time>2018-09-10T10:45:48Z</time>
      </trkpt>
      <trkpt lat="46.671399" lon="12.482618">
        <ele>2230.865</ele>
        <time>2018-09-10T10:45:49Z</time>
      </trkpt>
      <trkpt lat="46.671398" lon="12.482600">
        <ele>2230.821</ele>
        <time>2018-09-10T10:45:50Z</time>
      </trkpt>
      <trkpt lat="46.671401" lon="12.482585">
        <ele>2231.308</ele>
        <time>2018-09-10T10:45:51Z</time>
      </trkpt>
      <trkpt lat="46.671401" lon="12.482569">
        <ele>2230.833</ele>
        <time>2018-09-10T10:45:52Z</time>
      </trkpt>
      <trkpt lat="46.671394" lon="12.482426">
        <ele>2231.855</ele>
        <time>2018-09-10T10:46:01Z</time>
      </trkpt>
      <trkpt lat="46.671420" lon="12.482192">
        <ele>2233.733</ele>
        <time>2018-09-10T10:46:17Z</time>
      </trkpt>
      <trkpt lat="46.671452" lon="12.481977">
        <ele>2235.698</ele>
        <time>2018-09-10T10:46:32Z</time>
      </trkpt>
      <trkpt lat="46.671554" lon="12.481817">
        <ele>2237.126</ele>
        <time>2018-09-10T10:46:47Z</time>
      </trkpt>
      <trkpt lat="46.671589" lon="12.481765">
        <ele>2238.036</ele>
        <time>2018-09-10T10:46:52Z</time>
      </trkpt>
      <trkpt lat="46.671599" lon="12.481754">
        <ele>2238.081</ele>
        <time>2018-09-10T10:46:53Z</time>
      </trkpt>
      <trkpt lat="46.671664" lon="12.481699">
        <ele>2238.599</ele>
        <time>2018-09-10T10:47:00Z</time>
      </trkpt>
      <trkpt lat="46.671714" lon="12.481681">
        <ele>2239.517</ele>
        <time>2018-09-10T10:47:05Z</time>
      </trkpt>
      <trkpt lat="46.671777" lon="12.481627">
        <ele>2240.087</ele>
        <time>2018-09-10T10:47:12Z</time>
      </trkpt>
      <trkpt lat="46.671814" lon="12.481602">
        <ele>2240.015</ele>
        <time>2018-09-10T10:47:16Z</time>
      </trkpt>
      <trkpt lat="46.671821" lon="12.481588">
        <ele>2240.008</ele>
        <time>2018-09-10T10:47:17Z</time>
      </trkpt>
      <trkpt lat="46.671830" lon="12.481576">
        <ele>2240.085</ele>
        <time>2018-09-10T10:47:18Z</time>
      </trkpt>
      <trkpt lat="46.671837" lon="12.481566">
        <ele>2240.427</ele>
        <time>2018-09-10T10:47:19Z</time>
      </trkpt>
      <trkpt lat="46.671846" lon="12.481559">
        <ele>2240.455</ele>
        <time>2018-09-10T10:47:20Z</time>
      </trkpt>
      <trkpt lat="46.671854" lon="12.481546">
        <ele>2240.470</ele>
        <time>2018-09-10T10:47:21Z</time>
      </trkpt>
      <trkpt lat="46.671862" lon="12.481535">
        <ele>2240.438</ele>
        <time>2018-09-10T10:47:22Z</time>
      </trkpt>
      <trkpt lat="46.671870" lon="12.481526">
        <ele>2240.458</ele>
        <time>2018-09-10T10:47:23Z</time>
      </trkpt>
      <trkpt lat="46.671877" lon="12.481516">
        <ele>2240.923</ele>
        <time>2018-09-10T10:47:24Z</time>
      </trkpt>
      <trkpt lat="46.671884" lon="12.481505">
        <ele>2240.961</ele>
        <time>2018-09-10T10:47:25Z</time>
      </trkpt>
      <trkpt lat="46.671891" lon="12.481492">
        <ele>2241.458</ele>
        <time>2018-09-10T10:47:26Z</time>
      </trkpt>
      <trkpt lat="46.672013" lon="12.481251">
        <ele>2244.352</ele>
        <time>2018-09-10T10:47:46Z</time>
      </trkpt>
      <trkpt lat="46.672065" lon="12.481050">
        <ele>2246.217</ele>
        <time>2018-09-10T10:48:00Z</time>
      </trkpt>
      <trkpt lat="46.672099" lon="12.480942">
        <ele>2246.708</ele>
        <time>2018-09-10T10:48:08Z</time>
      </trkpt>
      <trkpt lat="46.672103" lon="12.480925">
        <ele>2246.719</ele>
        <time>2018-09-10T10:48:09Z</time>
      </trkpt>
      <trkpt lat="46.672106" lon="12.480910">
        <ele>2247.281</ele>
        <time>2018-09-10T10:48:10Z</time>
      </trkpt>
      <trkpt lat="46.672142" lon="12.480633">
        <ele>2248.159</ele>
        <time>2018-09-10T10:48:28Z</time>
      </trkpt>
      <trkpt lat="46.672137" lon="12.480579">
        <ele>2249.124</ele>
        <time>2018-09-10T10:48:32Z</time>
      </trkpt>
      <trkpt lat="46.672133" lon="12.480562">
        <ele>2249.182</ele>
        <time>2018-09-10T10:48:33Z</time>
      </trkpt>
      <trkpt lat="46.672129" lon="12.480546">
        <ele>2249.632</ele>
        <time>2018-09-10T10:48:34Z</time>
      </trkpt>
      <trkpt lat="46.672124" lon="12.480532">
        <ele>2249.677</ele>
        <time>2018-09-10T10:48:35Z</time>
      </trkpt>
      <trkpt lat="46.672095" lon="12.480332">
        <ele>2251.065</ele>
        <time>2018-09-10T10:48:50Z</time>
      </trkpt>
      <trkpt lat="46.672097" lon="12.480315">
        <ele>2250.181</ele>
        <time>2018-09-10T10:49:02Z</time>
      </trkpt>
      <trkpt lat="46.672096" lon="12.480277">
        <ele>2250.561</ele>
        <time>2018-09-10T10:49:26Z</time>
      </trkpt>
      <trkpt lat="46.672074" lon="12.480113">
        <ele>2252.917</ele>
        <time>2018-09-10T10:49:41Z</time>
      </trkpt>
      <trkpt lat="46.672032" lon="12.479997">
        <ele>2254.908</ele>
        <time>2018-09-10T10:49:54Z</time>
      </trkpt>
      <trkpt lat="46.671986" lon="12.479853">
        <ele>2256.862</ele>
        <time>2018-09-10T10:50:09Z</time>
      </trkpt>
      <trkpt lat="46.671953" lon="12.479758">
        <ele>2258.264</ele>
        <time>2018-09-10T10:50:21Z</time>
      </trkpt>
      <trkpt lat="46.671886" lon="12.479628">
        <ele>2259.712</ele>
        <time>2018-09-10T10:50:38Z</time>
      </trkpt>
      <trkpt lat="46.671811" lon="12.479520">
        <ele>2261.617</ele>
        <time>2018-09-10T10:50:53Z</time>
      </trkpt>
      <trkpt lat="46.671759" lon="12.479370">
        <ele>2263.085</ele>
        <time>2018-09-10T10:51:10Z</time>
      </trkpt>
      <trkpt lat="46.671663" lon="12.479251">
        <ele>2265.015</ele>
        <time>2018-09-10T10:51:27Z</time>
      </trkpt>
      <trkpt lat="46.671570" lon="12.479227">
        <ele>2266.920</ele>
        <time>2018-09-10T10:51:41Z</time>
      </trkpt>
      <trkpt lat="46.671472" lon="12.479091">
        <ele>2267.898</ele>
        <time>2018-09-10T10:51:58Z</time>
      </trkpt>
      <trkpt lat="46.671424" lon="12.478966">
        <ele>2270.278</ele>
        <time>2018-09-10T10:52:13Z</time>
      </trkpt>
      <trkpt lat="46.671412" lon="12.478843">
        <ele>2272.233</ele>
        <time>2018-09-10T10:52:28Z</time>
      </trkpt>
      <trkpt lat="46.671437" lon="12.478718">
        <ele>2273.626</ele>
        <time>2018-09-10T10:52:41Z</time>
      </trkpt>
      <trkpt lat="46.671488" lon="12.478517">
        <ele>2275.108</ele>
        <time>2018-09-10T10:52:59Z</time>
      </trkpt>
      <trkpt lat="46.671474" lon="12.478356">
        <ele>2277.051</ele>
        <time>2018-09-10T10:53:15Z</time>
      </trkpt>
      <trkpt lat="46.671444" lon="12.478166">
        <ele>2278.923</ele>
        <time>2018-09-10T10:53:32Z</time>
      </trkpt>
      <trkpt lat="46.671419" lon="12.478002">
        <ele>2280.311</ele>
        <time>2018-09-10T10:53:48Z</time>
      </trkpt>
      <trkpt lat="46.671414" lon="12.477968">
        <ele>2280.826</ele>
        <time>2018-09-10T10:53:51Z</time>
      </trkpt>
      <trkpt lat="46.671345" lon="12.477821">
        <ele>2283.274</ele>
        <time>2018-09-10T10:54:06Z</time>
      </trkpt>
      <trkpt lat="46.671265" lon="12.477704">
        <ele>2285.124</ele>
        <time>2018-09-10T10:54:22Z</time>
      </trkpt>
      <trkpt lat="46.671226" lon="12.477584">
        <ele>2286.179</ele>
        <time>2018-09-10T10:54:38Z</time>
      </trkpt>
      <trkpt lat="46.671214" lon="12.477547">
        <ele>2287.167</ele>
        <time>2018-09-10T10:54:52Z</time>
      </trkpt>
      <trkpt lat="46.671202" lon="12.477527">
        <ele>2287.116</ele>
        <time>2018-09-10T10:55:00Z</time>
      </trkpt>
      <trkpt lat="46.671173" lon="12.477463">
        <ele>2288.576</ele>
        <time>2018-09-10T10:55:05Z</time>
      </trkpt>
      <trkpt lat="46.671093" lon="12.477418">
        <ele>2289.513</ele>
        <time>2018-09-10T10:55:14Z</time>
      </trkpt>
      <trkpt lat="46.671076" lon="12.477407">
        <ele>2290.008</ele>
        <time>2018-09-10T10:55:16Z</time>
      </trkpt>
      <trkpt lat="46.671021" lon="12.477374">
        <ele>2290.095</ele>
        <time>2018-09-10T10:55:22Z</time>
      </trkpt>
      <trkpt lat="46.670961" lon="12.477241">
        <ele>2291.987</ele>
        <time>2018-09-10T10:55:35Z</time>
      </trkpt>
      <trkpt lat="46.670949" lon="12.477185">
        <ele>2292.415</ele>
        <time>2018-09-10T10:55:40Z</time>
      </trkpt>
      <trkpt lat="46.670899" lon="12.477140">
        <ele>2293.340</ele>
        <time>2018-09-10T10:55:46Z</time>
      </trkpt>
      <trkpt lat="46.670889" lon="12.477133">
        <ele>2293.388</ele>
        <time>2018-09-10T10:55:47Z</time>
      </trkpt>
      <trkpt lat="46.670853" lon="12.477084">
        <ele>2293.858</ele>
        <time>2018-09-10T10:55:52Z</time>
      </trkpt>
      <trkpt lat="46.670814" lon="12.477050">
        <ele>2294.863</ele>
        <time>2018-09-10T10:55:57Z</time>
      </trkpt>
      <trkpt lat="46.670697" lon="12.476936">
        <ele>2297.211</ele>
        <time>2018-09-10T10:56:12Z</time>
      </trkpt>
      <trkpt lat="46.670676" lon="12.476923">
        <ele>2297.211</ele>
        <time>2018-09-10T10:56:15Z</time>
      </trkpt>
      <trkpt lat="46.670665" lon="12.476916">
        <ele>2297.621</ele>
        <time>2018-09-10T10:56:16Z</time>
      </trkpt>
      <trkpt lat="46.670582" lon="12.476814">
        <ele>2299.103</ele>
        <time>2018-09-10T10:56:27Z</time>
      </trkpt>
      <trkpt lat="46.670555" lon="12.476785">
        <ele>2299.608</ele>
        <time>2018-09-10T10:56:32Z</time>
      </trkpt>
      <trkpt lat="46.670544" lon="12.476728">
        <ele>2299.675</ele>
        <time>2018-09-10T10:56:44Z</time>
      </trkpt>
      <trkpt lat="46.670457" lon="12.476557">
        <ele>2302.047</ele>
        <time>2018-09-10T10:57:04Z</time>
      </trkpt>
      <trkpt lat="46.670368" lon="12.476450">
        <ele>2303.955</ele>
        <time>2018-09-10T10:57:21Z</time>
      </trkpt>
      <trkpt lat="46.670307" lon="12.476415">
        <ele>2304.960</ele>
        <time>2018-09-10T10:57:29Z</time>
      </trkpt>
      <trkpt lat="46.670195" lon="12.476402">
        <ele>2306.368</ele>
        <time>2018-09-10T10:57:45Z</time>
      </trkpt>
      <trkpt lat="46.670076" lon="12.476350">
        <ele>2308.248</ele>
        <time>2018-09-10T10:58:02Z</time>
      </trkpt>
      <trkpt lat="46.670137" lon="12.476252">
        <ele>2309.763</ele>
        <time>2018-09-10T10:58:18Z</time>
      </trkpt>
      <trkpt lat="46.670209" lon="12.476211">
        <ele>2310.161</ele>
        <time>2018-09-10T10:58:33Z</time>
      </trkpt>
      <trkpt lat="46.670234" lon="12.476213">
        <ele>2311.646</ele>
        <time>2018-09-10T10:58:39Z</time>
      </trkpt>
      <trkpt lat="46.670246" lon="12.476215">
        <ele>2311.688</ele>
        <time>2018-09-10T10:58:40Z</time>
      </trkpt>
      <trkpt lat="46.670431" lon="12.476278">
        <ele>2314.516</ele>
        <time>2018-09-10T10:58:57Z</time>
      </trkpt>
      <trkpt lat="46.670464" lon="12.476293">
        <ele>2314.908</ele>
        <time>2018-09-10T10:59:00Z</time>
      </trkpt>
      <trkpt lat="46.670475" lon="12.476295">
        <ele>2314.938</ele>
        <time>2018-09-10T10:59:01Z</time>
      </trkpt>
      <trkpt lat="46.670486" lon="12.476298">
        <ele>2315.480</ele>
        <time>2018-09-10T10:59:02Z</time>
      </trkpt>
      <trkpt lat="46.670498" lon="12.476302">
        <ele>2315.438</ele>
        <time>2018-09-10T10:59:03Z</time>
      </trkpt>
      <trkpt lat="46.670509" lon="12.476309">
        <ele>2315.433</ele>
        <time>2018-09-10T10:59:04Z</time>
      </trkpt>
      <trkpt lat="46.670523" lon="12.476308">
        <ele>2315.471</ele>
        <time>2018-09-10T10:59:05Z</time>
      </trkpt>
      <trkpt lat="46.670534" lon="12.476304">
        <ele>2315.981</ele>
        <time>2018-09-10T10:59:06Z</time>
      </trkpt>
      <trkpt lat="46.670545" lon="12.476300">
        <ele>2315.936</ele>
        <time>2018-09-10T10:59:07Z</time>
      </trkpt>
      <trkpt lat="46.670557" lon="12.476302">
        <ele>2316.444</ele>
        <time>2018-09-10T10:59:08Z</time>
      </trkpt>
      <trkpt lat="46.670569" lon="12.476305">
        <ele>2316.437</ele>
        <time>2018-09-10T10:59:09Z</time>
      </trkpt>
      <trkpt lat="46.670578" lon="12.476312">
        <ele>2316.449</ele>
        <time>2018-09-10T10:59:10Z</time>
      </trkpt>
      <trkpt lat="46.670589" lon="12.476313">
        <ele>2316.413</ele>
        <time>2018-09-10T10:59:11Z</time>
      </trkpt>
      <trkpt lat="46.670601" lon="12.476308">
        <ele>2316.408</ele>
        <time>2018-09-10T10:59:12Z</time>
      </trkpt>
      <trkpt lat="46.670622" lon="12.476307">
        <ele>2316.477</ele>
        <time>2018-09-10T10:59:14Z</time>
      </trkpt>
      <trkpt lat="46.670633" lon="12.476309">
        <ele>2316.439</ele>
        <time>2018-09-10T10:59:15Z</time>
      </trkpt>
      <trkpt lat="46.670642" lon="12.476308">
        <ele>2316.497</ele>
        <time>2018-09-10T10:59:16Z</time>
      </trkpt>
      <trkpt lat="46.670653" lon="12.476308">
        <ele>2316.992</ele>
        <time>2018-09-10T10:59:17Z</time>
      </trkpt>
      <trkpt lat="46.670665" lon="12.476312">
        <ele>2316.970</ele>
        <time>2018-09-10T10:59:18Z</time>
      </trkpt>
      <trkpt lat="46.670675" lon="12.476313">
        <ele>2316.990</ele>
        <time>2018-09-10T10:59:19Z</time>
      </trkpt>
      <trkpt lat="46.670687" lon="12.476318">
        <ele>2316.915</ele>
        <time>2018-09-10T10:59:20Z</time>
      </trkpt>
      <trkpt lat="46.670698" lon="12.476328">
        <ele>2317.413</ele>
        <time>2018-09-10T10:59:21Z</time>
      </trkpt>
      <trkpt lat="46.670708" lon="12.476336">
        <ele>2317.496</ele>
        <time>2018-09-10T10:59:22Z</time>
      </trkpt>
      <trkpt lat="46.670753" lon="12.476331">
        <ele>2318.331</ele>
        <time>2018-09-10T10:59:26Z</time>
      </trkpt>
      <trkpt lat="46.670946" lon="12.476325">
        <ele>2319.824</ele>
        <time>2018-09-10T10:59:43Z</time>
      </trkpt>
      <trkpt lat="46.670954" lon="12.476313">
        <ele>2319.808</ele>
        <time>2018-09-10T10:59:44Z</time>
      </trkpt>
      <trkpt lat="46.670962" lon="12.476303">
        <ele>2319.833</ele>
        <time>2018-09-10T10:59:45Z</time>
      </trkpt>
      <trkpt lat="46.670971" lon="12.476294">
        <ele>2319.855</ele>
        <time>2018-09-10T10:59:46Z</time>
      </trkpt>
      <trkpt lat="46.670976" lon="12.476280">
        <ele>2319.863</ele>
        <time>2018-09-10T10:59:47Z</time>
      </trkpt>
      <trkpt lat="46.670981" lon="12.476267">
        <ele>2319.868</ele>
        <time>2018-09-10T10:59:48Z</time>
      </trkpt>
      <trkpt lat="46.670994" lon="12.476240">
        <ele>2320.276</ele>
        <time>2018-09-10T10:59:50Z</time>
      </trkpt>
      <trkpt lat="46.671000" lon="12.476223">
        <ele>2320.276</ele>
        <time>2018-09-10T10:59:51Z</time>
      </trkpt>
      <trkpt lat="46.671005" lon="12.476209">
        <ele>2320.291</ele>
        <time>2018-09-10T10:59:52Z</time>
      </trkpt>
      <trkpt lat="46.671170" lon="12.475982">
        <ele>2321.279</ele>
        <time>2018-09-10T11:00:12Z</time>
      </trkpt>
      <trkpt lat="46.671221" lon="12.475925">
        <ele>2321.737</ele>
        <time>2018-09-10T11:00:18Z</time>
      </trkpt>
      <trkpt lat="46.671233" lon="12.475928">
        <ele>2321.749</ele>
        <time>2018-09-10T11:00:19Z</time>
      </trkpt>
      <trkpt lat="46.671245" lon="12.475933">
        <ele>2321.713</ele>
        <time>2018-09-10T11:00:20Z</time>
      </trkpt>
      <trkpt lat="46.671256" lon="12.475936">
        <ele>2321.208</ele>
        <time>2018-09-10T11:00:21Z</time>
      </trkpt>
      <trkpt lat="46.671270" lon="12.475941">
        <ele>2321.287</ele>
        <time>2018-09-10T11:00:22Z</time>
      </trkpt>
      <trkpt lat="46.671284" lon="12.475948">
        <ele>2321.289</ele>
        <time>2018-09-10T11:00:23Z</time>
      </trkpt>
      <trkpt lat="46.671448" lon="12.476189">
        <ele>2322.267</ele>
        <time>2018-09-10T11:00:39Z</time>
      </trkpt>
      <trkpt lat="46.671470" lon="12.476207">
        <ele>2322.232</ele>
        <time>2018-09-10T11:00:41Z</time>
      </trkpt>
      <trkpt lat="46.671480" lon="12.476208">
        <ele>2322.220</ele>
        <time>2018-09-10T11:00:42Z</time>
      </trkpt>
      <trkpt lat="46.671492" lon="12.476210">
        <ele>2322.280</ele>
        <time>2018-09-10T11:00:43Z</time>
      </trkpt>
      <trkpt lat="46.671504" lon="12.476208">
        <ele>2322.665</ele>
        <time>2018-09-10T11:00:44Z</time>
      </trkpt>
      <trkpt lat="46.671523" lon="12.476200">
        <ele>2323.173</ele>
        <time>2018-09-10T11:00:58Z</time>
      </trkpt>
      <trkpt lat="46.671531" lon="12.476176">
        <ele>2323.183</ele>
        <time>2018-09-10T11:01:17Z</time>
      </trkpt>
      <trkpt lat="46.671586" lon="12.476137">
        <ele>2323.625</ele>
        <time>2018-09-10T11:01:24Z</time>
      </trkpt>
      <trkpt lat="46.671710" lon="12.476063">
        <ele>2325.517</ele>
        <time>2018-09-10T11:01:40Z</time>
      </trkpt>
      <trkpt lat="46.671743" lon="12.475980">
        <ele>2327.008</ele>
        <time>2018-09-10T11:01:52Z</time>
      </trkpt>
      <trkpt lat="46.671774" lon="12.475864">
        <ele>2327.092</ele>
        <time>2018-09-10T11:02:01Z</time>
      </trkpt>
      <trkpt lat="46.671779" lon="12.475845">
        <ele>2327.084</ele>
        <time>2018-09-10T11:02:02Z</time>
      </trkpt>
      <trkpt lat="46.671799" lon="12.475751">
        <ele>2325.522</ele>
        <time>2018-09-10T11:02:18Z</time>
      </trkpt>
      <trkpt lat="46.671798" lon="12.475754">
        <ele>2325.557</ele>
        <time>2018-09-10T11:02:31Z</time>
      </trkpt>
      <trkpt lat="46.671799" lon="12.475755">
        <ele>2326.095</ele>
        <time>2018-09-10T11:03:08Z</time>
      </trkpt>
      <trkpt lat="46.671796" lon="12.475755">
        <ele>2326.585</ele>
        <time>2018-09-10T11:03:34Z</time>
      </trkpt>
      <trkpt lat="46.671797" lon="12.475754">
        <ele>2327.460</ele>
        <time>2018-09-10T11:04:08Z</time>
      </trkpt>
      <trkpt lat="46.671794" lon="12.475753">
        <ele>2327.088</ele>
        <time>2018-09-10T11:04:41Z</time>
      </trkpt>
      <trkpt lat="46.671794" lon="12.475756">
        <ele>2327.092</ele>
        <time>2018-09-10T11:05:11Z</time>
      </trkpt>
      <trkpt lat="46.671794" lon="12.475762">
        <ele>2326.073</ele>
        <time>2018-09-10T11:05:41Z</time>
      </trkpt>
      <trkpt lat="46.671811" lon="12.475739">
        <ele>2325.020</ele>
        <time>2018-09-10T11:05:44Z</time>
      </trkpt>
      <trkpt lat="46.671822" lon="12.475716">
        <ele>2325.008</ele>
        <time>2018-09-10T11:05:45Z</time>
      </trkpt>
      <trkpt lat="46.671834" lon="12.475693">
        <ele>2324.663</ele>
        <time>2018-09-10T11:05:46Z</time>
      </trkpt>
      <trkpt lat="46.671849" lon="12.475663">
        <ele>2324.625</ele>
        <time>2018-09-10T11:05:47Z</time>
      </trkpt>
      <trkpt lat="46.671866" lon="12.475632">
        <ele>2324.163</ele>
        <time>2018-09-10T11:05:48Z</time>
      </trkpt>
      <trkpt lat="46.671884" lon="12.475601">
        <ele>2323.638</ele>
        <time>2018-09-10T11:05:49Z</time>
      </trkpt>
      <trkpt lat="46.671904" lon="12.475566">
        <ele>2323.186</ele>
        <time>2018-09-10T11:05:50Z</time>
      </trkpt>
      <trkpt lat="46.672231" lon="12.475117">
        <ele>2315.416</ele>
        <time>2018-09-10T11:06:04Z</time>
      </trkpt>
      <trkpt lat="46.672494" lon="12.474933">
        <ele>2309.271</ele>
        <time>2018-09-10T11:06:15Z</time>
      </trkpt>
      <trkpt lat="46.672814" lon="12.474650">
        <ele>2302.949</ele>
        <time>2018-09-10T11:06:27Z</time>
      </trkpt>
      <trkpt lat="46.673032" lon="12.474485">
        <ele>2298.198</ele>
        <time>2018-09-10T11:06:37Z</time>
      </trkpt>
      <trkpt lat="46.673331" lon="12.474233">
        <ele>2291.915</ele>
        <time>2018-09-10T11:06:51Z</time>
      </trkpt>
      <trkpt lat="46.673533" lon="12.473954">
        <ele>2286.626</ele>
        <time>2018-09-10T11:07:03Z</time>
      </trkpt>
      <trkpt lat="46.673618" lon="12.473862">
        <ele>2285.108</ele>
        <time>2018-09-10T11:07:07Z</time>
      </trkpt>
      <trkpt lat="46.673629" lon="12.473835">
        <ele>2284.223</ele>
        <time>2018-09-10T11:07:08Z</time>
      </trkpt>
      <trkpt lat="46.673658" lon="12.473614">
        <ele>2281.855</ele>
        <time>2018-09-10T11:07:18Z</time>
      </trkpt>
      <trkpt lat="46.673674" lon="12.473509">
        <ele>2281.853</ele>
        <time>2018-09-10T11:07:31Z</time>
      </trkpt>
      <trkpt lat="46.673804" lon="12.473311">
        <ele>2278.488</ele>
        <time>2018-09-10T11:07:51Z</time>
      </trkpt>
      <trkpt lat="46.674135" lon="12.472880">
        <ele>2268.826</ele>
        <time>2018-09-10T11:08:04Z</time>
      </trkpt>
      <trkpt lat="46.674463" lon="12.472550">
        <ele>2261.116</ele>
        <time>2018-09-10T11:08:17Z</time>
      </trkpt>
      <trkpt lat="46.674604" lon="12.472189">
        <ele>2255.351</ele>
        <time>2018-09-10T11:08:28Z</time>
      </trkpt>
      <trkpt lat="46.674765" lon="12.471856">
        <ele>2249.689</ele>
        <time>2018-09-10T11:08:41Z</time>
      </trkpt>
      <trkpt lat="46.675087" lon="12.471695">
        <ele>2245.361</ele>
        <time>2018-09-10T11:08:55Z</time>
      </trkpt>
      <trkpt lat="46.675293" lon="12.471470">
        <ele>2240.421</ele>
        <time>2018-09-10T11:09:06Z</time>
      </trkpt>
      <trkpt lat="46.675433" lon="12.471293">
        <ele>2238.513</ele>
        <time>2018-09-10T11:09:12Z</time>
      </trkpt>
      <trkpt lat="46.675463" lon="12.471247">
        <ele>2238.008</ele>
        <time>2018-09-10T11:09:13Z</time>
      </trkpt>
      <trkpt lat="46.675745" lon="12.470851">
        <ele>2237.620</ele>
        <time>2018-09-10T11:09:25Z</time>
      </trkpt>
      <trkpt lat="46.676031" lon="12.470673">
        <ele>2235.692</ele>
        <time>2018-09-10T11:09:36Z</time>
      </trkpt>
      <trkpt lat="46.676050" lon="12.470650">
        <ele>2235.680</ele>
        <time>2018-09-10T11:09:37Z</time>
      </trkpt>
      <trkpt lat="46.676315" lon="12.470453">
        <ele>2232.885</ele>
        <time>2018-09-10T11:09:48Z</time>
      </trkpt>
      <trkpt lat="46.676618" lon="12.470217">
        <ele>2228.963</ele>
        <time>2018-09-10T11:10:01Z</time>
      </trkpt>
      <trkpt lat="46.676821" lon="12.469815">
        <ele>2225.123</ele>
        <time>2018-09-10T11:10:15Z</time>
      </trkpt>
      <trkpt lat="46.677060" lon="12.469685">
        <ele>2220.778</ele>
        <time>2018-09-10T11:10:26Z</time>
      </trkpt>
      <trkpt lat="46.677365" lon="12.469546">
        <ele>2215.566</ele>
        <time>2018-09-10T11:10:41Z</time>
      </trkpt>
      <trkpt lat="46.677691" lon="12.469594">
        <ele>2211.121</ele>
        <time>2018-09-10T11:10:55Z</time>
      </trkpt>
      <trkpt lat="46.677824" lon="12.469597">
        <ele>2208.241</ele>
        <time>2018-09-10T11:11:01Z</time>
      </trkpt>
      <trkpt lat="46.678058" lon="12.469509">
        <ele>2203.405</ele>
        <time>2018-09-10T11:11:12Z</time>
      </trkpt>
      <trkpt lat="46.678079" lon="12.469521">
        <ele>2203.408</ele>
        <time>2018-09-10T11:11:13Z</time>
      </trkpt>
      <trkpt lat="46.678102" lon="12.469529">
        <ele>2203.066</ele>
        <time>2018-09-10T11:11:14Z</time>
      </trkpt>
      <trkpt lat="46.678216" lon="12.469491">
        <ele>2200.548</ele>
        <time>2018-09-10T11:11:19Z</time>
      </trkpt>
      <trkpt lat="46.678228" lon="12.469464">
        <ele>2200.156</ele>
        <time>2018-09-10T11:11:20Z</time>
      </trkpt>
      <trkpt lat="46.678236" lon="12.469435">
        <ele>2199.651</ele>
        <time>2018-09-10T11:11:21Z</time>
      </trkpt>
      <trkpt lat="46.678241" lon="12.469401">
        <ele>2199.199</ele>
        <time>2018-09-10T11:11:22Z</time>
      </trkpt>
      <trkpt lat="46.678237" lon="12.469368">
        <ele>2199.189</ele>
        <time>2018-09-10T11:11:23Z</time>
      </trkpt>
      <trkpt lat="46.678230" lon="12.469337">
        <ele>2198.674</ele>
        <time>2018-09-10T11:11:24Z</time>
      </trkpt>
      <trkpt lat="46.678218" lon="12.469308">
        <ele>2198.132</ele>
        <time>2018-09-10T11:11:25Z</time>
      </trkpt>
      <trkpt lat="46.678201" lon="12.469284">
        <ele>2198.199</ele>
        <time>2018-09-10T11:11:26Z</time>
      </trkpt>
      <trkpt lat="46.678188" lon="12.469261">
        <ele>2198.107</ele>
        <time>2018-09-10T11:11:27Z</time>
      </trkpt>
      <trkpt lat="46.678174" lon="12.469237">
        <ele>2198.127</ele>
        <time>2018-09-10T11:11:28Z</time>
      </trkpt>
      <trkpt lat="46.678153" lon="12.469210">
        <ele>2197.708</ele>
        <time>2018-09-10T11:11:29Z</time>
      </trkpt>
      <trkpt lat="46.677956" lon="12.468931">
        <ele>2193.883</ele>
        <time>2018-09-10T11:11:41Z</time>
      </trkpt>
      <trkpt lat="46.677766" lon="12.468644">
        <ele>2189.535</ele>
        <time>2018-09-10T11:11:53Z</time>
      </trkpt>
      <trkpt lat="46.677582" lon="12.468485">
        <ele>2184.733</ele>
        <time>2018-09-10T11:12:05Z</time>
      </trkpt>
      <trkpt lat="46.677353" lon="12.468200">
        <ele>2179.948</ele>
        <time>2018-09-10T11:12:18Z</time>
      </trkpt>
      <trkpt lat="46.677261" lon="12.467835">
        <ele>2176.036</ele>
        <time>2018-09-10T11:12:30Z</time>
      </trkpt>
      <trkpt lat="46.677176" lon="12.467707">
        <ele>2174.166</ele>
        <time>2018-09-10T11:12:35Z</time>
      </trkpt>
      <trkpt lat="46.677150" lon="12.467705">
        <ele>2173.671</ele>
        <time>2018-09-10T11:12:36Z</time>
      </trkpt>
      <trkpt lat="46.677131" lon="12.467690">
        <ele>2173.299</ele>
        <time>2018-09-10T11:12:37Z</time>
      </trkpt>
      <trkpt lat="46.677124" lon="12.467671">
        <ele>2172.771</ele>
        <time>2018-09-10T11:12:38Z</time>
      </trkpt>
      <trkpt lat="46.677126" lon="12.467653">
        <ele>2172.241</ele>
        <time>2018-09-10T11:12:39Z</time>
      </trkpt>
      <trkpt lat="46.677137" lon="12.467637">
        <ele>2171.715</ele>
        <time>2018-09-10T11:12:40Z</time>
      </trkpt>
      <trkpt lat="46.677152" lon="12.467625">
        <ele>2171.208</ele>
        <time>2018-09-10T11:12:41Z</time>
      </trkpt>
      <trkpt lat="46.677175" lon="12.467620">
        <ele>2171.251</ele>
        <time>2018-09-10T11:12:42Z</time>
      </trkpt>
      <trkpt lat="46.677197" lon="12.467622">
        <ele>2170.773</ele>
        <time>2018-09-10T11:12:43Z</time>
      </trkpt>
      <trkpt lat="46.677221" lon="12.467629">
        <ele>2170.341</ele>
        <time>2018-09-10T11:12:44Z</time>
      </trkpt>
      <trkpt lat="46.677242" lon="12.467641">
        <ele>2170.396</ele>
        <time>2018-09-10T11:12:45Z</time>
      </trkpt>
      <trkpt lat="46.677262" lon="12.467653">
        <ele>2169.854</ele>
        <time>2018-09-10T11:12:46Z</time>
      </trkpt>
      <trkpt lat="46.677283" lon="12.467663">
        <ele>2169.874</ele>
        <time>2018-09-10T11:12:47Z</time>
      </trkpt>
      <trkpt lat="46.677307" lon="12.467675">
        <ele>2169.329</ele>
        <time>2018-09-10T11:12:48Z</time>
      </trkpt>
      <trkpt lat="46.677521" lon="12.467822">
        <ele>2166.977</ele>
        <time>2018-09-10T11:12:57Z</time>
      </trkpt>
      <trkpt lat="46.677543" lon="12.467817">
        <ele>2166.437</ele>
        <time>2018-09-10T11:12:58Z</time>
      </trkpt>
      <trkpt lat="46.677567" lon="12.467814">
        <ele>2166.449</ele>
        <time>2018-09-10T11:12:59Z</time>
      </trkpt>
      <trkpt lat="46.677589" lon="12.467811">
        <ele>2165.913</ele>
        <time>2018-09-10T11:13:00Z</time>
      </trkpt>
      <trkpt lat="46.677611" lon="12.467810">
        <ele>2165.908</ele>
        <time>2018-09-10T11:13:01Z</time>
      </trkpt>
      <trkpt lat="46.677634" lon="12.467812">
        <ele>2165.537</ele>
        <time>2018-09-10T11:13:02Z</time>
      </trkpt>
      <trkpt lat="46.677654" lon="12.467813">
        <ele>2165.599</ele>
        <time>2018-09-10T11:13:03Z</time>
      </trkpt>
      <trkpt lat="46.677675" lon="12.467810">
        <ele>2165.097</ele>
        <time>2018-09-10T11:13:04Z</time>
      </trkpt>
      <trkpt lat="46.677890" lon="12.467590">
        <ele>2162.142</ele>
        <time>2018-09-10T11:13:16Z</time>
      </trkpt>
      <trkpt lat="46.678094" lon="12.467390">
        <ele>2157.350</ele>
        <time>2018-09-10T11:13:28Z</time>
      </trkpt>
      <trkpt lat="46.678207" lon="12.467314">
        <ele>2155.410</ele>
        <time>2018-09-10T11:13:35Z</time>
      </trkpt>
      <trkpt lat="46.678201" lon="12.467290">
        <ele>2154.935</ele>
        <time>2018-09-10T11:13:36Z</time>
      </trkpt>
      <trkpt lat="46.678187" lon="12.467275">
        <ele>2154.933</ele>
        <time>2018-09-10T11:13:37Z</time>
      </trkpt>
      <trkpt lat="46.678167" lon="12.467267">
        <ele>2154.449</ele>
        <time>2018-09-10T11:13:38Z</time>
      </trkpt>
      <trkpt lat="46.678146" lon="12.467257">
        <ele>2153.902</ele>
        <time>2018-09-10T11:13:39Z</time>
      </trkpt>
      <trkpt lat="46.677914" lon="12.467207">
        <ele>2149.622</ele>
        <time>2018-09-10T11:13:51Z</time>
      </trkpt>
      <trkpt lat="46.677879" lon="12.467225">
        <ele>2148.608</ele>
        <time>2018-09-10T11:13:53Z</time>
      </trkpt>
      <trkpt lat="46.677864" lon="12.467220">
        <ele>2148.228</ele>
        <time>2018-09-10T11:13:54Z</time>
      </trkpt>
      <trkpt lat="46.677840" lon="12.467187">
        <ele>2147.780</ele>
        <time>2018-09-10T11:13:56Z</time>
      </trkpt>
      <trkpt lat="46.677839" lon="12.467169">
        <ele>2147.238</ele>
        <time>2018-09-10T11:13:57Z</time>
      </trkpt>
      <trkpt lat="46.677843" lon="12.467159">
        <ele>2147.233</ele>
        <time>2018-09-10T11:13:58Z</time>
      </trkpt>
      <trkpt lat="46.678024" lon="12.467068">
        <ele>2142.911</ele>
        <time>2018-09-10T11:14:10Z</time>
      </trkpt>
      <trkpt lat="46.678279" lon="12.467012">
        <ele>2140.571</ele>
        <time>2018-09-10T11:14:22Z</time>
      </trkpt>
      <trkpt lat="46.678604" lon="12.467075">
        <ele>2136.626</ele>
        <time>2018-09-10T11:14:34Z</time>
      </trkpt>
      <trkpt lat="46.678892" lon="12.467276">
        <ele>2132.874</ele>
        <time>2018-09-10T11:14:46Z</time>
      </trkpt>
      <trkpt lat="46.678910" lon="12.467275">
        <ele>2132.355</ele>
        <time>2018-09-10T11:14:47Z</time>
      </trkpt>
      <trkpt lat="46.678924" lon="12.467259">
        <ele>2131.807</ele>
        <time>2018-09-10T11:14:48Z</time>
      </trkpt>
      <trkpt lat="46.678928" lon="12.467234">
        <ele>2130.917</ele>
        <time>2018-09-10T11:14:49Z</time>
      </trkpt>
      <trkpt lat="46.678924" lon="12.467211">
        <ele>2130.408</ele>
        <time>2018-09-10T11:14:50Z</time>
      </trkpt>
      <trkpt lat="46.678915" lon="12.467187">
        <ele>2129.989</ele>
        <time>2018-09-10T11:14:51Z</time>
      </trkpt>
      <trkpt lat="46.678722" lon="12.466890">
        <ele>2124.621</ele>
        <time>2018-09-10T11:15:02Z</time>
      </trkpt>
      <trkpt lat="46.678379" lon="12.466552">
        <ele>2117.939</ele>
        <time>2018-09-10T11:15:17Z</time>
      </trkpt>
      <trkpt lat="46.678095" lon="12.466356">
        <ele>2113.164</ele>
        <time>2018-09-10T11:15:29Z</time>
      </trkpt>
      <trkpt lat="46.678002" lon="12.466372">
        <ele>2111.662</ele>
        <time>2018-09-10T11:15:33Z</time>
      </trkpt>
      <trkpt lat="46.677989" lon="12.466352">
        <ele>2111.612</ele>
        <time>2018-09-10T11:15:34Z</time>
      </trkpt>
      <trkpt lat="46.677987" lon="12.466329">
        <ele>2111.197</ele>
        <time>2018-09-10T11:15:35Z</time>
      </trkpt>
      <trkpt lat="46.677994" lon="12.466305">
        <ele>2110.725</ele>
        <time>2018-09-10T11:15:36Z</time>
      </trkpt>
      <trkpt lat="46.678006" lon="12.466296">
        <ele>2110.214</ele>
        <time>2018-09-10T11:15:37Z</time>
      </trkpt>
      <trkpt lat="46.678023" lon="12.466292">
        <ele>2109.754</ele>
        <time>2018-09-10T11:15:38Z</time>
      </trkpt>
      <trkpt lat="46.678044" lon="12.466289">
        <ele>2109.709</ele>
        <time>2018-09-10T11:15:39Z</time>
      </trkpt>
      <trkpt lat="46.678066" lon="12.466288">
        <ele>2109.708</ele>
        <time>2018-09-10T11:15:40Z</time>
      </trkpt>
      <trkpt lat="46.678092" lon="12.466284">
        <ele>2109.265</ele>
        <time>2018-09-10T11:15:41Z</time>
      </trkpt>
      <trkpt lat="46.678118" lon="12.466280">
        <ele>2108.787</ele>
        <time>2018-09-10T11:15:42Z</time>
      </trkpt>
      <trkpt lat="46.678140" lon="12.466279">
        <ele>2108.755</ele>
        <time>2018-09-10T11:15:43Z</time>
      </trkpt>
      <trkpt lat="46.678163" lon="12.466278">
        <ele>2108.320</ele>
        <time>2018-09-10T11:15:44Z</time>
      </trkpt>
      <trkpt lat="46.678185" lon="12.466277">
        <ele>2108.348</ele>
        <time>2018-09-10T11:15:45Z</time>
      </trkpt>
      <trkpt lat="46.678208" lon="12.466276">
        <ele>2108.378</ele>
        <time>2018-09-10T11:15:46Z</time>
      </trkpt>
      <trkpt lat="46.678229" lon="12.466272">
        <ele>2108.323</ele>
        <time>2018-09-10T11:15:47Z</time>
      </trkpt>
      <trkpt lat="46.678599" lon="12.466331">
        <ele>2104.961</ele>
        <time>2018-09-10T11:16:01Z</time>
      </trkpt>
      <trkpt lat="46.678643" lon="12.466348">
        <ele>2104.489</ele>
        <time>2018-09-10T11:16:03Z</time>
      </trkpt>
      <trkpt lat="46.678659" lon="12.466332">
        <ele>2104.406</ele>
        <time>2018-09-10T11:16:04Z</time>
      </trkpt>
      <trkpt lat="46.678663" lon="12.466306">
        <ele>2103.526</ele>
        <time>2018-09-10T11:16:05Z</time>
      </trkpt>
      <trkpt lat="46.678659" lon="12.466275">
        <ele>2103.008</ele>
        <time>2018-09-10T11:16:06Z</time>
      </trkpt>
      <trkpt lat="46.678647" lon="12.466246">
        <ele>2102.522</ele>
        <time>2018-09-10T11:16:07Z</time>
      </trkpt>
      <trkpt lat="46.678631" lon="12.466222">
        <ele>2102.054</ele>
        <time>2018-09-10T11:16:08Z</time>
      </trkpt>
      <trkpt lat="46.678613" lon="12.466199">
        <ele>2101.552</ele>
        <time>2018-09-10T11:16:09Z</time>
      </trkpt>
      <trkpt lat="46.678343" lon="12.466039">
        <ele>2096.797</ele>
        <time>2018-09-10T11:16:21Z</time>
      </trkpt>
      <trkpt lat="46.678011" lon="12.465831">
        <ele>2091.415</ele>
        <time>2018-09-10T11:16:36Z</time>
      </trkpt>
      <trkpt lat="46.677788" lon="12.465741">
        <ele>2088.135</ele>
        <time>2018-09-10T11:16:46Z</time>
      </trkpt>
      <trkpt lat="46.677743" lon="12.465725">
        <ele>2087.610</ele>
        <time>2018-09-10T11:16:48Z</time>
      </trkpt>
      <trkpt lat="46.677735" lon="12.465699">
        <ele>2087.618</ele>
        <time>2018-09-10T11:16:49Z</time>
      </trkpt>
      <trkpt lat="46.677739" lon="12.465672">
        <ele>2087.144</ele>
        <time>2018-09-10T11:16:50Z</time>
      </trkpt>
      <trkpt lat="46.677754" lon="12.465653">
        <ele>2086.605</ele>
        <time>2018-09-10T11:16:51Z</time>
      </trkpt>
      <trkpt lat="46.677776" lon="12.465644">
        <ele>2086.215</ele>
        <time>2018-09-10T11:16:52Z</time>
      </trkpt>
      <trkpt lat="46.677803" lon="12.465639">
        <ele>2085.708</ele>
        <time>2018-09-10T11:16:53Z</time>
      </trkpt>
      <trkpt lat="46.677831" lon="12.465639">
        <ele>2085.228</ele>
        <time>2018-09-10T11:16:54Z</time>
      </trkpt>
      <trkpt lat="46.677862" lon="12.465639">
        <ele>2084.780</ele>
        <time>2018-09-10T11:16:55Z</time>
      </trkpt>
      <trkpt lat="46.678216" lon="12.465633">
        <ele>2081.858</ele>
        <time>2018-09-10T11:17:08Z</time>
      </trkpt>
      <trkpt lat="46.678522" lon="12.465648">
        <ele>2079.433</ele>
        <time>2018-09-10T11:17:19Z</time>
      </trkpt>
      <trkpt lat="46.678535" lon="12.465623">
        <ele>2078.981</ele>
        <time>2018-09-10T11:17:20Z</time>
      </trkpt>
      <trkpt lat="46.678539" lon="12.465593">
        <ele>2078.911</ele>
        <time>2018-09-10T11:17:21Z</time>
      </trkpt>
      <trkpt lat="46.678533" lon="12.465565">
        <ele>2078.566</ele>
        <time>2018-09-10T11:17:22Z</time>
      </trkpt>
      <trkpt lat="46.678517" lon="12.465544">
        <ele>2078.034</ele>
        <time>2018-09-10T11:17:23Z</time>
      </trkpt>
      <trkpt lat="46.678492" lon="12.465526">
        <ele>2077.566</ele>
        <time>2018-09-10T11:17:24Z</time>
      </trkpt>
      <trkpt lat="46.678160" lon="12.465286">
        <ele>2072.229</ele>
        <time>2018-09-10T11:17:38Z</time>
      </trkpt>
      <trkpt lat="46.677920" lon="12.465156">
        <ele>2067.921</ele>
        <time>2018-09-10T11:17:49Z</time>
      </trkpt>
      <trkpt lat="46.677746" lon="12.465012">
        <ele>2065.508</ele>
        <time>2018-09-10T11:18:01Z</time>
      </trkpt>
      <trkpt lat="46.677503" lon="12.464821">
        <ele>2061.610</ele>
        <time>2018-09-10T11:18:14Z</time>
      </trkpt>
      <trkpt lat="46.677297" lon="12.464691">
        <ele>2057.342</ele>
        <time>2018-09-10T11:18:25Z</time>
      </trkpt>
      <trkpt lat="46.677028" lon="12.464503">
        <ele>2051.110</ele>
        <time>2018-09-10T11:18:39Z</time>
      </trkpt>
      <trkpt lat="46.676740" lon="12.464443">
        <ele>2046.735</ele>
        <time>2018-09-10T11:18:52Z</time>
      </trkpt>
      <trkpt lat="46.676728" lon="12.464420">
        <ele>2046.383</ele>
        <time>2018-09-10T11:18:53Z</time>
      </trkpt>
      <trkpt lat="46.676726" lon="12.464397">
        <ele>2045.873</ele>
        <time>2018-09-10T11:18:54Z</time>
      </trkpt>
      <trkpt lat="46.676733" lon="12.464377">
        <ele>2045.328</ele>
        <time>2018-09-10T11:18:55Z</time>
      </trkpt>
      <trkpt lat="46.676742" lon="12.464359">
        <ele>2045.366</ele>
        <time>2018-09-10T11:18:56Z</time>
      </trkpt>
      <trkpt lat="46.676756" lon="12.464339">
        <ele>2044.881</ele>
        <time>2018-09-10T11:18:57Z</time>
      </trkpt>
      <trkpt lat="46.676773" lon="12.464317">
        <ele>2044.861</ele>
        <time>2018-09-10T11:18:58Z</time>
      </trkpt>
      <trkpt lat="46.676963" lon="12.464029">
        <ele>2041.017</ele>
        <time>2018-09-10T11:19:12Z</time>
      </trkpt>
      <trkpt lat="46.676955" lon="12.464010">
        <ele>2039.008</ele>
        <time>2018-09-10T11:19:34Z</time>
      </trkpt>
      <trkpt lat="46.676953" lon="12.464023">
        <ele>2038.622</ele>
        <time>2018-09-10T11:19:57Z</time>
      </trkpt>
      <trkpt lat="46.676949" lon="12.464013">
        <ele>2037.174</ele>
        <time>2018-09-10T11:20:30Z</time>
      </trkpt>
      <trkpt lat="46.676952" lon="12.463997">
        <ele>2038.192</ele>
        <time>2018-09-10T11:21:07Z</time>
      </trkpt>
      <trkpt lat="46.676976" lon="12.463970">
        <ele>2039.067</ele>
        <time>2018-09-10T11:21:16Z</time>
      </trkpt>
      <trkpt lat="46.676991" lon="12.463956">
        <ele>2038.665</ele>
        <time>2018-09-10T11:21:17Z</time>
      </trkpt>
      <trkpt lat="46.677051" lon="12.463801">
        <ele>2036.255</ele>
        <time>2018-09-10T11:21:23Z</time>
      </trkpt>
      <trkpt lat="46.677043" lon="12.463774">
        <ele>2036.220</ele>
        <time>2018-09-10T11:21:24Z</time>
      </trkpt>
      <trkpt lat="46.677027" lon="12.463754">
        <ele>2036.268</ele>
        <time>2018-09-10T11:21:25Z</time>
      </trkpt>
      <trkpt lat="46.676737" lon="12.463622">
        <ele>2031.879</ele>
        <time>2018-09-10T11:21:37Z</time>
      </trkpt>
      <trkpt lat="46.676477" lon="12.463718">
        <ele>2027.005</ele>
        <time>2018-09-10T11:21:49Z</time>
      </trkpt>
      <trkpt lat="46.676334" lon="12.463901">
        <ele>2024.625</ele>
        <time>2018-09-10T11:21:57Z</time>
      </trkpt>
      <trkpt lat="46.676317" lon="12.463914">
        <ele>2024.608</ele>
        <time>2018-09-10T11:21:58Z</time>
      </trkpt>
      <trkpt lat="46.676303" lon="12.463928">
        <ele>2024.161</ele>
        <time>2018-09-10T11:21:59Z</time>
      </trkpt>
      <trkpt lat="46.676058" lon="12.464132">
        <ele>2019.813</ele>
        <time>2018-09-10T11:22:12Z</time>
      </trkpt>
      <trkpt lat="46.675817" lon="12.464142">
        <ele>2017.491</ele>
        <time>2018-09-10T11:22:23Z</time>
      </trkpt>
      <trkpt lat="46.675776" lon="12.464141">
        <ele>2016.576</ele>
        <time>2018-09-10T11:22:35Z</time>
      </trkpt>
      <trkpt lat="46.675782" lon="12.464141">
        <ele>2017.954</ele>
        <time>2018-09-10T11:22:52Z</time>
      </trkpt>
      <trkpt lat="46.675758" lon="12.464160">
        <ele>2016.984</ele>
        <time>2018-09-10T11:23:01Z</time>
      </trkpt>
      <trkpt lat="46.675744" lon="12.464169">
        <ele>2016.589</ele>
        <time>2018-09-10T11:23:02Z</time>
      </trkpt>
      <trkpt lat="46.675580" lon="12.464223">
        <ele>2015.017</ele>
        <time>2018-09-10T11:23:10Z</time>
      </trkpt>
      <trkpt lat="46.675563" lon="12.464211">
        <ele>2015.021</ele>
        <time>2018-09-10T11:23:11Z</time>
      </trkpt>
      <trkpt lat="46.675558" lon="12.464186">
        <ele>2014.541</ele>
        <time>2018-09-10T11:23:12Z</time>
      </trkpt>
      <trkpt lat="46.675554" lon="12.464161">
        <ele>2014.105</ele>
        <time>2018-09-10T11:23:13Z</time>
      </trkpt>
      <trkpt lat="46.675551" lon="12.464137">
        <ele>2013.608</ele>
        <time>2018-09-10T11:23:14Z</time>
      </trkpt>
      <trkpt lat="46.675554" lon="12.464110">
        <ele>2013.646</ele>
        <time>2018-09-10T11:23:15Z</time>
      </trkpt>
      <trkpt lat="46.675564" lon="12.464085">
        <ele>2013.168</ele>
        <time>2018-09-10T11:23:16Z</time>
      </trkpt>
      <trkpt lat="46.675581" lon="12.464062">
        <ele>2012.646</ele>
        <time>2018-09-10T11:23:17Z</time>
      </trkpt>
      <trkpt lat="46.675724" lon="12.463571">
        <ele>2007.821</ele>
        <time>2018-09-10T11:23:29Z</time>
      </trkpt>
      <trkpt lat="46.675726" lon="12.463509">
        <ele>2007.869</ele>
        <time>2018-09-10T11:23:30Z</time>
      </trkpt>
      <trkpt lat="46.675753" lon="12.463175">
        <ele>2005.449</ele>
        <time>2018-09-10T11:23:37Z</time>
      </trkpt>
      <trkpt lat="46.675781" lon="12.463154">
        <ele>2004.974</ele>
        <time>2018-09-10T11:23:38Z</time>
      </trkpt>
      <trkpt lat="46.675809" lon="12.463138">
        <ele>2004.432</ele>
        <time>2018-09-10T11:23:39Z</time>
      </trkpt>
      <trkpt lat="46.675839" lon="12.463129">
        <ele>2004.456</ele>
        <time>2018-09-10T11:23:40Z</time>
      </trkpt>
      <trkpt lat="46.675870" lon="12.463124">
        <ele>2004.059</ele>
        <time>2018-09-10T11:23:41Z</time>
      </trkpt>
      <trkpt lat="46.676082" lon="12.462853">
        <ele>2002.014</ele>
        <time>2018-09-10T11:23:50Z</time>
      </trkpt>
      <trkpt lat="46.676160" lon="12.462469">
        <ele>2002.508</ele>
        <time>2018-09-10T11:24:03Z</time>
      </trkpt>
      <trkpt lat="46.676146" lon="12.462315">
        <ele>2002.079</ele>
        <time>2018-09-10T11:24:06Z</time>
      </trkpt>
      <trkpt lat="46.676137" lon="12.462249">
        <ele>2001.651</ele>
        <time>2018-09-10T11:24:07Z</time>
      </trkpt>
      <trkpt lat="46.676117" lon="12.462111">
        <ele>2001.699</ele>
        <time>2018-09-10T11:24:09Z</time>
      </trkpt>
      <trkpt lat="46.676101" lon="12.462050">
        <ele>2001.674</ele>
        <time>2018-09-10T11:24:10Z</time>
      </trkpt>
      <trkpt lat="46.675971" lon="12.461609">
        <ele>2000.642</ele>
        <time>2018-09-10T11:24:21Z</time>
      </trkpt>
      <trkpt lat="46.675886" lon="12.461052">
        <ele>1996.332</ele>
        <time>2018-09-10T11:24:32Z</time>
      </trkpt>
      <trkpt lat="46.675771" lon="12.460724">
        <ele>1994.367</ele>
        <time>2018-09-10T11:24:39Z</time>
      </trkpt>
      <trkpt lat="46.675757" lon="12.460668">
        <ele>1994.395</ele>
        <time>2018-09-10T11:24:40Z</time>
      </trkpt>
      <trkpt lat="46.675747" lon="12.460610">
        <ele>1993.969</ele>
        <time>2018-09-10T11:24:41Z</time>
      </trkpt>
      <trkpt lat="46.675734" lon="12.460552">
        <ele>1993.404</ele>
        <time>2018-09-10T11:24:42Z</time>
      </trkpt>
      <trkpt lat="46.675719" lon="12.460497">
        <ele>1993.424</ele>
        <time>2018-09-10T11:24:43Z</time>
      </trkpt>
      <trkpt lat="46.675697" lon="12.460443">
        <ele>1992.908</ele>
        <time>2018-09-10T11:24:44Z</time>
      </trkpt>
      <trkpt lat="46.675671" lon="12.460390">
        <ele>1992.940</ele>
        <time>2018-09-10T11:24:45Z</time>
      </trkpt>
      <trkpt lat="46.675640" lon="12.460339">
        <ele>1992.962</ele>
        <time>2018-09-10T11:24:46Z</time>
      </trkpt>
      <trkpt lat="46.675609" lon="12.460289">
        <ele>1992.480</ele>
        <time>2018-09-10T11:24:47Z</time>
      </trkpt>
      <trkpt lat="46.675578" lon="12.460240">
        <ele>1992.475</ele>
        <time>2018-09-10T11:24:48Z</time>
      </trkpt>
      <trkpt lat="46.675552" lon="12.460191">
        <ele>1992.423</ele>
        <time>2018-09-10T11:24:49Z</time>
      </trkpt>
      <trkpt lat="46.675347" lon="12.459508">
        <ele>1987.613</ele>
        <time>2018-09-10T11:25:02Z</time>
      </trkpt>
      <trkpt lat="46.675222" lon="12.458815">
        <ele>1983.358</ele>
        <time>2018-09-10T11:25:14Z</time>
      </trkpt>
      <trkpt lat="46.675219" lon="12.458634">
        <ele>1982.396</ele>
        <time>2018-09-10T11:25:17Z</time>
      </trkpt>
      <trkpt lat="46.675209" lon="12.458571">
        <ele>1982.347</ele>
        <time>2018-09-10T11:25:18Z</time>
      </trkpt>
      <trkpt lat="46.675194" lon="12.458513">
        <ele>1981.929</ele>
        <time>2018-09-10T11:25:19Z</time>
      </trkpt>
      <trkpt lat="46.675174" lon="12.458459">
        <ele>1981.921</ele>
        <time>2018-09-10T11:25:20Z</time>
      </trkpt>
      <trkpt lat="46.675151" lon="12.458411">
        <ele>1981.408</ele>
        <time>2018-09-10T11:25:21Z</time>
      </trkpt>
      <trkpt lat="46.675131" lon="12.458362">
        <ele>1981.468</ele>
        <time>2018-09-10T11:25:22Z</time>
      </trkpt>
      <trkpt lat="46.675116" lon="12.458310">
        <ele>1980.970</ele>
        <time>2018-09-10T11:25:23Z</time>
      </trkpt>
      <trkpt lat="46.675103" lon="12.458255">
        <ele>1980.928</ele>
        <time>2018-09-10T11:25:24Z</time>
      </trkpt>
      <trkpt lat="46.675088" lon="12.458201">
        <ele>1980.443</ele>
        <time>2018-09-10T11:25:25Z</time>
      </trkpt>
      <trkpt lat="46.675069" lon="12.458154">
        <ele>1979.911</ele>
        <time>2018-09-10T11:25:26Z</time>
      </trkpt>
      <trkpt lat="46.675047" lon="12.458115">
        <ele>1979.911</ele>
        <time>2018-09-10T11:25:27Z</time>
      </trkpt>
      <trkpt lat="46.675022" lon="12.458084">
        <ele>1979.436</ele>
        <time>2018-09-10T11:25:28Z</time>
      </trkpt>
      <trkpt lat="46.674997" lon="12.458051">
        <ele>1979.054</ele>
        <time>2018-09-10T11:25:29Z</time>
      </trkpt>
      <trkpt lat="46.674970" lon="12.458010">
        <ele>1979.079</ele>
        <time>2018-09-10T11:25:30Z</time>
      </trkpt>
      <trkpt lat="46.674786" lon="12.457440">
        <ele>1976.105</ele>
        <time>2018-09-10T11:25:41Z</time>
      </trkpt>
      <trkpt lat="46.674725" lon="12.456878">
        <ele>1975.625</ele>
        <time>2018-09-10T11:25:54Z</time>
      </trkpt>
      <trkpt lat="46.674715" lon="12.456159">
        <ele>1974.608</ele>
        <time>2018-09-10T11:26:08Z</time>
      </trkpt>
      <trkpt lat="46.674644" lon="12.455611">
        <ele>1973.251</ele>
        <time>2018-09-10T11:26:20Z</time>
      </trkpt>
      <trkpt lat="46.674546" lon="12.455095">
        <ele>1972.263</ele>
        <time>2018-09-10T11:26:33Z</time>
      </trkpt>
      <trkpt lat="46.674483" lon="12.454884">
        <ele>1970.351</ele>
        <time>2018-09-10T11:26:38Z</time>
      </trkpt>
      <trkpt lat="46.674460" lon="12.454830">
        <ele>1969.876</ele>
        <time>2018-09-10T11:26:39Z</time>
      </trkpt>
      <trkpt lat="46.674441" lon="12.454768">
        <ele>1969.434</ele>
        <time>2018-09-10T11:26:40Z</time>
      </trkpt>
      <trkpt lat="46.674340" lon="12.454384">
        <ele>1966.974</ele>
        <time>2018-09-10T11:26:46Z</time>
      </trkpt>
      <trkpt lat="46.674328" lon="12.454323">
        <ele>1966.989</ele>
        <time>2018-09-10T11:26:47Z</time>
      </trkpt>
      <trkpt lat="46.674320" lon="12.454258">
        <ele>1966.557</ele>
        <time>2018-09-10T11:26:48Z</time>
      </trkpt>
      <trkpt lat="46.674317" lon="12.454192">
        <ele>1966.077</ele>
        <time>2018-09-10T11:26:49Z</time>
      </trkpt>
      <trkpt lat="46.674316" lon="12.454126">
        <ele>1965.561</ele>
        <time>2018-09-10T11:26:50Z</time>
      </trkpt>
      <trkpt lat="46.674245" lon="12.453395">
        <ele>1961.227</ele>
        <time>2018-09-10T11:27:03Z</time>
      </trkpt>
      <trkpt lat="46.674197" lon="12.453000">
        <ele>1959.708</ele>
        <time>2018-09-10T11:27:09Z</time>
      </trkpt>
      <trkpt lat="46.674115" lon="12.452120">
        <ele>1954.941</ele>
        <time>2018-09-10T11:27:22Z</time>
      </trkpt>
      <trkpt lat="46.674106" lon="12.452048">
        <ele>1954.553</ele>
        <time>2018-09-10T11:27:23Z</time>
      </trkpt>
      <trkpt lat="46.673957" lon="12.451325">
        <ele>1949.671</ele>
        <time>2018-09-10T11:27:35Z</time>
      </trkpt>
      <trkpt lat="46.673953" lon="12.451195">
        <ele>1947.796</ele>
        <time>2018-09-10T11:27:37Z</time>
      </trkpt>
      <trkpt lat="46.673957" lon="12.451126">
        <ele>1947.234</ele>
        <time>2018-09-10T11:27:38Z</time>
      </trkpt>
      <trkpt lat="46.674032" lon="12.450592">
        <ele>1943.474</ele>
        <time>2018-09-10T11:27:48Z</time>
      </trkpt>
      <trkpt lat="46.674027" lon="12.450465">
        <ele>1942.479</ele>
        <time>2018-09-10T11:27:50Z</time>
      </trkpt>
      <trkpt lat="46.674017" lon="12.450404">
        <ele>1942.037</ele>
        <time>2018-09-10T11:27:51Z</time>
      </trkpt>
      <trkpt lat="46.673768" lon="12.449454">
        <ele>1939.197</ele>
        <time>2018-09-10T11:28:06Z</time>
      </trkpt>
      <trkpt lat="46.673665" lon="12.448864">
        <ele>1937.623</ele>
        <time>2018-09-10T11:28:14Z</time>
      </trkpt>
      <trkpt lat="46.673653" lon="12.448711">
        <ele>1937.625</ele>
        <time>2018-09-10T11:28:16Z</time>
      </trkpt>
      <trkpt lat="46.673642" lon="12.448645">
        <ele>1937.608</ele>
        <time>2018-09-10T11:28:17Z</time>
      </trkpt>
      <trkpt lat="46.673630" lon="12.448580">
        <ele>1937.673</ele>
        <time>2018-09-10T11:28:18Z</time>
      </trkpt>
      <trkpt lat="46.673531" lon="12.448093">
        <ele>1939.155</ele>
        <time>2018-09-10T11:28:30Z</time>
      </trkpt>
      <trkpt lat="46.673246" lon="12.447816">
        <ele>1939.693</ele>
        <time>2018-09-10T11:28:43Z</time>
      </trkpt>
      <trkpt lat="46.673056" lon="12.447486">
        <ele>1940.528</ele>
        <time>2018-09-10T11:28:58Z</time>
      </trkpt>
      <trkpt lat="46.672854" lon="12.447102">
        <ele>1939.186</ele>
        <time>2018-09-10T11:29:12Z</time>
      </trkpt>
      <trkpt lat="46.672819" lon="12.446473">
        <ele>1935.236</ele>
        <time>2018-09-10T11:29:26Z</time>
      </trkpt>
      <trkpt lat="46.672795" lon="12.445897">
        <ele>1929.571</ele>
        <time>2018-09-10T11:29:38Z</time>
      </trkpt>
      <trkpt lat="46.672810" lon="12.445866">
        <ele>1929.069</ele>
        <time>2018-09-10T11:29:39Z</time>
      </trkpt>
      <trkpt lat="46.673088" lon="12.445787">
        <ele>1925.665</ele>
        <time>2018-09-10T11:29:50Z</time>
      </trkpt>
      <trkpt lat="46.673286" lon="12.445732">
        <ele>1926.668</ele>
        <time>2018-09-10T11:29:59Z</time>
      </trkpt>
      <trkpt lat="46.673297" lon="12.445702">
        <ele>1926.614</ele>
        <time>2018-09-10T11:30:00Z</time>
      </trkpt>
      <trkpt lat="46.673302" lon="12.445668">
        <ele>1926.608</ele>
        <time>2018-09-10T11:30:01Z</time>
      </trkpt>
      <trkpt lat="46.673299" lon="12.445634">
        <ele>1926.620</ele>
        <time>2018-09-10T11:30:02Z</time>
      </trkpt>
      <trkpt lat="46.673289" lon="12.445601">
        <ele>1926.652</ele>
        <time>2018-09-10T11:30:03Z</time>
      </trkpt>
      <trkpt lat="46.673273" lon="12.445570">
        <ele>1926.640</ele>
        <time>2018-09-10T11:30:04Z</time>
      </trkpt>
      <trkpt lat="46.673252" lon="12.445538">
        <ele>1926.645</ele>
        <time>2018-09-10T11:30:05Z</time>
      </trkpt>
      <trkpt lat="46.673231" lon="12.445502">
        <ele>1926.663</ele>
        <time>2018-09-10T11:30:06Z</time>
      </trkpt>
      <trkpt lat="46.673102" lon="12.445235">
        <ele>1925.643</ele>
        <time>2018-09-10T11:30:12Z</time>
      </trkpt>
      <trkpt lat="46.673077" lon="12.445179">
        <ele>1925.188</ele>
        <time>2018-09-10T11:30:13Z</time>
      </trkpt>
      <trkpt lat="46.673047" lon="12.445121">
        <ele>1925.166</ele>
        <time>2018-09-10T11:30:14Z</time>
      </trkpt>
      <trkpt lat="46.673018" lon="12.445064">
        <ele>1925.127</ele>
        <time>2018-09-10T11:30:15Z</time>
      </trkpt>
      <trkpt lat="46.672991" lon="12.445009">
        <ele>1924.768</ele>
        <time>2018-09-10T11:30:16Z</time>
      </trkpt>
      <trkpt lat="46.672815" lon="12.444557">
        <ele>1921.814</ele>
        <time>2018-09-10T11:30:26Z</time>
      </trkpt>
      <trkpt lat="46.672795" lon="12.444507">
        <ele>1921.308</ele>
        <time>2018-09-10T11:30:27Z</time>
      </trkpt>
      <trkpt lat="46.672777" lon="12.444449">
        <ele>1921.336</ele>
        <time>2018-09-10T11:30:28Z</time>
      </trkpt>
      <trkpt lat="46.672746" lon="12.444322">
        <ele>1920.868</ele>
        <time>2018-09-10T11:30:30Z</time>
      </trkpt>
      <trkpt lat="46.672676" lon="12.443974">
        <ele>1920.356</ele>
        <time>2018-09-10T11:30:35Z</time>
      </trkpt>
      <trkpt lat="46.672565" lon="12.443604">
        <ele>1920.361</ele>
        <time>2018-09-10T11:30:45Z</time>
      </trkpt>
      <trkpt lat="46.672411" lon="12.443165">
        <ele>1921.389</ele>
        <time>2018-09-10T11:31:00Z</time>
      </trkpt>
      <trkpt lat="46.672410" lon="12.442709">
        <ele>1921.349</ele>
        <time>2018-09-10T11:31:13Z</time>
      </trkpt>
      <trkpt lat="46.672440" lon="12.442515">
        <ele>1920.334</ele>
        <time>2018-09-10T11:31:17Z</time>
      </trkpt>
      <trkpt lat="46.672442" lon="12.442453">
        <ele>1919.812</ele>
        <time>2018-09-10T11:31:18Z</time>
      </trkpt>
      <trkpt lat="46.672433" lon="12.442395">
        <ele>1920.339</ele>
        <time>2018-09-10T11:31:19Z</time>
      </trkpt>
      <trkpt lat="46.672418" lon="12.442350">
        <ele>1920.301</ele>
        <time>2018-09-10T11:31:20Z</time>
      </trkpt>
      <trkpt lat="46.672403" lon="12.442316">
        <ele>1920.321</ele>
        <time>2018-09-10T11:31:21Z</time>
      </trkpt>
      <trkpt lat="46.672392" lon="12.442289">
        <ele>1920.808</ele>
        <time>2018-09-10T11:31:22Z</time>
      </trkpt>
      <trkpt lat="46.672384" lon="12.442264">
        <ele>1920.877</ele>
        <time>2018-09-10T11:31:23Z</time>
      </trkpt>
      <trkpt lat="46.672377" lon="12.442242">
        <ele>1920.819</ele>
        <time>2018-09-10T11:31:24Z</time>
      </trkpt>
      <trkpt lat="46.672320" lon="12.441965">
        <ele>1920.867</ele>
        <time>2018-09-10T11:31:35Z</time>
      </trkpt>
      <trkpt lat="46.672279" lon="12.441761">
        <ele>1921.342</ele>
        <time>2018-09-10T11:31:43Z</time>
      </trkpt>
      <trkpt lat="46.672278" lon="12.441729">
        <ele>1920.850</ele>
        <time>2018-09-10T11:31:44Z</time>
      </trkpt>
      <trkpt lat="46.672273" lon="12.441698">
        <ele>1920.850</ele>
        <time>2018-09-10T11:31:45Z</time>
      </trkpt>
      <trkpt lat="46.672266" lon="12.441673">
        <ele>1921.385</ele>
        <time>2018-09-10T11:31:46Z</time>
      </trkpt>
      <trkpt lat="46.672257" lon="12.441654">
        <ele>1921.363</ele>
        <time>2018-09-10T11:31:47Z</time>
      </trkpt>
      <trkpt lat="46.672247" lon="12.441637">
        <ele>1921.382</ele>
        <time>2018-09-10T11:31:48Z</time>
      </trkpt>
      <trkpt lat="46.672149" lon="12.441216">
        <ele>1920.843</ele>
        <time>2018-09-10T11:32:03Z</time>
      </trkpt>
      <trkpt lat="46.672250" lon="12.440734">
        <ele>1918.417</ele>
        <time>2018-09-10T11:32:17Z</time>
      </trkpt>
      <trkpt lat="46.672332" lon="12.440365">
        <ele>1918.908</ele>
        <time>2018-09-10T11:32:26Z</time>
      </trkpt>
      <trkpt lat="46.672417" lon="12.440111">
        <ele>1917.932</ele>
        <time>2018-09-10T11:32:32Z</time>
      </trkpt>
      <trkpt lat="46.672431" lon="12.440054">
        <ele>1917.424</ele>
        <time>2018-09-10T11:32:33Z</time>
      </trkpt>
      <trkpt lat="46.672527" lon="12.439456">
        <ele>1914.652</ele>
        <time>2018-09-10T11:32:43Z</time>
      </trkpt>
      <trkpt lat="46.672593" lon="12.439236">
        <ele>1913.147</ele>
        <time>2018-09-10T11:32:47Z</time>
      </trkpt>
      <trkpt lat="46.672681" lon="12.438991">
        <ele>1911.785</ele>
        <time>2018-09-10T11:32:51Z</time>
      </trkpt>
      <trkpt lat="46.672709" lon="12.438943">
        <ele>1911.255</ele>
        <time>2018-09-10T11:32:52Z</time>
      </trkpt>
      <trkpt lat="46.672737" lon="12.438894">
        <ele>1910.780</ele>
        <time>2018-09-10T11:32:53Z</time>
      </trkpt>
      <trkpt lat="46.672954" lon="12.438241">
        <ele>1908.338</ele>
        <time>2018-09-10T11:33:06Z</time>
      </trkpt>
      <trkpt lat="46.672955" lon="12.438182">
        <ele>1908.316</ele>
        <time>2018-09-10T11:33:07Z</time>
      </trkpt>
      <trkpt lat="46.673104" lon="12.437609">
        <ele>1906.976</ele>
        <time>2018-09-10T11:33:18Z</time>
      </trkpt>
      <trkpt lat="46.673123" lon="12.437556">
        <ele>1906.913</ele>
        <time>2018-09-10T11:33:19Z</time>
      </trkpt>
      <trkpt lat="46.673136" lon="12.437501">
        <ele>1906.908</ele>
        <time>2018-09-10T11:33:20Z</time>
      </trkpt>
      <trkpt lat="46.673196" lon="12.437233">
        <ele>1906.965</ele>
        <time>2018-09-10T11:33:26Z</time>
      </trkpt>
      <trkpt lat="46.673186" lon="12.437187">
        <ele>1906.957</ele>
        <time>2018-09-10T11:33:27Z</time>
      </trkpt>
      <trkpt lat="46.673049" lon="12.436910">
        <ele>1905.475</ele>
        <time>2018-09-10T11:33:34Z</time>
      </trkpt>
      <trkpt lat="46.673004" lon="12.436909">
        <ele>1904.910</ele>
        <time>2018-09-10T11:33:35Z</time>
      </trkpt>
      <trkpt lat="46.672956" lon="12.436925">
        <ele>1904.058</ele>
        <time>2018-09-10T11:33:36Z</time>
      </trkpt>
      <trkpt lat="46.672909" lon="12.436943">
        <ele>1903.588</ele>
        <time>2018-09-10T11:33:37Z</time>
      </trkpt>
      <trkpt lat="46.672864" lon="12.436956">
        <ele>1903.013</ele>
        <time>2018-09-10T11:33:38Z</time>
      </trkpt>
      <trkpt lat="46.672778" lon="12.436963">
        <ele>1902.131</ele>
        <time>2018-09-10T11:33:40Z</time>
      </trkpt>
      <trkpt lat="46.672736" lon="12.436953">
        <ele>1901.654</ele>
        <time>2018-09-10T11:33:41Z</time>
      </trkpt>
      <trkpt lat="46.672698" lon="12.436930">
        <ele>1901.156</ele>
        <time>2018-09-10T11:33:42Z</time>
      </trkpt>
      <trkpt lat="46.672670" lon="12.436893">
        <ele>1900.611</ele>
        <time>2018-09-10T11:33:43Z</time>
      </trkpt>
      <trkpt lat="46.672642" lon="12.436854">
        <ele>1900.608</ele>
        <time>2018-09-10T11:33:44Z</time>
      </trkpt>
      <trkpt lat="46.672617" lon="12.436823">
        <ele>1900.139</ele>
        <time>2018-09-10T11:33:45Z</time>
      </trkpt>
      <trkpt lat="46.672426" lon="12.436392">
        <ele>1897.321</ele>
        <time>2018-09-10T11:33:56Z</time>
      </trkpt>
      <trkpt lat="46.672407" lon="12.436326">
        <ele>1896.849</ele>
        <time>2018-09-10T11:34:07Z</time>
      </trkpt>
      <trkpt lat="46.672421" lon="12.436312">
        <ele>1898.244</ele>
        <time>2018-09-10T11:34:37Z</time>
      </trkpt>
      <trkpt lat="46.672430" lon="12.436295">
        <ele>1897.772</ele>
        <time>2018-09-10T11:34:43Z</time>
      </trkpt>
      <trkpt lat="46.672435" lon="12.436279">
        <ele>1897.742</ele>
        <time>2018-09-10T11:34:44Z</time>
      </trkpt>
      <trkpt lat="46.672439" lon="12.436257">
        <ele>1897.787</ele>
        <time>2018-09-10T11:34:45Z</time>
      </trkpt>
      <trkpt lat="46.672441" lon="12.436232">
        <ele>1897.745</ele>
        <time>2018-09-10T11:34:46Z</time>
      </trkpt>
      <trkpt lat="46.672444" lon="12.436204">
        <ele>1897.776</ele>
        <time>2018-09-10T11:34:47Z</time>
      </trkpt>
      <trkpt lat="46.672452" lon="12.436170">
        <ele>1897.790</ele>
        <time>2018-09-10T11:34:48Z</time>
      </trkpt>
      <trkpt lat="46.672464" lon="12.436134">
        <ele>1897.719</ele>
        <time>2018-09-10T11:34:49Z</time>
      </trkpt>
      <trkpt lat="46.672486" lon="12.435475">
        <ele>1895.808</ele>
        <time>2018-09-10T11:35:02Z</time>
      </trkpt>
      <trkpt lat="46.672463" lon="12.435416">
        <ele>1895.311</ele>
        <time>2018-09-10T11:35:03Z</time>
      </trkpt>
      <trkpt lat="46.672432" lon="12.435353">
        <ele>1894.453</ele>
        <time>2018-09-10T11:35:04Z</time>
      </trkpt>
      <trkpt lat="46.672396" lon="12.435283">
        <ele>1893.981</ele>
        <time>2018-09-10T11:35:05Z</time>
      </trkpt>
      <trkpt lat="46.672365" lon="12.435200">
        <ele>1893.496</ele>
        <time>2018-09-10T11:35:06Z</time>
      </trkpt>
      <trkpt lat="46.672343" lon="12.435124">
        <ele>1893.414</ele>
        <time>2018-09-10T11:35:07Z</time>
      </trkpt>
      <trkpt lat="46.672330" lon="12.435056">
        <ele>1893.944</ele>
        <time>2018-09-10T11:35:08Z</time>
      </trkpt>
      <trkpt lat="46.672327" lon="12.434992">
        <ele>1893.999</ele>
        <time>2018-09-10T11:35:09Z</time>
      </trkpt>
      <trkpt lat="46.672331" lon="12.434930">
        <ele>1893.917</ele>
        <time>2018-09-10T11:35:10Z</time>
      </trkpt>
      <trkpt lat="46.672336" lon="12.434870">
        <ele>1893.982</ele>
        <time>2018-09-10T11:35:11Z</time>
      </trkpt>
      <trkpt lat="46.672345" lon="12.434807">
        <ele>1892.943</ele>
        <time>2018-09-10T11:35:12Z</time>
      </trkpt>
      <trkpt lat="46.672361" lon="12.434746">
        <ele>1892.417</ele>
        <time>2018-09-10T11:35:13Z</time>
      </trkpt>
      <trkpt lat="46.672388" lon="12.434694">
        <ele>1891.508</ele>
        <time>2018-09-10T11:35:14Z</time>
      </trkpt>
      <trkpt lat="46.672422" lon="12.434651">
        <ele>1891.072</ele>
        <time>2018-09-10T11:35:15Z</time>
      </trkpt>
      <trkpt lat="46.672464" lon="12.434617">
        <ele>1890.014</ele>
        <time>2018-09-10T11:35:16Z</time>
      </trkpt>
      <trkpt lat="46.672509" lon="12.434581">
        <ele>1889.112</ele>
        <time>2018-09-10T11:35:17Z</time>
      </trkpt>
      <trkpt lat="46.672553" lon="12.434542">
        <ele>1887.637</ele>
        <time>2018-09-10T11:35:18Z</time>
      </trkpt>
      <trkpt lat="46.672597" lon="12.434504">
        <ele>1887.295</ele>
        <time>2018-09-10T11:35:19Z</time>
      </trkpt>
      <trkpt lat="46.672637" lon="12.434466">
        <ele>1886.215</ele>
        <time>2018-09-10T11:35:20Z</time>
      </trkpt>
      <trkpt lat="46.672672" lon="12.434423">
        <ele>1885.290</ele>
        <time>2018-09-10T11:35:21Z</time>
      </trkpt>
      <trkpt lat="46.672700" lon="12.434374">
        <ele>1884.318</ele>
        <time>2018-09-10T11:35:22Z</time>
      </trkpt>
      <trkpt lat="46.672723" lon="12.434328">
        <ele>1883.855</ele>
        <time>2018-09-10T11:35:23Z</time>
      </trkpt>
      <trkpt lat="46.672741" lon="12.434283">
        <ele>1883.307</ele>
        <time>2018-09-10T11:35:24Z</time>
      </trkpt>
      <trkpt lat="46.672767" lon="12.434168">
        <ele>1881.917</ele>
        <time>2018-09-10T11:35:28Z</time>
      </trkpt>
      <trkpt lat="46.672749" lon="12.434141">
        <ele>1881.408</ele>
        <time>2018-09-10T11:35:29Z</time>
      </trkpt>
      <trkpt lat="46.672720" lon="12.434118">
        <ele>1881.459</ele>
        <time>2018-09-10T11:35:30Z</time>
      </trkpt>
      <trkpt lat="46.672685" lon="12.434103">
        <ele>1880.961</ele>
        <time>2018-09-10T11:35:31Z</time>
      </trkpt>
      <trkpt lat="46.672647" lon="12.434095">
        <ele>1880.929</ele>
        <time>2018-09-10T11:35:32Z</time>
      </trkpt>
      <trkpt lat="46.672611" lon="12.434093">
        <ele>1881.444</ele>
        <time>2018-09-10T11:35:33Z</time>
      </trkpt>
      <trkpt lat="46.672176" lon="12.433843">
        <ele>1881.472</ele>
        <time>2018-09-10T11:35:49Z</time>
      </trkpt>
      <trkpt lat="46.672075" lon="12.433771">
        <ele>1881.482</ele>
        <time>2018-09-10T11:35:57Z</time>
      </trkpt>
      <trkpt lat="46.672062" lon="12.433754">
        <ele>1881.487</ele>
        <time>2018-09-10T11:35:58Z</time>
      </trkpt>
      <trkpt lat="46.672050" lon="12.433739">
        <ele>1881.925</ele>
        <time>2018-09-10T11:35:59Z</time>
      </trkpt>
      <trkpt lat="46.672039" lon="12.433729">
        <ele>1881.938</ele>
        <time>2018-09-10T11:36:00Z</time>
      </trkpt>
      <trkpt lat="46.672025" lon="12.433719">
        <ele>1881.470</ele>
        <time>2018-09-10T11:36:01Z</time>
      </trkpt>
      <trkpt lat="46.672007" lon="12.433705">
        <ele>1881.417</ele>
        <time>2018-09-10T11:36:02Z</time>
      </trkpt>
      <trkpt lat="46.671988" lon="12.433686">
        <ele>1881.408</ele>
        <time>2018-09-10T11:36:03Z</time>
      </trkpt>
      <trkpt lat="46.671967" lon="12.433667">
        <ele>1881.467</ele>
        <time>2018-09-10T11:36:04Z</time>
      </trkpt>
      <trkpt lat="46.671570" lon="12.433530">
        <ele>1880.419</ele>
        <time>2018-09-10T11:36:17Z</time>
      </trkpt>
      <trkpt lat="46.671400" lon="12.433547">
        <ele>1880.457</ele>
        <time>2018-09-10T11:36:23Z</time>
      </trkpt>
      <trkpt lat="46.671391" lon="12.433562">
        <ele>1880.432</ele>
        <time>2018-09-10T11:36:24Z</time>
      </trkpt>
      <trkpt lat="46.671363" lon="12.433608">
        <ele>1880.470</ele>
        <time>2018-09-10T11:36:28Z</time>
      </trkpt>
      <trkpt lat="46.671359" lon="12.433623">
        <ele>1880.450</ele>
        <time>2018-09-10T11:36:29Z</time>
      </trkpt>
      <trkpt lat="46.671345" lon="12.433688">
        <ele>1880.475</ele>
        <time>2018-09-10T11:36:39Z</time>
      </trkpt>
      <trkpt lat="46.671376" lon="12.433704">
        <ele>1877.113</ele>
        <time>2018-09-10T11:59:54Z</time>
      </trkpt>
      <trkpt lat="46.671367" lon="12.433692">
        <ele>1877.198</ele>
        <time>2018-09-10T12:00:45Z</time>
      </trkpt>
      <trkpt lat="46.671363" lon="12.433687">
        <ele>1877.515</ele>
        <time>2018-09-10T12:01:29Z</time>
      </trkpt>
      <trkpt lat="46.671384" lon="12.433687">
        <ele>1878.026</ele>
        <time>2018-09-10T12:02:12Z</time>
      </trkpt>
      <trkpt lat="46.671367" lon="12.433700">
        <ele>1877.508</ele>
        <time>2018-09-10T12:02:58Z</time>
      </trkpt>
      <trkpt lat="46.671364" lon="12.433694">
        <ele>1877.563</ele>
        <time>2018-09-10T12:03:38Z</time>
      </trkpt>
      <trkpt lat="46.671363" lon="12.433683">
        <ele>1879.035</ele>
        <time>2018-09-10T12:04:18Z</time>
      </trkpt>
      <trkpt lat="46.671361" lon="12.433678">
        <ele>1878.083</ele>
        <time>2018-09-10T12:04:53Z</time>
      </trkpt>
      <trkpt lat="46.671366" lon="12.433646">
        <ele>1878.018</ele>
        <time>2018-09-10T12:05:04Z</time>
      </trkpt>
      <trkpt lat="46.671370" lon="12.433619">
        <ele>1878.066</ele>
        <time>2018-09-10T12:05:05Z</time>
      </trkpt>
      <trkpt lat="46.671375" lon="12.433601">
        <ele>1878.026</ele>
        <time>2018-09-10T12:05:06Z</time>
      </trkpt>
      <trkpt lat="46.671381" lon="12.433586">
        <ele>1878.091</ele>
        <time>2018-09-10T12:05:07Z</time>
      </trkpt>
      <trkpt lat="46.671388" lon="12.433565">
        <ele>1878.049</ele>
        <time>2018-09-10T12:05:08Z</time>
      </trkpt>
      <trkpt lat="46.671436" lon="12.433452">
        <ele>1877.553</ele>
        <time>2018-09-10T12:05:13Z</time>
      </trkpt>
      <trkpt lat="46.671439" lon="12.433408">
        <ele>1876.604</ele>
        <time>2018-09-10T12:05:14Z</time>
      </trkpt>
      <trkpt lat="46.671436" lon="12.433380">
        <ele>1876.614</ele>
        <time>2018-09-10T12:05:15Z</time>
      </trkpt>
      <trkpt lat="46.671427" lon="12.433344">
        <ele>1875.608</ele>
        <time>2018-09-10T12:05:16Z</time>
      </trkpt>
      <trkpt lat="46.671421" lon="12.433310">
        <ele>1875.169</ele>
        <time>2018-09-10T12:05:17Z</time>
      </trkpt>
      <trkpt lat="46.671422" lon="12.433268">
        <ele>1874.741</ele>
        <time>2018-09-10T12:05:18Z</time>
      </trkpt>
      <trkpt lat="46.671428" lon="12.433236">
        <ele>1873.719</ele>
        <time>2018-09-10T12:05:19Z</time>
      </trkpt>
      <trkpt lat="46.671436" lon="12.433203">
        <ele>1873.264</ele>
        <time>2018-09-10T12:05:20Z</time>
      </trkpt>
      <trkpt lat="46.671444" lon="12.433174">
        <ele>1872.722</ele>
        <time>2018-09-10T12:05:21Z</time>
      </trkpt>
      <trkpt lat="46.671454" lon="12.433147">
        <ele>1872.362</ele>
        <time>2018-09-10T12:05:22Z</time>
      </trkpt>
      <trkpt lat="46.671463" lon="12.433124">
        <ele>1871.867</ele>
        <time>2018-09-10T12:05:23Z</time>
      </trkpt>
      <trkpt lat="46.671466" lon="12.433097">
        <ele>1871.335</ele>
        <time>2018-09-10T12:05:24Z</time>
      </trkpt>
      <trkpt lat="46.671467" lon="12.433062">
        <ele>1870.811</ele>
        <time>2018-09-10T12:05:25Z</time>
      </trkpt>
      <trkpt lat="46.671469" lon="12.433022">
        <ele>1869.921</ele>
        <time>2018-09-10T12:05:26Z</time>
      </trkpt>
      <trkpt lat="46.671473" lon="12.432984">
        <ele>1869.403</ele>
        <time>2018-09-10T12:05:27Z</time>
      </trkpt>
      <trkpt lat="46.671478" lon="12.432945">
        <ele>1868.908</ele>
        <time>2018-09-10T12:05:28Z</time>
      </trkpt>
      <trkpt lat="46.671481" lon="12.432905">
        <ele>1868.445</ele>
        <time>2018-09-10T12:05:29Z</time>
      </trkpt>
      <trkpt lat="46.671483" lon="12.432862">
        <ele>1867.947</ele>
        <time>2018-09-10T12:05:30Z</time>
      </trkpt>
      <trkpt lat="46.671484" lon="12.432815">
        <ele>1867.595</ele>
        <time>2018-09-10T12:05:31Z</time>
      </trkpt>
      <trkpt lat="46.671484" lon="12.432766">
        <ele>1867.550</ele>
        <time>2018-09-10T12:05:32Z</time>
      </trkpt>
      <trkpt lat="46.671485" lon="12.432720">
        <ele>1867.068</ele>
        <time>2018-09-10T12:05:33Z</time>
      </trkpt>
      <trkpt lat="46.671505" lon="12.432255">
        <ele>1861.748</ele>
        <time>2018-09-10T12:05:44Z</time>
      </trkpt>
      <trkpt lat="46.671493" lon="12.432217">
        <ele>1861.293</ele>
        <time>2018-09-10T12:05:45Z</time>
      </trkpt>
      <trkpt lat="46.671474" lon="12.432185">
        <ele>1860.761</ele>
        <time>2018-09-10T12:05:46Z</time>
      </trkpt>
      <trkpt lat="46.671454" lon="12.432151">
        <ele>1859.841</ele>
        <time>2018-09-10T12:05:47Z</time>
      </trkpt>
      <trkpt lat="46.671433" lon="12.432111">
        <ele>1858.881</ele>
        <time>2018-09-10T12:05:48Z</time>
      </trkpt>
      <trkpt lat="46.671415" lon="12.432070">
        <ele>1857.809</ele>
        <time>2018-09-10T12:05:49Z</time>
      </trkpt>
      <trkpt lat="46.671405" lon="12.432028">
        <ele>1857.408</ele>
        <time>2018-09-10T12:05:50Z</time>
      </trkpt>
      <trkpt lat="46.671407" lon="12.431986">
        <ele>1856.468</ele>
        <time>2018-09-10T12:05:51Z</time>
      </trkpt>
      <trkpt lat="46.671418" lon="12.431949">
        <ele>1855.910</ele>
        <time>2018-09-10T12:05:52Z</time>
      </trkpt>
      <trkpt lat="46.671435" lon="12.431920">
        <ele>1855.428</ele>
        <time>2018-09-10T12:05:53Z</time>
      </trkpt>
      <trkpt lat="46.671481" lon="12.431883">
        <ele>1855.023</ele>
        <time>2018-09-10T12:05:55Z</time>
      </trkpt>
      <trkpt lat="46.671506" lon="12.431870">
        <ele>1854.571</ele>
        <time>2018-09-10T12:05:56Z</time>
      </trkpt>
      <trkpt lat="46.671718" lon="12.431742">
        <ele>1849.781</ele>
        <time>2018-09-10T12:06:07Z</time>
      </trkpt>
      <trkpt lat="46.671930" lon="12.431659">
        <ele>1845.896</ele>
        <time>2018-09-10T12:06:18Z</time>
      </trkpt>
      <trkpt lat="46.671938" lon="12.431646">
        <ele>1845.814</ele>
        <time>2018-09-10T12:06:19Z</time>
      </trkpt>
      <trkpt lat="46.671948" lon="12.431634">
        <ele>1846.313</ele>
        <time>2018-09-10T12:06:20Z</time>
      </trkpt>
      <trkpt lat="46.671960" lon="12.431626">
        <ele>1846.343</ele>
        <time>2018-09-10T12:06:21Z</time>
      </trkpt>
      <trkpt lat="46.671971" lon="12.431620">
        <ele>1846.807</ele>
        <time>2018-09-10T12:06:22Z</time>
      </trkpt>
      <trkpt lat="46.671982" lon="12.431619">
        <ele>1846.808</ele>
        <time>2018-09-10T12:06:23Z</time>
      </trkpt>
      <trkpt lat="46.671993" lon="12.431621">
        <ele>1847.395</ele>
        <time>2018-09-10T12:06:24Z</time>
      </trkpt>
      <trkpt lat="46.672004" lon="12.431626">
        <ele>1847.387</ele>
        <time>2018-09-10T12:06:25Z</time>
      </trkpt>
      <trkpt lat="46.672016" lon="12.431625">
        <ele>1847.785</ele>
        <time>2018-09-10T12:06:26Z</time>
      </trkpt>
      <trkpt lat="46.672028" lon="12.431619">
        <ele>1847.720</ele>
        <time>2018-09-10T12:06:27Z</time>
      </trkpt>
      <trkpt lat="46.672043" lon="12.431614">
        <ele>1847.738</ele>
        <time>2018-09-10T12:06:28Z</time>
      </trkpt>
      <trkpt lat="46.672056" lon="12.431609">
        <ele>1848.238</ele>
        <time>2018-09-10T12:06:29Z</time>
      </trkpt>
      <trkpt lat="46.672081" lon="12.431562">
        <ele>1849.293</ele>
        <time>2018-09-10T12:06:40Z</time>
      </trkpt>
      <trkpt lat="46.672072" lon="12.431540">
        <ele>1849.271</ele>
        <time>2018-09-10T12:06:43Z</time>
      </trkpt>
      <trkpt lat="46.672066" lon="12.431513">
        <ele>1848.735</ele>
        <time>2018-09-10T12:06:44Z</time>
      </trkpt>
      <trkpt lat="46.672060" lon="12.431481">
        <ele>1848.786</ele>
        <time>2018-09-10T12:06:45Z</time>
      </trkpt>
      <trkpt lat="46.671963" lon="12.431091">
        <ele>1848.214</ele>
        <time>2018-09-10T12:06:59Z</time>
      </trkpt>
      <trkpt lat="46.671678" lon="12.430620">
        <ele>1846.308</ele>
        <time>2018-09-10T12:07:14Z</time>
      </trkpt>
      <trkpt lat="46.671514" lon="12.430177">
        <ele>1844.487</ele>
        <time>2018-09-10T12:07:25Z</time>
      </trkpt>
      <trkpt lat="46.671523" lon="12.429845">
        <ele>1842.059</ele>
        <time>2018-09-10T12:07:37Z</time>
      </trkpt>
      <trkpt lat="46.671531" lon="12.429793">
        <ele>1841.557</ele>
        <time>2018-09-10T12:07:40Z</time>
      </trkpt>
      <trkpt lat="46.671530" lon="12.429773">
        <ele>1841.552</ele>
        <time>2018-09-10T12:07:41Z</time>
      </trkpt>
      <trkpt lat="46.671473" lon="12.429429">
        <ele>1843.450</ele>
        <time>2018-09-10T12:07:57Z</time>
      </trkpt>
      <trkpt lat="46.671462" lon="12.429417">
        <ele>1843.470</ele>
        <time>2018-09-10T12:07:58Z</time>
      </trkpt>
      <trkpt lat="46.671177" lon="12.429171">
        <ele>1842.065</ele>
        <time>2018-09-10T12:08:10Z</time>
      </trkpt>
      <trkpt lat="46.671111" lon="12.429099">
        <ele>1842.093</ele>
        <time>2018-09-10T12:08:12Z</time>
      </trkpt>
      <trkpt lat="46.671080" lon="12.429054">
        <ele>1842.052</ele>
        <time>2018-09-10T12:08:13Z</time>
      </trkpt>
      <trkpt lat="46.671055" lon="12.429003">
        <ele>1842.053</ele>
        <time>2018-09-10T12:08:14Z</time>
      </trkpt>
      <trkpt lat="46.670996" lon="12.428841">
        <ele>1842.508</ele>
        <time>2018-09-10T12:08:17Z</time>
      </trkpt>
      <trkpt lat="46.670987" lon="12.428782">
        <ele>1842.508</ele>
        <time>2018-09-10T12:08:18Z</time>
      </trkpt>
      <trkpt lat="46.670977" lon="12.428723">
        <ele>1842.989</ele>
        <time>2018-09-10T12:08:19Z</time>
      </trkpt>
      <trkpt lat="46.670932" lon="12.427990">
        <ele>1842.561</ele>
        <time>2018-09-10T12:08:33Z</time>
      </trkpt>
      <trkpt lat="46.671059" lon="12.427525">
        <ele>1840.159</ele>
        <time>2018-09-10T12:08:47Z</time>
      </trkpt>
      <trkpt lat="46.671154" lon="12.427421">
        <ele>1838.124</ele>
        <time>2018-09-10T12:08:50Z</time>
      </trkpt>
      <trkpt lat="46.671192" lon="12.427386">
        <ele>1837.722</ele>
        <time>2018-09-10T12:08:51Z</time>
      </trkpt>
      <trkpt lat="46.671224" lon="12.427346">
        <ele>1837.232</ele>
        <time>2018-09-10T12:08:52Z</time>
      </trkpt>
      <trkpt lat="46.671253" lon="12.427300">
        <ele>1837.237</ele>
        <time>2018-09-10T12:08:53Z</time>
      </trkpt>
      <trkpt lat="46.671278" lon="12.427250">
        <ele>1836.765</ele>
        <time>2018-09-10T12:08:54Z</time>
      </trkpt>
      <trkpt lat="46.671377" lon="12.426982">
        <ele>1834.867</ele>
        <time>2018-09-10T12:08:59Z</time>
      </trkpt>
      <trkpt lat="46.671389" lon="12.426925">
        <ele>1834.881</ele>
        <time>2018-09-10T12:09:00Z</time>
      </trkpt>
      <trkpt lat="46.671399" lon="12.426866">
        <ele>1834.319</ele>
        <time>2018-09-10T12:09:01Z</time>
      </trkpt>
      <trkpt lat="46.671494" lon="12.426391">
        <ele>1830.408</ele>
        <time>2018-09-10T12:09:11Z</time>
      </trkpt>
      <trkpt lat="46.671803" lon="12.425557">
        <ele>1823.780</ele>
        <time>2018-09-10T12:09:22Z</time>
      </trkpt>
      <trkpt lat="46.671844" lon="12.425489">
        <ele>1823.772</ele>
        <time>2018-09-10T12:09:23Z</time>
      </trkpt>
      <trkpt lat="46.671976" lon="12.425309">
        <ele>1823.210</ele>
        <time>2018-09-10T12:09:26Z</time>
      </trkpt>
      <trkpt lat="46.672011" lon="12.425244">
        <ele>1823.265</ele>
        <time>2018-09-10T12:09:27Z</time>
      </trkpt>
      <trkpt lat="46.672242" lon="12.424514">
        <ele>1823.293</ele>
        <time>2018-09-10T12:09:40Z</time>
      </trkpt>
      <trkpt lat="46.672306" lon="12.424290">
        <ele>1820.843</ele>
        <time>2018-09-10T12:09:44Z</time>
      </trkpt>
      <trkpt lat="46.672392" lon="12.423879">
        <ele>1816.528</ele>
        <time>2018-09-10T12:09:51Z</time>
      </trkpt>
      <trkpt lat="46.672507" lon="12.423145">
        <ele>1806.916</ele>
        <time>2018-09-10T12:10:04Z</time>
      </trkpt>
      <trkpt lat="46.672515" lon="12.422939">
        <ele>1805.448</ele>
        <time>2018-09-10T12:10:07Z</time>
      </trkpt>
      <trkpt lat="46.672524" lon="12.422872">
        <ele>1805.061</ele>
        <time>2018-09-10T12:10:08Z</time>
      </trkpt>
      <trkpt lat="46.672538" lon="12.422809">
        <ele>1804.517</ele>
        <time>2018-09-10T12:10:09Z</time>
      </trkpt>
      <trkpt lat="46.672571" lon="12.422692">
        <ele>1803.508</ele>
        <time>2018-09-10T12:10:11Z</time>
      </trkpt>
      <trkpt lat="46.672585" lon="12.422632">
        <ele>1803.078</ele>
        <time>2018-09-10T12:10:12Z</time>
      </trkpt>
      <trkpt lat="46.672705" lon="12.422260">
        <ele>1798.740</ele>
        <time>2018-09-10T12:10:18Z</time>
      </trkpt>
      <trkpt lat="46.672860" lon="12.421987">
        <ele>1796.368</ele>
        <time>2018-09-10T12:10:22Z</time>
      </trkpt>
      <trkpt lat="46.673006" lon="12.421582">
        <ele>1794.943</ele>
        <time>2018-09-10T12:10:27Z</time>
      </trkpt>
      <trkpt lat="46.673028" lon="12.421492">
        <ele>1794.471</ele>
        <time>2018-09-10T12:10:28Z</time>
      </trkpt>
      <trkpt lat="46.673045" lon="12.421398">
        <ele>1793.941</ele>
        <time>2018-09-10T12:10:29Z</time>
      </trkpt>
      <trkpt lat="46.673060" lon="12.421296">
        <ele>1793.936</ele>
        <time>2018-09-10T12:10:30Z</time>
      </trkpt>
      <trkpt lat="46.673069" lon="12.421200">
        <ele>1793.434</ele>
        <time>2018-09-10T12:10:31Z</time>
      </trkpt>
      <trkpt lat="46.673074" lon="12.421097">
        <ele>1793.467</ele>
        <time>2018-09-10T12:10:32Z</time>
      </trkpt>
      <trkpt lat="46.673081" lon="12.420579">
        <ele>1793.481</ele>
        <time>2018-09-10T12:10:38Z</time>
      </trkpt>
      <trkpt lat="46.673088" lon="12.420506">
        <ele>1793.019</ele>
        <time>2018-09-10T12:10:39Z</time>
      </trkpt>
      <trkpt lat="46.673106" lon="12.420287">
        <ele>1791.008</ele>
        <time>2018-09-10T12:10:42Z</time>
      </trkpt>
      <trkpt lat="46.673092" lon="12.420212">
        <ele>1790.560</ele>
        <time>2018-09-10T12:10:43Z</time>
      </trkpt>
      <trkpt lat="46.673063" lon="12.420148">
        <ele>1790.112</ele>
        <time>2018-09-10T12:10:44Z</time>
      </trkpt>
      <trkpt lat="46.673019" lon="12.420108">
        <ele>1789.650</ele>
        <time>2018-09-10T12:10:45Z</time>
      </trkpt>
      <trkpt lat="46.672968" lon="12.420088">
        <ele>1789.665</ele>
        <time>2018-09-10T12:10:46Z</time>
      </trkpt>
      <trkpt lat="46.672917" lon="12.420080">
        <ele>1789.683</ele>
        <time>2018-09-10T12:10:47Z</time>
      </trkpt>
      <trkpt lat="46.672867" lon="12.420075">
        <ele>1789.153</ele>
        <time>2018-09-10T12:10:48Z</time>
      </trkpt>
      <trkpt lat="46.672729" lon="12.420044">
        <ele>1788.148</ele>
        <time>2018-09-10T12:10:51Z</time>
      </trkpt>
      <trkpt lat="46.672692" lon="12.420015">
        <ele>1788.126</ele>
        <time>2018-09-10T12:10:52Z</time>
      </trkpt>
      <trkpt lat="46.672669" lon="12.419971">
        <ele>1787.774</ele>
        <time>2018-09-10T12:10:53Z</time>
      </trkpt>
      <trkpt lat="46.672661" lon="12.419912">
        <ele>1786.756</ele>
        <time>2018-09-10T12:10:54Z</time>
      </trkpt>
      <trkpt lat="46.672670" lon="12.419850">
        <ele>1786.221</ele>
        <time>2018-09-10T12:10:55Z</time>
      </trkpt>
      <trkpt lat="46.672695" lon="12.419795">
        <ele>1785.708</ele>
        <time>2018-09-10T12:10:56Z</time>
      </trkpt>
      <trkpt lat="46.672732" lon="12.419751">
        <ele>1785.311</ele>
        <time>2018-09-10T12:10:57Z</time>
      </trkpt>
      <trkpt lat="46.672776" lon="12.419718">
        <ele>1784.893</ele>
        <time>2018-09-10T12:10:58Z</time>
      </trkpt>
      <trkpt lat="46.672822" lon="12.419686">
        <ele>1784.871</ele>
        <time>2018-09-10T12:10:59Z</time>
      </trkpt>
      <trkpt lat="46.672865" lon="12.419655">
        <ele>1785.326</ele>
        <time>2018-09-10T12:11:00Z</time>
      </trkpt>
      <trkpt lat="46.673181" lon="12.419469">
        <ele>1783.874</ele>
        <time>2018-09-10T12:11:07Z</time>
      </trkpt>
      <trkpt lat="46.673224" lon="12.419427">
        <ele>1783.894</ele>
        <time>2018-09-10T12:11:08Z</time>
      </trkpt>
      <trkpt lat="46.673545" lon="12.418903">
        <ele>1784.319</ele>
        <time>2018-09-10T12:11:20Z</time>
      </trkpt>
      <trkpt lat="46.673911" lon="12.418245">
        <ele>1782.947</ele>
        <time>2018-09-10T12:11:34Z</time>
      </trkpt>
      <trkpt lat="46.674098" lon="12.417976">
        <ele>1782.948</ele>
        <time>2018-09-10T12:11:40Z</time>
      </trkpt>
      <trkpt lat="46.674270" lon="12.417425">
        <ele>1783.361</ele>
        <time>2018-09-10T12:11:54Z</time>
      </trkpt>
      <trkpt lat="46.674616" lon="12.417064">
        <ele>1783.317</ele>
        <time>2018-09-10T12:12:07Z</time>
      </trkpt>
      <trkpt lat="46.674922" lon="12.416543">
        <ele>1784.308</ele>
        <time>2018-09-10T12:12:22Z</time>
      </trkpt>
      <trkpt lat="46.675291" lon="12.416169">
        <ele>1784.888</ele>
        <time>2018-09-10T12:12:37Z</time>
      </trkpt>
      <trkpt lat="46.675571" lon="12.415579">
        <ele>1782.920</ele>
        <time>2018-09-10T12:12:53Z</time>
      </trkpt>
      <trkpt lat="46.675878" lon="12.414907">
        <ele>1782.958</ele>
        <time>2018-09-10T12:13:09Z</time>
      </trkpt>
      <trkpt lat="46.676132" lon="12.414281">
        <ele>1783.873</ele>
        <time>2018-09-10T12:13:27Z</time>
      </trkpt>
      <trkpt lat="46.676297" lon="12.413965">
        <ele>1783.391</ele>
        <time>2018-09-10T12:13:35Z</time>
      </trkpt>
      <trkpt lat="46.676372" lon="12.413870">
        <ele>1782.961</ele>
        <time>2018-09-10T12:13:37Z</time>
      </trkpt>
      <trkpt lat="46.676404" lon="12.413809">
        <ele>1782.926</ele>
        <time>2018-09-10T12:13:38Z</time>
      </trkpt>
      <trkpt lat="46.676426" lon="12.413741">
        <ele>1782.974</ele>
        <time>2018-09-10T12:13:39Z</time>
      </trkpt>
      <trkpt lat="46.676434" lon="12.413670">
        <ele>1782.952</ele>
        <time>2018-09-10T12:13:40Z</time>
      </trkpt>
      <trkpt lat="46.676437" lon="12.413600">
        <ele>1782.953</ele>
        <time>2018-09-10T12:13:41Z</time>
      </trkpt>
      <trkpt lat="46.676519" lon="12.412739">
        <ele>1778.108</ele>
        <time>2018-09-10T12:13:53Z</time>
      </trkpt>
      <trkpt lat="46.676522" lon="12.412664">
        <ele>1777.608</ele>
        <time>2018-09-10T12:13:54Z</time>
      </trkpt>
      <trkpt lat="46.676541" lon="12.412509">
        <ele>1776.639</ele>
        <time>2018-09-10T12:13:56Z</time>
      </trkpt>
      <trkpt lat="46.676563" lon="12.412428">
        <ele>1775.661</ele>
        <time>2018-09-10T12:13:57Z</time>
      </trkpt>
      <trkpt lat="46.676777" lon="12.411813">
        <ele>1771.389</ele>
        <time>2018-09-10T12:14:03Z</time>
      </trkpt>
      <trkpt lat="46.676799" lon="12.411694">
        <ele>1771.394</ele>
        <time>2018-09-10T12:14:04Z</time>
      </trkpt>
      <trkpt lat="46.676922" lon="12.410786">
        <ele>1768.922</ele>
        <time>2018-09-10T12:14:12Z</time>
      </trkpt>
      <trkpt lat="46.676942" lon="12.410676">
        <ele>1768.442</ele>
        <time>2018-09-10T12:14:13Z</time>
      </trkpt>
      <trkpt lat="46.677160" lon="12.409711">
        <ele>1768.047</ele>
        <time>2018-09-10T12:14:25Z</time>
      </trkpt>
      <trkpt lat="46.677382" lon="12.409032">
        <ele>1767.515</ele>
        <time>2018-09-10T12:14:38Z</time>
      </trkpt>
      <trkpt lat="46.677391" lon="12.408970">
        <ele>1767.511</ele>
        <time>2018-09-10T12:14:39Z</time>
      </trkpt>
      <trkpt lat="46.677394" lon="12.408909">
        <ele>1767.521</ele>
        <time>2018-09-10T12:14:40Z</time>
      </trkpt>
      <trkpt lat="46.677392" lon="12.408851">
        <ele>1767.503</ele>
        <time>2018-09-10T12:14:41Z</time>
      </trkpt>
      <trkpt lat="46.677388" lon="12.408795">
        <ele>1767.508</ele>
        <time>2018-09-10T12:14:42Z</time>
      </trkpt>
      <trkpt lat="46.677383" lon="12.408442">
        <ele>1768.035</ele>
        <time>2018-09-10T12:14:49Z</time>
      </trkpt>
      <trkpt lat="46.677393" lon="12.408383">
        <ele>1767.597</ele>
        <time>2018-09-10T12:14:50Z</time>
      </trkpt>
      <trkpt lat="46.677409" lon="12.408319">
        <ele>1767.565</ele>
        <time>2018-09-10T12:14:51Z</time>
      </trkpt>
      <trkpt lat="46.677473" lon="12.408096">
        <ele>1766.090</ele>
        <time>2018-09-10T12:14:54Z</time>
      </trkpt>
      <trkpt lat="46.677488" lon="12.408012">
        <ele>1766.058</ele>
        <time>2018-09-10T12:14:55Z</time>
      </trkpt>
      <trkpt lat="46.677501" lon="12.407928">
        <ele>1765.628</ele>
        <time>2018-09-10T12:14:56Z</time>
      </trkpt>
      <trkpt lat="46.677726" lon="12.406541">
        <ele>1763.693</ele>
        <time>2018-09-10T12:15:14Z</time>
      </trkpt>
      <trkpt lat="46.677726" lon="12.406463">
        <ele>1763.251</ele>
        <time>2018-09-10T12:15:15Z</time>
      </trkpt>
      <trkpt lat="46.677727" lon="12.406320">
        <ele>1763.228</ele>
        <time>2018-09-10T12:15:17Z</time>
      </trkpt>
      <trkpt lat="46.677767" lon="12.405987">
        <ele>1763.689</ele>
        <time>2018-09-10T12:15:22Z</time>
      </trkpt>
      <trkpt lat="46.677984" lon="12.405379">
        <ele>1761.717</ele>
        <time>2018-09-10T12:15:33Z</time>
      </trkpt>
      <trkpt lat="46.678017" lon="12.405342">
        <ele>1761.708</ele>
        <time>2018-09-10T12:15:34Z</time>
      </trkpt>
      <trkpt lat="46.678056" lon="12.405311">
        <ele>1761.766</ele>
        <time>2018-09-10T12:15:35Z</time>
      </trkpt>
      <trkpt lat="46.678098" lon="12.405287">
        <ele>1761.298</ele>
        <time>2018-09-10T12:15:36Z</time>
      </trkpt>
      <trkpt lat="46.678139" lon="12.405265">
        <ele>1761.746</ele>
        <time>2018-09-10T12:15:37Z</time>
      </trkpt>
      <trkpt lat="46.678337" lon="12.405099">
        <ele>1761.281</ele>
        <time>2018-09-10T12:15:42Z</time>
      </trkpt>
      <trkpt lat="46.678409" lon="12.405002">
        <ele>1760.789</ele>
        <time>2018-09-10T12:15:44Z</time>
      </trkpt>
      <trkpt lat="46.678441" lon="12.404944">
        <ele>1760.729</ele>
        <time>2018-09-10T12:15:45Z</time>
      </trkpt>
      <trkpt lat="46.678468" lon="12.404880">
        <ele>1760.354</ele>
        <time>2018-09-10T12:15:46Z</time>
      </trkpt>
      <trkpt lat="46.678487" lon="12.404807">
        <ele>1760.332</ele>
        <time>2018-09-10T12:15:47Z</time>
      </trkpt>
      <trkpt lat="46.678501" lon="12.404729">
        <ele>1759.835</ele>
        <time>2018-09-10T12:15:48Z</time>
      </trkpt>
      <trkpt lat="46.678636" lon="12.403874">
        <ele>1756.986</ele>
        <time>2018-09-10T12:15:59Z</time>
      </trkpt>
      <trkpt lat="46.678633" lon="12.403817">
        <ele>1757.414</ele>
        <time>2018-09-10T12:16:00Z</time>
      </trkpt>
      <trkpt lat="46.678722" lon="12.403198">
        <ele>1756.408</ele>
        <time>2018-09-10T12:16:12Z</time>
      </trkpt>
      <trkpt lat="46.678905" lon="12.402534">
        <ele>1758.327</ele>
        <time>2018-09-10T12:16:28Z</time>
      </trkpt>
      <trkpt lat="46.679155" lon="12.401759">
        <ele>1758.889</ele>
        <time>2018-09-10T12:16:47Z</time>
      </trkpt>
      <trkpt lat="46.679309" lon="12.401277">
        <ele>1760.757</ele>
        <time>2018-09-10T12:17:03Z</time>
      </trkpt>
      <trkpt lat="46.679480" lon="12.400888">
        <ele>1762.292</ele>
        <time>2018-09-10T12:17:18Z</time>
      </trkpt>
      <trkpt lat="46.679750" lon="12.400411">
        <ele>1764.620</ele>
        <time>2018-09-10T12:17:37Z</time>
      </trkpt>
      <trkpt lat="46.680015" lon="12.399967">
        <ele>1767.010</ele>
        <time>2018-09-10T12:17:54Z</time>
      </trkpt>
      <trkpt lat="46.680215" lon="12.399453">
        <ele>1761.725</ele>
        <time>2018-09-10T12:18:06Z</time>
      </trkpt>
      <trkpt lat="46.680233" lon="12.399405">
        <ele>1761.273</ele>
        <time>2018-09-10T12:18:07Z</time>
      </trkpt>
      <trkpt lat="46.680252" lon="12.399347">
        <ele>1760.749</ele>
        <time>2018-09-10T12:18:08Z</time>
      </trkpt>
      <trkpt lat="46.680315" lon="12.399179">
        <ele>1759.802</ele>
        <time>2018-09-10T12:18:11Z</time>
      </trkpt>
      <trkpt lat="46.680337" lon="12.399120">
        <ele>1759.322</ele>
        <time>2018-09-10T12:18:12Z</time>
      </trkpt>
      <trkpt lat="46.680360" lon="12.399072">
        <ele>1758.808</ele>
        <time>2018-09-10T12:18:13Z</time>
      </trkpt>
      <trkpt lat="46.680390" lon="12.399020">
        <ele>1757.988</ele>
        <time>2018-09-10T12:18:14Z</time>
      </trkpt>
      <trkpt lat="46.680421" lon="12.398975">
        <ele>1757.450</ele>
        <time>2018-09-10T12:18:15Z</time>
      </trkpt>
      <trkpt lat="46.680453" lon="12.398932">
        <ele>1756.948</ele>
        <time>2018-09-10T12:18:16Z</time>
      </trkpt>
      <trkpt lat="46.680489" lon="12.398892">
        <ele>1756.443</ele>
        <time>2018-09-10T12:18:17Z</time>
      </trkpt>
      <trkpt lat="46.680532" lon="12.398852">
        <ele>1755.511</ele>
        <time>2018-09-10T12:18:18Z</time>
      </trkpt>
      <trkpt lat="46.680679" lon="12.398708">
        <ele>1754.591</ele>
        <time>2018-09-10T12:18:21Z</time>
      </trkpt>
      <trkpt lat="46.680818" lon="12.398508">
        <ele>1753.586</ele>
        <time>2018-09-10T12:18:24Z</time>
      </trkpt>
      <trkpt lat="46.681100" lon="12.398020">
        <ele>1755.934</ele>
        <time>2018-09-10T12:18:34Z</time>
      </trkpt>
      <trkpt lat="46.681372" lon="12.397706">
        <ele>1768.041</ele>
        <time>2018-09-10T12:18:47Z</time>
      </trkpt>
      <trkpt lat="46.681581" lon="12.397493">
        <ele>1775.681</ele>
        <time>2018-09-10T12:18:59Z</time>
      </trkpt>
      <trkpt lat="46.681616" lon="12.397432">
        <ele>1777.609</ele>
        <time>2018-09-10T12:19:26Z</time>
      </trkpt>
      <trkpt lat="46.681703" lon="12.397323">
        <ele>1779.508</ele>
        <time>2018-09-10T12:19:44Z</time>
      </trkpt>
      <trkpt lat="46.681991" lon="12.397001">
        <ele>1787.798</ele>
        <time>2018-09-10T12:19:59Z</time>
      </trkpt>
      <trkpt lat="46.682331" lon="12.396661">
        <ele>1791.050</ele>
        <time>2018-09-10T12:20:14Z</time>
      </trkpt>
      <trkpt lat="46.682610" lon="12.396396">
        <ele>1793.468</ele>
        <time>2018-09-10T12:20:27Z</time>
      </trkpt>
      <trkpt lat="46.682853" lon="12.396134">
        <ele>1798.753</ele>
        <time>2018-09-10T12:20:39Z</time>
      </trkpt>
      <trkpt lat="46.683092" lon="12.395881">
        <ele>1800.691</ele>
        <time>2018-09-10T12:20:50Z</time>
      </trkpt>
      <trkpt lat="46.683337" lon="12.395629">
        <ele>1805.961</ele>
        <time>2018-09-10T12:21:02Z</time>
      </trkpt>
      <trkpt lat="46.683535" lon="12.395377">
        <ele>1811.276</ele>
        <time>2018-09-10T12:21:14Z</time>
      </trkpt>
      <trkpt lat="46.683738" lon="12.395013">
        <ele>1807.424</ele>
        <time>2018-09-10T12:21:26Z</time>
      </trkpt>
      <trkpt lat="46.683987" lon="12.394579">
        <ele>1793.038</ele>
        <time>2018-09-10T12:21:39Z</time>
      </trkpt>
      <trkpt lat="46.684261" lon="12.394130">
        <ele>1782.970</ele>
        <time>2018-09-10T12:21:53Z</time>
      </trkpt>
      <trkpt lat="46.684680" lon="12.393546">
        <ele>1771.317</ele>
        <time>2018-09-10T12:22:04Z</time>
      </trkpt>
      <trkpt lat="46.684762" lon="12.393385">
        <ele>1769.408</ele>
        <time>2018-09-10T12:22:06Z</time>
      </trkpt>
      <trkpt lat="46.685094" lon="12.392666">
        <ele>1760.747</ele>
        <time>2018-09-10T12:22:17Z</time>
      </trkpt>
      <trkpt lat="46.685149" lon="12.392455">
        <ele>1758.889</ele>
        <time>2018-09-10T12:22:20Z</time>
      </trkpt>
      <trkpt lat="46.685198" lon="12.392257">
        <ele>1756.987</ele>
        <time>2018-09-10T12:22:23Z</time>
      </trkpt>
      <trkpt lat="46.685248" lon="12.392123">
        <ele>1755.052</ele>
        <time>2018-09-10T12:22:25Z</time>
      </trkpt>
      <trkpt lat="46.685279" lon="12.392051">
        <ele>1754.030</ele>
        <time>2018-09-10T12:22:26Z</time>
      </trkpt>
      <trkpt lat="46.685306" lon="12.391990">
        <ele>1753.110</ele>
        <time>2018-09-10T12:22:27Z</time>
      </trkpt>
      <trkpt lat="46.685580" lon="12.391520">
        <ele>1743.445</ele>
        <time>2018-09-10T12:22:34Z</time>
      </trkpt>
      <trkpt lat="46.685622" lon="12.391458">
        <ele>1742.563</ele>
        <time>2018-09-10T12:22:35Z</time>
      </trkpt>
      <trkpt lat="46.685714" lon="12.391327">
        <ele>1741.028</ele>
        <time>2018-09-10T12:22:37Z</time>
      </trkpt>
      <trkpt lat="46.685779" lon="12.391269">
        <ele>1740.689</ele>
        <time>2018-09-10T12:22:38Z</time>
      </trkpt>
      <trkpt lat="46.685838" lon="12.391215">
        <ele>1740.617</ele>
        <time>2018-09-10T12:22:39Z</time>
      </trkpt>
      <trkpt lat="46.685879" lon="12.391148">
        <ele>1740.608</ele>
        <time>2018-09-10T12:22:40Z</time>
      </trkpt>
      <trkpt lat="46.685901" lon="12.391070">
        <ele>1740.626</ele>
        <time>2018-09-10T12:22:41Z</time>
      </trkpt>
      <trkpt lat="46.685910" lon="12.391000">
        <ele>1740.638</ele>
        <time>2018-09-10T12:22:42Z</time>
      </trkpt>
      <trkpt lat="46.685918" lon="12.390948">
        <ele>1740.626</ele>
        <time>2018-09-10T12:22:43Z</time>
      </trkpt>
      <trkpt lat="46.685928" lon="12.390904">
        <ele>1741.071</ele>
        <time>2018-09-10T12:22:44Z</time>
      </trkpt>
      <trkpt lat="46.685940" lon="12.390864">
        <ele>1741.099</ele>
        <time>2018-09-10T12:22:45Z</time>
      </trkpt>
      <trkpt lat="46.685955" lon="12.390831">
        <ele>1741.039</ele>
        <time>2018-09-10T12:22:46Z</time>
      </trkpt>
      <trkpt lat="46.685969" lon="12.390802">
        <ele>1741.564</ele>
        <time>2018-09-10T12:22:47Z</time>
      </trkpt>
      <trkpt lat="46.686190" lon="12.390553">
        <ele>1748.292</ele>
        <time>2018-09-10T12:23:00Z</time>
      </trkpt>
      <trkpt lat="46.686361" lon="12.390183">
        <ele>1751.626</ele>
        <time>2018-09-10T12:23:13Z</time>
      </trkpt>
      <trkpt lat="46.686724" lon="12.389875">
        <ele>1752.647</ele>
        <time>2018-09-10T12:23:28Z</time>
      </trkpt>
      <trkpt lat="46.686838" lon="12.389799">
        <ele>1753.111</ele>
        <time>2018-09-10T12:23:31Z</time>
      </trkpt>
      <trkpt lat="46.686872" lon="12.389772">
        <ele>1753.508</ele>
        <time>2018-09-10T12:23:32Z</time>
      </trkpt>
      <trkpt lat="46.686904" lon="12.389744">
        <ele>1754.076</ele>
        <time>2018-09-10T12:23:33Z</time>
      </trkpt>
      <trkpt lat="46.687285" lon="12.389432">
        <ele>1755.938</ele>
        <time>2018-09-10T12:23:46Z</time>
      </trkpt>
      <trkpt lat="46.687467" lon="12.389279">
        <ele>1755.046</ele>
        <time>2018-09-10T12:23:51Z</time>
      </trkpt>
      <trkpt lat="46.687501" lon="12.389245">
        <ele>1755.081</ele>
        <time>2018-09-10T12:23:52Z</time>
      </trkpt>
      <trkpt lat="46.687532" lon="12.389210">
        <ele>1754.529</ele>
        <time>2018-09-10T12:23:53Z</time>
      </trkpt>
      <trkpt lat="46.687562" lon="12.389172">
        <ele>1755.099</ele>
        <time>2018-09-10T12:23:54Z</time>
      </trkpt>
      <trkpt lat="46.687587" lon="12.389137">
        <ele>1755.094</ele>
        <time>2018-09-10T12:23:55Z</time>
      </trkpt>
      <trkpt lat="46.687953" lon="12.388767">
        <ele>1757.422</ele>
        <time>2018-09-10T12:24:09Z</time>
      </trkpt>
      <trkpt lat="46.687996" lon="12.388756">
        <ele>1757.973</ele>
        <time>2018-09-10T12:24:10Z</time>
      </trkpt>
      <trkpt lat="46.688133" lon="12.388726">
        <ele>1759.385</ele>
        <time>2018-09-10T12:24:13Z</time>
      </trkpt>
      <trkpt lat="46.688416" lon="12.388678">
        <ele>1758.813</ele>
        <time>2018-09-10T12:24:18Z</time>
      </trkpt>
      <trkpt lat="46.688473" lon="12.388645">
        <ele>1758.308</ele>
        <time>2018-09-10T12:24:19Z</time>
      </trkpt>
      <trkpt lat="46.688529" lon="12.388590">
        <ele>1758.361</ele>
        <time>2018-09-10T12:24:20Z</time>
      </trkpt>
      <trkpt lat="46.688565" lon="12.388515">
        <ele>1757.983</ele>
        <time>2018-09-10T12:24:21Z</time>
      </trkpt>
      <trkpt lat="46.688581" lon="12.388433">
        <ele>1757.481</ele>
        <time>2018-09-10T12:24:22Z</time>
      </trkpt>
      <trkpt lat="46.688593" lon="12.388342">
        <ele>1756.476</ele>
        <time>2018-09-10T12:24:23Z</time>
      </trkpt>
      <trkpt lat="46.688651" lon="12.387885">
        <ele>1753.564</ele>
        <time>2018-09-10T12:24:34Z</time>
      </trkpt>
      <trkpt lat="46.688707" lon="12.387429">
        <ele>1752.654</ele>
        <time>2018-09-10T12:24:49Z</time>
      </trkpt>
      <trkpt lat="46.688989" lon="12.387123">
        <ele>1751.189</ele>
        <time>2018-09-10T12:25:01Z</time>
      </trkpt>
      <trkpt lat="46.689181" lon="12.386746">
        <ele>1753.597</ele>
        <time>2018-09-10T12:25:12Z</time>
      </trkpt>
      <trkpt lat="46.689259" lon="12.386576">
        <ele>1754.575</ele>
        <time>2018-09-10T12:25:16Z</time>
      </trkpt>
      <trkpt lat="46.689288" lon="12.386544">
        <ele>1755.028</ele>
        <time>2018-09-10T12:25:17Z</time>
      </trkpt>
      <trkpt lat="46.689288" lon="12.386510">
        <ele>1755.020</ele>
        <time>2018-09-10T12:25:18Z</time>
      </trkpt>
      <trkpt lat="46.689293" lon="12.386473">
        <ele>1755.008</ele>
        <time>2018-09-10T12:25:19Z</time>
      </trkpt>
      <trkpt lat="46.689294" lon="12.386436">
        <ele>1755.081</ele>
        <time>2018-09-10T12:25:20Z</time>
      </trkpt>
      <trkpt lat="46.689302" lon="12.386407">
        <ele>1755.083</ele>
        <time>2018-09-10T12:25:21Z</time>
      </trkpt>
      <trkpt lat="46.689345" lon="12.386232">
        <ele>1754.011</ele>
        <time>2018-09-10T12:25:28Z</time>
      </trkpt>
      <trkpt lat="46.689352" lon="12.386210">
        <ele>1754.036</ele>
        <time>2018-09-10T12:25:29Z</time>
      </trkpt>
      <trkpt lat="46.689359" lon="12.386190">
        <ele>1754.054</ele>
        <time>2018-09-10T12:25:30Z</time>
      </trkpt>
      <trkpt lat="46.689365" lon="12.386167">
        <ele>1754.084</ele>
        <time>2018-09-10T12:25:31Z</time>
      </trkpt>
      <trkpt lat="46.689371" lon="12.386144">
        <ele>1754.599</ele>
        <time>2018-09-10T12:25:32Z</time>
      </trkpt>
      <trkpt lat="46.689376" lon="12.386122">
        <ele>1755.057</ele>
        <time>2018-09-10T12:25:33Z</time>
      </trkpt>
      <trkpt lat="46.689382" lon="12.386101">
        <ele>1755.595</ele>
        <time>2018-09-10T12:25:34Z</time>
      </trkpt>
      <trkpt lat="46.689389" lon="12.386087">
        <ele>1755.549</ele>
        <time>2018-09-10T12:25:35Z</time>
      </trkpt>
      <trkpt lat="46.689399" lon="12.386075">
        <ele>1755.923</ele>
        <time>2018-09-10T12:25:36Z</time>
      </trkpt>
      <trkpt lat="46.689410" lon="12.386066">
        <ele>1755.908</ele>
        <time>2018-09-10T12:25:37Z</time>
      </trkpt>
      <trkpt lat="46.689605" lon="12.385790">
        <ele>1757.493</ele>
        <time>2018-09-10T12:25:52Z</time>
      </trkpt>
      <trkpt lat="46.689818" lon="12.385362">
        <ele>1754.515</ele>
        <time>2018-09-10T12:26:07Z</time>
      </trkpt>
      <trkpt lat="46.690076" lon="12.384815">
        <ele>1748.773</ele>
        <time>2018-09-10T12:26:18Z</time>
      </trkpt>
      <trkpt lat="46.690362" lon="12.384094">
        <ele>1747.898</ele>
        <time>2018-09-10T12:26:31Z</time>
      </trkpt>
      <trkpt lat="46.690537" lon="12.383623">
        <ele>1747.816</ele>
        <time>2018-09-10T12:26:42Z</time>
      </trkpt>
      <trkpt lat="46.690560" lon="12.383574">
        <ele>1747.856</ele>
        <time>2018-09-10T12:26:43Z</time>
      </trkpt>
      <trkpt lat="46.690826" lon="12.382880">
        <ele>1745.411</ele>
        <time>2018-09-10T12:26:57Z</time>
      </trkpt>
      <trkpt lat="46.691143" lon="12.382316">
        <ele>1742.029</ele>
        <time>2018-09-10T12:27:10Z</time>
      </trkpt>
      <trkpt lat="46.691438" lon="12.381878">
        <ele>1740.142</ele>
        <time>2018-09-10T12:27:23Z</time>
      </trkpt>
      <trkpt lat="46.691633" lon="12.381651">
        <ele>1745.422</ele>
        <time>2018-09-10T12:27:34Z</time>
      </trkpt>
      <trkpt lat="46.691871" lon="12.381436">
        <ele>1749.714</ele>
        <time>2018-09-10T12:27:47Z</time>
      </trkpt>
      <trkpt lat="46.692075" lon="12.381225">
        <ele>1760.708</ele>
        <time>2018-09-10T12:28:03Z</time>
      </trkpt>
      <trkpt lat="46.692311" lon="12.381005">
        <ele>1766.558</ele>
        <time>2018-09-10T12:28:17Z</time>
      </trkpt>
      <trkpt lat="46.692580" lon="12.380880">
        <ele>1767.540</ele>
        <time>2018-09-10T12:28:28Z</time>
      </trkpt>
      <trkpt lat="46.692994" lon="12.380774">
        <ele>1765.668</ele>
        <time>2018-09-10T12:28:40Z</time>
      </trkpt>
      <trkpt lat="46.693244" lon="12.380736">
        <ele>1763.643</ele>
        <time>2018-09-10T12:28:46Z</time>
      </trkpt>
      <trkpt lat="46.693292" lon="12.380730">
        <ele>1763.281</ele>
        <time>2018-09-10T12:28:47Z</time>
      </trkpt>
      <trkpt lat="46.693870" lon="12.380753">
        <ele>1763.671</ele>
        <time>2018-09-10T12:29:00Z</time>
      </trkpt>
      <trkpt lat="46.694131" lon="12.380836">
        <ele>1762.786</ele>
        <time>2018-09-10T12:29:05Z</time>
      </trkpt>
      <trkpt lat="46.694184" lon="12.380855">
        <ele>1762.744</ele>
        <time>2018-09-10T12:29:06Z</time>
      </trkpt>
      <trkpt lat="46.694480" lon="12.380947">
        <ele>1761.255</ele>
        <time>2018-09-10T12:29:11Z</time>
      </trkpt>
      <trkpt lat="46.694537" lon="12.380981">
        <ele>1760.707</ele>
        <time>2018-09-10T12:29:12Z</time>
      </trkpt>
      <trkpt lat="46.694589" lon="12.381029">
        <ele>1760.317</ele>
        <time>2018-09-10T12:29:13Z</time>
      </trkpt>
      <trkpt lat="46.694633" lon="12.381096">
        <ele>1759.308</ele>
        <time>2018-09-10T12:29:14Z</time>
      </trkpt>
      <trkpt lat="46.694670" lon="12.381168">
        <ele>1758.889</ele>
        <time>2018-09-10T12:29:15Z</time>
      </trkpt>
      <trkpt lat="46.694711" lon="12.381241">
        <ele>1757.971</ele>
        <time>2018-09-10T12:29:16Z</time>
      </trkpt>
      <trkpt lat="46.694834" lon="12.381469">
        <ele>1755.979</ele>
        <time>2018-09-10T12:29:19Z</time>
      </trkpt>
      <trkpt lat="46.694865" lon="12.381553">
        <ele>1755.514</ele>
        <time>2018-09-10T12:29:20Z</time>
      </trkpt>
      <trkpt lat="46.694889" lon="12.381642">
        <ele>1755.092</ele>
        <time>2018-09-10T12:29:21Z</time>
      </trkpt>
      <trkpt lat="46.695007" lon="12.382219">
        <ele>1747.812</ele>
        <time>2018-09-10T12:29:28Z</time>
      </trkpt>
      <trkpt lat="46.695018" lon="12.382311">
        <ele>1746.357</ele>
        <time>2018-09-10T12:29:29Z</time>
      </trkpt>
      <trkpt lat="46.695042" lon="12.382507">
        <ele>1743.485</ele>
        <time>2018-09-10T12:29:31Z</time>
      </trkpt>
      <trkpt lat="46.695062" lon="12.382607">
        <ele>1741.537</ele>
        <time>2018-09-10T12:29:32Z</time>
      </trkpt>
      <trkpt lat="46.695088" lon="12.382708">
        <ele>1740.149</ele>
        <time>2018-09-10T12:29:33Z</time>
      </trkpt>
      <trkpt lat="46.695120" lon="12.382808">
        <ele>1739.113</ele>
        <time>2018-09-10T12:29:34Z</time>
      </trkpt>
      <trkpt lat="46.695155" lon="12.382892">
        <ele>1738.208</ele>
        <time>2018-09-10T12:29:35Z</time>
      </trkpt>
      <trkpt lat="46.695196" lon="12.382966">
        <ele>1737.717</ele>
        <time>2018-09-10T12:29:36Z</time>
      </trkpt>
      <trkpt lat="46.695246" lon="12.383024">
        <ele>1736.789</ele>
        <time>2018-09-10T12:29:37Z</time>
      </trkpt>
      <trkpt lat="46.695300" lon="12.383061">
        <ele>1736.227</ele>
        <time>2018-09-10T12:29:38Z</time>
      </trkpt>
      <trkpt lat="46.695359" lon="12.383070">
        <ele>1736.242</ele>
        <time>2018-09-10T12:29:39Z</time>
      </trkpt>
      <trkpt lat="46.695419" lon="12.383048">
        <ele>1736.210</ele>
        <time>2018-09-10T12:29:40Z</time>
      </trkpt>
      <trkpt lat="46.695478" lon="12.383011">
        <ele>1736.280</ele>
        <time>2018-09-10T12:29:41Z</time>
      </trkpt>
      <trkpt lat="46.695534" lon="12.382964">
        <ele>1736.275</ele>
        <time>2018-09-10T12:29:42Z</time>
      </trkpt>
      <trkpt lat="46.695590" lon="12.382916">
        <ele>1736.213</ele>
        <time>2018-09-10T12:29:43Z</time>
      </trkpt>
      <trkpt lat="46.695654" lon="12.382874">
        <ele>1736.275</ele>
        <time>2018-09-10T12:29:44Z</time>
      </trkpt>
      <trkpt lat="46.695723" lon="12.382843">
        <ele>1736.228</ele>
        <time>2018-09-10T12:29:45Z</time>
      </trkpt>
      <trkpt lat="46.695792" lon="12.382816">
        <ele>1735.820</ele>
        <time>2018-09-10T12:29:46Z</time>
      </trkpt>
      <trkpt lat="46.696070" lon="12.382752">
        <ele>1735.808</ele>
        <time>2018-09-10T12:29:50Z</time>
      </trkpt>
      <trkpt lat="46.696342" lon="12.382750">
        <ele>1734.361</ele>
        <time>2018-09-10T12:29:54Z</time>
      </trkpt>
      <trkpt lat="46.696730" lon="12.382638">
        <ele>1733.323</ele>
        <time>2018-09-10T12:29:59Z</time>
      </trkpt>
      <trkpt lat="46.696797" lon="12.382592">
        <ele>1733.321</ele>
        <time>2018-09-10T12:30:00Z</time>
      </trkpt>
      <trkpt lat="46.696860" lon="12.382540">
        <ele>1733.886</ele>
        <time>2018-09-10T12:30:01Z</time>
      </trkpt>
      <trkpt lat="46.696922" lon="12.382490">
        <ele>1733.874</ele>
        <time>2018-09-10T12:30:02Z</time>
      </trkpt>
      <trkpt lat="46.696987" lon="12.382443">
        <ele>1733.344</ele>
        <time>2018-09-10T12:30:03Z</time>
      </trkpt>
      <trkpt lat="46.697055" lon="12.382402">
        <ele>1733.349</ele>
        <time>2018-09-10T12:30:04Z</time>
      </trkpt>
      <trkpt lat="46.697127" lon="12.382365">
        <ele>1733.387</ele>
        <time>2018-09-10T12:30:05Z</time>
      </trkpt>
      <trkpt lat="46.697652" lon="12.382107">
        <ele>1733.329</ele>
        <time>2018-09-10T12:30:14Z</time>
      </trkpt>
      <trkpt lat="46.697925" lon="12.382023">
        <ele>1730.900</ele>
        <time>2018-09-10T12:30:20Z</time>
      </trkpt>
      <trkpt lat="46.697975" lon="12.382018">
        <ele>1730.520</ele>
        <time>2018-09-10T12:30:21Z</time>
      </trkpt>
      <trkpt lat="46.698023" lon="12.382017">
        <ele>1730.008</ele>
        <time>2018-09-10T12:30:22Z</time>
      </trkpt>
      <trkpt lat="46.698071" lon="12.382016">
        <ele>1729.556</ele>
        <time>2018-09-10T12:30:23Z</time>
      </trkpt>
      <trkpt lat="46.698121" lon="12.382010">
        <ele>1728.578</ele>
        <time>2018-09-10T12:30:24Z</time>
      </trkpt>
      <trkpt lat="46.698176" lon="12.382001">
        <ele>1728.136</ele>
        <time>2018-09-10T12:30:25Z</time>
      </trkpt>
      <trkpt lat="46.698521" lon="12.382040">
        <ele>1723.781</ele>
        <time>2018-09-10T12:30:31Z</time>
      </trkpt>
      <trkpt lat="46.698572" lon="12.382041">
        <ele>1722.889</ele>
        <time>2018-09-10T12:30:32Z</time>
      </trkpt>
      <trkpt lat="46.698791" lon="12.382002">
        <ele>1720.479</ele>
        <time>2018-09-10T12:30:36Z</time>
      </trkpt>
      <trkpt lat="46.698900" lon="12.381991">
        <ele>1719.974</ele>
        <time>2018-09-10T12:30:38Z</time>
      </trkpt>
      <trkpt lat="46.698951" lon="12.381987">
        <ele>1719.492</ele>
        <time>2018-09-10T12:30:39Z</time>
      </trkpt>
      <trkpt lat="46.699005" lon="12.381976">
        <ele>1719.482</ele>
        <time>2018-09-10T12:30:40Z</time>
      </trkpt>
      <trkpt lat="46.699059" lon="12.381965">
        <ele>1719.443</ele>
        <time>2018-09-10T12:30:41Z</time>
      </trkpt>
      <trkpt lat="46.699111" lon="12.381965">
        <ele>1719.417</ele>
        <time>2018-09-10T12:30:42Z</time>
      </trkpt>
      <trkpt lat="46.699163" lon="12.381973">
        <ele>1719.408</ele>
        <time>2018-09-10T12:30:43Z</time>
      </trkpt>
      <trkpt lat="46.699213" lon="12.381976">
        <ele>1719.452</ele>
        <time>2018-09-10T12:30:44Z</time>
      </trkpt>
      <trkpt lat="46.699894" lon="12.381989">
        <ele>1722.874</ele>
        <time>2018-09-10T12:30:57Z</time>
      </trkpt>
      <trkpt lat="46.700097" lon="12.382024">
        <ele>1722.352</ele>
        <time>2018-09-10T12:31:00Z</time>
      </trkpt>
      <trkpt lat="46.700168" lon="12.382029">
        <ele>1722.357</ele>
        <time>2018-09-10T12:31:01Z</time>
      </trkpt>
      <trkpt lat="46.700237" lon="12.382040">
        <ele>1722.335</ele>
        <time>2018-09-10T12:31:02Z</time>
      </trkpt>
      <trkpt lat="46.700417" lon="12.382072">
        <ele>1721.895</ele>
        <time>2018-09-10T12:31:05Z</time>
      </trkpt>
      <trkpt lat="46.700515" lon="12.382095">
        <ele>1721.860</ele>
        <time>2018-09-10T12:31:07Z</time>
      </trkpt>
      <trkpt lat="46.700560" lon="12.382097">
        <ele>1721.388</ele>
        <time>2018-09-10T12:31:08Z</time>
      </trkpt>
      <trkpt lat="46.700599" lon="12.382094">
        <ele>1720.935</ele>
        <time>2018-09-10T12:31:09Z</time>
      </trkpt>
      <trkpt lat="46.700637" lon="12.382086">
        <ele>1720.986</ele>
        <time>2018-09-10T12:31:10Z</time>
      </trkpt>
      <trkpt lat="46.700678" lon="12.382074">
        <ele>1720.414</ele>
        <time>2018-09-10T12:31:11Z</time>
      </trkpt>
      <trkpt lat="46.700721" lon="12.382054">
        <ele>1719.908</ele>
        <time>2018-09-10T12:31:12Z</time>
      </trkpt>
      <trkpt lat="46.700763" lon="12.382016">
        <ele>1719.447</ele>
        <time>2018-09-10T12:31:13Z</time>
      </trkpt>
      <trkpt lat="46.700791" lon="12.381962">
        <ele>1718.929</ele>
        <time>2018-09-10T12:31:14Z</time>
      </trkpt>
      <trkpt lat="46.700795" lon="12.381898">
        <ele>1718.947</ele>
        <time>2018-09-10T12:31:15Z</time>
      </trkpt>
      <trkpt lat="46.700782" lon="12.381838">
        <ele>1718.482</ele>
        <time>2018-09-10T12:31:16Z</time>
      </trkpt>
      <trkpt lat="46.700759" lon="12.381769">
        <ele>1718.030</ele>
        <time>2018-09-10T12:31:17Z</time>
      </trkpt>
      <trkpt lat="46.700740" lon="12.381716">
        <ele>1717.580</ele>
        <time>2018-09-10T12:31:18Z</time>
      </trkpt>
      <trkpt lat="46.700710" lon="12.381654">
        <ele>1716.565</ele>
        <time>2018-09-10T12:31:19Z</time>
      </trkpt>
      <trkpt lat="46.700658" lon="12.381530">
        <ele>1715.673</ele>
        <time>2018-09-10T12:31:21Z</time>
      </trkpt>
      <trkpt lat="46.700618" lon="12.381407">
        <ele>1714.678</ele>
        <time>2018-09-10T12:31:23Z</time>
      </trkpt>
      <trkpt lat="46.700327" lon="12.380939">
        <ele>1713.633</ele>
        <time>2018-09-10T12:31:33Z</time>
      </trkpt>
      <trkpt lat="46.700245" lon="12.380767">
        <ele>1711.726</ele>
        <time>2018-09-10T12:31:36Z</time>
      </trkpt>
      <trkpt lat="46.699897" lon="12.380090">
        <ele>1706.908</ele>
        <time>2018-09-10T12:31:50Z</time>
      </trkpt>
      <trkpt lat="46.699735" lon="12.379421">
        <ele>1704.031</ele>
        <time>2018-09-10T12:32:02Z</time>
      </trkpt>
      <trkpt lat="46.699320" lon="12.378622">
        <ele>1703.123</ele>
        <time>2018-09-10T12:32:17Z</time>
      </trkpt>
      <trkpt lat="46.699074" lon="12.378140">
        <ele>1703.141</ele>
        <time>2018-09-10T12:32:31Z</time>
      </trkpt>
      <trkpt lat="46.698892" lon="12.377553">
        <ele>1704.566</ele>
        <time>2018-09-10T12:32:48Z</time>
      </trkpt>
      <trkpt lat="46.698816" lon="12.377234">
        <ele>1702.664</ele>
        <time>2018-09-10T12:32:56Z</time>
      </trkpt>
      <trkpt lat="46.698808" lon="12.377168">
        <ele>1702.164</ele>
        <time>2018-09-10T12:32:57Z</time>
      </trkpt>
      <trkpt lat="46.698804" lon="12.377096">
        <ele>1701.639</ele>
        <time>2018-09-10T12:32:58Z</time>
      </trkpt>
      <trkpt lat="46.698830" lon="12.376456">
        <ele>1699.247</ele>
        <time>2018-09-10T12:33:07Z</time>
      </trkpt>
      <trkpt lat="46.698828" lon="12.376386">
        <ele>1698.781</ele>
        <time>2018-09-10T12:33:08Z</time>
      </trkpt>
      <trkpt lat="46.698828" lon="12.376313">
        <ele>1698.361</ele>
        <time>2018-09-10T12:33:09Z</time>
      </trkpt>
      <trkpt lat="46.698827" lon="12.376233">
        <ele>1697.817</ele>
        <time>2018-09-10T12:33:10Z</time>
      </trkpt>
      <trkpt lat="46.698825" lon="12.376170">
        <ele>1697.308</ele>
        <time>2018-09-10T12:33:11Z</time>
      </trkpt>
      <trkpt lat="46.698797" lon="12.375550">
        <ele>1689.672</ele>
        <time>2018-09-10T12:33:19Z</time>
      </trkpt>
      <trkpt lat="46.698809" lon="12.375478">
        <ele>1688.624</ele>
        <time>2018-09-10T12:33:20Z</time>
      </trkpt>
      <trkpt lat="46.698833" lon="12.375410">
        <ele>1687.212</ele>
        <time>2018-09-10T12:33:21Z</time>
      </trkpt>
      <trkpt lat="46.698861" lon="12.375356">
        <ele>1686.267</ele>
        <time>2018-09-10T12:33:22Z</time>
      </trkpt>
      <trkpt lat="46.698893" lon="12.375307">
        <ele>1685.355</ele>
        <time>2018-09-10T12:33:23Z</time>
      </trkpt>
      <trkpt lat="46.699172" lon="12.374876">
        <ele>1676.255</ele>
        <time>2018-09-10T12:33:31Z</time>
      </trkpt>
      <trkpt lat="46.699578" lon="12.374346">
        <ele>1666.190</ele>
        <time>2018-09-10T12:33:42Z</time>
      </trkpt>
      <trkpt lat="46.699622" lon="12.374328">
        <ele>1665.148</ele>
        <time>2018-09-10T12:33:43Z</time>
      </trkpt>
      <trkpt lat="46.700170" lon="12.374208">
        <ele>1654.517</ele>
        <time>2018-09-10T12:33:55Z</time>
      </trkpt>
      <trkpt lat="46.700181" lon="12.374161">
        <ele>1653.687</ele>
        <time>2018-09-10T12:33:56Z</time>
      </trkpt>
      <trkpt lat="46.700170" lon="12.374123">
        <ele>1652.615</ele>
        <time>2018-09-10T12:33:57Z</time>
      </trkpt>
      <trkpt lat="46.700147" lon="12.374096">
        <ele>1651.608</ele>
        <time>2018-09-10T12:33:58Z</time>
      </trkpt>
      <trkpt lat="46.700118" lon="12.374080">
        <ele>1651.225</ele>
        <time>2018-09-10T12:33:59Z</time>
      </trkpt>
      <trkpt lat="46.700086" lon="12.374075">
        <ele>1650.257</ele>
        <time>2018-09-10T12:34:00Z</time>
      </trkpt>
      <trkpt lat="46.700054" lon="12.374071">
        <ele>1649.745</ele>
        <time>2018-09-10T12:34:01Z</time>
      </trkpt>
      <trkpt lat="46.700021" lon="12.374064">
        <ele>1649.220</ele>
        <time>2018-09-10T12:34:02Z</time>
      </trkpt>
      <trkpt lat="46.699917" lon="12.373989">
        <ele>1647.898</ele>
        <time>2018-09-10T12:34:05Z</time>
      </trkpt>
      <trkpt lat="46.699885" lon="12.373946">
        <ele>1647.328</ele>
        <time>2018-09-10T12:34:06Z</time>
      </trkpt>
      <trkpt lat="46.699852" lon="12.373900">
        <ele>1646.433</ele>
        <time>2018-09-10T12:34:07Z</time>
      </trkpt>
      <trkpt lat="46.699746" lon="12.373785">
        <ele>1644.911</ele>
        <time>2018-09-10T12:34:10Z</time>
      </trkpt>
      <trkpt lat="46.699704" lon="12.373755">
        <ele>1643.943</ele>
        <time>2018-09-10T12:34:11Z</time>
      </trkpt>
      <trkpt lat="46.699661" lon="12.373719">
        <ele>1643.564</ele>
        <time>2018-09-10T12:34:12Z</time>
      </trkpt>
      <trkpt lat="46.699582" lon="12.373633">
        <ele>1642.010</ele>
        <time>2018-09-10T12:34:14Z</time>
      </trkpt>
      <trkpt lat="46.699547" lon="12.373579">
        <ele>1641.108</ele>
        <time>2018-09-10T12:34:15Z</time>
      </trkpt>
      <trkpt lat="46.699519" lon="12.373519">
        <ele>1640.148</ele>
        <time>2018-09-10T12:34:16Z</time>
      </trkpt>
      <trkpt lat="46.699470" lon="12.373406">
        <ele>1639.170</ele>
        <time>2018-09-10T12:34:18Z</time>
      </trkpt>
      <trkpt lat="46.699439" lon="12.373360">
        <ele>1638.298</ele>
        <time>2018-09-10T12:34:19Z</time>
      </trkpt>
      <trkpt lat="46.699399" lon="12.373325">
        <ele>1637.733</ele>
        <time>2018-09-10T12:34:20Z</time>
      </trkpt>
      <trkpt lat="46.699353" lon="12.373305">
        <ele>1636.771</ele>
        <time>2018-09-10T12:34:21Z</time>
      </trkpt>
      <trkpt lat="46.699302" lon="12.373297">
        <ele>1636.311</ele>
        <time>2018-09-10T12:34:22Z</time>
      </trkpt>
      <trkpt lat="46.699247" lon="12.373294">
        <ele>1635.866</ele>
        <time>2018-09-10T12:34:23Z</time>
      </trkpt>
      <trkpt lat="46.699141" lon="12.373288">
        <ele>1634.384</ele>
        <time>2018-09-10T12:34:25Z</time>
      </trkpt>
      <trkpt lat="46.699087" lon="12.373282">
        <ele>1633.983</ele>
        <time>2018-09-10T12:34:26Z</time>
      </trkpt>
      <trkpt lat="46.699001" lon="12.373265">
        <ele>1632.925</ele>
        <time>2018-09-10T12:34:28Z</time>
      </trkpt>
      <trkpt lat="46.698969" lon="12.373234">
        <ele>1632.417</ele>
        <time>2018-09-10T12:34:29Z</time>
      </trkpt>
      <trkpt lat="46.698953" lon="12.373186">
        <ele>1631.908</ele>
        <time>2018-09-10T12:34:30Z</time>
      </trkpt>
      <trkpt lat="46.698958" lon="12.373135">
        <ele>1631.422</ele>
        <time>2018-09-10T12:34:31Z</time>
      </trkpt>
      <trkpt lat="46.698981" lon="12.373091">
        <ele>1631.064</ele>
        <time>2018-09-10T12:34:32Z</time>
      </trkpt>
      <trkpt lat="46.699014" lon="12.373066">
        <ele>1630.522</ele>
        <time>2018-09-10T12:34:33Z</time>
      </trkpt>
      <trkpt lat="46.699053" lon="12.373052">
        <ele>1630.017</ele>
        <time>2018-09-10T12:34:34Z</time>
      </trkpt>
      <trkpt lat="46.699091" lon="12.373042">
        <ele>1629.545</ele>
        <time>2018-09-10T12:34:35Z</time>
      </trkpt>
      <trkpt lat="46.699403" lon="12.373017">
        <ele>1627.675</ele>
        <time>2018-09-10T12:34:42Z</time>
      </trkpt>
      <trkpt lat="46.699445" lon="12.373024">
        <ele>1627.190</ele>
        <time>2018-09-10T12:34:43Z</time>
      </trkpt>
      <trkpt lat="46.699489" lon="12.373033">
        <ele>1626.668</ele>
        <time>2018-09-10T12:34:44Z</time>
      </trkpt>
      <trkpt lat="46.699530" lon="12.373048">
        <ele>1626.634</ele>
        <time>2018-09-10T12:34:45Z</time>
      </trkpt>
      <trkpt lat="46.699571" lon="12.373070">
        <ele>1626.655</ele>
        <time>2018-09-10T12:34:46Z</time>
      </trkpt>
      <trkpt lat="46.699609" lon="12.373090">
        <ele>1626.210</ele>
        <time>2018-09-10T12:34:47Z</time>
      </trkpt>
      <trkpt lat="46.699643" lon="12.373111">
        <ele>1626.208</ele>
        <time>2018-09-10T12:34:48Z</time>
      </trkpt>
      <trkpt lat="46.699681" lon="12.373130">
        <ele>1626.257</ele>
        <time>2018-09-10T12:34:49Z</time>
      </trkpt>
      <trkpt lat="46.699729" lon="12.373139">
        <ele>1625.749</ele>
        <time>2018-09-10T12:34:50Z</time>
      </trkpt>
      <trkpt lat="46.699779" lon="12.373148">
        <ele>1625.217</ele>
        <time>2018-09-10T12:34:51Z</time>
      </trkpt>
      <trkpt lat="46.700045" lon="12.373096">
        <ele>1623.372</ele>
        <time>2018-09-10T12:34:58Z</time>
      </trkpt>
      <trkpt lat="46.700533" lon="12.373103">
        <ele>1616.110</ele>
        <time>2018-09-10T12:35:07Z</time>
      </trkpt>
      <trkpt lat="46.700863" lon="12.373139">
        <ele>1611.750</ele>
        <time>2018-09-10T12:35:13Z</time>
      </trkpt>
      <trkpt lat="46.700909" lon="12.373113">
        <ele>1611.385</ele>
        <time>2018-09-10T12:35:14Z</time>
      </trkpt>
      <trkpt lat="46.700940" lon="12.373067">
        <ele>1610.823</ele>
        <time>2018-09-10T12:35:15Z</time>
      </trkpt>
      <trkpt lat="46.700952" lon="12.373008">
        <ele>1610.891</ele>
        <time>2018-09-10T12:35:16Z</time>
      </trkpt>
      <trkpt lat="46.700946" lon="12.372947">
        <ele>1610.381</ele>
        <time>2018-09-10T12:35:17Z</time>
      </trkpt>
      <trkpt lat="46.700924" lon="12.372895">
        <ele>1610.319</ele>
        <time>2018-09-10T12:35:18Z</time>
      </trkpt>
      <trkpt lat="46.700891" lon="12.372843">
        <ele>1609.808</ele>
        <time>2018-09-10T12:35:19Z</time>
      </trkpt>
      <trkpt lat="46.700861" lon="12.372806">
        <ele>1609.343</ele>
        <time>2018-09-10T12:35:20Z</time>
      </trkpt>
      <trkpt lat="46.700838" lon="12.372771">
        <ele>1608.935</ele>
        <time>2018-09-10T12:35:21Z</time>
      </trkpt>
      <trkpt lat="46.700680" lon="12.372481">
        <ele>1606.553</ele>
        <time>2018-09-10T12:35:31Z</time>
      </trkpt>
      <trkpt lat="46.700454" lon="12.372052">
        <ele>1603.658</ele>
        <time>2018-09-10T12:35:39Z</time>
      </trkpt>
      <trkpt lat="46.700430" lon="12.371982">
        <ele>1602.616</ele>
        <time>2018-09-10T12:35:40Z</time>
      </trkpt>
      <trkpt lat="46.700377" lon="12.371831">
        <ele>1601.266</ele>
        <time>2018-09-10T12:35:42Z</time>
      </trkpt>
      <trkpt lat="46.700341" lon="12.371759">
        <ele>1600.791</ele>
        <time>2018-09-10T12:35:43Z</time>
      </trkpt>
      <trkpt lat="46.700303" lon="12.371693">
        <ele>1599.749</ele>
        <time>2018-09-10T12:35:44Z</time>
      </trkpt>
      <trkpt lat="46.700258" lon="12.371627">
        <ele>1599.719</ele>
        <time>2018-09-10T12:35:45Z</time>
      </trkpt>
      <trkpt lat="46.700212" lon="12.371565">
        <ele>1599.209</ele>
        <time>2018-09-10T12:35:46Z</time>
      </trkpt>
      <trkpt lat="46.699895" lon="12.371182">
        <ele>1597.319</ele>
        <time>2018-09-10T12:35:56Z</time>
      </trkpt>
      <trkpt lat="46.699825" lon="12.370830">
        <ele>1595.408</ele>
        <time>2018-09-10T12:36:07Z</time>
      </trkpt>
      <trkpt lat="46.699817" lon="12.370433">
        <ele>1594.035</ele>
        <time>2018-09-10T12:36:17Z</time>
      </trkpt>
      <trkpt lat="46.699691" lon="12.370264">
        <ele>1592.087</ele>
        <time>2018-09-10T12:36:22Z</time>
      </trkpt>
      <trkpt lat="46.699656" lon="12.370229">
        <ele>1592.085</ele>
        <time>2018-09-10T12:36:23Z</time>
      </trkpt>
      <trkpt lat="46.699615" lon="12.370205">
        <ele>1592.020</ele>
        <time>2018-09-10T12:36:24Z</time>
      </trkpt>
      <trkpt lat="46.699574" lon="12.370180">
        <ele>1592.088</ele>
        <time>2018-09-10T12:36:25Z</time>
      </trkpt>
      <trkpt lat="46.699534" lon="12.370149">
        <ele>1592.028</ele>
        <time>2018-09-10T12:36:26Z</time>
      </trkpt>
      <trkpt lat="46.699408" lon="12.370030">
        <ele>1591.613</ele>
        <time>2018-09-10T12:36:29Z</time>
      </trkpt>
      <trkpt lat="46.699239" lon="12.369831">
        <ele>1591.661</ele>
        <time>2018-09-10T12:36:33Z</time>
      </trkpt>
      <trkpt lat="46.699206" lon="12.369779">
        <ele>1592.018</ele>
        <time>2018-09-10T12:36:34Z</time>
      </trkpt>
      <trkpt lat="46.699182" lon="12.369732">
        <ele>1592.098</ele>
        <time>2018-09-10T12:36:35Z</time>
      </trkpt>
      <trkpt lat="46.699167" lon="12.369695">
        <ele>1591.617</ele>
        <time>2018-09-10T12:36:36Z</time>
      </trkpt>
      <trkpt lat="46.699156" lon="12.369662">
        <ele>1591.608</ele>
        <time>2018-09-10T12:36:37Z</time>
      </trkpt>
      <trkpt lat="46.699147" lon="12.369629">
        <ele>1591.665</ele>
        <time>2018-09-10T12:36:38Z</time>
      </trkpt>
      <trkpt lat="46.699142" lon="12.369584">
        <ele>1590.147</ele>
        <time>2018-09-10T12:36:48Z</time>
      </trkpt>
      <trkpt lat="46.699148" lon="12.369587">
        <ele>1588.785</ele>
        <time>2018-09-10T12:37:17Z</time>
      </trkpt>
      <trkpt lat="46.699141" lon="12.369584">
        <ele>1588.210</ele>
        <time>2018-09-10T12:37:44Z</time>
      </trkpt>
      <trkpt lat="46.699142" lon="12.369565">
        <ele>1588.778</ele>
        <time>2018-09-10T12:37:47Z</time>
      </trkpt>
      <trkpt lat="46.699146" lon="12.369544">
        <ele>1588.718</ele>
        <time>2018-09-10T12:37:48Z</time>
      </trkpt>
      <trkpt lat="46.699150" lon="12.369516">
        <ele>1588.273</ele>
        <time>2018-09-10T12:37:49Z</time>
      </trkpt>
      <trkpt lat="46.699156" lon="12.369487">
        <ele>1588.291</ele>
        <time>2018-09-10T12:37:50Z</time>
      </trkpt>
      <trkpt lat="46.699166" lon="12.369459">
        <ele>1588.256</ele>
        <time>2018-09-10T12:37:51Z</time>
      </trkpt>
      <trkpt lat="46.699178" lon="12.369433">
        <ele>1587.759</ele>
        <time>2018-09-10T12:37:52Z</time>
      </trkpt>
      <trkpt lat="46.699293" lon="12.368948">
        <ele>1587.714</ele>
        <time>2018-09-10T12:38:05Z</time>
      </trkpt>
      <trkpt lat="46.699384" lon="12.368398">
        <ele>1584.308</ele>
        <time>2018-09-10T12:38:18Z</time>
      </trkpt>
      <trkpt lat="46.699370" lon="12.368054">
        <ele>1580.089</ele>
        <time>2018-09-10T12:38:24Z</time>
      </trkpt>
      <trkpt lat="46.699321" lon="12.367848">
        <ele>1577.121</ele>
        <time>2018-09-10T12:38:27Z</time>
      </trkpt>
      <trkpt lat="46.699317" lon="12.367766">
        <ele>1576.289</ele>
        <time>2018-09-10T12:38:28Z</time>
      </trkpt>
      <trkpt lat="46.699319" lon="12.367666">
        <ele>1575.244</ele>
        <time>2018-09-10T12:38:29Z</time>
      </trkpt>
      <trkpt lat="46.699334" lon="12.367073">
        <ele>1570.452</ele>
        <time>2018-09-10T12:38:34Z</time>
      </trkpt>
      <trkpt lat="46.699575" lon="12.366007">
        <ele>1562.232</ele>
        <time>2018-09-10T12:38:45Z</time>
      </trkpt>
      <trkpt lat="46.699589" lon="12.365935">
        <ele>1561.887</ele>
        <time>2018-09-10T12:38:46Z</time>
      </trkpt>
      <trkpt lat="46.699597" lon="12.365875">
        <ele>1561.385</ele>
        <time>2018-09-10T12:38:47Z</time>
      </trkpt>
      <trkpt lat="46.699600" lon="12.365830">
        <ele>1561.332</ele>
        <time>2018-09-10T12:38:48Z</time>
      </trkpt>
      <trkpt lat="46.699591" lon="12.365751">
        <ele>1561.392</ele>
        <time>2018-09-10T12:38:58Z</time>
      </trkpt>
      <trkpt lat="46.699591" lon="12.365729">
        <ele>1562.211</ele>
        <time>2018-09-10T12:39:22Z</time>
      </trkpt>
      <trkpt lat="46.699603" lon="12.365719">
        <ele>1562.208</ele>
        <time>2018-09-10T12:39:23Z</time>
      </trkpt>
      <trkpt lat="46.699829" lon="12.365274">
        <ele>1557.477</ele>
        <time>2018-09-10T12:39:33Z</time>
      </trkpt>
      <trkpt lat="46.700269" lon="12.364101">
        <ele>1546.459</ele>
        <time>2018-09-10T12:39:47Z</time>
      </trkpt>
      <trkpt lat="46.700794" lon="12.362831">
        <ele>1534.827</ele>
        <time>2018-09-10T12:39:58Z</time>
      </trkpt>
      <trkpt lat="46.701410" lon="12.361398">
        <ele>1526.272</ele>
        <time>2018-09-10T12:40:09Z</time>
      </trkpt>
      <trkpt lat="46.701916" lon="12.360499">
        <ele>1521.960</ele>
        <time>2018-09-10T12:40:16Z</time>
      </trkpt>
      <trkpt lat="46.701999" lon="12.360396">
        <ele>1521.960</ele>
        <time>2018-09-10T12:40:17Z</time>
      </trkpt>
      <trkpt lat="46.702388" lon="12.359939">
        <ele>1520.475</ele>
        <time>2018-09-10T12:40:22Z</time>
      </trkpt>
      <trkpt lat="46.702439" lon="12.359827">
        <ele>1520.423</ele>
        <time>2018-09-10T12:40:23Z</time>
      </trkpt>
      <trkpt lat="46.702480" lon="12.359709">
        <ele>1519.942</ele>
        <time>2018-09-10T12:40:24Z</time>
      </trkpt>
      <trkpt lat="46.702554" lon="12.359496">
        <ele>1518.522</ele>
        <time>2018-09-10T12:40:26Z</time>
      </trkpt>
      <trkpt lat="46.702599" lon="12.359409">
        <ele>1518.014</ele>
        <time>2018-09-10T12:40:27Z</time>
      </trkpt>
      <trkpt lat="46.702655" lon="12.359331">
        <ele>1517.508</ele>
        <time>2018-09-10T12:40:28Z</time>
      </trkpt>
      <trkpt lat="46.703170" lon="12.358505">
        <ele>1508.488</ele>
        <time>2018-09-10T12:40:37Z</time>
      </trkpt>
      <trkpt lat="46.703227" lon="12.358422">
        <ele>1507.410</ele>
        <time>2018-09-10T12:40:38Z</time>
      </trkpt>
      <trkpt lat="46.703289" lon="12.358349">
        <ele>1506.518</ele>
        <time>2018-09-10T12:40:39Z</time>
      </trkpt>
      <trkpt lat="46.703587" lon="12.357997">
        <ele>1503.673</ele>
        <time>2018-09-10T12:40:44Z</time>
      </trkpt>
      <trkpt lat="46.703647" lon="12.357963">
        <ele>1504.181</ele>
        <time>2018-09-10T12:40:45Z</time>
      </trkpt>
      <trkpt lat="46.703691" lon="12.357952">
        <ele>1504.161</ele>
        <time>2018-09-10T12:40:46Z</time>
      </trkpt>
      <trkpt lat="46.703892" lon="12.357913">
        <ele>1507.446</ele>
        <time>2018-09-10T12:40:55Z</time>
      </trkpt>
      <trkpt lat="46.703979" lon="12.357872">
        <ele>1508.444</ele>
        <time>2018-09-10T12:41:01Z</time>
      </trkpt>
      <trkpt lat="46.703993" lon="12.357862">
        <ele>1508.923</ele>
        <time>2018-09-10T12:41:02Z</time>
      </trkpt>
      <trkpt lat="46.704008" lon="12.357855">
        <ele>1508.983</ele>
        <time>2018-09-10T12:41:03Z</time>
      </trkpt>
      <trkpt lat="46.704025" lon="12.357853">
        <ele>1508.911</ele>
        <time>2018-09-10T12:41:04Z</time>
      </trkpt>
      <trkpt lat="46.704044" lon="12.357859">
        <ele>1509.408</ele>
        <time>2018-09-10T12:41:05Z</time>
      </trkpt>
      <trkpt lat="46.704061" lon="12.357864">
        <ele>1509.496</ele>
        <time>2018-09-10T12:41:06Z</time>
      </trkpt>
      <trkpt lat="46.704078" lon="12.357873">
        <ele>1509.468</ele>
        <time>2018-09-10T12:41:07Z</time>
      </trkpt>
      <trkpt lat="46.704384" lon="12.357921">
        <ele>1512.796</ele>
        <time>2018-09-10T12:41:26Z</time>
      </trkpt>
      <trkpt lat="46.704651" lon="12.357952">
        <ele>1516.191</ele>
        <time>2018-09-10T12:41:43Z</time>
      </trkpt>
      <trkpt lat="46.704892" lon="12.357999">
        <ele>1519.569</ele>
        <time>2018-09-10T12:41:58Z</time>
      </trkpt>
      <trkpt lat="46.705130" lon="12.358053">
        <ele>1520.479</ele>
        <time>2018-09-10T12:42:10Z</time>
      </trkpt>
      <trkpt lat="46.705450" lon="12.358091">
        <ele>1527.174</ele>
        <time>2018-09-10T12:42:23Z</time>
      </trkpt>
      <trkpt lat="46.705642" lon="12.357873">
        <ele>1530.052</ele>
        <time>2018-09-10T12:42:32Z</time>
      </trkpt>
      <trkpt lat="46.705625" lon="12.357377">
        <ele>1529.518</ele>
        <time>2018-09-10T12:42:47Z</time>
      </trkpt>
      <trkpt lat="46.705520" lon="12.356695">
        <ele>1525.298</ele>
        <time>2018-09-10T12:43:06Z</time>
      </trkpt>
      <trkpt lat="46.705494" lon="12.356133">
        <ele>1523.317</ele>
        <time>2018-09-10T12:43:20Z</time>
      </trkpt>
      <trkpt lat="46.705644" lon="12.355690">
        <ele>1524.308</ele>
        <time>2018-09-10T12:43:37Z</time>
      </trkpt>
      <trkpt lat="46.705672" lon="12.355641">
        <ele>1524.725</ele>
        <time>2018-09-10T12:43:40Z</time>
      </trkpt>
      <trkpt lat="46.705685" lon="12.355629">
        <ele>1524.727</ele>
        <time>2018-09-10T12:43:41Z</time>
      </trkpt>
      <trkpt lat="46.705699" lon="12.355619">
        <ele>1524.785</ele>
        <time>2018-09-10T12:43:42Z</time>
      </trkpt>
      <trkpt lat="46.705713" lon="12.355610">
        <ele>1524.750</ele>
        <time>2018-09-10T12:43:43Z</time>
      </trkpt>
      <trkpt lat="46.705728" lon="12.355603">
        <ele>1525.268</ele>
        <time>2018-09-10T12:43:44Z</time>
      </trkpt>
      <trkpt lat="46.705836" lon="12.355510">
        <ele>1525.728</ele>
        <time>2018-09-10T12:43:52Z</time>
      </trkpt>
      <trkpt lat="46.705847" lon="12.355489">
        <ele>1525.753</ele>
        <time>2018-09-10T12:43:53Z</time>
      </trkpt>
      <trkpt lat="46.705861" lon="12.355470">
        <ele>1525.731</ele>
        <time>2018-09-10T12:43:54Z</time>
      </trkpt>
      <trkpt lat="46.705875" lon="12.355456">
        <ele>1525.788</ele>
        <time>2018-09-10T12:43:55Z</time>
      </trkpt>
      <trkpt lat="46.705888" lon="12.355444">
        <ele>1525.724</ele>
        <time>2018-09-10T12:43:56Z</time>
      </trkpt>
      <trkpt lat="46.705901" lon="12.355432">
        <ele>1525.726</ele>
        <time>2018-09-10T12:43:57Z</time>
      </trkpt>
      <trkpt lat="46.705970" lon="12.355302">
        <ele>1526.708</ele>
        <time>2018-09-10T12:44:06Z</time>
      </trkpt>
      <trkpt lat="46.705972" lon="12.355287">
        <ele>1526.762</ele>
        <time>2018-09-10T12:44:07Z</time>
      </trkpt>
      <trkpt lat="46.705973" lon="12.355269">
        <ele>1526.764</ele>
        <time>2018-09-10T12:44:08Z</time>
      </trkpt>
      <trkpt lat="46.705985" lon="12.355224">
        <ele>1526.762</ele>
        <time>2018-09-10T12:44:11Z</time>
      </trkpt>
      <trkpt lat="46.705993" lon="12.355210">
        <ele>1526.737</ele>
        <time>2018-09-10T12:44:12Z</time>
      </trkpt>
      <trkpt lat="46.706001" lon="12.355198">
        <ele>1526.715</ele>
        <time>2018-09-10T12:44:13Z</time>
      </trkpt>
      <trkpt lat="46.706006" lon="12.355183">
        <ele>1527.135</ele>
        <time>2018-09-10T12:44:14Z</time>
      </trkpt>
      <trkpt lat="46.706013" lon="12.355170">
        <ele>1527.190</ele>
        <time>2018-09-10T12:44:15Z</time>
      </trkpt>
      <trkpt lat="46.706018" lon="12.355155">
        <ele>1527.658</ele>
        <time>2018-09-10T12:44:16Z</time>
      </trkpt>
      <trkpt lat="46.706025" lon="12.355142">
        <ele>1527.644</ele>
        <time>2018-09-10T12:44:17Z</time>
      </trkpt>
      <trkpt lat="46.706027" lon="12.355125">
        <ele>1528.105</ele>
        <time>2018-09-10T12:44:18Z</time>
      </trkpt>
      <trkpt lat="46.706030" lon="12.355109">
        <ele>1528.115</ele>
        <time>2018-09-10T12:44:19Z</time>
      </trkpt>
      <trkpt lat="46.706070" lon="12.354971">
        <ele>1528.608</ele>
        <time>2018-09-10T12:44:28Z</time>
      </trkpt>
      <trkpt lat="46.706069" lon="12.354955">
        <ele>1529.158</ele>
        <time>2018-09-10T12:44:29Z</time>
      </trkpt>
      <trkpt lat="46.706075" lon="12.354942">
        <ele>1529.190</ele>
        <time>2018-09-10T12:44:30Z</time>
      </trkpt>
      <trkpt lat="46.706079" lon="12.354924">
        <ele>1529.168</ele>
        <time>2018-09-10T12:44:31Z</time>
      </trkpt>
      <trkpt lat="46.706084" lon="12.354908">
        <ele>1529.173</ele>
        <time>2018-09-10T12:44:32Z</time>
      </trkpt>
      <trkpt lat="46.706098" lon="12.354868">
        <ele>1529.571</ele>
        <time>2018-09-10T12:44:35Z</time>
      </trkpt>
      <trkpt lat="46.706101" lon="12.354849">
        <ele>1530.081</ele>
        <time>2018-09-10T12:44:36Z</time>
      </trkpt>
      <trkpt lat="46.706114" lon="12.354807">
        <ele>1530.046</ele>
        <time>2018-09-10T12:44:39Z</time>
      </trkpt>
      <trkpt lat="46.706123" lon="12.354798">
        <ele>1530.584</ele>
        <time>2018-09-10T12:44:40Z</time>
      </trkpt>
      <trkpt lat="46.706129" lon="12.354782">
        <ele>1530.585</ele>
        <time>2018-09-10T12:44:41Z</time>
      </trkpt>
      <trkpt lat="46.706132" lon="12.354762">
        <ele>1531.089</ele>
        <time>2018-09-10T12:44:42Z</time>
      </trkpt>
      <trkpt lat="46.706138" lon="12.354745">
        <ele>1531.017</ele>
        <time>2018-09-10T12:44:43Z</time>
      </trkpt>
      <trkpt lat="46.706127" lon="12.354727">
        <ele>1531.508</ele>
        <time>2018-09-10T12:44:56Z</time>
      </trkpt>
      <trkpt lat="46.706126" lon="12.354734">
        <ele>1531.022</ele>
        <time>2018-09-10T12:45:20Z</time>
      </trkpt>
      <trkpt lat="46.706145" lon="12.354710">
        <ele>1531.024</ele>
        <time>2018-09-10T12:45:32Z</time>
      </trkpt>
      <trkpt lat="46.706160" lon="12.354667">
        <ele>1531.532</ele>
        <time>2018-09-10T12:45:35Z</time>
      </trkpt>
      <trkpt lat="46.706270" lon="12.354413">
        <ele>1534.847</ele>
        <time>2018-09-10T12:45:53Z</time>
      </trkpt>
      <trkpt lat="46.706420" lon="12.354157">
        <ele>1538.215</ele>
        <time>2018-09-10T12:46:12Z</time>
      </trkpt>
      <trkpt lat="46.706488" lon="12.354095">
        <ele>1539.295</ele>
        <time>2018-09-10T12:46:19Z</time>
      </trkpt>
      <trkpt lat="46.706496" lon="12.354079">
        <ele>1539.290</ele>
        <time>2018-09-10T12:46:20Z</time>
      </trkpt>
      <trkpt lat="46.706502" lon="12.354061">
        <ele>1539.638</ele>
        <time>2018-09-10T12:46:21Z</time>
      </trkpt>
      <trkpt lat="46.706510" lon="12.354045">
        <ele>1539.662</ele>
        <time>2018-09-10T12:46:22Z</time>
      </trkpt>
      <trkpt lat="46.706518" lon="12.354033">
        <ele>1539.683</ele>
        <time>2018-09-10T12:46:23Z</time>
      </trkpt>
      <trkpt lat="46.706529" lon="12.354021">
        <ele>1539.611</ele>
        <time>2018-09-10T12:46:24Z</time>
      </trkpt>
      <trkpt lat="46.706540" lon="12.354012">
        <ele>1539.608</ele>
        <time>2018-09-10T12:46:25Z</time>
      </trkpt>
      <trkpt lat="46.706576" lon="12.353987">
        <ele>1539.680</ele>
        <time>2018-09-10T12:46:28Z</time>
      </trkpt>
      <trkpt lat="46.706587" lon="12.353974">
        <ele>1539.622</ele>
        <time>2018-09-10T12:46:29Z</time>
      </trkpt>
      <trkpt lat="46.706598" lon="12.353963">
        <ele>1539.670</ele>
        <time>2018-09-10T12:46:30Z</time>
      </trkpt>
      <trkpt lat="46.706611" lon="12.353954">
        <ele>1539.685</ele>
        <time>2018-09-10T12:46:31Z</time>
      </trkpt>
      <trkpt lat="46.706624" lon="12.353947">
        <ele>1540.183</ele>
        <time>2018-09-10T12:46:32Z</time>
      </trkpt>
      <trkpt lat="46.706637" lon="12.353942">
        <ele>1540.193</ele>
        <time>2018-09-10T12:46:33Z</time>
      </trkpt>
      <trkpt lat="46.706652" lon="12.353937">
        <ele>1540.118</ele>
        <time>2018-09-10T12:46:34Z</time>
      </trkpt>
      <trkpt lat="46.706665" lon="12.353929">
        <ele>1540.136</ele>
        <time>2018-09-10T12:46:35Z</time>
      </trkpt>
      <trkpt lat="46.706676" lon="12.353914">
        <ele>1540.611</ele>
        <time>2018-09-10T12:46:36Z</time>
      </trkpt>
      <trkpt lat="46.706685" lon="12.353898">
        <ele>1540.621</ele>
        <time>2018-09-10T12:46:37Z</time>
      </trkpt>
      <trkpt lat="46.706695" lon="12.353884">
        <ele>1540.603</ele>
        <time>2018-09-10T12:46:38Z</time>
      </trkpt>
      <trkpt lat="46.706708" lon="12.353871">
        <ele>1540.608</ele>
        <time>2018-09-10T12:46:39Z</time>
      </trkpt>
      <trkpt lat="46.706916" lon="12.353630">
        <ele>1542.565</ele>
        <time>2018-09-10T12:46:57Z</time>
      </trkpt>
      <trkpt lat="46.707127" lon="12.353425">
        <ele>1544.517</ele>
        <time>2018-09-10T12:47:12Z</time>
      </trkpt>
      <trkpt lat="46.707460" lon="12.353164">
        <ele>1546.495</ele>
        <time>2018-09-10T12:47:34Z</time>
      </trkpt>
      <trkpt lat="46.707721" lon="12.352916">
        <ele>1548.810</ele>
        <time>2018-09-10T12:47:52Z</time>
      </trkpt>
      <trkpt lat="46.707940" lon="12.352585">
        <ele>1551.218</ele>
        <time>2018-09-10T12:48:12Z</time>
      </trkpt>
      <trkpt lat="46.708104" lon="12.352327">
        <ele>1555.028</ele>
        <time>2018-09-10T12:48:29Z</time>
      </trkpt>
      <trkpt lat="46.708279" lon="12.352150">
        <ele>1557.973</ele>
        <time>2018-09-10T12:48:47Z</time>
      </trkpt>
      <trkpt lat="46.708474" lon="12.352052">
        <ele>1560.331</ele>
        <time>2018-09-10T12:49:05Z</time>
      </trkpt>
      <trkpt lat="46.708584" lon="12.351980">
        <ele>1561.896</ele>
        <time>2018-09-10T12:49:15Z</time>
      </trkpt>
      <trkpt lat="46.708595" lon="12.351977">
        <ele>1561.831</ele>
        <time>2018-09-10T12:49:16Z</time>
      </trkpt>
      <trkpt lat="46.708605" lon="12.351972">
        <ele>1562.224</ele>
        <time>2018-09-10T12:49:17Z</time>
      </trkpt>
      <trkpt lat="46.708617" lon="12.351969">
        <ele>1562.208</ele>
        <time>2018-09-10T12:49:18Z</time>
      </trkpt>
      <trkpt lat="46.708628" lon="12.351965">
        <ele>1562.783</ele>
        <time>2018-09-10T12:49:19Z</time>
      </trkpt>
      <trkpt lat="46.708861" lon="12.351848">
        <ele>1563.745</ele>
        <time>2018-09-10T12:49:39Z</time>
      </trkpt>
      <trkpt lat="46.708883" lon="12.351832">
        <ele>1564.233</ele>
        <time>2018-09-10T12:49:41Z</time>
      </trkpt>
      <trkpt lat="46.709020" lon="12.351588">
        <ele>1565.678</ele>
        <time>2018-09-10T12:49:59Z</time>
      </trkpt>
      <trkpt lat="46.709018" lon="12.351556">
        <ele>1565.686</ele>
        <time>2018-09-10T12:50:01Z</time>
      </trkpt>
      <trkpt lat="46.709013" lon="12.351537">
        <ele>1566.196</ele>
        <time>2018-09-10T12:50:02Z</time>
      </trkpt>
      <trkpt lat="46.709011" lon="12.351521">
        <ele>1566.171</ele>
        <time>2018-09-10T12:50:03Z</time>
      </trkpt>
      <trkpt lat="46.709011" lon="12.351504">
        <ele>1566.119</ele>
        <time>2018-09-10T12:50:04Z</time>
      </trkpt>
      <trkpt lat="46.709014" lon="12.351488">
        <ele>1566.638</ele>
        <time>2018-09-10T12:50:05Z</time>
      </trkpt>
      <trkpt lat="46.709016" lon="12.351472">
        <ele>1566.670</ele>
        <time>2018-09-10T12:50:06Z</time>
      </trkpt>
      <trkpt lat="46.709023" lon="12.351457">
        <ele>1567.017</ele>
        <time>2018-09-10T12:50:07Z</time>
      </trkpt>
      <trkpt lat="46.709032" lon="12.351445">
        <ele>1567.008</ele>
        <time>2018-09-10T12:50:08Z</time>
      </trkpt>
      <trkpt lat="46.709038" lon="12.351429">
        <ele>1567.067</ele>
        <time>2018-09-10T12:50:09Z</time>
      </trkpt>
      <trkpt lat="46.709039" lon="12.351412">
        <ele>1567.089</ele>
        <time>2018-09-10T12:50:10Z</time>
      </trkpt>
      <trkpt lat="46.709039" lon="12.351395">
        <ele>1567.017</ele>
        <time>2018-09-10T12:50:11Z</time>
      </trkpt>
      <trkpt lat="46.709039" lon="12.351376">
        <ele>1567.512</ele>
        <time>2018-09-10T12:50:12Z</time>
      </trkpt>
      <trkpt lat="46.709035" lon="12.351326">
        <ele>1568.070</ele>
        <time>2018-09-10T12:50:15Z</time>
      </trkpt>
      <trkpt lat="46.709037" lon="12.351311">
        <ele>1568.040</ele>
        <time>2018-09-10T12:50:16Z</time>
      </trkpt>
      <trkpt lat="46.709038" lon="12.351295">
        <ele>1568.585</ele>
        <time>2018-09-10T12:50:17Z</time>
      </trkpt>
      <trkpt lat="46.709037" lon="12.351278">
        <ele>1568.583</ele>
        <time>2018-09-10T12:50:18Z</time>
      </trkpt>
      <trkpt lat="46.709038" lon="12.351260">
        <ele>1568.572</ele>
        <time>2018-09-10T12:50:19Z</time>
      </trkpt>
      <trkpt lat="46.709041" lon="12.351243">
        <ele>1569.013</ele>
        <time>2018-09-10T12:50:20Z</time>
      </trkpt>
      <trkpt lat="46.709042" lon="12.351225">
        <ele>1569.014</ele>
        <time>2018-09-10T12:50:21Z</time>
      </trkpt>
      <trkpt lat="46.709043" lon="12.351207">
        <ele>1569.008</ele>
        <time>2018-09-10T12:50:22Z</time>
      </trkpt>
      <trkpt lat="46.709046" lon="12.351188">
        <ele>1569.041</ele>
        <time>2018-09-10T12:50:23Z</time>
      </trkpt>
      <trkpt lat="46.709050" lon="12.351170">
        <ele>1569.083</ele>
        <time>2018-09-10T12:50:24Z</time>
      </trkpt>
      <trkpt lat="46.709055" lon="12.351150">
        <ele>1569.431</ele>
        <time>2018-09-10T12:50:25Z</time>
      </trkpt>
      <trkpt lat="46.709200" lon="12.350811">
        <ele>1571.866</ele>
        <time>2018-09-10T12:50:47Z</time>
      </trkpt>
      <trkpt lat="46.709273" lon="12.350703">
        <ele>1573.354</ele>
        <time>2018-09-10T12:50:55Z</time>
      </trkpt>
      <trkpt lat="46.709482" lon="12.350533">
        <ele>1575.734</ele>
        <time>2018-09-10T12:51:14Z</time>
      </trkpt>
      <trkpt lat="46.709502" lon="12.350524">
        <ele>1576.239</ele>
        <time>2018-09-10T12:51:16Z</time>
      </trkpt>
      <trkpt lat="46.709514" lon="12.350523">
        <ele>1576.217</ele>
        <time>2018-09-10T12:51:17Z</time>
      </trkpt>
      <trkpt lat="46.709527" lon="12.350522">
        <ele>1576.244</ele>
        <time>2018-09-10T12:51:18Z</time>
      </trkpt>
      <trkpt lat="46.709540" lon="12.350517">
        <ele>1576.705</ele>
        <time>2018-09-10T12:51:19Z</time>
      </trkpt>
      <trkpt lat="46.709553" lon="12.350512">
        <ele>1576.715</ele>
        <time>2018-09-10T12:51:20Z</time>
      </trkpt>
      <trkpt lat="46.709565" lon="12.350505">
        <ele>1576.708</ele>
        <time>2018-09-10T12:51:21Z</time>
      </trkpt>
      <trkpt lat="46.709578" lon="12.350500">
        <ele>1576.258</ele>
        <time>2018-09-10T12:51:22Z</time>
      </trkpt>
      <trkpt lat="46.709780" lon="12.350387">
        <ele>1579.570</ele>
        <time>2018-09-10T12:51:40Z</time>
      </trkpt>
      <trkpt lat="46.710033" lon="12.350283">
        <ele>1581.558</ele>
        <time>2018-09-10T12:52:01Z</time>
      </trkpt>
      <trkpt lat="46.710239" lon="12.350204">
        <ele>1584.313</ele>
        <time>2018-09-10T12:52:18Z</time>
      </trkpt>
      <trkpt lat="46.710281" lon="12.350162">
        <ele>1584.841</ele>
        <time>2018-09-10T12:52:22Z</time>
      </trkpt>
      <trkpt lat="46.710292" lon="12.350153">
        <ele>1584.841</ele>
        <time>2018-09-10T12:52:23Z</time>
      </trkpt>
      <trkpt lat="46.710491" lon="12.349961">
        <ele>1585.896</ele>
        <time>2018-09-10T12:52:39Z</time>
      </trkpt>
      <trkpt lat="46.710708" lon="12.349652">
        <ele>1587.734</ele>
        <time>2018-09-10T12:52:58Z</time>
      </trkpt>
      <trkpt lat="46.710863" lon="12.349351">
        <ele>1588.714</ele>
        <time>2018-09-10T12:53:14Z</time>
      </trkpt>
      <trkpt lat="46.710984" lon="12.348918">
        <ele>1590.654</ele>
        <time>2018-09-10T12:53:33Z</time>
      </trkpt>
      <trkpt lat="46.711182" lon="12.348661">
        <ele>1590.609</ele>
        <time>2018-09-10T12:53:46Z</time>
      </trkpt>
      <trkpt lat="46.711308" lon="12.348554">
        <ele>1591.108</ele>
        <time>2018-09-10T12:53:59Z</time>
      </trkpt>
      <trkpt lat="46.711450" lon="12.348474">
        <ele>1591.185</ele>
        <time>2018-09-10T12:54:22Z</time>
      </trkpt>
      <trkpt lat="46.711491" lon="12.348452">
        <ele>1591.127</ele>
        <time>2018-09-10T12:54:23Z</time>
      </trkpt>
      <trkpt lat="46.711533" lon="12.348421">
        <ele>1590.685</ele>
        <time>2018-09-10T12:54:24Z</time>
      </trkpt>
      <trkpt lat="46.711576" lon="12.348378">
        <ele>1590.660</ele>
        <time>2018-09-10T12:54:25Z</time>
      </trkpt>
      <trkpt lat="46.711609" lon="12.348326">
        <ele>1590.678</ele>
        <time>2018-09-10T12:54:26Z</time>
      </trkpt>
      <trkpt lat="46.711632" lon="12.348267">
        <ele>1590.678</ele>
        <time>2018-09-10T12:54:27Z</time>
      </trkpt>
      <trkpt lat="46.711648" lon="12.348207">
        <ele>1590.643</ele>
        <time>2018-09-10T12:54:28Z</time>
      </trkpt>
      <trkpt lat="46.711662" lon="12.348155">
        <ele>1590.151</ele>
        <time>2018-09-10T12:54:29Z</time>
      </trkpt>
      <trkpt lat="46.711676" lon="12.348106">
        <ele>1590.175</ele>
        <time>2018-09-10T12:54:30Z</time>
      </trkpt>
      <trkpt lat="46.711879" lon="12.347697">
        <ele>1589.228</ele>
        <time>2018-09-10T12:54:42Z</time>
      </trkpt>
      <trkpt lat="46.712113" lon="12.347501">
        <ele>1588.720</ele>
        <time>2018-09-10T12:54:50Z</time>
      </trkpt>
      <trkpt lat="46.712193" lon="12.347390">
        <ele>1588.708</ele>
        <time>2018-09-10T12:54:52Z</time>
      </trkpt>
      <trkpt lat="46.712348" lon="12.347124">
        <ele>1588.221</ele>
        <time>2018-09-10T12:54:56Z</time>
      </trkpt>
      <trkpt lat="46.712381" lon="12.347071">
        <ele>1588.233</ele>
        <time>2018-09-10T12:54:57Z</time>
      </trkpt>
      <trkpt lat="46.712406" lon="12.347018">
        <ele>1588.211</ele>
        <time>2018-09-10T12:54:58Z</time>
      </trkpt>
      <trkpt lat="46.712595" lon="12.346643">
        <ele>1586.756</ele>
        <time>2018-09-10T12:55:05Z</time>
      </trkpt>
      <trkpt lat="46.712660" lon="12.346444">
        <ele>1585.844</ele>
        <time>2018-09-10T12:55:08Z</time>
      </trkpt>
      <trkpt lat="46.712676" lon="12.346374">
        <ele>1585.344</ele>
        <time>2018-09-10T12:55:09Z</time>
      </trkpt>
      <trkpt lat="46.712693" lon="12.346303">
        <ele>1585.359</ele>
        <time>2018-09-10T12:55:10Z</time>
      </trkpt>
      <trkpt lat="46.712754" lon="12.346005">
        <ele>1585.347</ele>
        <time>2018-09-10T12:55:14Z</time>
      </trkpt>
      <trkpt lat="46.712762" lon="12.345927">
        <ele>1585.379</ele>
        <time>2018-09-10T12:55:15Z</time>
      </trkpt>
      <trkpt lat="46.712775" lon="12.345852">
        <ele>1585.305</ele>
        <time>2018-09-10T12:55:16Z</time>
      </trkpt>
      <trkpt lat="46.712792" lon="12.345782">
        <ele>1585.325</ele>
        <time>2018-09-10T12:55:17Z</time>
      </trkpt>
      <trkpt lat="46.712813" lon="12.345714">
        <ele>1585.308</ele>
        <time>2018-09-10T12:55:18Z</time>
      </trkpt>
      <trkpt lat="46.712836" lon="12.345651">
        <ele>1585.381</ele>
        <time>2018-09-10T12:55:19Z</time>
      </trkpt>
      <trkpt lat="46.712942" lon="12.345372">
        <ele>1583.923</ele>
        <time>2018-09-10T12:55:23Z</time>
      </trkpt>
      <trkpt lat="46.712982" lon="12.345306">
        <ele>1582.931</ele>
        <time>2018-09-10T12:55:24Z</time>
      </trkpt>
      <trkpt lat="46.713029" lon="12.345245">
        <ele>1581.936</ele>
        <time>2018-09-10T12:55:25Z</time>
      </trkpt>
      <trkpt lat="46.713087" lon="12.345190">
        <ele>1581.084</ele>
        <time>2018-09-10T12:55:26Z</time>
      </trkpt>
      <trkpt lat="46.713152" lon="12.345145">
        <ele>1580.554</ele>
        <time>2018-09-10T12:55:27Z</time>
      </trkpt>
      <trkpt lat="46.713217" lon="12.345100">
        <ele>1579.579</ele>
        <time>2018-09-10T12:55:28Z</time>
      </trkpt>
      <trkpt lat="46.713279" lon="12.345044">
        <ele>1579.157</ele>
        <time>2018-09-10T12:55:29Z</time>
      </trkpt>
      <trkpt lat="46.713333" lon="12.344980">
        <ele>1579.152</ele>
        <time>2018-09-10T12:55:30Z</time>
      </trkpt>
      <trkpt lat="46.713381" lon="12.344913">
        <ele>1578.653</ele>
        <time>2018-09-10T12:55:31Z</time>
      </trkpt>
      <trkpt lat="46.713423" lon="12.344844">
        <ele>1578.108</ele>
        <time>2018-09-10T12:55:32Z</time>
      </trkpt>
      <trkpt lat="46.713454" lon="12.344769">
        <ele>1577.608</ele>
        <time>2018-09-10T12:55:33Z</time>
      </trkpt>
      <trkpt lat="46.713477" lon="12.344690">
        <ele>1577.679</ele>
        <time>2018-09-10T12:55:34Z</time>
      </trkpt>
      <trkpt lat="46.713493" lon="12.344613">
        <ele>1577.651</ele>
        <time>2018-09-10T12:55:35Z</time>
      </trkpt>
      <trkpt lat="46.713503" lon="12.344544">
        <ele>1577.619</ele>
        <time>2018-09-10T12:55:36Z</time>
      </trkpt>
      <trkpt lat="46.713514" lon="12.344483">
        <ele>1577.674</ele>
        <time>2018-09-10T12:55:37Z</time>
      </trkpt>
      <trkpt lat="46.713529" lon="12.344428">
        <ele>1577.682</ele>
        <time>2018-09-10T12:55:38Z</time>
      </trkpt>
      <trkpt lat="46.713547" lon="12.344378">
        <ele>1578.132</ele>
        <time>2018-09-10T12:55:39Z</time>
      </trkpt>
      <trkpt lat="46.713568" lon="12.344326">
        <ele>1578.187</ele>
        <time>2018-09-10T12:55:40Z</time>
      </trkpt>
      <trkpt lat="46.713778" lon="12.343814">
        <ele>1581.535</ele>
        <time>2018-09-10T12:55:52Z</time>
      </trkpt>
      <trkpt lat="46.713911" lon="12.343510">
        <ele>1584.366</ele>
        <time>2018-09-10T12:56:06Z</time>
      </trkpt>
      <trkpt lat="46.714029" lon="12.343154">
        <ele>1588.729</ele>
        <time>2018-09-10T12:56:22Z</time>
      </trkpt>
      <trkpt lat="46.714143" lon="12.342847">
        <ele>1586.721</ele>
        <time>2018-09-10T12:56:28Z</time>
      </trkpt>
      <trkpt lat="46.714480" lon="12.342297">
        <ele>1582.408</ele>
        <time>2018-09-10T12:56:40Z</time>
      </trkpt>
      <trkpt lat="46.714687" lon="12.341926">
        <ele>1582.960</ele>
        <time>2018-09-10T12:56:53Z</time>
      </trkpt>
      <trkpt lat="46.714999" lon="12.341514">
        <ele>1581.512</ele>
        <time>2018-09-10T12:57:05Z</time>
      </trkpt>
      <trkpt lat="46.715180" lon="12.341324">
        <ele>1579.550</ele>
        <time>2018-09-10T12:57:09Z</time>
      </trkpt>
      <trkpt lat="46.715405" lon="12.341041">
        <ele>1579.155</ele>
        <time>2018-09-10T12:57:15Z</time>
      </trkpt>
      <trkpt lat="46.715533" lon="12.340863">
        <ele>1580.043</ele>
        <time>2018-09-10T12:57:19Z</time>
      </trkpt>
      <trkpt lat="46.715595" lon="12.340775">
        <ele>1580.043</ele>
        <time>2018-09-10T12:57:21Z</time>
      </trkpt>
      <trkpt lat="46.715659" lon="12.340690">
        <ele>1580.048</ele>
        <time>2018-09-10T12:57:23Z</time>
      </trkpt>
      <trkpt lat="46.715689" lon="12.340644">
        <ele>1580.046</ele>
        <time>2018-09-10T12:57:24Z</time>
      </trkpt>
      <trkpt lat="46.715722" lon="12.340578">
        <ele>1580.017</ele>
        <time>2018-09-10T12:57:25Z</time>
      </trkpt>
      <trkpt lat="46.715879" lon="12.340304">
        <ele>1576.787</ele>
        <time>2018-09-10T12:57:30Z</time>
      </trkpt>
      <trkpt lat="46.716079" lon="12.340073">
        <ele>1573.315</ele>
        <time>2018-09-10T12:57:35Z</time>
      </trkpt>
      <trkpt lat="46.716119" lon="12.340023">
        <ele>1572.308</ele>
        <time>2018-09-10T12:57:36Z</time>
      </trkpt>
      <trkpt lat="46.716158" lon="12.339964">
        <ele>1571.845</ele>
        <time>2018-09-10T12:57:37Z</time>
      </trkpt>
      <trkpt lat="46.716196" lon="12.339911">
        <ele>1571.487</ele>
        <time>2018-09-10T12:57:38Z</time>
      </trkpt>
      <trkpt lat="46.716236" lon="12.339869">
        <ele>1570.455</ele>
        <time>2018-09-10T12:57:39Z</time>
      </trkpt>
      <trkpt lat="46.716282" lon="12.339830">
        <ele>1569.920</ele>
        <time>2018-09-10T12:57:40Z</time>
      </trkpt>
      <trkpt lat="46.716327" lon="12.339804">
        <ele>1569.098</ele>
        <time>2018-09-10T12:57:41Z</time>
      </trkpt>
      <trkpt lat="46.716372" lon="12.339777">
        <ele>1568.548</ele>
        <time>2018-09-10T12:57:42Z</time>
      </trkpt>
      <trkpt lat="46.716411" lon="12.339741">
        <ele>1568.043</ele>
        <time>2018-09-10T12:57:43Z</time>
      </trkpt>
      <trkpt lat="46.716438" lon="12.339690">
        <ele>1567.571</ele>
        <time>2018-09-10T12:57:44Z</time>
      </trkpt>
      <trkpt lat="46.716446" lon="12.339631">
        <ele>1567.522</ele>
        <time>2018-09-10T12:57:45Z</time>
      </trkpt>
      <trkpt lat="46.716438" lon="12.339576">
        <ele>1567.062</ele>
        <time>2018-09-10T12:57:46Z</time>
      </trkpt>
      <trkpt lat="46.716417" lon="12.339530">
        <ele>1566.108</ele>
        <time>2018-09-10T12:57:47Z</time>
      </trkpt>
      <trkpt lat="46.716386" lon="12.339491">
        <ele>1565.108</ele>
        <time>2018-09-10T12:57:48Z</time>
      </trkpt>
      <trkpt lat="46.716353" lon="12.339460">
        <ele>1563.726</ele>
        <time>2018-09-10T12:57:49Z</time>
      </trkpt>
      <trkpt lat="46.716312" lon="12.339438">
        <ele>1562.238</ele>
        <time>2018-09-10T12:57:50Z</time>
      </trkpt>
      <trkpt lat="46.716265" lon="12.339425">
        <ele>1560.866</ele>
        <time>2018-09-10T12:57:51Z</time>
      </trkpt>
      <trkpt lat="46.716223" lon="12.339419">
        <ele>1559.811</ele>
        <time>2018-09-10T12:57:52Z</time>
      </trkpt>
      <trkpt lat="46.716176" lon="12.339420">
        <ele>1558.469</ele>
        <time>2018-09-10T12:57:53Z</time>
      </trkpt>
      <trkpt lat="46.716136" lon="12.339427">
        <ele>1557.479</ele>
        <time>2018-09-10T12:57:54Z</time>
      </trkpt>
      <trkpt lat="46.716100" lon="12.339435">
        <ele>1556.574</ele>
        <time>2018-09-10T12:57:55Z</time>
      </trkpt>
      <trkpt lat="46.716029" lon="12.339428">
        <ele>1554.132</ele>
        <time>2018-09-10T12:57:57Z</time>
      </trkpt>
      <trkpt lat="46.716009" lon="12.339394">
        <ele>1553.184</ele>
        <time>2018-09-10T12:57:58Z</time>
      </trkpt>
      <trkpt lat="46.716009" lon="12.339355">
        <ele>1552.107</ele>
        <time>2018-09-10T12:57:59Z</time>
      </trkpt>
      <trkpt lat="46.716025" lon="12.339315">
        <ele>1551.217</ele>
        <time>2018-09-10T12:58:00Z</time>
      </trkpt>
      <trkpt lat="46.716053" lon="12.339276">
        <ele>1550.708</ele>
        <time>2018-09-10T12:58:01Z</time>
      </trkpt>
      <trkpt lat="46.716087" lon="12.339243">
        <ele>1550.272</ele>
        <time>2018-09-10T12:58:02Z</time>
      </trkpt>
      <trkpt lat="46.716119" lon="12.339215">
        <ele>1549.724</ele>
        <time>2018-09-10T12:58:03Z</time>
      </trkpt>
      <trkpt lat="46.716212" lon="12.339099">
        <ele>1549.392</ele>
        <time>2018-09-10T12:58:06Z</time>
      </trkpt>
      <trkpt lat="46.716239" lon="12.339046">
        <ele>1549.327</ele>
        <time>2018-09-10T12:58:07Z</time>
      </trkpt>
      <trkpt lat="46.716255" lon="12.338984">
        <ele>1548.815</ele>
        <time>2018-09-10T12:58:08Z</time>
      </trkpt>
      <trkpt lat="46.716254" lon="12.338921">
        <ele>1548.885</ele>
        <time>2018-09-10T12:58:09Z</time>
      </trkpt>
      <trkpt lat="46.716232" lon="12.338873">
        <ele>1548.340</ele>
        <time>2018-09-10T12:58:10Z</time>
      </trkpt>
      <trkpt lat="46.716196" lon="12.338848">
        <ele>1548.378</ele>
        <time>2018-09-10T12:58:11Z</time>
      </trkpt>
      <trkpt lat="46.716157" lon="12.338853">
        <ele>1548.322</ele>
        <time>2018-09-10T12:58:12Z</time>
      </trkpt>
      <trkpt lat="46.716116" lon="12.338875">
        <ele>1548.362</ele>
        <time>2018-09-10T12:58:13Z</time>
      </trkpt>
      <trkpt lat="46.716085" lon="12.338903">
        <ele>1548.308</ele>
        <time>2018-09-10T12:58:14Z</time>
      </trkpt>
      <trkpt lat="46.716049" lon="12.338948">
        <ele>1548.308</ele>
        <time>2018-09-10T12:58:15Z</time>
      </trkpt>
      <trkpt lat="46.716014" lon="12.338990">
        <ele>1547.856</ele>
        <time>2018-09-10T12:58:16Z</time>
      </trkpt>
      <trkpt lat="46.715978" lon="12.339023">
        <ele>1547.338</ele>
        <time>2018-09-10T12:58:17Z</time>
      </trkpt>
      <trkpt lat="46.715931" lon="12.339058">
        <ele>1546.986</ele>
        <time>2018-09-10T12:58:18Z</time>
      </trkpt>
      <trkpt lat="46.715893" lon="12.339085">
        <ele>1546.981</ele>
        <time>2018-09-10T12:58:19Z</time>
      </trkpt>
      <trkpt lat="46.715859" lon="12.339111">
        <ele>1546.439</ele>
        <time>2018-09-10T12:58:20Z</time>
      </trkpt>
      <trkpt lat="46.715825" lon="12.339139">
        <ele>1546.499</ele>
        <time>2018-09-10T12:58:21Z</time>
      </trkpt>
      <trkpt lat="46.715790" lon="12.339168">
        <ele>1545.914</ele>
        <time>2018-09-10T12:58:22Z</time>
      </trkpt>
      <trkpt lat="46.715707" lon="12.339241">
        <ele>1545.422</ele>
        <time>2018-09-10T12:58:24Z</time>
      </trkpt>
      <trkpt lat="46.715668" lon="12.339284">
        <ele>1544.924</ele>
        <time>2018-09-10T12:58:25Z</time>
      </trkpt>
      <trkpt lat="46.715631" lon="12.339321">
        <ele>1544.904</ele>
        <time>2018-09-10T12:58:26Z</time>
      </trkpt>
      <trkpt lat="46.715590" lon="12.339349">
        <ele>1544.014</ele>
        <time>2018-09-10T12:58:27Z</time>
      </trkpt>
      <trkpt lat="46.715550" lon="12.339364">
        <ele>1543.508</ele>
        <time>2018-09-10T12:58:28Z</time>
      </trkpt>
      <trkpt lat="46.715504" lon="12.339363">
        <ele>1543.016</ele>
        <time>2018-09-10T12:58:29Z</time>
      </trkpt>
      <trkpt lat="46.715461" lon="12.339330">
        <ele>1542.568</ele>
        <time>2018-09-10T12:58:30Z</time>
      </trkpt>
      <trkpt lat="46.715438" lon="12.339274">
        <ele>1542.096</ele>
        <time>2018-09-10T12:58:31Z</time>
      </trkpt>
      <trkpt lat="46.715434" lon="12.339231">
        <ele>1541.631</ele>
        <time>2018-09-10T12:58:32Z</time>
      </trkpt>
      <trkpt lat="46.715436" lon="12.339168">
        <ele>1541.119</ele>
        <time>2018-09-10T12:58:33Z</time>
      </trkpt>
      <trkpt lat="46.715426" lon="12.338407">
        <ele>1534.829</ele>
        <time>2018-09-10T12:58:42Z</time>
      </trkpt>
      <trkpt lat="46.715349" lon="12.337836">
        <ele>1532.484</ele>
        <time>2018-09-10T12:58:48Z</time>
      </trkpt>
      <trkpt lat="46.715349" lon="12.337743">
        <ele>1532.072</ele>
        <time>2018-09-10T12:58:49Z</time>
      </trkpt>
      <trkpt lat="46.715357" lon="12.337654">
        <ele>1531.545</ele>
        <time>2018-09-10T12:58:50Z</time>
      </trkpt>
      <trkpt lat="46.715372" lon="12.337572">
        <ele>1531.047</ele>
        <time>2018-09-10T12:58:51Z</time>
      </trkpt>
      <trkpt lat="46.715391" lon="12.337496">
        <ele>1530.011</ele>
        <time>2018-09-10T12:58:52Z</time>
      </trkpt>
      <trkpt lat="46.715487" lon="12.337113">
        <ele>1524.708</ele>
        <time>2018-09-10T12:58:57Z</time>
      </trkpt>
      <trkpt lat="46.715548" lon="12.336747">
        <ele>1521.438</ele>
        <time>2018-09-10T12:59:02Z</time>
      </trkpt>
      <trkpt lat="46.715547" lon="12.336677">
        <ele>1520.470</ele>
        <time>2018-09-10T12:59:03Z</time>
      </trkpt>
      <trkpt lat="46.715538" lon="12.336225">
        <ele>1514.618</ele>
        <time>2018-09-10T12:59:09Z</time>
      </trkpt>
      <trkpt lat="46.715578" lon="12.335975">
        <ele>1511.333</ele>
        <time>2018-09-10T12:59:12Z</time>
      </trkpt>
      <trkpt lat="46.715602" lon="12.335886">
        <ele>1510.391</ele>
        <time>2018-09-10T12:59:13Z</time>
      </trkpt>
      <trkpt lat="46.715718" lon="12.335454">
        <ele>1506.091</ele>
        <time>2018-09-10T12:59:18Z</time>
      </trkpt>
      <trkpt lat="46.715729" lon="12.335355">
        <ele>1505.516</ele>
        <time>2018-09-10T12:59:19Z</time>
      </trkpt>
      <trkpt lat="46.715736" lon="12.335251">
        <ele>1505.034</ele>
        <time>2018-09-10T12:59:20Z</time>
      </trkpt>
      <trkpt lat="46.715763" lon="12.334834">
        <ele>1504.127</ele>
        <time>2018-09-10T12:59:24Z</time>
      </trkpt>
      <trkpt lat="46.715975" lon="12.334086">
        <ele>1502.268</ele>
        <time>2018-09-10T12:59:32Z</time>
      </trkpt>
      <trkpt lat="46.716018" lon="12.334007">
        <ele>1501.714</ele>
        <time>2018-09-10T12:59:33Z</time>
      </trkpt>
      <trkpt lat="46.716066" lon="12.333938">
        <ele>1501.208</ele>
        <time>2018-09-10T12:59:34Z</time>
      </trkpt>
      <trkpt lat="46.716114" lon="12.333880">
        <ele>1500.246</ele>
        <time>2018-09-10T12:59:35Z</time>
      </trkpt>
      <trkpt lat="46.716160" lon="12.333827">
        <ele>1499.798</ele>
        <time>2018-09-10T12:59:36Z</time>
      </trkpt>
      <trkpt lat="46.716201" lon="12.333768">
        <ele>1498.846</ele>
        <time>2018-09-10T12:59:37Z</time>
      </trkpt>
      <trkpt lat="46.716232" lon="12.333701">
        <ele>1498.361</ele>
        <time>2018-09-10T12:59:38Z</time>
      </trkpt>
      <trkpt lat="46.716258" lon="12.333627">
        <ele>1497.369</ele>
        <time>2018-09-10T12:59:39Z</time>
      </trkpt>
      <trkpt lat="46.716280" lon="12.333543">
        <ele>1496.479</ele>
        <time>2018-09-10T12:59:40Z</time>
      </trkpt>
      <trkpt lat="46.716299" lon="12.333458">
        <ele>1495.424</ele>
        <time>2018-09-10T12:59:41Z</time>
      </trkpt>
      <trkpt lat="46.716364" lon="12.333179">
        <ele>1492.172</ele>
        <time>2018-09-10T12:59:44Z</time>
      </trkpt>
      <trkpt lat="46.716401" lon="12.333104">
        <ele>1491.653</ele>
        <time>2018-09-10T12:59:45Z</time>
      </trkpt>
      <trkpt lat="46.716444" lon="12.333054">
        <ele>1490.604</ele>
        <time>2018-09-10T12:59:46Z</time>
      </trkpt>
      <trkpt lat="46.716487" lon="12.333021">
        <ele>1490.114</ele>
        <time>2018-09-10T12:59:47Z</time>
      </trkpt>
      <trkpt lat="46.716526" lon="12.332997">
        <ele>1489.708</ele>
        <time>2018-09-10T12:59:48Z</time>
      </trkpt>
      <trkpt lat="46.716563" lon="12.332969">
        <ele>1489.229</ele>
        <time>2018-09-10T12:59:49Z</time>
      </trkpt>
      <trkpt lat="46.716601" lon="12.332930">
        <ele>1488.241</ele>
        <time>2018-09-10T12:59:50Z</time>
      </trkpt>
      <trkpt lat="46.716684" lon="12.332828">
        <ele>1487.369</ele>
        <time>2018-09-10T12:59:52Z</time>
      </trkpt>
      <trkpt lat="46.716723" lon="12.332766">
        <ele>1486.394</ele>
        <time>2018-09-10T12:59:53Z</time>
      </trkpt>
      <trkpt lat="46.716762" lon="12.332701">
        <ele>1485.862</ele>
        <time>2018-09-10T12:59:54Z</time>
      </trkpt>
      <trkpt lat="46.716960" lon="12.332443">
        <ele>1483.462</ele>
        <time>2018-09-10T12:59:59Z</time>
      </trkpt>
      <trkpt lat="46.716997" lon="12.332413">
        <ele>1482.937</ele>
        <time>2018-09-10T13:00:00Z</time>
      </trkpt>
      <trkpt lat="46.717033" lon="12.332381">
        <ele>1482.445</ele>
        <time>2018-09-10T13:00:01Z</time>
      </trkpt>
      <trkpt lat="46.717052" lon="12.332333">
        <ele>1482.046</ele>
        <time>2018-09-10T13:00:02Z</time>
      </trkpt>
      <trkpt lat="46.717046" lon="12.332281">
        <ele>1481.588</ele>
        <time>2018-09-10T13:00:03Z</time>
      </trkpt>
      <trkpt lat="46.717018" lon="12.332244">
        <ele>1481.016</ele>
        <time>2018-09-10T13:00:04Z</time>
      </trkpt>
      <trkpt lat="46.716977" lon="12.332231">
        <ele>1480.508</ele>
        <time>2018-09-10T13:00:05Z</time>
      </trkpt>
      <trkpt lat="46.716931" lon="12.332237">
        <ele>1479.628</ele>
        <time>2018-09-10T13:00:06Z</time>
      </trkpt>
      <trkpt lat="46.716888" lon="12.332244">
        <ele>1479.190</ele>
        <time>2018-09-10T13:00:07Z</time>
      </trkpt>
      <trkpt lat="46.716847" lon="12.332248">
        <ele>1478.168</ele>
        <time>2018-09-10T13:00:08Z</time>
      </trkpt>
      <trkpt lat="46.716721" lon="12.332260">
        <ele>1475.283</ele>
        <time>2018-09-10T13:00:11Z</time>
      </trkpt>
      <trkpt lat="46.716682" lon="12.332237">
        <ele>1474.381</ele>
        <time>2018-09-10T13:00:12Z</time>
      </trkpt>
      <trkpt lat="46.716651" lon="12.332197">
        <ele>1473.381</ele>
        <time>2018-09-10T13:00:13Z</time>
      </trkpt>
      <trkpt lat="46.716633" lon="12.332146">
        <ele>1472.446</ele>
        <time>2018-09-10T13:00:14Z</time>
      </trkpt>
      <trkpt lat="46.716639" lon="12.332093">
        <ele>1471.474</ele>
        <time>2018-09-10T13:00:15Z</time>
      </trkpt>
      <trkpt lat="46.716663" lon="12.332040">
        <ele>1470.928</ele>
        <time>2018-09-10T13:00:16Z</time>
      </trkpt>
      <trkpt lat="46.716694" lon="12.332000">
        <ele>1469.989</ele>
        <time>2018-09-10T13:00:17Z</time>
      </trkpt>
      <trkpt lat="46.716727" lon="12.331964">
        <ele>1469.517</ele>
        <time>2018-09-10T13:00:18Z</time>
      </trkpt>
      <trkpt lat="46.716749" lon="12.331919">
        <ele>1469.008</ele>
        <time>2018-09-10T13:00:19Z</time>
      </trkpt>
      <trkpt lat="46.716751" lon="12.331868">
        <ele>1468.596</ele>
        <time>2018-09-10T13:00:20Z</time>
      </trkpt>
      <trkpt lat="46.716735" lon="12.331816">
        <ele>1468.078</ele>
        <time>2018-09-10T13:00:21Z</time>
      </trkpt>
      <trkpt lat="46.716713" lon="12.331767">
        <ele>1467.146</ele>
        <time>2018-09-10T13:00:22Z</time>
      </trkpt>
      <trkpt lat="46.716683" lon="12.331730">
        <ele>1466.661</ele>
        <time>2018-09-10T13:00:23Z</time>
      </trkpt>
      <trkpt lat="46.716646" lon="12.331696">
        <ele>1466.149</ele>
        <time>2018-09-10T13:00:24Z</time>
      </trkpt>
      <trkpt lat="46.716386" lon="12.331486">
        <ele>1461.389</ele>
        <time>2018-09-10T13:00:30Z</time>
      </trkpt>
      <trkpt lat="46.716343" lon="12.331484">
        <ele>1460.324</ele>
        <time>2018-09-10T13:00:31Z</time>
      </trkpt>
      <trkpt lat="46.716303" lon="12.331496">
        <ele>1459.452</ele>
        <time>2018-09-10T13:00:32Z</time>
      </trkpt>
      <trkpt lat="46.716263" lon="12.331516">
        <ele>1458.447</ele>
        <time>2018-09-10T13:00:33Z</time>
      </trkpt>
      <trkpt lat="46.716227" lon="12.331540">
        <ele>1457.529</ele>
        <time>2018-09-10T13:00:34Z</time>
      </trkpt>
      <trkpt lat="46.716188" lon="12.331552">
        <ele>1456.521</ele>
        <time>2018-09-10T13:00:35Z</time>
      </trkpt>
      <trkpt lat="46.716150" lon="12.331538">
        <ele>1456.008</ele>
        <time>2018-09-10T13:00:36Z</time>
      </trkpt>
      <trkpt lat="46.716125" lon="12.331500">
        <ele>1455.078</ele>
        <time>2018-09-10T13:00:37Z</time>
      </trkpt>
      <trkpt lat="46.716122" lon="12.331445">
        <ele>1454.670</ele>
        <time>2018-09-10T13:00:38Z</time>
      </trkpt>
      <trkpt lat="46.716128" lon="12.331380">
        <ele>1454.198</ele>
        <time>2018-09-10T13:00:39Z</time>
      </trkpt>
      <trkpt lat="46.716135" lon="12.331310">
        <ele>1453.653</ele>
        <time>2018-09-10T13:00:40Z</time>
      </trkpt>
      <trkpt lat="46.716140" lon="12.331240">
        <ele>1453.681</ele>
        <time>2018-09-10T13:00:41Z</time>
      </trkpt>
      <trkpt lat="46.716149" lon="12.331105">
        <ele>1452.291</ele>
        <time>2018-09-10T13:00:43Z</time>
      </trkpt>
      <trkpt lat="46.716163" lon="12.331031">
        <ele>1451.296</ele>
        <time>2018-09-10T13:00:44Z</time>
      </trkpt>
      <trkpt lat="46.716313" lon="12.330452">
        <ele>1447.464</ele>
        <time>2018-09-10T13:00:51Z</time>
      </trkpt>
      <trkpt lat="46.716346" lon="12.330388">
        <ele>1447.428</ele>
        <time>2018-09-10T13:00:52Z</time>
      </trkpt>
      <trkpt lat="46.716381" lon="12.330339">
        <ele>1446.989</ele>
        <time>2018-09-10T13:00:53Z</time>
      </trkpt>
      <trkpt lat="46.716419" lon="12.330299">
        <ele>1446.417</ele>
        <time>2018-09-10T13:00:54Z</time>
      </trkpt>
      <trkpt lat="46.716462" lon="12.330263">
        <ele>1445.908</ele>
        <time>2018-09-10T13:00:55Z</time>
      </trkpt>
      <trkpt lat="46.716505" lon="12.330226">
        <ele>1445.426</ele>
        <time>2018-09-10T13:00:56Z</time>
      </trkpt>
      <trkpt lat="46.716683" lon="12.330080">
        <ele>1443.018</ele>
        <time>2018-09-10T13:01:00Z</time>
      </trkpt>
      <trkpt lat="46.716811" lon="12.329960">
        <ele>1440.126</ele>
        <time>2018-09-10T13:01:03Z</time>
      </trkpt>
      <trkpt lat="46.716963" lon="12.329773">
        <ele>1437.711</ele>
        <time>2018-09-10T13:01:08Z</time>
      </trkpt>
      <trkpt lat="46.717086" lon="12.329496">
        <ele>1434.489</ele>
        <time>2018-09-10T13:01:13Z</time>
      </trkpt>
      <trkpt lat="46.717123" lon="12.329445">
        <ele>1433.469</ele>
        <time>2018-09-10T13:01:14Z</time>
      </trkpt>
      <trkpt lat="46.717162" lon="12.329404">
        <ele>1432.934</ele>
        <time>2018-09-10T13:01:15Z</time>
      </trkpt>
      <trkpt lat="46.717256" lon="12.329319">
        <ele>1431.072</ele>
        <time>2018-09-10T13:01:17Z</time>
      </trkpt>
      <trkpt lat="46.717299" lon="12.329263">
        <ele>1430.558</ele>
        <time>2018-09-10T13:01:18Z</time>
      </trkpt>
      <trkpt lat="46.717335" lon="12.329198">
        <ele>1429.652</ele>
        <time>2018-09-10T13:01:19Z</time>
      </trkpt>
      <trkpt lat="46.717356" lon="12.329128">
        <ele>1429.617</ele>
        <time>2018-09-10T13:01:20Z</time>
      </trkpt>
      <trkpt lat="46.717366" lon="12.329055">
        <ele>1429.108</ele>
        <time>2018-09-10T13:01:21Z</time>
      </trkpt>
      <trkpt lat="46.717370" lon="12.328983">
        <ele>1429.119</ele>
        <time>2018-09-10T13:01:22Z</time>
      </trkpt>
      <trkpt lat="46.717368" lon="12.328909">
        <ele>1429.671</ele>
        <time>2018-09-10T13:01:23Z</time>
      </trkpt>
      <trkpt lat="46.717361" lon="12.328841">
        <ele>1429.149</ele>
        <time>2018-09-10T13:01:24Z</time>
      </trkpt>
      <trkpt lat="46.717357" lon="12.328768">
        <ele>1429.194</ele>
        <time>2018-09-10T13:01:25Z</time>
      </trkpt>
      <trkpt lat="46.717357" lon="12.328683">
        <ele>1428.632</ele>
        <time>2018-09-10T13:01:26Z</time>
      </trkpt>
      <trkpt lat="46.717361" lon="12.328598">
        <ele>1428.172</ele>
        <time>2018-09-10T13:01:27Z</time>
      </trkpt>
      <trkpt lat="46.717372" lon="12.328514">
        <ele>1427.767</ele>
        <time>2018-09-10T13:01:28Z</time>
      </trkpt>
      <trkpt lat="46.717389" lon="12.328435">
        <ele>1427.725</ele>
        <time>2018-09-10T13:01:29Z</time>
      </trkpt>
      <trkpt lat="46.717409" lon="12.328360">
        <ele>1427.759</ele>
        <time>2018-09-10T13:01:30Z</time>
      </trkpt>
      <trkpt lat="46.717460" lon="12.328149">
        <ele>1428.103</ele>
        <time>2018-09-10T13:01:33Z</time>
      </trkpt>
      <trkpt lat="46.717462" lon="12.328079">
        <ele>1428.123</ele>
        <time>2018-09-10T13:01:34Z</time>
      </trkpt>
      <trkpt lat="46.717459" lon="12.328013">
        <ele>1428.108</ele>
        <time>2018-09-10T13:01:35Z</time>
      </trkpt>
      <trkpt lat="46.717459" lon="12.327950">
        <ele>1428.189</ele>
        <time>2018-09-10T13:01:36Z</time>
      </trkpt>
      <trkpt lat="46.717464" lon="12.327881">
        <ele>1428.171</ele>
        <time>2018-09-10T13:01:37Z</time>
      </trkpt>
      <trkpt lat="46.717480" lon="12.327730">
        <ele>1426.759</ele>
        <time>2018-09-10T13:01:39Z</time>
      </trkpt>
      <trkpt lat="46.717536" lon="12.327342">
        <ele>1422.864</ele>
        <time>2018-09-10T13:01:44Z</time>
      </trkpt>
      <trkpt lat="46.717537" lon="12.327104">
        <ele>1421.932</ele>
        <time>2018-09-10T13:01:47Z</time>
      </trkpt>
      <trkpt lat="46.717519" lon="12.327041">
        <ele>1421.482</ele>
        <time>2018-09-10T13:01:48Z</time>
      </trkpt>
      <trkpt lat="46.717496" lon="12.326988">
        <ele>1420.927</ele>
        <time>2018-09-10T13:01:49Z</time>
      </trkpt>
      <trkpt lat="46.717467" lon="12.326953">
        <ele>1420.945</ele>
        <time>2018-09-10T13:01:50Z</time>
      </trkpt>
      <trkpt lat="46.717427" lon="12.326949">
        <ele>1420.945</ele>
        <time>2018-09-10T13:01:51Z</time>
      </trkpt>
      <trkpt lat="46.717387" lon="12.326971">
        <ele>1420.447</ele>
        <time>2018-09-10T13:01:52Z</time>
      </trkpt>
      <trkpt lat="46.717359" lon="12.326990">
        <ele>1420.411</ele>
        <time>2018-09-10T13:01:53Z</time>
      </trkpt>
      <trkpt lat="46.717322" lon="12.327018">
        <ele>1420.408</ele>
        <time>2018-09-10T13:01:54Z</time>
      </trkpt>
      <trkpt lat="46.716899" lon="12.327337">
        <ele>1418.058</ele>
        <time>2018-09-10T13:02:03Z</time>
      </trkpt>
      <trkpt lat="46.716846" lon="12.327356">
        <ele>1418.010</ele>
        <time>2018-09-10T13:02:04Z</time>
      </trkpt>
      <trkpt lat="46.716801" lon="12.327369">
        <ele>1418.088</ele>
        <time>2018-09-10T13:02:05Z</time>
      </trkpt>
      <trkpt lat="46.716762" lon="12.327375">
        <ele>1418.043</ele>
        <time>2018-09-10T13:02:06Z</time>
      </trkpt>
      <trkpt lat="46.716730" lon="12.327380">
        <ele>1418.011</ele>
        <time>2018-09-10T13:02:07Z</time>
      </trkpt>
      <trkpt lat="46.716705" lon="12.327386">
        <ele>1418.511</ele>
        <time>2018-09-10T13:02:08Z</time>
      </trkpt>
      <trkpt lat="46.716686" lon="12.327389">
        <ele>1418.526</ele>
        <time>2018-09-10T13:02:09Z</time>
      </trkpt>
      <trkpt lat="46.716669" lon="12.327386">
        <ele>1419.034</ele>
        <time>2018-09-10T13:02:10Z</time>
      </trkpt>
      <trkpt lat="46.716652" lon="12.327382">
        <ele>1419.077</ele>
        <time>2018-09-10T13:02:11Z</time>
      </trkpt>
      <trkpt lat="46.716635" lon="12.327377">
        <ele>1419.561</ele>
        <time>2018-09-10T13:02:12Z</time>
      </trkpt>
      <trkpt lat="46.716616" lon="12.327372">
        <ele>1419.527</ele>
        <time>2018-09-10T13:02:13Z</time>
      </trkpt>
      <trkpt lat="46.716596" lon="12.327360">
        <ele>1420.008</ele>
        <time>2018-09-10T13:02:14Z</time>
      </trkpt>
      <trkpt lat="46.716571" lon="12.327345">
        <ele>1420.041</ele>
        <time>2018-09-10T13:02:15Z</time>
      </trkpt>
      <trkpt lat="46.716544" lon="12.327335">
        <ele>1420.093</ele>
        <time>2018-09-10T13:02:16Z</time>
      </trkpt>
      <trkpt lat="46.716514" lon="12.327332">
        <ele>1420.041</ele>
        <time>2018-09-10T13:02:17Z</time>
      </trkpt>
      <trkpt lat="46.716484" lon="12.327331">
        <ele>1420.036</ele>
        <time>2018-09-10T13:02:18Z</time>
      </trkpt>
      <trkpt lat="46.716458" lon="12.327328">
        <ele>1420.054</ele>
        <time>2018-09-10T13:02:19Z</time>
      </trkpt>
      <trkpt lat="46.716433" lon="12.327324">
        <ele>1420.014</ele>
        <time>2018-09-10T13:02:20Z</time>
      </trkpt>
      <trkpt lat="46.716409" lon="12.327316">
        <ele>1419.579</ele>
        <time>2018-09-10T13:02:21Z</time>
      </trkpt>
      <trkpt lat="46.716052" lon="12.327231">
        <ele>1419.037</ele>
        <time>2018-09-10T13:02:33Z</time>
      </trkpt>
      <trkpt lat="46.715877" lon="12.327100">
        <ele>1421.472</ele>
        <time>2018-09-10T13:02:46Z</time>
      </trkpt>
      <trkpt lat="46.715901" lon="12.326741">
        <ele>1420.913</ele>
        <time>2018-09-10T13:02:58Z</time>
      </trkpt>
      <trkpt lat="46.715973" lon="12.326033">
        <ele>1413.714</ele>
        <time>2018-09-10T13:03:08Z</time>
      </trkpt>
      <trkpt lat="46.716031" lon="12.325706">
        <ele>1409.908</ele>
        <time>2018-09-10T13:03:13Z</time>
      </trkpt>
      <trkpt lat="46.716052" lon="12.325640">
        <ele>1408.971</ele>
        <time>2018-09-10T13:03:14Z</time>
      </trkpt>
      <trkpt lat="46.716077" lon="12.325577">
        <ele>1407.973</ele>
        <time>2018-09-10T13:03:15Z</time>
      </trkpt>
      <trkpt lat="46.716164" lon="12.325370">
        <ele>1405.561</ele>
        <time>2018-09-10T13:03:18Z</time>
      </trkpt>
      <trkpt lat="46.716519" lon="12.324235">
        <ele>1399.896</ele>
        <time>2018-09-10T13:03:30Z</time>
      </trkpt>
      <trkpt lat="46.716933" lon="12.323362">
        <ele>1395.934</ele>
        <time>2018-09-10T13:03:40Z</time>
      </trkpt>
      <trkpt lat="46.717039" lon="12.323163">
        <ele>1393.554</ele>
        <time>2018-09-10T13:03:43Z</time>
      </trkpt>
      <trkpt lat="46.717076" lon="12.323115">
        <ele>1392.649</ele>
        <time>2018-09-10T13:03:44Z</time>
      </trkpt>
      <trkpt lat="46.717116" lon="12.323072">
        <ele>1391.167</ele>
        <time>2018-09-10T13:03:45Z</time>
      </trkpt>
      <trkpt lat="46.717157" lon="12.323024">
        <ele>1389.747</ele>
        <time>2018-09-10T13:03:46Z</time>
      </trkpt>
      <trkpt lat="46.717198" lon="12.322967">
        <ele>1388.229</ele>
        <time>2018-09-10T13:03:47Z</time>
      </trkpt>
      <trkpt lat="46.717240" lon="12.322898">
        <ele>1386.321</ele>
        <time>2018-09-10T13:03:48Z</time>
      </trkpt>
      <trkpt lat="46.717437" lon="12.322535">
        <ele>1379.108</ele>
        <time>2018-09-10T13:03:53Z</time>
      </trkpt>
      <trkpt lat="46.717461" lon="12.322447">
        <ele>1378.168</ele>
        <time>2018-09-10T13:03:54Z</time>
      </trkpt>
      <trkpt lat="46.717492" lon="12.322258">
        <ele>1376.710</ele>
        <time>2018-09-10T13:03:56Z</time>
      </trkpt>
      <trkpt lat="46.717499" lon="12.322162">
        <ele>1376.218</ele>
        <time>2018-09-10T13:03:57Z</time>
      </trkpt>
      <trkpt lat="46.717497" lon="12.322063">
        <ele>1375.733</ele>
        <time>2018-09-10T13:03:58Z</time>
      </trkpt>
      <trkpt lat="46.717483" lon="12.321619">
        <ele>1374.341</ele>
        <time>2018-09-10T13:04:03Z</time>
      </trkpt>
      <trkpt lat="46.717497" lon="12.321349">
        <ele>1373.831</ele>
        <time>2018-09-10T13:04:06Z</time>
      </trkpt>
      <trkpt lat="46.717519" lon="12.321181">
        <ele>1374.856</ele>
        <time>2018-09-10T13:04:08Z</time>
      </trkpt>
      <trkpt lat="46.717536" lon="12.321102">
        <ele>1375.384</ele>
        <time>2018-09-10T13:04:09Z</time>
      </trkpt>
      <trkpt lat="46.717552" lon="12.321023">
        <ele>1375.389</ele>
        <time>2018-09-10T13:04:10Z</time>
      </trkpt>
      <trkpt lat="46.717562" lon="12.320949">
        <ele>1375.706</ele>
        <time>2018-09-10T13:04:11Z</time>
      </trkpt>
      <trkpt lat="46.717567" lon="12.320881">
        <ele>1376.226</ele>
        <time>2018-09-10T13:04:12Z</time>
      </trkpt>
      <trkpt lat="46.717567" lon="12.320821">
        <ele>1376.708</ele>
        <time>2018-09-10T13:04:13Z</time>
      </trkpt>
      <trkpt lat="46.717566" lon="12.320774">
        <ele>1377.242</ele>
        <time>2018-09-10T13:04:14Z</time>
      </trkpt>
      <trkpt lat="46.717565" lon="12.320734">
        <ele>1377.734</ele>
        <time>2018-09-10T13:04:15Z</time>
      </trkpt>
      <trkpt lat="46.717549" lon="12.320670">
        <ele>1379.192</ele>
        <time>2018-09-10T13:04:17Z</time>
      </trkpt>
      <trkpt lat="46.717540" lon="12.320646">
        <ele>1380.187</ele>
        <time>2018-09-10T13:04:18Z</time>
      </trkpt>
      <trkpt lat="46.717537" lon="12.320618">
        <ele>1381.045</ele>
        <time>2018-09-10T13:04:19Z</time>
      </trkpt>
      <trkpt lat="46.717534" lon="12.320587">
        <ele>1382.095</ele>
        <time>2018-09-10T13:04:20Z</time>
      </trkpt>
      <trkpt lat="46.717532" lon="12.320560">
        <ele>1382.990</ele>
        <time>2018-09-10T13:04:21Z</time>
      </trkpt>
      <trkpt lat="46.717531" lon="12.320531">
        <ele>1383.458</ele>
        <time>2018-09-10T13:04:22Z</time>
      </trkpt>
      <trkpt lat="46.717529" lon="12.320501">
        <ele>1383.947</ele>
        <time>2018-09-10T13:04:23Z</time>
      </trkpt>
      <trkpt lat="46.717526" lon="12.320068">
        <ele>1385.429</ele>
        <time>2018-09-10T13:04:37Z</time>
      </trkpt>
      <trkpt lat="46.717588" lon="12.319496">
        <ele>1381.521</ele>
        <time>2018-09-10T13:04:50Z</time>
      </trkpt>
      <trkpt lat="46.717601" lon="12.319422">
        <ele>1381.008</ele>
        <time>2018-09-10T13:04:51Z</time>
      </trkpt>
      <trkpt lat="46.717624" lon="12.319224">
        <ele>1381.078</ele>
        <time>2018-09-10T13:04:55Z</time>
      </trkpt>
      <trkpt lat="46.717623" lon="12.319195">
        <ele>1381.560</ele>
        <time>2018-09-10T13:04:56Z</time>
      </trkpt>
      <trkpt lat="46.717627" lon="12.319165">
        <ele>1382.028</ele>
        <time>2018-09-10T13:04:57Z</time>
      </trkpt>
      <trkpt lat="46.717630" lon="12.319141">
        <ele>1382.573</ele>
        <time>2018-09-10T13:04:58Z</time>
      </trkpt>
      <trkpt lat="46.717631" lon="12.319120">
        <ele>1382.911</ele>
        <time>2018-09-10T13:04:59Z</time>
      </trkpt>
      <trkpt lat="46.717617" lon="12.318976">
        <ele>1384.931</ele>
        <time>2018-09-10T13:05:07Z</time>
      </trkpt>
      <trkpt lat="46.717609" lon="12.318963">
        <ele>1384.996</ele>
        <time>2018-09-10T13:05:08Z</time>
      </trkpt>
      <trkpt lat="46.717603" lon="12.318947">
        <ele>1384.934</ele>
        <time>2018-09-10T13:05:09Z</time>
      </trkpt>
      <trkpt lat="46.717599" lon="12.318930">
        <ele>1385.458</ele>
        <time>2018-09-10T13:05:10Z</time>
      </trkpt>
      <trkpt lat="46.717597" lon="12.318908">
        <ele>1385.452</ele>
        <time>2018-09-10T13:05:11Z</time>
      </trkpt>
      <trkpt lat="46.717595" lon="12.318884">
        <ele>1385.417</ele>
        <time>2018-09-10T13:05:12Z</time>
      </trkpt>
      <trkpt lat="46.717593" lon="12.318861">
        <ele>1385.808</ele>
        <time>2018-09-10T13:05:13Z</time>
      </trkpt>
      <trkpt lat="46.717592" lon="12.318836">
        <ele>1385.899</ele>
        <time>2018-09-10T13:05:14Z</time>
      </trkpt>
      <trkpt lat="46.717592" lon="12.318808">
        <ele>1386.391</ele>
        <time>2018-09-10T13:05:15Z</time>
      </trkpt>
      <trkpt lat="46.717593" lon="12.318780">
        <ele>1386.829</ele>
        <time>2018-09-10T13:05:16Z</time>
      </trkpt>
      <trkpt lat="46.717593" lon="12.318748">
        <ele>1386.844</ele>
        <time>2018-09-10T13:05:17Z</time>
      </trkpt>
      <trkpt lat="46.717594" lon="12.318713">
        <ele>1387.392</ele>
        <time>2018-09-10T13:05:18Z</time>
      </trkpt>
      <trkpt lat="46.717595" lon="12.318672">
        <ele>1387.362</ele>
        <time>2018-09-10T13:05:19Z</time>
      </trkpt>
      <trkpt lat="46.717538" lon="12.318358">
        <ele>1387.397</ele>
        <time>2018-09-10T13:05:28Z</time>
      </trkpt>
      <trkpt lat="46.717534" lon="12.318130">
        <ele>1387.845</ele>
        <time>2018-09-10T13:05:42Z</time>
      </trkpt>
      <trkpt lat="46.717564" lon="12.318021">
        <ele>1388.763</ele>
        <time>2018-09-10T13:05:49Z</time>
      </trkpt>
      <trkpt lat="46.717568" lon="12.318004">
        <ele>1389.244</ele>
        <time>2018-09-10T13:05:50Z</time>
      </trkpt>
      <trkpt lat="46.717571" lon="12.317988">
        <ele>1389.218</ele>
        <time>2018-09-10T13:05:51Z</time>
      </trkpt>
      <trkpt lat="46.717576" lon="12.317971">
        <ele>1389.208</ele>
        <time>2018-09-10T13:05:52Z</time>
      </trkpt>
      <trkpt lat="46.717582" lon="12.317955">
        <ele>1389.240</ele>
        <time>2018-09-10T13:05:53Z</time>
      </trkpt>
      <trkpt lat="46.717590" lon="12.317938">
        <ele>1389.242</ele>
        <time>2018-09-10T13:05:54Z</time>
      </trkpt>
      <trkpt lat="46.717726" lon="12.317766">
        <ele>1388.240</ele>
        <time>2018-09-10T13:06:06Z</time>
      </trkpt>
      <trkpt lat="46.717738" lon="12.317750">
        <ele>1387.885</ele>
        <time>2018-09-10T13:06:07Z</time>
      </trkpt>
      <trkpt lat="46.717751" lon="12.317737">
        <ele>1387.853</ele>
        <time>2018-09-10T13:06:08Z</time>
      </trkpt>
      <trkpt lat="46.717885" lon="12.317411">
        <ele>1388.743</ele>
        <time>2018-09-10T13:06:21Z</time>
      </trkpt>
      <trkpt lat="46.717887" lon="12.317393">
        <ele>1389.238</ele>
        <time>2018-09-10T13:06:22Z</time>
      </trkpt>
      <trkpt lat="46.717920" lon="12.317098">
        <ele>1392.196</ele>
        <time>2018-09-10T13:06:38Z</time>
      </trkpt>
      <trkpt lat="46.718013" lon="12.316788">
        <ele>1394.018</ele>
        <time>2018-09-10T13:06:53Z</time>
      </trkpt>
      <trkpt lat="46.718117" lon="12.316441">
        <ele>1395.998</ele>
        <time>2018-09-10T13:07:11Z</time>
      </trkpt>
      <trkpt lat="46.718282" lon="12.316100">
        <ele>1396.417</ele>
        <time>2018-09-10T13:07:25Z</time>
      </trkpt>
      <trkpt lat="46.718484" lon="12.315697">
        <ele>1395.008</ele>
        <time>2018-09-10T13:07:40Z</time>
      </trkpt>
      <trkpt lat="46.718622" lon="12.315443">
        <ele>1391.695</ele>
        <time>2018-09-10T13:07:47Z</time>
      </trkpt>
      <trkpt lat="46.718691" lon="12.315345">
        <ele>1390.227</ele>
        <time>2018-09-10T13:07:49Z</time>
      </trkpt>
      <trkpt lat="46.718730" lon="12.315306">
        <ele>1389.745</ele>
        <time>2018-09-10T13:07:50Z</time>
      </trkpt>
      <trkpt lat="46.718772" lon="12.315273">
        <ele>1389.240</ele>
        <time>2018-09-10T13:07:51Z</time>
      </trkpt>
      <trkpt lat="46.718815" lon="12.315247">
        <ele>1389.268</ele>
        <time>2018-09-10T13:07:52Z</time>
      </trkpt>
      <trkpt lat="46.718861" lon="12.315227">
        <ele>1388.768</ele>
        <time>2018-09-10T13:07:53Z</time>
      </trkpt>
      <trkpt lat="46.718909" lon="12.315213">
        <ele>1388.283</ele>
        <time>2018-09-10T13:07:54Z</time>
      </trkpt>
      <trkpt lat="46.718957" lon="12.315202">
        <ele>1387.891</ele>
        <time>2018-09-10T13:07:55Z</time>
      </trkpt>
      <trkpt lat="46.719003" lon="12.315196">
        <ele>1387.851</ele>
        <time>2018-09-10T13:07:56Z</time>
      </trkpt>
      <trkpt lat="46.719047" lon="12.315200">
        <ele>1387.301</ele>
        <time>2018-09-10T13:07:57Z</time>
      </trkpt>
      <trkpt lat="46.719090" lon="12.315204">
        <ele>1386.811</ele>
        <time>2018-09-10T13:07:58Z</time>
      </trkpt>
      <trkpt lat="46.719132" lon="12.315193">
        <ele>1386.308</ele>
        <time>2018-09-10T13:07:59Z</time>
      </trkpt>
      <trkpt lat="46.719175" lon="12.315168">
        <ele>1386.369</ele>
        <time>2018-09-10T13:08:00Z</time>
      </trkpt>
      <trkpt lat="46.719218" lon="12.315134">
        <ele>1385.811</ele>
        <time>2018-09-10T13:08:01Z</time>
      </trkpt>
      <trkpt lat="46.719259" lon="12.315092">
        <ele>1384.939</ele>
        <time>2018-09-10T13:08:02Z</time>
      </trkpt>
      <trkpt lat="46.719294" lon="12.315035">
        <ele>1383.924</ele>
        <time>2018-09-10T13:08:03Z</time>
      </trkpt>
      <trkpt lat="46.719320" lon="12.314966">
        <ele>1383.482</ele>
        <time>2018-09-10T13:08:04Z</time>
      </trkpt>
      <trkpt lat="46.719335" lon="12.314888">
        <ele>1382.992</ele>
        <time>2018-09-10T13:08:05Z</time>
      </trkpt>
      <trkpt lat="46.719341" lon="12.314806">
        <ele>1382.557</ele>
        <time>2018-09-10T13:08:06Z</time>
      </trkpt>
      <trkpt lat="46.719344" lon="12.314727">
        <ele>1382.075</ele>
        <time>2018-09-10T13:08:07Z</time>
      </trkpt>
      <trkpt lat="46.719365" lon="12.314505">
        <ele>1380.553</ele>
        <time>2018-09-10T13:08:10Z</time>
      </trkpt>
      <trkpt lat="46.719438" lon="12.314178">
        <ele>1377.204</ele>
        <time>2018-09-10T13:08:15Z</time>
      </trkpt>
      <trkpt lat="46.719443" lon="12.314110">
        <ele>1376.214</ele>
        <time>2018-09-10T13:08:16Z</time>
      </trkpt>
      <trkpt lat="46.719440" lon="12.314039">
        <ele>1375.308</ele>
        <time>2018-09-10T13:08:17Z</time>
      </trkpt>
      <trkpt lat="46.719428" lon="12.313971">
        <ele>1374.349</ele>
        <time>2018-09-10T13:08:18Z</time>
      </trkpt>
      <trkpt lat="46.719416" lon="12.313902">
        <ele>1373.851</ele>
        <time>2018-09-10T13:08:19Z</time>
      </trkpt>
      <trkpt lat="46.719411" lon="12.313833">
        <ele>1373.339</ele>
        <time>2018-09-10T13:08:20Z</time>
      </trkpt>
      <trkpt lat="46.719413" lon="12.313758">
        <ele>1372.994</ele>
        <time>2018-09-10T13:08:21Z</time>
      </trkpt>
      <trkpt lat="46.719419" lon="12.313678">
        <ele>1372.422</ele>
        <time>2018-09-10T13:08:22Z</time>
      </trkpt>
      <trkpt lat="46.719425" lon="12.313496">
        <ele>1370.942</ele>
        <time>2018-09-10T13:08:24Z</time>
      </trkpt>
      <trkpt lat="46.719412" lon="12.313400">
        <ele>1370.587</ele>
        <time>2018-09-10T13:08:25Z</time>
      </trkpt>
      <trkpt lat="46.719387" lon="12.313313">
        <ele>1370.035</ele>
        <time>2018-09-10T13:08:26Z</time>
      </trkpt>
      <trkpt lat="46.719361" lon="12.313235">
        <ele>1369.516</ele>
        <time>2018-09-10T13:08:27Z</time>
      </trkpt>
      <trkpt lat="46.719335" lon="12.313163">
        <ele>1369.576</ele>
        <time>2018-09-10T13:08:28Z</time>
      </trkpt>
      <trkpt lat="46.719257" lon="12.312840">
        <ele>1365.213</ele>
        <time>2018-09-10T13:08:33Z</time>
      </trkpt>
      <trkpt lat="46.719241" lon="12.312662">
        <ele>1361.808</ele>
        <time>2018-09-10T13:08:36Z</time>
      </trkpt>
      <trkpt lat="46.719221" lon="12.312536">
        <ele>1359.465</ele>
        <time>2018-09-10T13:08:38Z</time>
      </trkpt>
      <trkpt lat="46.719204" lon="12.312467">
        <ele>1358.957</ele>
        <time>2018-09-10T13:08:39Z</time>
      </trkpt>
      <trkpt lat="46.719191" lon="12.312392">
        <ele>1358.065</ele>
        <time>2018-09-10T13:08:40Z</time>
      </trkpt>
      <trkpt lat="46.719187" lon="12.312316">
        <ele>1358.040</ele>
        <time>2018-09-10T13:08:41Z</time>
      </trkpt>
      <trkpt lat="46.719192" lon="12.312243">
        <ele>1357.548</ele>
        <time>2018-09-10T13:08:42Z</time>
      </trkpt>
      <trkpt lat="46.719206" lon="12.312169">
        <ele>1357.548</ele>
        <time>2018-09-10T13:08:43Z</time>
      </trkpt>
      <trkpt lat="46.719225" lon="12.312093">
        <ele>1357.073</ele>
        <time>2018-09-10T13:08:44Z</time>
      </trkpt>
      <trkpt lat="46.719249" lon="12.312016">
        <ele>1356.571</ele>
        <time>2018-09-10T13:08:45Z</time>
      </trkpt>
      <trkpt lat="46.719276" lon="12.311945">
        <ele>1356.598</ele>
        <time>2018-09-10T13:08:46Z</time>
      </trkpt>
      <trkpt lat="46.719303" lon="12.311880">
        <ele>1356.515</ele>
        <time>2018-09-10T13:08:47Z</time>
      </trkpt>
      <trkpt lat="46.719329" lon="12.311825">
        <ele>1356.526</ele>
        <time>2018-09-10T13:08:48Z</time>
      </trkpt>
      <trkpt lat="46.719351" lon="12.311779">
        <ele>1356.508</ele>
        <time>2018-09-10T13:08:49Z</time>
      </trkpt>
      <trkpt lat="46.719402" lon="12.311656">
        <ele>1358.033</ele>
        <time>2018-09-10T13:08:54Z</time>
      </trkpt>
      <trkpt lat="46.719409" lon="12.311636">
        <ele>1358.425</ele>
        <time>2018-09-10T13:08:55Z</time>
      </trkpt>
      <trkpt lat="46.719415" lon="12.311614">
        <ele>1358.423</ele>
        <time>2018-09-10T13:08:56Z</time>
      </trkpt>
      <trkpt lat="46.719422" lon="12.311591">
        <ele>1358.418</ele>
        <time>2018-09-10T13:08:57Z</time>
      </trkpt>
      <trkpt lat="46.719429" lon="12.311565">
        <ele>1358.996</ele>
        <time>2018-09-10T13:08:58Z</time>
      </trkpt>
      <trkpt lat="46.719435" lon="12.311540">
        <ele>1358.926</ele>
        <time>2018-09-10T13:08:59Z</time>
      </trkpt>
      <trkpt lat="46.719440" lon="12.311511">
        <ele>1358.961</ele>
        <time>2018-09-10T13:09:00Z</time>
      </trkpt>
      <trkpt lat="46.719447" lon="12.311478">
        <ele>1358.459</ele>
        <time>2018-09-10T13:09:01Z</time>
      </trkpt>
      <trkpt lat="46.719575" lon="12.310959">
        <ele>1356.038</ele>
        <time>2018-09-10T13:09:09Z</time>
      </trkpt>
      <trkpt lat="46.719668" lon="12.310608">
        <ele>1355.670</ele>
        <time>2018-09-10T13:09:16Z</time>
      </trkpt>
      <trkpt lat="46.719826" lon="12.310230">
        <ele>1350.717</ele>
        <time>2018-09-10T13:09:23Z</time>
      </trkpt>
      <trkpt lat="46.719835" lon="12.310160">
        <ele>1350.308</ele>
        <time>2018-09-10T13:09:24Z</time>
      </trkpt>
      <trkpt lat="46.719837" lon="12.310087">
        <ele>1349.827</ele>
        <time>2018-09-10T13:09:25Z</time>
      </trkpt>
      <trkpt lat="46.719842" lon="12.310016">
        <ele>1349.379</ele>
        <time>2018-09-10T13:09:26Z</time>
      </trkpt>
      <trkpt lat="46.719852" lon="12.309949">
        <ele>1348.857</ele>
        <time>2018-09-10T13:09:27Z</time>
      </trkpt>
      <trkpt lat="46.719867" lon="12.309887">
        <ele>1348.322</ele>
        <time>2018-09-10T13:09:28Z</time>
      </trkpt>
      <trkpt lat="46.719891" lon="12.309832">
        <ele>1347.910</ele>
        <time>2018-09-10T13:09:29Z</time>
      </trkpt>
      <trkpt lat="46.719918" lon="12.309778">
        <ele>1346.920</ele>
        <time>2018-09-10T13:09:30Z</time>
      </trkpt>
      <trkpt lat="46.720145" lon="12.309379">
        <ele>1342.695</ele>
        <time>2018-09-10T13:09:37Z</time>
      </trkpt>
      <trkpt lat="46.720192" lon="12.309274">
        <ele>1341.163</ele>
        <time>2018-09-10T13:09:39Z</time>
      </trkpt>
      <trkpt lat="46.720573" lon="12.308593">
        <ele>1327.229</ele>
        <time>2018-09-10T13:09:52Z</time>
      </trkpt>
      <trkpt lat="46.720724" lon="12.308125">
        <ele>1324.300</ele>
        <time>2018-09-10T13:09:57Z</time>
      </trkpt>
      <trkpt lat="46.720733" lon="12.308038">
        <ele>1324.320</ele>
        <time>2018-09-10T13:09:58Z</time>
      </trkpt>
      <trkpt lat="46.720732" lon="12.307953">
        <ele>1324.308</ele>
        <time>2018-09-10T13:09:59Z</time>
      </trkpt>
      <trkpt lat="46.720723" lon="12.307873">
        <ele>1324.396</ele>
        <time>2018-09-10T13:10:00Z</time>
      </trkpt>
      <trkpt lat="46.720707" lon="12.307790">
        <ele>1324.328</ele>
        <time>2018-09-10T13:10:01Z</time>
      </trkpt>
      <trkpt lat="46.720687" lon="12.307707">
        <ele>1324.396</ele>
        <time>2018-09-10T13:10:02Z</time>
      </trkpt>
      <trkpt lat="46.720598" lon="12.307253">
        <ele>1322.461</ele>
        <time>2018-09-10T13:10:07Z</time>
      </trkpt>
      <trkpt lat="46.720595" lon="12.307153">
        <ele>1321.989</ele>
        <time>2018-09-10T13:10:08Z</time>
      </trkpt>
      <trkpt lat="46.720598" lon="12.307054">
        <ele>1321.939</ele>
        <time>2018-09-10T13:10:09Z</time>
      </trkpt>
      <trkpt lat="46.720635" lon="12.306680">
        <ele>1321.494</ele>
        <time>2018-09-10T13:10:13Z</time>
      </trkpt>
      <trkpt lat="46.720671" lon="12.306509">
        <ele>1321.462</ele>
        <time>2018-09-10T13:10:15Z</time>
      </trkpt>
      <trkpt lat="46.720682" lon="12.306427">
        <ele>1321.457</ele>
        <time>2018-09-10T13:10:16Z</time>
      </trkpt>
      <trkpt lat="46.720724" lon="12.306050">
        <ele>1319.500</ele>
        <time>2018-09-10T13:10:21Z</time>
      </trkpt>
      <trkpt lat="46.720724" lon="12.305973">
        <ele>1318.520</ele>
        <time>2018-09-10T13:10:22Z</time>
      </trkpt>
      <trkpt lat="46.720707" lon="12.305536">
        <ele>1314.708</ele>
        <time>2018-09-10T13:10:27Z</time>
      </trkpt>
      <trkpt lat="46.720721" lon="12.305451">
        <ele>1314.239</ele>
        <time>2018-09-10T13:10:28Z</time>
      </trkpt>
      <trkpt lat="46.720740" lon="12.305373">
        <ele>1313.371</ele>
        <time>2018-09-10T13:10:29Z</time>
      </trkpt>
      <trkpt lat="46.720760" lon="12.305301">
        <ele>1312.869</ele>
        <time>2018-09-10T13:10:30Z</time>
      </trkpt>
      <trkpt lat="46.720785" lon="12.305229">
        <ele>1312.344</ele>
        <time>2018-09-10T13:10:31Z</time>
      </trkpt>
      <trkpt lat="46.720816" lon="12.305156">
        <ele>1311.342</ele>
        <time>2018-09-10T13:10:32Z</time>
      </trkpt>
      <trkpt lat="46.720847" lon="12.305085">
        <ele>1310.932</ele>
        <time>2018-09-10T13:10:33Z</time>
      </trkpt>
      <trkpt lat="46.720968" lon="12.304769">
        <ele>1308.497</ele>
        <time>2018-09-10T13:10:37Z</time>
      </trkpt>
      <trkpt lat="46.721017" lon="12.304696">
        <ele>1308.065</ele>
        <time>2018-09-10T13:10:38Z</time>
      </trkpt>
      <trkpt lat="46.721072" lon="12.304633">
        <ele>1307.588</ele>
        <time>2018-09-10T13:10:39Z</time>
      </trkpt>
      <trkpt lat="46.721132" lon="12.304575">
        <ele>1307.024</ele>
        <time>2018-09-10T13:10:40Z</time>
      </trkpt>
      <trkpt lat="46.721193" lon="12.304521">
        <ele>1306.526</ele>
        <time>2018-09-10T13:10:41Z</time>
      </trkpt>
      <trkpt lat="46.721431" lon="12.304305">
        <ele>1308.008</ele>
        <time>2018-09-10T13:10:49Z</time>
      </trkpt>
      <trkpt lat="46.721665" lon="12.304002">
        <ele>1308.462</ele>
        <time>2018-09-10T13:11:01Z</time>
      </trkpt>
      <trkpt lat="46.722041" lon="12.303430">
        <ele>1307.564</ele>
        <time>2018-09-10T13:11:17Z</time>
      </trkpt>
      <trkpt lat="46.722068" lon="12.303382">
        <ele>1307.072</ele>
        <time>2018-09-10T13:11:18Z</time>
      </trkpt>
      <trkpt lat="46.722094" lon="12.303335">
        <ele>1306.527</ele>
        <time>2018-09-10T13:11:19Z</time>
      </trkpt>
      <trkpt lat="46.722185" lon="12.303127">
        <ele>1303.625</ele>
        <time>2018-09-10T13:11:23Z</time>
      </trkpt>
      <trkpt lat="46.722312" lon="12.302878">
        <ele>1298.865</ele>
        <time>2018-09-10T13:11:28Z</time>
      </trkpt>
      <trkpt lat="46.722516" lon="12.302593">
        <ele>1293.540</ele>
        <time>2018-09-10T13:11:33Z</time>
      </trkpt>
      <trkpt lat="46.722558" lon="12.302509">
        <ele>1292.638</ele>
        <time>2018-09-10T13:11:34Z</time>
      </trkpt>
      <trkpt lat="46.722591" lon="12.302420">
        <ele>1291.677</ele>
        <time>2018-09-10T13:11:35Z</time>
      </trkpt>
      <trkpt lat="46.722612" lon="12.302333">
        <ele>1291.161</ele>
        <time>2018-09-10T13:11:36Z</time>
      </trkpt>
      <trkpt lat="46.722619" lon="12.302256">
        <ele>1290.727</ele>
        <time>2018-09-10T13:11:37Z</time>
      </trkpt>
      <trkpt lat="46.722621" lon="12.302192">
        <ele>1290.708</ele>
        <time>2018-09-10T13:11:38Z</time>
      </trkpt>
      <trkpt lat="46.722627" lon="12.301887">
        <ele>1290.261</ele>
        <time>2018-09-10T13:11:48Z</time>
      </trkpt>
      <trkpt lat="46.722699" lon="12.301533">
        <ele>1291.153</ele>
        <time>2018-09-10T13:11:59Z</time>
      </trkpt>
      <trkpt lat="46.722704" lon="12.301499">
        <ele>1291.111</ele>
        <time>2018-09-10T13:12:00Z</time>
      </trkpt>
      <trkpt lat="46.722779" lon="12.301234">
        <ele>1291.616</ele>
        <time>2018-09-10T13:12:07Z</time>
      </trkpt>
      <trkpt lat="46.722815" lon="12.301183">
        <ele>1291.114</ele>
        <time>2018-09-10T13:12:08Z</time>
      </trkpt>
      <trkpt lat="46.722855" lon="12.301123">
        <ele>1290.774</ele>
        <time>2018-09-10T13:12:09Z</time>
      </trkpt>
      <trkpt lat="46.722892" lon="12.301052">
        <ele>1290.229</ele>
        <time>2018-09-10T13:12:10Z</time>
      </trkpt>
      <trkpt lat="46.722911" lon="12.300968">
        <ele>1289.797</ele>
        <time>2018-09-10T13:12:11Z</time>
      </trkpt>
      <trkpt lat="46.722908" lon="12.300878">
        <ele>1289.753</ele>
        <time>2018-09-10T13:12:12Z</time>
      </trkpt>
      <trkpt lat="46.722892" lon="12.300796">
        <ele>1289.204</ele>
        <time>2018-09-10T13:12:13Z</time>
      </trkpt>
      <trkpt lat="46.722872" lon="12.300721">
        <ele>1289.214</ele>
        <time>2018-09-10T13:12:14Z</time>
      </trkpt>
      <trkpt lat="46.722848" lon="12.300654">
        <ele>1288.708</ele>
        <time>2018-09-10T13:12:15Z</time>
      </trkpt>
      <trkpt lat="46.722826" lon="12.300590">
        <ele>1288.759</ele>
        <time>2018-09-10T13:12:16Z</time>
      </trkpt>
      <trkpt lat="46.722808" lon="12.300538">
        <ele>1288.791</ele>
        <time>2018-09-10T13:12:17Z</time>
      </trkpt>
      <trkpt lat="46.722792" lon="12.300495">
        <ele>1288.799</ele>
        <time>2018-09-10T13:12:18Z</time>
      </trkpt>
      <trkpt lat="46.722781" lon="12.300455">
        <ele>1289.254</ele>
        <time>2018-09-10T13:12:19Z</time>
      </trkpt>
      <trkpt lat="46.722770" lon="12.300420">
        <ele>1289.762</ele>
        <time>2018-09-10T13:12:20Z</time>
      </trkpt>
      <trkpt lat="46.722760" lon="12.300392">
        <ele>1290.242</ele>
        <time>2018-09-10T13:12:21Z</time>
      </trkpt>
      <trkpt lat="46.722755" lon="12.300366">
        <ele>1290.757</ele>
        <time>2018-09-10T13:12:22Z</time>
      </trkpt>
      <trkpt lat="46.722751" lon="12.300333">
        <ele>1291.665</ele>
        <time>2018-09-10T13:12:23Z</time>
      </trkpt>
      <trkpt lat="46.722750" lon="12.300297">
        <ele>1292.195</ele>
        <time>2018-09-10T13:12:24Z</time>
      </trkpt>
      <trkpt lat="46.722755" lon="12.300258">
        <ele>1292.149</ele>
        <time>2018-09-10T13:12:25Z</time>
      </trkpt>
      <trkpt lat="46.722766" lon="12.300219">
        <ele>1292.623</ele>
        <time>2018-09-10T13:12:26Z</time>
      </trkpt>
      <trkpt lat="46.722781" lon="12.300184">
        <ele>1292.608</ele>
        <time>2018-09-10T13:12:27Z</time>
      </trkpt>
      <trkpt lat="46.722798" lon="12.300153">
        <ele>1292.663</ele>
        <time>2018-09-10T13:12:28Z</time>
      </trkpt>
      <trkpt lat="46.722886" lon="12.299817">
        <ele>1292.145</ele>
        <time>2018-09-10T13:12:35Z</time>
      </trkpt>
      <trkpt lat="46.722882" lon="12.299238">
        <ele>1290.713</ele>
        <time>2018-09-10T13:12:41Z</time>
      </trkpt>
      <trkpt lat="46.722898" lon="12.299149">
        <ele>1290.238</ele>
        <time>2018-09-10T13:12:42Z</time>
      </trkpt>
      <trkpt lat="46.722995" lon="12.298781">
        <ele>1290.266</ele>
        <time>2018-09-10T13:12:47Z</time>
      </trkpt>
      <trkpt lat="46.723104" lon="12.298481">
        <ele>1291.146</ele>
        <time>2018-09-10T13:12:57Z</time>
      </trkpt>
      <trkpt lat="46.723179" lon="12.298278">
        <ele>1295.591</ele>
        <time>2018-09-10T13:13:08Z</time>
      </trkpt>
      <trkpt lat="46.723185" lon="12.298263">
        <ele>1295.549</ele>
        <time>2018-09-10T13:13:09Z</time>
      </trkpt>
      <trkpt lat="46.723189" lon="12.298249">
        <ele>1295.997</ele>
        <time>2018-09-10T13:13:10Z</time>
      </trkpt>
      <trkpt lat="46.723192" lon="12.298232">
        <ele>1296.423</ele>
        <time>2018-09-10T13:13:11Z</time>
      </trkpt>
      <trkpt lat="46.723198" lon="12.298215">
        <ele>1296.925</ele>
        <time>2018-09-10T13:13:12Z</time>
      </trkpt>
      <trkpt lat="46.723206" lon="12.298202">
        <ele>1297.408</ele>
        <time>2018-09-10T13:13:13Z</time>
      </trkpt>
      <trkpt lat="46.723214" lon="12.298188">
        <ele>1297.433</ele>
        <time>2018-09-10T13:13:14Z</time>
      </trkpt>
      <trkpt lat="46.723222" lon="12.298176">
        <ele>1297.965</ele>
        <time>2018-09-10T13:13:15Z</time>
      </trkpt>
      <trkpt lat="46.723228" lon="12.298162">
        <ele>1297.943</ele>
        <time>2018-09-10T13:13:16Z</time>
      </trkpt>
      <trkpt lat="46.723234" lon="12.298147">
        <ele>1297.938</ele>
        <time>2018-09-10T13:13:17Z</time>
      </trkpt>
      <trkpt lat="46.723241" lon="12.298129">
        <ele>1297.916</ele>
        <time>2018-09-10T13:13:18Z</time>
      </trkpt>
      <trkpt lat="46.723248" lon="12.298113">
        <ele>1297.986</ele>
        <time>2018-09-10T13:13:19Z</time>
      </trkpt>
      <trkpt lat="46.723392" lon="12.297864">
        <ele>1301.211</ele>
        <time>2018-09-10T13:13:35Z</time>
      </trkpt>
      <trkpt lat="46.723484" lon="12.297653">
        <ele>1300.339</ele>
        <time>2018-09-10T13:13:40Z</time>
      </trkpt>
      <trkpt lat="46.723597" lon="12.297402">
        <ele>1297.972</ele>
        <time>2018-09-10T13:13:44Z</time>
      </trkpt>
      <trkpt lat="46.723619" lon="12.297326">
        <ele>1297.413</ele>
        <time>2018-09-10T13:13:45Z</time>
      </trkpt>
      <trkpt lat="46.723644" lon="12.297246">
        <ele>1296.914</ele>
        <time>2018-09-10T13:13:46Z</time>
      </trkpt>
      <trkpt lat="46.723710" lon="12.297008">
        <ele>1295.008</ele>
        <time>2018-09-10T13:13:49Z</time>
      </trkpt>
      <trkpt lat="46.723720" lon="12.296931">
        <ele>1294.541</ele>
        <time>2018-09-10T13:13:50Z</time>
      </trkpt>
      <trkpt lat="46.723719" lon="12.296859">
        <ele>1293.513</ele>
        <time>2018-09-10T13:13:51Z</time>
      </trkpt>
      <trkpt lat="46.723705" lon="12.296793">
        <ele>1292.641</ele>
        <time>2018-09-10T13:13:52Z</time>
      </trkpt>
      <trkpt lat="46.723676" lon="12.296729">
        <ele>1291.696</ele>
        <time>2018-09-10T13:13:53Z</time>
      </trkpt>
      <trkpt lat="46.723635" lon="12.296663">
        <ele>1291.194</ele>
        <time>2018-09-10T13:13:54Z</time>
      </trkpt>
      <trkpt lat="46.723588" lon="12.296588">
        <ele>1290.224</ele>
        <time>2018-09-10T13:13:55Z</time>
      </trkpt>
      <trkpt lat="46.723508" lon="12.296435">
        <ele>1289.279</ele>
        <time>2018-09-10T13:13:57Z</time>
      </trkpt>
      <trkpt lat="46.723477" lon="12.296346">
        <ele>1288.777</ele>
        <time>2018-09-10T13:13:58Z</time>
      </trkpt>
      <trkpt lat="46.723457" lon="12.296257">
        <ele>1288.394</ele>
        <time>2018-09-10T13:13:59Z</time>
      </trkpt>
      <trkpt lat="46.723450" lon="12.296164">
        <ele>1288.357</ele>
        <time>2018-09-10T13:14:00Z</time>
      </trkpt>
      <trkpt lat="46.723458" lon="12.296071">
        <ele>1287.822</ele>
        <time>2018-09-10T13:14:01Z</time>
      </trkpt>
      <trkpt lat="46.723479" lon="12.295986">
        <ele>1287.808</ele>
        <time>2018-09-10T13:14:02Z</time>
      </trkpt>
      <trkpt lat="46.723500" lon="12.295910">
        <ele>1287.863</ele>
        <time>2018-09-10T13:14:03Z</time>
      </trkpt>
      <trkpt lat="46.723641" lon="12.295517">
        <ele>1285.425</ele>
        <time>2018-09-10T13:14:08Z</time>
      </trkpt>
      <trkpt lat="46.723659" lon="12.295427">
        <ele>1284.913</ele>
        <time>2018-09-10T13:14:09Z</time>
      </trkpt>
      <trkpt lat="46.723668" lon="12.295338">
        <ele>1284.498</ele>
        <time>2018-09-10T13:14:10Z</time>
      </trkpt>
      <trkpt lat="46.723677" lon="12.295243">
        <ele>1283.936</ele>
        <time>2018-09-10T13:14:11Z</time>
      </trkpt>
      <trkpt lat="46.723692" lon="12.295147">
        <ele>1283.516</ele>
        <time>2018-09-10T13:14:12Z</time>
      </trkpt>
      <trkpt lat="46.723715" lon="12.295057">
        <ele>1282.551</ele>
        <time>2018-09-10T13:14:13Z</time>
      </trkpt>
      <trkpt lat="46.723751" lon="12.294976">
        <ele>1282.079</ele>
        <time>2018-09-10T13:14:14Z</time>
      </trkpt>
      <trkpt lat="46.723801" lon="12.294903">
        <ele>1281.047</ele>
        <time>2018-09-10T13:14:15Z</time>
      </trkpt>
      <trkpt lat="46.723858" lon="12.294838">
        <ele>1280.629</ele>
        <time>2018-09-10T13:14:16Z</time>
      </trkpt>
      <trkpt lat="46.723920" lon="12.294777">
        <ele>1279.621</ele>
        <time>2018-09-10T13:14:17Z</time>
      </trkpt>
      <trkpt lat="46.724637" lon="12.293863">
        <ele>1272.908</ele>
        <time>2018-09-10T13:14:29Z</time>
      </trkpt>
      <trkpt lat="46.724737" lon="12.293711">
        <ele>1272.488</ele>
        <time>2018-09-10T13:14:31Z</time>
      </trkpt>
      <trkpt lat="46.724772" lon="12.293635">
        <ele>1272.990</ele>
        <time>2018-09-10T13:14:32Z</time>
      </trkpt>
      <trkpt lat="46.724993" lon="12.293211">
        <ele>1274.398</ele>
        <time>2018-09-10T13:14:40Z</time>
      </trkpt>
      <trkpt lat="46.725518" lon="12.292399">
        <ele>1272.443</ele>
        <time>2018-09-10T13:14:54Z</time>
      </trkpt>
      <trkpt lat="46.725661" lon="12.292211">
        <ele>1271.031</ele>
        <time>2018-09-10T13:14:57Z</time>
      </trkpt>
      <trkpt lat="46.725695" lon="12.292121">
        <ele>1270.091</ele>
        <time>2018-09-10T13:14:58Z</time>
      </trkpt>
      <trkpt lat="46.725717" lon="12.292021">
        <ele>1269.576</ele>
        <time>2018-09-10T13:14:59Z</time>
      </trkpt>
      <trkpt lat="46.726019" lon="12.290982">
        <ele>1266.194</ele>
        <time>2018-09-10T13:15:10Z</time>
      </trkpt>
      <trkpt lat="46.726069" lon="12.290809">
        <ele>1264.776</ele>
        <time>2018-09-10T13:15:12Z</time>
      </trkpt>
      <trkpt lat="46.726102" lon="12.290733">
        <ele>1264.290</ele>
        <time>2018-09-10T13:15:13Z</time>
      </trkpt>
      <trkpt lat="46.726142" lon="12.290668">
        <ele>1263.319</ele>
        <time>2018-09-10T13:15:14Z</time>
      </trkpt>
      <trkpt lat="46.726187" lon="12.290621">
        <ele>1262.808</ele>
        <time>2018-09-10T13:15:15Z</time>
      </trkpt>
      <trkpt lat="46.726234" lon="12.290593">
        <ele>1261.851</ele>
        <time>2018-09-10T13:15:16Z</time>
      </trkpt>
      <trkpt lat="46.726281" lon="12.290581">
        <ele>1260.963</ele>
        <time>2018-09-10T13:15:17Z</time>
      </trkpt>
      <trkpt lat="46.726326" lon="12.290571">
        <ele>1259.991</ele>
        <time>2018-09-10T13:15:18Z</time>
      </trkpt>
      <trkpt lat="46.726371" lon="12.290551">
        <ele>1258.936</ele>
        <time>2018-09-10T13:15:19Z</time>
      </trkpt>
      <trkpt lat="46.726416" lon="12.290521">
        <ele>1257.554</ele>
        <time>2018-09-10T13:15:20Z</time>
      </trkpt>
      <trkpt lat="46.726455" lon="12.290487">
        <ele>1256.514</ele>
        <time>2018-09-10T13:15:21Z</time>
      </trkpt>
      <trkpt lat="46.726489" lon="12.290447">
        <ele>1255.159</ele>
        <time>2018-09-10T13:15:22Z</time>
      </trkpt>
      <trkpt lat="46.726520" lon="12.290400">
        <ele>1254.157</ele>
        <time>2018-09-10T13:15:23Z</time>
      </trkpt>
      <trkpt lat="46.726546" lon="12.290341">
        <ele>1253.279</ele>
        <time>2018-09-10T13:15:24Z</time>
      </trkpt>
      <trkpt lat="46.726569" lon="12.290272">
        <ele>1251.705</ele>
        <time>2018-09-10T13:15:25Z</time>
      </trkpt>
      <trkpt lat="46.726636" lon="12.290064">
        <ele>1248.825</ele>
        <time>2018-09-10T13:15:28Z</time>
      </trkpt>
      <trkpt lat="46.726648" lon="12.289987">
        <ele>1247.408</ele>
        <time>2018-09-10T13:15:29Z</time>
      </trkpt>
      <trkpt lat="46.726650" lon="12.289901">
        <ele>1246.461</ele>
        <time>2018-09-10T13:15:30Z</time>
      </trkpt>
      <trkpt lat="46.726638" lon="12.289519">
        <ele>1242.113</ele>
        <time>2018-09-10T13:15:34Z</time>
      </trkpt>
      <trkpt lat="46.726657" lon="12.289422">
        <ele>1240.761</ele>
        <time>2018-09-10T13:15:35Z</time>
      </trkpt>
      <trkpt lat="46.726689" lon="12.289333">
        <ele>1240.276</ele>
        <time>2018-09-10T13:15:36Z</time>
      </trkpt>
      <trkpt lat="46.726732" lon="12.289241">
        <ele>1239.234</ele>
        <time>2018-09-10T13:15:37Z</time>
      </trkpt>
      <trkpt lat="46.726777" lon="12.289153">
        <ele>1238.874</ele>
        <time>2018-09-10T13:15:38Z</time>
      </trkpt>
      <trkpt lat="46.726818" lon="12.289054">
        <ele>1238.359</ele>
        <time>2018-09-10T13:15:39Z</time>
      </trkpt>
      <trkpt lat="46.726849" lon="12.288950">
        <ele>1238.317</ele>
        <time>2018-09-10T13:15:40Z</time>
      </trkpt>
      <trkpt lat="46.727014" lon="12.288124">
        <ele>1236.824</ele>
        <time>2018-09-10T13:15:49Z</time>
      </trkpt>
      <trkpt lat="46.727045" lon="12.288038">
        <ele>1236.804</ele>
        <time>2018-09-10T13:15:50Z</time>
      </trkpt>
      <trkpt lat="46.727086" lon="12.287947">
        <ele>1236.314</ele>
        <time>2018-09-10T13:15:51Z</time>
      </trkpt>
      <trkpt lat="46.727125" lon="12.287841">
        <ele>1236.308</ele>
        <time>2018-09-10T13:15:52Z</time>
      </trkpt>
      <trkpt lat="46.727157" lon="12.287736">
        <ele>1236.396</ele>
        <time>2018-09-10T13:15:53Z</time>
      </trkpt>
      <trkpt lat="46.727187" lon="12.287625">
        <ele>1235.948</ele>
        <time>2018-09-10T13:15:54Z</time>
      </trkpt>
      <trkpt lat="46.727249" lon="12.287407">
        <ele>1235.966</ele>
        <time>2018-09-10T13:15:56Z</time>
      </trkpt>
      <trkpt lat="46.727399" lon="12.286924">
        <ele>1234.971</ele>
        <time>2018-09-10T13:16:01Z</time>
      </trkpt>
      <trkpt lat="46.727440" lon="12.286842">
        <ele>1234.939</ele>
        <time>2018-09-10T13:16:02Z</time>
      </trkpt>
      <trkpt lat="46.727474" lon="12.286772">
        <ele>1234.439</ele>
        <time>2018-09-10T13:16:03Z</time>
      </trkpt>
      <trkpt lat="46.727508" lon="12.286689">
        <ele>1233.934</ele>
        <time>2018-09-10T13:16:04Z</time>
      </trkpt>
      <trkpt lat="46.727539" lon="12.286606">
        <ele>1233.992</ele>
        <time>2018-09-10T13:16:05Z</time>
      </trkpt>
      <trkpt lat="46.727582" lon="12.286473">
        <ele>1233.581</ele>
        <time>2018-09-10T13:16:07Z</time>
      </trkpt>
      <trkpt lat="46.727603" lon="12.286424">
        <ele>1233.561</ele>
        <time>2018-09-10T13:16:08Z</time>
      </trkpt>
      <trkpt lat="46.727624" lon="12.286387">
        <ele>1233.917</ele>
        <time>2018-09-10T13:16:09Z</time>
      </trkpt>
      <trkpt lat="46.727813" lon="12.286352">
        <ele>1235.908</ele>
        <time>2018-09-10T13:16:21Z</time>
      </trkpt>
      <trkpt lat="46.727987" lon="12.286596">
        <ele>1233.522</ele>
        <time>2018-09-10T13:16:35Z</time>
      </trkpt>
      <trkpt lat="46.728053" lon="12.286926">
        <ele>1235.994</ele>
        <time>2018-09-10T13:16:49Z</time>
      </trkpt>
      <trkpt lat="46.728090" lon="12.287216">
        <ele>1234.952</ele>
        <time>2018-09-10T13:16:57Z</time>
      </trkpt>
      <trkpt lat="46.728090" lon="12.287248">
        <ele>1233.987</ele>
        <time>2018-09-10T13:16:58Z</time>
      </trkpt>
      <trkpt lat="46.728099" lon="12.287273">
        <ele>1232.535</ele>
        <time>2018-09-10T13:16:59Z</time>
      </trkpt>
      <trkpt lat="46.728343" lon="12.287471">
        <ele>1230.635</ele>
        <time>2018-09-10T13:17:11Z</time>
      </trkpt>
      <trkpt lat="46.728609" lon="12.287702">
        <ele>1231.190</ele>
        <time>2018-09-10T13:17:22Z</time>
      </trkpt>
      <trkpt lat="46.728668" lon="12.287891">
        <ele>1229.688</ele>
        <time>2018-09-10T13:17:25Z</time>
      </trkpt>
      <trkpt lat="46.728687" lon="12.287942">
        <ele>1229.175</ele>
        <time>2018-09-10T13:17:26Z</time>
      </trkpt>
      <trkpt lat="46.728713" lon="12.287969">
        <ele>1229.128</ele>
        <time>2018-09-10T13:17:27Z</time>
      </trkpt>
      <trkpt lat="46.728745" lon="12.287966">
        <ele>1228.720</ele>
        <time>2018-09-10T13:17:28Z</time>
      </trkpt>
      <trkpt lat="46.728773" lon="12.287952">
        <ele>1227.708</ele>
        <time>2018-09-10T13:17:29Z</time>
      </trkpt>
      <trkpt lat="46.728793" lon="12.287925">
        <ele>1226.751</ele>
        <time>2018-09-10T13:17:30Z</time>
      </trkpt>
      <trkpt lat="46.728808" lon="12.287879">
        <ele>1225.823</ele>
        <time>2018-09-10T13:17:31Z</time>
      </trkpt>
      <trkpt lat="46.728820" lon="12.287835">
        <ele>1224.841</ele>
        <time>2018-09-10T13:17:32Z</time>
      </trkpt>
      <trkpt lat="46.728834" lon="12.287786">
        <ele>1224.376</ele>
        <time>2018-09-10T13:17:33Z</time>
      </trkpt>
      <trkpt lat="46.729033" lon="12.287223">
        <ele>1221.924</ele>
        <time>2018-09-10T13:17:41Z</time>
      </trkpt>
      <trkpt lat="46.729415" lon="12.286467">
        <ele>1217.674</ele>
        <time>2018-09-10T13:17:52Z</time>
      </trkpt>
      <trkpt lat="46.729439" lon="12.286378">
        <ele>1217.189</ele>
        <time>2018-09-10T13:17:53Z</time>
      </trkpt>
      <trkpt lat="46.729481" lon="12.286202">
        <ele>1216.267</ele>
        <time>2018-09-10T13:17:55Z</time>
      </trkpt>
      <trkpt lat="46.729716" lon="12.285240">
        <ele>1208.514</ele>
        <time>2018-09-10T13:18:06Z</time>
      </trkpt>
      <trkpt lat="46.729780" lon="12.284989">
        <ele>1205.154</ele>
        <time>2018-09-10T13:18:10Z</time>
      </trkpt>
      <trkpt lat="46.729807" lon="12.284983">
        <ele>1204.609</ele>
        <time>2018-09-10T13:18:11Z</time>
      </trkpt>
      <trkpt lat="46.729836" lon="12.285003">
        <ele>1203.208</ele>
        <time>2018-09-10T13:18:12Z</time>
      </trkpt>
      <trkpt lat="46.729857" lon="12.285041">
        <ele>1202.235</ele>
        <time>2018-09-10T13:18:13Z</time>
      </trkpt>
      <trkpt lat="46.729877" lon="12.285080">
        <ele>1201.377</ele>
        <time>2018-09-10T13:18:14Z</time>
      </trkpt>
      <trkpt lat="46.729905" lon="12.285124">
        <ele>1199.855</ele>
        <time>2018-09-10T13:18:15Z</time>
      </trkpt>
      <trkpt lat="46.729936" lon="12.285168">
        <ele>1198.950</ele>
        <time>2018-09-10T13:18:16Z</time>
      </trkpt>
      <trkpt lat="46.729974" lon="12.285210">
        <ele>1197.438</ele>
        <time>2018-09-10T13:18:17Z</time>
      </trkpt>
      <trkpt lat="46.730013" lon="12.285244">
        <ele>1196.578</ele>
        <time>2018-09-10T13:18:18Z</time>
      </trkpt>
      <trkpt lat="46.730055" lon="12.285272">
        <ele>1195.563</ele>
        <time>2018-09-10T13:18:19Z</time>
      </trkpt>
      <trkpt lat="46.730097" lon="12.285289">
        <ele>1194.531</ele>
        <time>2018-09-10T13:18:20Z</time>
      </trkpt>
      <trkpt lat="46.730132" lon="12.285293">
        <ele>1194.011</ele>
        <time>2018-09-10T13:18:21Z</time>
      </trkpt>
      <trkpt lat="46.730159" lon="12.285288">
        <ele>1193.121</ele>
        <time>2018-09-10T13:18:22Z</time>
      </trkpt>
      <trkpt lat="46.730177" lon="12.285277">
        <ele>1192.603</ele>
        <time>2018-09-10T13:18:23Z</time>
      </trkpt>
      <trkpt lat="46.730190" lon="12.285270">
        <ele>1192.108</ele>
        <time>2018-09-10T13:18:24Z</time>
      </trkpt>
      <trkpt lat="46.730203" lon="12.285263">
        <ele>1191.625</ele>
        <time>2018-09-10T13:18:25Z</time>
      </trkpt>
      <trkpt lat="46.730219" lon="12.285251">
        <ele>1191.687</ele>
        <time>2018-09-10T13:18:26Z</time>
      </trkpt>
      <trkpt lat="46.730241" lon="12.285224">
        <ele>1191.245</ele>
        <time>2018-09-10T13:18:27Z</time>
      </trkpt>
      <trkpt lat="46.730264" lon="12.285175">
        <ele>1190.230</ele>
        <time>2018-09-10T13:18:28Z</time>
      </trkpt>
      <trkpt lat="46.730287" lon="12.285109">
        <ele>1189.218</ele>
        <time>2018-09-10T13:18:29Z</time>
      </trkpt>
      <trkpt lat="46.730309" lon="12.285032">
        <ele>1188.328</ele>
        <time>2018-09-10T13:18:30Z</time>
      </trkpt>
      <trkpt lat="46.730463" lon="12.284645">
        <ele>1184.063</ele>
        <time>2018-09-10T13:18:35Z</time>
      </trkpt>
      <trkpt lat="46.730515" lon="12.284576">
        <ele>1183.531</ele>
        <time>2018-09-10T13:18:36Z</time>
      </trkpt>
      <trkpt lat="46.730570" lon="12.284517">
        <ele>1183.589</ele>
        <time>2018-09-10T13:18:37Z</time>
      </trkpt>
      <trkpt lat="46.730630" lon="12.284467">
        <ele>1183.006</ele>
        <time>2018-09-10T13:18:38Z</time>
      </trkpt>
      <trkpt lat="46.730694" lon="12.284430">
        <ele>1183.026</ele>
        <time>2018-09-10T13:18:39Z</time>
      </trkpt>
      <trkpt lat="46.730764" lon="12.284405">
        <ele>1182.508</ele>
        <time>2018-09-10T13:18:40Z</time>
      </trkpt>
      <trkpt lat="46.730830" lon="12.284391">
        <ele>1182.542</ele>
        <time>2018-09-10T13:18:41Z</time>
      </trkpt>
      <trkpt lat="46.730901" lon="12.284380">
        <ele>1182.524</ele>
        <time>2018-09-10T13:18:42Z</time>
      </trkpt>
      <trkpt lat="46.731167" lon="12.284379">
        <ele>1181.642</ele>
        <time>2018-09-10T13:18:46Z</time>
      </trkpt>
      <trkpt lat="46.731228" lon="12.284391">
        <ele>1181.687</ele>
        <time>2018-09-10T13:18:47Z</time>
      </trkpt>
      <trkpt lat="46.731293" lon="12.284411">
        <ele>1181.665</ele>
        <time>2018-09-10T13:18:48Z</time>
      </trkpt>
      <trkpt lat="46.731420" lon="12.284445">
        <ele>1180.665</ele>
        <time>2018-09-10T13:18:50Z</time>
      </trkpt>
      <trkpt lat="46.731783" lon="12.284477">
        <ele>1179.650</ele>
        <time>2018-09-10T13:18:59Z</time>
      </trkpt>
      <trkpt lat="46.731843" lon="12.284344">
        <ele>1179.678</ele>
        <time>2018-09-10T13:19:04Z</time>
      </trkpt>
      <trkpt lat="46.731842" lon="12.284306">
        <ele>1179.143</ele>
        <time>2018-09-10T13:19:05Z</time>
      </trkpt>
      <trkpt lat="46.731840" lon="12.284271">
        <ele>1179.164</ele>
        <time>2018-09-10T13:19:06Z</time>
      </trkpt>
      <trkpt lat="46.731840" lon="12.284235">
        <ele>1179.110</ele>
        <time>2018-09-10T13:19:07Z</time>
      </trkpt>
      <trkpt lat="46.731843" lon="12.284197">
        <ele>1179.108</ele>
        <time>2018-09-10T13:19:08Z</time>
      </trkpt>
      <trkpt lat="46.731969" lon="12.283493">
        <ele>1179.138</ele>
        <time>2018-09-10T13:19:25Z</time>
      </trkpt>
      <trkpt lat="46.732197" lon="12.282792">
        <ele>1181.140</ele>
        <time>2018-09-10T13:19:42Z</time>
      </trkpt>
      <trkpt lat="46.732418" lon="12.282145">
        <ele>1178.738</ele>
        <time>2018-09-10T13:19:57Z</time>
      </trkpt>
      <trkpt lat="46.732485" lon="12.281781">
        <ele>1178.233</ele>
        <time>2018-09-10T13:20:06Z</time>
      </trkpt>
      <trkpt lat="46.732494" lon="12.281777">
        <ele>1178.751</ele>
        <time>2018-09-10T13:20:07Z</time>
      </trkpt>
      <trkpt lat="46.732751" lon="12.281841">
        <ele>1183.541</ele>
        <time>2018-09-10T13:20:19Z</time>
      </trkpt>
      <trkpt lat="46.732953" lon="12.281677">
        <ele>1183.026</ele>
        <time>2018-09-10T13:20:30Z</time>
      </trkpt>
      <trkpt lat="46.733054" lon="12.281367">
        <ele>1183.044</ele>
        <time>2018-09-10T13:20:42Z</time>
      </trkpt>
      <trkpt lat="46.733076" lon="12.281319">
        <ele>1182.574</ele>
        <time>2018-09-10T13:20:44Z</time>
      </trkpt>
      <trkpt lat="46.733083" lon="12.281305">
        <ele>1182.056</ele>
        <time>2018-09-10T13:20:45Z</time>
      </trkpt>
      <trkpt lat="46.733114" lon="12.281281">
        <ele>1179.621</ele>
        <time>2018-09-10T13:20:59Z</time>
      </trkpt>
      <trkpt lat="46.733142" lon="12.281305">
        <ele>1183.508</ele>
        <time>2018-09-10T13:21:24Z</time>
      </trkpt>
      <trkpt lat="46.733155" lon="12.281293">
        <ele>1183.061</ele>
        <time>2018-09-10T13:21:40Z</time>
      </trkpt>
      <trkpt lat="46.733179" lon="12.281262">
        <ele>1179.683</ele>
        <time>2018-09-10T13:22:04Z</time>
      </trkpt>
      <trkpt lat="46.733196" lon="12.281248">
        <ele>1177.721</ele>
        <time>2018-09-10T13:22:25Z</time>
      </trkpt>
      <trkpt lat="46.733193" lon="12.281229">
        <ele>1178.286</ele>
        <time>2018-09-10T13:22:26Z</time>
      </trkpt>
      <trkpt lat="46.733189" lon="12.281201">
        <ele>1178.254</ele>
        <time>2018-09-10T13:22:28Z</time>
      </trkpt>
      <trkpt lat="46.733220" lon="12.281031">
        <ele>1182.074</ele>
        <time>2018-09-10T13:22:42Z</time>
      </trkpt>
      <trkpt lat="46.733312" lon="12.280717">
        <ele>1181.149</ele>
        <time>2018-09-10T13:22:54Z</time>
      </trkpt>
      <trkpt lat="46.733458" lon="12.280216">
        <ele>1183.047</ele>
        <time>2018-09-10T13:23:09Z</time>
      </trkpt>
      <trkpt lat="46.733486" lon="12.280091">
        <ele>1182.011</ele>
        <time>2018-09-10T13:23:13Z</time>
      </trkpt>
      <trkpt lat="46.733503" lon="12.280068">
        <ele>1181.621</ele>
        <time>2018-09-10T13:23:14Z</time>
      </trkpt>
      <trkpt lat="46.733521" lon="12.280041">
        <ele>1181.103</ele>
        <time>2018-09-10T13:23:15Z</time>
      </trkpt>
      <trkpt lat="46.733535" lon="12.280009">
        <ele>1180.608</ele>
        <time>2018-09-10T13:23:16Z</time>
      </trkpt>
      <trkpt lat="46.733546" lon="12.279975">
        <ele>1180.695</ele>
        <time>2018-09-10T13:23:17Z</time>
      </trkpt>
      <trkpt lat="46.733690" lon="12.279454">
        <ele>1179.157</ele>
        <time>2018-09-10T13:23:32Z</time>
      </trkpt>
      <trkpt lat="46.733744" lon="12.279212">
        <ele>1180.685</ele>
        <time>2018-09-10T13:23:42Z</time>
      </trkpt>
      <trkpt lat="46.733756" lon="12.279189">
        <ele>1181.120</ele>
        <time>2018-09-10T13:23:43Z</time>
      </trkpt>
      <trkpt lat="46.733851" lon="12.278905">
        <ele>1183.588</ele>
        <time>2018-09-10T13:23:54Z</time>
      </trkpt>
      <trkpt lat="46.733873" lon="12.278891">
        <ele>1183.038</ele>
        <time>2018-09-10T13:23:55Z</time>
      </trkpt>
      <trkpt lat="46.733894" lon="12.278876">
        <ele>1182.563</ele>
        <time>2018-09-10T13:23:56Z</time>
      </trkpt>
      <trkpt lat="46.733911" lon="12.278855">
        <ele>1182.591</ele>
        <time>2018-09-10T13:23:57Z</time>
      </trkpt>
      <trkpt lat="46.733927" lon="12.278829">
        <ele>1182.588</ele>
        <time>2018-09-10T13:23:58Z</time>
      </trkpt>
      <trkpt lat="46.733940" lon="12.278799">
        <ele>1182.024</ele>
        <time>2018-09-10T13:23:59Z</time>
      </trkpt>
      <trkpt lat="46.733955" lon="12.278768">
        <ele>1182.026</ele>
        <time>2018-09-10T13:24:00Z</time>
      </trkpt>
      <trkpt lat="46.733971" lon="12.278735">
        <ele>1182.008</ele>
        <time>2018-09-10T13:24:01Z</time>
      </trkpt>
      <trkpt lat="46.733984" lon="12.278699">
        <ele>1181.682</ele>
        <time>2018-09-10T13:24:02Z</time>
      </trkpt>
      <trkpt lat="46.733997" lon="12.278659">
        <ele>1181.614</ele>
        <time>2018-09-10T13:24:03Z</time>
      </trkpt>
      <trkpt lat="46.734332" lon="12.277814">
        <ele>1178.292</ele>
        <time>2018-09-10T13:24:23Z</time>
      </trkpt>
      <trkpt lat="46.734317" lon="12.277226">
        <ele>1177.797</ele>
        <time>2018-09-10T13:24:37Z</time>
      </trkpt>
      <trkpt lat="46.733953" lon="12.276447">
        <ele>1179.625</ele>
        <time>2018-09-10T13:24:56Z</time>
      </trkpt>
      <trkpt lat="46.733680" lon="12.275759">
        <ele>1178.755</ele>
        <time>2018-09-10T13:25:12Z</time>
      </trkpt>
      <trkpt lat="46.733415" lon="12.274882">
        <ele>1178.730</ele>
        <time>2018-09-10T13:25:30Z</time>
      </trkpt>
      <trkpt lat="46.733133" lon="12.273957">
        <ele>1179.118</ele>
        <time>2018-09-10T13:25:49Z</time>
      </trkpt>
      <trkpt lat="46.732825" lon="12.273089">
        <ele>1180.188</ele>
        <time>2018-09-10T13:26:08Z</time>
      </trkpt>
      <trkpt lat="46.732510" lon="12.272321">
        <ele>1178.724</ele>
        <time>2018-09-10T13:26:25Z</time>
      </trkpt>
      <trkpt lat="46.732202" lon="12.271748">
        <ele>1177.726</ele>
        <time>2018-09-10T13:26:41Z</time>
      </trkpt>
      <trkpt lat="46.732039" lon="12.271352">
        <ele>1178.208</ele>
        <time>2018-09-10T13:26:54Z</time>
      </trkpt>
      <trkpt lat="46.732019" lon="12.271363">
        <ele>1178.242</ele>
        <time>2018-09-10T13:26:55Z</time>
      </trkpt>
      <trkpt lat="46.732008" lon="12.271386">
        <ele>1178.274</ele>
        <time>2018-09-10T13:26:56Z</time>
      </trkpt>
      <trkpt lat="46.732003" lon="12.271408">
        <ele>1178.232</ele>
        <time>2018-09-10T13:26:57Z</time>
      </trkpt>
      <trkpt lat="46.732001" lon="12.271440">
        <ele>1178.257</ele>
        <time>2018-09-10T13:26:58Z</time>
      </trkpt>
      <trkpt lat="46.732004" lon="12.271476">
        <ele>1177.785</ele>
        <time>2018-09-10T13:26:59Z</time>
      </trkpt>
      <trkpt lat="46.732013" lon="12.271513">
        <ele>1178.225</ele>
        <time>2018-09-10T13:27:00Z</time>
      </trkpt>
      <trkpt lat="46.732026" lon="12.271550">
        <ele>1178.260</ele>
        <time>2018-09-10T13:27:01Z</time>
      </trkpt>
      <trkpt lat="46.732087" lon="12.271673">
        <ele>1178.768</ele>
        <time>2018-09-10T13:27:05Z</time>
      </trkpt>
      <trkpt lat="46.732085" lon="12.271701">
        <ele>1178.732</ele>
        <time>2018-09-10T13:27:06Z</time>
      </trkpt>
      <trkpt lat="46.732070" lon="12.271726">
        <ele>1178.792</ele>
        <time>2018-09-10T13:27:07Z</time>
      </trkpt>
      <trkpt lat="46.732053" lon="12.271736">
        <ele>1178.711</ele>
        <time>2018-09-10T13:27:08Z</time>
      </trkpt>
      <trkpt lat="46.732031" lon="12.271755">
        <ele>1178.708</ele>
        <time>2018-09-10T13:27:09Z</time>
      </trkpt>
      <trkpt lat="46.732007" lon="12.271774">
        <ele>1179.127</ele>
        <time>2018-09-10T13:27:10Z</time>
      </trkpt>
      <trkpt lat="46.731905" lon="12.271862">
        <ele>1179.139</ele>
        <time>2018-09-10T13:27:14Z</time>
      </trkpt>
      <trkpt lat="46.731879" lon="12.271859">
        <ele>1178.727</ele>
        <time>2018-09-10T13:27:15Z</time>
      </trkpt>
      <trkpt lat="46.731858" lon="12.271836">
        <ele>1178.712</ele>
        <time>2018-09-10T13:27:16Z</time>
      </trkpt>
      <trkpt lat="46.731841" lon="12.271801">
        <ele>1178.290</ele>
        <time>2018-09-10T13:27:17Z</time>
      </trkpt>
      <trkpt lat="46.731826" lon="12.271765">
        <ele>1178.210</ele>
        <time>2018-09-10T13:27:18Z</time>
      </trkpt>
      <trkpt lat="46.731513" lon="12.271096">
        <ele>1178.775</ele>
        <time>2018-09-10T13:27:34Z</time>
      </trkpt>
      <trkpt lat="46.731170" lon="12.270136">
        <ele>1177.223</ele>
        <time>2018-09-10T13:27:54Z</time>
      </trkpt>
      <trkpt lat="46.730816" lon="12.269174">
        <ele>1177.727</ele>
        <time>2018-09-10T13:28:14Z</time>
      </trkpt>
      <trkpt lat="46.730545" lon="12.268327">
        <ele>1177.268</ele>
        <time>2018-09-10T13:28:31Z</time>
      </trkpt>
      <trkpt lat="46.730317" lon="12.267943">
        <ele>1177.714</ele>
        <time>2018-09-10T13:28:42Z</time>
      </trkpt>
      <trkpt lat="46.730064" lon="12.267632">
        <ele>1178.208</ele>
        <time>2018-09-10T13:28:52Z</time>
      </trkpt>
      <trkpt lat="46.729905" lon="12.267433">
        <ele>1178.236</ele>
        <time>2018-09-10T13:28:59Z</time>
      </trkpt>
      <trkpt lat="46.729813" lon="12.266835">
        <ele>1178.268</ele>
        <time>2018-09-10T13:29:11Z</time>
      </trkpt>
      <trkpt lat="46.729657" lon="12.265934">
        <ele>1177.246</ele>
        <time>2018-09-10T13:29:29Z</time>
      </trkpt>
      <trkpt lat="46.729564" lon="12.265494">
        <ele>1177.211</ele>
        <time>2018-09-10T13:29:42Z</time>
      </trkpt>
      <trkpt lat="46.729573" lon="12.265474">
        <ele>1180.149</ele>
        <time>2018-09-10T13:30:12Z</time>
      </trkpt>
      <trkpt lat="46.729561" lon="12.265480">
        <ele>1181.699</ele>
        <time>2018-09-10T13:30:42Z</time>
      </trkpt>
      <trkpt lat="46.729554" lon="12.265470">
        <ele>1180.654</ele>
        <time>2018-09-10T13:31:06Z</time>
      </trkpt>
      <trkpt lat="46.729556" lon="12.265446">
        <ele>1180.692</ele>
        <time>2018-09-10T13:31:07Z</time>
      </trkpt>
      <trkpt lat="46.729554" lon="12.265415">
        <ele>1180.146</ele>
        <time>2018-09-10T13:31:08Z</time>
      </trkpt>
      <trkpt lat="46.729548" lon="12.265379">
        <ele>1180.188</ele>
        <time>2018-09-10T13:31:09Z</time>
      </trkpt>
      <trkpt lat="46.729537" lon="12.265338">
        <ele>1179.616</ele>
        <time>2018-09-10T13:31:10Z</time>
      </trkpt>
      <trkpt lat="46.729440" lon="12.264956">
        <ele>1178.208</ele>
        <time>2018-09-10T13:31:16Z</time>
      </trkpt>
      <trkpt lat="46.729270" lon="12.264309">
        <ele>1177.778</ele>
        <time>2018-09-10T13:31:27Z</time>
      </trkpt>
      <trkpt lat="46.729108" lon="12.263926">
        <ele>1178.260</ele>
        <time>2018-09-10T13:31:37Z</time>
      </trkpt>
      <trkpt lat="46.728840" lon="12.263550">
        <ele>1179.648</ele>
        <time>2018-09-10T13:31:50Z</time>
      </trkpt>
      <trkpt lat="46.728810" lon="12.263521">
        <ele>1179.623</ele>
        <time>2018-09-10T13:32:03Z</time>
      </trkpt>
      <trkpt lat="46.728674" lon="12.263359">
        <ele>1179.611</ele>
        <time>2018-09-10T13:32:20Z</time>
      </trkpt>
      <trkpt lat="46.728189" lon="12.262885">
        <ele>1182.561</ele>
        <time>2018-09-10T13:32:37Z</time>
      </trkpt>
      <trkpt lat="46.727617" lon="12.262159">
        <ele>1183.596</ele>
        <time>2018-09-10T13:32:57Z</time>
      </trkpt>
      <trkpt lat="46.727074" lon="12.261448">
        <ele>1184.454</ele>
        <time>2018-09-10T13:33:15Z</time>
      </trkpt>
      <trkpt lat="46.726745" lon="12.260779">
        <ele>1184.452</ele>
        <time>2018-09-10T13:33:28Z</time>
      </trkpt>
      <trkpt lat="46.726465" lon="12.260042">
        <ele>1184.953</ele>
        <time>2018-09-10T13:33:44Z</time>
      </trkpt>
      <trkpt lat="46.726171" lon="12.259039">
        <ele>1185.908</ele>
        <time>2018-09-10T13:34:04Z</time>
      </trkpt>
      <trkpt lat="46.725894" lon="12.258214">
        <ele>1187.308</ele>
        <time>2018-09-10T13:34:22Z</time>
      </trkpt>
      <trkpt lat="46.725675" lon="12.257421">
        <ele>1190.749</ele>
        <time>2018-09-10T13:34:41Z</time>
      </trkpt>
      <trkpt lat="46.725674" lon="12.256660">
        <ele>1193.641</ele>
        <time>2018-09-10T13:34:59Z</time>
      </trkpt>
      <trkpt lat="46.725706" lon="12.256629">
        <ele>1193.669</ele>
        <time>2018-09-10T13:35:00Z</time>
      </trkpt>
      <trkpt lat="46.725749" lon="12.256607">
        <ele>1193.654</ele>
        <time>2018-09-10T13:35:01Z</time>
      </trkpt>
      <trkpt lat="46.725798" lon="12.256595">
        <ele>1193.132</ele>
        <time>2018-09-10T13:35:02Z</time>
      </trkpt>
      <trkpt lat="46.725849" lon="12.256584">
        <ele>1193.132</ele>
        <time>2018-09-10T13:35:03Z</time>
      </trkpt>
      <trkpt lat="46.725904" lon="12.256575">
        <ele>1192.647</ele>
        <time>2018-09-10T13:35:04Z</time>
      </trkpt>
      <trkpt lat="46.725961" lon="12.256573">
        <ele>1192.615</ele>
        <time>2018-09-10T13:35:05Z</time>
      </trkpt>
      <trkpt lat="46.726020" lon="12.256572">
        <ele>1192.125</ele>
        <time>2018-09-10T13:35:06Z</time>
      </trkpt>
      <trkpt lat="46.726693" lon="12.256402">
        <ele>1188.326</ele>
        <time>2018-09-10T13:35:18Z</time>
      </trkpt>
      <trkpt lat="46.726737" lon="12.256361">
        <ele>1188.308</ele>
        <time>2018-09-10T13:35:19Z</time>
      </trkpt>
      <trkpt lat="46.726770" lon="12.256303">
        <ele>1187.808</ele>
        <time>2018-09-10T13:35:20Z</time>
      </trkpt>
      <trkpt lat="46.726787" lon="12.256236">
        <ele>1187.856</ele>
        <time>2018-09-10T13:35:21Z</time>
      </trkpt>
      <trkpt lat="46.726788" lon="12.256165">
        <ele>1187.868</ele>
        <time>2018-09-10T13:35:22Z</time>
      </trkpt>
      <trkpt lat="46.726771" lon="12.256096">
        <ele>1187.316</ele>
        <time>2018-09-10T13:35:23Z</time>
      </trkpt>
      <trkpt lat="46.726750" lon="12.256028">
        <ele>1187.341</ele>
        <time>2018-09-10T13:35:24Z</time>
      </trkpt>
      <trkpt lat="46.726532" lon="12.255184">
        <ele>1186.819</ele>
        <time>2018-09-10T13:35:35Z</time>
      </trkpt>
      <trkpt lat="46.726503" lon="12.255042">
        <ele>1186.839</ele>
        <time>2018-09-10T13:35:37Z</time>
      </trkpt>
      <trkpt lat="46.726314" lon="12.253918">
        <ele>1187.374</ele>
        <time>2018-09-10T13:35:54Z</time>
      </trkpt>
      <trkpt lat="46.726303" lon="12.253851">
        <ele>1187.352</ele>
        <time>2018-09-10T13:35:55Z</time>
      </trkpt>
      <trkpt lat="46.726192" lon="12.252489">
        <ele>1187.333</ele>
        <time>2018-09-10T13:36:15Z</time>
      </trkpt>
      <trkpt lat="46.726176" lon="12.251412">
        <ele>1188.323</ele>
        <time>2018-09-10T13:36:30Z</time>
      </trkpt>
      <trkpt lat="46.726167" lon="12.249928">
        <ele>1188.815</ele>
        <time>2018-09-10T13:36:51Z</time>
      </trkpt>
      <trkpt lat="46.726160" lon="12.248412">
        <ele>1190.208</ele>
        <time>2018-09-10T13:37:13Z</time>
      </trkpt>
      <trkpt lat="46.726159" lon="12.246813">
        <ele>1190.797</ele>
        <time>2018-09-10T13:37:36Z</time>
      </trkpt>
      <trkpt lat="46.726154" lon="12.245506">
        <ele>1191.679</ele>
        <time>2018-09-10T13:37:55Z</time>
      </trkpt>
      <trkpt lat="46.726133" lon="12.244305">
        <ele>1193.147</ele>
        <time>2018-09-10T13:38:15Z</time>
      </trkpt>
      <trkpt lat="46.726021" lon="12.242965">
        <ele>1194.522</ele>
        <time>2018-09-10T13:38:37Z</time>
      </trkpt>
      <trkpt lat="46.725978" lon="12.242685">
        <ele>1194.570</ele>
        <time>2018-09-10T13:38:42Z</time>
      </trkpt>
      <trkpt lat="46.725848" lon="12.241833">
        <ele>1195.070</ele>
        <time>2018-09-10T13:38:57Z</time>
      </trkpt>
      <trkpt lat="46.725656" lon="12.240777">
        <ele>1196.045</ele>
        <time>2018-09-10T13:39:15Z</time>
      </trkpt>
      <trkpt lat="46.725634" lon="12.240723">
        <ele>1196.093</ele>
        <time>2018-09-10T13:39:16Z</time>
      </trkpt>
      <trkpt lat="46.725443" lon="12.240232">
        <ele>1195.542</ele>
        <time>2018-09-10T13:39:25Z</time>
      </trkpt>
      <trkpt lat="46.725417" lon="12.240189">
        <ele>1196.022</ele>
        <time>2018-09-10T13:39:26Z</time>
      </trkpt>
      <trkpt lat="46.725380" lon="12.240161">
        <ele>1196.014</ele>
        <time>2018-09-10T13:39:27Z</time>
      </trkpt>
      <trkpt lat="46.725337" lon="12.240150">
        <ele>1196.008</ele>
        <time>2018-09-10T13:39:28Z</time>
      </trkpt>
      <trkpt lat="46.725292" lon="12.240148">
        <ele>1196.588</ele>
        <time>2018-09-10T13:39:29Z</time>
      </trkpt>
      <trkpt lat="46.725248" lon="12.240149">
        <ele>1196.540</ele>
        <time>2018-09-10T13:39:30Z</time>
      </trkpt>
      <trkpt lat="46.725204" lon="12.240148">
        <ele>1196.548</ele>
        <time>2018-09-10T13:39:31Z</time>
      </trkpt>
      <trkpt lat="46.724635" lon="12.240197">
        <ele>1198.413</ele>
        <time>2018-09-10T13:39:47Z</time>
      </trkpt>
      <trkpt lat="46.724340" lon="12.240162">
        <ele>1199.361</ele>
        <time>2018-09-10T13:39:57Z</time>
      </trkpt>
      <trkpt lat="46.723813" lon="12.240254">
        <ele>1202.711</ele>
        <time>2018-09-10T13:40:16Z</time>
      </trkpt>
      <trkpt lat="46.723491" lon="12.240115">
        <ele>1205.146</ele>
        <time>2018-09-10T13:40:31Z</time>
      </trkpt>
      <trkpt lat="46.723200" lon="12.239815">
        <ele>1207.554</ele>
        <time>2018-09-10T13:40:45Z</time>
      </trkpt>
      <trkpt lat="46.723061" lon="12.239315">
        <ele>1210.957</ele>
        <time>2018-09-10T13:40:58Z</time>
      </trkpt>
      <trkpt lat="46.723035" lon="12.239304">
        <ele>1211.400</ele>
        <time>2018-09-10T13:40:59Z</time>
      </trkpt>
      <trkpt lat="46.722853" lon="12.239258">
        <ele>1211.820</ele>
        <time>2018-09-10T13:41:06Z</time>
      </trkpt>
      <trkpt lat="46.722842" lon="12.239232">
        <ele>1211.808</ele>
        <time>2018-09-10T13:41:07Z</time>
      </trkpt>
      <trkpt lat="46.722667" lon="12.238784">
        <ele>1212.899</ele>
        <time>2018-09-10T13:41:17Z</time>
      </trkpt>
      <trkpt lat="46.722436" lon="12.238071">
        <ele>1212.811</ele>
        <time>2018-09-10T13:41:28Z</time>
      </trkpt>
      <trkpt lat="46.722422" lon="12.238006">
        <ele>1213.359</ele>
        <time>2018-09-10T13:41:29Z</time>
      </trkpt>
      <trkpt lat="46.722419" lon="12.237939">
        <ele>1213.384</ele>
        <time>2018-09-10T13:41:30Z</time>
      </trkpt>
      <trkpt lat="46.722429" lon="12.237868">
        <ele>1212.862</ele>
        <time>2018-09-10T13:41:31Z</time>
      </trkpt>
      <trkpt lat="46.722445" lon="12.237800">
        <ele>1212.812</ele>
        <time>2018-09-10T13:41:32Z</time>
      </trkpt>
      <trkpt lat="46.722463" lon="12.237724">
        <ele>1212.817</ele>
        <time>2018-09-10T13:41:33Z</time>
      </trkpt>
      <trkpt lat="46.722474" lon="12.237638">
        <ele>1212.885</ele>
        <time>2018-09-10T13:41:34Z</time>
      </trkpt>
      <trkpt lat="46.722477" lon="12.237544">
        <ele>1212.398</ele>
        <time>2018-09-10T13:41:35Z</time>
      </trkpt>
      <trkpt lat="46.722472" lon="12.237450">
        <ele>1211.815</ele>
        <time>2018-09-10T13:41:36Z</time>
      </trkpt>
      <trkpt lat="46.722463" lon="12.237354">
        <ele>1211.426</ele>
        <time>2018-09-10T13:41:37Z</time>
      </trkpt>
      <trkpt lat="46.722448" lon="12.237254">
        <ele>1210.908</ele>
        <time>2018-09-10T13:41:38Z</time>
      </trkpt>
      <trkpt lat="46.722428" lon="12.237156">
        <ele>1210.443</ele>
        <time>2018-09-10T13:41:39Z</time>
      </trkpt>
      <trkpt lat="46.722411" lon="12.237057">
        <ele>1210.465</ele>
        <time>2018-09-10T13:41:40Z</time>
      </trkpt>
      <trkpt lat="46.722415" lon="12.236954">
        <ele>1209.963</ele>
        <time>2018-09-10T13:41:41Z</time>
      </trkpt>
      <trkpt lat="46.722440" lon="12.236856">
        <ele>1209.958</ele>
        <time>2018-09-10T13:41:42Z</time>
      </trkpt>
      <trkpt lat="46.722468" lon="12.236762">
        <ele>1209.966</ele>
        <time>2018-09-10T13:41:43Z</time>
      </trkpt>
      <trkpt lat="46.722540" lon="12.236465">
        <ele>1209.486</ele>
        <time>2018-09-10T13:41:46Z</time>
      </trkpt>
      <trkpt lat="46.722554" lon="12.236361">
        <ele>1209.051</ele>
        <time>2018-09-10T13:41:47Z</time>
      </trkpt>
      <trkpt lat="46.722596" lon="12.236042">
        <ele>1209.059</ele>
        <time>2018-09-10T13:41:50Z</time>
      </trkpt>
      <trkpt lat="46.722619" lon="12.235940">
        <ele>1209.016</ele>
        <time>2018-09-10T13:41:51Z</time>
      </trkpt>
      <trkpt lat="46.722648" lon="12.235840">
        <ele>1209.076</ele>
        <time>2018-09-10T13:41:52Z</time>
      </trkpt>
      <trkpt lat="46.723161" lon="12.234461">
        <ele>1209.413</ele>
        <time>2018-09-10T13:42:07Z</time>
      </trkpt>
      <trkpt lat="46.723549" lon="12.233305">
        <ele>1211.808</ele>
        <time>2018-09-10T13:42:23Z</time>
      </trkpt>
      <trkpt lat="46.723756" lon="12.232936">
        <ele>1214.275</ele>
        <time>2018-09-10T13:42:34Z</time>
      </trkpt>
      <trkpt lat="46.723805" lon="12.232528">
        <ele>1214.787</ele>
        <time>2018-09-10T13:42:48Z</time>
      </trkpt>
      <trkpt lat="46.723721" lon="12.231952">
        <ele>1215.785</ele>
        <time>2018-09-10T13:43:05Z</time>
      </trkpt>
      <trkpt lat="46.723669" lon="12.231515">
        <ele>1217.190</ele>
        <time>2018-09-10T13:43:21Z</time>
      </trkpt>
      <trkpt lat="46.723697" lon="12.231508">
        <ele>1217.688</ele>
        <time>2018-09-10T13:43:46Z</time>
      </trkpt>
      <trkpt lat="46.723659" lon="12.231481">
        <ele>1221.078</ele>
        <time>2018-09-10T13:44:12Z</time>
      </trkpt>
      <trkpt lat="46.723683" lon="12.231500">
        <ele>1217.173</ele>
        <time>2018-09-10T13:44:51Z</time>
      </trkpt>
      <trkpt lat="46.723632" lon="12.231555">
        <ele>1219.031</ele>
        <time>2018-09-10T13:45:26Z</time>
      </trkpt>
      <trkpt lat="46.723696" lon="12.231534">
        <ele>1220.567</ele>
        <time>2018-09-10T13:45:57Z</time>
      </trkpt>
      <trkpt lat="46.723705" lon="12.231546">
        <ele>1221.481</ele>
        <time>2018-09-10T13:46:16Z</time>
      </trkpt>
      <trkpt lat="46.723703" lon="12.231492">
        <ele>1221.419</ele>
        <time>2018-09-10T13:46:44Z</time>
      </trkpt>
      <trkpt lat="46.723692" lon="12.231518">
        <ele>1221.008</ele>
        <time>2018-09-10T13:47:17Z</time>
      </trkpt>
      <trkpt lat="46.723686" lon="12.231493">
        <ele>1219.030</ele>
        <time>2018-09-10T13:47:51Z</time>
      </trkpt>
      <trkpt lat="46.723681" lon="12.231509">
        <ele>1221.432</ele>
        <time>2018-09-10T13:48:16Z</time>
      </trkpt>
      <trkpt lat="46.723676" lon="12.231537">
        <ele>1219.080</ele>
        <time>2018-09-10T13:48:45Z</time>
      </trkpt>
      <trkpt lat="46.723698" lon="12.231515">
        <ele>1219.075</ele>
        <time>2018-09-10T13:49:15Z</time>
      </trkpt>
      <trkpt lat="46.723706" lon="12.231537">
        <ele>1218.633</ele>
        <time>2018-09-10T13:49:36Z</time>
      </trkpt>
      <trkpt lat="46.723691" lon="12.231518">
        <ele>1224.363</ele>
        <time>2018-09-10T13:50:03Z</time>
      </trkpt>
      <trkpt lat="46.723716" lon="12.231516">
        <ele>1222.418</ele>
        <time>2018-09-10T13:50:36Z</time>
      </trkpt>
      <trkpt lat="46.723715" lon="12.231493">
        <ele>1222.466</ele>
        <time>2018-09-10T13:51:01Z</time>
      </trkpt>
      <trkpt lat="46.723715" lon="12.231494">
        <ele>1222.432</ele>
        <time>2018-09-10T13:51:22Z</time>
      </trkpt>
      <trkpt lat="46.723696" lon="12.231446">
        <ele>1221.492</ele>
        <time>2018-09-10T13:51:36Z</time>
      </trkpt>
      <trkpt lat="46.723692" lon="12.231428">
        <ele>1221.411</ele>
        <time>2018-09-10T13:51:37Z</time>
      </trkpt>
      <trkpt lat="46.723689" lon="12.231405">
        <ele>1221.408</ele>
        <time>2018-09-10T13:51:38Z</time>
      </trkpt>
      <trkpt lat="46.723688" lon="12.231380">
        <ele>1221.447</ele>
        <time>2018-09-10T13:51:39Z</time>
      </trkpt>
      <trkpt lat="46.723687" lon="12.231346">
        <ele>1221.489</ele>
        <time>2018-09-10T13:51:40Z</time>
      </trkpt>
      <trkpt lat="46.723620" lon="12.230611">
        <ele>1219.047</ele>
        <time>2018-09-10T13:51:57Z</time>
      </trkpt>
      <trkpt lat="46.723636" lon="12.230542">
        <ele>1219.062</ele>
        <time>2018-09-10T13:51:59Z</time>
      </trkpt>
      <trkpt lat="46.723649" lon="12.230517">
        <ele>1219.580</ele>
        <time>2018-09-10T13:52:00Z</time>
      </trkpt>
      <trkpt lat="46.723813" lon="12.229886">
        <ele>1218.120</ele>
        <time>2018-09-10T13:52:10Z</time>
      </trkpt>
      <trkpt lat="46.723971" lon="12.229015">
        <ele>1217.645</ele>
        <time>2018-09-10T13:52:24Z</time>
      </trkpt>
      <trkpt lat="46.724102" lon="12.228130">
        <ele>1216.693</ele>
        <time>2018-09-10T13:52:38Z</time>
      </trkpt>
      <trkpt lat="46.724103" lon="12.228072">
        <ele>1216.641</ele>
        <time>2018-09-10T13:52:39Z</time>
      </trkpt>
      <trkpt lat="46.724112" lon="12.227866">
        <ele>1216.281</ele>
        <time>2018-09-10T13:52:42Z</time>
      </trkpt>
      <trkpt lat="46.724128" lon="12.227776">
        <ele>1216.209</ele>
        <time>2018-09-10T13:52:44Z</time>
      </trkpt>
      <trkpt lat="46.724126" lon="12.227741">
        <ele>1216.208</ele>
        <time>2018-09-10T13:52:45Z</time>
      </trkpt>
      <trkpt lat="46.724131" lon="12.227718">
        <ele>1216.278</ele>
        <time>2018-09-10T13:52:46Z</time>
      </trkpt>
      <trkpt lat="46.724133" lon="12.227689">
        <ele>1216.290</ele>
        <time>2018-09-10T13:52:47Z</time>
      </trkpt>
      <trkpt lat="46.724132" lon="12.227660">
        <ele>1216.268</ele>
        <time>2018-09-10T13:52:48Z</time>
      </trkpt>
      <trkpt lat="46.724134" lon="12.227632">
        <ele>1216.283</ele>
        <time>2018-09-10T13:52:49Z</time>
      </trkpt>
      <trkpt lat="46.724206" lon="12.227157">
        <ele>1215.711</ele>
        <time>2018-09-10T13:53:03Z</time>
      </trkpt>
      <trkpt lat="46.724301" lon="12.226490">
        <ele>1216.241</ele>
        <time>2018-09-10T13:53:21Z</time>
      </trkpt>
      <trkpt lat="46.724315" lon="12.225971">
        <ele>1215.716</ele>
        <time>2018-09-10T13:53:36Z</time>
      </trkpt>
      <trkpt lat="46.724457" lon="12.225409">
        <ele>1214.714</ele>
        <time>2018-09-10T13:53:52Z</time>
      </trkpt>
      <trkpt lat="46.724467" lon="12.225342">
        <ele>1215.283</ele>
        <time>2018-09-10T13:53:54Z</time>
      </trkpt>
      <trkpt lat="46.724461" lon="12.225317">
        <ele>1214.725</ele>
        <time>2018-09-10T13:53:55Z</time>
      </trkpt>
      <trkpt lat="46.724450" lon="12.225304">
        <ele>1214.217</ele>
        <time>2018-09-10T13:53:56Z</time>
      </trkpt>
      <trkpt lat="46.724435" lon="12.225297">
        <ele>1213.808</ele>
        <time>2018-09-10T13:53:57Z</time>
      </trkpt>
      <trkpt lat="46.724417" lon="12.225291">
        <ele>1213.822</ele>
        <time>2018-09-10T13:53:58Z</time>
      </trkpt>
      <trkpt lat="46.724011" lon="12.225270">
        <ele>1213.864</ele>
        <time>2018-09-10T13:54:13Z</time>
      </trkpt>
      <trkpt lat="46.723591" lon="12.225381">
        <ele>1214.792</ele>
        <time>2018-09-10T13:54:30Z</time>
      </trkpt>
      <trkpt lat="46.723232" lon="12.225197">
        <ele>1217.687</ele>
        <time>2018-09-10T13:54:47Z</time>
      </trkpt>
      <trkpt lat="46.723130" lon="12.224640">
        <ele>1216.645</ele>
        <time>2018-09-10T13:55:04Z</time>
      </trkpt>
      <trkpt lat="46.723015" lon="12.223981">
        <ele>1218.665</ele>
        <time>2018-09-10T13:55:22Z</time>
      </trkpt>
      <trkpt lat="46.723003" lon="12.223952">
        <ele>1218.690</ele>
        <time>2018-09-10T13:55:23Z</time>
      </trkpt>
      <trkpt lat="46.722984" lon="12.223934">
        <ele>1219.068</ele>
        <time>2018-09-10T13:55:24Z</time>
      </trkpt>
      <trkpt lat="46.722964" lon="12.223928">
        <ele>1219.013</ele>
        <time>2018-09-10T13:55:25Z</time>
      </trkpt>
      <trkpt lat="46.722931" lon="12.223940">
        <ele>1219.043</ele>
        <time>2018-09-10T13:55:27Z</time>
      </trkpt>
      <trkpt lat="46.722881" lon="12.223970">
        <ele>1215.707</ele>
        <time>2018-09-10T13:55:42Z</time>
      </trkpt>
      <trkpt lat="46.723110" lon="12.224414">
        <ele>1221.453</ele>
        <time>2018-09-11T05:27:40Z</time>
      </trkpt>
      <trkpt lat="46.723107" lon="12.224424">
        <ele>1221.004</ele>
        <time>2018-09-11T05:28:08Z</time>
      </trkpt>
      <trkpt lat="46.723097" lon="12.224432">
        <ele>1219.014</ele>
        <time>2018-09-11T05:28:21Z</time>
      </trkpt>
      <trkpt lat="46.723075" lon="12.224402">
        <ele>1218.608</ele>
        <time>2018-09-11T05:28:30Z</time>
      </trkpt>
      <trkpt lat="46.723059" lon="12.224134">
        <ele>1218.669</ele>
        <time>2018-09-11T05:28:47Z</time>
      </trkpt>
      <trkpt lat="46.723025" lon="12.223734">
        <ele>1218.671</ele>
        <time>2018-09-11T05:29:07Z</time>
      </trkpt>
      <trkpt lat="46.723015" lon="12.223445">
        <ele>1218.170</ele>
        <time>2018-09-11T05:29:19Z</time>
      </trkpt>
      <trkpt lat="46.723033" lon="12.223433">
        <ele>1218.159</ele>
        <time>2018-09-11T05:29:20Z</time>
      </trkpt>
      <trkpt lat="46.723052" lon="12.223426">
        <ele>1218.675</ele>
        <time>2018-09-11T05:29:21Z</time>
      </trkpt>
      <trkpt lat="46.723433" lon="12.223330">
        <ele>1218.631</ele>
        <time>2018-09-11T05:29:35Z</time>
      </trkpt>
      <trkpt lat="46.723790" lon="12.223221">
        <ele>1219.024</ele>
        <time>2018-09-11T05:29:49Z</time>
      </trkpt>
      <trkpt lat="46.724296" lon="12.223082">
        <ele>1214.287</ele>
        <time>2018-09-11T05:30:06Z</time>
      </trkpt>
      <trkpt lat="46.724877" lon="12.222949">
        <ele>1215.272</ele>
        <time>2018-09-11T05:30:25Z</time>
      </trkpt>
      <trkpt lat="46.725030" lon="12.222649">
        <ele>1215.213</ele>
        <time>2018-09-11T05:30:36Z</time>
      </trkpt>
      <trkpt lat="46.724970" lon="12.221839">
        <ele>1214.714</ele>
        <time>2018-09-11T05:30:54Z</time>
      </trkpt>
      <trkpt lat="46.724949" lon="12.221442">
        <ele>1215.208</ele>
        <time>2018-09-11T05:31:09Z</time>
      </trkpt>
      <trkpt lat="46.724920" lon="12.221436">
        <ele>1215.281</ele>
        <time>2018-09-11T05:31:31Z</time>
      </trkpt>
      <trkpt lat="46.724916" lon="12.221417">
        <ele>1216.273</ele>
        <time>2018-09-11T05:31:54Z</time>
      </trkpt>
      <trkpt lat="46.724955" lon="12.221397">
        <ele>1215.762</ele>
        <time>2018-09-11T05:32:13Z</time>
      </trkpt>
      <trkpt lat="46.724962" lon="12.221388">
        <ele>1215.711</ele>
        <time>2018-09-11T05:32:14Z</time>
      </trkpt>
      <trkpt lat="46.724968" lon="12.221372">
        <ele>1215.277</ele>
        <time>2018-09-11T05:32:15Z</time>
      </trkpt>
      <trkpt lat="46.724969" lon="12.221355">
        <ele>1215.273</ele>
        <time>2018-09-11T05:32:16Z</time>
      </trkpt>
      <trkpt lat="46.724969" lon="12.221328">
        <ele>1215.266</ele>
        <time>2018-09-11T05:32:17Z</time>
      </trkpt>
      <trkpt lat="46.724969" lon="12.221299">
        <ele>1215.219</ele>
        <time>2018-09-11T05:32:18Z</time>
      </trkpt>
      <trkpt lat="46.724961" lon="12.220589">
        <ele>1212.371</ele>
        <time>2018-09-11T05:32:32Z</time>
      </trkpt>
      <trkpt lat="46.725032" lon="12.219440">
        <ele>1212.341</ele>
        <time>2018-09-11T05:32:52Z</time>
      </trkpt>
      <trkpt lat="46.725076" lon="12.218665">
        <ele>1210.915</ele>
        <time>2018-09-11T05:33:04Z</time>
      </trkpt>
      <trkpt lat="46.725102" lon="12.218595">
        <ele>1210.908</ele>
        <time>2018-09-11T05:33:05Z</time>
      </trkpt>
      <trkpt lat="46.725138" lon="12.218529">
        <ele>1210.911</ele>
        <time>2018-09-11T05:33:06Z</time>
      </trkpt>
      <trkpt lat="46.725183" lon="12.218469">
        <ele>1210.493</ele>
        <time>2018-09-11T05:33:07Z</time>
      </trkpt>
      <trkpt lat="46.725234" lon="12.218414">
        <ele>1210.422</ele>
        <time>2018-09-11T05:33:08Z</time>
      </trkpt>
      <trkpt lat="46.725602" lon="12.218093">
        <ele>1208.061</ele>
        <time>2018-09-11T05:33:14Z</time>
      </trkpt>
      <trkpt lat="46.725654" lon="12.218008">
        <ele>1207.547</ele>
        <time>2018-09-11T05:33:15Z</time>
      </trkpt>
      <trkpt lat="46.725687" lon="12.217904">
        <ele>1207.073</ele>
        <time>2018-09-11T05:33:16Z</time>
      </trkpt>
      <trkpt lat="46.725695" lon="12.217787">
        <ele>1206.576</ele>
        <time>2018-09-11T05:33:17Z</time>
      </trkpt>
      <trkpt lat="46.725678" lon="12.217670">
        <ele>1206.579</ele>
        <time>2018-09-11T05:33:18Z</time>
      </trkpt>
      <trkpt lat="46.725644" lon="12.217562">
        <ele>1206.119</ele>
        <time>2018-09-11T05:33:19Z</time>
      </trkpt>
      <trkpt lat="46.725600" lon="12.217464">
        <ele>1205.609</ele>
        <time>2018-09-11T05:33:20Z</time>
      </trkpt>
      <trkpt lat="46.725525" lon="12.217283">
        <ele>1205.619</ele>
        <time>2018-09-11T05:33:22Z</time>
      </trkpt>
      <trkpt lat="46.725484" lon="12.217141">
        <ele>1205.108</ele>
        <time>2018-09-11T05:33:24Z</time>
      </trkpt>
      <trkpt lat="46.725478" lon="12.217086">
        <ele>1205.175</ele>
        <time>2018-09-11T05:33:25Z</time>
      </trkpt>
      <trkpt lat="46.725477" lon="12.217033">
        <ele>1205.677</ele>
        <time>2018-09-11T05:33:26Z</time>
      </trkpt>
      <trkpt lat="46.725505" lon="12.216843">
        <ele>1206.526</ele>
        <time>2018-09-11T05:33:32Z</time>
      </trkpt>
      <trkpt lat="46.725515" lon="12.216820">
        <ele>1206.585</ele>
        <time>2018-09-11T05:33:33Z</time>
      </trkpt>
      <trkpt lat="46.725510" lon="12.216797">
        <ele>1206.581</ele>
        <time>2018-09-11T05:33:34Z</time>
      </trkpt>
      <trkpt lat="46.725489" lon="12.216789">
        <ele>1206.127</ele>
        <time>2018-09-11T05:33:35Z</time>
      </trkpt>
      <trkpt lat="46.725463" lon="12.216805">
        <ele>1206.120</ele>
        <time>2018-09-11T05:33:36Z</time>
      </trkpt>
      <trkpt lat="46.725439" lon="12.216827">
        <ele>1206.113</ele>
        <time>2018-09-11T05:33:37Z</time>
      </trkpt>
      <trkpt lat="46.725421" lon="12.216844">
        <ele>1206.197</ele>
        <time>2018-09-11T05:33:38Z</time>
      </trkpt>
      <trkpt lat="46.725394" lon="12.216854">
        <ele>1206.523</ele>
        <time>2018-09-11T05:33:39Z</time>
      </trkpt>
      <trkpt lat="46.725370" lon="12.216844">
        <ele>1206.525</ele>
        <time>2018-09-11T05:33:40Z</time>
      </trkpt>
      <trkpt lat="46.725350" lon="12.216823">
        <ele>1206.508</ele>
        <time>2018-09-11T05:33:41Z</time>
      </trkpt>
      <trkpt lat="46.725334" lon="12.216792">
        <ele>1206.563</ele>
        <time>2018-09-11T05:33:42Z</time>
      </trkpt>
      <trkpt lat="46.725322" lon="12.216758">
        <ele>1207.025</ele>
        <time>2018-09-11T05:33:43Z</time>
      </trkpt>
      <trkpt lat="46.725313" lon="12.216721">
        <ele>1206.574</ele>
        <time>2018-09-11T05:33:44Z</time>
      </trkpt>
      <trkpt lat="46.725067" lon="12.216189">
        <ele>1205.193</ele>
        <time>2018-09-11T05:33:59Z</time>
      </trkpt>
      <trkpt lat="46.724971" lon="12.215932">
        <ele>1206.199</ele>
        <time>2018-09-11T05:34:08Z</time>
      </trkpt>
      <trkpt lat="46.724791" lon="12.215817">
        <ele>1209.495</ele>
        <time>2018-09-11T05:34:21Z</time>
      </trkpt>
      <trkpt lat="46.724581" lon="12.215811">
        <ele>1210.918</ele>
        <time>2018-09-11T05:34:36Z</time>
      </trkpt>
      <trkpt lat="46.724361" lon="12.215844">
        <ele>1214.221</ele>
        <time>2018-09-11T05:34:51Z</time>
      </trkpt>
      <trkpt lat="46.724026" lon="12.215803">
        <ele>1215.285</ele>
        <time>2018-09-11T05:35:10Z</time>
      </trkpt>
      <trkpt lat="46.723602" lon="12.215679">
        <ele>1215.789</ele>
        <time>2018-09-11T05:35:33Z</time>
      </trkpt>
      <trkpt lat="46.723320" lon="12.215620">
        <ele>1216.617</ele>
        <time>2018-09-11T05:35:49Z</time>
      </trkpt>
      <trkpt lat="46.723011" lon="12.215540">
        <ele>1217.608</ele>
        <time>2018-09-11T05:36:08Z</time>
      </trkpt>
      <trkpt lat="46.722703" lon="12.215587">
        <ele>1220.032</ele>
        <time>2018-09-11T05:36:26Z</time>
      </trkpt>
      <trkpt lat="46.722413" lon="12.215769">
        <ele>1221.054</ele>
        <time>2018-09-11T05:36:39Z</time>
      </trkpt>
      <trkpt lat="46.722036" lon="12.216081">
        <ele>1223.493</ele>
        <time>2018-09-11T05:36:58Z</time>
      </trkpt>
      <trkpt lat="46.722026" lon="12.216096">
        <ele>1223.482</ele>
        <time>2018-09-11T05:37:03Z</time>
      </trkpt>
      <trkpt lat="46.722018" lon="12.216117">
        <ele>1223.438</ele>
        <time>2018-09-11T05:37:04Z</time>
      </trkpt>
      <trkpt lat="46.722009" lon="12.216140">
        <ele>1223.444</ele>
        <time>2018-09-11T05:37:05Z</time>
      </trkpt>
      <trkpt lat="46.721994" lon="12.216166">
        <ele>1223.917</ele>
        <time>2018-09-11T05:37:06Z</time>
      </trkpt>
      <trkpt lat="46.721975" lon="12.216191">
        <ele>1223.990</ele>
        <time>2018-09-11T05:37:07Z</time>
      </trkpt>
      <trkpt lat="46.721955" lon="12.216214">
        <ele>1223.941</ele>
        <time>2018-09-11T05:37:08Z</time>
      </trkpt>
      <trkpt lat="46.721481" lon="12.216609">
        <ele>1224.881</ele>
        <time>2018-09-11T05:37:27Z</time>
      </trkpt>
      <trkpt lat="46.720994" lon="12.216763">
        <ele>1224.309</ele>
        <time>2018-09-11T05:37:46Z</time>
      </trkpt>
      <trkpt lat="46.720566" lon="12.216834">
        <ele>1226.308</ele>
        <time>2018-09-11T05:38:03Z</time>
      </trkpt>
      <trkpt lat="46.720015" lon="12.216868">
        <ele>1225.828</ele>
        <time>2018-09-11T05:38:21Z</time>
      </trkpt>
      <trkpt lat="46.719386" lon="12.216966">
        <ele>1223.960</ele>
        <time>2018-09-11T05:38:39Z</time>
      </trkpt>
      <trkpt lat="46.718722" lon="12.217237">
        <ele>1219.069</ele>
        <time>2018-09-11T05:38:50Z</time>
      </trkpt>
      <trkpt lat="46.718229" lon="12.217747">
        <ele>1219.598</ele>
        <time>2018-09-11T05:39:02Z</time>
      </trkpt>
      <trkpt lat="46.717697" lon="12.218466">
        <ele>1220.534</ele>
        <time>2018-09-11T05:39:21Z</time>
      </trkpt>
      <trkpt lat="46.717325" lon="12.219029">
        <ele>1221.460</ele>
        <time>2018-09-11T05:39:38Z</time>
      </trkpt>
      <trkpt lat="46.716944" lon="12.219650">
        <ele>1221.093</ele>
        <time>2018-09-11T05:39:57Z</time>
      </trkpt>
      <trkpt lat="46.716453" lon="12.220209">
        <ele>1220.546</ele>
        <time>2018-09-11T05:40:19Z</time>
      </trkpt>
      <trkpt lat="46.716152" lon="12.220559">
        <ele>1221.077</ele>
        <time>2018-09-11T05:40:34Z</time>
      </trkpt>
      <trkpt lat="46.715838" lon="12.220871">
        <ele>1224.361</ele>
        <time>2018-09-11T05:40:49Z</time>
      </trkpt>
      <trkpt lat="46.715422" lon="12.221269">
        <ele>1227.227</ele>
        <time>2018-09-11T05:41:09Z</time>
      </trkpt>
      <trkpt lat="46.714990" lon="12.221487">
        <ele>1231.108</ele>
        <time>2018-09-11T05:41:28Z</time>
      </trkpt>
      <trkpt lat="46.714623" lon="12.221593">
        <ele>1233.531</ele>
        <time>2018-09-11T05:41:46Z</time>
      </trkpt>
      <trkpt lat="46.714292" lon="12.221762">
        <ele>1234.953</ele>
        <time>2018-09-11T05:42:05Z</time>
      </trkpt>
      <trkpt lat="46.714019" lon="12.221809">
        <ele>1236.352</ele>
        <time>2018-09-11T05:42:21Z</time>
      </trkpt>
      <trkpt lat="46.713793" lon="12.221831">
        <ele>1238.391</ele>
        <time>2018-09-11T05:42:35Z</time>
      </trkpt>
      <trkpt lat="46.713535" lon="12.221785">
        <ele>1237.397</ele>
        <time>2018-09-11T05:42:52Z</time>
      </trkpt>
      <trkpt lat="46.713297" lon="12.221710">
        <ele>1236.833</ele>
        <time>2018-09-11T05:43:09Z</time>
      </trkpt>
      <trkpt lat="46.713108" lon="12.221667">
        <ele>1239.746</ele>
        <time>2018-09-11T05:43:21Z</time>
      </trkpt>
      <trkpt lat="46.713095" lon="12.221663">
        <ele>1239.799</ele>
        <time>2018-09-11T05:43:22Z</time>
      </trkpt>
      <trkpt lat="46.713014" lon="12.221624">
        <ele>1240.227</ele>
        <time>2018-09-11T05:43:28Z</time>
      </trkpt>
      <trkpt lat="46.713000" lon="12.221624">
        <ele>1240.268</ele>
        <time>2018-09-11T05:43:29Z</time>
      </trkpt>
      <trkpt lat="46.712986" lon="12.221619">
        <ele>1240.214</ele>
        <time>2018-09-11T05:43:30Z</time>
      </trkpt>
      <trkpt lat="46.712974" lon="12.221614">
        <ele>1240.708</ele>
        <time>2018-09-11T05:43:31Z</time>
      </trkpt>
      <trkpt lat="46.712962" lon="12.221609">
        <ele>1240.716</ele>
        <time>2018-09-11T05:43:32Z</time>
      </trkpt>
      <trkpt lat="46.712951" lon="12.221600">
        <ele>1240.798</ele>
        <time>2018-09-11T05:43:33Z</time>
      </trkpt>
      <trkpt lat="46.712937" lon="12.221591">
        <ele>1241.257</ele>
        <time>2018-09-11T05:43:34Z</time>
      </trkpt>
      <trkpt lat="46.712647" lon="12.221556">
        <ele>1245.576</ele>
        <time>2018-09-11T05:43:53Z</time>
      </trkpt>
      <trkpt lat="46.712356" lon="12.221692">
        <ele>1248.892</ele>
        <time>2018-09-11T05:44:10Z</time>
      </trkpt>
      <trkpt lat="46.712078" lon="12.221828">
        <ele>1249.818</ele>
        <time>2018-09-11T05:44:27Z</time>
      </trkpt>
      <trkpt lat="46.711748" lon="12.221809">
        <ele>1250.331</ele>
        <time>2018-09-11T05:44:46Z</time>
      </trkpt>
      <trkpt lat="46.711487" lon="12.221749">
        <ele>1248.824</ele>
        <time>2018-09-11T05:45:01Z</time>
      </trkpt>
      <trkpt lat="46.711263" lon="12.221653">
        <ele>1248.846</ele>
        <time>2018-09-11T05:45:15Z</time>
      </trkpt>
      <trkpt lat="46.711085" lon="12.221526">
        <ele>1249.888</ele>
        <time>2018-09-11T05:45:28Z</time>
      </trkpt>
      <trkpt lat="46.710783" lon="12.221414">
        <ele>1252.716</ele>
        <time>2018-09-11T05:45:45Z</time>
      </trkpt>
      <trkpt lat="46.710510" lon="12.221321">
        <ele>1254.608</ele>
        <time>2018-09-11T05:45:59Z</time>
      </trkpt>
      <trkpt lat="46.710279" lon="12.221235">
        <ele>1254.168</ele>
        <time>2018-09-11T05:46:13Z</time>
      </trkpt>
      <trkpt lat="46.710021" lon="12.221108">
        <ele>1254.610</ele>
        <time>2018-09-11T05:46:27Z</time>
      </trkpt>
      <trkpt lat="46.709674" lon="12.220943">
        <ele>1256.529</ele>
        <time>2018-09-11T05:46:44Z</time>
      </trkpt>
      <trkpt lat="46.709420" lon="12.220776">
        <ele>1254.618</ele>
        <time>2018-09-11T05:46:58Z</time>
      </trkpt>
      <trkpt lat="46.709154" lon="12.220515">
        <ele>1256.124</ele>
        <time>2018-09-11T05:47:12Z</time>
      </trkpt>
      <trkpt lat="46.708835" lon="12.220216">
        <ele>1257.040</ele>
        <time>2018-09-11T05:47:28Z</time>
      </trkpt>
      <trkpt lat="46.708536" lon="12.220008">
        <ele>1260.433</ele>
        <time>2018-09-11T05:47:44Z</time>
      </trkpt>
      <trkpt lat="46.708197" lon="12.219886">
        <ele>1263.746</ele>
        <time>2018-09-11T05:47:59Z</time>
      </trkpt>
      <trkpt lat="46.707817" lon="12.219659">
        <ele>1262.867</ele>
        <time>2018-09-11T05:48:16Z</time>
      </trkpt>
      <trkpt lat="46.707504" lon="12.219462">
        <ele>1263.381</ele>
        <time>2018-09-11T05:48:28Z</time>
      </trkpt>
      <trkpt lat="46.707480" lon="12.219447">
        <ele>1263.319</ele>
        <time>2018-09-11T05:48:29Z</time>
      </trkpt>
      <trkpt lat="46.707455" lon="12.219447">
        <ele>1263.308</ele>
        <time>2018-09-11T05:48:30Z</time>
      </trkpt>
      <trkpt lat="46.707427" lon="12.219450">
        <ele>1262.890</ele>
        <time>2018-09-11T05:48:31Z</time>
      </trkpt>
      <trkpt lat="46.707402" lon="12.219443">
        <ele>1262.822</ele>
        <time>2018-09-11T05:48:32Z</time>
      </trkpt>
      <trkpt lat="46.707375" lon="12.219427">
        <ele>1262.311</ele>
        <time>2018-09-11T05:48:33Z</time>
      </trkpt>
      <trkpt lat="46.707347" lon="12.219402">
        <ele>1261.890</ele>
        <time>2018-09-11T05:48:34Z</time>
      </trkpt>
      <trkpt lat="46.707316" lon="12.219375">
        <ele>1261.326</ele>
        <time>2018-09-11T05:48:35Z</time>
      </trkpt>
      <trkpt lat="46.706918" lon="12.218968">
        <ele>1259.422</ele>
        <time>2018-09-11T05:48:49Z</time>
      </trkpt>
      <trkpt lat="46.706593" lon="12.218612">
        <ele>1260.425</ele>
        <time>2018-09-11T05:49:04Z</time>
      </trkpt>
      <trkpt lat="46.706351" lon="12.218346">
        <ele>1261.358</ele>
        <time>2018-09-11T05:49:18Z</time>
      </trkpt>
      <trkpt lat="46.706333" lon="12.218340">
        <ele>1261.398</ele>
        <time>2018-09-11T05:49:19Z</time>
      </trkpt>
      <trkpt lat="46.706314" lon="12.218360">
        <ele>1261.315</ele>
        <time>2018-09-11T05:49:20Z</time>
      </trkpt>
      <trkpt lat="46.706301" lon="12.218391">
        <ele>1261.326</ele>
        <time>2018-09-11T05:49:21Z</time>
      </trkpt>
      <trkpt lat="46.706291" lon="12.218411">
        <ele>1261.308</ele>
        <time>2018-09-11T05:49:22Z</time>
      </trkpt>
      <trkpt lat="46.706277" lon="12.218433">
        <ele>1260.953</ele>
        <time>2018-09-11T05:49:23Z</time>
      </trkpt>
      <trkpt lat="46.706287" lon="12.218455">
        <ele>1259.455</ele>
        <time>2018-09-11T05:49:35Z</time>
      </trkpt>
      <trkpt lat="46.706284" lon="12.218448">
        <ele>1261.824</ele>
        <time>2018-09-11T05:50:17Z</time>
      </trkpt>
      <trkpt lat="46.706260" lon="12.218441">
        <ele>1264.273</ele>
        <time>2018-09-11T05:50:38Z</time>
      </trkpt>
      <trkpt lat="46.706294" lon="12.218217">
        <ele>1263.399</ele>
        <time>2018-09-11T05:50:46Z</time>
      </trkpt>
      <trkpt lat="46.706281" lon="12.218170">
        <ele>1263.365</ele>
        <time>2018-09-11T05:50:47Z</time>
      </trkpt>
      <trkpt lat="46.706269" lon="12.218146">
        <ele>1263.378</ele>
        <time>2018-09-11T05:50:48Z</time>
      </trkpt>
      <trkpt lat="46.706248" lon="12.218112">
        <ele>1262.891</ele>
        <time>2018-09-11T05:50:49Z</time>
      </trkpt>
      <trkpt lat="46.706226" lon="12.218079">
        <ele>1262.811</ele>
        <time>2018-09-11T05:50:50Z</time>
      </trkpt>
      <trkpt lat="46.706206" lon="12.218044">
        <ele>1262.821</ele>
        <time>2018-09-11T05:50:51Z</time>
      </trkpt>
      <trkpt lat="46.705863" lon="12.217500">
        <ele>1262.303</ele>
        <time>2018-09-11T05:51:06Z</time>
      </trkpt>
      <trkpt lat="46.705580" lon="12.217112">
        <ele>1261.808</ele>
        <time>2018-09-11T05:51:16Z</time>
      </trkpt>
      <trkpt lat="46.705544" lon="12.217084">
        <ele>1261.845</ele>
        <time>2018-09-11T05:51:17Z</time>
      </trkpt>
      <trkpt lat="46.705436" lon="12.217006">
        <ele>1261.347</ele>
        <time>2018-09-11T05:51:20Z</time>
      </trkpt>
      <trkpt lat="46.705397" lon="12.216984">
        <ele>1260.946</ele>
        <time>2018-09-11T05:51:21Z</time>
      </trkpt>
      <trkpt lat="46.705356" lon="12.216966">
        <ele>1260.985</ele>
        <time>2018-09-11T05:51:22Z</time>
      </trkpt>
      <trkpt lat="46.705276" lon="12.216936">
        <ele>1260.991</ele>
        <time>2018-09-11T05:51:24Z</time>
      </trkpt>
      <trkpt lat="46.704834" lon="12.217035">
        <ele>1262.327</ele>
        <time>2018-09-11T05:51:36Z</time>
      </trkpt>
      <trkpt lat="46.704518" lon="12.217006">
        <ele>1262.390</ele>
        <time>2018-09-11T05:51:49Z</time>
      </trkpt>
      <trkpt lat="46.704459" lon="12.216976">
        <ele>1261.313</ele>
        <time>2018-09-11T05:51:54Z</time>
      </trkpt>
      <trkpt lat="46.704447" lon="12.216986">
        <ele>1261.396</ele>
        <time>2018-09-11T05:51:55Z</time>
      </trkpt>
      <trkpt lat="46.704404" lon="12.217012">
        <ele>1261.331</ele>
        <time>2018-09-11T05:51:58Z</time>
      </trkpt>
      <trkpt lat="46.704389" lon="12.217013">
        <ele>1261.324</ele>
        <time>2018-09-11T05:51:59Z</time>
      </trkpt>
      <trkpt lat="46.704376" lon="12.217010">
        <ele>1261.808</ele>
        <time>2018-09-11T05:52:00Z</time>
      </trkpt>
      <trkpt lat="46.704084" lon="12.216829">
        <ele>1262.333</ele>
        <time>2018-09-11T05:52:15Z</time>
      </trkpt>
      <trkpt lat="46.703706" lon="12.216861">
        <ele>1260.475</ele>
        <time>2018-09-11T05:52:27Z</time>
      </trkpt>
      <trkpt lat="46.703358" lon="12.216757">
        <ele>1264.794</ele>
        <time>2018-09-11T05:52:41Z</time>
      </trkpt>
      <trkpt lat="46.703078" lon="12.216555">
        <ele>1258.983</ele>
        <time>2018-09-11T05:52:51Z</time>
      </trkpt>
      <trkpt lat="46.703031" lon="12.216552">
        <ele>1258.539</ele>
        <time>2018-09-11T05:52:52Z</time>
      </trkpt>
      <trkpt lat="46.702983" lon="12.216549">
        <ele>1257.555</ele>
        <time>2018-09-11T05:52:53Z</time>
      </trkpt>
      <trkpt lat="46.702641" lon="12.216514">
        <ele>1254.188</ele>
        <time>2018-09-11T05:53:04Z</time>
      </trkpt>
      <trkpt lat="46.702262" lon="12.216434">
        <ele>1255.161</ele>
        <time>2018-09-11T05:53:17Z</time>
      </trkpt>
      <trkpt lat="46.701914" lon="12.216428">
        <ele>1262.328</ele>
        <time>2018-09-11T05:53:31Z</time>
      </trkpt>
      <trkpt lat="46.701492" lon="12.216314">
        <ele>1260.989</ele>
        <time>2018-09-11T05:53:44Z</time>
      </trkpt>
      <trkpt lat="46.701098" lon="12.216021">
        <ele>1263.717</ele>
        <time>2018-09-11T05:53:57Z</time>
      </trkpt>
      <trkpt lat="46.700752" lon="12.215655">
        <ele>1266.108</ele>
        <time>2018-09-11T05:54:10Z</time>
      </trkpt>
      <trkpt lat="46.700625" lon="12.215535">
        <ele>1265.296</ele>
        <time>2018-09-11T05:54:14Z</time>
      </trkpt>
      <trkpt lat="46.700581" lon="12.215509">
        <ele>1265.258</ele>
        <time>2018-09-11T05:54:15Z</time>
      </trkpt>
      <trkpt lat="46.700530" lon="12.215479">
        <ele>1264.247</ele>
        <time>2018-09-11T05:54:16Z</time>
      </trkpt>
      <trkpt lat="46.700409" lon="12.215430">
        <ele>1263.346</ele>
        <time>2018-09-11T05:54:18Z</time>
      </trkpt>
      <trkpt lat="46.700270" lon="12.215417">
        <ele>1262.872</ele>
        <time>2018-09-11T05:54:20Z</time>
      </trkpt>
      <trkpt lat="46.699602" lon="12.215484">
        <ele>1261.368</ele>
        <time>2018-09-11T05:54:30Z</time>
      </trkpt>
      <trkpt lat="46.699550" lon="12.215494">
        <ele>1261.891</ele>
        <time>2018-09-11T05:54:31Z</time>
      </trkpt>
      <trkpt lat="46.699500" lon="12.215497">
        <ele>1261.854</ele>
        <time>2018-09-11T05:54:32Z</time>
      </trkpt>
      <trkpt lat="46.699240" lon="12.215502">
        <ele>1264.225</ele>
        <time>2018-09-11T05:54:42Z</time>
      </trkpt>
      <trkpt lat="46.699079" lon="12.215587">
        <ele>1266.126</ele>
        <time>2018-09-11T05:54:55Z</time>
      </trkpt>
      <trkpt lat="46.699043" lon="12.215604">
        <ele>1266.608</ele>
        <time>2018-09-11T05:54:58Z</time>
      </trkpt>
      <trkpt lat="46.698904" lon="12.215698">
        <ele>1268.608</ele>
        <time>2018-09-11T05:55:10Z</time>
      </trkpt>
      <trkpt lat="46.698631" lon="12.215853">
        <ele>1267.626</ele>
        <time>2018-09-11T05:55:23Z</time>
      </trkpt>
      <trkpt lat="46.698465" lon="12.215950">
        <ele>1265.758</ele>
        <time>2018-09-11T05:55:35Z</time>
      </trkpt>
      <trkpt lat="46.698387" lon="12.215976">
        <ele>1265.217</ele>
        <time>2018-09-11T05:55:48Z</time>
      </trkpt>
      <trkpt lat="46.698140" lon="12.216040">
        <ele>1264.286</ele>
        <time>2018-09-11T05:55:58Z</time>
      </trkpt>
      <trkpt lat="46.697764" lon="12.216120">
        <ele>1263.732</ele>
        <time>2018-09-11T05:56:09Z</time>
      </trkpt>
      <trkpt lat="46.697715" lon="12.216152">
        <ele>1263.368</ele>
        <time>2018-09-11T05:56:10Z</time>
      </trkpt>
      <trkpt lat="46.697674" lon="12.216192">
        <ele>1263.741</ele>
        <time>2018-09-11T05:56:11Z</time>
      </trkpt>
      <trkpt lat="46.697631" lon="12.216243">
        <ele>1263.724</ele>
        <time>2018-09-11T05:56:12Z</time>
      </trkpt>
      <trkpt lat="46.697590" lon="12.216307">
        <ele>1263.768</ele>
        <time>2018-09-11T05:56:13Z</time>
      </trkpt>
      <trkpt lat="46.697556" lon="12.216375">
        <ele>1263.742</ele>
        <time>2018-09-11T05:56:14Z</time>
      </trkpt>
      <trkpt lat="46.697528" lon="12.216447">
        <ele>1263.726</ele>
        <time>2018-09-11T05:56:15Z</time>
      </trkpt>
      <trkpt lat="46.697505" lon="12.216516">
        <ele>1263.708</ele>
        <time>2018-09-11T05:56:16Z</time>
      </trkpt>
      <trkpt lat="46.697491" lon="12.216574">
        <ele>1263.380</ele>
        <time>2018-09-11T05:56:17Z</time>
      </trkpt>
      <trkpt lat="46.697481" lon="12.216633">
        <ele>1263.342</ele>
        <time>2018-09-11T05:56:18Z</time>
      </trkpt>
      <trkpt lat="46.697467" lon="12.216690">
        <ele>1263.351</ele>
        <time>2018-09-11T05:56:19Z</time>
      </trkpt>
      <trkpt lat="46.697209" lon="12.217309">
        <ele>1261.320</ele>
        <time>2018-09-11T05:56:32Z</time>
      </trkpt>
      <trkpt lat="46.697007" lon="12.217917">
        <ele>1258.566</ele>
        <time>2018-09-11T05:56:47Z</time>
      </trkpt>
      <trkpt lat="46.696783" lon="12.218257">
        <ele>1256.572</ele>
        <time>2018-09-11T05:57:01Z</time>
      </trkpt>
      <trkpt lat="46.696519" lon="12.218530">
        <ele>1259.935</ele>
        <time>2018-09-11T05:57:17Z</time>
      </trkpt>
      <trkpt lat="46.696209" lon="12.218671">
        <ele>1265.788</ele>
        <time>2018-09-11T05:57:30Z</time>
      </trkpt>
      <trkpt lat="46.695866" lon="12.218761">
        <ele>1266.693</ele>
        <time>2018-09-11T05:57:44Z</time>
      </trkpt>
      <trkpt lat="46.695561" lon="12.218742">
        <ele>1267.665</ele>
        <time>2018-09-11T05:57:56Z</time>
      </trkpt>
      <trkpt lat="46.695212" lon="12.218593">
        <ele>1269.021</ele>
        <time>2018-09-11T05:58:09Z</time>
      </trkpt>
      <trkpt lat="46.695013" lon="12.218647">
        <ele>1267.108</ele>
        <time>2018-09-11T05:58:14Z</time>
      </trkpt>
      <trkpt lat="46.694969" lon="12.218654">
        <ele>1266.613</ele>
        <time>2018-09-11T05:58:15Z</time>
      </trkpt>
      <trkpt lat="46.694756" lon="12.218704">
        <ele>1266.195</ele>
        <time>2018-09-11T05:58:20Z</time>
      </trkpt>
      <trkpt lat="46.694723" lon="12.218730">
        <ele>1266.144</ele>
        <time>2018-09-11T05:58:21Z</time>
      </trkpt>
      <trkpt lat="46.694693" lon="12.218760">
        <ele>1265.723</ele>
        <time>2018-09-11T05:58:22Z</time>
      </trkpt>
      <trkpt lat="46.694467" lon="12.219047">
        <ele>1264.299</ele>
        <time>2018-09-11T05:58:33Z</time>
      </trkpt>
      <trkpt lat="46.694138" lon="12.219268">
        <ele>1262.375</ele>
        <time>2018-09-11T05:58:45Z</time>
      </trkpt>
      <trkpt lat="46.693745" lon="12.219460">
        <ele>1258.038</ele>
        <time>2018-09-11T05:58:57Z</time>
      </trkpt>
      <trkpt lat="46.693437" lon="12.219749">
        <ele>1257.061</ele>
        <time>2018-09-11T05:59:09Z</time>
      </trkpt>
      <trkpt lat="46.693191" lon="12.220029">
        <ele>1255.134</ele>
        <time>2018-09-11T05:59:21Z</time>
      </trkpt>
      <trkpt lat="46.692806" lon="12.220328">
        <ele>1255.155</ele>
        <time>2018-09-11T05:59:36Z</time>
      </trkpt>
      <trkpt lat="46.692489" lon="12.220356">
        <ele>1258.510</ele>
        <time>2018-09-11T05:59:47Z</time>
      </trkpt>
      <trkpt lat="46.692160" lon="12.220500">
        <ele>1263.308</ele>
        <time>2018-09-11T05:59:59Z</time>
      </trkpt>
      <trkpt lat="46.691883" lon="12.220347">
        <ele>1264.797</ele>
        <time>2018-09-11T06:00:10Z</time>
      </trkpt>
      <trkpt lat="46.691511" lon="12.219967">
        <ele>1263.319</ele>
        <time>2018-09-11T06:00:26Z</time>
      </trkpt>
      <trkpt lat="46.691339" lon="12.220209">
        <ele>1260.418</ele>
        <time>2018-09-11T06:00:35Z</time>
      </trkpt>
      <trkpt lat="46.691297" lon="12.220739">
        <ele>1263.317</ele>
        <time>2018-09-11T06:00:47Z</time>
      </trkpt>
      <trkpt lat="46.691238" lon="12.221248">
        <ele>1263.773</ele>
        <time>2018-09-11T06:00:59Z</time>
      </trkpt>
      <trkpt lat="46.691145" lon="12.221711">
        <ele>1261.839</ele>
        <time>2018-09-11T06:01:10Z</time>
      </trkpt>
      <trkpt lat="46.691082" lon="12.221884">
        <ele>1262.842</ele>
        <time>2018-09-11T06:01:15Z</time>
      </trkpt>
      <trkpt lat="46.691050" lon="12.221897">
        <ele>1262.845</ele>
        <time>2018-09-11T06:01:16Z</time>
      </trkpt>
      <trkpt lat="46.691023" lon="12.221900">
        <ele>1263.751</ele>
        <time>2018-09-11T06:01:17Z</time>
      </trkpt>
      <trkpt lat="46.690625" lon="12.222014">
        <ele>1271.401</ele>
        <time>2018-09-11T06:01:34Z</time>
      </trkpt>
      <trkpt lat="46.690323" lon="12.222153">
        <ele>1272.911</ele>
        <time>2018-09-11T06:01:49Z</time>
      </trkpt>
      <trkpt lat="46.689900" lon="12.222179">
        <ele>1278.608</ele>
        <time>2018-09-11T06:02:08Z</time>
      </trkpt>
      <trkpt lat="46.689543" lon="12.222175">
        <ele>1283.529</ele>
        <time>2018-09-11T06:02:25Z</time>
      </trkpt>
      <trkpt lat="46.689258" lon="12.222131">
        <ele>1284.411</ele>
        <time>2018-09-11T06:02:40Z</time>
      </trkpt>
      <trkpt lat="46.689019" lon="12.221842">
        <ele>1287.810</ele>
        <time>2018-09-11T06:02:55Z</time>
      </trkpt>
      <trkpt lat="46.688734" lon="12.221974">
        <ele>1286.339</ele>
        <time>2018-09-11T06:03:11Z</time>
      </trkpt>
      <trkpt lat="46.688489" lon="12.222186">
        <ele>1284.415</ele>
        <time>2018-09-11T06:03:28Z</time>
      </trkpt>
      <trkpt lat="46.688295" lon="12.222413">
        <ele>1283.021</ele>
        <time>2018-09-11T06:03:43Z</time>
      </trkpt>
      <trkpt lat="46.688167" lon="12.222618">
        <ele>1281.514</ele>
        <time>2018-09-11T06:03:58Z</time>
      </trkpt>
      <trkpt lat="46.688003" lon="12.222770">
        <ele>1283.947</ele>
        <time>2018-09-11T06:04:14Z</time>
      </trkpt>
      <trkpt lat="46.687879" lon="12.222886">
        <ele>1284.983</ele>
        <time>2018-09-11T06:04:28Z</time>
      </trkpt>
      <trkpt lat="46.687739" lon="12.222996">
        <ele>1289.225</ele>
        <time>2018-09-11T06:04:40Z</time>
      </trkpt>
      <trkpt lat="46.687548" lon="12.222984">
        <ele>1293.117</ele>
        <time>2018-09-11T06:04:54Z</time>
      </trkpt>
      <trkpt lat="46.687292" lon="12.223039">
        <ele>1296.908</ele>
        <time>2018-09-11T06:05:10Z</time>
      </trkpt>
      <trkpt lat="46.687061" lon="12.223261">
        <ele>1293.162</ele>
        <time>2018-09-11T06:05:26Z</time>
      </trkpt>
      <trkpt lat="46.687021" lon="12.223310">
        <ele>1293.164</ele>
        <time>2018-09-11T06:05:29Z</time>
      </trkpt>
      <trkpt lat="46.687002" lon="12.223332">
        <ele>1293.513</ele>
        <time>2018-09-11T06:05:30Z</time>
      </trkpt>
      <trkpt lat="46.686987" lon="12.223350">
        <ele>1293.532</ele>
        <time>2018-09-11T06:05:31Z</time>
      </trkpt>
      <trkpt lat="46.686953" lon="12.223381">
        <ele>1293.158</ele>
        <time>2018-09-11T06:05:33Z</time>
      </trkpt>
      <trkpt lat="46.686659" lon="12.223492">
        <ele>1293.574</ele>
        <time>2018-09-11T06:05:48Z</time>
      </trkpt>
      <trkpt lat="46.686335" lon="12.223612">
        <ele>1295.567</ele>
        <time>2018-09-11T06:06:05Z</time>
      </trkpt>
      <trkpt lat="46.686050" lon="12.223775">
        <ele>1297.480</ele>
        <time>2018-09-11T06:06:22Z</time>
      </trkpt>
      <trkpt lat="46.685767" lon="12.223847">
        <ele>1294.576</ele>
        <time>2018-09-11T06:06:36Z</time>
      </trkpt>
      <trkpt lat="46.685515" lon="12.223769">
        <ele>1293.190</ele>
        <time>2018-09-11T06:06:49Z</time>
      </trkpt>
      <trkpt lat="46.685304" lon="12.223709">
        <ele>1293.519</ele>
        <time>2018-09-11T06:07:00Z</time>
      </trkpt>
      <trkpt lat="46.684946" lon="12.223652">
        <ele>1298.408</ele>
        <time>2018-09-11T06:07:14Z</time>
      </trkpt>
      <trkpt lat="46.684921" lon="12.223657">
        <ele>1298.491</ele>
        <time>2018-09-11T06:07:15Z</time>
      </trkpt>
      <trkpt lat="46.684895" lon="12.223672">
        <ele>1298.483</ele>
        <time>2018-09-11T06:07:16Z</time>
      </trkpt>
      <trkpt lat="46.684860" lon="12.223688">
        <ele>1298.472</ele>
        <time>2018-09-11T06:07:17Z</time>
      </trkpt>
      <trkpt lat="46.684827" lon="12.223689">
        <ele>1298.431</ele>
        <time>2018-09-11T06:07:18Z</time>
      </trkpt>
      <trkpt lat="46.684801" lon="12.223686">
        <ele>1298.497</ele>
        <time>2018-09-11T06:07:19Z</time>
      </trkpt>
      <trkpt lat="46.684779" lon="12.223681">
        <ele>1297.973</ele>
        <time>2018-09-11T06:07:20Z</time>
      </trkpt>
      <trkpt lat="46.684761" lon="12.223677">
        <ele>1297.986</ele>
        <time>2018-09-11T06:07:21Z</time>
      </trkpt>
      <trkpt lat="46.684616" lon="12.223590">
        <ele>1297.969</ele>
        <time>2018-09-11T06:07:29Z</time>
      </trkpt>
      <trkpt lat="46.684594" lon="12.223565">
        <ele>1297.944</ele>
        <time>2018-09-11T06:07:31Z</time>
      </trkpt>
      <trkpt lat="46.684581" lon="12.223554">
        <ele>1297.905</ele>
        <time>2018-09-11T06:07:32Z</time>
      </trkpt>
      <trkpt lat="46.684568" lon="12.223545">
        <ele>1297.915</ele>
        <time>2018-09-11T06:07:33Z</time>
      </trkpt>
      <trkpt lat="46.684332" lon="12.223432">
        <ele>1297.908</ele>
        <time>2018-09-11T06:07:44Z</time>
      </trkpt>
      <trkpt lat="46.684201" lon="12.223437">
        <ele>1297.948</ele>
        <time>2018-09-11T06:07:47Z</time>
      </trkpt>
      <trkpt lat="46.684153" lon="12.223424">
        <ele>1297.920</ele>
        <time>2018-09-11T06:07:48Z</time>
      </trkpt>
      <trkpt lat="46.684063" lon="12.223377">
        <ele>1297.469</ele>
        <time>2018-09-11T06:07:50Z</time>
      </trkpt>
      <trkpt lat="46.684023" lon="12.223351">
        <ele>1297.448</ele>
        <time>2018-09-11T06:07:51Z</time>
      </trkpt>
      <trkpt lat="46.683757" lon="12.223239">
        <ele>1296.924</ele>
        <time>2018-09-11T06:08:01Z</time>
      </trkpt>
      <trkpt lat="46.683442" lon="12.223187">
        <ele>1298.490</ele>
        <time>2018-09-11T06:08:15Z</time>
      </trkpt>
      <trkpt lat="46.683202" lon="12.223133">
        <ele>1300.893</ele>
        <time>2018-09-11T06:08:26Z</time>
      </trkpt>
      <trkpt lat="46.683183" lon="12.223144">
        <ele>1300.866</ele>
        <time>2018-09-11T06:08:27Z</time>
      </trkpt>
      <trkpt lat="46.683164" lon="12.223156">
        <ele>1300.877</ele>
        <time>2018-09-11T06:08:28Z</time>
      </trkpt>
      <trkpt lat="46.683037" lon="12.223209">
        <ele>1299.861</ele>
        <time>2018-09-11T06:08:34Z</time>
      </trkpt>
      <trkpt lat="46.683012" lon="12.223212">
        <ele>1299.327</ele>
        <time>2018-09-11T06:08:35Z</time>
      </trkpt>
      <trkpt lat="46.682937" lon="12.223217">
        <ele>1298.808</ele>
        <time>2018-09-11T06:08:38Z</time>
      </trkpt>
      <trkpt lat="46.682914" lon="12.223212">
        <ele>1298.451</ele>
        <time>2018-09-11T06:08:39Z</time>
      </trkpt>
      <trkpt lat="46.682896" lon="12.223199">
        <ele>1297.973</ele>
        <time>2018-09-11T06:08:40Z</time>
      </trkpt>
      <trkpt lat="46.682866" lon="12.223192">
        <ele>1298.452</ele>
        <time>2018-09-11T06:08:41Z</time>
      </trkpt>
      <trkpt lat="46.682844" lon="12.223176">
        <ele>1297.991</ele>
        <time>2018-09-11T06:08:42Z</time>
      </trkpt>
      <trkpt lat="46.682821" lon="12.223171">
        <ele>1297.957</ele>
        <time>2018-09-11T06:08:43Z</time>
      </trkpt>
      <trkpt lat="46.682798" lon="12.223168">
        <ele>1298.453</ele>
        <time>2018-09-11T06:08:44Z</time>
      </trkpt>
      <trkpt lat="46.682774" lon="12.223162">
        <ele>1298.496</ele>
        <time>2018-09-11T06:08:45Z</time>
      </trkpt>
      <trkpt lat="46.682739" lon="12.223158">
        <ele>1298.869</ele>
        <time>2018-09-11T06:08:46Z</time>
      </trkpt>
      <trkpt lat="46.682706" lon="12.223141">
        <ele>1298.473</ele>
        <time>2018-09-11T06:08:47Z</time>
      </trkpt>
      <trkpt lat="46.682674" lon="12.223120">
        <ele>1298.885</ele>
        <time>2018-09-11T06:08:48Z</time>
      </trkpt>
      <trkpt lat="46.682418" lon="12.222942">
        <ele>1301.713</ele>
        <time>2018-09-11T06:08:59Z</time>
      </trkpt>
      <trkpt lat="46.682154" lon="12.222763">
        <ele>1305.108</ele>
        <time>2018-09-11T06:09:11Z</time>
      </trkpt>
      <trkpt lat="46.681866" lon="12.222632">
        <ele>1303.261</ele>
        <time>2018-09-11T06:09:23Z</time>
      </trkpt>
      <trkpt lat="46.681608" lon="12.222493">
        <ele>1303.673</ele>
        <time>2018-09-11T06:09:34Z</time>
      </trkpt>
      <trkpt lat="46.681239" lon="12.222338">
        <ele>1304.182</ele>
        <time>2018-09-11T06:09:49Z</time>
      </trkpt>
      <trkpt lat="46.680937" lon="12.222170">
        <ele>1302.741</ele>
        <time>2018-09-11T06:10:03Z</time>
      </trkpt>
      <trkpt lat="46.680866" lon="12.222166">
        <ele>1303.267</ele>
        <time>2018-09-11T06:10:12Z</time>
      </trkpt>
      <trkpt lat="46.680786" lon="12.222081">
        <ele>1304.143</ele>
        <time>2018-09-11T06:10:25Z</time>
      </trkpt>
      <trkpt lat="46.680709" lon="12.221997">
        <ele>1303.616</ele>
        <time>2018-09-11T06:10:30Z</time>
      </trkpt>
      <trkpt lat="46.680482" lon="12.221957">
        <ele>1304.169</ele>
        <time>2018-09-11T06:10:43Z</time>
      </trkpt>
      <trkpt lat="46.680302" lon="12.221991">
        <ele>1308.029</ele>
        <time>2018-09-11T06:10:53Z</time>
      </trkpt>
      <trkpt lat="46.680289" lon="12.221983">
        <ele>1308.000</ele>
        <time>2018-09-11T06:10:54Z</time>
      </trkpt>
      <trkpt lat="46.680277" lon="12.221979">
        <ele>1308.420</ele>
        <time>2018-09-11T06:10:55Z</time>
      </trkpt>
      <trkpt lat="46.680264" lon="12.221979">
        <ele>1308.408</ele>
        <time>2018-09-11T06:10:56Z</time>
      </trkpt>
      <trkpt lat="46.680249" lon="12.221979">
        <ele>1308.446</ele>
        <time>2018-09-11T06:10:57Z</time>
      </trkpt>
      <trkpt lat="46.680235" lon="12.221983">
        <ele>1308.478</ele>
        <time>2018-09-11T06:10:58Z</time>
      </trkpt>
      <trkpt lat="46.680078" lon="12.221945">
        <ele>1306.517</ele>
        <time>2018-09-11T06:11:09Z</time>
      </trkpt>
      <trkpt lat="46.679863" lon="12.221873">
        <ele>1305.186</ele>
        <time>2018-09-11T06:11:19Z</time>
      </trkpt>
      <trkpt lat="46.679664" lon="12.221738">
        <ele>1305.662</ele>
        <time>2018-09-11T06:11:32Z</time>
      </trkpt>
      <trkpt lat="46.679569" lon="12.221699">
        <ele>1308.958</ele>
        <time>2018-09-11T06:11:38Z</time>
      </trkpt>
      <trkpt lat="46.679396" lon="12.221667">
        <ele>1311.831</ele>
        <time>2018-09-11T06:11:47Z</time>
      </trkpt>
      <trkpt lat="46.679370" lon="12.221662">
        <ele>1312.324</ele>
        <time>2018-09-11T06:11:48Z</time>
      </trkpt>
      <trkpt lat="46.679343" lon="12.221652">
        <ele>1312.379</ele>
        <time>2018-09-11T06:11:49Z</time>
      </trkpt>
      <trkpt lat="46.679322" lon="12.221636">
        <ele>1312.805</ele>
        <time>2018-09-11T06:11:50Z</time>
      </trkpt>
      <trkpt lat="46.679300" lon="12.221621">
        <ele>1312.825</ele>
        <time>2018-09-11T06:11:51Z</time>
      </trkpt>
      <trkpt lat="46.679279" lon="12.221609">
        <ele>1312.808</ele>
        <time>2018-09-11T06:11:52Z</time>
      </trkpt>
      <trkpt lat="46.679256" lon="12.221595">
        <ele>1312.841</ele>
        <time>2018-09-11T06:11:53Z</time>
      </trkpt>
      <trkpt lat="46.679236" lon="12.221581">
        <ele>1312.833</ele>
        <time>2018-09-11T06:11:54Z</time>
      </trkpt>
      <trkpt lat="46.679218" lon="12.221564">
        <ele>1312.882</ele>
        <time>2018-09-11T06:11:55Z</time>
      </trkpt>
      <trkpt lat="46.679195" lon="12.221544">
        <ele>1313.381</ele>
        <time>2018-09-11T06:11:56Z</time>
      </trkpt>
      <trkpt lat="46.679168" lon="12.221525">
        <ele>1313.387</ele>
        <time>2018-09-11T06:11:57Z</time>
      </trkpt>
      <trkpt lat="46.679138" lon="12.221517">
        <ele>1313.373</ele>
        <time>2018-09-11T06:11:58Z</time>
      </trkpt>
      <trkpt lat="46.678841" lon="12.221393">
        <ele>1312.336</ele>
        <time>2018-09-11T06:12:06Z</time>
      </trkpt>
      <trkpt lat="46.678567" lon="12.221142">
        <ele>1310.499</ele>
        <time>2018-09-11T06:12:17Z</time>
      </trkpt>
      <trkpt lat="46.678448" lon="12.220717">
        <ele>1308.031</ele>
        <time>2018-09-11T06:12:29Z</time>
      </trkpt>
      <trkpt lat="46.678438" lon="12.220686">
        <ele>1307.561</ele>
        <time>2018-09-11T06:12:30Z</time>
      </trkpt>
      <trkpt lat="46.678425" lon="12.220653">
        <ele>1307.007</ele>
        <time>2018-09-11T06:12:31Z</time>
      </trkpt>
      <trkpt lat="46.678414" lon="12.220619">
        <ele>1306.508</ele>
        <time>2018-09-11T06:12:32Z</time>
      </trkpt>
      <trkpt lat="46.678408" lon="12.220582">
        <ele>1306.527</ele>
        <time>2018-09-11T06:12:33Z</time>
      </trkpt>
      <trkpt lat="46.678401" lon="12.220542">
        <ele>1306.049</ele>
        <time>2018-09-11T06:12:34Z</time>
      </trkpt>
      <trkpt lat="46.678389" lon="12.220511">
        <ele>1305.628</ele>
        <time>2018-09-11T06:12:35Z</time>
      </trkpt>
      <trkpt lat="46.678373" lon="12.220478">
        <ele>1305.677</ele>
        <time>2018-09-11T06:12:36Z</time>
      </trkpt>
      <trkpt lat="46.678354" lon="12.220449">
        <ele>1305.633</ele>
        <time>2018-09-11T06:12:37Z</time>
      </trkpt>
      <trkpt lat="46.678332" lon="12.220430">
        <ele>1305.619</ele>
        <time>2018-09-11T06:12:38Z</time>
      </trkpt>
      <trkpt lat="46.678305" lon="12.220418">
        <ele>1305.642</ele>
        <time>2018-09-11T06:12:39Z</time>
      </trkpt>
      <trkpt lat="46.678276" lon="12.220411">
        <ele>1305.695</ele>
        <time>2018-09-11T06:12:40Z</time>
      </trkpt>
      <trkpt lat="46.678250" lon="12.220417">
        <ele>1305.653</ele>
        <time>2018-09-11T06:12:41Z</time>
      </trkpt>
      <trkpt lat="46.678230" lon="12.220421">
        <ele>1305.604</ele>
        <time>2018-09-11T06:12:42Z</time>
      </trkpt>
      <trkpt lat="46.678212" lon="12.220424">
        <ele>1305.114</ele>
        <time>2018-09-11T06:12:43Z</time>
      </trkpt>
      <trkpt lat="46.678191" lon="12.220428">
        <ele>1305.108</ele>
        <time>2018-09-11T06:12:44Z</time>
      </trkpt>
      <trkpt lat="46.678168" lon="12.220428">
        <ele>1304.669</ele>
        <time>2018-09-11T06:12:45Z</time>
      </trkpt>
      <trkpt lat="46.677864" lon="12.220481">
        <ele>1305.661</ele>
        <time>2018-09-11T06:12:57Z</time>
      </trkpt>
      <trkpt lat="46.677567" lon="12.220525">
        <ele>1306.010</ele>
        <time>2018-09-11T06:13:10Z</time>
      </trkpt>
      <trkpt lat="46.677342" lon="12.220561">
        <ele>1307.029</ele>
        <time>2018-09-11T06:13:21Z</time>
      </trkpt>
      <trkpt lat="46.677216" lon="12.220646">
        <ele>1309.945</ele>
        <time>2018-09-11T06:13:33Z</time>
      </trkpt>
      <trkpt lat="46.677142" lon="12.220673">
        <ele>1309.481</ele>
        <time>2018-09-11T06:13:37Z</time>
      </trkpt>
      <trkpt lat="46.677124" lon="12.220683">
        <ele>1308.924</ele>
        <time>2018-09-11T06:13:38Z</time>
      </trkpt>
      <trkpt lat="46.677107" lon="12.220690">
        <ele>1308.447</ele>
        <time>2018-09-11T06:13:39Z</time>
      </trkpt>
      <trkpt lat="46.676995" lon="12.220755">
        <ele>1306.549</ele>
        <time>2018-09-11T06:13:46Z</time>
      </trkpt>
      <trkpt lat="46.676980" lon="12.220757">
        <ele>1306.002</ele>
        <time>2018-09-11T06:13:47Z</time>
      </trkpt>
      <trkpt lat="46.676965" lon="12.220766">
        <ele>1306.022</ele>
        <time>2018-09-11T06:13:48Z</time>
      </trkpt>
      <trkpt lat="46.676950" lon="12.220768">
        <ele>1305.608</ele>
        <time>2018-09-11T06:13:49Z</time>
      </trkpt>
      <trkpt lat="46.676937" lon="12.220777">
        <ele>1305.618</ele>
        <time>2018-09-11T06:13:50Z</time>
      </trkpt>
      <trkpt lat="46.676923" lon="12.220786">
        <ele>1305.630</ele>
        <time>2018-09-11T06:13:51Z</time>
      </trkpt>
      <trkpt lat="46.676816" lon="12.220830">
        <ele>1305.169</ele>
        <time>2018-09-11T06:13:58Z</time>
      </trkpt>
      <trkpt lat="46.676795" lon="12.220840">
        <ele>1305.168</ele>
        <time>2018-09-11T06:13:59Z</time>
      </trkpt>
      <trkpt lat="46.676530" lon="12.221035">
        <ele>1304.144</ele>
        <time>2018-09-11T06:14:12Z</time>
      </trkpt>
      <trkpt lat="46.676323" lon="12.221205">
        <ele>1303.250</ele>
        <time>2018-09-11T06:14:21Z</time>
      </trkpt>
      <trkpt lat="46.676274" lon="12.221208">
        <ele>1303.623</ele>
        <time>2018-09-11T06:14:35Z</time>
      </trkpt>
      <trkpt lat="46.676218" lon="12.221253">
        <ele>1306.016</ele>
        <time>2018-09-11T06:14:46Z</time>
      </trkpt>
      <trkpt lat="46.676207" lon="12.221253">
        <ele>1306.513</ele>
        <time>2018-09-11T06:14:47Z</time>
      </trkpt>
      <trkpt lat="46.676190" lon="12.221242">
        <ele>1306.043</ele>
        <time>2018-09-11T06:14:58Z</time>
      </trkpt>
      <trkpt lat="46.676222" lon="12.221260">
        <ele>1313.307</ele>
        <time>2018-09-11T06:15:28Z</time>
      </trkpt>
      <trkpt lat="46.676194" lon="12.221175">
        <ele>1317.608</ele>
        <time>2018-09-11T06:15:53Z</time>
      </trkpt>
      <trkpt lat="46.676208" lon="12.221282">
        <ele>1313.765</ele>
        <time>2018-09-11T06:16:24Z</time>
      </trkpt>
      <trkpt lat="46.676175" lon="12.221299">
        <ele>1312.337</ele>
        <time>2018-09-11T06:16:35Z</time>
      </trkpt>
      <trkpt lat="46.676150" lon="12.221308">
        <ele>1312.856</ele>
        <time>2018-09-11T06:16:38Z</time>
      </trkpt>
      <trkpt lat="46.675908" lon="12.221303">
        <ele>1313.375</ele>
        <time>2018-09-11T06:16:49Z</time>
      </trkpt>
      <trkpt lat="46.675687" lon="12.221286">
        <ele>1315.731</ele>
        <time>2018-09-11T06:17:01Z</time>
      </trkpt>
      <trkpt lat="46.675667" lon="12.221295">
        <ele>1313.797</ele>
        <time>2018-09-11T06:17:11Z</time>
      </trkpt>
      <trkpt lat="46.675568" lon="12.221377">
        <ele>1316.180</ele>
        <time>2018-09-11T06:17:25Z</time>
      </trkpt>
      <trkpt lat="46.675532" lon="12.221389">
        <ele>1313.373</ele>
        <time>2018-09-11T06:17:30Z</time>
      </trkpt>
      <trkpt lat="46.675349" lon="12.221353">
        <ele>1312.872</ele>
        <time>2018-09-11T06:17:39Z</time>
      </trkpt>
      <trkpt lat="46.675328" lon="12.221351">
        <ele>1312.813</ele>
        <time>2018-09-11T06:17:40Z</time>
      </trkpt>
      <trkpt lat="46.675309" lon="12.221353">
        <ele>1312.814</ele>
        <time>2018-09-11T06:17:41Z</time>
      </trkpt>
      <trkpt lat="46.675288" lon="12.221352">
        <ele>1312.808</ele>
        <time>2018-09-11T06:17:42Z</time>
      </trkpt>
      <trkpt lat="46.675085" lon="12.221344">
        <ele>1313.391</ele>
        <time>2018-09-11T06:17:54Z</time>
      </trkpt>
      <trkpt lat="46.674994" lon="12.221367">
        <ele>1314.263</ele>
        <time>2018-09-11T06:17:59Z</time>
      </trkpt>
      <trkpt lat="46.674969" lon="12.221414">
        <ele>1314.262</ele>
        <time>2018-09-11T06:18:01Z</time>
      </trkpt>
      <trkpt lat="46.674962" lon="12.221443">
        <ele>1314.281</ele>
        <time>2018-09-11T06:18:02Z</time>
      </trkpt>
      <trkpt lat="46.674957" lon="12.221471">
        <ele>1314.257</ele>
        <time>2018-09-11T06:18:03Z</time>
      </trkpt>
      <trkpt lat="46.674955" lon="12.221497">
        <ele>1314.263</ele>
        <time>2018-09-11T06:18:04Z</time>
      </trkpt>
      <trkpt lat="46.674956" lon="12.221518">
        <ele>1314.236</ele>
        <time>2018-09-11T06:18:05Z</time>
      </trkpt>
      <trkpt lat="46.674987" lon="12.221580">
        <ele>1314.259</ele>
        <time>2018-09-11T06:18:19Z</time>
      </trkpt>
      <trkpt lat="46.674975" lon="12.221615">
        <ele>1313.318</ele>
        <time>2018-09-11T06:18:23Z</time>
      </trkpt>
      <trkpt lat="46.674971" lon="12.221634">
        <ele>1313.398</ele>
        <time>2018-09-11T06:18:24Z</time>
      </trkpt>
      <trkpt lat="46.674967" lon="12.221651">
        <ele>1313.317</ele>
        <time>2018-09-11T06:18:25Z</time>
      </trkpt>
      <trkpt lat="46.674962" lon="12.221666">
        <ele>1313.308</ele>
        <time>2018-09-11T06:18:26Z</time>
      </trkpt>
      <trkpt lat="46.674952" lon="12.221683">
        <ele>1313.315</ele>
        <time>2018-09-11T06:18:27Z</time>
      </trkpt>
      <trkpt lat="46.674936" lon="12.221700">
        <ele>1313.367</ele>
        <time>2018-09-11T06:18:28Z</time>
      </trkpt>
      <trkpt lat="46.674918" lon="12.221711">
        <ele>1313.766</ele>
        <time>2018-09-11T06:18:29Z</time>
      </trkpt>
      <trkpt lat="46.674899" lon="12.221718">
        <ele>1313.715</ele>
        <time>2018-09-11T06:18:30Z</time>
      </trkpt>
      <trkpt lat="46.674884" lon="12.221722">
        <ele>1313.321</ele>
        <time>2018-09-11T06:18:31Z</time>
      </trkpt>
      <trkpt lat="46.674868" lon="12.221720">
        <ele>1313.357</ele>
        <time>2018-09-11T06:18:32Z</time>
      </trkpt>
      <trkpt lat="46.674847" lon="12.221730">
        <ele>1313.780</ele>
        <time>2018-09-11T06:18:33Z</time>
      </trkpt>
      <trkpt lat="46.674583" lon="12.221690">
        <ele>1315.793</ele>
        <time>2018-09-11T06:18:48Z</time>
      </trkpt>
      <trkpt lat="46.674303" lon="12.221638">
        <ele>1314.758</ele>
        <time>2018-09-11T06:19:03Z</time>
      </trkpt>
      <trkpt lat="46.673988" lon="12.221637">
        <ele>1320.052</ele>
        <time>2018-09-11T06:19:20Z</time>
      </trkpt>
      <trkpt lat="46.673614" lon="12.221569">
        <ele>1323.317</ele>
        <time>2018-09-11T06:19:38Z</time>
      </trkpt>
      <trkpt lat="46.673252" lon="12.221433">
        <ele>1323.308</ele>
        <time>2018-09-11T06:19:54Z</time>
      </trkpt>
      <trkpt lat="46.672846" lon="12.221291">
        <ele>1324.859</ele>
        <time>2018-09-11T06:20:12Z</time>
      </trkpt>
      <trkpt lat="46.672453" lon="12.221246">
        <ele>1325.841</ele>
        <time>2018-09-11T06:20:29Z</time>
      </trkpt>
      <trkpt lat="46.672110" lon="12.221267">
        <ele>1326.710</ele>
        <time>2018-09-11T06:20:44Z</time>
      </trkpt>
      <trkpt lat="46.671630" lon="12.221303">
        <ele>1329.119</ele>
        <time>2018-09-11T06:21:02Z</time>
      </trkpt>
      <trkpt lat="46.671174" lon="12.221530">
        <ele>1330.695</ele>
        <time>2018-09-11T06:21:18Z</time>
      </trkpt>
      <trkpt lat="46.670630" lon="12.221590">
        <ele>1333.951</ele>
        <time>2018-09-11T06:21:40Z</time>
      </trkpt>
      <trkpt lat="46.670189" lon="12.221663">
        <ele>1334.414</ele>
        <time>2018-09-11T06:21:59Z</time>
      </trkpt>
      <trkpt lat="46.669720" lon="12.221788">
        <ele>1336.327</ele>
        <time>2018-09-11T06:22:17Z</time>
      </trkpt>
      <trkpt lat="46.669263" lon="12.222219">
        <ele>1336.824</ele>
        <time>2018-09-11T06:22:34Z</time>
      </trkpt>
      <trkpt lat="46.668729" lon="12.222726">
        <ele>1337.304</ele>
        <time>2018-09-11T06:22:54Z</time>
      </trkpt>
      <trkpt lat="46.668236" lon="12.222964">
        <ele>1337.314</ele>
        <time>2018-09-11T06:23:11Z</time>
      </trkpt>
      <trkpt lat="46.667770" lon="12.223386">
        <ele>1338.208</ele>
        <time>2018-09-11T06:23:29Z</time>
      </trkpt>
      <trkpt lat="46.667273" lon="12.223730">
        <ele>1338.266</ele>
        <time>2018-09-11T06:23:47Z</time>
      </trkpt>
      <trkpt lat="46.666763" lon="12.223950">
        <ele>1341.138</ele>
        <time>2018-09-11T06:24:06Z</time>
      </trkpt>
      <trkpt lat="46.666441" lon="12.224093">
        <ele>1341.127</ele>
        <time>2018-09-11T06:24:22Z</time>
      </trkpt>
      <trkpt lat="46.666275" lon="12.224158">
        <ele>1342.186</ele>
        <time>2018-09-11T06:24:37Z</time>
      </trkpt>
      <trkpt lat="46.666206" lon="12.224191">
        <ele>1342.162</ele>
        <time>2018-09-11T06:24:59Z</time>
      </trkpt>
      <trkpt lat="46.665925" lon="12.224050">
        <ele>1343.518</ele>
        <time>2018-09-11T06:25:12Z</time>
      </trkpt>
      <trkpt lat="46.665552" lon="12.223848">
        <ele>1346.491</ele>
        <time>2018-09-11T06:25:27Z</time>
      </trkpt>
      <trkpt lat="46.665224" lon="12.223733">
        <ele>1347.934</ele>
        <time>2018-09-11T06:25:39Z</time>
      </trkpt>
      <trkpt lat="46.664810" lon="12.223508">
        <ele>1347.944</ele>
        <time>2018-09-11T06:25:55Z</time>
      </trkpt>
      <trkpt lat="46.664321" lon="12.223207">
        <ele>1349.305</ele>
        <time>2018-09-11T06:26:14Z</time>
      </trkpt>
      <trkpt lat="46.663927" lon="12.223205">
        <ele>1352.215</ele>
        <time>2018-09-11T06:26:30Z</time>
      </trkpt>
      <trkpt lat="46.663479" lon="12.223306">
        <ele>1352.208</ele>
        <time>2018-09-11T06:26:48Z</time>
      </trkpt>
      <trkpt lat="46.662805" lon="12.223452">
        <ele>1353.138</ele>
        <time>2018-09-11T06:27:12Z</time>
      </trkpt>
      <trkpt lat="46.662275" lon="12.223559">
        <ele>1355.110</ele>
        <time>2018-09-11T06:27:31Z</time>
      </trkpt>
      <trkpt lat="46.661743" lon="12.223669">
        <ele>1356.059</ele>
        <time>2018-09-11T06:27:50Z</time>
      </trkpt>
      <trkpt lat="46.661188" lon="12.223816">
        <ele>1357.098</ele>
        <time>2018-09-11T06:28:10Z</time>
      </trkpt>
      <trkpt lat="46.660851" lon="12.224064">
        <ele>1358.954</ele>
        <time>2018-09-11T06:28:25Z</time>
      </trkpt>
      <trkpt lat="46.660523" lon="12.224408">
        <ele>1360.440</ele>
        <time>2018-09-11T06:28:42Z</time>
      </trkpt>
      <trkpt lat="46.660219" lon="12.224722">
        <ele>1363.743</ele>
        <time>2018-09-11T06:28:59Z</time>
      </trkpt>
      <trkpt lat="46.659870" lon="12.225085">
        <ele>1367.116</ele>
        <time>2018-09-11T06:29:18Z</time>
      </trkpt>
      <trkpt lat="46.659489" lon="12.225466">
        <ele>1368.546</ele>
        <time>2018-09-11T06:29:38Z</time>
      </trkpt>
      <trkpt lat="46.659160" lon="12.225777">
        <ele>1369.588</ele>
        <time>2018-09-11T06:29:55Z</time>
      </trkpt>
      <trkpt lat="46.658754" lon="12.225995">
        <ele>1368.516</ele>
        <time>2018-09-11T06:30:13Z</time>
      </trkpt>
      <trkpt lat="46.658419" lon="12.226058">
        <ele>1368.508</ele>
        <time>2018-09-11T06:30:27Z</time>
      </trkpt>
      <trkpt lat="46.657994" lon="12.225978">
        <ele>1374.898</ele>
        <time>2018-09-11T06:30:44Z</time>
      </trkpt>
      <trkpt lat="46.657560" lon="12.225856">
        <ele>1379.620</ele>
        <time>2018-09-11T06:31:02Z</time>
      </trkpt>
      <trkpt lat="46.657031" lon="12.225721">
        <ele>1382.549</ele>
        <time>2018-09-11T06:31:24Z</time>
      </trkpt>
      <trkpt lat="46.656677" lon="12.225800">
        <ele>1381.028</ele>
        <time>2018-09-11T06:31:35Z</time>
      </trkpt>
      <trkpt lat="46.656628" lon="12.225832">
        <ele>1380.184</ele>
        <time>2018-09-11T06:31:36Z</time>
      </trkpt>
      <trkpt lat="46.656520" lon="12.225909">
        <ele>1378.670</ele>
        <time>2018-09-11T06:31:38Z</time>
      </trkpt>
      <trkpt lat="46.656460" lon="12.225931">
        <ele>1378.193</ele>
        <time>2018-09-11T06:31:39Z</time>
      </trkpt>
      <trkpt lat="46.656402" lon="12.225933">
        <ele>1377.786</ele>
        <time>2018-09-11T06:31:40Z</time>
      </trkpt>
      <trkpt lat="46.656345" lon="12.225925">
        <ele>1377.778</ele>
        <time>2018-09-11T06:31:41Z</time>
      </trkpt>
      <trkpt lat="46.656287" lon="12.225908">
        <ele>1377.233</ele>
        <time>2018-09-11T06:31:42Z</time>
      </trkpt>
      <trkpt lat="46.656234" lon="12.225877">
        <ele>1377.226</ele>
        <time>2018-09-11T06:31:43Z</time>
      </trkpt>
      <trkpt lat="46.656189" lon="12.225843">
        <ele>1377.208</ele>
        <time>2018-09-11T06:31:44Z</time>
      </trkpt>
      <trkpt lat="46.656150" lon="12.225809">
        <ele>1377.211</ele>
        <time>2018-09-11T06:31:45Z</time>
      </trkpt>
      <trkpt lat="46.656116" lon="12.225781">
        <ele>1377.293</ele>
        <time>2018-09-11T06:31:46Z</time>
      </trkpt>
      <trkpt lat="46.656091" lon="12.225761">
        <ele>1377.272</ele>
        <time>2018-09-11T06:31:47Z</time>
      </trkpt>
      <trkpt lat="46.656072" lon="12.225739">
        <ele>1377.751</ele>
        <time>2018-09-11T06:31:48Z</time>
      </trkpt>
      <trkpt lat="46.656054" lon="12.225722">
        <ele>1377.767</ele>
        <time>2018-09-11T06:31:49Z</time>
      </trkpt>
      <trkpt lat="46.656034" lon="12.225705">
        <ele>1377.773</ele>
        <time>2018-09-11T06:31:50Z</time>
      </trkpt>
      <trkpt lat="46.656014" lon="12.225695">
        <ele>1377.736</ele>
        <time>2018-09-11T06:31:51Z</time>
      </trkpt>
      <trkpt lat="46.655994" lon="12.225684">
        <ele>1378.119</ele>
        <time>2018-09-11T06:31:52Z</time>
      </trkpt>
      <trkpt lat="46.655631" lon="12.225779">
        <ele>1377.772</ele>
        <time>2018-09-11T06:32:08Z</time>
      </trkpt>
      <trkpt lat="46.655180" lon="12.226016">
        <ele>1378.613</ele>
        <time>2018-09-11T06:32:28Z</time>
      </trkpt>
      <trkpt lat="46.654800" lon="12.226213">
        <ele>1382.914</ele>
        <time>2018-09-11T06:32:45Z</time>
      </trkpt>
      <trkpt lat="46.654464" lon="12.226357">
        <ele>1384.408</ele>
        <time>2018-09-11T06:33:00Z</time>
      </trkpt>
      <trkpt lat="46.654095" lon="12.226546">
        <ele>1384.941</ele>
        <time>2018-09-11T06:33:16Z</time>
      </trkpt>
      <trkpt lat="46.653684" lon="12.226759">
        <ele>1387.353</ele>
        <time>2018-09-11T06:33:34Z</time>
      </trkpt>
      <trkpt lat="46.653239" lon="12.226947">
        <ele>1388.782</ele>
        <time>2018-09-11T06:33:53Z</time>
      </trkpt>
      <trkpt lat="46.652831" lon="12.227043">
        <ele>1387.841</ele>
        <time>2018-09-11T06:34:10Z</time>
      </trkpt>
      <trkpt lat="46.652388" lon="12.227177">
        <ele>1383.977</ele>
        <time>2018-09-11T06:34:29Z</time>
      </trkpt>
      <trkpt lat="46.651951" lon="12.227283">
        <ele>1382.033</ele>
        <time>2018-09-11T06:34:49Z</time>
      </trkpt>
      <trkpt lat="46.651593" lon="12.227374">
        <ele>1379.646</ele>
        <time>2018-09-11T06:35:05Z</time>
      </trkpt>
      <trkpt lat="46.651177" lon="12.227609">
        <ele>1377.239</ele>
        <time>2018-09-11T06:35:25Z</time>
      </trkpt>
      <trkpt lat="46.651106" lon="12.227694">
        <ele>1376.281</ele>
        <time>2018-09-11T06:35:28Z</time>
      </trkpt>
      <trkpt lat="46.651089" lon="12.227752">
        <ele>1376.261</ele>
        <time>2018-09-11T06:35:29Z</time>
      </trkpt>
      <trkpt lat="46.651059" lon="12.227870">
        <ele>1375.717</ele>
        <time>2018-09-11T06:35:31Z</time>
      </trkpt>
      <trkpt lat="46.651045" lon="12.227939">
        <ele>1376.208</ele>
        <time>2018-09-11T06:35:32Z</time>
      </trkpt>
      <trkpt lat="46.651030" lon="12.227995">
        <ele>1376.732</ele>
        <time>2018-09-11T06:35:33Z</time>
      </trkpt>
      <trkpt lat="46.651016" lon="12.228032">
        <ele>1376.744</ele>
        <time>2018-09-11T06:35:34Z</time>
      </trkpt>
      <trkpt lat="46.651000" lon="12.228063">
        <ele>1377.773</ele>
        <time>2018-09-11T06:35:35Z</time>
      </trkpt>
      <trkpt lat="46.650984" lon="12.228086">
        <ele>1377.782</ele>
        <time>2018-09-11T06:35:36Z</time>
      </trkpt>
      <trkpt lat="46.650966" lon="12.228109">
        <ele>1378.138</ele>
        <time>2018-09-11T06:35:37Z</time>
      </trkpt>
      <trkpt lat="46.650943" lon="12.228134">
        <ele>1378.624</ele>
        <time>2018-09-11T06:35:38Z</time>
      </trkpt>
      <trkpt lat="46.650919" lon="12.228158">
        <ele>1379.627</ele>
        <time>2018-09-11T06:35:39Z</time>
      </trkpt>
      <trkpt lat="46.650897" lon="12.228175">
        <ele>1379.690</ele>
        <time>2018-09-11T06:35:40Z</time>
      </trkpt>
      <trkpt lat="46.650489" lon="12.228385">
        <ele>1383.458</ele>
        <time>2018-09-11T06:35:58Z</time>
      </trkpt>
      <trkpt lat="46.650073" lon="12.228505">
        <ele>1383.452</ele>
        <time>2018-09-11T06:36:16Z</time>
      </trkpt>
      <trkpt lat="46.649665" lon="12.228892">
        <ele>1379.117</ele>
        <time>2018-09-11T06:36:35Z</time>
      </trkpt>
      <trkpt lat="46.649342" lon="12.229467">
        <ele>1380.108</ele>
        <time>2018-09-11T06:36:53Z</time>
      </trkpt>
      <trkpt lat="46.648956" lon="12.230119">
        <ele>1380.569</ele>
        <time>2018-09-11T06:37:14Z</time>
      </trkpt>
      <trkpt lat="46.648513" lon="12.230534">
        <ele>1385.871</ele>
        <time>2018-09-11T06:37:33Z</time>
      </trkpt>
      <trkpt lat="46.648154" lon="12.230796">
        <ele>1387.380</ele>
        <time>2018-09-11T06:37:49Z</time>
      </trkpt>
      <trkpt lat="46.647744" lon="12.231091">
        <ele>1391.129</ele>
        <time>2018-09-11T06:38:08Z</time>
      </trkpt>
      <trkpt lat="46.647344" lon="12.231371">
        <ele>1395.415</ele>
        <time>2018-09-11T06:38:26Z</time>
      </trkpt>
      <trkpt lat="46.646923" lon="12.231628">
        <ele>1395.051</ele>
        <time>2018-09-11T06:38:45Z</time>
      </trkpt>
      <trkpt lat="46.646586" lon="12.231828">
        <ele>1395.044</ele>
        <time>2018-09-11T06:39:00Z</time>
      </trkpt>
      <trkpt lat="46.646214" lon="12.232054">
        <ele>1396.457</ele>
        <time>2018-09-11T06:39:16Z</time>
      </trkpt>
      <trkpt lat="46.645875" lon="12.232270">
        <ele>1396.485</ele>
        <time>2018-09-11T06:39:29Z</time>
      </trkpt>
      <trkpt lat="46.645620" lon="12.232554">
        <ele>1395.089</ele>
        <time>2018-09-11T06:39:35Z</time>
      </trkpt>
      <trkpt lat="46.645541" lon="12.232668">
        <ele>1394.017</ele>
        <time>2018-09-11T06:39:37Z</time>
      </trkpt>
      <trkpt lat="46.645499" lon="12.232703">
        <ele>1394.508</ele>
        <time>2018-09-11T06:39:38Z</time>
      </trkpt>
      <trkpt lat="46.645459" lon="12.232723">
        <ele>1394.562</ele>
        <time>2018-09-11T06:39:39Z</time>
      </trkpt>
      <trkpt lat="46.645426" lon="12.232732">
        <ele>1395.094</ele>
        <time>2018-09-11T06:39:40Z</time>
      </trkpt>
      <trkpt lat="46.645398" lon="12.232738">
        <ele>1395.453</ele>
        <time>2018-09-11T06:39:41Z</time>
      </trkpt>
      <trkpt lat="46.645373" lon="12.232739">
        <ele>1395.942</ele>
        <time>2018-09-11T06:39:42Z</time>
      </trkpt>
      <trkpt lat="46.645348" lon="12.232739">
        <ele>1396.488</ele>
        <time>2018-09-11T06:39:43Z</time>
      </trkpt>
      <trkpt lat="46.645325" lon="12.232741">
        <ele>1396.914</ele>
        <time>2018-09-11T06:39:44Z</time>
      </trkpt>
      <trkpt lat="46.645045" lon="12.232740">
        <ele>1402.257</ele>
        <time>2018-09-11T06:39:57Z</time>
      </trkpt>
      <trkpt lat="46.644675" lon="12.232676">
        <ele>1408.440</ele>
        <time>2018-09-11T06:40:15Z</time>
      </trkpt>
      <trkpt lat="46.644352" lon="12.232604">
        <ele>1411.815</ele>
        <time>2018-09-11T06:40:30Z</time>
      </trkpt>
      <trkpt lat="46.644046" lon="12.232566">
        <ele>1413.765</ele>
        <time>2018-09-11T06:40:43Z</time>
      </trkpt>
      <trkpt lat="46.643706" lon="12.232608">
        <ele>1411.811</ele>
        <time>2018-09-11T06:40:57Z</time>
      </trkpt>
      <trkpt lat="46.643279" lon="12.232822">
        <ele>1410.808</ele>
        <time>2018-09-11T06:41:16Z</time>
      </trkpt>
      <trkpt lat="46.642853" lon="12.233058">
        <ele>1409.495</ele>
        <time>2018-09-11T06:41:35Z</time>
      </trkpt>
      <trkpt lat="46.642366" lon="12.233165">
        <ele>1411.397</ele>
        <time>2018-09-11T06:41:55Z</time>
      </trkpt>
      <trkpt lat="46.641932" lon="12.233125">
        <ele>1409.956</ele>
        <time>2018-09-11T06:42:13Z</time>
      </trkpt>
      <trkpt lat="46.641570" lon="12.233110">
        <ele>1415.635</ele>
        <time>2018-09-11T06:42:28Z</time>
      </trkpt>
      <trkpt lat="46.641311" lon="12.233068">
        <ele>1417.131</ele>
        <time>2018-09-11T06:42:41Z</time>
      </trkpt>
      <trkpt lat="46.640968" lon="12.233037">
        <ele>1417.647</ele>
        <time>2018-09-11T06:42:57Z</time>
      </trkpt>
      <trkpt lat="46.640710" lon="12.232996">
        <ele>1418.070</ele>
        <time>2018-09-11T06:43:11Z</time>
      </trkpt>
      <trkpt lat="46.640687" lon="12.232972">
        <ele>1417.153</ele>
        <time>2018-09-11T06:43:32Z</time>
      </trkpt>
      <trkpt lat="46.640331" lon="12.232880">
        <ele>1421.423</ele>
        <time>2018-09-11T06:43:45Z</time>
      </trkpt>
      <trkpt lat="46.639919" lon="12.232744">
        <ele>1421.483</ele>
        <time>2018-09-11T06:44:00Z</time>
      </trkpt>
      <trkpt lat="46.639528" lon="12.232597">
        <ele>1423.811</ele>
        <time>2018-09-11T06:44:13Z</time>
      </trkpt>
      <trkpt lat="46.638992" lon="12.232387">
        <ele>1425.708</ele>
        <time>2018-09-11T06:44:30Z</time>
      </trkpt>
      <trkpt lat="46.638717" lon="12.231829">
        <ele>1424.396</ele>
        <time>2018-09-11T06:44:42Z</time>
      </trkpt>
      <trkpt lat="46.638270" lon="12.231802">
        <ele>1422.468</ele>
        <time>2018-09-11T06:44:55Z</time>
      </trkpt>
      <trkpt lat="46.637772" lon="12.231808">
        <ele>1421.477</ele>
        <time>2018-09-11T06:45:10Z</time>
      </trkpt>
      <trkpt lat="46.637388" lon="12.231968">
        <ele>1422.836</ele>
        <time>2018-09-11T06:45:22Z</time>
      </trkpt>
      <trkpt lat="46.636865" lon="12.231976">
        <ele>1423.322</ele>
        <time>2018-09-11T06:45:36Z</time>
      </trkpt>
      <trkpt lat="46.636235" lon="12.231989">
        <ele>1421.968</ele>
        <time>2018-09-11T06:45:51Z</time>
      </trkpt>
      <trkpt lat="46.635578" lon="12.231992">
        <ele>1423.841</ele>
        <time>2018-09-11T06:46:09Z</time>
      </trkpt>
      <trkpt lat="46.635336" lon="12.231969">
        <ele>1423.844</ele>
        <time>2018-09-11T06:46:15Z</time>
      </trkpt>
      <trkpt lat="46.634680" lon="12.231745">
        <ele>1422.883</ele>
        <time>2018-09-11T06:46:31Z</time>
      </trkpt>
      <trkpt lat="46.634637" lon="12.231729">
        <ele>1422.825</ele>
        <time>2018-09-11T06:46:32Z</time>
      </trkpt>
      <trkpt lat="46.634597" lon="12.231704">
        <ele>1422.417</ele>
        <time>2018-09-11T06:46:33Z</time>
      </trkpt>
      <trkpt lat="46.634555" lon="12.231671">
        <ele>1422.408</ele>
        <time>2018-09-11T06:46:34Z</time>
      </trkpt>
      <trkpt lat="46.634514" lon="12.231631">
        <ele>1422.822</ele>
        <time>2018-09-11T06:46:35Z</time>
      </trkpt>
      <trkpt lat="46.634487" lon="12.231592">
        <ele>1422.844</ele>
        <time>2018-09-11T06:46:36Z</time>
      </trkpt>
      <trkpt lat="46.634468" lon="12.231555">
        <ele>1422.813</ele>
        <time>2018-09-11T06:46:37Z</time>
      </trkpt>
      <trkpt lat="46.634455" lon="12.231513">
        <ele>1422.872</ele>
        <time>2018-09-11T06:46:38Z</time>
      </trkpt>
      <trkpt lat="46.634442" lon="12.231474">
        <ele>1422.848</ele>
        <time>2018-09-11T06:46:39Z</time>
      </trkpt>
      <trkpt lat="46.634422" lon="12.231442">
        <ele>1423.364</ele>
        <time>2018-09-11T06:46:40Z</time>
      </trkpt>
      <trkpt lat="46.634401" lon="12.231415">
        <ele>1423.387</ele>
        <time>2018-09-11T06:46:41Z</time>
      </trkpt>
      <trkpt lat="46.634126" lon="12.231103">
        <ele>1425.740</ele>
        <time>2018-09-11T06:46:54Z</time>
      </trkpt>
      <trkpt lat="46.633673" lon="12.230974">
        <ele>1424.895</ele>
        <time>2018-09-11T06:47:07Z</time>
      </trkpt>
      <trkpt lat="46.633620" lon="12.231000">
        <ele>1422.849</ele>
        <time>2018-09-11T06:47:14Z</time>
      </trkpt>
      <trkpt lat="46.633595" lon="12.231019">
        <ele>1420.923</ele>
        <time>2018-09-11T06:47:28Z</time>
      </trkpt>
      <trkpt lat="46.633539" lon="12.231117">
        <ele>1415.608</ele>
        <time>2018-09-11T06:48:08Z</time>
      </trkpt>
      <trkpt lat="46.633569" lon="12.230947">
        <ele>1418.013</ele>
        <time>2018-09-11T06:48:21Z</time>
      </trkpt>
      <trkpt lat="46.633296" lon="12.230611">
        <ele>1419.065</ele>
        <time>2018-09-11T06:48:32Z</time>
      </trkpt>
      <trkpt lat="46.632852" lon="12.230207">
        <ele>1420.044</ele>
        <time>2018-09-11T06:48:45Z</time>
      </trkpt>
      <trkpt lat="46.632747" lon="12.230122">
        <ele>1420.413</ele>
        <time>2018-09-11T06:48:48Z</time>
      </trkpt>
      <trkpt lat="46.632536" lon="12.229913">
        <ele>1420.459</ele>
        <time>2018-09-11T06:48:54Z</time>
      </trkpt>
      <trkpt lat="46.632347" lon="12.229769">
        <ele>1420.925</ele>
        <time>2018-09-11T06:48:59Z</time>
      </trkpt>
      <trkpt lat="46.632309" lon="12.229740">
        <ele>1421.478</ele>
        <time>2018-09-11T06:49:00Z</time>
      </trkpt>
      <trkpt lat="46.632267" lon="12.229710">
        <ele>1421.431</ele>
        <time>2018-09-11T06:49:01Z</time>
      </trkpt>
      <trkpt lat="46.632230" lon="12.229683">
        <ele>1421.459</ele>
        <time>2018-09-11T06:49:02Z</time>
      </trkpt>
      <trkpt lat="46.632190" lon="12.229656">
        <ele>1421.903</ele>
        <time>2018-09-11T06:49:03Z</time>
      </trkpt>
      <trkpt lat="46.632151" lon="12.229632">
        <ele>1422.423</ele>
        <time>2018-09-11T06:49:04Z</time>
      </trkpt>
      <trkpt lat="46.631463" lon="12.229341">
        <ele>1421.408</ele>
        <time>2018-09-11T06:49:21Z</time>
      </trkpt>
      <trkpt lat="46.630885" lon="12.229116">
        <ele>1422.449</ele>
        <time>2018-09-11T06:49:35Z</time>
      </trkpt>
      <trkpt lat="46.630162" lon="12.229015">
        <ele>1419.561</ele>
        <time>2018-09-11T06:49:53Z</time>
      </trkpt>
      <trkpt lat="46.629794" lon="12.229009">
        <ele>1418.090</ele>
        <time>2018-09-11T06:50:02Z</time>
      </trkpt>
      <trkpt lat="46.628996" lon="12.228989">
        <ele>1415.619</ele>
        <time>2018-09-11T06:50:21Z</time>
      </trkpt>
      <trkpt lat="46.628787" lon="12.228966">
        <ele>1414.785</ele>
        <time>2018-09-11T06:50:26Z</time>
      </trkpt>
      <trkpt lat="46.628669" lon="12.228924">
        <ele>1413.271</ele>
        <time>2018-09-11T06:50:29Z</time>
      </trkpt>
      <trkpt lat="46.628630" lon="12.228913">
        <ele>1413.274</ele>
        <time>2018-09-11T06:50:30Z</time>
      </trkpt>
      <trkpt lat="46.628027" lon="12.228558">
        <ele>1412.797</ele>
        <time>2018-09-11T06:50:46Z</time>
      </trkpt>
      <trkpt lat="46.627508" lon="12.228127">
        <ele>1412.327</ele>
        <time>2018-09-11T06:51:01Z</time>
      </trkpt>
      <trkpt lat="46.627100" lon="12.227775">
        <ele>1413.768</ele>
        <time>2018-09-11T06:51:13Z</time>
      </trkpt>
      <trkpt lat="46.627067" lon="12.227740">
        <ele>1413.714</ele>
        <time>2018-09-11T06:51:14Z</time>
      </trkpt>
      <trkpt lat="46.626628" lon="12.227327">
        <ele>1414.708</ele>
        <time>2018-09-11T06:51:28Z</time>
      </trkpt>
      <trkpt lat="46.626174" lon="12.226974">
        <ele>1416.626</ele>
        <time>2018-09-11T06:51:42Z</time>
      </trkpt>
      <trkpt lat="46.625712" lon="12.226600">
        <ele>1420.048</ele>
        <time>2018-09-11T06:51:57Z</time>
      </trkpt>
      <trkpt lat="46.625253" lon="12.226224">
        <ele>1420.427</ele>
        <time>2018-09-11T06:52:14Z</time>
      </trkpt>
      <trkpt lat="46.624937" lon="12.225966">
        <ele>1421.436</ele>
        <time>2018-09-11T06:52:26Z</time>
      </trkpt>
      <trkpt lat="46.624466" lon="12.225568">
        <ele>1422.442</ele>
        <time>2018-09-11T06:52:43Z</time>
      </trkpt>
      <trkpt lat="46.624015" lon="12.225190">
        <ele>1425.718</ele>
        <time>2018-09-11T06:52:59Z</time>
      </trkpt>
      <trkpt lat="46.623543" lon="12.224814">
        <ele>1428.691</ele>
        <time>2018-09-11T06:53:17Z</time>
      </trkpt>
      <trkpt lat="46.623226" lon="12.224546">
        <ele>1428.624</ele>
        <time>2018-09-11T06:53:30Z</time>
      </trkpt>
      <trkpt lat="46.622798" lon="12.224202">
        <ele>1428.655</ele>
        <time>2018-09-11T06:53:47Z</time>
      </trkpt>
      <trkpt lat="46.622362" lon="12.223901">
        <ele>1433.407</ele>
        <time>2018-09-11T06:54:03Z</time>
      </trkpt>
      <trkpt lat="46.621957" lon="12.223682">
        <ele>1439.717</ele>
        <time>2018-09-11T06:54:20Z</time>
      </trkpt>
      <trkpt lat="46.621466" lon="12.223464">
        <ele>1440.608</ele>
        <time>2018-09-11T06:54:40Z</time>
      </trkpt>
      <trkpt lat="46.621088" lon="12.223261">
        <ele>1443.559</ele>
        <time>2018-09-11T06:54:56Z</time>
      </trkpt>
      <trkpt lat="46.620709" lon="12.223105">
        <ele>1445.051</ele>
        <time>2018-09-11T06:55:11Z</time>
      </trkpt>
      <trkpt lat="46.620328" lon="12.222953">
        <ele>1446.930</ele>
        <time>2018-09-11T06:55:26Z</time>
      </trkpt>
      <trkpt lat="46.619895" lon="12.222744">
        <ele>1445.099</ele>
        <time>2018-09-11T06:55:41Z</time>
      </trkpt>
      <trkpt lat="46.619438" lon="12.222521">
        <ele>1446.475</ele>
        <time>2018-09-11T06:55:58Z</time>
      </trkpt>
      <trkpt lat="46.618971" lon="12.222206">
        <ele>1450.751</ele>
        <time>2018-09-11T06:56:16Z</time>
      </trkpt>
      <trkpt lat="46.618614" lon="12.221805">
        <ele>1453.144</ele>
        <time>2018-09-11T06:56:32Z</time>
      </trkpt>
      <trkpt lat="46.618348" lon="12.221408">
        <ele>1452.627</ele>
        <time>2018-09-11T06:56:46Z</time>
      </trkpt>
      <trkpt lat="46.618155" lon="12.220980">
        <ele>1455.555</ele>
        <time>2018-09-11T06:57:01Z</time>
      </trkpt>
      <trkpt lat="46.618051" lon="12.220511">
        <ele>1456.007</ele>
        <time>2018-09-11T06:57:14Z</time>
      </trkpt>
      <trkpt lat="46.618101" lon="12.220270">
        <ele>1456.517</ele>
        <time>2018-09-11T06:57:23Z</time>
      </trkpt>
      <trkpt lat="46.618100" lon="12.220246">
        <ele>1456.508</ele>
        <time>2018-09-11T06:57:24Z</time>
      </trkpt>
      <trkpt lat="46.618035" lon="12.220079">
        <ele>1457.059</ele>
        <time>2018-09-11T06:57:31Z</time>
      </trkpt>
      <trkpt lat="46.618025" lon="12.220061">
        <ele>1457.061</ele>
        <time>2018-09-11T06:57:32Z</time>
      </trkpt>
      <trkpt lat="46.618015" lon="12.220046">
        <ele>1457.020</ele>
        <time>2018-09-11T06:57:33Z</time>
      </trkpt>
      <trkpt lat="46.618001" lon="12.220028">
        <ele>1457.059</ele>
        <time>2018-09-11T06:57:34Z</time>
      </trkpt>
      <trkpt lat="46.617991" lon="12.220014">
        <ele>1457.025</ele>
        <time>2018-09-11T06:57:35Z</time>
      </trkpt>
      <trkpt lat="46.617973" lon="12.219986">
        <ele>1456.581</ele>
        <time>2018-09-11T06:57:37Z</time>
      </trkpt>
      <trkpt lat="46.617960" lon="12.219982">
        <ele>1455.094</ele>
        <time>2018-09-11T06:57:49Z</time>
      </trkpt>
      <trkpt lat="46.617949" lon="12.219993">
        <ele>1452.647</ele>
        <time>2018-09-11T06:58:11Z</time>
      </trkpt>
      <trkpt lat="46.617929" lon="12.219960">
        <ele>1453.152</ele>
        <time>2018-09-11T06:58:25Z</time>
      </trkpt>
      <trkpt lat="46.617941" lon="12.219959">
        <ele>1452.653</ele>
        <time>2018-09-11T06:58:48Z</time>
      </trkpt>
      <trkpt lat="46.617937" lon="12.219910">
        <ele>1453.608</ele>
        <time>2018-09-11T06:59:18Z</time>
      </trkpt>
      <trkpt lat="46.617914" lon="12.219884">
        <ele>1453.608</ele>
        <time>2018-09-11T06:59:31Z</time>
      </trkpt>
      <trkpt lat="46.617902" lon="12.219872">
        <ele>1453.189</ele>
        <time>2018-09-11T06:59:32Z</time>
      </trkpt>
      <trkpt lat="46.617886" lon="12.219866">
        <ele>1453.141</ele>
        <time>2018-09-11T06:59:33Z</time>
      </trkpt>
      <trkpt lat="46.617716" lon="12.219607">
        <ele>1453.690</ele>
        <time>2018-09-11T06:59:41Z</time>
      </trkpt>
      <trkpt lat="46.617575" lon="12.219265">
        <ele>1457.969</ele>
        <time>2018-09-11T06:59:55Z</time>
      </trkpt>
      <trkpt lat="46.617461" lon="12.218888">
        <ele>1464.255</ele>
        <time>2018-09-11T07:00:11Z</time>
      </trkpt>
      <trkpt lat="46.617345" lon="12.218575">
        <ele>1468.531</ele>
        <time>2018-09-11T07:00:24Z</time>
      </trkpt>
      <trkpt lat="46.617217" lon="12.218174">
        <ele>1469.564</ele>
        <time>2018-09-11T07:00:39Z</time>
      </trkpt>
      <trkpt lat="46.617145" lon="12.217965">
        <ele>1471.917</ele>
        <time>2018-09-11T07:00:46Z</time>
      </trkpt>
      <trkpt lat="46.617132" lon="12.217936">
        <ele>1471.984</ele>
        <time>2018-09-11T07:00:47Z</time>
      </trkpt>
      <trkpt lat="46.616989" lon="12.217510">
        <ele>1470.407</ele>
        <time>2018-09-11T07:01:01Z</time>
      </trkpt>
      <trkpt lat="46.616870" lon="12.217078">
        <ele>1469.517</ele>
        <time>2018-09-11T07:01:14Z</time>
      </trkpt>
      <trkpt lat="46.616691" lon="12.216475">
        <ele>1468.008</ele>
        <time>2018-09-11T07:01:32Z</time>
      </trkpt>
      <trkpt lat="46.616525" lon="12.216002">
        <ele>1468.572</ele>
        <time>2018-09-11T07:01:47Z</time>
      </trkpt>
      <trkpt lat="46.616392" lon="12.215637">
        <ele>1467.194</ele>
        <time>2018-09-11T07:01:59Z</time>
      </trkpt>
      <trkpt lat="46.616251" lon="12.215184">
        <ele>1466.143</ele>
        <time>2018-09-11T07:02:12Z</time>
      </trkpt>
      <trkpt lat="46.616135" lon="12.214652">
        <ele>1470.932</ele>
        <time>2018-09-11T07:02:27Z</time>
      </trkpt>
      <trkpt lat="46.616195" lon="12.214166">
        <ele>1473.888</ele>
        <time>2018-09-11T07:02:41Z</time>
      </trkpt>
      <trkpt lat="46.616377" lon="12.213717">
        <ele>1478.194</ele>
        <time>2018-09-11T07:02:57Z</time>
      </trkpt>
      <trkpt lat="46.616439" lon="12.213642">
        <ele>1480.597</ele>
        <time>2018-09-11T07:03:02Z</time>
      </trkpt>
      <trkpt lat="46.616454" lon="12.213615">
        <ele>1481.050</ele>
        <time>2018-09-11T07:03:04Z</time>
      </trkpt>
      <trkpt lat="46.616468" lon="12.213604">
        <ele>1481.034</ele>
        <time>2018-09-11T07:03:05Z</time>
      </trkpt>
      <trkpt lat="46.616554" lon="12.213524">
        <ele>1480.055</ele>
        <time>2018-09-11T07:03:11Z</time>
      </trkpt>
      <trkpt lat="46.616577" lon="12.213495">
        <ele>1479.610</ele>
        <time>2018-09-11T07:03:13Z</time>
      </trkpt>
      <trkpt lat="46.616715" lon="12.213376">
        <ele>1478.108</ele>
        <time>2018-09-11T07:03:23Z</time>
      </trkpt>
      <trkpt lat="46.616963" lon="12.213171">
        <ele>1475.257</ele>
        <time>2018-09-11T07:03:37Z</time>
      </trkpt>
      <trkpt lat="46.617217" lon="12.212960">
        <ele>1474.859</ele>
        <time>2018-09-11T07:03:51Z</time>
      </trkpt>
      <trkpt lat="46.617435" lon="12.212749">
        <ele>1473.818</ele>
        <time>2018-09-11T07:04:04Z</time>
      </trkpt>
      <trkpt lat="46.617624" lon="12.212515">
        <ele>1473.387</ele>
        <time>2018-09-11T07:04:15Z</time>
      </trkpt>
      <trkpt lat="46.617636" lon="12.212490">
        <ele>1473.393</ele>
        <time>2018-09-11T07:04:16Z</time>
      </trkpt>
      <trkpt lat="46.617650" lon="12.212466">
        <ele>1473.389</ele>
        <time>2018-09-11T07:04:17Z</time>
      </trkpt>
      <trkpt lat="46.617895" lon="12.212001">
        <ele>1478.632</ele>
        <time>2018-09-11T07:04:36Z</time>
      </trkpt>
      <trkpt lat="46.618118" lon="12.211555">
        <ele>1483.925</ele>
        <time>2018-09-11T07:04:54Z</time>
      </trkpt>
      <trkpt lat="46.618262" lon="12.211188">
        <ele>1485.824</ele>
        <time>2018-09-11T07:05:08Z</time>
      </trkpt>
      <trkpt lat="46.618387" lon="12.210625">
        <ele>1485.804</ele>
        <time>2018-09-11T07:05:27Z</time>
      </trkpt>
      <trkpt lat="46.618393" lon="12.210114">
        <ele>1487.314</ele>
        <time>2018-09-11T07:05:43Z</time>
      </trkpt>
      <trkpt lat="46.618440" lon="12.209523">
        <ele>1489.208</ele>
        <time>2018-09-11T07:06:02Z</time>
      </trkpt>
      <trkpt lat="46.618448" lon="12.209252">
        <ele>1491.666</ele>
        <time>2018-09-11T07:06:10Z</time>
      </trkpt>
      <trkpt lat="46.618443" lon="12.209228">
        <ele>1491.668</ele>
        <time>2018-09-11T07:06:11Z</time>
      </trkpt>
      <trkpt lat="46.618441" lon="12.209209">
        <ele>1491.627</ele>
        <time>2018-09-11T07:06:12Z</time>
      </trkpt>
      <trkpt lat="46.618443" lon="12.209184">
        <ele>1492.166</ele>
        <time>2018-09-11T07:06:13Z</time>
      </trkpt>
      <trkpt lat="46.618443" lon="12.209158">
        <ele>1492.122</ele>
        <time>2018-09-11T07:06:14Z</time>
      </trkpt>
      <trkpt lat="46.618444" lon="12.209131">
        <ele>1492.198</ele>
        <time>2018-09-11T07:06:15Z</time>
      </trkpt>
      <trkpt lat="46.618448" lon="12.209105">
        <ele>1492.181</ele>
        <time>2018-09-11T07:06:16Z</time>
      </trkpt>
      <trkpt lat="46.618449" lon="12.209076">
        <ele>1492.564</ele>
        <time>2018-09-11T07:06:17Z</time>
      </trkpt>
      <trkpt lat="46.618454" lon="12.208681">
        <ele>1496.951</ele>
        <time>2018-09-11T07:06:31Z</time>
      </trkpt>
      <trkpt lat="46.618370" lon="12.208339">
        <ele>1500.701</ele>
        <time>2018-09-11T07:06:44Z</time>
      </trkpt>
      <trkpt lat="46.618247" lon="12.207986">
        <ele>1500.711</ele>
        <time>2018-09-11T07:06:59Z</time>
      </trkpt>
      <trkpt lat="46.618218" lon="12.207872">
        <ele>1501.708</ele>
        <time>2018-09-11T07:07:04Z</time>
      </trkpt>
      <trkpt lat="46.618208" lon="12.207854">
        <ele>1501.749</ele>
        <time>2018-09-11T07:07:05Z</time>
      </trkpt>
      <trkpt lat="46.618198" lon="12.207834">
        <ele>1501.731</ele>
        <time>2018-09-11T07:07:06Z</time>
      </trkpt>
      <trkpt lat="46.618088" lon="12.207461">
        <ele>1498.830</ele>
        <time>2018-09-11T07:07:20Z</time>
      </trkpt>
      <trkpt lat="46.617986" lon="12.207139">
        <ele>1496.939</ele>
        <time>2018-09-11T07:07:33Z</time>
      </trkpt>
      <trkpt lat="46.617883" lon="12.206845">
        <ele>1495.475</ele>
        <time>2018-09-11T07:07:46Z</time>
      </trkpt>
      <trkpt lat="46.617781" lon="12.206561">
        <ele>1492.581</ele>
        <time>2018-09-11T07:07:58Z</time>
      </trkpt>
      <trkpt lat="46.617775" lon="12.206538">
        <ele>1492.594</ele>
        <time>2018-09-11T07:07:59Z</time>
      </trkpt>
      <trkpt lat="46.617769" lon="12.206505">
        <ele>1492.557</ele>
        <time>2018-09-11T07:08:00Z</time>
      </trkpt>
      <trkpt lat="46.617765" lon="12.206474">
        <ele>1492.131</ele>
        <time>2018-09-11T07:08:01Z</time>
      </trkpt>
      <trkpt lat="46.617762" lon="12.206446">
        <ele>1492.561</ele>
        <time>2018-09-11T07:08:02Z</time>
      </trkpt>
      <trkpt lat="46.617696" lon="12.206088">
        <ele>1497.807</ele>
        <time>2018-09-11T07:08:15Z</time>
      </trkpt>
      <trkpt lat="46.617726" lon="12.205721">
        <ele>1504.608</ele>
        <time>2018-09-11T07:08:27Z</time>
      </trkpt>
      <trkpt lat="46.617908" lon="12.205237">
        <ele>1501.777</ele>
        <time>2018-09-11T07:08:44Z</time>
      </trkpt>
      <trkpt lat="46.618141" lon="12.204905">
        <ele>1498.879</ele>
        <time>2018-09-11T07:09:00Z</time>
      </trkpt>
      <trkpt lat="46.618444" lon="12.204583">
        <ele>1499.368</ele>
        <time>2018-09-11T07:09:17Z</time>
      </trkpt>
      <trkpt lat="46.618762" lon="12.204230">
        <ele>1495.487</ele>
        <time>2018-09-11T07:09:36Z</time>
      </trkpt>
      <trkpt lat="46.618959" lon="12.203768">
        <ele>1498.343</ele>
        <time>2018-09-11T07:09:54Z</time>
      </trkpt>
      <trkpt lat="46.618993" lon="12.203346">
        <ele>1505.579</ele>
        <time>2018-09-11T07:10:08Z</time>
      </trkpt>
      <trkpt lat="46.618976" lon="12.202879">
        <ele>1508.922</ele>
        <time>2018-09-11T07:10:21Z</time>
      </trkpt>
      <trkpt lat="46.619073" lon="12.202393">
        <ele>1509.435</ele>
        <time>2018-09-11T07:10:36Z</time>
      </trkpt>
      <trkpt lat="46.619260" lon="12.201922">
        <ele>1505.019</ele>
        <time>2018-09-11T07:10:53Z</time>
      </trkpt>
      <trkpt lat="46.619337" lon="12.201530">
        <ele>1506.509</ele>
        <time>2018-09-11T07:11:06Z</time>
      </trkpt>
      <trkpt lat="46.619423" lon="12.201092">
        <ele>1511.819</ele>
        <time>2018-09-11T07:11:20Z</time>
      </trkpt>
      <trkpt lat="46.619554" lon="12.200695">
        <ele>1515.608</ele>
        <time>2018-09-11T07:11:33Z</time>
      </trkpt>
      <trkpt lat="46.619683" lon="12.200262">
        <ele>1518.565</ele>
        <time>2018-09-11T07:11:47Z</time>
      </trkpt>
      <trkpt lat="46.619874" lon="12.199725">
        <ele>1513.237</ele>
        <time>2018-09-11T07:12:04Z</time>
      </trkpt>
      <trkpt lat="46.620137" lon="12.199203">
        <ele>1510.856</ele>
        <time>2018-09-11T07:12:23Z</time>
      </trkpt>
      <trkpt lat="46.620296" lon="12.198867">
        <ele>1508.455</ele>
        <time>2018-09-11T07:12:38Z</time>
      </trkpt>
      <trkpt lat="46.620305" lon="12.198827">
        <ele>1506.541</ele>
        <time>2018-09-11T07:12:56Z</time>
      </trkpt>
      <trkpt lat="46.620306" lon="12.198792">
        <ele>1507.987</ele>
        <time>2018-09-11T07:13:21Z</time>
      </trkpt>
      <trkpt lat="46.620293" lon="12.198728">
        <ele>1509.860</ele>
        <time>2018-09-11T07:13:55Z</time>
      </trkpt>
      <trkpt lat="46.620222" lon="12.198761">
        <ele>1507.053</ele>
        <time>2018-09-11T07:14:31Z</time>
      </trkpt>
      <trkpt lat="46.620282" lon="12.198801">
        <ele>1511.356</ele>
        <time>2018-09-11T07:14:49Z</time>
      </trkpt>
      <trkpt lat="46.620293" lon="12.198793">
        <ele>1511.859</ele>
        <time>2018-09-11T07:14:50Z</time>
      </trkpt>
      <trkpt lat="46.620304" lon="12.198785">
        <ele>1511.314</ele>
        <time>2018-09-11T07:14:51Z</time>
      </trkpt>
      <trkpt lat="46.620312" lon="12.198775">
        <ele>1510.808</ele>
        <time>2018-09-11T07:14:52Z</time>
      </trkpt>
      <trkpt lat="46.620323" lon="12.198763">
        <ele>1510.319</ele>
        <time>2018-09-11T07:14:53Z</time>
      </trkpt>
      <trkpt lat="46.620334" lon="12.198743">
        <ele>1509.841</ele>
        <time>2018-09-11T07:14:54Z</time>
      </trkpt>
      <trkpt lat="46.620349" lon="12.198726">
        <ele>1509.430</ele>
        <time>2018-09-11T07:14:55Z</time>
      </trkpt>
      <trkpt lat="46.620363" lon="12.198704">
        <ele>1508.969</ele>
        <time>2018-09-11T07:14:56Z</time>
      </trkpt>
      <trkpt lat="46.620583" lon="12.198224">
        <ele>1510.345</ele>
        <time>2018-09-11T07:15:13Z</time>
      </trkpt>
      <trkpt lat="46.620659" lon="12.197819">
        <ele>1517.151</ele>
        <time>2018-09-11T07:15:26Z</time>
      </trkpt>
      <trkpt lat="46.620750" lon="12.197351">
        <ele>1520.924</ele>
        <time>2018-09-11T07:15:40Z</time>
      </trkpt>
      <trkpt lat="46.620974" lon="12.196905">
        <ele>1516.647</ele>
        <time>2018-09-11T07:15:54Z</time>
      </trkpt>
      <trkpt lat="46.621239" lon="12.196471">
        <ele>1513.798</ele>
        <time>2018-09-11T07:16:09Z</time>
      </trkpt>
      <trkpt lat="46.621527" lon="12.195938">
        <ele>1513.715</ele>
        <time>2018-09-11T07:16:27Z</time>
      </trkpt>
      <trkpt lat="46.621757" lon="12.195286">
        <ele>1512.226</ele>
        <time>2018-09-11T07:16:46Z</time>
      </trkpt>
      <trkpt lat="46.621756" lon="12.194783">
        <ele>1514.608</ele>
        <time>2018-09-11T07:16:59Z</time>
      </trkpt>
      <trkpt lat="46.621701" lon="12.194252">
        <ele>1521.433</ele>
        <time>2018-09-11T07:17:12Z</time>
      </trkpt>
      <trkpt lat="46.621619" lon="12.193839">
        <ele>1523.895</ele>
        <time>2018-09-11T07:17:24Z</time>
      </trkpt>
      <trkpt lat="46.621561" lon="12.193378">
        <ele>1526.284</ele>
        <time>2018-09-11T07:17:37Z</time>
      </trkpt>
      <trkpt lat="46.621548" lon="12.192947">
        <ele>1528.133</ele>
        <time>2018-09-11T07:17:49Z</time>
      </trkpt>
      <trkpt lat="46.621529" lon="12.192553">
        <ele>1529.589</ele>
        <time>2018-09-11T07:18:01Z</time>
      </trkpt>
      <trkpt lat="46.621575" lon="12.192214">
        <ele>1528.135</ele>
        <time>2018-09-11T07:18:13Z</time>
      </trkpt>
      <trkpt lat="46.621651" lon="12.191771">
        <ele>1530.578</ele>
        <time>2018-09-11T07:18:28Z</time>
      </trkpt>
      <trkpt lat="46.621729" lon="12.191310">
        <ele>1532.981</ele>
        <time>2018-09-11T07:18:41Z</time>
      </trkpt>
      <trkpt lat="46.621796" lon="12.190741">
        <ele>1532.925</ele>
        <time>2018-09-11T07:18:57Z</time>
      </trkpt>
      <trkpt lat="46.621878" lon="12.190206">
        <ele>1537.726</ele>
        <time>2018-09-11T07:19:13Z</time>
      </trkpt>
      <trkpt lat="46.621948" lon="12.189755">
        <ele>1542.508</ele>
        <time>2018-09-11T07:19:26Z</time>
      </trkpt>
      <trkpt lat="46.621962" lon="12.189318">
        <ele>1543.508</ele>
        <time>2018-09-11T07:19:38Z</time>
      </trkpt>
      <trkpt lat="46.621918" lon="12.188910">
        <ele>1548.896</ele>
        <time>2018-09-11T07:19:49Z</time>
      </trkpt>
      <trkpt lat="46.621769" lon="12.188308">
        <ele>1556.588</ele>
        <time>2018-09-11T07:20:05Z</time>
      </trkpt>
      <trkpt lat="46.621641" lon="12.187754">
        <ele>1554.187</ele>
        <time>2018-09-11T07:20:18Z</time>
      </trkpt>
      <trkpt lat="46.621488" lon="12.187172">
        <ele>1545.916</ele>
        <time>2018-09-11T07:20:32Z</time>
      </trkpt>
      <trkpt lat="46.621399" lon="12.186621">
        <ele>1547.362</ele>
        <time>2018-09-11T07:20:46Z</time>
      </trkpt>
      <trkpt lat="46.621265" lon="12.186066">
        <ele>1546.918</ele>
        <time>2018-09-11T07:21:00Z</time>
      </trkpt>
      <trkpt lat="46.621119" lon="12.185500">
        <ele>1546.431</ele>
        <time>2018-09-11T07:21:15Z</time>
      </trkpt>
      <trkpt lat="46.621052" lon="12.185423">
        <ele>1544.974</ele>
        <time>2018-09-11T07:21:27Z</time>
      </trkpt>
      <trkpt lat="46.621051" lon="12.185374">
        <ele>1544.521</ele>
        <time>2018-09-11T07:21:39Z</time>
      </trkpt>
      <trkpt lat="46.621048" lon="12.185362">
        <ele>1544.541</ele>
        <time>2018-09-11T07:21:40Z</time>
      </trkpt>
      <trkpt lat="46.621044" lon="12.185352">
        <ele>1544.005</ele>
        <time>2018-09-11T07:21:41Z</time>
      </trkpt>
      <trkpt lat="46.620919" lon="12.185007">
        <ele>1544.908</ele>
        <time>2018-09-11T07:21:52Z</time>
      </trkpt>
      <trkpt lat="46.620571" lon="12.184356">
        <ele>1543.026</ele>
        <time>2018-09-11T07:22:09Z</time>
      </trkpt>
      <trkpt lat="46.620436" lon="12.183888">
        <ele>1541.648</ele>
        <time>2018-09-11T07:22:21Z</time>
      </trkpt>
      <trkpt lat="46.620208" lon="12.183340">
        <ele>1540.137</ele>
        <time>2018-09-11T07:22:35Z</time>
      </trkpt>
      <trkpt lat="46.619949" lon="12.182872">
        <ele>1539.686</ele>
        <time>2018-09-11T07:22:49Z</time>
      </trkpt>
      <trkpt lat="46.619908" lon="12.182840">
        <ele>1535.392</ele>
        <time>2018-09-11T07:23:00Z</time>
      </trkpt>
      <trkpt lat="46.619904" lon="12.182855">
        <ele>1544.958</ele>
        <time>2018-09-11T07:23:36Z</time>
      </trkpt>
      <trkpt lat="46.619897" lon="12.182808">
        <ele>1544.091</ele>
        <time>2018-09-11T07:23:41Z</time>
      </trkpt>
      <trkpt lat="46.619894" lon="12.182786">
        <ele>1544.094</ele>
        <time>2018-09-11T07:23:42Z</time>
      </trkpt>
      <trkpt lat="46.619778" lon="12.182362">
        <ele>1542.011</ele>
        <time>2018-09-11T07:23:52Z</time>
      </trkpt>
      <trkpt lat="46.619552" lon="12.181908">
        <ele>1540.621</ele>
        <time>2018-09-11T07:24:04Z</time>
      </trkpt>
      <trkpt lat="46.619231" lon="12.181304">
        <ele>1538.203</ele>
        <time>2018-09-11T07:24:17Z</time>
      </trkpt>
      <trkpt lat="46.618745" lon="12.180407">
        <ele>1534.408</ele>
        <time>2018-09-11T07:24:30Z</time>
      </trkpt>
      <trkpt lat="46.618147" lon="12.178973">
        <ele>1529.585</ele>
        <time>2018-09-11T07:24:47Z</time>
      </trkpt>
      <trkpt lat="46.617890" lon="12.177636">
        <ele>1525.767</ele>
        <time>2018-09-11T07:25:01Z</time>
      </trkpt>
      <trkpt lat="46.617642" lon="12.176382">
        <ele>1523.376</ele>
        <time>2018-09-11T07:25:14Z</time>
      </trkpt>
      <trkpt lat="46.617547" lon="12.175334">
        <ele>1523.345</ele>
        <time>2018-09-11T07:25:27Z</time>
      </trkpt>
      <trkpt lat="46.617629" lon="12.174316">
        <ele>1520.481</ele>
        <time>2018-09-11T07:25:39Z</time>
      </trkpt>
      <trkpt lat="46.617639" lon="12.174231">
        <ele>1519.947</ele>
        <time>2018-09-11T07:25:40Z</time>
      </trkpt>
      <trkpt lat="46.617660" lon="12.173686">
        <ele>1518.560</ele>
        <time>2018-09-11T07:25:46Z</time>
      </trkpt>
      <trkpt lat="46.617659" lon="12.173596">
        <ele>1518.563</ele>
        <time>2018-09-11T07:25:47Z</time>
      </trkpt>
      <trkpt lat="46.617657" lon="12.173507">
        <ele>1518.515</ele>
        <time>2018-09-11T07:25:48Z</time>
      </trkpt>
      <trkpt lat="46.617644" lon="12.173336">
        <ele>1518.065</ele>
        <time>2018-09-11T07:25:50Z</time>
      </trkpt>
      <trkpt lat="46.617587" lon="12.172993">
        <ele>1517.511</ele>
        <time>2018-09-11T07:25:54Z</time>
      </trkpt>
      <trkpt lat="46.617519" lon="12.172736">
        <ele>1517.108</ele>
        <time>2018-09-11T07:25:57Z</time>
      </trkpt>
      <trkpt lat="46.617090" lon="12.171543">
        <ele>1516.195</ele>
        <time>2018-09-11T07:26:11Z</time>
      </trkpt>
      <trkpt lat="46.616640" lon="12.170331">
        <ele>1514.237</ele>
        <time>2018-09-11T07:26:26Z</time>
      </trkpt>
      <trkpt lat="46.616203" lon="12.169326">
        <ele>1514.246</ele>
        <time>2018-09-11T07:26:40Z</time>
      </trkpt>
      <trkpt lat="46.615786" lon="12.168296">
        <ele>1515.695</ele>
        <time>2018-09-11T07:26:56Z</time>
      </trkpt>
      <trkpt lat="46.615475" lon="12.167546">
        <ele>1517.541</ele>
        <time>2018-09-11T07:27:08Z</time>
      </trkpt>
      <trkpt lat="46.615420" lon="12.167427">
        <ele>1517.187</ele>
        <time>2018-09-11T07:27:10Z</time>
      </trkpt>
      <trkpt lat="46.614934" lon="12.166794">
        <ele>1514.660</ele>
        <time>2018-09-11T07:27:23Z</time>
      </trkpt>
      <trkpt lat="46.614571" lon="12.166411">
        <ele>1512.283</ele>
        <time>2018-09-11T07:27:32Z</time>
      </trkpt>
      <trkpt lat="46.614207" lon="12.166010">
        <ele>1511.869</ele>
        <time>2018-09-11T07:27:41Z</time>
      </trkpt>
      <trkpt lat="46.614162" lon="12.165971">
        <ele>1511.804</ele>
        <time>2018-09-11T07:27:42Z</time>
      </trkpt>
      <trkpt lat="46.614042" lon="12.165838">
        <ele>1511.824</ele>
        <time>2018-09-11T07:27:45Z</time>
      </trkpt>
      <trkpt lat="46.613515" lon="12.165253">
        <ele>1509.408</ele>
        <time>2018-09-11T07:27:59Z</time>
      </trkpt>
      <trkpt lat="46.612882" lon="12.164529">
        <ele>1510.810</ele>
        <time>2018-09-11T07:28:14Z</time>
      </trkpt>
      <trkpt lat="46.612365" lon="12.163858">
        <ele>1511.392</ele>
        <time>2018-09-11T07:28:26Z</time>
      </trkpt>
      <trkpt lat="46.611809" lon="12.163068">
        <ele>1512.281</ele>
        <time>2018-09-11T07:28:37Z</time>
      </trkpt>
      <trkpt lat="46.611194" lon="12.162204">
        <ele>1511.830</ele>
        <time>2018-09-11T07:28:49Z</time>
      </trkpt>
      <trkpt lat="46.611151" lon="12.162145">
        <ele>1512.286</ele>
        <time>2018-09-11T07:28:50Z</time>
      </trkpt>
      <trkpt lat="46.610794" lon="12.161629">
        <ele>1513.732</ele>
        <time>2018-09-11T07:29:00Z</time>
      </trkpt>
      <trkpt lat="46.610444" lon="12.161179">
        <ele>1510.895</ele>
        <time>2018-09-11T07:29:10Z</time>
      </trkpt>
      <trkpt lat="46.610250" lon="12.160880">
        <ele>1511.828</ele>
        <time>2018-09-11T07:29:16Z</time>
      </trkpt>
      <trkpt lat="46.610218" lon="12.160834">
        <ele>1512.742</ele>
        <time>2018-09-11T07:29:17Z</time>
      </trkpt>
      <trkpt lat="46.610191" lon="12.160781">
        <ele>1513.222</ele>
        <time>2018-09-11T07:29:18Z</time>
      </trkpt>
      <trkpt lat="46.610164" lon="12.160727">
        <ele>1513.714</ele>
        <time>2018-09-11T07:29:19Z</time>
      </trkpt>
      <trkpt lat="46.610137" lon="12.160678">
        <ele>1514.608</ele>
        <time>2018-09-11T07:29:20Z</time>
      </trkpt>
      <trkpt lat="46.610108" lon="12.160630">
        <ele>1515.178</ele>
        <time>2018-09-11T07:29:21Z</time>
      </trkpt>
      <trkpt lat="46.610073" lon="12.160586">
        <ele>1516.110</ele>
        <time>2018-09-11T07:29:22Z</time>
      </trkpt>
      <trkpt lat="46.610047" lon="12.160544">
        <ele>1517.139</ele>
        <time>2018-09-11T07:29:23Z</time>
      </trkpt>
      <trkpt lat="46.610024" lon="12.160496">
        <ele>1517.548</ele>
        <time>2018-09-11T07:29:24Z</time>
      </trkpt>
      <trkpt lat="46.610001" lon="12.160446">
        <ele>1518.074</ele>
        <time>2018-09-11T07:29:25Z</time>
      </trkpt>
      <trkpt lat="46.609578" lon="12.159683">
        <ele>1522.890</ele>
        <time>2018-09-11T07:29:40Z</time>
      </trkpt>
      <trkpt lat="46.609295" lon="12.159086">
        <ele>1525.243</ele>
        <time>2018-09-11T07:29:51Z</time>
      </trkpt>
      <trkpt lat="46.609254" lon="12.158958">
        <ele>1526.236</ele>
        <time>2018-09-11T07:29:53Z</time>
      </trkpt>
      <trkpt lat="46.609068" lon="12.158080">
        <ele>1527.612</ele>
        <time>2018-09-11T07:30:06Z</time>
      </trkpt>
      <trkpt lat="46.609041" lon="12.158020">
        <ele>1527.632</ele>
        <time>2018-09-11T07:30:07Z</time>
      </trkpt>
      <trkpt lat="46.608665" lon="12.157269">
        <ele>1526.705</ele>
        <time>2018-09-11T07:30:20Z</time>
      </trkpt>
      <trkpt lat="46.608638" lon="12.157209">
        <ele>1526.708</ele>
        <time>2018-09-11T07:30:21Z</time>
      </trkpt>
      <trkpt lat="46.608612" lon="12.157146">
        <ele>1527.185</ele>
        <time>2018-09-11T07:30:22Z</time>
      </trkpt>
      <trkpt lat="46.608589" lon="12.157081">
        <ele>1527.117</ele>
        <time>2018-09-11T07:30:23Z</time>
      </trkpt>
      <trkpt lat="46.608563" lon="12.157016">
        <ele>1527.176</ele>
        <time>2018-09-11T07:30:24Z</time>
      </trkpt>
      <trkpt lat="46.608541" lon="12.156950">
        <ele>1527.635</ele>
        <time>2018-09-11T07:30:25Z</time>
      </trkpt>
      <trkpt lat="46.608523" lon="12.156883">
        <ele>1528.111</ele>
        <time>2018-09-11T07:30:26Z</time>
      </trkpt>
      <trkpt lat="46.608483" lon="12.156742">
        <ele>1528.677</ele>
        <time>2018-09-11T07:30:28Z</time>
      </trkpt>
      <trkpt lat="46.608460" lon="12.156667">
        <ele>1529.120</ele>
        <time>2018-09-11T07:30:29Z</time>
      </trkpt>
      <trkpt lat="46.608314" lon="12.156109">
        <ele>1529.513</ele>
        <time>2018-09-11T07:30:36Z</time>
      </trkpt>
      <trkpt lat="46.608253" lon="12.155864">
        <ele>1529.538</ele>
        <time>2018-09-11T07:30:39Z</time>
      </trkpt>
      <trkpt lat="46.608229" lon="12.155784">
        <ele>1529.570</ele>
        <time>2018-09-11T07:30:40Z</time>
      </trkpt>
      <trkpt lat="46.608052" lon="12.155075">
        <ele>1529.517</ele>
        <time>2018-09-11T07:30:48Z</time>
      </trkpt>
      <trkpt lat="46.607936" lon="12.154695">
        <ele>1530.008</ele>
        <time>2018-09-11T07:30:52Z</time>
      </trkpt>
      <trkpt lat="46.607836" lon="12.154434">
        <ele>1530.027</ele>
        <time>2018-09-11T07:30:55Z</time>
      </trkpt>
      <trkpt lat="46.607724" lon="12.154264">
        <ele>1528.649</ele>
        <time>2018-09-11T07:30:57Z</time>
      </trkpt>
      <trkpt lat="46.607595" lon="12.154129">
        <ele>1526.258</ele>
        <time>2018-09-11T07:30:59Z</time>
      </trkpt>
      <trkpt lat="46.607540" lon="12.154084">
        <ele>1525.277</ele>
        <time>2018-09-11T07:31:00Z</time>
      </trkpt>
      <trkpt lat="46.606859" lon="12.153526">
        <ele>1512.753</ele>
        <time>2018-09-11T07:31:14Z</time>
      </trkpt>
      <trkpt lat="46.606720" lon="12.153245">
        <ele>1510.349</ele>
        <time>2018-09-11T07:31:18Z</time>
      </trkpt>
      <trkpt lat="46.606588" lon="12.152767">
        <ele>1507.942</ele>
        <time>2018-09-11T07:31:24Z</time>
      </trkpt>
      <trkpt lat="46.606458" lon="12.152201">
        <ele>1505.035</ele>
        <time>2018-09-11T07:31:31Z</time>
      </trkpt>
      <trkpt lat="46.606248" lon="12.151406">
        <ele>1504.154</ele>
        <time>2018-09-11T07:31:41Z</time>
      </trkpt>
      <trkpt lat="46.606224" lon="12.151326">
        <ele>1504.156</ele>
        <time>2018-09-11T07:31:42Z</time>
      </trkpt>
      <trkpt lat="46.606201" lon="12.151243">
        <ele>1504.111</ele>
        <time>2018-09-11T07:31:43Z</time>
      </trkpt>
      <trkpt lat="46.605949" lon="12.150584">
        <ele>1502.208</ele>
        <time>2018-09-11T07:31:54Z</time>
      </trkpt>
      <trkpt lat="46.605709" lon="12.149963">
        <ele>1500.719</ele>
        <time>2018-09-11T07:32:07Z</time>
      </trkpt>
      <trkpt lat="46.605667" lon="12.149868">
        <ele>1500.251</ele>
        <time>2018-09-11T07:32:09Z</time>
      </trkpt>
      <trkpt lat="46.605643" lon="12.149821">
        <ele>1500.240</ele>
        <time>2018-09-11T07:32:10Z</time>
      </trkpt>
      <trkpt lat="46.605392" lon="12.149199">
        <ele>1499.749</ele>
        <time>2018-09-11T07:32:23Z</time>
      </trkpt>
      <trkpt lat="46.605258" lon="12.148890">
        <ele>1501.785</ele>
        <time>2018-09-11T07:32:32Z</time>
      </trkpt>
      <trkpt lat="46.605224" lon="12.148893">
        <ele>1497.871</ele>
        <time>2018-09-11T07:33:00Z</time>
      </trkpt>
      <trkpt lat="46.605215" lon="12.148873">
        <ele>1498.884</ele>
        <time>2018-09-11T07:33:29Z</time>
      </trkpt>
      <trkpt lat="46.605129" lon="12.148570">
        <ele>1500.247</ele>
        <time>2018-09-11T07:33:41Z</time>
      </trkpt>
      <trkpt lat="46.605141" lon="12.147903">
        <ele>1495.927</ele>
        <time>2018-09-11T07:33:53Z</time>
      </trkpt>
      <trkpt lat="46.605169" lon="12.147658">
        <ele>1493.568</ele>
        <time>2018-09-11T07:33:57Z</time>
      </trkpt>
      <trkpt lat="46.605172" lon="12.147523">
        <ele>1493.014</ele>
        <time>2018-09-11T07:33:59Z</time>
      </trkpt>
      <trkpt lat="46.605157" lon="12.147256">
        <ele>1492.508</ele>
        <time>2018-09-11T07:34:03Z</time>
      </trkpt>
      <trkpt lat="46.605134" lon="12.147130">
        <ele>1493.086</ele>
        <time>2018-09-11T07:34:05Z</time>
      </trkpt>
      <trkpt lat="46.605109" lon="12.146948">
        <ele>1493.048</ele>
        <time>2018-09-11T07:34:08Z</time>
      </trkpt>
      <trkpt lat="46.605045" lon="12.146640">
        <ele>1494.057</ele>
        <time>2018-09-11T07:34:13Z</time>
      </trkpt>
      <trkpt lat="46.605025" lon="12.146504">
        <ele>1494.516</ele>
        <time>2018-09-11T07:34:15Z</time>
      </trkpt>
      <trkpt lat="46.604985" lon="12.146352">
        <ele>1494.532</ele>
        <time>2018-09-11T07:34:17Z</time>
      </trkpt>
      <trkpt lat="46.604957" lon="12.146278">
        <ele>1494.948</ele>
        <time>2018-09-11T07:34:18Z</time>
      </trkpt>
      <trkpt lat="46.604921" lon="12.146206">
        <ele>1494.961</ele>
        <time>2018-09-11T07:34:19Z</time>
      </trkpt>
      <trkpt lat="46.604882" lon="12.146125">
        <ele>1495.434</ele>
        <time>2018-09-11T07:34:20Z</time>
      </trkpt>
      <trkpt lat="46.604852" lon="12.146058">
        <ele>1495.466</ele>
        <time>2018-09-11T07:34:21Z</time>
      </trkpt>
      <trkpt lat="46.604816" lon="12.145987">
        <ele>1495.429</ele>
        <time>2018-09-11T07:34:22Z</time>
      </trkpt>
      <trkpt lat="46.604778" lon="12.145918">
        <ele>1495.421</ele>
        <time>2018-09-11T07:34:23Z</time>
      </trkpt>
      <trkpt lat="46.604744" lon="12.145844">
        <ele>1495.408</ele>
        <time>2018-09-11T07:34:24Z</time>
      </trkpt>
      <trkpt lat="46.604273" lon="12.144925">
        <ele>1488.770</ele>
        <time>2018-09-11T07:34:37Z</time>
      </trkpt>
      <trkpt lat="46.603803" lon="12.143996">
        <ele>1483.952</ele>
        <time>2018-09-11T07:34:50Z</time>
      </trkpt>
      <trkpt lat="46.603573" lon="12.143567">
        <ele>1482.431</ele>
        <time>2018-09-11T07:34:56Z</time>
      </trkpt>
      <trkpt lat="46.603536" lon="12.143498">
        <ele>1482.080</ele>
        <time>2018-09-11T07:34:57Z</time>
      </trkpt>
      <trkpt lat="46.602875" lon="12.142863">
        <ele>1478.696</ele>
        <time>2018-09-11T07:35:09Z</time>
      </trkpt>
      <trkpt lat="46.602765" lon="12.142752">
        <ele>1478.162</ele>
        <time>2018-09-11T07:35:11Z</time>
      </trkpt>
      <trkpt lat="46.602717" lon="12.142689">
        <ele>1478.125</ele>
        <time>2018-09-11T07:35:12Z</time>
      </trkpt>
      <trkpt lat="46.602672" lon="12.142622">
        <ele>1477.628</ele>
        <time>2018-09-11T07:35:13Z</time>
      </trkpt>
      <trkpt lat="46.602634" lon="12.142552">
        <ele>1477.663</ele>
        <time>2018-09-11T07:35:14Z</time>
      </trkpt>
      <trkpt lat="46.602596" lon="12.142480">
        <ele>1477.244</ele>
        <time>2018-09-11T07:35:15Z</time>
      </trkpt>
      <trkpt lat="46.602560" lon="12.142407">
        <ele>1476.718</ele>
        <time>2018-09-11T07:35:16Z</time>
      </trkpt>
      <trkpt lat="46.602502" lon="12.142253">
        <ele>1476.208</ele>
        <time>2018-09-11T07:35:18Z</time>
      </trkpt>
      <trkpt lat="46.602211" lon="12.141313">
        <ele>1472.810</ele>
        <time>2018-09-11T07:35:29Z</time>
      </trkpt>
      <trkpt lat="46.602063" lon="12.140805">
        <ele>1471.492</ele>
        <time>2018-09-11T07:35:35Z</time>
      </trkpt>
      <trkpt lat="46.602026" lon="12.140733">
        <ele>1471.491</ele>
        <time>2018-09-11T07:35:36Z</time>
      </trkpt>
      <trkpt lat="46.601990" lon="12.140657">
        <ele>1471.490</ele>
        <time>2018-09-11T07:35:37Z</time>
      </trkpt>
      <trkpt lat="46.601970" lon="12.140577">
        <ele>1471.446</ele>
        <time>2018-09-11T07:35:38Z</time>
      </trkpt>
      <trkpt lat="46.601956" lon="12.140494">
        <ele>1471.472</ele>
        <time>2018-09-11T07:35:39Z</time>
      </trkpt>
      <trkpt lat="46.601940" lon="12.140414">
        <ele>1471.495</ele>
        <time>2018-09-11T07:35:40Z</time>
      </trkpt>
      <trkpt lat="46.601896" lon="12.140249">
        <ele>1470.938</ele>
        <time>2018-09-11T07:35:42Z</time>
      </trkpt>
      <trkpt lat="46.601881" lon="12.140165">
        <ele>1470.998</ele>
        <time>2018-09-11T07:35:43Z</time>
      </trkpt>
      <trkpt lat="46.601862" lon="12.140084">
        <ele>1470.915</ele>
        <time>2018-09-11T07:35:44Z</time>
      </trkpt>
      <trkpt lat="46.601839" lon="12.139999">
        <ele>1470.926</ele>
        <time>2018-09-11T07:35:45Z</time>
      </trkpt>
      <trkpt lat="46.601823" lon="12.139912">
        <ele>1470.908</ele>
        <time>2018-09-11T07:35:46Z</time>
      </trkpt>
      <trkpt lat="46.601790" lon="12.139745">
        <ele>1470.953</ele>
        <time>2018-09-11T07:35:48Z</time>
      </trkpt>
      <trkpt lat="46.601781" lon="12.139670">
        <ele>1471.475</ele>
        <time>2018-09-11T07:35:49Z</time>
      </trkpt>
      <trkpt lat="46.601731" lon="12.139358">
        <ele>1472.454</ele>
        <time>2018-09-11T07:35:53Z</time>
      </trkpt>
      <trkpt lat="46.601725" lon="12.139277">
        <ele>1472.893</ele>
        <time>2018-09-11T07:35:54Z</time>
      </trkpt>
      <trkpt lat="46.601707" lon="12.139129">
        <ele>1472.829</ele>
        <time>2018-09-11T07:35:56Z</time>
      </trkpt>
      <trkpt lat="46.601671" lon="12.138994">
        <ele>1473.855</ele>
        <time>2018-09-11T07:35:58Z</time>
      </trkpt>
      <trkpt lat="46.601651" lon="12.138925">
        <ele>1474.848</ele>
        <time>2018-09-11T07:35:59Z</time>
      </trkpt>
      <trkpt lat="46.601638" lon="12.138846">
        <ele>1475.231</ele>
        <time>2018-09-11T07:36:00Z</time>
      </trkpt>
      <trkpt lat="46.601630" lon="12.138765">
        <ele>1476.232</ele>
        <time>2018-09-11T07:36:01Z</time>
      </trkpt>
      <trkpt lat="46.601621" lon="12.138686">
        <ele>1476.792</ele>
        <time>2018-09-11T07:36:02Z</time>
      </trkpt>
      <trkpt lat="46.601612" lon="12.138605">
        <ele>1476.711</ele>
        <time>2018-09-11T07:36:03Z</time>
      </trkpt>
      <trkpt lat="46.601605" lon="12.138527">
        <ele>1477.208</ele>
        <time>2018-09-11T07:36:04Z</time>
      </trkpt>
      <trkpt lat="46.601462" lon="12.137688">
        <ele>1478.657</ele>
        <time>2018-09-11T07:36:16Z</time>
      </trkpt>
      <trkpt lat="46.601448" lon="12.137631">
        <ele>1478.679</ele>
        <time>2018-09-11T07:36:17Z</time>
      </trkpt>
      <trkpt lat="46.601443" lon="12.137577">
        <ele>1478.678</ele>
        <time>2018-09-11T07:36:18Z</time>
      </trkpt>
      <trkpt lat="46.601443" lon="12.137525">
        <ele>1478.697</ele>
        <time>2018-09-11T07:36:19Z</time>
      </trkpt>
      <trkpt lat="46.601441" lon="12.137481">
        <ele>1478.653</ele>
        <time>2018-09-11T07:36:20Z</time>
      </trkpt>
      <trkpt lat="46.601438" lon="12.137441">
        <ele>1478.119</ele>
        <time>2018-09-11T07:36:21Z</time>
      </trkpt>
      <trkpt lat="46.601438" lon="12.137408">
        <ele>1477.652</ele>
        <time>2018-09-11T07:36:22Z</time>
      </trkpt>
      <trkpt lat="46.601446" lon="12.137389">
        <ele>1477.665</ele>
        <time>2018-09-11T07:36:23Z</time>
      </trkpt>
      <trkpt lat="46.601462" lon="12.137391">
        <ele>1477.283</ele>
        <time>2018-09-11T07:36:24Z</time>
      </trkpt>
      <trkpt lat="46.601471" lon="12.137410">
        <ele>1477.225</ele>
        <time>2018-09-11T07:36:25Z</time>
      </trkpt>
      <trkpt lat="46.601471" lon="12.137432">
        <ele>1477.217</ele>
        <time>2018-09-11T07:36:26Z</time>
      </trkpt>
      <trkpt lat="46.601468" lon="12.137456">
        <ele>1477.208</ele>
        <time>2018-09-11T07:36:27Z</time>
      </trkpt>
      <trkpt lat="46.601465" lon="12.137469">
        <ele>1477.242</ele>
        <time>2018-09-11T07:36:28Z</time>
      </trkpt>
      <trkpt lat="46.601452" lon="12.137489">
        <ele>1477.284</ele>
        <time>2018-09-11T07:36:30Z</time>
      </trkpt>
      <trkpt lat="46.601437" lon="12.137490">
        <ele>1477.213</ele>
        <time>2018-09-11T07:36:31Z</time>
      </trkpt>
      <trkpt lat="46.601426" lon="12.137475">
        <ele>1477.222</ele>
        <time>2018-09-11T07:36:32Z</time>
      </trkpt>
      <trkpt lat="46.601420" lon="12.137441">
        <ele>1477.278</ele>
        <time>2018-09-11T07:36:33Z</time>
      </trkpt>
      <trkpt lat="46.601421" lon="12.137402">
        <ele>1477.284</ele>
        <time>2018-09-11T07:36:34Z</time>
      </trkpt>
      <trkpt lat="46.601420" lon="12.137356">
        <ele>1476.777</ele>
        <time>2018-09-11T07:36:35Z</time>
      </trkpt>
      <trkpt lat="46.601372" lon="12.136974">
        <ele>1476.280</ele>
        <time>2018-09-11T07:36:42Z</time>
      </trkpt>
      <trkpt lat="46.601345" lon="12.136804">
        <ele>1476.252</ele>
        <time>2018-09-11T07:36:45Z</time>
      </trkpt>
      <trkpt lat="46.601225" lon="12.136253">
        <ele>1474.853</ele>
        <time>2018-09-11T07:36:54Z</time>
      </trkpt>
      <trkpt lat="46.601184" lon="12.136066">
        <ele>1474.308</ele>
        <time>2018-09-11T07:36:57Z</time>
      </trkpt>
      <trkpt lat="46.601171" lon="12.136002">
        <ele>1474.808</ele>
        <time>2018-09-11T07:36:58Z</time>
      </trkpt>
      <trkpt lat="46.601159" lon="12.135937">
        <ele>1474.819</ele>
        <time>2018-09-11T07:36:59Z</time>
      </trkpt>
      <trkpt lat="46.601148" lon="12.135872">
        <ele>1474.891</ele>
        <time>2018-09-11T07:37:00Z</time>
      </trkpt>
      <trkpt lat="46.601137" lon="12.135802">
        <ele>1474.810</ele>
        <time>2018-09-11T07:37:01Z</time>
      </trkpt>
      <trkpt lat="46.601129" lon="12.135731">
        <ele>1475.229</ele>
        <time>2018-09-11T07:37:02Z</time>
      </trkpt>
      <trkpt lat="46.601119" lon="12.135660">
        <ele>1475.275</ele>
        <time>2018-09-11T07:37:03Z</time>
      </trkpt>
      <trkpt lat="46.601105" lon="12.135594">
        <ele>1475.791</ele>
        <time>2018-09-11T07:37:04Z</time>
      </trkpt>
      <trkpt lat="46.601073" lon="12.135388">
        <ele>1476.254</ele>
        <time>2018-09-11T07:37:07Z</time>
      </trkpt>
      <trkpt lat="46.601061" lon="12.134878">
        <ele>1476.277</ele>
        <time>2018-09-11T07:37:14Z</time>
      </trkpt>
      <trkpt lat="46.601062" lon="12.134802">
        <ele>1476.268</ele>
        <time>2018-09-11T07:37:15Z</time>
      </trkpt>
      <trkpt lat="46.601066" lon="12.134129">
        <ele>1476.242</ele>
        <time>2018-09-11T07:37:23Z</time>
      </trkpt>
      <trkpt lat="46.601070" lon="12.134039">
        <ele>1476.226</ele>
        <time>2018-09-11T07:37:24Z</time>
      </trkpt>
      <trkpt lat="46.601069" lon="12.133938">
        <ele>1476.208</ele>
        <time>2018-09-11T07:37:25Z</time>
      </trkpt>
      <trkpt lat="46.601064" lon="12.133836">
        <ele>1475.730</ele>
        <time>2018-09-11T07:37:26Z</time>
      </trkpt>
      <trkpt lat="46.601057" lon="12.133733">
        <ele>1475.782</ele>
        <time>2018-09-11T07:37:27Z</time>
      </trkpt>
      <trkpt lat="46.601047" lon="12.133631">
        <ele>1475.221</ele>
        <time>2018-09-11T07:37:28Z</time>
      </trkpt>
      <trkpt lat="46.601016" lon="12.133429">
        <ele>1475.260</ele>
        <time>2018-09-11T07:37:30Z</time>
      </trkpt>
      <trkpt lat="46.600995" lon="12.133334">
        <ele>1475.236</ele>
        <time>2018-09-11T07:37:31Z</time>
      </trkpt>
      <trkpt lat="46.600974" lon="12.133238">
        <ele>1475.272</ele>
        <time>2018-09-11T07:37:32Z</time>
      </trkpt>
      <trkpt lat="46.600944" lon="12.133147">
        <ele>1475.795</ele>
        <time>2018-09-11T07:37:33Z</time>
      </trkpt>
      <trkpt lat="46.600908" lon="12.133058">
        <ele>1475.758</ele>
        <time>2018-09-11T07:37:34Z</time>
      </trkpt>
      <trkpt lat="46.600868" lon="12.132970">
        <ele>1476.214</ele>
        <time>2018-09-11T07:37:35Z</time>
      </trkpt>
      <trkpt lat="46.600406" lon="12.132009">
        <ele>1476.254</ele>
        <time>2018-09-11T07:37:47Z</time>
      </trkpt>
      <trkpt lat="46.600370" lon="12.131935">
        <ele>1476.209</ele>
        <time>2018-09-11T07:37:48Z</time>
      </trkpt>
      <trkpt lat="46.600334" lon="12.131856">
        <ele>1476.208</ele>
        <time>2018-09-11T07:37:49Z</time>
      </trkpt>
      <trkpt lat="46.600216" lon="12.131532">
        <ele>1474.845</ele>
        <time>2018-09-11T07:37:53Z</time>
      </trkpt>
      <trkpt lat="46.600137" lon="12.131100">
        <ele>1474.317</ele>
        <time>2018-09-11T07:37:58Z</time>
      </trkpt>
      <trkpt lat="46.600177" lon="12.129768">
        <ele>1468.536</ele>
        <time>2018-09-11T07:38:13Z</time>
      </trkpt>
      <trkpt lat="46.600128" lon="12.129019">
        <ele>1469.925</ele>
        <time>2018-09-11T07:38:22Z</time>
      </trkpt>
      <trkpt lat="46.600112" lon="12.128943">
        <ele>1469.991</ele>
        <time>2018-09-11T07:38:23Z</time>
      </trkpt>
      <trkpt lat="46.600096" lon="12.128869">
        <ele>1469.977</ele>
        <time>2018-09-11T07:38:24Z</time>
      </trkpt>
      <trkpt lat="46.600075" lon="12.128793">
        <ele>1470.430</ele>
        <time>2018-09-11T07:38:25Z</time>
      </trkpt>
      <trkpt lat="46.600049" lon="12.128719">
        <ele>1470.493</ele>
        <time>2018-09-11T07:38:26Z</time>
      </trkpt>
      <trkpt lat="46.600020" lon="12.128648">
        <ele>1470.491</ele>
        <time>2018-09-11T07:38:27Z</time>
      </trkpt>
      <trkpt lat="46.599988" lon="12.128578">
        <ele>1470.481</ele>
        <time>2018-09-11T07:38:28Z</time>
      </trkpt>
      <trkpt lat="46.599881" lon="12.128374">
        <ele>1470.419</ele>
        <time>2018-09-11T07:38:31Z</time>
      </trkpt>
      <trkpt lat="46.599841" lon="12.128310">
        <ele>1470.908</ele>
        <time>2018-09-11T07:38:32Z</time>
      </trkpt>
      <trkpt lat="46.599803" lon="12.128248">
        <ele>1470.953</ele>
        <time>2018-09-11T07:38:33Z</time>
      </trkpt>
      <trkpt lat="46.599686" lon="12.128065">
        <ele>1471.485</ele>
        <time>2018-09-11T07:38:36Z</time>
      </trkpt>
      <trkpt lat="46.599584" lon="12.127866">
        <ele>1471.974</ele>
        <time>2018-09-11T07:38:39Z</time>
      </trkpt>
      <trkpt lat="46.599535" lon="12.127712">
        <ele>1471.493</ele>
        <time>2018-09-11T07:38:41Z</time>
      </trkpt>
      <trkpt lat="46.599521" lon="12.127626">
        <ele>1471.429</ele>
        <time>2018-09-11T07:38:42Z</time>
      </trkpt>
      <trkpt lat="46.599503" lon="12.127331">
        <ele>1469.055</ele>
        <time>2018-09-11T07:38:45Z</time>
      </trkpt>
      <trkpt lat="46.599508" lon="12.127228">
        <ele>1468.098</ele>
        <time>2018-09-11T07:38:46Z</time>
      </trkpt>
      <trkpt lat="46.599522" lon="12.127010">
        <ele>1465.161</ele>
        <time>2018-09-11T07:38:48Z</time>
      </trkpt>
      <trkpt lat="46.599539" lon="12.126910">
        <ele>1464.718</ele>
        <time>2018-09-11T07:38:49Z</time>
      </trkpt>
      <trkpt lat="46.599562" lon="12.126812">
        <ele>1463.798</ele>
        <time>2018-09-11T07:38:50Z</time>
      </trkpt>
      <trkpt lat="46.599794" lon="12.125956">
        <ele>1458.417</ele>
        <time>2018-09-11T07:38:59Z</time>
      </trkpt>
      <trkpt lat="46.599810" lon="12.125757">
        <ele>1457.908</ele>
        <time>2018-09-11T07:39:01Z</time>
      </trkpt>
      <trkpt lat="46.599806" lon="12.125655">
        <ele>1457.935</ele>
        <time>2018-09-11T07:39:02Z</time>
      </trkpt>
      <trkpt lat="46.599696" lon="12.124432">
        <ele>1454.667</ele>
        <time>2018-09-11T07:39:15Z</time>
      </trkpt>
      <trkpt lat="46.599769" lon="12.123415">
        <ele>1449.866</ele>
        <time>2018-09-11T07:39:26Z</time>
      </trkpt>
      <trkpt lat="46.599748" lon="12.123038">
        <ele>1450.255</ele>
        <time>2018-09-11T07:39:35Z</time>
      </trkpt>
      <trkpt lat="46.599750" lon="12.123015">
        <ele>1451.281</ele>
        <time>2018-09-11T07:39:48Z</time>
      </trkpt>
      <trkpt lat="46.599770" lon="12.122986">
        <ele>1451.247</ele>
        <time>2018-09-11T07:39:49Z</time>
      </trkpt>
      <trkpt lat="46.599778" lon="12.122965">
        <ele>1451.260</ele>
        <time>2018-09-11T07:39:50Z</time>
      </trkpt>
      <trkpt lat="46.599786" lon="12.122944">
        <ele>1451.793</ele>
        <time>2018-09-11T07:39:51Z</time>
      </trkpt>
      <trkpt lat="46.599796" lon="12.122925">
        <ele>1451.727</ele>
        <time>2018-09-11T07:39:52Z</time>
      </trkpt>
      <trkpt lat="46.599806" lon="12.122909">
        <ele>1452.268</ele>
        <time>2018-09-11T07:39:53Z</time>
      </trkpt>
      <trkpt lat="46.599818" lon="12.122896">
        <ele>1452.214</ele>
        <time>2018-09-11T07:39:54Z</time>
      </trkpt>
      <trkpt lat="46.599829" lon="12.122882">
        <ele>1452.608</ele>
        <time>2018-09-11T07:39:55Z</time>
      </trkpt>
      <trkpt lat="46.599836" lon="12.122865">
        <ele>1452.636</ele>
        <time>2018-09-11T07:39:56Z</time>
      </trkpt>
      <trkpt lat="46.599840" lon="12.122844">
        <ele>1452.648</ele>
        <time>2018-09-11T07:39:57Z</time>
      </trkpt>
      <trkpt lat="46.599843" lon="12.122824">
        <ele>1452.627</ele>
        <time>2018-09-11T07:39:58Z</time>
      </trkpt>
      <trkpt lat="46.599848" lon="12.122807">
        <ele>1453.126</ele>
        <time>2018-09-11T07:39:59Z</time>
      </trkpt>
      <trkpt lat="46.599852" lon="12.122789">
        <ele>1453.112</ele>
        <time>2018-09-11T07:40:00Z</time>
      </trkpt>
      <trkpt lat="46.599851" lon="12.122769">
        <ele>1453.648</ele>
        <time>2018-09-11T07:40:01Z</time>
      </trkpt>
      <trkpt lat="46.599848" lon="12.122746">
        <ele>1453.621</ele>
        <time>2018-09-11T07:40:02Z</time>
      </trkpt>
      <trkpt lat="46.599846" lon="12.122721">
        <ele>1453.614</ele>
        <time>2018-09-11T07:40:03Z</time>
      </trkpt>
      <trkpt lat="46.599731" lon="12.122506">
        <ele>1455.561</ele>
        <time>2018-09-11T07:40:15Z</time>
      </trkpt>
      <trkpt lat="46.599528" lon="12.122352">
        <ele>1458.421</ele>
        <time>2018-09-11T07:40:29Z</time>
      </trkpt>
      <trkpt lat="46.599485" lon="12.122347">
        <ele>1458.413</ele>
        <time>2018-09-11T07:40:32Z</time>
      </trkpt>
      <trkpt lat="46.599455" lon="12.122335">
        <ele>1458.908</ele>
        <time>2018-09-11T07:40:34Z</time>
      </trkpt>
      <trkpt lat="46.599440" lon="12.122330">
        <ele>1458.990</ele>
        <time>2018-09-11T07:40:35Z</time>
      </trkpt>
      <trkpt lat="46.599213" lon="12.122132">
        <ele>1462.312</ele>
        <time>2018-09-11T07:40:52Z</time>
      </trkpt>
      <trkpt lat="46.599144" lon="12.121936">
        <ele>1462.771</ele>
        <time>2018-09-11T07:41:01Z</time>
      </trkpt>
      <trkpt lat="46.599162" lon="12.121612">
        <ele>1464.730</ele>
        <time>2018-09-11T07:41:13Z</time>
      </trkpt>
      <trkpt lat="46.599168" lon="12.121589">
        <ele>1464.786</ele>
        <time>2018-09-11T07:41:14Z</time>
      </trkpt>
      <trkpt lat="46.599219" lon="12.121242">
        <ele>1467.192</ele>
        <time>2018-09-11T07:41:27Z</time>
      </trkpt>
      <trkpt lat="46.599230" lon="12.121138">
        <ele>1468.025</ele>
        <time>2018-09-11T07:41:31Z</time>
      </trkpt>
      <trkpt lat="46.599345" lon="12.120725">
        <ele>1468.058</ele>
        <time>2018-09-11T07:41:45Z</time>
      </trkpt>
      <trkpt lat="46.599333" lon="12.120693">
        <ele>1468.078</ele>
        <time>2018-09-11T07:41:46Z</time>
      </trkpt>
      <trkpt lat="46.599319" lon="12.120657">
        <ele>1468.533</ele>
        <time>2018-09-11T07:41:47Z</time>
      </trkpt>
      <trkpt lat="46.599181" lon="12.120180">
        <ele>1473.826</ele>
        <time>2018-09-11T07:41:58Z</time>
      </trkpt>
      <trkpt lat="46.599126" lon="12.119661">
        <ele>1476.208</ele>
        <time>2018-09-11T07:42:10Z</time>
      </trkpt>
      <trkpt lat="46.599100" lon="12.119248">
        <ele>1474.861</ele>
        <time>2018-09-11T07:42:21Z</time>
      </trkpt>
      <trkpt lat="46.599051" lon="12.118828">
        <ele>1480.063</ele>
        <time>2018-09-11T07:42:32Z</time>
      </trkpt>
      <trkpt lat="46.598958" lon="12.118468">
        <ele>1484.862</ele>
        <time>2018-09-11T07:42:42Z</time>
      </trkpt>
      <trkpt lat="46.598901" lon="12.118058">
        <ele>1488.231</ele>
        <time>2018-09-11T07:42:52Z</time>
      </trkpt>
      <trkpt lat="46.598875" lon="12.117843">
        <ele>1488.257</ele>
        <time>2018-09-11T07:42:57Z</time>
      </trkpt>
      <trkpt lat="46.598858" lon="12.117808">
        <ele>1488.713</ele>
        <time>2018-09-11T07:42:58Z</time>
      </trkpt>
      <trkpt lat="46.598847" lon="12.117771">
        <ele>1489.226</ele>
        <time>2018-09-11T07:42:59Z</time>
      </trkpt>
      <trkpt lat="46.598840" lon="12.117734">
        <ele>1489.259</ele>
        <time>2018-09-11T07:43:00Z</time>
      </trkpt>
      <trkpt lat="46.598842" lon="12.117695">
        <ele>1489.722</ele>
        <time>2018-09-11T07:43:01Z</time>
      </trkpt>
      <trkpt lat="46.598849" lon="12.117654">
        <ele>1489.262</ele>
        <time>2018-09-11T07:43:02Z</time>
      </trkpt>
      <trkpt lat="46.598855" lon="12.117611">
        <ele>1489.208</ele>
        <time>2018-09-11T07:43:03Z</time>
      </trkpt>
      <trkpt lat="46.598862" lon="12.117567">
        <ele>1488.708</ele>
        <time>2018-09-11T07:43:04Z</time>
      </trkpt>
      <trkpt lat="46.598873" lon="12.117526">
        <ele>1488.256</ele>
        <time>2018-09-11T07:43:05Z</time>
      </trkpt>
      <trkpt lat="46.598891" lon="12.117486">
        <ele>1487.728</ele>
        <time>2018-09-11T07:43:06Z</time>
      </trkpt>
      <trkpt lat="46.598910" lon="12.117445">
        <ele>1487.337</ele>
        <time>2018-09-11T07:43:07Z</time>
      </trkpt>
      <trkpt lat="46.598928" lon="12.117403">
        <ele>1486.376</ele>
        <time>2018-09-11T07:43:08Z</time>
      </trkpt>
      <trkpt lat="46.598947" lon="12.117366">
        <ele>1485.812</ele>
        <time>2018-09-11T07:43:09Z</time>
      </trkpt>
      <trkpt lat="46.598967" lon="12.117335">
        <ele>1484.818</ele>
        <time>2018-09-11T07:43:10Z</time>
      </trkpt>
      <trkpt lat="46.598988" lon="12.117305">
        <ele>1483.971</ele>
        <time>2018-09-11T07:43:11Z</time>
      </trkpt>
      <trkpt lat="46.599006" lon="12.117269">
        <ele>1483.444</ele>
        <time>2018-09-11T07:43:12Z</time>
      </trkpt>
      <trkpt lat="46.599023" lon="12.117234">
        <ele>1482.915</ele>
        <time>2018-09-11T07:43:13Z</time>
      </trkpt>
      <trkpt lat="46.599039" lon="12.117204">
        <ele>1482.065</ele>
        <time>2018-09-11T07:43:14Z</time>
      </trkpt>
      <trkpt lat="46.599052" lon="12.117175">
        <ele>1481.511</ele>
        <time>2018-09-11T07:43:15Z</time>
      </trkpt>
      <trkpt lat="46.599057" lon="12.117153">
        <ele>1481.508</ele>
        <time>2018-09-11T07:43:16Z</time>
      </trkpt>
      <trkpt lat="46.599061" lon="12.117133">
        <ele>1481.085</ele>
        <time>2018-09-11T07:43:17Z</time>
      </trkpt>
      <trkpt lat="46.599067" lon="12.117108">
        <ele>1481.027</ele>
        <time>2018-09-11T07:43:18Z</time>
      </trkpt>
      <trkpt lat="46.599074" lon="12.117084">
        <ele>1481.016</ele>
        <time>2018-09-11T07:43:19Z</time>
      </trkpt>
      <trkpt lat="46.599080" lon="12.117058">
        <ele>1481.085</ele>
        <time>2018-09-11T07:43:20Z</time>
      </trkpt>
      <trkpt lat="46.599086" lon="12.117031">
        <ele>1481.551</ele>
        <time>2018-09-11T07:43:21Z</time>
      </trkpt>
      <trkpt lat="46.599091" lon="12.116801">
        <ele>1484.487</ele>
        <time>2018-09-11T07:43:30Z</time>
      </trkpt>
      <trkpt lat="46.599098" lon="12.116774">
        <ele>1484.820</ele>
        <time>2018-09-11T07:43:31Z</time>
      </trkpt>
      <trkpt lat="46.599103" lon="12.116747">
        <ele>1485.353</ele>
        <time>2018-09-11T07:43:32Z</time>
      </trkpt>
      <trkpt lat="46.599104" lon="12.116722">
        <ele>1485.858</ele>
        <time>2018-09-11T07:43:33Z</time>
      </trkpt>
      <trkpt lat="46.599104" lon="12.116700">
        <ele>1485.852</ele>
        <time>2018-09-11T07:43:34Z</time>
      </trkpt>
      <trkpt lat="46.599100" lon="12.116676">
        <ele>1486.317</ele>
        <time>2018-09-11T07:43:35Z</time>
      </trkpt>
      <trkpt lat="46.599100" lon="12.116647">
        <ele>1486.808</ele>
        <time>2018-09-11T07:43:36Z</time>
      </trkpt>
      <trkpt lat="46.599098" lon="12.116615">
        <ele>1487.369</ele>
        <time>2018-09-11T07:43:37Z</time>
      </trkpt>
      <trkpt lat="46.599099" lon="12.116579">
        <ele>1487.751</ele>
        <time>2018-09-11T07:43:38Z</time>
      </trkpt>
      <trkpt lat="46.599107" lon="12.116541">
        <ele>1488.250</ele>
        <time>2018-09-11T07:43:39Z</time>
      </trkpt>
      <trkpt lat="46.599115" lon="12.116507">
        <ele>1488.289</ele>
        <time>2018-09-11T07:43:40Z</time>
      </trkpt>
      <trkpt lat="46.599125" lon="12.116477">
        <ele>1488.265</ele>
        <time>2018-09-11T07:43:41Z</time>
      </trkpt>
      <trkpt lat="46.599134" lon="12.116456">
        <ele>1488.221</ele>
        <time>2018-09-11T07:43:42Z</time>
      </trkpt>
      <trkpt lat="46.599248" lon="12.116126">
        <ele>1486.834</ele>
        <time>2018-09-11T07:43:56Z</time>
      </trkpt>
      <trkpt lat="46.599308" lon="12.115913">
        <ele>1485.867</ele>
        <time>2018-09-11T07:44:03Z</time>
      </trkpt>
      <trkpt lat="46.599322" lon="12.115885">
        <ele>1486.356</ele>
        <time>2018-09-11T07:44:04Z</time>
      </trkpt>
      <trkpt lat="46.599333" lon="12.115850">
        <ele>1486.359</ele>
        <time>2018-09-11T07:44:05Z</time>
      </trkpt>
      <trkpt lat="46.599395" lon="12.115596">
        <ele>1485.314</ele>
        <time>2018-09-11T07:44:12Z</time>
      </trkpt>
      <trkpt lat="46.599401" lon="12.115557">
        <ele>1484.408</ele>
        <time>2018-09-11T07:44:13Z</time>
      </trkpt>
      <trkpt lat="46.599472" lon="12.115224">
        <ele>1482.019</ele>
        <time>2018-09-11T07:44:23Z</time>
      </trkpt>
      <trkpt lat="46.599475" lon="12.115208">
        <ele>1482.041</ele>
        <time>2018-09-11T07:44:24Z</time>
      </trkpt>
      <trkpt lat="46.599474" lon="12.115188">
        <ele>1481.570</ele>
        <time>2018-09-11T07:44:25Z</time>
      </trkpt>
      <trkpt lat="46.599473" lon="12.115166">
        <ele>1481.579</ele>
        <time>2018-09-11T07:44:26Z</time>
      </trkpt>
      <trkpt lat="46.599471" lon="12.115147">
        <ele>1481.085</ele>
        <time>2018-09-11T07:44:27Z</time>
      </trkpt>
      <trkpt lat="46.599467" lon="12.115131">
        <ele>1481.021</ele>
        <time>2018-09-11T07:44:28Z</time>
      </trkpt>
      <trkpt lat="46.599463" lon="12.115112">
        <ele>1481.024</ele>
        <time>2018-09-11T07:44:29Z</time>
      </trkpt>
      <trkpt lat="46.599468" lon="12.114861">
        <ele>1478.647</ele>
        <time>2018-09-11T07:44:42Z</time>
      </trkpt>
      <trkpt lat="46.599480" lon="12.114855">
        <ele>1478.639</ele>
        <time>2018-09-11T07:44:43Z</time>
      </trkpt>
      <trkpt lat="46.599491" lon="12.114861">
        <ele>1478.601</ele>
        <time>2018-09-11T07:44:44Z</time>
      </trkpt>
      <trkpt lat="46.599496" lon="12.114877">
        <ele>1478.621</ele>
        <time>2018-09-11T07:44:45Z</time>
      </trkpt>
      <trkpt lat="46.599495" lon="12.114897">
        <ele>1478.608</ele>
        <time>2018-09-11T07:44:46Z</time>
      </trkpt>
      <trkpt lat="46.599498" lon="12.114929">
        <ele>1478.677</ele>
        <time>2018-09-11T07:44:48Z</time>
      </trkpt>
      <trkpt lat="46.599503" lon="12.114945">
        <ele>1478.159</ele>
        <time>2018-09-11T07:44:49Z</time>
      </trkpt>
      <trkpt lat="46.599481" lon="12.115020">
        <ele>1478.638</ele>
        <time>2018-09-11T07:44:59Z</time>
      </trkpt>
      <trkpt lat="46.599527" lon="12.115005">
        <ele>1479.157</ele>
        <time>2018-09-11T07:45:11Z</time>
      </trkpt>
      <trkpt lat="46.599539" lon="12.114991">
        <ele>1479.163</ele>
        <time>2018-09-11T07:45:12Z</time>
      </trkpt>
      <trkpt lat="46.599547" lon="12.114975">
        <ele>1479.199</ele>
        <time>2018-09-11T07:45:13Z</time>
      </trkpt>
      <trkpt lat="46.599557" lon="12.114954">
        <ele>1479.192</ele>
        <time>2018-09-11T07:45:14Z</time>
      </trkpt>
      <trkpt lat="46.599563" lon="12.114929">
        <ele>1478.685</ele>
        <time>2018-09-11T07:45:15Z</time>
      </trkpt>
      <trkpt lat="46.599565" lon="12.114897">
        <ele>1478.692</ele>
        <time>2018-09-11T07:45:16Z</time>
      </trkpt>
      <trkpt lat="46.599564" lon="12.114861">
        <ele>1478.673</ele>
        <time>2018-09-11T07:45:17Z</time>
      </trkpt>
      <trkpt lat="46.599582" lon="12.114494">
        <ele>1476.220</ele>
        <time>2018-09-11T07:45:29Z</time>
      </trkpt>
      <trkpt lat="46.599584" lon="12.114439">
        <ele>1475.708</ele>
        <time>2018-09-11T07:45:43Z</time>
      </trkpt>
      <trkpt lat="46.599617" lon="12.114481">
        <ele>1475.293</ele>
        <time>2018-09-11T07:45:51Z</time>
      </trkpt>
      <trkpt lat="46.599629" lon="12.114480">
        <ele>1475.285</ele>
        <time>2018-09-11T07:45:52Z</time>
      </trkpt>
      <trkpt lat="46.599640" lon="12.114473">
        <ele>1475.234</ele>
        <time>2018-09-11T07:45:53Z</time>
      </trkpt>
      <trkpt lat="46.599651" lon="12.114459">
        <ele>1474.833</ele>
        <time>2018-09-11T07:45:54Z</time>
      </trkpt>
      <trkpt lat="46.599661" lon="12.114444">
        <ele>1474.889</ele>
        <time>2018-09-11T07:45:55Z</time>
      </trkpt>
      <trkpt lat="46.599678" lon="12.114425">
        <ele>1474.385</ele>
        <time>2018-09-11T07:45:56Z</time>
      </trkpt>
      <trkpt lat="46.599822" lon="12.114226">
        <ele>1473.898</ele>
        <time>2018-09-11T07:46:08Z</time>
      </trkpt>
      <trkpt lat="46.599847" lon="12.114035">
        <ele>1478.161</ele>
        <time>2018-09-11T07:46:18Z</time>
      </trkpt>
      <trkpt lat="46.599836" lon="12.113955">
        <ele>1479.655</ele>
        <time>2018-09-11T07:46:27Z</time>
      </trkpt>
      <trkpt lat="46.599845" lon="12.113829">
        <ele>1483.907</ele>
        <time>2018-09-11T07:46:46Z</time>
      </trkpt>
      <trkpt lat="46.599848" lon="12.113448">
        <ele>1486.317</ele>
        <time>2018-09-11T07:46:59Z</time>
      </trkpt>
      <trkpt lat="46.599935" lon="12.112812">
        <ele>1484.408</ele>
        <time>2018-09-11T07:47:12Z</time>
      </trkpt>
      <trkpt lat="46.600056" lon="12.112555">
        <ele>1482.439</ele>
        <time>2018-09-11T07:47:17Z</time>
      </trkpt>
      <trkpt lat="46.600197" lon="12.112277">
        <ele>1478.651</ele>
        <time>2018-09-11T07:47:22Z</time>
      </trkpt>
      <trkpt lat="46.600225" lon="12.112218">
        <ele>1478.170</ele>
        <time>2018-09-11T07:47:23Z</time>
      </trkpt>
      <trkpt lat="46.600308" lon="12.112053">
        <ele>1476.259</ele>
        <time>2018-09-11T07:47:26Z</time>
      </trkpt>
      <trkpt lat="46.600339" lon="12.112007">
        <ele>1475.755</ele>
        <time>2018-09-11T07:47:27Z</time>
      </trkpt>
      <trkpt lat="46.600370" lon="12.111968">
        <ele>1475.231</ele>
        <time>2018-09-11T07:47:28Z</time>
      </trkpt>
      <trkpt lat="46.600474" lon="12.111831">
        <ele>1473.354</ele>
        <time>2018-09-11T07:47:31Z</time>
      </trkpt>
      <trkpt lat="46.600742" lon="12.111295">
        <ele>1466.687</ele>
        <time>2018-09-11T07:47:41Z</time>
      </trkpt>
      <trkpt lat="46.600780" lon="12.111258">
        <ele>1465.697</ele>
        <time>2018-09-11T07:47:42Z</time>
      </trkpt>
      <trkpt lat="46.600823" lon="12.111225">
        <ele>1465.123</ele>
        <time>2018-09-11T07:47:43Z</time>
      </trkpt>
      <trkpt lat="46.600864" lon="12.111203">
        <ele>1464.225</ele>
        <time>2018-09-11T07:47:44Z</time>
      </trkpt>
      <trkpt lat="46.600906" lon="12.111188">
        <ele>1463.708</ele>
        <time>2018-09-11T07:47:45Z</time>
      </trkpt>
      <trkpt lat="46.600954" lon="12.111178">
        <ele>1463.213</ele>
        <time>2018-09-11T07:47:46Z</time>
      </trkpt>
      <trkpt lat="46.601249" lon="12.111123">
        <ele>1459.975</ele>
        <time>2018-09-11T07:47:51Z</time>
      </trkpt>
      <trkpt lat="46.601401" lon="12.111058">
        <ele>1458.444</ele>
        <time>2018-09-11T07:47:54Z</time>
      </trkpt>
      <trkpt lat="46.601543" lon="12.110953">
        <ele>1456.573</ele>
        <time>2018-09-11T07:47:57Z</time>
      </trkpt>
      <trkpt lat="46.601582" lon="12.110914">
        <ele>1456.049</ele>
        <time>2018-09-11T07:47:58Z</time>
      </trkpt>
      <trkpt lat="46.601614" lon="12.110877">
        <ele>1455.595</ele>
        <time>2018-09-11T07:47:59Z</time>
      </trkpt>
      <trkpt lat="46.601650" lon="12.110844">
        <ele>1454.648</ele>
        <time>2018-09-11T07:48:00Z</time>
      </trkpt>
      <trkpt lat="46.601689" lon="12.110820">
        <ele>1454.181</ele>
        <time>2018-09-11T07:48:01Z</time>
      </trkpt>
      <trkpt lat="46.601726" lon="12.110804">
        <ele>1453.155</ele>
        <time>2018-09-11T07:48:02Z</time>
      </trkpt>
      <trkpt lat="46.601766" lon="12.110804">
        <ele>1452.207</ele>
        <time>2018-09-11T07:48:03Z</time>
      </trkpt>
      <trkpt lat="46.601809" lon="12.110812">
        <ele>1451.717</ele>
        <time>2018-09-11T07:48:04Z</time>
      </trkpt>
      <trkpt lat="46.601851" lon="12.110824">
        <ele>1450.708</ele>
        <time>2018-09-11T07:48:05Z</time>
      </trkpt>
      <trkpt lat="46.602111" lon="12.110912">
        <ele>1447.469</ele>
        <time>2018-09-11T07:48:10Z</time>
      </trkpt>
      <trkpt lat="46.602156" lon="12.110908">
        <ele>1446.431</ele>
        <time>2018-09-11T07:48:11Z</time>
      </trkpt>
      <trkpt lat="46.602200" lon="12.110886">
        <ele>1445.980</ele>
        <time>2018-09-11T07:48:12Z</time>
      </trkpt>
      <trkpt lat="46.602241" lon="12.110848">
        <ele>1445.489</ele>
        <time>2018-09-11T07:48:13Z</time>
      </trkpt>
      <trkpt lat="46.602274" lon="12.110794">
        <ele>1445.065</ele>
        <time>2018-09-11T07:48:14Z</time>
      </trkpt>
      <trkpt lat="46.602291" lon="12.110729">
        <ele>1444.561</ele>
        <time>2018-09-11T07:48:15Z</time>
      </trkpt>
      <trkpt lat="46.602293" lon="12.110664">
        <ele>1444.034</ele>
        <time>2018-09-11T07:48:16Z</time>
      </trkpt>
      <trkpt lat="46.602283" lon="12.110599">
        <ele>1444.027</ele>
        <time>2018-09-11T07:48:17Z</time>
      </trkpt>
      <trkpt lat="46.602271" lon="12.110551">
        <ele>1443.583</ele>
        <time>2018-09-11T07:48:18Z</time>
      </trkpt>
      <trkpt lat="46.602259" lon="12.110505">
        <ele>1443.525</ele>
        <time>2018-09-11T07:48:19Z</time>
      </trkpt>
      <trkpt lat="46.602214" lon="12.110009">
        <ele>1442.117</ele>
        <time>2018-09-11T07:48:30Z</time>
      </trkpt>
      <trkpt lat="46.602198" lon="12.109291">
        <ele>1439.208</ele>
        <time>2018-09-11T07:48:43Z</time>
      </trkpt>
      <trkpt lat="46.602203" lon="12.109176">
        <ele>1438.732</ele>
        <time>2018-09-11T07:48:45Z</time>
      </trkpt>
      <trkpt lat="46.602203" lon="12.109114">
        <ele>1438.744</ele>
        <time>2018-09-11T07:48:46Z</time>
      </trkpt>
      <trkpt lat="46.602323" lon="12.108571">
        <ele>1436.873</ele>
        <time>2018-09-11T07:48:56Z</time>
      </trkpt>
      <trkpt lat="46.602360" lon="12.108537">
        <ele>1436.332</ele>
        <time>2018-09-11T07:48:57Z</time>
      </trkpt>
      <trkpt lat="46.602398" lon="12.108505">
        <ele>1435.898</ele>
        <time>2018-09-11T07:48:58Z</time>
      </trkpt>
      <trkpt lat="46.602438" lon="12.108477">
        <ele>1435.354</ele>
        <time>2018-09-11T07:48:59Z</time>
      </trkpt>
      <trkpt lat="46.602477" lon="12.108448">
        <ele>1434.437</ele>
        <time>2018-09-11T07:49:00Z</time>
      </trkpt>
      <trkpt lat="46.602514" lon="12.108409">
        <ele>1433.960</ele>
        <time>2018-09-11T07:49:01Z</time>
      </trkpt>
      <trkpt lat="46.602551" lon="12.108356">
        <ele>1433.482</ele>
        <time>2018-09-11T07:49:02Z</time>
      </trkpt>
      <trkpt lat="46.602577" lon="12.108306">
        <ele>1432.943</ele>
        <time>2018-09-11T07:49:03Z</time>
      </trkpt>
      <trkpt lat="46.602599" lon="12.108248">
        <ele>1432.517</ele>
        <time>2018-09-11T07:49:04Z</time>
      </trkpt>
      <trkpt lat="46.602616" lon="12.108191">
        <ele>1432.008</ele>
        <time>2018-09-11T07:49:05Z</time>
      </trkpt>
      <trkpt lat="46.602632" lon="12.108128">
        <ele>1431.512</ele>
        <time>2018-09-11T07:49:06Z</time>
      </trkpt>
      <trkpt lat="46.602666" lon="12.107942">
        <ele>1430.584</ele>
        <time>2018-09-11T07:49:09Z</time>
      </trkpt>
      <trkpt lat="46.602671" lon="12.107869">
        <ele>1430.133</ele>
        <time>2018-09-11T07:49:10Z</time>
      </trkpt>
      <trkpt lat="46.602713" lon="12.107321">
        <ele>1428.662</ele>
        <time>2018-09-11T07:49:21Z</time>
      </trkpt>
      <trkpt lat="46.602887" lon="12.106886">
        <ele>1429.128</ele>
        <time>2018-09-11T07:49:33Z</time>
      </trkpt>
      <trkpt lat="46.602943" lon="12.106769">
        <ele>1431.564</ele>
        <time>2018-09-11T07:49:39Z</time>
      </trkpt>
      <trkpt lat="46.602938" lon="12.106582">
        <ele>1432.527</ele>
        <time>2018-09-11T07:49:47Z</time>
      </trkpt>
      <trkpt lat="46.602987" lon="12.106413">
        <ele>1434.980</ele>
        <time>2018-09-11T07:49:54Z</time>
      </trkpt>
      <trkpt lat="46.603159" lon="12.106215">
        <ele>1439.763</ele>
        <time>2018-09-11T07:50:09Z</time>
      </trkpt>
      <trkpt lat="46.603333" lon="12.106038">
        <ele>1441.644</ele>
        <time>2018-09-11T07:50:24Z</time>
      </trkpt>
      <trkpt lat="46.603357" lon="12.106010">
        <ele>1440.618</ele>
        <time>2018-09-11T07:50:35Z</time>
      </trkpt>
      <trkpt lat="46.603332" lon="12.105951">
        <ele>1439.708</ele>
        <time>2018-09-11T07:50:56Z</time>
      </trkpt>
      <trkpt lat="46.603332" lon="12.105931">
        <ele>1445.430</ele>
        <time>2018-09-11T07:51:08Z</time>
      </trkpt>
      <trkpt lat="46.603335" lon="12.105912">
        <ele>1445.932</ele>
        <time>2018-09-11T07:51:16Z</time>
      </trkpt>
      <trkpt lat="46.603352" lon="12.105891">
        <ele>1446.471</ele>
        <time>2018-09-11T07:51:18Z</time>
      </trkpt>
      <trkpt lat="46.603482" lon="12.105800">
        <ele>1447.890</ele>
        <time>2018-09-11T07:51:29Z</time>
      </trkpt>
      <trkpt lat="46.603551" lon="12.105773">
        <ele>1448.376</ele>
        <time>2018-09-11T07:51:35Z</time>
      </trkpt>
      <trkpt lat="46.603716" lon="12.105639">
        <ele>1452.642</ele>
        <time>2018-09-11T07:51:53Z</time>
      </trkpt>
      <trkpt lat="46.603863" lon="12.105594">
        <ele>1454.135</ele>
        <time>2018-09-11T07:52:07Z</time>
      </trkpt>
      <trkpt lat="46.604002" lon="12.105532">
        <ele>1455.548</ele>
        <time>2018-09-11T07:52:23Z</time>
      </trkpt>
      <trkpt lat="46.604025" lon="12.105534">
        <ele>1456.095</ele>
        <time>2018-09-11T07:52:26Z</time>
      </trkpt>
      <trkpt lat="46.604056" lon="12.105541">
        <ele>1456.549</ele>
        <time>2018-09-11T07:52:29Z</time>
      </trkpt>
      <trkpt lat="46.604265" lon="12.105541">
        <ele>1459.923</ele>
        <time>2018-09-11T07:52:43Z</time>
      </trkpt>
      <trkpt lat="46.604382" lon="12.105533">
        <ele>1461.308</ele>
        <time>2018-09-11T07:52:55Z</time>
      </trkpt>
      <trkpt lat="46.604420" lon="12.105500">
        <ele>1462.393</ele>
        <time>2018-09-11T07:52:59Z</time>
      </trkpt>
      <trkpt lat="46.604514" lon="12.105448">
        <ele>1463.715</ele>
        <time>2018-09-11T07:53:07Z</time>
      </trkpt>
      <trkpt lat="46.604588" lon="12.105379">
        <ele>1466.624</ele>
        <time>2018-09-11T07:53:14Z</time>
      </trkpt>
      <trkpt lat="46.604639" lon="12.105312">
        <ele>1468.593</ele>
        <time>2018-09-11T07:53:19Z</time>
      </trkpt>
      <trkpt lat="46.604802" lon="12.105283">
        <ele>1473.819</ele>
        <time>2018-09-11T07:53:35Z</time>
      </trkpt>
      <trkpt lat="46.604915" lon="12.105296">
        <ele>1476.745</ele>
        <time>2018-09-11T07:53:49Z</time>
      </trkpt>
      <trkpt lat="46.605020" lon="12.105299">
        <ele>1478.618</ele>
        <time>2018-09-11T07:54:02Z</time>
      </trkpt>
      <trkpt lat="46.605069" lon="12.105253">
        <ele>1479.681</ele>
        <time>2018-09-11T07:54:06Z</time>
      </trkpt>
      <trkpt lat="46.605109" lon="12.105209">
        <ele>1481.513</ele>
        <time>2018-09-11T07:54:10Z</time>
      </trkpt>
      <trkpt lat="46.605183" lon="12.105019">
        <ele>1488.243</ele>
        <time>2018-09-11T07:54:25Z</time>
      </trkpt>
      <trkpt lat="46.605266" lon="12.104903">
        <ele>1489.207</ele>
        <time>2018-09-11T07:54:37Z</time>
      </trkpt>
      <trkpt lat="46.605353" lon="12.104793">
        <ele>1488.708</ele>
        <time>2018-09-11T07:54:49Z</time>
      </trkpt>
      <trkpt lat="46.605434" lon="12.104621">
        <ele>1488.775</ele>
        <time>2018-09-11T07:55:04Z</time>
      </trkpt>
      <trkpt lat="46.605500" lon="12.104477">
        <ele>1489.747</ele>
        <time>2018-09-11T07:55:16Z</time>
      </trkpt>
      <trkpt lat="46.605477" lon="12.104445">
        <ele>1490.666</ele>
        <time>2018-09-11T07:55:27Z</time>
      </trkpt>
      <trkpt lat="46.605464" lon="12.104439">
        <ele>1499.385</ele>
        <time>2018-09-11T08:00:26Z</time>
      </trkpt>
      <trkpt lat="46.605475" lon="12.104402">
        <ele>1500.251</ele>
        <time>2018-09-11T08:00:47Z</time>
      </trkpt>
      <trkpt lat="46.605490" lon="12.104355">
        <ele>1505.597</ele>
        <time>2018-09-11T08:02:49Z</time>
      </trkpt>
      <trkpt lat="46.605545" lon="12.104312">
        <ele>1505.060</ele>
        <time>2018-09-11T08:02:55Z</time>
      </trkpt>
      <trkpt lat="46.605567" lon="12.104310">
        <ele>1505.013</ele>
        <time>2018-09-11T08:02:57Z</time>
      </trkpt>
      <trkpt lat="46.605704" lon="12.104134">
        <ele>1503.136</ele>
        <time>2018-09-11T08:03:13Z</time>
      </trkpt>
      <trkpt lat="46.605722" lon="12.104079">
        <ele>1502.217</ele>
        <time>2018-09-11T08:03:16Z</time>
      </trkpt>
      <trkpt lat="46.605751" lon="12.103972">
        <ele>1501.718</ele>
        <time>2018-09-11T08:03:24Z</time>
      </trkpt>
      <trkpt lat="46.605791" lon="12.103696">
        <ele>1504.608</ele>
        <time>2018-09-11T08:03:41Z</time>
      </trkpt>
      <trkpt lat="46.605789" lon="12.103678">
        <ele>1504.687</ele>
        <time>2018-09-11T08:03:42Z</time>
      </trkpt>
      <trkpt lat="46.605837" lon="12.103462">
        <ele>1506.589</ele>
        <time>2018-09-11T08:03:58Z</time>
      </trkpt>
      <trkpt lat="46.605867" lon="12.103292">
        <ele>1507.938</ele>
        <time>2018-09-11T08:04:13Z</time>
      </trkpt>
      <trkpt lat="46.605867" lon="12.103200">
        <ele>1511.357</ele>
        <time>2018-09-11T08:04:29Z</time>
      </trkpt>
      <trkpt lat="46.605891" lon="12.103149">
        <ele>1510.823</ele>
        <time>2018-09-11T08:04:54Z</time>
      </trkpt>
      <trkpt lat="46.605903" lon="12.103096">
        <ele>1511.389</ele>
        <time>2018-09-11T08:04:58Z</time>
      </trkpt>
      <trkpt lat="46.605928" lon="12.102997">
        <ele>1512.252</ele>
        <time>2018-09-11T08:05:06Z</time>
      </trkpt>
      <trkpt lat="46.605931" lon="12.102928">
        <ele>1513.215</ele>
        <time>2018-09-11T08:05:10Z</time>
      </trkpt>
      <trkpt lat="46.605972" lon="12.102737">
        <ele>1514.224</ele>
        <time>2018-09-11T08:05:24Z</time>
      </trkpt>
      <trkpt lat="46.605980" lon="12.102667">
        <ele>1515.104</ele>
        <time>2018-09-11T08:05:29Z</time>
      </trkpt>
      <trkpt lat="46.606047" lon="12.102396">
        <ele>1519.514</ele>
        <time>2018-09-11T08:05:48Z</time>
      </trkpt>
      <trkpt lat="46.606115" lon="12.102130">
        <ele>1522.808</ele>
        <time>2018-09-11T08:06:02Z</time>
      </trkpt>
      <trkpt lat="46.606123" lon="12.102066">
        <ele>1523.386</ele>
        <time>2018-09-11T08:06:05Z</time>
      </trkpt>
      <trkpt lat="46.606146" lon="12.101935">
        <ele>1524.388</ele>
        <time>2018-09-11T08:06:11Z</time>
      </trkpt>
      <trkpt lat="46.606175" lon="12.101793">
        <ele>1524.787</ele>
        <time>2018-09-11T08:06:18Z</time>
      </trkpt>
      <trkpt lat="46.606330" lon="12.101539">
        <ele>1528.156</ele>
        <time>2018-09-11T08:06:35Z</time>
      </trkpt>
      <trkpt lat="46.606498" lon="12.101355">
        <ele>1526.292</ele>
        <time>2018-09-11T08:06:48Z</time>
      </trkpt>
      <trkpt lat="46.606637" lon="12.101167">
        <ele>1529.518</ele>
        <time>2018-09-11T08:07:01Z</time>
      </trkpt>
      <trkpt lat="46.606758" lon="12.101016">
        <ele>1532.481</ele>
        <time>2018-09-11T08:07:13Z</time>
      </trkpt>
      <trkpt lat="46.606785" lon="12.100956">
        <ele>1532.914</ele>
        <time>2018-09-11T08:07:17Z</time>
      </trkpt>
      <trkpt lat="46.606925" lon="12.100676">
        <ele>1538.274</ele>
        <time>2018-09-11T08:07:36Z</time>
      </trkpt>
      <trkpt lat="46.607104" lon="12.100640">
        <ele>1539.656</ele>
        <time>2018-09-11T08:07:52Z</time>
      </trkpt>
      <trkpt lat="46.607215" lon="12.100626">
        <ele>1540.621</ele>
        <time>2018-09-11T08:08:01Z</time>
      </trkpt>
      <trkpt lat="46.607426" lon="12.100574">
        <ele>1544.908</ele>
        <time>2018-09-11T08:08:19Z</time>
      </trkpt>
      <trkpt lat="46.607620" lon="12.100500">
        <ele>1550.211</ele>
        <time>2018-09-11T08:08:34Z</time>
      </trkpt>
      <trkpt lat="46.607820" lon="12.100452">
        <ele>1555.033</ele>
        <time>2018-09-11T08:08:48Z</time>
      </trkpt>
      <trkpt lat="46.607966" lon="12.100334">
        <ele>1559.462</ele>
        <time>2018-09-11T08:08:59Z</time>
      </trkpt>
      <trkpt lat="46.608014" lon="12.100252">
        <ele>1559.421</ele>
        <time>2018-09-11T08:09:03Z</time>
      </trkpt>
      <trkpt lat="46.608319" lon="12.099944">
        <ele>1556.577</ele>
        <time>2018-09-11T08:09:18Z</time>
      </trkpt>
      <trkpt lat="46.608417" lon="12.099860">
        <ele>1556.043</ele>
        <time>2018-09-11T08:09:23Z</time>
      </trkpt>
      <trkpt lat="46.608430" lon="12.099827">
        <ele>1556.556</ele>
        <time>2018-09-11T08:09:24Z</time>
      </trkpt>
      <trkpt lat="46.608654" lon="12.099204">
        <ele>1555.519</ele>
        <time>2018-09-11T08:09:39Z</time>
      </trkpt>
      <trkpt lat="46.608952" lon="12.098639">
        <ele>1554.175</ele>
        <time>2018-09-11T08:09:52Z</time>
      </trkpt>
      <trkpt lat="46.609140" lon="12.098541">
        <ele>1553.628</ele>
        <time>2018-09-11T08:09:57Z</time>
      </trkpt>
      <trkpt lat="46.609558" lon="12.098486">
        <ele>1555.520</ele>
        <time>2018-09-11T08:10:06Z</time>
      </trkpt>
      <trkpt lat="46.609601" lon="12.098471">
        <ele>1555.508</ele>
        <time>2018-09-11T08:10:07Z</time>
      </trkpt>
      <trkpt lat="46.610286" lon="12.098259">
        <ele>1556.081</ele>
        <time>2018-09-11T08:10:20Z</time>
      </trkpt>
      <trkpt lat="46.610805" lon="12.098272">
        <ele>1554.563</ele>
        <time>2018-09-11T08:10:28Z</time>
      </trkpt>
      <trkpt lat="46.610866" lon="12.098270">
        <ele>1555.012</ele>
        <time>2018-09-11T08:10:29Z</time>
      </trkpt>
      <trkpt lat="46.611280" lon="12.098205">
        <ele>1555.571</ele>
        <time>2018-09-11T08:10:39Z</time>
      </trkpt>
      <trkpt lat="46.611693" lon="12.098126">
        <ele>1557.957</ele>
        <time>2018-09-11T08:10:53Z</time>
      </trkpt>
      <trkpt lat="46.612008" lon="12.097978">
        <ele>1560.313</ele>
        <time>2018-09-11T08:11:08Z</time>
      </trkpt>
      <trkpt lat="46.612353" lon="12.097821">
        <ele>1557.926</ele>
        <time>2018-09-11T08:11:23Z</time>
      </trkpt>
      <trkpt lat="46.612616" lon="12.097602">
        <ele>1557.419</ele>
        <time>2018-09-11T08:11:34Z</time>
      </trkpt>
      <trkpt lat="46.612970" lon="12.097216">
        <ele>1556.931</ele>
        <time>2018-09-11T08:11:50Z</time>
      </trkpt>
      <trkpt lat="46.613338" lon="12.097155">
        <ele>1556.061</ele>
        <time>2018-09-11T08:12:01Z</time>
      </trkpt>
      <trkpt lat="46.613387" lon="12.097149">
        <ele>1556.007</ele>
        <time>2018-09-11T08:12:02Z</time>
      </trkpt>
      <trkpt lat="46.613437" lon="12.097151">
        <ele>1556.008</ele>
        <time>2018-09-11T08:12:03Z</time>
      </trkpt>
      <trkpt lat="46.613489" lon="12.097159">
        <ele>1556.087</ele>
        <time>2018-09-11T08:12:04Z</time>
      </trkpt>
      <trkpt lat="46.613969" lon="12.097254">
        <ele>1555.059</ele>
        <time>2018-09-11T08:12:12Z</time>
      </trkpt>
      <trkpt lat="46.614027" lon="12.097256">
        <ele>1554.538</ele>
        <time>2018-09-11T08:12:13Z</time>
      </trkpt>
      <trkpt lat="46.614416" lon="12.097309">
        <ele>1554.537</ele>
        <time>2018-09-11T08:12:20Z</time>
      </trkpt>
      <trkpt lat="46.614466" lon="12.097330">
        <ele>1554.583</ele>
        <time>2018-09-11T08:12:21Z</time>
      </trkpt>
      <trkpt lat="46.614603" lon="12.097418">
        <ele>1555.079</ele>
        <time>2018-09-11T08:12:24Z</time>
      </trkpt>
      <trkpt lat="46.614684" lon="12.097502">
        <ele>1555.032</ele>
        <time>2018-09-11T08:12:26Z</time>
      </trkpt>
      <trkpt lat="46.614793" lon="12.097621">
        <ele>1554.545</ele>
        <time>2018-09-11T08:12:29Z</time>
      </trkpt>
      <trkpt lat="46.614831" lon="12.097654">
        <ele>1554.525</ele>
        <time>2018-09-11T08:12:30Z</time>
      </trkpt>
      <trkpt lat="46.614869" lon="12.097682">
        <ele>1554.526</ele>
        <time>2018-09-11T08:12:31Z</time>
      </trkpt>
      <trkpt lat="46.615233" lon="12.097788">
        <ele>1553.108</ele>
        <time>2018-09-11T08:12:41Z</time>
      </trkpt>
      <trkpt lat="46.615544" lon="12.097988">
        <ele>1554.108</ele>
        <time>2018-09-11T08:12:52Z</time>
      </trkpt>
      <trkpt lat="46.615673" lon="12.098058">
        <ele>1556.036</ele>
        <time>2018-09-11T08:12:59Z</time>
      </trkpt>
      <trkpt lat="46.615693" lon="12.098064">
        <ele>1556.578</ele>
        <time>2018-09-11T08:13:00Z</time>
      </trkpt>
      <trkpt lat="46.615932" lon="12.098165">
        <ele>1562.257</ele>
        <time>2018-09-11T08:13:16Z</time>
      </trkpt>
      <trkpt lat="46.616185" lon="12.098323">
        <ele>1565.116</ele>
        <time>2018-09-11T08:13:32Z</time>
      </trkpt>
      <trkpt lat="46.616402" lon="12.098399">
        <ele>1568.082</ele>
        <time>2018-09-11T08:13:46Z</time>
      </trkpt>
      <trkpt lat="46.616620" lon="12.098436">
        <ele>1573.338</ele>
        <time>2018-09-11T08:14:01Z</time>
      </trkpt>
      <trkpt lat="46.616662" lon="12.098440">
        <ele>1573.391</ele>
        <time>2018-09-11T08:14:05Z</time>
      </trkpt>
      <trkpt lat="46.616674" lon="12.098446">
        <ele>1573.364</ele>
        <time>2018-09-11T08:14:06Z</time>
      </trkpt>
      <trkpt lat="46.616686" lon="12.098449">
        <ele>1573.379</ele>
        <time>2018-09-11T08:14:07Z</time>
      </trkpt>
      <trkpt lat="46.616749" lon="12.098465">
        <ele>1573.305</ele>
        <time>2018-09-11T08:14:14Z</time>
      </trkpt>
      <trkpt lat="46.616958" lon="12.098442">
        <ele>1579.125</ele>
        <time>2018-09-11T08:14:31Z</time>
      </trkpt>
      <trkpt lat="46.617114" lon="12.098407">
        <ele>1584.808</ele>
        <time>2018-09-11T08:14:46Z</time>
      </trkpt>
      <trkpt lat="46.617229" lon="12.098404">
        <ele>1586.331</ele>
        <time>2018-09-11T08:14:56Z</time>
      </trkpt>
      <trkpt lat="46.617253" lon="12.098421">
        <ele>1585.323</ele>
        <time>2018-09-11T08:14:58Z</time>
      </trkpt>
      <trkpt lat="46.617264" lon="12.098438">
        <ele>1585.392</ele>
        <time>2018-09-11T08:14:59Z</time>
      </trkpt>
      <trkpt lat="46.617278" lon="12.098455">
        <ele>1585.321</ele>
        <time>2018-09-11T08:15:00Z</time>
      </trkpt>
      <trkpt lat="46.617288" lon="12.098464">
        <ele>1585.357</ele>
        <time>2018-09-11T08:15:01Z</time>
      </trkpt>
      <trkpt lat="46.617303" lon="12.098472">
        <ele>1585.313</ele>
        <time>2018-09-11T08:15:02Z</time>
      </trkpt>
      <trkpt lat="46.617369" lon="12.098545">
        <ele>1585.386</ele>
        <time>2018-09-11T08:15:08Z</time>
      </trkpt>
      <trkpt lat="46.617371" lon="12.098558">
        <ele>1585.819</ele>
        <time>2018-09-11T08:15:09Z</time>
      </trkpt>
      <trkpt lat="46.617376" lon="12.098572">
        <ele>1585.876</ele>
        <time>2018-09-11T08:15:10Z</time>
      </trkpt>
      <trkpt lat="46.617381" lon="12.098586">
        <ele>1586.390</ele>
        <time>2018-09-11T08:15:11Z</time>
      </trkpt>
      <trkpt lat="46.617386" lon="12.098601">
        <ele>1586.319</ele>
        <time>2018-09-11T08:15:12Z</time>
      </trkpt>
      <trkpt lat="46.617393" lon="12.098616">
        <ele>1586.708</ele>
        <time>2018-09-11T08:15:13Z</time>
      </trkpt>
      <trkpt lat="46.617401" lon="12.098631">
        <ele>1586.741</ele>
        <time>2018-09-11T08:15:14Z</time>
      </trkpt>
      <trkpt lat="46.617444" lon="12.098694">
        <ele>1587.743</ele>
        <time>2018-09-11T08:15:19Z</time>
      </trkpt>
      <trkpt lat="46.617453" lon="12.098704">
        <ele>1587.752</ele>
        <time>2018-09-11T08:15:20Z</time>
      </trkpt>
      <trkpt lat="46.617462" lon="12.098716">
        <ele>1588.231</ele>
        <time>2018-09-11T08:15:21Z</time>
      </trkpt>
      <trkpt lat="46.617471" lon="12.098726">
        <ele>1588.737</ele>
        <time>2018-09-11T08:15:22Z</time>
      </trkpt>
      <trkpt lat="46.617478" lon="12.098739">
        <ele>1588.773</ele>
        <time>2018-09-11T08:15:23Z</time>
      </trkpt>
      <trkpt lat="46.617486" lon="12.098752">
        <ele>1589.256</ele>
        <time>2018-09-11T08:15:24Z</time>
      </trkpt>
      <trkpt lat="46.617491" lon="12.098765">
        <ele>1589.269</ele>
        <time>2018-09-11T08:15:25Z</time>
      </trkpt>
      <trkpt lat="46.617499" lon="12.098775">
        <ele>1589.657</ele>
        <time>2018-09-11T08:15:26Z</time>
      </trkpt>
      <trkpt lat="46.617506" lon="12.098789">
        <ele>1590.100</ele>
        <time>2018-09-11T08:15:27Z</time>
      </trkpt>
      <trkpt lat="46.617595" lon="12.099055">
        <ele>1593.020</ele>
        <time>2018-09-11T08:15:44Z</time>
      </trkpt>
      <trkpt lat="46.617617" lon="12.099107">
        <ele>1595.408</ele>
        <time>2018-09-11T08:15:48Z</time>
      </trkpt>
      <trkpt lat="46.617718" lon="12.099218">
        <ele>1597.819</ele>
        <time>2018-09-11T08:15:58Z</time>
      </trkpt>
      <trkpt lat="46.617734" lon="12.099230">
        <ele>1597.851</ele>
        <time>2018-09-11T08:15:59Z</time>
      </trkpt>
      <trkpt lat="46.618007" lon="12.099470">
        <ele>1598.380</ele>
        <time>2018-09-11T08:16:11Z</time>
      </trkpt>
      <trkpt lat="46.618293" lon="12.099644">
        <ele>1596.439</ele>
        <time>2018-09-11T08:16:25Z</time>
      </trkpt>
      <trkpt lat="46.618580" lon="12.099807">
        <ele>1599.255</ele>
        <time>2018-09-11T08:16:40Z</time>
      </trkpt>
      <trkpt lat="46.618755" lon="12.099934">
        <ele>1604.511</ele>
        <time>2018-09-11T08:16:54Z</time>
      </trkpt>
      <trkpt lat="46.618939" lon="12.100055">
        <ele>1608.464</ele>
        <time>2018-09-11T08:17:09Z</time>
      </trkpt>
      <trkpt lat="46.619115" lon="12.100201">
        <ele>1611.797</ele>
        <time>2018-09-11T08:17:25Z</time>
      </trkpt>
      <trkpt lat="46.619249" lon="12.100354">
        <ele>1614.179</ele>
        <time>2018-09-11T08:17:38Z</time>
      </trkpt>
      <trkpt lat="46.619265" lon="12.100358">
        <ele>1614.605</ele>
        <time>2018-09-11T08:17:39Z</time>
      </trkpt>
      <trkpt lat="46.619557" lon="12.100527">
        <ele>1618.025</ele>
        <time>2018-09-11T08:17:54Z</time>
      </trkpt>
      <trkpt lat="46.619744" lon="12.100652">
        <ele>1622.308</ele>
        <time>2018-09-11T08:18:09Z</time>
      </trkpt>
      <trkpt lat="46.619944" lon="12.100819">
        <ele>1621.481</ele>
        <time>2018-09-11T08:18:25Z</time>
      </trkpt>
      <trkpt lat="46.620119" lon="12.100941">
        <ele>1621.413</ele>
        <time>2018-09-11T08:18:40Z</time>
      </trkpt>
      <trkpt lat="46.620268" lon="12.101036">
        <ele>1619.982</ele>
        <time>2018-09-11T08:18:54Z</time>
      </trkpt>
      <trkpt lat="46.620363" lon="12.101110">
        <ele>1619.961</ele>
        <time>2018-09-11T08:19:03Z</time>
      </trkpt>
      <trkpt lat="46.620402" lon="12.101123">
        <ele>1620.417</ele>
        <time>2018-09-11T08:19:07Z</time>
      </trkpt>
      <trkpt lat="46.620414" lon="12.101121">
        <ele>1620.493</ele>
        <time>2018-09-11T08:19:08Z</time>
      </trkpt>
      <trkpt lat="46.620425" lon="12.101116">
        <ele>1620.426</ele>
        <time>2018-09-11T08:19:09Z</time>
      </trkpt>
      <trkpt lat="46.620435" lon="12.101116">
        <ele>1620.459</ele>
        <time>2018-09-11T08:19:10Z</time>
      </trkpt>
      <trkpt lat="46.620447" lon="12.101122">
        <ele>1620.469</ele>
        <time>2018-09-11T08:19:11Z</time>
      </trkpt>
      <trkpt lat="46.620508" lon="12.101125">
        <ele>1620.904</ele>
        <time>2018-09-11T08:19:17Z</time>
      </trkpt>
      <trkpt lat="46.620522" lon="12.101118">
        <ele>1620.924</ele>
        <time>2018-09-11T08:19:18Z</time>
      </trkpt>
      <trkpt lat="46.620534" lon="12.101117">
        <ele>1621.408</ele>
        <time>2018-09-11T08:19:19Z</time>
      </trkpt>
      <trkpt lat="46.620546" lon="12.101119">
        <ele>1621.430</ele>
        <time>2018-09-11T08:19:20Z</time>
      </trkpt>
      <trkpt lat="46.620558" lon="12.101122">
        <ele>1621.872</ele>
        <time>2018-09-11T08:19:21Z</time>
      </trkpt>
      <trkpt lat="46.620620" lon="12.101142">
        <ele>1623.371</ele>
        <time>2018-09-11T08:19:27Z</time>
      </trkpt>
      <trkpt lat="46.620631" lon="12.101141">
        <ele>1623.840</ele>
        <time>2018-09-11T08:19:28Z</time>
      </trkpt>
      <trkpt lat="46.620642" lon="12.101139">
        <ele>1624.246</ele>
        <time>2018-09-11T08:19:29Z</time>
      </trkpt>
      <trkpt lat="46.620776" lon="12.101136">
        <ele>1627.162</ele>
        <time>2018-09-11T08:19:41Z</time>
      </trkpt>
      <trkpt lat="46.620789" lon="12.101140">
        <ele>1627.115</ele>
        <time>2018-09-11T08:19:42Z</time>
      </trkpt>
      <trkpt lat="46.620803" lon="12.101139">
        <ele>1627.638</ele>
        <time>2018-09-11T08:19:43Z</time>
      </trkpt>
      <trkpt lat="46.620813" lon="12.101138">
        <ele>1627.649</ele>
        <time>2018-09-11T08:19:44Z</time>
      </trkpt>
      <trkpt lat="46.620826" lon="12.101140">
        <ele>1628.102</ele>
        <time>2018-09-11T08:19:45Z</time>
      </trkpt>
      <trkpt lat="46.620837" lon="12.101139">
        <ele>1628.122</ele>
        <time>2018-09-11T08:19:46Z</time>
      </trkpt>
      <trkpt lat="46.621013" lon="12.101105">
        <ele>1631.008</ele>
        <time>2018-09-11T08:20:01Z</time>
      </trkpt>
      <trkpt lat="46.621191" lon="12.101048">
        <ele>1633.468</ele>
        <time>2018-09-11T08:20:15Z</time>
      </trkpt>
      <trkpt lat="46.621396" lon="12.101021">
        <ele>1639.190</ele>
        <time>2018-09-11T08:20:32Z</time>
      </trkpt>
      <trkpt lat="46.621423" lon="12.101020">
        <ele>1640.129</ele>
        <time>2018-09-11T08:20:34Z</time>
      </trkpt>
      <trkpt lat="46.621510" lon="12.101025">
        <ele>1643.088</ele>
        <time>2018-09-11T08:20:41Z</time>
      </trkpt>
      <trkpt lat="46.621520" lon="12.101019">
        <ele>1643.034</ele>
        <time>2018-09-11T08:20:42Z</time>
      </trkpt>
      <trkpt lat="46.621710" lon="12.100952">
        <ele>1647.360</ele>
        <time>2018-09-11T08:20:57Z</time>
      </trkpt>
      <trkpt lat="46.621808" lon="12.100928">
        <ele>1647.853</ele>
        <time>2018-09-11T08:21:05Z</time>
      </trkpt>
      <trkpt lat="46.621904" lon="12.100944">
        <ele>1647.826</ele>
        <time>2018-09-11T08:21:14Z</time>
      </trkpt>
      <trkpt lat="46.622060" lon="12.100983">
        <ele>1651.278</ele>
        <time>2018-09-11T08:21:29Z</time>
      </trkpt>
      <trkpt lat="46.622245" lon="12.101041">
        <ele>1654.033</ele>
        <time>2018-09-11T08:21:47Z</time>
      </trkpt>
      <trkpt lat="46.622388" lon="12.101080">
        <ele>1655.526</ele>
        <time>2018-09-11T08:22:01Z</time>
      </trkpt>
      <trkpt lat="46.622416" lon="12.101070">
        <ele>1656.408</ele>
        <time>2018-09-11T08:22:04Z</time>
      </trkpt>
      <trkpt lat="46.622425" lon="12.101061">
        <ele>1656.911</ele>
        <time>2018-09-11T08:22:05Z</time>
      </trkpt>
      <trkpt lat="46.622567" lon="12.101017">
        <ele>1654.573</ele>
        <time>2018-09-11T08:22:21Z</time>
      </trkpt>
      <trkpt lat="46.622678" lon="12.100890">
        <ele>1655.552</ele>
        <time>2018-09-11T08:22:35Z</time>
      </trkpt>
      <trkpt lat="46.622751" lon="12.100830">
        <ele>1658.841</ele>
        <time>2018-09-11T08:22:44Z</time>
      </trkpt>
      <trkpt lat="46.622882" lon="12.100878">
        <ele>1659.827</ele>
        <time>2018-09-11T08:22:59Z</time>
      </trkpt>
      <trkpt lat="46.623036" lon="12.100925">
        <ele>1663.283</ele>
        <time>2018-09-11T08:23:14Z</time>
      </trkpt>
      <trkpt lat="46.623084" lon="12.100913">
        <ele>1664.666</ele>
        <time>2018-09-11T08:23:19Z</time>
      </trkpt>
      <trkpt lat="46.623228" lon="12.100864">
        <ele>1666.179</ele>
        <time>2018-09-11T08:23:34Z</time>
      </trkpt>
      <trkpt lat="46.623259" lon="12.100852">
        <ele>1666.574</ele>
        <time>2018-09-11T08:23:38Z</time>
      </trkpt>
      <trkpt lat="46.623297" lon="12.100827">
        <ele>1667.056</ele>
        <time>2018-09-11T08:23:42Z</time>
      </trkpt>
      <trkpt lat="46.623359" lon="12.100819">
        <ele>1668.021</ele>
        <time>2018-09-11T08:23:48Z</time>
      </trkpt>
      <trkpt lat="46.623491" lon="12.100769">
        <ele>1669.408</ele>
        <time>2018-09-11T08:24:02Z</time>
      </trkpt>
      <trkpt lat="46.623497" lon="12.100745">
        <ele>1669.431</ele>
        <time>2018-09-11T08:24:04Z</time>
      </trkpt>
      <trkpt lat="46.623502" lon="12.100685">
        <ele>1670.913</ele>
        <time>2018-09-11T08:24:08Z</time>
      </trkpt>
      <trkpt lat="46.623506" lon="12.100671">
        <ele>1670.972</ele>
        <time>2018-09-11T08:24:09Z</time>
      </trkpt>
      <trkpt lat="46.623500" lon="12.100605">
        <ele>1670.951</ele>
        <time>2018-09-11T08:24:13Z</time>
      </trkpt>
      <trkpt lat="46.623496" lon="12.100589">
        <ele>1670.937</ele>
        <time>2018-09-11T08:24:14Z</time>
      </trkpt>
      <trkpt lat="46.623464" lon="12.100522">
        <ele>1671.863</ele>
        <time>2018-09-11T08:24:19Z</time>
      </trkpt>
      <trkpt lat="46.623444" lon="12.100515">
        <ele>1672.866</ele>
        <time>2018-09-11T08:24:21Z</time>
      </trkpt>
      <trkpt lat="46.623431" lon="12.100509">
        <ele>1673.379</ele>
        <time>2018-09-11T08:24:22Z</time>
      </trkpt>
      <trkpt lat="46.623370" lon="12.100371">
        <ele>1675.238</ele>
        <time>2018-09-11T08:24:32Z</time>
      </trkpt>
      <trkpt lat="46.623379" lon="12.100349">
        <ele>1675.270</ele>
        <time>2018-09-11T08:24:33Z</time>
      </trkpt>
      <trkpt lat="46.623397" lon="12.100315">
        <ele>1675.217</ele>
        <time>2018-09-11T08:24:35Z</time>
      </trkpt>
      <trkpt lat="46.623408" lon="12.100305">
        <ele>1675.208</ele>
        <time>2018-09-11T08:24:36Z</time>
      </trkpt>
      <trkpt lat="46.623574" lon="12.100363">
        <ele>1676.617</ele>
        <time>2018-09-11T08:24:51Z</time>
      </trkpt>
      <trkpt lat="46.623606" lon="12.100369">
        <ele>1677.189</ele>
        <time>2018-09-11T08:24:54Z</time>
      </trkpt>
      <trkpt lat="46.623657" lon="12.100378">
        <ele>1678.128</ele>
        <time>2018-09-11T08:24:59Z</time>
      </trkpt>
      <trkpt lat="46.623668" lon="12.100384">
        <ele>1678.117</ele>
        <time>2018-09-11T08:25:00Z</time>
      </trkpt>
      <trkpt lat="46.623678" lon="12.100391">
        <ele>1678.163</ele>
        <time>2018-09-11T08:25:01Z</time>
      </trkpt>
      <trkpt lat="46.623688" lon="12.100394">
        <ele>1678.149</ele>
        <time>2018-09-11T08:25:02Z</time>
      </trkpt>
      <trkpt lat="46.623733" lon="12.100413">
        <ele>1678.652</ele>
        <time>2018-09-11T08:25:06Z</time>
      </trkpt>
      <trkpt lat="46.623746" lon="12.100411">
        <ele>1678.685</ele>
        <time>2018-09-11T08:25:07Z</time>
      </trkpt>
      <trkpt lat="46.623855" lon="12.100443">
        <ele>1681.057</ele>
        <time>2018-09-11T08:25:18Z</time>
      </trkpt>
      <trkpt lat="46.623898" lon="12.100599">
        <ele>1682.400</ele>
        <time>2018-09-11T08:25:29Z</time>
      </trkpt>
      <trkpt lat="46.623910" lon="12.100647">
        <ele>1682.920</ele>
        <time>2018-09-11T08:25:32Z</time>
      </trkpt>
      <trkpt lat="46.623917" lon="12.100661">
        <ele>1682.908</ele>
        <time>2018-09-11T08:25:33Z</time>
      </trkpt>
      <trkpt lat="46.623923" lon="12.100675">
        <ele>1683.479</ele>
        <time>2018-09-11T08:25:34Z</time>
      </trkpt>
      <trkpt lat="46.623929" lon="12.100691">
        <ele>1683.471</ele>
        <time>2018-09-11T08:25:35Z</time>
      </trkpt>
      <trkpt lat="46.623939" lon="12.100720">
        <ele>1683.470</ele>
        <time>2018-09-11T08:25:37Z</time>
      </trkpt>
      <trkpt lat="46.623949" lon="12.100728">
        <ele>1683.459</ele>
        <time>2018-09-11T08:25:38Z</time>
      </trkpt>
      <trkpt lat="46.623958" lon="12.100734">
        <ele>1683.435</ele>
        <time>2018-09-11T08:25:39Z</time>
      </trkpt>
      <trkpt lat="46.623970" lon="12.100738">
        <ele>1683.841</ele>
        <time>2018-09-11T08:25:40Z</time>
      </trkpt>
      <trkpt lat="46.623985" lon="12.100738">
        <ele>1683.814</ele>
        <time>2018-09-11T08:25:41Z</time>
      </trkpt>
      <trkpt lat="46.624000" lon="12.100732">
        <ele>1683.817</ele>
        <time>2018-09-11T08:25:42Z</time>
      </trkpt>
      <trkpt lat="46.624012" lon="12.100723">
        <ele>1683.895</ele>
        <time>2018-09-11T08:25:43Z</time>
      </trkpt>
      <trkpt lat="46.624023" lon="12.100710">
        <ele>1683.849</ele>
        <time>2018-09-11T08:25:44Z</time>
      </trkpt>
      <trkpt lat="46.624033" lon="12.100695">
        <ele>1683.823</ele>
        <time>2018-09-11T08:25:45Z</time>
      </trkpt>
      <trkpt lat="46.624039" lon="12.100677">
        <ele>1683.808</ele>
        <time>2018-09-11T08:25:46Z</time>
      </trkpt>
      <trkpt lat="46.624041" lon="12.100632">
        <ele>1683.853</ele>
        <time>2018-09-11T08:25:48Z</time>
      </trkpt>
      <trkpt lat="46.624038" lon="12.100608">
        <ele>1683.855</ele>
        <time>2018-09-11T08:25:49Z</time>
      </trkpt>
      <trkpt lat="46.624034" lon="12.100584">
        <ele>1683.894</ele>
        <time>2018-09-11T08:25:50Z</time>
      </trkpt>
      <trkpt lat="46.624029" lon="12.100565">
        <ele>1683.853</ele>
        <time>2018-09-11T08:25:51Z</time>
      </trkpt>
      <trkpt lat="46.624022" lon="12.100547">
        <ele>1683.869</ele>
        <time>2018-09-11T08:25:52Z</time>
      </trkpt>
      <trkpt lat="46.623995" lon="12.100323">
        <ele>1684.875</ele>
        <time>2018-09-11T08:26:03Z</time>
      </trkpt>
      <trkpt lat="46.624002" lon="12.100308">
        <ele>1684.858</ele>
        <time>2018-09-11T08:26:04Z</time>
      </trkpt>
      <trkpt lat="46.624008" lon="12.100293">
        <ele>1684.851</ele>
        <time>2018-09-11T08:26:05Z</time>
      </trkpt>
      <trkpt lat="46.624020" lon="12.100281">
        <ele>1684.824</ele>
        <time>2018-09-11T08:26:06Z</time>
      </trkpt>
      <trkpt lat="46.624034" lon="12.100268">
        <ele>1684.304</ele>
        <time>2018-09-11T08:26:07Z</time>
      </trkpt>
      <trkpt lat="46.624285" lon="12.100036">
        <ele>1683.414</ele>
        <time>2018-09-11T08:26:25Z</time>
      </trkpt>
      <trkpt lat="46.624467" lon="12.099852">
        <ele>1685.808</ele>
        <time>2018-09-11T08:26:39Z</time>
      </trkpt>
      <trkpt lat="46.624710" lon="12.099667">
        <ele>1684.336</ele>
        <time>2018-09-11T08:26:53Z</time>
      </trkpt>
      <trkpt lat="46.624842" lon="12.099677">
        <ele>1684.888</ele>
        <time>2018-09-11T08:27:06Z</time>
      </trkpt>
      <trkpt lat="46.624842" lon="12.099710">
        <ele>1682.977</ele>
        <time>2018-09-11T08:27:34Z</time>
      </trkpt>
      <trkpt lat="46.624860" lon="12.099652">
        <ele>1681.916</ele>
        <time>2018-09-11T08:27:53Z</time>
      </trkpt>
      <trkpt lat="46.624864" lon="12.099640">
        <ele>1681.942</ele>
        <time>2018-09-11T08:27:54Z</time>
      </trkpt>
      <trkpt lat="46.624878" lon="12.099550">
        <ele>1681.978</ele>
        <time>2018-09-11T08:27:58Z</time>
      </trkpt>
      <trkpt lat="46.624894" lon="12.099523">
        <ele>1682.461</ele>
        <time>2018-09-11T08:27:59Z</time>
      </trkpt>
      <trkpt lat="46.624910" lon="12.099503">
        <ele>1682.464</ele>
        <time>2018-09-11T08:28:00Z</time>
      </trkpt>
      <trkpt lat="46.624928" lon="12.099488">
        <ele>1682.419</ele>
        <time>2018-09-11T08:28:01Z</time>
      </trkpt>
      <trkpt lat="46.624946" lon="12.099473">
        <ele>1682.409</ele>
        <time>2018-09-11T08:28:02Z</time>
      </trkpt>
      <trkpt lat="46.625207" lon="12.099190">
        <ele>1683.819</ele>
        <time>2018-09-11T08:28:19Z</time>
      </trkpt>
      <trkpt lat="46.625399" lon="12.098803">
        <ele>1684.808</ele>
        <time>2018-09-11T08:28:37Z</time>
      </trkpt>
      <trkpt lat="46.625589" lon="12.098583">
        <ele>1686.245</ele>
        <time>2018-09-11T08:28:51Z</time>
      </trkpt>
      <trkpt lat="46.625604" lon="12.098580">
        <ele>1686.767</ele>
        <time>2018-09-11T08:28:52Z</time>
      </trkpt>
      <trkpt lat="46.625618" lon="12.098572">
        <ele>1686.746</ele>
        <time>2018-09-11T08:28:53Z</time>
      </trkpt>
      <trkpt lat="46.625632" lon="12.098560">
        <ele>1687.275</ele>
        <time>2018-09-11T08:28:54Z</time>
      </trkpt>
      <trkpt lat="46.625645" lon="12.098547">
        <ele>1687.781</ele>
        <time>2018-09-11T08:28:55Z</time>
      </trkpt>
      <trkpt lat="46.625659" lon="12.098536">
        <ele>1687.737</ele>
        <time>2018-09-11T08:28:56Z</time>
      </trkpt>
      <trkpt lat="46.625674" lon="12.098526">
        <ele>1687.730</ele>
        <time>2018-09-11T08:28:57Z</time>
      </trkpt>
      <trkpt lat="46.625688" lon="12.098519">
        <ele>1688.263</ele>
        <time>2018-09-11T08:28:58Z</time>
      </trkpt>
      <trkpt lat="46.625701" lon="12.098514">
        <ele>1688.227</ele>
        <time>2018-09-11T08:28:59Z</time>
      </trkpt>
      <trkpt lat="46.625778" lon="12.098488">
        <ele>1690.168</ele>
        <time>2018-09-11T08:29:05Z</time>
      </trkpt>
      <trkpt lat="46.625788" lon="12.098494">
        <ele>1690.114</ele>
        <time>2018-09-11T08:29:06Z</time>
      </trkpt>
      <trkpt lat="46.625789" lon="12.098513">
        <ele>1690.608</ele>
        <time>2018-09-11T08:29:07Z</time>
      </trkpt>
      <trkpt lat="46.625786" lon="12.098537">
        <ele>1691.186</ele>
        <time>2018-09-11T08:29:08Z</time>
      </trkpt>
      <trkpt lat="46.625780" lon="12.098558">
        <ele>1690.618</ele>
        <time>2018-09-11T08:29:09Z</time>
      </trkpt>
      <trkpt lat="46.625774" lon="12.098580">
        <ele>1690.657</ele>
        <time>2018-09-11T08:29:10Z</time>
      </trkpt>
      <trkpt lat="46.625772" lon="12.098603">
        <ele>1690.686</ele>
        <time>2018-09-11T08:29:11Z</time>
      </trkpt>
      <trkpt lat="46.625771" lon="12.098624">
        <ele>1690.622</ele>
        <time>2018-09-11T08:29:12Z</time>
      </trkpt>
      <trkpt lat="46.625768" lon="12.098643">
        <ele>1690.648</ele>
        <time>2018-09-11T08:29:13Z</time>
      </trkpt>
      <trkpt lat="46.625762" lon="12.098661">
        <ele>1690.681</ele>
        <time>2018-09-11T08:29:14Z</time>
      </trkpt>
      <trkpt lat="46.625740" lon="12.098706">
        <ele>1691.194</ele>
        <time>2018-09-11T08:29:17Z</time>
      </trkpt>
      <trkpt lat="46.625726" lon="12.098711">
        <ele>1691.568</ele>
        <time>2018-09-11T09:00:51Z</time>
      </trkpt>
      <trkpt lat="46.625743" lon="12.098700">
        <ele>1691.142</ele>
        <time>2018-09-11T09:00:55Z</time>
      </trkpt>
      <trkpt lat="46.625751" lon="12.098683">
        <ele>1691.126</ele>
        <time>2018-09-11T09:00:56Z</time>
      </trkpt>
      <trkpt lat="46.625768" lon="12.098629">
        <ele>1690.108</ele>
        <time>2018-09-11T09:00:58Z</time>
      </trkpt>
      <trkpt lat="46.625764" lon="12.098559">
        <ele>1689.620</ele>
        <time>2018-09-11T09:01:00Z</time>
      </trkpt>
      <trkpt lat="46.625745" lon="12.098475">
        <ele>1689.172</ele>
        <time>2018-09-11T09:01:03Z</time>
      </trkpt>
      <trkpt lat="46.625746" lon="12.098448">
        <ele>1689.141</ele>
        <time>2018-09-11T09:01:04Z</time>
      </trkpt>
      <trkpt lat="46.625745" lon="12.098425">
        <ele>1689.130</ele>
        <time>2018-09-11T09:01:05Z</time>
      </trkpt>
      <trkpt lat="46.625748" lon="12.098406">
        <ele>1689.176</ele>
        <time>2018-09-11T09:01:06Z</time>
      </trkpt>
      <trkpt lat="46.625792" lon="12.098338">
        <ele>1689.622</ele>
        <time>2018-09-11T09:01:18Z</time>
      </trkpt>
      <trkpt lat="46.625805" lon="12.098330">
        <ele>1690.135</ele>
        <time>2018-09-11T09:01:19Z</time>
      </trkpt>
      <trkpt lat="46.625818" lon="12.098318">
        <ele>1690.178</ele>
        <time>2018-09-11T09:01:20Z</time>
      </trkpt>
      <trkpt lat="46.625968" lon="12.098166">
        <ele>1691.194</ele>
        <time>2018-09-11T09:01:29Z</time>
      </trkpt>
      <trkpt lat="46.625980" lon="12.098144">
        <ele>1691.557</ele>
        <time>2018-09-11T09:01:30Z</time>
      </trkpt>
      <trkpt lat="46.626228" lon="12.097917">
        <ele>1694.422</ele>
        <time>2018-09-11T09:01:47Z</time>
      </trkpt>
      <trkpt lat="46.626486" lon="12.097781">
        <ele>1697.308</ele>
        <time>2018-09-11T09:02:04Z</time>
      </trkpt>
      <trkpt lat="46.626800" lon="12.097665">
        <ele>1700.283</ele>
        <time>2018-09-11T09:02:24Z</time>
      </trkpt>
      <trkpt lat="46.627078" lon="12.097756">
        <ele>1700.265</ele>
        <time>2018-09-11T09:02:38Z</time>
      </trkpt>
      <trkpt lat="46.627399" lon="12.097747">
        <ele>1701.174</ele>
        <time>2018-09-11T09:02:54Z</time>
      </trkpt>
      <trkpt lat="46.627664" lon="12.097565">
        <ele>1702.613</ele>
        <time>2018-09-11T09:03:09Z</time>
      </trkpt>
      <trkpt lat="46.627910" lon="12.097347">
        <ele>1706.469</ele>
        <time>2018-09-11T09:03:27Z</time>
      </trkpt>
      <trkpt lat="46.628103" lon="12.097102">
        <ele>1708.435</ele>
        <time>2018-09-11T09:03:45Z</time>
      </trkpt>
      <trkpt lat="46.628269" lon="12.096964">
        <ele>1711.228</ele>
        <time>2018-09-11T09:04:00Z</time>
      </trkpt>
      <trkpt lat="46.628479" lon="12.096791">
        <ele>1713.241</ele>
        <time>2018-09-11T09:04:18Z</time>
      </trkpt>
      <trkpt lat="46.628760" lon="12.096568">
        <ele>1712.275</ele>
        <time>2018-09-11T09:04:32Z</time>
      </trkpt>
      <trkpt lat="46.629187" lon="12.096261">
        <ele>1713.228</ele>
        <time>2018-09-11T09:04:50Z</time>
      </trkpt>
      <trkpt lat="46.629654" lon="12.095812">
        <ele>1714.620</ele>
        <time>2018-09-11T09:05:12Z</time>
      </trkpt>
      <trkpt lat="46.630028" lon="12.095398">
        <ele>1716.008</ele>
        <time>2018-09-11T09:05:32Z</time>
      </trkpt>
      <trkpt lat="46.630297" lon="12.095070">
        <ele>1718.081</ele>
        <time>2018-09-11T09:05:49Z</time>
      </trkpt>
      <trkpt lat="46.630511" lon="12.094893">
        <ele>1720.413</ele>
        <time>2018-09-11T09:06:04Z</time>
      </trkpt>
      <trkpt lat="46.630732" lon="12.094702">
        <ele>1724.792</ele>
        <time>2018-09-11T09:06:21Z</time>
      </trkpt>
      <trkpt lat="46.630855" lon="12.094618">
        <ele>1726.681</ele>
        <time>2018-09-11T09:06:33Z</time>
      </trkpt>
      <trkpt lat="46.630864" lon="12.094612">
        <ele>1727.167</ele>
        <time>2018-09-11T09:06:34Z</time>
      </trkpt>
      <trkpt lat="46.630875" lon="12.094609">
        <ele>1727.113</ele>
        <time>2018-09-11T09:06:35Z</time>
      </trkpt>
      <trkpt lat="46.630894" lon="12.094590">
        <ele>1727.676</ele>
        <time>2018-09-11T09:06:37Z</time>
      </trkpt>
      <trkpt lat="46.630902" lon="12.094576">
        <ele>1727.639</ele>
        <time>2018-09-11T09:06:38Z</time>
      </trkpt>
      <trkpt lat="46.630911" lon="12.094568">
        <ele>1727.651</ele>
        <time>2018-09-11T09:06:39Z</time>
      </trkpt>
      <trkpt lat="46.630918" lon="12.094559">
        <ele>1727.601</ele>
        <time>2018-09-11T09:06:40Z</time>
      </trkpt>
      <trkpt lat="46.630926" lon="12.094553">
        <ele>1727.611</ele>
        <time>2018-09-11T09:06:41Z</time>
      </trkpt>
      <trkpt lat="46.630936" lon="12.094546">
        <ele>1727.608</ele>
        <time>2018-09-11T09:06:42Z</time>
      </trkpt>
      <trkpt lat="46.630944" lon="12.094539">
        <ele>1727.689</ele>
        <time>2018-09-11T09:06:43Z</time>
      </trkpt>
      <trkpt lat="46.630955" lon="12.094536">
        <ele>1727.621</ele>
        <time>2018-09-11T09:06:44Z</time>
      </trkpt>
      <trkpt lat="46.630964" lon="12.094531">
        <ele>1728.130</ele>
        <time>2018-09-11T09:06:45Z</time>
      </trkpt>
      <trkpt lat="46.630973" lon="12.094528">
        <ele>1728.129</ele>
        <time>2018-09-11T09:06:46Z</time>
      </trkpt>
      <trkpt lat="46.631176" lon="12.094390">
        <ele>1729.525</ele>
        <time>2018-09-11T09:07:04Z</time>
      </trkpt>
      <trkpt lat="46.631364" lon="12.094325">
        <ele>1731.491</ele>
        <time>2018-09-11T09:07:20Z</time>
      </trkpt>
      <trkpt lat="46.631557" lon="12.094289">
        <ele>1734.834</ele>
        <time>2018-09-11T09:07:37Z</time>
      </trkpt>
      <trkpt lat="46.631748" lon="12.094312">
        <ele>1737.747</ele>
        <time>2018-09-11T09:07:53Z</time>
      </trkpt>
      <trkpt lat="46.631934" lon="12.094321">
        <ele>1739.611</ele>
        <time>2018-09-11T09:08:08Z</time>
      </trkpt>
      <trkpt lat="46.632119" lon="12.094164">
        <ele>1743.021</ele>
        <time>2018-09-11T09:08:26Z</time>
      </trkpt>
      <trkpt lat="46.632271" lon="12.094046">
        <ele>1747.303</ele>
        <time>2018-09-11T09:08:41Z</time>
      </trkpt>
      <trkpt lat="46.632515" lon="12.093835">
        <ele>1747.808</ele>
        <time>2018-09-11T09:08:57Z</time>
      </trkpt>
      <trkpt lat="46.632746" lon="12.093721">
        <ele>1748.745</ele>
        <time>2018-09-11T09:09:12Z</time>
      </trkpt>
      <trkpt lat="46.632897" lon="12.093494">
        <ele>1750.217</ele>
        <time>2018-09-11T09:09:26Z</time>
      </trkpt>
      <trkpt lat="46.632951" lon="12.093263">
        <ele>1748.236</ele>
        <time>2018-09-11T09:09:36Z</time>
      </trkpt>
      <trkpt lat="46.632965" lon="12.093252">
        <ele>1748.225</ele>
        <time>2018-09-11T09:09:37Z</time>
      </trkpt>
      <trkpt lat="46.632979" lon="12.093247">
        <ele>1748.241</ele>
        <time>2018-09-11T09:09:38Z</time>
      </trkpt>
      <trkpt lat="46.632995" lon="12.093245">
        <ele>1748.247</ele>
        <time>2018-09-11T09:09:39Z</time>
      </trkpt>
      <trkpt lat="46.633013" lon="12.093244">
        <ele>1748.270</ele>
        <time>2018-09-11T09:09:40Z</time>
      </trkpt>
      <trkpt lat="46.633305" lon="12.093187">
        <ele>1753.583</ele>
        <time>2018-09-11T09:09:57Z</time>
      </trkpt>
      <trkpt lat="46.633539" lon="12.092930">
        <ele>1753.577</ele>
        <time>2018-09-11T09:10:14Z</time>
      </trkpt>
      <trkpt lat="46.633749" lon="12.092552">
        <ele>1752.161</ele>
        <time>2018-09-11T09:10:30Z</time>
      </trkpt>
      <trkpt lat="46.633794" lon="12.092473">
        <ele>1752.627</ele>
        <time>2018-09-11T09:10:34Z</time>
      </trkpt>
      <trkpt lat="46.633803" lon="12.092454">
        <ele>1752.608</ele>
        <time>2018-09-11T09:10:35Z</time>
      </trkpt>
      <trkpt lat="46.633812" lon="12.092435">
        <ele>1753.121</ele>
        <time>2018-09-11T09:10:36Z</time>
      </trkpt>
      <trkpt lat="46.633819" lon="12.092416">
        <ele>1753.143</ele>
        <time>2018-09-11T09:10:37Z</time>
      </trkpt>
      <trkpt lat="46.633826" lon="12.092400">
        <ele>1753.112</ele>
        <time>2018-09-11T09:10:38Z</time>
      </trkpt>
      <trkpt lat="46.633834" lon="12.092387">
        <ele>1753.521</ele>
        <time>2018-09-11T09:10:39Z</time>
      </trkpt>
      <trkpt lat="46.633843" lon="12.092375">
        <ele>1753.557</ele>
        <time>2018-09-11T09:10:40Z</time>
      </trkpt>
      <trkpt lat="46.633852" lon="12.092363">
        <ele>1754.053</ele>
        <time>2018-09-11T09:10:41Z</time>
      </trkpt>
      <trkpt lat="46.633859" lon="12.092348">
        <ele>1754.586</ele>
        <time>2018-09-11T09:10:42Z</time>
      </trkpt>
      <trkpt lat="46.633866" lon="12.092332">
        <ele>1754.579</ele>
        <time>2018-09-11T09:10:43Z</time>
      </trkpt>
      <trkpt lat="46.634029" lon="12.092155">
        <ele>1757.926</ele>
        <time>2018-09-11T09:11:00Z</time>
      </trkpt>
      <trkpt lat="46.634235" lon="12.091957">
        <ele>1760.347</ele>
        <time>2018-09-11T09:11:17Z</time>
      </trkpt>
      <trkpt lat="46.634398" lon="12.091735">
        <ele>1759.811</ele>
        <time>2018-09-11T09:11:30Z</time>
      </trkpt>
      <trkpt lat="46.634584" lon="12.091459">
        <ele>1759.308</ele>
        <time>2018-09-11T09:11:45Z</time>
      </trkpt>
      <trkpt lat="46.634761" lon="12.091207">
        <ele>1762.216</ele>
        <time>2018-09-11T09:12:01Z</time>
      </trkpt>
      <trkpt lat="46.634808" lon="12.091154">
        <ele>1761.238</ele>
        <time>2018-09-11T09:12:05Z</time>
      </trkpt>
      <trkpt lat="46.634822" lon="12.091141">
        <ele>1761.237</ele>
        <time>2018-09-11T09:12:06Z</time>
      </trkpt>
      <trkpt lat="46.635038" lon="12.090863">
        <ele>1763.636</ele>
        <time>2018-09-11T09:12:23Z</time>
      </trkpt>
      <trkpt lat="46.635212" lon="12.090613">
        <ele>1766.012</ele>
        <time>2018-09-11T09:12:37Z</time>
      </trkpt>
      <trkpt lat="46.635467" lon="12.090290">
        <ele>1771.388</ele>
        <time>2018-09-11T09:12:54Z</time>
      </trkpt>
      <trkpt lat="46.635749" lon="12.089966">
        <ele>1773.221</ele>
        <time>2018-09-11T09:13:10Z</time>
      </trkpt>
      <trkpt lat="46.636120" lon="12.089671">
        <ele>1767.054</ele>
        <time>2018-09-11T09:13:24Z</time>
      </trkpt>
      <trkpt lat="46.636186" lon="12.089574">
        <ele>1765.693</ele>
        <time>2018-09-11T09:13:35Z</time>
      </trkpt>
      <trkpt lat="46.636188" lon="12.089583">
        <ele>1764.165</ele>
        <time>2018-09-11T09:14:00Z</time>
      </trkpt>
      <trkpt lat="46.636193" lon="12.089609">
        <ele>1758.821</ele>
        <time>2018-09-11T09:14:22Z</time>
      </trkpt>
      <trkpt lat="46.636237" lon="12.089586">
        <ele>1758.808</ele>
        <time>2018-09-11T09:14:30Z</time>
      </trkpt>
      <trkpt lat="46.636256" lon="12.089579">
        <ele>1758.843</ele>
        <time>2018-09-11T09:14:31Z</time>
      </trkpt>
      <trkpt lat="46.636608" lon="12.089292">
        <ele>1762.295</ele>
        <time>2018-09-11T09:14:48Z</time>
      </trkpt>
      <trkpt lat="46.637017" lon="12.088944">
        <ele>1766.014</ele>
        <time>2018-09-11T09:15:05Z</time>
      </trkpt>
      <trkpt lat="46.637476" lon="12.088748">
        <ele>1767.023</ele>
        <time>2018-09-11T09:15:22Z</time>
      </trkpt>
      <trkpt lat="46.637757" lon="12.088593">
        <ele>1768.019</ele>
        <time>2018-09-11T09:15:35Z</time>
      </trkpt>
      <trkpt lat="46.638065" lon="12.088355">
        <ele>1769.915</ele>
        <time>2018-09-11T09:15:52Z</time>
      </trkpt>
      <trkpt lat="46.638293" lon="12.088181">
        <ele>1773.268</ele>
        <time>2018-09-11T09:16:10Z</time>
      </trkpt>
      <trkpt lat="46.638486" lon="12.088078">
        <ele>1775.631</ele>
        <time>2018-09-11T09:16:26Z</time>
      </trkpt>
      <trkpt lat="46.638691" lon="12.088000">
        <ele>1777.635</ele>
        <time>2018-09-11T09:16:43Z</time>
      </trkpt>
      <trkpt lat="46.638701" lon="12.088003">
        <ele>1777.686</ele>
        <time>2018-09-11T09:16:44Z</time>
      </trkpt>
      <trkpt lat="46.638713" lon="12.088002">
        <ele>1778.114</ele>
        <time>2018-09-11T09:16:45Z</time>
      </trkpt>
      <trkpt lat="46.638724" lon="12.087999">
        <ele>1778.108</ele>
        <time>2018-09-11T09:16:46Z</time>
      </trkpt>
      <trkpt lat="46.638737" lon="12.087998">
        <ele>1778.557</ele>
        <time>2018-09-11T09:16:47Z</time>
      </trkpt>
      <trkpt lat="46.638746" lon="12.087990">
        <ele>1779.039</ele>
        <time>2018-09-11T09:16:48Z</time>
      </trkpt>
      <trkpt lat="46.638757" lon="12.087984">
        <ele>1779.088</ele>
        <time>2018-09-11T09:16:49Z</time>
      </trkpt>
      <trkpt lat="46.638769" lon="12.087975">
        <ele>1779.027</ele>
        <time>2018-09-11T09:16:50Z</time>
      </trkpt>
      <trkpt lat="46.638780" lon="12.087971">
        <ele>1779.043</ele>
        <time>2018-09-11T09:16:51Z</time>
      </trkpt>
      <trkpt lat="46.638791" lon="12.087964">
        <ele>1779.069</ele>
        <time>2018-09-11T09:16:52Z</time>
      </trkpt>
      <trkpt lat="46.638802" lon="12.087957">
        <ele>1779.042</ele>
        <time>2018-09-11T09:16:53Z</time>
      </trkpt>
      <trkpt lat="46.638812" lon="12.087949">
        <ele>1779.095</ele>
        <time>2018-09-11T09:16:54Z</time>
      </trkpt>
      <trkpt lat="46.638924" lon="12.087858">
        <ele>1780.531</ele>
        <time>2018-09-11T09:17:06Z</time>
      </trkpt>
      <trkpt lat="46.638934" lon="12.087848">
        <ele>1780.961</ele>
        <time>2018-09-11T09:17:07Z</time>
      </trkpt>
      <trkpt lat="46.638945" lon="12.087837">
        <ele>1780.907</ele>
        <time>2018-09-11T09:17:08Z</time>
      </trkpt>
      <trkpt lat="46.638951" lon="12.087828">
        <ele>1780.908</ele>
        <time>2018-09-11T09:17:09Z</time>
      </trkpt>
      <trkpt lat="46.638958" lon="12.087818">
        <ele>1781.457</ele>
        <time>2018-09-11T09:17:10Z</time>
      </trkpt>
      <trkpt lat="46.639087" lon="12.087763">
        <ele>1783.349</ele>
        <time>2018-09-11T09:17:21Z</time>
      </trkpt>
      <trkpt lat="46.639099" lon="12.087758">
        <ele>1783.348</ele>
        <time>2018-09-11T09:17:22Z</time>
      </trkpt>
      <trkpt lat="46.639113" lon="12.087755">
        <ele>1783.327</ele>
        <time>2018-09-11T09:17:23Z</time>
      </trkpt>
      <trkpt lat="46.639284" lon="12.087743">
        <ele>1785.743</ele>
        <time>2018-09-11T09:17:37Z</time>
      </trkpt>
      <trkpt lat="46.639294" lon="12.087733">
        <ele>1785.719</ele>
        <time>2018-09-11T09:17:38Z</time>
      </trkpt>
      <trkpt lat="46.639478" lon="12.087476">
        <ele>1789.122</ele>
        <time>2018-09-11T09:18:00Z</time>
      </trkpt>
      <trkpt lat="46.639624" lon="12.087287">
        <ele>1791.045</ele>
        <time>2018-09-11T09:18:17Z</time>
      </trkpt>
      <trkpt lat="46.639775" lon="12.087141">
        <ele>1794.445</ele>
        <time>2018-09-11T09:18:33Z</time>
      </trkpt>
      <trkpt lat="46.639967" lon="12.086973">
        <ele>1795.447</ele>
        <time>2018-09-11T09:18:51Z</time>
      </trkpt>
      <trkpt lat="46.640129" lon="12.086924">
        <ele>1796.811</ele>
        <time>2018-09-11T09:19:06Z</time>
      </trkpt>
      <trkpt lat="46.640138" lon="12.086920">
        <ele>1796.808</ele>
        <time>2018-09-11T09:19:07Z</time>
      </trkpt>
      <trkpt lat="46.640147" lon="12.086916">
        <ele>1796.838</ele>
        <time>2018-09-11T09:19:08Z</time>
      </trkpt>
      <trkpt lat="46.640184" lon="12.086896">
        <ele>1796.810</ele>
        <time>2018-09-11T09:19:12Z</time>
      </trkpt>
      <trkpt lat="46.640197" lon="12.086891">
        <ele>1796.899</ele>
        <time>2018-09-11T09:19:13Z</time>
      </trkpt>
      <trkpt lat="46.640208" lon="12.086881">
        <ele>1796.828</ele>
        <time>2018-09-11T09:19:14Z</time>
      </trkpt>
      <trkpt lat="46.640221" lon="12.086876">
        <ele>1796.334</ele>
        <time>2018-09-11T09:19:15Z</time>
      </trkpt>
      <trkpt lat="46.640233" lon="12.086869">
        <ele>1796.380</ele>
        <time>2018-09-11T09:19:16Z</time>
      </trkpt>
      <trkpt lat="46.640244" lon="12.086856">
        <ele>1796.363</ele>
        <time>2018-09-11T09:19:17Z</time>
      </trkpt>
      <trkpt lat="46.640256" lon="12.086846">
        <ele>1796.376</ele>
        <time>2018-09-11T09:19:18Z</time>
      </trkpt>
      <trkpt lat="46.640267" lon="12.086835">
        <ele>1795.824</ele>
        <time>2018-09-11T09:19:19Z</time>
      </trkpt>
      <trkpt lat="46.640432" lon="12.086687">
        <ele>1799.204</ele>
        <time>2018-09-11T09:19:36Z</time>
      </trkpt>
      <trkpt lat="46.640575" lon="12.086634">
        <ele>1803.514</ele>
        <time>2018-09-11T09:19:49Z</time>
      </trkpt>
      <trkpt lat="46.640586" lon="12.086625">
        <ele>1803.508</ele>
        <time>2018-09-11T09:19:50Z</time>
      </trkpt>
      <trkpt lat="46.640599" lon="12.086621">
        <ele>1803.596</ele>
        <time>2018-09-11T09:19:51Z</time>
      </trkpt>
      <trkpt lat="46.640611" lon="12.086616">
        <ele>1804.058</ele>
        <time>2018-09-11T09:19:52Z</time>
      </trkpt>
      <trkpt lat="46.640622" lon="12.086613">
        <ele>1803.577</ele>
        <time>2018-09-11T09:19:53Z</time>
      </trkpt>
      <trkpt lat="46.640634" lon="12.086609">
        <ele>1803.576</ele>
        <time>2018-09-11T09:19:54Z</time>
      </trkpt>
      <trkpt lat="46.640646" lon="12.086601">
        <ele>1804.092</ele>
        <time>2018-09-11T09:19:55Z</time>
      </trkpt>
      <trkpt lat="46.640659" lon="12.086593">
        <ele>1804.098</ele>
        <time>2018-09-11T09:19:56Z</time>
      </trkpt>
      <trkpt lat="46.640822" lon="12.086473">
        <ele>1805.491</ele>
        <time>2018-09-11T09:20:10Z</time>
      </trkpt>
      <trkpt lat="46.640979" lon="12.086337">
        <ele>1810.754</ele>
        <time>2018-09-11T09:20:25Z</time>
      </trkpt>
      <trkpt lat="46.641135" lon="12.086139">
        <ele>1813.178</ele>
        <time>2018-09-11T09:20:42Z</time>
      </trkpt>
      <trkpt lat="46.641293" lon="12.085920">
        <ele>1814.133</ele>
        <time>2018-09-11T09:20:59Z</time>
      </trkpt>
      <trkpt lat="46.641472" lon="12.085620">
        <ele>1814.626</ele>
        <time>2018-09-11T09:21:20Z</time>
      </trkpt>
      <trkpt lat="46.641564" lon="12.085462">
        <ele>1813.608</ele>
        <time>2018-09-11T09:21:30Z</time>
      </trkpt>
      <trkpt lat="46.641692" lon="12.085116">
        <ele>1816.041</ele>
        <time>2018-09-11T09:21:48Z</time>
      </trkpt>
      <trkpt lat="46.641811" lon="12.084900">
        <ele>1819.453</ele>
        <time>2018-09-11T09:22:02Z</time>
      </trkpt>
      <trkpt lat="46.641912" lon="12.084660">
        <ele>1821.332</ele>
        <time>2018-09-11T09:22:15Z</time>
      </trkpt>
      <trkpt lat="46.642018" lon="12.084417">
        <ele>1822.371</ele>
        <time>2018-09-11T09:22:29Z</time>
      </trkpt>
      <trkpt lat="46.642022" lon="12.084401">
        <ele>1822.397</ele>
        <time>2018-09-11T09:22:30Z</time>
      </trkpt>
      <trkpt lat="46.642028" lon="12.084384">
        <ele>1822.373</ele>
        <time>2018-09-11T09:22:31Z</time>
      </trkpt>
      <trkpt lat="46.642035" lon="12.084368">
        <ele>1822.816</ele>
        <time>2018-09-11T09:22:32Z</time>
      </trkpt>
      <trkpt lat="46.642042" lon="12.084354">
        <ele>1822.829</ele>
        <time>2018-09-11T09:22:33Z</time>
      </trkpt>
      <trkpt lat="46.642048" lon="12.084339">
        <ele>1823.269</ele>
        <time>2018-09-11T09:22:34Z</time>
      </trkpt>
      <trkpt lat="46.642141" lon="12.084152">
        <ele>1827.604</ele>
        <time>2018-09-11T09:22:48Z</time>
      </trkpt>
      <trkpt lat="46.642164" lon="12.084110">
        <ele>1828.024</ele>
        <time>2018-09-11T09:22:52Z</time>
      </trkpt>
      <trkpt lat="46.642175" lon="12.084104">
        <ele>1828.008</ele>
        <time>2018-09-11T09:22:53Z</time>
      </trkpt>
      <trkpt lat="46.642182" lon="12.084139">
        <ele>1827.160</ele>
        <time>2018-09-11T09:23:04Z</time>
      </trkpt>
      <trkpt lat="46.642176" lon="12.084072">
        <ele>1826.152</ele>
        <time>2018-09-11T09:23:29Z</time>
      </trkpt>
      <trkpt lat="46.642166" lon="12.084045">
        <ele>1828.031</ele>
        <time>2018-09-11T09:23:43Z</time>
      </trkpt>
      <trkpt lat="46.642178" lon="12.084003">
        <ele>1826.660</ele>
        <time>2018-09-11T09:23:54Z</time>
      </trkpt>
      <trkpt lat="46.642203" lon="12.083979">
        <ele>1826.186</ele>
        <time>2018-09-11T09:24:02Z</time>
      </trkpt>
      <trkpt lat="46.642210" lon="12.083965">
        <ele>1826.142</ele>
        <time>2018-09-11T09:24:03Z</time>
      </trkpt>
      <trkpt lat="46.642216" lon="12.083950">
        <ele>1826.175</ele>
        <time>2018-09-11T09:24:04Z</time>
      </trkpt>
      <trkpt lat="46.642222" lon="12.083937">
        <ele>1826.168</ele>
        <time>2018-09-11T09:24:05Z</time>
      </trkpt>
      <trkpt lat="46.642309" lon="12.083723">
        <ele>1828.596</ele>
        <time>2018-09-11T09:24:22Z</time>
      </trkpt>
      <trkpt lat="46.642368" lon="12.083531">
        <ele>1830.031</ele>
        <time>2018-09-11T09:24:36Z</time>
      </trkpt>
      <trkpt lat="46.642440" lon="12.083334">
        <ele>1832.424</ele>
        <time>2018-09-11T09:24:52Z</time>
      </trkpt>
      <trkpt lat="46.642495" lon="12.083143">
        <ele>1835.708</ele>
        <time>2018-09-11T09:25:09Z</time>
      </trkpt>
      <trkpt lat="46.642518" lon="12.082985">
        <ele>1838.123</ele>
        <time>2018-09-11T09:25:22Z</time>
      </trkpt>
      <trkpt lat="46.642565" lon="12.082856">
        <ele>1840.525</ele>
        <time>2018-09-11T09:25:34Z</time>
      </trkpt>
      <trkpt lat="46.642647" lon="12.082711">
        <ele>1845.314</ele>
        <time>2018-09-11T09:25:49Z</time>
      </trkpt>
      <trkpt lat="46.642731" lon="12.082568">
        <ele>1847.333</ele>
        <time>2018-09-11T09:26:04Z</time>
      </trkpt>
      <trkpt lat="46.642849" lon="12.082376">
        <ele>1850.169</ele>
        <time>2018-09-11T09:26:23Z</time>
      </trkpt>
      <trkpt lat="46.642910" lon="12.082248">
        <ele>1853.565</ele>
        <time>2018-09-11T09:26:36Z</time>
      </trkpt>
      <trkpt lat="46.642976" lon="12.082162">
        <ele>1855.928</ele>
        <time>2018-09-11T09:26:47Z</time>
      </trkpt>
      <trkpt lat="46.643064" lon="12.081991">
        <ele>1857.421</ele>
        <time>2018-09-11T09:27:02Z</time>
      </trkpt>
      <trkpt lat="46.643116" lon="12.081802">
        <ele>1857.868</ele>
        <time>2018-09-11T09:27:16Z</time>
      </trkpt>
      <trkpt lat="46.643214" lon="12.081637">
        <ele>1860.742</ele>
        <time>2018-09-11T09:27:31Z</time>
      </trkpt>
      <trkpt lat="46.643282" lon="12.081540">
        <ele>1863.126</ele>
        <time>2018-09-11T09:27:41Z</time>
      </trkpt>
      <trkpt lat="46.643268" lon="12.081529">
        <ele>1863.108</ele>
        <time>2018-09-11T09:27:56Z</time>
      </trkpt>
      <trkpt lat="46.643293" lon="12.081514">
        <ele>1861.230</ele>
        <time>2018-09-11T09:28:15Z</time>
      </trkpt>
      <trkpt lat="46.643387" lon="12.081371">
        <ele>1863.662</ele>
        <time>2018-09-11T09:28:34Z</time>
      </trkpt>
      <trkpt lat="46.643447" lon="12.081295">
        <ele>1866.581</ele>
        <time>2018-09-11T09:28:50Z</time>
      </trkpt>
      <trkpt lat="46.643488" lon="12.081254">
        <ele>1870.310</ele>
        <time>2018-09-11T09:29:13Z</time>
      </trkpt>
      <trkpt lat="46.643465" lon="12.081229">
        <ele>1868.946</ele>
        <time>2018-09-11T09:29:37Z</time>
      </trkpt>
      <trkpt lat="46.643531" lon="12.081169">
        <ele>1872.342</ele>
        <time>2018-09-11T09:29:51Z</time>
      </trkpt>
      <trkpt lat="46.643607" lon="12.081084">
        <ele>1874.755</ele>
        <time>2018-09-11T09:30:06Z</time>
      </trkpt>
      <trkpt lat="46.643653" lon="12.080947">
        <ele>1876.648</ele>
        <time>2018-09-11T09:30:23Z</time>
      </trkpt>
      <trkpt lat="46.643722" lon="12.080837">
        <ele>1879.034</ele>
        <time>2018-09-11T09:30:40Z</time>
      </trkpt>
      <trkpt lat="46.643819" lon="12.080740">
        <ele>1882.455</ele>
        <time>2018-09-11T09:30:59Z</time>
      </trkpt>
      <trkpt lat="46.643903" lon="12.080665">
        <ele>1883.810</ele>
        <time>2018-09-11T09:31:18Z</time>
      </trkpt>
      <trkpt lat="46.643987" lon="12.080590">
        <ele>1888.108</ele>
        <time>2018-09-11T09:31:37Z</time>
      </trkpt>
      <trkpt lat="46.644063" lon="12.080496">
        <ele>1892.437</ele>
        <time>2018-09-11T09:31:55Z</time>
      </trkpt>
      <trkpt lat="46.644158" lon="12.080383">
        <ele>1893.959</ele>
        <time>2018-09-11T09:32:13Z</time>
      </trkpt>
      <trkpt lat="46.644183" lon="12.080380">
        <ele>1893.998</ele>
        <time>2018-09-11T09:32:16Z</time>
      </trkpt>
      <trkpt lat="46.644204" lon="12.080343">
        <ele>1887.227</ele>
        <time>2018-09-11T09:32:33Z</time>
      </trkpt>
      <trkpt lat="46.644203" lon="12.080313">
        <ele>1886.753</ele>
        <time>2018-09-11T09:33:00Z</time>
      </trkpt>
      <trkpt lat="46.644215" lon="12.080302">
        <ele>1891.569</ele>
        <time>2018-09-11T09:33:34Z</time>
      </trkpt>
      <trkpt lat="46.644199" lon="12.080324">
        <ele>1893.912</ele>
        <time>2018-09-11T09:34:10Z</time>
      </trkpt>
      <trkpt lat="46.644218" lon="12.080332">
        <ele>1891.545</ele>
        <time>2018-09-11T09:34:47Z</time>
      </trkpt>
      <trkpt lat="46.644207" lon="12.080296">
        <ele>1892.041</ele>
        <time>2018-09-11T09:35:19Z</time>
      </trkpt>
      <trkpt lat="46.644206" lon="12.080301">
        <ele>1894.481</ele>
        <time>2018-09-11T09:35:49Z</time>
      </trkpt>
      <trkpt lat="46.644262" lon="12.080203">
        <ele>1895.809</ele>
        <time>2018-09-11T09:36:05Z</time>
      </trkpt>
      <trkpt lat="46.644360" lon="12.080057">
        <ele>1897.708</ele>
        <time>2018-09-11T09:36:25Z</time>
      </trkpt>
      <trkpt lat="46.644422" lon="12.079909">
        <ele>1899.758</ele>
        <time>2018-09-11T09:36:46Z</time>
      </trkpt>
      <trkpt lat="46.644476" lon="12.079760">
        <ele>1903.050</ele>
        <time>2018-09-11T09:37:07Z</time>
      </trkpt>
      <trkpt lat="46.644509" lon="12.079630">
        <ele>1905.979</ele>
        <time>2018-09-11T09:37:26Z</time>
      </trkpt>
      <trkpt lat="46.644403" lon="12.079600">
        <ele>1908.858</ele>
        <time>2018-09-11T09:37:44Z</time>
      </trkpt>
      <trkpt lat="46.644298" lon="12.079628">
        <ele>1911.244</ele>
        <time>2018-09-11T09:38:02Z</time>
      </trkpt>
      <trkpt lat="46.644205" lon="12.079674">
        <ele>1914.160</ele>
        <time>2018-09-11T09:38:19Z</time>
      </trkpt>
      <trkpt lat="46.644078" lon="12.079722">
        <ele>1915.593</ele>
        <time>2018-09-11T09:38:39Z</time>
      </trkpt>
      <trkpt lat="46.643956" lon="12.079750">
        <ele>1918.476</ele>
        <time>2018-09-11T09:39:00Z</time>
      </trkpt>
      <trkpt lat="46.643852" lon="12.079775">
        <ele>1921.842</ele>
        <time>2018-09-11T09:39:19Z</time>
      </trkpt>
      <trkpt lat="46.643740" lon="12.079769">
        <ele>1924.722</ele>
        <time>2018-09-11T09:39:39Z</time>
      </trkpt>
      <trkpt lat="46.643632" lon="12.079766">
        <ele>1925.614</ele>
        <time>2018-09-11T09:39:57Z</time>
      </trkpt>
      <trkpt lat="46.643508" lon="12.079783">
        <ele>1926.608</ele>
        <time>2018-09-11T09:40:16Z</time>
      </trkpt>
      <trkpt lat="46.643374" lon="12.079800">
        <ele>1933.338</ele>
        <time>2018-09-11T09:40:39Z</time>
      </trkpt>
      <trkpt lat="46.643268" lon="12.079762">
        <ele>1936.280</ele>
        <time>2018-09-11T09:40:57Z</time>
      </trkpt>
      <trkpt lat="46.643200" lon="12.079657">
        <ele>1938.189</ele>
        <time>2018-09-11T09:41:13Z</time>
      </trkpt>
      <trkpt lat="46.643170" lon="12.079528">
        <ele>1939.648</ele>
        <time>2018-09-11T09:41:31Z</time>
      </trkpt>
      <trkpt lat="46.643164" lon="12.079362">
        <ele>1942.094</ele>
        <time>2018-09-11T09:41:49Z</time>
      </trkpt>
      <trkpt lat="46.643203" lon="12.079219">
        <ele>1944.840</ele>
        <time>2018-09-11T09:42:06Z</time>
      </trkpt>
      <trkpt lat="46.643230" lon="12.079092">
        <ele>1947.753</ele>
        <time>2018-09-11T09:42:22Z</time>
      </trkpt>
      <trkpt lat="46.643297" lon="12.078946">
        <ele>1951.116</ele>
        <time>2018-09-11T09:42:41Z</time>
      </trkpt>
      <trkpt lat="46.643379" lon="12.078822">
        <ele>1952.588</ele>
        <time>2018-09-11T09:42:59Z</time>
      </trkpt>
      <trkpt lat="46.643451" lon="12.078774">
        <ele>1954.924</ele>
        <time>2018-09-11T09:43:14Z</time>
      </trkpt>
      <trkpt lat="46.643535" lon="12.078636">
        <ele>1958.326</ele>
        <time>2018-09-11T09:43:32Z</time>
      </trkpt>
      <trkpt lat="46.643553" lon="12.078612">
        <ele>1958.308</ele>
        <time>2018-09-11T09:43:39Z</time>
      </trkpt>
      <trkpt lat="46.643634" lon="12.078437">
        <ele>1960.212</ele>
        <time>2018-09-11T09:43:53Z</time>
      </trkpt>
      <trkpt lat="46.643639" lon="12.078383">
        <ele>1960.744</ele>
        <time>2018-09-11T09:43:57Z</time>
      </trkpt>
      <trkpt lat="46.643562" lon="12.078299">
        <ele>1962.613</ele>
        <time>2018-09-11T09:44:07Z</time>
      </trkpt>
      <trkpt lat="46.643382" lon="12.078332">
        <ele>1963.672</ele>
        <time>2018-09-11T09:44:24Z</time>
      </trkpt>
      <trkpt lat="46.643373" lon="12.078336">
        <ele>1964.188</ele>
        <time>2018-09-11T09:44:25Z</time>
      </trkpt>
      <trkpt lat="46.643310" lon="12.078329">
        <ele>1964.554</ele>
        <time>2018-09-11T09:44:32Z</time>
      </trkpt>
      <trkpt lat="46.643296" lon="12.078247">
        <ele>1965.537</ele>
        <time>2018-09-11T09:44:38Z</time>
      </trkpt>
      <trkpt lat="46.643323" lon="12.078075">
        <ele>1968.450</ele>
        <time>2018-09-11T09:44:51Z</time>
      </trkpt>
      <trkpt lat="46.643339" lon="12.077856">
        <ele>1970.819</ele>
        <time>2018-09-11T09:45:08Z</time>
      </trkpt>
      <trkpt lat="46.643395" lon="12.077673">
        <ele>1973.209</ele>
        <time>2018-09-11T09:45:25Z</time>
      </trkpt>
      <trkpt lat="46.643470" lon="12.077570">
        <ele>1974.619</ele>
        <time>2018-09-11T09:45:37Z</time>
      </trkpt>
      <trkpt lat="46.643480" lon="12.077559">
        <ele>1974.608</ele>
        <time>2018-09-11T09:45:38Z</time>
      </trkpt>
      <trkpt lat="46.643487" lon="12.077547">
        <ele>1974.635</ele>
        <time>2018-09-11T09:45:39Z</time>
      </trkpt>
      <trkpt lat="46.643494" lon="12.077534">
        <ele>1974.687</ele>
        <time>2018-09-11T09:45:40Z</time>
      </trkpt>
      <trkpt lat="46.643501" lon="12.077520">
        <ele>1974.696</ele>
        <time>2018-09-11T09:45:41Z</time>
      </trkpt>
      <trkpt lat="46.643510" lon="12.077507">
        <ele>1974.645</ele>
        <time>2018-09-11T09:45:42Z</time>
      </trkpt>
      <trkpt lat="46.643518" lon="12.077497">
        <ele>1974.611</ele>
        <time>2018-09-11T09:45:43Z</time>
      </trkpt>
      <trkpt lat="46.643526" lon="12.077487">
        <ele>1974.697</ele>
        <time>2018-09-11T09:45:44Z</time>
      </trkpt>
      <trkpt lat="46.643534" lon="12.077478">
        <ele>1975.170</ele>
        <time>2018-09-11T09:45:45Z</time>
      </trkpt>
      <trkpt lat="46.643542" lon="12.077464">
        <ele>1975.123</ele>
        <time>2018-09-11T09:45:46Z</time>
      </trkpt>
      <trkpt lat="46.643549" lon="12.077454">
        <ele>1975.199</ele>
        <time>2018-09-11T09:45:47Z</time>
      </trkpt>
      <trkpt lat="46.643569" lon="12.077422">
        <ele>1975.607</ele>
        <time>2018-09-11T09:45:50Z</time>
      </trkpt>
      <trkpt lat="46.643576" lon="12.077409">
        <ele>1975.627</ele>
        <time>2018-09-11T09:45:51Z</time>
      </trkpt>
      <trkpt lat="46.643710" lon="12.077221">
        <ele>1978.508</ele>
        <time>2018-09-11T09:46:09Z</time>
      </trkpt>
      <trkpt lat="46.643796" lon="12.077100">
        <ele>1980.493</ele>
        <time>2018-09-11T09:46:24Z</time>
      </trkpt>
      <trkpt lat="46.643877" lon="12.077018">
        <ele>1983.815</ele>
        <time>2018-09-11T09:46:40Z</time>
      </trkpt>
      <trkpt lat="46.643983" lon="12.076979">
        <ele>1985.214</ele>
        <time>2018-09-11T09:47:00Z</time>
      </trkpt>
      <trkpt lat="46.644084" lon="12.076984">
        <ele>1987.193</ele>
        <time>2018-09-11T09:47:17Z</time>
      </trkpt>
      <trkpt lat="46.644183" lon="12.076920">
        <ele>1989.519</ele>
        <time>2018-09-11T09:47:35Z</time>
      </trkpt>
      <trkpt lat="46.644246" lon="12.076916">
        <ele>1990.595</ele>
        <time>2018-09-11T09:47:49Z</time>
      </trkpt>
      <trkpt lat="46.644255" lon="12.076921">
        <ele>1990.578</ele>
        <time>2018-09-11T09:47:50Z</time>
      </trkpt>
      <trkpt lat="46.644264" lon="12.076926">
        <ele>1991.021</ele>
        <time>2018-09-11T09:47:51Z</time>
      </trkpt>
      <trkpt lat="46.644273" lon="12.076931">
        <ele>1991.064</ele>
        <time>2018-09-11T09:47:52Z</time>
      </trkpt>
      <trkpt lat="46.644405" lon="12.077014">
        <ele>1993.406</ele>
        <time>2018-09-11T09:48:07Z</time>
      </trkpt>
      <trkpt lat="46.644443" lon="12.077010">
        <ele>1994.316</ele>
        <time>2018-09-11T09:48:11Z</time>
      </trkpt>
      <trkpt lat="46.644613" lon="12.076936">
        <ele>1996.808</ele>
        <time>2018-09-11T09:48:27Z</time>
      </trkpt>
      <trkpt lat="46.644757" lon="12.076981">
        <ele>1998.280</ele>
        <time>2018-09-11T09:48:41Z</time>
      </trkpt>
      <trkpt lat="46.644769" lon="12.076985">
        <ele>1998.722</ele>
        <time>2018-09-11T09:48:42Z</time>
      </trkpt>
      <trkpt lat="46.644781" lon="12.076988">
        <ele>1998.721</ele>
        <time>2018-09-11T09:48:43Z</time>
      </trkpt>
      <trkpt lat="46.644792" lon="12.076991">
        <ele>1998.750</ele>
        <time>2018-09-11T09:48:44Z</time>
      </trkpt>
      <trkpt lat="46.644804" lon="12.076996">
        <ele>1998.736</ele>
        <time>2018-09-11T09:48:45Z</time>
      </trkpt>
      <trkpt lat="46.644816" lon="12.076998">
        <ele>1998.752</ele>
        <time>2018-09-11T09:48:46Z</time>
      </trkpt>
      <trkpt lat="46.644828" lon="12.076997">
        <ele>1998.745</ele>
        <time>2018-09-11T09:48:47Z</time>
      </trkpt>
      <trkpt lat="46.644839" lon="12.076993">
        <ele>1998.768</ele>
        <time>2018-09-11T09:48:48Z</time>
      </trkpt>
      <trkpt lat="46.645030" lon="12.076883">
        <ele>2000.647</ele>
        <time>2018-09-11T09:49:06Z</time>
      </trkpt>
      <trkpt lat="46.645230" lon="12.076748">
        <ele>2004.029</ele>
        <time>2018-09-11T09:49:26Z</time>
      </trkpt>
      <trkpt lat="46.645403" lon="12.076574">
        <ele>2005.921</ele>
        <time>2018-09-11T09:49:44Z</time>
      </trkpt>
      <trkpt lat="46.645582" lon="12.076391">
        <ele>2008.808</ele>
        <time>2018-09-11T09:50:04Z</time>
      </trkpt>
      <trkpt lat="46.645750" lon="12.076180">
        <ele>2010.268</ele>
        <time>2018-09-11T09:50:23Z</time>
      </trkpt>
      <trkpt lat="46.645929" lon="12.076064">
        <ele>2013.180</ele>
        <time>2018-09-11T09:50:41Z</time>
      </trkpt>
      <trkpt lat="46.645969" lon="12.076032">
        <ele>2014.129</ele>
        <time>2018-09-11T09:50:45Z</time>
      </trkpt>
      <trkpt lat="46.645987" lon="12.076017">
        <ele>2014.158</ele>
        <time>2018-09-11T09:50:47Z</time>
      </trkpt>
      <trkpt lat="46.645996" lon="12.076012">
        <ele>2014.534</ele>
        <time>2018-09-11T09:50:48Z</time>
      </trkpt>
      <trkpt lat="46.646014" lon="12.076000">
        <ele>2014.590</ele>
        <time>2018-09-11T09:50:50Z</time>
      </trkpt>
      <trkpt lat="46.646053" lon="12.075955">
        <ele>2015.573</ele>
        <time>2018-09-11T09:50:55Z</time>
      </trkpt>
      <trkpt lat="46.646062" lon="12.075948">
        <ele>2016.046</ele>
        <time>2018-09-11T09:50:56Z</time>
      </trkpt>
      <trkpt lat="46.646071" lon="12.075942">
        <ele>2016.046</ele>
        <time>2018-09-11T09:50:57Z</time>
      </trkpt>
      <trkpt lat="46.646221" lon="12.075817">
        <ele>2019.388</ele>
        <time>2018-09-11T09:51:14Z</time>
      </trkpt>
      <trkpt lat="46.646387" lon="12.075639">
        <ele>2021.716</ele>
        <time>2018-09-11T09:51:33Z</time>
      </trkpt>
      <trkpt lat="46.646437" lon="12.075589">
        <ele>2023.208</ele>
        <time>2018-09-11T09:51:39Z</time>
      </trkpt>
      <trkpt lat="46.646573" lon="12.075470">
        <ele>2025.648</ele>
        <time>2018-09-11T09:51:54Z</time>
      </trkpt>
      <trkpt lat="46.646721" lon="12.075280">
        <ele>2026.620</ele>
        <time>2018-09-11T09:52:12Z</time>
      </trkpt>
      <trkpt lat="46.646904" lon="12.075126">
        <ele>2028.529</ele>
        <time>2018-09-11T09:52:31Z</time>
      </trkpt>
      <trkpt lat="46.647072" lon="12.074927">
        <ele>2030.998</ele>
        <time>2018-09-11T09:52:49Z</time>
      </trkpt>
      <trkpt lat="46.647196" lon="12.074677">
        <ele>2034.244</ele>
        <time>2018-09-11T09:53:07Z</time>
      </trkpt>
      <trkpt lat="46.647209" lon="12.074634">
        <ele>2035.210</ele>
        <time>2018-09-11T09:53:10Z</time>
      </trkpt>
      <trkpt lat="46.647257" lon="12.074554">
        <ele>2037.183</ele>
        <time>2018-09-11T09:53:17Z</time>
      </trkpt>
      <trkpt lat="46.647358" lon="12.074305">
        <ele>2040.546</ele>
        <time>2018-09-11T09:53:36Z</time>
      </trkpt>
      <trkpt lat="46.647439" lon="12.074120">
        <ele>2042.469</ele>
        <time>2018-09-11T09:53:52Z</time>
      </trkpt>
      <trkpt lat="46.647517" lon="12.073910">
        <ele>2045.304</ele>
        <time>2018-09-11T09:54:09Z</time>
      </trkpt>
      <trkpt lat="46.647624" lon="12.073681">
        <ele>2048.224</ele>
        <time>2018-09-11T09:54:27Z</time>
      </trkpt>
      <trkpt lat="46.647729" lon="12.073455">
        <ele>2050.608</ele>
        <time>2018-09-11T09:54:44Z</time>
      </trkpt>
      <trkpt lat="46.647834" lon="12.073213">
        <ele>2053.530</ele>
        <time>2018-09-11T09:55:01Z</time>
      </trkpt>
      <trkpt lat="46.647944" lon="12.072940">
        <ele>2053.522</ele>
        <time>2018-09-11T09:55:19Z</time>
      </trkpt>
      <trkpt lat="46.648119" lon="12.072671">
        <ele>2055.461</ele>
        <time>2018-09-11T09:55:38Z</time>
      </trkpt>
      <trkpt lat="46.648295" lon="12.072465">
        <ele>2058.320</ele>
        <time>2018-09-11T09:55:55Z</time>
      </trkpt>
      <trkpt lat="46.648463" lon="12.072269">
        <ele>2061.636</ele>
        <time>2018-09-11T09:56:11Z</time>
      </trkpt>
      <trkpt lat="46.648618" lon="12.071981">
        <ele>2062.122</ele>
        <time>2018-09-11T09:56:29Z</time>
      </trkpt>
      <trkpt lat="46.648624" lon="12.071965">
        <ele>2062.625</ele>
        <time>2018-09-11T09:56:30Z</time>
      </trkpt>
      <trkpt lat="46.648627" lon="12.071947">
        <ele>2062.668</ele>
        <time>2018-09-11T09:56:31Z</time>
      </trkpt>
      <trkpt lat="46.648654" lon="12.071828">
        <ele>2062.642</ele>
        <time>2018-09-11T09:56:37Z</time>
      </trkpt>
      <trkpt lat="46.648655" lon="12.071810">
        <ele>2062.622</ele>
        <time>2018-09-11T09:56:38Z</time>
      </trkpt>
      <trkpt lat="46.648656" lon="12.071791">
        <ele>2062.614</ele>
        <time>2018-09-11T09:56:39Z</time>
      </trkpt>
      <trkpt lat="46.648658" lon="12.071772">
        <ele>2063.108</ele>
        <time>2018-09-11T09:56:40Z</time>
      </trkpt>
      <trkpt lat="46.648660" lon="12.071753">
        <ele>2063.128</ele>
        <time>2018-09-11T09:56:41Z</time>
      </trkpt>
      <trkpt lat="46.648740" lon="12.071441">
        <ele>2065.020</ele>
        <time>2018-09-11T09:56:58Z</time>
      </trkpt>
      <trkpt lat="46.648924" lon="12.071155">
        <ele>2065.529</ele>
        <time>2018-09-11T09:57:15Z</time>
      </trkpt>
      <trkpt lat="46.649160" lon="12.070829">
        <ele>2066.498</ele>
        <time>2018-09-11T09:57:32Z</time>
      </trkpt>
      <trkpt lat="46.649387" lon="12.070413">
        <ele>2067.984</ele>
        <time>2018-09-11T09:57:53Z</time>
      </trkpt>
      <trkpt lat="46.649577" lon="12.070069">
        <ele>2071.350</ele>
        <time>2018-09-11T09:58:13Z</time>
      </trkpt>
      <trkpt lat="46.649665" lon="12.069765">
        <ele>2073.243</ele>
        <time>2018-09-11T09:58:29Z</time>
      </trkpt>
      <trkpt lat="46.649695" lon="12.069522">
        <ele>2076.126</ele>
        <time>2018-09-11T09:58:42Z</time>
      </trkpt>
      <trkpt lat="46.649703" lon="12.069507">
        <ele>2076.195</ele>
        <time>2018-09-11T09:58:43Z</time>
      </trkpt>
      <trkpt lat="46.649710" lon="12.069491">
        <ele>2076.549</ele>
        <time>2018-09-11T09:58:44Z</time>
      </trkpt>
      <trkpt lat="46.649715" lon="12.069473">
        <ele>2076.523</ele>
        <time>2018-09-11T09:58:45Z</time>
      </trkpt>
      <trkpt lat="46.649721" lon="12.069455">
        <ele>2076.508</ele>
        <time>2018-09-11T09:58:46Z</time>
      </trkpt>
      <trkpt lat="46.649729" lon="12.069440">
        <ele>2077.083</ele>
        <time>2018-09-11T09:58:47Z</time>
      </trkpt>
      <trkpt lat="46.649738" lon="12.069426">
        <ele>2077.055</ele>
        <time>2018-09-11T09:58:48Z</time>
      </trkpt>
      <trkpt lat="46.649794" lon="12.069341">
        <ele>2078.044</ele>
        <time>2018-09-11T09:58:55Z</time>
      </trkpt>
      <trkpt lat="46.649801" lon="12.069327">
        <ele>2078.073</ele>
        <time>2018-09-11T09:58:56Z</time>
      </trkpt>
      <trkpt lat="46.649809" lon="12.069318">
        <ele>2078.029</ele>
        <time>2018-09-11T09:58:57Z</time>
      </trkpt>
      <trkpt lat="46.649817" lon="12.069307">
        <ele>2078.595</ele>
        <time>2018-09-11T09:58:58Z</time>
      </trkpt>
      <trkpt lat="46.649825" lon="12.069297">
        <ele>2078.518</ele>
        <time>2018-09-11T09:58:59Z</time>
      </trkpt>
      <trkpt lat="46.649834" lon="12.069288">
        <ele>2078.511</ele>
        <time>2018-09-11T09:59:00Z</time>
      </trkpt>
      <trkpt lat="46.649841" lon="12.069277">
        <ele>2078.523</ele>
        <time>2018-09-11T09:59:01Z</time>
      </trkpt>
      <trkpt lat="46.649850" lon="12.069268">
        <ele>2078.983</ele>
        <time>2018-09-11T09:59:02Z</time>
      </trkpt>
      <trkpt lat="46.649858" lon="12.069257">
        <ele>2079.411</ele>
        <time>2018-09-11T09:59:03Z</time>
      </trkpt>
      <trkpt lat="46.649979" lon="12.069043">
        <ele>2082.308</ele>
        <time>2018-09-11T09:59:20Z</time>
      </trkpt>
      <trkpt lat="46.650102" lon="12.068831">
        <ele>2084.716</ele>
        <time>2018-09-11T09:59:37Z</time>
      </trkpt>
      <trkpt lat="46.650232" lon="12.068556">
        <ele>2086.228</ele>
        <time>2018-09-11T09:59:56Z</time>
      </trkpt>
      <trkpt lat="46.650238" lon="12.068544">
        <ele>2086.297</ele>
        <time>2018-09-11T09:59:57Z</time>
      </trkpt>
      <trkpt lat="46.650363" lon="12.068290">
        <ele>2089.076</ele>
        <time>2018-09-11T10:00:16Z</time>
      </trkpt>
      <trkpt lat="46.650503" lon="12.067966">
        <ele>2089.042</ele>
        <time>2018-09-11T10:00:33Z</time>
      </trkpt>
      <trkpt lat="46.650600" lon="12.067677">
        <ele>2089.538</ele>
        <time>2018-09-11T10:00:47Z</time>
      </trkpt>
      <trkpt lat="46.650723" lon="12.067431">
        <ele>2091.091</ele>
        <time>2018-09-11T10:01:05Z</time>
      </trkpt>
      <trkpt lat="46.650854" lon="12.067199">
        <ele>2093.494</ele>
        <time>2018-09-11T10:01:22Z</time>
      </trkpt>
      <trkpt lat="46.650920" lon="12.067069">
        <ele>2094.891</ele>
        <time>2018-09-11T10:01:31Z</time>
      </trkpt>
      <trkpt lat="46.650927" lon="12.067054">
        <ele>2094.881</ele>
        <time>2018-09-11T10:01:32Z</time>
      </trkpt>
      <trkpt lat="46.650932" lon="12.067038">
        <ele>2094.819</ele>
        <time>2018-09-11T10:01:33Z</time>
      </trkpt>
      <trkpt lat="46.650936" lon="12.067023">
        <ele>2095.308</ele>
        <time>2018-09-11T10:01:34Z</time>
      </trkpt>
      <trkpt lat="46.650944" lon="12.067007">
        <ele>2095.323</ele>
        <time>2018-09-11T10:01:35Z</time>
      </trkpt>
      <trkpt lat="46.650952" lon="12.066994">
        <ele>2095.845</ele>
        <time>2018-09-11T10:01:36Z</time>
      </trkpt>
      <trkpt lat="46.651026" lon="12.066910">
        <ele>2097.224</ele>
        <time>2018-09-11T10:01:44Z</time>
      </trkpt>
      <trkpt lat="46.651036" lon="12.066899">
        <ele>2097.253</ele>
        <time>2018-09-11T10:01:45Z</time>
      </trkpt>
      <trkpt lat="46.651045" lon="12.066889">
        <ele>2097.229</ele>
        <time>2018-09-11T10:01:46Z</time>
      </trkpt>
      <trkpt lat="46.651093" lon="12.066838">
        <ele>2098.215</ele>
        <time>2018-09-11T10:01:51Z</time>
      </trkpt>
      <trkpt lat="46.651100" lon="12.066825">
        <ele>2098.278</ele>
        <time>2018-09-11T10:01:52Z</time>
      </trkpt>
      <trkpt lat="46.651104" lon="12.066809">
        <ele>2098.261</ele>
        <time>2018-09-11T10:01:53Z</time>
      </trkpt>
      <trkpt lat="46.651108" lon="12.066793">
        <ele>2098.786</ele>
        <time>2018-09-11T10:01:54Z</time>
      </trkpt>
      <trkpt lat="46.651114" lon="12.066779">
        <ele>2098.760</ele>
        <time>2018-09-11T10:01:55Z</time>
      </trkpt>
      <trkpt lat="46.651121" lon="12.066765">
        <ele>2098.726</ele>
        <time>2018-09-11T10:01:56Z</time>
      </trkpt>
      <trkpt lat="46.651127" lon="12.066749">
        <ele>2099.108</ele>
        <time>2018-09-11T10:01:57Z</time>
      </trkpt>
      <trkpt lat="46.651132" lon="12.066733">
        <ele>2099.192</ele>
        <time>2018-09-11T10:01:58Z</time>
      </trkpt>
      <trkpt lat="46.651137" lon="12.066716">
        <ele>2099.124</ele>
        <time>2018-09-11T10:01:59Z</time>
      </trkpt>
      <trkpt lat="46.651144" lon="12.066702">
        <ele>2099.193</ele>
        <time>2018-09-11T10:02:00Z</time>
      </trkpt>
      <trkpt lat="46.651151" lon="12.066688">
        <ele>2099.682</ele>
        <time>2018-09-11T10:02:01Z</time>
      </trkpt>
      <trkpt lat="46.651158" lon="12.066674">
        <ele>2099.618</ele>
        <time>2018-09-11T10:02:02Z</time>
      </trkpt>
      <trkpt lat="46.651164" lon="12.066661">
        <ele>2099.664</ele>
        <time>2018-09-11T10:02:03Z</time>
      </trkpt>
      <trkpt lat="46.651170" lon="12.066646">
        <ele>2100.167</ele>
        <time>2018-09-11T10:02:04Z</time>
      </trkpt>
      <trkpt lat="46.651266" lon="12.066428">
        <ele>2103.510</ele>
        <time>2018-09-11T10:02:21Z</time>
      </trkpt>
      <trkpt lat="46.651357" lon="12.066191">
        <ele>2106.336</ele>
        <time>2018-09-11T10:02:39Z</time>
      </trkpt>
      <trkpt lat="46.651471" lon="12.066049">
        <ele>2108.717</ele>
        <time>2018-09-11T10:02:56Z</time>
      </trkpt>
      <trkpt lat="46.651500" lon="12.066038">
        <ele>2109.218</ele>
        <time>2018-09-11T10:02:59Z</time>
      </trkpt>
      <trkpt lat="46.651555" lon="12.066013">
        <ele>2108.708</ele>
        <time>2018-09-11T10:03:10Z</time>
      </trkpt>
      <trkpt lat="46.651666" lon="12.065883">
        <ele>2110.717</ele>
        <time>2018-09-11T10:03:28Z</time>
      </trkpt>
      <trkpt lat="46.651741" lon="12.065772">
        <ele>2114.059</ele>
        <time>2018-09-11T10:03:46Z</time>
      </trkpt>
      <trkpt lat="46.651824" lon="12.065653">
        <ele>2115.578</ele>
        <time>2018-09-11T10:04:02Z</time>
      </trkpt>
      <trkpt lat="46.652144" lon="12.065123">
        <ele>2120.327</ele>
        <time>2018-09-11T10:06:40Z</time>
      </trkpt>
      <trkpt lat="46.652194" lon="12.065046">
        <ele>2121.263</ele>
        <time>2018-09-11T10:06:46Z</time>
      </trkpt>
      <trkpt lat="46.652316" lon="12.064804">
        <ele>2124.679</ele>
        <time>2018-09-11T10:07:05Z</time>
      </trkpt>
      <trkpt lat="46.652343" lon="12.064735">
        <ele>2125.682</ele>
        <time>2018-09-11T10:07:10Z</time>
      </trkpt>
      <trkpt lat="46.652419" lon="12.064480">
        <ele>2127.555</ele>
        <time>2018-09-11T10:07:27Z</time>
      </trkpt>
      <trkpt lat="46.652515" lon="12.064214">
        <ele>2128.923</ele>
        <time>2018-09-11T10:07:45Z</time>
      </trkpt>
      <trkpt lat="46.652574" lon="12.063958">
        <ele>2131.883</ele>
        <time>2018-09-11T10:08:01Z</time>
      </trkpt>
      <trkpt lat="46.652608" lon="12.063861">
        <ele>2132.311</ele>
        <time>2018-09-11T10:08:07Z</time>
      </trkpt>
      <trkpt lat="46.652714" lon="12.063706">
        <ele>2133.708</ele>
        <time>2018-09-11T10:08:20Z</time>
      </trkpt>
      <trkpt lat="46.652797" lon="12.063536">
        <ele>2135.776</ele>
        <time>2018-09-11T10:08:32Z</time>
      </trkpt>
      <trkpt lat="46.652935" lon="12.063133">
        <ele>2139.538</ele>
        <time>2018-09-11T10:08:53Z</time>
      </trkpt>
      <trkpt lat="46.653049" lon="12.062775">
        <ele>2140.517</ele>
        <time>2018-09-11T10:09:08Z</time>
      </trkpt>
      <trkpt lat="46.653201" lon="12.062442">
        <ele>2142.486</ele>
        <time>2018-09-11T10:09:22Z</time>
      </trkpt>
      <trkpt lat="46.653207" lon="12.062425">
        <ele>2142.422</ele>
        <time>2018-09-11T10:09:23Z</time>
      </trkpt>
      <trkpt lat="46.653330" lon="12.062054">
        <ele>2144.328</ele>
        <time>2018-09-11T10:09:37Z</time>
      </trkpt>
      <trkpt lat="46.653336" lon="12.061997">
        <ele>2144.321</ele>
        <time>2018-09-11T10:09:39Z</time>
      </trkpt>
      <trkpt lat="46.653340" lon="12.061972">
        <ele>2144.354</ele>
        <time>2018-09-11T10:09:40Z</time>
      </trkpt>
      <trkpt lat="46.653341" lon="12.061947">
        <ele>2144.853</ele>
        <time>2018-09-11T10:09:41Z</time>
      </trkpt>
      <trkpt lat="46.653473" lon="12.061622">
        <ele>2146.204</ele>
        <time>2018-09-11T10:09:58Z</time>
      </trkpt>
      <trkpt lat="46.653649" lon="12.061227">
        <ele>2144.814</ele>
        <time>2018-09-11T10:10:08Z</time>
      </trkpt>
      <trkpt lat="46.653708" lon="12.060901">
        <ele>2145.308</ele>
        <time>2018-09-11T10:10:18Z</time>
      </trkpt>
      <trkpt lat="46.653714" lon="12.060695">
        <ele>2145.889</ele>
        <time>2018-09-11T10:10:33Z</time>
      </trkpt>
      <trkpt lat="46.653705" lon="12.060689">
        <ele>2143.871</ele>
        <time>2018-09-11T10:10:52Z</time>
      </trkpt>
      <trkpt lat="46.653711" lon="12.060674">
        <ele>2141.980</ele>
        <time>2018-09-11T10:11:35Z</time>
      </trkpt>
      <trkpt lat="46.653716" lon="12.060618">
        <ele>2141.999</ele>
        <time>2018-09-11T10:12:01Z</time>
      </trkpt>
      <trkpt lat="46.653722" lon="12.060198">
        <ele>2139.545</ele>
        <time>2018-09-11T10:12:10Z</time>
      </trkpt>
      <trkpt lat="46.653652" lon="12.059699">
        <ele>2140.071</ele>
        <time>2018-09-11T10:12:21Z</time>
      </trkpt>
      <trkpt lat="46.653385" lon="12.059502">
        <ele>2138.514</ele>
        <time>2018-09-11T10:12:30Z</time>
      </trkpt>
      <trkpt lat="46.653272" lon="12.059438">
        <ele>2137.157</ele>
        <time>2018-09-11T10:12:32Z</time>
      </trkpt>
      <trkpt lat="46.653104" lon="12.059373">
        <ele>2135.781</ele>
        <time>2018-09-11T10:12:35Z</time>
      </trkpt>
      <trkpt lat="46.653055" lon="12.059388">
        <ele>2135.761</ele>
        <time>2018-09-11T10:12:36Z</time>
      </trkpt>
      <trkpt lat="46.653015" lon="12.059422">
        <ele>2135.217</ele>
        <time>2018-09-11T10:12:37Z</time>
      </trkpt>
      <trkpt lat="46.652982" lon="12.059466">
        <ele>2134.708</ele>
        <time>2018-09-11T10:12:38Z</time>
      </trkpt>
      <trkpt lat="46.652957" lon="12.059498">
        <ele>2133.752</ele>
        <time>2018-09-11T10:12:39Z</time>
      </trkpt>
      <trkpt lat="46.652860" lon="12.059573">
        <ele>2131.334</ele>
        <time>2018-09-11T10:12:42Z</time>
      </trkpt>
      <trkpt lat="46.652811" lon="12.059571">
        <ele>2130.923</ele>
        <time>2018-09-11T10:12:43Z</time>
      </trkpt>
      <trkpt lat="46.652655" lon="12.059536">
        <ele>2130.462</ele>
        <time>2018-09-11T10:12:46Z</time>
      </trkpt>
      <trkpt lat="46.652600" lon="12.059544">
        <ele>2129.938</ele>
        <time>2018-09-11T10:12:47Z</time>
      </trkpt>
      <trkpt lat="46.652539" lon="12.059565">
        <ele>2129.454</ele>
        <time>2018-09-11T10:12:48Z</time>
      </trkpt>
      <trkpt lat="46.652480" lon="12.059598">
        <ele>2129.487</ele>
        <time>2018-09-11T10:12:49Z</time>
      </trkpt>
      <trkpt lat="46.652425" lon="12.059643">
        <ele>2129.480</ele>
        <time>2018-09-11T10:12:50Z</time>
      </trkpt>
      <trkpt lat="46.652376" lon="12.059693">
        <ele>2129.414</ele>
        <time>2018-09-11T10:12:51Z</time>
      </trkpt>
      <trkpt lat="46.652328" lon="12.059749">
        <ele>2129.454</ele>
        <time>2018-09-11T10:12:52Z</time>
      </trkpt>
      <trkpt lat="46.652244" lon="12.059868">
        <ele>2128.909</ele>
        <time>2018-09-11T10:12:54Z</time>
      </trkpt>
      <trkpt lat="46.651882" lon="12.060567">
        <ele>2131.308</ele>
        <time>2018-09-11T10:13:07Z</time>
      </trkpt>
      <trkpt lat="46.651721" lon="12.060752">
        <ele>2132.865</ele>
        <time>2018-09-11T10:13:19Z</time>
      </trkpt>
      <trkpt lat="46.651508" lon="12.060882">
        <ele>2135.787</ele>
        <time>2018-09-11T10:13:37Z</time>
      </trkpt>
      <trkpt lat="46.651347" lon="12.060986">
        <ele>2136.646</ele>
        <time>2018-09-11T10:13:51Z</time>
      </trkpt>
      <trkpt lat="46.651321" lon="12.060997">
        <ele>2137.145</ele>
        <time>2018-09-11T10:13:54Z</time>
      </trkpt>
      <trkpt lat="46.651331" lon="12.061011">
        <ele>2136.181</ele>
        <time>2018-09-11T10:14:07Z</time>
      </trkpt>
      <trkpt lat="46.651299" lon="12.061060">
        <ele>2136.147</ele>
        <time>2018-09-11T10:14:30Z</time>
      </trkpt>
      <trkpt lat="46.651290" lon="12.061058">
        <ele>2136.620</ele>
        <time>2018-09-11T10:14:39Z</time>
      </trkpt>
      <trkpt lat="46.651043" lon="12.061251">
        <ele>2136.663</ele>
        <time>2018-09-11T10:14:51Z</time>
      </trkpt>
      <trkpt lat="46.650638" lon="12.061637">
        <ele>2136.119</ele>
        <time>2018-09-11T10:15:05Z</time>
      </trkpt>
      <trkpt lat="46.650380" lon="12.061851">
        <ele>2139.009</ele>
        <time>2018-09-11T10:15:18Z</time>
      </trkpt>
      <trkpt lat="46.650229" lon="12.062099">
        <ele>2136.119</ele>
        <time>2018-09-11T10:15:33Z</time>
      </trkpt>
      <trkpt lat="46.650224" lon="12.062194">
        <ele>2134.708</ele>
        <time>2018-09-11T10:15:46Z</time>
      </trkpt>
      <trkpt lat="46.650231" lon="12.062212">
        <ele>2134.275</ele>
        <time>2018-09-11T10:16:10Z</time>
      </trkpt>
      <trkpt lat="46.650238" lon="12.062232">
        <ele>2133.787</ele>
        <time>2018-09-11T10:16:13Z</time>
      </trkpt>
      <trkpt lat="46.650248" lon="12.062251">
        <ele>2133.726</ele>
        <time>2018-09-11T10:16:14Z</time>
      </trkpt>
      <trkpt lat="46.650269" lon="12.062325">
        <ele>2132.325</ele>
        <time>2018-09-11T10:16:17Z</time>
      </trkpt>
      <trkpt lat="46.650265" lon="12.062355">
        <ele>2131.871</ele>
        <time>2018-09-11T10:16:18Z</time>
      </trkpt>
      <trkpt lat="46.650259" lon="12.062385">
        <ele>2131.387</ele>
        <time>2018-09-11T10:16:19Z</time>
      </trkpt>
      <trkpt lat="46.650247" lon="12.062413">
        <ele>2130.470</ele>
        <time>2018-09-11T10:16:20Z</time>
      </trkpt>
      <trkpt lat="46.650227" lon="12.062435">
        <ele>2129.953</ele>
        <time>2018-09-11T10:16:21Z</time>
      </trkpt>
      <trkpt lat="46.650206" lon="12.062446">
        <ele>2129.467</ele>
        <time>2018-09-11T10:16:22Z</time>
      </trkpt>
      <trkpt lat="46.650181" lon="12.062449">
        <ele>2128.981</ele>
        <time>2018-09-11T10:16:23Z</time>
      </trkpt>
      <trkpt lat="46.650157" lon="12.062444">
        <ele>2128.019</ele>
        <time>2018-09-11T10:16:24Z</time>
      </trkpt>
      <trkpt lat="46.650136" lon="12.062435">
        <ele>2127.508</ele>
        <time>2018-09-11T10:16:25Z</time>
      </trkpt>
      <trkpt lat="46.650118" lon="12.062421">
        <ele>2127.010</ele>
        <time>2018-09-11T10:16:26Z</time>
      </trkpt>
      <trkpt lat="46.650101" lon="12.062403">
        <ele>2126.552</ele>
        <time>2018-09-11T10:16:27Z</time>
      </trkpt>
      <trkpt lat="46.650085" lon="12.062386">
        <ele>2126.531</ele>
        <time>2018-09-11T10:16:28Z</time>
      </trkpt>
      <trkpt lat="46.649847" lon="12.062247">
        <ele>2120.880</ele>
        <time>2018-09-11T10:16:39Z</time>
      </trkpt>
      <trkpt lat="46.649816" lon="12.062282">
        <ele>2120.856</ele>
        <time>2018-09-11T10:16:40Z</time>
      </trkpt>
      <trkpt lat="46.649784" lon="12.062326">
        <ele>2120.342</ele>
        <time>2018-09-11T10:16:41Z</time>
      </trkpt>
      <trkpt lat="46.649759" lon="12.062371">
        <ele>2120.345</ele>
        <time>2018-09-11T10:16:42Z</time>
      </trkpt>
      <trkpt lat="46.649490" lon="12.062569">
        <ele>2115.558</ele>
        <time>2018-09-11T10:16:52Z</time>
      </trkpt>
      <trkpt lat="46.649186" lon="12.062448">
        <ele>2109.717</ele>
        <time>2018-09-11T10:17:04Z</time>
      </trkpt>
      <trkpt lat="46.649087" lon="12.062347">
        <ele>2107.887</ele>
        <time>2018-09-11T10:17:08Z</time>
      </trkpt>
      <trkpt lat="46.648969" lon="12.062016">
        <ele>2106.315</ele>
        <time>2018-09-11T10:17:14Z</time>
      </trkpt>
      <trkpt lat="46.648944" lon="12.061959">
        <ele>2106.308</ele>
        <time>2018-09-11T10:17:15Z</time>
      </trkpt>
      <trkpt lat="46.648907" lon="12.061846">
        <ele>2106.395</ele>
        <time>2018-09-11T10:17:17Z</time>
      </trkpt>
      <trkpt lat="46.648888" lon="12.061342">
        <ele>2105.467</ele>
        <time>2018-09-11T10:17:28Z</time>
      </trkpt>
      <trkpt lat="46.648800" lon="12.061008">
        <ele>2104.936</ele>
        <time>2018-09-11T10:17:38Z</time>
      </trkpt>
      <trkpt lat="46.648445" lon="12.060603">
        <ele>2103.555</ele>
        <time>2018-09-11T10:17:51Z</time>
      </trkpt>
      <trkpt lat="46.648277" lon="12.060461">
        <ele>2103.551</ele>
        <time>2018-09-11T10:17:55Z</time>
      </trkpt>
      <trkpt lat="46.648237" lon="12.060437">
        <ele>2103.537</ele>
        <time>2018-09-11T10:17:56Z</time>
      </trkpt>
      <trkpt lat="46.648199" lon="12.060415">
        <ele>2103.530</ele>
        <time>2018-09-11T10:17:57Z</time>
      </trkpt>
      <trkpt lat="46.647793" lon="12.060186">
        <ele>2102.583</ele>
        <time>2018-09-11T10:18:09Z</time>
      </trkpt>
      <trkpt lat="46.647759" lon="12.060139">
        <ele>2102.559</ele>
        <time>2018-09-11T10:18:10Z</time>
      </trkpt>
      <trkpt lat="46.647741" lon="12.060079">
        <ele>2102.003</ele>
        <time>2018-09-11T10:18:11Z</time>
      </trkpt>
      <trkpt lat="46.647735" lon="12.060011">
        <ele>2102.023</ele>
        <time>2018-09-11T10:18:12Z</time>
      </trkpt>
      <trkpt lat="46.647723" lon="12.059941">
        <ele>2101.508</ele>
        <time>2018-09-11T10:18:13Z</time>
      </trkpt>
      <trkpt lat="46.647696" lon="12.059874">
        <ele>2101.189</ele>
        <time>2018-09-11T10:18:14Z</time>
      </trkpt>
      <trkpt lat="46.647654" lon="12.059824">
        <ele>2101.151</ele>
        <time>2018-09-11T10:18:15Z</time>
      </trkpt>
      <trkpt lat="46.647605" lon="12.059793">
        <ele>2100.640</ele>
        <time>2018-09-11T10:18:16Z</time>
      </trkpt>
      <trkpt lat="46.647557" lon="12.059783">
        <ele>2100.619</ele>
        <time>2018-09-11T10:18:17Z</time>
      </trkpt>
      <trkpt lat="46.647514" lon="12.059789">
        <ele>2100.695</ele>
        <time>2018-09-11T10:18:18Z</time>
      </trkpt>
      <trkpt lat="46.647476" lon="12.059807">
        <ele>2100.671</ele>
        <time>2018-09-11T10:18:19Z</time>
      </trkpt>
      <trkpt lat="46.647437" lon="12.059836">
        <ele>2100.174</ele>
        <time>2018-09-11T10:18:20Z</time>
      </trkpt>
      <trkpt lat="46.647392" lon="12.059874">
        <ele>2099.687</ele>
        <time>2018-09-11T10:18:21Z</time>
      </trkpt>
      <trkpt lat="46.647257" lon="12.059981">
        <ele>2099.112</ele>
        <time>2018-09-11T10:18:24Z</time>
      </trkpt>
      <trkpt lat="46.647040" lon="12.060080">
        <ele>2100.632</ele>
        <time>2018-09-11T10:18:33Z</time>
      </trkpt>
      <trkpt lat="46.646753" lon="12.060242">
        <ele>2101.505</ele>
        <time>2018-09-11T10:18:45Z</time>
      </trkpt>
      <trkpt lat="46.646511" lon="12.060317">
        <ele>2102.508</ele>
        <time>2018-09-11T10:18:58Z</time>
      </trkpt>
      <trkpt lat="46.646333" lon="12.060328">
        <ele>2103.075</ele>
        <time>2018-09-11T10:19:11Z</time>
      </trkpt>
      <trkpt lat="46.646039" lon="12.060329">
        <ele>2103.027</ele>
        <time>2018-09-11T10:19:23Z</time>
      </trkpt>
      <trkpt lat="46.645633" lon="12.060207">
        <ele>2103.976</ele>
        <time>2018-09-11T10:19:39Z</time>
      </trkpt>
      <trkpt lat="46.645688" lon="12.059707">
        <ele>2102.585</ele>
        <time>2018-09-11T10:19:52Z</time>
      </trkpt>
      <trkpt lat="46.645676" lon="12.059569">
        <ele>2101.551</ele>
        <time>2018-09-11T10:19:55Z</time>
      </trkpt>
      <trkpt lat="46.645648" lon="12.059518">
        <ele>2101.577</ele>
        <time>2018-09-11T10:19:56Z</time>
      </trkpt>
      <trkpt lat="46.645619" lon="12.059477">
        <ele>2100.630</ele>
        <time>2018-09-11T10:19:57Z</time>
      </trkpt>
      <trkpt lat="46.645584" lon="12.059448">
        <ele>2100.123</ele>
        <time>2018-09-11T10:19:58Z</time>
      </trkpt>
      <trkpt lat="46.645549" lon="12.059437">
        <ele>2099.634</ele>
        <time>2018-09-11T10:19:59Z</time>
      </trkpt>
      <trkpt lat="46.645516" lon="12.059440">
        <ele>2099.655</ele>
        <time>2018-09-11T10:20:00Z</time>
      </trkpt>
      <trkpt lat="46.645490" lon="12.059453">
        <ele>2099.110</ele>
        <time>2018-09-11T10:20:01Z</time>
      </trkpt>
      <trkpt lat="46.645470" lon="12.059471">
        <ele>2098.708</ele>
        <time>2018-09-11T10:20:02Z</time>
      </trkpt>
      <trkpt lat="46.645280" lon="12.059616">
        <ele>2094.887</ele>
        <time>2018-09-11T10:20:13Z</time>
      </trkpt>
      <trkpt lat="46.644913" lon="12.059448">
        <ele>2087.699</ele>
        <time>2018-09-11T10:20:23Z</time>
      </trkpt>
      <trkpt lat="46.644876" lon="12.059408">
        <ele>2087.128</ele>
        <time>2018-09-11T10:20:24Z</time>
      </trkpt>
      <trkpt lat="46.644840" lon="12.059375">
        <ele>2086.657</ele>
        <time>2018-09-11T10:20:25Z</time>
      </trkpt>
      <trkpt lat="46.644717" lon="12.059294">
        <ele>2085.213</ele>
        <time>2018-09-11T10:20:28Z</time>
      </trkpt>
      <trkpt lat="46.644571" lon="12.059244">
        <ele>2084.789</ele>
        <time>2018-09-11T10:20:31Z</time>
      </trkpt>
      <trkpt lat="46.644523" lon="12.059241">
        <ele>2084.762</ele>
        <time>2018-09-11T10:20:32Z</time>
      </trkpt>
      <trkpt lat="46.644168" lon="12.059177">
        <ele>2083.755</ele>
        <time>2018-09-11T10:20:39Z</time>
      </trkpt>
      <trkpt lat="46.644122" lon="12.059148">
        <ele>2083.757</ele>
        <time>2018-09-11T10:20:40Z</time>
      </trkpt>
      <trkpt lat="46.643847" lon="12.058955">
        <ele>2085.200</ele>
        <time>2018-09-11T10:20:50Z</time>
      </trkpt>
      <trkpt lat="46.643579" lon="12.058755">
        <ele>2082.320</ele>
        <time>2018-09-11T10:21:01Z</time>
      </trkpt>
      <trkpt lat="46.643387" lon="12.058180">
        <ele>2074.608</ele>
        <time>2018-09-11T10:21:13Z</time>
      </trkpt>
      <trkpt lat="46.643262" lon="12.057467">
        <ele>2066.419</ele>
        <time>2018-09-11T10:21:24Z</time>
      </trkpt>
      <trkpt lat="46.643244" lon="12.057402">
        <ele>2066.091</ele>
        <time>2018-09-11T10:21:25Z</time>
      </trkpt>
      <trkpt lat="46.643226" lon="12.057337">
        <ele>2066.070</ele>
        <time>2018-09-11T10:21:26Z</time>
      </trkpt>
      <trkpt lat="46.643001" lon="12.056895">
        <ele>2061.219</ele>
        <time>2018-09-11T10:21:37Z</time>
      </trkpt>
      <trkpt lat="46.642810" lon="12.056488">
        <ele>2053.015</ele>
        <time>2018-09-11T10:21:51Z</time>
      </trkpt>
      <trkpt lat="46.642501" lon="12.056251">
        <ele>2047.221</ele>
        <time>2018-09-11T10:22:04Z</time>
      </trkpt>
      <trkpt lat="46.642168" lon="12.056057">
        <ele>2040.534</ele>
        <time>2018-09-11T10:22:15Z</time>
      </trkpt>
      <trkpt lat="46.642151" lon="12.056004">
        <ele>2040.067</ele>
        <time>2018-09-11T10:22:16Z</time>
      </trkpt>
      <trkpt lat="46.642140" lon="12.055941">
        <ele>2039.587</ele>
        <time>2018-09-11T10:22:17Z</time>
      </trkpt>
      <trkpt lat="46.642121" lon="12.055807">
        <ele>2038.642</ele>
        <time>2018-09-11T10:22:19Z</time>
      </trkpt>
      <trkpt lat="46.642102" lon="12.055740">
        <ele>2038.626</ele>
        <time>2018-09-11T10:22:20Z</time>
      </trkpt>
      <trkpt lat="46.642075" lon="12.055680">
        <ele>2038.108</ele>
        <time>2018-09-11T10:22:21Z</time>
      </trkpt>
      <trkpt lat="46.642017" lon="12.055585">
        <ele>2038.112</ele>
        <time>2018-09-11T10:22:23Z</time>
      </trkpt>
      <trkpt lat="46.641984" lon="12.055549">
        <ele>2038.124</ele>
        <time>2018-09-11T10:22:24Z</time>
      </trkpt>
      <trkpt lat="46.641947" lon="12.055524">
        <ele>2038.123</ele>
        <time>2018-09-11T10:22:25Z</time>
      </trkpt>
      <trkpt lat="46.641909" lon="12.055514">
        <ele>2038.142</ele>
        <time>2018-09-11T10:22:26Z</time>
      </trkpt>
      <trkpt lat="46.641874" lon="12.055517">
        <ele>2038.118</ele>
        <time>2018-09-11T10:22:27Z</time>
      </trkpt>
      <trkpt lat="46.641838" lon="12.055528">
        <ele>2038.134</ele>
        <time>2018-09-11T10:22:28Z</time>
      </trkpt>
      <trkpt lat="46.641800" lon="12.055540">
        <ele>2037.677</ele>
        <time>2018-09-11T10:22:29Z</time>
      </trkpt>
      <trkpt lat="46.641761" lon="12.055546">
        <ele>2037.110</ele>
        <time>2018-09-11T10:22:30Z</time>
      </trkpt>
      <trkpt lat="46.641641" lon="12.055572">
        <ele>2035.249</ele>
        <time>2018-09-11T10:22:33Z</time>
      </trkpt>
      <trkpt lat="46.641460" lon="12.055682">
        <ele>2032.302</ele>
        <time>2018-09-11T10:22:38Z</time>
      </trkpt>
      <trkpt lat="46.641203" lon="12.055926">
        <ele>2028.522</ele>
        <time>2018-09-11T10:22:44Z</time>
      </trkpt>
      <trkpt lat="46.641159" lon="12.055953">
        <ele>2027.508</ele>
        <time>2018-09-11T10:22:45Z</time>
      </trkpt>
      <trkpt lat="46.641119" lon="12.055973">
        <ele>2027.068</ele>
        <time>2018-09-11T10:22:46Z</time>
      </trkpt>
      <trkpt lat="46.641039" lon="12.056003">
        <ele>2026.190</ele>
        <time>2018-09-11T10:22:48Z</time>
      </trkpt>
      <trkpt lat="46.640997" lon="12.056010">
        <ele>2025.659</ele>
        <time>2018-09-11T10:22:49Z</time>
      </trkpt>
      <trkpt lat="46.640955" lon="12.056011">
        <ele>2024.668</ele>
        <time>2018-09-11T10:22:50Z</time>
      </trkpt>
      <trkpt lat="46.640869" lon="12.056000">
        <ele>2023.794</ele>
        <time>2018-09-11T10:22:52Z</time>
      </trkpt>
      <trkpt lat="46.640828" lon="12.055980">
        <ele>2022.750</ele>
        <time>2018-09-11T10:22:53Z</time>
      </trkpt>
      <trkpt lat="46.640787" lon="12.055955">
        <ele>2022.253</ele>
        <time>2018-09-11T10:22:54Z</time>
      </trkpt>
      <trkpt lat="46.640751" lon="12.055921">
        <ele>2021.716</ele>
        <time>2018-09-11T10:22:55Z</time>
      </trkpt>
      <trkpt lat="46.640720" lon="12.055878">
        <ele>2021.357</ele>
        <time>2018-09-11T10:22:56Z</time>
      </trkpt>
      <trkpt lat="46.640700" lon="12.055823">
        <ele>2020.800</ele>
        <time>2018-09-11T10:22:57Z</time>
      </trkpt>
      <trkpt lat="46.640689" lon="12.055760">
        <ele>2020.320</ele>
        <time>2018-09-11T10:22:58Z</time>
      </trkpt>
      <trkpt lat="46.640688" lon="12.055701">
        <ele>2019.808</ele>
        <time>2018-09-11T10:22:59Z</time>
      </trkpt>
      <trkpt lat="46.640692" lon="12.055646">
        <ele>2019.329</ele>
        <time>2018-09-11T10:23:00Z</time>
      </trkpt>
      <trkpt lat="46.640753" lon="12.055043">
        <ele>2013.171</ele>
        <time>2018-09-11T10:23:13Z</time>
      </trkpt>
      <trkpt lat="46.640834" lon="12.054814">
        <ele>2010.210</ele>
        <time>2018-09-11T10:23:19Z</time>
      </trkpt>
      <trkpt lat="46.640819" lon="12.054780">
        <ele>2009.779</ele>
        <time>2018-09-11T10:23:20Z</time>
      </trkpt>
      <trkpt lat="46.640793" lon="12.054765">
        <ele>2009.225</ele>
        <time>2018-09-11T10:23:21Z</time>
      </trkpt>
      <trkpt lat="46.640762" lon="12.054773">
        <ele>2009.241</ele>
        <time>2018-09-11T10:23:22Z</time>
      </trkpt>
      <trkpt lat="46.640736" lon="12.054801">
        <ele>2008.844</ele>
        <time>2018-09-11T10:23:23Z</time>
      </trkpt>
      <trkpt lat="46.640724" lon="12.054831">
        <ele>2008.817</ele>
        <time>2018-09-11T10:23:24Z</time>
      </trkpt>
      <trkpt lat="46.640717" lon="12.054860">
        <ele>2008.327</ele>
        <time>2018-09-11T10:23:25Z</time>
      </trkpt>
      <trkpt lat="46.640715" lon="12.054892">
        <ele>2008.368</ele>
        <time>2018-09-11T10:23:26Z</time>
      </trkpt>
      <trkpt lat="46.640713" lon="12.054925">
        <ele>2007.814</ele>
        <time>2018-09-11T10:23:27Z</time>
      </trkpt>
      <trkpt lat="46.640709" lon="12.054958">
        <ele>2007.808</ele>
        <time>2018-09-11T10:23:28Z</time>
      </trkpt>
      <trkpt lat="46.640701" lon="12.054991">
        <ele>2007.856</ele>
        <time>2018-09-11T10:23:29Z</time>
      </trkpt>
      <trkpt lat="46.640613" lon="12.055381">
        <ele>2010.298</ele>
        <time>2018-09-11T10:23:41Z</time>
      </trkpt>
      <trkpt lat="46.640437" lon="12.055826">
        <ele>2013.177</ele>
        <time>2018-09-11T10:23:57Z</time>
      </trkpt>
      <trkpt lat="46.640269" lon="12.056237">
        <ele>2016.966</ele>
        <time>2018-09-11T10:24:15Z</time>
      </trkpt>
      <trkpt lat="46.640226" lon="12.056593">
        <ele>2016.922</ele>
        <time>2018-09-11T10:24:29Z</time>
      </trkpt>
      <trkpt lat="46.640139" lon="12.056904">
        <ele>2018.978</ele>
        <time>2018-09-11T10:24:43Z</time>
      </trkpt>
      <trkpt lat="46.640013" lon="12.057218">
        <ele>2021.731</ele>
        <time>2018-09-11T10:25:02Z</time>
      </trkpt>
      <trkpt lat="46.639904" lon="12.057327">
        <ele>2025.144</ele>
        <time>2018-09-11T10:25:15Z</time>
      </trkpt>
      <trkpt lat="46.639883" lon="12.057326">
        <ele>2025.114</ele>
        <time>2018-09-11T10:25:17Z</time>
      </trkpt>
      <trkpt lat="46.639872" lon="12.057330">
        <ele>2025.154</ele>
        <time>2018-09-11T10:25:18Z</time>
      </trkpt>
      <trkpt lat="46.639860" lon="12.057334">
        <ele>2025.609</ele>
        <time>2018-09-11T10:25:19Z</time>
      </trkpt>
      <trkpt lat="46.639693" lon="12.057496">
        <ele>2028.508</ele>
        <time>2018-09-11T10:25:36Z</time>
      </trkpt>
      <trkpt lat="46.639566" lon="12.057917">
        <ele>2028.035</ele>
        <time>2018-09-11T10:25:48Z</time>
      </trkpt>
      <trkpt lat="46.639569" lon="12.058543">
        <ele>2027.027</ele>
        <time>2018-09-11T10:26:04Z</time>
      </trkpt>
      <trkpt lat="46.639489" lon="12.059146">
        <ele>2027.586</ele>
        <time>2018-09-11T10:26:17Z</time>
      </trkpt>
      <trkpt lat="46.639473" lon="12.059205">
        <ele>2027.545</ele>
        <time>2018-09-11T10:26:18Z</time>
      </trkpt>
      <trkpt lat="46.639452" lon="12.059259">
        <ele>2027.031</ele>
        <time>2018-09-11T10:26:19Z</time>
      </trkpt>
      <trkpt lat="46.639428" lon="12.059306">
        <ele>2027.077</ele>
        <time>2018-09-11T10:26:20Z</time>
      </trkpt>
      <trkpt lat="46.639257" lon="12.059488">
        <ele>2025.660</ele>
        <time>2018-09-11T10:26:26Z</time>
      </trkpt>
      <trkpt lat="46.639218" lon="12.059509">
        <ele>2025.163</ele>
        <time>2018-09-11T10:26:27Z</time>
      </trkpt>
      <trkpt lat="46.639181" lon="12.059532">
        <ele>2024.114</ele>
        <time>2018-09-11T10:26:28Z</time>
      </trkpt>
      <trkpt lat="46.639144" lon="12.059560">
        <ele>2023.754</ele>
        <time>2018-09-11T10:26:29Z</time>
      </trkpt>
      <trkpt lat="46.639107" lon="12.059591">
        <ele>2022.709</ele>
        <time>2018-09-11T10:26:30Z</time>
      </trkpt>
      <trkpt lat="46.638869" lon="12.059822">
        <ele>2015.508</ele>
        <time>2018-09-11T10:26:37Z</time>
      </trkpt>
      <trkpt lat="46.638833" lon="12.059854">
        <ele>2015.015</ele>
        <time>2018-09-11T10:26:38Z</time>
      </trkpt>
      <trkpt lat="46.638795" lon="12.059879">
        <ele>2014.567</ele>
        <time>2018-09-11T10:26:39Z</time>
      </trkpt>
      <trkpt lat="46.638755" lon="12.059887">
        <ele>2013.686</ele>
        <time>2018-09-11T10:26:40Z</time>
      </trkpt>
      <trkpt lat="46.638718" lon="12.059885">
        <ele>2012.635</ele>
        <time>2018-09-11T10:26:41Z</time>
      </trkpt>
      <trkpt lat="46.638684" lon="12.059878">
        <ele>2012.131</ele>
        <time>2018-09-11T10:26:42Z</time>
      </trkpt>
      <trkpt lat="46.638651" lon="12.059864">
        <ele>2011.737</ele>
        <time>2018-09-11T10:26:43Z</time>
      </trkpt>
      <trkpt lat="46.638617" lon="12.059843">
        <ele>2010.790</ele>
        <time>2018-09-11T10:26:44Z</time>
      </trkpt>
      <trkpt lat="46.638581" lon="12.059821">
        <ele>2009.773</ele>
        <time>2018-09-11T10:26:45Z</time>
      </trkpt>
      <trkpt lat="46.638542" lon="12.059797">
        <ele>2008.894</ele>
        <time>2018-09-11T10:26:46Z</time>
      </trkpt>
      <trkpt lat="46.638345" lon="12.059689">
        <ele>2004.457</ele>
        <time>2018-09-11T10:26:51Z</time>
      </trkpt>
      <trkpt lat="46.638304" lon="12.059681">
        <ele>2003.522</ele>
        <time>2018-09-11T10:26:52Z</time>
      </trkpt>
      <trkpt lat="46.638260" lon="12.059684">
        <ele>2002.508</ele>
        <time>2018-09-11T10:26:53Z</time>
      </trkpt>
      <trkpt lat="46.638213" lon="12.059699">
        <ele>2002.033</ele>
        <time>2018-09-11T10:26:54Z</time>
      </trkpt>
      <trkpt lat="46.638166" lon="12.059722">
        <ele>2001.175</ele>
        <time>2018-09-11T10:26:55Z</time>
      </trkpt>
      <trkpt lat="46.638122" lon="12.059747">
        <ele>2000.654</ele>
        <time>2018-09-11T10:26:56Z</time>
      </trkpt>
      <trkpt lat="46.638082" lon="12.059776">
        <ele>2000.173</ele>
        <time>2018-09-11T10:26:57Z</time>
      </trkpt>
      <trkpt lat="46.638046" lon="12.059807">
        <ele>1999.699</ele>
        <time>2018-09-11T10:26:58Z</time>
      </trkpt>
      <trkpt lat="46.638014" lon="12.059843">
        <ele>1999.225</ele>
        <time>2018-09-11T10:26:59Z</time>
      </trkpt>
      <trkpt lat="46.637980" lon="12.059888">
        <ele>1998.268</ele>
        <time>2018-09-11T10:27:00Z</time>
      </trkpt>
      <trkpt lat="46.637952" lon="12.059922">
        <ele>1997.791</ele>
        <time>2018-09-11T10:27:01Z</time>
      </trkpt>
      <trkpt lat="46.637919" lon="12.059950">
        <ele>1997.244</ele>
        <time>2018-09-11T10:27:02Z</time>
      </trkpt>
      <trkpt lat="46.637883" lon="12.059965">
        <ele>1996.305</ele>
        <time>2018-09-11T10:27:03Z</time>
      </trkpt>
      <trkpt lat="46.637843" lon="12.059965">
        <ele>1995.315</ele>
        <time>2018-09-11T10:27:04Z</time>
      </trkpt>
      <trkpt lat="46.637804" lon="12.059949">
        <ele>1994.808</ele>
        <time>2018-09-11T10:27:05Z</time>
      </trkpt>
      <trkpt lat="46.637767" lon="12.059915">
        <ele>1994.878</ele>
        <time>2018-09-11T10:27:06Z</time>
      </trkpt>
      <trkpt lat="46.637742" lon="12.059873">
        <ele>1994.390</ele>
        <time>2018-09-11T10:27:07Z</time>
      </trkpt>
      <trkpt lat="46.637719" lon="12.059831">
        <ele>1994.329</ele>
        <time>2018-09-11T10:27:08Z</time>
      </trkpt>
      <trkpt lat="46.637692" lon="12.059789">
        <ele>1993.988</ele>
        <time>2018-09-11T10:27:09Z</time>
      </trkpt>
      <trkpt lat="46.637663" lon="12.059755">
        <ele>1992.914</ele>
        <time>2018-09-11T10:27:10Z</time>
      </trkpt>
      <trkpt lat="46.637273" lon="12.059662">
        <ele>1986.790</ele>
        <time>2018-09-11T10:27:21Z</time>
      </trkpt>
      <trkpt lat="46.636936" lon="12.059765">
        <ele>1981.923</ele>
        <time>2018-09-11T10:27:32Z</time>
      </trkpt>
      <trkpt lat="46.636592" lon="12.059912">
        <ele>1974.256</ele>
        <time>2018-09-11T10:27:45Z</time>
      </trkpt>
      <trkpt lat="46.636289" lon="12.060104">
        <ele>1971.319</ele>
        <time>2018-09-11T10:27:59Z</time>
      </trkpt>
      <trkpt lat="46.636281" lon="12.060111">
        <ele>1973.209</ele>
        <time>2018-09-11T10:28:11Z</time>
      </trkpt>
      <trkpt lat="46.636273" lon="12.060126">
        <ele>1969.819</ele>
        <time>2018-09-11T10:28:36Z</time>
      </trkpt>
      <trkpt lat="46.636261" lon="12.060094">
        <ele>1970.808</ele>
        <time>2018-09-11T10:28:50Z</time>
      </trkpt>
      <trkpt lat="46.636250" lon="12.060072">
        <ele>1970.315</ele>
        <time>2018-09-11T10:28:51Z</time>
      </trkpt>
      <trkpt lat="46.636241" lon="12.060037">
        <ele>1970.327</ele>
        <time>2018-09-11T10:28:52Z</time>
      </trkpt>
      <trkpt lat="46.636231" lon="12.059996">
        <ele>1969.856</ele>
        <time>2018-09-11T10:28:53Z</time>
      </trkpt>
      <trkpt lat="46.636224" lon="12.059950">
        <ele>1969.435</ele>
        <time>2018-09-11T10:28:54Z</time>
      </trkpt>
      <trkpt lat="46.636218" lon="12.059900">
        <ele>1968.921</ele>
        <time>2018-09-11T10:28:55Z</time>
      </trkpt>
      <trkpt lat="46.636184" lon="12.059647">
        <ele>1965.527</ele>
        <time>2018-09-11T10:28:59Z</time>
      </trkpt>
      <trkpt lat="46.636165" lon="12.059578">
        <ele>1964.570</ele>
        <time>2018-09-11T10:29:00Z</time>
      </trkpt>
      <trkpt lat="46.636042" lon="12.059217">
        <ele>1963.173</ele>
        <time>2018-09-11T10:29:05Z</time>
      </trkpt>
      <trkpt lat="46.636021" lon="12.059170">
        <ele>1963.691</ele>
        <time>2018-09-11T10:29:06Z</time>
      </trkpt>
      <trkpt lat="46.636005" lon="12.059137">
        <ele>1964.181</ele>
        <time>2018-09-11T10:29:07Z</time>
      </trkpt>
      <trkpt lat="46.635994" lon="12.059114">
        <ele>1964.519</ele>
        <time>2018-09-11T10:29:08Z</time>
      </trkpt>
      <trkpt lat="46.635987" lon="12.059102">
        <ele>1964.508</ele>
        <time>2018-09-11T10:29:09Z</time>
      </trkpt>
      <trkpt lat="46.635978" lon="12.059092">
        <ele>1964.513</ele>
        <time>2018-09-11T10:29:10Z</time>
      </trkpt>
      <trkpt lat="46.635962" lon="12.059073">
        <ele>1965.065</ele>
        <time>2018-09-11T10:29:12Z</time>
      </trkpt>
      <trkpt lat="46.635952" lon="12.059066">
        <ele>1965.064</ele>
        <time>2018-09-11T10:29:13Z</time>
      </trkpt>
      <trkpt lat="46.635946" lon="12.059053">
        <ele>1965.583</ele>
        <time>2018-09-11T10:29:14Z</time>
      </trkpt>
      <trkpt lat="46.635933" lon="12.059003">
        <ele>1966.079</ele>
        <time>2018-09-11T10:29:17Z</time>
      </trkpt>
      <trkpt lat="46.635927" lon="12.058992">
        <ele>1966.585</ele>
        <time>2018-09-11T10:29:18Z</time>
      </trkpt>
      <trkpt lat="46.635823" lon="12.058796">
        <ele>1968.488</ele>
        <time>2018-09-11T10:29:34Z</time>
      </trkpt>
      <trkpt lat="46.635803" lon="12.058761">
        <ele>1969.421</ele>
        <time>2018-09-11T10:29:37Z</time>
      </trkpt>
      <trkpt lat="46.635682" lon="12.058639">
        <ele>1973.224</ele>
        <time>2018-09-11T10:29:53Z</time>
      </trkpt>
      <trkpt lat="46.635559" lon="12.058502">
        <ele>1975.604</ele>
        <time>2018-09-11T10:30:09Z</time>
      </trkpt>
      <trkpt lat="46.635552" lon="12.058489">
        <ele>1975.614</ele>
        <time>2018-09-11T10:30:10Z</time>
      </trkpt>
      <trkpt lat="46.635544" lon="12.058478">
        <ele>1976.108</ele>
        <time>2018-09-11T10:30:11Z</time>
      </trkpt>
      <trkpt lat="46.635538" lon="12.058466">
        <ele>1976.186</ele>
        <time>2018-09-11T10:30:12Z</time>
      </trkpt>
      <trkpt lat="46.635530" lon="12.058453">
        <ele>1976.158</ele>
        <time>2018-09-11T10:30:13Z</time>
      </trkpt>
      <trkpt lat="46.635521" lon="12.058442">
        <ele>1976.677</ele>
        <time>2018-09-11T10:30:14Z</time>
      </trkpt>
      <trkpt lat="46.635514" lon="12.058429">
        <ele>1977.076</ele>
        <time>2018-09-11T10:30:15Z</time>
      </trkpt>
      <trkpt lat="46.635507" lon="12.058417">
        <ele>1976.652</ele>
        <time>2018-09-11T10:30:16Z</time>
      </trkpt>
      <trkpt lat="46.635415" lon="12.058243">
        <ele>1979.498</ele>
        <time>2018-09-11T10:30:31Z</time>
      </trkpt>
      <trkpt lat="46.635389" lon="12.058202">
        <ele>1981.481</ele>
        <time>2018-09-11T10:30:43Z</time>
      </trkpt>
      <trkpt lat="46.635323" lon="12.058082">
        <ele>1981.434</ele>
        <time>2018-09-11T10:30:59Z</time>
      </trkpt>
      <trkpt lat="46.635284" lon="12.057938">
        <ele>1983.314</ele>
        <time>2018-09-11T10:31:19Z</time>
      </trkpt>
      <trkpt lat="46.635278" lon="12.057918">
        <ele>1983.854</ele>
        <time>2018-09-11T10:31:32Z</time>
      </trkpt>
      <trkpt lat="46.635301" lon="12.057900">
        <ele>1984.709</ele>
        <time>2018-09-11T10:31:52Z</time>
      </trkpt>
      <trkpt lat="46.635345" lon="12.057689">
        <ele>1985.708</ele>
        <time>2018-09-11T10:32:12Z</time>
      </trkpt>
      <trkpt lat="46.635348" lon="12.057687">
        <ele>1985.755</ele>
        <time>2018-09-11T10:32:33Z</time>
      </trkpt>
      <trkpt lat="46.635340" lon="12.057674">
        <ele>1986.787</ele>
        <time>2018-09-11T10:33:04Z</time>
      </trkpt>
      <trkpt lat="46.635367" lon="12.057620">
        <ele>1987.186</ele>
        <time>2018-09-11T10:33:23Z</time>
      </trkpt>
      <trkpt lat="46.635626" lon="12.057540">
        <ele>1984.795</ele>
        <time>2018-09-11T10:33:37Z</time>
      </trkpt>
      <trkpt lat="46.635797" lon="12.057504">
        <ele>1978.551</ele>
        <time>2018-09-11T10:33:50Z</time>
      </trkpt>
      <trkpt lat="46.635797" lon="12.057480">
        <ele>1978.047</ele>
        <time>2018-09-11T10:33:51Z</time>
      </trkpt>
      <trkpt lat="46.635794" lon="12.057454">
        <ele>1977.510</ele>
        <time>2018-09-11T10:33:52Z</time>
      </trkpt>
      <trkpt lat="46.635788" lon="12.057424">
        <ele>1976.673</ele>
        <time>2018-09-11T10:33:53Z</time>
      </trkpt>
      <trkpt lat="46.635777" lon="12.057394">
        <ele>1976.175</ele>
        <time>2018-09-11T10:33:54Z</time>
      </trkpt>
      <trkpt lat="46.635763" lon="12.057367">
        <ele>1975.128</ele>
        <time>2018-09-11T10:33:55Z</time>
      </trkpt>
      <trkpt lat="46.635748" lon="12.057343">
        <ele>1974.620</ele>
        <time>2018-09-11T10:33:56Z</time>
      </trkpt>
      <trkpt lat="46.635729" lon="12.057322">
        <ele>1974.208</ele>
        <time>2018-09-11T10:33:57Z</time>
      </trkpt>
      <trkpt lat="46.635713" lon="12.057302">
        <ele>1973.291</ele>
        <time>2018-09-11T10:33:58Z</time>
      </trkpt>
      <trkpt lat="46.635701" lon="12.057280">
        <ele>1972.723</ele>
        <time>2018-09-11T10:33:59Z</time>
      </trkpt>
      <trkpt lat="46.635695" lon="12.057254">
        <ele>1972.262</ele>
        <time>2018-09-11T10:34:00Z</time>
      </trkpt>
      <trkpt lat="46.635693" lon="12.057228">
        <ele>1971.371</ele>
        <time>2018-09-11T10:34:01Z</time>
      </trkpt>
      <trkpt lat="46.635693" lon="12.057201">
        <ele>1970.817</ele>
        <time>2018-09-11T10:34:02Z</time>
      </trkpt>
      <trkpt lat="46.635696" lon="12.057176">
        <ele>1970.383</ele>
        <time>2018-09-11T10:34:03Z</time>
      </trkpt>
      <trkpt lat="46.635700" lon="12.057148">
        <ele>1969.876</ele>
        <time>2018-09-11T10:34:04Z</time>
      </trkpt>
      <trkpt lat="46.635703" lon="12.057121">
        <ele>1968.999</ele>
        <time>2018-09-11T10:34:05Z</time>
      </trkpt>
      <trkpt lat="46.635703" lon="12.057091">
        <ele>1968.439</ele>
        <time>2018-09-11T10:34:06Z</time>
      </trkpt>
      <trkpt lat="46.635702" lon="12.057058">
        <ele>1967.401</ele>
        <time>2018-09-11T10:34:07Z</time>
      </trkpt>
      <trkpt lat="46.635686" lon="12.056632">
        <ele>1960.721</ele>
        <time>2018-09-11T10:34:19Z</time>
      </trkpt>
      <trkpt lat="46.635665" lon="12.056625">
        <ele>1964.508</ele>
        <time>2018-09-11T10:34:42Z</time>
      </trkpt>
      <trkpt lat="46.635667" lon="12.056606">
        <ele>1964.527</ele>
        <time>2018-09-11T10:35:24Z</time>
      </trkpt>
      <trkpt lat="46.635650" lon="12.056276">
        <ele>1961.799</ele>
        <time>2018-09-11T10:35:34Z</time>
      </trkpt>
      <trkpt lat="46.635597" lon="12.055535">
        <ele>1953.048</ele>
        <time>2018-09-11T10:35:46Z</time>
      </trkpt>
      <trkpt lat="46.635606" lon="12.055388">
        <ele>1951.657</ele>
        <time>2018-09-11T10:35:48Z</time>
      </trkpt>
      <trkpt lat="46.635690" lon="12.055099">
        <ele>1948.293</ele>
        <time>2018-09-11T10:35:53Z</time>
      </trkpt>
      <trkpt lat="46.635725" lon="12.055074">
        <ele>1947.759</ele>
        <time>2018-09-11T10:35:54Z</time>
      </trkpt>
      <trkpt lat="46.635766" lon="12.055070">
        <ele>1947.282</ele>
        <time>2018-09-11T10:35:55Z</time>
      </trkpt>
      <trkpt lat="46.635980" lon="12.055050">
        <ele>1944.895</ele>
        <time>2018-09-11T10:36:00Z</time>
      </trkpt>
      <trkpt lat="46.636021" lon="12.055034">
        <ele>1944.442</ele>
        <time>2018-09-11T10:36:01Z</time>
      </trkpt>
      <trkpt lat="46.636553" lon="12.054740">
        <ele>1937.122</ele>
        <time>2018-09-11T10:36:15Z</time>
      </trkpt>
      <trkpt lat="46.636583" lon="12.054702">
        <ele>1936.714</ele>
        <time>2018-09-11T10:36:16Z</time>
      </trkpt>
      <trkpt lat="46.636695" lon="12.054519">
        <ele>1932.308</ele>
        <time>2018-09-11T10:36:20Z</time>
      </trkpt>
      <trkpt lat="46.636718" lon="12.054466">
        <ele>1931.918</ele>
        <time>2018-09-11T10:36:21Z</time>
      </trkpt>
      <trkpt lat="46.636743" lon="12.054412">
        <ele>1930.980</ele>
        <time>2018-09-11T10:36:22Z</time>
      </trkpt>
      <trkpt lat="46.636768" lon="12.054361">
        <ele>1929.919</ele>
        <time>2018-09-11T10:36:23Z</time>
      </trkpt>
      <trkpt lat="46.636795" lon="12.054313">
        <ele>1929.548</ele>
        <time>2018-09-11T10:36:24Z</time>
      </trkpt>
      <trkpt lat="46.636912" lon="12.054066">
        <ele>1925.124</ele>
        <time>2018-09-11T10:36:29Z</time>
      </trkpt>
      <trkpt lat="46.636936" lon="12.054016">
        <ele>1924.240</ele>
        <time>2018-09-11T10:36:30Z</time>
      </trkpt>
      <trkpt lat="46.637236" lon="12.053533">
        <ele>1916.023</ele>
        <time>2018-09-11T10:36:41Z</time>
      </trkpt>
      <trkpt lat="46.637653" lon="12.053008">
        <ele>1908.376</ele>
        <time>2018-09-11T10:36:55Z</time>
      </trkpt>
      <trkpt lat="46.637937" lon="12.052544">
        <ele>1902.558</ele>
        <time>2018-09-11T10:37:06Z</time>
      </trkpt>
      <trkpt lat="46.638058" lon="12.052303">
        <ele>1900.652</ele>
        <time>2018-09-11T10:37:11Z</time>
      </trkpt>
      <trkpt lat="46.638081" lon="12.052251">
        <ele>1899.717</ele>
        <time>2018-09-11T10:37:12Z</time>
      </trkpt>
      <trkpt lat="46.638110" lon="12.052209">
        <ele>1899.708</ele>
        <time>2018-09-11T10:37:13Z</time>
      </trkpt>
      <trkpt lat="46.638141" lon="12.052177">
        <ele>1899.279</ele>
        <time>2018-09-11T10:37:14Z</time>
      </trkpt>
      <trkpt lat="46.638174" lon="12.052151">
        <ele>1899.211</ele>
        <time>2018-09-11T10:37:15Z</time>
      </trkpt>
      <trkpt lat="46.638210" lon="12.052122">
        <ele>1898.760</ele>
        <time>2018-09-11T10:37:16Z</time>
      </trkpt>
      <trkpt lat="46.638582" lon="12.051693">
        <ele>1893.439</ele>
        <time>2018-09-11T10:37:29Z</time>
      </trkpt>
      <trkpt lat="46.638658" lon="12.051204">
        <ele>1883.835</ele>
        <time>2018-09-11T10:37:41Z</time>
      </trkpt>
      <trkpt lat="46.638393" lon="12.050778">
        <ele>1872.761</ele>
        <time>2018-09-11T10:37:54Z</time>
      </trkpt>
      <trkpt lat="46.638337" lon="12.050489">
        <ele>1867.564</ele>
        <time>2018-09-11T10:38:01Z</time>
      </trkpt>
      <trkpt lat="46.638352" lon="12.050464">
        <ele>1867.027</ele>
        <time>2018-09-11T10:38:02Z</time>
      </trkpt>
      <trkpt lat="46.638373" lon="12.050457">
        <ele>1866.056</ele>
        <time>2018-09-11T10:38:03Z</time>
      </trkpt>
      <trkpt lat="46.638395" lon="12.050466">
        <ele>1866.059</ele>
        <time>2018-09-11T10:38:04Z</time>
      </trkpt>
      <trkpt lat="46.638416" lon="12.050481">
        <ele>1865.514</ele>
        <time>2018-09-11T10:38:05Z</time>
      </trkpt>
      <trkpt lat="46.638440" lon="12.050494">
        <ele>1865.008</ele>
        <time>2018-09-11T10:38:06Z</time>
      </trkpt>
      <trkpt lat="46.638663" lon="12.050677">
        <ele>1858.319</ele>
        <time>2018-09-11T10:38:16Z</time>
      </trkpt>
      <trkpt lat="46.638685" lon="12.050668">
        <ele>1857.861</ele>
        <time>2018-09-11T10:38:17Z</time>
      </trkpt>
      <trkpt lat="46.638700" lon="12.050648">
        <ele>1856.940</ele>
        <time>2018-09-11T10:38:18Z</time>
      </trkpt>
      <trkpt lat="46.638711" lon="12.050615">
        <ele>1855.959</ele>
        <time>2018-09-11T10:38:19Z</time>
      </trkpt>
      <trkpt lat="46.638716" lon="12.050581">
        <ele>1854.515</ele>
        <time>2018-09-11T10:38:20Z</time>
      </trkpt>
      <trkpt lat="46.638714" lon="12.050551">
        <ele>1853.591</ele>
        <time>2018-09-11T10:38:21Z</time>
      </trkpt>
      <trkpt lat="46.638707" lon="12.050515">
        <ele>1852.634</ele>
        <time>2018-09-11T10:38:22Z</time>
      </trkpt>
      <trkpt lat="46.638700" lon="12.050478">
        <ele>1852.147</ele>
        <time>2018-09-11T10:38:23Z</time>
      </trkpt>
      <trkpt lat="46.638692" lon="12.050443">
        <ele>1851.652</ele>
        <time>2018-09-11T10:38:24Z</time>
      </trkpt>
      <trkpt lat="46.638679" lon="12.050409">
        <ele>1851.153</ele>
        <time>2018-09-11T10:38:25Z</time>
      </trkpt>
      <trkpt lat="46.638666" lon="12.050372">
        <ele>1850.108</ele>
        <time>2018-09-11T10:38:26Z</time>
      </trkpt>
      <trkpt lat="46.638653" lon="12.050333">
        <ele>1849.708</ele>
        <time>2018-09-11T10:38:27Z</time>
      </trkpt>
      <trkpt lat="46.638408" lon="12.049919">
        <ele>1844.429</ele>
        <time>2018-09-11T10:38:40Z</time>
      </trkpt>
      <trkpt lat="46.638243" lon="12.049601">
        <ele>1841.051</ele>
        <time>2018-09-11T10:38:47Z</time>
      </trkpt>
      <trkpt lat="46.638225" lon="12.049539">
        <ele>1840.590</ele>
        <time>2018-09-11T10:38:48Z</time>
      </trkpt>
      <trkpt lat="46.638217" lon="12.049475">
        <ele>1840.169</ele>
        <time>2018-09-11T10:38:49Z</time>
      </trkpt>
      <trkpt lat="46.638207" lon="12.049232">
        <ele>1839.165</ele>
        <time>2018-09-11T10:38:53Z</time>
      </trkpt>
      <trkpt lat="46.638211" lon="12.049170">
        <ele>1839.131</ele>
        <time>2018-09-11T10:38:54Z</time>
      </trkpt>
      <trkpt lat="46.638220" lon="12.049112">
        <ele>1838.114</ele>
        <time>2018-09-11T10:38:55Z</time>
      </trkpt>
      <trkpt lat="46.638392" lon="12.048701">
        <ele>1833.337</ele>
        <time>2018-09-11T10:39:04Z</time>
      </trkpt>
      <trkpt lat="46.638384" lon="12.048588">
        <ele>1832.475</ele>
        <time>2018-09-11T10:39:09Z</time>
      </trkpt>
      <trkpt lat="46.638367" lon="12.048576">
        <ele>1832.428</ele>
        <time>2018-09-11T10:39:10Z</time>
      </trkpt>
      <trkpt lat="46.638341" lon="12.048568">
        <ele>1832.420</ele>
        <time>2018-09-11T10:39:11Z</time>
      </trkpt>
      <trkpt lat="46.638134" lon="12.048561">
        <ele>1829.008</ele>
        <time>2018-09-11T10:39:18Z</time>
      </trkpt>
      <trkpt lat="46.638117" lon="12.048539">
        <ele>1828.551</ele>
        <time>2018-09-11T10:39:19Z</time>
      </trkpt>
      <trkpt lat="46.638110" lon="12.048513">
        <ele>1828.073</ele>
        <time>2018-09-11T10:39:20Z</time>
      </trkpt>
      <trkpt lat="46.638108" lon="12.048484">
        <ele>1827.642</ele>
        <time>2018-09-11T10:39:21Z</time>
      </trkpt>
      <trkpt lat="46.638114" lon="12.048461">
        <ele>1827.621</ele>
        <time>2018-09-11T10:39:22Z</time>
      </trkpt>
      <trkpt lat="46.638129" lon="12.048444">
        <ele>1826.627</ele>
        <time>2018-09-11T10:39:23Z</time>
      </trkpt>
      <trkpt lat="46.638147" lon="12.048431">
        <ele>1826.153</ele>
        <time>2018-09-11T10:39:24Z</time>
      </trkpt>
      <trkpt lat="46.638217" lon="12.048285">
        <ele>1823.276</ele>
        <time>2018-09-11T10:39:30Z</time>
      </trkpt>
      <trkpt lat="46.638210" lon="12.048263">
        <ele>1822.859</ele>
        <time>2018-09-11T10:39:31Z</time>
      </trkpt>
      <trkpt lat="46.638202" lon="12.048245">
        <ele>1822.833</ele>
        <time>2018-09-11T10:39:32Z</time>
      </trkpt>
      <trkpt lat="46.638190" lon="12.048227">
        <ele>1822.323</ele>
        <time>2018-09-11T10:39:33Z</time>
      </trkpt>
      <trkpt lat="46.638175" lon="12.048206">
        <ele>1821.315</ele>
        <time>2018-09-11T10:39:34Z</time>
      </trkpt>
      <trkpt lat="46.638163" lon="12.048179">
        <ele>1820.808</ele>
        <time>2018-09-11T10:39:35Z</time>
      </trkpt>
      <trkpt lat="46.638152" lon="12.048146">
        <ele>1820.387</ele>
        <time>2018-09-11T10:39:36Z</time>
      </trkpt>
      <trkpt lat="46.638138" lon="12.048109">
        <ele>1819.469</ele>
        <time>2018-09-11T10:39:37Z</time>
      </trkpt>
      <trkpt lat="46.638125" lon="12.048069">
        <ele>1818.938</ele>
        <time>2018-09-11T10:39:38Z</time>
      </trkpt>
      <trkpt lat="46.638117" lon="12.048027">
        <ele>1818.417</ele>
        <time>2018-09-11T10:39:39Z</time>
      </trkpt>
      <trkpt lat="46.638117" lon="12.047988">
        <ele>1817.543</ele>
        <time>2018-09-11T10:39:40Z</time>
      </trkpt>
      <trkpt lat="46.638119" lon="12.047945">
        <ele>1817.079</ele>
        <time>2018-09-11T10:39:41Z</time>
      </trkpt>
      <trkpt lat="46.638225" lon="12.047317">
        <ele>1808.352</ele>
        <time>2018-09-11T10:39:56Z</time>
      </trkpt>
      <trkpt lat="46.638344" lon="12.046831">
        <ele>1801.175</ele>
        <time>2018-09-11T10:40:08Z</time>
      </trkpt>
      <trkpt lat="46.638357" lon="12.046757">
        <ele>1798.742</ele>
        <time>2018-09-11T10:40:11Z</time>
      </trkpt>
      <trkpt lat="46.638372" lon="12.046637">
        <ele>1794.422</ele>
        <time>2018-09-11T10:40:16Z</time>
      </trkpt>
      <trkpt lat="46.638388" lon="12.046622">
        <ele>1793.414</ele>
        <time>2018-09-11T10:40:17Z</time>
      </trkpt>
      <trkpt lat="46.638408" lon="12.046616">
        <ele>1793.408</ele>
        <time>2018-09-11T10:40:18Z</time>
      </trkpt>
      <trkpt lat="46.638429" lon="12.046616">
        <ele>1793.048</ele>
        <time>2018-09-11T10:40:19Z</time>
      </trkpt>
      <trkpt lat="46.638451" lon="12.046622">
        <ele>1792.520</ele>
        <time>2018-09-11T10:40:20Z</time>
      </trkpt>
      <trkpt lat="46.638473" lon="12.046629">
        <ele>1792.529</ele>
        <time>2018-09-11T10:40:21Z</time>
      </trkpt>
      <trkpt lat="46.638584" lon="12.046590">
        <ele>1790.188</ele>
        <time>2018-09-11T10:40:26Z</time>
      </trkpt>
      <trkpt lat="46.638596" lon="12.046557">
        <ele>1789.634</ele>
        <time>2018-09-11T10:40:27Z</time>
      </trkpt>
      <trkpt lat="46.638600" lon="12.046520">
        <ele>1789.180</ele>
        <time>2018-09-11T10:40:28Z</time>
      </trkpt>
      <trkpt lat="46.638595" lon="12.046484">
        <ele>1788.623</ele>
        <time>2018-09-11T10:40:29Z</time>
      </trkpt>
      <trkpt lat="46.638583" lon="12.046458">
        <ele>1788.126</ele>
        <time>2018-09-11T10:40:30Z</time>
      </trkpt>
      <trkpt lat="46.638563" lon="12.046435">
        <ele>1787.763</ele>
        <time>2018-09-11T10:40:31Z</time>
      </trkpt>
      <trkpt lat="46.638540" lon="12.046416">
        <ele>1787.244</ele>
        <time>2018-09-11T10:40:32Z</time>
      </trkpt>
      <trkpt lat="46.638510" lon="12.046406">
        <ele>1786.718</ele>
        <time>2018-09-11T10:40:33Z</time>
      </trkpt>
      <trkpt lat="46.638481" lon="12.046397">
        <ele>1786.208</ele>
        <time>2018-09-11T10:40:34Z</time>
      </trkpt>
      <trkpt lat="46.638262" lon="12.046289">
        <ele>1781.960</ele>
        <time>2018-09-11T10:40:42Z</time>
      </trkpt>
      <trkpt lat="46.638260" lon="12.046254">
        <ele>1781.452</ele>
        <time>2018-09-11T10:40:43Z</time>
      </trkpt>
      <trkpt lat="46.638266" lon="12.046222">
        <ele>1781.481</ele>
        <time>2018-09-11T10:40:44Z</time>
      </trkpt>
      <trkpt lat="46.638277" lon="12.046200">
        <ele>1780.930</ele>
        <time>2018-09-11T10:40:45Z</time>
      </trkpt>
      <trkpt lat="46.638293" lon="12.046185">
        <ele>1780.546</ele>
        <time>2018-09-11T10:40:46Z</time>
      </trkpt>
      <trkpt lat="46.638308" lon="12.046178">
        <ele>1780.012</ele>
        <time>2018-09-11T10:40:47Z</time>
      </trkpt>
      <trkpt lat="46.638329" lon="12.046171">
        <ele>1779.575</ele>
        <time>2018-09-11T10:40:48Z</time>
      </trkpt>
      <trkpt lat="46.638354" lon="12.046168">
        <ele>1779.098</ele>
        <time>2018-09-11T10:40:49Z</time>
      </trkpt>
      <trkpt lat="46.638382" lon="12.046168">
        <ele>1778.583</ele>
        <time>2018-09-11T10:40:50Z</time>
      </trkpt>
      <trkpt lat="46.638409" lon="12.046165">
        <ele>1777.625</ele>
        <time>2018-09-11T10:40:51Z</time>
      </trkpt>
      <trkpt lat="46.638429" lon="12.046159">
        <ele>1777.117</ele>
        <time>2018-09-11T10:40:52Z</time>
      </trkpt>
      <trkpt lat="46.638450" lon="12.046151">
        <ele>1776.608</ele>
        <time>2018-09-11T10:40:53Z</time>
      </trkpt>
      <trkpt lat="46.638469" lon="12.046143">
        <ele>1776.652</ele>
        <time>2018-09-11T10:40:54Z</time>
      </trkpt>
      <trkpt lat="46.638490" lon="12.046130">
        <ele>1776.144</ele>
        <time>2018-09-11T10:40:55Z</time>
      </trkpt>
      <trkpt lat="46.638511" lon="12.046116">
        <ele>1775.643</ele>
        <time>2018-09-11T10:40:56Z</time>
      </trkpt>
      <trkpt lat="46.638672" lon="12.045996">
        <ele>1774.732</ele>
        <time>2018-09-11T10:41:04Z</time>
      </trkpt>
      <trkpt lat="46.638677" lon="12.045955">
        <ele>1774.248</ele>
        <time>2018-09-11T10:41:05Z</time>
      </trkpt>
      <trkpt lat="46.638674" lon="12.045917">
        <ele>1773.224</ele>
        <time>2018-09-11T10:41:06Z</time>
      </trkpt>
      <trkpt lat="46.638661" lon="12.045883">
        <ele>1772.817</ele>
        <time>2018-09-11T10:41:07Z</time>
      </trkpt>
      <trkpt lat="46.638644" lon="12.045857">
        <ele>1772.330</ele>
        <time>2018-09-11T10:41:08Z</time>
      </trkpt>
      <trkpt lat="46.638622" lon="12.045837">
        <ele>1772.319</ele>
        <time>2018-09-11T10:41:09Z</time>
      </trkpt>
      <trkpt lat="46.638597" lon="12.045823">
        <ele>1771.809</ele>
        <time>2018-09-11T10:41:10Z</time>
      </trkpt>
      <trkpt lat="46.638495" lon="12.045741">
        <ele>1770.419</ele>
        <time>2018-09-11T10:41:14Z</time>
      </trkpt>
      <trkpt lat="46.638459" lon="12.045673">
        <ele>1769.908</ele>
        <time>2018-09-11T10:41:16Z</time>
      </trkpt>
      <trkpt lat="46.638455" lon="12.045628">
        <ele>1769.495</ele>
        <time>2018-09-11T10:41:17Z</time>
      </trkpt>
      <trkpt lat="46.638527" lon="12.045210">
        <ele>1761.727</ele>
        <time>2018-09-11T10:41:29Z</time>
      </trkpt>
      <trkpt lat="46.638591" lon="12.045068">
        <ele>1758.366</ele>
        <time>2018-09-11T10:41:36Z</time>
      </trkpt>
      <trkpt lat="46.638607" lon="12.045056">
        <ele>1758.365</ele>
        <time>2018-09-11T10:41:37Z</time>
      </trkpt>
      <trkpt lat="46.638622" lon="12.045047">
        <ele>1757.941</ele>
        <time>2018-09-11T10:41:38Z</time>
      </trkpt>
      <trkpt lat="46.638834" lon="12.044818">
        <ele>1753.137</ele>
        <time>2018-09-11T10:41:52Z</time>
      </trkpt>
      <trkpt lat="46.638842" lon="12.044796">
        <ele>1752.650</ele>
        <time>2018-09-11T10:41:53Z</time>
      </trkpt>
      <trkpt lat="46.638840" lon="12.044773">
        <ele>1752.653</ele>
        <time>2018-09-11T10:41:54Z</time>
      </trkpt>
      <trkpt lat="46.638835" lon="12.044754">
        <ele>1752.627</ele>
        <time>2018-09-11T10:41:55Z</time>
      </trkpt>
      <trkpt lat="46.638824" lon="12.044745">
        <ele>1752.668</ele>
        <time>2018-09-11T10:41:56Z</time>
      </trkpt>
      <trkpt lat="46.638807" lon="12.044741">
        <ele>1752.114</ele>
        <time>2018-09-11T10:41:57Z</time>
      </trkpt>
      <trkpt lat="46.638793" lon="12.044738">
        <ele>1752.108</ele>
        <time>2018-09-11T10:41:58Z</time>
      </trkpt>
      <trkpt lat="46.638617" lon="12.044723">
        <ele>1746.896</ele>
        <time>2018-09-11T10:42:10Z</time>
      </trkpt>
      <trkpt lat="46.638601" lon="12.044716">
        <ele>1746.398</ele>
        <time>2018-09-11T10:42:11Z</time>
      </trkpt>
      <trkpt lat="46.638589" lon="12.044699">
        <ele>1745.877</ele>
        <time>2018-09-11T10:42:12Z</time>
      </trkpt>
      <trkpt lat="46.638584" lon="12.044678">
        <ele>1745.446</ele>
        <time>2018-09-11T10:42:13Z</time>
      </trkpt>
      <trkpt lat="46.638582" lon="12.044652">
        <ele>1744.972</ele>
        <time>2018-09-11T10:42:14Z</time>
      </trkpt>
      <trkpt lat="46.638581" lon="12.044623">
        <ele>1743.998</ele>
        <time>2018-09-11T10:42:15Z</time>
      </trkpt>
      <trkpt lat="46.638587" lon="12.044595">
        <ele>1743.031</ele>
        <time>2018-09-11T10:42:16Z</time>
      </trkpt>
      <trkpt lat="46.638593" lon="12.044567">
        <ele>1742.014</ele>
        <time>2018-09-11T10:42:17Z</time>
      </trkpt>
      <trkpt lat="46.638598" lon="12.044537">
        <ele>1741.543</ele>
        <time>2018-09-11T10:42:18Z</time>
      </trkpt>
      <trkpt lat="46.638608" lon="12.044508">
        <ele>1740.664</ele>
        <time>2018-09-11T10:42:19Z</time>
      </trkpt>
      <trkpt lat="46.638614" lon="12.044485">
        <ele>1739.610</ele>
        <time>2018-09-11T10:42:20Z</time>
      </trkpt>
      <trkpt lat="46.638623" lon="12.044465">
        <ele>1739.108</ele>
        <time>2018-09-11T10:42:21Z</time>
      </trkpt>
      <trkpt lat="46.638633" lon="12.044449">
        <ele>1738.648</ele>
        <time>2018-09-11T10:42:22Z</time>
      </trkpt>
      <trkpt lat="46.638644" lon="12.044432">
        <ele>1738.230</ele>
        <time>2018-09-11T10:42:23Z</time>
      </trkpt>
      <trkpt lat="46.638654" lon="12.044415">
        <ele>1737.229</ele>
        <time>2018-09-11T10:42:24Z</time>
      </trkpt>
      <trkpt lat="46.638851" lon="12.044190">
        <ele>1729.078</ele>
        <time>2018-09-11T10:42:39Z</time>
      </trkpt>
      <trkpt lat="46.638864" lon="12.044177">
        <ele>1728.524</ele>
        <time>2018-09-11T10:42:40Z</time>
      </trkpt>
      <trkpt lat="46.638877" lon="12.044155">
        <ele>1728.140</ele>
        <time>2018-09-11T10:42:41Z</time>
      </trkpt>
      <trkpt lat="46.638884" lon="12.044130">
        <ele>1727.133</ele>
        <time>2018-09-11T10:42:42Z</time>
      </trkpt>
      <trkpt lat="46.638889" lon="12.044102">
        <ele>1726.626</ele>
        <time>2018-09-11T10:42:43Z</time>
      </trkpt>
      <trkpt lat="46.638891" lon="12.044077">
        <ele>1726.611</ele>
        <time>2018-09-11T10:42:44Z</time>
      </trkpt>
      <trkpt lat="46.638884" lon="12.044054">
        <ele>1726.621</ele>
        <time>2018-09-11T10:42:45Z</time>
      </trkpt>
      <trkpt lat="46.638871" lon="12.044028">
        <ele>1726.103</ele>
        <time>2018-09-11T10:42:46Z</time>
      </trkpt>
      <trkpt lat="46.638853" lon="12.044005">
        <ele>1726.108</ele>
        <time>2018-09-11T10:42:47Z</time>
      </trkpt>
      <trkpt lat="46.638835" lon="12.043989">
        <ele>1725.775</ele>
        <time>2018-09-11T10:42:48Z</time>
      </trkpt>
      <trkpt lat="46.638814" lon="12.043976">
        <ele>1725.767</ele>
        <time>2018-09-11T10:42:49Z</time>
      </trkpt>
      <trkpt lat="46.638790" lon="12.043973">
        <ele>1725.266</ele>
        <time>2018-09-11T10:42:50Z</time>
      </trkpt>
      <trkpt lat="46.638769" lon="12.043979">
        <ele>1724.795</ele>
        <time>2018-09-11T10:42:51Z</time>
      </trkpt>
      <trkpt lat="46.638752" lon="12.043994">
        <ele>1724.231</ele>
        <time>2018-09-11T10:42:52Z</time>
      </trkpt>
      <trkpt lat="46.638732" lon="12.044012">
        <ele>1724.267</ele>
        <time>2018-09-11T10:42:53Z</time>
      </trkpt>
      <trkpt lat="46.638712" lon="12.044028">
        <ele>1723.730</ele>
        <time>2018-09-11T10:42:54Z</time>
      </trkpt>
      <trkpt lat="46.638693" lon="12.044045">
        <ele>1722.853</ele>
        <time>2018-09-11T10:42:55Z</time>
      </trkpt>
      <trkpt lat="46.638676" lon="12.044064">
        <ele>1722.392</ele>
        <time>2018-09-11T10:42:56Z</time>
      </trkpt>
      <trkpt lat="46.638659" lon="12.044084">
        <ele>1722.373</ele>
        <time>2018-09-11T10:42:57Z</time>
      </trkpt>
      <trkpt lat="46.638636" lon="12.044100">
        <ele>1721.320</ele>
        <time>2018-09-11T10:42:58Z</time>
      </trkpt>
      <trkpt lat="46.638482" lon="12.044195">
        <ele>1718.008</ele>
        <time>2018-09-11T10:43:06Z</time>
      </trkpt>
      <trkpt lat="46.638469" lon="12.044204">
        <ele>1717.513</ele>
        <time>2018-09-11T10:43:07Z</time>
      </trkpt>
      <trkpt lat="46.638455" lon="12.044210">
        <ele>1717.555</ele>
        <time>2018-09-11T10:43:08Z</time>
      </trkpt>
      <trkpt lat="46.638443" lon="12.044208">
        <ele>1717.024</ele>
        <time>2018-09-11T10:43:09Z</time>
      </trkpt>
      <trkpt lat="46.638413" lon="12.044182">
        <ele>1716.513</ele>
        <time>2018-09-11T10:43:22Z</time>
      </trkpt>
      <trkpt lat="46.638400" lon="12.044215">
        <ele>1718.449</ele>
        <time>2018-09-11T10:43:52Z</time>
      </trkpt>
      <trkpt lat="46.638379" lon="12.044245">
        <ele>1717.015</ele>
        <time>2018-09-11T10:43:59Z</time>
      </trkpt>
      <trkpt lat="46.638365" lon="12.044254">
        <ele>1717.088</ele>
        <time>2018-09-11T10:44:00Z</time>
      </trkpt>
      <trkpt lat="46.638348" lon="12.044264">
        <ele>1716.571</ele>
        <time>2018-09-11T10:44:01Z</time>
      </trkpt>
      <trkpt lat="46.638332" lon="12.044276">
        <ele>1716.521</ele>
        <time>2018-09-11T10:44:02Z</time>
      </trkpt>
      <trkpt lat="46.638317" lon="12.044291">
        <ele>1716.041</ele>
        <time>2018-09-11T10:44:03Z</time>
      </trkpt>
      <trkpt lat="46.638301" lon="12.044307">
        <ele>1715.605</ele>
        <time>2018-09-11T10:44:04Z</time>
      </trkpt>
      <trkpt lat="46.638050" lon="12.044652">
        <ele>1707.408</ele>
        <time>2018-09-11T10:44:18Z</time>
      </trkpt>
      <trkpt lat="46.637727" lon="12.044887">
        <ele>1699.746</ele>
        <time>2018-09-11T10:44:34Z</time>
      </trkpt>
      <trkpt lat="46.637519" lon="12.044785">
        <ele>1689.678</ele>
        <time>2018-09-11T10:44:46Z</time>
      </trkpt>
      <trkpt lat="46.637384" lon="12.044663">
        <ele>1681.067</ele>
        <time>2018-09-11T10:44:57Z</time>
      </trkpt>
      <trkpt lat="46.637380" lon="12.044570">
        <ele>1678.156</ele>
        <time>2018-09-11T10:45:08Z</time>
      </trkpt>
      <trkpt lat="46.637395" lon="12.044518">
        <ele>1681.052</ele>
        <time>2018-09-11T10:45:27Z</time>
      </trkpt>
      <trkpt lat="46.637407" lon="12.044525">
        <ele>1680.558</ele>
        <time>2018-09-11T10:45:32Z</time>
      </trkpt>
      <trkpt lat="46.637474" lon="12.044530">
        <ele>1677.171</ele>
        <time>2018-09-11T10:45:36Z</time>
      </trkpt>
      <trkpt lat="46.637501" lon="12.044531">
        <ele>1676.664</ele>
        <time>2018-09-11T10:45:37Z</time>
      </trkpt>
      <trkpt lat="46.637634" lon="12.044525">
        <ele>1672.333</ele>
        <time>2018-09-11T10:45:42Z</time>
      </trkpt>
      <trkpt lat="46.637654" lon="12.044496">
        <ele>1671.823</ele>
        <time>2018-09-11T10:45:43Z</time>
      </trkpt>
      <trkpt lat="46.637662" lon="12.044457">
        <ele>1671.315</ele>
        <time>2018-09-11T10:45:44Z</time>
      </trkpt>
      <trkpt lat="46.637654" lon="12.044426">
        <ele>1671.308</ele>
        <time>2018-09-11T10:45:45Z</time>
      </trkpt>
      <trkpt lat="46.637642" lon="12.044405">
        <ele>1670.987</ele>
        <time>2018-09-11T10:45:46Z</time>
      </trkpt>
      <trkpt lat="46.637617" lon="12.044394">
        <ele>1670.419</ele>
        <time>2018-09-11T10:45:47Z</time>
      </trkpt>
      <trkpt lat="46.637593" lon="12.044396">
        <ele>1669.498</ele>
        <time>2018-09-11T10:45:48Z</time>
      </trkpt>
      <trkpt lat="46.637570" lon="12.044402">
        <ele>1668.967</ele>
        <time>2018-09-11T10:45:49Z</time>
      </trkpt>
      <trkpt lat="46.637545" lon="12.044403">
        <ele>1668.513</ele>
        <time>2018-09-11T10:45:50Z</time>
      </trkpt>
      <trkpt lat="46.637522" lon="12.044398">
        <ele>1667.599</ele>
        <time>2018-09-11T10:45:51Z</time>
      </trkpt>
      <trkpt lat="46.637501" lon="12.044394">
        <ele>1666.572</ele>
        <time>2018-09-11T10:45:52Z</time>
      </trkpt>
      <trkpt lat="46.637476" lon="12.044387">
        <ele>1665.645</ele>
        <time>2018-09-11T10:45:53Z</time>
      </trkpt>
      <trkpt lat="46.637450" lon="12.044376">
        <ele>1664.669</ele>
        <time>2018-09-11T10:45:54Z</time>
      </trkpt>
      <trkpt lat="46.637256" lon="12.044245">
        <ele>1656.004</ele>
        <time>2018-09-11T10:46:04Z</time>
      </trkpt>
      <trkpt lat="46.637251" lon="12.044226">
        <ele>1655.024</ele>
        <time>2018-09-11T10:46:05Z</time>
      </trkpt>
      <trkpt lat="46.637253" lon="12.044179">
        <ele>1652.608</ele>
        <time>2018-09-11T10:46:08Z</time>
      </trkpt>
      <trkpt lat="46.637264" lon="12.044170">
        <ele>1652.160</ele>
        <time>2018-09-11T10:46:09Z</time>
      </trkpt>
      <trkpt lat="46.637277" lon="12.044162">
        <ele>1651.652</ele>
        <time>2018-09-11T10:46:10Z</time>
      </trkpt>
      <trkpt lat="46.637563" lon="12.044087">
        <ele>1642.591</ele>
        <time>2018-09-11T10:46:23Z</time>
      </trkpt>
      <trkpt lat="46.637666" lon="12.043930">
        <ele>1637.270</ele>
        <time>2018-09-11T10:46:29Z</time>
      </trkpt>
      <trkpt lat="46.637666" lon="12.043896">
        <ele>1636.746</ele>
        <time>2018-09-11T10:46:30Z</time>
      </trkpt>
      <trkpt lat="46.637654" lon="12.043874">
        <ele>1636.392</ele>
        <time>2018-09-11T10:46:31Z</time>
      </trkpt>
      <trkpt lat="46.637642" lon="12.043857">
        <ele>1635.855</ele>
        <time>2018-09-11T10:46:32Z</time>
      </trkpt>
      <trkpt lat="46.637624" lon="12.043846">
        <ele>1635.368</ele>
        <time>2018-09-11T10:46:33Z</time>
      </trkpt>
      <trkpt lat="46.637604" lon="12.043840">
        <ele>1634.889</ele>
        <time>2018-09-11T10:46:34Z</time>
      </trkpt>
      <trkpt lat="46.637582" lon="12.043838">
        <ele>1633.906</ele>
        <time>2018-09-11T10:46:35Z</time>
      </trkpt>
      <trkpt lat="46.637561" lon="12.043836">
        <ele>1633.426</ele>
        <time>2018-09-11T10:46:36Z</time>
      </trkpt>
      <trkpt lat="46.637225" lon="12.043743">
        <ele>1626.208</ele>
        <time>2018-09-11T10:46:50Z</time>
      </trkpt>
      <trkpt lat="46.637208" lon="12.043718">
        <ele>1626.222</ele>
        <time>2018-09-11T10:46:51Z</time>
      </trkpt>
      <trkpt lat="46.637199" lon="12.043683">
        <ele>1625.774</ele>
        <time>2018-09-11T10:46:52Z</time>
      </trkpt>
      <trkpt lat="46.637208" lon="12.043651">
        <ele>1625.263</ele>
        <time>2018-09-11T10:46:53Z</time>
      </trkpt>
      <trkpt lat="46.637224" lon="12.043624">
        <ele>1624.722</ele>
        <time>2018-09-11T10:46:54Z</time>
      </trkpt>
      <trkpt lat="46.637245" lon="12.043606">
        <ele>1624.278</ele>
        <time>2018-09-11T10:46:55Z</time>
      </trkpt>
      <trkpt lat="46.637269" lon="12.043602">
        <ele>1623.834</ele>
        <time>2018-09-11T10:46:56Z</time>
      </trkpt>
      <trkpt lat="46.637292" lon="12.043599">
        <ele>1623.367</ele>
        <time>2018-09-11T10:46:57Z</time>
      </trkpt>
      <trkpt lat="46.637317" lon="12.043593">
        <ele>1622.310</ele>
        <time>2018-09-11T10:46:58Z</time>
      </trkpt>
      <trkpt lat="46.637343" lon="12.043581">
        <ele>1621.825</ele>
        <time>2018-09-11T10:46:59Z</time>
      </trkpt>
      <trkpt lat="46.637369" lon="12.043569">
        <ele>1620.926</ele>
        <time>2018-09-11T10:47:00Z</time>
      </trkpt>
      <trkpt lat="46.637393" lon="12.043560">
        <ele>1620.408</ele>
        <time>2018-09-11T10:47:01Z</time>
      </trkpt>
      <trkpt lat="46.637420" lon="12.043553">
        <ele>1619.908</ele>
        <time>2018-09-11T10:47:02Z</time>
      </trkpt>
      <trkpt lat="46.637683" lon="12.043440">
        <ele>1610.826</ele>
        <time>2018-09-11T10:47:14Z</time>
      </trkpt>
      <trkpt lat="46.637678" lon="12.043413">
        <ele>1610.318</ele>
        <time>2018-09-11T10:47:15Z</time>
      </trkpt>
      <trkpt lat="46.637666" lon="12.043393">
        <ele>1609.887</ele>
        <time>2018-09-11T10:47:16Z</time>
      </trkpt>
      <trkpt lat="46.637647" lon="12.043375">
        <ele>1609.356</ele>
        <time>2018-09-11T10:47:17Z</time>
      </trkpt>
      <trkpt lat="46.637627" lon="12.043361">
        <ele>1608.472</ele>
        <time>2018-09-11T10:47:18Z</time>
      </trkpt>
      <trkpt lat="46.637324" lon="12.043288">
        <ele>1603.168</ele>
        <time>2018-09-11T10:47:31Z</time>
      </trkpt>
      <trkpt lat="46.637305" lon="12.043275">
        <ele>1602.671</ele>
        <time>2018-09-11T10:47:32Z</time>
      </trkpt>
      <trkpt lat="46.637295" lon="12.043245">
        <ele>1602.674</ele>
        <time>2018-09-11T10:47:33Z</time>
      </trkpt>
      <trkpt lat="46.637299" lon="12.043208">
        <ele>1602.134</ele>
        <time>2018-09-11T10:47:34Z</time>
      </trkpt>
      <trkpt lat="46.637314" lon="12.043176">
        <ele>1601.655</ele>
        <time>2018-09-11T10:47:35Z</time>
      </trkpt>
      <trkpt lat="46.637336" lon="12.043148">
        <ele>1601.610</ele>
        <time>2018-09-11T10:47:36Z</time>
      </trkpt>
      <trkpt lat="46.637360" lon="12.043128">
        <ele>1601.208</ele>
        <time>2018-09-11T10:47:37Z</time>
      </trkpt>
      <trkpt lat="46.637386" lon="12.043114">
        <ele>1600.777</ele>
        <time>2018-09-11T10:47:38Z</time>
      </trkpt>
      <trkpt lat="46.637413" lon="12.043106">
        <ele>1600.259</ele>
        <time>2018-09-11T10:47:39Z</time>
      </trkpt>
      <trkpt lat="46.637438" lon="12.043099">
        <ele>1599.268</ele>
        <time>2018-09-11T10:47:40Z</time>
      </trkpt>
      <trkpt lat="46.637791" lon="12.043181">
        <ele>1592.517</ele>
        <time>2018-09-11T10:47:53Z</time>
      </trkpt>
      <trkpt lat="46.637814" lon="12.043167">
        <ele>1592.073</ele>
        <time>2018-09-11T10:47:54Z</time>
      </trkpt>
      <trkpt lat="46.637829" lon="12.043141">
        <ele>1591.669</ele>
        <time>2018-09-11T10:47:55Z</time>
      </trkpt>
      <trkpt lat="46.637834" lon="12.043107">
        <ele>1591.142</ele>
        <time>2018-09-11T10:47:56Z</time>
      </trkpt>
      <trkpt lat="46.637827" lon="12.043073">
        <ele>1591.135</ele>
        <time>2018-09-11T10:47:57Z</time>
      </trkpt>
      <trkpt lat="46.637812" lon="12.043042">
        <ele>1591.144</ele>
        <time>2018-09-11T10:47:58Z</time>
      </trkpt>
      <trkpt lat="46.637792" lon="12.043022">
        <ele>1590.605</ele>
        <time>2018-09-11T10:47:59Z</time>
      </trkpt>
      <trkpt lat="46.637775" lon="12.043004">
        <ele>1590.115</ele>
        <time>2018-09-11T10:48:00Z</time>
      </trkpt>
      <trkpt lat="46.637495" lon="12.042776">
        <ele>1584.308</ele>
        <time>2018-09-11T10:48:13Z</time>
      </trkpt>
      <trkpt lat="46.637082" lon="12.042840">
        <ele>1578.698</ele>
        <time>2018-09-11T10:48:28Z</time>
      </trkpt>
      <trkpt lat="46.636959" lon="12.042917">
        <ele>1576.740</ele>
        <time>2018-09-11T10:48:33Z</time>
      </trkpt>
      <trkpt lat="46.636910" lon="12.042912">
        <ele>1575.759</ele>
        <time>2018-09-11T10:48:35Z</time>
      </trkpt>
      <trkpt lat="46.636893" lon="12.042890">
        <ele>1575.758</ele>
        <time>2018-09-11T10:48:36Z</time>
      </trkpt>
      <trkpt lat="46.636886" lon="12.042856">
        <ele>1575.274</ele>
        <time>2018-09-11T10:48:37Z</time>
      </trkpt>
      <trkpt lat="46.636885" lon="12.042818">
        <ele>1575.250</ele>
        <time>2018-09-11T10:48:38Z</time>
      </trkpt>
      <trkpt lat="46.636889" lon="12.042781">
        <ele>1574.713</ele>
        <time>2018-09-11T10:48:39Z</time>
      </trkpt>
      <trkpt lat="46.636899" lon="12.042750">
        <ele>1574.356</ele>
        <time>2018-09-11T10:48:40Z</time>
      </trkpt>
      <trkpt lat="46.636917" lon="12.042730">
        <ele>1573.849</ele>
        <time>2018-09-11T10:48:41Z</time>
      </trkpt>
      <trkpt lat="46.636935" lon="12.042714">
        <ele>1572.802</ele>
        <time>2018-09-11T10:48:42Z</time>
      </trkpt>
      <trkpt lat="46.636954" lon="12.042702">
        <ele>1571.822</ele>
        <time>2018-09-11T10:48:43Z</time>
      </trkpt>
      <trkpt lat="46.636974" lon="12.042689">
        <ele>1571.408</ele>
        <time>2018-09-11T10:48:44Z</time>
      </trkpt>
      <trkpt lat="46.637196" lon="12.042436">
        <ele>1562.298</ele>
        <time>2018-09-11T10:48:57Z</time>
      </trkpt>
      <trkpt lat="46.637387" lon="12.042266">
        <ele>1557.950</ele>
        <time>2018-09-11T10:49:10Z</time>
      </trkpt>
      <trkpt lat="46.637729" lon="12.042104">
        <ele>1550.749</ele>
        <time>2018-09-11T10:49:25Z</time>
      </trkpt>
      <trkpt lat="46.637794" lon="12.042088">
        <ele>1550.758</ele>
        <time>2018-09-11T10:49:38Z</time>
      </trkpt>
      <trkpt lat="46.637922" lon="12.042065">
        <ele>1550.744</ele>
        <time>2018-09-11T10:49:58Z</time>
      </trkpt>
      <trkpt lat="46.638218" lon="12.041931">
        <ele>1545.930</ele>
        <time>2018-09-11T10:50:06Z</time>
      </trkpt>
      <trkpt lat="46.638262" lon="12.041918">
        <ele>1545.453</ele>
        <time>2018-09-11T10:50:07Z</time>
      </trkpt>
      <trkpt lat="46.638629" lon="12.041777">
        <ele>1544.056</ele>
        <time>2018-09-11T10:50:19Z</time>
      </trkpt>
      <trkpt lat="46.638659" lon="12.041711">
        <ele>1543.592</ele>
        <time>2018-09-11T10:50:22Z</time>
      </trkpt>
      <trkpt lat="46.638658" lon="12.041685">
        <ele>1543.573</ele>
        <time>2018-09-11T10:50:23Z</time>
      </trkpt>
      <trkpt lat="46.638648" lon="12.041664">
        <ele>1543.520</ele>
        <time>2018-09-11T10:50:24Z</time>
      </trkpt>
      <trkpt lat="46.638632" lon="12.041656">
        <ele>1543.508</ele>
        <time>2018-09-11T10:50:25Z</time>
      </trkpt>
      <trkpt lat="46.638619" lon="12.041658">
        <ele>1543.513</ele>
        <time>2018-09-11T10:50:26Z</time>
      </trkpt>
      <trkpt lat="46.638601" lon="12.041657">
        <ele>1543.575</ele>
        <time>2018-09-11T10:50:27Z</time>
      </trkpt>
      <trkpt lat="46.638583" lon="12.041652">
        <ele>1543.094</ele>
        <time>2018-09-11T10:50:28Z</time>
      </trkpt>
      <trkpt lat="46.638566" lon="12.041646">
        <ele>1543.593</ele>
        <time>2018-09-11T10:50:29Z</time>
      </trkpt>
      <trkpt lat="46.638549" lon="12.041639">
        <ele>1543.529</ele>
        <time>2018-09-11T10:50:30Z</time>
      </trkpt>
      <trkpt lat="46.638532" lon="12.041634">
        <ele>1544.575</ele>
        <time>2018-09-11T10:50:31Z</time>
      </trkpt>
      <trkpt lat="46.638514" lon="12.041634">
        <ele>1544.918</ele>
        <time>2018-09-11T10:50:32Z</time>
      </trkpt>
      <trkpt lat="46.638495" lon="12.041634">
        <ele>1544.511</ele>
        <time>2018-09-11T10:50:33Z</time>
      </trkpt>
      <trkpt lat="46.638476" lon="12.041631">
        <ele>1544.984</ele>
        <time>2018-09-11T10:50:34Z</time>
      </trkpt>
      <trkpt lat="46.638458" lon="12.041630">
        <ele>1545.407</ele>
        <time>2018-09-11T10:50:35Z</time>
      </trkpt>
      <trkpt lat="46.638439" lon="12.041629">
        <ele>1545.417</ele>
        <time>2018-09-11T10:50:36Z</time>
      </trkpt>
      <trkpt lat="46.638420" lon="12.041629">
        <ele>1545.908</ele>
        <time>2018-09-11T10:50:37Z</time>
      </trkpt>
      <trkpt lat="46.638225" lon="12.041614">
        <ele>1546.442</ele>
        <time>2018-09-11T10:50:48Z</time>
      </trkpt>
      <trkpt lat="46.638217" lon="12.041591">
        <ele>1546.454</ele>
        <time>2018-09-11T10:50:49Z</time>
      </trkpt>
      <trkpt lat="46.638259" lon="12.041274">
        <ele>1545.423</ele>
        <time>2018-09-11T10:51:01Z</time>
      </trkpt>
      <trkpt lat="46.638183" lon="12.041166">
        <ele>1546.972</ele>
        <time>2018-09-11T10:57:54Z</time>
      </trkpt>
      <trkpt lat="46.638234" lon="12.041205">
        <ele>1547.338</ele>
        <time>2018-09-11T10:58:26Z</time>
      </trkpt>
      <trkpt lat="46.638233" lon="12.041196">
        <ele>1549.734</ele>
        <time>2018-09-11T10:58:36Z</time>
      </trkpt>
      <trkpt lat="46.638151" lon="12.041508">
        <ele>1551.727</ele>
        <time>2018-09-11T10:58:51Z</time>
      </trkpt>
      <trkpt lat="46.638126" lon="12.041580">
        <ele>1551.260</ele>
        <time>2018-09-11T10:58:54Z</time>
      </trkpt>
      <trkpt lat="46.638072" lon="12.041604">
        <ele>1551.269</ele>
        <time>2018-09-11T10:58:58Z</time>
      </trkpt>
      <trkpt lat="46.637806" lon="12.041573">
        <ele>1551.204</ele>
        <time>2018-09-11T10:59:14Z</time>
      </trkpt>
      <trkpt lat="46.637560" lon="12.041475">
        <ele>1552.124</ele>
        <time>2018-09-11T10:59:28Z</time>
      </trkpt>
      <trkpt lat="46.637398" lon="12.041255">
        <ele>1552.608</ele>
        <time>2018-09-11T10:59:42Z</time>
      </trkpt>
      <trkpt lat="46.637311" lon="12.040822">
        <ele>1553.620</ele>
        <time>2018-09-11T10:59:57Z</time>
      </trkpt>
      <trkpt lat="46.637131" lon="12.040475">
        <ele>1553.662</ele>
        <time>2018-09-11T11:00:11Z</time>
      </trkpt>
      <trkpt lat="46.637109" lon="12.040416">
        <ele>1554.121</ele>
        <time>2018-09-11T11:00:14Z</time>
      </trkpt>
      <trkpt lat="46.637098" lon="12.040402">
        <ele>1554.550</ele>
        <time>2018-09-11T11:00:15Z</time>
      </trkpt>
      <trkpt lat="46.637047" lon="12.040353">
        <ele>1555.066</ele>
        <time>2018-09-11T11:00:20Z</time>
      </trkpt>
      <trkpt lat="46.637034" lon="12.040351">
        <ele>1555.082</ele>
        <time>2018-09-11T11:00:21Z</time>
      </trkpt>
      <trkpt lat="46.637022" lon="12.040351">
        <ele>1555.075</ele>
        <time>2018-09-11T11:00:22Z</time>
      </trkpt>
      <trkpt lat="46.636854" lon="12.040161">
        <ele>1557.918</ele>
        <time>2018-09-11T11:00:39Z</time>
      </trkpt>
      <trkpt lat="46.636715" lon="12.039945">
        <ele>1560.356</ele>
        <time>2018-09-11T11:00:56Z</time>
      </trkpt>
      <trkpt lat="46.636449" lon="12.039822">
        <ele>1561.859</ele>
        <time>2018-09-11T11:01:14Z</time>
      </trkpt>
      <trkpt lat="46.636098" lon="12.039712">
        <ele>1562.714</ele>
        <time>2018-09-11T11:01:35Z</time>
      </trkpt>
      <trkpt lat="46.635851" lon="12.039643">
        <ele>1565.608</ele>
        <time>2018-09-11T11:01:51Z</time>
      </trkpt>
      <trkpt lat="46.635664" lon="12.039571">
        <ele>1567.579</ele>
        <time>2018-09-11T11:02:06Z</time>
      </trkpt>
      <trkpt lat="46.635651" lon="12.039567">
        <ele>1568.041</ele>
        <time>2018-09-11T11:02:07Z</time>
      </trkpt>
      <trkpt lat="46.635637" lon="12.039563">
        <ele>1568.090</ele>
        <time>2018-09-11T11:02:08Z</time>
      </trkpt>
      <trkpt lat="46.635624" lon="12.039561">
        <ele>1568.049</ele>
        <time>2018-09-11T11:02:09Z</time>
      </trkpt>
      <trkpt lat="46.635611" lon="12.039558">
        <ele>1568.595</ele>
        <time>2018-09-11T11:02:10Z</time>
      </trkpt>
      <trkpt lat="46.635382" lon="12.039560">
        <ele>1569.991</ele>
        <time>2018-09-11T11:02:28Z</time>
      </trkpt>
      <trkpt lat="46.635177" lon="12.039743">
        <ele>1573.384</ele>
        <time>2018-09-11T11:02:46Z</time>
      </trkpt>
      <trkpt lat="46.635017" lon="12.039945">
        <ele>1574.787</ele>
        <time>2018-09-11T11:03:03Z</time>
      </trkpt>
      <trkpt lat="46.634819" lon="12.040239">
        <ele>1575.226</ele>
        <time>2018-09-11T11:03:19Z</time>
      </trkpt>
      <trkpt lat="46.634764" lon="12.040599">
        <ele>1574.747</ele>
        <time>2018-09-11T11:03:32Z</time>
      </trkpt>
      <trkpt lat="46.634857" lon="12.040881">
        <ele>1574.711</ele>
        <time>2018-09-11T11:03:48Z</time>
      </trkpt>
      <trkpt lat="46.634931" lon="12.041131">
        <ele>1576.708</ele>
        <time>2018-09-11T11:04:05Z</time>
      </trkpt>
      <trkpt lat="46.634873" lon="12.041306">
        <ele>1579.516</ele>
        <time>2018-09-11T11:04:17Z</time>
      </trkpt>
      <trkpt lat="46.634865" lon="12.041317">
        <ele>1579.558</ele>
        <time>2018-09-11T11:04:18Z</time>
      </trkpt>
      <trkpt lat="46.634770" lon="12.041502">
        <ele>1583.497</ele>
        <time>2018-09-11T11:04:34Z</time>
      </trkpt>
      <trkpt lat="46.634737" lon="12.041610">
        <ele>1585.336</ele>
        <time>2018-09-11T11:04:42Z</time>
      </trkpt>
      <trkpt lat="46.634735" lon="12.041626">
        <ele>1585.862</ele>
        <time>2018-09-11T11:04:43Z</time>
      </trkpt>
      <trkpt lat="46.634725" lon="12.041653">
        <ele>1585.818</ele>
        <time>2018-09-11T11:04:45Z</time>
      </trkpt>
      <trkpt lat="46.634719" lon="12.041666">
        <ele>1585.821</ele>
        <time>2018-09-11T11:04:46Z</time>
      </trkpt>
      <trkpt lat="46.634670" lon="12.041860">
        <ele>1589.284</ele>
        <time>2018-09-11T11:05:00Z</time>
      </trkpt>
      <trkpt lat="46.634633" lon="12.041890">
        <ele>1590.698</ele>
        <time>2018-09-11T11:05:04Z</time>
      </trkpt>
      <trkpt lat="46.634551" lon="12.041854">
        <ele>1591.615</ele>
        <time>2018-09-11T11:05:14Z</time>
      </trkpt>
      <trkpt lat="46.634445" lon="12.041674">
        <ele>1592.526</ele>
        <time>2018-09-11T11:05:30Z</time>
      </trkpt>
      <trkpt lat="46.634304" lon="12.041558">
        <ele>1593.508</ele>
        <time>2018-09-11T11:05:48Z</time>
      </trkpt>
      <trkpt lat="46.634116" lon="12.041453">
        <ele>1596.893</ele>
        <time>2018-09-11T11:06:09Z</time>
      </trkpt>
      <trkpt lat="46.633921" lon="12.041473">
        <ele>1599.755</ele>
        <time>2018-09-11T11:06:28Z</time>
      </trkpt>
      <trkpt lat="46.633743" lon="12.041571">
        <ele>1603.624</ele>
        <time>2018-09-11T11:06:46Z</time>
      </trkpt>
      <trkpt lat="46.633599" lon="12.041655">
        <ele>1605.523</ele>
        <time>2018-09-11T11:07:02Z</time>
      </trkpt>
      <trkpt lat="46.633452" lon="12.041711">
        <ele>1607.919</ele>
        <time>2018-09-11T11:07:18Z</time>
      </trkpt>
      <trkpt lat="46.633323" lon="12.041718">
        <ele>1610.315</ele>
        <time>2018-09-11T11:07:32Z</time>
      </trkpt>
      <trkpt lat="46.633179" lon="12.041608">
        <ele>1612.748</ele>
        <time>2018-09-11T11:07:48Z</time>
      </trkpt>
      <trkpt lat="46.633065" lon="12.041422">
        <ele>1615.161</ele>
        <time>2018-09-11T11:08:05Z</time>
      </trkpt>
      <trkpt lat="46.632959" lon="12.041231">
        <ele>1617.082</ele>
        <time>2018-09-11T11:08:22Z</time>
      </trkpt>
      <trkpt lat="46.632866" lon="12.041080">
        <ele>1619.043</ele>
        <time>2018-09-11T11:08:36Z</time>
      </trkpt>
      <trkpt lat="46.632853" lon="12.041025">
        <ele>1619.417</ele>
        <time>2018-09-11T11:08:40Z</time>
      </trkpt>
      <trkpt lat="46.632806" lon="12.040876">
        <ele>1620.408</ele>
        <time>2018-09-11T11:08:53Z</time>
      </trkpt>
      <trkpt lat="46.632714" lon="12.040757">
        <ele>1621.412</ele>
        <time>2018-09-11T11:09:05Z</time>
      </trkpt>
      <trkpt lat="46.632704" lon="12.040752">
        <ele>1621.434</ele>
        <time>2018-09-11T11:09:06Z</time>
      </trkpt>
      <trkpt lat="46.632557" lon="12.040693">
        <ele>1624.753</ele>
        <time>2018-09-11T11:09:23Z</time>
      </trkpt>
      <trkpt lat="46.632417" lon="12.040685">
        <ele>1627.132</ele>
        <time>2018-09-11T11:09:38Z</time>
      </trkpt>
      <trkpt lat="46.632407" lon="12.040688">
        <ele>1627.168</ele>
        <time>2018-09-11T11:09:39Z</time>
      </trkpt>
      <trkpt lat="46.632271" lon="12.040696">
        <ele>1630.074</ele>
        <time>2018-09-11T11:09:53Z</time>
      </trkpt>
      <trkpt lat="46.632155" lon="12.040776">
        <ele>1633.487</ele>
        <time>2018-09-11T11:10:08Z</time>
      </trkpt>
      <trkpt lat="46.632156" lon="12.040799">
        <ele>1633.940</ele>
        <time>2018-09-11T11:10:10Z</time>
      </trkpt>
      <trkpt lat="46.632162" lon="12.040811">
        <ele>1633.935</ele>
        <time>2018-09-11T11:10:11Z</time>
      </trkpt>
      <trkpt lat="46.632182" lon="12.040858">
        <ele>1633.986</ele>
        <time>2018-09-11T11:10:15Z</time>
      </trkpt>
      <trkpt lat="46.632222" lon="12.040902">
        <ele>1635.314</ele>
        <time>2018-09-11T11:10:21Z</time>
      </trkpt>
      <trkpt lat="46.632277" lon="12.040939">
        <ele>1637.208</ele>
        <time>2018-09-11T11:10:28Z</time>
      </trkpt>
      <trkpt lat="46.632287" lon="12.040945">
        <ele>1636.747</ele>
        <time>2018-09-11T11:10:29Z</time>
      </trkpt>
      <trkpt lat="46.632398" lon="12.041070">
        <ele>1637.219</ele>
        <time>2018-09-11T11:10:44Z</time>
      </trkpt>
      <trkpt lat="46.632448" lon="12.041153">
        <ele>1638.268</ele>
        <time>2018-09-11T11:10:52Z</time>
      </trkpt>
      <trkpt lat="46.632498" lon="12.041232">
        <ele>1638.767</ele>
        <time>2018-09-11T11:11:00Z</time>
      </trkpt>
      <trkpt lat="46.632505" lon="12.041244">
        <ele>1638.713</ele>
        <time>2018-09-11T11:11:01Z</time>
      </trkpt>
      <trkpt lat="46.632578" lon="12.041431">
        <ele>1642.019</ele>
        <time>2018-09-11T11:11:17Z</time>
      </trkpt>
      <trkpt lat="46.632584" lon="12.041481">
        <ele>1643.042</ele>
        <time>2018-09-11T11:11:28Z</time>
      </trkpt>
      <trkpt lat="46.632570" lon="12.041464">
        <ele>1639.125</ele>
        <time>2018-09-11T11:12:00Z</time>
      </trkpt>
      <trkpt lat="46.632552" lon="12.041499">
        <ele>1640.174</ele>
        <time>2018-09-11T11:12:27Z</time>
      </trkpt>
      <trkpt lat="46.632431" lon="12.041420">
        <ele>1643.556</ele>
        <time>2018-09-11T11:12:46Z</time>
      </trkpt>
      <trkpt lat="46.632382" lon="12.041377">
        <ele>1645.421</ele>
        <time>2018-09-11T11:13:01Z</time>
      </trkpt>
      <trkpt lat="46.632288" lon="12.041321">
        <ele>1647.808</ele>
        <time>2018-09-11T11:13:11Z</time>
      </trkpt>
      <trkpt lat="46.632217" lon="12.041347">
        <ele>1649.231</ele>
        <time>2018-09-11T11:13:19Z</time>
      </trkpt>
      <trkpt lat="46.632197" lon="12.041399">
        <ele>1649.763</ele>
        <time>2018-09-11T11:13:23Z</time>
      </trkpt>
      <trkpt lat="46.632196" lon="12.041415">
        <ele>1649.732</ele>
        <time>2018-09-11T11:13:24Z</time>
      </trkpt>
      <trkpt lat="46.632195" lon="12.041508">
        <ele>1650.741</ele>
        <time>2018-09-11T11:13:31Z</time>
      </trkpt>
      <trkpt lat="46.632329" lon="12.041648">
        <ele>1654.057</ele>
        <time>2018-09-11T11:13:47Z</time>
      </trkpt>
      <trkpt lat="46.632440" lon="12.041745">
        <ele>1656.053</ele>
        <time>2018-09-11T11:14:01Z</time>
      </trkpt>
      <trkpt lat="46.632451" lon="12.041798">
        <ele>1656.056</ele>
        <time>2018-09-11T11:14:05Z</time>
      </trkpt>
      <trkpt lat="46.632438" lon="12.041854">
        <ele>1656.049</ele>
        <time>2018-09-11T11:14:09Z</time>
      </trkpt>
      <trkpt lat="46.632318" lon="12.041911">
        <ele>1658.417</ele>
        <time>2018-09-11T11:14:23Z</time>
      </trkpt>
      <trkpt lat="46.632197" lon="12.041864">
        <ele>1660.887</ele>
        <time>2018-09-11T11:14:36Z</time>
      </trkpt>
      <trkpt lat="46.632150" lon="12.041800">
        <ele>1661.715</ele>
        <time>2018-09-11T11:14:43Z</time>
      </trkpt>
      <trkpt lat="46.632044" lon="12.041645">
        <ele>1664.108</ele>
        <time>2018-09-11T11:14:59Z</time>
      </trkpt>
      <trkpt lat="46.631941" lon="12.041492">
        <ele>1667.045</ele>
        <time>2018-09-11T11:15:15Z</time>
      </trkpt>
      <trkpt lat="46.631903" lon="12.041424">
        <ele>1667.587</ele>
        <time>2018-09-11T11:15:22Z</time>
      </trkpt>
      <trkpt lat="46.631816" lon="12.041406">
        <ele>1670.456</ele>
        <time>2018-09-11T11:15:32Z</time>
      </trkpt>
      <trkpt lat="46.631805" lon="12.041415">
        <ele>1670.415</ele>
        <time>2018-09-11T11:15:33Z</time>
      </trkpt>
      <trkpt lat="46.631776" lon="12.041459">
        <ele>1670.441</ele>
        <time>2018-09-11T11:15:37Z</time>
      </trkpt>
      <trkpt lat="46.631769" lon="12.041485">
        <ele>1670.477</ele>
        <time>2018-09-11T11:15:39Z</time>
      </trkpt>
      <trkpt lat="46.631772" lon="12.041527">
        <ele>1670.460</ele>
        <time>2018-09-11T11:15:42Z</time>
      </trkpt>
      <trkpt lat="46.631777" lon="12.041540">
        <ele>1670.493</ele>
        <time>2018-09-11T11:15:43Z</time>
      </trkpt>
      <trkpt lat="46.631785" lon="12.041550">
        <ele>1670.966</ele>
        <time>2018-09-11T11:15:44Z</time>
      </trkpt>
      <trkpt lat="46.631860" lon="12.041750">
        <ele>1673.329</ele>
        <time>2018-09-11T11:16:01Z</time>
      </trkpt>
      <trkpt lat="46.631946" lon="12.042006">
        <ele>1675.221</ele>
        <time>2018-09-11T11:16:21Z</time>
      </trkpt>
      <trkpt lat="46.631990" lon="12.042206">
        <ele>1676.608</ele>
        <time>2018-09-11T11:16:36Z</time>
      </trkpt>
      <trkpt lat="46.631942" lon="12.042277">
        <ele>1677.160</ele>
        <time>2018-09-11T11:16:44Z</time>
      </trkpt>
      <trkpt lat="46.631873" lon="12.042229">
        <ele>1678.672</ele>
        <time>2018-09-11T11:16:51Z</time>
      </trkpt>
      <trkpt lat="46.631814" lon="12.042092">
        <ele>1681.481</ele>
        <time>2018-09-11T11:17:03Z</time>
      </trkpt>
      <trkpt lat="46.631702" lon="12.041919">
        <ele>1684.380</ele>
        <time>2018-09-11T11:17:20Z</time>
      </trkpt>
      <trkpt lat="46.631526" lon="12.041769">
        <ele>1686.226</ele>
        <time>2018-09-11T11:17:41Z</time>
      </trkpt>
      <trkpt lat="46.631391" lon="12.041735">
        <ele>1688.672</ele>
        <time>2018-09-11T11:17:56Z</time>
      </trkpt>
      <trkpt lat="46.631217" lon="12.041776">
        <ele>1690.185</ele>
        <time>2018-09-11T11:18:13Z</time>
      </trkpt>
      <trkpt lat="46.631060" lon="12.041777">
        <ele>1692.568</ele>
        <time>2018-09-11T11:18:29Z</time>
      </trkpt>
      <trkpt lat="46.631023" lon="12.041792">
        <ele>1693.021</ele>
        <time>2018-09-11T11:18:33Z</time>
      </trkpt>
      <trkpt lat="46.631012" lon="12.041792">
        <ele>1693.541</ele>
        <time>2018-09-11T11:18:34Z</time>
      </trkpt>
      <trkpt lat="46.631001" lon="12.041793">
        <ele>1693.005</ele>
        <time>2018-09-11T11:18:35Z</time>
      </trkpt>
      <trkpt lat="46.630892" lon="12.041766">
        <ele>1693.508</ele>
        <time>2018-09-11T11:18:46Z</time>
      </trkpt>
      <trkpt lat="46.630881" lon="12.041760">
        <ele>1693.526</ele>
        <time>2018-09-11T11:18:47Z</time>
      </trkpt>
      <trkpt lat="46.630871" lon="12.041751">
        <ele>1693.588</ele>
        <time>2018-09-11T11:18:48Z</time>
      </trkpt>
      <trkpt lat="46.630742" lon="12.041637">
        <ele>1696.887</ele>
        <time>2018-09-11T11:19:03Z</time>
      </trkpt>
      <trkpt lat="46.630729" lon="12.041598">
        <ele>1697.876</ele>
        <time>2018-09-11T11:19:06Z</time>
      </trkpt>
      <trkpt lat="46.630684" lon="12.041575">
        <ele>1698.342</ele>
        <time>2018-09-11T11:19:11Z</time>
      </trkpt>
      <trkpt lat="46.630557" lon="12.041591">
        <ele>1700.238</ele>
        <time>2018-09-11T11:19:25Z</time>
      </trkpt>
      <trkpt lat="46.630398" lon="12.041753">
        <ele>1703.141</ele>
        <time>2018-09-11T11:19:44Z</time>
      </trkpt>
      <trkpt lat="46.630226" lon="12.041666">
        <ele>1705.034</ele>
        <time>2018-09-11T11:20:03Z</time>
      </trkpt>
      <trkpt lat="46.630163" lon="12.041578">
        <ele>1706.467</ele>
        <time>2018-09-11T11:20:12Z</time>
      </trkpt>
      <trkpt lat="46.630154" lon="12.041573">
        <ele>1706.981</ele>
        <time>2018-09-11T11:20:13Z</time>
      </trkpt>
      <trkpt lat="46.630108" lon="12.041543">
        <ele>1707.919</ele>
        <time>2018-09-11T11:20:18Z</time>
      </trkpt>
      <trkpt lat="46.630010" lon="12.041455">
        <ele>1709.808</ele>
        <time>2018-09-11T11:20:31Z</time>
      </trkpt>
      <trkpt lat="46.629937" lon="12.041386">
        <ele>1711.750</ele>
        <time>2018-09-11T11:20:41Z</time>
      </trkpt>
      <trkpt lat="46.629792" lon="12.041315">
        <ele>1714.632</ele>
        <time>2018-09-11T11:20:58Z</time>
      </trkpt>
      <trkpt lat="46.629780" lon="12.041313">
        <ele>1714.611</ele>
        <time>2018-09-11T11:20:59Z</time>
      </trkpt>
      <trkpt lat="46.629768" lon="12.041306">
        <ele>1714.610</ele>
        <time>2018-09-11T11:21:00Z</time>
      </trkpt>
      <trkpt lat="46.629758" lon="12.041298">
        <ele>1714.696</ele>
        <time>2018-09-11T11:21:01Z</time>
      </trkpt>
      <trkpt lat="46.629617" lon="12.041132">
        <ele>1717.032</ele>
        <time>2018-09-11T11:21:19Z</time>
      </trkpt>
      <trkpt lat="46.629546" lon="12.041085">
        <ele>1718.055</ele>
        <time>2018-09-11T11:21:28Z</time>
      </trkpt>
      <trkpt lat="46.629419" lon="12.040970">
        <ele>1719.488</ele>
        <time>2018-09-11T11:21:43Z</time>
      </trkpt>
      <trkpt lat="46.629306" lon="12.040918">
        <ele>1721.845</ele>
        <time>2018-09-11T11:21:58Z</time>
      </trkpt>
      <trkpt lat="46.629166" lon="12.040743">
        <ele>1725.247</ele>
        <time>2018-09-11T11:22:18Z</time>
      </trkpt>
      <trkpt lat="46.629156" lon="12.040741">
        <ele>1727.611</ele>
        <time>2018-09-11T11:22:31Z</time>
      </trkpt>
      <trkpt lat="46.629151" lon="12.040741">
        <ele>1727.608</ele>
        <time>2018-09-11T11:22:56Z</time>
      </trkpt>
      <trkpt lat="46.629106" lon="12.040704">
        <ele>1726.198</ele>
        <time>2018-09-11T11:23:09Z</time>
      </trkpt>
      <trkpt lat="46.629073" lon="12.040674">
        <ele>1726.610</ele>
        <time>2018-09-11T11:23:13Z</time>
      </trkpt>
      <trkpt lat="46.628942" lon="12.040519">
        <ele>1730.039</ele>
        <time>2018-09-11T11:23:31Z</time>
      </trkpt>
      <trkpt lat="46.628935" lon="12.040454">
        <ele>1731.918</ele>
        <time>2018-09-11T11:23:40Z</time>
      </trkpt>
      <trkpt lat="46.628855" lon="12.040376">
        <ele>1733.834</ele>
        <time>2018-09-11T11:23:56Z</time>
      </trkpt>
      <trkpt lat="46.628747" lon="12.040421">
        <ele>1735.820</ele>
        <time>2018-09-11T11:24:15Z</time>
      </trkpt>
      <trkpt lat="46.628722" lon="12.040513">
        <ele>1735.883</ele>
        <time>2018-09-11T11:24:34Z</time>
      </trkpt>
      <trkpt lat="46.628743" lon="12.040558">
        <ele>1735.376</ele>
        <time>2018-09-11T11:24:46Z</time>
      </trkpt>
      <trkpt lat="46.628798" lon="12.040672">
        <ele>1737.773</ele>
        <time>2018-09-11T11:24:56Z</time>
      </trkpt>
      <trkpt lat="46.628802" lon="12.040688">
        <ele>1738.285</ele>
        <time>2018-09-11T11:24:57Z</time>
      </trkpt>
      <trkpt lat="46.628864" lon="12.040861">
        <ele>1740.613</ele>
        <time>2018-09-11T11:25:11Z</time>
      </trkpt>
      <trkpt lat="46.628877" lon="12.040923">
        <ele>1740.108</ele>
        <time>2018-09-11T11:25:15Z</time>
      </trkpt>
      <trkpt lat="46.628950" lon="12.041185">
        <ele>1743.471</ele>
        <time>2018-09-11T11:25:35Z</time>
      </trkpt>
      <trkpt lat="46.628976" lon="12.041297">
        <ele>1744.433</ele>
        <time>2018-09-11T11:25:44Z</time>
      </trkpt>
      <trkpt lat="46.628970" lon="12.041312">
        <ele>1744.452</ele>
        <time>2018-09-11T11:25:45Z</time>
      </trkpt>
      <trkpt lat="46.628968" lon="12.041329">
        <ele>1744.441</ele>
        <time>2018-09-11T11:25:46Z</time>
      </trkpt>
      <trkpt lat="46.628967" lon="12.041344">
        <ele>1744.957</ele>
        <time>2018-09-11T11:25:47Z</time>
      </trkpt>
      <trkpt lat="46.628960" lon="12.041357">
        <ele>1745.423</ele>
        <time>2018-09-11T11:25:48Z</time>
      </trkpt>
      <trkpt lat="46.628950" lon="12.041375">
        <ele>1744.966</ele>
        <time>2018-09-11T11:25:49Z</time>
      </trkpt>
      <trkpt lat="46.628943" lon="12.041387">
        <ele>1744.999</ele>
        <time>2018-09-11T11:25:50Z</time>
      </trkpt>
      <trkpt lat="46.628934" lon="12.041391">
        <ele>1744.917</ele>
        <time>2018-09-11T11:25:51Z</time>
      </trkpt>
      <trkpt lat="46.628923" lon="12.041394">
        <ele>1744.487</ele>
        <time>2018-09-11T11:25:52Z</time>
      </trkpt>
      <trkpt lat="46.628912" lon="12.041395">
        <ele>1744.915</ele>
        <time>2018-09-11T11:25:53Z</time>
      </trkpt>
      <trkpt lat="46.628901" lon="12.041395">
        <ele>1744.908</ele>
        <time>2018-09-11T11:25:54Z</time>
      </trkpt>
      <trkpt lat="46.628891" lon="12.041389">
        <ele>1744.485</ele>
        <time>2018-09-11T11:25:55Z</time>
      </trkpt>
      <trkpt lat="46.628881" lon="12.041381">
        <ele>1744.957</ele>
        <time>2018-09-11T11:25:56Z</time>
      </trkpt>
      <trkpt lat="46.628872" lon="12.041371">
        <ele>1744.916</ele>
        <time>2018-09-11T11:25:57Z</time>
      </trkpt>
      <trkpt lat="46.628864" lon="12.041360">
        <ele>1744.935</ele>
        <time>2018-09-11T11:25:58Z</time>
      </trkpt>
      <trkpt lat="46.628858" lon="12.041344">
        <ele>1745.461</ele>
        <time>2018-09-11T11:25:59Z</time>
      </trkpt>
      <trkpt lat="46.628851" lon="12.041317">
        <ele>1745.837</ele>
        <time>2018-09-11T11:26:01Z</time>
      </trkpt>
      <trkpt lat="46.628852" lon="12.041302">
        <ele>1745.850</ele>
        <time>2018-09-11T11:26:02Z</time>
      </trkpt>
      <trkpt lat="46.628852" lon="12.041288">
        <ele>1745.893</ele>
        <time>2018-09-11T11:26:03Z</time>
      </trkpt>
      <trkpt lat="46.628848" lon="12.041276">
        <ele>1745.898</ele>
        <time>2018-09-11T11:26:04Z</time>
      </trkpt>
      <trkpt lat="46.628844" lon="12.041261">
        <ele>1746.315</ele>
        <time>2018-09-11T11:26:05Z</time>
      </trkpt>
      <trkpt lat="46.628839" lon="12.041248">
        <ele>1746.326</ele>
        <time>2018-09-11T11:26:06Z</time>
      </trkpt>
      <trkpt lat="46.628833" lon="12.041235">
        <ele>1746.308</ele>
        <time>2018-09-11T11:26:07Z</time>
      </trkpt>
      <trkpt lat="46.628826" lon="12.041224">
        <ele>1746.353</ele>
        <time>2018-09-11T11:26:08Z</time>
      </trkpt>
      <trkpt lat="46.628708" lon="12.041031">
        <ele>1749.245</ele>
        <time>2018-09-11T11:26:26Z</time>
      </trkpt>
      <trkpt lat="46.628692" lon="12.041015">
        <ele>1749.284</ele>
        <time>2018-09-11T11:26:28Z</time>
      </trkpt>
      <trkpt lat="46.628595" lon="12.040912">
        <ele>1752.183</ele>
        <time>2018-09-11T11:26:41Z</time>
      </trkpt>
      <trkpt lat="46.628586" lon="12.040905">
        <ele>1752.139</ele>
        <time>2018-09-11T11:26:42Z</time>
      </trkpt>
      <trkpt lat="46.628406" lon="12.040843">
        <ele>1754.555</ele>
        <time>2018-09-11T11:27:00Z</time>
      </trkpt>
      <trkpt lat="46.628395" lon="12.040845">
        <ele>1754.568</ele>
        <time>2018-09-11T11:27:01Z</time>
      </trkpt>
      <trkpt lat="46.628306" lon="12.040630">
        <ele>1756.931</ele>
        <time>2018-09-11T11:27:20Z</time>
      </trkpt>
      <trkpt lat="46.628323" lon="12.040581">
        <ele>1757.997</ele>
        <time>2018-09-11T11:27:24Z</time>
      </trkpt>
      <trkpt lat="46.628336" lon="12.040525">
        <ele>1758.823</ele>
        <time>2018-09-11T11:27:28Z</time>
      </trkpt>
      <trkpt lat="46.628331" lon="12.040473">
        <ele>1760.325</ele>
        <time>2018-09-11T11:27:32Z</time>
      </trkpt>
      <trkpt lat="46.628303" lon="12.040422">
        <ele>1760.708</ele>
        <time>2018-09-11T11:27:37Z</time>
      </trkpt>
      <trkpt lat="46.628264" lon="12.040421">
        <ele>1761.283</ele>
        <time>2018-09-11T11:27:41Z</time>
      </trkpt>
      <trkpt lat="46.628252" lon="12.040427">
        <ele>1761.785</ele>
        <time>2018-09-11T11:27:42Z</time>
      </trkpt>
      <trkpt lat="46.628242" lon="12.040434">
        <ele>1761.724</ele>
        <time>2018-09-11T11:27:43Z</time>
      </trkpt>
      <trkpt lat="46.628180" lon="12.040505">
        <ele>1762.263</ele>
        <time>2018-09-11T11:27:51Z</time>
      </trkpt>
      <trkpt lat="46.628174" lon="12.040520">
        <ele>1762.759</ele>
        <time>2018-09-11T11:27:52Z</time>
      </trkpt>
      <trkpt lat="46.628167" lon="12.040535">
        <ele>1762.775</ele>
        <time>2018-09-11T11:27:53Z</time>
      </trkpt>
      <trkpt lat="46.628103" lon="12.040772">
        <ele>1765.148</ele>
        <time>2018-09-11T11:28:11Z</time>
      </trkpt>
      <trkpt lat="46.628071" lon="12.040971">
        <ele>1768.011</ele>
        <time>2018-09-11T11:28:26Z</time>
      </trkpt>
      <trkpt lat="46.628079" lon="12.041204">
        <ele>1770.418</ele>
        <time>2018-09-11T11:28:43Z</time>
      </trkpt>
      <trkpt lat="46.628014" lon="12.041332">
        <ele>1771.398</ele>
        <time>2018-09-11T11:28:54Z</time>
      </trkpt>
      <trkpt lat="46.628005" lon="12.041333">
        <ele>1771.317</ele>
        <time>2018-09-11T11:28:55Z</time>
      </trkpt>
      <trkpt lat="46.627996" lon="12.041333">
        <ele>1771.808</ele>
        <time>2018-09-11T11:28:56Z</time>
      </trkpt>
      <trkpt lat="46.627802" lon="12.041271">
        <ele>1773.785</ele>
        <time>2018-09-11T11:29:16Z</time>
      </trkpt>
      <trkpt lat="46.627609" lon="12.041314">
        <ele>1776.117</ele>
        <time>2018-09-11T11:29:36Z</time>
      </trkpt>
      <trkpt lat="46.627508" lon="12.041350">
        <ele>1776.126</ele>
        <time>2018-09-11T11:29:45Z</time>
      </trkpt>
      <trkpt lat="46.627497" lon="12.041349">
        <ele>1776.155</ele>
        <time>2018-09-11T11:29:46Z</time>
      </trkpt>
      <trkpt lat="46.627484" lon="12.041346">
        <ele>1776.171</ele>
        <time>2018-09-11T11:29:47Z</time>
      </trkpt>
      <trkpt lat="46.627470" lon="12.041343">
        <ele>1776.167</ele>
        <time>2018-09-11T11:29:48Z</time>
      </trkpt>
      <trkpt lat="46.627454" lon="12.041340">
        <ele>1776.650</ele>
        <time>2018-09-11T11:29:49Z</time>
      </trkpt>
      <trkpt lat="46.627339" lon="12.041257">
        <ele>1777.163</ele>
        <time>2018-09-11T11:29:59Z</time>
      </trkpt>
      <trkpt lat="46.627253" lon="12.041045">
        <ele>1779.538</ele>
        <time>2018-09-11T11:30:13Z</time>
      </trkpt>
      <trkpt lat="46.627254" lon="12.041030">
        <ele>1779.570</ele>
        <time>2018-09-11T11:30:14Z</time>
      </trkpt>
      <trkpt lat="46.627254" lon="12.041012">
        <ele>1779.517</ele>
        <time>2018-09-11T11:30:15Z</time>
      </trkpt>
      <trkpt lat="46.627255" lon="12.040992">
        <ele>1780.008</ele>
        <time>2018-09-11T11:30:16Z</time>
      </trkpt>
      <trkpt lat="46.627294" lon="12.040850">
        <ele>1780.917</ele>
        <time>2018-09-11T11:30:27Z</time>
      </trkpt>
      <trkpt lat="46.627302" lon="12.040839">
        <ele>1781.479</ele>
        <time>2018-09-11T11:30:28Z</time>
      </trkpt>
      <trkpt lat="46.627355" lon="12.040755">
        <ele>1782.438</ele>
        <time>2018-09-11T11:30:35Z</time>
      </trkpt>
      <trkpt lat="46.627490" lon="12.040591">
        <ele>1784.857</ele>
        <time>2018-09-11T11:30:51Z</time>
      </trkpt>
      <trkpt lat="46.627521" lon="12.040542">
        <ele>1785.323</ele>
        <time>2018-09-11T11:31:06Z</time>
      </trkpt>
      <trkpt lat="46.627511" lon="12.040522">
        <ele>1783.859</ele>
        <time>2018-09-11T11:31:34Z</time>
      </trkpt>
      <trkpt lat="46.627540" lon="12.040505">
        <ele>1784.322</ele>
        <time>2018-09-11T11:31:54Z</time>
      </trkpt>
      <trkpt lat="46.627690" lon="12.040360">
        <ele>1787.285</ele>
        <time>2018-09-11T11:32:08Z</time>
      </trkpt>
      <trkpt lat="46.627701" lon="12.040351">
        <ele>1787.285</ele>
        <time>2018-09-11T11:32:09Z</time>
      </trkpt>
      <trkpt lat="46.627708" lon="12.040338">
        <ele>1787.789</ele>
        <time>2018-09-11T11:32:10Z</time>
      </trkpt>
      <trkpt lat="46.627713" lon="12.040318">
        <ele>1787.717</ele>
        <time>2018-09-11T11:32:11Z</time>
      </trkpt>
      <trkpt lat="46.627717" lon="12.040296">
        <ele>1787.708</ele>
        <time>2018-09-11T11:32:12Z</time>
      </trkpt>
      <trkpt lat="46.627721" lon="12.040274">
        <ele>1787.722</ele>
        <time>2018-09-11T11:32:13Z</time>
      </trkpt>
      <trkpt lat="46.627720" lon="12.040254">
        <ele>1788.184</ele>
        <time>2018-09-11T11:32:14Z</time>
      </trkpt>
      <trkpt lat="46.627719" lon="12.040236">
        <ele>1788.173</ele>
        <time>2018-09-11T11:32:15Z</time>
      </trkpt>
      <trkpt lat="46.627715" lon="12.040221">
        <ele>1788.142</ele>
        <time>2018-09-11T11:32:16Z</time>
      </trkpt>
      <trkpt lat="46.627708" lon="12.040203">
        <ele>1788.678</ele>
        <time>2018-09-11T11:32:17Z</time>
      </trkpt>
      <trkpt lat="46.627702" lon="12.040192">
        <ele>1788.614</ele>
        <time>2018-09-11T11:32:18Z</time>
      </trkpt>
      <trkpt lat="46.627695" lon="12.040179">
        <ele>1789.187</ele>
        <time>2018-09-11T11:32:19Z</time>
      </trkpt>
      <trkpt lat="46.627685" lon="12.040169">
        <ele>1789.190</ele>
        <time>2018-09-11T11:32:20Z</time>
      </trkpt>
      <trkpt lat="46.627675" lon="12.040168">
        <ele>1789.166</ele>
        <time>2018-09-11T11:32:21Z</time>
      </trkpt>
      <trkpt lat="46.627663" lon="12.040167">
        <ele>1789.629</ele>
        <time>2018-09-11T11:32:22Z</time>
      </trkpt>
      <trkpt lat="46.627653" lon="12.040165">
        <ele>1789.621</ele>
        <time>2018-09-11T11:32:23Z</time>
      </trkpt>
      <trkpt lat="46.627644" lon="12.040161">
        <ele>1789.608</ele>
        <time>2018-09-11T11:32:24Z</time>
      </trkpt>
      <trkpt lat="46.627537" lon="12.040172">
        <ele>1791.020</ele>
        <time>2018-09-11T11:32:34Z</time>
      </trkpt>
      <trkpt lat="46.627525" lon="12.040179">
        <ele>1791.022</ele>
        <time>2018-09-11T11:32:35Z</time>
      </trkpt>
      <trkpt lat="46.627515" lon="12.040182">
        <ele>1791.071</ele>
        <time>2018-09-11T11:32:36Z</time>
      </trkpt>
      <trkpt lat="46.627504" lon="12.040182">
        <ele>1791.080</ele>
        <time>2018-09-11T11:32:37Z</time>
      </trkpt>
      <trkpt lat="46.627494" lon="12.040182">
        <ele>1791.576</ele>
        <time>2018-09-11T11:32:38Z</time>
      </trkpt>
      <trkpt lat="46.627481" lon="12.040182">
        <ele>1791.582</ele>
        <time>2018-09-11T11:32:39Z</time>
      </trkpt>
      <trkpt lat="46.627469" lon="12.040183">
        <ele>1791.525</ele>
        <time>2018-09-11T11:32:40Z</time>
      </trkpt>
      <trkpt lat="46.627326" lon="12.040260">
        <ele>1793.078</ele>
        <time>2018-09-11T11:32:55Z</time>
      </trkpt>
      <trkpt lat="46.627192" lon="12.040277">
        <ele>1795.431</ele>
        <time>2018-09-11T11:33:10Z</time>
      </trkpt>
      <trkpt lat="46.627182" lon="12.040278">
        <ele>1795.461</ele>
        <time>2018-09-11T11:33:11Z</time>
      </trkpt>
      <trkpt lat="46.627144" lon="12.040294">
        <ele>1795.807</ele>
        <time>2018-09-11T11:33:15Z</time>
      </trkpt>
      <trkpt lat="46.626986" lon="12.040317">
        <ele>1798.208</ele>
        <time>2018-09-11T11:33:31Z</time>
      </trkpt>
      <trkpt lat="46.626974" lon="12.040319">
        <ele>1798.287</ele>
        <time>2018-09-11T11:33:32Z</time>
      </trkpt>
      <trkpt lat="46.626964" lon="12.040319">
        <ele>1798.719</ele>
        <time>2018-09-11T11:33:33Z</time>
      </trkpt>
      <trkpt lat="46.626936" lon="12.040316">
        <ele>1798.768</ele>
        <time>2018-09-11T11:33:36Z</time>
      </trkpt>
      <trkpt lat="46.626924" lon="12.040315">
        <ele>1798.717</ele>
        <time>2018-09-11T11:33:37Z</time>
      </trkpt>
      <trkpt lat="46.626914" lon="12.040319">
        <ele>1798.733</ele>
        <time>2018-09-11T11:33:38Z</time>
      </trkpt>
      <trkpt lat="46.626753" lon="12.040345">
        <ele>1801.139</ele>
        <time>2018-09-11T11:33:55Z</time>
      </trkpt>
      <trkpt lat="46.626700" lon="12.040359">
        <ele>1802.682</ele>
        <time>2018-09-11T11:34:00Z</time>
      </trkpt>
      <trkpt lat="46.626684" lon="12.040368">
        <ele>1802.625</ele>
        <time>2018-09-11T11:34:02Z</time>
      </trkpt>
      <trkpt lat="46.626541" lon="12.040296">
        <ele>1805.092</ele>
        <time>2018-09-11T11:34:18Z</time>
      </trkpt>
      <trkpt lat="46.626534" lon="12.040289">
        <ele>1805.473</ele>
        <time>2018-09-11T11:34:19Z</time>
      </trkpt>
      <trkpt lat="46.626454" lon="12.040265">
        <ele>1806.920</ele>
        <time>2018-09-11T11:34:27Z</time>
      </trkpt>
      <trkpt lat="46.626445" lon="12.040257">
        <ele>1806.908</ele>
        <time>2018-09-11T11:34:28Z</time>
      </trkpt>
      <trkpt lat="46.626434" lon="12.040254">
        <ele>1806.933</ele>
        <time>2018-09-11T11:34:29Z</time>
      </trkpt>
      <trkpt lat="46.626423" lon="12.040252">
        <ele>1806.985</ele>
        <time>2018-09-11T11:34:30Z</time>
      </trkpt>
      <trkpt lat="46.626412" lon="12.040252">
        <ele>1806.954</ele>
        <time>2018-09-11T11:34:31Z</time>
      </trkpt>
      <trkpt lat="46.626247" lon="12.040227">
        <ele>1809.873</ele>
        <time>2018-09-11T11:34:46Z</time>
      </trkpt>
      <trkpt lat="46.626204" lon="12.040214">
        <ele>1810.749</ele>
        <time>2018-09-11T11:34:51Z</time>
      </trkpt>
      <trkpt lat="46.626194" lon="12.040218">
        <ele>1810.775</ele>
        <time>2018-09-11T11:34:52Z</time>
      </trkpt>
      <trkpt lat="46.626028" lon="12.040213">
        <ele>1812.248</ele>
        <time>2018-09-11T11:35:06Z</time>
      </trkpt>
      <trkpt lat="46.625806" lon="12.040282">
        <ele>1813.171</ele>
        <time>2018-09-11T11:35:24Z</time>
      </trkpt>
      <trkpt lat="46.625773" lon="12.040306">
        <ele>1813.627</ele>
        <time>2018-09-11T11:35:27Z</time>
      </trkpt>
      <trkpt lat="46.625762" lon="12.040311">
        <ele>1813.668</ele>
        <time>2018-09-11T11:35:28Z</time>
      </trkpt>
      <trkpt lat="46.625750" lon="12.040317">
        <ele>1813.614</ele>
        <time>2018-09-11T11:35:29Z</time>
      </trkpt>
      <trkpt lat="46.625738" lon="12.040323">
        <ele>1814.108</ele>
        <time>2018-09-11T11:35:30Z</time>
      </trkpt>
      <trkpt lat="46.625725" lon="12.040327">
        <ele>1814.176</ele>
        <time>2018-09-11T11:35:31Z</time>
      </trkpt>
      <trkpt lat="46.625712" lon="12.040327">
        <ele>1814.698</ele>
        <time>2018-09-11T11:35:32Z</time>
      </trkpt>
      <trkpt lat="46.625699" lon="12.040328">
        <ele>1814.617</ele>
        <time>2018-09-11T11:35:33Z</time>
      </trkpt>
      <trkpt lat="46.625543" lon="12.040334">
        <ele>1816.086</ele>
        <time>2018-09-11T11:35:45Z</time>
      </trkpt>
      <trkpt lat="46.625527" lon="12.040337">
        <ele>1816.052</ele>
        <time>2018-09-11T11:35:46Z</time>
      </trkpt>
      <trkpt lat="46.625511" lon="12.040339">
        <ele>1816.078</ele>
        <time>2018-09-11T11:35:47Z</time>
      </trkpt>
      <trkpt lat="46.625497" lon="12.040339">
        <ele>1816.531</ele>
        <time>2018-09-11T11:35:48Z</time>
      </trkpt>
      <trkpt lat="46.625479" lon="12.040334">
        <ele>1816.564</ele>
        <time>2018-09-11T11:35:49Z</time>
      </trkpt>
      <trkpt lat="46.625219" lon="12.040217">
        <ele>1816.553</ele>
        <time>2018-09-11T11:36:03Z</time>
      </trkpt>
      <trkpt lat="46.624855" lon="12.040147">
        <ele>1817.904</ele>
        <time>2018-09-11T11:36:20Z</time>
      </trkpt>
      <trkpt lat="46.624514" lon="12.039960">
        <ele>1820.314</ele>
        <time>2018-09-11T11:36:38Z</time>
      </trkpt>
      <trkpt lat="46.624386" lon="12.039604">
        <ele>1820.808</ele>
        <time>2018-09-11T11:36:52Z</time>
      </trkpt>
      <trkpt lat="46.624231" lon="12.039159">
        <ele>1822.339</ele>
        <time>2018-09-11T11:37:08Z</time>
      </trkpt>
      <trkpt lat="46.624082" lon="12.038572">
        <ele>1821.351</ele>
        <time>2018-09-11T11:37:24Z</time>
      </trkpt>
      <trkpt lat="46.623863" lon="12.038044">
        <ele>1822.840</ele>
        <time>2018-09-11T11:37:40Z</time>
      </trkpt>
      <trkpt lat="46.623661" lon="12.037572">
        <ele>1825.259</ele>
        <time>2018-09-11T11:37:56Z</time>
      </trkpt>
      <trkpt lat="46.623358" lon="12.037175">
        <ele>1826.675</ele>
        <time>2018-09-11T11:38:15Z</time>
      </trkpt>
      <trkpt lat="46.622885" lon="12.036748">
        <ele>1826.661</ele>
        <time>2018-09-11T11:38:35Z</time>
      </trkpt>
      <trkpt lat="46.622547" lon="12.036201">
        <ele>1828.084</ele>
        <time>2018-09-11T11:38:53Z</time>
      </trkpt>
      <trkpt lat="46.622317" lon="12.035529">
        <ele>1825.657</ele>
        <time>2018-09-11T11:39:05Z</time>
      </trkpt>
      <trkpt lat="46.622073" lon="12.034923">
        <ele>1823.767</ele>
        <time>2018-09-11T11:39:12Z</time>
      </trkpt>
      <trkpt lat="46.622027" lon="12.034847">
        <ele>1823.781</ele>
        <time>2018-09-11T11:39:13Z</time>
      </trkpt>
      <trkpt lat="46.621725" lon="12.034504">
        <ele>1823.219</ele>
        <time>2018-09-11T11:39:19Z</time>
      </trkpt>
      <trkpt lat="46.621676" lon="12.034471">
        <ele>1823.208</ele>
        <time>2018-09-11T11:39:20Z</time>
      </trkpt>
      <trkpt lat="46.621628" lon="12.034444">
        <ele>1823.220</ele>
        <time>2018-09-11T11:39:21Z</time>
      </trkpt>
      <trkpt lat="46.621307" lon="12.034289">
        <ele>1825.272</ele>
        <time>2018-09-11T11:39:32Z</time>
      </trkpt>
      <trkpt lat="46.621086" lon="12.034168">
        <ele>1827.641</ele>
        <time>2018-09-11T11:39:44Z</time>
      </trkpt>
      <trkpt lat="46.620826" lon="12.033863">
        <ele>1829.010</ele>
        <time>2018-09-11T11:39:59Z</time>
      </trkpt>
      <trkpt lat="46.620652" lon="12.033439">
        <ele>1829.526</ele>
        <time>2018-09-11T11:40:14Z</time>
      </trkpt>
      <trkpt lat="46.620604" lon="12.033094">
        <ele>1830.062</ele>
        <time>2018-09-11T11:40:27Z</time>
      </trkpt>
      <trkpt lat="46.620575" lon="12.032974">
        <ele>1829.555</ele>
        <time>2018-09-11T11:40:40Z</time>
      </trkpt>
      <trkpt lat="46.620537" lon="12.032974">
        <ele>1829.538</ele>
        <time>2018-09-11T11:41:03Z</time>
      </trkpt>
      <trkpt lat="46.620563" lon="12.032982">
        <ele>1831.492</ele>
        <time>2018-09-11T11:41:43Z</time>
      </trkpt>
      <trkpt lat="46.620555" lon="12.032977">
        <ele>1830.973</ele>
        <time>2018-09-11T11:42:15Z</time>
      </trkpt>
      <trkpt lat="46.620563" lon="12.032953">
        <ele>1831.920</ele>
        <time>2018-09-11T11:42:24Z</time>
      </trkpt>
      <trkpt lat="46.620571" lon="12.032936">
        <ele>1831.908</ele>
        <time>2018-09-11T11:42:25Z</time>
      </trkpt>
      <trkpt lat="46.620585" lon="12.032911">
        <ele>1831.413</ele>
        <time>2018-09-11T11:42:26Z</time>
      </trkpt>
      <trkpt lat="46.620598" lon="12.032413">
        <ele>1830.025</ele>
        <time>2018-09-11T11:42:39Z</time>
      </trkpt>
      <trkpt lat="46.620567" lon="12.031597">
        <ele>1829.574</ele>
        <time>2018-09-11T11:42:57Z</time>
      </trkpt>
      <trkpt lat="46.620430" lon="12.030600">
        <ele>1829.553</ele>
        <time>2018-09-11T11:43:14Z</time>
      </trkpt>
      <trkpt lat="46.620180" lon="12.029854">
        <ele>1829.099</ele>
        <time>2018-09-11T11:43:27Z</time>
      </trkpt>
      <trkpt lat="46.620168" lon="12.029786">
        <ele>1829.025</ele>
        <time>2018-09-11T11:43:28Z</time>
      </trkpt>
      <trkpt lat="46.620157" lon="12.029719">
        <ele>1829.548</ele>
        <time>2018-09-11T11:43:29Z</time>
      </trkpt>
      <trkpt lat="46.620083" lon="12.029158">
        <ele>1828.521</ele>
        <time>2018-09-11T11:43:37Z</time>
      </trkpt>
      <trkpt lat="46.620065" lon="12.029095">
        <ele>1828.597</ele>
        <time>2018-09-11T11:43:38Z</time>
      </trkpt>
      <trkpt lat="46.620021" lon="12.028978">
        <ele>1828.523</ele>
        <time>2018-09-11T11:43:40Z</time>
      </trkpt>
      <trkpt lat="46.619805" lon="12.028123">
        <ele>1829.525</ele>
        <time>2018-09-11T11:43:57Z</time>
      </trkpt>
      <trkpt lat="46.619608" lon="12.027711">
        <ele>1830.008</ele>
        <time>2018-09-11T11:44:08Z</time>
      </trkpt>
      <trkpt lat="46.619317" lon="12.027298">
        <ele>1831.453</ele>
        <time>2018-09-11T11:44:23Z</time>
      </trkpt>
      <trkpt lat="46.619076" lon="12.026970">
        <ele>1834.815</ele>
        <time>2018-09-11T11:44:42Z</time>
      </trkpt>
      <trkpt lat="46.618952" lon="12.026628">
        <ele>1838.624</ele>
        <time>2018-09-11T11:45:01Z</time>
      </trkpt>
      <trkpt lat="46.618934" lon="12.026578">
        <ele>1839.113</ele>
        <time>2018-09-11T11:45:04Z</time>
      </trkpt>
      <trkpt lat="46.618926" lon="12.026566">
        <ele>1839.679</ele>
        <time>2018-09-11T11:45:05Z</time>
      </trkpt>
      <trkpt lat="46.618919" lon="12.026554">
        <ele>1839.645</ele>
        <time>2018-09-11T11:45:06Z</time>
      </trkpt>
      <trkpt lat="46.618914" lon="12.026538">
        <ele>1839.628</ele>
        <time>2018-09-11T11:45:07Z</time>
      </trkpt>
      <trkpt lat="46.618908" lon="12.026518">
        <ele>1840.151</ele>
        <time>2018-09-11T11:45:08Z</time>
      </trkpt>
      <trkpt lat="46.618903" lon="12.026497">
        <ele>1840.129</ele>
        <time>2018-09-11T11:45:09Z</time>
      </trkpt>
      <trkpt lat="46.618900" lon="12.026477">
        <ele>1840.100</ele>
        <time>2018-09-11T11:45:10Z</time>
      </trkpt>
      <trkpt lat="46.618839" lon="12.026095">
        <ele>1841.020</ele>
        <time>2018-09-11T11:45:31Z</time>
      </trkpt>
      <trkpt lat="46.618836" lon="12.025916">
        <ele>1842.908</ele>
        <time>2018-09-11T11:45:40Z</time>
      </trkpt>
      <trkpt lat="46.618840" lon="12.025898">
        <ele>1842.516</ele>
        <time>2018-09-11T11:45:41Z</time>
      </trkpt>
      <trkpt lat="46.618845" lon="12.025877">
        <ele>1842.948</ele>
        <time>2018-09-11T11:45:42Z</time>
      </trkpt>
      <trkpt lat="46.618877" lon="12.025501">
        <ele>1845.817</ele>
        <time>2018-09-11T11:46:02Z</time>
      </trkpt>
      <trkpt lat="46.618876" lon="12.025195">
        <ele>1847.726</ele>
        <time>2018-09-11T11:46:18Z</time>
      </trkpt>
      <trkpt lat="46.618884" lon="12.025026">
        <ele>1848.752</ele>
        <time>2018-09-11T11:46:27Z</time>
      </trkpt>
      <trkpt lat="46.618885" lon="12.025011">
        <ele>1849.278</ele>
        <time>2018-09-11T11:46:28Z</time>
      </trkpt>
      <trkpt lat="46.618886" lon="12.024998">
        <ele>1849.751</ele>
        <time>2018-09-11T11:46:29Z</time>
      </trkpt>
      <trkpt lat="46.618905" lon="12.024691">
        <ele>1853.054</ele>
        <time>2018-09-11T11:46:49Z</time>
      </trkpt>
      <trkpt lat="46.618907" lon="12.024601">
        <ele>1854.059</ele>
        <time>2018-09-11T11:46:55Z</time>
      </trkpt>
      <trkpt lat="46.618906" lon="12.024585">
        <ele>1854.003</ele>
        <time>2018-09-11T11:46:56Z</time>
      </trkpt>
      <trkpt lat="46.618873" lon="12.024302">
        <ele>1856.423</ele>
        <time>2018-09-11T11:47:16Z</time>
      </trkpt>
      <trkpt lat="46.618827" lon="12.024142">
        <ele>1857.808</ele>
        <time>2018-09-11T11:47:27Z</time>
      </trkpt>
      <trkpt lat="46.618818" lon="12.024133">
        <ele>1857.899</ele>
        <time>2018-09-11T11:47:28Z</time>
      </trkpt>
      <trkpt lat="46.618810" lon="12.024122">
        <ele>1858.321</ele>
        <time>2018-09-11T11:47:29Z</time>
      </trkpt>
      <trkpt lat="46.618804" lon="12.024110">
        <ele>1858.310</ele>
        <time>2018-09-11T11:47:30Z</time>
      </trkpt>
      <trkpt lat="46.618743" lon="12.023854">
        <ele>1861.729</ele>
        <time>2018-09-11T11:47:48Z</time>
      </trkpt>
      <trkpt lat="46.618728" lon="12.023576">
        <ele>1863.645</ele>
        <time>2018-09-11T11:48:07Z</time>
      </trkpt>
      <trkpt lat="46.618781" lon="12.023342">
        <ele>1865.511</ele>
        <time>2018-09-11T11:48:23Z</time>
      </trkpt>
      <trkpt lat="46.618791" lon="12.023307">
        <ele>1866.034</ele>
        <time>2018-09-11T11:48:26Z</time>
      </trkpt>
      <trkpt lat="46.618801" lon="12.023296">
        <ele>1866.517</ele>
        <time>2018-09-11T11:48:27Z</time>
      </trkpt>
      <trkpt lat="46.618810" lon="12.023287">
        <ele>1866.587</ele>
        <time>2018-09-11T11:48:28Z</time>
      </trkpt>
      <trkpt lat="46.618897" lon="12.023209">
        <ele>1869.942</ele>
        <time>2018-09-11T11:48:38Z</time>
      </trkpt>
      <trkpt lat="46.618905" lon="12.023203">
        <ele>1870.326</ele>
        <time>2018-09-11T11:48:39Z</time>
      </trkpt>
      <trkpt lat="46.618915" lon="12.023202">
        <ele>1870.308</ele>
        <time>2018-09-11T11:48:40Z</time>
      </trkpt>
      <trkpt lat="46.619102" lon="12.023204">
        <ele>1872.732</ele>
        <time>2018-09-11T11:48:57Z</time>
      </trkpt>
      <trkpt lat="46.619176" lon="12.023285">
        <ele>1873.244</ele>
        <time>2018-09-11T11:49:06Z</time>
      </trkpt>
      <trkpt lat="46.619182" lon="12.023301">
        <ele>1873.733</ele>
        <time>2018-09-11T11:49:07Z</time>
      </trkpt>
      <trkpt lat="46.619191" lon="12.023313">
        <ele>1873.772</ele>
        <time>2018-09-11T11:49:08Z</time>
      </trkpt>
      <trkpt lat="46.619194" lon="12.023328">
        <ele>1874.268</ele>
        <time>2018-09-11T11:49:09Z</time>
      </trkpt>
      <trkpt lat="46.619195" lon="12.023344">
        <ele>1874.264</ele>
        <time>2018-09-11T11:49:10Z</time>
      </trkpt>
      <trkpt lat="46.619197" lon="12.023362">
        <ele>1874.217</ele>
        <time>2018-09-11T11:49:11Z</time>
      </trkpt>
      <trkpt lat="46.619198" lon="12.023378">
        <ele>1874.740</ele>
        <time>2018-09-11T11:49:12Z</time>
      </trkpt>
      <trkpt lat="46.619210" lon="12.023397">
        <ele>1874.717</ele>
        <time>2018-09-11T11:49:14Z</time>
      </trkpt>
      <trkpt lat="46.619217" lon="12.023409">
        <ele>1875.187</ele>
        <time>2018-09-11T11:49:15Z</time>
      </trkpt>
      <trkpt lat="46.619227" lon="12.023418">
        <ele>1875.615</ele>
        <time>2018-09-11T11:49:16Z</time>
      </trkpt>
      <trkpt lat="46.619237" lon="12.023426">
        <ele>1875.608</ele>
        <time>2018-09-11T11:49:17Z</time>
      </trkpt>
      <trkpt lat="46.619245" lon="12.023434">
        <ele>1875.685</ele>
        <time>2018-09-11T11:49:18Z</time>
      </trkpt>
      <trkpt lat="46.619255" lon="12.023442">
        <ele>1875.687</ele>
        <time>2018-09-11T11:49:19Z</time>
      </trkpt>
      <trkpt lat="46.619266" lon="12.023448">
        <ele>1875.666</ele>
        <time>2018-09-11T11:49:20Z</time>
      </trkpt>
      <trkpt lat="46.619276" lon="12.023451">
        <ele>1876.115</ele>
        <time>2018-09-11T11:49:21Z</time>
      </trkpt>
      <trkpt lat="46.619288" lon="12.023452">
        <ele>1876.151</ele>
        <time>2018-09-11T11:49:22Z</time>
      </trkpt>
      <trkpt lat="46.619303" lon="12.023448">
        <ele>1876.177</ele>
        <time>2018-09-11T11:49:23Z</time>
      </trkpt>
      <trkpt lat="46.619316" lon="12.023442">
        <ele>1876.120</ele>
        <time>2018-09-11T11:49:24Z</time>
      </trkpt>
      <trkpt lat="46.619326" lon="12.023442">
        <ele>1876.143</ele>
        <time>2018-09-11T11:49:25Z</time>
      </trkpt>
      <trkpt lat="46.619339" lon="12.023442">
        <ele>1876.198</ele>
        <time>2018-09-11T11:49:26Z</time>
      </trkpt>
      <trkpt lat="46.619357" lon="12.023433">
        <ele>1876.615</ele>
        <time>2018-09-11T11:49:28Z</time>
      </trkpt>
      <trkpt lat="46.619368" lon="12.023422">
        <ele>1876.626</ele>
        <time>2018-09-11T11:49:29Z</time>
      </trkpt>
      <trkpt lat="46.619378" lon="12.023412">
        <ele>1877.108</ele>
        <time>2018-09-11T11:49:30Z</time>
      </trkpt>
      <trkpt lat="46.619392" lon="12.023390">
        <ele>1877.553</ele>
        <time>2018-09-11T11:49:32Z</time>
      </trkpt>
      <trkpt lat="46.619401" lon="12.023373">
        <ele>1877.565</ele>
        <time>2018-09-11T11:49:33Z</time>
      </trkpt>
      <trkpt lat="46.619410" lon="12.023354">
        <ele>1877.534</ele>
        <time>2018-09-11T11:49:34Z</time>
      </trkpt>
      <trkpt lat="46.619390" lon="12.023263">
        <ele>1878.083</ele>
        <time>2018-09-11T11:49:40Z</time>
      </trkpt>
      <trkpt lat="46.619374" lon="12.023191">
        <ele>1879.089</ele>
        <time>2018-09-11T11:49:45Z</time>
      </trkpt>
      <trkpt lat="46.619369" lon="12.023177">
        <ele>1879.575</ele>
        <time>2018-09-11T11:49:46Z</time>
      </trkpt>
      <trkpt lat="46.619367" lon="12.023162">
        <ele>1879.518</ele>
        <time>2018-09-11T11:49:47Z</time>
      </trkpt>
      <trkpt lat="46.619364" lon="12.023147">
        <ele>1879.561</ele>
        <time>2018-09-11T11:49:48Z</time>
      </trkpt>
      <trkpt lat="46.619358" lon="12.023135">
        <ele>1879.518</ele>
        <time>2018-09-11T11:49:49Z</time>
      </trkpt>
      <trkpt lat="46.619352" lon="12.023123">
        <ele>1879.598</ele>
        <time>2018-09-11T11:49:50Z</time>
      </trkpt>
      <trkpt lat="46.619316" lon="12.023067">
        <ele>1880.017</ele>
        <time>2018-09-11T11:49:55Z</time>
      </trkpt>
      <trkpt lat="46.619267" lon="12.022847">
        <ele>1881.408</ele>
        <time>2018-09-11T11:50:11Z</time>
      </trkpt>
      <trkpt lat="46.619248" lon="12.022768">
        <ele>1882.445</ele>
        <time>2018-09-11T11:50:17Z</time>
      </trkpt>
      <trkpt lat="46.619246" lon="12.022752">
        <ele>1882.437</ele>
        <time>2018-09-11T11:50:18Z</time>
      </trkpt>
      <trkpt lat="46.619232" lon="12.022499">
        <ele>1883.816</ele>
        <time>2018-09-11T11:50:35Z</time>
      </trkpt>
      <trkpt lat="46.619233" lon="12.022466">
        <ele>1884.365</ele>
        <time>2018-09-11T11:50:37Z</time>
      </trkpt>
      <trkpt lat="46.619237" lon="12.022404">
        <ele>1884.871</ele>
        <time>2018-09-11T11:50:41Z</time>
      </trkpt>
      <trkpt lat="46.619237" lon="12.022375">
        <ele>1885.237</ele>
        <time>2018-09-11T11:50:43Z</time>
      </trkpt>
      <trkpt lat="46.619239" lon="12.022363">
        <ele>1885.270</ele>
        <time>2018-09-11T11:50:44Z</time>
      </trkpt>
      <trkpt lat="46.619215" lon="12.022151">
        <ele>1887.643</ele>
        <time>2018-09-11T11:50:58Z</time>
      </trkpt>
      <trkpt lat="46.619171" lon="12.021946">
        <ele>1889.648</ele>
        <time>2018-09-11T11:51:11Z</time>
      </trkpt>
      <trkpt lat="46.619169" lon="12.021931">
        <ele>1889.661</ele>
        <time>2018-09-11T11:51:12Z</time>
      </trkpt>
      <trkpt lat="46.619148" lon="12.021731">
        <ele>1892.017</ele>
        <time>2018-09-11T11:51:27Z</time>
      </trkpt>
      <trkpt lat="46.619117" lon="12.021526">
        <ele>1893.408</ele>
        <time>2018-09-11T11:51:42Z</time>
      </trkpt>
      <trkpt lat="46.619144" lon="12.021293">
        <ele>1895.868</ele>
        <time>2018-09-11T11:51:59Z</time>
      </trkpt>
      <trkpt lat="46.619220" lon="12.021106">
        <ele>1899.790</ele>
        <time>2018-09-11T11:52:14Z</time>
      </trkpt>
      <trkpt lat="46.619272" lon="12.020867">
        <ele>1902.539</ele>
        <time>2018-09-11T11:52:31Z</time>
      </trkpt>
      <trkpt lat="46.619340" lon="12.020661">
        <ele>1905.448</ele>
        <time>2018-09-11T11:52:47Z</time>
      </trkpt>
      <trkpt lat="46.619403" lon="12.020464">
        <ele>1907.884</ele>
        <time>2018-09-11T11:53:03Z</time>
      </trkpt>
      <trkpt lat="46.619428" lon="12.020260">
        <ele>1910.240</ele>
        <time>2018-09-11T11:53:18Z</time>
      </trkpt>
      <trkpt lat="46.619439" lon="12.020096">
        <ele>1911.223</ele>
        <time>2018-09-11T11:53:30Z</time>
      </trkpt>
      <trkpt lat="46.619437" lon="12.020080">
        <ele>1911.266</ele>
        <time>2018-09-11T11:53:31Z</time>
      </trkpt>
      <trkpt lat="46.619444" lon="12.019849">
        <ele>1913.651</ele>
        <time>2018-09-11T11:53:47Z</time>
      </trkpt>
      <trkpt lat="46.619429" lon="12.019578">
        <ele>1914.601</ele>
        <time>2018-09-11T11:54:02Z</time>
      </trkpt>
      <trkpt lat="46.619435" lon="12.019537">
        <ele>1914.611</ele>
        <time>2018-09-11T11:54:05Z</time>
      </trkpt>
      <trkpt lat="46.619417" lon="12.019369">
        <ele>1916.008</ele>
        <time>2018-09-11T11:54:17Z</time>
      </trkpt>
      <trkpt lat="46.619407" lon="12.019357">
        <ele>1916.569</ele>
        <time>2018-09-11T11:54:18Z</time>
      </trkpt>
      <trkpt lat="46.619398" lon="12.019345">
        <ele>1916.551</ele>
        <time>2018-09-11T11:54:19Z</time>
      </trkpt>
      <trkpt lat="46.619393" lon="12.019328">
        <ele>1916.590</ele>
        <time>2018-09-11T11:54:20Z</time>
      </trkpt>
      <trkpt lat="46.619394" lon="12.019312">
        <ele>1916.519</ele>
        <time>2018-09-11T11:54:21Z</time>
      </trkpt>
      <trkpt lat="46.619372" lon="12.019144">
        <ele>1918.945</ele>
        <time>2018-09-11T11:54:33Z</time>
      </trkpt>
      <trkpt lat="46.619371" lon="12.019090">
        <ele>1919.461</ele>
        <time>2018-09-11T11:54:43Z</time>
      </trkpt>
      <trkpt lat="46.619357" lon="12.018913">
        <ele>1922.744</ele>
        <time>2018-09-11T11:55:02Z</time>
      </trkpt>
      <trkpt lat="46.619335" lon="12.018739">
        <ele>1924.727</ele>
        <time>2018-09-11T11:55:21Z</time>
      </trkpt>
      <trkpt lat="46.619356" lon="12.018556">
        <ele>1926.664</ele>
        <time>2018-09-11T11:55:40Z</time>
      </trkpt>
      <trkpt lat="46.619392" lon="12.018378">
        <ele>1929.906</ele>
        <time>2018-09-11T11:55:59Z</time>
      </trkpt>
      <trkpt lat="46.619406" lon="12.018298">
        <ele>1929.516</ele>
        <time>2018-09-11T11:56:17Z</time>
      </trkpt>
      <trkpt lat="46.619412" lon="12.018279">
        <ele>1929.508</ele>
        <time>2018-09-11T11:56:32Z</time>
      </trkpt>
      <trkpt lat="46.619420" lon="12.018255">
        <ele>1930.430</ele>
        <time>2018-09-11T11:56:34Z</time>
      </trkpt>
      <trkpt lat="46.619424" lon="12.018238">
        <ele>1930.912</ele>
        <time>2018-09-11T11:56:35Z</time>
      </trkpt>
      <trkpt lat="46.619427" lon="12.018221">
        <ele>1931.481</ele>
        <time>2018-09-11T11:56:36Z</time>
      </trkpt>
      <trkpt lat="46.619431" lon="12.018207">
        <ele>1931.480</ele>
        <time>2018-09-11T11:56:37Z</time>
      </trkpt>
      <trkpt lat="46.619434" lon="12.018190">
        <ele>1931.956</ele>
        <time>2018-09-11T11:56:38Z</time>
      </trkpt>
      <trkpt lat="46.619439" lon="12.018175">
        <ele>1931.932</ele>
        <time>2018-09-11T11:56:39Z</time>
      </trkpt>
      <trkpt lat="46.619537" lon="12.017914">
        <ele>1934.315</ele>
        <time>2018-09-11T11:56:57Z</time>
      </trkpt>
      <trkpt lat="46.619547" lon="12.017883">
        <ele>1934.758</ele>
        <time>2018-09-11T11:56:59Z</time>
      </trkpt>
      <trkpt lat="46.619545" lon="12.017864">
        <ele>1935.259</ele>
        <time>2018-09-11T11:57:00Z</time>
      </trkpt>
      <trkpt lat="46.619547" lon="12.017851">
        <ele>1935.203</ele>
        <time>2018-09-11T11:57:01Z</time>
      </trkpt>
      <trkpt lat="46.619648" lon="12.017656">
        <ele>1939.123</ele>
        <time>2018-09-11T11:57:18Z</time>
      </trkpt>
      <trkpt lat="46.619754" lon="12.017531">
        <ele>1942.408</ele>
        <time>2018-09-11T11:57:34Z</time>
      </trkpt>
      <trkpt lat="46.619778" lon="12.017527">
        <ele>1942.459</ele>
        <time>2018-09-11T11:57:37Z</time>
      </trkpt>
      <trkpt lat="46.619789" lon="12.017529">
        <ele>1942.931</ele>
        <time>2018-09-11T11:57:38Z</time>
      </trkpt>
      <trkpt lat="46.619799" lon="12.017531">
        <ele>1942.920</ele>
        <time>2018-09-11T11:57:39Z</time>
      </trkpt>
      <trkpt lat="46.619810" lon="12.017531">
        <ele>1942.959</ele>
        <time>2018-09-11T11:57:40Z</time>
      </trkpt>
      <trkpt lat="46.619876" lon="12.017556">
        <ele>1943.955</ele>
        <time>2018-09-11T11:57:48Z</time>
      </trkpt>
      <trkpt lat="46.619981" lon="12.017647">
        <ele>1945.871</ele>
        <time>2018-09-11T11:58:03Z</time>
      </trkpt>
      <trkpt lat="46.620098" lon="12.017773">
        <ele>1947.714</ele>
        <time>2018-09-11T11:58:19Z</time>
      </trkpt>
      <trkpt lat="46.620210" lon="12.017908">
        <ele>1950.157</ele>
        <time>2018-09-11T11:58:35Z</time>
      </trkpt>
      <trkpt lat="46.620240" lon="12.017961">
        <ele>1951.119</ele>
        <time>2018-09-11T11:58:40Z</time>
      </trkpt>
      <trkpt lat="46.620241" lon="12.017979">
        <ele>1951.109</ele>
        <time>2018-09-11T11:58:41Z</time>
      </trkpt>
      <trkpt lat="46.620269" lon="12.018017">
        <ele>1951.619</ele>
        <time>2018-09-11T11:58:54Z</time>
      </trkpt>
      <trkpt lat="46.620392" lon="12.017957">
        <ele>1954.008</ele>
        <time>2018-09-11T11:59:10Z</time>
      </trkpt>
      <trkpt lat="46.620491" lon="12.017794">
        <ele>1957.355</ele>
        <time>2018-09-11T11:59:32Z</time>
      </trkpt>
      <trkpt lat="46.620558" lon="12.017645">
        <ele>1959.397</ele>
        <time>2018-09-11T11:59:50Z</time>
      </trkpt>
      <trkpt lat="46.620584" lon="12.017474">
        <ele>1961.726</ele>
        <time>2018-09-11T12:00:07Z</time>
      </trkpt>
      <trkpt lat="46.620561" lon="12.017275">
        <ele>1964.555</ele>
        <time>2018-09-11T12:00:26Z</time>
      </trkpt>
      <trkpt lat="46.620563" lon="12.017109">
        <ele>1967.451</ele>
        <time>2018-09-11T12:00:44Z</time>
      </trkpt>
      <trkpt lat="46.620572" lon="12.017060">
        <ele>1966.937</ele>
        <time>2018-09-11T12:01:05Z</time>
      </trkpt>
      <trkpt lat="46.620566" lon="12.017030">
        <ele>1966.020</ele>
        <time>2018-09-11T12:01:45Z</time>
      </trkpt>
      <trkpt lat="46.620600" lon="12.016975">
        <ele>1966.543</ele>
        <time>2018-09-11T12:02:01Z</time>
      </trkpt>
      <trkpt lat="46.620605" lon="12.016946">
        <ele>1966.916</ele>
        <time>2018-09-11T12:02:03Z</time>
      </trkpt>
      <trkpt lat="46.620602" lon="12.016930">
        <ele>1966.976</ele>
        <time>2018-09-11T12:02:04Z</time>
      </trkpt>
      <trkpt lat="46.620601" lon="12.016914">
        <ele>1967.413</ele>
        <time>2018-09-11T12:02:05Z</time>
      </trkpt>
      <trkpt lat="46.620611" lon="12.016700">
        <ele>1970.308</ele>
        <time>2018-09-11T12:02:21Z</time>
      </trkpt>
      <trkpt lat="46.620698" lon="12.016540">
        <ele>1972.775</ele>
        <time>2018-09-11T12:02:36Z</time>
      </trkpt>
      <trkpt lat="46.620728" lon="12.016439">
        <ele>1974.247</ele>
        <time>2018-09-11T12:02:44Z</time>
      </trkpt>
      <trkpt lat="46.620727" lon="12.016422">
        <ele>1974.616</ele>
        <time>2018-09-11T12:02:45Z</time>
      </trkpt>
      <trkpt lat="46.620729" lon="12.016407">
        <ele>1974.675</ele>
        <time>2018-09-11T12:02:46Z</time>
      </trkpt>
      <trkpt lat="46.620749" lon="12.016272">
        <ele>1975.661</ele>
        <time>2018-09-11T12:02:55Z</time>
      </trkpt>
      <trkpt lat="46.620749" lon="12.016229">
        <ele>1976.117</ele>
        <time>2018-09-11T12:02:58Z</time>
      </trkpt>
      <trkpt lat="46.620753" lon="12.016215">
        <ele>1976.120</ele>
        <time>2018-09-11T12:02:59Z</time>
      </trkpt>
      <trkpt lat="46.620756" lon="12.016201">
        <ele>1976.643</ele>
        <time>2018-09-11T12:03:00Z</time>
      </trkpt>
      <trkpt lat="46.620764" lon="12.016122">
        <ele>1977.067</ele>
        <time>2018-09-11T12:03:05Z</time>
      </trkpt>
      <trkpt lat="46.620776" lon="12.016023">
        <ele>1979.081</ele>
        <time>2018-09-11T12:03:12Z</time>
      </trkpt>
      <trkpt lat="46.620819" lon="12.015791">
        <ele>1980.919</ele>
        <time>2018-09-11T12:03:29Z</time>
      </trkpt>
      <trkpt lat="46.620877" lon="12.015523">
        <ele>1981.908</ele>
        <time>2018-09-11T12:03:44Z</time>
      </trkpt>
      <trkpt lat="46.620877" lon="12.015507">
        <ele>1981.910</ele>
        <time>2018-09-11T12:03:45Z</time>
      </trkpt>
      <trkpt lat="46.620878" lon="12.015489">
        <ele>1981.992</ele>
        <time>2018-09-11T12:03:46Z</time>
      </trkpt>
      <trkpt lat="46.620881" lon="12.015474">
        <ele>1981.991</ele>
        <time>2018-09-11T12:03:47Z</time>
      </trkpt>
      <trkpt lat="46.620907" lon="12.015403">
        <ele>1982.350</ele>
        <time>2018-09-11T12:03:53Z</time>
      </trkpt>
      <trkpt lat="46.620903" lon="12.015144">
        <ele>1984.396</ele>
        <time>2018-09-11T12:04:10Z</time>
      </trkpt>
      <trkpt lat="46.620893" lon="12.015102">
        <ele>1985.262</ele>
        <time>2018-09-11T12:04:13Z</time>
      </trkpt>
      <trkpt lat="46.620929" lon="12.014911">
        <ele>1986.775</ele>
        <time>2018-09-11T12:04:25Z</time>
      </trkpt>
      <trkpt lat="46.620928" lon="12.014894">
        <ele>1986.778</ele>
        <time>2018-09-11T12:04:26Z</time>
      </trkpt>
      <trkpt lat="46.620926" lon="12.014876">
        <ele>1987.161</ele>
        <time>2018-09-11T12:04:27Z</time>
      </trkpt>
      <trkpt lat="46.620925" lon="12.014859">
        <ele>1987.121</ele>
        <time>2018-09-11T12:04:28Z</time>
      </trkpt>
      <trkpt lat="46.620923" lon="12.014841">
        <ele>1987.113</ele>
        <time>2018-09-11T12:04:29Z</time>
      </trkpt>
      <trkpt lat="46.620922" lon="12.014822">
        <ele>1987.608</ele>
        <time>2018-09-11T12:04:30Z</time>
      </trkpt>
      <trkpt lat="46.620905" lon="12.014661">
        <ele>1988.130</ele>
        <time>2018-09-11T12:04:39Z</time>
      </trkpt>
      <trkpt lat="46.620916" lon="12.014567">
        <ele>1989.142</ele>
        <time>2018-09-11T12:04:45Z</time>
      </trkpt>
      <trkpt lat="46.620916" lon="12.014550">
        <ele>1989.561</ele>
        <time>2018-09-11T12:04:46Z</time>
      </trkpt>
      <trkpt lat="46.620918" lon="12.014534">
        <ele>1989.520</ele>
        <time>2018-09-11T12:04:47Z</time>
      </trkpt>
      <trkpt lat="46.620920" lon="12.014519">
        <ele>1989.526</ele>
        <time>2018-09-11T12:04:48Z</time>
      </trkpt>
      <trkpt lat="46.620922" lon="12.014505">
        <ele>1990.042</ele>
        <time>2018-09-11T12:04:49Z</time>
      </trkpt>
      <trkpt lat="46.620921" lon="12.014489">
        <ele>1990.075</ele>
        <time>2018-09-11T12:04:50Z</time>
      </trkpt>
      <trkpt lat="46.620909" lon="12.014210">
        <ele>1991.518</ele>
        <time>2018-09-11T12:05:06Z</time>
      </trkpt>
      <trkpt lat="46.620922" lon="12.013923">
        <ele>1992.471</ele>
        <time>2018-09-11T12:05:21Z</time>
      </trkpt>
      <trkpt lat="46.620940" lon="12.013644">
        <ele>1994.341</ele>
        <time>2018-09-11T12:05:35Z</time>
      </trkpt>
      <trkpt lat="46.620936" lon="12.013624">
        <ele>1994.315</ele>
        <time>2018-09-11T12:05:36Z</time>
      </trkpt>
      <trkpt lat="46.620879" lon="12.013303">
        <ele>1995.808</ele>
        <time>2018-09-11T12:05:50Z</time>
      </trkpt>
      <trkpt lat="46.620666" lon="12.013133">
        <ele>1997.291</ele>
        <time>2018-09-11T12:06:04Z</time>
      </trkpt>
      <trkpt lat="46.620558" lon="12.013115">
        <ele>1998.783</ele>
        <time>2018-09-11T12:06:12Z</time>
      </trkpt>
      <trkpt lat="46.620545" lon="12.013111">
        <ele>1999.282</ele>
        <time>2018-09-11T12:06:13Z</time>
      </trkpt>
      <trkpt lat="46.620536" lon="12.013110">
        <ele>1999.221</ele>
        <time>2018-09-11T12:06:14Z</time>
      </trkpt>
      <trkpt lat="46.620522" lon="12.013103">
        <ele>1996.397</ele>
        <time>2018-09-11T12:06:32Z</time>
      </trkpt>
      <trkpt lat="46.620499" lon="12.013088">
        <ele>1998.763</ele>
        <time>2018-09-11T12:06:59Z</time>
      </trkpt>
      <trkpt lat="46.620484" lon="12.013065">
        <ele>1999.256</ele>
        <time>2018-09-11T12:07:06Z</time>
      </trkpt>
      <trkpt lat="46.620474" lon="12.013051">
        <ele>1999.299</ele>
        <time>2018-09-11T12:07:07Z</time>
      </trkpt>
      <trkpt lat="46.620465" lon="12.013039">
        <ele>1999.216</ele>
        <time>2018-09-11T12:07:08Z</time>
      </trkpt>
      <trkpt lat="46.620441" lon="12.013004">
        <ele>1999.276</ele>
        <time>2018-09-11T12:07:11Z</time>
      </trkpt>
      <trkpt lat="46.620426" lon="12.012990">
        <ele>1998.713</ele>
        <time>2018-09-11T12:07:12Z</time>
      </trkpt>
      <trkpt lat="46.620229" lon="12.012714">
        <ele>1997.708</ele>
        <time>2018-09-11T12:07:22Z</time>
      </trkpt>
      <trkpt lat="46.619912" lon="12.012485">
        <ele>1996.875</ele>
        <time>2018-09-11T12:07:35Z</time>
      </trkpt>
      <trkpt lat="46.619634" lon="12.012347">
        <ele>1997.267</ele>
        <time>2018-09-11T12:07:49Z</time>
      </trkpt>
      <trkpt lat="46.619503" lon="12.012302">
        <ele>1999.216</ele>
        <time>2018-09-11T12:08:02Z</time>
      </trkpt>
      <trkpt lat="46.619484" lon="12.012298">
        <ele>1999.655</ele>
        <time>2018-09-11T12:08:04Z</time>
      </trkpt>
      <trkpt lat="46.619472" lon="12.012297">
        <ele>1999.661</ele>
        <time>2018-09-11T12:08:05Z</time>
      </trkpt>
      <trkpt lat="46.619462" lon="12.012292">
        <ele>1999.657</ele>
        <time>2018-09-11T12:08:06Z</time>
      </trkpt>
      <trkpt lat="46.619279" lon="12.012263">
        <ele>2003.050</ele>
        <time>2018-09-11T12:08:23Z</time>
      </trkpt>
      <trkpt lat="46.619268" lon="12.012265">
        <ele>2003.023</ele>
        <time>2018-09-11T12:08:24Z</time>
      </trkpt>
      <trkpt lat="46.619256" lon="12.012270">
        <ele>2003.517</ele>
        <time>2018-09-11T12:08:25Z</time>
      </trkpt>
      <trkpt lat="46.619247" lon="12.012273">
        <ele>2003.587</ele>
        <time>2018-09-11T12:08:26Z</time>
      </trkpt>
      <trkpt lat="46.619234" lon="12.012272">
        <ele>2003.515</ele>
        <time>2018-09-11T12:08:27Z</time>
      </trkpt>
      <trkpt lat="46.619224" lon="12.012273">
        <ele>2004.008</ele>
        <time>2018-09-11T12:08:28Z</time>
      </trkpt>
      <trkpt lat="46.619214" lon="12.012280">
        <ele>2004.025</ele>
        <time>2018-09-11T12:08:29Z</time>
      </trkpt>
      <trkpt lat="46.619200" lon="12.012280">
        <ele>2004.487</ele>
        <time>2018-09-11T12:08:30Z</time>
      </trkpt>
      <trkpt lat="46.619189" lon="12.012282">
        <ele>2004.446</ele>
        <time>2018-09-11T12:08:31Z</time>
      </trkpt>
      <trkpt lat="46.619179" lon="12.012283">
        <ele>2004.425</ele>
        <time>2018-09-11T12:08:32Z</time>
      </trkpt>
      <trkpt lat="46.619169" lon="12.012286">
        <ele>2004.441</ele>
        <time>2018-09-11T12:08:33Z</time>
      </trkpt>
      <trkpt lat="46.619084" lon="12.012333">
        <ele>2004.947</ele>
        <time>2018-09-11T12:08:41Z</time>
      </trkpt>
      <trkpt lat="46.619074" lon="12.012344">
        <ele>2005.420</ele>
        <time>2018-09-11T12:08:42Z</time>
      </trkpt>
      <trkpt lat="46.618925" lon="12.012540">
        <ele>2007.343</ele>
        <time>2018-09-11T12:08:59Z</time>
      </trkpt>
      <trkpt lat="46.618885" lon="12.012575">
        <ele>2007.334</ele>
        <time>2018-09-11T12:09:03Z</time>
      </trkpt>
      <trkpt lat="46.618684" lon="12.012672">
        <ele>2008.855</ele>
        <time>2018-09-11T12:09:20Z</time>
      </trkpt>
      <trkpt lat="46.618413" lon="12.012700">
        <ele>2011.210</ele>
        <time>2018-09-11T12:09:39Z</time>
      </trkpt>
      <trkpt lat="46.618156" lon="12.012748">
        <ele>2012.608</ele>
        <time>2018-09-11T12:09:57Z</time>
      </trkpt>
      <trkpt lat="46.617888" lon="12.012848">
        <ele>2014.147</ele>
        <time>2018-09-11T12:10:15Z</time>
      </trkpt>
      <trkpt lat="46.617543" lon="12.013022">
        <ele>2016.079</ele>
        <time>2018-09-11T12:10:37Z</time>
      </trkpt>
      <trkpt lat="46.617316" lon="12.013214">
        <ele>2016.578</ele>
        <time>2018-09-11T12:10:53Z</time>
      </trkpt>
      <trkpt lat="46.617149" lon="12.013437">
        <ele>2019.857</ele>
        <time>2018-09-11T12:11:09Z</time>
      </trkpt>
      <trkpt lat="46.616957" lon="12.013618">
        <ele>2019.313</ele>
        <time>2018-09-11T12:11:23Z</time>
      </trkpt>
      <trkpt lat="46.616939" lon="12.013618">
        <ele>2019.349</ele>
        <time>2018-09-11T12:11:24Z</time>
      </trkpt>
      <trkpt lat="46.616705" lon="12.013576">
        <ele>2019.812</ele>
        <time>2018-09-11T12:11:38Z</time>
      </trkpt>
      <trkpt lat="46.616437" lon="12.013515">
        <ele>2021.795</ele>
        <time>2018-09-11T12:11:55Z</time>
      </trkpt>
      <trkpt lat="46.616223" lon="12.013488">
        <ele>2024.184</ele>
        <time>2018-09-11T12:12:10Z</time>
      </trkpt>
      <trkpt lat="46.616042" lon="12.013446">
        <ele>2026.107</ele>
        <time>2018-09-11T12:12:24Z</time>
      </trkpt>
      <trkpt lat="46.616030" lon="12.013452">
        <ele>2026.117</ele>
        <time>2018-09-11T12:12:25Z</time>
      </trkpt>
      <trkpt lat="46.616016" lon="12.013451">
        <ele>2026.108</ele>
        <time>2018-09-11T12:12:26Z</time>
      </trkpt>
      <trkpt lat="46.616002" lon="12.013451">
        <ele>2026.632</ele>
        <time>2018-09-11T12:12:27Z</time>
      </trkpt>
      <trkpt lat="46.615989" lon="12.013452">
        <ele>2026.664</ele>
        <time>2018-09-11T12:12:28Z</time>
      </trkpt>
      <trkpt lat="46.615976" lon="12.013450">
        <ele>2027.023</ele>
        <time>2018-09-11T12:12:29Z</time>
      </trkpt>
      <trkpt lat="46.615892" lon="12.013448">
        <ele>2028.012</ele>
        <time>2018-09-11T12:12:36Z</time>
      </trkpt>
      <trkpt lat="46.615881" lon="12.013453">
        <ele>2028.068</ele>
        <time>2018-09-11T12:12:37Z</time>
      </trkpt>
      <trkpt lat="46.615868" lon="12.013452">
        <ele>2028.024</ele>
        <time>2018-09-11T12:12:38Z</time>
      </trkpt>
      <trkpt lat="46.615678" lon="12.013459">
        <ele>2031.487</ele>
        <time>2018-09-11T12:12:54Z</time>
      </trkpt>
      <trkpt lat="46.615497" lon="12.013386">
        <ele>2032.860</ele>
        <time>2018-09-11T12:13:09Z</time>
      </trkpt>
      <trkpt lat="46.615461" lon="12.013368">
        <ele>2033.375</ele>
        <time>2018-09-11T12:13:12Z</time>
      </trkpt>
      <trkpt lat="46.615450" lon="12.013359">
        <ele>2033.328</ele>
        <time>2018-09-11T12:13:13Z</time>
      </trkpt>
      <trkpt lat="46.615435" lon="12.013357">
        <ele>2033.320</ele>
        <time>2018-09-11T12:13:14Z</time>
      </trkpt>
      <trkpt lat="46.615421" lon="12.013354">
        <ele>2033.308</ele>
        <time>2018-09-11T12:13:15Z</time>
      </trkpt>
      <trkpt lat="46.615405" lon="12.013352">
        <ele>2033.811</ele>
        <time>2018-09-11T12:13:16Z</time>
      </trkpt>
      <trkpt lat="46.615389" lon="12.013349">
        <ele>2033.883</ele>
        <time>2018-09-11T12:13:17Z</time>
      </trkpt>
      <trkpt lat="46.615373" lon="12.013344">
        <ele>2033.362</ele>
        <time>2018-09-11T12:13:18Z</time>
      </trkpt>
      <trkpt lat="46.615358" lon="12.013334">
        <ele>2033.341</ele>
        <time>2018-09-11T12:13:19Z</time>
      </trkpt>
      <trkpt lat="46.615344" lon="12.013320">
        <ele>2033.377</ele>
        <time>2018-09-11T12:13:20Z</time>
      </trkpt>
      <trkpt lat="46.615331" lon="12.013303">
        <ele>2033.323</ele>
        <time>2018-09-11T12:13:21Z</time>
      </trkpt>
      <trkpt lat="46.615319" lon="12.013283">
        <ele>2033.346</ele>
        <time>2018-09-11T12:13:22Z</time>
      </trkpt>
      <trkpt lat="46.615304" lon="12.013267">
        <ele>2033.319</ele>
        <time>2018-09-11T12:13:23Z</time>
      </trkpt>
      <trkpt lat="46.615289" lon="12.013251">
        <ele>2033.363</ele>
        <time>2018-09-11T12:13:24Z</time>
      </trkpt>
      <trkpt lat="46.615048" lon="12.013098">
        <ele>2035.244</ele>
        <time>2018-09-11T12:13:40Z</time>
      </trkpt>
      <trkpt lat="46.615008" lon="12.013083">
        <ele>2034.718</ele>
        <time>2018-09-11T12:13:43Z</time>
      </trkpt>
      <trkpt lat="46.614996" lon="12.013082">
        <ele>2034.708</ele>
        <time>2018-09-11T12:13:44Z</time>
      </trkpt>
      <trkpt lat="46.614977" lon="12.013071">
        <ele>2034.740</ele>
        <time>2018-09-11T12:13:46Z</time>
      </trkpt>
      <trkpt lat="46.614968" lon="12.013061">
        <ele>2034.222</ele>
        <time>2018-09-11T12:13:47Z</time>
      </trkpt>
      <trkpt lat="46.614957" lon="12.013051">
        <ele>2034.231</ele>
        <time>2018-09-11T12:13:48Z</time>
      </trkpt>
      <trkpt lat="46.614810" lon="12.012930">
        <ele>2032.820</ele>
        <time>2018-09-11T12:14:01Z</time>
      </trkpt>
      <trkpt lat="46.614784" lon="12.012921">
        <ele>2030.456</ele>
        <time>2018-09-11T12:14:23Z</time>
      </trkpt>
      <trkpt lat="46.614770" lon="12.012922">
        <ele>2030.492</ele>
        <time>2018-09-11T12:14:24Z</time>
      </trkpt>
      <trkpt lat="46.614751" lon="12.012919">
        <ele>2029.965</ele>
        <time>2018-09-11T12:14:25Z</time>
      </trkpt>
      <trkpt lat="46.614725" lon="12.012915">
        <ele>2029.928</ele>
        <time>2018-09-11T12:14:26Z</time>
      </trkpt>
      <trkpt lat="46.614696" lon="12.012904">
        <ele>2029.421</ele>
        <time>2018-09-11T12:14:27Z</time>
      </trkpt>
      <trkpt lat="46.614663" lon="12.012885">
        <ele>2029.041</ele>
        <time>2018-09-11T12:14:28Z</time>
      </trkpt>
      <trkpt lat="46.614626" lon="12.012863">
        <ele>2028.505</ele>
        <time>2018-09-11T12:14:29Z</time>
      </trkpt>
      <trkpt lat="46.614587" lon="12.012848">
        <ele>2028.508</ele>
        <time>2018-09-11T12:14:30Z</time>
      </trkpt>
      <trkpt lat="46.614544" lon="12.012846">
        <ele>2028.566</ele>
        <time>2018-09-11T12:14:31Z</time>
      </trkpt>
      <trkpt lat="46.614500" lon="12.012853">
        <ele>2028.038</ele>
        <time>2018-09-11T12:14:32Z</time>
      </trkpt>
      <trkpt lat="46.614456" lon="12.012866">
        <ele>2028.057</ele>
        <time>2018-09-11T12:14:33Z</time>
      </trkpt>
      <trkpt lat="46.614415" lon="12.012882">
        <ele>2028.096</ele>
        <time>2018-09-11T12:14:34Z</time>
      </trkpt>
      <trkpt lat="46.614200" lon="12.012975">
        <ele>2029.412</ele>
        <time>2018-09-11T12:14:45Z</time>
      </trkpt>
      <trkpt lat="46.613998" lon="12.013030">
        <ele>2032.888</ele>
        <time>2018-09-11T12:15:03Z</time>
      </trkpt>
      <trkpt lat="46.613836" lon="12.013042">
        <ele>2036.281</ele>
        <time>2018-09-11T12:15:19Z</time>
      </trkpt>
      <trkpt lat="46.613818" lon="12.013037">
        <ele>2036.674</ele>
        <time>2018-09-11T12:15:21Z</time>
      </trkpt>
      <trkpt lat="46.613678" lon="12.013014">
        <ele>2039.581</ele>
        <time>2018-09-11T12:15:35Z</time>
      </trkpt>
      <trkpt lat="46.613667" lon="12.013014">
        <ele>2039.561</ele>
        <time>2018-09-11T12:15:36Z</time>
      </trkpt>
      <trkpt lat="46.613656" lon="12.013018">
        <ele>2039.517</ele>
        <time>2018-09-11T12:15:37Z</time>
      </trkpt>
      <trkpt lat="46.613644" lon="12.013020">
        <ele>2040.008</ele>
        <time>2018-09-11T12:15:38Z</time>
      </trkpt>
      <trkpt lat="46.613632" lon="12.013019">
        <ele>2040.072</ele>
        <time>2018-09-11T12:15:39Z</time>
      </trkpt>
      <trkpt lat="46.613622" lon="12.013019">
        <ele>2040.054</ele>
        <time>2018-09-11T12:15:40Z</time>
      </trkpt>
      <trkpt lat="46.613612" lon="12.013018">
        <ele>2040.563</ele>
        <time>2018-09-11T12:15:41Z</time>
      </trkpt>
      <trkpt lat="46.613442" lon="12.013031">
        <ele>2042.942</ele>
        <time>2018-09-11T12:15:59Z</time>
      </trkpt>
      <trkpt lat="46.613366" lon="12.013087">
        <ele>2044.358</ele>
        <time>2018-09-11T12:16:11Z</time>
      </trkpt>
      <trkpt lat="46.613225" lon="12.013201">
        <ele>2047.224</ele>
        <time>2018-09-11T12:16:30Z</time>
      </trkpt>
      <trkpt lat="46.613099" lon="12.013284">
        <ele>2050.197</ele>
        <time>2018-09-11T12:16:50Z</time>
      </trkpt>
      <trkpt lat="46.612986" lon="12.013347">
        <ele>2053.060</ele>
        <time>2018-09-11T12:17:10Z</time>
      </trkpt>
      <trkpt lat="46.612888" lon="12.013439">
        <ele>2056.466</ele>
        <time>2018-09-11T12:17:27Z</time>
      </trkpt>
      <trkpt lat="46.612774" lon="12.013529">
        <ele>2057.329</ele>
        <time>2018-09-11T12:17:44Z</time>
      </trkpt>
      <trkpt lat="46.612644" lon="12.013558">
        <ele>2059.221</ele>
        <time>2018-09-11T12:18:02Z</time>
      </trkpt>
      <trkpt lat="46.612496" lon="12.013563">
        <ele>2060.708</ele>
        <time>2018-09-11T12:18:19Z</time>
      </trkpt>
      <trkpt lat="46.612375" lon="12.013595">
        <ele>2062.160</ele>
        <time>2018-09-11T12:18:35Z</time>
      </trkpt>
      <trkpt lat="46.612354" lon="12.013648">
        <ele>2062.692</ele>
        <time>2018-09-11T12:18:41Z</time>
      </trkpt>
      <trkpt lat="46.612322" lon="12.013774">
        <ele>2062.691</ele>
        <time>2018-09-11T12:18:57Z</time>
      </trkpt>
      <trkpt lat="46.612313" lon="12.013788">
        <ele>2062.610</ele>
        <time>2018-09-11T12:19:00Z</time>
      </trkpt>
      <trkpt lat="46.612233" lon="12.013891">
        <ele>2063.636</ele>
        <time>2018-09-11T12:19:11Z</time>
      </trkpt>
      <trkpt lat="46.612150" lon="12.014051">
        <ele>2064.032</ele>
        <time>2018-09-11T12:19:24Z</time>
      </trkpt>
      <trkpt lat="46.612145" lon="12.014065">
        <ele>2063.675</ele>
        <time>2018-09-11T12:19:25Z</time>
      </trkpt>
      <trkpt lat="46.612140" lon="12.014079">
        <ele>2064.068</ele>
        <time>2018-09-11T12:19:26Z</time>
      </trkpt>
      <trkpt lat="46.612129" lon="12.014106">
        <ele>2064.022</ele>
        <time>2018-09-11T12:19:28Z</time>
      </trkpt>
      <trkpt lat="46.612121" lon="12.014117">
        <ele>2064.062</ele>
        <time>2018-09-11T12:19:29Z</time>
      </trkpt>
      <trkpt lat="46.612115" lon="12.014131">
        <ele>2064.008</ele>
        <time>2018-09-11T12:19:30Z</time>
      </trkpt>
      <trkpt lat="46.612108" lon="12.014143">
        <ele>2064.508</ele>
        <time>2018-09-11T12:19:31Z</time>
      </trkpt>
      <trkpt lat="46.612102" lon="12.014157">
        <ele>2065.096</ele>
        <time>2018-09-11T12:19:32Z</time>
      </trkpt>
      <trkpt lat="46.612097" lon="12.014173">
        <ele>2065.098</ele>
        <time>2018-09-11T12:19:33Z</time>
      </trkpt>
      <trkpt lat="46.612090" lon="12.014186">
        <ele>2065.027</ele>
        <time>2018-09-11T12:19:34Z</time>
      </trkpt>
      <trkpt lat="46.612082" lon="12.014239">
        <ele>2066.056</ele>
        <time>2018-09-11T12:19:38Z</time>
      </trkpt>
      <trkpt lat="46.612063" lon="12.014307">
        <ele>2066.032</ele>
        <time>2018-09-11T12:55:55Z</time>
      </trkpt>
      <trkpt lat="46.612053" lon="12.014326">
        <ele>2065.058</ele>
        <time>2018-09-11T12:58:20Z</time>
      </trkpt>
      <trkpt lat="46.612065" lon="12.014326">
        <ele>2062.171</ele>
        <time>2018-09-11T12:58:52Z</time>
      </trkpt>
      <trkpt lat="46.612053" lon="12.014349">
        <ele>2064.554</ele>
        <time>2018-09-11T12:59:26Z</time>
      </trkpt>
      <trkpt lat="46.612044" lon="12.014342">
        <ele>2066.017</ele>
        <time>2018-09-11T13:00:07Z</time>
      </trkpt>
      <trkpt lat="46.612058" lon="12.014337">
        <ele>2066.987</ele>
        <time>2018-09-11T13:00:38Z</time>
      </trkpt>
      <trkpt lat="46.612102" lon="12.014367">
        <ele>2066.415</ele>
        <time>2018-09-11T13:00:58Z</time>
      </trkpt>
      <trkpt lat="46.612110" lon="12.014384">
        <ele>2066.008</ele>
        <time>2018-09-11T13:00:59Z</time>
      </trkpt>
      <trkpt lat="46.612194" lon="12.014744">
        <ele>2067.925</ele>
        <time>2018-09-11T13:01:15Z</time>
      </trkpt>
      <trkpt lat="46.612231" lon="12.014931">
        <ele>2069.337</ele>
        <time>2018-09-11T13:01:27Z</time>
      </trkpt>
      <trkpt lat="46.612326" lon="12.015090">
        <ele>2071.386</ele>
        <time>2018-09-11T13:01:42Z</time>
      </trkpt>
      <trkpt lat="46.612395" lon="12.015164">
        <ele>2072.275</ele>
        <time>2018-09-11T13:01:51Z</time>
      </trkpt>
      <trkpt lat="46.612432" lon="12.015220">
        <ele>2073.781</ele>
        <time>2018-09-11T13:01:57Z</time>
      </trkpt>
      <trkpt lat="46.612439" lon="12.015232">
        <ele>2074.187</ele>
        <time>2018-09-11T13:01:58Z</time>
      </trkpt>
      <trkpt lat="46.612448" lon="12.015242">
        <ele>2074.110</ele>
        <time>2018-09-11T13:01:59Z</time>
      </trkpt>
      <trkpt lat="46.612467" lon="12.015286">
        <ele>2074.623</ele>
        <time>2018-09-11T13:02:02Z</time>
      </trkpt>
      <trkpt lat="46.612465" lon="12.015393">
        <ele>2075.124</ele>
        <time>2018-09-11T13:02:09Z</time>
      </trkpt>
      <trkpt lat="46.612405" lon="12.015440">
        <ele>2075.604</ele>
        <time>2018-09-11T13:02:21Z</time>
      </trkpt>
      <trkpt lat="46.612297" lon="12.015451">
        <ele>2078.014</ele>
        <time>2018-09-11T13:02:39Z</time>
      </trkpt>
      <trkpt lat="46.612153" lon="12.015491">
        <ele>2080.408</ele>
        <time>2018-09-11T13:03:00Z</time>
      </trkpt>
      <trkpt lat="46.612115" lon="12.015493">
        <ele>2080.416</ele>
        <time>2018-09-11T13:03:08Z</time>
      </trkpt>
      <trkpt lat="46.612021" lon="12.015465">
        <ele>2082.318</ele>
        <time>2018-09-11T13:03:18Z</time>
      </trkpt>
      <trkpt lat="46.612013" lon="12.015457">
        <ele>2082.857</ele>
        <time>2018-09-11T13:03:19Z</time>
      </trkpt>
      <trkpt lat="46.611914" lon="12.015393">
        <ele>2084.776</ele>
        <time>2018-09-11T13:03:30Z</time>
      </trkpt>
      <trkpt lat="46.611896" lon="12.015385">
        <ele>2085.232</ele>
        <time>2018-09-11T13:03:32Z</time>
      </trkpt>
      <trkpt lat="46.611838" lon="12.015332">
        <ele>2086.648</ele>
        <time>2018-09-11T13:03:38Z</time>
      </trkpt>
      <trkpt lat="46.611830" lon="12.015322">
        <ele>2086.631</ele>
        <time>2018-09-11T13:03:39Z</time>
      </trkpt>
      <trkpt lat="46.611689" lon="12.015125">
        <ele>2090.054</ele>
        <time>2018-09-11T13:03:58Z</time>
      </trkpt>
      <trkpt lat="46.611602" lon="12.014952">
        <ele>2091.978</ele>
        <time>2018-09-11T13:04:13Z</time>
      </trkpt>
      <trkpt lat="46.611542" lon="12.014790">
        <ele>2093.433</ele>
        <time>2018-09-11T13:04:26Z</time>
      </trkpt>
      <trkpt lat="46.611547" lon="12.014758">
        <ele>2094.326</ele>
        <time>2018-09-11T13:04:28Z</time>
      </trkpt>
      <trkpt lat="46.611461" lon="12.014575">
        <ele>2095.808</ele>
        <time>2018-09-11T13:04:44Z</time>
      </trkpt>
      <trkpt lat="46.611366" lon="12.014459">
        <ele>2097.721</ele>
        <time>2018-09-11T13:04:58Z</time>
      </trkpt>
      <trkpt lat="46.611253" lon="12.014362">
        <ele>2099.653</ele>
        <time>2018-09-11T13:05:12Z</time>
      </trkpt>
      <trkpt lat="46.611219" lon="12.014382">
        <ele>2100.682</ele>
        <time>2018-09-11T13:05:16Z</time>
      </trkpt>
      <trkpt lat="46.611186" lon="12.014439">
        <ele>2102.071</ele>
        <time>2018-09-11T13:05:22Z</time>
      </trkpt>
      <trkpt lat="46.611184" lon="12.014471">
        <ele>2102.027</ele>
        <time>2018-09-11T13:05:24Z</time>
      </trkpt>
      <trkpt lat="46.611187" lon="12.014487">
        <ele>2102.073</ele>
        <time>2018-09-11T13:05:25Z</time>
      </trkpt>
      <trkpt lat="46.611227" lon="12.014699">
        <ele>2104.956</ele>
        <time>2018-09-11T13:05:41Z</time>
      </trkpt>
      <trkpt lat="46.611240" lon="12.014819">
        <ele>2105.469</ele>
        <time>2018-09-11T13:05:50Z</time>
      </trkpt>
      <trkpt lat="46.611200" lon="12.014958">
        <ele>2108.354</ele>
        <time>2018-09-11T13:06:01Z</time>
      </trkpt>
      <trkpt lat="46.611147" lon="12.015022">
        <ele>2108.756</ele>
        <time>2018-09-11T13:06:08Z</time>
      </trkpt>
      <trkpt lat="46.611110" lon="12.015257">
        <ele>2110.711</ele>
        <time>2018-09-11T13:06:25Z</time>
      </trkpt>
      <trkpt lat="46.611046" lon="12.015444">
        <ele>2114.008</ele>
        <time>2018-09-11T13:06:41Z</time>
      </trkpt>
      <trkpt lat="46.611019" lon="12.015548">
        <ele>2115.599</ele>
        <time>2018-09-11T13:06:49Z</time>
      </trkpt>
      <trkpt lat="46.611023" lon="12.015568">
        <ele>2115.541</ele>
        <time>2018-09-11T13:06:50Z</time>
      </trkpt>
      <trkpt lat="46.611032" lon="12.015584">
        <ele>2115.510</ele>
        <time>2018-09-11T13:06:51Z</time>
      </trkpt>
      <trkpt lat="46.611020" lon="12.015830">
        <ele>2117.939</ele>
        <time>2018-09-11T13:07:08Z</time>
      </trkpt>
      <trkpt lat="46.611023" lon="12.015853">
        <ele>2117.945</ele>
        <time>2018-09-11T13:07:10Z</time>
      </trkpt>
      <trkpt lat="46.611038" lon="12.015992">
        <ele>2118.411</ele>
        <time>2018-09-11T13:07:20Z</time>
      </trkpt>
      <trkpt lat="46.611057" lon="12.016032">
        <ele>2118.424</ele>
        <time>2018-09-11T13:07:23Z</time>
      </trkpt>
      <trkpt lat="46.611060" lon="12.016249">
        <ele>2120.317</ele>
        <time>2018-09-11T13:07:38Z</time>
      </trkpt>
      <trkpt lat="46.611066" lon="12.016293">
        <ele>2121.254</ele>
        <time>2018-09-11T13:07:41Z</time>
      </trkpt>
      <trkpt lat="46.611098" lon="12.016414">
        <ele>2122.256</ele>
        <time>2018-09-11T13:07:51Z</time>
      </trkpt>
      <trkpt lat="46.611074" lon="12.016639">
        <ele>2125.111</ele>
        <time>2018-09-11T13:08:07Z</time>
      </trkpt>
      <trkpt lat="46.611044" lon="12.016712">
        <ele>2126.008</ele>
        <time>2018-09-11T13:08:13Z</time>
      </trkpt>
      <trkpt lat="46.611035" lon="12.016720">
        <ele>2126.089</ele>
        <time>2018-09-11T13:08:14Z</time>
      </trkpt>
      <trkpt lat="46.611006" lon="12.016760">
        <ele>2126.071</ele>
        <time>2018-09-11T13:08:18Z</time>
      </trkpt>
      <trkpt lat="46.611000" lon="12.016774">
        <ele>2126.090</ele>
        <time>2018-09-11T13:08:19Z</time>
      </trkpt>
      <trkpt lat="46.610995" lon="12.016786">
        <ele>2126.059</ele>
        <time>2018-09-11T13:08:20Z</time>
      </trkpt>
      <trkpt lat="46.610992" lon="12.016800">
        <ele>2126.075</ele>
        <time>2018-09-11T13:08:21Z</time>
      </trkpt>
      <trkpt lat="46.610991" lon="12.016814">
        <ele>2126.041</ele>
        <time>2018-09-11T13:08:22Z</time>
      </trkpt>
      <trkpt lat="46.610985" lon="12.016828">
        <ele>2126.094</ele>
        <time>2018-09-11T13:08:23Z</time>
      </trkpt>
      <trkpt lat="46.610960" lon="12.016981">
        <ele>2127.057</ele>
        <time>2018-09-11T13:08:33Z</time>
      </trkpt>
      <trkpt lat="46.610946" lon="12.017009">
        <ele>2127.044</ele>
        <time>2018-09-11T13:08:35Z</time>
      </trkpt>
      <trkpt lat="46.610943" lon="12.017026">
        <ele>2127.005</ele>
        <time>2018-09-11T13:08:36Z</time>
      </trkpt>
      <trkpt lat="46.610933" lon="12.017073">
        <ele>2127.515</ele>
        <time>2018-09-11T13:08:39Z</time>
      </trkpt>
      <trkpt lat="46.610924" lon="12.017081">
        <ele>2127.508</ele>
        <time>2018-09-11T13:08:40Z</time>
      </trkpt>
      <trkpt lat="46.610914" lon="12.017084">
        <ele>2128.078</ele>
        <time>2018-09-11T13:08:41Z</time>
      </trkpt>
      <trkpt lat="46.610901" lon="12.017084">
        <ele>2128.090</ele>
        <time>2018-09-11T13:08:42Z</time>
      </trkpt>
      <trkpt lat="46.610889" lon="12.017081">
        <ele>2128.029</ele>
        <time>2018-09-11T13:08:43Z</time>
      </trkpt>
      <trkpt lat="46.610880" lon="12.017076">
        <ele>2128.568</ele>
        <time>2018-09-11T13:08:44Z</time>
      </trkpt>
      <trkpt lat="46.610873" lon="12.017067">
        <ele>2128.564</ele>
        <time>2018-09-11T13:08:45Z</time>
      </trkpt>
      <trkpt lat="46.610866" lon="12.017055">
        <ele>2128.930</ele>
        <time>2018-09-11T13:08:46Z</time>
      </trkpt>
      <trkpt lat="46.610859" lon="12.017041">
        <ele>2128.933</ele>
        <time>2018-09-11T13:08:47Z</time>
      </trkpt>
      <trkpt lat="46.610853" lon="12.017028">
        <ele>2128.956</ele>
        <time>2018-09-11T13:08:48Z</time>
      </trkpt>
      <trkpt lat="46.610850" lon="12.017013">
        <ele>2128.936</ele>
        <time>2018-09-11T13:08:49Z</time>
      </trkpt>
      <trkpt lat="46.610847" lon="12.016995">
        <ele>2128.917</ele>
        <time>2018-09-11T13:08:50Z</time>
      </trkpt>
      <trkpt lat="46.610848" lon="12.016979">
        <ele>2129.418</ele>
        <time>2018-09-11T13:08:51Z</time>
      </trkpt>
      <trkpt lat="46.610848" lon="12.016964">
        <ele>2129.408</ele>
        <time>2018-09-11T13:08:52Z</time>
      </trkpt>
      <trkpt lat="46.610820" lon="12.016757">
        <ele>2132.327</ele>
        <time>2018-09-11T13:09:08Z</time>
      </trkpt>
      <trkpt lat="46.610819" lon="12.016682">
        <ele>2132.829</ele>
        <time>2018-09-11T13:09:21Z</time>
      </trkpt>
      <trkpt lat="46.610772" lon="12.016523">
        <ele>2136.128</ele>
        <time>2018-09-11T13:09:41Z</time>
      </trkpt>
      <trkpt lat="46.610729" lon="12.016401">
        <ele>2138.197</ele>
        <time>2018-09-11T13:09:59Z</time>
      </trkpt>
      <trkpt lat="46.610692" lon="12.016277">
        <ele>2140.063</ele>
        <time>2018-09-11T13:10:17Z</time>
      </trkpt>
      <trkpt lat="46.610675" lon="12.016151">
        <ele>2142.499</ele>
        <time>2018-09-11T13:10:34Z</time>
      </trkpt>
      <trkpt lat="46.610672" lon="12.016134">
        <ele>2143.422</ele>
        <time>2018-09-11T13:10:54Z</time>
      </trkpt>
      <trkpt lat="46.610626" lon="12.016054">
        <ele>2144.325</ele>
        <time>2018-09-11T13:11:26Z</time>
      </trkpt>
      <trkpt lat="46.610562" lon="12.015894">
        <ele>2146.722</ele>
        <time>2018-09-11T13:11:44Z</time>
      </trkpt>
      <trkpt lat="46.610502" lon="12.015760">
        <ele>2149.162</ele>
        <time>2018-09-11T13:12:03Z</time>
      </trkpt>
      <trkpt lat="46.610433" lon="12.015646">
        <ele>2151.008</ele>
        <time>2018-09-11T13:12:21Z</time>
      </trkpt>
      <trkpt lat="46.610357" lon="12.015517">
        <ele>2153.908</ele>
        <time>2018-09-11T13:12:41Z</time>
      </trkpt>
      <trkpt lat="46.610284" lon="12.015408">
        <ele>2156.386</ele>
        <time>2018-09-11T13:12:59Z</time>
      </trkpt>
      <trkpt lat="46.610228" lon="12.015318">
        <ele>2158.318</ele>
        <time>2018-09-11T13:13:14Z</time>
      </trkpt>
      <trkpt lat="46.610148" lon="12.015203">
        <ele>2159.747</ele>
        <time>2018-09-11T13:13:33Z</time>
      </trkpt>
      <trkpt lat="46.610069" lon="12.015103">
        <ele>2161.166</ele>
        <time>2018-09-11T13:13:50Z</time>
      </trkpt>
      <trkpt lat="46.609967" lon="12.015017">
        <ele>2164.042</ele>
        <time>2018-09-11T13:14:10Z</time>
      </trkpt>
      <trkpt lat="46.609847" lon="12.014973">
        <ele>2166.448</ele>
        <time>2018-09-11T13:14:29Z</time>
      </trkpt>
      <trkpt lat="46.609735" lon="12.014961">
        <ele>2168.841</ele>
        <time>2018-09-11T13:14:48Z</time>
      </trkpt>
      <trkpt lat="46.609642" lon="12.015051">
        <ele>2170.334</ele>
        <time>2018-09-11T13:15:07Z</time>
      </trkpt>
      <trkpt lat="46.609642" lon="12.015067">
        <ele>2168.814</ele>
        <time>2018-09-11T13:15:27Z</time>
      </trkpt>
      <trkpt lat="46.609609" lon="12.015075">
        <ele>2168.854</ele>
        <time>2018-09-11T13:15:47Z</time>
      </trkpt>
      <trkpt lat="46.609450" lon="12.015217">
        <ele>2171.709</ele>
        <time>2018-09-11T13:16:06Z</time>
      </trkpt>
      <trkpt lat="46.609365" lon="12.015323">
        <ele>2173.208</ele>
        <time>2018-09-11T13:16:24Z</time>
      </trkpt>
      <trkpt lat="46.609367" lon="12.015334">
        <ele>2173.215</ele>
        <time>2018-09-11T13:16:51Z</time>
      </trkpt>
      <trkpt lat="46.609368" lon="12.015352">
        <ele>2171.797</ele>
        <time>2018-09-11T13:17:25Z</time>
      </trkpt>
      <trkpt lat="46.609367" lon="12.015334">
        <ele>2170.366</ele>
        <time>2018-09-11T13:18:08Z</time>
      </trkpt>
      <trkpt lat="46.609383" lon="12.015332">
        <ele>2169.865</ele>
        <time>2018-09-11T13:18:36Z</time>
      </trkpt>
      <trkpt lat="46.609351" lon="12.015345">
        <ele>2171.251</ele>
        <time>2018-09-11T13:19:02Z</time>
      </trkpt>
      <trkpt lat="46.609337" lon="12.015340">
        <ele>2171.757</ele>
        <time>2018-09-11T13:19:04Z</time>
      </trkpt>
      <trkpt lat="46.609295" lon="12.015348">
        <ele>2172.740</ele>
        <time>2018-09-11T13:19:08Z</time>
      </trkpt>
      <trkpt lat="46.609235" lon="12.015395">
        <ele>2173.253</ele>
        <time>2018-09-11T13:19:13Z</time>
      </trkpt>
      <trkpt lat="46.608928" lon="12.015767">
        <ele>2172.273</ele>
        <time>2018-09-11T13:19:25Z</time>
      </trkpt>
      <trkpt lat="46.608624" lon="12.015974">
        <ele>2171.785</ele>
        <time>2018-09-11T13:19:35Z</time>
      </trkpt>
      <trkpt lat="46.608481" lon="12.016035">
        <ele>2170.713</ele>
        <time>2018-09-11T13:19:38Z</time>
      </trkpt>
      <trkpt lat="46.607976" lon="12.016430">
        <ele>2168.308</ele>
        <time>2018-09-11T13:19:49Z</time>
      </trkpt>
      <trkpt lat="46.607544" lon="12.017029">
        <ele>2168.391</ele>
        <time>2018-09-11T13:20:01Z</time>
      </trkpt>
      <trkpt lat="46.607284" lon="12.017212">
        <ele>2170.383</ele>
        <time>2018-09-11T13:20:17Z</time>
      </trkpt>
      <trkpt lat="46.607156" lon="12.017518">
        <ele>2170.362</ele>
        <time>2018-09-11T13:20:31Z</time>
      </trkpt>
      <trkpt lat="46.607251" lon="12.017897">
        <ele>2169.811</ele>
        <time>2018-09-11T13:20:45Z</time>
      </trkpt>
      <trkpt lat="46.607251" lon="12.017935">
        <ele>2169.387</ele>
        <time>2018-09-11T13:20:58Z</time>
      </trkpt>
      <trkpt lat="46.607254" lon="12.017965">
        <ele>2169.333</ele>
        <time>2018-09-11T13:21:10Z</time>
      </trkpt>
      <trkpt lat="46.607249" lon="12.017989">
        <ele>2168.876</ele>
        <time>2018-09-11T13:21:11Z</time>
      </trkpt>
      <trkpt lat="46.607086" lon="12.018346">
        <ele>2164.599</ele>
        <time>2018-09-11T13:21:21Z</time>
      </trkpt>
      <trkpt lat="46.606837" lon="12.018848">
        <ele>2163.538</ele>
        <time>2018-09-11T13:21:33Z</time>
      </trkpt>
      <trkpt lat="46.606506" lon="12.019301">
        <ele>2165.570</ele>
        <time>2018-09-11T13:21:48Z</time>
      </trkpt>
      <trkpt lat="46.606240" lon="12.019573">
        <ele>2166.917</ele>
        <time>2018-09-11T13:22:01Z</time>
      </trkpt>
      <trkpt lat="46.606029" lon="12.019719">
        <ele>2166.908</ele>
        <time>2018-09-11T13:22:15Z</time>
      </trkpt>
      <trkpt lat="46.605678" lon="12.019843">
        <ele>2165.517</ele>
        <time>2018-09-11T13:22:26Z</time>
      </trkpt>
      <trkpt lat="46.605294" lon="12.020044">
        <ele>2162.159</ele>
        <time>2018-09-11T13:22:41Z</time>
      </trkpt>
      <trkpt lat="46.604992" lon="12.020233">
        <ele>2160.218</ele>
        <time>2018-09-11T13:22:55Z</time>
      </trkpt>
      <trkpt lat="46.604954" lon="12.020237">
        <ele>2159.757</ele>
        <time>2018-09-11T13:22:56Z</time>
      </trkpt>
      <trkpt lat="46.604333" lon="12.020150">
        <ele>2157.893</ele>
        <time>2018-09-11T13:23:09Z</time>
      </trkpt>
      <trkpt lat="46.604291" lon="12.020157">
        <ele>2157.869</ele>
        <time>2018-09-11T13:23:10Z</time>
      </trkpt>
      <trkpt lat="46.604253" lon="12.020169">
        <ele>2157.862</ele>
        <time>2018-09-11T13:23:11Z</time>
      </trkpt>
      <trkpt lat="46.604215" lon="12.020185">
        <ele>2157.825</ele>
        <time>2018-09-11T13:23:12Z</time>
      </trkpt>
      <trkpt lat="46.604178" lon="12.020204">
        <ele>2157.831</ele>
        <time>2018-09-11T13:23:13Z</time>
      </trkpt>
      <trkpt lat="46.603863" lon="12.020246">
        <ele>2157.861</ele>
        <time>2018-09-11T13:23:25Z</time>
      </trkpt>
      <trkpt lat="46.603486" lon="12.020339">
        <ele>2155.407</ele>
        <time>2018-09-11T13:23:36Z</time>
      </trkpt>
      <trkpt lat="46.603233" lon="12.020668">
        <ele>2153.908</ele>
        <time>2018-09-11T13:23:48Z</time>
      </trkpt>
      <trkpt lat="46.603124" lon="12.021084">
        <ele>2149.657</ele>
        <time>2018-09-11T13:23:59Z</time>
      </trkpt>
      <trkpt lat="46.602966" lon="12.021624">
        <ele>2145.319</ele>
        <time>2018-09-11T13:24:15Z</time>
      </trkpt>
      <trkpt lat="46.602768" lon="12.022049">
        <ele>2142.458</ele>
        <time>2018-09-11T13:24:29Z</time>
      </trkpt>
      <trkpt lat="46.602777" lon="12.022075">
        <ele>2142.467</ele>
        <time>2018-09-11T13:24:30Z</time>
      </trkpt>
      <trkpt lat="46.602786" lon="12.022098">
        <ele>2141.933</ele>
        <time>2018-09-11T13:24:31Z</time>
      </trkpt>
      <trkpt lat="46.602793" lon="12.022126">
        <ele>2141.999</ele>
        <time>2018-09-11T13:24:32Z</time>
      </trkpt>
      <trkpt lat="46.602796" lon="12.022155">
        <ele>2141.472</ele>
        <time>2018-09-11T13:24:33Z</time>
      </trkpt>
      <trkpt lat="46.602792" lon="12.022187">
        <ele>2141.485</ele>
        <time>2018-09-11T13:24:34Z</time>
      </trkpt>
      <trkpt lat="46.602779" lon="12.022214">
        <ele>2140.952</ele>
        <time>2018-09-11T13:24:35Z</time>
      </trkpt>
      <trkpt lat="46.602759" lon="12.022229">
        <ele>2140.953</ele>
        <time>2018-09-11T13:24:36Z</time>
      </trkpt>
      <trkpt lat="46.602742" lon="12.022234">
        <ele>2140.908</ele>
        <time>2018-09-11T13:24:37Z</time>
      </trkpt>
      <trkpt lat="46.602686" lon="12.022225">
        <ele>2140.508</ele>
        <time>2018-09-11T13:24:49Z</time>
      </trkpt>
      <trkpt lat="46.602692" lon="12.022194">
        <ele>2139.089</ele>
        <time>2018-09-11T13:25:07Z</time>
      </trkpt>
      <trkpt lat="46.602669" lon="12.022122">
        <ele>2138.531</ele>
        <time>2018-09-11T13:25:10Z</time>
      </trkpt>
      <trkpt lat="46.602673" lon="12.022091">
        <ele>2138.110</ele>
        <time>2018-09-11T13:25:11Z</time>
      </trkpt>
      <trkpt lat="46.602681" lon="12.022058">
        <ele>2138.169</ele>
        <time>2018-09-11T13:25:12Z</time>
      </trkpt>
      <trkpt lat="46.602778" lon="12.021730">
        <ele>2137.195</ele>
        <time>2018-09-11T13:25:21Z</time>
      </trkpt>
      <trkpt lat="46.602768" lon="12.021693">
        <ele>2136.671</ele>
        <time>2018-09-11T13:25:22Z</time>
      </trkpt>
      <trkpt lat="46.602752" lon="12.021664">
        <ele>2136.634</ele>
        <time>2018-09-11T13:25:23Z</time>
      </trkpt>
      <trkpt lat="46.602732" lon="12.021643">
        <ele>2136.197</ele>
        <time>2018-09-11T13:25:24Z</time>
      </trkpt>
      <trkpt lat="46.602709" lon="12.021633">
        <ele>2136.172</ele>
        <time>2018-09-11T13:25:25Z</time>
      </trkpt>
      <trkpt lat="46.602682" lon="12.021634">
        <ele>2135.713</ele>
        <time>2018-09-11T13:25:26Z</time>
      </trkpt>
      <trkpt lat="46.602656" lon="12.021643">
        <ele>2135.214</ele>
        <time>2018-09-11T13:25:27Z</time>
      </trkpt>
      <trkpt lat="46.602629" lon="12.021656">
        <ele>2134.708</ele>
        <time>2018-09-11T13:25:28Z</time>
      </trkpt>
      <trkpt lat="46.602601" lon="12.021672">
        <ele>2134.291</ele>
        <time>2018-09-11T13:25:29Z</time>
      </trkpt>
      <trkpt lat="46.602576" lon="12.021695">
        <ele>2133.733</ele>
        <time>2018-09-11T13:25:30Z</time>
      </trkpt>
      <trkpt lat="46.602554" lon="12.021722">
        <ele>2132.822</ele>
        <time>2018-09-11T13:25:31Z</time>
      </trkpt>
      <trkpt lat="46.602534" lon="12.021742">
        <ele>2132.831</ele>
        <time>2018-09-11T13:25:32Z</time>
      </trkpt>
      <trkpt lat="46.602515" lon="12.021754">
        <ele>2132.367</ele>
        <time>2018-09-11T13:25:33Z</time>
      </trkpt>
      <trkpt lat="46.602344" lon="12.021858">
        <ele>2131.363</ele>
        <time>2018-09-11T13:25:44Z</time>
      </trkpt>
      <trkpt lat="46.602321" lon="12.021865">
        <ele>2130.926</ele>
        <time>2018-09-11T13:25:45Z</time>
      </trkpt>
      <trkpt lat="46.602299" lon="12.021884">
        <ele>2130.929</ele>
        <time>2018-09-11T13:25:46Z</time>
      </trkpt>
      <trkpt lat="46.602279" lon="12.021906">
        <ele>2130.488</ele>
        <time>2018-09-11T13:25:47Z</time>
      </trkpt>
      <trkpt lat="46.601932" lon="12.022151">
        <ele>2126.024</ele>
        <time>2018-09-11T13:26:00Z</time>
      </trkpt>
      <trkpt lat="46.601677" lon="12.022148">
        <ele>2127.026</ele>
        <time>2018-09-11T13:26:10Z</time>
      </trkpt>
      <trkpt lat="46.601349" lon="12.022184">
        <ele>2125.608</ele>
        <time>2018-09-11T13:26:23Z</time>
      </trkpt>
      <trkpt lat="46.601262" lon="12.022208">
        <ele>2124.192</ele>
        <time>2018-09-11T13:26:27Z</time>
      </trkpt>
      <trkpt lat="46.601247" lon="12.022240">
        <ele>2123.624</ele>
        <time>2018-09-11T13:26:28Z</time>
      </trkpt>
      <trkpt lat="46.601246" lon="12.022277">
        <ele>2123.293</ele>
        <time>2018-09-11T13:26:29Z</time>
      </trkpt>
      <trkpt lat="46.601255" lon="12.022304">
        <ele>2122.712</ele>
        <time>2018-09-11T13:26:30Z</time>
      </trkpt>
      <trkpt lat="46.601266" lon="12.022328">
        <ele>2122.728</ele>
        <time>2018-09-11T13:26:31Z</time>
      </trkpt>
      <trkpt lat="46.601291" lon="12.022422">
        <ele>2120.844</ele>
        <time>2018-09-11T13:26:35Z</time>
      </trkpt>
      <trkpt lat="46.601286" lon="12.022441">
        <ele>2120.367</ele>
        <time>2018-09-11T13:26:36Z</time>
      </trkpt>
      <trkpt lat="46.601278" lon="12.022451">
        <ele>2120.320</ele>
        <time>2018-09-11T13:26:37Z</time>
      </trkpt>
      <trkpt lat="46.601267" lon="12.022456">
        <ele>2119.895</ele>
        <time>2018-09-11T13:26:38Z</time>
      </trkpt>
      <trkpt lat="46.601253" lon="12.022461">
        <ele>2119.849</ele>
        <time>2018-09-11T13:26:39Z</time>
      </trkpt>
      <trkpt lat="46.601065" lon="12.022442">
        <ele>2116.023</ele>
        <time>2018-09-11T13:26:53Z</time>
      </trkpt>
      <trkpt lat="46.600831" lon="12.022294">
        <ele>2110.708</ele>
        <time>2018-09-11T13:27:06Z</time>
      </trkpt>
      <trkpt lat="46.600637" lon="12.022210">
        <ele>2107.343</ele>
        <time>2018-09-11T13:27:19Z</time>
      </trkpt>
      <trkpt lat="46.600297" lon="12.022054">
        <ele>2102.545</ele>
        <time>2018-09-11T13:27:33Z</time>
      </trkpt>
      <trkpt lat="46.599980" lon="12.021895">
        <ele>2100.674</ele>
        <time>2018-09-11T13:27:42Z</time>
      </trkpt>
      <trkpt lat="46.599858" lon="12.021835">
        <ele>2100.163</ele>
        <time>2018-09-11T13:27:45Z</time>
      </trkpt>
      <trkpt lat="46.599659" lon="12.021588">
        <ele>2101.169</ele>
        <time>2018-09-11T13:27:55Z</time>
      </trkpt>
      <trkpt lat="46.599456" lon="12.021361">
        <ele>2102.565</ele>
        <time>2018-09-11T13:28:10Z</time>
      </trkpt>
      <trkpt lat="46.599215" lon="12.021196">
        <ele>2103.998</ele>
        <time>2018-09-11T13:28:26Z</time>
      </trkpt>
      <trkpt lat="46.599163" lon="12.021179">
        <ele>2103.991</ele>
        <time>2018-09-11T13:28:29Z</time>
      </trkpt>
      <trkpt lat="46.599146" lon="12.021174">
        <ele>2103.975</ele>
        <time>2018-09-11T13:28:30Z</time>
      </trkpt>
      <trkpt lat="46.599127" lon="12.021171">
        <ele>2103.928</ele>
        <time>2018-09-11T13:28:31Z</time>
      </trkpt>
      <trkpt lat="46.598834" lon="12.021176">
        <ele>2104.420</ele>
        <time>2018-09-11T13:28:48Z</time>
      </trkpt>
      <trkpt lat="46.598604" lon="12.021379">
        <ele>2105.408</ele>
        <time>2018-09-11T13:29:02Z</time>
      </trkpt>
      <trkpt lat="46.598305" lon="12.021687">
        <ele>2104.951</ele>
        <time>2018-09-11T13:29:15Z</time>
      </trkpt>
      <trkpt lat="46.598094" lon="12.021985">
        <ele>2106.363</ele>
        <time>2018-09-11T13:29:29Z</time>
      </trkpt>
      <trkpt lat="46.597803" lon="12.022115">
        <ele>2106.352</ele>
        <time>2018-09-11T13:29:44Z</time>
      </trkpt>
      <trkpt lat="46.597764" lon="12.022130">
        <ele>2107.361</ele>
        <time>2018-09-11T13:29:47Z</time>
      </trkpt>
      <trkpt lat="46.597750" lon="12.022130">
        <ele>2107.387</ele>
        <time>2018-09-11T13:29:48Z</time>
      </trkpt>
      <trkpt lat="46.597655" lon="12.022151">
        <ele>2108.353</ele>
        <time>2018-09-11T13:29:56Z</time>
      </trkpt>
      <trkpt lat="46.597643" lon="12.022152">
        <ele>2108.346</ele>
        <time>2018-09-11T13:29:57Z</time>
      </trkpt>
      <trkpt lat="46.597630" lon="12.022156">
        <ele>2108.319</ele>
        <time>2018-09-11T13:29:58Z</time>
      </trkpt>
      <trkpt lat="46.597618" lon="12.022163">
        <ele>2108.346</ele>
        <time>2018-09-11T13:29:59Z</time>
      </trkpt>
      <trkpt lat="46.597607" lon="12.022171">
        <ele>2108.388</ele>
        <time>2018-09-11T13:30:00Z</time>
      </trkpt>
      <trkpt lat="46.597598" lon="12.022185">
        <ele>2108.716</ele>
        <time>2018-09-11T13:30:01Z</time>
      </trkpt>
      <trkpt lat="46.597588" lon="12.022199">
        <ele>2108.708</ele>
        <time>2018-09-11T13:30:02Z</time>
      </trkpt>
      <trkpt lat="46.597579" lon="12.022213">
        <ele>2108.758</ele>
        <time>2018-09-11T13:30:03Z</time>
      </trkpt>
      <trkpt lat="46.597572" lon="12.022229">
        <ele>2108.790</ele>
        <time>2018-09-11T13:30:04Z</time>
      </trkpt>
      <trkpt lat="46.597349" lon="12.022389">
        <ele>2107.889</ele>
        <time>2018-09-11T13:30:18Z</time>
      </trkpt>
      <trkpt lat="46.597123" lon="12.022478">
        <ele>2106.838</ele>
        <time>2018-09-11T13:30:31Z</time>
      </trkpt>
      <trkpt lat="46.596813" lon="12.022319">
        <ele>2105.454</ele>
        <time>2018-09-11T13:30:45Z</time>
      </trkpt>
      <trkpt lat="46.596572" lon="12.022032">
        <ele>2102.580</ele>
        <time>2018-09-11T13:30:59Z</time>
      </trkpt>
      <trkpt lat="46.596401" lon="12.021959">
        <ele>2101.593</ele>
        <time>2018-09-11T13:31:09Z</time>
      </trkpt>
      <trkpt lat="46.596402" lon="12.021958">
        <ele>2100.656</ele>
        <time>2018-09-11T13:31:34Z</time>
      </trkpt>
      <trkpt lat="46.596196" lon="12.021834">
        <ele>2099.149</ele>
        <time>2018-09-11T13:31:44Z</time>
      </trkpt>
      <trkpt lat="46.595861" lon="12.021783">
        <ele>2099.602</ele>
        <time>2018-09-11T13:31:56Z</time>
      </trkpt>
      <trkpt lat="46.595703" lon="12.021669">
        <ele>2100.122</ele>
        <time>2018-09-11T13:32:06Z</time>
      </trkpt>
      <trkpt lat="46.595685" lon="12.021657">
        <ele>2099.608</ele>
        <time>2018-09-11T13:32:07Z</time>
      </trkpt>
      <trkpt lat="46.595625" lon="12.021631">
        <ele>2099.628</ele>
        <time>2018-09-11T13:32:10Z</time>
      </trkpt>
      <trkpt lat="46.595606" lon="12.021615">
        <ele>2099.640</ele>
        <time>2018-09-11T13:32:11Z</time>
      </trkpt>
      <trkpt lat="46.595588" lon="12.021599">
        <ele>2099.699</ele>
        <time>2018-09-11T13:32:12Z</time>
      </trkpt>
      <trkpt lat="46.595573" lon="12.021577">
        <ele>2100.198</ele>
        <time>2018-09-11T13:32:13Z</time>
      </trkpt>
      <trkpt lat="46.595560" lon="12.021554">
        <ele>2100.114</ele>
        <time>2018-09-11T13:32:14Z</time>
      </trkpt>
      <trkpt lat="46.595548" lon="12.021531">
        <ele>2100.130</ele>
        <time>2018-09-11T13:32:15Z</time>
      </trkpt>
      <trkpt lat="46.595534" lon="12.021512">
        <ele>2100.153</ele>
        <time>2018-09-11T13:32:16Z</time>
      </trkpt>
      <trkpt lat="46.595264" lon="12.021250">
        <ele>2101.196</ele>
        <time>2018-09-11T13:32:32Z</time>
      </trkpt>
      <trkpt lat="46.595031" lon="12.021152">
        <ele>2102.584</ele>
        <time>2018-09-11T13:32:45Z</time>
      </trkpt>
      <trkpt lat="46.594727" lon="12.021018">
        <ele>2103.507</ele>
        <time>2018-09-11T13:33:01Z</time>
      </trkpt>
      <trkpt lat="46.594453" lon="12.020739">
        <ele>2103.517</ele>
        <time>2018-09-11T13:33:15Z</time>
      </trkpt>
      <trkpt lat="46.594231" lon="12.020476">
        <ele>2104.908</ele>
        <time>2018-09-11T13:33:31Z</time>
      </trkpt>
      <trkpt lat="46.593955" lon="12.020336">
        <ele>2106.872</ele>
        <time>2018-09-11T13:33:47Z</time>
      </trkpt>
      <trkpt lat="46.593688" lon="12.020220">
        <ele>2107.384</ele>
        <time>2018-09-11T13:34:02Z</time>
      </trkpt>
      <trkpt lat="46.593415" lon="12.020104">
        <ele>2108.343</ele>
        <time>2018-09-11T13:34:17Z</time>
      </trkpt>
      <trkpt lat="46.593116" lon="12.020058">
        <ele>2109.282</ele>
        <time>2018-09-11T13:34:33Z</time>
      </trkpt>
      <trkpt lat="46.593083" lon="12.020045">
        <ele>2109.778</ele>
        <time>2018-09-11T13:34:35Z</time>
      </trkpt>
      <trkpt lat="46.593068" lon="12.020028">
        <ele>2109.774</ele>
        <time>2018-09-11T13:34:36Z</time>
      </trkpt>
      <trkpt lat="46.593052" lon="12.020013">
        <ele>2109.787</ele>
        <time>2018-09-11T13:34:37Z</time>
      </trkpt>
      <trkpt lat="46.593037" lon="12.019998">
        <ele>2109.760</ele>
        <time>2018-09-11T13:34:38Z</time>
      </trkpt>
      <trkpt lat="46.593023" lon="12.019978">
        <ele>2109.775</ele>
        <time>2018-09-11T13:34:39Z</time>
      </trkpt>
      <trkpt lat="46.593010" lon="12.019956">
        <ele>2109.728</ele>
        <time>2018-09-11T13:34:40Z</time>
      </trkpt>
      <trkpt lat="46.592979" lon="12.019863">
        <ele>2110.220</ele>
        <time>2018-09-11T13:34:44Z</time>
      </trkpt>
      <trkpt lat="46.592910" lon="12.019682">
        <ele>2111.608</ele>
        <time>2018-09-11T13:34:53Z</time>
      </trkpt>
      <trkpt lat="46.592902" lon="12.019674">
        <ele>2111.691</ele>
        <time>2018-09-11T13:34:54Z</time>
      </trkpt>
      <trkpt lat="46.592893" lon="12.019662">
        <ele>2111.693</ele>
        <time>2018-09-11T13:34:55Z</time>
      </trkpt>
      <trkpt lat="46.592883" lon="12.019645">
        <ele>2111.682</ele>
        <time>2018-09-11T13:34:56Z</time>
      </trkpt>
      <trkpt lat="46.592873" lon="12.019629">
        <ele>2112.131</ele>
        <time>2018-09-11T13:34:57Z</time>
      </trkpt>
      <trkpt lat="46.592719" lon="12.019463">
        <ele>2113.667</ele>
        <time>2018-09-11T13:35:10Z</time>
      </trkpt>
      <trkpt lat="46.592710" lon="12.019445">
        <ele>2114.083</ele>
        <time>2018-09-11T13:35:11Z</time>
      </trkpt>
      <trkpt lat="46.592699" lon="12.019431">
        <ele>2114.036</ele>
        <time>2018-09-11T13:35:12Z</time>
      </trkpt>
      <trkpt lat="46.592590" lon="12.019322">
        <ele>2115.019</ele>
        <time>2018-09-11T13:35:21Z</time>
      </trkpt>
      <trkpt lat="46.592577" lon="12.019309">
        <ele>2115.062</ele>
        <time>2018-09-11T13:35:22Z</time>
      </trkpt>
      <trkpt lat="46.592563" lon="12.019297">
        <ele>2115.083</ele>
        <time>2018-09-11T13:35:23Z</time>
      </trkpt>
      <trkpt lat="46.592550" lon="12.019281">
        <ele>2115.011</ele>
        <time>2018-09-11T13:35:24Z</time>
      </trkpt>
      <trkpt lat="46.592537" lon="12.019265">
        <ele>2115.508</ele>
        <time>2018-09-11T13:35:25Z</time>
      </trkpt>
      <trkpt lat="46.592526" lon="12.019250">
        <ele>2115.510</ele>
        <time>2018-09-11T13:35:26Z</time>
      </trkpt>
      <trkpt lat="46.592517" lon="12.019229">
        <ele>2115.562</ele>
        <time>2018-09-11T13:35:27Z</time>
      </trkpt>
      <trkpt lat="46.592334" lon="12.019019">
        <ele>2116.481</ele>
        <time>2018-09-11T13:35:42Z</time>
      </trkpt>
      <trkpt lat="46.592113" lon="12.018895">
        <ele>2117.420</ele>
        <time>2018-09-11T13:35:57Z</time>
      </trkpt>
      <trkpt lat="46.591917" lon="12.018695">
        <ele>2118.836</ele>
        <time>2018-09-11T13:36:12Z</time>
      </trkpt>
      <trkpt lat="46.591739" lon="12.018436">
        <ele>2120.382</ele>
        <time>2018-09-11T13:36:28Z</time>
      </trkpt>
      <trkpt lat="46.591567" lon="12.018234">
        <ele>2122.255</ele>
        <time>2018-09-11T13:36:43Z</time>
      </trkpt>
      <trkpt lat="46.591436" lon="12.018045">
        <ele>2122.778</ele>
        <time>2018-09-11T13:36:56Z</time>
      </trkpt>
      <trkpt lat="46.591429" lon="12.018028">
        <ele>2122.743</ele>
        <time>2018-09-11T13:36:57Z</time>
      </trkpt>
      <trkpt lat="46.591425" lon="12.018008">
        <ele>2122.764</ele>
        <time>2018-09-11T13:36:58Z</time>
      </trkpt>
      <trkpt lat="46.591416" lon="12.017995">
        <ele>2122.710</ele>
        <time>2018-09-11T13:36:59Z</time>
      </trkpt>
      <trkpt lat="46.591404" lon="12.017983">
        <ele>2123.208</ele>
        <time>2018-09-11T13:37:00Z</time>
      </trkpt>
      <trkpt lat="46.591395" lon="12.017971">
        <ele>2123.238</ele>
        <time>2018-09-11T13:37:01Z</time>
      </trkpt>
      <trkpt lat="46.591384" lon="12.017958">
        <ele>2123.260</ele>
        <time>2018-09-11T13:37:02Z</time>
      </trkpt>
      <trkpt lat="46.591374" lon="12.017948">
        <ele>2123.239</ele>
        <time>2018-09-11T13:37:03Z</time>
      </trkpt>
      <trkpt lat="46.591251" lon="12.017636">
        <ele>2124.158</ele>
        <time>2018-09-11T13:37:20Z</time>
      </trkpt>
      <trkpt lat="46.591073" lon="12.017510">
        <ele>2125.664</ele>
        <time>2018-09-11T13:37:35Z</time>
      </trkpt>
      <trkpt lat="46.591061" lon="12.017499">
        <ele>2125.650</ele>
        <time>2018-09-11T13:37:36Z</time>
      </trkpt>
      <trkpt lat="46.591051" lon="12.017484">
        <ele>2125.613</ele>
        <time>2018-09-11T13:37:37Z</time>
      </trkpt>
      <trkpt lat="46.591043" lon="12.017465">
        <ele>2125.626</ele>
        <time>2018-09-11T13:37:38Z</time>
      </trkpt>
      <trkpt lat="46.591038" lon="12.017443">
        <ele>2126.034</ele>
        <time>2018-09-11T13:37:39Z</time>
      </trkpt>
      <trkpt lat="46.591034" lon="12.017422">
        <ele>2126.055</ele>
        <time>2018-09-11T13:37:40Z</time>
      </trkpt>
      <trkpt lat="46.591030" lon="12.017405">
        <ele>2126.010</ele>
        <time>2018-09-11T13:37:41Z</time>
      </trkpt>
      <trkpt lat="46.591026" lon="12.017388">
        <ele>2126.008</ele>
        <time>2018-09-11T13:37:42Z</time>
      </trkpt>
      <trkpt lat="46.591022" lon="12.017371">
        <ele>2126.547</ele>
        <time>2018-09-11T13:37:43Z</time>
      </trkpt>
      <trkpt lat="46.591022" lon="12.017349">
        <ele>2126.579</ele>
        <time>2018-09-11T13:37:44Z</time>
      </trkpt>
      <trkpt lat="46.591021" lon="12.017331">
        <ele>2126.518</ele>
        <time>2018-09-11T13:37:45Z</time>
      </trkpt>
      <trkpt lat="46.591016" lon="12.017320">
        <ele>2126.567</ele>
        <time>2018-09-11T13:37:46Z</time>
      </trkpt>
      <trkpt lat="46.591007" lon="12.017307">
        <ele>2126.593</ele>
        <time>2018-09-11T13:37:47Z</time>
      </trkpt>
      <trkpt lat="46.590998" lon="12.017294">
        <ele>2127.029</ele>
        <time>2018-09-11T13:37:48Z</time>
      </trkpt>
      <trkpt lat="46.590900" lon="12.017194">
        <ele>2127.522</ele>
        <time>2018-09-11T13:37:58Z</time>
      </trkpt>
      <trkpt lat="46.590894" lon="12.017178">
        <ele>2127.515</ele>
        <time>2018-09-11T13:37:59Z</time>
      </trkpt>
      <trkpt lat="46.590886" lon="12.017165">
        <ele>2127.543</ele>
        <time>2018-09-11T13:38:00Z</time>
      </trkpt>
      <trkpt lat="46.590877" lon="12.017157">
        <ele>2128.064</ele>
        <time>2018-09-11T13:38:01Z</time>
      </trkpt>
      <trkpt lat="46.590865" lon="12.017152">
        <ele>2128.010</ele>
        <time>2018-09-11T13:38:02Z</time>
      </trkpt>
      <trkpt lat="46.590853" lon="12.017150">
        <ele>2128.008</ele>
        <time>2018-09-11T13:38:03Z</time>
      </trkpt>
      <trkpt lat="46.590842" lon="12.017146">
        <ele>2128.078</ele>
        <time>2018-09-11T13:38:04Z</time>
      </trkpt>
      <trkpt lat="46.590829" lon="12.017141">
        <ele>2128.570</ele>
        <time>2018-09-11T13:38:05Z</time>
      </trkpt>
      <trkpt lat="46.590817" lon="12.017133">
        <ele>2128.569</ele>
        <time>2018-09-11T13:38:06Z</time>
      </trkpt>
      <trkpt lat="46.590806" lon="12.017124">
        <ele>2128.958</ele>
        <time>2018-09-11T13:38:07Z</time>
      </trkpt>
      <trkpt lat="46.590661" lon="12.017036">
        <ele>2130.974</ele>
        <time>2018-09-11T13:38:22Z</time>
      </trkpt>
      <trkpt lat="46.590618" lon="12.017008">
        <ele>2131.810</ele>
        <time>2018-09-11T13:38:27Z</time>
      </trkpt>
      <trkpt lat="46.590606" lon="12.017004">
        <ele>2131.873</ele>
        <time>2018-09-11T13:38:28Z</time>
      </trkpt>
      <trkpt lat="46.590453" lon="12.016891">
        <ele>2134.236</ele>
        <time>2018-09-11T13:38:44Z</time>
      </trkpt>
      <trkpt lat="46.590405" lon="12.016833">
        <ele>2134.717</ele>
        <time>2018-09-11T13:38:50Z</time>
      </trkpt>
      <trkpt lat="46.590393" lon="12.016829">
        <ele>2134.787</ele>
        <time>2018-09-11T13:38:51Z</time>
      </trkpt>
      <trkpt lat="46.590383" lon="12.016824">
        <ele>2134.715</ele>
        <time>2018-09-11T13:38:52Z</time>
      </trkpt>
      <trkpt lat="46.590373" lon="12.016820">
        <ele>2134.708</ele>
        <time>2018-09-11T13:38:53Z</time>
      </trkpt>
      <trkpt lat="46.590362" lon="12.016814">
        <ele>2134.715</ele>
        <time>2018-09-11T13:38:54Z</time>
      </trkpt>
      <trkpt lat="46.590351" lon="12.016809">
        <ele>2135.287</ele>
        <time>2018-09-11T13:38:55Z</time>
      </trkpt>
      <trkpt lat="46.590340" lon="12.016806">
        <ele>2135.256</ele>
        <time>2018-09-11T13:38:56Z</time>
      </trkpt>
      <trkpt lat="46.590329" lon="12.016799">
        <ele>2135.295</ele>
        <time>2018-09-11T13:38:57Z</time>
      </trkpt>
      <trkpt lat="46.590320" lon="12.016790">
        <ele>2135.221</ele>
        <time>2018-09-11T13:38:58Z</time>
      </trkpt>
      <trkpt lat="46.590309" lon="12.016784">
        <ele>2135.787</ele>
        <time>2018-09-11T13:38:59Z</time>
      </trkpt>
      <trkpt lat="46.590131" lon="12.016681">
        <ele>2135.770</ele>
        <time>2018-09-11T13:39:13Z</time>
      </trkpt>
      <trkpt lat="46.589908" lon="12.016559">
        <ele>2136.693</ele>
        <time>2018-09-11T13:39:27Z</time>
      </trkpt>
      <trkpt lat="46.589591" lon="12.016349">
        <ele>2135.747</ele>
        <time>2018-09-11T13:39:43Z</time>
      </trkpt>
      <trkpt lat="46.589429" lon="12.016115">
        <ele>2136.629</ele>
        <time>2018-09-11T13:39:55Z</time>
      </trkpt>
      <trkpt lat="46.589210" lon="12.015884">
        <ele>2138.121</ele>
        <time>2018-09-11T13:40:09Z</time>
      </trkpt>
      <trkpt lat="46.588954" lon="12.015554">
        <ele>2139.508</ele>
        <time>2018-09-11T13:40:26Z</time>
      </trkpt>
      <trkpt lat="46.588692" lon="12.015252">
        <ele>2140.068</ele>
        <time>2018-09-11T13:40:42Z</time>
      </trkpt>
      <trkpt lat="46.588415" lon="12.015041">
        <ele>2139.540</ele>
        <time>2018-09-11T13:40:55Z</time>
      </trkpt>
      <trkpt lat="46.588114" lon="12.014766">
        <ele>2140.039</ele>
        <time>2018-09-11T13:41:10Z</time>
      </trkpt>
      <trkpt lat="46.587847" lon="12.014387">
        <ele>2140.938</ele>
        <time>2018-09-11T13:41:27Z</time>
      </trkpt>
      <trkpt lat="46.587784" lon="12.014329">
        <ele>2141.424</ele>
        <time>2018-09-11T13:41:31Z</time>
      </trkpt>
      <trkpt lat="46.587777" lon="12.014301">
        <ele>2140.910</ele>
        <time>2018-09-11T13:41:32Z</time>
      </trkpt>
      <trkpt lat="46.587708" lon="12.013891">
        <ele>2140.563</ele>
        <time>2018-09-11T13:41:41Z</time>
      </trkpt>
      <trkpt lat="46.587635" lon="12.013798">
        <ele>2140.986</ele>
        <time>2018-09-11T13:41:52Z</time>
      </trkpt>
      <trkpt lat="46.587623" lon="12.013760">
        <ele>2140.941</ele>
        <time>2018-09-11T13:41:55Z</time>
      </trkpt>
      <trkpt lat="46.587630" lon="12.013608">
        <ele>2141.981</ele>
        <time>2018-09-11T13:42:09Z</time>
      </trkpt>
      <trkpt lat="46.587630" lon="12.013596">
        <ele>2141.909</ele>
        <time>2018-09-11T13:42:33Z</time>
      </trkpt>
      <trkpt lat="46.587574" lon="12.013390">
        <ele>2142.908</ele>
        <time>2018-09-11T13:42:46Z</time>
      </trkpt>
      <trkpt lat="46.587548" lon="12.013332">
        <ele>2143.468</ele>
        <time>2018-09-11T13:42:49Z</time>
      </trkpt>
      <trkpt lat="46.587539" lon="12.013318">
        <ele>2143.480</ele>
        <time>2018-09-11T13:42:50Z</time>
      </trkpt>
      <trkpt lat="46.587431" lon="12.013071">
        <ele>2146.769</ele>
        <time>2018-09-11T13:43:07Z</time>
      </trkpt>
      <trkpt lat="46.587341" lon="12.012801">
        <ele>2147.768</ele>
        <time>2018-09-11T13:43:23Z</time>
      </trkpt>
      <trkpt lat="46.587317" lon="12.012754">
        <ele>2148.264</ele>
        <time>2018-09-11T13:43:26Z</time>
      </trkpt>
      <trkpt lat="46.587173" lon="12.012477">
        <ele>2150.160</ele>
        <time>2018-09-11T13:43:43Z</time>
      </trkpt>
      <trkpt lat="46.587057" lon="12.012196">
        <ele>2151.093</ele>
        <time>2018-09-11T13:43:58Z</time>
      </trkpt>
      <trkpt lat="46.587029" lon="12.012150">
        <ele>2151.056</ele>
        <time>2018-09-11T13:44:01Z</time>
      </trkpt>
      <trkpt lat="46.586932" lon="12.011857">
        <ele>2152.568</ele>
        <time>2018-09-11T13:44:18Z</time>
      </trkpt>
      <trkpt lat="46.586825" lon="12.011604">
        <ele>2153.442</ele>
        <time>2018-09-11T13:44:31Z</time>
      </trkpt>
      <trkpt lat="46.586661" lon="12.011278">
        <ele>2155.426</ele>
        <time>2018-09-11T13:44:46Z</time>
      </trkpt>
      <trkpt lat="46.586527" lon="12.010936">
        <ele>2157.808</ele>
        <time>2018-09-11T13:45:02Z</time>
      </trkpt>
      <trkpt lat="46.586414" lon="12.010540">
        <ele>2159.730</ele>
        <time>2018-09-11T13:45:20Z</time>
      </trkpt>
      <trkpt lat="46.586344" lon="12.010185">
        <ele>2159.782</ele>
        <time>2018-09-11T13:45:34Z</time>
      </trkpt>
      <trkpt lat="46.586182" lon="12.009747">
        <ele>2158.331</ele>
        <time>2018-09-11T13:45:49Z</time>
      </trkpt>
      <trkpt lat="46.585968" lon="12.009183">
        <ele>2156.390</ele>
        <time>2018-09-11T13:46:02Z</time>
      </trkpt>
      <trkpt lat="46.585794" lon="12.008810">
        <ele>2155.836</ele>
        <time>2018-09-11T13:46:12Z</time>
      </trkpt>
      <trkpt lat="46.585614" lon="12.008658">
        <ele>2157.872</ele>
        <time>2018-09-11T13:46:26Z</time>
      </trkpt>
      <trkpt lat="46.585374" lon="12.008375">
        <ele>2158.755</ele>
        <time>2018-09-11T13:46:43Z</time>
      </trkpt>
      <trkpt lat="46.585226" lon="12.007969">
        <ele>2158.398</ele>
        <time>2018-09-11T13:46:54Z</time>
      </trkpt>
      <trkpt lat="46.585071" lon="12.007654">
        <ele>2159.292</ele>
        <time>2018-09-11T13:47:08Z</time>
      </trkpt>
      <trkpt lat="46.584833" lon="12.007458">
        <ele>2160.273</ele>
        <time>2018-09-11T13:47:22Z</time>
      </trkpt>
      <trkpt lat="46.584563" lon="12.007304">
        <ele>2159.720</ele>
        <time>2018-09-11T13:47:35Z</time>
      </trkpt>
      <trkpt lat="46.584544" lon="12.007305">
        <ele>2159.708</ele>
        <time>2018-09-11T13:47:36Z</time>
      </trkpt>
      <trkpt lat="46.584525" lon="12.007299">
        <ele>2159.243</ele>
        <time>2018-09-11T13:47:37Z</time>
      </trkpt>
      <trkpt lat="46.584398" lon="12.007247">
        <ele>2158.765</ele>
        <time>2018-09-11T13:47:49Z</time>
      </trkpt>
      <trkpt lat="46.584291" lon="12.007142">
        <ele>2155.844</ele>
        <time>2018-09-11T13:48:11Z</time>
      </trkpt>
      <trkpt lat="46.583942" lon="12.006929">
        <ele>2153.913</ele>
        <time>2018-09-11T13:48:22Z</time>
      </trkpt>
      <trkpt lat="46.583903" lon="12.006933">
        <ele>2154.429</ele>
        <time>2018-09-11T13:48:33Z</time>
      </trkpt>
      <trkpt lat="46.583813" lon="12.006903">
        <ele>2153.025</ele>
        <time>2018-09-11T13:48:56Z</time>
      </trkpt>
      <trkpt lat="46.583508" lon="12.006893">
        <ele>2148.688</ele>
        <time>2018-09-11T13:49:07Z</time>
      </trkpt>
      <trkpt lat="46.583167" lon="12.006816">
        <ele>2143.811</ele>
        <time>2018-09-11T13:49:20Z</time>
      </trkpt>
      <trkpt lat="46.583024" lon="12.006844">
        <ele>2141.452</ele>
        <time>2018-09-11T13:49:27Z</time>
      </trkpt>
      <trkpt lat="46.583002" lon="12.006837">
        <ele>2141.453</ele>
        <time>2018-09-11T13:49:28Z</time>
      </trkpt>
      <trkpt lat="46.582975" lon="12.006833">
        <ele>2140.908</ele>
        <time>2018-09-11T13:49:29Z</time>
      </trkpt>
      <trkpt lat="46.582947" lon="12.006836">
        <ele>2140.508</ele>
        <time>2018-09-11T13:49:30Z</time>
      </trkpt>
      <trkpt lat="46.582920" lon="12.006844">
        <ele>2140.089</ele>
        <time>2018-09-11T13:49:31Z</time>
      </trkpt>
      <trkpt lat="46.582894" lon="12.006843">
        <ele>2140.031</ele>
        <time>2018-09-11T13:49:32Z</time>
      </trkpt>
      <trkpt lat="46.582870" lon="12.006830">
        <ele>2139.530</ele>
        <time>2018-09-11T13:49:33Z</time>
      </trkpt>
      <trkpt lat="46.582845" lon="12.006814">
        <ele>2139.559</ele>
        <time>2018-09-11T13:49:34Z</time>
      </trkpt>
      <trkpt lat="46.582823" lon="12.006795">
        <ele>2139.065</ele>
        <time>2018-09-11T13:49:35Z</time>
      </trkpt>
      <trkpt lat="46.582799" lon="12.006778">
        <ele>2138.171</ele>
        <time>2018-09-11T13:49:36Z</time>
      </trkpt>
      <trkpt lat="46.582773" lon="12.006768">
        <ele>2137.614</ele>
        <time>2018-09-11T13:49:37Z</time>
      </trkpt>
      <trkpt lat="46.582745" lon="12.006764">
        <ele>2137.647</ele>
        <time>2018-09-11T13:49:38Z</time>
      </trkpt>
      <trkpt lat="46.582716" lon="12.006764">
        <ele>2137.146</ele>
        <time>2018-09-11T13:49:39Z</time>
      </trkpt>
      <trkpt lat="46.582366" lon="12.006632">
        <ele>2132.388</ele>
        <time>2018-09-11T13:49:52Z</time>
      </trkpt>
      <trkpt lat="46.582326" lon="12.006606">
        <ele>2130.916</ele>
        <time>2018-09-11T13:49:54Z</time>
      </trkpt>
      <trkpt lat="46.582300" lon="12.006605">
        <ele>2130.908</ele>
        <time>2018-09-11T13:49:55Z</time>
      </trkpt>
      <trkpt lat="46.582272" lon="12.006606">
        <ele>2130.498</ele>
        <time>2018-09-11T13:49:56Z</time>
      </trkpt>
      <trkpt lat="46.582080" lon="12.006590">
        <ele>2128.060</ele>
        <time>2018-09-11T13:50:04Z</time>
      </trkpt>
      <trkpt lat="46.582061" lon="12.006592">
        <ele>2127.589</ele>
        <time>2018-09-11T13:50:05Z</time>
      </trkpt>
      <trkpt lat="46.582044" lon="12.006595">
        <ele>2127.588</ele>
        <time>2018-09-11T13:50:06Z</time>
      </trkpt>
      <trkpt lat="46.582024" lon="12.006598">
        <ele>2127.544</ele>
        <time>2018-09-11T13:50:07Z</time>
      </trkpt>
      <trkpt lat="46.582003" lon="12.006597">
        <ele>2127.560</ele>
        <time>2018-09-11T13:50:08Z</time>
      </trkpt>
      <trkpt lat="46.581985" lon="12.006587">
        <ele>2127.543</ele>
        <time>2018-09-11T13:50:09Z</time>
      </trkpt>
      <trkpt lat="46.581971" lon="12.006577">
        <ele>2127.586</ele>
        <time>2018-09-11T13:50:10Z</time>
      </trkpt>
      <trkpt lat="46.581612" lon="12.006506">
        <ele>2127.081</ele>
        <time>2018-09-11T13:50:22Z</time>
      </trkpt>
      <trkpt lat="46.581039" lon="12.006388">
        <ele>2124.161</ele>
        <time>2018-09-11T13:50:36Z</time>
      </trkpt>
      <trkpt lat="46.580558" lon="12.006279">
        <ele>2121.717</ele>
        <time>2018-09-11T13:50:46Z</time>
      </trkpt>
      <trkpt lat="46.580311" lon="12.006254">
        <ele>2120.308</ele>
        <time>2018-09-11T13:50:51Z</time>
      </trkpt>
      <trkpt lat="46.579829" lon="12.006170">
        <ele>2117.452</ele>
        <time>2018-09-11T13:51:01Z</time>
      </trkpt>
      <trkpt lat="46.579632" lon="12.006133">
        <ele>2116.454</ele>
        <time>2018-09-11T13:51:05Z</time>
      </trkpt>
      <trkpt lat="46.579583" lon="12.006129">
        <ele>2116.043</ele>
        <time>2018-09-11T13:51:06Z</time>
      </trkpt>
      <trkpt lat="46.579299" lon="12.006102">
        <ele>2115.072</ele>
        <time>2018-09-11T13:51:12Z</time>
      </trkpt>
      <trkpt lat="46.578711" lon="12.006046">
        <ele>2113.678</ele>
        <time>2018-09-11T13:51:27Z</time>
      </trkpt>
      <trkpt lat="46.578304" lon="12.006014">
        <ele>2114.094</ele>
        <time>2018-09-11T13:51:40Z</time>
      </trkpt>
      <trkpt lat="46.577934" lon="12.005982">
        <ele>2114.087</ele>
        <time>2018-09-11T13:51:56Z</time>
      </trkpt>
      <trkpt lat="46.577632" lon="12.005900">
        <ele>2115.550</ele>
        <time>2018-09-11T13:52:12Z</time>
      </trkpt>
      <trkpt lat="46.577293" lon="12.006021">
        <ele>2115.562</ele>
        <time>2018-09-11T13:52:28Z</time>
      </trkpt>
      <trkpt lat="46.576943" lon="12.006130">
        <ele>2115.583</ele>
        <time>2018-09-11T13:52:41Z</time>
      </trkpt>
      <trkpt lat="46.576648" lon="12.006071">
        <ele>2115.011</ele>
        <time>2018-09-11T13:52:53Z</time>
      </trkpt>
      <trkpt lat="46.576494" lon="12.005822">
        <ele>2116.408</ele>
        <time>2018-09-11T13:53:08Z</time>
      </trkpt>
      <trkpt lat="46.576376" lon="12.005648">
        <ele>2117.950</ele>
        <time>2018-09-11T13:53:24Z</time>
      </trkpt>
      <trkpt lat="46.576364" lon="12.005643">
        <ele>2117.462</ele>
        <time>2018-09-11T13:53:25Z</time>
      </trkpt>
      <trkpt lat="46.576156" lon="12.005497">
        <ele>2116.971</ele>
        <time>2018-09-11T13:53:41Z</time>
      </trkpt>
      <trkpt lat="46.575943" lon="12.005177">
        <ele>2116.050</ele>
        <time>2018-09-11T13:53:53Z</time>
      </trkpt>
      <trkpt lat="46.575812" lon="12.004910">
        <ele>2115.556</ele>
        <time>2018-09-11T13:54:05Z</time>
      </trkpt>
      <trkpt lat="46.575767" lon="12.004747">
        <ele>2114.562</ele>
        <time>2018-09-11T13:54:32Z</time>
      </trkpt>
      <trkpt lat="46.575590" lon="12.004376">
        <ele>2113.665</ele>
        <time>2018-09-11T13:54:42Z</time>
      </trkpt>
      <trkpt lat="46.575511" lon="12.004227">
        <ele>2112.688</ele>
        <time>2018-09-11T13:54:45Z</time>
      </trkpt>
      <trkpt lat="46.575460" lon="12.004127">
        <ele>2112.663</ele>
        <time>2018-09-11T13:54:47Z</time>
      </trkpt>
      <trkpt lat="46.575401" lon="12.004043">
        <ele>2112.144</ele>
        <time>2018-09-11T13:54:49Z</time>
      </trkpt>
      <trkpt lat="46.575261" lon="12.003886">
        <ele>2110.218</ele>
        <time>2018-09-11T13:54:53Z</time>
      </trkpt>
      <trkpt lat="46.575038" lon="12.003710">
        <ele>2113.108</ele>
        <time>2018-09-11T13:55:02Z</time>
      </trkpt>
      <trkpt lat="46.574953" lon="12.003672">
        <ele>2112.680</ele>
        <time>2018-09-11T13:55:06Z</time>
      </trkpt>
      <trkpt lat="46.574933" lon="12.003670">
        <ele>2112.662</ele>
        <time>2018-09-11T13:55:07Z</time>
      </trkpt>
      <trkpt lat="46.574915" lon="12.003665">
        <ele>2112.611</ele>
        <time>2018-09-11T13:55:08Z</time>
      </trkpt>
      <trkpt lat="46.574897" lon="12.003652">
        <ele>2113.180</ele>
        <time>2018-09-11T13:55:09Z</time>
      </trkpt>
      <trkpt lat="46.574877" lon="12.003635">
        <ele>2113.116</ele>
        <time>2018-09-11T13:55:10Z</time>
      </trkpt>
      <trkpt lat="46.574656" lon="12.003535">
        <ele>2111.612</ele>
        <time>2018-09-11T13:55:20Z</time>
      </trkpt>
      <trkpt lat="46.574456" lon="12.003364">
        <ele>2110.755</ele>
        <time>2018-09-11T13:55:29Z</time>
      </trkpt>
      <trkpt lat="46.574425" lon="12.003306">
        <ele>2111.138</ele>
        <time>2018-09-11T13:55:38Z</time>
      </trkpt>
      <trkpt lat="46.574401" lon="12.003279">
        <ele>2111.145</ele>
        <time>2018-09-11T13:55:42Z</time>
      </trkpt>
      <trkpt lat="46.574391" lon="12.003285">
        <ele>2110.747</ele>
        <time>2018-09-11T13:55:43Z</time>
      </trkpt>
      <trkpt lat="46.574379" lon="12.003295">
        <ele>2110.211</ele>
        <time>2018-09-11T13:55:44Z</time>
      </trkpt>
      <trkpt lat="46.574361" lon="12.003291">
        <ele>2110.208</ele>
        <time>2018-09-11T13:55:45Z</time>
      </trkpt>
      <trkpt lat="46.574341" lon="12.003269">
        <ele>2109.798</ele>
        <time>2018-09-11T13:55:46Z</time>
      </trkpt>
      <trkpt lat="46.574320" lon="12.003253">
        <ele>2109.760</ele>
        <time>2018-09-11T13:55:47Z</time>
      </trkpt>
      <trkpt lat="46.574304" lon="12.003230">
        <ele>2109.239</ele>
        <time>2018-09-11T13:55:48Z</time>
      </trkpt>
      <trkpt lat="46.574298" lon="12.003205">
        <ele>2109.238</ele>
        <time>2018-09-11T13:55:49Z</time>
      </trkpt>
      <trkpt lat="46.574297" lon="12.003184">
        <ele>2109.294</ele>
        <time>2018-09-11T13:55:50Z</time>
      </trkpt>
      <trkpt lat="46.574266" lon="12.003146">
        <ele>2108.770</ele>
        <time>2018-09-11T13:55:55Z</time>
      </trkpt>
      <trkpt lat="46.574254" lon="12.003141">
        <ele>2108.723</ele>
        <time>2018-09-11T13:55:56Z</time>
      </trkpt>
      <trkpt lat="46.574180" lon="12.003043">
        <ele>2108.356</ele>
        <time>2018-09-11T13:56:05Z</time>
      </trkpt>
      <trkpt lat="46.574098" lon="12.002942">
        <ele>2106.881</ele>
        <time>2018-09-11T13:56:15Z</time>
      </trkpt>
      <trkpt lat="46.574038" lon="12.002869">
        <ele>2106.361</ele>
        <time>2018-09-11T13:56:20Z</time>
      </trkpt>
      <trkpt lat="46.574002" lon="12.002849">
        <ele>2105.417</ele>
        <time>2018-09-11T13:56:23Z</time>
      </trkpt>
      <trkpt lat="46.573991" lon="12.002849">
        <ele>2105.408</ele>
        <time>2018-09-11T13:56:24Z</time>
      </trkpt>
      <trkpt lat="46.573982" lon="12.002838">
        <ele>2105.422</ele>
        <time>2018-09-11T13:56:25Z</time>
      </trkpt>
      <trkpt lat="46.573975" lon="12.002822">
        <ele>2104.914</ele>
        <time>2018-09-11T13:56:26Z</time>
      </trkpt>
      <trkpt lat="46.573975" lon="12.002799">
        <ele>2104.473</ele>
        <time>2018-09-11T13:56:27Z</time>
      </trkpt>
      <trkpt lat="46.573975" lon="12.002772">
        <ele>2103.982</ele>
        <time>2018-09-11T13:56:28Z</time>
      </trkpt>
      <trkpt lat="46.573970" lon="12.002744">
        <ele>2103.048</ele>
        <time>2018-09-11T13:56:29Z</time>
      </trkpt>
      <trkpt lat="46.573743" lon="12.002301">
        <ele>2098.264</ele>
        <time>2018-09-11T13:56:41Z</time>
      </trkpt>
      <trkpt lat="46.573705" lon="12.002286">
        <ele>2097.757</ele>
        <time>2018-09-11T13:56:42Z</time>
      </trkpt>
      <trkpt lat="46.573334" lon="12.002176">
        <ele>2095.370</ele>
        <time>2018-09-11T13:56:52Z</time>
      </trkpt>
      <trkpt lat="46.573290" lon="12.002147">
        <ele>2094.825</ele>
        <time>2018-09-11T13:56:53Z</time>
      </trkpt>
      <trkpt lat="46.573245" lon="12.002108">
        <ele>2094.826</ele>
        <time>2018-09-11T13:56:54Z</time>
      </trkpt>
      <trkpt lat="46.573198" lon="12.002070">
        <ele>2094.808</ele>
        <time>2018-09-11T13:56:55Z</time>
      </trkpt>
      <trkpt lat="46.573153" lon="12.002034">
        <ele>2094.308</ele>
        <time>2018-09-11T13:56:56Z</time>
      </trkpt>
      <trkpt lat="46.573111" lon="12.001994">
        <ele>2094.326</ele>
        <time>2018-09-11T13:56:57Z</time>
      </trkpt>
      <trkpt lat="46.573075" lon="12.001956">
        <ele>2094.358</ele>
        <time>2018-09-11T13:56:58Z</time>
      </trkpt>
      <trkpt lat="46.572842" lon="12.001806">
        <ele>2092.447</ele>
        <time>2018-09-11T13:57:06Z</time>
      </trkpt>
      <trkpt lat="46.572626" lon="12.001655">
        <ele>2091.076</ele>
        <time>2018-09-11T13:57:15Z</time>
      </trkpt>
      <trkpt lat="46.572619" lon="12.001646">
        <ele>2090.092</ele>
        <time>2018-09-11T13:57:31Z</time>
      </trkpt>
      <trkpt lat="46.572574" lon="12.001696">
        <ele>2090.568</ele>
        <time>2018-09-11T13:57:40Z</time>
      </trkpt>
      <trkpt lat="46.572564" lon="12.001702">
        <ele>2090.591</ele>
        <time>2018-09-11T13:57:41Z</time>
      </trkpt>
      <trkpt lat="46.572453" lon="12.001671">
        <ele>2092.954</ele>
        <time>2018-09-11T13:57:56Z</time>
      </trkpt>
      <trkpt lat="46.572343" lon="12.001658">
        <ele>2095.336</ele>
        <time>2018-09-11T13:58:16Z</time>
      </trkpt>
      <trkpt lat="46.572277" lon="12.001652">
        <ele>2097.217</ele>
        <time>2018-09-11T13:58:31Z</time>
      </trkpt>
      <trkpt lat="46.572227" lon="12.001628">
        <ele>2098.718</ele>
        <time>2018-09-11T13:58:44Z</time>
      </trkpt>
      <trkpt lat="46.572174" lon="12.001633">
        <ele>2099.608</ele>
        <time>2018-09-11T13:58:59Z</time>
      </trkpt>
      <trkpt lat="46.572135" lon="12.001636">
        <ele>2100.177</ele>
        <time>2018-09-11T13:59:12Z</time>
      </trkpt>
      <trkpt lat="46.572071" lon="12.001652">
        <ele>2101.599</ele>
        <time>2018-09-11T13:59:26Z</time>
      </trkpt>
      <trkpt lat="46.571960" lon="12.001706">
        <ele>2104.468</ele>
        <time>2018-09-11T13:59:42Z</time>
      </trkpt>
      <trkpt lat="46.571893" lon="12.001783">
        <ele>2105.457</ele>
        <time>2018-09-11T13:59:58Z</time>
      </trkpt>
      <trkpt lat="46.571801" lon="12.001873">
        <ele>2104.423</ele>
        <time>2018-09-11T14:00:11Z</time>
      </trkpt>
      <trkpt lat="46.571790" lon="12.001872">
        <ele>2104.469</ele>
        <time>2018-09-11T14:00:12Z</time>
      </trkpt>
      <trkpt lat="46.571774" lon="12.001867">
        <ele>2104.442</ele>
        <time>2018-09-11T14:00:13Z</time>
      </trkpt>
      <trkpt lat="46.571755" lon="12.001860">
        <ele>2104.495</ele>
        <time>2018-09-11T14:00:14Z</time>
      </trkpt>
      <trkpt lat="46.571730" lon="12.001855">
        <ele>2103.935</ele>
        <time>2018-09-11T14:00:15Z</time>
      </trkpt>
      <trkpt lat="46.571703" lon="12.001851">
        <ele>2103.086</ele>
        <time>2018-09-11T14:00:16Z</time>
      </trkpt>
      <trkpt lat="46.571673" lon="12.001849">
        <ele>2102.514</ele>
        <time>2018-09-11T14:00:17Z</time>
      </trkpt>
      <trkpt lat="46.571640" lon="12.001849">
        <ele>2102.008</ele>
        <time>2018-09-11T14:00:18Z</time>
      </trkpt>
      <trkpt lat="46.571562" lon="12.001842">
        <ele>2101.117</ele>
        <time>2018-09-11T14:00:21Z</time>
      </trkpt>
      <trkpt lat="46.571541" lon="12.001825">
        <ele>2101.179</ele>
        <time>2018-09-11T14:00:22Z</time>
      </trkpt>
      <trkpt lat="46.571193" lon="12.001745">
        <ele>2096.248</ele>
        <time>2018-09-11T14:00:33Z</time>
      </trkpt>
      <trkpt lat="46.570974" lon="12.001750">
        <ele>2095.347</ele>
        <time>2018-09-11T14:00:43Z</time>
      </trkpt>
      <trkpt lat="46.570841" lon="12.001843">
        <ele>2093.833</ele>
        <time>2018-09-11T14:00:52Z</time>
      </trkpt>
      <trkpt lat="46.570749" lon="12.001814">
        <ele>2092.929</ele>
        <time>2018-09-11T14:01:05Z</time>
      </trkpt>
      <trkpt lat="46.570687" lon="12.001834">
        <ele>2091.082</ele>
        <time>2018-09-11T14:01:12Z</time>
      </trkpt>
      <trkpt lat="46.570561" lon="12.001864">
        <ele>2087.175</ele>
        <time>2018-09-11T14:01:26Z</time>
      </trkpt>
      <trkpt lat="46.570413" lon="12.001905">
        <ele>2084.236</ele>
        <time>2018-09-11T14:01:35Z</time>
      </trkpt>
      <trkpt lat="46.570102" lon="12.001701">
        <ele>2077.517</ele>
        <time>2018-09-11T14:01:47Z</time>
      </trkpt>
      <trkpt lat="46.569809" lon="12.001569">
        <ele>2076.118</ele>
        <time>2018-09-11T14:01:57Z</time>
      </trkpt>
      <trkpt lat="46.569511" lon="12.001442">
        <ele>2077.508</ele>
        <time>2018-09-11T14:02:09Z</time>
      </trkpt>
      <trkpt lat="46.569274" lon="12.001341">
        <ele>2079.447</ele>
        <time>2018-09-11T14:02:23Z</time>
      </trkpt>
      <trkpt lat="46.569229" lon="12.001342">
        <ele>2079.449</ele>
        <time>2018-09-11T14:02:26Z</time>
      </trkpt>
      <trkpt lat="46.569015" lon="12.001386">
        <ele>2076.518</ele>
        <time>2018-09-11T14:02:37Z</time>
      </trkpt>
      <trkpt lat="46.568973" lon="12.001395">
        <ele>2076.597</ele>
        <time>2018-09-11T14:02:40Z</time>
      </trkpt>
      <trkpt lat="46.568929" lon="12.001399">
        <ele>2075.683</ele>
        <time>2018-09-11T14:02:43Z</time>
      </trkpt>
      <trkpt lat="46.568917" lon="12.001412">
        <ele>2075.629</ele>
        <time>2018-09-11T14:02:44Z</time>
      </trkpt>
      <trkpt lat="46.568885" lon="12.001423">
        <ele>2075.122</ele>
        <time>2018-09-11T14:02:49Z</time>
      </trkpt>
      <trkpt lat="46.568738" lon="12.001367">
        <ele>2071.335</ele>
        <time>2018-09-11T14:03:03Z</time>
      </trkpt>
      <trkpt lat="46.568730" lon="12.001374">
        <ele>2071.318</ele>
        <time>2018-09-11T14:03:04Z</time>
      </trkpt>
      <trkpt lat="46.568697" lon="12.001387">
        <ele>2069.898</ele>
        <time>2018-09-11T14:03:08Z</time>
      </trkpt>
      <trkpt lat="46.568684" lon="12.001389">
        <ele>2069.317</ele>
        <time>2018-09-11T14:03:09Z</time>
      </trkpt>
      <trkpt lat="46.568671" lon="12.001390">
        <ele>2068.808</ele>
        <time>2018-09-11T14:03:10Z</time>
      </trkpt>
      <trkpt lat="46.568662" lon="12.001386">
        <ele>2068.485</ele>
        <time>2018-09-11T14:03:11Z</time>
      </trkpt>
      <trkpt lat="46.568652" lon="12.001378">
        <ele>2068.457</ele>
        <time>2018-09-11T14:03:12Z</time>
      </trkpt>
      <trkpt lat="46.568639" lon="12.001369">
        <ele>2067.966</ele>
        <time>2018-09-11T14:03:13Z</time>
      </trkpt>
      <trkpt lat="46.568604" lon="12.001341">
        <ele>2067.475</ele>
        <time>2018-09-11T14:03:16Z</time>
      </trkpt>
      <trkpt lat="46.568597" lon="12.001323">
        <ele>2067.481</ele>
        <time>2018-09-11T14:03:17Z</time>
      </trkpt>
      <trkpt lat="46.568591" lon="12.001305">
        <ele>2067.447</ele>
        <time>2018-09-11T14:03:18Z</time>
      </trkpt>
      <trkpt lat="46.568588" lon="12.001287">
        <ele>2066.920</ele>
        <time>2018-09-11T14:03:19Z</time>
      </trkpt>
      <trkpt lat="46.568582" lon="12.001256">
        <ele>2066.063</ele>
        <time>2018-09-11T14:03:21Z</time>
      </trkpt>
      <trkpt lat="46.568573" lon="12.001243">
        <ele>2066.036</ele>
        <time>2018-09-11T14:03:22Z</time>
      </trkpt>
      <trkpt lat="46.568543" lon="12.001202">
        <ele>2065.017</ele>
        <time>2018-09-11T14:03:25Z</time>
      </trkpt>
      <trkpt lat="46.568531" lon="12.001199">
        <ele>2065.018</ele>
        <time>2018-09-11T14:03:26Z</time>
      </trkpt>
      <trkpt lat="46.568518" lon="12.001202">
        <ele>2065.008</ele>
        <time>2018-09-11T14:03:27Z</time>
      </trkpt>
      <trkpt lat="46.568505" lon="12.001210">
        <ele>2064.537</ele>
        <time>2018-09-11T14:03:28Z</time>
      </trkpt>
      <trkpt lat="46.568492" lon="12.001216">
        <ele>2064.089</ele>
        <time>2018-09-11T14:03:29Z</time>
      </trkpt>
      <trkpt lat="46.568340" lon="12.001262">
        <ele>2059.798</ele>
        <time>2018-09-11T14:03:44Z</time>
      </trkpt>
      <trkpt lat="46.568171" lon="12.001285">
        <ele>2057.827</ele>
        <time>2018-09-11T14:03:54Z</time>
      </trkpt>
      <trkpt lat="46.567921" lon="12.001587">
        <ele>2053.973</ele>
        <time>2018-09-11T14:04:05Z</time>
      </trkpt>
      <trkpt lat="46.567873" lon="12.001654">
        <ele>2053.529</ele>
        <time>2018-09-11T14:04:08Z</time>
      </trkpt>
      <trkpt lat="46.567701" lon="12.001868">
        <ele>2053.532</ele>
        <time>2018-09-11T14:04:21Z</time>
      </trkpt>
      <trkpt lat="46.567693" lon="12.001885">
        <ele>2053.595</ele>
        <time>2018-09-11T14:04:22Z</time>
      </trkpt>
      <trkpt lat="46.567548" lon="12.001932">
        <ele>2050.678</ele>
        <time>2018-09-11T14:04:33Z</time>
      </trkpt>
      <trkpt lat="46.567534" lon="12.001904">
        <ele>2050.633</ele>
        <time>2018-09-11T14:04:34Z</time>
      </trkpt>
      <trkpt lat="46.567520" lon="12.001872">
        <ele>2050.126</ele>
        <time>2018-09-11T14:04:35Z</time>
      </trkpt>
      <trkpt lat="46.567502" lon="12.001840">
        <ele>2049.608</ele>
        <time>2018-09-11T14:04:36Z</time>
      </trkpt>
      <trkpt lat="46.567480" lon="12.001813">
        <ele>2049.611</ele>
        <time>2018-09-11T14:04:37Z</time>
      </trkpt>
      <trkpt lat="46.567452" lon="12.001784">
        <ele>2049.623</ele>
        <time>2018-09-11T14:04:38Z</time>
      </trkpt>
      <trkpt lat="46.567424" lon="12.001745">
        <ele>2049.192</ele>
        <time>2018-09-11T14:04:39Z</time>
      </trkpt>
      <trkpt lat="46.567397" lon="12.001703">
        <ele>2049.191</ele>
        <time>2018-09-11T14:04:40Z</time>
      </trkpt>
      <trkpt lat="46.567371" lon="12.001670">
        <ele>2049.167</ele>
        <time>2018-09-11T14:04:41Z</time>
      </trkpt>
      <trkpt lat="46.567345" lon="12.001647">
        <ele>2049.153</ele>
        <time>2018-09-11T14:04:42Z</time>
      </trkpt>
      <trkpt lat="46.567216" lon="12.001469">
        <ele>2047.756</ele>
        <time>2018-09-11T14:04:49Z</time>
      </trkpt>
      <trkpt lat="46.567201" lon="12.001460">
        <ele>2047.759</ele>
        <time>2018-09-11T14:04:50Z</time>
      </trkpt>
      <trkpt lat="46.567050" lon="12.001193">
        <ele>2044.871</ele>
        <time>2018-09-11T14:05:02Z</time>
      </trkpt>
      <trkpt lat="46.567040" lon="12.001129">
        <ele>2045.341</ele>
        <time>2018-09-11T14:05:05Z</time>
      </trkpt>
      <trkpt lat="46.567041" lon="12.001107">
        <ele>2045.315</ele>
        <time>2018-09-11T14:05:06Z</time>
      </trkpt>
      <trkpt lat="46.567038" lon="12.000743">
        <ele>2045.308</ele>
        <time>2018-09-11T14:05:22Z</time>
      </trkpt>
      <trkpt lat="46.567029" lon="12.000395">
        <ele>2044.841</ele>
        <time>2018-09-11T14:05:37Z</time>
      </trkpt>
      <trkpt lat="46.567008" lon="12.000185">
        <ele>2047.233</ele>
        <time>2018-09-11T14:05:48Z</time>
      </trkpt>
      <trkpt lat="46.566940" lon="11.999974">
        <ele>2051.162</ele>
        <time>2018-09-11T14:06:01Z</time>
      </trkpt>
      <trkpt lat="46.566931" lon="11.999966">
        <ele>2051.121</ele>
        <time>2018-09-11T14:06:02Z</time>
      </trkpt>
      <trkpt lat="46.566919" lon="11.999957">
        <ele>2051.557</ele>
        <time>2018-09-11T14:06:03Z</time>
      </trkpt>
      <trkpt lat="46.566721" lon="11.999866">
        <ele>2050.633</ele>
        <time>2018-09-11T14:06:13Z</time>
      </trkpt>
      <trkpt lat="46.566708" lon="11.999825">
        <ele>2050.136</ele>
        <time>2018-09-11T14:06:14Z</time>
      </trkpt>
      <trkpt lat="46.566707" lon="11.999792">
        <ele>2050.119</ele>
        <time>2018-09-11T14:06:15Z</time>
      </trkpt>
      <trkpt lat="46.566711" lon="11.999771">
        <ele>2050.131</ele>
        <time>2018-09-11T14:06:16Z</time>
      </trkpt>
      <trkpt lat="46.566717" lon="11.999677">
        <ele>2052.561</ele>
        <time>2018-09-11T14:06:28Z</time>
      </trkpt>
      <trkpt lat="46.566683" lon="11.999620">
        <ele>2054.907</ele>
        <time>2018-09-11T14:06:35Z</time>
      </trkpt>
      <trkpt lat="46.566532" lon="11.999541">
        <ele>2057.808</ele>
        <time>2018-09-11T14:06:55Z</time>
      </trkpt>
      <trkpt lat="46.566401" lon="11.999477">
        <ele>2057.897</ele>
        <time>2018-09-11T14:07:07Z</time>
      </trkpt>
      <trkpt lat="46.566194" lon="11.999324">
        <ele>2057.899</ele>
        <time>2018-09-11T14:07:21Z</time>
      </trkpt>
      <trkpt lat="46.566082" lon="11.999214">
        <ele>2059.768</ele>
        <time>2018-09-11T14:07:29Z</time>
      </trkpt>
      <trkpt lat="46.566071" lon="11.999200">
        <ele>2059.717</ele>
        <time>2018-09-11T14:07:30Z</time>
      </trkpt>
      <trkpt lat="46.566060" lon="11.999183">
        <ele>2060.253</ele>
        <time>2018-09-11T14:07:31Z</time>
      </trkpt>
      <trkpt lat="46.566046" lon="11.999164">
        <ele>2060.259</ele>
        <time>2018-09-11T14:07:32Z</time>
      </trkpt>
      <trkpt lat="46.566028" lon="11.999141">
        <ele>2059.792</ele>
        <time>2018-09-11T14:07:33Z</time>
      </trkpt>
      <trkpt lat="46.565954" lon="11.999059">
        <ele>2059.755</ele>
        <time>2018-09-11T14:07:41Z</time>
      </trkpt>
      <trkpt lat="46.565905" lon="11.998914">
        <ele>2061.242</ele>
        <time>2018-09-11T14:07:58Z</time>
      </trkpt>
      <trkpt lat="46.565867" lon="11.998818">
        <ele>2062.622</ele>
        <time>2018-09-11T14:08:16Z</time>
      </trkpt>
      <trkpt lat="46.565802" lon="11.998776">
        <ele>2066.014</ele>
        <time>2018-09-11T14:08:35Z</time>
      </trkpt>
      <trkpt lat="46.565778" lon="11.998744">
        <ele>2067.408</ele>
        <time>2018-09-11T14:08:49Z</time>
      </trkpt>
      <trkpt lat="46.565722" lon="11.998705">
        <ele>2066.958</ele>
        <time>2018-09-11T14:09:01Z</time>
      </trkpt>
      <trkpt lat="46.565709" lon="11.998692">
        <ele>2066.420</ele>
        <time>2018-09-11T14:09:03Z</time>
      </trkpt>
      <trkpt lat="46.565694" lon="11.998685">
        <ele>2066.439</ele>
        <time>2018-09-11T14:09:04Z</time>
      </trkpt>
      <trkpt lat="46.565675" lon="11.998670">
        <ele>2066.048</ele>
        <time>2018-09-11T14:09:05Z</time>
      </trkpt>
      <trkpt lat="46.565510" lon="11.998514">
        <ele>2068.494</ele>
        <time>2018-09-11T14:09:18Z</time>
      </trkpt>
      <trkpt lat="46.565487" lon="11.998481">
        <ele>2069.830</ele>
        <time>2018-09-11T14:09:30Z</time>
      </trkpt>
      <trkpt lat="46.565400" lon="11.998403">
        <ele>2069.853</ele>
        <time>2018-09-11T14:09:44Z</time>
      </trkpt>
      <trkpt lat="46.565380" lon="11.998408">
        <ele>2070.356</ele>
        <time>2018-09-11T14:09:53Z</time>
      </trkpt>
      <trkpt lat="46.565383" lon="11.998390">
        <ele>2070.871</ele>
        <time>2018-09-11T14:10:27Z</time>
      </trkpt>
      <trkpt lat="46.565405" lon="11.998447">
        <ele>2070.341</ele>
        <time>2018-09-11T14:10:39Z</time>
      </trkpt>
      <trkpt lat="46.565445" lon="11.998542">
        <ele>2068.415</ele>
        <time>2018-09-11T14:10:46Z</time>
      </trkpt>
      <trkpt lat="46.565443" lon="11.998561">
        <ele>2067.908</ele>
        <time>2018-09-11T14:10:47Z</time>
      </trkpt>
      <trkpt lat="46.565408" lon="11.998614">
        <ele>2066.461</ele>
        <time>2018-09-11T14:10:52Z</time>
      </trkpt>
      <trkpt lat="46.565378" lon="11.998627">
        <ele>2065.553</ele>
        <time>2018-09-11T14:11:07Z</time>
      </trkpt>
      <trkpt lat="46.565375" lon="11.998627">
        <ele>2065.062</ele>
        <time>2018-09-11T14:11:38Z</time>
      </trkpt>
      <trkpt lat="46.565390" lon="11.998603">
        <ele>2061.211</ele>
        <time>2018-09-11T14:12:12Z</time>
      </trkpt>
      <trkpt lat="46.565385" lon="11.998614">
        <ele>2065.037</ele>
        <time>2018-09-11T14:12:52Z</time>
      </trkpt>
      <trkpt lat="46.565303" lon="11.998632">
        <ele>2063.653</ele>
        <time>2018-09-11T14:13:05Z</time>
      </trkpt>
      <trkpt lat="46.565121" lon="11.998628">
        <ele>2058.836</ele>
        <time>2018-09-11T14:13:21Z</time>
      </trkpt>
      <trkpt lat="46.565021" lon="11.998684">
        <ele>2056.479</ele>
        <time>2018-09-11T14:13:32Z</time>
      </trkpt>
      <trkpt lat="46.564910" lon="11.998736">
        <ele>2052.561</ele>
        <time>2018-09-11T14:13:45Z</time>
      </trkpt>
      <trkpt lat="46.564904" lon="11.998747">
        <ele>2052.521</ele>
        <time>2018-09-11T14:13:46Z</time>
      </trkpt>
      <trkpt lat="46.564837" lon="11.998813">
        <ele>2050.113</ele>
        <time>2018-09-11T14:13:55Z</time>
      </trkpt>
      <trkpt lat="46.564805" lon="11.998914">
        <ele>2045.308</ele>
        <time>2018-09-11T14:14:09Z</time>
      </trkpt>
      <trkpt lat="46.564739" lon="11.998899">
        <ele>2039.560</ele>
        <time>2018-09-11T14:14:23Z</time>
      </trkpt>
      <trkpt lat="46.564691" lon="11.998823">
        <ele>2038.682</ele>
        <time>2018-09-11T14:14:35Z</time>
      </trkpt>
      <trkpt lat="46.564681" lon="11.998793">
        <ele>2037.191</ele>
        <time>2018-09-11T14:14:40Z</time>
      </trkpt>
      <trkpt lat="46.564700" lon="11.998667">
        <ele>2035.210</ele>
        <time>2018-09-11T14:14:53Z</time>
      </trkpt>
      <trkpt lat="46.564649" lon="11.998706">
        <ele>2033.846</ele>
        <time>2018-09-11T14:15:06Z</time>
      </trkpt>
      <trkpt lat="46.564614" lon="11.998786">
        <ele>2029.952</ele>
        <time>2018-09-11T14:15:18Z</time>
      </trkpt>
      <trkpt lat="46.564609" lon="11.998884">
        <ele>2026.185</ele>
        <time>2018-09-11T14:15:31Z</time>
      </trkpt>
      <trkpt lat="46.564551" lon="11.998825">
        <ele>2024.158</ele>
        <time>2018-09-11T14:15:45Z</time>
      </trkpt>
      <trkpt lat="46.564517" lon="11.998877">
        <ele>2021.346</ele>
        <time>2018-09-11T14:15:56Z</time>
      </trkpt>
      <trkpt lat="46.564480" lon="11.998943">
        <ele>2017.488</ele>
        <time>2018-09-11T14:16:07Z</time>
      </trkpt>
      <trkpt lat="46.564377" lon="11.999006">
        <ele>2015.516</ele>
        <time>2018-09-11T14:16:21Z</time>
      </trkpt>
      <trkpt lat="46.564302" lon="11.999021">
        <ele>2014.508</ele>
        <time>2018-09-11T14:16:34Z</time>
      </trkpt>
      <trkpt lat="46.564256" lon="11.999037">
        <ele>2012.198</ele>
        <time>2018-09-11T14:16:45Z</time>
      </trkpt>
      <trkpt lat="46.564215" lon="11.998990">
        <ele>2010.230</ele>
        <time>2018-09-11T14:16:56Z</time>
      </trkpt>
      <trkpt lat="46.564199" lon="11.998980">
        <ele>2009.799</ele>
        <time>2018-09-11T14:16:59Z</time>
      </trkpt>
      <trkpt lat="46.564089" lon="11.998915">
        <ele>2008.348</ele>
        <time>2018-09-11T14:17:12Z</time>
      </trkpt>
      <trkpt lat="46.564115" lon="11.998882">
        <ele>2006.814</ele>
        <time>2018-09-11T14:17:23Z</time>
      </trkpt>
      <trkpt lat="46.564048" lon="11.998795">
        <ele>2004.980</ele>
        <time>2018-09-11T14:17:35Z</time>
      </trkpt>
      <trkpt lat="46.563963" lon="11.998713">
        <ele>2003.013</ele>
        <time>2018-09-11T14:17:49Z</time>
      </trkpt>
      <trkpt lat="46.563878" lon="11.998646">
        <ele>2000.166</ele>
        <time>2018-09-11T14:18:01Z</time>
      </trkpt>
      <trkpt lat="46.563786" lon="11.998596">
        <ele>1994.363</ele>
        <time>2018-09-11T14:18:17Z</time>
      </trkpt>
      <trkpt lat="46.563678" lon="11.998535">
        <ele>1991.544</ele>
        <time>2018-09-11T14:18:31Z</time>
      </trkpt>
      <trkpt lat="46.563622" lon="11.998521">
        <ele>1988.118</ele>
        <time>2018-09-11T14:18:43Z</time>
      </trkpt>
      <trkpt lat="46.563547" lon="11.998431">
        <ele>1984.708</ele>
        <time>2018-09-11T14:18:57Z</time>
      </trkpt>
      <trkpt lat="46.563500" lon="11.998331">
        <ele>1981.980</ele>
        <time>2018-09-11T14:19:09Z</time>
      </trkpt>
      <trkpt lat="46.563491" lon="11.998317">
        <ele>1981.482</ele>
        <time>2018-09-11T14:19:11Z</time>
      </trkpt>
      <trkpt lat="46.563447" lon="11.998206">
        <ele>1975.151</ele>
        <time>2018-09-11T14:19:25Z</time>
      </trkpt>
      <trkpt lat="46.563431" lon="11.998103">
        <ele>1972.270</ele>
        <time>2018-09-11T14:19:38Z</time>
      </trkpt>
      <trkpt lat="46.563427" lon="11.998102">
        <ele>1971.366</ele>
        <time>2018-09-11T14:20:04Z</time>
      </trkpt>
      <trkpt lat="46.563365" lon="11.998097">
        <ele>1969.872</ele>
        <time>2018-09-11T14:20:11Z</time>
      </trkpt>
      <trkpt lat="46.563356" lon="11.998084">
        <ele>1969.435</ele>
        <time>2018-09-11T14:20:12Z</time>
      </trkpt>
      <trkpt lat="46.563239" lon="11.997917">
        <ele>1963.668</ele>
        <time>2018-09-11T14:20:27Z</time>
      </trkpt>
      <trkpt lat="46.563237" lon="11.997903">
        <ele>1963.613</ele>
        <time>2018-09-11T14:20:28Z</time>
      </trkpt>
      <trkpt lat="46.563258" lon="11.997854">
        <ele>1961.743</ele>
        <time>2018-09-11T14:20:32Z</time>
      </trkpt>
      <trkpt lat="46.563266" lon="11.997849">
        <ele>1961.207</ele>
        <time>2018-09-11T14:20:33Z</time>
      </trkpt>
      <trkpt lat="46.563373" lon="11.997747">
        <ele>1955.908</ele>
        <time>2018-09-11T14:20:49Z</time>
      </trkpt>
      <trkpt lat="46.563418" lon="11.997734">
        <ele>1955.445</ele>
        <time>2018-09-11T14:20:55Z</time>
      </trkpt>
      <trkpt lat="46.563498" lon="11.997659">
        <ele>1951.177</ele>
        <time>2018-09-11T14:21:08Z</time>
      </trkpt>
      <trkpt lat="46.563540" lon="11.997541">
        <ele>1946.866</ele>
        <time>2018-09-11T14:21:22Z</time>
      </trkpt>
      <trkpt lat="46.563635" lon="11.997471">
        <ele>1943.995</ele>
        <time>2018-09-11T14:21:35Z</time>
      </trkpt>
      <trkpt lat="46.563704" lon="11.997470">
        <ele>1942.451</ele>
        <time>2018-09-11T14:21:43Z</time>
      </trkpt>
      <trkpt lat="46.563712" lon="11.997459">
        <ele>1942.017</ele>
        <time>2018-09-11T14:21:44Z</time>
      </trkpt>
      <trkpt lat="46.563792" lon="11.997363">
        <ele>1939.150</ele>
        <time>2018-09-11T14:21:57Z</time>
      </trkpt>
      <trkpt lat="46.563863" lon="11.997245">
        <ele>1934.713</ele>
        <time>2018-09-11T14:22:12Z</time>
      </trkpt>
      <trkpt lat="46.563871" lon="11.997238">
        <ele>1934.791</ele>
        <time>2018-09-11T14:22:13Z</time>
      </trkpt>
      <trkpt lat="46.563890" lon="11.997173">
        <ele>1931.981</ele>
        <time>2018-09-11T14:22:20Z</time>
      </trkpt>
      <trkpt lat="46.563923" lon="11.997078">
        <ele>1929.519</ele>
        <time>2018-09-11T14:22:32Z</time>
      </trkpt>
      <trkpt lat="46.563918" lon="11.997006">
        <ele>1927.508</ele>
        <time>2018-09-11T14:22:39Z</time>
      </trkpt>
      <trkpt lat="46.563894" lon="11.996894">
        <ele>1924.793</ele>
        <time>2018-09-11T14:22:52Z</time>
      </trkpt>
      <trkpt lat="46.563868" lon="11.996802">
        <ele>1922.285</ele>
        <time>2018-09-11T14:23:06Z</time>
      </trkpt>
      <trkpt lat="46.563884" lon="11.996752">
        <ele>1921.884</ele>
        <time>2018-09-11T14:23:11Z</time>
      </trkpt>
      <trkpt lat="46.563941" lon="11.996689">
        <ele>1919.893</ele>
        <time>2018-09-11T14:23:20Z</time>
      </trkpt>
      <trkpt lat="46.563984" lon="11.996642">
        <ele>1917.949</ele>
        <time>2018-09-11T14:23:26Z</time>
      </trkpt>
      <trkpt lat="46.564015" lon="11.996539">
        <ele>1915.545</ele>
        <time>2018-09-11T14:23:36Z</time>
      </trkpt>
      <trkpt lat="46.563990" lon="11.996525">
        <ele>1915.078</ele>
        <time>2018-09-11T14:23:39Z</time>
      </trkpt>
      <trkpt lat="46.563947" lon="11.996384">
        <ele>1911.771</ele>
        <time>2018-09-11T14:23:53Z</time>
      </trkpt>
      <trkpt lat="46.563946" lon="11.996370">
        <ele>1911.733</ele>
        <time>2018-09-11T14:23:54Z</time>
      </trkpt>
      <trkpt lat="46.563973" lon="11.996185">
        <ele>1908.823</ele>
        <time>2018-09-11T14:24:10Z</time>
      </trkpt>
      <trkpt lat="46.563964" lon="11.996175">
        <ele>1908.315</ele>
        <time>2018-09-11T14:24:12Z</time>
      </trkpt>
      <trkpt lat="46.563917" lon="11.996017">
        <ele>1905.408</ele>
        <time>2018-09-11T14:24:27Z</time>
      </trkpt>
      <trkpt lat="46.563918" lon="11.995994">
        <ele>1904.567</ele>
        <time>2018-09-11T14:24:29Z</time>
      </trkpt>
      <trkpt lat="46.563918" lon="11.995836">
        <ele>1901.139</ele>
        <time>2018-09-11T14:24:43Z</time>
      </trkpt>
      <trkpt lat="46.563913" lon="11.995667">
        <ele>1898.768</ele>
        <time>2018-09-11T14:24:57Z</time>
      </trkpt>
      <trkpt lat="46.563903" lon="11.995644">
        <ele>1897.727</ele>
        <time>2018-09-11T14:25:00Z</time>
      </trkpt>
      <trkpt lat="46.563882" lon="11.995577">
        <ele>1899.733</ele>
        <time>2018-09-11T14:25:16Z</time>
      </trkpt>
      <trkpt lat="46.563872" lon="11.995543">
        <ele>1898.739</ele>
        <time>2018-09-11T14:25:23Z</time>
      </trkpt>
      <trkpt lat="46.563867" lon="11.995513">
        <ele>1898.252</ele>
        <time>2018-09-11T14:25:24Z</time>
      </trkpt>
      <trkpt lat="46.563860" lon="11.995468">
        <ele>1897.775</ele>
        <time>2018-09-11T14:25:25Z</time>
      </trkpt>
      <trkpt lat="46.563848" lon="11.995414">
        <ele>1897.753</ele>
        <time>2018-09-11T14:25:26Z</time>
      </trkpt>
      <trkpt lat="46.563839" lon="11.995353">
        <ele>1897.304</ele>
        <time>2018-09-11T14:25:27Z</time>
      </trkpt>
      <trkpt lat="46.563830" lon="11.995303">
        <ele>1896.814</ele>
        <time>2018-09-11T14:25:28Z</time>
      </trkpt>
      <trkpt lat="46.563792" lon="11.994953">
        <ele>1895.808</ele>
        <time>2018-09-11T14:25:38Z</time>
      </trkpt>
      <trkpt lat="46.563767" lon="11.994871">
        <ele>1896.839</ele>
        <time>2018-09-11T14:25:50Z</time>
      </trkpt>
      <trkpt lat="46.563731" lon="11.994758">
        <ele>1898.731</ele>
        <time>2018-09-11T14:26:01Z</time>
      </trkpt>
      <trkpt lat="46.563688" lon="11.994608">
        <ele>1900.620</ele>
        <time>2018-09-11T14:26:15Z</time>
      </trkpt>
      <trkpt lat="46.563677" lon="11.994591">
        <ele>1900.639</ele>
        <time>2018-09-11T14:26:16Z</time>
      </trkpt>
      <trkpt lat="46.563665" lon="11.994572">
        <ele>1900.665</ele>
        <time>2018-09-11T14:26:17Z</time>
      </trkpt>
      <trkpt lat="46.563598" lon="11.994483">
        <ele>1901.151</ele>
        <time>2018-09-11T14:26:22Z</time>
      </trkpt>
      <trkpt lat="46.563592" lon="11.994451">
        <ele>1901.194</ele>
        <time>2018-09-11T14:26:23Z</time>
      </trkpt>
      <trkpt lat="46.563588" lon="11.994424">
        <ele>1901.127</ele>
        <time>2018-09-11T14:26:24Z</time>
      </trkpt>
      <trkpt lat="46.563585" lon="11.994393">
        <ele>1901.154</ele>
        <time>2018-09-11T14:26:25Z</time>
      </trkpt>
      <trkpt lat="46.563581" lon="11.994361">
        <ele>1900.656</ele>
        <time>2018-09-11T14:26:26Z</time>
      </trkpt>
      <trkpt lat="46.563582" lon="11.994332">
        <ele>1899.711</ele>
        <time>2018-09-11T14:26:27Z</time>
      </trkpt>
      <trkpt lat="46.563588" lon="11.994307">
        <ele>1897.708</ele>
        <time>2018-09-11T14:26:36Z</time>
      </trkpt>
      <trkpt lat="46.563602" lon="11.994328">
        <ele>1899.219</ele>
        <time>2018-09-11T14:27:04Z</time>
      </trkpt>
      <trkpt lat="46.563594" lon="11.994207">
        <ele>1896.871</ele>
        <time>2018-09-11T14:27:22Z</time>
      </trkpt>
      <trkpt lat="46.563556" lon="11.993992">
        <ele>1892.470</ele>
        <time>2018-09-11T14:27:38Z</time>
      </trkpt>
      <trkpt lat="46.563541" lon="11.993825">
        <ele>1889.169</ele>
        <time>2018-09-11T14:27:52Z</time>
      </trkpt>
      <trkpt lat="46.563497" lon="11.993627">
        <ele>1886.225</ele>
        <time>2018-09-11T14:28:06Z</time>
      </trkpt>
      <trkpt lat="46.563443" lon="11.993555">
        <ele>1885.221</ele>
        <time>2018-09-11T14:28:13Z</time>
      </trkpt>
      <trkpt lat="46.563442" lon="11.993507">
        <ele>1884.814</ele>
        <time>2018-09-11T14:28:18Z</time>
      </trkpt>
      <trkpt lat="46.563424" lon="11.993370">
        <ele>1881.427</ele>
        <time>2018-09-11T14:28:29Z</time>
      </trkpt>
      <trkpt lat="46.563343" lon="11.993417">
        <ele>1879.555</ele>
        <time>2018-09-11T14:28:42Z</time>
      </trkpt>
      <trkpt lat="46.563274" lon="11.993387">
        <ele>1876.607</ele>
        <time>2018-09-11T14:28:57Z</time>
      </trkpt>
      <trkpt lat="46.563305" lon="11.993293">
        <ele>1875.617</ele>
        <time>2018-09-11T14:29:10Z</time>
      </trkpt>
      <trkpt lat="46.563254" lon="11.993217">
        <ele>1875.108</ele>
        <time>2018-09-11T14:29:23Z</time>
      </trkpt>
      <trkpt lat="46.563228" lon="11.993144">
        <ele>1873.279</ele>
        <time>2018-09-11T14:29:35Z</time>
      </trkpt>
      <trkpt lat="46.563085" lon="11.993093">
        <ele>1871.351</ele>
        <time>2018-09-11T14:29:49Z</time>
      </trkpt>
      <trkpt lat="46.563073" lon="11.993098">
        <ele>1871.310</ele>
        <time>2018-09-11T14:29:50Z</time>
      </trkpt>
      <trkpt lat="46.563060" lon="11.993097">
        <ele>1871.339</ele>
        <time>2018-09-11T14:29:51Z</time>
      </trkpt>
      <trkpt lat="46.563049" lon="11.993090">
        <ele>1871.355</ele>
        <time>2018-09-11T14:29:52Z</time>
      </trkpt>
      <trkpt lat="46.563036" lon="11.993081">
        <ele>1870.881</ele>
        <time>2018-09-11T14:29:53Z</time>
      </trkpt>
      <trkpt lat="46.563024" lon="11.993072">
        <ele>1870.834</ele>
        <time>2018-09-11T14:29:54Z</time>
      </trkpt>
      <trkpt lat="46.563015" lon="11.993058">
        <ele>1870.317</ele>
        <time>2018-09-11T14:29:55Z</time>
      </trkpt>
      <trkpt lat="46.562968" lon="11.992964">
        <ele>1868.922</ele>
        <time>2018-09-11T14:30:01Z</time>
      </trkpt>
      <trkpt lat="46.562965" lon="11.992950">
        <ele>1868.462</ele>
        <time>2018-09-11T14:30:02Z</time>
      </trkpt>
      <trkpt lat="46.562960" lon="11.992934">
        <ele>1868.408</ele>
        <time>2018-09-11T14:30:03Z</time>
      </trkpt>
      <trkpt lat="46.562834" lon="11.992715">
        <ele>1864.108</ele>
        <time>2018-09-11T14:30:19Z</time>
      </trkpt>
      <trkpt lat="46.562820" lon="11.992667">
        <ele>1863.136</ele>
        <time>2018-09-11T14:30:23Z</time>
      </trkpt>
      <trkpt lat="46.562801" lon="11.992648">
        <ele>1863.148</ele>
        <time>2018-09-11T14:30:25Z</time>
      </trkpt>
      <trkpt lat="46.562787" lon="11.992642">
        <ele>1862.637</ele>
        <time>2018-09-11T14:30:26Z</time>
      </trkpt>
      <trkpt lat="46.562774" lon="11.992634">
        <ele>1862.686</ele>
        <time>2018-09-11T14:30:27Z</time>
      </trkpt>
      <trkpt lat="46.562667" lon="11.992564">
        <ele>1859.372</ele>
        <time>2018-09-11T14:30:40Z</time>
      </trkpt>
      <trkpt lat="46.562528" lon="11.992487">
        <ele>1856.458</ele>
        <time>2018-09-11T14:30:55Z</time>
      </trkpt>
      <trkpt lat="46.562433" lon="11.992516">
        <ele>1854.041</ele>
        <time>2018-09-11T14:31:07Z</time>
      </trkpt>
      <trkpt lat="46.562423" lon="11.992513">
        <ele>1853.584</ele>
        <time>2018-09-11T14:31:08Z</time>
      </trkpt>
      <trkpt lat="46.562300" lon="11.992478">
        <ele>1847.794</ele>
        <time>2018-09-11T14:31:23Z</time>
      </trkpt>
      <trkpt lat="46.562263" lon="11.992478">
        <ele>1846.857</ele>
        <time>2018-09-11T14:31:27Z</time>
      </trkpt>
      <trkpt lat="46.562250" lon="11.992470">
        <ele>1846.822</ele>
        <time>2018-09-11T14:31:28Z</time>
      </trkpt>
      <trkpt lat="46.562240" lon="11.992465">
        <ele>1846.308</ele>
        <time>2018-09-11T14:31:29Z</time>
      </trkpt>
      <trkpt lat="46.562132" lon="11.992315">
        <ele>1842.063</ele>
        <time>2018-09-11T14:31:46Z</time>
      </trkpt>
      <trkpt lat="46.562123" lon="11.992228">
        <ele>1840.555</ele>
        <time>2018-09-11T14:31:54Z</time>
      </trkpt>
      <trkpt lat="46.562070" lon="11.992241">
        <ele>1837.774</ele>
        <time>2018-09-11T14:32:06Z</time>
      </trkpt>
      <trkpt lat="46.562048" lon="11.992245">
        <ele>1837.713</ele>
        <time>2018-09-11T14:32:10Z</time>
      </trkpt>
      <trkpt lat="46.561986" lon="11.992252">
        <ele>1834.839</ele>
        <time>2018-09-11T14:32:22Z</time>
      </trkpt>
      <trkpt lat="46.561922" lon="11.992206">
        <ele>1830.465</ele>
        <time>2018-09-11T14:32:35Z</time>
      </trkpt>
      <trkpt lat="46.561897" lon="11.992160">
        <ele>1828.538</ele>
        <time>2018-09-11T14:32:41Z</time>
      </trkpt>
      <trkpt lat="46.561795" lon="11.992120">
        <ele>1824.791</ele>
        <time>2018-09-11T14:32:56Z</time>
      </trkpt>
      <trkpt lat="46.561730" lon="11.992049">
        <ele>1822.365</ele>
        <time>2018-09-11T14:33:09Z</time>
      </trkpt>
      <trkpt lat="46.561651" lon="11.991993">
        <ele>1820.368</ele>
        <time>2018-09-11T14:33:21Z</time>
      </trkpt>
      <trkpt lat="46.561568" lon="11.991959">
        <ele>1817.014</ele>
        <time>2018-09-11T14:33:32Z</time>
      </trkpt>
      <trkpt lat="46.561547" lon="11.991946">
        <ele>1817.008</ele>
        <time>2018-09-11T14:33:38Z</time>
      </trkpt>
      <trkpt lat="46.561532" lon="11.991929">
        <ele>1817.090</ele>
        <time>2018-09-11T14:33:39Z</time>
      </trkpt>
      <trkpt lat="46.561513" lon="11.991909">
        <ele>1816.072</ele>
        <time>2018-09-11T14:33:40Z</time>
      </trkpt>
      <trkpt lat="46.561493" lon="11.991893">
        <ele>1815.531</ele>
        <time>2018-09-11T14:33:41Z</time>
      </trkpt>
      <trkpt lat="46.561467" lon="11.991883">
        <ele>1815.140</ele>
        <time>2018-09-11T14:33:42Z</time>
      </trkpt>
      <trkpt lat="46.561114" lon="11.991849">
        <ele>1809.386</ele>
        <time>2018-09-11T14:33:57Z</time>
      </trkpt>
      <trkpt lat="46.561071" lon="11.991829">
        <ele>1810.392</ele>
        <time>2018-09-11T14:34:06Z</time>
      </trkpt>
      <trkpt lat="46.561059" lon="11.991828">
        <ele>1809.845</ele>
        <time>2018-09-11T14:34:07Z</time>
      </trkpt>
      <trkpt lat="46.561048" lon="11.991828">
        <ele>1809.878</ele>
        <time>2018-09-11T14:34:08Z</time>
      </trkpt>
      <trkpt lat="46.560941" lon="11.991762">
        <ele>1805.442</ele>
        <time>2018-09-11T14:34:22Z</time>
      </trkpt>
      <trkpt lat="46.560923" lon="11.991741">
        <ele>1803.522</ele>
        <time>2018-09-11T14:34:25Z</time>
      </trkpt>
      <trkpt lat="46.560914" lon="11.991733">
        <ele>1803.014</ele>
        <time>2018-09-11T14:34:26Z</time>
      </trkpt>
      <trkpt lat="46.560824" lon="11.991613">
        <ele>1797.308</ele>
        <time>2018-09-11T14:34:41Z</time>
      </trkpt>
      <trkpt lat="46.560717" lon="11.991572">
        <ele>1793.988</ele>
        <time>2018-09-11T14:34:55Z</time>
      </trkpt>
      <trkpt lat="46.560661" lon="11.991533">
        <ele>1792.040</ele>
        <time>2018-09-11T14:34:59Z</time>
      </trkpt>
      <trkpt lat="46.560643" lon="11.991514">
        <ele>1791.559</ele>
        <time>2018-09-11T14:35:00Z</time>
      </trkpt>
      <trkpt lat="46.560620" lon="11.991495">
        <ele>1791.518</ele>
        <time>2018-09-11T14:35:01Z</time>
      </trkpt>
      <trkpt lat="46.560494" lon="11.991345">
        <ele>1788.664</ele>
        <time>2018-09-11T14:35:08Z</time>
      </trkpt>
      <trkpt lat="46.560519" lon="11.991181">
        <ele>1786.760</ele>
        <time>2018-09-11T14:35:16Z</time>
      </trkpt>
      <trkpt lat="46.560622" lon="11.991122">
        <ele>1783.863</ele>
        <time>2018-09-11T14:35:23Z</time>
      </trkpt>
      <trkpt lat="46.560622" lon="11.991102">
        <ele>1783.366</ele>
        <time>2018-09-11T14:35:24Z</time>
      </trkpt>
      <trkpt lat="46.560619" lon="11.991078">
        <ele>1782.938</ele>
        <time>2018-09-11T14:35:25Z</time>
      </trkpt>
      <trkpt lat="46.560616" lon="11.991055">
        <ele>1782.470</ele>
        <time>2018-09-11T14:35:26Z</time>
      </trkpt>
      <trkpt lat="46.560607" lon="11.991035">
        <ele>1782.417</ele>
        <time>2018-09-11T14:35:27Z</time>
      </trkpt>
      <trkpt lat="46.560595" lon="11.991018">
        <ele>1781.908</ele>
        <time>2018-09-11T14:35:28Z</time>
      </trkpt>
      <trkpt lat="46.560580" lon="11.991002">
        <ele>1781.417</ele>
        <time>2018-09-11T14:35:29Z</time>
      </trkpt>
      <trkpt lat="46.560558" lon="11.990994">
        <ele>1780.949</ele>
        <time>2018-09-11T14:35:30Z</time>
      </trkpt>
      <trkpt lat="46.560535" lon="11.990986">
        <ele>1780.988</ele>
        <time>2018-09-11T14:35:31Z</time>
      </trkpt>
      <trkpt lat="46.560513" lon="11.990973">
        <ele>1780.597</ele>
        <time>2018-09-11T14:35:32Z</time>
      </trkpt>
      <trkpt lat="46.560488" lon="11.990958">
        <ele>1780.093</ele>
        <time>2018-09-11T14:35:33Z</time>
      </trkpt>
      <trkpt lat="46.560287" lon="11.990792">
        <ele>1779.589</ele>
        <time>2018-09-11T14:35:44Z</time>
      </trkpt>
      <trkpt lat="46.560233" lon="11.990463">
        <ele>1771.822</ele>
        <time>2018-09-11T14:35:58Z</time>
      </trkpt>
      <trkpt lat="46.560264" lon="11.990349">
        <ele>1769.925</ele>
        <time>2018-09-11T14:36:03Z</time>
      </trkpt>
      <trkpt lat="46.560261" lon="11.990326">
        <ele>1769.936</ele>
        <time>2018-09-11T14:36:04Z</time>
      </trkpt>
      <trkpt lat="46.560256" lon="11.990305">
        <ele>1769.417</ele>
        <time>2018-09-11T14:36:05Z</time>
      </trkpt>
      <trkpt lat="46.560122" lon="11.989985">
        <ele>1762.218</ele>
        <time>2018-09-11T14:36:20Z</time>
      </trkpt>
      <trkpt lat="46.560146" lon="11.989683">
        <ele>1756.908</ele>
        <time>2018-09-11T14:36:32Z</time>
      </trkpt>
      <trkpt lat="46.560127" lon="11.989572">
        <ele>1755.037</ele>
        <time>2018-09-11T14:36:36Z</time>
      </trkpt>
      <trkpt lat="46.559955" lon="11.989279">
        <ele>1750.789</ele>
        <time>2018-09-11T14:36:48Z</time>
      </trkpt>
      <trkpt lat="46.559882" lon="11.988683">
        <ele>1743.448</ele>
        <time>2018-09-11T14:37:04Z</time>
      </trkpt>
      <trkpt lat="46.559921" lon="11.988451">
        <ele>1742.517</ele>
        <time>2018-09-11T14:37:14Z</time>
      </trkpt>
      <trkpt lat="46.559903" lon="11.988443">
        <ele>1743.013</ele>
        <time>2018-09-11T14:37:15Z</time>
      </trkpt>
      <trkpt lat="46.559705" lon="11.988358">
        <ele>1742.059</ele>
        <time>2018-09-11T14:37:21Z</time>
      </trkpt>
      <trkpt lat="46.559613" lon="11.988218">
        <ele>1742.032</ele>
        <time>2018-09-11T14:37:32Z</time>
      </trkpt>
      <trkpt lat="46.559545" lon="11.987818">
        <ele>1741.015</ele>
        <time>2018-09-11T14:37:43Z</time>
      </trkpt>
      <trkpt lat="46.559573" lon="11.987282">
        <ele>1738.614</ele>
        <time>2018-09-11T14:37:53Z</time>
      </trkpt>
      <trkpt lat="46.559584" lon="11.987207">
        <ele>1738.254</ele>
        <time>2018-09-11T14:37:54Z</time>
      </trkpt>
      <trkpt lat="46.559600" lon="11.987135">
        <ele>1737.709</ele>
        <time>2018-09-11T14:37:55Z</time>
      </trkpt>
      <trkpt lat="46.559616" lon="11.987056">
        <ele>1737.208</ele>
        <time>2018-09-11T14:37:56Z</time>
      </trkpt>
      <trkpt lat="46.559622" lon="11.986970">
        <ele>1737.275</ele>
        <time>2018-09-11T14:37:57Z</time>
      </trkpt>
      <trkpt lat="46.559625" lon="11.986875">
        <ele>1736.767</ele>
        <time>2018-09-11T14:37:58Z</time>
      </trkpt>
      <trkpt lat="46.559632" lon="11.986786">
        <ele>1736.226</ele>
        <time>2018-09-11T14:37:59Z</time>
      </trkpt>
      <trkpt lat="46.559639" lon="11.986700">
        <ele>1736.265</ele>
        <time>2018-09-11T14:38:00Z</time>
      </trkpt>
      <trkpt lat="46.559708" lon="11.985750">
        <ele>1733.361</ele>
        <time>2018-09-11T14:38:12Z</time>
      </trkpt>
      <trkpt lat="46.559736" lon="11.985627">
        <ele>1732.917</ele>
        <time>2018-09-11T14:38:14Z</time>
      </trkpt>
      <trkpt lat="46.559776" lon="11.985258">
        <ele>1730.080</ele>
        <time>2018-09-11T14:38:19Z</time>
      </trkpt>
      <trkpt lat="46.559807" lon="11.985108">
        <ele>1729.023</ele>
        <time>2018-09-11T14:38:21Z</time>
      </trkpt>
      <trkpt lat="46.559828" lon="11.985032">
        <ele>1729.037</ele>
        <time>2018-09-11T14:38:22Z</time>
      </trkpt>
      <trkpt lat="46.559848" lon="11.984953">
        <ele>1728.549</ele>
        <time>2018-09-11T14:38:23Z</time>
      </trkpt>
      <trkpt lat="46.559955" lon="11.984332">
        <ele>1726.613</ele>
        <time>2018-09-11T14:38:30Z</time>
      </trkpt>
      <trkpt lat="46.560061" lon="11.983352">
        <ele>1724.708</ele>
        <time>2018-09-11T14:38:42Z</time>
      </trkpt>
      <trkpt lat="46.560082" lon="11.983292">
        <ele>1724.747</ele>
        <time>2018-09-11T14:38:43Z</time>
      </trkpt>
      <trkpt lat="46.560125" lon="11.983092">
        <ele>1727.619</ele>
        <time>2018-09-11T14:38:52Z</time>
      </trkpt>
      <trkpt lat="46.560076" lon="11.982940">
        <ele>1730.528</ele>
        <time>2018-09-11T14:39:02Z</time>
      </trkpt>
      <trkpt lat="46.560073" lon="11.982923">
        <ele>1730.967</ele>
        <time>2018-09-11T14:39:03Z</time>
      </trkpt>
      <trkpt lat="46.560071" lon="11.982907">
        <ele>1730.993</ele>
        <time>2018-09-11T14:39:04Z</time>
      </trkpt>
      <trkpt lat="46.560066" lon="11.982893">
        <ele>1730.939</ele>
        <time>2018-09-11T14:39:05Z</time>
      </trkpt>
      <trkpt lat="46.560060" lon="11.982877">
        <ele>1730.912</ele>
        <time>2018-09-11T14:39:06Z</time>
      </trkpt>
      <trkpt lat="46.560055" lon="11.982860">
        <ele>1731.435</ele>
        <time>2018-09-11T14:39:07Z</time>
      </trkpt>
      <trkpt lat="46.560051" lon="11.982843">
        <ele>1731.481</ele>
        <time>2018-09-11T14:39:08Z</time>
      </trkpt>
      <trkpt lat="46.560004" lon="11.982720">
        <ele>1732.461</ele>
        <time>2018-09-11T14:39:17Z</time>
      </trkpt>
      <trkpt lat="46.559999" lon="11.982698">
        <ele>1731.917</ele>
        <time>2018-09-11T14:39:18Z</time>
      </trkpt>
      <trkpt lat="46.559987" lon="11.982681">
        <ele>1731.408</ele>
        <time>2018-09-11T14:39:19Z</time>
      </trkpt>
      <trkpt lat="46.559972" lon="11.982653">
        <ele>1731.472</ele>
        <time>2018-09-11T14:39:20Z</time>
      </trkpt>
      <trkpt lat="46.559960" lon="11.982630">
        <ele>1731.464</ele>
        <time>2018-09-11T14:39:21Z</time>
      </trkpt>
      <trkpt lat="46.559946" lon="11.982608">
        <ele>1731.413</ele>
        <time>2018-09-11T14:39:22Z</time>
      </trkpt>
      <trkpt lat="46.559825" lon="11.982209">
        <ele>1732.482</ele>
        <time>2018-09-11T14:39:34Z</time>
      </trkpt>
      <trkpt lat="46.559844" lon="11.981768">
        <ele>1731.438</ele>
        <time>2018-09-11T14:39:48Z</time>
      </trkpt>
      <trkpt lat="46.559873" lon="11.981115">
        <ele>1731.494</ele>
        <time>2018-09-11T14:40:06Z</time>
      </trkpt>
      <trkpt lat="46.559807" lon="11.980305">
        <ele>1728.537</ele>
        <time>2018-09-11T14:40:21Z</time>
      </trkpt>
      <trkpt lat="46.559618" lon="11.979376">
        <ele>1722.330</ele>
        <time>2018-09-11T14:40:35Z</time>
      </trkpt>
      <trkpt lat="46.559598" lon="11.979307">
        <ele>1721.853</ele>
        <time>2018-09-11T14:40:36Z</time>
      </trkpt>
      <trkpt lat="46.559587" lon="11.979230">
        <ele>1721.304</ele>
        <time>2018-09-11T14:40:37Z</time>
      </trkpt>
      <trkpt lat="46.559567" lon="11.979056">
        <ele>1719.914</ele>
        <time>2018-09-11T14:40:39Z</time>
      </trkpt>
      <trkpt lat="46.559542" lon="11.978956">
        <ele>1718.908</ele>
        <time>2018-09-11T14:40:40Z</time>
      </trkpt>
      <trkpt lat="46.559514" lon="11.978870">
        <ele>1718.089</ele>
        <time>2018-09-11T14:40:41Z</time>
      </trkpt>
      <trkpt lat="46.559484" lon="11.978791">
        <ele>1717.041</ele>
        <time>2018-09-11T14:40:42Z</time>
      </trkpt>
      <trkpt lat="46.559452" lon="11.978717">
        <ele>1716.070</ele>
        <time>2018-09-11T14:40:43Z</time>
      </trkpt>
      <trkpt lat="46.559140" lon="11.977750">
        <ele>1706.089</ele>
        <time>2018-09-11T14:40:52Z</time>
      </trkpt>
      <trkpt lat="46.559045" lon="11.976429">
        <ele>1694.925</ele>
        <time>2018-09-11T14:41:01Z</time>
      </trkpt>
      <trkpt lat="46.559016" lon="11.976270">
        <ele>1693.581</ele>
        <time>2018-09-11T14:41:02Z</time>
      </trkpt>
      <trkpt lat="46.558977" lon="11.976115">
        <ele>1693.044</ele>
        <time>2018-09-11T14:41:03Z</time>
      </trkpt>
      <trkpt lat="46.558930" lon="11.975966">
        <ele>1692.017</ele>
        <time>2018-09-11T14:41:04Z</time>
      </trkpt>
      <trkpt lat="46.558874" lon="11.975827">
        <ele>1691.537</ele>
        <time>2018-09-11T14:41:05Z</time>
      </trkpt>
      <trkpt lat="46.558812" lon="11.975695">
        <ele>1691.149</ele>
        <time>2018-09-11T14:41:06Z</time>
      </trkpt>
      <trkpt lat="46.558630" lon="11.975332">
        <ele>1690.613</ele>
        <time>2018-09-11T14:41:09Z</time>
      </trkpt>
      <trkpt lat="46.558584" lon="11.975205">
        <ele>1690.108</ele>
        <time>2018-09-11T14:41:10Z</time>
      </trkpt>
      <trkpt lat="46.558551" lon="11.975071">
        <ele>1689.637</ele>
        <time>2018-09-11T14:41:11Z</time>
      </trkpt>
      <trkpt lat="46.558530" lon="11.974937">
        <ele>1689.639</ele>
        <time>2018-09-11T14:41:12Z</time>
      </trkpt>
      <trkpt lat="46.558514" lon="11.974803">
        <ele>1689.688</ele>
        <time>2018-09-11T14:41:13Z</time>
      </trkpt>
      <trkpt lat="46.558432" lon="11.974325">
        <ele>1689.657</ele>
        <time>2018-09-11T14:41:17Z</time>
      </trkpt>
      <trkpt lat="46.558397" lon="11.974223">
        <ele>1689.663</ele>
        <time>2018-09-11T14:41:18Z</time>
      </trkpt>
      <trkpt lat="46.558354" lon="11.974131">
        <ele>1689.669</ele>
        <time>2018-09-11T14:41:19Z</time>
      </trkpt>
      <trkpt lat="46.558307" lon="11.974044">
        <ele>1689.692</ele>
        <time>2018-09-11T14:41:20Z</time>
      </trkpt>
      <trkpt lat="46.558256" lon="11.973963">
        <ele>1690.145</ele>
        <time>2018-09-11T14:41:21Z</time>
      </trkpt>
      <trkpt lat="46.557475" lon="11.972576">
        <ele>1686.245</ele>
        <time>2018-09-11T14:41:37Z</time>
      </trkpt>
      <trkpt lat="46.556639" lon="11.971281">
        <ele>1679.547</ele>
        <time>2018-09-11T14:41:51Z</time>
      </trkpt>
      <trkpt lat="46.556260" lon="11.970547">
        <ele>1673.311</ele>
        <time>2018-09-11T14:41:57Z</time>
      </trkpt>
      <trkpt lat="46.556218" lon="11.970390">
        <ele>1672.308</ele>
        <time>2018-09-11T14:41:58Z</time>
      </trkpt>
      <trkpt lat="46.556188" lon="11.970227">
        <ele>1670.958</ele>
        <time>2018-09-11T14:41:59Z</time>
      </trkpt>
      <trkpt lat="46.555886" lon="11.968407">
        <ele>1663.280</ele>
        <time>2018-09-11T14:42:10Z</time>
      </trkpt>
      <trkpt lat="46.555837" lon="11.967367">
        <ele>1660.829</ele>
        <time>2018-09-11T14:42:17Z</time>
      </trkpt>
      <trkpt lat="46.555819" lon="11.967253">
        <ele>1660.318</ele>
        <time>2018-09-11T14:42:18Z</time>
      </trkpt>
      <trkpt lat="46.555664" lon="11.966430">
        <ele>1656.014</ele>
        <time>2018-09-11T14:42:28Z</time>
      </trkpt>
      <trkpt lat="46.555658" lon="11.966354">
        <ele>1655.090</ele>
        <time>2018-09-11T14:42:29Z</time>
      </trkpt>
      <trkpt lat="46.555657" lon="11.966273">
        <ele>1654.533</ele>
        <time>2018-09-11T14:42:30Z</time>
      </trkpt>
      <trkpt lat="46.555664" lon="11.966192">
        <ele>1653.636</ele>
        <time>2018-09-11T14:42:31Z</time>
      </trkpt>
      <trkpt lat="46.555684" lon="11.966098">
        <ele>1652.656</ele>
        <time>2018-09-11T14:42:32Z</time>
      </trkpt>
      <trkpt lat="46.555719" lon="11.966007">
        <ele>1652.159</ele>
        <time>2018-09-11T14:42:33Z</time>
      </trkpt>
      <trkpt lat="46.555751" lon="11.965953">
        <ele>1652.114</ele>
        <time>2018-09-11T14:42:34Z</time>
      </trkpt>
      <trkpt lat="46.555794" lon="11.965898">
        <ele>1652.108</ele>
        <time>2018-09-11T14:42:35Z</time>
      </trkpt>
      <trkpt lat="46.555825" lon="11.965861">
        <ele>1652.149</ele>
        <time>2018-09-11T14:42:36Z</time>
      </trkpt>
      <trkpt lat="46.555874" lon="11.965774">
        <ele>1652.141</ele>
        <time>2018-09-11T14:42:40Z</time>
      </trkpt>
      <trkpt lat="46.555844" lon="11.965736">
        <ele>1652.120</ele>
        <time>2018-09-11T14:42:42Z</time>
      </trkpt>
      <trkpt lat="46.555818" lon="11.965748">
        <ele>1652.129</ele>
        <time>2018-09-11T14:42:43Z</time>
      </trkpt>
      <trkpt lat="46.555798" lon="11.965765">
        <ele>1652.115</ele>
        <time>2018-09-11T14:42:44Z</time>
      </trkpt>
      <trkpt lat="46.555770" lon="11.965787">
        <ele>1652.151</ele>
        <time>2018-09-11T14:42:45Z</time>
      </trkpt>
      <trkpt lat="46.555589" lon="11.965941">
        <ele>1653.184</ele>
        <time>2018-09-11T14:42:52Z</time>
      </trkpt>
      <trkpt lat="46.555559" lon="11.965931">
        <ele>1653.177</ele>
        <time>2018-09-11T14:42:53Z</time>
      </trkpt>
      <trkpt lat="46.555534" lon="11.965906">
        <ele>1652.666</ele>
        <time>2018-09-11T14:42:54Z</time>
      </trkpt>
      <trkpt lat="46.555509" lon="11.965867">
        <ele>1652.129</ele>
        <time>2018-09-11T14:42:55Z</time>
      </trkpt>
      <trkpt lat="46.555486" lon="11.965819">
        <ele>1651.621</ele>
        <time>2018-09-11T14:42:56Z</time>
      </trkpt>
      <trkpt lat="46.555463" lon="11.965768">
        <ele>1651.208</ele>
        <time>2018-09-11T14:42:57Z</time>
      </trkpt>
      <trkpt lat="46.555398" lon="11.965591">
        <ele>1649.250</ele>
        <time>2018-09-11T14:43:00Z</time>
      </trkpt>
      <trkpt lat="46.555385" lon="11.965519">
        <ele>1648.892</ele>
        <time>2018-09-11T14:43:01Z</time>
      </trkpt>
      <trkpt lat="46.555379" lon="11.965450">
        <ele>1648.391</ele>
        <time>2018-09-11T14:43:02Z</time>
      </trkpt>
      <trkpt lat="46.555375" lon="11.965380">
        <ele>1648.380</ele>
        <time>2018-09-11T14:43:03Z</time>
      </trkpt>
      <trkpt lat="46.555376" lon="11.965312">
        <ele>1647.866</ele>
        <time>2018-09-11T14:43:04Z</time>
      </trkpt>
      <trkpt lat="46.555379" lon="11.965246">
        <ele>1647.392</ele>
        <time>2018-09-11T14:43:05Z</time>
      </trkpt>
      <trkpt lat="46.555376" lon="11.965180">
        <ele>1647.385</ele>
        <time>2018-09-11T14:43:06Z</time>
      </trkpt>
      <trkpt lat="46.555368" lon="11.965113">
        <ele>1646.858</ele>
        <time>2018-09-11T14:43:07Z</time>
      </trkpt>
      <trkpt lat="46.555354" lon="11.964979">
        <ele>1646.493</ele>
        <time>2018-09-11T14:43:09Z</time>
      </trkpt>
      <trkpt lat="46.555361" lon="11.964908">
        <ele>1645.965</ele>
        <time>2018-09-11T14:43:10Z</time>
      </trkpt>
      <trkpt lat="46.555376" lon="11.964839">
        <ele>1645.921</ele>
        <time>2018-09-11T14:43:11Z</time>
      </trkpt>
      <trkpt lat="46.555450" lon="11.964606">
        <ele>1645.408</ele>
        <time>2018-09-11T14:43:15Z</time>
      </trkpt>
      <trkpt lat="46.555475" lon="11.964557">
        <ele>1645.423</ele>
        <time>2018-09-11T14:43:16Z</time>
      </trkpt>
      <trkpt lat="46.555950" lon="11.963902">
        <ele>1645.475</ele>
        <time>2018-09-11T14:43:31Z</time>
      </trkpt>
      <trkpt lat="46.556438" lon="11.963349">
        <ele>1645.954</ele>
        <time>2018-09-11T14:43:48Z</time>
      </trkpt>
      <trkpt lat="46.556637" lon="11.963135">
        <ele>1645.463</ele>
        <time>2018-09-11T14:43:54Z</time>
      </trkpt>
      <trkpt lat="46.556672" lon="11.963095">
        <ele>1645.499</ele>
        <time>2018-09-11T14:43:55Z</time>
      </trkpt>
      <trkpt lat="46.557275" lon="11.962412">
        <ele>1646.415</ele>
        <time>2018-09-11T14:44:13Z</time>
      </trkpt>
      <trkpt lat="46.557756" lon="11.961779">
        <ele>1646.498</ele>
        <time>2018-09-11T14:44:27Z</time>
      </trkpt>
      <trkpt lat="46.558030" lon="11.961131">
        <ele>1645.451</ele>
        <time>2018-09-11T14:44:42Z</time>
      </trkpt>
      <trkpt lat="46.558069" lon="11.961015">
        <ele>1645.494</ele>
        <time>2018-09-11T14:44:44Z</time>
      </trkpt>
      <trkpt lat="46.558125" lon="11.960832">
        <ele>1644.457</ele>
        <time>2018-09-11T14:44:47Z</time>
      </trkpt>
      <trkpt lat="46.558244" lon="11.960505">
        <ele>1643.922</ele>
        <time>2018-09-11T14:44:53Z</time>
      </trkpt>
      <trkpt lat="46.558286" lon="11.960182">
        <ele>1642.008</ele>
        <time>2018-09-11T14:44:57Z</time>
      </trkpt>
      <trkpt lat="46.558290" lon="11.960082">
        <ele>1641.593</ele>
        <time>2018-09-11T14:44:58Z</time>
      </trkpt>
      <trkpt lat="46.558300" lon="11.959977">
        <ele>1640.615</ele>
        <time>2018-09-11T14:44:59Z</time>
      </trkpt>
      <trkpt lat="46.558389" lon="11.959555">
        <ele>1637.764</ele>
        <time>2018-09-11T14:45:03Z</time>
      </trkpt>
      <trkpt lat="46.558428" lon="11.959465">
        <ele>1637.233</ele>
        <time>2018-09-11T14:45:04Z</time>
      </trkpt>
      <trkpt lat="46.559039" lon="11.958429">
        <ele>1634.379</ele>
        <time>2018-09-11T14:45:18Z</time>
      </trkpt>
      <trkpt lat="46.559150" lon="11.958312">
        <ele>1634.845</ele>
        <time>2018-09-11T14:45:21Z</time>
      </trkpt>
      <trkpt lat="46.559186" lon="11.958280">
        <ele>1634.848</ele>
        <time>2018-09-11T14:45:22Z</time>
      </trkpt>
      <trkpt lat="46.559215" lon="11.958247">
        <ele>1634.821</ele>
        <time>2018-09-11T14:45:23Z</time>
      </trkpt>
      <trkpt lat="46.559291" lon="11.957885">
        <ele>1633.449</ele>
        <time>2018-09-11T14:45:31Z</time>
      </trkpt>
      <trkpt lat="46.559265" lon="11.957826">
        <ele>1633.402</ele>
        <time>2018-09-11T14:45:32Z</time>
      </trkpt>
      <trkpt lat="46.559204" lon="11.957729">
        <ele>1633.422</ele>
        <time>2018-09-11T14:45:34Z</time>
      </trkpt>
      <trkpt lat="46.558912" lon="11.957445">
        <ele>1636.708</ele>
        <time>2018-09-11T14:45:46Z</time>
      </trkpt>
      <trkpt lat="46.558554" lon="11.957103">
        <ele>1639.118</ele>
        <time>2018-09-11T14:46:03Z</time>
      </trkpt>
      <trkpt lat="46.558196" lon="11.956764">
        <ele>1638.740</ele>
        <time>2018-09-11T14:46:16Z</time>
      </trkpt>
      <trkpt lat="46.558026" lon="11.956593">
        <ele>1636.749</ele>
        <time>2018-09-11T14:46:22Z</time>
      </trkpt>
      <trkpt lat="46.558032" lon="11.956535">
        <ele>1635.898</ele>
        <time>2018-09-11T14:46:23Z</time>
      </trkpt>
      <trkpt lat="46.558049" lon="11.956498">
        <ele>1635.354</ele>
        <time>2018-09-11T14:46:24Z</time>
      </trkpt>
      <trkpt lat="46.558080" lon="11.956456">
        <ele>1634.350</ele>
        <time>2018-09-11T14:46:25Z</time>
      </trkpt>
      <trkpt lat="46.558121" lon="11.956421">
        <ele>1633.933</ele>
        <time>2018-09-11T14:46:26Z</time>
      </trkpt>
      <trkpt lat="46.558168" lon="11.956394">
        <ele>1632.946</ele>
        <time>2018-09-11T14:46:27Z</time>
      </trkpt>
      <trkpt lat="46.558224" lon="11.956378">
        <ele>1632.454</ele>
        <time>2018-09-11T14:46:28Z</time>
      </trkpt>
      <trkpt lat="46.558284" lon="11.956376">
        <ele>1631.956</ele>
        <time>2018-09-11T14:46:29Z</time>
      </trkpt>
      <trkpt lat="46.558346" lon="11.956373">
        <ele>1631.411</ele>
        <time>2018-09-11T14:46:30Z</time>
      </trkpt>
      <trkpt lat="46.558412" lon="11.956353">
        <ele>1631.408</ele>
        <time>2018-09-11T14:46:31Z</time>
      </trkpt>
      <trkpt lat="46.558473" lon="11.956327">
        <ele>1631.059</ele>
        <time>2018-09-11T14:46:32Z</time>
      </trkpt>
      <trkpt lat="46.558536" lon="11.956311">
        <ele>1630.521</ele>
        <time>2018-09-11T14:46:33Z</time>
      </trkpt>
      <trkpt lat="46.558597" lon="11.956296">
        <ele>1630.050</ele>
        <time>2018-09-11T14:46:34Z</time>
      </trkpt>
      <trkpt lat="46.558660" lon="11.956273">
        <ele>1629.559</ele>
        <time>2018-09-11T14:46:35Z</time>
      </trkpt>
      <trkpt lat="46.558720" lon="11.956241">
        <ele>1628.655</ele>
        <time>2018-09-11T14:46:36Z</time>
      </trkpt>
      <trkpt lat="46.558772" lon="11.956209">
        <ele>1628.131</ele>
        <time>2018-09-11T14:46:37Z</time>
      </trkpt>
      <trkpt lat="46.559142" lon="11.955975">
        <ele>1626.624</ele>
        <time>2018-09-11T14:46:44Z</time>
      </trkpt>
      <trkpt lat="46.559185" lon="11.955927">
        <ele>1626.247</ele>
        <time>2018-09-11T14:46:45Z</time>
      </trkpt>
      <trkpt lat="46.559220" lon="11.955869">
        <ele>1626.284</ele>
        <time>2018-09-11T14:46:46Z</time>
      </trkpt>
      <trkpt lat="46.559245" lon="11.955810">
        <ele>1626.207</ele>
        <time>2018-09-11T14:46:47Z</time>
      </trkpt>
      <trkpt lat="46.559264" lon="11.955746">
        <ele>1626.217</ele>
        <time>2018-09-11T14:46:48Z</time>
      </trkpt>
      <trkpt lat="46.559281" lon="11.955676">
        <ele>1625.708</ele>
        <time>2018-09-11T14:46:49Z</time>
      </trkpt>
      <trkpt lat="46.559310" lon="11.955534">
        <ele>1625.232</ele>
        <time>2018-09-11T14:46:51Z</time>
      </trkpt>
      <trkpt lat="46.559319" lon="11.955460">
        <ele>1624.784</ele>
        <time>2018-09-11T14:46:52Z</time>
      </trkpt>
      <trkpt lat="46.559328" lon="11.955306">
        <ele>1623.853</ele>
        <time>2018-09-11T14:46:54Z</time>
      </trkpt>
      <trkpt lat="46.559322" lon="11.955231">
        <ele>1623.892</ele>
        <time>2018-09-11T14:46:55Z</time>
      </trkpt>
      <trkpt lat="46.559181" lon="11.954316">
        <ele>1621.498</ele>
        <time>2018-09-11T14:47:07Z</time>
      </trkpt>
      <trkpt lat="46.559184" lon="11.954244">
        <ele>1621.484</ele>
        <time>2018-09-11T14:47:08Z</time>
      </trkpt>
      <trkpt lat="46.559189" lon="11.954173">
        <ele>1621.427</ele>
        <time>2018-09-11T14:47:09Z</time>
      </trkpt>
      <trkpt lat="46.559199" lon="11.954103">
        <ele>1620.990</ele>
        <time>2018-09-11T14:47:10Z</time>
      </trkpt>
      <trkpt lat="46.559213" lon="11.954033">
        <ele>1620.483</ele>
        <time>2018-09-11T14:47:11Z</time>
      </trkpt>
      <trkpt lat="46.559231" lon="11.953962">
        <ele>1620.425</ele>
        <time>2018-09-11T14:47:12Z</time>
      </trkpt>
      <trkpt lat="46.559252" lon="11.953892">
        <ele>1620.417</ele>
        <time>2018-09-11T14:47:13Z</time>
      </trkpt>
      <trkpt lat="46.559506" lon="11.953235">
        <ele>1618.508</ele>
        <time>2018-09-11T14:47:24Z</time>
      </trkpt>
      <trkpt lat="46.559667" lon="11.952831">
        <ele>1617.592</ele>
        <time>2018-09-11T14:47:30Z</time>
      </trkpt>
      <trkpt lat="46.559709" lon="11.952781">
        <ele>1617.554</ele>
        <time>2018-09-11T14:47:31Z</time>
      </trkpt>
      <trkpt lat="46.559755" lon="11.952742">
        <ele>1617.533</ele>
        <time>2018-09-11T14:47:32Z</time>
      </trkpt>
      <trkpt lat="46.560300" lon="11.952338">
        <ele>1618.012</ele>
        <time>2018-09-11T14:47:44Z</time>
      </trkpt>
      <trkpt lat="46.560345" lon="11.952316">
        <ele>1618.078</ele>
        <time>2018-09-11T14:47:45Z</time>
      </trkpt>
      <trkpt lat="46.560433" lon="11.952274">
        <ele>1618.064</ele>
        <time>2018-09-11T14:47:47Z</time>
      </trkpt>
      <trkpt lat="46.560563" lon="11.952203">
        <ele>1617.597</ele>
        <time>2018-09-11T14:47:50Z</time>
      </trkpt>
      <trkpt lat="46.561262" lon="11.951761">
        <ele>1615.120</ele>
        <time>2018-09-11T14:48:07Z</time>
      </trkpt>
      <trkpt lat="46.561304" lon="11.951727">
        <ele>1615.629</ele>
        <time>2018-09-11T14:48:08Z</time>
      </trkpt>
      <trkpt lat="46.561428" lon="11.951611">
        <ele>1615.100</ele>
        <time>2018-09-11T14:48:11Z</time>
      </trkpt>
      <trkpt lat="46.561642" lon="11.951388">
        <ele>1614.120</ele>
        <time>2018-09-11T14:48:16Z</time>
      </trkpt>
      <trkpt lat="46.561680" lon="11.951334">
        <ele>1613.708</ele>
        <time>2018-09-11T14:48:17Z</time>
      </trkpt>
      <trkpt lat="46.561717" lon="11.951275">
        <ele>1613.756</ele>
        <time>2018-09-11T14:48:18Z</time>
      </trkpt>
      <trkpt lat="46.561866" lon="11.951025">
        <ele>1612.788</ele>
        <time>2018-09-11T14:48:22Z</time>
      </trkpt>
      <trkpt lat="46.561914" lon="11.950981">
        <ele>1612.227</ele>
        <time>2018-09-11T14:48:23Z</time>
      </trkpt>
      <trkpt lat="46.561966" lon="11.950958">
        <ele>1612.266</ele>
        <time>2018-09-11T14:48:24Z</time>
      </trkpt>
      <trkpt lat="46.562018" lon="11.950955">
        <ele>1612.752</ele>
        <time>2018-09-11T14:48:25Z</time>
      </trkpt>
      <trkpt lat="46.562060" lon="11.950971">
        <ele>1612.728</ele>
        <time>2018-09-11T14:48:26Z</time>
      </trkpt>
      <trkpt lat="46.562087" lon="11.950995">
        <ele>1613.211</ele>
        <time>2018-09-11T14:48:27Z</time>
      </trkpt>
      <trkpt lat="46.562100" lon="11.951013">
        <ele>1613.274</ele>
        <time>2018-09-11T14:48:28Z</time>
      </trkpt>
      <trkpt lat="46.562109" lon="11.951030">
        <ele>1613.714</ele>
        <time>2018-09-11T14:48:29Z</time>
      </trkpt>
      <trkpt lat="46.562113" lon="11.951047">
        <ele>1613.754</ele>
        <time>2018-09-11T14:48:30Z</time>
      </trkpt>
      <trkpt lat="46.562113" lon="11.951036">
        <ele>1615.109</ele>
        <time>2018-09-11T14:48:39Z</time>
      </trkpt>
      <trkpt lat="46.562127" lon="11.951191">
        <ele>1618.508</ele>
        <time>2018-09-11T14:48:57Z</time>
      </trkpt>
      <trkpt lat="46.562176" lon="11.951391">
        <ele>1618.055</ele>
        <time>2018-09-11T14:49:13Z</time>
      </trkpt>
      <trkpt lat="46.562255" lon="11.951506">
        <ele>1621.437</ele>
        <time>2018-09-11T14:49:32Z</time>
      </trkpt>
      <trkpt lat="46.562286" lon="11.951434">
        <ele>1619.986</ele>
        <time>2018-09-11T14:49:45Z</time>
      </trkpt>
      <trkpt lat="46.562291" lon="11.951414">
        <ele>1619.955</ele>
        <time>2018-09-11T14:49:46Z</time>
      </trkpt>
      <trkpt lat="46.562296" lon="11.951403">
        <ele>1619.991</ele>
        <time>2018-09-11T14:49:47Z</time>
      </trkpt>
      <trkpt lat="46.562304" lon="11.951384">
        <ele>1620.467</ele>
        <time>2018-09-11T14:49:48Z</time>
      </trkpt>
      <trkpt lat="46.562309" lon="11.951360">
        <ele>1620.420</ele>
        <time>2018-09-11T14:49:49Z</time>
      </trkpt>
      <trkpt lat="46.562315" lon="11.951332">
        <ele>1620.453</ele>
        <time>2018-09-11T14:49:50Z</time>
      </trkpt>
      <trkpt lat="46.562426" lon="11.950879">
        <ele>1620.459</ele>
        <time>2018-09-11T14:50:04Z</time>
      </trkpt>
      <trkpt lat="46.562617" lon="11.950268">
        <ele>1619.903</ele>
        <time>2018-09-11T14:50:20Z</time>
      </trkpt>
      <trkpt lat="46.562895" lon="11.949756">
        <ele>1622.323</ele>
        <time>2018-09-11T14:50:36Z</time>
      </trkpt>
      <trkpt lat="46.563137" lon="11.949204">
        <ele>1624.708</ele>
        <time>2018-09-11T14:50:53Z</time>
      </trkpt>
      <trkpt lat="46.563339" lon="11.948723">
        <ele>1626.279</ele>
        <time>2018-09-11T14:51:12Z</time>
      </trkpt>
      <trkpt lat="46.563549" lon="11.948145">
        <ele>1624.791</ele>
        <time>2018-09-11T14:51:30Z</time>
      </trkpt>
      <trkpt lat="46.563809" lon="11.947668">
        <ele>1625.260</ele>
        <time>2018-09-11T14:51:44Z</time>
      </trkpt>
      <trkpt lat="46.563848" lon="11.947377">
        <ele>1624.249</ele>
        <time>2018-09-11T14:51:56Z</time>
      </trkpt>
      <trkpt lat="46.563870" lon="11.947225">
        <ele>1622.335</ele>
        <time>2018-09-11T14:51:58Z</time>
      </trkpt>
      <trkpt lat="46.563914" lon="11.946193">
        <ele>1611.791</ele>
        <time>2018-09-11T14:52:09Z</time>
      </trkpt>
      <trkpt lat="46.563980" lon="11.945485">
        <ele>1605.074</ele>
        <time>2018-09-11T14:52:16Z</time>
      </trkpt>
      <trkpt lat="46.564007" lon="11.945381">
        <ele>1604.127</ele>
        <time>2018-09-11T14:52:17Z</time>
      </trkpt>
      <trkpt lat="46.564041" lon="11.945280">
        <ele>1603.667</ele>
        <time>2018-09-11T14:52:18Z</time>
      </trkpt>
      <trkpt lat="46.564080" lon="11.945187">
        <ele>1603.681</ele>
        <time>2018-09-11T14:52:19Z</time>
      </trkpt>
      <trkpt lat="46.564120" lon="11.945105">
        <ele>1603.619</ele>
        <time>2018-09-11T14:52:20Z</time>
      </trkpt>
      <trkpt lat="46.564164" lon="11.945025">
        <ele>1603.108</ele>
        <time>2018-09-11T14:52:21Z</time>
      </trkpt>
      <trkpt lat="46.564210" lon="11.944952">
        <ele>1603.120</ele>
        <time>2018-09-11T14:52:22Z</time>
      </trkpt>
      <trkpt lat="46.564251" lon="11.944891">
        <ele>1602.672</ele>
        <time>2018-09-11T14:52:23Z</time>
      </trkpt>
      <trkpt lat="46.564535" lon="11.944434">
        <ele>1599.211</ele>
        <time>2018-09-11T14:52:32Z</time>
      </trkpt>
      <trkpt lat="46.564575" lon="11.944405">
        <ele>1598.840</ele>
        <time>2018-09-11T14:52:33Z</time>
      </trkpt>
      <trkpt lat="46.564616" lon="11.944399">
        <ele>1598.836</ele>
        <time>2018-09-11T14:52:34Z</time>
      </trkpt>
      <trkpt lat="46.564657" lon="11.944411">
        <ele>1598.382</ele>
        <time>2018-09-11T14:52:35Z</time>
      </trkpt>
      <trkpt lat="46.564694" lon="11.944442">
        <ele>1597.815</ele>
        <time>2018-09-11T14:52:36Z</time>
      </trkpt>
      <trkpt lat="46.564725" lon="11.944478">
        <ele>1597.368</ele>
        <time>2018-09-11T14:52:37Z</time>
      </trkpt>
      <trkpt lat="46.564753" lon="11.944518">
        <ele>1596.488</ele>
        <time>2018-09-11T14:52:38Z</time>
      </trkpt>
      <trkpt lat="46.564785" lon="11.944551">
        <ele>1596.424</ele>
        <time>2018-09-11T14:52:39Z</time>
      </trkpt>
      <trkpt lat="46.564818" lon="11.944567">
        <ele>1595.926</ele>
        <time>2018-09-11T14:52:40Z</time>
      </trkpt>
      <trkpt lat="46.564848" lon="11.944565">
        <ele>1595.908</ele>
        <time>2018-09-11T14:52:41Z</time>
      </trkpt>
      <trkpt lat="46.564873" lon="11.944553">
        <ele>1595.962</ele>
        <time>2018-09-11T14:52:42Z</time>
      </trkpt>
      <trkpt lat="46.564896" lon="11.944529">
        <ele>1595.484</ele>
        <time>2018-09-11T14:52:43Z</time>
      </trkpt>
      <trkpt lat="46.564913" lon="11.944497">
        <ele>1595.493</ele>
        <time>2018-09-11T14:52:44Z</time>
      </trkpt>
      <trkpt lat="46.564927" lon="11.944461">
        <ele>1595.442</ele>
        <time>2018-09-11T14:52:45Z</time>
      </trkpt>
      <trkpt lat="46.564941" lon="11.944425">
        <ele>1595.488</ele>
        <time>2018-09-11T14:52:46Z</time>
      </trkpt>
      <trkpt lat="46.564954" lon="11.944393">
        <ele>1595.434</ele>
        <time>2018-09-11T14:52:47Z</time>
      </trkpt>
      <trkpt lat="46.564966" lon="11.944364">
        <ele>1595.427</ele>
        <time>2018-09-11T14:52:48Z</time>
      </trkpt>
      <trkpt lat="46.565075" lon="11.944029">
        <ele>1594.030</ele>
        <time>2018-09-11T14:53:01Z</time>
      </trkpt>
      <trkpt lat="46.565167" lon="11.943493">
        <ele>1587.286</ele>
        <time>2018-09-11T14:53:09Z</time>
      </trkpt>
      <trkpt lat="46.565573" lon="11.942679">
        <ele>1579.160</ele>
        <time>2018-09-11T14:53:22Z</time>
      </trkpt>
      <trkpt lat="46.565992" lon="11.941809">
        <ele>1573.826</ele>
        <time>2018-09-11T14:53:33Z</time>
      </trkpt>
      <trkpt lat="46.566118" lon="11.941493">
        <ele>1572.808</ele>
        <time>2018-09-11T14:53:40Z</time>
      </trkpt>
      <trkpt lat="46.566112" lon="11.941472">
        <ele>1573.342</ele>
        <time>2018-09-11T14:53:54Z</time>
      </trkpt>
      <trkpt lat="46.566119" lon="11.941463">
        <ele>1573.354</ele>
        <time>2018-09-11T14:54:09Z</time>
      </trkpt>
      <trkpt lat="46.566132" lon="11.941490">
        <ele>1573.843</ele>
        <time>2018-09-11T14:54:29Z</time>
      </trkpt>
      <trkpt lat="46.566233" lon="11.941262">
        <ele>1574.312</ele>
        <time>2018-09-11T14:54:41Z</time>
      </trkpt>
      <trkpt lat="46.566394" lon="11.940835">
        <ele>1573.398</ele>
        <time>2018-09-11T14:54:57Z</time>
      </trkpt>
      <trkpt lat="46.566423" lon="11.940791">
        <ele>1572.864</ele>
        <time>2018-09-11T14:54:58Z</time>
      </trkpt>
      <trkpt lat="46.566461" lon="11.940753">
        <ele>1572.817</ele>
        <time>2018-09-11T14:54:59Z</time>
      </trkpt>
      <trkpt lat="46.566549" lon="11.940692">
        <ele>1572.860</ele>
        <time>2018-09-11T14:55:01Z</time>
      </trkpt>
      <trkpt lat="46.566608" lon="11.940663">
        <ele>1572.396</ele>
        <time>2018-09-11T14:55:02Z</time>
      </trkpt>
      <trkpt lat="46.566753" lon="11.940599">
        <ele>1571.831</ele>
        <time>2018-09-11T14:55:05Z</time>
      </trkpt>
      <trkpt lat="46.566805" lon="11.940597">
        <ele>1571.424</ele>
        <time>2018-09-11T14:55:06Z</time>
      </trkpt>
      <trkpt lat="46.566857" lon="11.940607">
        <ele>1571.408</ele>
        <time>2018-09-11T14:55:07Z</time>
      </trkpt>
      <trkpt lat="46.567118" lon="11.940679">
        <ele>1568.573</ele>
        <time>2018-09-11T14:55:12Z</time>
      </trkpt>
      <trkpt lat="46.567174" lon="11.940681">
        <ele>1568.075</ele>
        <time>2018-09-11T14:55:13Z</time>
      </trkpt>
      <trkpt lat="46.567231" lon="11.940674">
        <ele>1567.094</ele>
        <time>2018-09-11T14:55:14Z</time>
      </trkpt>
      <trkpt lat="46.567283" lon="11.940656">
        <ele>1566.693</ele>
        <time>2018-09-11T14:55:15Z</time>
      </trkpt>
      <trkpt lat="46.567332" lon="11.940634">
        <ele>1566.179</ele>
        <time>2018-09-11T14:55:16Z</time>
      </trkpt>
      <trkpt lat="46.567495" lon="11.940523">
        <ele>1564.645</ele>
        <time>2018-09-11T14:55:21Z</time>
      </trkpt>
      <trkpt lat="46.567504" lon="11.940492">
        <ele>1564.698</ele>
        <time>2018-09-11T14:55:22Z</time>
      </trkpt>
      <trkpt lat="46.567508" lon="11.940453">
        <ele>1564.241</ele>
        <time>2018-09-11T14:55:23Z</time>
      </trkpt>
      <trkpt lat="46.567506" lon="11.940404">
        <ele>1563.762</ele>
        <time>2018-09-11T14:55:24Z</time>
      </trkpt>
      <trkpt lat="46.567493" lon="11.940345">
        <ele>1563.283</ele>
        <time>2018-09-11T14:55:25Z</time>
      </trkpt>
      <trkpt lat="46.567477" lon="11.940304">
        <ele>1563.211</ele>
        <time>2018-09-11T14:55:26Z</time>
      </trkpt>
      <trkpt lat="46.567452" lon="11.940246">
        <ele>1562.708</ele>
        <time>2018-09-11T14:55:27Z</time>
      </trkpt>
      <trkpt lat="46.567399" lon="11.940118">
        <ele>1561.890</ele>
        <time>2018-09-11T14:55:29Z</time>
      </trkpt>
      <trkpt lat="46.567379" lon="11.940043">
        <ele>1561.332</ele>
        <time>2018-09-11T14:55:30Z</time>
      </trkpt>
      <trkpt lat="46.567367" lon="11.939961">
        <ele>1560.391</ele>
        <time>2018-09-11T14:55:31Z</time>
      </trkpt>
      <trkpt lat="46.567367" lon="11.939867">
        <ele>1559.480</ele>
        <time>2018-09-11T14:55:32Z</time>
      </trkpt>
      <trkpt lat="46.567388" lon="11.939776">
        <ele>1558.926</ele>
        <time>2018-09-11T14:55:33Z</time>
      </trkpt>
      <trkpt lat="46.567427" lon="11.939683">
        <ele>1557.952</ele>
        <time>2018-09-11T14:55:34Z</time>
      </trkpt>
      <trkpt lat="46.567472" lon="11.939600">
        <ele>1557.425</ele>
        <time>2018-09-11T14:55:35Z</time>
      </trkpt>
      <trkpt lat="46.567525" lon="11.939505">
        <ele>1556.538</ele>
        <time>2018-09-11T14:55:36Z</time>
      </trkpt>
      <trkpt lat="46.567622" lon="11.939357">
        <ele>1555.092</ele>
        <time>2018-09-11T14:55:38Z</time>
      </trkpt>
      <trkpt lat="46.567674" lon="11.939301">
        <ele>1554.173</ele>
        <time>2018-09-11T14:55:39Z</time>
      </trkpt>
      <trkpt lat="46.567740" lon="11.939254">
        <ele>1553.620</ele>
        <time>2018-09-11T14:55:40Z</time>
      </trkpt>
      <trkpt lat="46.567802" lon="11.939228">
        <ele>1553.108</ele>
        <time>2018-09-11T14:55:41Z</time>
      </trkpt>
      <trkpt lat="46.567830" lon="11.939223">
        <ele>1553.163</ele>
        <time>2018-09-11T14:55:42Z</time>
      </trkpt>
      <trkpt lat="46.567856" lon="11.939222">
        <ele>1553.175</ele>
        <time>2018-09-11T14:55:43Z</time>
      </trkpt>
      <trkpt lat="46.567863" lon="11.939207">
        <ele>1553.164</ele>
        <time>2018-09-11T14:55:44Z</time>
      </trkpt>
      <trkpt lat="46.567857" lon="11.939194">
        <ele>1553.123</ele>
        <time>2018-09-11T14:55:45Z</time>
      </trkpt>
      <trkpt lat="46.567843" lon="11.939193">
        <ele>1552.669</ele>
        <time>2018-09-11T14:55:46Z</time>
      </trkpt>
      <trkpt lat="46.567827" lon="11.939200">
        <ele>1552.685</ele>
        <time>2018-09-11T14:55:47Z</time>
      </trkpt>
      <trkpt lat="46.567817" lon="11.939206">
        <ele>1552.658</ele>
        <time>2018-09-11T14:55:48Z</time>
      </trkpt>
      <trkpt lat="46.567806" lon="11.939215">
        <ele>1552.681</ele>
        <time>2018-09-11T14:55:49Z</time>
      </trkpt>
      <trkpt lat="46.567792" lon="11.939231">
        <ele>1552.686</ele>
        <time>2018-09-11T14:55:50Z</time>
      </trkpt>
      <trkpt lat="46.567776" lon="11.939233">
        <ele>1552.660</ele>
        <time>2018-09-11T14:55:51Z</time>
      </trkpt>
      <trkpt lat="46.567765" lon="11.939218">
        <ele>1552.626</ele>
        <time>2018-09-11T14:55:52Z</time>
      </trkpt>
      <trkpt lat="46.567769" lon="11.939196">
        <ele>1552.608</ele>
        <time>2018-09-11T14:55:53Z</time>
      </trkpt>
      <trkpt lat="46.567789" lon="11.939169">
        <ele>1552.162</ele>
        <time>2018-09-11T14:55:54Z</time>
      </trkpt>
      <trkpt lat="46.567816" lon="11.939141">
        <ele>1551.714</ele>
        <time>2018-09-11T14:55:55Z</time>
      </trkpt>
      <trkpt lat="46.567853" lon="11.939104">
        <ele>1551.293</ele>
        <time>2018-09-11T14:55:56Z</time>
      </trkpt>
      <trkpt lat="46.567893" lon="11.939061">
        <ele>1550.712</ele>
        <time>2018-09-11T14:55:57Z</time>
      </trkpt>
      <trkpt lat="46.568006" lon="11.938936">
        <ele>1549.348</ele>
        <time>2018-09-11T14:56:00Z</time>
      </trkpt>
      <trkpt lat="46.568035" lon="11.938885">
        <ele>1548.384</ele>
        <time>2018-09-11T14:56:01Z</time>
      </trkpt>
      <trkpt lat="46.568060" lon="11.938827">
        <ele>1547.367</ele>
        <time>2018-09-11T14:56:02Z</time>
      </trkpt>
      <trkpt lat="46.568082" lon="11.938765">
        <ele>1546.430</ele>
        <time>2018-09-11T14:56:03Z</time>
      </trkpt>
      <trkpt lat="46.568105" lon="11.938705">
        <ele>1545.412</ele>
        <time>2018-09-11T14:56:04Z</time>
      </trkpt>
      <trkpt lat="46.568292" lon="11.938065">
        <ele>1537.732</ele>
        <time>2018-09-11T14:56:16Z</time>
      </trkpt>
      <trkpt lat="46.568464" lon="11.937723">
        <ele>1535.305</ele>
        <time>2018-09-11T14:56:27Z</time>
      </trkpt>
      <trkpt lat="46.568591" lon="11.937522">
        <ele>1534.408</ele>
        <time>2018-09-11T14:56:31Z</time>
      </trkpt>
      <trkpt lat="46.568622" lon="11.937483">
        <ele>1533.945</ele>
        <time>2018-09-11T14:56:32Z</time>
      </trkpt>
      <trkpt lat="46.569038" lon="11.937043">
        <ele>1533.477</ele>
        <time>2018-09-11T14:56:45Z</time>
      </trkpt>
      <trkpt lat="46.569116" lon="11.936973">
        <ele>1532.976</ele>
        <time>2018-09-11T14:56:47Z</time>
      </trkpt>
      <trkpt lat="46.569148" lon="11.936923">
        <ele>1532.925</ele>
        <time>2018-09-11T14:56:48Z</time>
      </trkpt>
      <trkpt lat="46.569173" lon="11.936839">
        <ele>1532.411</ele>
        <time>2018-09-11T14:56:49Z</time>
      </trkpt>
      <trkpt lat="46.569182" lon="11.936763">
        <ele>1532.447</ele>
        <time>2018-09-11T14:56:50Z</time>
      </trkpt>
      <trkpt lat="46.569190" lon="11.936690">
        <ele>1532.010</ele>
        <time>2018-09-11T14:56:51Z</time>
      </trkpt>
      <trkpt lat="46.569231" lon="11.936438">
        <ele>1531.073</ele>
        <time>2018-09-11T14:56:54Z</time>
      </trkpt>
      <trkpt lat="46.569429" lon="11.935906">
        <ele>1530.093</ele>
        <time>2018-09-11T14:57:00Z</time>
      </trkpt>
      <trkpt lat="46.569454" lon="11.935818">
        <ele>1530.065</ele>
        <time>2018-09-11T14:57:01Z</time>
      </trkpt>
      <trkpt lat="46.569469" lon="11.935740">
        <ele>1530.021</ele>
        <time>2018-09-11T14:57:02Z</time>
      </trkpt>
      <trkpt lat="46.569501" lon="11.935556">
        <ele>1529.508</ele>
        <time>2018-09-11T14:57:05Z</time>
      </trkpt>
      <trkpt lat="46.569515" lon="11.935495">
        <ele>1529.573</ele>
        <time>2018-09-11T14:57:06Z</time>
      </trkpt>
      <trkpt lat="46.569525" lon="11.935431">
        <ele>1529.185</ele>
        <time>2018-09-11T14:57:07Z</time>
      </trkpt>
      <trkpt lat="46.569526" lon="11.935358">
        <ele>1529.114</ele>
        <time>2018-09-11T14:57:08Z</time>
      </trkpt>
      <trkpt lat="46.569517" lon="11.935277">
        <ele>1529.133</ele>
        <time>2018-09-11T14:57:09Z</time>
      </trkpt>
      <trkpt lat="46.569511" lon="11.935221">
        <ele>1529.179</ele>
        <time>2018-09-11T14:57:10Z</time>
      </trkpt>
      <trkpt lat="46.569509" lon="11.935159">
        <ele>1529.165</ele>
        <time>2018-09-11T14:57:11Z</time>
      </trkpt>
      <trkpt lat="46.569514" lon="11.935092">
        <ele>1529.188</ele>
        <time>2018-09-11T14:57:12Z</time>
      </trkpt>
      <trkpt lat="46.569715" lon="11.934216">
        <ele>1527.141</ele>
        <time>2018-09-11T14:57:27Z</time>
      </trkpt>
      <trkpt lat="46.569812" lon="11.933843">
        <ele>1526.233</ele>
        <time>2018-09-11T14:57:33Z</time>
      </trkpt>
      <trkpt lat="46.569906" lon="11.933345">
        <ele>1525.223</ele>
        <time>2018-09-11T14:57:40Z</time>
      </trkpt>
      <trkpt lat="46.569852" lon="11.932954">
        <ele>1523.815</ele>
        <time>2018-09-11T14:57:48Z</time>
      </trkpt>
      <trkpt lat="46.569826" lon="11.932913">
        <ele>1523.308</ele>
        <time>2018-09-11T14:57:49Z</time>
      </trkpt>
      <trkpt lat="46.569790" lon="11.932888">
        <ele>1523.357</ele>
        <time>2018-09-11T14:57:50Z</time>
      </trkpt>
      <trkpt lat="46.569751" lon="11.932881">
        <ele>1522.819</ele>
        <time>2018-09-11T14:57:51Z</time>
      </trkpt>
      <trkpt lat="46.569718" lon="11.932868">
        <ele>1522.388</ele>
        <time>2018-09-11T14:57:52Z</time>
      </trkpt>
      <trkpt lat="46.569698" lon="11.932827">
        <ele>1521.917</ele>
        <time>2018-09-11T14:57:53Z</time>
      </trkpt>
      <trkpt lat="46.569702" lon="11.932782">
        <ele>1521.973</ele>
        <time>2018-09-11T14:57:54Z</time>
      </trkpt>
      <trkpt lat="46.569711" lon="11.932747">
        <ele>1521.479</ele>
        <time>2018-09-11T14:57:55Z</time>
      </trkpt>
      <trkpt lat="46.569898" lon="11.931944">
        <ele>1522.382</ele>
        <time>2018-09-11T14:58:11Z</time>
      </trkpt>
      <trkpt lat="46.569921" lon="11.931893">
        <ele>1522.315</ele>
        <time>2018-09-11T14:58:12Z</time>
      </trkpt>
      <trkpt lat="46.569942" lon="11.931836">
        <ele>1522.883</ele>
        <time>2018-09-11T14:58:13Z</time>
      </trkpt>
      <trkpt lat="46.570105" lon="11.931335">
        <ele>1521.925</ele>
        <time>2018-09-11T14:58:21Z</time>
      </trkpt>
      <trkpt lat="46.570127" lon="11.931273">
        <ele>1521.917</ele>
        <time>2018-09-11T14:58:22Z</time>
      </trkpt>
      <trkpt lat="46.570280" lon="11.930951">
        <ele>1520.908</ele>
        <time>2018-09-11T14:58:27Z</time>
      </trkpt>
      <trkpt lat="46.570322" lon="11.930888">
        <ele>1520.912</ele>
        <time>2018-09-11T14:58:28Z</time>
      </trkpt>
      <trkpt lat="46.570366" lon="11.930829">
        <ele>1520.474</ele>
        <time>2018-09-11T14:58:29Z</time>
      </trkpt>
      <trkpt lat="46.570458" lon="11.930727">
        <ele>1519.933</ele>
        <time>2018-09-11T14:58:31Z</time>
      </trkpt>
      <trkpt lat="46.570510" lon="11.930687">
        <ele>1519.922</ele>
        <time>2018-09-11T14:58:32Z</time>
      </trkpt>
      <trkpt lat="46.570725" lon="11.930559">
        <ele>1519.558</ele>
        <time>2018-09-11T14:58:36Z</time>
      </trkpt>
      <trkpt lat="46.570772" lon="11.930518">
        <ele>1519.044</ele>
        <time>2018-09-11T14:58:37Z</time>
      </trkpt>
      <trkpt lat="46.570954" lon="11.930337">
        <ele>1517.547</ele>
        <time>2018-09-11T14:58:41Z</time>
      </trkpt>
      <trkpt lat="46.571001" lon="11.930316">
        <ele>1517.140</ele>
        <time>2018-09-11T14:58:42Z</time>
      </trkpt>
      <trkpt lat="46.571050" lon="11.930313">
        <ele>1517.112</ele>
        <time>2018-09-11T14:58:43Z</time>
      </trkpt>
      <trkpt lat="46.571208" lon="11.930313">
        <ele>1517.532</ele>
        <time>2018-09-11T14:58:48Z</time>
      </trkpt>
      <trkpt lat="46.571211" lon="11.930298">
        <ele>1518.005</ele>
        <time>2018-09-11T14:58:49Z</time>
      </trkpt>
      <trkpt lat="46.571218" lon="11.930285">
        <ele>1518.008</ele>
        <time>2018-09-11T14:58:50Z</time>
      </trkpt>
      <trkpt lat="46.571227" lon="11.930273">
        <ele>1518.525</ele>
        <time>2018-09-11T14:58:51Z</time>
      </trkpt>
      <trkpt lat="46.571237" lon="11.930258">
        <ele>1518.557</ele>
        <time>2018-09-11T14:58:52Z</time>
      </trkpt>
      <trkpt lat="46.571245" lon="11.930244">
        <ele>1518.586</ele>
        <time>2018-09-11T14:58:53Z</time>
      </trkpt>
      <trkpt lat="46.571252" lon="11.930227">
        <ele>1519.085</ele>
        <time>2018-09-11T14:58:54Z</time>
      </trkpt>
      <trkpt lat="46.571257" lon="11.930210">
        <ele>1519.541</ele>
        <time>2018-09-11T14:58:55Z</time>
      </trkpt>
      <trkpt lat="46.571261" lon="11.930190">
        <ele>1519.577</ele>
        <time>2018-09-11T14:58:56Z</time>
      </trkpt>
      <trkpt lat="46.571274" lon="11.930135">
        <ele>1520.460</ele>
        <time>2018-09-11T14:58:59Z</time>
      </trkpt>
      <trkpt lat="46.571278" lon="11.930119">
        <ele>1520.423</ele>
        <time>2018-09-11T14:59:00Z</time>
      </trkpt>
      <trkpt lat="46.571283" lon="11.930104">
        <ele>1520.919</ele>
        <time>2018-09-11T14:59:01Z</time>
      </trkpt>
      <trkpt lat="46.571372" lon="11.929802">
        <ele>1519.909</ele>
        <time>2018-09-11T14:59:14Z</time>
      </trkpt>
      <trkpt lat="46.571492" lon="11.929297">
        <ele>1515.619</ele>
        <time>2018-09-11T14:59:21Z</time>
      </trkpt>
      <trkpt lat="46.571526" lon="11.929225">
        <ele>1514.608</ele>
        <time>2018-09-11T14:59:22Z</time>
      </trkpt>
      <trkpt lat="46.572106" lon="11.928447">
        <ele>1507.445</ele>
        <time>2018-09-11T14:59:33Z</time>
      </trkpt>
      <trkpt lat="46.572777" lon="11.927562">
        <ele>1501.727</ele>
        <time>2018-09-11T14:59:43Z</time>
      </trkpt>
      <trkpt lat="46.572825" lon="11.927522">
        <ele>1501.226</ele>
        <time>2018-09-11T14:59:44Z</time>
      </trkpt>
      <trkpt lat="46.573018" lon="11.927319">
        <ele>1499.715</ele>
        <time>2018-09-11T14:59:49Z</time>
      </trkpt>
      <trkpt lat="46.573055" lon="11.927261">
        <ele>1499.721</ele>
        <time>2018-09-11T14:59:50Z</time>
      </trkpt>
      <trkpt lat="46.573150" lon="11.927079">
        <ele>1499.727</ele>
        <time>2018-09-11T14:59:53Z</time>
      </trkpt>
      <trkpt lat="46.573190" lon="11.927028">
        <ele>1499.710</ele>
        <time>2018-09-11T14:59:54Z</time>
      </trkpt>
      <trkpt lat="46.573232" lon="11.926988">
        <ele>1499.743</ele>
        <time>2018-09-11T14:59:55Z</time>
      </trkpt>
      <trkpt lat="46.573278" lon="11.926950">
        <ele>1499.734</ele>
        <time>2018-09-11T14:59:56Z</time>
      </trkpt>
      <trkpt lat="46.573326" lon="11.926914">
        <ele>1499.355</ele>
        <time>2018-09-11T14:59:57Z</time>
      </trkpt>
      <trkpt lat="46.573374" lon="11.926874">
        <ele>1498.810</ele>
        <time>2018-09-11T14:59:58Z</time>
      </trkpt>
      <trkpt lat="46.573421" lon="11.926828">
        <ele>1498.308</ele>
        <time>2018-09-11T14:59:59Z</time>
      </trkpt>
      <trkpt lat="46.573563" lon="11.926656">
        <ele>1497.377</ele>
        <time>2018-09-11T15:00:02Z</time>
      </trkpt>
      <trkpt lat="46.573603" lon="11.926583">
        <ele>1496.919</ele>
        <time>2018-09-11T15:00:03Z</time>
      </trkpt>
      <trkpt lat="46.573712" lon="11.926376">
        <ele>1495.978</ele>
        <time>2018-09-11T15:00:06Z</time>
      </trkpt>
      <trkpt lat="46.573748" lon="11.926337">
        <ele>1495.437</ele>
        <time>2018-09-11T15:00:07Z</time>
      </trkpt>
      <trkpt lat="46.573788" lon="11.926317">
        <ele>1494.993</ele>
        <time>2018-09-11T15:00:08Z</time>
      </trkpt>
      <trkpt lat="46.573830" lon="11.926311">
        <ele>1494.079</ele>
        <time>2018-09-11T15:00:09Z</time>
      </trkpt>
      <trkpt lat="46.573870" lon="11.926311">
        <ele>1493.572</ele>
        <time>2018-09-11T15:00:10Z</time>
      </trkpt>
      <trkpt lat="46.573910" lon="11.926310">
        <ele>1492.515</ele>
        <time>2018-09-11T15:00:11Z</time>
      </trkpt>
      <trkpt lat="46.573949" lon="11.926302">
        <ele>1491.173</ele>
        <time>2018-09-11T15:00:12Z</time>
      </trkpt>
      <trkpt lat="46.573985" lon="11.926287">
        <ele>1490.185</ele>
        <time>2018-09-11T15:00:13Z</time>
      </trkpt>
      <trkpt lat="46.574017" lon="11.926264">
        <ele>1489.213</ele>
        <time>2018-09-11T15:00:14Z</time>
      </trkpt>
      <trkpt lat="46.574045" lon="11.926236">
        <ele>1488.208</ele>
        <time>2018-09-11T15:00:15Z</time>
      </trkpt>
      <trkpt lat="46.574070" lon="11.926210">
        <ele>1487.761</ele>
        <time>2018-09-11T15:00:16Z</time>
      </trkpt>
      <trkpt lat="46.574192" lon="11.926101">
        <ele>1485.333</ele>
        <time>2018-09-11T15:00:20Z</time>
      </trkpt>
      <trkpt lat="46.574364" lon="11.926012">
        <ele>1487.752</ele>
        <time>2018-09-11T15:00:29Z</time>
      </trkpt>
      <trkpt lat="46.574523" lon="11.925900">
        <ele>1491.121</ele>
        <time>2018-09-11T15:00:45Z</time>
      </trkpt>
      <trkpt lat="46.574571" lon="11.925886">
        <ele>1490.637</ele>
        <time>2018-09-11T15:00:58Z</time>
      </trkpt>
      <trkpt lat="46.574583" lon="11.925850">
        <ele>1489.763</ele>
        <time>2018-09-11T15:01:08Z</time>
      </trkpt>
      <trkpt lat="46.574588" lon="11.925821">
        <ele>1489.756</ele>
        <time>2018-09-11T15:01:09Z</time>
      </trkpt>
      <trkpt lat="46.574595" lon="11.925788">
        <ele>1489.279</ele>
        <time>2018-09-11T15:01:10Z</time>
      </trkpt>
      <trkpt lat="46.574608" lon="11.925745">
        <ele>1488.221</ele>
        <time>2018-09-11T15:01:11Z</time>
      </trkpt>
      <trkpt lat="46.574626" lon="11.925704">
        <ele>1487.741</ele>
        <time>2018-09-11T15:01:12Z</time>
      </trkpt>
      <trkpt lat="46.574646" lon="11.925660">
        <ele>1486.805</ele>
        <time>2018-09-11T15:01:13Z</time>
      </trkpt>
      <trkpt lat="46.574909" lon="11.925346">
        <ele>1479.608</ele>
        <time>2018-09-11T15:01:22Z</time>
      </trkpt>
      <trkpt lat="46.574939" lon="11.925298">
        <ele>1478.696</ele>
        <time>2018-09-11T15:01:23Z</time>
      </trkpt>
      <trkpt lat="46.574963" lon="11.925241">
        <ele>1478.168</ele>
        <time>2018-09-11T15:01:24Z</time>
      </trkpt>
      <trkpt lat="46.574979" lon="11.925177">
        <ele>1477.667</ele>
        <time>2018-09-11T15:01:25Z</time>
      </trkpt>
      <trkpt lat="46.574990" lon="11.925112">
        <ele>1476.766</ele>
        <time>2018-09-11T15:01:26Z</time>
      </trkpt>
      <trkpt lat="46.575066" lon="11.924842">
        <ele>1473.362</ele>
        <time>2018-09-11T15:01:30Z</time>
      </trkpt>
      <trkpt lat="46.575103" lon="11.924766">
        <ele>1472.448</ele>
        <time>2018-09-11T15:01:31Z</time>
      </trkpt>
      <trkpt lat="46.575150" lon="11.924693">
        <ele>1471.481</ele>
        <time>2018-09-11T15:01:32Z</time>
      </trkpt>
      <trkpt lat="46.575203" lon="11.924625">
        <ele>1470.424</ele>
        <time>2018-09-11T15:01:33Z</time>
      </trkpt>
      <trkpt lat="46.575257" lon="11.924556">
        <ele>1469.968</ele>
        <time>2018-09-11T15:01:34Z</time>
      </trkpt>
      <trkpt lat="46.575306" lon="11.924484">
        <ele>1469.042</ele>
        <time>2018-09-11T15:01:35Z</time>
      </trkpt>
      <trkpt lat="46.575348" lon="11.924403">
        <ele>1468.526</ele>
        <time>2018-09-11T15:01:36Z</time>
      </trkpt>
      <trkpt lat="46.575387" lon="11.924314">
        <ele>1468.008</ele>
        <time>2018-09-11T15:01:37Z</time>
      </trkpt>
      <trkpt lat="46.575515" lon="11.923936">
        <ele>1467.170</ele>
        <time>2018-09-11T15:01:41Z</time>
      </trkpt>
      <trkpt lat="46.575553" lon="11.923850">
        <ele>1466.692</ele>
        <time>2018-09-11T15:01:42Z</time>
      </trkpt>
      <trkpt lat="46.575598" lon="11.923768">
        <ele>1466.171</ele>
        <time>2018-09-11T15:01:43Z</time>
      </trkpt>
      <trkpt lat="46.575650" lon="11.923692">
        <ele>1465.620</ele>
        <time>2018-09-11T15:01:44Z</time>
      </trkpt>
      <trkpt lat="46.575710" lon="11.923627">
        <ele>1465.136</ele>
        <time>2018-09-11T15:01:45Z</time>
      </trkpt>
      <trkpt lat="46.575773" lon="11.923566">
        <ele>1465.112</ele>
        <time>2018-09-11T15:01:46Z</time>
      </trkpt>
      <trkpt lat="46.576408" lon="11.922923">
        <ele>1461.315</ele>
        <time>2018-09-11T15:01:57Z</time>
      </trkpt>
      <trkpt lat="46.576421" lon="11.922851">
        <ele>1461.328</ele>
        <time>2018-09-11T15:01:58Z</time>
      </trkpt>
      <trkpt lat="46.576408" lon="11.922776">
        <ele>1461.314</ele>
        <time>2018-09-11T15:01:59Z</time>
      </trkpt>
      <trkpt lat="46.576384" lon="11.922713">
        <ele>1461.354</ele>
        <time>2018-09-11T15:02:00Z</time>
      </trkpt>
      <trkpt lat="46.576364" lon="11.922648">
        <ele>1461.309</ele>
        <time>2018-09-11T15:02:01Z</time>
      </trkpt>
      <trkpt lat="46.576363" lon="11.922583">
        <ele>1461.808</ele>
        <time>2018-09-11T15:02:02Z</time>
      </trkpt>
      <trkpt lat="46.576377" lon="11.922527">
        <ele>1461.855</ele>
        <time>2018-09-11T15:02:03Z</time>
      </trkpt>
      <trkpt lat="46.576394" lon="11.922478">
        <ele>1461.877</ele>
        <time>2018-09-11T15:02:04Z</time>
      </trkpt>
      <trkpt lat="46.576412" lon="11.922431">
        <ele>1461.816</ele>
        <time>2018-09-11T15:02:05Z</time>
      </trkpt>
      <trkpt lat="46.576433" lon="11.922166">
        <ele>1460.845</ele>
        <time>2018-09-11T15:02:10Z</time>
      </trkpt>
      <trkpt lat="46.576407" lon="11.922045">
        <ele>1460.381</ele>
        <time>2018-09-11T15:02:12Z</time>
      </trkpt>
      <trkpt lat="46.576393" lon="11.921986">
        <ele>1459.967</ele>
        <time>2018-09-11T15:02:13Z</time>
      </trkpt>
      <trkpt lat="46.576366" lon="11.921740">
        <ele>1459.460</ele>
        <time>2018-09-11T15:02:17Z</time>
      </trkpt>
      <trkpt lat="46.576369" lon="11.921679">
        <ele>1459.463</ele>
        <time>2018-09-11T15:02:18Z</time>
      </trkpt>
      <trkpt lat="46.576376" lon="11.921617">
        <ele>1459.492</ele>
        <time>2018-09-11T15:02:19Z</time>
      </trkpt>
      <trkpt lat="46.576387" lon="11.921558">
        <ele>1459.473</ele>
        <time>2018-09-11T15:02:20Z</time>
      </trkpt>
      <trkpt lat="46.576402" lon="11.921501">
        <ele>1458.920</ele>
        <time>2018-09-11T15:02:21Z</time>
      </trkpt>
      <trkpt lat="46.576422" lon="11.921444">
        <ele>1458.908</ele>
        <time>2018-09-11T15:02:22Z</time>
      </trkpt>
      <trkpt lat="46.576488" lon="11.921207">
        <ele>1458.953</ele>
        <time>2018-09-11T15:02:26Z</time>
      </trkpt>
      <trkpt lat="46.576502" lon="11.921141">
        <ele>1458.425</ele>
        <time>2018-09-11T15:02:27Z</time>
      </trkpt>
      <trkpt lat="46.576536" lon="11.921017">
        <ele>1458.464</ele>
        <time>2018-09-11T15:02:29Z</time>
      </trkpt>
      <trkpt lat="46.576560" lon="11.920955">
        <ele>1458.453</ele>
        <time>2018-09-11T15:02:30Z</time>
      </trkpt>
      <trkpt lat="46.576616" lon="11.920829">
        <ele>1457.919</ele>
        <time>2018-09-11T15:02:32Z</time>
      </trkpt>
      <trkpt lat="46.576652" lon="11.920766">
        <ele>1457.995</ele>
        <time>2018-09-11T15:02:33Z</time>
      </trkpt>
      <trkpt lat="46.576693" lon="11.920701">
        <ele>1457.578</ele>
        <time>2018-09-11T15:02:34Z</time>
      </trkpt>
      <trkpt lat="46.576737" lon="11.920635">
        <ele>1457.511</ele>
        <time>2018-09-11T15:02:35Z</time>
      </trkpt>
      <trkpt lat="46.576782" lon="11.920563">
        <ele>1456.577</ele>
        <time>2018-09-11T15:02:36Z</time>
      </trkpt>
      <trkpt lat="46.576831" lon="11.920488">
        <ele>1456.061</ele>
        <time>2018-09-11T15:02:37Z</time>
      </trkpt>
      <trkpt lat="46.576939" lon="11.920332">
        <ele>1454.627</ele>
        <time>2018-09-11T15:02:39Z</time>
      </trkpt>
      <trkpt lat="46.577606" lon="11.919144">
        <ele>1447.408</ele>
        <time>2018-09-11T15:02:52Z</time>
      </trkpt>
      <trkpt lat="46.578345" lon="11.918238">
        <ele>1441.691</ele>
        <time>2018-09-11T15:03:04Z</time>
      </trkpt>
      <trkpt lat="46.578736" lon="11.917831">
        <ele>1440.153</ele>
        <time>2018-09-11T15:03:10Z</time>
      </trkpt>
      <trkpt lat="46.578784" lon="11.917749">
        <ele>1440.152</ele>
        <time>2018-09-11T15:03:11Z</time>
      </trkpt>
      <trkpt lat="46.578820" lon="11.917667">
        <ele>1439.731</ele>
        <time>2018-09-11T15:03:12Z</time>
      </trkpt>
      <trkpt lat="46.578855" lon="11.917585">
        <ele>1439.277</ele>
        <time>2018-09-11T15:03:13Z</time>
      </trkpt>
      <trkpt lat="46.578895" lon="11.917510">
        <ele>1439.293</ele>
        <time>2018-09-11T15:03:14Z</time>
      </trkpt>
      <trkpt lat="46.578944" lon="11.917441">
        <ele>1438.756</ele>
        <time>2018-09-11T15:03:15Z</time>
      </trkpt>
      <trkpt lat="46.579001" lon="11.917386">
        <ele>1438.259</ele>
        <time>2018-09-11T15:03:16Z</time>
      </trkpt>
      <trkpt lat="46.579064" lon="11.917349">
        <ele>1437.757</ele>
        <time>2018-09-11T15:03:17Z</time>
      </trkpt>
      <trkpt lat="46.579132" lon="11.917329">
        <ele>1437.300</ele>
        <time>2018-09-11T15:03:18Z</time>
      </trkpt>
      <trkpt lat="46.579202" lon="11.917318">
        <ele>1436.820</ele>
        <time>2018-09-11T15:03:19Z</time>
      </trkpt>
      <trkpt lat="46.579274" lon="11.917311">
        <ele>1436.308</ele>
        <time>2018-09-11T15:03:20Z</time>
      </trkpt>
      <trkpt lat="46.579345" lon="11.917300">
        <ele>1435.829</ele>
        <time>2018-09-11T15:03:21Z</time>
      </trkpt>
      <trkpt lat="46.579409" lon="11.917267">
        <ele>1435.391</ele>
        <time>2018-09-11T15:03:22Z</time>
      </trkpt>
      <trkpt lat="46.579465" lon="11.917211">
        <ele>1434.980</ele>
        <time>2018-09-11T15:03:23Z</time>
      </trkpt>
      <trkpt lat="46.579513" lon="11.917140">
        <ele>1434.459</ele>
        <time>2018-09-11T15:03:24Z</time>
      </trkpt>
      <trkpt lat="46.579555" lon="11.917066">
        <ele>1433.965</ele>
        <time>2018-09-11T15:03:25Z</time>
      </trkpt>
      <trkpt lat="46.579672" lon="11.916852">
        <ele>1432.931</ele>
        <time>2018-09-11T15:03:28Z</time>
      </trkpt>
      <trkpt lat="46.579767" lon="11.916618">
        <ele>1432.594</ele>
        <time>2018-09-11T15:03:31Z</time>
      </trkpt>
      <trkpt lat="46.579791" lon="11.916538">
        <ele>1432.577</ele>
        <time>2018-09-11T15:03:32Z</time>
      </trkpt>
      <trkpt lat="46.579816" lon="11.916458">
        <ele>1432.569</ele>
        <time>2018-09-11T15:03:33Z</time>
      </trkpt>
      <trkpt lat="46.579840" lon="11.916381">
        <ele>1432.004</ele>
        <time>2018-09-11T15:03:34Z</time>
      </trkpt>
      <trkpt lat="46.579862" lon="11.916307">
        <ele>1432.024</ele>
        <time>2018-09-11T15:03:35Z</time>
      </trkpt>
      <trkpt lat="46.579989" lon="11.915842">
        <ele>1433.908</ele>
        <time>2018-09-11T15:03:45Z</time>
      </trkpt>
      <trkpt lat="46.580170" lon="11.915351">
        <ele>1438.280</ele>
        <time>2018-09-11T15:03:59Z</time>
      </trkpt>
      <trkpt lat="46.580266" lon="11.914942">
        <ele>1440.642</ele>
        <time>2018-09-11T15:04:12Z</time>
      </trkpt>
      <trkpt lat="46.580558" lon="11.914538">
        <ele>1439.221</ele>
        <time>2018-09-11T15:04:26Z</time>
      </trkpt>
      <trkpt lat="46.580630" lon="11.914437">
        <ele>1437.720</ele>
        <time>2018-09-11T15:04:28Z</time>
      </trkpt>
      <trkpt lat="46.580661" lon="11.914373">
        <ele>1437.346</ele>
        <time>2018-09-11T15:04:29Z</time>
      </trkpt>
      <trkpt lat="46.580749" lon="11.914156">
        <ele>1435.332</ele>
        <time>2018-09-11T15:04:32Z</time>
      </trkpt>
      <trkpt lat="46.580781" lon="11.914090">
        <ele>1434.415</ele>
        <time>2018-09-11T15:04:33Z</time>
      </trkpt>
      <trkpt lat="46.580816" lon="11.914032">
        <ele>1433.498</ele>
        <time>2018-09-11T15:04:34Z</time>
      </trkpt>
      <trkpt lat="46.580858" lon="11.913977">
        <ele>1432.556</ele>
        <time>2018-09-11T15:04:35Z</time>
      </trkpt>
      <trkpt lat="46.580902" lon="11.913917">
        <ele>1431.559</ele>
        <time>2018-09-11T15:04:36Z</time>
      </trkpt>
      <trkpt lat="46.580945" lon="11.913849">
        <ele>1430.514</ele>
        <time>2018-09-11T15:04:37Z</time>
      </trkpt>
      <trkpt lat="46.581031" lon="11.913716">
        <ele>1429.108</ele>
        <time>2018-09-11T15:04:39Z</time>
      </trkpt>
      <trkpt lat="46.581288" lon="11.913419">
        <ele>1426.729</ele>
        <time>2018-09-11T15:04:44Z</time>
      </trkpt>
      <trkpt lat="46.581481" lon="11.913241">
        <ele>1426.211</ele>
        <time>2018-09-11T15:04:48Z</time>
      </trkpt>
      <trkpt lat="46.581512" lon="11.913183">
        <ele>1426.210</ele>
        <time>2018-09-11T15:04:49Z</time>
      </trkpt>
      <trkpt lat="46.581527" lon="11.913118">
        <ele>1425.739</ele>
        <time>2018-09-11T15:04:50Z</time>
      </trkpt>
      <trkpt lat="46.581530" lon="11.913045">
        <ele>1424.865</ele>
        <time>2018-09-11T15:04:51Z</time>
      </trkpt>
      <trkpt lat="46.581529" lon="11.912968">
        <ele>1423.811</ele>
        <time>2018-09-11T15:04:52Z</time>
      </trkpt>
      <trkpt lat="46.581538" lon="11.912625">
        <ele>1420.044</ele>
        <time>2018-09-11T15:04:56Z</time>
      </trkpt>
      <trkpt lat="46.581605" lon="11.912133">
        <ele>1414.737</ele>
        <time>2018-09-11T15:05:02Z</time>
      </trkpt>
      <trkpt lat="46.581619" lon="11.912074">
        <ele>1414.275</ele>
        <time>2018-09-11T15:05:03Z</time>
      </trkpt>
      <trkpt lat="46.581634" lon="11.912019">
        <ele>1413.228</ele>
        <time>2018-09-11T15:05:04Z</time>
      </trkpt>
      <trkpt lat="46.581650" lon="11.911961">
        <ele>1412.720</ele>
        <time>2018-09-11T15:05:05Z</time>
      </trkpt>
      <trkpt lat="46.581668" lon="11.911900">
        <ele>1412.308</ele>
        <time>2018-09-11T15:05:06Z</time>
      </trkpt>
      <trkpt lat="46.581694" lon="11.911835">
        <ele>1411.831</ele>
        <time>2018-09-11T15:05:07Z</time>
      </trkpt>
      <trkpt lat="46.581724" lon="11.911768">
        <ele>1411.313</ele>
        <time>2018-09-11T15:05:08Z</time>
      </trkpt>
      <trkpt lat="46.581786" lon="11.911619">
        <ele>1410.352</ele>
        <time>2018-09-11T15:05:10Z</time>
      </trkpt>
      <trkpt lat="46.581810" lon="11.911535">
        <ele>1409.961</ele>
        <time>2018-09-11T15:05:11Z</time>
      </trkpt>
      <trkpt lat="46.581824" lon="11.911452">
        <ele>1409.427</ele>
        <time>2018-09-11T15:05:12Z</time>
      </trkpt>
      <trkpt lat="46.581832" lon="11.911370">
        <ele>1408.423</ele>
        <time>2018-09-11T15:05:13Z</time>
      </trkpt>
      <trkpt lat="46.581837" lon="11.911293">
        <ele>1407.946</ele>
        <time>2018-09-11T15:05:14Z</time>
      </trkpt>
      <trkpt lat="46.581839" lon="11.911222">
        <ele>1407.049</ele>
        <time>2018-09-11T15:05:15Z</time>
      </trkpt>
      <trkpt lat="46.581881" lon="11.910773">
        <ele>1405.187</ele>
        <time>2018-09-11T15:05:25Z</time>
      </trkpt>
      <trkpt lat="46.581981" lon="11.910383">
        <ele>1402.242</ele>
        <time>2018-09-11T15:05:38Z</time>
      </trkpt>
      <trkpt lat="46.582064" lon="11.909871">
        <ele>1398.826</ele>
        <time>2018-09-11T15:05:50Z</time>
      </trkpt>
      <trkpt lat="46.582085" lon="11.909813">
        <ele>1398.308</ele>
        <time>2018-09-11T15:05:51Z</time>
      </trkpt>
      <trkpt lat="46.582117" lon="11.909756">
        <ele>1397.862</ele>
        <time>2018-09-11T15:05:52Z</time>
      </trkpt>
      <trkpt lat="46.582158" lon="11.909696">
        <ele>1397.454</ele>
        <time>2018-09-11T15:05:53Z</time>
      </trkpt>
      <trkpt lat="46.582310" lon="11.909504">
        <ele>1395.973</ele>
        <time>2018-09-11T15:05:56Z</time>
      </trkpt>
      <trkpt lat="46.582366" lon="11.909449">
        <ele>1395.942</ele>
        <time>2018-09-11T15:05:57Z</time>
      </trkpt>
      <trkpt lat="46.582611" lon="11.909222">
        <ele>1395.028</ele>
        <time>2018-09-11T15:06:01Z</time>
      </trkpt>
      <trkpt lat="46.582718" lon="11.909093">
        <ele>1395.074</ele>
        <time>2018-09-11T15:06:03Z</time>
      </trkpt>
      <trkpt lat="46.582767" lon="11.909021">
        <ele>1394.557</ele>
        <time>2018-09-11T15:06:04Z</time>
      </trkpt>
      <trkpt lat="46.582895" lon="11.908781">
        <ele>1394.080</ele>
        <time>2018-09-11T15:06:07Z</time>
      </trkpt>
      <trkpt lat="46.582925" lon="11.908709">
        <ele>1394.076</ele>
        <time>2018-09-11T15:06:08Z</time>
      </trkpt>
      <trkpt lat="46.582946" lon="11.908645">
        <ele>1394.090</ele>
        <time>2018-09-11T15:06:09Z</time>
      </trkpt>
      <trkpt lat="46.582986" lon="11.908482">
        <ele>1393.019</ele>
        <time>2018-09-11T15:06:13Z</time>
      </trkpt>
      <trkpt lat="46.583006" lon="11.908443">
        <ele>1393.008</ele>
        <time>2018-09-11T15:06:16Z</time>
      </trkpt>
      <trkpt lat="46.583020" lon="11.908418">
        <ele>1393.011</ele>
        <time>2018-09-11T15:06:17Z</time>
      </trkpt>
      <trkpt lat="46.583031" lon="11.908386">
        <ele>1393.073</ele>
        <time>2018-09-11T15:06:18Z</time>
      </trkpt>
      <trkpt lat="46.583049" lon="11.908355">
        <ele>1393.072</ele>
        <time>2018-09-11T15:06:19Z</time>
      </trkpt>
      <trkpt lat="46.583071" lon="11.908327">
        <ele>1393.511</ele>
        <time>2018-09-11T15:06:20Z</time>
      </trkpt>
      <trkpt lat="46.583094" lon="11.908299">
        <ele>1393.587</ele>
        <time>2018-09-11T15:06:21Z</time>
      </trkpt>
      <trkpt lat="46.583119" lon="11.908262">
        <ele>1394.063</ele>
        <time>2018-09-11T15:06:22Z</time>
      </trkpt>
      <trkpt lat="46.583142" lon="11.908219">
        <ele>1394.016</ele>
        <time>2018-09-11T15:06:23Z</time>
      </trkpt>
      <trkpt lat="46.583491" lon="11.907659">
        <ele>1393.039</ele>
        <time>2018-09-11T15:06:35Z</time>
      </trkpt>
      <trkpt lat="46.583568" lon="11.907492">
        <ele>1393.081</ele>
        <time>2018-09-11T15:06:39Z</time>
      </trkpt>
      <trkpt lat="46.583562" lon="11.907468">
        <ele>1393.061</ele>
        <time>2018-09-11T15:06:40Z</time>
      </trkpt>
      <trkpt lat="46.583521" lon="11.907442">
        <ele>1392.617</ele>
        <time>2018-09-11T15:06:50Z</time>
      </trkpt>
      <trkpt lat="46.583508" lon="11.907440">
        <ele>1392.608</ele>
        <time>2018-09-11T15:06:51Z</time>
      </trkpt>
      <trkpt lat="46.583495" lon="11.907445">
        <ele>1392.692</ele>
        <time>2018-09-11T15:06:52Z</time>
      </trkpt>
      <trkpt lat="46.583481" lon="11.907447">
        <ele>1393.044</ele>
        <time>2018-09-11T15:06:53Z</time>
      </trkpt>
      <trkpt lat="46.583465" lon="11.907441">
        <ele>1392.663</ele>
        <time>2018-09-11T15:06:54Z</time>
      </trkpt>
      <trkpt lat="46.583446" lon="11.907428">
        <ele>1393.052</ele>
        <time>2018-09-11T15:06:55Z</time>
      </trkpt>
      <trkpt lat="46.583428" lon="11.907410">
        <ele>1393.048</ele>
        <time>2018-09-11T15:06:56Z</time>
      </trkpt>
      <trkpt lat="46.583409" lon="11.907381">
        <ele>1393.064</ele>
        <time>2018-09-11T15:06:57Z</time>
      </trkpt>
      <trkpt lat="46.583395" lon="11.907354">
        <ele>1393.527</ele>
        <time>2018-09-11T15:06:58Z</time>
      </trkpt>
      <trkpt lat="46.583244" lon="11.906923">
        <ele>1396.910</ele>
        <time>2018-09-11T15:07:12Z</time>
      </trkpt>
      <trkpt lat="46.583098" lon="11.906418">
        <ele>1398.333</ele>
        <time>2018-09-11T15:07:29Z</time>
      </trkpt>
      <trkpt lat="46.582850" lon="11.906047">
        <ele>1396.923</ele>
        <time>2018-09-11T15:07:45Z</time>
      </trkpt>
      <trkpt lat="46.582541" lon="11.905910">
        <ele>1398.315</ele>
        <time>2018-09-11T15:08:02Z</time>
      </trkpt>
      <trkpt lat="46.582274" lon="11.905778">
        <ele>1402.208</ele>
        <time>2018-09-11T15:08:21Z</time>
      </trkpt>
      <trkpt lat="46.582260" lon="11.905773">
        <ele>1402.257</ele>
        <time>2018-09-11T15:08:22Z</time>
      </trkpt>
      <trkpt lat="46.581856" lon="11.905622">
        <ele>1401.739</ele>
        <time>2018-09-11T15:08:41Z</time>
      </trkpt>
      <trkpt lat="46.581518" lon="11.905300">
        <ele>1401.718</ele>
        <time>2018-09-11T15:08:56Z</time>
      </trkpt>
      <trkpt lat="46.581371" lon="11.904733">
        <ele>1403.667</ele>
        <time>2018-09-11T15:09:12Z</time>
      </trkpt>
      <trkpt lat="46.581291" lon="11.904170">
        <ele>1406.063</ele>
        <time>2018-09-11T15:09:28Z</time>
      </trkpt>
      <trkpt lat="46.581135" lon="11.903555">
        <ele>1407.599</ele>
        <time>2018-09-11T15:09:47Z</time>
      </trkpt>
      <trkpt lat="46.580947" lon="11.903012">
        <ele>1407.942</ele>
        <time>2018-09-11T15:10:05Z</time>
      </trkpt>
      <trkpt lat="46.580700" lon="11.902529">
        <ele>1407.925</ele>
        <time>2018-09-11T15:10:21Z</time>
      </trkpt>
      <trkpt lat="46.580446" lon="11.902036">
        <ele>1408.444</ele>
        <time>2018-09-11T15:10:38Z</time>
      </trkpt>
      <trkpt lat="46.580252" lon="11.901625">
        <ele>1407.905</ele>
        <time>2018-09-11T15:10:53Z</time>
      </trkpt>
      <trkpt lat="46.579999" lon="11.901176">
        <ele>1409.915</ele>
        <time>2018-09-11T15:11:09Z</time>
      </trkpt>
      <trkpt lat="46.579675" lon="11.900900">
        <ele>1410.808</ele>
        <time>2018-09-11T15:11:25Z</time>
      </trkpt>
      <trkpt lat="46.579373" lon="11.900699">
        <ele>1410.848</ele>
        <time>2018-09-11T15:11:39Z</time>
      </trkpt>
      <trkpt lat="46.579114" lon="11.900294">
        <ele>1409.910</ele>
        <time>2018-09-11T15:11:55Z</time>
      </trkpt>
      <trkpt lat="46.578917" lon="11.899889">
        <ele>1412.399</ele>
        <time>2018-09-11T15:12:09Z</time>
      </trkpt>
      <trkpt lat="46.578678" lon="11.899537">
        <ele>1415.668</ele>
        <time>2018-09-11T15:12:25Z</time>
      </trkpt>
      <trkpt lat="46.578396" lon="11.899194">
        <ele>1414.714</ele>
        <time>2018-09-11T15:12:42Z</time>
      </trkpt>
      <trkpt lat="46.578139" lon="11.898719">
        <ele>1416.650</ele>
        <time>2018-09-11T15:13:00Z</time>
      </trkpt>
      <trkpt lat="46.577860" lon="11.898338">
        <ele>1418.513</ele>
        <time>2018-09-11T15:13:16Z</time>
      </trkpt>
      <trkpt lat="46.577478" lon="11.898001">
        <ele>1420.466</ele>
        <time>2018-09-11T15:13:35Z</time>
      </trkpt>
      <trkpt lat="46.577194" lon="11.897766">
        <ele>1420.495</ele>
        <time>2018-09-11T15:13:49Z</time>
      </trkpt>
      <trkpt lat="46.576903" lon="11.897293">
        <ele>1420.949</ele>
        <time>2018-09-11T15:14:07Z</time>
      </trkpt>
      <trkpt lat="46.576518" lon="11.896871">
        <ele>1421.923</ele>
        <time>2018-09-11T15:14:24Z</time>
      </trkpt>
      <trkpt lat="46.576208" lon="11.896403">
        <ele>1422.808</ele>
        <time>2018-09-11T15:14:41Z</time>
      </trkpt>
      <trkpt lat="46.575902" lon="11.895996">
        <ele>1423.823</ele>
        <time>2018-09-11T15:14:58Z</time>
      </trkpt>
      <trkpt lat="46.575592" lon="11.895684">
        <ele>1425.715</ele>
        <time>2018-09-11T15:15:15Z</time>
      </trkpt>
      <trkpt lat="46.575580" lon="11.895690">
        <ele>1427.244</ele>
        <time>2018-09-11T15:15:31Z</time>
      </trkpt>
      <trkpt lat="46.575473" lon="11.895604">
        <ele>1426.773</ele>
        <time>2018-09-11T15:15:48Z</time>
      </trkpt>
      <trkpt lat="46.575076" lon="11.895263">
        <ele>1427.739</ele>
        <time>2018-09-11T15:16:07Z</time>
      </trkpt>
      <trkpt lat="46.574628" lon="11.894888">
        <ele>1428.155</ele>
        <time>2018-09-11T15:16:28Z</time>
      </trkpt>
      <trkpt lat="46.574596" lon="11.894850">
        <ele>1428.668</ele>
        <time>2018-09-11T15:16:36Z</time>
      </trkpt>
      <trkpt lat="46.574585" lon="11.894835">
        <ele>1429.611</ele>
        <time>2018-09-11T15:17:01Z</time>
      </trkpt>
      <trkpt lat="46.574598" lon="11.894832">
        <ele>1431.578</ele>
        <time>2018-09-11T15:17:41Z</time>
      </trkpt>
      <trkpt lat="46.574617" lon="11.894839">
        <ele>1432.033</ele>
        <time>2018-09-11T15:18:26Z</time>
      </trkpt>
      <trkpt lat="46.574574" lon="11.894876">
        <ele>1425.726</ele>
        <time>2018-09-11T15:19:07Z</time>
      </trkpt>
      <trkpt lat="46.574612" lon="11.894825">
        <ele>1429.108</ele>
        <time>2018-09-11T15:19:48Z</time>
      </trkpt>
      <trkpt lat="46.574555" lon="11.894849">
        <ele>1430.591</ele>
        <time>2018-09-11T15:20:16Z</time>
      </trkpt>
      <trkpt lat="46.574543" lon="11.894852">
        <ele>1430.563</ele>
        <time>2018-09-11T15:20:18Z</time>
      </trkpt>
      <trkpt lat="46.574534" lon="11.894853">
        <ele>1430.552</ele>
        <time>2018-09-11T15:20:19Z</time>
      </trkpt>
      <trkpt lat="46.574526" lon="11.894843">
        <ele>1430.581</ele>
        <time>2018-09-11T15:20:20Z</time>
      </trkpt>
      <trkpt lat="46.574515" lon="11.894823">
        <ele>1431.057</ele>
        <time>2018-09-11T15:20:21Z</time>
      </trkpt>
      <trkpt lat="46.574505" lon="11.894804">
        <ele>1431.023</ele>
        <time>2018-09-11T15:20:22Z</time>
      </trkpt>
      <trkpt lat="46.574494" lon="11.894785">
        <ele>1431.026</ele>
        <time>2018-09-11T15:20:23Z</time>
      </trkpt>
      <trkpt lat="46.574478" lon="11.894767">
        <ele>1431.539</ele>
        <time>2018-09-11T15:20:24Z</time>
      </trkpt>
      <trkpt lat="46.574460" lon="11.894752">
        <ele>1431.568</ele>
        <time>2018-09-11T15:20:25Z</time>
      </trkpt>
      <trkpt lat="46.574442" lon="11.894731">
        <ele>1432.042</ele>
        <time>2018-09-11T15:20:26Z</time>
      </trkpt>
      <trkpt lat="46.574425" lon="11.894714">
        <ele>1432.026</ele>
        <time>2018-09-11T15:20:27Z</time>
      </trkpt>
      <trkpt lat="46.574108" lon="11.894461">
        <ele>1431.008</ele>
        <time>2018-09-11T15:20:43Z</time>
      </trkpt>
      <trkpt lat="46.573768" lon="11.894130">
        <ele>1432.980</ele>
        <time>2018-09-11T15:21:01Z</time>
      </trkpt>
      <trkpt lat="46.573593" lon="11.893841">
        <ele>1434.422</ele>
        <time>2018-09-11T15:21:13Z</time>
      </trkpt>
      <trkpt lat="46.573321" lon="11.893453">
        <ele>1434.411</ele>
        <time>2018-09-11T15:21:27Z</time>
      </trkpt>
      <trkpt lat="46.573062" lon="11.893192">
        <ele>1438.720</ele>
        <time>2018-09-11T15:21:40Z</time>
      </trkpt>
      <trkpt lat="46.572668" lon="11.892996">
        <ele>1439.716</ele>
        <time>2018-09-11T15:21:57Z</time>
      </trkpt>
      <trkpt lat="46.572284" lon="11.892967">
        <ele>1437.742</ele>
        <time>2018-09-11T15:22:10Z</time>
      </trkpt>
      <trkpt lat="46.571833" lon="11.892974">
        <ele>1437.785</ele>
        <time>2018-09-11T15:22:25Z</time>
      </trkpt>
      <trkpt lat="46.571525" lon="11.892623">
        <ele>1438.748</ele>
        <time>2018-09-11T15:22:39Z</time>
      </trkpt>
      <trkpt lat="46.571113" lon="11.892133">
        <ele>1438.269</ele>
        <time>2018-09-11T15:22:57Z</time>
      </trkpt>
      <trkpt lat="46.570826" lon="11.891814">
        <ele>1440.604</ele>
        <time>2018-09-11T15:23:11Z</time>
      </trkpt>
      <trkpt lat="46.570420" lon="11.891623">
        <ele>1442.624</ele>
        <time>2018-09-11T15:23:29Z</time>
      </trkpt>
      <trkpt lat="46.570055" lon="11.891540">
        <ele>1441.608</ele>
        <time>2018-09-11T15:23:42Z</time>
      </trkpt>
      <trkpt lat="46.569596" lon="11.891508">
        <ele>1443.050</ele>
        <time>2018-09-11T15:23:59Z</time>
      </trkpt>
      <trkpt lat="46.569144" lon="11.891430">
        <ele>1444.512</ele>
        <time>2018-09-11T15:24:18Z</time>
      </trkpt>
      <trkpt lat="46.568667" lon="11.891255">
        <ele>1447.431</ele>
        <time>2018-09-11T15:24:38Z</time>
      </trkpt>
      <trkpt lat="46.568286" lon="11.891040">
        <ele>1448.890</ele>
        <time>2018-09-11T15:24:55Z</time>
      </trkpt>
      <trkpt lat="46.567970" lon="11.890559">
        <ele>1448.826</ele>
        <time>2018-09-11T15:25:14Z</time>
      </trkpt>
      <trkpt lat="46.567996" lon="11.890023">
        <ele>1449.832</ele>
        <time>2018-09-11T15:25:29Z</time>
      </trkpt>
      <trkpt lat="46.567858" lon="11.889794">
        <ele>1450.755</ele>
        <time>2018-09-11T15:25:39Z</time>
      </trkpt>
      <trkpt lat="46.567780" lon="11.889746">
        <ele>1451.778</ele>
        <time>2018-09-11T15:25:43Z</time>
      </trkpt>
      <trkpt lat="46.567761" lon="11.889737">
        <ele>1451.785</ele>
        <time>2018-09-11T15:25:44Z</time>
      </trkpt>
      <trkpt lat="46.567744" lon="11.889725">
        <ele>1452.289</ele>
        <time>2018-09-11T15:25:45Z</time>
      </trkpt>
      <trkpt lat="46.567728" lon="11.889711">
        <ele>1452.617</ele>
        <time>2018-09-11T15:25:46Z</time>
      </trkpt>
      <trkpt lat="46.567713" lon="11.889698">
        <ele>1453.108</ele>
        <time>2018-09-11T15:25:47Z</time>
      </trkpt>
      <trkpt lat="46.567695" lon="11.889690">
        <ele>1453.152</ele>
        <time>2018-09-11T15:25:48Z</time>
      </trkpt>
      <trkpt lat="46.567679" lon="11.889677">
        <ele>1453.174</ele>
        <time>2018-09-11T15:25:49Z</time>
      </trkpt>
      <trkpt lat="46.567661" lon="11.889664">
        <ele>1453.643</ele>
        <time>2018-09-11T15:25:50Z</time>
      </trkpt>
      <trkpt lat="46.567640" lon="11.889651">
        <ele>1453.642</ele>
        <time>2018-09-11T15:25:51Z</time>
      </trkpt>
      <trkpt lat="46.567619" lon="11.889639">
        <ele>1454.198</ele>
        <time>2018-09-11T15:25:52Z</time>
      </trkpt>
      <trkpt lat="46.567600" lon="11.889630">
        <ele>1455.074</ele>
        <time>2018-09-11T15:25:53Z</time>
      </trkpt>
      <trkpt lat="46.567330" lon="11.889407">
        <ele>1456.087</ele>
        <time>2018-09-11T15:26:06Z</time>
      </trkpt>
      <trkpt lat="46.567029" lon="11.889220">
        <ele>1462.360</ele>
        <time>2018-09-11T15:26:19Z</time>
      </trkpt>
      <trkpt lat="46.566671" lon="11.889024">
        <ele>1469.579</ele>
        <time>2018-09-11T15:26:34Z</time>
      </trkpt>
      <trkpt lat="46.566164" lon="11.888760">
        <ele>1472.405</ele>
        <time>2018-09-11T15:26:56Z</time>
      </trkpt>
      <trkpt lat="46.565739" lon="11.888526">
        <ele>1472.825</ele>
        <time>2018-09-11T15:27:14Z</time>
      </trkpt>
      <trkpt lat="46.565373" lon="11.888304">
        <ele>1473.308</ele>
        <time>2018-09-11T15:27:30Z</time>
      </trkpt>
      <trkpt lat="46.565009" lon="11.888318">
        <ele>1473.841</ele>
        <time>2018-09-11T15:27:45Z</time>
      </trkpt>
      <trkpt lat="46.564645" lon="11.888240">
        <ele>1475.253</ele>
        <time>2018-09-11T15:27:59Z</time>
      </trkpt>
      <trkpt lat="46.564339" lon="11.888086">
        <ele>1476.782</ele>
        <time>2018-09-11T15:28:15Z</time>
      </trkpt>
      <trkpt lat="46.564025" lon="11.887822">
        <ele>1477.221</ele>
        <time>2018-09-11T15:28:32Z</time>
      </trkpt>
      <trkpt lat="46.563732" lon="11.887611">
        <ele>1478.647</ele>
        <time>2018-09-11T15:28:48Z</time>
      </trkpt>
      <trkpt lat="46.563479" lon="11.887314">
        <ele>1479.133</ele>
        <time>2018-09-11T15:29:03Z</time>
      </trkpt>
      <trkpt lat="46.563209" lon="11.887120">
        <ele>1479.656</ele>
        <time>2018-09-11T15:29:17Z</time>
      </trkpt>
      <trkpt lat="46.562837" lon="11.887029">
        <ele>1478.669</ele>
        <time>2018-09-11T15:29:32Z</time>
      </trkpt>
      <trkpt lat="46.562504" lon="11.886749">
        <ele>1478.615</ele>
        <time>2018-09-11T15:29:48Z</time>
      </trkpt>
      <trkpt lat="46.562170" lon="11.886412">
        <ele>1476.765</ele>
        <time>2018-09-11T15:30:04Z</time>
      </trkpt>
      <trkpt lat="46.561888" lon="11.886026">
        <ele>1477.611</ele>
        <time>2018-09-11T15:30:19Z</time>
      </trkpt>
      <trkpt lat="46.561673" lon="11.885504">
        <ele>1479.608</ele>
        <time>2018-09-11T15:30:35Z</time>
      </trkpt>
      <trkpt lat="46.561479" lon="11.885200">
        <ele>1481.565</ele>
        <time>2018-09-11T15:30:48Z</time>
      </trkpt>
      <trkpt lat="46.561336" lon="11.884693">
        <ele>1481.097</ele>
        <time>2018-09-11T15:31:03Z</time>
      </trkpt>
      <trkpt lat="46.561245" lon="11.884271">
        <ele>1480.056</ele>
        <time>2018-09-11T15:31:16Z</time>
      </trkpt>
      <trkpt lat="46.561126" lon="11.883799">
        <ele>1482.455</ele>
        <time>2018-09-11T15:31:32Z</time>
      </trkpt>
      <trkpt lat="46.560881" lon="11.883521">
        <ele>1485.371</ele>
        <time>2018-09-11T15:31:46Z</time>
      </trkpt>
      <trkpt lat="46.560562" lon="11.883439">
        <ele>1488.777</ele>
        <time>2018-09-11T15:32:02Z</time>
      </trkpt>
      <trkpt lat="46.560139" lon="11.883435">
        <ele>1491.620</ele>
        <time>2018-09-11T15:32:22Z</time>
      </trkpt>
      <trkpt lat="46.559751" lon="11.883246">
        <ele>1495.453</ele>
        <time>2018-09-11T15:32:38Z</time>
      </trkpt>
      <trkpt lat="46.559545" lon="11.883021">
        <ele>1498.336</ele>
        <time>2018-09-11T15:32:48Z</time>
      </trkpt>
      <trkpt lat="46.559527" lon="11.882997">
        <ele>1498.317</ele>
        <time>2018-09-11T15:32:49Z</time>
      </trkpt>
      <trkpt lat="46.559245" lon="11.882552">
        <ele>1499.718</ele>
        <time>2018-09-11T15:33:04Z</time>
      </trkpt>
      <trkpt lat="46.558971" lon="11.881942">
        <ele>1498.808</ele>
        <time>2018-09-11T15:33:22Z</time>
      </trkpt>
      <trkpt lat="46.558841" lon="11.881342">
        <ele>1499.727</ele>
        <time>2018-09-11T15:33:39Z</time>
      </trkpt>
      <trkpt lat="46.558635" lon="11.880829">
        <ele>1503.629</ele>
        <time>2018-09-11T15:33:56Z</time>
      </trkpt>
      <trkpt lat="46.558415" lon="11.880468">
        <ele>1507.058</ele>
        <time>2018-09-11T15:34:09Z</time>
      </trkpt>
      <trkpt lat="46.558145" lon="11.879890">
        <ele>1507.017</ele>
        <time>2018-09-11T15:34:25Z</time>
      </trkpt>
      <trkpt lat="46.557892" lon="11.879398">
        <ele>1508.993</ele>
        <time>2018-09-11T15:34:40Z</time>
      </trkpt>
      <trkpt lat="46.557782" lon="11.878907">
        <ele>1509.439</ele>
        <time>2018-09-11T15:34:55Z</time>
      </trkpt>
      <trkpt lat="46.557739" lon="11.878826">
        <ele>1509.472</ele>
        <time>2018-09-11T15:34:58Z</time>
      </trkpt>
      <trkpt lat="46.557727" lon="11.878797">
        <ele>1509.475</ele>
        <time>2018-09-11T15:34:59Z</time>
      </trkpt>
      <trkpt lat="46.557716" lon="11.878763">
        <ele>1509.417</ele>
        <time>2018-09-11T15:35:00Z</time>
      </trkpt>
      <trkpt lat="46.557704" lon="11.878724">
        <ele>1508.987</ele>
        <time>2018-09-11T15:35:01Z</time>
      </trkpt>
      <trkpt lat="46.557691" lon="11.878687">
        <ele>1509.415</ele>
        <time>2018-09-11T15:35:02Z</time>
      </trkpt>
      <trkpt lat="46.557410" lon="11.878215">
        <ele>1507.908</ele>
        <time>2018-09-11T15:35:16Z</time>
      </trkpt>
      <trkpt lat="46.557180" lon="11.877844">
        <ele>1511.825</ele>
        <time>2018-09-11T15:35:30Z</time>
      </trkpt>
      <trkpt lat="46.557096" lon="11.877688">
        <ele>1510.877</ele>
        <time>2018-09-11T15:35:34Z</time>
      </trkpt>
      <trkpt lat="46.557059" lon="11.877645">
        <ele>1510.316</ele>
        <time>2018-09-11T15:35:35Z</time>
      </trkpt>
      <trkpt lat="46.556929" lon="11.877502">
        <ele>1508.935</ele>
        <time>2018-09-11T15:35:38Z</time>
      </trkpt>
      <trkpt lat="46.556889" lon="11.877436">
        <ele>1508.421</ele>
        <time>2018-09-11T15:35:39Z</time>
      </trkpt>
      <trkpt lat="46.556856" lon="11.877364">
        <ele>1507.947</ele>
        <time>2018-09-11T15:35:40Z</time>
      </trkpt>
      <trkpt lat="46.556824" lon="11.877287">
        <ele>1507.440</ele>
        <time>2018-09-11T15:35:41Z</time>
      </trkpt>
      <trkpt lat="46.556794" lon="11.877202">
        <ele>1507.493</ele>
        <time>2018-09-11T15:35:42Z</time>
      </trkpt>
      <trkpt lat="46.556766" lon="11.877128">
        <ele>1507.097</ele>
        <time>2018-09-11T15:35:43Z</time>
      </trkpt>
      <trkpt lat="46.556738" lon="11.877072">
        <ele>1507.023</ele>
        <time>2018-09-11T15:35:44Z</time>
      </trkpt>
      <trkpt lat="46.556709" lon="11.877032">
        <ele>1507.425</ele>
        <time>2018-09-11T15:35:45Z</time>
      </trkpt>
      <trkpt lat="46.556683" lon="11.877006">
        <ele>1507.908</ele>
        <time>2018-09-11T15:35:46Z</time>
      </trkpt>
      <trkpt lat="46.556660" lon="11.876988">
        <ele>1508.493</ele>
        <time>2018-09-11T15:35:47Z</time>
      </trkpt>
      <trkpt lat="46.556639" lon="11.876976">
        <ele>1508.955</ele>
        <time>2018-09-11T15:35:48Z</time>
      </trkpt>
      <trkpt lat="46.556380" lon="11.876819">
        <ele>1509.854</ele>
        <time>2018-09-11T15:36:02Z</time>
      </trkpt>
      <trkpt lat="46.556030" lon="11.876380">
        <ele>1510.353</ele>
        <time>2018-09-11T15:36:18Z</time>
      </trkpt>
      <trkpt lat="46.555621" lon="11.876034">
        <ele>1511.359</ele>
        <time>2018-09-11T15:36:32Z</time>
      </trkpt>
      <trkpt lat="46.555227" lon="11.875795">
        <ele>1514.215</ele>
        <time>2018-09-11T15:36:46Z</time>
      </trkpt>
      <trkpt lat="46.554844" lon="11.875510">
        <ele>1516.658</ele>
        <time>2018-09-11T15:37:01Z</time>
      </trkpt>
      <trkpt lat="46.554410" lon="11.875052">
        <ele>1518.561</ele>
        <time>2018-09-11T15:37:19Z</time>
      </trkpt>
      <trkpt lat="46.554261" lon="11.874420">
        <ele>1517.524</ele>
        <time>2018-09-11T15:37:34Z</time>
      </trkpt>
      <trkpt lat="46.554194" lon="11.873682">
        <ele>1517.504</ele>
        <time>2018-09-11T15:37:52Z</time>
      </trkpt>
      <trkpt lat="46.554112" lon="11.873192">
        <ele>1518.514</ele>
        <time>2018-09-11T15:38:07Z</time>
      </trkpt>
      <trkpt lat="46.554013" lon="11.872853">
        <ele>1520.408</ele>
        <time>2018-09-11T15:38:22Z</time>
      </trkpt>
      <trkpt lat="46.554008" lon="11.872799">
        <ele>1519.956</ele>
        <time>2018-09-11T15:38:35Z</time>
      </trkpt>
      <trkpt lat="46.553978" lon="11.872834">
        <ele>1519.098</ele>
        <time>2018-09-11T15:38:54Z</time>
      </trkpt>
      <trkpt lat="46.553968" lon="11.872839">
        <ele>1518.557</ele>
        <time>2018-09-11T15:38:55Z</time>
      </trkpt>
      <trkpt lat="46.554121" lon="11.872669">
        <ele>1519.916</ele>
        <time>2018-09-11T16:05:52Z</time>
      </trkpt>
      <trkpt lat="46.554294" lon="11.872429">
        <ele>1522.842</ele>
        <time>2018-09-11T16:06:06Z</time>
      </trkpt>
      <trkpt lat="46.554388" lon="11.872054">
        <ele>1526.228</ele>
        <time>2018-09-11T16:06:22Z</time>
      </trkpt>
      <trkpt lat="46.554308" lon="11.871644">
        <ele>1525.271</ele>
        <time>2018-09-11T16:06:36Z</time>
      </trkpt>
      <trkpt lat="46.554187" lon="11.871263">
        <ele>1525.764</ele>
        <time>2018-09-11T16:06:52Z</time>
      </trkpt>
      <trkpt lat="46.554151" lon="11.870810">
        <ele>1526.731</ele>
        <time>2018-09-11T16:07:07Z</time>
      </trkpt>
      <trkpt lat="46.554188" lon="11.870502">
        <ele>1529.161</ele>
        <time>2018-09-11T16:07:20Z</time>
      </trkpt>
      <trkpt lat="46.554218" lon="11.870428">
        <ele>1531.007</ele>
        <time>2018-09-11T16:09:24Z</time>
      </trkpt>
      <trkpt lat="46.554208" lon="11.870398">
        <ele>1531.008</ele>
        <time>2018-09-11T16:09:25Z</time>
      </trkpt>
      <trkpt lat="46.554205" lon="11.870373">
        <ele>1531.067</ele>
        <time>2018-09-11T16:09:26Z</time>
      </trkpt>
      <trkpt lat="46.554091" lon="11.869796">
        <ele>1530.059</ele>
        <time>2018-09-11T16:09:42Z</time>
      </trkpt>
      <trkpt lat="46.553908" lon="11.869401">
        <ele>1528.628</ele>
        <time>2018-09-11T16:11:54Z</time>
      </trkpt>
      <trkpt lat="46.553903" lon="11.869421">
        <ele>1528.617</ele>
        <time>2018-09-11T16:11:55Z</time>
      </trkpt>
      <trkpt lat="46.553893" lon="11.869428">
        <ele>1529.153</ele>
        <time>2018-09-11T16:11:56Z</time>
      </trkpt>
      <trkpt lat="46.553882" lon="11.869430">
        <ele>1529.189</ele>
        <time>2018-09-11T16:11:57Z</time>
      </trkpt>
      <trkpt lat="46.553869" lon="11.869435">
        <ele>1529.142</ele>
        <time>2018-09-11T16:11:58Z</time>
      </trkpt>
      <trkpt lat="46.553858" lon="11.869441">
        <ele>1529.185</ele>
        <time>2018-09-11T16:11:59Z</time>
      </trkpt>
      <trkpt lat="46.553822" lon="11.869497">
        <ele>1528.637</ele>
        <time>2018-09-11T16:12:11Z</time>
      </trkpt>
      <trkpt lat="46.553836" lon="11.869531">
        <ele>1529.549</ele>
        <time>2018-09-11T16:12:38Z</time>
      </trkpt>
      <trkpt lat="46.553782" lon="11.869572">
        <ele>1529.513</ele>
        <time>2018-09-11T16:15:54Z</time>
      </trkpt>
      <trkpt lat="46.553730" lon="11.869619">
        <ele>1529.108</ele>
        <time>2018-09-11T16:15:59Z</time>
      </trkpt>
      <trkpt lat="46.553643" lon="11.869715">
        <ele>1527.627</ele>
        <time>2018-09-11T16:16:17Z</time>
      </trkpt>
      <trkpt lat="46.553652" lon="11.869741">
        <ele>1530.539</ele>
        <time>2018-09-11T16:16:39Z</time>
      </trkpt>
      <trkpt lat="46.553632" lon="11.869741">
        <ele>1530.058</ele>
        <time>2018-09-11T16:16:58Z</time>
      </trkpt>
      <trkpt lat="46.553610" lon="11.869702">
        <ele>1524.316</ele>
        <time>2018-09-12T04:56:59Z</time>
      </trkpt>
      <trkpt lat="46.553608" lon="11.869695">
        <ele>1527.176</ele>
        <time>2018-09-12T04:57:14Z</time>
      </trkpt>
      <trkpt lat="46.553636" lon="11.869668">
        <ele>1528.613</ele>
        <time>2018-09-12T04:57:26Z</time>
      </trkpt>
      <trkpt lat="46.553837" lon="11.869490">
        <ele>1527.108</ele>
        <time>2018-09-12T04:57:40Z</time>
      </trkpt>
      <trkpt lat="46.553862" lon="11.869498">
        <ele>1527.125</ele>
        <time>2018-09-12T04:57:41Z</time>
      </trkpt>
      <trkpt lat="46.553989" lon="11.869776">
        <ele>1528.657</ele>
        <time>2018-09-12T04:57:52Z</time>
      </trkpt>
      <trkpt lat="46.554115" lon="11.870406">
        <ele>1531.023</ele>
        <time>2018-09-12T04:58:12Z</time>
      </trkpt>
      <trkpt lat="46.554090" lon="11.870800">
        <ele>1530.079</ele>
        <time>2018-09-12T04:58:20Z</time>
      </trkpt>
      <trkpt lat="46.554093" lon="11.870992">
        <ele>1530.049</ele>
        <time>2018-09-12T04:58:23Z</time>
      </trkpt>
      <trkpt lat="46.554138" lon="11.871281">
        <ele>1530.089</ele>
        <time>2018-09-12T04:58:27Z</time>
      </trkpt>
      <trkpt lat="46.554359" lon="11.872155">
        <ele>1529.192</ele>
        <time>2018-09-12T04:58:39Z</time>
      </trkpt>
      <trkpt lat="46.554351" lon="11.872229">
        <ele>1529.538</ele>
        <time>2018-09-12T04:58:40Z</time>
      </trkpt>
      <trkpt lat="46.554332" lon="11.872294">
        <ele>1529.518</ele>
        <time>2018-09-12T04:58:41Z</time>
      </trkpt>
      <trkpt lat="46.554307" lon="11.872347">
        <ele>1529.198</ele>
        <time>2018-09-12T04:58:42Z</time>
      </trkpt>
      <trkpt lat="46.554268" lon="11.872405">
        <ele>1529.117</ele>
        <time>2018-09-12T04:58:43Z</time>
      </trkpt>
      <trkpt lat="46.554224" lon="11.872465">
        <ele>1529.108</ele>
        <time>2018-09-12T04:58:44Z</time>
      </trkpt>
      <trkpt lat="46.554182" lon="11.872526">
        <ele>1529.175</ele>
        <time>2018-09-12T04:58:45Z</time>
      </trkpt>
      <trkpt lat="46.554103" lon="11.872628">
        <ele>1528.117</ele>
        <time>2018-09-12T04:58:47Z</time>
      </trkpt>
      <trkpt lat="46.554071" lon="11.872665">
        <ele>1528.193</ele>
        <time>2018-09-12T04:58:48Z</time>
      </trkpt>
      <trkpt lat="46.554005" lon="11.872721">
        <ele>1525.769</ele>
        <time>2018-09-12T04:58:52Z</time>
      </trkpt>
      <trkpt lat="46.553994" lon="11.872716">
        <ele>1525.779</ele>
        <time>2018-09-12T04:58:53Z</time>
      </trkpt>
      <trkpt lat="46.553931" lon="11.872618">
        <ele>1524.769</ele>
        <time>2018-09-12T04:59:02Z</time>
      </trkpt>
      <trkpt lat="46.553927" lon="11.872602">
        <ele>1524.782</ele>
        <time>2018-09-12T04:59:03Z</time>
      </trkpt>
      <trkpt lat="46.553922" lon="11.872587">
        <ele>1524.758</ele>
        <time>2018-09-12T04:59:04Z</time>
      </trkpt>
      <trkpt lat="46.553918" lon="11.872573">
        <ele>1524.363</ele>
        <time>2018-09-12T04:59:05Z</time>
      </trkpt>
      <trkpt lat="46.553914" lon="11.872561">
        <ele>1524.344</ele>
        <time>2018-09-12T04:59:06Z</time>
      </trkpt>
      <trkpt lat="46.553905" lon="11.872544">
        <ele>1523.818</ele>
        <time>2018-09-12T04:59:07Z</time>
      </trkpt>
      <trkpt lat="46.553894" lon="11.872525">
        <ele>1523.808</ele>
        <time>2018-09-12T04:59:08Z</time>
      </trkpt>
      <trkpt lat="46.553886" lon="11.872509">
        <ele>1523.810</ele>
        <time>2018-09-12T04:59:09Z</time>
      </trkpt>
      <trkpt lat="46.553668" lon="11.872097">
        <ele>1522.872</ele>
        <time>2018-09-12T04:59:22Z</time>
      </trkpt>
      <trkpt lat="46.553414" lon="11.871593">
        <ele>1523.878</ele>
        <time>2018-09-12T04:59:39Z</time>
      </trkpt>
      <trkpt lat="46.553119" lon="11.871061">
        <ele>1524.764</ele>
        <time>2018-09-12T04:59:59Z</time>
      </trkpt>
      <trkpt lat="46.552856" lon="11.870579">
        <ele>1526.214</ele>
        <time>2018-09-12T05:00:17Z</time>
      </trkpt>
      <trkpt lat="46.552556" lon="11.870007">
        <ele>1526.744</ele>
        <time>2018-09-12T05:00:38Z</time>
      </trkpt>
      <trkpt lat="46.552263" lon="11.869648">
        <ele>1528.167</ele>
        <time>2018-09-12T05:00:54Z</time>
      </trkpt>
      <trkpt lat="46.551992" lon="11.869704">
        <ele>1527.673</ele>
        <time>2018-09-12T05:01:07Z</time>
      </trkpt>
      <trkpt lat="46.551787" lon="11.869559">
        <ele>1530.565</ele>
        <time>2018-09-12T05:01:20Z</time>
      </trkpt>
      <trkpt lat="46.551503" lon="11.869620">
        <ele>1528.168</ele>
        <time>2018-09-12T05:01:30Z</time>
      </trkpt>
      <trkpt lat="46.551150" lon="11.869700">
        <ele>1526.714</ele>
        <time>2018-09-12T05:01:39Z</time>
      </trkpt>
      <trkpt lat="46.551139" lon="11.869696">
        <ele>1527.108</ele>
        <time>2018-09-12T05:01:40Z</time>
      </trkpt>
      <trkpt lat="46.551111" lon="11.869673">
        <ele>1527.630</ele>
        <time>2018-09-12T05:01:42Z</time>
      </trkpt>
      <trkpt lat="46.550961" lon="11.869363">
        <ele>1531.572</ele>
        <time>2018-09-12T05:01:56Z</time>
      </trkpt>
      <trkpt lat="46.550788" lon="11.869033">
        <ele>1534.468</ele>
        <time>2018-09-12T05:02:11Z</time>
      </trkpt>
      <trkpt lat="46.550748" lon="11.868976">
        <ele>1534.494</ele>
        <time>2018-09-12T05:02:14Z</time>
      </trkpt>
      <trkpt lat="46.550732" lon="11.868970">
        <ele>1534.834</ele>
        <time>2018-09-12T05:02:15Z</time>
      </trkpt>
      <trkpt lat="46.550711" lon="11.868970">
        <ele>1534.874</ele>
        <time>2018-09-12T05:02:16Z</time>
      </trkpt>
      <trkpt lat="46.550699" lon="11.868974">
        <ele>1534.897</ele>
        <time>2018-09-12T05:02:17Z</time>
      </trkpt>
      <trkpt lat="46.550682" lon="11.868985">
        <ele>1534.833</ele>
        <time>2018-09-12T05:02:18Z</time>
      </trkpt>
      <trkpt lat="46.550666" lon="11.869004">
        <ele>1534.819</ele>
        <time>2018-09-12T05:02:19Z</time>
      </trkpt>
      <trkpt lat="46.550649" lon="11.869028">
        <ele>1534.409</ele>
        <time>2018-09-12T05:02:20Z</time>
      </trkpt>
      <trkpt lat="46.550633" lon="11.869052">
        <ele>1534.419</ele>
        <time>2018-09-12T05:02:21Z</time>
      </trkpt>
      <trkpt lat="46.550234" lon="11.869414">
        <ele>1533.908</ele>
        <time>2018-09-12T05:02:40Z</time>
      </trkpt>
      <trkpt lat="46.549936" lon="11.869695">
        <ele>1536.395</ele>
        <time>2018-09-12T05:02:56Z</time>
      </trkpt>
      <trkpt lat="46.549602" lon="11.869920">
        <ele>1538.267</ele>
        <time>2018-09-12T05:03:15Z</time>
      </trkpt>
      <trkpt lat="46.549235" lon="11.869851">
        <ele>1541.193</ele>
        <time>2018-09-12T05:03:33Z</time>
      </trkpt>
      <trkpt lat="46.549008" lon="11.869678">
        <ele>1543.599</ele>
        <time>2018-09-12T05:03:49Z</time>
      </trkpt>
      <trkpt lat="46.548997" lon="11.869672">
        <ele>1543.599</ele>
        <time>2018-09-12T05:03:50Z</time>
      </trkpt>
      <trkpt lat="46.548986" lon="11.869661">
        <ele>1544.089</ele>
        <time>2018-09-12T05:03:51Z</time>
      </trkpt>
      <trkpt lat="46.548845" lon="11.869540">
        <ele>1548.312</ele>
        <time>2018-09-12T05:04:05Z</time>
      </trkpt>
      <trkpt lat="46.548705" lon="11.869330">
        <ele>1551.238</ele>
        <time>2018-09-12T05:04:22Z</time>
      </trkpt>
      <trkpt lat="46.548581" lon="11.869051">
        <ele>1551.713</ele>
        <time>2018-09-12T05:04:40Z</time>
      </trkpt>
      <trkpt lat="46.548503" lon="11.868925">
        <ele>1553.143</ele>
        <time>2018-09-12T05:04:51Z</time>
      </trkpt>
      <trkpt lat="46.548497" lon="11.868913">
        <ele>1553.107</ele>
        <time>2018-09-12T05:04:52Z</time>
      </trkpt>
      <trkpt lat="46.548489" lon="11.868899">
        <ele>1553.108</ele>
        <time>2018-09-12T05:04:53Z</time>
      </trkpt>
      <trkpt lat="46.548479" lon="11.868887">
        <ele>1553.675</ele>
        <time>2018-09-12T05:04:54Z</time>
      </trkpt>
      <trkpt lat="46.548468" lon="11.868874">
        <ele>1553.627</ele>
        <time>2018-09-12T05:04:55Z</time>
      </trkpt>
      <trkpt lat="46.548395" lon="11.868761">
        <ele>1556.043</ele>
        <time>2018-09-12T05:05:04Z</time>
      </trkpt>
      <trkpt lat="46.548386" lon="11.868768">
        <ele>1556.039</ele>
        <time>2018-09-12T05:05:05Z</time>
      </trkpt>
      <trkpt lat="46.548381" lon="11.868789">
        <ele>1556.099</ele>
        <time>2018-09-12T05:05:06Z</time>
      </trkpt>
      <trkpt lat="46.548380" lon="11.868815">
        <ele>1555.529</ele>
        <time>2018-09-12T05:05:07Z</time>
      </trkpt>
      <trkpt lat="46.548379" lon="11.868834">
        <ele>1555.092</ele>
        <time>2018-09-12T05:05:08Z</time>
      </trkpt>
      <trkpt lat="46.548388" lon="11.869015">
        <ele>1555.538</ele>
        <time>2018-09-12T05:05:23Z</time>
      </trkpt>
      <trkpt lat="46.548394" lon="11.869097">
        <ele>1554.546</ele>
        <time>2018-09-12T05:05:43Z</time>
      </trkpt>
      <trkpt lat="46.548383" lon="11.869207">
        <ele>1556.588</ele>
        <time>2018-09-12T05:05:51Z</time>
      </trkpt>
      <trkpt lat="46.548353" lon="11.869332">
        <ele>1558.416</ele>
        <time>2018-09-12T05:05:59Z</time>
      </trkpt>
      <trkpt lat="46.548333" lon="11.869382">
        <ele>1559.408</ele>
        <time>2018-09-12T05:06:03Z</time>
      </trkpt>
      <trkpt lat="46.548275" lon="11.869223">
        <ele>1559.498</ele>
        <time>2018-09-12T05:06:16Z</time>
      </trkpt>
      <trkpt lat="46.548233" lon="11.868967">
        <ele>1560.380</ele>
        <time>2018-09-12T05:06:30Z</time>
      </trkpt>
      <trkpt lat="46.548209" lon="11.868785">
        <ele>1557.926</ele>
        <time>2018-09-12T05:06:39Z</time>
      </trkpt>
      <trkpt lat="46.548264" lon="11.868471">
        <ele>1556.552</ele>
        <time>2018-09-12T05:06:55Z</time>
      </trkpt>
      <trkpt lat="46.548299" lon="11.868189">
        <ele>1556.062</ele>
        <time>2018-09-12T05:07:11Z</time>
      </trkpt>
      <trkpt lat="46.548339" lon="11.868007">
        <ele>1556.572</ele>
        <time>2018-09-12T05:07:22Z</time>
      </trkpt>
      <trkpt lat="46.548367" lon="11.867939">
        <ele>1561.865</ele>
        <time>2018-09-12T05:07:26Z</time>
      </trkpt>
      <trkpt lat="46.548363" lon="11.867909">
        <ele>1563.221</ele>
        <time>2018-09-12T05:07:28Z</time>
      </trkpt>
      <trkpt lat="46.548342" lon="11.867916">
        <ele>1564.296</ele>
        <time>2018-09-12T05:07:31Z</time>
      </trkpt>
      <trkpt lat="46.548322" lon="11.867978">
        <ele>1563.731</ele>
        <time>2018-09-12T05:07:35Z</time>
      </trkpt>
      <trkpt lat="46.548258" lon="11.868079">
        <ele>1562.224</ele>
        <time>2018-09-12T05:07:43Z</time>
      </trkpt>
      <trkpt lat="46.548237" lon="11.868077">
        <ele>1561.808</ele>
        <time>2018-09-12T05:07:45Z</time>
      </trkpt>
      <trkpt lat="46.548219" lon="11.868031">
        <ele>1560.883</ele>
        <time>2018-09-12T05:07:48Z</time>
      </trkpt>
      <trkpt lat="46.548231" lon="11.867742">
        <ele>1559.815</ele>
        <time>2018-09-12T05:08:06Z</time>
      </trkpt>
      <trkpt lat="46.548257" lon="11.867670">
        <ele>1561.391</ele>
        <time>2018-09-12T05:08:11Z</time>
      </trkpt>
      <trkpt lat="46.548417" lon="11.867440">
        <ele>1566.697</ele>
        <time>2018-09-12T05:08:27Z</time>
      </trkpt>
      <trkpt lat="46.548478" lon="11.867134">
        <ele>1575.797</ele>
        <time>2018-09-12T05:08:45Z</time>
      </trkpt>
      <trkpt lat="46.548516" lon="11.867037">
        <ele>1577.677</ele>
        <time>2018-09-12T05:08:52Z</time>
      </trkpt>
      <trkpt lat="46.548525" lon="11.867013">
        <ele>1577.680</ele>
        <time>2018-09-12T05:08:54Z</time>
      </trkpt>
      <trkpt lat="46.548529" lon="11.867000">
        <ele>1578.196</ele>
        <time>2018-09-12T05:08:55Z</time>
      </trkpt>
      <trkpt lat="46.548534" lon="11.866984">
        <ele>1578.194</ele>
        <time>2018-09-12T05:08:56Z</time>
      </trkpt>
      <trkpt lat="46.548555" lon="11.866685">
        <ele>1577.657</ele>
        <time>2018-09-12T05:09:15Z</time>
      </trkpt>
      <trkpt lat="46.548556" lon="11.866531">
        <ele>1577.122</ele>
        <time>2018-09-12T05:09:24Z</time>
      </trkpt>
      <trkpt lat="46.548554" lon="11.866509">
        <ele>1577.108</ele>
        <time>2018-09-12T05:09:25Z</time>
      </trkpt>
      <trkpt lat="46.548555" lon="11.866488">
        <ele>1577.683</ele>
        <time>2018-09-12T05:09:26Z</time>
      </trkpt>
      <trkpt lat="46.548554" lon="11.866468">
        <ele>1577.665</ele>
        <time>2018-09-12T05:09:27Z</time>
      </trkpt>
      <trkpt lat="46.548555" lon="11.866452">
        <ele>1577.611</ele>
        <time>2018-09-12T05:09:28Z</time>
      </trkpt>
      <trkpt lat="46.548601" lon="11.866131">
        <ele>1581.557</ele>
        <time>2018-09-12T05:09:44Z</time>
      </trkpt>
      <trkpt lat="46.548655" lon="11.865748">
        <ele>1581.587</ele>
        <time>2018-09-12T05:09:58Z</time>
      </trkpt>
      <trkpt lat="46.548652" lon="11.865516">
        <ele>1579.537</ele>
        <time>2018-09-12T05:10:02Z</time>
      </trkpt>
      <trkpt lat="46.548654" lon="11.865458">
        <ele>1579.550</ele>
        <time>2018-09-12T05:10:03Z</time>
      </trkpt>
      <trkpt lat="46.548658" lon="11.865411">
        <ele>1579.176</ele>
        <time>2018-09-12T05:10:04Z</time>
      </trkpt>
      <trkpt lat="46.548816" lon="11.864706">
        <ele>1575.212</ele>
        <time>2018-09-12T05:10:17Z</time>
      </trkpt>
      <trkpt lat="46.548829" lon="11.864642">
        <ele>1575.232</ele>
        <time>2018-09-12T05:10:18Z</time>
      </trkpt>
      <trkpt lat="46.548975" lon="11.864118">
        <ele>1574.305</ele>
        <time>2018-09-12T05:10:28Z</time>
      </trkpt>
      <trkpt lat="46.548986" lon="11.864056">
        <ele>1574.308</ele>
        <time>2018-09-12T05:10:29Z</time>
      </trkpt>
      <trkpt lat="46.548994" lon="11.863991">
        <ele>1573.855</ele>
        <time>2018-09-12T05:10:30Z</time>
      </trkpt>
      <trkpt lat="46.549010" lon="11.863801">
        <ele>1574.357</ele>
        <time>2018-09-12T05:10:33Z</time>
      </trkpt>
      <trkpt lat="46.549069" lon="11.863131">
        <ele>1572.393</ele>
        <time>2018-09-12T05:10:43Z</time>
      </trkpt>
      <trkpt lat="46.549084" lon="11.862481">
        <ele>1569.929</ele>
        <time>2018-09-12T05:10:51Z</time>
      </trkpt>
      <trkpt lat="46.549093" lon="11.862305">
        <ele>1568.589</ele>
        <time>2018-09-12T05:10:53Z</time>
      </trkpt>
      <trkpt lat="46.549215" lon="11.861504">
        <ele>1565.619</ele>
        <time>2018-09-12T05:11:04Z</time>
      </trkpt>
      <trkpt lat="46.549279" lon="11.861038">
        <ele>1563.212</ele>
        <time>2018-09-12T05:11:11Z</time>
      </trkpt>
      <trkpt lat="46.549325" lon="11.860746">
        <ele>1561.858</ele>
        <time>2018-09-12T05:11:15Z</time>
      </trkpt>
      <trkpt lat="46.549328" lon="11.860666">
        <ele>1561.819</ele>
        <time>2018-09-12T05:11:16Z</time>
      </trkpt>
      <trkpt lat="46.549324" lon="11.860586">
        <ele>1561.309</ele>
        <time>2018-09-12T05:11:17Z</time>
      </trkpt>
      <trkpt lat="46.549320" lon="11.860418">
        <ele>1560.319</ele>
        <time>2018-09-12T05:11:19Z</time>
      </trkpt>
      <trkpt lat="46.549329" lon="11.860332">
        <ele>1559.808</ele>
        <time>2018-09-12T05:11:20Z</time>
      </trkpt>
      <trkpt lat="46.549558" lon="11.859337">
        <ele>1557.975</ele>
        <time>2018-09-12T05:11:33Z</time>
      </trkpt>
      <trkpt lat="46.549574" lon="11.859271">
        <ele>1557.937</ele>
        <time>2018-09-12T05:11:34Z</time>
      </trkpt>
      <trkpt lat="46.549588" lon="11.858929">
        <ele>1561.333</ele>
        <time>2018-09-12T05:11:44Z</time>
      </trkpt>
      <trkpt lat="46.549499" lon="11.858663">
        <ele>1562.239</ele>
        <time>2018-09-12T05:11:57Z</time>
      </trkpt>
      <trkpt lat="46.549411" lon="11.858361">
        <ele>1566.129</ele>
        <time>2018-09-12T05:12:10Z</time>
      </trkpt>
      <trkpt lat="46.549277" lon="11.857944">
        <ele>1570.429</ele>
        <time>2018-09-12T05:12:26Z</time>
      </trkpt>
      <trkpt lat="46.549171" lon="11.857611">
        <ele>1574.782</ele>
        <time>2018-09-12T05:12:42Z</time>
      </trkpt>
      <trkpt lat="46.549095" lon="11.857192">
        <ele>1576.768</ele>
        <time>2018-09-12T05:13:00Z</time>
      </trkpt>
      <trkpt lat="46.549087" lon="11.857175">
        <ele>1577.192</ele>
        <time>2018-09-12T05:13:01Z</time>
      </trkpt>
      <trkpt lat="46.549080" lon="11.857156">
        <ele>1577.173</ele>
        <time>2018-09-12T05:13:02Z</time>
      </trkpt>
      <trkpt lat="46.549073" lon="11.857135">
        <ele>1577.120</ele>
        <time>2018-09-12T05:13:03Z</time>
      </trkpt>
      <trkpt lat="46.549067" lon="11.857110">
        <ele>1577.108</ele>
        <time>2018-09-12T05:13:04Z</time>
      </trkpt>
      <trkpt lat="46.549068" lon="11.857090">
        <ele>1577.163</ele>
        <time>2018-09-12T05:13:05Z</time>
      </trkpt>
      <trkpt lat="46.549070" lon="11.857070">
        <ele>1577.165</ele>
        <time>2018-09-12T05:13:06Z</time>
      </trkpt>
      <trkpt lat="46.549070" lon="11.857052">
        <ele>1577.111</ele>
        <time>2018-09-12T05:13:07Z</time>
      </trkpt>
      <trkpt lat="46.549068" lon="11.857029">
        <ele>1577.177</ele>
        <time>2018-09-12T05:13:08Z</time>
      </trkpt>
      <trkpt lat="46.549062" lon="11.857009">
        <ele>1577.167</ele>
        <time>2018-09-12T05:13:09Z</time>
      </trkpt>
      <trkpt lat="46.549056" lon="11.856986">
        <ele>1577.127</ele>
        <time>2018-09-12T05:13:10Z</time>
      </trkpt>
      <trkpt lat="46.549051" lon="11.856963">
        <ele>1577.110</ele>
        <time>2018-09-12T05:13:11Z</time>
      </trkpt>
      <trkpt lat="46.549045" lon="11.856942">
        <ele>1577.696</ele>
        <time>2018-09-12T05:13:12Z</time>
      </trkpt>
      <trkpt lat="46.548986" lon="11.856584">
        <ele>1579.521</ele>
        <time>2018-09-12T05:13:30Z</time>
      </trkpt>
      <trkpt lat="46.548958" lon="11.856306">
        <ele>1582.941</ele>
        <time>2018-09-12T05:13:48Z</time>
      </trkpt>
      <trkpt lat="46.548954" lon="11.856290">
        <ele>1582.405</ele>
        <time>2018-09-12T05:13:49Z</time>
      </trkpt>
      <trkpt lat="46.548897" lon="11.856015">
        <ele>1585.808</ele>
        <time>2018-09-12T05:14:07Z</time>
      </trkpt>
      <trkpt lat="46.548823" lon="11.855709">
        <ele>1586.326</ele>
        <time>2018-09-12T05:14:23Z</time>
      </trkpt>
      <trkpt lat="46.548773" lon="11.855507">
        <ele>1586.758</ele>
        <time>2018-09-12T05:14:32Z</time>
      </trkpt>
      <trkpt lat="46.548773" lon="11.855483">
        <ele>1586.724</ele>
        <time>2018-09-12T05:14:33Z</time>
      </trkpt>
      <trkpt lat="46.548772" lon="11.855461">
        <ele>1586.730</ele>
        <time>2018-09-12T05:14:34Z</time>
      </trkpt>
      <trkpt lat="46.548773" lon="11.855440">
        <ele>1586.340</ele>
        <time>2018-09-12T05:14:35Z</time>
      </trkpt>
      <trkpt lat="46.548773" lon="11.855421">
        <ele>1586.380</ele>
        <time>2018-09-12T05:14:36Z</time>
      </trkpt>
      <trkpt lat="46.548770" lon="11.855399">
        <ele>1585.813</ele>
        <time>2018-09-12T05:14:37Z</time>
      </trkpt>
      <trkpt lat="46.548710" lon="11.855091">
        <ele>1587.799</ele>
        <time>2018-09-12T05:14:51Z</time>
      </trkpt>
      <trkpt lat="46.548648" lon="11.854803">
        <ele>1590.686</ele>
        <time>2018-09-12T05:15:04Z</time>
      </trkpt>
      <trkpt lat="46.548571" lon="11.854443">
        <ele>1592.060</ele>
        <time>2018-09-12T05:15:20Z</time>
      </trkpt>
      <trkpt lat="46.548543" lon="11.854316">
        <ele>1593.026</ele>
        <time>2018-09-12T05:15:26Z</time>
      </trkpt>
      <trkpt lat="46.548545" lon="11.854301">
        <ele>1593.008</ele>
        <time>2018-09-12T05:15:27Z</time>
      </trkpt>
      <trkpt lat="46.548545" lon="11.854284">
        <ele>1593.062</ele>
        <time>2018-09-12T05:15:28Z</time>
      </trkpt>
      <trkpt lat="46.548544" lon="11.854266">
        <ele>1593.054</ele>
        <time>2018-09-12T05:15:29Z</time>
      </trkpt>
      <trkpt lat="46.548544" lon="11.854245">
        <ele>1593.510</ele>
        <time>2018-09-12T05:15:30Z</time>
      </trkpt>
      <trkpt lat="46.548542" lon="11.854226">
        <ele>1593.586</ele>
        <time>2018-09-12T05:15:31Z</time>
      </trkpt>
      <trkpt lat="46.548543" lon="11.854204">
        <ele>1594.096</ele>
        <time>2018-09-12T05:15:32Z</time>
      </trkpt>
      <trkpt lat="46.548605" lon="11.853796">
        <ele>1594.456</ele>
        <time>2018-09-12T05:15:51Z</time>
      </trkpt>
      <trkpt lat="46.548610" lon="11.853775">
        <ele>1594.959</ele>
        <time>2018-09-12T05:15:52Z</time>
      </trkpt>
      <trkpt lat="46.548662" lon="11.853635">
        <ele>1595.445</ele>
        <time>2018-09-12T05:15:59Z</time>
      </trkpt>
      <trkpt lat="46.548672" lon="11.853617">
        <ele>1595.443</ele>
        <time>2018-09-12T05:16:00Z</time>
      </trkpt>
      <trkpt lat="46.548895" lon="11.853236">
        <ele>1595.464</ele>
        <time>2018-09-12T05:16:20Z</time>
      </trkpt>
      <trkpt lat="46.549047" lon="11.852911">
        <ele>1597.810</ele>
        <time>2018-09-12T05:16:38Z</time>
      </trkpt>
      <trkpt lat="46.549051" lon="11.852813">
        <ele>1598.308</ele>
        <time>2018-09-12T05:16:43Z</time>
      </trkpt>
      <trkpt lat="46.549045" lon="11.852795">
        <ele>1598.348</ele>
        <time>2018-09-12T05:16:44Z</time>
      </trkpt>
      <trkpt lat="46.549013" lon="11.852491">
        <ele>1600.220</ele>
        <time>2018-09-12T05:17:00Z</time>
      </trkpt>
      <trkpt lat="46.549024" lon="11.852439">
        <ele>1600.776</ele>
        <time>2018-09-12T05:17:03Z</time>
      </trkpt>
      <trkpt lat="46.549078" lon="11.852237">
        <ele>1603.142</ele>
        <time>2018-09-12T05:17:16Z</time>
      </trkpt>
      <trkpt lat="46.549079" lon="11.852223">
        <ele>1603.132</ele>
        <time>2018-09-12T05:17:17Z</time>
      </trkpt>
      <trkpt lat="46.549118" lon="11.851976">
        <ele>1606.582</ele>
        <time>2018-09-12T05:17:34Z</time>
      </trkpt>
      <trkpt lat="46.549174" lon="11.851722">
        <ele>1608.495</ele>
        <time>2018-09-12T05:17:51Z</time>
      </trkpt>
      <trkpt lat="46.549221" lon="11.851425">
        <ele>1609.341</ele>
        <time>2018-09-12T05:18:09Z</time>
      </trkpt>
      <trkpt lat="46.549235" lon="11.851382">
        <ele>1609.331</ele>
        <time>2018-09-12T05:18:12Z</time>
      </trkpt>
      <trkpt lat="46.549242" lon="11.851366">
        <ele>1609.861</ele>
        <time>2018-09-12T05:18:13Z</time>
      </trkpt>
      <trkpt lat="46.549248" lon="11.851349">
        <ele>1609.807</ele>
        <time>2018-09-12T05:18:14Z</time>
      </trkpt>
      <trkpt lat="46.549270" lon="11.851254">
        <ele>1609.308</ele>
        <time>2018-09-12T05:18:20Z</time>
      </trkpt>
      <trkpt lat="46.549273" lon="11.851238">
        <ele>1609.317</ele>
        <time>2018-09-12T05:18:21Z</time>
      </trkpt>
      <trkpt lat="46.549276" lon="11.851220">
        <ele>1609.359</ele>
        <time>2018-09-12T05:18:22Z</time>
      </trkpt>
      <trkpt lat="46.549279" lon="11.851203">
        <ele>1609.875</ele>
        <time>2018-09-12T05:18:23Z</time>
      </trkpt>
      <trkpt lat="46.549279" lon="11.851186">
        <ele>1609.821</ele>
        <time>2018-09-12T05:18:24Z</time>
      </trkpt>
      <trkpt lat="46.549280" lon="11.851170">
        <ele>1610.341</ele>
        <time>2018-09-12T05:18:25Z</time>
      </trkpt>
      <trkpt lat="46.549285" lon="11.851151">
        <ele>1610.851</ele>
        <time>2018-09-12T05:18:26Z</time>
      </trkpt>
      <trkpt lat="46.549288" lon="11.851137">
        <ele>1610.874</ele>
        <time>2018-09-12T05:18:27Z</time>
      </trkpt>
      <trkpt lat="46.549290" lon="11.851124">
        <ele>1610.830</ele>
        <time>2018-09-12T05:18:28Z</time>
      </trkpt>
      <trkpt lat="46.549275" lon="11.850832">
        <ele>1614.625</ele>
        <time>2018-09-12T05:18:47Z</time>
      </trkpt>
      <trkpt lat="46.549205" lon="11.850649">
        <ele>1619.426</ele>
        <time>2018-09-12T05:19:02Z</time>
      </trkpt>
      <trkpt lat="46.549201" lon="11.850611">
        <ele>1619.908</ele>
        <time>2018-09-12T05:19:04Z</time>
      </trkpt>
      <trkpt lat="46.549200" lon="11.850574">
        <ele>1620.408</ele>
        <time>2018-09-12T05:19:06Z</time>
      </trkpt>
      <trkpt lat="46.549187" lon="11.850525">
        <ele>1621.456</ele>
        <time>2018-09-12T05:19:09Z</time>
      </trkpt>
      <trkpt lat="46.549130" lon="11.850384">
        <ele>1624.778</ele>
        <time>2018-09-12T05:19:24Z</time>
      </trkpt>
      <trkpt lat="46.549100" lon="11.850390">
        <ele>1623.364</ele>
        <time>2018-09-12T05:19:54Z</time>
      </trkpt>
      <trkpt lat="46.549076" lon="11.850344">
        <ele>1625.770</ele>
        <time>2018-09-12T05:20:23Z</time>
      </trkpt>
      <trkpt lat="46.549039" lon="11.850315">
        <ele>1624.730</ele>
        <time>2018-09-12T05:20:36Z</time>
      </trkpt>
      <trkpt lat="46.548993" lon="11.850187">
        <ele>1626.290</ele>
        <time>2018-09-12T05:20:48Z</time>
      </trkpt>
      <trkpt lat="46.548986" lon="11.850172">
        <ele>1625.763</ele>
        <time>2018-09-12T05:20:49Z</time>
      </trkpt>
      <trkpt lat="46.548878" lon="11.850028">
        <ele>1625.239</ele>
        <time>2018-09-12T05:21:01Z</time>
      </trkpt>
      <trkpt lat="46.548712" lon="11.849831">
        <ele>1627.674</ele>
        <time>2018-09-12T05:21:15Z</time>
      </trkpt>
      <trkpt lat="46.548565" lon="11.849583">
        <ele>1629.056</ele>
        <time>2018-09-12T05:21:28Z</time>
      </trkpt>
      <trkpt lat="46.548462" lon="11.849327">
        <ele>1630.021</ele>
        <time>2018-09-12T05:21:43Z</time>
      </trkpt>
      <trkpt lat="46.548448" lon="11.849296">
        <ele>1630.008</ele>
        <time>2018-09-12T05:21:45Z</time>
      </trkpt>
      <trkpt lat="46.548440" lon="11.849283">
        <ele>1630.041</ele>
        <time>2018-09-12T05:21:46Z</time>
      </trkpt>
      <trkpt lat="46.548288" lon="11.849104">
        <ele>1631.963</ele>
        <time>2018-09-12T05:22:03Z</time>
      </trkpt>
      <trkpt lat="46.548186" lon="11.848886">
        <ele>1631.499</ele>
        <time>2018-09-12T05:22:20Z</time>
      </trkpt>
      <trkpt lat="46.548151" lon="11.848759">
        <ele>1631.965</ele>
        <time>2018-09-12T05:22:29Z</time>
      </trkpt>
      <trkpt lat="46.548047" lon="11.848531">
        <ele>1633.445</ele>
        <time>2018-09-12T05:22:47Z</time>
      </trkpt>
      <trkpt lat="46.547920" lon="11.848343">
        <ele>1635.335</ele>
        <time>2018-09-12T05:23:04Z</time>
      </trkpt>
      <trkpt lat="46.547769" lon="11.848149">
        <ele>1638.778</ele>
        <time>2018-09-12T05:23:22Z</time>
      </trkpt>
      <trkpt lat="46.547760" lon="11.848108">
        <ele>1638.774</ele>
        <time>2018-09-12T05:23:25Z</time>
      </trkpt>
      <trkpt lat="46.547748" lon="11.848099">
        <ele>1639.173</ele>
        <time>2018-09-12T05:23:26Z</time>
      </trkpt>
      <trkpt lat="46.547739" lon="11.848088">
        <ele>1639.185</ele>
        <time>2018-09-12T05:23:27Z</time>
      </trkpt>
      <trkpt lat="46.547730" lon="11.848077">
        <ele>1639.113</ele>
        <time>2018-09-12T05:23:28Z</time>
      </trkpt>
      <trkpt lat="46.547722" lon="11.848065">
        <ele>1639.108</ele>
        <time>2018-09-12T05:23:29Z</time>
      </trkpt>
      <trkpt lat="46.547714" lon="11.848051">
        <ele>1639.151</ele>
        <time>2018-09-12T05:23:30Z</time>
      </trkpt>
      <trkpt lat="46.547708" lon="11.848036">
        <ele>1639.623</ele>
        <time>2018-09-12T05:23:31Z</time>
      </trkpt>
      <trkpt lat="46.547701" lon="11.848019">
        <ele>1639.639</ele>
        <time>2018-09-12T05:23:32Z</time>
      </trkpt>
      <trkpt lat="46.547655" lon="11.847933">
        <ele>1638.235</ele>
        <time>2018-09-12T05:23:45Z</time>
      </trkpt>
      <trkpt lat="46.547635" lon="11.847885">
        <ele>1639.135</ele>
        <time>2018-09-12T05:24:07Z</time>
      </trkpt>
      <trkpt lat="46.547625" lon="11.847868">
        <ele>1639.115</ele>
        <time>2018-09-12T05:24:09Z</time>
      </trkpt>
      <trkpt lat="46.547495" lon="11.847637">
        <ele>1643.578</ele>
        <time>2018-09-12T05:24:27Z</time>
      </trkpt>
      <trkpt lat="46.547477" lon="11.847575">
        <ele>1643.994</ele>
        <time>2018-09-12T05:24:31Z</time>
      </trkpt>
      <trkpt lat="46.547467" lon="11.847571">
        <ele>1644.493</ele>
        <time>2018-09-12T05:24:32Z</time>
      </trkpt>
      <trkpt lat="46.547457" lon="11.847564">
        <ele>1643.965</ele>
        <time>2018-09-12T05:24:33Z</time>
      </trkpt>
      <trkpt lat="46.547449" lon="11.847551">
        <ele>1643.921</ele>
        <time>2018-09-12T05:24:34Z</time>
      </trkpt>
      <trkpt lat="46.547443" lon="11.847534">
        <ele>1643.908</ele>
        <time>2018-09-12T05:24:35Z</time>
      </trkpt>
      <trkpt lat="46.547438" lon="11.847519">
        <ele>1644.453</ele>
        <time>2018-09-12T05:24:36Z</time>
      </trkpt>
      <trkpt lat="46.547418" lon="11.847455">
        <ele>1644.945</ele>
        <time>2018-09-12T05:24:40Z</time>
      </trkpt>
      <trkpt lat="46.547409" lon="11.847442">
        <ele>1644.981</ele>
        <time>2018-09-12T05:24:41Z</time>
      </trkpt>
      <trkpt lat="46.547403" lon="11.847429">
        <ele>1644.957</ele>
        <time>2018-09-12T05:24:42Z</time>
      </trkpt>
      <trkpt lat="46.547400" lon="11.847414">
        <ele>1645.487</ele>
        <time>2018-09-12T05:24:43Z</time>
      </trkpt>
      <trkpt lat="46.547398" lon="11.847397">
        <ele>1645.417</ele>
        <time>2018-09-12T05:24:44Z</time>
      </trkpt>
      <trkpt lat="46.547393" lon="11.847382">
        <ele>1645.480</ele>
        <time>2018-09-12T05:24:45Z</time>
      </trkpt>
      <trkpt lat="46.547274" lon="11.847213">
        <ele>1646.816</ele>
        <time>2018-09-12T05:25:00Z</time>
      </trkpt>
      <trkpt lat="46.547233" lon="11.847175">
        <ele>1647.832</ele>
        <time>2018-09-12T05:25:04Z</time>
      </trkpt>
      <trkpt lat="46.547123" lon="11.847071">
        <ele>1649.792</ele>
        <time>2018-09-12T05:25:15Z</time>
      </trkpt>
      <trkpt lat="46.547110" lon="11.847069">
        <ele>1649.711</ele>
        <time>2018-09-12T05:25:16Z</time>
      </trkpt>
      <trkpt lat="46.546953" lon="11.847008">
        <ele>1654.008</ele>
        <time>2018-09-12T05:25:29Z</time>
      </trkpt>
      <trkpt lat="46.546794" lon="11.846825">
        <ele>1658.447</ele>
        <time>2018-09-12T05:25:45Z</time>
      </trkpt>
      <trkpt lat="46.546604" lon="11.846458">
        <ele>1656.999</ele>
        <time>2018-09-12T05:25:59Z</time>
      </trkpt>
      <trkpt lat="46.546384" lon="11.845971">
        <ele>1656.995</ele>
        <time>2018-09-12T05:26:14Z</time>
      </trkpt>
      <trkpt lat="46.546187" lon="11.845600">
        <ele>1659.831</ele>
        <time>2018-09-12T05:26:28Z</time>
      </trkpt>
      <trkpt lat="46.546138" lon="11.845301">
        <ele>1659.811</ele>
        <time>2018-09-12T05:26:41Z</time>
      </trkpt>
      <trkpt lat="46.546147" lon="11.844893">
        <ele>1660.321</ele>
        <time>2018-09-12T05:26:58Z</time>
      </trkpt>
      <trkpt lat="46.546137" lon="11.844649">
        <ele>1659.834</ele>
        <time>2018-09-12T05:27:11Z</time>
      </trkpt>
      <trkpt lat="46.546136" lon="11.844632">
        <ele>1659.870</ele>
        <time>2018-09-12T05:27:12Z</time>
      </trkpt>
      <trkpt lat="46.546132" lon="11.844615">
        <ele>1659.892</ele>
        <time>2018-09-12T05:27:13Z</time>
      </trkpt>
      <trkpt lat="46.546127" lon="11.844596">
        <ele>1659.873</ele>
        <time>2018-09-12T05:27:14Z</time>
      </trkpt>
      <trkpt lat="46.546124" lon="11.844577">
        <ele>1660.320</ele>
        <time>2018-09-12T05:27:15Z</time>
      </trkpt>
      <trkpt lat="46.546121" lon="11.844562">
        <ele>1660.308</ele>
        <time>2018-09-12T05:27:16Z</time>
      </trkpt>
      <trkpt lat="46.546116" lon="11.844543">
        <ele>1660.863</ele>
        <time>2018-09-12T05:27:17Z</time>
      </trkpt>
      <trkpt lat="46.546114" lon="11.844523">
        <ele>1660.825</ele>
        <time>2018-09-12T05:27:18Z</time>
      </trkpt>
      <trkpt lat="46.546105" lon="11.844488">
        <ele>1661.381</ele>
        <time>2018-09-12T05:27:20Z</time>
      </trkpt>
      <trkpt lat="46.546098" lon="11.844469">
        <ele>1660.887</ele>
        <time>2018-09-12T05:27:21Z</time>
      </trkpt>
      <trkpt lat="46.546041" lon="11.844242">
        <ele>1662.287</ele>
        <time>2018-09-12T05:27:36Z</time>
      </trkpt>
      <trkpt lat="46.545980" lon="11.844034">
        <ele>1665.197</ele>
        <time>2018-09-12T05:27:50Z</time>
      </trkpt>
      <trkpt lat="46.545845" lon="11.843838">
        <ele>1671.370</ele>
        <time>2018-09-12T05:28:07Z</time>
      </trkpt>
      <trkpt lat="46.545763" lon="11.843748">
        <ele>1674.726</ele>
        <time>2018-09-12T05:28:18Z</time>
      </trkpt>
      <trkpt lat="46.545755" lon="11.843734">
        <ele>1674.726</ele>
        <time>2018-09-12T05:28:19Z</time>
      </trkpt>
      <trkpt lat="46.545730" lon="11.843678">
        <ele>1674.747</ele>
        <time>2018-09-12T05:28:23Z</time>
      </trkpt>
      <trkpt lat="46.545646" lon="11.843542">
        <ele>1677.111</ele>
        <time>2018-09-12T05:28:37Z</time>
      </trkpt>
      <trkpt lat="46.545589" lon="11.843411">
        <ele>1678.108</ele>
        <time>2018-09-12T05:28:51Z</time>
      </trkpt>
      <trkpt lat="46.545521" lon="11.843276">
        <ele>1679.566</ele>
        <time>2018-09-12T05:29:05Z</time>
      </trkpt>
      <trkpt lat="46.545372" lon="11.843122">
        <ele>1682.438</ele>
        <time>2018-09-12T05:29:20Z</time>
      </trkpt>
      <trkpt lat="46.545260" lon="11.843000">
        <ele>1683.494</ele>
        <time>2018-09-12T05:29:34Z</time>
      </trkpt>
      <trkpt lat="46.545230" lon="11.842956">
        <ele>1683.450</ele>
        <time>2018-09-12T05:29:38Z</time>
      </trkpt>
      <trkpt lat="46.545222" lon="11.842942">
        <ele>1683.460</ele>
        <time>2018-09-12T05:29:39Z</time>
      </trkpt>
      <trkpt lat="46.545212" lon="11.842927">
        <ele>1683.490</ele>
        <time>2018-09-12T05:29:40Z</time>
      </trkpt>
      <trkpt lat="46.545128" lon="11.842793">
        <ele>1685.833</ele>
        <time>2018-09-12T05:29:51Z</time>
      </trkpt>
      <trkpt lat="46.545117" lon="11.842782">
        <ele>1685.819</ele>
        <time>2018-09-12T05:29:52Z</time>
      </trkpt>
      <trkpt lat="46.544986" lon="11.842557">
        <ele>1686.233</ele>
        <time>2018-09-12T05:30:07Z</time>
      </trkpt>
      <trkpt lat="46.544838" lon="11.842379">
        <ele>1688.623</ele>
        <time>2018-09-12T05:30:20Z</time>
      </trkpt>
      <trkpt lat="46.544576" lon="11.842259">
        <ele>1692.015</ele>
        <time>2018-09-12T05:30:38Z</time>
      </trkpt>
      <trkpt lat="46.544411" lon="11.842089">
        <ele>1694.908</ele>
        <time>2018-09-12T05:30:54Z</time>
      </trkpt>
      <trkpt lat="46.544260" lon="11.841824">
        <ele>1696.897</ele>
        <time>2018-09-12T05:31:11Z</time>
      </trkpt>
      <trkpt lat="46.544063" lon="11.841634">
        <ele>1695.989</ele>
        <time>2018-09-12T05:31:27Z</time>
      </trkpt>
      <trkpt lat="46.544049" lon="11.841635">
        <ele>1695.915</ele>
        <time>2018-09-12T05:31:28Z</time>
      </trkpt>
      <trkpt lat="46.544036" lon="11.841639">
        <ele>1695.921</ele>
        <time>2018-09-12T05:31:29Z</time>
      </trkpt>
      <trkpt lat="46.544024" lon="11.841638">
        <ele>1695.991</ele>
        <time>2018-09-12T05:31:30Z</time>
      </trkpt>
      <trkpt lat="46.544014" lon="11.841639">
        <ele>1696.341</ele>
        <time>2018-09-12T05:31:31Z</time>
      </trkpt>
      <trkpt lat="46.544002" lon="11.841640">
        <ele>1696.314</ele>
        <time>2018-09-12T05:31:32Z</time>
      </trkpt>
      <trkpt lat="46.543990" lon="11.841639">
        <ele>1696.820</ele>
        <time>2018-09-12T05:31:33Z</time>
      </trkpt>
      <trkpt lat="46.543977" lon="11.841639">
        <ele>1696.893</ele>
        <time>2018-09-12T05:31:34Z</time>
      </trkpt>
      <trkpt lat="46.543766" lon="11.841647">
        <ele>1699.765</ele>
        <time>2018-09-12T05:31:49Z</time>
      </trkpt>
      <trkpt lat="46.543549" lon="11.841649">
        <ele>1700.721</ele>
        <time>2018-09-12T05:32:05Z</time>
      </trkpt>
      <trkpt lat="46.543339" lon="11.841511">
        <ele>1698.708</ele>
        <time>2018-09-12T05:32:14Z</time>
      </trkpt>
      <trkpt lat="46.543336" lon="11.841286">
        <ele>1700.733</ele>
        <time>2018-09-12T05:32:24Z</time>
      </trkpt>
      <trkpt lat="46.543300" lon="11.840915">
        <ele>1701.165</ele>
        <time>2018-09-12T05:32:39Z</time>
      </trkpt>
      <trkpt lat="46.543173" lon="11.840631">
        <ele>1704.081</ele>
        <time>2018-09-12T05:32:52Z</time>
      </trkpt>
      <trkpt lat="46.543071" lon="11.840362">
        <ele>1706.927</ele>
        <time>2018-09-12T05:33:08Z</time>
      </trkpt>
      <trkpt lat="46.542944" lon="11.840110">
        <ele>1708.867</ele>
        <time>2018-09-12T05:33:23Z</time>
      </trkpt>
      <trkpt lat="46.542789" lon="11.839751">
        <ele>1708.867</ele>
        <time>2018-09-12T05:33:41Z</time>
      </trkpt>
      <trkpt lat="46.542675" lon="11.839603">
        <ele>1708.490</ele>
        <time>2018-09-12T05:33:50Z</time>
      </trkpt>
      <trkpt lat="46.542665" lon="11.839586">
        <ele>1708.476</ele>
        <time>2018-09-12T05:33:51Z</time>
      </trkpt>
      <trkpt lat="46.542654" lon="11.839571">
        <ele>1708.892</ele>
        <time>2018-09-12T05:33:52Z</time>
      </trkpt>
      <trkpt lat="46.542642" lon="11.839557">
        <ele>1708.873</ele>
        <time>2018-09-12T05:33:53Z</time>
      </trkpt>
      <trkpt lat="46.542629" lon="11.839540">
        <ele>1708.820</ele>
        <time>2018-09-12T05:33:54Z</time>
      </trkpt>
      <trkpt lat="46.542462" lon="11.839162">
        <ele>1708.408</ele>
        <time>2018-09-12T05:34:07Z</time>
      </trkpt>
      <trkpt lat="46.542453" lon="11.838888">
        <ele>1707.463</ele>
        <time>2018-09-12T05:34:18Z</time>
      </trkpt>
      <trkpt lat="46.542380" lon="11.838317">
        <ele>1704.025</ele>
        <time>2018-09-12T05:34:32Z</time>
      </trkpt>
      <trkpt lat="46.542206" lon="11.837571">
        <ele>1701.611</ele>
        <time>2018-09-12T05:34:46Z</time>
      </trkpt>
      <trkpt lat="46.542145" lon="11.836968">
        <ele>1701.137</ele>
        <time>2018-09-12T05:34:58Z</time>
      </trkpt>
      <trkpt lat="46.542233" lon="11.836559">
        <ele>1704.017</ele>
        <time>2018-09-12T05:35:12Z</time>
      </trkpt>
      <trkpt lat="46.542288" lon="11.836065">
        <ele>1705.577</ele>
        <time>2018-09-12T05:35:32Z</time>
      </trkpt>
      <trkpt lat="46.542402" lon="11.835661">
        <ele>1707.420</ele>
        <time>2018-09-12T05:35:49Z</time>
      </trkpt>
      <trkpt lat="46.542441" lon="11.835276">
        <ele>1710.346</ele>
        <time>2018-09-12T05:36:05Z</time>
      </trkpt>
      <trkpt lat="46.542484" lon="11.835002">
        <ele>1711.276</ele>
        <time>2018-09-12T05:36:15Z</time>
      </trkpt>
      <trkpt lat="46.542490" lon="11.834978">
        <ele>1711.290</ele>
        <time>2018-09-12T05:36:16Z</time>
      </trkpt>
      <trkpt lat="46.542624" lon="11.834561">
        <ele>1712.719</ele>
        <time>2018-09-12T05:36:33Z</time>
      </trkpt>
      <trkpt lat="46.542745" lon="11.834187">
        <ele>1714.108</ele>
        <time>2018-09-12T05:36:49Z</time>
      </trkpt>
      <trkpt lat="46.542875" lon="11.833860">
        <ele>1716.541</ele>
        <time>2018-09-12T05:37:04Z</time>
      </trkpt>
      <trkpt lat="46.543074" lon="11.833627">
        <ele>1716.543</ele>
        <time>2018-09-12T05:37:19Z</time>
      </trkpt>
      <trkpt lat="46.543223" lon="11.833462">
        <ele>1715.699</ele>
        <time>2018-09-12T05:37:32Z</time>
      </trkpt>
      <trkpt lat="46.543232" lon="11.833442">
        <ele>1715.685</ele>
        <time>2018-09-12T05:37:33Z</time>
      </trkpt>
      <trkpt lat="46.543244" lon="11.833426">
        <ele>1715.185</ele>
        <time>2018-09-12T05:37:34Z</time>
      </trkpt>
      <trkpt lat="46.543257" lon="11.833414">
        <ele>1715.175</ele>
        <time>2018-09-12T05:37:35Z</time>
      </trkpt>
      <trkpt lat="46.543271" lon="11.833403">
        <ele>1716.058</ele>
        <time>2018-09-12T05:37:36Z</time>
      </trkpt>
      <trkpt lat="46.543392" lon="11.833351">
        <ele>1719.424</ele>
        <time>2018-09-12T05:37:45Z</time>
      </trkpt>
      <trkpt lat="46.543689" lon="11.833293">
        <ele>1725.773</ele>
        <time>2018-09-12T05:38:03Z</time>
      </trkpt>
      <trkpt lat="46.543893" lon="11.833091">
        <ele>1726.185</ele>
        <time>2018-09-12T05:38:20Z</time>
      </trkpt>
      <trkpt lat="46.543929" lon="11.833050">
        <ele>1726.113</ele>
        <time>2018-09-12T05:38:23Z</time>
      </trkpt>
      <trkpt lat="46.543940" lon="11.833038">
        <ele>1726.108</ele>
        <time>2018-09-12T05:38:24Z</time>
      </trkpt>
      <trkpt lat="46.543951" lon="11.833025">
        <ele>1726.131</ele>
        <time>2018-09-12T05:38:25Z</time>
      </trkpt>
      <trkpt lat="46.544013" lon="11.832984">
        <ele>1725.783</ele>
        <time>2018-09-12T05:38:30Z</time>
      </trkpt>
      <trkpt lat="46.544030" lon="11.832990">
        <ele>1725.279</ele>
        <time>2018-09-12T05:38:31Z</time>
      </trkpt>
      <trkpt lat="46.544044" lon="11.832997">
        <ele>1725.275</ele>
        <time>2018-09-12T05:38:32Z</time>
      </trkpt>
      <trkpt lat="46.544052" lon="11.833008">
        <ele>1725.235</ele>
        <time>2018-09-12T05:38:33Z</time>
      </trkpt>
      <trkpt lat="46.544056" lon="11.833034">
        <ele>1725.775</ele>
        <time>2018-09-12T05:38:43Z</time>
      </trkpt>
      <trkpt lat="46.544042" lon="11.832988">
        <ele>1725.768</ele>
        <time>2018-09-12T05:38:59Z</time>
      </trkpt>
      <trkpt lat="46.544034" lon="11.833019">
        <ele>1724.214</ele>
        <time>2018-09-12T05:39:30Z</time>
      </trkpt>
      <trkpt lat="46.544054" lon="11.833027">
        <ele>1721.865</ele>
        <time>2018-09-12T05:40:06Z</time>
      </trkpt>
      <trkpt lat="46.544096" lon="11.833202">
        <ele>1722.368</ele>
        <time>2018-09-12T05:40:18Z</time>
      </trkpt>
      <trkpt lat="46.544256" lon="11.833537">
        <ele>1723.714</ele>
        <time>2018-09-12T05:40:34Z</time>
      </trkpt>
      <trkpt lat="46.544506" lon="11.833788">
        <ele>1723.708</ele>
        <time>2018-09-12T05:40:45Z</time>
      </trkpt>
      <trkpt lat="46.544644" lon="11.834001">
        <ele>1726.650</ele>
        <time>2018-09-12T05:40:56Z</time>
      </trkpt>
      <trkpt lat="46.544784" lon="11.834331">
        <ele>1727.172</ele>
        <time>2018-09-12T05:41:09Z</time>
      </trkpt>
      <trkpt lat="46.544968" lon="11.834783">
        <ele>1725.718</ele>
        <time>2018-09-12T05:41:23Z</time>
      </trkpt>
      <trkpt lat="46.545180" lon="11.835287">
        <ele>1722.354</ele>
        <time>2018-09-12T05:41:36Z</time>
      </trkpt>
      <trkpt lat="46.545445" lon="11.835897">
        <ele>1719.424</ele>
        <time>2018-09-12T05:41:50Z</time>
      </trkpt>
      <trkpt lat="46.545669" lon="11.836496">
        <ele>1717.084</ele>
        <time>2018-09-12T05:42:05Z</time>
      </trkpt>
      <trkpt lat="46.545852" lon="11.837024">
        <ele>1714.657</ele>
        <time>2018-09-12T05:42:18Z</time>
      </trkpt>
      <trkpt lat="46.546056" lon="11.837306">
        <ele>1713.293</ele>
        <time>2018-09-12T05:42:32Z</time>
      </trkpt>
      <trkpt lat="46.546072" lon="11.837308">
        <ele>1713.241</ele>
        <time>2018-09-12T05:42:33Z</time>
      </trkpt>
      <trkpt lat="46.546149" lon="11.837177">
        <ele>1714.681</ele>
        <time>2018-09-12T05:42:45Z</time>
      </trkpt>
      <trkpt lat="46.546187" lon="11.837137">
        <ele>1715.609</ele>
        <time>2018-09-12T05:42:49Z</time>
      </trkpt>
      <trkpt lat="46.546374" lon="11.836999">
        <ele>1717.008</ele>
        <time>2018-09-12T05:43:08Z</time>
      </trkpt>
      <trkpt lat="46.546504" lon="11.836980">
        <ele>1717.078</ele>
        <time>2018-09-12T05:43:19Z</time>
      </trkpt>
      <trkpt lat="46.546535" lon="11.836943">
        <ele>1717.010</ele>
        <time>2018-09-12T05:43:22Z</time>
      </trkpt>
      <trkpt lat="46.546635" lon="11.836806">
        <ele>1719.416</ele>
        <time>2018-09-12T05:43:40Z</time>
      </trkpt>
      <trkpt lat="46.546688" lon="11.836782">
        <ele>1720.442</ele>
        <time>2018-09-12T05:43:49Z</time>
      </trkpt>
      <trkpt lat="46.546802" lon="11.836710">
        <ele>1722.852</ele>
        <time>2018-09-12T05:44:06Z</time>
      </trkpt>
      <trkpt lat="46.546901" lon="11.836621">
        <ele>1723.722</ele>
        <time>2018-09-12T05:44:20Z</time>
      </trkpt>
      <trkpt lat="46.547004" lon="11.836512">
        <ele>1725.795</ele>
        <time>2018-09-12T05:44:34Z</time>
      </trkpt>
      <trkpt lat="46.547140" lon="11.836391">
        <ele>1727.661</ele>
        <time>2018-09-12T05:44:49Z</time>
      </trkpt>
      <trkpt lat="46.547204" lon="11.836264">
        <ele>1728.596</ele>
        <time>2018-09-12T05:45:03Z</time>
      </trkpt>
      <trkpt lat="46.547285" lon="11.836098">
        <ele>1731.431</ele>
        <time>2018-09-12T05:45:20Z</time>
      </trkpt>
      <trkpt lat="46.547317" lon="11.836061">
        <ele>1731.924</ele>
        <time>2018-09-12T05:45:28Z</time>
      </trkpt>
      <trkpt lat="46.547364" lon="11.836038">
        <ele>1731.408</ele>
        <time>2018-09-12T05:45:31Z</time>
      </trkpt>
      <trkpt lat="46.547459" lon="11.836099">
        <ele>1730.063</ele>
        <time>2018-09-12T05:45:38Z</time>
      </trkpt>
      <trkpt lat="46.547499" lon="11.836308">
        <ele>1732.425</ele>
        <time>2018-09-12T05:45:50Z</time>
      </trkpt>
      <trkpt lat="46.547537" lon="11.836384">
        <ele>1732.471</ele>
        <time>2018-09-12T05:45:54Z</time>
      </trkpt>
      <trkpt lat="46.547552" lon="11.836407">
        <ele>1732.457</ele>
        <time>2018-09-12T05:45:55Z</time>
      </trkpt>
      <trkpt lat="46.547569" lon="11.836430">
        <ele>1732.447</ele>
        <time>2018-09-12T05:45:56Z</time>
      </trkpt>
      <trkpt lat="46.547590" lon="11.836449">
        <ele>1731.947</ele>
        <time>2018-09-12T05:45:57Z</time>
      </trkpt>
      <trkpt lat="46.547610" lon="11.836466">
        <ele>1731.990</ele>
        <time>2018-09-12T05:45:58Z</time>
      </trkpt>
      <trkpt lat="46.547626" lon="11.836478">
        <ele>1731.486</ele>
        <time>2018-09-12T05:45:59Z</time>
      </trkpt>
      <trkpt lat="46.547640" lon="11.836486">
        <ele>1731.452</ele>
        <time>2018-09-12T05:46:00Z</time>
      </trkpt>
      <trkpt lat="46.547656" lon="11.836493">
        <ele>1731.453</ele>
        <time>2018-09-12T05:46:01Z</time>
      </trkpt>
      <trkpt lat="46.547673" lon="11.836500">
        <ele>1731.408</ele>
        <time>2018-09-12T05:46:02Z</time>
      </trkpt>
      <trkpt lat="46.547690" lon="11.836506">
        <ele>1731.908</ele>
        <time>2018-09-12T05:46:03Z</time>
      </trkpt>
      <trkpt lat="46.547707" lon="11.836507">
        <ele>1731.419</ele>
        <time>2018-09-12T05:46:04Z</time>
      </trkpt>
      <trkpt lat="46.547725" lon="11.836507">
        <ele>1731.421</ele>
        <time>2018-09-12T05:46:05Z</time>
      </trkpt>
      <trkpt lat="46.547988" lon="11.836592">
        <ele>1730.067</ele>
        <time>2018-09-12T05:46:19Z</time>
      </trkpt>
      <trkpt lat="46.548233" lon="11.836635">
        <ele>1729.583</ele>
        <time>2018-09-12T05:46:31Z</time>
      </trkpt>
      <trkpt lat="46.548392" lon="11.836687">
        <ele>1728.563</ele>
        <time>2018-09-12T05:46:44Z</time>
      </trkpt>
      <trkpt lat="46.548449" lon="11.836765">
        <ele>1728.553</ele>
        <time>2018-09-12T05:46:53Z</time>
      </trkpt>
      <trkpt lat="46.548456" lon="11.836781">
        <ele>1728.596</ele>
        <time>2018-09-12T05:46:54Z</time>
      </trkpt>
      <trkpt lat="46.548584" lon="11.837130">
        <ele>1726.662</ele>
        <time>2018-09-12T05:47:07Z</time>
      </trkpt>
      <trkpt lat="46.548744" lon="11.837358">
        <ele>1727.169</ele>
        <time>2018-09-12T05:47:21Z</time>
      </trkpt>
      <trkpt lat="46.548978" lon="11.837577">
        <ele>1728.504</ele>
        <time>2018-09-12T05:47:35Z</time>
      </trkpt>
      <trkpt lat="46.549100" lon="11.837776">
        <ele>1729.024</ele>
        <time>2018-09-12T05:47:44Z</time>
      </trkpt>
      <trkpt lat="46.548987" lon="11.838316">
        <ele>1732.908</ele>
        <time>2018-09-12T05:48:02Z</time>
      </trkpt>
      <trkpt lat="46.548981" lon="11.838864">
        <ele>1738.290</ele>
        <time>2018-09-12T05:48:22Z</time>
      </trkpt>
      <trkpt lat="46.549105" lon="11.839382">
        <ele>1741.072</ele>
        <time>2018-09-12T05:48:42Z</time>
      </trkpt>
      <trkpt lat="46.549239" lon="11.839758">
        <ele>1742.578</ele>
        <time>2018-09-12T05:49:00Z</time>
      </trkpt>
      <trkpt lat="46.549292" lon="11.840166">
        <ele>1744.474</ele>
        <time>2018-09-12T05:49:17Z</time>
      </trkpt>
      <trkpt lat="46.549485" lon="11.840150">
        <ele>1743.924</ele>
        <time>2018-09-12T05:49:29Z</time>
      </trkpt>
      <trkpt lat="46.549473" lon="11.839798">
        <ele>1745.834</ele>
        <time>2018-09-12T05:49:42Z</time>
      </trkpt>
      <trkpt lat="46.549399" lon="11.839253">
        <ele>1750.277</ele>
        <time>2018-09-12T05:50:03Z</time>
      </trkpt>
      <trkpt lat="46.549350" lon="11.838748">
        <ele>1753.173</ele>
        <time>2018-09-12T05:50:22Z</time>
      </trkpt>
      <trkpt lat="46.549384" lon="11.838259">
        <ele>1758.871</ele>
        <time>2018-09-12T05:50:41Z</time>
      </trkpt>
      <trkpt lat="46.549429" lon="11.837821">
        <ele>1761.741</ele>
        <time>2018-09-12T05:51:00Z</time>
      </trkpt>
      <trkpt lat="46.549502" lon="11.837341">
        <ele>1765.115</ele>
        <time>2018-09-12T05:51:21Z</time>
      </trkpt>
      <trkpt lat="46.549568" lon="11.836939">
        <ele>1767.008</ele>
        <time>2018-09-12T05:51:38Z</time>
      </trkpt>
      <trkpt lat="46.549630" lon="11.836533">
        <ele>1769.911</ele>
        <time>2018-09-12T05:51:55Z</time>
      </trkpt>
      <trkpt lat="46.549654" lon="11.836335">
        <ele>1768.993</ele>
        <time>2018-09-12T05:52:03Z</time>
      </trkpt>
      <trkpt lat="46.549661" lon="11.836311">
        <ele>1768.939</ele>
        <time>2018-09-12T05:52:04Z</time>
      </trkpt>
      <trkpt lat="46.549667" lon="11.836290">
        <ele>1768.955</ele>
        <time>2018-09-12T05:52:05Z</time>
      </trkpt>
      <trkpt lat="46.549664" lon="11.835896">
        <ele>1769.435</ele>
        <time>2018-09-12T05:52:22Z</time>
      </trkpt>
      <trkpt lat="46.549703" lon="11.835417">
        <ele>1772.385</ele>
        <time>2018-09-12T05:52:42Z</time>
      </trkpt>
      <trkpt lat="46.549761" lon="11.835005">
        <ele>1772.838</ele>
        <time>2018-09-12T05:52:59Z</time>
      </trkpt>
      <trkpt lat="46.549695" lon="11.834525">
        <ele>1774.714</ele>
        <time>2018-09-12T05:53:19Z</time>
      </trkpt>
      <trkpt lat="46.549647" lon="11.834128">
        <ele>1774.713</ele>
        <time>2018-09-12T05:53:36Z</time>
      </trkpt>
      <trkpt lat="46.549567" lon="11.833584">
        <ele>1776.143</ele>
        <time>2018-09-12T05:53:59Z</time>
      </trkpt>
      <trkpt lat="46.549492" lon="11.833119">
        <ele>1778.507</ele>
        <time>2018-09-12T05:54:19Z</time>
      </trkpt>
      <trkpt lat="46.549388" lon="11.832640">
        <ele>1781.408</ele>
        <time>2018-09-12T05:54:39Z</time>
      </trkpt>
      <trkpt lat="46.549245" lon="11.832247">
        <ele>1784.355</ele>
        <time>2018-09-12T05:54:57Z</time>
      </trkpt>
      <trkpt lat="46.549107" lon="11.831845">
        <ele>1786.727</ele>
        <time>2018-09-12T05:55:16Z</time>
      </trkpt>
      <trkpt lat="46.549024" lon="11.831470">
        <ele>1789.133</ele>
        <time>2018-09-12T05:55:33Z</time>
      </trkpt>
      <trkpt lat="46.548957" lon="11.831017">
        <ele>1790.599</ele>
        <time>2018-09-12T05:55:54Z</time>
      </trkpt>
      <trkpt lat="46.548936" lon="11.830691">
        <ele>1793.099</ele>
        <time>2018-09-12T05:56:08Z</time>
      </trkpt>
      <trkpt lat="46.548926" lon="11.830527">
        <ele>1793.489</ele>
        <time>2018-09-12T05:56:22Z</time>
      </trkpt>
      <trkpt lat="46.548913" lon="11.830529">
        <ele>1794.982</ele>
        <time>2018-09-12T05:56:49Z</time>
      </trkpt>
      <trkpt lat="46.548920" lon="11.830545">
        <ele>1798.248</ele>
        <time>2018-09-12T05:57:15Z</time>
      </trkpt>
      <trkpt lat="46.548919" lon="11.830503">
        <ele>1796.837</ele>
        <time>2018-09-12T05:57:37Z</time>
      </trkpt>
      <trkpt lat="46.548915" lon="11.830488">
        <ele>1796.349</ele>
        <time>2018-09-12T05:57:38Z</time>
      </trkpt>
      <trkpt lat="46.548912" lon="11.830470">
        <ele>1796.313</ele>
        <time>2018-09-12T05:57:39Z</time>
      </trkpt>
      <trkpt lat="46.548913" lon="11.830402">
        <ele>1796.808</ele>
        <time>2018-09-12T05:57:42Z</time>
      </trkpt>
      <trkpt lat="46.548919" lon="11.830379">
        <ele>1796.817</ele>
        <time>2018-09-12T05:57:43Z</time>
      </trkpt>
      <trkpt lat="46.548941" lon="11.830341">
        <ele>1797.389</ele>
        <time>2018-09-12T05:57:45Z</time>
      </trkpt>
      <trkpt lat="46.548960" lon="11.830333">
        <ele>1797.815</ele>
        <time>2018-09-12T05:57:46Z</time>
      </trkpt>
      <trkpt lat="46.548979" lon="11.830329">
        <ele>1797.891</ele>
        <time>2018-09-12T05:57:47Z</time>
      </trkpt>
      <trkpt lat="46.548997" lon="11.830335">
        <ele>1798.211</ele>
        <time>2018-09-12T05:57:48Z</time>
      </trkpt>
      <trkpt lat="46.549011" lon="11.830352">
        <ele>1798.291</ele>
        <time>2018-09-12T05:57:49Z</time>
      </trkpt>
      <trkpt lat="46.549024" lon="11.830372">
        <ele>1798.274</ele>
        <time>2018-09-12T05:57:50Z</time>
      </trkpt>
      <trkpt lat="46.549034" lon="11.830395">
        <ele>1798.780</ele>
        <time>2018-09-12T05:57:51Z</time>
      </trkpt>
      <trkpt lat="46.549231" lon="11.830864">
        <ele>1800.243</ele>
        <time>2018-09-12T05:58:13Z</time>
      </trkpt>
      <trkpt lat="46.549455" lon="11.831261">
        <ele>1802.664</ele>
        <time>2018-09-12T05:58:34Z</time>
      </trkpt>
      <trkpt lat="46.549710" lon="11.831695">
        <ele>1805.410</ele>
        <time>2018-09-12T05:58:57Z</time>
      </trkpt>
      <trkpt lat="46.549904" lon="11.832028">
        <ele>1808.308</ele>
        <time>2018-09-12T05:59:15Z</time>
      </trkpt>
      <trkpt lat="46.550115" lon="11.832377">
        <ele>1811.258</ele>
        <time>2018-09-12T05:59:34Z</time>
      </trkpt>
      <trkpt lat="46.550340" lon="11.832778">
        <ele>1814.190</ele>
        <time>2018-09-12T05:59:56Z</time>
      </trkpt>
      <trkpt lat="46.550636" lon="11.833299">
        <ele>1817.026</ele>
        <time>2018-09-12T06:00:24Z</time>
      </trkpt>
      <trkpt lat="46.550750" lon="11.833503">
        <ele>1818.452</ele>
        <time>2018-09-12T06:00:35Z</time>
      </trkpt>
      <trkpt lat="46.550766" lon="11.833512">
        <ele>1818.452</ele>
        <time>2018-09-12T06:00:36Z</time>
      </trkpt>
      <trkpt lat="46.550912" lon="11.833288">
        <ele>1818.932</ele>
        <time>2018-09-12T06:00:48Z</time>
      </trkpt>
      <trkpt lat="46.550679" lon="11.832808">
        <ele>1819.475</ele>
        <time>2018-09-12T06:01:04Z</time>
      </trkpt>
      <trkpt lat="46.550546" lon="11.832312">
        <ele>1821.351</ele>
        <time>2018-09-12T06:01:24Z</time>
      </trkpt>
      <trkpt lat="46.550477" lon="11.831788">
        <ele>1822.895</ele>
        <time>2018-09-12T06:01:45Z</time>
      </trkpt>
      <trkpt lat="46.550418" lon="11.831349">
        <ele>1825.649</ele>
        <time>2018-09-12T06:02:04Z</time>
      </trkpt>
      <trkpt lat="46.550316" lon="11.830770">
        <ele>1830.023</ele>
        <time>2018-09-12T06:02:29Z</time>
      </trkpt>
      <trkpt lat="46.550220" lon="11.830265">
        <ele>1831.908</ele>
        <time>2018-09-12T06:02:51Z</time>
      </trkpt>
      <trkpt lat="46.550125" lon="11.829774">
        <ele>1835.293</ele>
        <time>2018-09-12T06:03:12Z</time>
      </trkpt>
      <trkpt lat="46.550039" lon="11.829375">
        <ele>1836.795</ele>
        <time>2018-09-12T06:03:29Z</time>
      </trkpt>
      <trkpt lat="46.549948" lon="11.828838">
        <ele>1838.691</ele>
        <time>2018-09-12T06:03:52Z</time>
      </trkpt>
      <trkpt lat="46.549896" lon="11.828331">
        <ele>1841.097</ele>
        <time>2018-09-12T06:04:13Z</time>
      </trkpt>
      <trkpt lat="46.549855" lon="11.827906">
        <ele>1842.577</ele>
        <time>2018-09-12T06:04:31Z</time>
      </trkpt>
      <trkpt lat="46.549805" lon="11.827419">
        <ele>1845.387</ele>
        <time>2018-09-12T06:04:52Z</time>
      </trkpt>
      <trkpt lat="46.549707" lon="11.826986">
        <ele>1847.390</ele>
        <time>2018-09-12T06:05:12Z</time>
      </trkpt>
      <trkpt lat="46.549555" lon="11.826613">
        <ele>1851.666</ele>
        <time>2018-09-12T06:05:30Z</time>
      </trkpt>
      <trkpt lat="46.549461" lon="11.826375">
        <ele>1855.029</ele>
        <time>2018-09-12T06:05:42Z</time>
      </trkpt>
      <trkpt lat="46.549464" lon="11.826326">
        <ele>1855.400</ele>
        <time>2018-09-12T06:05:44Z</time>
      </trkpt>
      <trkpt lat="46.549473" lon="11.826305">
        <ele>1855.420</ele>
        <time>2018-09-12T06:05:45Z</time>
      </trkpt>
      <trkpt lat="46.549484" lon="11.826287">
        <ele>1855.908</ele>
        <time>2018-09-12T06:05:46Z</time>
      </trkpt>
      <trkpt lat="46.549501" lon="11.826275">
        <ele>1855.986</ele>
        <time>2018-09-12T06:05:47Z</time>
      </trkpt>
      <trkpt lat="46.549519" lon="11.826269">
        <ele>1856.448</ele>
        <time>2018-09-12T06:05:48Z</time>
      </trkpt>
      <trkpt lat="46.549537" lon="11.826273">
        <ele>1856.934</ele>
        <time>2018-09-12T06:05:49Z</time>
      </trkpt>
      <trkpt lat="46.549552" lon="11.826286">
        <ele>1857.410</ele>
        <time>2018-09-12T06:05:50Z</time>
      </trkpt>
      <trkpt lat="46.549566" lon="11.826305">
        <ele>1857.490</ele>
        <time>2018-09-12T06:05:51Z</time>
      </trkpt>
      <trkpt lat="46.549575" lon="11.826327">
        <ele>1857.440</ele>
        <time>2018-09-12T06:05:52Z</time>
      </trkpt>
      <trkpt lat="46.549585" lon="11.826350">
        <ele>1857.463</ele>
        <time>2018-09-12T06:05:53Z</time>
      </trkpt>
      <trkpt lat="46.549595" lon="11.826371">
        <ele>1857.449</ele>
        <time>2018-09-12T06:05:54Z</time>
      </trkpt>
      <trkpt lat="46.549606" lon="11.826391">
        <ele>1857.437</ele>
        <time>2018-09-12T06:05:55Z</time>
      </trkpt>
      <trkpt lat="46.549820" lon="11.826810">
        <ele>1861.749</ele>
        <time>2018-09-12T06:06:16Z</time>
      </trkpt>
      <trkpt lat="46.549984" lon="11.827299">
        <ele>1865.513</ele>
        <time>2018-09-12T06:06:38Z</time>
      </trkpt>
      <trkpt lat="46.550135" lon="11.827709">
        <ele>1868.408</ele>
        <time>2018-09-12T06:06:57Z</time>
      </trkpt>
      <trkpt lat="46.550298" lon="11.828221">
        <ele>1870.877</ele>
        <time>2018-09-12T06:07:20Z</time>
      </trkpt>
      <trkpt lat="46.550422" lon="11.828593">
        <ele>1873.249</ele>
        <time>2018-09-12T06:07:37Z</time>
      </trkpt>
      <trkpt lat="46.550549" lon="11.828416">
        <ele>1875.155</ele>
        <time>2018-09-12T06:07:46Z</time>
      </trkpt>
      <trkpt lat="46.550470" lon="11.827978">
        <ele>1875.641</ele>
        <time>2018-09-12T06:08:00Z</time>
      </trkpt>
      <trkpt lat="46.550407" lon="11.827609">
        <ele>1875.681</ele>
        <time>2018-09-12T06:08:12Z</time>
      </trkpt>
      <trkpt lat="46.550347" lon="11.827366">
        <ele>1877.121</ele>
        <time>2018-09-12T06:08:24Z</time>
      </trkpt>
      <trkpt lat="46.550265" lon="11.826960">
        <ele>1880.954</ele>
        <time>2018-09-12T06:08:42Z</time>
      </trkpt>
      <trkpt lat="46.550187" lon="11.826589">
        <ele>1881.460</ele>
        <time>2018-09-12T06:08:59Z</time>
      </trkpt>
      <trkpt lat="46.550082" lon="11.826097">
        <ele>1883.324</ele>
        <time>2018-09-12T06:09:21Z</time>
      </trkpt>
      <trkpt lat="46.549986" lon="11.825666">
        <ele>1887.204</ele>
        <time>2018-09-12T06:09:41Z</time>
      </trkpt>
      <trkpt lat="46.549886" lon="11.825216">
        <ele>1890.514</ele>
        <time>2018-09-12T06:10:01Z</time>
      </trkpt>
      <trkpt lat="46.549794" lon="11.824840">
        <ele>1895.308</ele>
        <time>2018-09-12T06:10:18Z</time>
      </trkpt>
      <trkpt lat="46.549659" lon="11.824551">
        <ele>1897.326</ele>
        <time>2018-09-12T06:10:33Z</time>
      </trkpt>
      <trkpt lat="46.549394" lon="11.824503">
        <ele>1898.768</ele>
        <time>2018-09-12T06:10:49Z</time>
      </trkpt>
      <trkpt lat="46.549012" lon="11.824530">
        <ele>1901.124</ele>
        <time>2018-09-12T06:11:11Z</time>
      </trkpt>
      <trkpt lat="46.548850" lon="11.824372">
        <ele>1903.560</ele>
        <time>2018-09-12T06:11:23Z</time>
      </trkpt>
      <trkpt lat="46.548585" lon="11.824047">
        <ele>1907.330</ele>
        <time>2018-09-12T06:11:44Z</time>
      </trkpt>
      <trkpt lat="46.548322" lon="11.823950">
        <ele>1909.360</ele>
        <time>2018-09-12T06:12:00Z</time>
      </trkpt>
      <trkpt lat="46.548247" lon="11.823760">
        <ele>1910.793</ele>
        <time>2018-09-12T06:12:12Z</time>
      </trkpt>
      <trkpt lat="46.548528" lon="11.823605">
        <ele>1914.129</ele>
        <time>2018-09-12T06:12:30Z</time>
      </trkpt>
      <trkpt lat="46.548851" lon="11.823599">
        <ele>1916.054</ele>
        <time>2018-09-12T06:12:49Z</time>
      </trkpt>
      <trkpt lat="46.549102" lon="11.823836">
        <ele>1919.456</ele>
        <time>2018-09-12T06:13:07Z</time>
      </trkpt>
      <trkpt lat="46.549293" lon="11.823909">
        <ele>1920.811</ele>
        <time>2018-09-12T06:13:19Z</time>
      </trkpt>
      <trkpt lat="46.549305" lon="11.823887">
        <ele>1921.308</ele>
        <time>2018-09-12T06:13:20Z</time>
      </trkpt>
      <trkpt lat="46.549310" lon="11.823863">
        <ele>1921.379</ele>
        <time>2018-09-12T06:13:21Z</time>
      </trkpt>
      <trkpt lat="46.549313" lon="11.823832">
        <ele>1921.831</ele>
        <time>2018-09-12T06:13:22Z</time>
      </trkpt>
      <trkpt lat="46.549313" lon="11.823799">
        <ele>1921.897</ele>
        <time>2018-09-12T06:13:23Z</time>
      </trkpt>
      <trkpt lat="46.549307" lon="11.823768">
        <ele>1922.213</ele>
        <time>2018-09-12T06:13:24Z</time>
      </trkpt>
      <trkpt lat="46.549297" lon="11.823735">
        <ele>1922.253</ele>
        <time>2018-09-12T06:13:25Z</time>
      </trkpt>
      <trkpt lat="46.549286" lon="11.823702">
        <ele>1922.283</ele>
        <time>2018-09-12T06:13:26Z</time>
      </trkpt>
      <trkpt lat="46.549273" lon="11.823669">
        <ele>1922.246</ele>
        <time>2018-09-12T06:13:27Z</time>
      </trkpt>
      <trkpt lat="46.549034" lon="11.823172">
        <ele>1923.742</ele>
        <time>2018-09-12T06:13:46Z</time>
      </trkpt>
      <trkpt lat="46.548709" lon="11.823053">
        <ele>1927.196</ele>
        <time>2018-09-12T06:14:07Z</time>
      </trkpt>
      <trkpt lat="46.548407" lon="11.822956">
        <ele>1929.531</ele>
        <time>2018-09-12T06:14:26Z</time>
      </trkpt>
      <trkpt lat="46.548163" lon="11.822671">
        <ele>1929.524</ele>
        <time>2018-09-12T06:14:45Z</time>
      </trkpt>
      <trkpt lat="46.547894" lon="11.822826">
        <ele>1931.908</ele>
        <time>2018-09-12T06:15:00Z</time>
      </trkpt>
      <trkpt lat="46.547803" lon="11.822839">
        <ele>1932.353</ele>
        <time>2018-09-12T06:15:05Z</time>
      </trkpt>
      <trkpt lat="46.547786" lon="11.822822">
        <ele>1932.325</ele>
        <time>2018-09-12T06:15:06Z</time>
      </trkpt>
      <trkpt lat="46.547774" lon="11.822801">
        <ele>1932.381</ele>
        <time>2018-09-12T06:15:07Z</time>
      </trkpt>
      <trkpt lat="46.547773" lon="11.822777">
        <ele>1932.337</ele>
        <time>2018-09-12T06:15:08Z</time>
      </trkpt>
      <trkpt lat="46.547777" lon="11.822752">
        <ele>1932.817</ele>
        <time>2018-09-12T06:15:09Z</time>
      </trkpt>
      <trkpt lat="46.547792" lon="11.822710">
        <ele>1933.327</ele>
        <time>2018-09-12T06:15:11Z</time>
      </trkpt>
      <trkpt lat="46.547802" lon="11.822693">
        <ele>1933.860</ele>
        <time>2018-09-12T06:15:12Z</time>
      </trkpt>
      <trkpt lat="46.547972" lon="11.822456">
        <ele>1938.176</ele>
        <time>2018-09-12T06:15:29Z</time>
      </trkpt>
      <trkpt lat="46.548174" lon="11.822249">
        <ele>1941.519</ele>
        <time>2018-09-12T06:15:48Z</time>
      </trkpt>
      <trkpt lat="46.548429" lon="11.822302">
        <ele>1942.409</ele>
        <time>2018-09-12T06:16:06Z</time>
      </trkpt>
      <trkpt lat="46.548729" lon="11.822363">
        <ele>1943.919</ele>
        <time>2018-09-12T06:16:26Z</time>
      </trkpt>
      <trkpt lat="46.549038" lon="11.822356">
        <ele>1946.808</ele>
        <time>2018-09-12T06:16:45Z</time>
      </trkpt>
      <trkpt lat="46.549285" lon="11.822451">
        <ele>1949.615</ele>
        <time>2018-09-12T06:17:00Z</time>
      </trkpt>
      <trkpt lat="46.549304" lon="11.822443">
        <ele>1949.697</ele>
        <time>2018-09-12T06:17:01Z</time>
      </trkpt>
      <trkpt lat="46.549319" lon="11.822425">
        <ele>1949.653</ele>
        <time>2018-09-12T06:17:02Z</time>
      </trkpt>
      <trkpt lat="46.549326" lon="11.822395">
        <ele>1949.649</ele>
        <time>2018-09-12T06:17:03Z</time>
      </trkpt>
      <trkpt lat="46.549327" lon="11.822364">
        <ele>1950.149</ele>
        <time>2018-09-12T06:17:04Z</time>
      </trkpt>
      <trkpt lat="46.549320" lon="11.822330">
        <ele>1950.199</ele>
        <time>2018-09-12T06:17:05Z</time>
      </trkpt>
      <trkpt lat="46.549310" lon="11.822293">
        <ele>1950.192</ele>
        <time>2018-09-12T06:17:06Z</time>
      </trkpt>
      <trkpt lat="46.549295" lon="11.822257">
        <ele>1950.168</ele>
        <time>2018-09-12T06:17:07Z</time>
      </trkpt>
      <trkpt lat="46.549277" lon="11.822225">
        <ele>1950.142</ele>
        <time>2018-09-12T06:17:08Z</time>
      </trkpt>
      <trkpt lat="46.549251" lon="11.822198">
        <ele>1950.122</ele>
        <time>2018-09-12T06:17:09Z</time>
      </trkpt>
      <trkpt lat="46.549226" lon="11.822174">
        <ele>1950.614</ele>
        <time>2018-09-12T06:17:10Z</time>
      </trkpt>
      <trkpt lat="46.548897" lon="11.821896">
        <ele>1953.508</ele>
        <time>2018-09-12T06:17:27Z</time>
      </trkpt>
      <trkpt lat="46.548551" lon="11.821590">
        <ele>1956.428</ele>
        <time>2018-09-12T06:17:50Z</time>
      </trkpt>
      <trkpt lat="46.548222" lon="11.821580">
        <ele>1959.720</ele>
        <time>2018-09-12T06:18:09Z</time>
      </trkpt>
      <trkpt lat="46.547924" lon="11.821556">
        <ele>1961.226</ele>
        <time>2018-09-12T06:18:25Z</time>
      </trkpt>
      <trkpt lat="46.547614" lon="11.821472">
        <ele>1960.752</ele>
        <time>2018-09-12T06:18:37Z</time>
      </trkpt>
      <trkpt lat="46.547588" lon="11.821433">
        <ele>1961.292</ele>
        <time>2018-09-12T06:18:39Z</time>
      </trkpt>
      <trkpt lat="46.547582" lon="11.821410">
        <ele>1961.212</ele>
        <time>2018-09-12T06:18:40Z</time>
      </trkpt>
      <trkpt lat="46.547580" lon="11.821386">
        <ele>1961.755</ele>
        <time>2018-09-12T06:18:41Z</time>
      </trkpt>
      <trkpt lat="46.547739" lon="11.821215">
        <ele>1965.551</ele>
        <time>2018-09-12T06:18:56Z</time>
      </trkpt>
      <trkpt lat="46.547878" lon="11.821140">
        <ele>1967.478</ele>
        <time>2018-09-12T06:19:07Z</time>
      </trkpt>
      <trkpt lat="46.547888" lon="11.821131">
        <ele>1967.433</ele>
        <time>2018-09-12T06:19:08Z</time>
      </trkpt>
      <trkpt lat="46.547900" lon="11.821125">
        <ele>1967.926</ele>
        <time>2018-09-12T06:19:09Z</time>
      </trkpt>
      <trkpt lat="46.547913" lon="11.821119">
        <ele>1967.908</ele>
        <time>2018-09-12T06:19:10Z</time>
      </trkpt>
      <trkpt lat="46.547926" lon="11.821111">
        <ele>1968.471</ele>
        <time>2018-09-12T06:19:11Z</time>
      </trkpt>
      <trkpt lat="46.547938" lon="11.821102">
        <ele>1968.463</ele>
        <time>2018-09-12T06:19:12Z</time>
      </trkpt>
      <trkpt lat="46.548133" lon="11.820962">
        <ele>1972.279</ele>
        <time>2018-09-12T06:19:31Z</time>
      </trkpt>
      <trkpt lat="46.548371" lon="11.820814">
        <ele>1975.125</ele>
        <time>2018-09-12T06:19:54Z</time>
      </trkpt>
      <trkpt lat="46.548576" lon="11.820871">
        <ele>1975.155</ele>
        <time>2018-09-12T06:20:11Z</time>
      </trkpt>
      <trkpt lat="46.548799" lon="11.821052">
        <ele>1977.055</ele>
        <time>2018-09-12T06:20:29Z</time>
      </trkpt>
      <trkpt lat="46.549091" lon="11.821161">
        <ele>1979.488</ele>
        <time>2018-09-12T06:20:50Z</time>
      </trkpt>
      <trkpt lat="46.549417" lon="11.821074">
        <ele>1982.864</ele>
        <time>2018-09-12T06:21:11Z</time>
      </trkpt>
      <trkpt lat="46.549677" lon="11.821104">
        <ele>1985.212</ele>
        <time>2018-09-12T06:21:28Z</time>
      </trkpt>
      <trkpt lat="46.549654" lon="11.820779">
        <ele>1986.732</ele>
        <time>2018-09-12T06:21:42Z</time>
      </trkpt>
      <trkpt lat="46.549390" lon="11.820604">
        <ele>1988.605</ele>
        <time>2018-09-12T06:21:59Z</time>
      </trkpt>
      <trkpt lat="46.549144" lon="11.820547">
        <ele>1991.508</ele>
        <time>2018-09-12T06:22:16Z</time>
      </trkpt>
      <trkpt lat="46.549126" lon="11.820137">
        <ele>1993.415</ele>
        <time>2018-09-12T06:22:34Z</time>
      </trkpt>
      <trkpt lat="46.549158" lon="11.819783">
        <ele>1995.857</ele>
        <time>2018-09-12T06:22:50Z</time>
      </trkpt>
      <trkpt lat="46.548898" lon="11.819410">
        <ele>1997.263</ele>
        <time>2018-09-12T06:23:05Z</time>
      </trkpt>
      <trkpt lat="46.548674" lon="11.818929">
        <ele>1998.289</ele>
        <time>2018-09-12T06:23:20Z</time>
      </trkpt>
      <trkpt lat="46.548781" lon="11.818685">
        <ele>2003.029</ele>
        <time>2018-09-12T06:23:36Z</time>
      </trkpt>
      <trkpt lat="46.548900" lon="11.818386">
        <ele>2004.499</ele>
        <time>2018-09-12T06:23:55Z</time>
      </trkpt>
      <trkpt lat="46.548964" lon="11.818011">
        <ele>2005.452</ele>
        <time>2018-09-12T06:24:13Z</time>
      </trkpt>
      <trkpt lat="46.548856" lon="11.817599">
        <ele>2006.858</ele>
        <time>2018-09-12T06:24:33Z</time>
      </trkpt>
      <trkpt lat="46.548759" lon="11.817196">
        <ele>2009.234</ele>
        <time>2018-09-12T06:24:53Z</time>
      </trkpt>
      <trkpt lat="46.548732" lon="11.817026">
        <ele>2010.755</ele>
        <time>2018-09-12T06:25:08Z</time>
      </trkpt>
      <trkpt lat="46.548731" lon="11.817019">
        <ele>2010.710</ele>
        <time>2018-09-12T06:25:32Z</time>
      </trkpt>
      <trkpt lat="46.548683" lon="11.816853">
        <ele>2009.708</ele>
        <time>2018-09-12T06:25:49Z</time>
      </trkpt>
      <trkpt lat="46.548737" lon="11.816321">
        <ele>2014.147</ele>
        <time>2018-09-12T06:26:05Z</time>
      </trkpt>
      <trkpt lat="46.548971" lon="11.816206">
        <ele>2016.999</ele>
        <time>2018-09-12T06:26:19Z</time>
      </trkpt>
      <trkpt lat="46.549117" lon="11.816607">
        <ele>2018.445</ele>
        <time>2018-09-12T06:26:36Z</time>
      </trkpt>
      <trkpt lat="46.549300" lon="11.817021">
        <ele>2021.771</ele>
        <time>2018-09-12T06:26:53Z</time>
      </trkpt>
      <trkpt lat="46.549308" lon="11.817040">
        <ele>2021.741</ele>
        <time>2018-09-12T06:26:54Z</time>
      </trkpt>
      <trkpt lat="46.549312" lon="11.817061">
        <ele>2022.261</ele>
        <time>2018-09-12T06:26:55Z</time>
      </trkpt>
      <trkpt lat="46.549417" lon="11.817484">
        <ele>2023.714</ele>
        <time>2018-09-12T06:27:13Z</time>
      </trkpt>
      <trkpt lat="46.549602" lon="11.817500">
        <ele>2023.280</ele>
        <time>2018-09-12T06:27:25Z</time>
      </trkpt>
      <trkpt lat="46.549607" lon="11.817470">
        <ele>2023.262</ele>
        <time>2018-09-12T06:27:26Z</time>
      </trkpt>
      <trkpt lat="46.549521" lon="11.817024">
        <ele>2025.183</ele>
        <time>2018-09-12T06:27:41Z</time>
      </trkpt>
      <trkpt lat="46.549437" lon="11.816473">
        <ele>2027.511</ele>
        <time>2018-09-12T06:28:02Z</time>
      </trkpt>
      <trkpt lat="46.549467" lon="11.816113">
        <ele>2029.408</ele>
        <time>2018-09-12T06:28:17Z</time>
      </trkpt>
      <trkpt lat="46.549596" lon="11.815600">
        <ele>2032.880</ele>
        <time>2018-09-12T06:28:40Z</time>
      </trkpt>
      <trkpt lat="46.549733" lon="11.815146">
        <ele>2034.272</ele>
        <time>2018-09-12T06:29:00Z</time>
      </trkpt>
      <trkpt lat="46.549768" lon="11.814629">
        <ele>2037.658</ele>
        <time>2018-09-12T06:29:21Z</time>
      </trkpt>
      <trkpt lat="46.549629" lon="11.814274">
        <ele>2041.564</ele>
        <time>2018-09-12T06:29:37Z</time>
      </trkpt>
      <trkpt lat="46.549358" lon="11.814030">
        <ele>2044.824</ele>
        <time>2018-09-12T06:29:55Z</time>
      </trkpt>
      <trkpt lat="46.549181" lon="11.814021">
        <ele>2045.344</ele>
        <time>2018-09-12T06:30:05Z</time>
      </trkpt>
      <trkpt lat="46.549171" lon="11.814000">
        <ele>2045.847</ele>
        <time>2018-09-12T06:30:06Z</time>
      </trkpt>
      <trkpt lat="46.549165" lon="11.813975">
        <ele>2045.843</ele>
        <time>2018-09-12T06:30:07Z</time>
      </trkpt>
      <trkpt lat="46.549170" lon="11.813946">
        <ele>2046.378</ele>
        <time>2018-09-12T06:30:08Z</time>
      </trkpt>
      <trkpt lat="46.549179" lon="11.813921">
        <ele>2046.333</ele>
        <time>2018-09-12T06:30:09Z</time>
      </trkpt>
      <trkpt lat="46.549195" lon="11.813906">
        <ele>2046.326</ele>
        <time>2018-09-12T06:30:10Z</time>
      </trkpt>
      <trkpt lat="46.549215" lon="11.813894">
        <ele>2046.708</ele>
        <time>2018-09-12T06:30:11Z</time>
      </trkpt>
      <trkpt lat="46.549237" lon="11.813889">
        <ele>2046.761</ele>
        <time>2018-09-12T06:30:12Z</time>
      </trkpt>
      <trkpt lat="46.549257" lon="11.813885">
        <ele>2046.753</ele>
        <time>2018-09-12T06:30:13Z</time>
      </trkpt>
      <trkpt lat="46.549632" lon="11.813774">
        <ele>2049.159</ele>
        <time>2018-09-12T06:30:29Z</time>
      </trkpt>
      <trkpt lat="46.549845" lon="11.813563">
        <ele>2051.575</ele>
        <time>2018-09-12T06:30:42Z</time>
      </trkpt>
      <trkpt lat="46.550058" lon="11.813655">
        <ele>2053.055</ele>
        <time>2018-09-12T06:30:57Z</time>
      </trkpt>
      <trkpt lat="46.550152" lon="11.814016">
        <ele>2054.995</ele>
        <time>2018-09-12T06:31:13Z</time>
      </trkpt>
      <trkpt lat="46.550269" lon="11.814523">
        <ele>2057.838</ele>
        <time>2018-09-12T06:31:34Z</time>
      </trkpt>
      <trkpt lat="46.550344" lon="11.814981">
        <ele>2059.774</ele>
        <time>2018-09-12T06:31:53Z</time>
      </trkpt>
      <trkpt lat="46.550534" lon="11.815267">
        <ele>2062.164</ele>
        <time>2018-09-12T06:32:09Z</time>
      </trkpt>
      <trkpt lat="46.550748" lon="11.815561">
        <ele>2065.006</ele>
        <time>2018-09-12T06:32:27Z</time>
      </trkpt>
      <trkpt lat="46.550858" lon="11.815923">
        <ele>2066.916</ele>
        <time>2018-09-12T06:32:44Z</time>
      </trkpt>
      <trkpt lat="46.551018" lon="11.815688">
        <ele>2066.408</ele>
        <time>2018-09-12T06:32:55Z</time>
      </trkpt>
      <trkpt lat="46.550872" lon="11.815237">
        <ele>2069.370</ele>
        <time>2018-09-12T06:33:10Z</time>
      </trkpt>
      <trkpt lat="46.550715" lon="11.814850">
        <ele>2073.232</ele>
        <time>2018-09-12T06:33:29Z</time>
      </trkpt>
      <trkpt lat="46.550716" lon="11.814378">
        <ele>2075.158</ele>
        <time>2018-09-12T06:33:48Z</time>
      </trkpt>
      <trkpt lat="46.550833" lon="11.813991">
        <ele>2077.594</ele>
        <time>2018-09-12T06:34:06Z</time>
      </trkpt>
      <trkpt lat="46.550875" lon="11.813553">
        <ele>2080.964</ele>
        <time>2018-09-12T06:34:25Z</time>
      </trkpt>
      <trkpt lat="46.550822" lon="11.813068">
        <ele>2083.724</ele>
        <time>2018-09-12T06:34:45Z</time>
      </trkpt>
      <trkpt lat="46.550861" lon="11.812550">
        <ele>2087.147</ele>
        <time>2018-09-12T06:35:07Z</time>
      </trkpt>
      <trkpt lat="46.551105" lon="11.812371">
        <ele>2089.013</ele>
        <time>2018-09-12T06:35:24Z</time>
      </trkpt>
      <trkpt lat="46.551330" lon="11.812605">
        <ele>2092.443</ele>
        <time>2018-09-12T06:35:41Z</time>
      </trkpt>
      <trkpt lat="46.551671" lon="11.812663">
        <ele>2094.864</ele>
        <time>2018-09-12T06:36:01Z</time>
      </trkpt>
      <trkpt lat="46.551745" lon="11.812258">
        <ele>2096.210</ele>
        <time>2018-09-12T06:36:14Z</time>
      </trkpt>
      <trkpt lat="46.551740" lon="11.811792">
        <ele>2098.208</ele>
        <time>2018-09-12T06:36:32Z</time>
      </trkpt>
      <trkpt lat="46.551781" lon="11.811254">
        <ele>2100.678</ele>
        <time>2018-09-12T06:36:53Z</time>
      </trkpt>
      <trkpt lat="46.551694" lon="11.810868">
        <ele>2103.060</ele>
        <time>2018-09-12T06:37:10Z</time>
      </trkpt>
      <trkpt lat="46.551406" lon="11.810697">
        <ele>2105.486</ele>
        <time>2018-09-12T06:37:28Z</time>
      </trkpt>
      <trkpt lat="46.551113" lon="11.810489">
        <ele>2108.732</ele>
        <time>2018-09-12T06:37:47Z</time>
      </trkpt>
      <trkpt lat="46.550875" lon="11.810095">
        <ele>2111.612</ele>
        <time>2018-09-12T06:38:08Z</time>
      </trkpt>
      <trkpt lat="46.550621" lon="11.809751">
        <ele>2115.082</ele>
        <time>2018-09-12T06:38:28Z</time>
      </trkpt>
      <trkpt lat="46.550388" lon="11.809420">
        <ele>2117.475</ele>
        <time>2018-09-12T06:38:47Z</time>
      </trkpt>
      <trkpt lat="46.550185" lon="11.809225">
        <ele>2118.851</ele>
        <time>2018-09-12T06:39:01Z</time>
      </trkpt>
      <trkpt lat="46.550166" lon="11.809230">
        <ele>2119.318</ele>
        <time>2018-09-12T06:39:02Z</time>
      </trkpt>
      <trkpt lat="46.550144" lon="11.809231">
        <ele>2119.398</ele>
        <time>2018-09-12T06:39:03Z</time>
      </trkpt>
      <trkpt lat="46.550132" lon="11.809224">
        <ele>2119.317</ele>
        <time>2018-09-12T06:39:04Z</time>
      </trkpt>
      <trkpt lat="46.550119" lon="11.809212">
        <ele>2119.808</ele>
        <time>2018-09-12T06:39:05Z</time>
      </trkpt>
      <trkpt lat="46.550106" lon="11.809196">
        <ele>2119.865</ele>
        <time>2018-09-12T06:39:06Z</time>
      </trkpt>
      <trkpt lat="46.550091" lon="11.809182">
        <ele>2119.877</ele>
        <time>2018-09-12T06:39:07Z</time>
      </trkpt>
      <trkpt lat="46.550077" lon="11.809165">
        <ele>2120.343</ele>
        <time>2018-09-12T06:39:08Z</time>
      </trkpt>
      <trkpt lat="46.550063" lon="11.809149">
        <ele>2120.349</ele>
        <time>2018-09-12T06:39:09Z</time>
      </trkpt>
      <trkpt lat="46.549996" lon="11.809099">
        <ele>2121.779</ele>
        <time>2018-09-12T06:39:22Z</time>
      </trkpt>
      <trkpt lat="46.549926" lon="11.809003">
        <ele>2123.239</ele>
        <time>2018-09-12T06:39:47Z</time>
      </trkpt>
      <trkpt lat="46.549831" lon="11.808547">
        <ele>2124.192</ele>
        <time>2018-09-12T06:40:07Z</time>
      </trkpt>
      <trkpt lat="46.549897" lon="11.808217">
        <ele>2123.258</ele>
        <time>2018-09-12T06:40:22Z</time>
      </trkpt>
      <trkpt lat="46.550072" lon="11.807820">
        <ele>2121.771</ele>
        <time>2018-09-12T06:40:36Z</time>
      </trkpt>
      <trkpt lat="46.550089" lon="11.807205">
        <ele>2119.841</ele>
        <time>2018-09-12T06:40:51Z</time>
      </trkpt>
      <trkpt lat="46.549889" lon="11.806784">
        <ele>2119.815</ele>
        <time>2018-09-12T06:41:05Z</time>
      </trkpt>
      <trkpt lat="46.549816" lon="11.806616">
        <ele>2119.308</ele>
        <time>2018-09-12T06:41:11Z</time>
      </trkpt>
      <trkpt lat="46.549744" lon="11.806463">
        <ele>2117.991</ele>
        <time>2018-09-12T06:41:19Z</time>
      </trkpt>
      <trkpt lat="46.549519" lon="11.805833">
        <ele>2116.033</ele>
        <time>2018-09-12T06:41:32Z</time>
      </trkpt>
      <trkpt lat="46.549488" lon="11.805787">
        <ele>2116.079</ele>
        <time>2018-09-12T06:41:33Z</time>
      </trkpt>
      <trkpt lat="46.549213" lon="11.805516">
        <ele>2113.125</ele>
        <time>2018-09-12T06:41:39Z</time>
      </trkpt>
      <trkpt lat="46.549170" lon="11.805451">
        <ele>2112.655</ele>
        <time>2018-09-12T06:41:40Z</time>
      </trkpt>
      <trkpt lat="46.549140" lon="11.805373">
        <ele>2112.625</ele>
        <time>2018-09-12T06:41:41Z</time>
      </trkpt>
      <trkpt lat="46.549113" lon="11.805304">
        <ele>2112.188</ele>
        <time>2018-09-12T06:41:42Z</time>
      </trkpt>
      <trkpt lat="46.549082" lon="11.805243">
        <ele>2112.114</ele>
        <time>2018-09-12T06:41:43Z</time>
      </trkpt>
      <trkpt lat="46.549050" lon="11.805196">
        <ele>2111.619</ele>
        <time>2018-09-12T06:41:44Z</time>
      </trkpt>
      <trkpt lat="46.549026" lon="11.805165">
        <ele>2111.609</ele>
        <time>2018-09-12T06:41:45Z</time>
      </trkpt>
      <trkpt lat="46.549014" lon="11.805151">
        <ele>2110.719</ele>
        <time>2018-09-12T06:41:54Z</time>
      </trkpt>
      <trkpt lat="46.549004" lon="11.805183">
        <ele>2111.108</ele>
        <time>2018-09-12T06:42:26Z</time>
      </trkpt>
      <trkpt lat="46.548995" lon="11.805166">
        <ele>2112.135</ele>
        <time>2018-09-12T06:42:49Z</time>
      </trkpt>
      <trkpt lat="46.548991" lon="11.805169">
        <ele>2112.117</ele>
        <time>2018-09-12T06:43:03Z</time>
      </trkpt>
      <trkpt lat="46.548995" lon="11.805175">
        <ele>2113.623</ele>
        <time>2018-09-12T06:43:45Z</time>
      </trkpt>
      <trkpt lat="46.548993" lon="11.805176">
        <ele>2113.189</ele>
        <time>2018-09-12T06:44:33Z</time>
      </trkpt>
      <trkpt lat="46.548977" lon="11.805202">
        <ele>2113.179</ele>
        <time>2018-09-12T06:45:00Z</time>
      </trkpt>
      <trkpt lat="46.548963" lon="11.805548">
        <ele>2111.119</ele>
        <time>2018-09-12T06:45:08Z</time>
      </trkpt>
      <trkpt lat="46.548962" lon="11.805812">
        <ele>2109.772</ele>
        <time>2018-09-12T06:45:14Z</time>
      </trkpt>
      <trkpt lat="46.548947" lon="11.805813">
        <ele>2109.228</ele>
        <time>2018-09-12T06:45:15Z</time>
      </trkpt>
      <trkpt lat="46.548934" lon="11.805802">
        <ele>2109.265</ele>
        <time>2018-09-12T06:45:16Z</time>
      </trkpt>
      <trkpt lat="46.548926" lon="11.805778">
        <ele>2108.768</ele>
        <time>2018-09-12T06:45:17Z</time>
      </trkpt>
      <trkpt lat="46.548918" lon="11.805749">
        <ele>2108.314</ele>
        <time>2018-09-12T06:45:18Z</time>
      </trkpt>
      <trkpt lat="46.548766" lon="11.805416">
        <ele>2103.008</ele>
        <time>2018-09-12T06:45:27Z</time>
      </trkpt>
      <trkpt lat="46.548773" lon="11.805060">
        <ele>2099.160</ele>
        <time>2018-09-12T06:45:34Z</time>
      </trkpt>
      <trkpt lat="46.548789" lon="11.804995">
        <ele>2098.762</ele>
        <time>2018-09-12T06:45:35Z</time>
      </trkpt>
      <trkpt lat="46.548729" lon="11.804632">
        <ele>2095.898</ele>
        <time>2018-09-12T06:45:43Z</time>
      </trkpt>
      <trkpt lat="46.548701" lon="11.804631">
        <ele>2095.314</ele>
        <time>2018-09-12T06:45:44Z</time>
      </trkpt>
      <trkpt lat="46.548672" lon="11.804645">
        <ele>2094.854</ele>
        <time>2018-09-12T06:45:45Z</time>
      </trkpt>
      <trkpt lat="46.548613" lon="11.804662">
        <ele>2093.474</ele>
        <time>2018-09-12T06:45:47Z</time>
      </trkpt>
      <trkpt lat="46.548586" lon="11.804640">
        <ele>2092.937</ele>
        <time>2018-09-12T06:45:48Z</time>
      </trkpt>
      <trkpt lat="46.548562" lon="11.804605">
        <ele>2092.413</ele>
        <time>2018-09-12T06:45:49Z</time>
      </trkpt>
      <trkpt lat="46.548546" lon="11.804558">
        <ele>2092.434</ele>
        <time>2018-09-12T06:45:50Z</time>
      </trkpt>
      <trkpt lat="46.548543" lon="11.804507">
        <ele>2091.955</ele>
        <time>2018-09-12T06:45:51Z</time>
      </trkpt>
      <trkpt lat="46.548545" lon="11.804452">
        <ele>2091.010</ele>
        <time>2018-09-12T06:45:52Z</time>
      </trkpt>
      <trkpt lat="46.548531" lon="11.804338">
        <ele>2090.008</ele>
        <time>2018-09-12T06:45:54Z</time>
      </trkpt>
      <trkpt lat="46.548531" lon="11.804276">
        <ele>2089.577</ele>
        <time>2018-09-12T06:45:55Z</time>
      </trkpt>
      <trkpt lat="46.548545" lon="11.804215">
        <ele>2089.099</ele>
        <time>2018-09-12T06:45:56Z</time>
      </trkpt>
      <trkpt lat="46.548560" lon="11.804153">
        <ele>2089.065</ele>
        <time>2018-09-12T06:45:57Z</time>
      </trkpt>
      <trkpt lat="46.548566" lon="11.804089">
        <ele>2089.051</ele>
        <time>2018-09-12T06:45:58Z</time>
      </trkpt>
      <trkpt lat="46.548564" lon="11.804036">
        <ele>2088.631</ele>
        <time>2018-09-12T06:45:59Z</time>
      </trkpt>
      <trkpt lat="46.548561" lon="11.803993">
        <ele>2088.671</ele>
        <time>2018-09-12T06:46:00Z</time>
      </trkpt>
      <trkpt lat="46.548532" lon="11.803746">
        <ele>2085.764</ele>
        <time>2018-09-12T06:46:06Z</time>
      </trkpt>
      <trkpt lat="46.548509" lon="11.803720">
        <ele>2085.280</ele>
        <time>2018-09-12T06:46:07Z</time>
      </trkpt>
      <trkpt lat="46.548481" lon="11.803698">
        <ele>2083.753</ele>
        <time>2018-09-12T06:46:08Z</time>
      </trkpt>
      <trkpt lat="46.548451" lon="11.803674">
        <ele>2082.804</ele>
        <time>2018-09-12T06:46:09Z</time>
      </trkpt>
      <trkpt lat="46.548425" lon="11.803637">
        <ele>2081.814</ele>
        <time>2018-09-12T06:46:10Z</time>
      </trkpt>
      <trkpt lat="46.548403" lon="11.803593">
        <ele>2080.908</ele>
        <time>2018-09-12T06:46:11Z</time>
      </trkpt>
      <trkpt lat="46.548138" lon="11.803314">
        <ele>2073.279</ele>
        <time>2018-09-12T06:46:22Z</time>
      </trkpt>
      <trkpt lat="46.547830" lon="11.803137">
        <ele>2063.141</ele>
        <time>2018-09-12T06:46:34Z</time>
      </trkpt>
      <trkpt lat="46.547666" lon="11.802953">
        <ele>2057.347</ele>
        <time>2018-09-12T06:46:45Z</time>
      </trkpt>
      <trkpt lat="46.547390" lon="11.802817">
        <ele>2047.783</ele>
        <time>2018-09-12T06:46:58Z</time>
      </trkpt>
      <trkpt lat="46.547050" lon="11.802711">
        <ele>2040.053</ele>
        <time>2018-09-12T06:47:11Z</time>
      </trkpt>
      <trkpt lat="46.546748" lon="11.802462">
        <ele>2035.743</ele>
        <time>2018-09-12T06:47:21Z</time>
      </trkpt>
      <trkpt lat="46.546397" lon="11.802275">
        <ele>2029.916</ele>
        <time>2018-09-12T06:47:31Z</time>
      </trkpt>
      <trkpt lat="46.545925" lon="11.802217">
        <ele>2022.762</ele>
        <time>2018-09-12T06:47:44Z</time>
      </trkpt>
      <trkpt lat="46.545884" lon="11.802196">
        <ele>2022.241</ele>
        <time>2018-09-12T06:47:45Z</time>
      </trkpt>
      <trkpt lat="46.545844" lon="11.802163">
        <ele>2021.381</ele>
        <time>2018-09-12T06:47:46Z</time>
      </trkpt>
      <trkpt lat="46.545646" lon="11.801941">
        <ele>2017.409</ele>
        <time>2018-09-12T06:47:52Z</time>
      </trkpt>
      <trkpt lat="46.545616" lon="11.801892">
        <ele>2016.508</ele>
        <time>2018-09-12T06:47:53Z</time>
      </trkpt>
      <trkpt lat="46.545449" lon="11.801419">
        <ele>2012.658</ele>
        <time>2018-09-12T06:48:05Z</time>
      </trkpt>
      <trkpt lat="46.545471" lon="11.801408">
        <ele>2013.680</ele>
        <time>2018-09-12T06:48:21Z</time>
      </trkpt>
      <trkpt lat="46.545468" lon="11.801398">
        <ele>2013.686</ele>
        <time>2018-09-12T06:48:23Z</time>
      </trkpt>
      <trkpt lat="46.545463" lon="11.801374">
        <ele>2013.672</ele>
        <time>2018-09-12T06:48:24Z</time>
      </trkpt>
      <trkpt lat="46.545460" lon="11.801197">
        <ele>2012.182</ele>
        <time>2018-09-12T06:48:28Z</time>
      </trkpt>
      <trkpt lat="46.545468" lon="11.801074">
        <ele>2011.712</ele>
        <time>2018-09-12T06:48:30Z</time>
      </trkpt>
      <trkpt lat="46.545423" lon="11.800716">
        <ele>2005.435</ele>
        <time>2018-09-12T06:48:40Z</time>
      </trkpt>
      <trkpt lat="46.545175" lon="11.800238">
        <ele>1997.241</ele>
        <time>2018-09-12T06:48:53Z</time>
      </trkpt>
      <trkpt lat="46.545023" lon="11.799808">
        <ele>1993.941</ele>
        <time>2018-09-12T06:49:03Z</time>
      </trkpt>
      <trkpt lat="46.544816" lon="11.799328">
        <ele>1990.581</ele>
        <time>2018-09-12T06:49:12Z</time>
      </trkpt>
      <trkpt lat="46.544777" lon="11.799216">
        <ele>1989.109</ele>
        <time>2018-09-12T06:49:14Z</time>
      </trkpt>
      <trkpt lat="46.544377" lon="11.798252">
        <ele>1979.908</ele>
        <time>2018-09-12T06:49:29Z</time>
      </trkpt>
      <trkpt lat="46.544348" lon="11.798200">
        <ele>1979.988</ele>
        <time>2018-09-12T06:49:30Z</time>
      </trkpt>
      <trkpt lat="46.544320" lon="11.798140">
        <ele>1979.470</ele>
        <time>2018-09-12T06:49:31Z</time>
      </trkpt>
      <trkpt lat="46.544293" lon="11.798071">
        <ele>1978.516</ele>
        <time>2018-09-12T06:49:32Z</time>
      </trkpt>
      <trkpt lat="46.543943" lon="11.796934">
        <ele>1975.122</ele>
        <time>2018-09-12T06:49:46Z</time>
      </trkpt>
      <trkpt lat="46.543759" lon="11.796171">
        <ele>1974.222</ele>
        <time>2018-09-12T06:49:58Z</time>
      </trkpt>
      <trkpt lat="46.543742" lon="11.796117">
        <ele>1974.212</ele>
        <time>2018-09-12T06:49:59Z</time>
      </trkpt>
      <trkpt lat="46.543721" lon="11.796066">
        <ele>1973.755</ele>
        <time>2018-09-12T06:50:00Z</time>
      </trkpt>
      <trkpt lat="46.543647" lon="11.795903">
        <ele>1973.271</ele>
        <time>2018-09-12T06:50:03Z</time>
      </trkpt>
      <trkpt lat="46.543628" lon="11.795838">
        <ele>1973.246</ele>
        <time>2018-09-12T06:50:04Z</time>
      </trkpt>
      <trkpt lat="46.543610" lon="11.795769">
        <ele>1972.788</ele>
        <time>2018-09-12T06:50:05Z</time>
      </trkpt>
      <trkpt lat="46.543426" lon="11.795071">
        <ele>1967.416</ele>
        <time>2018-09-12T06:50:18Z</time>
      </trkpt>
      <trkpt lat="46.543404" lon="11.795044">
        <ele>1966.508</ele>
        <time>2018-09-12T06:50:20Z</time>
      </trkpt>
      <trkpt lat="46.543397" lon="11.795026">
        <ele>1966.098</ele>
        <time>2018-09-12T06:50:21Z</time>
      </trkpt>
      <trkpt lat="46.543396" lon="11.795007">
        <ele>1965.520</ele>
        <time>2018-09-12T06:50:24Z</time>
      </trkpt>
      <trkpt lat="46.543450" lon="11.794614">
        <ele>1961.736</ele>
        <time>2018-09-12T06:50:36Z</time>
      </trkpt>
      <trkpt lat="46.543299" lon="11.794049">
        <ele>1954.582</ele>
        <time>2018-09-12T06:50:48Z</time>
      </trkpt>
      <trkpt lat="46.543072" lon="11.793297">
        <ele>1947.252</ele>
        <time>2018-09-12T06:51:03Z</time>
      </trkpt>
      <trkpt lat="46.542921" lon="11.792577">
        <ele>1941.592</ele>
        <time>2018-09-12T06:51:16Z</time>
      </trkpt>
      <trkpt lat="46.542880" lon="11.792281">
        <ele>1939.665</ele>
        <time>2018-09-12T06:51:21Z</time>
      </trkpt>
      <trkpt lat="46.542870" lon="11.792225">
        <ele>1939.181</ele>
        <time>2018-09-12T06:51:22Z</time>
      </trkpt>
      <trkpt lat="46.542858" lon="11.792168">
        <ele>1938.643</ele>
        <time>2018-09-12T06:51:23Z</time>
      </trkpt>
      <trkpt lat="46.542713" lon="11.791588">
        <ele>1933.864</ele>
        <time>2018-09-12T06:51:32Z</time>
      </trkpt>
      <trkpt lat="46.542691" lon="11.791525">
        <ele>1933.810</ele>
        <time>2018-09-12T06:51:33Z</time>
      </trkpt>
      <trkpt lat="46.542384" lon="11.790723">
        <ele>1929.508</ele>
        <time>2018-09-12T06:51:46Z</time>
      </trkpt>
      <trkpt lat="46.542292" lon="11.790396">
        <ele>1927.578</ele>
        <time>2018-09-12T06:51:51Z</time>
      </trkpt>
      <trkpt lat="46.542257" lon="11.790341">
        <ele>1927.560</ele>
        <time>2018-09-12T06:51:52Z</time>
      </trkpt>
      <trkpt lat="46.542149" lon="11.790214">
        <ele>1926.156</ele>
        <time>2018-09-12T06:51:55Z</time>
      </trkpt>
      <trkpt lat="46.542126" lon="11.790164">
        <ele>1925.692</ele>
        <time>2018-09-12T06:51:56Z</time>
      </trkpt>
      <trkpt lat="46.542108" lon="11.790105">
        <ele>1925.132</ele>
        <time>2018-09-12T06:51:57Z</time>
      </trkpt>
      <trkpt lat="46.542094" lon="11.790044">
        <ele>1924.742</ele>
        <time>2018-09-12T06:51:58Z</time>
      </trkpt>
      <trkpt lat="46.542082" lon="11.789979">
        <ele>1924.255</ele>
        <time>2018-09-12T06:51:59Z</time>
      </trkpt>
      <trkpt lat="46.542074" lon="11.789913">
        <ele>1923.211</ele>
        <time>2018-09-12T06:52:00Z</time>
      </trkpt>
      <trkpt lat="46.542061" lon="11.789662">
        <ele>1920.834</ele>
        <time>2018-09-12T06:52:04Z</time>
      </trkpt>
      <trkpt lat="46.542073" lon="11.789595">
        <ele>1920.355</ele>
        <time>2018-09-12T06:52:05Z</time>
      </trkpt>
      <trkpt lat="46.542099" lon="11.789459">
        <ele>1918.410</ele>
        <time>2018-09-12T06:52:07Z</time>
      </trkpt>
      <trkpt lat="46.542107" lon="11.789392">
        <ele>1917.908</ele>
        <time>2018-09-12T06:52:08Z</time>
      </trkpt>
      <trkpt lat="46.542117" lon="11.789327">
        <ele>1917.077</ele>
        <time>2018-09-12T06:52:09Z</time>
      </trkpt>
      <trkpt lat="46.542134" lon="11.789263">
        <ele>1916.599</ele>
        <time>2018-09-12T06:52:10Z</time>
      </trkpt>
      <trkpt lat="46.542153" lon="11.789200">
        <ele>1915.595</ele>
        <time>2018-09-12T06:52:11Z</time>
      </trkpt>
      <trkpt lat="46.542174" lon="11.789138">
        <ele>1915.021</ele>
        <time>2018-09-12T06:52:12Z</time>
      </trkpt>
      <trkpt lat="46.542191" lon="11.789075">
        <ele>1914.681</ele>
        <time>2018-09-12T06:52:13Z</time>
      </trkpt>
      <trkpt lat="46.542202" lon="11.789006">
        <ele>1914.111</ele>
        <time>2018-09-12T06:52:14Z</time>
      </trkpt>
      <trkpt lat="46.542229" lon="11.788732">
        <ele>1911.744</ele>
        <time>2018-09-12T06:52:18Z</time>
      </trkpt>
      <trkpt lat="46.542235" lon="11.788670">
        <ele>1910.740</ele>
        <time>2018-09-12T06:52:19Z</time>
      </trkpt>
      <trkpt lat="46.542235" lon="11.788610">
        <ele>1910.275</ele>
        <time>2018-09-12T06:52:20Z</time>
      </trkpt>
      <trkpt lat="46.542283" lon="11.787833">
        <ele>1907.328</ele>
        <time>2018-09-12T06:52:31Z</time>
      </trkpt>
      <trkpt lat="46.542300" lon="11.787768">
        <ele>1907.320</ele>
        <time>2018-09-12T06:52:32Z</time>
      </trkpt>
      <trkpt lat="46.542325" lon="11.787715">
        <ele>1906.908</ele>
        <time>2018-09-12T06:52:33Z</time>
      </trkpt>
      <trkpt lat="46.542351" lon="11.787678">
        <ele>1906.431</ele>
        <time>2018-09-12T06:52:34Z</time>
      </trkpt>
      <trkpt lat="46.542373" lon="11.787647">
        <ele>1906.433</ele>
        <time>2018-09-12T06:52:35Z</time>
      </trkpt>
      <trkpt lat="46.542391" lon="11.787625">
        <ele>1906.459</ele>
        <time>2018-09-12T06:52:36Z</time>
      </trkpt>
      <trkpt lat="46.542406" lon="11.787610">
        <ele>1905.995</ele>
        <time>2018-09-12T06:52:37Z</time>
      </trkpt>
      <trkpt lat="46.542414" lon="11.787572">
        <ele>1905.425</ele>
        <time>2018-09-12T06:52:53Z</time>
      </trkpt>
      <trkpt lat="46.542475" lon="11.787490">
        <ele>1903.525</ele>
        <time>2018-09-12T06:53:02Z</time>
      </trkpt>
      <trkpt lat="46.542512" lon="11.787461">
        <ele>1902.198</ele>
        <time>2018-09-12T06:53:07Z</time>
      </trkpt>
      <trkpt lat="46.542518" lon="11.787446">
        <ele>1901.644</ele>
        <time>2018-09-12T06:53:08Z</time>
      </trkpt>
      <trkpt lat="46.542525" lon="11.787433">
        <ele>1901.658</ele>
        <time>2018-09-12T06:53:09Z</time>
      </trkpt>
      <trkpt lat="46.542617" lon="11.787326">
        <ele>1898.752</ele>
        <time>2018-09-12T06:53:25Z</time>
      </trkpt>
      <trkpt lat="46.542696" lon="11.787226">
        <ele>1897.317</ele>
        <time>2018-09-12T06:53:39Z</time>
      </trkpt>
      <trkpt lat="46.542725" lon="11.787093">
        <ele>1892.908</ele>
        <time>2018-09-12T06:53:51Z</time>
      </trkpt>
      <trkpt lat="46.542725" lon="11.787072">
        <ele>1892.989</ele>
        <time>2018-09-12T06:53:52Z</time>
      </trkpt>
      <trkpt lat="46.542698" lon="11.786887">
        <ele>1887.241</ele>
        <time>2018-09-12T06:54:06Z</time>
      </trkpt>
      <trkpt lat="46.542698" lon="11.786808">
        <ele>1884.337</ele>
        <time>2018-09-12T06:54:14Z</time>
      </trkpt>
      <trkpt lat="46.542770" lon="11.786717">
        <ele>1881.493</ele>
        <time>2018-09-12T06:54:28Z</time>
      </trkpt>
      <trkpt lat="46.542869" lon="11.786580">
        <ele>1878.563</ele>
        <time>2018-09-12T06:54:42Z</time>
      </trkpt>
      <trkpt lat="46.542979" lon="11.786358">
        <ele>1873.783</ele>
        <time>2018-09-12T06:54:59Z</time>
      </trkpt>
      <trkpt lat="46.543055" lon="11.786178">
        <ele>1868.486</ele>
        <time>2018-09-12T06:55:14Z</time>
      </trkpt>
      <trkpt lat="46.543142" lon="11.786092">
        <ele>1866.042</ele>
        <time>2018-09-12T06:55:24Z</time>
      </trkpt>
      <trkpt lat="46.543143" lon="11.786065">
        <ele>1865.011</ele>
        <time>2018-09-12T06:55:26Z</time>
      </trkpt>
      <trkpt lat="46.543140" lon="11.786050">
        <ele>1865.021</ele>
        <time>2018-09-12T06:55:27Z</time>
      </trkpt>
      <trkpt lat="46.543107" lon="11.786039">
        <ele>1863.603</ele>
        <time>2018-09-12T06:55:35Z</time>
      </trkpt>
      <trkpt lat="46.543092" lon="11.786029">
        <ele>1863.608</ele>
        <time>2018-09-12T06:55:36Z</time>
      </trkpt>
      <trkpt lat="46.543069" lon="11.786015">
        <ele>1863.695</ele>
        <time>2018-09-12T06:55:37Z</time>
      </trkpt>
      <trkpt lat="46.543043" lon="11.785998">
        <ele>1863.617</ele>
        <time>2018-09-12T06:55:38Z</time>
      </trkpt>
      <trkpt lat="46.543020" lon="11.785984">
        <ele>1863.153</ele>
        <time>2018-09-12T06:55:39Z</time>
      </trkpt>
      <trkpt lat="46.542995" lon="11.785968">
        <ele>1862.629</ele>
        <time>2018-09-12T06:55:40Z</time>
      </trkpt>
      <trkpt lat="46.542722" lon="11.785952">
        <ele>1857.849</ele>
        <time>2018-09-12T06:55:51Z</time>
      </trkpt>
      <trkpt lat="46.542517" lon="11.785869">
        <ele>1857.899</ele>
        <time>2018-09-12T06:55:58Z</time>
      </trkpt>
      <trkpt lat="46.542370" lon="11.785537">
        <ele>1857.482</ele>
        <time>2018-09-12T06:56:07Z</time>
      </trkpt>
      <trkpt lat="46.542304" lon="11.785419">
        <ele>1856.948</ele>
        <time>2018-09-12T06:56:10Z</time>
      </trkpt>
      <trkpt lat="46.542308" lon="11.785369">
        <ele>1856.491</ele>
        <time>2018-09-12T06:56:11Z</time>
      </trkpt>
      <trkpt lat="46.542324" lon="11.785318">
        <ele>1856.481</ele>
        <time>2018-09-12T06:56:12Z</time>
      </trkpt>
      <trkpt lat="46.542348" lon="11.785276">
        <ele>1856.419</ele>
        <time>2018-09-12T06:56:13Z</time>
      </trkpt>
      <trkpt lat="46.542376" lon="11.785244">
        <ele>1856.408</ele>
        <time>2018-09-12T06:56:14Z</time>
      </trkpt>
      <trkpt lat="46.542406" lon="11.785215">
        <ele>1856.433</ele>
        <time>2018-09-12T06:56:15Z</time>
      </trkpt>
      <trkpt lat="46.542441" lon="11.785187">
        <ele>1855.975</ele>
        <time>2018-09-12T06:56:16Z</time>
      </trkpt>
      <trkpt lat="46.542479" lon="11.785160">
        <ele>1855.911</ele>
        <time>2018-09-12T06:56:17Z</time>
      </trkpt>
      <trkpt lat="46.542700" lon="11.785035">
        <ele>1855.437</ele>
        <time>2018-09-12T06:56:27Z</time>
      </trkpt>
      <trkpt lat="46.542940" lon="11.784737">
        <ele>1852.627</ele>
        <time>2018-09-12T06:56:37Z</time>
      </trkpt>
      <trkpt lat="46.543085" lon="11.784595">
        <ele>1849.767</ele>
        <time>2018-09-12T06:56:49Z</time>
      </trkpt>
      <trkpt lat="46.543095" lon="11.784591">
        <ele>1849.280</ele>
        <time>2018-09-12T06:56:50Z</time>
      </trkpt>
      <trkpt lat="46.543106" lon="11.784584">
        <ele>1849.226</ele>
        <time>2018-09-12T06:56:51Z</time>
      </trkpt>
      <trkpt lat="46.543171" lon="11.784539">
        <ele>1847.396</ele>
        <time>2018-09-12T06:56:56Z</time>
      </trkpt>
      <trkpt lat="46.543189" lon="11.784520">
        <ele>1846.831</ele>
        <time>2018-09-12T06:56:57Z</time>
      </trkpt>
      <trkpt lat="46.543206" lon="11.784503">
        <ele>1846.824</ele>
        <time>2018-09-12T06:56:58Z</time>
      </trkpt>
      <trkpt lat="46.543226" lon="11.784489">
        <ele>1846.308</ele>
        <time>2018-09-12T06:56:59Z</time>
      </trkpt>
      <trkpt lat="46.543240" lon="11.784473">
        <ele>1845.843</ele>
        <time>2018-09-12T06:57:00Z</time>
      </trkpt>
      <trkpt lat="46.543254" lon="11.784458">
        <ele>1844.945</ele>
        <time>2018-09-12T06:57:01Z</time>
      </trkpt>
      <trkpt lat="46.543263" lon="11.784443">
        <ele>1844.441</ele>
        <time>2018-09-12T06:57:02Z</time>
      </trkpt>
      <trkpt lat="46.543327" lon="11.784317">
        <ele>1838.157</ele>
        <time>2018-09-12T06:57:12Z</time>
      </trkpt>
      <trkpt lat="46.543328" lon="11.784187">
        <ele>1835.737</ele>
        <time>2018-09-12T06:57:21Z</time>
      </trkpt>
      <trkpt lat="46.543309" lon="11.784088">
        <ele>1833.317</ele>
        <time>2018-09-12T06:57:29Z</time>
      </trkpt>
      <trkpt lat="46.543253" lon="11.783933">
        <ele>1825.650</ele>
        <time>2018-09-12T06:57:39Z</time>
      </trkpt>
      <trkpt lat="46.543251" lon="11.783917">
        <ele>1824.756</ele>
        <time>2018-09-12T06:57:40Z</time>
      </trkpt>
      <trkpt lat="46.543247" lon="11.783898">
        <ele>1824.277</ele>
        <time>2018-09-12T06:57:41Z</time>
      </trkpt>
      <trkpt lat="46.543245" lon="11.783872">
        <ele>1823.261</ele>
        <time>2018-09-12T06:57:42Z</time>
      </trkpt>
      <trkpt lat="46.543243" lon="11.783842">
        <ele>1822.327</ele>
        <time>2018-09-12T06:57:43Z</time>
      </trkpt>
      <trkpt lat="46.543330" lon="11.783461">
        <ele>1820.808</ele>
        <time>2018-09-12T06:57:52Z</time>
      </trkpt>
      <trkpt lat="46.543414" lon="11.783041">
        <ele>1822.881</ele>
        <time>2018-09-12T06:58:02Z</time>
      </trkpt>
      <trkpt lat="46.543501" lon="11.782810">
        <ele>1819.963</ele>
        <time>2018-09-12T06:58:09Z</time>
      </trkpt>
      <trkpt lat="46.543517" lon="11.782785">
        <ele>1819.459</ele>
        <time>2018-09-12T06:58:10Z</time>
      </trkpt>
      <trkpt lat="46.543529" lon="11.782760">
        <ele>1819.445</ele>
        <time>2018-09-12T06:58:11Z</time>
      </trkpt>
      <trkpt lat="46.543534" lon="11.782734">
        <ele>1818.985</ele>
        <time>2018-09-12T06:58:12Z</time>
      </trkpt>
      <trkpt lat="46.543535" lon="11.782705">
        <ele>1818.445</ele>
        <time>2018-09-12T06:58:13Z</time>
      </trkpt>
      <trkpt lat="46.543533" lon="11.782673">
        <ele>1817.598</ele>
        <time>2018-09-12T06:58:14Z</time>
      </trkpt>
      <trkpt lat="46.543494" lon="11.782402">
        <ele>1805.084</ele>
        <time>2018-09-12T06:58:27Z</time>
      </trkpt>
      <trkpt lat="46.543418" lon="11.782194">
        <ele>1797.397</ele>
        <time>2018-09-12T06:58:37Z</time>
      </trkpt>
      <trkpt lat="46.543415" lon="11.782168">
        <ele>1796.823</ele>
        <time>2018-09-12T06:58:38Z</time>
      </trkpt>
      <trkpt lat="46.543409" lon="11.782146">
        <ele>1795.825</ele>
        <time>2018-09-12T06:58:39Z</time>
      </trkpt>
      <trkpt lat="46.543407" lon="11.782120">
        <ele>1795.408</ele>
        <time>2018-09-12T06:58:40Z</time>
      </trkpt>
      <trkpt lat="46.543408" lon="11.782092">
        <ele>1794.923</ele>
        <time>2018-09-12T06:58:41Z</time>
      </trkpt>
      <trkpt lat="46.543412" lon="11.782063">
        <ele>1794.465</ele>
        <time>2018-09-12T06:58:42Z</time>
      </trkpt>
      <trkpt lat="46.543419" lon="11.782042">
        <ele>1793.951</ele>
        <time>2018-09-12T06:58:43Z</time>
      </trkpt>
      <trkpt lat="46.543427" lon="11.782028">
        <ele>1793.987</ele>
        <time>2018-09-12T06:58:44Z</time>
      </trkpt>
      <trkpt lat="46.543436" lon="11.782012">
        <ele>1793.447</ele>
        <time>2018-09-12T06:58:45Z</time>
      </trkpt>
      <trkpt lat="46.543441" lon="11.781991">
        <ele>1793.917</ele>
        <time>2018-09-12T06:58:46Z</time>
      </trkpt>
      <trkpt lat="46.543446" lon="11.781971">
        <ele>1793.950</ele>
        <time>2018-09-12T06:58:47Z</time>
      </trkpt>
      <trkpt lat="46.543450" lon="11.781948">
        <ele>1793.476</ele>
        <time>2018-09-12T06:58:48Z</time>
      </trkpt>
      <trkpt lat="46.543451" lon="11.781922">
        <ele>1793.431</ele>
        <time>2018-09-12T06:58:49Z</time>
      </trkpt>
      <trkpt lat="46.543455" lon="11.781900">
        <ele>1793.461</ele>
        <time>2018-09-12T06:58:50Z</time>
      </trkpt>
      <trkpt lat="46.543460" lon="11.781886">
        <ele>1793.007</ele>
        <time>2018-09-12T06:58:51Z</time>
      </trkpt>
      <trkpt lat="46.543466" lon="11.781873">
        <ele>1792.508</ele>
        <time>2018-09-12T06:58:52Z</time>
      </trkpt>
      <trkpt lat="46.543551" lon="11.781518">
        <ele>1781.937</ele>
        <time>2018-09-12T06:59:09Z</time>
      </trkpt>
      <trkpt lat="46.543627" lon="11.781187">
        <ele>1780.059</ele>
        <time>2018-09-12T06:59:24Z</time>
      </trkpt>
      <trkpt lat="46.543752" lon="11.780866">
        <ele>1774.715</ele>
        <time>2018-09-12T06:59:36Z</time>
      </trkpt>
      <trkpt lat="46.543893" lon="11.780534">
        <ele>1763.211</ele>
        <time>2018-09-12T06:59:50Z</time>
      </trkpt>
      <trkpt lat="46.544082" lon="11.780256">
        <ele>1759.381</ele>
        <time>2018-09-12T07:00:02Z</time>
      </trkpt>
      <trkpt lat="46.544336" lon="11.779824">
        <ele>1751.131</ele>
        <time>2018-09-12T07:00:16Z</time>
      </trkpt>
      <trkpt lat="46.544573" lon="11.779430">
        <ele>1742.074</ele>
        <time>2018-09-12T07:00:29Z</time>
      </trkpt>
      <trkpt lat="46.544649" lon="11.779110">
        <ele>1736.230</ele>
        <time>2018-09-12T07:00:41Z</time>
      </trkpt>
      <trkpt lat="46.544728" lon="11.778910">
        <ele>1731.444</ele>
        <time>2018-09-12T07:00:50Z</time>
      </trkpt>
      <trkpt lat="46.544732" lon="11.778887">
        <ele>1730.905</ele>
        <time>2018-09-12T07:00:51Z</time>
      </trkpt>
      <trkpt lat="46.544741" lon="11.778864">
        <ele>1730.515</ele>
        <time>2018-09-12T07:00:52Z</time>
      </trkpt>
      <trkpt lat="46.544779" lon="11.778731">
        <ele>1728.508</ele>
        <time>2018-09-12T07:00:58Z</time>
      </trkpt>
      <trkpt lat="46.544780" lon="11.778708">
        <ele>1728.578</ele>
        <time>2018-09-12T07:00:59Z</time>
      </trkpt>
      <trkpt lat="46.544783" lon="11.778684">
        <ele>1728.530</ele>
        <time>2018-09-12T07:01:00Z</time>
      </trkpt>
      <trkpt lat="46.544824" lon="11.778408">
        <ele>1724.246</ele>
        <time>2018-09-12T07:01:12Z</time>
      </trkpt>
      <trkpt lat="46.544898" lon="11.778040">
        <ele>1717.042</ele>
        <time>2018-09-12T07:01:27Z</time>
      </trkpt>
      <trkpt lat="46.544984" lon="11.777693">
        <ele>1707.452</ele>
        <time>2018-09-12T07:01:40Z</time>
      </trkpt>
      <trkpt lat="46.545177" lon="11.777315">
        <ele>1696.892</ele>
        <time>2018-09-12T07:01:55Z</time>
      </trkpt>
      <trkpt lat="46.545334" lon="11.776869">
        <ele>1689.645</ele>
        <time>2018-09-12T07:02:07Z</time>
      </trkpt>
      <trkpt lat="46.545394" lon="11.776756">
        <ele>1688.651</ele>
        <time>2018-09-12T07:02:10Z</time>
      </trkpt>
      <trkpt lat="46.545402" lon="11.776701">
        <ele>1688.258</ele>
        <time>2018-09-12T07:02:11Z</time>
      </trkpt>
      <trkpt lat="46.545406" lon="11.776634">
        <ele>1687.752</ele>
        <time>2018-09-12T07:02:12Z</time>
      </trkpt>
      <trkpt lat="46.545405" lon="11.776555">
        <ele>1686.717</ele>
        <time>2018-09-12T07:02:13Z</time>
      </trkpt>
      <trkpt lat="46.545406" lon="11.776471">
        <ele>1686.208</ele>
        <time>2018-09-12T07:02:14Z</time>
      </trkpt>
      <trkpt lat="46.545418" lon="11.776374">
        <ele>1684.829</ele>
        <time>2018-09-12T07:02:15Z</time>
      </trkpt>
      <trkpt lat="46.545439" lon="11.776272">
        <ele>1683.841</ele>
        <time>2018-09-12T07:02:16Z</time>
      </trkpt>
      <trkpt lat="46.545472" lon="11.776172">
        <ele>1682.967</ele>
        <time>2018-09-12T07:02:17Z</time>
      </trkpt>
      <trkpt lat="46.545508" lon="11.776077">
        <ele>1681.913</ele>
        <time>2018-09-12T07:02:18Z</time>
      </trkpt>
      <trkpt lat="46.545551" lon="11.775891">
        <ele>1679.033</ele>
        <time>2018-09-12T07:02:20Z</time>
      </trkpt>
      <trkpt lat="46.545556" lon="11.775807">
        <ele>1678.193</ele>
        <time>2018-09-12T07:02:21Z</time>
      </trkpt>
      <trkpt lat="46.545548" lon="11.775729">
        <ele>1677.156</ele>
        <time>2018-09-12T07:02:22Z</time>
      </trkpt>
      <trkpt lat="46.545533" lon="11.775653">
        <ele>1676.692</ele>
        <time>2018-09-12T07:02:23Z</time>
      </trkpt>
      <trkpt lat="46.545516" lon="11.775573">
        <ele>1675.729</ele>
        <time>2018-09-12T07:02:24Z</time>
      </trkpt>
      <trkpt lat="46.545267" lon="11.774575">
        <ele>1669.400</ele>
        <time>2018-09-12T07:02:35Z</time>
      </trkpt>
      <trkpt lat="46.545255" lon="11.774481">
        <ele>1668.920</ele>
        <time>2018-09-12T07:02:36Z</time>
      </trkpt>
      <trkpt lat="46.545253" lon="11.774388">
        <ele>1668.008</ele>
        <time>2018-09-12T07:02:37Z</time>
      </trkpt>
      <trkpt lat="46.545261" lon="11.774295">
        <ele>1667.556</ele>
        <time>2018-09-12T07:02:38Z</time>
      </trkpt>
      <trkpt lat="46.545275" lon="11.774199">
        <ele>1666.588</ele>
        <time>2018-09-12T07:02:39Z</time>
      </trkpt>
      <trkpt lat="46.545295" lon="11.774094">
        <ele>1666.134</ele>
        <time>2018-09-12T07:02:40Z</time>
      </trkpt>
      <trkpt lat="46.545337" lon="11.773497">
        <ele>1663.280</ele>
        <time>2018-09-12T07:02:45Z</time>
      </trkpt>
      <trkpt lat="46.545310" lon="11.773382">
        <ele>1662.280</ele>
        <time>2018-09-12T07:02:46Z</time>
      </trkpt>
      <trkpt lat="46.545267" lon="11.773279">
        <ele>1661.310</ele>
        <time>2018-09-12T07:02:47Z</time>
      </trkpt>
      <trkpt lat="46.545213" lon="11.773198">
        <ele>1660.853</ele>
        <time>2018-09-12T07:02:48Z</time>
      </trkpt>
      <trkpt lat="46.545142" lon="11.773131">
        <ele>1659.819</ele>
        <time>2018-09-12T07:02:49Z</time>
      </trkpt>
      <trkpt lat="46.545064" lon="11.773077">
        <ele>1658.451</ele>
        <time>2018-09-12T07:02:50Z</time>
      </trkpt>
      <trkpt lat="46.544984" lon="11.773024">
        <ele>1656.901</ele>
        <time>2018-09-12T07:02:51Z</time>
      </trkpt>
      <trkpt lat="46.544913" lon="11.772960">
        <ele>1656.011</ele>
        <time>2018-09-12T07:02:52Z</time>
      </trkpt>
      <trkpt lat="46.544860" lon="11.772872">
        <ele>1654.508</ele>
        <time>2018-09-12T07:02:53Z</time>
      </trkpt>
      <trkpt lat="46.544831" lon="11.772756">
        <ele>1653.669</ele>
        <time>2018-09-12T07:02:54Z</time>
      </trkpt>
      <trkpt lat="46.544822" lon="11.772628">
        <ele>1652.681</ele>
        <time>2018-09-12T07:02:55Z</time>
      </trkpt>
      <trkpt lat="46.544819" lon="11.772498">
        <ele>1652.127</ele>
        <time>2018-09-12T07:02:56Z</time>
      </trkpt>
      <trkpt lat="46.544791" lon="11.772223">
        <ele>1650.793</ele>
        <time>2018-09-12T07:02:58Z</time>
      </trkpt>
      <trkpt lat="46.544754" lon="11.772090">
        <ele>1649.753</ele>
        <time>2018-09-12T07:02:59Z</time>
      </trkpt>
      <trkpt lat="46.544699" lon="11.771968">
        <ele>1648.853</ele>
        <time>2018-09-12T07:03:00Z</time>
      </trkpt>
      <trkpt lat="46.544625" lon="11.771867">
        <ele>1648.316</ele>
        <time>2018-09-12T07:03:01Z</time>
      </trkpt>
      <trkpt lat="46.544537" lon="11.771791">
        <ele>1647.382</ele>
        <time>2018-09-12T07:03:02Z</time>
      </trkpt>
      <trkpt lat="46.544439" lon="11.771735">
        <ele>1645.968</ele>
        <time>2018-09-12T07:03:03Z</time>
      </trkpt>
      <trkpt lat="46.544348" lon="11.771685">
        <ele>1644.942</ele>
        <time>2018-09-12T07:03:04Z</time>
      </trkpt>
      <trkpt lat="46.544259" lon="11.771618">
        <ele>1643.926</ele>
        <time>2018-09-12T07:03:05Z</time>
      </trkpt>
      <trkpt lat="46.544176" lon="11.771533">
        <ele>1643.008</ele>
        <time>2018-09-12T07:03:06Z</time>
      </trkpt>
      <trkpt lat="46.544102" lon="11.771427">
        <ele>1641.530</ele>
        <time>2018-09-12T07:03:07Z</time>
      </trkpt>
      <trkpt lat="46.544030" lon="11.771311">
        <ele>1640.632</ele>
        <time>2018-09-12T07:03:08Z</time>
      </trkpt>
      <trkpt lat="46.543435" lon="11.770412">
        <ele>1631.058</ele>
        <time>2018-09-12T07:03:17Z</time>
      </trkpt>
      <trkpt lat="46.543421" lon="11.770346">
        <ele>1630.544</ele>
        <time>2018-09-12T07:03:18Z</time>
      </trkpt>
      <trkpt lat="46.543435" lon="11.770288">
        <ele>1629.524</ele>
        <time>2018-09-12T07:03:19Z</time>
      </trkpt>
      <trkpt lat="46.543477" lon="11.770262">
        <ele>1629.034</ele>
        <time>2018-09-12T07:03:20Z</time>
      </trkpt>
      <trkpt lat="46.543532" lon="11.770286">
        <ele>1628.637</ele>
        <time>2018-09-12T07:03:21Z</time>
      </trkpt>
      <trkpt lat="46.543570" lon="11.770336">
        <ele>1628.153</ele>
        <time>2018-09-12T07:03:22Z</time>
      </trkpt>
      <trkpt lat="46.543604" lon="11.770412">
        <ele>1627.193</ele>
        <time>2018-09-12T07:03:23Z</time>
      </trkpt>
      <trkpt lat="46.543637" lon="11.770491">
        <ele>1626.665</ele>
        <time>2018-09-12T07:03:24Z</time>
      </trkpt>
      <trkpt lat="46.543680" lon="11.770572">
        <ele>1625.721</ele>
        <time>2018-09-12T07:03:25Z</time>
      </trkpt>
      <trkpt lat="46.543733" lon="11.770649">
        <ele>1625.208</ele>
        <time>2018-09-12T07:03:26Z</time>
      </trkpt>
      <trkpt lat="46.543796" lon="11.770719">
        <ele>1624.273</ele>
        <time>2018-09-12T07:03:27Z</time>
      </trkpt>
      <trkpt lat="46.543867" lon="11.770787">
        <ele>1623.875</ele>
        <time>2018-09-12T07:03:28Z</time>
      </trkpt>
      <trkpt lat="46.544018" lon="11.770936">
        <ele>1622.371</ele>
        <time>2018-09-12T07:03:30Z</time>
      </trkpt>
      <trkpt lat="46.544094" lon="11.770991">
        <ele>1621.487</ele>
        <time>2018-09-12T07:03:31Z</time>
      </trkpt>
      <trkpt lat="46.544823" lon="11.771303">
        <ele>1615.197</ele>
        <time>2018-09-12T07:03:40Z</time>
      </trkpt>
      <trkpt lat="46.544898" lon="11.771342">
        <ele>1614.187</ele>
        <time>2018-09-12T07:03:41Z</time>
      </trkpt>
      <trkpt lat="46.544974" lon="11.771395">
        <ele>1613.260</ele>
        <time>2018-09-12T07:03:42Z</time>
      </trkpt>
      <trkpt lat="46.545110" lon="11.771488">
        <ele>1612.256</ele>
        <time>2018-09-12T07:03:44Z</time>
      </trkpt>
      <trkpt lat="46.545183" lon="11.771511">
        <ele>1611.789</ele>
        <time>2018-09-12T07:03:45Z</time>
      </trkpt>
      <trkpt lat="46.545258" lon="11.771518">
        <ele>1611.306</ele>
        <time>2018-09-12T07:03:46Z</time>
      </trkpt>
      <trkpt lat="46.545318" lon="11.771511">
        <ele>1610.826</ele>
        <time>2018-09-12T07:03:47Z</time>
      </trkpt>
      <trkpt lat="46.545380" lon="11.771503">
        <ele>1610.808</ele>
        <time>2018-09-12T07:03:48Z</time>
      </trkpt>
      <trkpt lat="46.545442" lon="11.771495">
        <ele>1610.392</ele>
        <time>2018-09-12T07:03:49Z</time>
      </trkpt>
      <trkpt lat="46.545501" lon="11.771470">
        <ele>1609.884</ele>
        <time>2018-09-12T07:03:50Z</time>
      </trkpt>
      <trkpt lat="46.545558" lon="11.771421">
        <ele>1609.310</ele>
        <time>2018-09-12T07:03:51Z</time>
      </trkpt>
      <trkpt lat="46.545603" lon="11.771359">
        <ele>1608.926</ele>
        <time>2018-09-12T07:03:52Z</time>
      </trkpt>
      <trkpt lat="46.545642" lon="11.771288">
        <ele>1608.456</ele>
        <time>2018-09-12T07:03:53Z</time>
      </trkpt>
      <trkpt lat="46.545675" lon="11.771212">
        <ele>1607.996</ele>
        <time>2018-09-12T07:03:54Z</time>
      </trkpt>
      <trkpt lat="46.545708" lon="11.771118">
        <ele>1606.949</ele>
        <time>2018-09-12T07:03:55Z</time>
      </trkpt>
      <trkpt lat="46.546044" lon="11.769856">
        <ele>1598.395</ele>
        <time>2018-09-12T07:04:07Z</time>
      </trkpt>
      <trkpt lat="46.546230" lon="11.769123">
        <ele>1592.033</ele>
        <time>2018-09-12T07:04:17Z</time>
      </trkpt>
      <trkpt lat="46.546396" lon="11.768778">
        <ele>1590.123</ele>
        <time>2018-09-12T07:04:26Z</time>
      </trkpt>
      <trkpt lat="46.546427" lon="11.768731">
        <ele>1589.615</ele>
        <time>2018-09-12T07:04:27Z</time>
      </trkpt>
      <trkpt lat="46.546698" lon="11.768316">
        <ele>1587.208</ele>
        <time>2018-09-12T07:04:34Z</time>
      </trkpt>
      <trkpt lat="46.546819" lon="11.768199">
        <ele>1586.797</ele>
        <time>2018-09-12T07:04:36Z</time>
      </trkpt>
      <trkpt lat="46.548043" lon="11.767390">
        <ele>1583.969</ele>
        <time>2018-09-12T07:04:53Z</time>
      </trkpt>
      <trkpt lat="46.549720" lon="11.766287">
        <ele>1580.545</ele>
        <time>2018-09-12T07:05:16Z</time>
      </trkpt>
      <trkpt lat="46.550110" lon="11.765996">
        <ele>1579.541</ele>
        <time>2018-09-12T07:05:22Z</time>
      </trkpt>
      <trkpt lat="46.550222" lon="11.765860">
        <ele>1579.111</ele>
        <time>2018-09-12T07:05:24Z</time>
      </trkpt>
      <trkpt lat="46.550269" lon="11.765781">
        <ele>1579.151</ele>
        <time>2018-09-12T07:05:25Z</time>
      </trkpt>
      <trkpt lat="46.550313" lon="11.765701">
        <ele>1579.134</ele>
        <time>2018-09-12T07:05:26Z</time>
      </trkpt>
      <trkpt lat="46.550356" lon="11.765619">
        <ele>1578.650</ele>
        <time>2018-09-12T07:05:27Z</time>
      </trkpt>
      <trkpt lat="46.550393" lon="11.765527">
        <ele>1578.676</ele>
        <time>2018-09-12T07:05:28Z</time>
      </trkpt>
      <trkpt lat="46.550429" lon="11.765424">
        <ele>1578.690</ele>
        <time>2018-09-12T07:05:29Z</time>
      </trkpt>
      <trkpt lat="46.550458" lon="11.765331">
        <ele>1578.619</ele>
        <time>2018-09-12T07:05:30Z</time>
      </trkpt>
      <trkpt lat="46.550762" lon="11.764394">
        <ele>1577.608</ele>
        <time>2018-09-12T07:05:40Z</time>
      </trkpt>
      <trkpt lat="46.550804" lon="11.764316">
        <ele>1577.191</ele>
        <time>2018-09-12T07:05:41Z</time>
      </trkpt>
      <trkpt lat="46.550857" lon="11.764248">
        <ele>1577.163</ele>
        <time>2018-09-12T07:05:42Z</time>
      </trkpt>
      <trkpt lat="46.551506" lon="11.763609">
        <ele>1572.839</ele>
        <time>2018-09-12T07:05:52Z</time>
      </trkpt>
      <trkpt lat="46.551583" lon="11.763569">
        <ele>1572.335</ele>
        <time>2018-09-12T07:05:53Z</time>
      </trkpt>
      <trkpt lat="46.551668" lon="11.763539">
        <ele>1571.485</ele>
        <time>2018-09-12T07:05:54Z</time>
      </trkpt>
      <trkpt lat="46.551750" lon="11.763528">
        <ele>1570.955</ele>
        <time>2018-09-12T07:05:55Z</time>
      </trkpt>
      <trkpt lat="46.551847" lon="11.763524">
        <ele>1570.448</ele>
        <time>2018-09-12T07:05:56Z</time>
      </trkpt>
      <trkpt lat="46.552247" lon="11.763485">
        <ele>1569.444</ele>
        <time>2018-09-12T07:06:01Z</time>
      </trkpt>
      <trkpt lat="46.552774" lon="11.763450">
        <ele>1568.538</ele>
        <time>2018-09-12T07:06:11Z</time>
      </trkpt>
      <trkpt lat="46.553082" lon="11.763381">
        <ele>1570.970</ele>
        <time>2018-09-12T07:06:24Z</time>
      </trkpt>
      <trkpt lat="46.553246" lon="11.762913">
        <ele>1570.917</ele>
        <time>2018-09-12T07:06:37Z</time>
      </trkpt>
      <trkpt lat="46.553432" lon="11.762096">
        <ele>1571.408</ele>
        <time>2018-09-12T07:06:55Z</time>
      </trkpt>
      <trkpt lat="46.553651" lon="11.761166">
        <ele>1569.457</ele>
        <time>2018-09-12T07:07:09Z</time>
      </trkpt>
      <trkpt lat="46.553921" lon="11.759950">
        <ele>1563.259</ele>
        <time>2018-09-12T07:07:22Z</time>
      </trkpt>
      <trkpt lat="46.554254" lon="11.758808">
        <ele>1558.415</ele>
        <time>2018-09-12T07:07:35Z</time>
      </trkpt>
      <trkpt lat="46.554963" lon="11.757634">
        <ele>1554.131</ele>
        <time>2018-09-12T07:07:50Z</time>
      </trkpt>
      <trkpt lat="46.555764" lon="11.756301">
        <ele>1549.741</ele>
        <time>2018-09-12T07:08:05Z</time>
      </trkpt>
      <trkpt lat="46.555725" lon="11.756255">
        <ele>1552.131</ele>
        <time>2018-09-12T07:10:59Z</time>
      </trkpt>
      <trkpt lat="46.555617" lon="11.756242">
        <ele>1552.194</ele>
        <time>2018-09-12T07:11:04Z</time>
      </trkpt>
      <trkpt lat="46.555512" lon="11.755705">
        <ele>1552.140</ele>
        <time>2018-09-12T07:11:16Z</time>
      </trkpt>
      <trkpt lat="46.555523" lon="11.755587">
        <ele>1552.194</ele>
        <time>2018-09-12T07:11:18Z</time>
      </trkpt>
      <trkpt lat="46.555578" lon="11.755345">
        <ele>1551.757</ele>
        <time>2018-09-12T07:11:22Z</time>
      </trkpt>
      <trkpt lat="46.555601" lon="11.755290">
        <ele>1551.222</ele>
        <time>2018-09-12T07:11:23Z</time>
      </trkpt>
      <trkpt lat="46.555743" lon="11.754957">
        <ele>1550.708</ele>
        <time>2018-09-12T07:11:29Z</time>
      </trkpt>
      <trkpt lat="46.555757" lon="11.754905">
        <ele>1550.793</ele>
        <time>2018-09-12T07:11:30Z</time>
      </trkpt>
      <trkpt lat="46.555929" lon="11.754495">
        <ele>1554.115</ele>
        <time>2018-09-12T07:11:43Z</time>
      </trkpt>
      <trkpt lat="46.556109" lon="11.754243">
        <ele>1554.171</ele>
        <time>2018-09-12T07:11:58Z</time>
      </trkpt>
      <trkpt lat="46.556109" lon="11.754210">
        <ele>1553.147</ele>
        <time>2018-09-12T07:12:01Z</time>
      </trkpt>
      <trkpt lat="46.556111" lon="11.754187">
        <ele>1553.157</ele>
        <time>2018-09-12T07:12:02Z</time>
      </trkpt>
      <trkpt lat="46.556117" lon="11.754162">
        <ele>1553.197</ele>
        <time>2018-09-12T07:12:03Z</time>
      </trkpt>
      <trkpt lat="46.556125" lon="11.754139">
        <ele>1553.110</ele>
        <time>2018-09-12T07:12:04Z</time>
      </trkpt>
      <trkpt lat="46.556135" lon="11.754116">
        <ele>1553.126</ele>
        <time>2018-09-12T07:12:05Z</time>
      </trkpt>
      <trkpt lat="46.556174" lon="11.753677">
        <ele>1553.116</ele>
        <time>2018-09-12T07:12:21Z</time>
      </trkpt>
      <trkpt lat="46.556069" lon="11.753116">
        <ele>1552.676</ele>
        <time>2018-09-12T07:12:35Z</time>
      </trkpt>
      <trkpt lat="46.555983" lon="11.752916">
        <ele>1551.713</ele>
        <time>2018-09-12T07:12:39Z</time>
      </trkpt>
      <trkpt lat="46.555969" lon="11.752853">
        <ele>1551.708</ele>
        <time>2018-09-12T07:12:40Z</time>
      </trkpt>
      <trkpt lat="46.555963" lon="11.752787">
        <ele>1551.795</ele>
        <time>2018-09-12T07:12:41Z</time>
      </trkpt>
      <trkpt lat="46.555966" lon="11.752718">
        <ele>1551.277</ele>
        <time>2018-09-12T07:12:42Z</time>
      </trkpt>
      <trkpt lat="46.555974" lon="11.752649">
        <ele>1551.213</ele>
        <time>2018-09-12T07:12:43Z</time>
      </trkpt>
      <trkpt lat="46.555988" lon="11.752582">
        <ele>1551.219</ele>
        <time>2018-09-12T07:12:44Z</time>
      </trkpt>
      <trkpt lat="46.556005" lon="11.752517">
        <ele>1551.259</ele>
        <time>2018-09-12T07:12:45Z</time>
      </trkpt>
      <trkpt lat="46.556023" lon="11.752455">
        <ele>1551.289</ele>
        <time>2018-09-12T07:12:46Z</time>
      </trkpt>
      <trkpt lat="46.556119" lon="11.751837">
        <ele>1552.662</ele>
        <time>2018-09-12T07:13:00Z</time>
      </trkpt>
      <trkpt lat="46.556094" lon="11.751337">
        <ele>1550.738</ele>
        <time>2018-09-12T07:13:12Z</time>
      </trkpt>
      <trkpt lat="46.556096" lon="11.751311">
        <ele>1550.749</ele>
        <time>2018-09-12T07:13:26Z</time>
      </trkpt>
      <trkpt lat="46.556088" lon="11.751305">
        <ele>1549.702</ele>
        <time>2018-09-12T07:13:50Z</time>
      </trkpt>
      <trkpt lat="46.556095" lon="11.751293">
        <ele>1550.722</ele>
        <time>2018-09-12T07:14:07Z</time>
      </trkpt>
      <trkpt lat="46.556052" lon="11.750986">
        <ele>1550.208</ele>
        <time>2018-09-12T07:14:17Z</time>
      </trkpt>
      <trkpt lat="46.555969" lon="11.750438">
        <ele>1547.888</ele>
        <time>2018-09-12T07:14:25Z</time>
      </trkpt>
      <trkpt lat="46.555970" lon="11.750366">
        <ele>1547.880</ele>
        <time>2018-09-12T07:14:26Z</time>
      </trkpt>
      <trkpt lat="46.555979" lon="11.750296">
        <ele>1547.356</ele>
        <time>2018-09-12T07:14:27Z</time>
      </trkpt>
      <trkpt lat="46.555992" lon="11.750231">
        <ele>1547.312</ele>
        <time>2018-09-12T07:14:28Z</time>
      </trkpt>
      <trkpt lat="46.556004" lon="11.750165">
        <ele>1546.982</ele>
        <time>2018-09-12T07:14:29Z</time>
      </trkpt>
      <trkpt lat="46.556008" lon="11.750094">
        <ele>1546.462</ele>
        <time>2018-09-12T07:14:30Z</time>
      </trkpt>
      <trkpt lat="46.556007" lon="11.750017">
        <ele>1545.925</ele>
        <time>2018-09-12T07:14:31Z</time>
      </trkpt>
      <trkpt lat="46.556002" lon="11.749935">
        <ele>1545.491</ele>
        <time>2018-09-12T07:14:32Z</time>
      </trkpt>
      <trkpt lat="46.555995" lon="11.749225">
        <ele>1542.512</ele>
        <time>2018-09-12T07:14:40Z</time>
      </trkpt>
      <trkpt lat="46.556068" lon="11.748081">
        <ele>1541.632</ele>
        <time>2018-09-12T07:14:55Z</time>
      </trkpt>
      <trkpt lat="46.556055" lon="11.747656">
        <ele>1542.505</ele>
        <time>2018-09-12T07:15:02Z</time>
      </trkpt>
      <trkpt lat="46.556055" lon="11.747597">
        <ele>1542.508</ele>
        <time>2018-09-12T07:15:03Z</time>
      </trkpt>
      <trkpt lat="46.556053" lon="11.747537">
        <ele>1542.525</ele>
        <time>2018-09-12T07:15:04Z</time>
      </trkpt>
      <trkpt lat="46.555962" lon="11.746682">
        <ele>1544.987</ele>
        <time>2018-09-12T07:15:19Z</time>
      </trkpt>
      <trkpt lat="46.555924" lon="11.746135">
        <ele>1548.313</ele>
        <time>2018-09-12T07:15:35Z</time>
      </trkpt>
      <trkpt lat="46.555881" lon="11.745730">
        <ele>1550.279</ele>
        <time>2018-09-12T07:15:51Z</time>
      </trkpt>
      <trkpt lat="46.555879" lon="11.745422">
        <ele>1553.669</ele>
        <time>2018-09-12T07:16:05Z</time>
      </trkpt>
      <trkpt lat="46.555874" lon="11.745405">
        <ele>1553.629</ele>
        <time>2018-09-12T07:16:06Z</time>
      </trkpt>
      <trkpt lat="46.555871" lon="11.745388">
        <ele>1553.612</ele>
        <time>2018-09-12T07:16:07Z</time>
      </trkpt>
      <trkpt lat="46.555872" lon="11.745368">
        <ele>1553.678</ele>
        <time>2018-09-12T07:16:08Z</time>
      </trkpt>
      <trkpt lat="46.555871" lon="11.745348">
        <ele>1553.658</ele>
        <time>2018-09-12T07:16:09Z</time>
      </trkpt>
      <trkpt lat="46.555871" lon="11.745329">
        <ele>1553.652</ele>
        <time>2018-09-12T07:16:10Z</time>
      </trkpt>
      <trkpt lat="46.555871" lon="11.745309">
        <ele>1553.617</ele>
        <time>2018-09-12T07:16:11Z</time>
      </trkpt>
      <trkpt lat="46.555869" lon="11.745293">
        <ele>1553.608</ele>
        <time>2018-09-12T07:16:12Z</time>
      </trkpt>
      <trkpt lat="46.555863" lon="11.745275">
        <ele>1554.139</ele>
        <time>2018-09-12T07:16:13Z</time>
      </trkpt>
      <trkpt lat="46.555858" lon="11.745261">
        <ele>1553.671</ele>
        <time>2018-09-12T07:16:14Z</time>
      </trkpt>
      <trkpt lat="46.555858" lon="11.745241">
        <ele>1553.647</ele>
        <time>2018-09-12T07:16:15Z</time>
      </trkpt>
      <trkpt lat="46.555859" lon="11.745222">
        <ele>1553.183</ele>
        <time>2018-09-12T07:16:16Z</time>
      </trkpt>
      <trkpt lat="46.555857" lon="11.745204">
        <ele>1553.153</ele>
        <time>2018-09-12T07:16:17Z</time>
      </trkpt>
      <trkpt lat="46.555860" lon="11.745184">
        <ele>1553.183</ele>
        <time>2018-09-12T07:16:18Z</time>
      </trkpt>
      <trkpt lat="46.555862" lon="11.745161">
        <ele>1553.686</ele>
        <time>2018-09-12T07:16:19Z</time>
      </trkpt>
      <trkpt lat="46.555842" lon="11.744949">
        <ele>1555.512</ele>
        <time>2018-09-12T07:16:29Z</time>
      </trkpt>
      <trkpt lat="46.555846" lon="11.744930">
        <ele>1556.086</ele>
        <time>2018-09-12T07:16:30Z</time>
      </trkpt>
      <trkpt lat="46.555849" lon="11.744914">
        <ele>1556.060</ele>
        <time>2018-09-12T07:16:31Z</time>
      </trkpt>
      <trkpt lat="46.555847" lon="11.744895">
        <ele>1556.526</ele>
        <time>2018-09-12T07:16:32Z</time>
      </trkpt>
      <trkpt lat="46.555846" lon="11.744878">
        <ele>1556.508</ele>
        <time>2018-09-12T07:16:33Z</time>
      </trkpt>
      <trkpt lat="46.555842" lon="11.744862">
        <ele>1556.532</ele>
        <time>2018-09-12T07:16:34Z</time>
      </trkpt>
      <trkpt lat="46.555841" lon="11.744846">
        <ele>1556.594</ele>
        <time>2018-09-12T07:16:35Z</time>
      </trkpt>
      <trkpt lat="46.555843" lon="11.744828">
        <ele>1556.940</ele>
        <time>2018-09-12T07:16:36Z</time>
      </trkpt>
      <trkpt lat="46.555841" lon="11.744790">
        <ele>1557.446</ele>
        <time>2018-09-12T07:16:38Z</time>
      </trkpt>
      <trkpt lat="46.555841" lon="11.744773">
        <ele>1557.476</ele>
        <time>2018-09-12T07:16:39Z</time>
      </trkpt>
      <trkpt lat="46.555806" lon="11.744430">
        <ele>1561.846</ele>
        <time>2018-09-12T07:16:56Z</time>
      </trkpt>
      <trkpt lat="46.555806" lon="11.744410">
        <ele>1561.889</ele>
        <time>2018-09-12T07:16:57Z</time>
      </trkpt>
      <trkpt lat="46.555787" lon="11.744314">
        <ele>1562.765</ele>
        <time>2018-09-12T07:17:02Z</time>
      </trkpt>
      <trkpt lat="46.555788" lon="11.744288">
        <ele>1563.264</ele>
        <time>2018-09-12T07:17:03Z</time>
      </trkpt>
      <trkpt lat="46.555786" lon="11.744266">
        <ele>1563.706</ele>
        <time>2018-09-12T07:17:04Z</time>
      </trkpt>
      <trkpt lat="46.555786" lon="11.744154">
        <ele>1564.616</ele>
        <time>2018-09-12T07:17:10Z</time>
      </trkpt>
      <trkpt lat="46.555783" lon="11.744134">
        <ele>1565.108</ele>
        <time>2018-09-12T07:17:11Z</time>
      </trkpt>
      <trkpt lat="46.555700" lon="11.743874">
        <ele>1567.020</ele>
        <time>2018-09-12T07:17:27Z</time>
      </trkpt>
      <trkpt lat="46.555693" lon="11.743861">
        <ele>1567.092</ele>
        <time>2018-09-12T07:17:28Z</time>
      </trkpt>
      <trkpt lat="46.555646" lon="11.743716">
        <ele>1568.078</ele>
        <time>2018-09-12T07:17:38Z</time>
      </trkpt>
      <trkpt lat="46.555640" lon="11.743700">
        <ele>1568.064</ele>
        <time>2018-09-12T07:17:39Z</time>
      </trkpt>
      <trkpt lat="46.555633" lon="11.743682">
        <ele>1568.054</ele>
        <time>2018-09-12T07:17:40Z</time>
      </trkpt>
      <trkpt lat="46.555556" lon="11.743397">
        <ele>1569.414</ele>
        <time>2018-09-12T07:17:57Z</time>
      </trkpt>
      <trkpt lat="46.555555" lon="11.742936">
        <ele>1574.387</ele>
        <time>2018-09-12T07:18:19Z</time>
      </trkpt>
      <trkpt lat="46.555505" lon="11.742632">
        <ele>1575.253</ele>
        <time>2018-09-12T07:18:34Z</time>
      </trkpt>
      <trkpt lat="46.555446" lon="11.742310">
        <ele>1575.268</ele>
        <time>2018-09-12T07:18:50Z</time>
      </trkpt>
      <trkpt lat="46.555438" lon="11.742220">
        <ele>1575.742</ele>
        <time>2018-09-12T07:18:55Z</time>
      </trkpt>
      <trkpt lat="46.555436" lon="11.742203">
        <ele>1575.726</ele>
        <time>2018-09-12T07:18:56Z</time>
      </trkpt>
      <trkpt lat="46.555429" lon="11.742187">
        <ele>1576.208</ele>
        <time>2018-09-12T07:18:57Z</time>
      </trkpt>
      <trkpt lat="46.555417" lon="11.742180">
        <ele>1576.290</ele>
        <time>2018-09-12T07:18:58Z</time>
      </trkpt>
      <trkpt lat="46.555402" lon="11.742184">
        <ele>1576.272</ele>
        <time>2018-09-12T07:18:59Z</time>
      </trkpt>
      <trkpt lat="46.555387" lon="11.742183">
        <ele>1576.298</ele>
        <time>2018-09-12T07:19:00Z</time>
      </trkpt>
      <trkpt lat="46.555376" lon="11.742187">
        <ele>1576.264</ele>
        <time>2018-09-12T07:19:01Z</time>
      </trkpt>
      <trkpt lat="46.555292" lon="11.742234">
        <ele>1577.144</ele>
        <time>2018-09-12T07:19:08Z</time>
      </trkpt>
      <trkpt lat="46.555101" lon="11.742315">
        <ele>1580.014</ele>
        <time>2018-09-12T07:19:24Z</time>
      </trkpt>
      <trkpt lat="46.555027" lon="11.742277">
        <ele>1581.577</ele>
        <time>2018-09-12T07:19:31Z</time>
      </trkpt>
      <trkpt lat="46.555017" lon="11.742272">
        <ele>1581.563</ele>
        <time>2018-09-12T07:19:32Z</time>
      </trkpt>
      <trkpt lat="46.554848" lon="11.742135">
        <ele>1583.997</ele>
        <time>2018-09-12T07:19:49Z</time>
      </trkpt>
      <trkpt lat="46.554633" lon="11.741943">
        <ele>1585.823</ele>
        <time>2018-09-12T07:20:11Z</time>
      </trkpt>
      <trkpt lat="46.554387" lon="11.741808">
        <ele>1587.225</ele>
        <time>2018-09-12T07:20:32Z</time>
      </trkpt>
      <trkpt lat="46.554187" lon="11.741749">
        <ele>1589.208</ele>
        <time>2018-09-12T07:20:51Z</time>
      </trkpt>
      <trkpt lat="46.554019" lon="11.741801">
        <ele>1592.093</ele>
        <time>2018-09-12T07:21:07Z</time>
      </trkpt>
      <trkpt lat="46.553821" lon="11.741859">
        <ele>1596.815</ele>
        <time>2018-09-12T07:21:25Z</time>
      </trkpt>
      <trkpt lat="46.553812" lon="11.741855">
        <ele>1597.331</ele>
        <time>2018-09-12T07:21:26Z</time>
      </trkpt>
      <trkpt lat="46.553801" lon="11.741848">
        <ele>1597.377</ele>
        <time>2018-09-12T07:21:27Z</time>
      </trkpt>
      <trkpt lat="46.553790" lon="11.741849">
        <ele>1597.867</ele>
        <time>2018-09-12T07:21:28Z</time>
      </trkpt>
      <trkpt lat="46.553779" lon="11.741854">
        <ele>1598.317</ele>
        <time>2018-09-12T07:21:29Z</time>
      </trkpt>
      <trkpt lat="46.553622" lon="11.741785">
        <ele>1600.260</ele>
        <time>2018-09-12T07:21:43Z</time>
      </trkpt>
      <trkpt lat="46.553397" lon="11.741678">
        <ele>1602.626</ele>
        <time>2018-09-12T07:22:03Z</time>
      </trkpt>
      <trkpt lat="46.553387" lon="11.741675">
        <ele>1602.632</ele>
        <time>2018-09-12T07:22:04Z</time>
      </trkpt>
      <trkpt lat="46.553379" lon="11.741666">
        <ele>1602.692</ele>
        <time>2018-09-12T07:22:05Z</time>
      </trkpt>
      <trkpt lat="46.553368" lon="11.741660">
        <ele>1603.111</ele>
        <time>2018-09-12T07:22:06Z</time>
      </trkpt>
      <trkpt lat="46.553215" lon="11.741586">
        <ele>1605.008</ele>
        <time>2018-09-12T07:22:20Z</time>
      </trkpt>
      <trkpt lat="46.553205" lon="11.741589">
        <ele>1605.037</ele>
        <time>2018-09-12T07:22:21Z</time>
      </trkpt>
      <trkpt lat="46.552991" lon="11.741476">
        <ele>1606.559</ele>
        <time>2018-09-12T07:22:41Z</time>
      </trkpt>
      <trkpt lat="46.552917" lon="11.741418">
        <ele>1606.525</ele>
        <time>2018-09-12T07:22:48Z</time>
      </trkpt>
      <trkpt lat="46.552910" lon="11.741406">
        <ele>1606.571</ele>
        <time>2018-09-12T07:22:49Z</time>
      </trkpt>
      <trkpt lat="46.552902" lon="11.741393">
        <ele>1606.911</ele>
        <time>2018-09-12T07:22:50Z</time>
      </trkpt>
      <trkpt lat="46.552879" lon="11.741360">
        <ele>1606.971</ele>
        <time>2018-09-12T07:22:53Z</time>
      </trkpt>
      <trkpt lat="46.552713" lon="11.741244">
        <ele>1608.944</ele>
        <time>2018-09-12T07:23:09Z</time>
      </trkpt>
      <trkpt lat="46.552620" lon="11.741179">
        <ele>1610.890</ele>
        <time>2018-09-12T07:23:22Z</time>
      </trkpt>
      <trkpt lat="46.552468" lon="11.741098">
        <ele>1612.768</ele>
        <time>2018-09-12T07:23:42Z</time>
      </trkpt>
      <trkpt lat="46.552364" lon="11.741023">
        <ele>1615.142</ele>
        <time>2018-09-12T07:23:59Z</time>
      </trkpt>
      <trkpt lat="46.552277" lon="11.740949">
        <ele>1618.526</ele>
        <time>2018-09-12T07:24:17Z</time>
      </trkpt>
      <trkpt lat="46.552195" lon="11.740919">
        <ele>1622.308</ele>
        <time>2018-09-12T07:24:34Z</time>
      </trkpt>
      <trkpt lat="46.552102" lon="11.740865">
        <ele>1624.270</ele>
        <time>2018-09-12T07:24:51Z</time>
      </trkpt>
      <trkpt lat="46.552040" lon="11.740803">
        <ele>1625.752</ele>
        <time>2018-09-12T07:25:10Z</time>
      </trkpt>
      <trkpt lat="46.551955" lon="11.740738">
        <ele>1627.128</ele>
        <time>2018-09-12T07:25:26Z</time>
      </trkpt>
      <trkpt lat="46.551940" lon="11.740715">
        <ele>1627.134</ele>
        <time>2018-09-12T07:25:35Z</time>
      </trkpt>
      <trkpt lat="46.551777" lon="11.740523">
        <ele>1629.014</ele>
        <time>2018-09-12T07:25:52Z</time>
      </trkpt>
      <trkpt lat="46.551647" lon="11.740357">
        <ele>1631.414</ele>
        <time>2018-09-12T07:26:09Z</time>
      </trkpt>
      <trkpt lat="46.551618" lon="11.740177">
        <ele>1633.937</ele>
        <time>2018-09-12T07:26:23Z</time>
      </trkpt>
      <trkpt lat="46.551620" lon="11.740126">
        <ele>1633.973</ele>
        <time>2018-09-12T07:26:26Z</time>
      </trkpt>
      <trkpt lat="46.551618" lon="11.740102">
        <ele>1633.957</ele>
        <time>2018-09-12T07:26:27Z</time>
      </trkpt>
      <trkpt lat="46.551620" lon="11.739640">
        <ele>1632.400</ele>
        <time>2018-09-12T07:26:39Z</time>
      </trkpt>
      <trkpt lat="46.551621" lon="11.739616">
        <ele>1632.420</ele>
        <time>2018-09-12T07:26:40Z</time>
      </trkpt>
      <trkpt lat="46.551626" lon="11.739595">
        <ele>1632.408</ele>
        <time>2018-09-12T07:26:41Z</time>
      </trkpt>
      <trkpt lat="46.551630" lon="11.739576">
        <ele>1632.499</ele>
        <time>2018-09-12T07:26:42Z</time>
      </trkpt>
      <trkpt lat="46.551776" lon="11.739273">
        <ele>1633.921</ele>
        <time>2018-09-12T07:26:57Z</time>
      </trkpt>
      <trkpt lat="46.551942" lon="11.739062">
        <ele>1630.597</ele>
        <time>2018-09-12T07:27:03Z</time>
      </trkpt>
      <trkpt lat="46.551971" lon="11.739009">
        <ele>1629.593</ele>
        <time>2018-09-12T07:27:04Z</time>
      </trkpt>
      <trkpt lat="46.551998" lon="11.738952">
        <ele>1629.083</ele>
        <time>2018-09-12T07:27:05Z</time>
      </trkpt>
      <trkpt lat="46.552100" lon="11.738517">
        <ele>1626.673</ele>
        <time>2018-09-12T07:27:15Z</time>
      </trkpt>
      <trkpt lat="46.552105" lon="11.738484">
        <ele>1626.626</ele>
        <time>2018-09-12T07:27:17Z</time>
      </trkpt>
      <trkpt lat="46.552109" lon="11.738469">
        <ele>1626.622</ele>
        <time>2018-09-12T07:27:18Z</time>
      </trkpt>
      <trkpt lat="46.552119" lon="11.738426">
        <ele>1627.166</ele>
        <time>2018-09-12T07:27:21Z</time>
      </trkpt>
      <trkpt lat="46.552141" lon="11.738392">
        <ele>1628.129</ele>
        <time>2018-09-12T07:27:24Z</time>
      </trkpt>
      <trkpt lat="46.552148" lon="11.738377">
        <ele>1628.121</ele>
        <time>2018-09-12T07:27:25Z</time>
      </trkpt>
      <trkpt lat="46.552153" lon="11.738363">
        <ele>1628.608</ele>
        <time>2018-09-12T07:27:26Z</time>
      </trkpt>
      <trkpt lat="46.552159" lon="11.738348">
        <ele>1628.610</ele>
        <time>2018-09-12T07:27:27Z</time>
      </trkpt>
      <trkpt lat="46.552163" lon="11.738334">
        <ele>1628.652</ele>
        <time>2018-09-12T07:27:28Z</time>
      </trkpt>
      <trkpt lat="46.552169" lon="11.738271">
        <ele>1629.058</ele>
        <time>2018-09-12T07:27:32Z</time>
      </trkpt>
      <trkpt lat="46.552164" lon="11.738258">
        <ele>1629.094</ele>
        <time>2018-09-12T07:27:33Z</time>
      </trkpt>
      <trkpt lat="46.552160" lon="11.738244">
        <ele>1629.014</ele>
        <time>2018-09-12T07:27:34Z</time>
      </trkpt>
      <trkpt lat="46.552159" lon="11.738228">
        <ele>1629.094</ele>
        <time>2018-09-12T07:27:35Z</time>
      </trkpt>
      <trkpt lat="46.552165" lon="11.738160">
        <ele>1629.517</ele>
        <time>2018-09-12T07:27:40Z</time>
      </trkpt>
      <trkpt lat="46.552114" lon="11.737982">
        <ele>1628.623</ele>
        <time>2018-09-12T07:27:52Z</time>
      </trkpt>
      <trkpt lat="46.552065" lon="11.737816">
        <ele>1628.669</ele>
        <time>2018-09-12T07:28:03Z</time>
      </trkpt>
      <trkpt lat="46.552034" lon="11.737673">
        <ele>1629.004</ele>
        <time>2018-09-12T07:28:13Z</time>
      </trkpt>
      <trkpt lat="46.552026" lon="11.737655">
        <ele>1629.024</ele>
        <time>2018-09-12T07:28:14Z</time>
      </trkpt>
      <trkpt lat="46.552021" lon="11.737640">
        <ele>1628.608</ele>
        <time>2018-09-12T07:28:15Z</time>
      </trkpt>
      <trkpt lat="46.552015" lon="11.737448">
        <ele>1629.010</ele>
        <time>2018-09-12T07:28:30Z</time>
      </trkpt>
      <trkpt lat="46.552031" lon="11.737296">
        <ele>1631.042</ele>
        <time>2018-09-12T07:28:42Z</time>
      </trkpt>
      <trkpt lat="46.552057" lon="11.737127">
        <ele>1633.918</ele>
        <time>2018-09-12T07:28:55Z</time>
      </trkpt>
      <trkpt lat="46.552041" lon="11.737094">
        <ele>1631.414</ele>
        <time>2018-09-12T07:29:08Z</time>
      </trkpt>
      <trkpt lat="46.552071" lon="11.737016">
        <ele>1634.374</ele>
        <time>2018-09-12T07:29:30Z</time>
      </trkpt>
      <trkpt lat="46.552059" lon="11.737039">
        <ele>1635.854</ele>
        <time>2018-09-12T07:29:50Z</time>
      </trkpt>
      <trkpt lat="46.552095" lon="11.737051">
        <ele>1636.357</ele>
        <time>2018-09-12T07:30:15Z</time>
      </trkpt>
      <trkpt lat="46.552036" lon="11.737083">
        <ele>1636.793</ele>
        <time>2018-09-12T07:30:36Z</time>
      </trkpt>
      <trkpt lat="46.552071" lon="11.737027">
        <ele>1642.062</ele>
        <time>2018-09-12T07:30:57Z</time>
      </trkpt>
      <trkpt lat="46.552106" lon="11.737009">
        <ele>1644.983</ele>
        <time>2018-09-12T07:31:19Z</time>
      </trkpt>
      <trkpt lat="46.552131" lon="11.737035">
        <ele>1650.711</ele>
        <time>2018-09-12T07:31:36Z</time>
      </trkpt>
      <trkpt lat="46.552164" lon="11.737042">
        <ele>1651.608</ele>
        <time>2018-09-12T07:31:40Z</time>
      </trkpt>
      <trkpt lat="46.552219" lon="11.736886">
        <ele>1649.220</ele>
        <time>2018-09-12T07:31:53Z</time>
      </trkpt>
      <trkpt lat="46.552247" lon="11.736648">
        <ele>1644.442</ele>
        <time>2018-09-12T07:32:08Z</time>
      </trkpt>
      <trkpt lat="46.552291" lon="11.736497">
        <ele>1642.028</ele>
        <time>2018-09-12T07:32:19Z</time>
      </trkpt>
      <trkpt lat="46.552370" lon="11.736313">
        <ele>1643.574</ele>
        <time>2018-09-12T07:32:35Z</time>
      </trkpt>
      <trkpt lat="46.552399" lon="11.736281">
        <ele>1643.944</ele>
        <time>2018-09-12T07:32:38Z</time>
      </trkpt>
      <trkpt lat="46.552406" lon="11.736267">
        <ele>1643.944</ele>
        <time>2018-09-12T07:32:39Z</time>
      </trkpt>
      <trkpt lat="46.552512" lon="11.736114">
        <ele>1649.297</ele>
        <time>2018-09-12T07:32:52Z</time>
      </trkpt>
      <trkpt lat="46.552566" lon="11.736045">
        <ele>1651.233</ele>
        <time>2018-09-12T07:32:58Z</time>
      </trkpt>
      <trkpt lat="46.552575" lon="11.736033">
        <ele>1651.284</ele>
        <time>2018-09-12T07:32:59Z</time>
      </trkpt>
      <trkpt lat="46.552696" lon="11.735854">
        <ele>1654.007</ele>
        <time>2018-09-12T07:33:15Z</time>
      </trkpt>
      <trkpt lat="46.552747" lon="11.735743">
        <ele>1654.517</ele>
        <time>2018-09-12T07:33:24Z</time>
      </trkpt>
      <trkpt lat="46.552854" lon="11.735573">
        <ele>1657.908</ele>
        <time>2018-09-12T07:33:39Z</time>
      </trkpt>
      <trkpt lat="46.552924" lon="11.735492">
        <ele>1661.362</ele>
        <time>2018-09-12T07:33:48Z</time>
      </trkpt>
      <trkpt lat="46.552981" lon="11.735297">
        <ele>1661.334</ele>
        <time>2018-09-12T07:34:02Z</time>
      </trkpt>
      <trkpt lat="46.553010" lon="11.735097">
        <ele>1662.210</ele>
        <time>2018-09-12T07:34:16Z</time>
      </trkpt>
      <trkpt lat="46.553059" lon="11.734858">
        <ele>1665.136</ele>
        <time>2018-09-12T07:34:33Z</time>
      </trkpt>
      <trkpt lat="46.553123" lon="11.734599">
        <ele>1669.916</ele>
        <time>2018-09-12T07:34:51Z</time>
      </trkpt>
      <trkpt lat="46.553120" lon="11.734554">
        <ele>1670.456</ele>
        <time>2018-09-12T07:34:54Z</time>
      </trkpt>
      <trkpt lat="46.553073" lon="11.734460">
        <ele>1671.889</ele>
        <time>2018-09-12T07:35:04Z</time>
      </trkpt>
      <trkpt lat="46.552976" lon="11.734540">
        <ele>1676.695</ele>
        <time>2018-09-12T07:35:19Z</time>
      </trkpt>
      <trkpt lat="46.552883" lon="11.734686">
        <ele>1683.451</ele>
        <time>2018-09-12T07:35:35Z</time>
      </trkpt>
      <trkpt lat="46.552787" lon="11.734774">
        <ele>1688.201</ele>
        <time>2018-09-12T07:35:49Z</time>
      </trkpt>
      <trkpt lat="46.552695" lon="11.734848">
        <ele>1693.011</ele>
        <time>2018-09-12T07:36:04Z</time>
      </trkpt>
      <trkpt lat="46.552583" lon="11.734807">
        <ele>1693.008</ele>
        <time>2018-09-12T07:36:15Z</time>
      </trkpt>
      <trkpt lat="46.552562" lon="11.734608">
        <ele>1690.629</ele>
        <time>2018-09-12T07:36:30Z</time>
      </trkpt>
      <trkpt lat="46.552560" lon="11.734553">
        <ele>1690.621</ele>
        <time>2018-09-12T07:36:34Z</time>
      </trkpt>
      <trkpt lat="46.552570" lon="11.734416">
        <ele>1692.057</ele>
        <time>2018-09-12T07:36:45Z</time>
      </trkpt>
      <trkpt lat="46.552563" lon="11.734343">
        <ele>1692.543</ele>
        <time>2018-09-12T07:36:51Z</time>
      </trkpt>
      <trkpt lat="46.552548" lon="11.734113">
        <ele>1693.953</ele>
        <time>2018-09-12T07:37:07Z</time>
      </trkpt>
      <trkpt lat="46.552522" lon="11.733955">
        <ele>1695.933</ele>
        <time>2018-09-12T07:37:18Z</time>
      </trkpt>
      <trkpt lat="46.552511" lon="11.733944">
        <ele>1695.456</ele>
        <time>2018-09-12T07:37:19Z</time>
      </trkpt>
      <trkpt lat="46.552408" lon="11.733826">
        <ele>1697.392</ele>
        <time>2018-09-12T07:37:32Z</time>
      </trkpt>
      <trkpt lat="46.552279" lon="11.733748">
        <ele>1704.015</ele>
        <time>2018-09-12T07:37:48Z</time>
      </trkpt>
      <trkpt lat="46.552207" lon="11.733762">
        <ele>1705.065</ele>
        <time>2018-09-12T07:38:01Z</time>
      </trkpt>
      <trkpt lat="46.552062" lon="11.733823">
        <ele>1706.011</ele>
        <time>2018-09-12T07:38:20Z</time>
      </trkpt>
      <trkpt lat="46.551968" lon="11.733917">
        <ele>1705.508</ele>
        <time>2018-09-12T07:38:34Z</time>
      </trkpt>
      <trkpt lat="46.551949" lon="11.733929">
        <ele>1705.585</ele>
        <time>2018-09-12T07:38:38Z</time>
      </trkpt>
      <trkpt lat="46.551847" lon="11.733994">
        <ele>1707.487</ele>
        <time>2018-09-12T07:38:55Z</time>
      </trkpt>
      <trkpt lat="46.551757" lon="11.734044">
        <ele>1707.433</ele>
        <time>2018-09-12T07:39:12Z</time>
      </trkpt>
      <trkpt lat="46.551660" lon="11.734101">
        <ele>1709.899</ele>
        <time>2018-09-12T07:39:31Z</time>
      </trkpt>
      <trkpt lat="46.551569" lon="11.734198">
        <ele>1711.729</ele>
        <time>2018-09-12T07:39:49Z</time>
      </trkpt>
      <trkpt lat="46.551506" lon="11.734321">
        <ele>1713.269</ele>
        <time>2018-09-12T07:40:10Z</time>
      </trkpt>
      <trkpt lat="46.551472" lon="11.734440">
        <ele>1714.642</ele>
        <time>2018-09-12T07:40:25Z</time>
      </trkpt>
      <trkpt lat="46.551433" lon="11.734574">
        <ele>1718.468</ele>
        <time>2018-09-12T07:40:43Z</time>
      </trkpt>
      <trkpt lat="46.551385" lon="11.734640">
        <ele>1722.332</ele>
        <time>2018-09-12T07:41:00Z</time>
      </trkpt>
      <trkpt lat="46.551351" lon="11.734693">
        <ele>1723.792</ele>
        <time>2018-09-12T07:41:15Z</time>
      </trkpt>
      <trkpt lat="46.551313" lon="11.734788">
        <ele>1726.611</ele>
        <time>2018-09-12T07:41:29Z</time>
      </trkpt>
      <trkpt lat="46.551294" lon="11.734895">
        <ele>1730.008</ele>
        <time>2018-09-12T07:41:44Z</time>
      </trkpt>
      <trkpt lat="46.551275" lon="11.735034">
        <ele>1734.837</ele>
        <time>2018-09-12T07:41:59Z</time>
      </trkpt>
      <trkpt lat="46.551256" lon="11.735132">
        <ele>1736.779</ele>
        <time>2018-09-12T07:42:14Z</time>
      </trkpt>
      <trkpt lat="46.551232" lon="11.735268">
        <ele>1738.695</ele>
        <time>2018-09-12T07:42:31Z</time>
      </trkpt>
      <trkpt lat="46.551206" lon="11.735377">
        <ele>1741.581</ele>
        <time>2018-09-12T07:42:45Z</time>
      </trkpt>
      <trkpt lat="46.551184" lon="11.735499">
        <ele>1742.041</ele>
        <time>2018-09-12T07:43:00Z</time>
      </trkpt>
      <trkpt lat="46.551145" lon="11.735607">
        <ele>1743.411</ele>
        <time>2018-09-12T07:43:14Z</time>
      </trkpt>
      <trkpt lat="46.551096" lon="11.735729">
        <ele>1747.874</ele>
        <time>2018-09-12T07:43:29Z</time>
      </trkpt>
      <trkpt lat="46.550997" lon="11.735771">
        <ele>1746.870</ele>
        <time>2018-09-12T07:43:43Z</time>
      </trkpt>
      <trkpt lat="46.550868" lon="11.735860">
        <ele>1745.845</ele>
        <time>2018-09-12T07:43:58Z</time>
      </trkpt>
      <trkpt lat="46.550735" lon="11.735940">
        <ele>1744.947</ele>
        <time>2018-09-12T07:44:14Z</time>
      </trkpt>
      <trkpt lat="46.550705" lon="11.735943">
        <ele>1745.811</ele>
        <time>2018-09-12T07:44:18Z</time>
      </trkpt>
      <trkpt lat="46.550581" lon="11.735916">
        <ele>1751.608</ele>
        <time>2018-09-12T07:44:31Z</time>
      </trkpt>
      <trkpt lat="46.550483" lon="11.735917">
        <ele>1752.128</ele>
        <time>2018-09-12T07:44:38Z</time>
      </trkpt>
      <trkpt lat="46.550272" lon="11.736116">
        <ele>1754.570</ele>
        <time>2018-09-12T07:44:56Z</time>
      </trkpt>
      <trkpt lat="46.550236" lon="11.736163">
        <ele>1754.066</ele>
        <time>2018-09-12T07:44:59Z</time>
      </trkpt>
      <trkpt lat="46.550140" lon="11.736234">
        <ele>1755.022</ele>
        <time>2018-09-12T07:45:07Z</time>
      </trkpt>
      <trkpt lat="46.549907" lon="11.736373">
        <ele>1755.932</ele>
        <time>2018-09-12T07:45:25Z</time>
      </trkpt>
      <trkpt lat="46.549730" lon="11.736524">
        <ele>1757.992</ele>
        <time>2018-09-12T07:45:42Z</time>
      </trkpt>
      <trkpt lat="46.549701" lon="11.736635">
        <ele>1760.725</ele>
        <time>2018-09-12T07:45:50Z</time>
      </trkpt>
      <trkpt lat="46.549618" lon="11.736909">
        <ele>1766.531</ele>
        <time>2018-09-12T07:46:05Z</time>
      </trkpt>
      <trkpt lat="46.549392" lon="11.737244">
        <ele>1768.478</ele>
        <time>2018-09-12T07:46:22Z</time>
      </trkpt>
      <trkpt lat="46.549109" lon="11.737441">
        <ele>1761.733</ele>
        <time>2018-09-12T07:46:36Z</time>
      </trkpt>
      <trkpt lat="46.548985" lon="11.737698">
        <ele>1762.726</ele>
        <time>2018-09-12T07:46:49Z</time>
      </trkpt>
      <trkpt lat="46.548922" lon="11.737857">
        <ele>1766.508</ele>
        <time>2018-09-12T07:46:58Z</time>
      </trkpt>
      <trkpt lat="46.548921" lon="11.737877">
        <ele>1766.511</ele>
        <time>2018-09-12T07:46:59Z</time>
      </trkpt>
      <trkpt lat="46.548889" lon="11.738105">
        <ele>1766.573</ele>
        <time>2018-09-12T07:47:13Z</time>
      </trkpt>
      <trkpt lat="46.548882" lon="11.738147">
        <ele>1766.029</ele>
        <time>2018-09-12T07:47:16Z</time>
      </trkpt>
      <trkpt lat="46.548875" lon="11.738159">
        <ele>1766.075</ele>
        <time>2018-09-12T07:47:17Z</time>
      </trkpt>
      <trkpt lat="46.548836" lon="11.738246">
        <ele>1765.665</ele>
        <time>2018-09-12T07:47:23Z</time>
      </trkpt>
      <trkpt lat="46.548640" lon="11.738399">
        <ele>1766.585</ele>
        <time>2018-09-12T07:47:40Z</time>
      </trkpt>
      <trkpt lat="46.548449" lon="11.738581">
        <ele>1768.018</ele>
        <time>2018-09-12T07:47:58Z</time>
      </trkpt>
      <trkpt lat="46.548348" lon="11.738695">
        <ele>1768.954</ele>
        <time>2018-09-12T07:48:08Z</time>
      </trkpt>
      <trkpt lat="46.548339" lon="11.738704">
        <ele>1768.933</ele>
        <time>2018-09-12T07:48:09Z</time>
      </trkpt>
      <trkpt lat="46.548328" lon="11.738711">
        <ele>1769.423</ele>
        <time>2018-09-12T07:48:10Z</time>
      </trkpt>
      <trkpt lat="46.548317" lon="11.738719">
        <ele>1769.415</ele>
        <time>2018-09-12T07:48:11Z</time>
      </trkpt>
      <trkpt lat="46.548307" lon="11.738728">
        <ele>1769.408</ele>
        <time>2018-09-12T07:48:12Z</time>
      </trkpt>
      <trkpt lat="46.548297" lon="11.738737">
        <ele>1769.497</ele>
        <time>2018-09-12T07:48:13Z</time>
      </trkpt>
      <trkpt lat="46.548288" lon="11.738746">
        <ele>1769.459</ele>
        <time>2018-09-12T07:48:14Z</time>
      </trkpt>
      <trkpt lat="46.548280" lon="11.738754">
        <ele>1769.945</ele>
        <time>2018-09-12T07:48:15Z</time>
      </trkpt>
      <trkpt lat="46.548272" lon="11.738764">
        <ele>1769.991</ele>
        <time>2018-09-12T07:48:16Z</time>
      </trkpt>
      <trkpt lat="46.548230" lon="11.738805">
        <ele>1770.431</ele>
        <time>2018-09-12T07:48:20Z</time>
      </trkpt>
      <trkpt lat="46.548220" lon="11.738814">
        <ele>1770.431</ele>
        <time>2018-09-12T07:48:21Z</time>
      </trkpt>
      <trkpt lat="46.548212" lon="11.738820">
        <ele>1770.814</ele>
        <time>2018-09-12T07:48:22Z</time>
      </trkpt>
      <trkpt lat="46.548204" lon="11.738841">
        <ele>1771.310</ele>
        <time>2018-09-12T07:48:24Z</time>
      </trkpt>
      <trkpt lat="46.548190" lon="11.738856">
        <ele>1771.382</ele>
        <time>2018-09-12T07:48:26Z</time>
      </trkpt>
      <trkpt lat="46.548180" lon="11.738866">
        <ele>1771.343</ele>
        <time>2018-09-12T07:48:27Z</time>
      </trkpt>
      <trkpt lat="46.548031" lon="11.739124">
        <ele>1774.717</ele>
        <time>2018-09-12T07:48:45Z</time>
      </trkpt>
      <trkpt lat="46.547953" lon="11.739116">
        <ele>1773.708</ele>
        <time>2018-09-12T07:48:49Z</time>
      </trkpt>
      <trkpt lat="46.547932" lon="11.739094">
        <ele>1773.752</ele>
        <time>2018-09-12T07:48:50Z</time>
      </trkpt>
      <trkpt lat="46.547909" lon="11.739067">
        <ele>1773.234</ele>
        <time>2018-09-12T07:48:51Z</time>
      </trkpt>
      <trkpt lat="46.547741" lon="11.738799">
        <ele>1771.330</ele>
        <time>2018-09-12T07:48:58Z</time>
      </trkpt>
      <trkpt lat="46.547728" lon="11.738740">
        <ele>1770.836</ele>
        <time>2018-09-12T07:48:59Z</time>
      </trkpt>
      <trkpt lat="46.547707" lon="11.738617">
        <ele>1769.976</ele>
        <time>2018-09-12T07:49:01Z</time>
      </trkpt>
      <trkpt lat="46.547586" lon="11.737797">
        <ele>1767.076</ele>
        <time>2018-09-12T07:49:12Z</time>
      </trkpt>
      <trkpt lat="46.547584" lon="11.737715">
        <ele>1766.569</ele>
        <time>2018-09-12T07:49:13Z</time>
      </trkpt>
      <trkpt lat="46.547632" lon="11.737287">
        <ele>1765.665</ele>
        <time>2018-09-12T07:49:19Z</time>
      </trkpt>
      <trkpt lat="46.547631" lon="11.737219">
        <ele>1765.646</ele>
        <time>2018-09-12T07:49:20Z</time>
      </trkpt>
      <trkpt lat="46.547456" lon="11.736784">
        <ele>1763.288</ele>
        <time>2018-09-12T07:49:30Z</time>
      </trkpt>
      <trkpt lat="46.547320" lon="11.736287">
        <ele>1760.316</ele>
        <time>2018-09-12T07:49:39Z</time>
      </trkpt>
      <trkpt lat="46.547317" lon="11.736222">
        <ele>1759.808</ele>
        <time>2018-09-12T07:49:40Z</time>
      </trkpt>
      <trkpt lat="46.547336" lon="11.735897">
        <ele>1758.378</ele>
        <time>2018-09-12T07:49:45Z</time>
      </trkpt>
      <trkpt lat="46.547356" lon="11.735834">
        <ele>1758.310</ele>
        <time>2018-09-12T07:49:46Z</time>
      </trkpt>
      <trkpt lat="46.547384" lon="11.735776">
        <ele>1758.336</ele>
        <time>2018-09-12T07:49:47Z</time>
      </trkpt>
      <trkpt lat="46.547415" lon="11.735726">
        <ele>1757.922</ele>
        <time>2018-09-12T07:49:48Z</time>
      </trkpt>
      <trkpt lat="46.547449" lon="11.735676">
        <ele>1757.982</ele>
        <time>2018-09-12T07:49:49Z</time>
      </trkpt>
      <trkpt lat="46.547632" lon="11.735382">
        <ele>1756.912</ele>
        <time>2018-09-12T07:49:55Z</time>
      </trkpt>
      <trkpt lat="46.547877" lon="11.734978">
        <ele>1751.635</ele>
        <time>2018-09-12T07:50:05Z</time>
      </trkpt>
      <trkpt lat="46.547894" lon="11.734918">
        <ele>1750.761</ele>
        <time>2018-09-12T07:50:06Z</time>
      </trkpt>
      <trkpt lat="46.547905" lon="11.734854">
        <ele>1750.256</ele>
        <time>2018-09-12T07:50:07Z</time>
      </trkpt>
      <trkpt lat="46.547909" lon="11.734786">
        <ele>1749.759</ele>
        <time>2018-09-12T07:50:08Z</time>
      </trkpt>
      <trkpt lat="46.547908" lon="11.734719">
        <ele>1749.714</ele>
        <time>2018-09-12T07:50:09Z</time>
      </trkpt>
      <trkpt lat="46.547906" lon="11.734651">
        <ele>1749.708</ele>
        <time>2018-09-12T07:50:10Z</time>
      </trkpt>
      <trkpt lat="46.547825" lon="11.734053">
        <ele>1747.829</ele>
        <time>2018-09-12T07:50:21Z</time>
      </trkpt>
      <trkpt lat="46.547814" lon="11.733590">
        <ele>1743.961</ele>
        <time>2018-09-12T07:50:34Z</time>
      </trkpt>
      <trkpt lat="46.547889" lon="11.733154">
        <ele>1742.597</ele>
        <time>2018-09-12T07:50:46Z</time>
      </trkpt>
      <trkpt lat="46.547891" lon="11.733139">
        <ele>1742.543</ele>
        <time>2018-09-12T07:50:47Z</time>
      </trkpt>
      <trkpt lat="46.547887" lon="11.733120">
        <ele>1743.033</ele>
        <time>2018-09-12T07:50:48Z</time>
      </trkpt>
      <trkpt lat="46.547885" lon="11.733097">
        <ele>1743.013</ele>
        <time>2018-09-12T07:50:49Z</time>
      </trkpt>
      <trkpt lat="46.547889" lon="11.733068">
        <ele>1742.576</ele>
        <time>2018-09-12T07:50:50Z</time>
      </trkpt>
      <trkpt lat="46.547899" lon="11.733031">
        <ele>1742.542</ele>
        <time>2018-09-12T07:50:51Z</time>
      </trkpt>
      <trkpt lat="46.548051" lon="11.732596">
        <ele>1737.728</ele>
        <time>2018-09-12T07:51:01Z</time>
      </trkpt>
      <trkpt lat="46.548048" lon="11.732535">
        <ele>1736.789</ele>
        <time>2018-09-12T07:51:02Z</time>
      </trkpt>
      <trkpt lat="46.548054" lon="11.732477">
        <ele>1736.217</ele>
        <time>2018-09-12T07:51:03Z</time>
      </trkpt>
      <trkpt lat="46.548067" lon="11.732421">
        <ele>1735.308</ele>
        <time>2018-09-12T07:51:04Z</time>
      </trkpt>
      <trkpt lat="46.548079" lon="11.732367">
        <ele>1734.896</ele>
        <time>2018-09-12T07:51:05Z</time>
      </trkpt>
      <trkpt lat="46.548082" lon="11.732315">
        <ele>1734.348</ele>
        <time>2018-09-12T07:51:06Z</time>
      </trkpt>
      <trkpt lat="46.548082" lon="11.732260">
        <ele>1733.884</ele>
        <time>2018-09-12T07:51:07Z</time>
      </trkpt>
      <trkpt lat="46.548074" lon="11.732203">
        <ele>1733.820</ele>
        <time>2018-09-12T07:51:08Z</time>
      </trkpt>
      <trkpt lat="46.548059" lon="11.732148">
        <ele>1733.340</ele>
        <time>2018-09-12T07:51:09Z</time>
      </trkpt>
      <trkpt lat="46.548038" lon="11.732099">
        <ele>1732.990</ele>
        <time>2018-09-12T07:51:10Z</time>
      </trkpt>
      <trkpt lat="46.548008" lon="11.732064">
        <ele>1732.983</ele>
        <time>2018-09-12T07:51:11Z</time>
      </trkpt>
      <trkpt lat="46.547976" lon="11.732034">
        <ele>1732.489</ele>
        <time>2018-09-12T07:51:12Z</time>
      </trkpt>
      <trkpt lat="46.547942" lon="11.732005">
        <ele>1731.922</ele>
        <time>2018-09-12T07:51:13Z</time>
      </trkpt>
      <trkpt lat="46.547912" lon="11.731967">
        <ele>1731.962</ele>
        <time>2018-09-12T07:51:14Z</time>
      </trkpt>
      <trkpt lat="46.547890" lon="11.731917">
        <ele>1731.408</ele>
        <time>2018-09-12T07:51:15Z</time>
      </trkpt>
      <trkpt lat="46.547882" lon="11.731860">
        <ele>1730.908</ele>
        <time>2018-09-12T07:51:16Z</time>
      </trkpt>
      <trkpt lat="46.547881" lon="11.731803">
        <ele>1730.516</ele>
        <time>2018-09-12T07:51:17Z</time>
      </trkpt>
      <trkpt lat="46.547731" lon="11.731441">
        <ele>1728.518</ele>
        <time>2018-09-12T07:51:26Z</time>
      </trkpt>
      <trkpt lat="46.547394" lon="11.731203">
        <ele>1728.114</ele>
        <time>2018-09-12T07:51:35Z</time>
      </trkpt>
      <trkpt lat="46.547321" lon="11.731124">
        <ele>1728.150</ele>
        <time>2018-09-12T07:51:37Z</time>
      </trkpt>
      <trkpt lat="46.547282" lon="11.731092">
        <ele>1727.620</ele>
        <time>2018-09-12T07:51:38Z</time>
      </trkpt>
      <trkpt lat="46.547239" lon="11.731066">
        <ele>1727.630</ele>
        <time>2018-09-12T07:51:39Z</time>
      </trkpt>
      <trkpt lat="46.546911" lon="11.730942">
        <ele>1726.123</ele>
        <time>2018-09-12T07:51:50Z</time>
      </trkpt>
      <trkpt lat="46.546882" lon="11.730969">
        <ele>1725.769</ele>
        <time>2018-09-12T07:52:03Z</time>
      </trkpt>
      <trkpt lat="46.546828" lon="11.730982">
        <ele>1726.162</ele>
        <time>2018-09-12T07:52:25Z</time>
      </trkpt>
      <trkpt lat="46.546533" lon="11.731032">
        <ele>1723.383</ele>
        <time>2018-09-12T07:52:34Z</time>
      </trkpt>
      <trkpt lat="46.546283" lon="11.731066">
        <ele>1723.311</ele>
        <time>2018-09-12T07:52:40Z</time>
      </trkpt>
      <trkpt lat="46.546126" lon="11.731199">
        <ele>1724.208</ele>
        <time>2018-09-12T07:52:52Z</time>
      </trkpt>
      <trkpt lat="46.546090" lon="11.731236">
        <ele>1723.350</ele>
        <time>2018-09-12T07:52:55Z</time>
      </trkpt>
      <trkpt lat="46.546078" lon="11.731244">
        <ele>1723.342</ele>
        <time>2018-09-12T07:52:56Z</time>
      </trkpt>
      <trkpt lat="46.546068" lon="11.731250">
        <ele>1723.368</ele>
        <time>2018-09-12T07:52:57Z</time>
      </trkpt>
      <trkpt lat="46.546047" lon="11.731267">
        <ele>1723.374</ele>
        <time>2018-09-12T07:52:59Z</time>
      </trkpt>
      <trkpt lat="46.546037" lon="11.731277">
        <ele>1723.784</ele>
        <time>2018-09-12T07:53:00Z</time>
      </trkpt>
      <trkpt lat="46.546029" lon="11.731287">
        <ele>1723.774</ele>
        <time>2018-09-12T07:53:01Z</time>
      </trkpt>
      <trkpt lat="46.546018" lon="11.731296">
        <ele>1723.757</ele>
        <time>2018-09-12T07:53:02Z</time>
      </trkpt>
      <trkpt lat="46.546009" lon="11.731306">
        <ele>1723.753</ele>
        <time>2018-09-12T07:53:03Z</time>
      </trkpt>
      <trkpt lat="46.545997" lon="11.731315">
        <ele>1723.743</ele>
        <time>2018-09-12T07:53:04Z</time>
      </trkpt>
      <trkpt lat="46.545987" lon="11.731324">
        <ele>1723.764</ele>
        <time>2018-09-12T07:53:05Z</time>
      </trkpt>
      <trkpt lat="46.545977" lon="11.731336">
        <ele>1723.310</ele>
        <time>2018-09-12T07:53:06Z</time>
      </trkpt>
      <trkpt lat="46.545970" lon="11.731349">
        <ele>1723.308</ele>
        <time>2018-09-12T07:53:07Z</time>
      </trkpt>
      <trkpt lat="46.545874" lon="11.731465">
        <ele>1722.388</ele>
        <time>2018-09-12T07:53:20Z</time>
      </trkpt>
      <trkpt lat="46.545804" lon="11.731563">
        <ele>1723.740</ele>
        <time>2018-09-12T07:53:29Z</time>
      </trkpt>
      <trkpt lat="46.545795" lon="11.731573">
        <ele>1723.776</ele>
        <time>2018-09-12T07:53:30Z</time>
      </trkpt>
      <trkpt lat="46.545787" lon="11.731586">
        <ele>1724.222</ele>
        <time>2018-09-12T07:53:31Z</time>
      </trkpt>
      <trkpt lat="46.545779" lon="11.731598">
        <ele>1724.262</ele>
        <time>2018-09-12T07:53:32Z</time>
      </trkpt>
      <trkpt lat="46.545772" lon="11.731609">
        <ele>1724.252</ele>
        <time>2018-09-12T07:53:33Z</time>
      </trkpt>
      <trkpt lat="46.545754" lon="11.731645">
        <ele>1724.245</ele>
        <time>2018-09-12T07:53:36Z</time>
      </trkpt>
      <trkpt lat="46.545618" lon="11.731784">
        <ele>1726.171</ele>
        <time>2018-09-12T07:53:53Z</time>
      </trkpt>
      <trkpt lat="46.545531" lon="11.731827">
        <ele>1728.531</ele>
        <time>2018-09-12T07:54:02Z</time>
      </trkpt>
      <trkpt lat="46.545483" lon="11.731832">
        <ele>1730.061</ele>
        <time>2018-09-12T07:54:07Z</time>
      </trkpt>
      <trkpt lat="46.545369" lon="11.731918">
        <ele>1730.507</ele>
        <time>2018-09-12T07:54:20Z</time>
      </trkpt>
      <trkpt lat="46.545347" lon="11.731935">
        <ele>1730.908</ele>
        <time>2018-09-12T07:54:22Z</time>
      </trkpt>
      <trkpt lat="46.545336" lon="11.731943">
        <ele>1730.927</ele>
        <time>2018-09-12T07:54:23Z</time>
      </trkpt>
      <trkpt lat="46.545222" lon="11.732063">
        <ele>1733.339</ele>
        <time>2018-09-12T07:54:37Z</time>
      </trkpt>
      <trkpt lat="46.545217" lon="11.732078">
        <ele>1733.385</ele>
        <time>2018-09-12T07:54:38Z</time>
      </trkpt>
      <trkpt lat="46.545210" lon="11.732092">
        <ele>1733.311</ele>
        <time>2018-09-12T07:54:39Z</time>
      </trkpt>
      <trkpt lat="46.545203" lon="11.732107">
        <ele>1732.981</ele>
        <time>2018-09-12T07:54:40Z</time>
      </trkpt>
      <trkpt lat="46.545196" lon="11.732122">
        <ele>1732.481</ele>
        <time>2018-09-12T07:54:41Z</time>
      </trkpt>
      <trkpt lat="46.545192" lon="11.732137">
        <ele>1732.994</ele>
        <time>2018-09-12T07:54:42Z</time>
      </trkpt>
      <trkpt lat="46.545184" lon="11.732152">
        <ele>1732.410</ele>
        <time>2018-09-12T07:54:43Z</time>
      </trkpt>
      <trkpt lat="46.545176" lon="11.732168">
        <ele>1732.416</ele>
        <time>2018-09-12T07:54:44Z</time>
      </trkpt>
      <trkpt lat="46.544963" lon="11.732350">
        <ele>1735.876</ele>
        <time>2018-09-12T07:55:01Z</time>
      </trkpt>
      <trkpt lat="46.544843" lon="11.732436">
        <ele>1739.613</ele>
        <time>2018-09-12T07:55:14Z</time>
      </trkpt>
      <trkpt lat="46.544739" lon="11.732476">
        <ele>1743.408</ele>
        <time>2018-09-12T07:55:24Z</time>
      </trkpt>
      <trkpt lat="46.544725" lon="11.732485">
        <ele>1743.445</ele>
        <time>2018-09-12T07:55:25Z</time>
      </trkpt>
      <trkpt lat="46.544559" lon="11.732627">
        <ele>1741.557</ele>
        <time>2018-09-12T07:55:40Z</time>
      </trkpt>
      <trkpt lat="46.544550" lon="11.732639">
        <ele>1741.583</ele>
        <time>2018-09-12T07:55:41Z</time>
      </trkpt>
      <trkpt lat="46.544539" lon="11.732651">
        <ele>1741.539</ele>
        <time>2018-09-12T07:55:42Z</time>
      </trkpt>
      <trkpt lat="46.544529" lon="11.732662">
        <ele>1741.569</ele>
        <time>2018-09-12T07:55:43Z</time>
      </trkpt>
      <trkpt lat="46.544398" lon="11.732815">
        <ele>1742.539</ele>
        <time>2018-09-12T07:55:57Z</time>
      </trkpt>
      <trkpt lat="46.544385" lon="11.732823">
        <ele>1743.072</ele>
        <time>2018-09-12T07:55:58Z</time>
      </trkpt>
      <trkpt lat="46.544291" lon="11.732898">
        <ele>1745.448</ele>
        <time>2018-09-12T07:56:12Z</time>
      </trkpt>
      <trkpt lat="46.544212" lon="11.732941">
        <ele>1745.868</ele>
        <time>2018-09-12T07:56:27Z</time>
      </trkpt>
      <trkpt lat="46.544145" lon="11.733070">
        <ele>1747.342</ele>
        <time>2018-09-12T07:56:45Z</time>
      </trkpt>
      <trkpt lat="46.544035" lon="11.733208">
        <ele>1749.226</ele>
        <time>2018-09-12T07:57:02Z</time>
      </trkpt>
      <trkpt lat="46.543911" lon="11.733354">
        <ele>1753.108</ele>
        <time>2018-09-12T07:57:20Z</time>
      </trkpt>
      <trkpt lat="46.543808" lon="11.733453">
        <ele>1755.030</ele>
        <time>2018-09-12T07:57:37Z</time>
      </trkpt>
      <trkpt lat="46.543619" lon="11.733572">
        <ele>1753.192</ele>
        <time>2018-09-12T07:57:49Z</time>
      </trkpt>
      <trkpt lat="46.543484" lon="11.733552">
        <ele>1754.518</ele>
        <time>2018-09-12T07:58:00Z</time>
      </trkpt>
      <trkpt lat="46.543433" lon="11.733490">
        <ele>1754.534</ele>
        <time>2018-09-12T07:58:05Z</time>
      </trkpt>
      <trkpt lat="46.543433" lon="11.733471">
        <ele>1754.534</ele>
        <time>2018-09-12T07:58:06Z</time>
      </trkpt>
      <trkpt lat="46.543437" lon="11.733456">
        <ele>1754.514</ele>
        <time>2018-09-12T07:58:07Z</time>
      </trkpt>
      <trkpt lat="46.543444" lon="11.733442">
        <ele>1755.087</ele>
        <time>2018-09-12T07:58:08Z</time>
      </trkpt>
      <trkpt lat="46.543451" lon="11.733427">
        <ele>1755.073</ele>
        <time>2018-09-12T07:58:09Z</time>
      </trkpt>
      <trkpt lat="46.543459" lon="11.733412">
        <ele>1755.078</ele>
        <time>2018-09-12T07:58:10Z</time>
      </trkpt>
      <trkpt lat="46.543464" lon="11.733393">
        <ele>1755.033</ele>
        <time>2018-09-12T07:58:11Z</time>
      </trkpt>
      <trkpt lat="46.543527" lon="11.733084">
        <ele>1755.526</ele>
        <time>2018-09-12T07:58:28Z</time>
      </trkpt>
      <trkpt lat="46.543613" lon="11.732724">
        <ele>1758.308</ele>
        <time>2018-09-12T07:58:45Z</time>
      </trkpt>
      <trkpt lat="46.543762" lon="11.732378">
        <ele>1757.491</ele>
        <time>2018-09-12T07:58:59Z</time>
      </trkpt>
      <trkpt lat="46.543906" lon="11.732118">
        <ele>1754.593</ele>
        <time>2018-09-12T07:59:04Z</time>
      </trkpt>
      <trkpt lat="46.543943" lon="11.732073">
        <ele>1754.029</ele>
        <time>2018-09-12T07:59:05Z</time>
      </trkpt>
      <trkpt lat="46.544097" lon="11.731916">
        <ele>1752.125</ele>
        <time>2018-09-12T07:59:09Z</time>
      </trkpt>
      <trkpt lat="46.544124" lon="11.731869">
        <ele>1751.655</ele>
        <time>2018-09-12T07:59:10Z</time>
      </trkpt>
      <trkpt lat="46.544148" lon="11.731819">
        <ele>1751.155</ele>
        <time>2018-09-12T07:59:11Z</time>
      </trkpt>
      <trkpt lat="46.544188" lon="11.731709">
        <ele>1750.278</ele>
        <time>2018-09-12T07:59:13Z</time>
      </trkpt>
      <trkpt lat="46.544317" lon="11.731372">
        <ele>1747.344</ele>
        <time>2018-09-12T07:59:18Z</time>
      </trkpt>
      <trkpt lat="46.544352" lon="11.731312">
        <ele>1747.381</ele>
        <time>2018-09-12T07:59:19Z</time>
      </trkpt>
      <trkpt lat="46.544558" lon="11.730966">
        <ele>1743.461</ele>
        <time>2018-09-12T07:59:29Z</time>
      </trkpt>
      <trkpt lat="46.544846" lon="11.730511">
        <ele>1739.617</ele>
        <time>2018-09-12T07:59:38Z</time>
      </trkpt>
      <trkpt lat="46.544978" lon="11.730230">
        <ele>1738.208</ele>
        <time>2018-09-12T07:59:42Z</time>
      </trkpt>
      <trkpt lat="46.545298" lon="11.729773">
        <ele>1734.332</ele>
        <time>2018-09-12T07:59:50Z</time>
      </trkpt>
      <trkpt lat="46.545337" lon="11.729709">
        <ele>1733.844</ele>
        <time>2018-09-12T07:59:51Z</time>
      </trkpt>
      <trkpt lat="46.545786" lon="11.729164">
        <ele>1729.040</ele>
        <time>2018-09-12T08:00:01Z</time>
      </trkpt>
      <trkpt lat="46.545878" lon="11.729072">
        <ele>1728.556</ele>
        <time>2018-09-12T08:00:03Z</time>
      </trkpt>
      <trkpt lat="46.545916" lon="11.729020">
        <ele>1728.116</ele>
        <time>2018-09-12T08:00:04Z</time>
      </trkpt>
      <trkpt lat="46.546082" lon="11.728753">
        <ele>1727.156</ele>
        <time>2018-09-12T08:00:09Z</time>
      </trkpt>
      <trkpt lat="46.546455" lon="11.728232">
        <ele>1722.859</ele>
        <time>2018-09-12T08:00:21Z</time>
      </trkpt>
      <trkpt lat="46.546459" lon="11.728205">
        <ele>1722.355</ele>
        <time>2018-09-12T08:00:29Z</time>
      </trkpt>
      <trkpt lat="46.546477" lon="11.728156">
        <ele>1724.281</ele>
        <time>2018-09-12T08:00:40Z</time>
      </trkpt>
      <trkpt lat="46.546487" lon="11.728145">
        <ele>1724.261</ele>
        <time>2018-09-12T08:00:41Z</time>
      </trkpt>
      <trkpt lat="46.546501" lon="11.728130">
        <ele>1724.217</ele>
        <time>2018-09-12T08:00:42Z</time>
      </trkpt>
      <trkpt lat="46.546518" lon="11.728108">
        <ele>1724.208</ele>
        <time>2018-09-12T08:00:43Z</time>
      </trkpt>
      <trkpt lat="46.546536" lon="11.728081">
        <ele>1723.722</ele>
        <time>2018-09-12T08:00:44Z</time>
      </trkpt>
      <trkpt lat="46.546555" lon="11.728048">
        <ele>1723.734</ele>
        <time>2018-09-12T08:00:45Z</time>
      </trkpt>
      <trkpt lat="46.546574" lon="11.728010">
        <ele>1723.790</ele>
        <time>2018-09-12T08:00:46Z</time>
      </trkpt>
      <trkpt lat="46.546676" lon="11.727776">
        <ele>1722.836</ele>
        <time>2018-09-12T08:00:51Z</time>
      </trkpt>
      <trkpt lat="46.546700" lon="11.727722">
        <ele>1722.836</ele>
        <time>2018-09-12T08:00:52Z</time>
      </trkpt>
      <trkpt lat="46.546753" lon="11.727613">
        <ele>1722.816</ele>
        <time>2018-09-12T08:00:54Z</time>
      </trkpt>
      <trkpt lat="46.546779" lon="11.727556">
        <ele>1722.319</ele>
        <time>2018-09-12T08:00:55Z</time>
      </trkpt>
      <trkpt lat="46.546807" lon="11.727502">
        <ele>1722.895</ele>
        <time>2018-09-12T08:00:56Z</time>
      </trkpt>
      <trkpt lat="46.546827" lon="11.727454">
        <ele>1722.892</ele>
        <time>2018-09-12T08:00:57Z</time>
      </trkpt>
      <trkpt lat="46.546843" lon="11.727412">
        <ele>1722.873</ele>
        <time>2018-09-12T08:00:58Z</time>
      </trkpt>
      <trkpt lat="46.546870" lon="11.727189">
        <ele>1725.220</ele>
        <time>2018-09-12T08:01:07Z</time>
      </trkpt>
      <trkpt lat="46.546855" lon="11.727194">
        <ele>1729.008</ele>
        <time>2018-09-12T08:01:38Z</time>
      </trkpt>
      <trkpt lat="46.546847" lon="11.726946">
        <ele>1728.513</ele>
        <time>2018-09-12T08:01:53Z</time>
      </trkpt>
      <trkpt lat="46.546793" lon="11.726410">
        <ele>1727.125</ele>
        <time>2018-09-12T08:02:02Z</time>
      </trkpt>
      <trkpt lat="46.546776" lon="11.726354">
        <ele>1727.161</ele>
        <time>2018-09-12T08:02:03Z</time>
      </trkpt>
      <trkpt lat="46.546662" lon="11.725835">
        <ele>1723.727</ele>
        <time>2018-09-12T08:02:12Z</time>
      </trkpt>
      <trkpt lat="46.546648" lon="11.725765">
        <ele>1723.367</ele>
        <time>2018-09-12T08:02:13Z</time>
      </trkpt>
      <trkpt lat="46.546457" lon="11.725187">
        <ele>1720.937</ele>
        <time>2018-09-12T08:02:22Z</time>
      </trkpt>
      <trkpt lat="46.546436" lon="11.725140">
        <ele>1720.460</ele>
        <time>2018-09-12T08:02:23Z</time>
      </trkpt>
      <trkpt lat="46.546363" lon="11.724999">
        <ele>1718.956</ele>
        <time>2018-09-12T08:02:33Z</time>
      </trkpt>
      <trkpt lat="46.546358" lon="11.724984">
        <ele>1718.959</ele>
        <time>2018-09-12T08:02:35Z</time>
      </trkpt>
      <trkpt lat="46.546352" lon="11.724957">
        <ele>1718.903</ele>
        <time>2018-09-12T08:02:36Z</time>
      </trkpt>
      <trkpt lat="46.546278" lon="11.724642">
        <ele>1718.023</ele>
        <time>2018-09-12T08:02:43Z</time>
      </trkpt>
      <trkpt lat="46.546256" lon="11.724591">
        <ele>1718.008</ele>
        <time>2018-09-12T08:02:44Z</time>
      </trkpt>
      <trkpt lat="46.546227" lon="11.724546">
        <ele>1717.529</ele>
        <time>2018-09-12T08:02:45Z</time>
      </trkpt>
      <trkpt lat="46.546198" lon="11.724501">
        <ele>1717.021</ele>
        <time>2018-09-12T08:02:46Z</time>
      </trkpt>
      <trkpt lat="46.546171" lon="11.724454">
        <ele>1716.537</ele>
        <time>2018-09-12T08:02:47Z</time>
      </trkpt>
      <trkpt lat="46.546125" lon="11.724349">
        <ele>1715.163</ele>
        <time>2018-09-12T08:02:49Z</time>
      </trkpt>
      <trkpt lat="46.546114" lon="11.724286">
        <ele>1714.693</ele>
        <time>2018-09-12T08:02:50Z</time>
      </trkpt>
      <trkpt lat="46.546115" lon="11.724220">
        <ele>1714.123</ele>
        <time>2018-09-12T08:02:51Z</time>
      </trkpt>
      <trkpt lat="46.546128" lon="11.724158">
        <ele>1713.626</ele>
        <time>2018-09-12T08:02:52Z</time>
      </trkpt>
      <trkpt lat="46.546153" lon="11.724098">
        <ele>1713.292</ele>
        <time>2018-09-12T08:02:53Z</time>
      </trkpt>
      <trkpt lat="46.546178" lon="11.724054">
        <ele>1712.226</ele>
        <time>2018-09-12T08:02:54Z</time>
      </trkpt>
      <trkpt lat="46.546206" lon="11.723999">
        <ele>1711.747</ele>
        <time>2018-09-12T08:02:55Z</time>
      </trkpt>
      <trkpt lat="46.546225" lon="11.723950">
        <ele>1711.711</ele>
        <time>2018-09-12T08:02:56Z</time>
      </trkpt>
      <trkpt lat="46.546244" lon="11.723890">
        <ele>1711.208</ele>
        <time>2018-09-12T08:02:57Z</time>
      </trkpt>
      <trkpt lat="46.546259" lon="11.723825">
        <ele>1710.886</ele>
        <time>2018-09-12T08:02:58Z</time>
      </trkpt>
      <trkpt lat="46.546270" lon="11.723755">
        <ele>1710.348</ele>
        <time>2018-09-12T08:02:59Z</time>
      </trkpt>
      <trkpt lat="46.546274" lon="11.723683">
        <ele>1709.324</ele>
        <time>2018-09-12T08:03:00Z</time>
      </trkpt>
      <trkpt lat="46.546274" lon="11.723606">
        <ele>1708.880</ele>
        <time>2018-09-12T08:03:01Z</time>
      </trkpt>
      <trkpt lat="46.546269" lon="11.723534">
        <ele>1708.450</ele>
        <time>2018-09-12T08:03:02Z</time>
      </trkpt>
      <trkpt lat="46.546258" lon="11.723461">
        <ele>1707.970</ele>
        <time>2018-09-12T08:03:03Z</time>
      </trkpt>
      <trkpt lat="46.546244" lon="11.723390">
        <ele>1707.443</ele>
        <time>2018-09-12T08:03:04Z</time>
      </trkpt>
      <trkpt lat="46.546226" lon="11.723322">
        <ele>1706.969</ele>
        <time>2018-09-12T08:03:05Z</time>
      </trkpt>
      <trkpt lat="46.546204" lon="11.723253">
        <ele>1706.443</ele>
        <time>2018-09-12T08:03:06Z</time>
      </trkpt>
      <trkpt lat="46.546132" lon="11.723080">
        <ele>1704.564</ele>
        <time>2018-09-12T08:03:09Z</time>
      </trkpt>
      <trkpt lat="46.546087" lon="11.723017">
        <ele>1704.010</ele>
        <time>2018-09-12T08:03:10Z</time>
      </trkpt>
      <trkpt lat="46.546041" lon="11.722967">
        <ele>1703.508</ele>
        <time>2018-09-12T08:03:11Z</time>
      </trkpt>
      <trkpt lat="46.545947" lon="11.722873">
        <ele>1702.618</ele>
        <time>2018-09-12T08:03:13Z</time>
      </trkpt>
      <trkpt lat="46.545910" lon="11.722814">
        <ele>1702.640</ele>
        <time>2018-09-12T08:03:14Z</time>
      </trkpt>
      <trkpt lat="46.545883" lon="11.722749">
        <ele>1702.196</ele>
        <time>2018-09-12T08:03:15Z</time>
      </trkpt>
      <trkpt lat="46.545791" lon="11.722500">
        <ele>1701.682</ele>
        <time>2018-09-12T08:03:19Z</time>
      </trkpt>
      <trkpt lat="46.545648" lon="11.722181">
        <ele>1701.662</ele>
        <time>2018-09-12T08:03:29Z</time>
      </trkpt>
      <trkpt lat="46.545491" lon="11.721823">
        <ele>1705.562</ele>
        <time>2018-09-12T08:03:46Z</time>
      </trkpt>
      <trkpt lat="46.545324" lon="11.721516">
        <ele>1708.885</ele>
        <time>2018-09-12T08:04:01Z</time>
      </trkpt>
      <trkpt lat="46.545178" lon="11.721242">
        <ele>1709.381</ele>
        <time>2018-09-12T08:04:14Z</time>
      </trkpt>
      <trkpt lat="46.545004" lon="11.720847">
        <ele>1709.322</ele>
        <time>2018-09-12T08:04:30Z</time>
      </trkpt>
      <trkpt lat="46.544768" lon="11.720410">
        <ele>1707.462</ele>
        <time>2018-09-12T08:04:46Z</time>
      </trkpt>
      <trkpt lat="46.544581" lon="11.720046">
        <ele>1707.408</ele>
        <time>2018-09-12T08:04:59Z</time>
      </trkpt>
      <trkpt lat="46.544604" lon="11.719734">
        <ele>1707.408</ele>
        <time>2018-09-12T08:05:09Z</time>
      </trkpt>
      <trkpt lat="46.544728" lon="11.719116">
        <ele>1705.546</ele>
        <time>2018-09-12T08:05:21Z</time>
      </trkpt>
      <trkpt lat="46.544757" lon="11.718973">
        <ele>1704.548</ele>
        <time>2018-09-12T08:05:23Z</time>
      </trkpt>
      <trkpt lat="46.544788" lon="11.718845">
        <ele>1704.584</ele>
        <time>2018-09-12T08:05:25Z</time>
      </trkpt>
      <trkpt lat="46.544868" lon="11.718455">
        <ele>1704.040</ele>
        <time>2018-09-12T08:05:35Z</time>
      </trkpt>
      <trkpt lat="46.544967" lon="11.718040">
        <ele>1706.910</ele>
        <time>2018-09-12T08:05:51Z</time>
      </trkpt>
      <trkpt lat="46.544985" lon="11.717930">
        <ele>1708.420</ele>
        <time>2018-09-12T08:05:57Z</time>
      </trkpt>
      <trkpt lat="46.544992" lon="11.717911">
        <ele>1708.893</ele>
        <time>2018-09-12T08:05:58Z</time>
      </trkpt>
      <trkpt lat="46.544999" lon="11.717891">
        <ele>1709.349</ele>
        <time>2018-09-12T08:05:59Z</time>
      </trkpt>
      <trkpt lat="46.545004" lon="11.717870">
        <ele>1709.347</ele>
        <time>2018-09-12T08:06:00Z</time>
      </trkpt>
      <trkpt lat="46.545009" lon="11.717849">
        <ele>1709.329</ele>
        <time>2018-09-12T08:06:01Z</time>
      </trkpt>
      <trkpt lat="46.545017" lon="11.717828">
        <ele>1709.821</ele>
        <time>2018-09-12T08:06:02Z</time>
      </trkpt>
      <trkpt lat="46.545025" lon="11.717803">
        <ele>1709.808</ele>
        <time>2018-09-12T08:06:03Z</time>
      </trkpt>
      <trkpt lat="46.545030" lon="11.717779">
        <ele>1709.878</ele>
        <time>2018-09-12T08:06:04Z</time>
      </trkpt>
      <trkpt lat="46.545033" lon="11.717754">
        <ele>1709.840</ele>
        <time>2018-09-12T08:06:05Z</time>
      </trkpt>
      <trkpt lat="46.545034" lon="11.717727">
        <ele>1709.856</ele>
        <time>2018-09-12T08:06:06Z</time>
      </trkpt>
      <trkpt lat="46.545037" lon="11.717700">
        <ele>1709.822</ele>
        <time>2018-09-12T08:06:07Z</time>
      </trkpt>
      <trkpt lat="46.545042" lon="11.717672">
        <ele>1709.812</ele>
        <time>2018-09-12T08:06:08Z</time>
      </trkpt>
      <trkpt lat="46.545048" lon="11.717642">
        <ele>1709.872</ele>
        <time>2018-09-12T08:06:09Z</time>
      </trkpt>
      <trkpt lat="46.545053" lon="11.717606">
        <ele>1709.845</ele>
        <time>2018-09-12T08:06:10Z</time>
      </trkpt>
      <trkpt lat="46.545101" lon="11.716868">
        <ele>1708.421</ele>
        <time>2018-09-12T08:06:25Z</time>
      </trkpt>
      <trkpt lat="46.545065" lon="11.716633">
        <ele>1708.879</ele>
        <time>2018-09-12T08:06:31Z</time>
      </trkpt>
      <trkpt lat="46.544864" lon="11.716255">
        <ele>1704.505</ele>
        <time>2018-09-12T08:06:42Z</time>
      </trkpt>
      <trkpt lat="46.544838" lon="11.716082">
        <ele>1703.125</ele>
        <time>2018-09-12T08:06:45Z</time>
      </trkpt>
      <trkpt lat="46.544802" lon="11.715900">
        <ele>1702.608</ele>
        <time>2018-09-12T08:06:48Z</time>
      </trkpt>
      <trkpt lat="46.544783" lon="11.715844">
        <ele>1702.641</ele>
        <time>2018-09-12T08:06:49Z</time>
      </trkpt>
      <trkpt lat="46.544757" lon="11.715796">
        <ele>1702.683</ele>
        <time>2018-09-12T08:06:50Z</time>
      </trkpt>
      <trkpt lat="46.544726" lon="11.715756">
        <ele>1702.659</ele>
        <time>2018-09-12T08:06:51Z</time>
      </trkpt>
      <trkpt lat="46.544690" lon="11.715722">
        <ele>1702.615</ele>
        <time>2018-09-12T08:06:52Z</time>
      </trkpt>
      <trkpt lat="46.544653" lon="11.715693">
        <ele>1702.615</ele>
        <time>2018-09-12T08:06:53Z</time>
      </trkpt>
      <trkpt lat="46.544613" lon="11.715671">
        <ele>1702.665</ele>
        <time>2018-09-12T08:06:54Z</time>
      </trkpt>
      <trkpt lat="46.544571" lon="11.715650">
        <ele>1702.698</ele>
        <time>2018-09-12T08:06:55Z</time>
      </trkpt>
      <trkpt lat="46.544531" lon="11.715627">
        <ele>1702.664</ele>
        <time>2018-09-12T08:06:56Z</time>
      </trkpt>
      <trkpt lat="46.544311" lon="11.715337">
        <ele>1706.022</ele>
        <time>2018-09-12T08:07:07Z</time>
      </trkpt>
      <trkpt lat="46.544334" lon="11.714926">
        <ele>1709.362</ele>
        <time>2018-09-12T08:07:18Z</time>
      </trkpt>
      <trkpt lat="46.544361" lon="11.714797">
        <ele>1708.408</ele>
        <time>2018-09-12T08:07:20Z</time>
      </trkpt>
      <trkpt lat="46.544384" lon="11.714725">
        <ele>1707.908</ele>
        <time>2018-09-12T08:07:21Z</time>
      </trkpt>
      <trkpt lat="46.544413" lon="11.714650">
        <ele>1707.426</ele>
        <time>2018-09-12T08:07:22Z</time>
      </trkpt>
      <trkpt lat="46.544446" lon="11.714572">
        <ele>1706.458</ele>
        <time>2018-09-12T08:07:23Z</time>
      </trkpt>
      <trkpt lat="46.544486" lon="11.714496">
        <ele>1706.044</ele>
        <time>2018-09-12T08:07:24Z</time>
      </trkpt>
      <trkpt lat="46.544529" lon="11.714418">
        <ele>1705.060</ele>
        <time>2018-09-12T08:07:25Z</time>
      </trkpt>
      <trkpt lat="46.544608" lon="11.714252">
        <ele>1704.020</ele>
        <time>2018-09-12T08:07:27Z</time>
      </trkpt>
      <trkpt lat="46.544639" lon="11.714161">
        <ele>1703.560</ele>
        <time>2018-09-12T08:07:28Z</time>
      </trkpt>
      <trkpt lat="46.544661" lon="11.714064">
        <ele>1703.193</ele>
        <time>2018-09-12T08:07:29Z</time>
      </trkpt>
      <trkpt lat="46.544828" lon="11.713464">
        <ele>1701.689</ele>
        <time>2018-09-12T08:07:36Z</time>
      </trkpt>
      <trkpt lat="46.544860" lon="11.713400">
        <ele>1701.195</ele>
        <time>2018-09-12T08:07:37Z</time>
      </trkpt>
      <trkpt lat="46.545169" lon="11.712709">
        <ele>1699.749</ele>
        <time>2018-09-12T08:07:50Z</time>
      </trkpt>
      <trkpt lat="46.545343" lon="11.712222">
        <ele>1702.123</ele>
        <time>2018-09-12T08:08:04Z</time>
      </trkpt>
      <trkpt lat="46.545328" lon="11.711760">
        <ele>1706.408</ele>
        <time>2018-09-12T08:08:19Z</time>
      </trkpt>
      <trkpt lat="46.545260" lon="11.711241">
        <ele>1706.423</ele>
        <time>2018-09-12T08:08:33Z</time>
      </trkpt>
      <trkpt lat="46.545323" lon="11.710745">
        <ele>1707.975</ele>
        <time>2018-09-12T08:08:47Z</time>
      </trkpt>
      <trkpt lat="46.545345" lon="11.710317">
        <ele>1709.821</ele>
        <time>2018-09-12T08:09:03Z</time>
      </trkpt>
      <trkpt lat="46.545247" lon="11.710033">
        <ele>1712.787</ele>
        <time>2018-09-12T08:09:20Z</time>
      </trkpt>
      <trkpt lat="46.545131" lon="11.709876">
        <ele>1713.217</ele>
        <time>2018-09-12T08:09:35Z</time>
      </trkpt>
      <trkpt lat="46.545127" lon="11.709863">
        <ele>1713.237</ele>
        <time>2018-09-12T08:09:36Z</time>
      </trkpt>
      <trkpt lat="46.545120" lon="11.709852">
        <ele>1713.210</ele>
        <time>2018-09-12T08:09:37Z</time>
      </trkpt>
      <trkpt lat="46.545115" lon="11.709839">
        <ele>1713.626</ele>
        <time>2018-09-12T08:09:38Z</time>
      </trkpt>
      <trkpt lat="46.545110" lon="11.709824">
        <ele>1713.656</ele>
        <time>2018-09-12T08:09:39Z</time>
      </trkpt>
      <trkpt lat="46.545105" lon="11.709808">
        <ele>1713.659</ele>
        <time>2018-09-12T08:09:40Z</time>
      </trkpt>
      <trkpt lat="46.545040" lon="11.709497">
        <ele>1715.614</ele>
        <time>2018-09-12T08:09:57Z</time>
      </trkpt>
      <trkpt lat="46.545041" lon="11.709482">
        <ele>1715.608</ele>
        <time>2018-09-12T08:09:58Z</time>
      </trkpt>
      <trkpt lat="46.545040" lon="11.709465">
        <ele>1715.639</ele>
        <time>2018-09-12T08:09:59Z</time>
      </trkpt>
      <trkpt lat="46.545039" lon="11.709448">
        <ele>1715.661</ele>
        <time>2018-09-12T08:10:00Z</time>
      </trkpt>
      <trkpt lat="46.545036" lon="11.709430">
        <ele>1715.637</ele>
        <time>2018-09-12T08:10:01Z</time>
      </trkpt>
      <trkpt lat="46.545034" lon="11.709413">
        <ele>1716.083</ele>
        <time>2018-09-12T08:10:02Z</time>
      </trkpt>
      <trkpt lat="46.545032" lon="11.709396">
        <ele>1716.013</ele>
        <time>2018-09-12T08:10:03Z</time>
      </trkpt>
      <trkpt lat="46.545031" lon="11.709380">
        <ele>1716.023</ele>
        <time>2018-09-12T08:10:04Z</time>
      </trkpt>
      <trkpt lat="46.545029" lon="11.709366">
        <ele>1716.046</ele>
        <time>2018-09-12T08:10:05Z</time>
      </trkpt>
      <trkpt lat="46.545023" lon="11.709351">
        <ele>1716.082</ele>
        <time>2018-09-12T08:10:06Z</time>
      </trkpt>
      <trkpt lat="46.545020" lon="11.709337">
        <ele>1716.035</ele>
        <time>2018-09-12T08:10:07Z</time>
      </trkpt>
      <trkpt lat="46.544999" lon="11.709265">
        <ele>1716.586</ele>
        <time>2018-09-12T08:10:17Z</time>
      </trkpt>
      <trkpt lat="46.544999" lon="11.709229">
        <ele>1718.414</ele>
        <time>2018-09-12T08:10:42Z</time>
      </trkpt>
      <trkpt lat="46.544963" lon="11.709213">
        <ele>1719.408</ele>
        <time>2018-09-12T08:11:02Z</time>
      </trkpt>
      <trkpt lat="46.545008" lon="11.709224">
        <ele>1720.927</ele>
        <time>2018-09-12T08:11:20Z</time>
      </trkpt>
      <trkpt lat="46.545000" lon="11.709221">
        <ele>1721.359</ele>
        <time>2018-09-12T08:11:21Z</time>
      </trkpt>
      <trkpt lat="46.544989" lon="11.709219">
        <ele>1721.315</ele>
        <time>2018-09-12T08:11:22Z</time>
      </trkpt>
      <trkpt lat="46.544977" lon="11.709217">
        <ele>1721.341</ele>
        <time>2018-09-12T08:11:23Z</time>
      </trkpt>
      <trkpt lat="46.544969" lon="11.709216">
        <ele>1721.891</ele>
        <time>2018-09-12T08:11:24Z</time>
      </trkpt>
      <trkpt lat="46.544962" lon="11.709209">
        <ele>1721.821</ele>
        <time>2018-09-12T08:11:25Z</time>
      </trkpt>
      <trkpt lat="46.544947" lon="11.709177">
        <ele>1722.344</ele>
        <time>2018-09-12T08:11:28Z</time>
      </trkpt>
      <trkpt lat="46.544939" lon="11.709169">
        <ele>1722.330</ele>
        <time>2018-09-12T08:11:29Z</time>
      </trkpt>
      <trkpt lat="46.544930" lon="11.709160">
        <ele>1722.317</ele>
        <time>2018-09-12T08:11:30Z</time>
      </trkpt>
      <trkpt lat="46.544923" lon="11.709147">
        <ele>1722.887</ele>
        <time>2018-09-12T08:11:31Z</time>
      </trkpt>
      <trkpt lat="46.544859" lon="11.709017">
        <ele>1726.115</ele>
        <time>2018-09-12T08:11:43Z</time>
      </trkpt>
      <trkpt lat="46.544808" lon="11.708919">
        <ele>1727.108</ele>
        <time>2018-09-12T08:11:53Z</time>
      </trkpt>
      <trkpt lat="46.544797" lon="11.708855">
        <ele>1728.115</ele>
        <time>2018-09-12T08:12:01Z</time>
      </trkpt>
      <trkpt lat="46.544696" lon="11.708723">
        <ele>1731.917</ele>
        <time>2018-09-12T08:12:17Z</time>
      </trkpt>
      <trkpt lat="46.544587" lon="11.708598">
        <ele>1734.823</ele>
        <time>2018-09-12T08:12:34Z</time>
      </trkpt>
      <trkpt lat="46.544471" lon="11.708549">
        <ele>1737.229</ele>
        <time>2018-09-12T08:12:51Z</time>
      </trkpt>
      <trkpt lat="46.544333" lon="11.708494">
        <ele>1742.519</ele>
        <time>2018-09-12T08:13:09Z</time>
      </trkpt>
      <trkpt lat="46.544178" lon="11.708431">
        <ele>1745.419</ele>
        <time>2018-09-12T08:13:27Z</time>
      </trkpt>
      <trkpt lat="46.544120" lon="11.708425">
        <ele>1744.462</ele>
        <time>2018-09-12T08:13:43Z</time>
      </trkpt>
      <trkpt lat="46.544112" lon="11.708419">
        <ele>1744.498</ele>
        <time>2018-09-12T08:13:44Z</time>
      </trkpt>
      <trkpt lat="46.544048" lon="11.708358">
        <ele>1743.994</ele>
        <time>2018-09-12T08:13:54Z</time>
      </trkpt>
      <trkpt lat="46.543833" lon="11.708247">
        <ele>1745.457</ele>
        <time>2018-09-12T08:14:09Z</time>
      </trkpt>
      <trkpt lat="46.543652" lon="11.707996">
        <ele>1743.422</ele>
        <time>2018-09-12T08:14:26Z</time>
      </trkpt>
      <trkpt lat="46.543459" lon="11.707688">
        <ele>1742.008</ele>
        <time>2018-09-12T08:14:45Z</time>
      </trkpt>
      <trkpt lat="46.543363" lon="11.707476">
        <ele>1741.013</ele>
        <time>2018-09-12T08:14:57Z</time>
      </trkpt>
      <trkpt lat="46.543355" lon="11.707461">
        <ele>1741.575</ele>
        <time>2018-09-12T08:14:58Z</time>
      </trkpt>
      <trkpt lat="46.543347" lon="11.707445">
        <ele>1741.571</ele>
        <time>2018-09-12T08:14:59Z</time>
      </trkpt>
      <trkpt lat="46.543338" lon="11.707432">
        <ele>1742.017</ele>
        <time>2018-09-12T08:15:00Z</time>
      </trkpt>
      <trkpt lat="46.543330" lon="11.707421">
        <ele>1742.067</ele>
        <time>2018-09-12T08:15:01Z</time>
      </trkpt>
      <trkpt lat="46.543199" lon="11.707135">
        <ele>1745.437</ele>
        <time>2018-09-12T08:15:20Z</time>
      </trkpt>
      <trkpt lat="46.543192" lon="11.707119">
        <ele>1745.860</ele>
        <time>2018-09-12T08:15:21Z</time>
      </trkpt>
      <trkpt lat="46.543189" lon="11.707100">
        <ele>1745.836</ele>
        <time>2018-09-12T08:15:22Z</time>
      </trkpt>
      <trkpt lat="46.543184" lon="11.707083">
        <ele>1745.891</ele>
        <time>2018-09-12T08:15:23Z</time>
      </trkpt>
      <trkpt lat="46.543177" lon="11.707068">
        <ele>1746.381</ele>
        <time>2018-09-12T08:15:24Z</time>
      </trkpt>
      <trkpt lat="46.543168" lon="11.707055">
        <ele>1746.319</ele>
        <time>2018-09-12T08:15:25Z</time>
      </trkpt>
      <trkpt lat="46.543158" lon="11.707043">
        <ele>1746.808</ele>
        <time>2018-09-12T08:15:26Z</time>
      </trkpt>
      <trkpt lat="46.543149" lon="11.707029">
        <ele>1746.813</ele>
        <time>2018-09-12T08:15:27Z</time>
      </trkpt>
      <trkpt lat="46.543139" lon="11.707015">
        <ele>1747.315</ele>
        <time>2018-09-12T08:15:28Z</time>
      </trkpt>
      <trkpt lat="46.542973" lon="11.706727">
        <ele>1750.721</ele>
        <time>2018-09-12T08:15:48Z</time>
      </trkpt>
      <trkpt lat="46.542812" lon="11.706459">
        <ele>1751.627</ele>
        <time>2018-09-12T08:16:07Z</time>
      </trkpt>
      <trkpt lat="46.542666" lon="11.706148">
        <ele>1755.547</ele>
        <time>2018-09-12T08:16:26Z</time>
      </trkpt>
      <trkpt lat="46.542614" lon="11.705981">
        <ele>1756.497</ele>
        <time>2018-09-12T08:16:36Z</time>
      </trkpt>
      <trkpt lat="46.542611" lon="11.705962">
        <ele>1756.440</ele>
        <time>2018-09-12T08:16:37Z</time>
      </trkpt>
      <trkpt lat="46.542605" lon="11.705943">
        <ele>1756.986</ele>
        <time>2018-09-12T08:16:38Z</time>
      </trkpt>
      <trkpt lat="46.542468" lon="11.705598">
        <ele>1759.373</ele>
        <time>2018-09-12T08:16:58Z</time>
      </trkpt>
      <trkpt lat="46.542329" lon="11.705309">
        <ele>1761.785</ele>
        <time>2018-09-12T08:17:17Z</time>
      </trkpt>
      <trkpt lat="46.542178" lon="11.705064">
        <ele>1764.113</ele>
        <time>2018-09-12T08:17:33Z</time>
      </trkpt>
      <trkpt lat="46.541860" lon="11.704842">
        <ele>1765.108</ele>
        <time>2018-09-12T08:17:48Z</time>
      </trkpt>
      <trkpt lat="46.541353" lon="11.704803">
        <ele>1766.091</ele>
        <time>2018-09-12T08:18:05Z</time>
      </trkpt>
      <trkpt lat="46.540874" lon="11.704842">
        <ele>1766.563</ele>
        <time>2018-09-12T08:18:20Z</time>
      </trkpt>
      <trkpt lat="46.540619" lon="11.704970">
        <ele>1766.019</ele>
        <time>2018-09-12T08:18:28Z</time>
      </trkpt>
      <trkpt lat="46.540579" lon="11.704981">
        <ele>1766.065</ele>
        <time>2018-09-12T08:18:29Z</time>
      </trkpt>
      <trkpt lat="46.540536" lon="11.704981">
        <ele>1766.075</ele>
        <time>2018-09-12T08:18:30Z</time>
      </trkpt>
      <trkpt lat="46.540501" lon="11.704957">
        <ele>1766.095</ele>
        <time>2018-09-12T08:18:31Z</time>
      </trkpt>
      <trkpt lat="46.540477" lon="11.704920">
        <ele>1766.028</ele>
        <time>2018-09-12T08:18:32Z</time>
      </trkpt>
      <trkpt lat="46.540465" lon="11.704885">
        <ele>1766.014</ele>
        <time>2018-09-12T08:18:33Z</time>
      </trkpt>
      <trkpt lat="46.540461" lon="11.704852">
        <ele>1766.583</ele>
        <time>2018-09-12T08:18:34Z</time>
      </trkpt>
      <trkpt lat="46.540462" lon="11.704822">
        <ele>1767.025</ele>
        <time>2018-09-12T08:18:35Z</time>
      </trkpt>
      <trkpt lat="46.540545" lon="11.704430">
        <ele>1767.017</ele>
        <time>2018-09-12T08:18:46Z</time>
      </trkpt>
      <trkpt lat="46.540458" lon="11.703994">
        <ele>1768.408</ele>
        <time>2018-09-12T08:18:59Z</time>
      </trkpt>
      <trkpt lat="46.540292" lon="11.703778">
        <ele>1768.942</ele>
        <time>2018-09-12T08:19:11Z</time>
      </trkpt>
      <trkpt lat="46.540258" lon="11.703759">
        <ele>1769.924</ele>
        <time>2018-09-12T08:19:14Z</time>
      </trkpt>
      <trkpt lat="46.540250" lon="11.703747">
        <ele>1769.950</ele>
        <time>2018-09-12T08:19:15Z</time>
      </trkpt>
      <trkpt lat="46.540242" lon="11.703736">
        <ele>1770.446</ele>
        <time>2018-09-12T08:19:16Z</time>
      </trkpt>
      <trkpt lat="46.540235" lon="11.703726">
        <ele>1770.446</ele>
        <time>2018-09-12T08:19:17Z</time>
      </trkpt>
      <trkpt lat="46.540175" lon="11.703677">
        <ele>1771.316</ele>
        <time>2018-09-12T08:19:24Z</time>
      </trkpt>
      <trkpt lat="46.540165" lon="11.703669">
        <ele>1771.339</ele>
        <time>2018-09-12T08:19:25Z</time>
      </trkpt>
      <trkpt lat="46.540156" lon="11.703663">
        <ele>1771.315</ele>
        <time>2018-09-12T08:19:26Z</time>
      </trkpt>
      <trkpt lat="46.539980" lon="11.703499">
        <ele>1773.756</ele>
        <time>2018-09-12T08:19:44Z</time>
      </trkpt>
      <trkpt lat="46.539841" lon="11.703339">
        <ele>1779.059</ele>
        <time>2018-09-12T08:20:02Z</time>
      </trkpt>
      <trkpt lat="46.539736" lon="11.703146">
        <ele>1782.914</ele>
        <time>2018-09-12T08:20:18Z</time>
      </trkpt>
      <trkpt lat="46.539679" lon="11.702922">
        <ele>1790.108</ele>
        <time>2018-09-12T08:20:34Z</time>
      </trkpt>
      <trkpt lat="46.539665" lon="11.702873">
        <ele>1791.529</ele>
        <time>2018-09-12T08:20:38Z</time>
      </trkpt>
      <trkpt lat="46.539660" lon="11.702861">
        <ele>1791.561</ele>
        <time>2018-09-12T08:20:39Z</time>
      </trkpt>
      <trkpt lat="46.539655" lon="11.702832">
        <ele>1792.517</ele>
        <time>2018-09-12T08:20:41Z</time>
      </trkpt>
      <trkpt lat="46.539643" lon="11.702786">
        <ele>1793.993</ele>
        <time>2018-09-12T08:20:45Z</time>
      </trkpt>
      <trkpt lat="46.539561" lon="11.702615">
        <ele>1798.753</ele>
        <time>2018-09-12T08:21:00Z</time>
      </trkpt>
      <trkpt lat="46.539539" lon="11.702577">
        <ele>1799.743</ele>
        <time>2018-09-12T08:21:03Z</time>
      </trkpt>
      <trkpt lat="46.539528" lon="11.702574">
        <ele>1800.256</ele>
        <time>2018-09-12T08:21:04Z</time>
      </trkpt>
      <trkpt lat="46.539516" lon="11.702570">
        <ele>1800.252</ele>
        <time>2018-09-12T08:21:05Z</time>
      </trkpt>
      <trkpt lat="46.539505" lon="11.702567">
        <ele>1800.243</ele>
        <time>2018-09-12T08:21:06Z</time>
      </trkpt>
      <trkpt lat="46.539496" lon="11.702559">
        <ele>1800.664</ele>
        <time>2018-09-12T08:21:07Z</time>
      </trkpt>
      <trkpt lat="46.539452" lon="11.702524">
        <ele>1802.610</ele>
        <time>2018-09-12T08:21:12Z</time>
      </trkpt>
      <trkpt lat="46.539440" lon="11.702523">
        <ele>1803.008</ele>
        <time>2018-09-12T08:21:13Z</time>
      </trkpt>
      <trkpt lat="46.539427" lon="11.702522">
        <ele>1803.098</ele>
        <time>2018-09-12T08:21:14Z</time>
      </trkpt>
      <trkpt lat="46.539413" lon="11.702516">
        <ele>1803.080</ele>
        <time>2018-09-12T08:21:15Z</time>
      </trkpt>
      <trkpt lat="46.539401" lon="11.702509">
        <ele>1803.536</ele>
        <time>2018-09-12T08:21:16Z</time>
      </trkpt>
      <trkpt lat="46.539388" lon="11.702504">
        <ele>1803.512</ele>
        <time>2018-09-12T08:21:17Z</time>
      </trkpt>
      <trkpt lat="46.539126" lon="11.702504">
        <ele>1800.252</ele>
        <time>2018-09-12T08:21:29Z</time>
      </trkpt>
      <trkpt lat="46.538990" lon="11.702619">
        <ele>1798.282</ele>
        <time>2018-09-12T08:21:33Z</time>
      </trkpt>
      <trkpt lat="46.538922" lon="11.702703">
        <ele>1797.365</ele>
        <time>2018-09-12T08:21:35Z</time>
      </trkpt>
      <trkpt lat="46.538894" lon="11.702752">
        <ele>1796.821</ele>
        <time>2018-09-12T08:21:36Z</time>
      </trkpt>
      <trkpt lat="46.538609" lon="11.703265">
        <ele>1794.955</ele>
        <time>2018-09-12T08:21:49Z</time>
      </trkpt>
      <trkpt lat="46.538359" lon="11.703541">
        <ele>1790.107</ele>
        <time>2018-09-12T08:22:03Z</time>
      </trkpt>
      <trkpt lat="46.538175" lon="11.703671">
        <ele>1787.717</ele>
        <time>2018-09-12T08:22:15Z</time>
      </trkpt>
      <trkpt lat="46.537976" lon="11.703502">
        <ele>1797.808</ele>
        <time>2018-09-12T08:22:29Z</time>
      </trkpt>
      <trkpt lat="46.537714" lon="11.703486">
        <ele>1798.759</ele>
        <time>2018-09-12T08:22:40Z</time>
      </trkpt>
      <trkpt lat="46.537704" lon="11.703528">
        <ele>1794.421</ele>
        <time>2018-09-12T08:22:54Z</time>
      </trkpt>
      <trkpt lat="46.537560" lon="11.703589">
        <ele>1793.947</ele>
        <time>2018-09-12T08:23:11Z</time>
      </trkpt>
      <trkpt lat="46.537265" lon="11.703734">
        <ele>1793.043</ele>
        <time>2018-09-12T08:23:19Z</time>
      </trkpt>
      <trkpt lat="46.537222" lon="11.703759">
        <ele>1792.523</ele>
        <time>2018-09-12T08:23:20Z</time>
      </trkpt>
      <trkpt lat="46.537178" lon="11.703791">
        <ele>1792.543</ele>
        <time>2018-09-12T08:23:21Z</time>
      </trkpt>
      <trkpt lat="46.537046" lon="11.703905">
        <ele>1791.596</ele>
        <time>2018-09-12T08:23:24Z</time>
      </trkpt>
      <trkpt lat="46.536738" lon="11.704102">
        <ele>1790.582</ele>
        <time>2018-09-12T08:23:31Z</time>
      </trkpt>
      <trkpt lat="46.536698" lon="11.704103">
        <ele>1790.585</ele>
        <time>2018-09-12T08:23:32Z</time>
      </trkpt>
      <trkpt lat="46.536571" lon="11.704102">
        <ele>1790.189</ele>
        <time>2018-09-12T08:23:35Z</time>
      </trkpt>
      <trkpt lat="46.536530" lon="11.704091">
        <ele>1789.617</ele>
        <time>2018-09-12T08:23:36Z</time>
      </trkpt>
      <trkpt lat="46.536172" lon="11.704186">
        <ele>1785.708</ele>
        <time>2018-09-12T08:23:48Z</time>
      </trkpt>
      <trkpt lat="46.535883" lon="11.704360">
        <ele>1782.412</ele>
        <time>2018-09-12T08:23:57Z</time>
      </trkpt>
      <trkpt lat="46.535474" lon="11.704666">
        <ele>1777.124</ele>
        <time>2018-09-12T08:24:11Z</time>
      </trkpt>
      <trkpt lat="46.534935" lon="11.704872">
        <ele>1773.730</ele>
        <time>2018-09-12T08:24:26Z</time>
      </trkpt>
      <trkpt lat="46.534887" lon="11.704862">
        <ele>1774.236</ele>
        <time>2018-09-12T08:24:27Z</time>
      </trkpt>
      <trkpt lat="46.534836" lon="11.704838">
        <ele>1774.296</ele>
        <time>2018-09-12T08:24:28Z</time>
      </trkpt>
      <trkpt lat="46.534785" lon="11.704803">
        <ele>1774.236</ele>
        <time>2018-09-12T08:24:29Z</time>
      </trkpt>
      <trkpt lat="46.534735" lon="11.704752">
        <ele>1774.769</ele>
        <time>2018-09-12T08:24:30Z</time>
      </trkpt>
      <trkpt lat="46.534687" lon="11.704685">
        <ele>1774.715</ele>
        <time>2018-09-12T08:24:31Z</time>
      </trkpt>
      <trkpt lat="46.534647" lon="11.704610">
        <ele>1774.783</ele>
        <time>2018-09-12T08:24:32Z</time>
      </trkpt>
      <trkpt lat="46.534609" lon="11.704533">
        <ele>1774.725</ele>
        <time>2018-09-12T08:24:33Z</time>
      </trkpt>
      <trkpt lat="46.534495" lon="11.704317">
        <ele>1775.217</ele>
        <time>2018-09-12T08:24:36Z</time>
      </trkpt>
      <trkpt lat="46.534083" lon="11.703911">
        <ele>1778.108</ele>
        <time>2018-09-12T08:24:47Z</time>
      </trkpt>
      <trkpt lat="46.533850" lon="11.703421">
        <ele>1780.942</ele>
        <time>2018-09-12T08:24:58Z</time>
      </trkpt>
      <trkpt lat="46.533665" lon="11.702810">
        <ele>1782.954</ele>
        <time>2018-09-12T08:25:13Z</time>
      </trkpt>
      <trkpt lat="46.533368" lon="11.702616">
        <ele>1785.380</ele>
        <time>2018-09-12T08:25:27Z</time>
      </trkpt>
      <trkpt lat="46.532990" lon="11.702577">
        <ele>1786.726</ele>
        <time>2018-09-12T08:25:44Z</time>
      </trkpt>
      <trkpt lat="46.532826" lon="11.702277">
        <ele>1794.476</ele>
        <time>2018-09-12T08:25:57Z</time>
      </trkpt>
      <trkpt lat="46.532748" lon="11.701836">
        <ele>1799.746</ele>
        <time>2018-09-12T08:26:13Z</time>
      </trkpt>
      <trkpt lat="46.532642" lon="11.701450">
        <ele>1810.359</ele>
        <time>2018-09-12T08:26:29Z</time>
      </trkpt>
      <trkpt lat="46.532687" lon="11.701036">
        <ele>1812.295</ele>
        <time>2018-09-12T08:26:43Z</time>
      </trkpt>
      <trkpt lat="46.532754" lon="11.700783">
        <ele>1812.215</ele>
        <time>2018-09-12T08:26:55Z</time>
      </trkpt>
      <trkpt lat="46.532855" lon="11.700535">
        <ele>1810.365</ele>
        <time>2018-09-12T08:27:12Z</time>
      </trkpt>
      <trkpt lat="46.532919" lon="11.700356">
        <ele>1811.211</ele>
        <time>2018-09-12T08:27:26Z</time>
      </trkpt>
      <trkpt lat="46.532970" lon="11.700196">
        <ele>1811.208</ele>
        <time>2018-09-12T08:27:38Z</time>
      </trkpt>
      <trkpt lat="46.533027" lon="11.700031">
        <ele>1814.155</ele>
        <time>2018-09-12T08:27:52Z</time>
      </trkpt>
      <trkpt lat="46.533090" lon="11.699834">
        <ele>1816.527</ele>
        <time>2018-09-12T08:28:07Z</time>
      </trkpt>
      <trkpt lat="46.533138" lon="11.699673">
        <ele>1820.363</ele>
        <time>2018-09-12T08:28:21Z</time>
      </trkpt>
      <trkpt lat="46.533177" lon="11.699490">
        <ele>1824.259</ele>
        <time>2018-09-12T08:28:35Z</time>
      </trkpt>
      <trkpt lat="46.533216" lon="11.699295">
        <ele>1825.279</ele>
        <time>2018-09-12T08:28:48Z</time>
      </trkpt>
      <trkpt lat="46.533290" lon="11.699109">
        <ele>1824.289</ele>
        <time>2018-09-12T08:29:03Z</time>
      </trkpt>
      <trkpt lat="46.533354" lon="11.698860">
        <ele>1825.262</ele>
        <time>2018-09-12T08:29:21Z</time>
      </trkpt>
      <trkpt lat="46.533371" lon="11.698823">
        <ele>1824.798</ele>
        <time>2018-09-12T08:29:33Z</time>
      </trkpt>
      <trkpt lat="46.533392" lon="11.698759">
        <ele>1825.212</ele>
        <time>2018-09-12T08:29:51Z</time>
      </trkpt>
      <trkpt lat="46.533413" lon="11.698846">
        <ele>1822.332</ele>
        <time>2018-09-12T08:30:23Z</time>
      </trkpt>
      <trkpt lat="46.533427" lon="11.698776">
        <ele>1821.805</ele>
        <time>2018-09-12T08:30:32Z</time>
      </trkpt>
      <trkpt lat="46.533424" lon="11.698757">
        <ele>1821.808</ele>
        <time>2018-09-12T08:30:33Z</time>
      </trkpt>
      <trkpt lat="46.533470" lon="11.698384">
        <ele>1823.245</ele>
        <time>2018-09-12T08:30:42Z</time>
      </trkpt>
      <trkpt lat="46.533644" lon="11.698027">
        <ele>1824.297</ele>
        <time>2018-09-12T08:30:55Z</time>
      </trkpt>
      <trkpt lat="46.533769" lon="11.697754">
        <ele>1825.223</ele>
        <time>2018-09-12T08:31:09Z</time>
      </trkpt>
      <trkpt lat="46.533918" lon="11.697465">
        <ele>1824.219</ele>
        <time>2018-09-12T08:31:23Z</time>
      </trkpt>
      <trkpt lat="46.534001" lon="11.697070">
        <ele>1822.899</ele>
        <time>2018-09-12T08:31:35Z</time>
      </trkpt>
      <trkpt lat="46.534043" lon="11.696837">
        <ele>1821.379</ele>
        <time>2018-09-12T08:31:39Z</time>
      </trkpt>
      <trkpt lat="46.534366" lon="11.696183">
        <ele>1813.652</ele>
        <time>2018-09-12T08:31:50Z</time>
      </trkpt>
      <trkpt lat="46.534404" lon="11.696140">
        <ele>1812.768</ele>
        <time>2018-09-12T08:31:51Z</time>
      </trkpt>
      <trkpt lat="46.534494" lon="11.696052">
        <ele>1810.711</ele>
        <time>2018-09-12T08:31:53Z</time>
      </trkpt>
      <trkpt lat="46.534596" lon="11.695987">
        <ele>1809.321</ele>
        <time>2018-09-12T08:31:55Z</time>
      </trkpt>
      <trkpt lat="46.534653" lon="11.695963">
        <ele>1808.803</ele>
        <time>2018-09-12T08:31:56Z</time>
      </trkpt>
      <trkpt lat="46.535089" lon="11.695745">
        <ele>1805.008</ele>
        <time>2018-09-12T08:32:03Z</time>
      </trkpt>
      <trkpt lat="46.535356" lon="11.695470">
        <ele>1804.065</ele>
        <time>2018-09-12T08:32:08Z</time>
      </trkpt>
      <trkpt lat="46.535812" lon="11.694614">
        <ele>1800.667</ele>
        <time>2018-09-12T08:32:18Z</time>
      </trkpt>
      <trkpt lat="46.535860" lon="11.694375">
        <ele>1801.153</ele>
        <time>2018-09-12T08:32:21Z</time>
      </trkpt>
      <trkpt lat="46.535888" lon="11.693691">
        <ele>1806.959</ele>
        <time>2018-09-12T08:32:34Z</time>
      </trkpt>
      <trkpt lat="46.535892" lon="11.693419">
        <ele>1809.389</ele>
        <time>2018-09-12T08:32:41Z</time>
      </trkpt>
      <trkpt lat="46.535887" lon="11.693354">
        <ele>1809.839</ele>
        <time>2018-09-12T08:32:42Z</time>
      </trkpt>
      <trkpt lat="46.535877" lon="11.693287">
        <ele>1809.822</ele>
        <time>2018-09-12T08:32:43Z</time>
      </trkpt>
      <trkpt lat="46.535865" lon="11.693217">
        <ele>1809.878</ele>
        <time>2018-09-12T08:32:44Z</time>
      </trkpt>
      <trkpt lat="46.535847" lon="11.693148">
        <ele>1809.894</ele>
        <time>2018-09-12T08:32:45Z</time>
      </trkpt>
      <trkpt lat="46.535825" lon="11.693080">
        <ele>1809.857</ele>
        <time>2018-09-12T08:32:46Z</time>
      </trkpt>
      <trkpt lat="46.535583" lon="11.692648">
        <ele>1807.422</ele>
        <time>2018-09-12T08:32:56Z</time>
      </trkpt>
      <trkpt lat="46.535103" lon="11.692211">
        <ele>1797.808</ele>
        <time>2018-09-12T08:33:08Z</time>
      </trkpt>
      <trkpt lat="46.534894" lon="11.691958">
        <ele>1793.963</ele>
        <time>2018-09-12T08:33:14Z</time>
      </trkpt>
      <trkpt lat="46.534461" lon="11.691495">
        <ele>1789.635</ele>
        <time>2018-09-12T08:33:26Z</time>
      </trkpt>
      <trkpt lat="46.534418" lon="11.691475">
        <ele>1789.141</ele>
        <time>2018-09-12T08:33:27Z</time>
      </trkpt>
      <trkpt lat="46.534370" lon="11.691466">
        <ele>1788.177</ele>
        <time>2018-09-12T08:33:28Z</time>
      </trkpt>
      <trkpt lat="46.534318" lon="11.691464">
        <ele>1787.737</ele>
        <time>2018-09-12T08:33:29Z</time>
      </trkpt>
      <trkpt lat="46.534262" lon="11.691471">
        <ele>1786.757</ele>
        <time>2018-09-12T08:33:30Z</time>
      </trkpt>
      <trkpt lat="46.534205" lon="11.691477">
        <ele>1786.740</ele>
        <time>2018-09-12T08:33:31Z</time>
      </trkpt>
      <trkpt lat="46.534147" lon="11.691478">
        <ele>1786.216</ele>
        <time>2018-09-12T08:33:32Z</time>
      </trkpt>
      <trkpt lat="46.534090" lon="11.691475">
        <ele>1786.294</ele>
        <time>2018-09-12T08:33:33Z</time>
      </trkpt>
      <trkpt lat="46.533397" lon="11.691380">
        <ele>1782.957</ele>
        <time>2018-09-12T08:33:48Z</time>
      </trkpt>
      <trkpt lat="46.532906" lon="11.691341">
        <ele>1780.022</ele>
        <time>2018-09-12T08:34:01Z</time>
      </trkpt>
      <trkpt lat="46.532863" lon="11.691334">
        <ele>1779.508</ele>
        <time>2018-09-12T08:34:02Z</time>
      </trkpt>
      <trkpt lat="46.532821" lon="11.691312">
        <ele>1779.083</ele>
        <time>2018-09-12T08:34:03Z</time>
      </trkpt>
      <trkpt lat="46.532778" lon="11.691279">
        <ele>1778.545</ele>
        <time>2018-09-12T08:34:04Z</time>
      </trkpt>
      <trkpt lat="46.532689" lon="11.691195">
        <ele>1777.121</ele>
        <time>2018-09-12T08:34:06Z</time>
      </trkpt>
      <trkpt lat="46.532643" lon="11.691137">
        <ele>1776.697</ele>
        <time>2018-09-12T08:34:07Z</time>
      </trkpt>
      <trkpt lat="46.532554" lon="11.691006">
        <ele>1775.647</ele>
        <time>2018-09-12T08:34:09Z</time>
      </trkpt>
      <trkpt lat="46.532286" lon="11.690510">
        <ele>1776.647</ele>
        <time>2018-09-12T08:34:19Z</time>
      </trkpt>
      <trkpt lat="46.532039" lon="11.689957">
        <ele>1778.590</ele>
        <time>2018-09-12T08:34:36Z</time>
      </trkpt>
      <trkpt lat="46.531831" lon="11.689476">
        <ele>1781.446</ele>
        <time>2018-09-12T08:34:52Z</time>
      </trkpt>
      <trkpt lat="46.531496" lon="11.688974">
        <ele>1779.586</ele>
        <time>2018-09-12T08:35:06Z</time>
      </trkpt>
      <trkpt lat="46.531249" lon="11.688458">
        <ele>1775.260</ele>
        <time>2018-09-12T08:35:13Z</time>
      </trkpt>
      <trkpt lat="46.531200" lon="11.688406">
        <ele>1774.726</ele>
        <time>2018-09-12T08:35:14Z</time>
      </trkpt>
      <trkpt lat="46.531148" lon="11.688376">
        <ele>1774.208</ele>
        <time>2018-09-12T08:35:15Z</time>
      </trkpt>
      <trkpt lat="46.531101" lon="11.688364">
        <ele>1773.752</ele>
        <time>2018-09-12T08:35:16Z</time>
      </trkpt>
      <trkpt lat="46.531053" lon="11.688364">
        <ele>1773.264</ele>
        <time>2018-09-12T08:35:17Z</time>
      </trkpt>
      <trkpt lat="46.531003" lon="11.688370">
        <ele>1773.220</ele>
        <time>2018-09-12T08:35:18Z</time>
      </trkpt>
      <trkpt lat="46.530840" lon="11.688387">
        <ele>1772.376</ele>
        <time>2018-09-12T08:35:21Z</time>
      </trkpt>
      <trkpt lat="46.530729" lon="11.688360">
        <ele>1770.816</ele>
        <time>2018-09-12T08:35:23Z</time>
      </trkpt>
      <trkpt lat="46.530678" lon="11.688313">
        <ele>1770.486</ele>
        <time>2018-09-12T08:35:24Z</time>
      </trkpt>
      <trkpt lat="46.530640" lon="11.688240">
        <ele>1769.989</ele>
        <time>2018-09-12T08:35:25Z</time>
      </trkpt>
      <trkpt lat="46.530614" lon="11.688157">
        <ele>1769.425</ele>
        <time>2018-09-12T08:35:26Z</time>
      </trkpt>
      <trkpt lat="46.530600" lon="11.688072">
        <ele>1769.445</ele>
        <time>2018-09-12T08:35:27Z</time>
      </trkpt>
      <trkpt lat="46.530598" lon="11.687992">
        <ele>1769.447</ele>
        <time>2018-09-12T08:35:28Z</time>
      </trkpt>
      <trkpt lat="46.530606" lon="11.687925">
        <ele>1769.411</ele>
        <time>2018-09-12T08:35:29Z</time>
      </trkpt>
      <trkpt lat="46.530615" lon="11.687868">
        <ele>1769.908</ele>
        <time>2018-09-12T08:35:30Z</time>
      </trkpt>
      <trkpt lat="46.530742" lon="11.687462">
        <ele>1770.468</ele>
        <time>2018-09-12T08:35:43Z</time>
      </trkpt>
      <trkpt lat="46.530779" lon="11.687393">
        <ele>1770.470</ele>
        <time>2018-09-12T08:36:03Z</time>
      </trkpt>
      <trkpt lat="46.530905" lon="11.686853">
        <ele>1769.436</ele>
        <time>2018-09-12T08:36:14Z</time>
      </trkpt>
      <trkpt lat="46.530978" lon="11.685739">
        <ele>1766.522</ele>
        <time>2018-09-12T08:36:27Z</time>
      </trkpt>
      <trkpt lat="46.530979" lon="11.685647">
        <ele>1766.542</ele>
        <time>2018-09-12T08:36:28Z</time>
      </trkpt>
      <trkpt lat="46.530974" lon="11.685558">
        <ele>1766.062</ele>
        <time>2018-09-12T08:36:29Z</time>
      </trkpt>
      <trkpt lat="46.530888" lon="11.684963">
        <ele>1767.545</ele>
        <time>2018-09-12T08:36:39Z</time>
      </trkpt>
      <trkpt lat="46.530803" lon="11.684607">
        <ele>1769.451</ele>
        <time>2018-09-12T08:36:55Z</time>
      </trkpt>
      <trkpt lat="46.530649" lon="11.684291">
        <ele>1769.916</ele>
        <time>2018-09-12T08:37:10Z</time>
      </trkpt>
      <trkpt lat="46.530485" lon="11.683972">
        <ele>1770.876</ele>
        <time>2018-09-12T08:37:26Z</time>
      </trkpt>
      <trkpt lat="46.530413" lon="11.683390">
        <ele>1770.813</ele>
        <time>2018-09-12T08:37:43Z</time>
      </trkpt>
      <trkpt lat="46.530420" lon="11.683188">
        <ele>1769.408</ele>
        <time>2018-09-12T08:37:46Z</time>
      </trkpt>
      <trkpt lat="46.530434" lon="11.683114">
        <ele>1768.455</ele>
        <time>2018-09-12T08:37:47Z</time>
      </trkpt>
      <trkpt lat="46.530521" lon="11.682850">
        <ele>1764.637</ele>
        <time>2018-09-12T08:37:51Z</time>
      </trkpt>
      <trkpt lat="46.530551" lon="11.682804">
        <ele>1764.113</ele>
        <time>2018-09-12T08:37:52Z</time>
      </trkpt>
      <trkpt lat="46.530579" lon="11.682756">
        <ele>1763.679</ele>
        <time>2018-09-12T08:37:53Z</time>
      </trkpt>
      <trkpt lat="46.530601" lon="11.682707">
        <ele>1762.729</ele>
        <time>2018-09-12T08:37:54Z</time>
      </trkpt>
      <trkpt lat="46.530617" lon="11.682649">
        <ele>1762.259</ele>
        <time>2018-09-12T08:37:55Z</time>
      </trkpt>
      <trkpt lat="46.530633" lon="11.682588">
        <ele>1761.292</ele>
        <time>2018-09-12T08:37:56Z</time>
      </trkpt>
      <trkpt lat="46.530653" lon="11.682528">
        <ele>1760.718</ele>
        <time>2018-09-12T08:37:57Z</time>
      </trkpt>
      <trkpt lat="46.530676" lon="11.682464">
        <ele>1759.835</ele>
        <time>2018-09-12T08:37:58Z</time>
      </trkpt>
      <trkpt lat="46.530863" lon="11.681920">
        <ele>1754.586</ele>
        <time>2018-09-12T08:38:06Z</time>
      </trkpt>
      <trkpt lat="46.530885" lon="11.681842">
        <ele>1753.514</ele>
        <time>2018-09-12T08:38:07Z</time>
      </trkpt>
      <trkpt lat="46.531053" lon="11.681457">
        <ele>1749.708</ele>
        <time>2018-09-12T08:38:13Z</time>
      </trkpt>
      <trkpt lat="46.531083" lon="11.681406">
        <ele>1749.237</ele>
        <time>2018-09-12T08:38:14Z</time>
      </trkpt>
      <trkpt lat="46.531147" lon="11.681309">
        <ele>1747.839</ele>
        <time>2018-09-12T08:38:16Z</time>
      </trkpt>
      <trkpt lat="46.531260" lon="11.681066">
        <ele>1744.965</ele>
        <time>2018-09-12T08:38:20Z</time>
      </trkpt>
      <trkpt lat="46.531287" lon="11.681005">
        <ele>1744.481</ele>
        <time>2018-09-12T08:38:21Z</time>
      </trkpt>
      <trkpt lat="46.531379" lon="11.680752">
        <ele>1741.041</ele>
        <time>2018-09-12T08:38:25Z</time>
      </trkpt>
      <trkpt lat="46.531408" lon="11.680691">
        <ele>1740.141</ele>
        <time>2018-09-12T08:38:26Z</time>
      </trkpt>
      <trkpt lat="46.531548" lon="11.680410">
        <ele>1736.234</ele>
        <time>2018-09-12T08:38:31Z</time>
      </trkpt>
      <trkpt lat="46.531560" lon="11.680347">
        <ele>1735.810</ele>
        <time>2018-09-12T08:38:32Z</time>
      </trkpt>
      <trkpt lat="46.531560" lon="11.680282">
        <ele>1735.333</ele>
        <time>2018-09-12T08:38:33Z</time>
      </trkpt>
      <trkpt lat="46.531547" lon="11.680224">
        <ele>1734.823</ele>
        <time>2018-09-12T08:38:34Z</time>
      </trkpt>
      <trkpt lat="46.531521" lon="11.680174">
        <ele>1734.315</ele>
        <time>2018-09-12T08:38:35Z</time>
      </trkpt>
      <trkpt lat="46.531486" lon="11.680138">
        <ele>1733.808</ele>
        <time>2018-09-12T08:38:36Z</time>
      </trkpt>
      <trkpt lat="46.531445" lon="11.680119">
        <ele>1733.377</ele>
        <time>2018-09-12T08:38:37Z</time>
      </trkpt>
      <trkpt lat="46.531400" lon="11.680118">
        <ele>1732.979</ele>
        <time>2018-09-12T08:38:38Z</time>
      </trkpt>
      <trkpt lat="46.531353" lon="11.680128">
        <ele>1732.455</ele>
        <time>2018-09-12T08:38:39Z</time>
      </trkpt>
      <trkpt lat="46.531308" lon="11.680145">
        <ele>1731.481</ele>
        <time>2018-09-12T08:38:40Z</time>
      </trkpt>
      <trkpt lat="46.531264" lon="11.680168">
        <ele>1730.971</ele>
        <time>2018-09-12T08:38:41Z</time>
      </trkpt>
      <trkpt lat="46.531131" lon="11.680229">
        <ele>1729.541</ele>
        <time>2018-09-12T08:38:44Z</time>
      </trkpt>
      <trkpt lat="46.531096" lon="11.680260">
        <ele>1729.094</ele>
        <time>2018-09-12T08:38:45Z</time>
      </trkpt>
      <trkpt lat="46.531066" lon="11.680295">
        <ele>1728.550</ele>
        <time>2018-09-12T08:38:46Z</time>
      </trkpt>
      <trkpt lat="46.531040" lon="11.680332">
        <ele>1728.149</ele>
        <time>2018-09-12T08:38:47Z</time>
      </trkpt>
      <trkpt lat="46.531017" lon="11.680370">
        <ele>1727.602</ele>
        <time>2018-09-12T08:38:48Z</time>
      </trkpt>
      <trkpt lat="46.530996" lon="11.680410">
        <ele>1727.122</ele>
        <time>2018-09-12T08:38:49Z</time>
      </trkpt>
      <trkpt lat="46.530929" lon="11.680538">
        <ele>1725.708</ele>
        <time>2018-09-12T08:38:52Z</time>
      </trkpt>
      <trkpt lat="46.530809" lon="11.680805">
        <ele>1722.348</ele>
        <time>2018-09-12T08:38:57Z</time>
      </trkpt>
      <trkpt lat="46.530779" lon="11.680853">
        <ele>1721.880</ele>
        <time>2018-09-12T08:38:58Z</time>
      </trkpt>
      <trkpt lat="46.530744" lon="11.680888">
        <ele>1721.396</ele>
        <time>2018-09-12T08:38:59Z</time>
      </trkpt>
      <trkpt lat="46.530708" lon="11.680908">
        <ele>1721.382</ele>
        <time>2018-09-12T08:39:00Z</time>
      </trkpt>
      <trkpt lat="46.530678" lon="11.680915">
        <ele>1721.372</ele>
        <time>2018-09-12T08:39:01Z</time>
      </trkpt>
      <trkpt lat="46.530658" lon="11.680917">
        <ele>1721.392</ele>
        <time>2018-09-12T08:39:02Z</time>
      </trkpt>
      <trkpt lat="46.530643" lon="11.680914">
        <ele>1721.345</ele>
        <time>2018-09-12T08:39:03Z</time>
      </trkpt>
      <trkpt lat="46.530606" lon="11.680892">
        <ele>1724.211</ele>
        <time>2018-09-12T08:39:14Z</time>
      </trkpt>
      <trkpt lat="46.530601" lon="11.680899">
        <ele>1728.182</ele>
        <time>2018-09-12T08:39:40Z</time>
      </trkpt>
      <trkpt lat="46.530591" lon="11.680875">
        <ele>1729.543</ele>
        <time>2018-09-12T08:39:50Z</time>
      </trkpt>
      <trkpt lat="46.530582" lon="11.680859">
        <ele>1729.517</ele>
        <time>2018-09-12T08:39:51Z</time>
      </trkpt>
      <trkpt lat="46.530556" lon="11.680783">
        <ele>1730.508</ele>
        <time>2018-09-12T08:39:55Z</time>
      </trkpt>
      <trkpt lat="46.530553" lon="11.680761">
        <ele>1730.522</ele>
        <time>2018-09-12T08:39:56Z</time>
      </trkpt>
      <trkpt lat="46.530544" lon="11.680677">
        <ele>1732.934</ele>
        <time>2018-09-12T08:40:00Z</time>
      </trkpt>
      <trkpt lat="46.530548" lon="11.680658">
        <ele>1733.310</ele>
        <time>2018-09-12T08:40:01Z</time>
      </trkpt>
      <trkpt lat="46.530551" lon="11.680638">
        <ele>1734.396</ele>
        <time>2018-09-12T08:40:02Z</time>
      </trkpt>
      <trkpt lat="46.530538" lon="11.680398">
        <ele>1742.586</ele>
        <time>2018-09-12T08:40:16Z</time>
      </trkpt>
      <trkpt lat="46.530538" lon="11.680360">
        <ele>1743.936</ele>
        <time>2018-09-12T08:40:19Z</time>
      </trkpt>
      <trkpt lat="46.530536" lon="11.680145">
        <ele>1750.779</ele>
        <time>2018-09-12T08:40:35Z</time>
      </trkpt>
      <trkpt lat="46.530525" lon="11.679886">
        <ele>1755.045</ele>
        <time>2018-09-12T08:40:53Z</time>
      </trkpt>
      <trkpt lat="46.530527" lon="11.679870">
        <ele>1754.586</ele>
        <time>2018-09-12T08:40:54Z</time>
      </trkpt>
      <trkpt lat="46.530530" lon="11.679853">
        <ele>1755.060</ele>
        <time>2018-09-12T08:40:55Z</time>
      </trkpt>
      <trkpt lat="46.530536" lon="11.679836">
        <ele>1754.526</ele>
        <time>2018-09-12T08:40:56Z</time>
      </trkpt>
      <trkpt lat="46.530542" lon="11.679820">
        <ele>1754.508</ele>
        <time>2018-09-12T08:40:57Z</time>
      </trkpt>
      <trkpt lat="46.530742" lon="11.679466">
        <ele>1746.322</ele>
        <time>2018-09-12T08:41:11Z</time>
      </trkpt>
      <trkpt lat="46.530850" lon="11.679042">
        <ele>1739.194</ele>
        <time>2018-09-12T08:41:19Z</time>
      </trkpt>
      <trkpt lat="46.531133" lon="11.678337">
        <ele>1733.810</ele>
        <time>2018-09-12T08:41:27Z</time>
      </trkpt>
      <trkpt lat="46.531152" lon="11.678250">
        <ele>1733.836</ele>
        <time>2018-09-12T08:41:28Z</time>
      </trkpt>
      <trkpt lat="46.531159" lon="11.678163">
        <ele>1733.876</ele>
        <time>2018-09-12T08:41:29Z</time>
      </trkpt>
      <trkpt lat="46.531157" lon="11.678077">
        <ele>1733.826</ele>
        <time>2018-09-12T08:41:30Z</time>
      </trkpt>
      <trkpt lat="46.531155" lon="11.678002">
        <ele>1733.399</ele>
        <time>2018-09-12T08:41:31Z</time>
      </trkpt>
      <trkpt lat="46.531153" lon="11.677933">
        <ele>1733.325</ele>
        <time>2018-09-12T08:41:32Z</time>
      </trkpt>
      <trkpt lat="46.531185" lon="11.677501">
        <ele>1730.971</ele>
        <time>2018-09-12T08:41:43Z</time>
      </trkpt>
      <trkpt lat="46.531295" lon="11.677061">
        <ele>1722.841</ele>
        <time>2018-09-12T08:41:56Z</time>
      </trkpt>
      <trkpt lat="46.531296" lon="11.677053">
        <ele>1722.315</ele>
        <time>2018-09-12T08:42:08Z</time>
      </trkpt>
      <trkpt lat="46.531349" lon="11.676827">
        <ele>1721.308</ele>
        <time>2018-09-12T08:42:22Z</time>
      </trkpt>
      <trkpt lat="46.531366" lon="11.676769">
        <ele>1720.921</ele>
        <time>2018-09-12T08:42:23Z</time>
      </trkpt>
      <trkpt lat="46.531379" lon="11.676703">
        <ele>1720.443</ele>
        <time>2018-09-12T08:42:24Z</time>
      </trkpt>
      <trkpt lat="46.531393" lon="11.676636">
        <ele>1719.949</ele>
        <time>2018-09-12T08:42:25Z</time>
      </trkpt>
      <trkpt lat="46.531408" lon="11.676568">
        <ele>1719.495</ele>
        <time>2018-09-12T08:42:26Z</time>
      </trkpt>
      <trkpt lat="46.531420" lon="11.676496">
        <ele>1718.945</ele>
        <time>2018-09-12T08:42:27Z</time>
      </trkpt>
      <trkpt lat="46.531616" lon="11.675741">
        <ele>1713.235</ele>
        <time>2018-09-12T08:42:38Z</time>
      </trkpt>
      <trkpt lat="46.531641" lon="11.675676">
        <ele>1712.738</ele>
        <time>2018-09-12T08:42:39Z</time>
      </trkpt>
      <trkpt lat="46.531753" lon="11.675376">
        <ele>1709.854</ele>
        <time>2018-09-12T08:42:43Z</time>
      </trkpt>
      <trkpt lat="46.531773" lon="11.675284">
        <ele>1709.352</ele>
        <time>2018-09-12T08:42:44Z</time>
      </trkpt>
      <trkpt lat="46.531921" lon="11.674519">
        <ele>1705.553</ele>
        <time>2018-09-12T08:42:52Z</time>
      </trkpt>
      <trkpt lat="46.531925" lon="11.674418">
        <ele>1705.008</ele>
        <time>2018-09-12T08:42:53Z</time>
      </trkpt>
      <trkpt lat="46.531924" lon="11.674309">
        <ele>1704.508</ele>
        <time>2018-09-12T08:42:54Z</time>
      </trkpt>
      <trkpt lat="46.531914" lon="11.674202">
        <ele>1704.059</ele>
        <time>2018-09-12T08:42:55Z</time>
      </trkpt>
      <trkpt lat="46.531900" lon="11.674111">
        <ele>1703.191</ele>
        <time>2018-09-12T08:42:56Z</time>
      </trkpt>
      <trkpt lat="46.531881" lon="11.674021">
        <ele>1702.667</ele>
        <time>2018-09-12T08:42:57Z</time>
      </trkpt>
      <trkpt lat="46.531857" lon="11.673944">
        <ele>1702.113</ele>
        <time>2018-09-12T08:42:58Z</time>
      </trkpt>
      <trkpt lat="46.531825" lon="11.673882">
        <ele>1701.683</ele>
        <time>2018-09-12T08:42:59Z</time>
      </trkpt>
      <trkpt lat="46.531788" lon="11.673835">
        <ele>1701.163</ele>
        <time>2018-09-12T08:43:00Z</time>
      </trkpt>
      <trkpt lat="46.531749" lon="11.673803">
        <ele>1700.776</ele>
        <time>2018-09-12T08:43:01Z</time>
      </trkpt>
      <trkpt lat="46.531709" lon="11.673783">
        <ele>1700.242</ele>
        <time>2018-09-12T08:43:02Z</time>
      </trkpt>
      <trkpt lat="46.531669" lon="11.673776">
        <ele>1699.783</ele>
        <time>2018-09-12T08:43:03Z</time>
      </trkpt>
      <trkpt lat="46.531630" lon="11.673774">
        <ele>1699.225</ele>
        <time>2018-09-12T08:43:04Z</time>
      </trkpt>
      <trkpt lat="46.531594" lon="11.673775">
        <ele>1698.717</ele>
        <time>2018-09-12T08:43:05Z</time>
      </trkpt>
      <trkpt lat="46.531402" lon="11.673744">
        <ele>1696.308</ele>
        <time>2018-09-12T08:43:10Z</time>
      </trkpt>
      <trkpt lat="46.531355" lon="11.673715">
        <ele>1695.952</ele>
        <time>2018-09-12T08:43:11Z</time>
      </trkpt>
      <trkpt lat="46.531310" lon="11.673678">
        <ele>1695.424</ele>
        <time>2018-09-12T08:43:12Z</time>
      </trkpt>
      <trkpt lat="46.531264" lon="11.673644">
        <ele>1694.930</ele>
        <time>2018-09-12T08:43:13Z</time>
      </trkpt>
      <trkpt lat="46.531215" lon="11.673618">
        <ele>1694.456</ele>
        <time>2018-09-12T08:43:14Z</time>
      </trkpt>
      <trkpt lat="46.531163" lon="11.673596">
        <ele>1693.966</ele>
        <time>2018-09-12T08:43:15Z</time>
      </trkpt>
      <trkpt lat="46.531068" lon="11.673542">
        <ele>1692.546</ele>
        <time>2018-09-12T08:43:17Z</time>
      </trkpt>
      <trkpt lat="46.531029" lon="11.673501">
        <ele>1692.099</ele>
        <time>2018-09-12T08:43:18Z</time>
      </trkpt>
      <trkpt lat="46.530997" lon="11.673453">
        <ele>1691.125</ele>
        <time>2018-09-12T08:43:19Z</time>
      </trkpt>
      <trkpt lat="46.530974" lon="11.673400">
        <ele>1690.663</ele>
        <time>2018-09-12T08:43:20Z</time>
      </trkpt>
      <trkpt lat="46.530959" lon="11.673341">
        <ele>1690.144</ele>
        <time>2018-09-12T08:43:21Z</time>
      </trkpt>
      <trkpt lat="46.530952" lon="11.673278">
        <ele>1689.618</ele>
        <time>2018-09-12T08:43:22Z</time>
      </trkpt>
      <trkpt lat="46.530952" lon="11.673206">
        <ele>1688.608</ele>
        <time>2018-09-12T08:43:23Z</time>
      </trkpt>
      <trkpt lat="46.530958" lon="11.673135">
        <ele>1688.220</ele>
        <time>2018-09-12T08:43:24Z</time>
      </trkpt>
      <trkpt lat="46.530970" lon="11.673062">
        <ele>1687.282</ele>
        <time>2018-09-12T08:43:25Z</time>
      </trkpt>
      <trkpt lat="46.530988" lon="11.672988">
        <ele>1686.288</ele>
        <time>2018-09-12T08:43:26Z</time>
      </trkpt>
      <trkpt lat="46.531005" lon="11.672911">
        <ele>1685.364</ele>
        <time>2018-09-12T08:43:27Z</time>
      </trkpt>
      <trkpt lat="46.531292" lon="11.671889">
        <ele>1680.554</ele>
        <time>2018-09-12T08:43:37Z</time>
      </trkpt>
      <trkpt lat="46.531340" lon="11.671710">
        <ele>1680.584</ele>
        <time>2018-09-12T08:43:39Z</time>
      </trkpt>
      <trkpt lat="46.531354" lon="11.671622">
        <ele>1680.527</ele>
        <time>2018-09-12T08:43:40Z</time>
      </trkpt>
      <trkpt lat="46.531360" lon="11.671531">
        <ele>1680.553</ele>
        <time>2018-09-12T08:43:41Z</time>
      </trkpt>
      <trkpt lat="46.531359" lon="11.671439">
        <ele>1680.013</ele>
        <time>2018-09-12T08:43:42Z</time>
      </trkpt>
      <trkpt lat="46.531355" lon="11.671350">
        <ele>1680.043</ele>
        <time>2018-09-12T08:43:43Z</time>
      </trkpt>
      <trkpt lat="46.531268" lon="11.670708">
        <ele>1677.607</ele>
        <time>2018-09-12T08:43:50Z</time>
      </trkpt>
      <trkpt lat="46.531220" lon="11.670005">
        <ele>1674.708</ele>
        <time>2018-09-12T08:43:57Z</time>
      </trkpt>
      <trkpt lat="46.531232" lon="11.669895">
        <ele>1674.215</ele>
        <time>2018-09-12T08:43:58Z</time>
      </trkpt>
      <trkpt lat="46.531252" lon="11.669786">
        <ele>1673.767</ele>
        <time>2018-09-12T08:43:59Z</time>
      </trkpt>
      <trkpt lat="46.531283" lon="11.669674">
        <ele>1673.713</ele>
        <time>2018-09-12T08:44:00Z</time>
      </trkpt>
      <trkpt lat="46.531316" lon="11.669590">
        <ele>1673.399</ele>
        <time>2018-09-12T08:44:01Z</time>
      </trkpt>
      <trkpt lat="46.531359" lon="11.669508">
        <ele>1673.349</ele>
        <time>2018-09-12T08:44:02Z</time>
      </trkpt>
      <trkpt lat="46.531408" lon="11.669428">
        <ele>1673.729</ele>
        <time>2018-09-12T08:44:03Z</time>
      </trkpt>
      <trkpt lat="46.531456" lon="11.669359">
        <ele>1673.722</ele>
        <time>2018-09-12T08:44:04Z</time>
      </trkpt>
      <trkpt lat="46.531508" lon="11.669303">
        <ele>1673.758</ele>
        <time>2018-09-12T08:44:05Z</time>
      </trkpt>
      <trkpt lat="46.531559" lon="11.669257">
        <ele>1674.225</ele>
        <time>2018-09-12T08:44:06Z</time>
      </trkpt>
      <trkpt lat="46.531603" lon="11.669211">
        <ele>1674.226</ele>
        <time>2018-09-12T08:44:07Z</time>
      </trkpt>
      <trkpt lat="46.531638" lon="11.669167">
        <ele>1674.708</ele>
        <time>2018-09-12T08:44:08Z</time>
      </trkpt>
      <trkpt lat="46.531664" lon="11.669121">
        <ele>1674.708</ele>
        <time>2018-09-12T08:44:09Z</time>
      </trkpt>
      <trkpt lat="46.531684" lon="11.669074">
        <ele>1675.216</ele>
        <time>2018-09-12T08:44:10Z</time>
      </trkpt>
      <trkpt lat="46.531695" lon="11.669033">
        <ele>1675.718</ele>
        <time>2018-09-12T08:44:11Z</time>
      </trkpt>
      <trkpt lat="46.531699" lon="11.668998">
        <ele>1675.794</ele>
        <time>2018-09-12T08:44:12Z</time>
      </trkpt>
      <trkpt lat="46.531700" lon="11.668970">
        <ele>1676.250</ele>
        <time>2018-09-12T08:44:13Z</time>
      </trkpt>
      <trkpt lat="46.531701" lon="11.668950">
        <ele>1676.250</ele>
        <time>2018-09-12T08:44:14Z</time>
      </trkpt>
      <trkpt lat="46.531705" lon="11.668933">
        <ele>1676.250</ele>
        <time>2018-09-12T08:44:15Z</time>
      </trkpt>
      <trkpt lat="46.531690" lon="11.668592">
        <ele>1677.143</ele>
        <time>2018-09-12T08:44:32Z</time>
      </trkpt>
      <trkpt lat="46.531517" lon="11.668450">
        <ele>1679.079</ele>
        <time>2018-09-12T08:44:46Z</time>
      </trkpt>
      <trkpt lat="46.531290" lon="11.668291">
        <ele>1680.013</ele>
        <time>2018-09-12T08:45:03Z</time>
      </trkpt>
      <trkpt lat="46.531049" lon="11.668199">
        <ele>1679.543</ele>
        <time>2018-09-12T08:45:18Z</time>
      </trkpt>
      <trkpt lat="46.530669" lon="11.668093">
        <ele>1681.007</ele>
        <time>2018-09-12T08:45:34Z</time>
      </trkpt>
      <trkpt lat="46.530106" lon="11.667950">
        <ele>1681.408</ele>
        <time>2018-09-12T08:45:48Z</time>
      </trkpt>
      <trkpt lat="46.529902" lon="11.668050">
        <ele>1682.955</ele>
        <time>2018-09-12T08:45:59Z</time>
      </trkpt>
      <trkpt lat="46.529886" lon="11.668056">
        <ele>1682.987</ele>
        <time>2018-09-12T08:46:00Z</time>
      </trkpt>
      <trkpt lat="46.529592" lon="11.668084">
        <ele>1685.823</ele>
        <time>2018-09-12T08:46:19Z</time>
      </trkpt>
      <trkpt lat="46.529555" lon="11.668067">
        <ele>1685.889</ele>
        <time>2018-09-12T08:46:22Z</time>
      </trkpt>
      <trkpt lat="46.529545" lon="11.668056">
        <ele>1685.859</ele>
        <time>2018-09-12T08:46:23Z</time>
      </trkpt>
      <trkpt lat="46.529535" lon="11.668047">
        <ele>1685.829</ele>
        <time>2018-09-12T08:46:24Z</time>
      </trkpt>
      <trkpt lat="46.529464" lon="11.668013">
        <ele>1686.722</ele>
        <time>2018-09-12T08:46:30Z</time>
      </trkpt>
      <trkpt lat="46.529362" lon="11.667958">
        <ele>1687.258</ele>
        <time>2018-09-12T08:46:38Z</time>
      </trkpt>
      <trkpt lat="46.529347" lon="11.667952">
        <ele>1687.299</ele>
        <time>2018-09-12T08:46:39Z</time>
      </trkpt>
      <trkpt lat="46.529334" lon="11.667946">
        <ele>1687.207</ele>
        <time>2018-09-12T08:46:40Z</time>
      </trkpt>
      <trkpt lat="46.529321" lon="11.667939">
        <ele>1687.227</ele>
        <time>2018-09-12T08:46:41Z</time>
      </trkpt>
      <trkpt lat="46.529309" lon="11.667938">
        <ele>1687.208</ele>
        <time>2018-09-12T08:46:42Z</time>
      </trkpt>
      <trkpt lat="46.529296" lon="11.667941">
        <ele>1687.773</ele>
        <time>2018-09-12T08:46:43Z</time>
      </trkpt>
      <trkpt lat="46.529284" lon="11.667944">
        <ele>1688.225</ele>
        <time>2018-09-12T08:46:44Z</time>
      </trkpt>
      <trkpt lat="46.529274" lon="11.667947">
        <ele>1688.291</ele>
        <time>2018-09-12T08:46:45Z</time>
      </trkpt>
      <trkpt lat="46.529264" lon="11.667946">
        <ele>1688.217</ele>
        <time>2018-09-12T08:46:46Z</time>
      </trkpt>
      <trkpt lat="46.529252" lon="11.667954">
        <ele>1688.217</ele>
        <time>2018-09-12T08:46:47Z</time>
      </trkpt>
      <trkpt lat="46.529239" lon="11.667963">
        <ele>1688.667</ele>
        <time>2018-09-12T08:46:48Z</time>
      </trkpt>
      <trkpt lat="46.529031" lon="11.668191">
        <ele>1688.680</ele>
        <time>2018-09-12T08:47:05Z</time>
      </trkpt>
      <trkpt lat="46.528785" lon="11.668311">
        <ele>1688.686</ele>
        <time>2018-09-12T08:47:21Z</time>
      </trkpt>
      <trkpt lat="46.528433" lon="11.668303">
        <ele>1688.677</ele>
        <time>2018-09-12T08:47:39Z</time>
      </trkpt>
      <trkpt lat="46.528077" lon="11.668248">
        <ele>1688.661</ele>
        <time>2018-09-12T08:47:57Z</time>
      </trkpt>
      <trkpt lat="46.527831" lon="11.668180">
        <ele>1690.127</ele>
        <time>2018-09-12T08:48:12Z</time>
      </trkpt>
      <trkpt lat="46.527607" lon="11.668039">
        <ele>1693.908</ele>
        <time>2018-09-12T08:48:28Z</time>
      </trkpt>
      <trkpt lat="46.527443" lon="11.667852">
        <ele>1697.831</ele>
        <time>2018-09-12T08:48:43Z</time>
      </trkpt>
      <trkpt lat="46.527434" lon="11.667840">
        <ele>1697.863</ele>
        <time>2018-09-12T08:48:44Z</time>
      </trkpt>
      <trkpt lat="46.527424" lon="11.667822">
        <ele>1697.889</ele>
        <time>2018-09-12T08:48:45Z</time>
      </trkpt>
      <trkpt lat="46.527418" lon="11.667809">
        <ele>1698.335</ele>
        <time>2018-09-12T08:48:46Z</time>
      </trkpt>
      <trkpt lat="46.527266" lon="11.667569">
        <ele>1699.725</ele>
        <time>2018-09-12T08:49:02Z</time>
      </trkpt>
      <trkpt lat="46.527138" lon="11.667351">
        <ele>1702.625</ele>
        <time>2018-09-12T08:49:16Z</time>
      </trkpt>
      <trkpt lat="46.527059" lon="11.667175">
        <ele>1703.178</ele>
        <time>2018-09-12T08:49:26Z</time>
      </trkpt>
      <trkpt lat="46.526945" lon="11.666969">
        <ele>1706.054</ele>
        <time>2018-09-12T08:49:38Z</time>
      </trkpt>
      <trkpt lat="46.526847" lon="11.666824">
        <ele>1706.916</ele>
        <time>2018-09-12T08:49:53Z</time>
      </trkpt>
      <trkpt lat="46.526841" lon="11.666807">
        <ele>1707.976</ele>
        <time>2018-09-12T08:50:04Z</time>
      </trkpt>
      <trkpt lat="46.526807" lon="11.666794">
        <ele>1708.413</ele>
        <time>2018-09-12T08:50:07Z</time>
      </trkpt>
      <trkpt lat="46.526517" lon="11.666409">
        <ele>1709.808</ele>
        <time>2018-09-12T08:50:26Z</time>
      </trkpt>
      <trkpt lat="46.526334" lon="11.666327">
        <ele>1711.235</ele>
        <time>2018-09-12T08:50:38Z</time>
      </trkpt>
      <trkpt lat="46.526300" lon="11.666352">
        <ele>1711.717</ele>
        <time>2018-09-12T08:50:40Z</time>
      </trkpt>
      <trkpt lat="46.526284" lon="11.666353">
        <ele>1711.763</ele>
        <time>2018-09-12T08:50:41Z</time>
      </trkpt>
      <trkpt lat="46.525908" lon="11.666282">
        <ele>1711.279</ele>
        <time>2018-09-12T08:51:01Z</time>
      </trkpt>
      <trkpt lat="46.525513" lon="11.666090">
        <ele>1711.779</ele>
        <time>2018-09-12T08:51:22Z</time>
      </trkpt>
      <trkpt lat="46.525139" lon="11.666138">
        <ele>1712.719</ele>
        <time>2018-09-12T08:51:38Z</time>
      </trkpt>
      <trkpt lat="46.524745" lon="11.666168">
        <ele>1715.182</ele>
        <time>2018-09-12T08:51:57Z</time>
      </trkpt>
      <trkpt lat="46.524408" lon="11.666213">
        <ele>1718.018</ele>
        <time>2018-09-12T08:52:15Z</time>
      </trkpt>
      <trkpt lat="46.524098" lon="11.666245">
        <ele>1720.492</ele>
        <time>2018-09-12T08:52:31Z</time>
      </trkpt>
      <trkpt lat="46.523816" lon="11.666268">
        <ele>1722.873</ele>
        <time>2018-09-12T08:52:46Z</time>
      </trkpt>
      <trkpt lat="46.523407" lon="11.666306">
        <ele>1725.220</ele>
        <time>2018-09-12T08:53:07Z</time>
      </trkpt>
      <trkpt lat="46.522971" lon="11.666370">
        <ele>1727.608</ele>
        <time>2018-09-12T08:53:29Z</time>
      </trkpt>
      <trkpt lat="46.522632" lon="11.666406">
        <ele>1729.073</ele>
        <time>2018-09-12T08:53:43Z</time>
      </trkpt>
      <trkpt lat="46.522389" lon="11.666428">
        <ele>1730.535</ele>
        <time>2018-09-12T08:53:56Z</time>
      </trkpt>
      <trkpt lat="46.522122" lon="11.666543">
        <ele>1732.441</ele>
        <time>2018-09-12T08:54:11Z</time>
      </trkpt>
      <trkpt lat="46.521874" lon="11.666608">
        <ele>1733.317</ele>
        <time>2018-09-12T08:54:24Z</time>
      </trkpt>
      <trkpt lat="46.521581" lon="11.666647">
        <ele>1735.317</ele>
        <time>2018-09-12T08:54:40Z</time>
      </trkpt>
      <trkpt lat="46.521284" lon="11.666679">
        <ele>1736.267</ele>
        <time>2018-09-12T08:54:56Z</time>
      </trkpt>
      <trkpt lat="46.520948" lon="11.666723">
        <ele>1738.220</ele>
        <time>2018-09-12T08:55:14Z</time>
      </trkpt>
      <trkpt lat="46.520596" lon="11.666713">
        <ele>1740.166</ele>
        <time>2018-09-12T08:55:32Z</time>
      </trkpt>
      <trkpt lat="46.520393" lon="11.666787">
        <ele>1741.099</ele>
        <time>2018-09-12T08:55:44Z</time>
      </trkpt>
      <trkpt lat="46.520379" lon="11.666794">
        <ele>1741.507</ele>
        <time>2018-09-12T08:55:45Z</time>
      </trkpt>
      <trkpt lat="46.520363" lon="11.666800">
        <ele>1741.527</ele>
        <time>2018-09-12T08:55:46Z</time>
      </trkpt>
      <trkpt lat="46.520345" lon="11.666803">
        <ele>1741.508</ele>
        <time>2018-09-12T08:55:47Z</time>
      </trkpt>
      <trkpt lat="46.520326" lon="11.666804">
        <ele>1741.553</ele>
        <time>2018-09-12T08:55:48Z</time>
      </trkpt>
      <trkpt lat="46.519991" lon="11.666787">
        <ele>1744.465</ele>
        <time>2018-09-12T08:56:08Z</time>
      </trkpt>
      <trkpt lat="46.519666" lon="11.666728">
        <ele>1745.811</ele>
        <time>2018-09-12T08:56:28Z</time>
      </trkpt>
      <trkpt lat="46.519437" lon="11.666652">
        <ele>1748.247</ele>
        <time>2018-09-12T08:56:44Z</time>
      </trkpt>
      <trkpt lat="46.519219" lon="11.666586">
        <ele>1749.797</ele>
        <time>2018-09-12T08:56:58Z</time>
      </trkpt>
      <trkpt lat="46.518962" lon="11.666455">
        <ele>1751.657</ele>
        <time>2018-09-12T08:57:15Z</time>
      </trkpt>
      <trkpt lat="46.518709" lon="11.666295">
        <ele>1754.550</ele>
        <time>2018-09-12T08:57:30Z</time>
      </trkpt>
      <trkpt lat="46.518551" lon="11.666146">
        <ele>1756.486</ele>
        <time>2018-09-12T08:57:44Z</time>
      </trkpt>
      <trkpt lat="46.518534" lon="11.666134">
        <ele>1756.958</ele>
        <time>2018-09-12T08:57:46Z</time>
      </trkpt>
      <trkpt lat="46.518523" lon="11.666131">
        <ele>1756.952</ele>
        <time>2018-09-12T08:57:47Z</time>
      </trkpt>
      <trkpt lat="46.518512" lon="11.666131">
        <ele>1756.917</ele>
        <time>2018-09-12T08:57:48Z</time>
      </trkpt>
      <trkpt lat="46.518502" lon="11.666131">
        <ele>1757.408</ele>
        <time>2018-09-12T08:57:49Z</time>
      </trkpt>
      <trkpt lat="46.518493" lon="11.666127">
        <ele>1757.489</ele>
        <time>2018-09-12T08:57:50Z</time>
      </trkpt>
      <trkpt lat="46.518437" lon="11.666113">
        <ele>1757.421</ele>
        <time>2018-09-12T08:57:57Z</time>
      </trkpt>
      <trkpt lat="46.518427" lon="11.666118">
        <ele>1757.427</ele>
        <time>2018-09-12T08:57:58Z</time>
      </trkpt>
      <trkpt lat="46.518314" lon="11.666216">
        <ele>1758.393</ele>
        <time>2018-09-12T08:58:11Z</time>
      </trkpt>
      <trkpt lat="46.518276" lon="11.666244">
        <ele>1757.973</ele>
        <time>2018-09-12T08:58:15Z</time>
      </trkpt>
      <trkpt lat="46.518137" lon="11.666383">
        <ele>1759.313</ele>
        <time>2018-09-12T08:58:32Z</time>
      </trkpt>
      <trkpt lat="46.518065" lon="11.666396">
        <ele>1760.326</ele>
        <time>2018-09-12T08:58:40Z</time>
      </trkpt>
      <trkpt lat="46.517924" lon="11.666400">
        <ele>1764.652</ele>
        <time>2018-09-12T08:58:54Z</time>
      </trkpt>
      <trkpt lat="46.517755" lon="11.666387">
        <ele>1767.049</ele>
        <time>2018-09-12T08:59:11Z</time>
      </trkpt>
      <trkpt lat="46.517587" lon="11.666338">
        <ele>1769.902</ele>
        <time>2018-09-12T08:59:28Z</time>
      </trkpt>
      <trkpt lat="46.517504" lon="11.666294">
        <ele>1772.822</ele>
        <time>2018-09-12T08:59:36Z</time>
      </trkpt>
      <trkpt lat="46.517365" lon="11.666132">
        <ele>1779.008</ele>
        <time>2018-09-12T08:59:53Z</time>
      </trkpt>
      <trkpt lat="46.517359" lon="11.666124">
        <ele>1779.528</ele>
        <time>2018-09-12T08:59:54Z</time>
      </trkpt>
      <trkpt lat="46.517262" lon="11.665977">
        <ele>1782.970</ele>
        <time>2018-09-12T09:00:09Z</time>
      </trkpt>
      <trkpt lat="46.517233" lon="11.665945">
        <ele>1784.326</ele>
        <time>2018-09-12T09:00:13Z</time>
      </trkpt>
      <trkpt lat="46.517186" lon="11.665906">
        <ele>1786.772</ele>
        <time>2018-09-12T09:00:18Z</time>
      </trkpt>
      <trkpt lat="46.517047" lon="11.665740">
        <ele>1788.682</ele>
        <time>2018-09-12T09:00:33Z</time>
      </trkpt>
      <trkpt lat="46.516839" lon="11.665627">
        <ele>1786.792</ele>
        <time>2018-09-12T09:00:46Z</time>
      </trkpt>
      <trkpt lat="46.516575" lon="11.665606">
        <ele>1782.995</ele>
        <time>2018-09-12T09:01:03Z</time>
      </trkpt>
      <trkpt lat="46.516337" lon="11.665496">
        <ele>1783.871</ele>
        <time>2018-09-12T09:01:21Z</time>
      </trkpt>
      <trkpt lat="46.516100" lon="11.665333">
        <ele>1785.397</ele>
        <time>2018-09-12T09:01:40Z</time>
      </trkpt>
      <trkpt lat="46.515735" lon="11.665261">
        <ele>1783.323</ele>
        <time>2018-09-12T09:01:57Z</time>
      </trkpt>
      <trkpt lat="46.515657" lon="11.665222">
        <ele>1783.325</ele>
        <time>2018-09-12T09:01:59Z</time>
      </trkpt>
      <trkpt lat="46.515167" lon="11.665044">
        <ele>1783.308</ele>
        <time>2018-09-12T09:02:14Z</time>
      </trkpt>
      <trkpt lat="46.514926" lon="11.665083">
        <ele>1785.373</ele>
        <time>2018-09-12T09:02:26Z</time>
      </trkpt>
      <trkpt lat="46.514749" lon="11.665129">
        <ele>1783.825</ele>
        <time>2018-09-12T09:02:39Z</time>
      </trkpt>
      <trkpt lat="46.514733" lon="11.665129">
        <ele>1783.371</ele>
        <time>2018-09-12T09:02:40Z</time>
      </trkpt>
      <trkpt lat="46.514580" lon="11.665158">
        <ele>1783.377</ele>
        <time>2018-09-12T09:02:53Z</time>
      </trkpt>
      <trkpt lat="46.514568" lon="11.665159">
        <ele>1783.367</ele>
        <time>2018-09-12T09:02:54Z</time>
      </trkpt>
      <trkpt lat="46.514449" lon="11.665155">
        <ele>1784.847</ele>
        <time>2018-09-12T09:03:05Z</time>
      </trkpt>
      <trkpt lat="46.514285" lon="11.665151">
        <ele>1789.620</ele>
        <time>2018-09-12T09:03:21Z</time>
      </trkpt>
      <trkpt lat="46.514113" lon="11.665065">
        <ele>1793.926</ele>
        <time>2018-09-12T09:03:40Z</time>
      </trkpt>
      <trkpt lat="46.513967" lon="11.664926">
        <ele>1796.857</ele>
        <time>2018-09-12T09:03:58Z</time>
      </trkpt>
      <trkpt lat="46.513832" lon="11.664798">
        <ele>1801.100</ele>
        <time>2018-09-12T09:04:16Z</time>
      </trkpt>
      <trkpt lat="46.513722" lon="11.664687">
        <ele>1804.020</ele>
        <time>2018-09-12T09:04:30Z</time>
      </trkpt>
      <trkpt lat="46.513640" lon="11.664534">
        <ele>1806.908</ele>
        <time>2018-09-12T09:04:43Z</time>
      </trkpt>
      <trkpt lat="46.513640" lon="11.664515">
        <ele>1807.459</ele>
        <time>2018-09-12T09:04:44Z</time>
      </trkpt>
      <trkpt lat="46.513636" lon="11.664483">
        <ele>1807.981</ele>
        <time>2018-09-12T09:04:46Z</time>
      </trkpt>
      <trkpt lat="46.513597" lon="11.664266">
        <ele>1809.397</ele>
        <time>2018-09-12T09:05:02Z</time>
      </trkpt>
      <trkpt lat="46.513582" lon="11.664020">
        <ele>1810.743</ele>
        <time>2018-09-12T09:05:17Z</time>
      </trkpt>
      <trkpt lat="46.513558" lon="11.663713">
        <ele>1812.773</ele>
        <time>2018-09-12T09:05:32Z</time>
      </trkpt>
      <trkpt lat="46.513556" lon="11.663693">
        <ele>1812.783</ele>
        <time>2018-09-12T09:05:33Z</time>
      </trkpt>
      <trkpt lat="46.513491" lon="11.663538">
        <ele>1816.516</ele>
        <time>2018-09-12T09:05:44Z</time>
      </trkpt>
      <trkpt lat="46.513482" lon="11.663531">
        <ele>1816.592</ele>
        <time>2018-09-12T09:05:45Z</time>
      </trkpt>
      <trkpt lat="46.513430" lon="11.663464">
        <ele>1817.563</ele>
        <time>2018-09-12T09:05:52Z</time>
      </trkpt>
      <trkpt lat="46.513392" lon="11.663402">
        <ele>1817.044</ele>
        <time>2018-09-12T09:05:58Z</time>
      </trkpt>
      <trkpt lat="46.513293" lon="11.663304">
        <ele>1818.418</ele>
        <time>2018-09-12T09:06:12Z</time>
      </trkpt>
      <trkpt lat="46.513185" lon="11.663213">
        <ele>1822.308</ele>
        <time>2018-09-12T09:06:26Z</time>
      </trkpt>
      <trkpt lat="46.513153" lon="11.663154">
        <ele>1823.780</ele>
        <time>2018-09-12T09:06:33Z</time>
      </trkpt>
      <trkpt lat="46.513047" lon="11.662974">
        <ele>1825.262</ele>
        <time>2018-09-12T09:06:51Z</time>
      </trkpt>
      <trkpt lat="46.513016" lon="11.662816">
        <ele>1827.698</ele>
        <time>2018-09-12T09:07:09Z</time>
      </trkpt>
      <trkpt lat="46.512982" lon="11.662627">
        <ele>1830.454</ele>
        <time>2018-09-12T09:07:26Z</time>
      </trkpt>
      <trkpt lat="46.512885" lon="11.662429">
        <ele>1832.824</ele>
        <time>2018-09-12T09:07:44Z</time>
      </trkpt>
      <trkpt lat="46.512768" lon="11.662271">
        <ele>1834.874</ele>
        <time>2018-09-12T09:08:02Z</time>
      </trkpt>
      <trkpt lat="46.512671" lon="11.662087">
        <ele>1835.747</ele>
        <time>2018-09-12T09:08:20Z</time>
      </trkpt>
      <trkpt lat="46.512593" lon="11.661923">
        <ele>1836.713</ele>
        <time>2018-09-12T09:08:37Z</time>
      </trkpt>
      <trkpt lat="46.512523" lon="11.661789">
        <ele>1839.173</ele>
        <time>2018-09-12T09:08:53Z</time>
      </trkpt>
      <trkpt lat="46.512440" lon="11.661633">
        <ele>1840.585</ele>
        <time>2018-09-12T09:09:10Z</time>
      </trkpt>
      <trkpt lat="46.512346" lon="11.661463">
        <ele>1840.513</ele>
        <time>2018-09-12T09:09:28Z</time>
      </trkpt>
      <trkpt lat="46.512251" lon="11.661311">
        <ele>1842.508</ele>
        <time>2018-09-12T09:09:46Z</time>
      </trkpt>
      <trkpt lat="46.512182" lon="11.661147">
        <ele>1843.411</ele>
        <time>2018-09-12T09:10:03Z</time>
      </trkpt>
      <trkpt lat="46.512140" lon="11.660981">
        <ele>1844.933</ele>
        <time>2018-09-12T09:10:19Z</time>
      </trkpt>
      <trkpt lat="46.512101" lon="11.660799">
        <ele>1847.319</ele>
        <time>2018-09-12T09:10:37Z</time>
      </trkpt>
      <trkpt lat="46.512045" lon="11.660596">
        <ele>1849.245</ele>
        <time>2018-09-12T09:10:58Z</time>
      </trkpt>
      <trkpt lat="46.511997" lon="11.660457">
        <ele>1850.615</ele>
        <time>2018-09-12T09:11:14Z</time>
      </trkpt>
      <trkpt lat="46.512009" lon="11.660401">
        <ele>1850.625</ele>
        <time>2018-09-12T09:11:26Z</time>
      </trkpt>
      <trkpt lat="46.512003" lon="11.660406">
        <ele>1852.118</ele>
        <time>2018-09-12T09:11:56Z</time>
      </trkpt>
      <trkpt lat="46.512003" lon="11.660380">
        <ele>1856.914</ele>
        <time>2018-09-12T09:12:34Z</time>
      </trkpt>
      <trkpt lat="46.511971" lon="11.660380">
        <ele>1858.822</ele>
        <time>2018-09-12T09:13:02Z</time>
      </trkpt>
      <trkpt lat="46.511946" lon="11.660346">
        <ele>1859.362</ele>
        <time>2018-09-12T09:13:06Z</time>
      </trkpt>
      <trkpt lat="46.511920" lon="11.660237">
        <ele>1860.208</ele>
        <time>2018-09-12T09:13:20Z</time>
      </trkpt>
      <trkpt lat="46.511900" lon="11.660207">
        <ele>1858.808</ele>
        <time>2018-09-12T09:13:25Z</time>
      </trkpt>
      <trkpt lat="46.511877" lon="11.660176">
        <ele>1858.816</ele>
        <time>2018-09-12T09:13:28Z</time>
      </trkpt>
      <trkpt lat="46.511870" lon="11.660167">
        <ele>1859.378</ele>
        <time>2018-09-12T09:13:29Z</time>
      </trkpt>
      <trkpt lat="46.511864" lon="11.660155">
        <ele>1859.354</ele>
        <time>2018-09-12T09:13:30Z</time>
      </trkpt>
      <trkpt lat="46.511754" lon="11.659977">
        <ele>1862.670</ele>
        <time>2018-09-12T09:13:47Z</time>
      </trkpt>
      <trkpt lat="46.511698" lon="11.659880">
        <ele>1863.680</ele>
        <time>2018-09-12T09:13:57Z</time>
      </trkpt>
      <trkpt lat="46.511696" lon="11.659866">
        <ele>1864.190</ele>
        <time>2018-09-12T09:13:58Z</time>
      </trkpt>
      <trkpt lat="46.511691" lon="11.659855">
        <ele>1864.143</ele>
        <time>2018-09-12T09:13:59Z</time>
      </trkpt>
      <trkpt lat="46.511683" lon="11.659844">
        <ele>1864.659</ele>
        <time>2018-09-12T09:14:00Z</time>
      </trkpt>
      <trkpt lat="46.511675" lon="11.659836">
        <ele>1864.658</ele>
        <time>2018-09-12T09:14:01Z</time>
      </trkpt>
      <trkpt lat="46.511541" lon="11.659702">
        <ele>1867.052</ele>
        <time>2018-09-12T09:14:18Z</time>
      </trkpt>
      <trkpt lat="46.511380" lon="11.659544">
        <ele>1868.917</ele>
        <time>2018-09-12T09:14:38Z</time>
      </trkpt>
      <trkpt lat="46.511255" lon="11.659387">
        <ele>1871.308</ele>
        <time>2018-09-12T09:14:56Z</time>
      </trkpt>
      <trkpt lat="46.511104" lon="11.659242">
        <ele>1873.729</ele>
        <time>2018-09-12T09:15:14Z</time>
      </trkpt>
      <trkpt lat="46.510966" lon="11.659105">
        <ele>1875.151</ele>
        <time>2018-09-12T09:15:32Z</time>
      </trkpt>
      <trkpt lat="46.510958" lon="11.659099">
        <ele>1875.147</ele>
        <time>2018-09-12T09:15:33Z</time>
      </trkpt>
      <trkpt lat="46.510940" lon="11.659084">
        <ele>1875.663</ele>
        <time>2018-09-12T09:15:35Z</time>
      </trkpt>
      <trkpt lat="46.510932" lon="11.659077">
        <ele>1875.683</ele>
        <time>2018-09-12T09:15:36Z</time>
      </trkpt>
      <trkpt lat="46.510926" lon="11.659074">
        <ele>1876.123</ele>
        <time>2018-09-12T09:15:37Z</time>
      </trkpt>
      <trkpt lat="46.510902" lon="11.659054">
        <ele>1876.116</ele>
        <time>2018-09-12T09:15:40Z</time>
      </trkpt>
      <trkpt lat="46.510890" lon="11.659051">
        <ele>1876.192</ele>
        <time>2018-09-12T09:15:41Z</time>
      </trkpt>
      <trkpt lat="46.510880" lon="11.659044">
        <ele>1876.162</ele>
        <time>2018-09-12T09:15:42Z</time>
      </trkpt>
      <trkpt lat="46.510705" lon="11.658976">
        <ele>1877.583</ele>
        <time>2018-09-12T09:16:00Z</time>
      </trkpt>
      <trkpt lat="46.510524" lon="11.658960">
        <ele>1879.511</ele>
        <time>2018-09-12T09:16:19Z</time>
      </trkpt>
      <trkpt lat="46.510342" lon="11.658960">
        <ele>1881.908</ele>
        <time>2018-09-12T09:16:36Z</time>
      </trkpt>
      <trkpt lat="46.510156" lon="11.658895">
        <ele>1884.890</ele>
        <time>2018-09-12T09:16:53Z</time>
      </trkpt>
      <trkpt lat="46.510145" lon="11.658894">
        <ele>1884.892</ele>
        <time>2018-09-12T09:16:54Z</time>
      </trkpt>
      <trkpt lat="46.510133" lon="11.658892">
        <ele>1884.898</ele>
        <time>2018-09-12T09:16:55Z</time>
      </trkpt>
      <trkpt lat="46.510123" lon="11.658890">
        <ele>1884.894</ele>
        <time>2018-09-12T09:16:56Z</time>
      </trkpt>
      <trkpt lat="46.510112" lon="11.658887">
        <ele>1885.294</ele>
        <time>2018-09-12T09:16:57Z</time>
      </trkpt>
      <trkpt lat="46.510102" lon="11.658883">
        <ele>1885.294</ele>
        <time>2018-09-12T09:16:58Z</time>
      </trkpt>
      <trkpt lat="46.510063" lon="11.658872">
        <ele>1885.717</ele>
        <time>2018-09-12T09:17:02Z</time>
      </trkpt>
      <trkpt lat="46.509890" lon="11.658831">
        <ele>1888.653</ele>
        <time>2018-09-12T09:17:19Z</time>
      </trkpt>
      <trkpt lat="46.509755" lon="11.658796">
        <ele>1890.588</ele>
        <time>2018-09-12T09:17:32Z</time>
      </trkpt>
      <trkpt lat="46.509745" lon="11.658790">
        <ele>1891.024</ele>
        <time>2018-09-12T09:17:33Z</time>
      </trkpt>
      <trkpt lat="46.509643" lon="11.658758">
        <ele>1892.426</ele>
        <time>2018-09-12T09:17:43Z</time>
      </trkpt>
      <trkpt lat="46.509633" lon="11.658758">
        <ele>1892.408</ele>
        <time>2018-09-12T09:17:44Z</time>
      </trkpt>
      <trkpt lat="46.509502" lon="11.658744">
        <ele>1893.992</ele>
        <time>2018-09-12T09:17:57Z</time>
      </trkpt>
      <trkpt lat="46.509399" lon="11.658722">
        <ele>1895.324</ele>
        <time>2018-09-12T09:18:10Z</time>
      </trkpt>
      <trkpt lat="46.509242" lon="11.658686">
        <ele>1899.290</ele>
        <time>2018-09-12T09:18:28Z</time>
      </trkpt>
      <trkpt lat="46.509081" lon="11.658661">
        <ele>1902.586</ele>
        <time>2018-09-12T09:18:49Z</time>
      </trkpt>
      <trkpt lat="46.508932" lon="11.658601">
        <ele>1904.976</ele>
        <time>2018-09-12T09:19:10Z</time>
      </trkpt>
      <trkpt lat="46.508783" lon="11.658542">
        <ele>1907.846</ele>
        <time>2018-09-12T09:19:30Z</time>
      </trkpt>
      <trkpt lat="46.508647" lon="11.658502">
        <ele>1910.259</ele>
        <time>2018-09-12T09:19:48Z</time>
      </trkpt>
      <trkpt lat="46.508512" lon="11.658469">
        <ele>1912.635</ele>
        <time>2018-09-12T09:20:09Z</time>
      </trkpt>
      <trkpt lat="46.508414" lon="11.658379">
        <ele>1914.139</ele>
        <time>2018-09-12T09:20:26Z</time>
      </trkpt>
      <trkpt lat="46.508293" lon="11.658276">
        <ele>1916.001</ele>
        <time>2018-09-12T09:20:45Z</time>
      </trkpt>
      <trkpt lat="46.508208" lon="11.658183">
        <ele>1917.921</ele>
        <time>2018-09-12T09:21:00Z</time>
      </trkpt>
      <trkpt lat="46.508087" lon="11.658084">
        <ele>1922.208</ele>
        <time>2018-09-12T09:21:18Z</time>
      </trkpt>
      <trkpt lat="46.507945" lon="11.657971">
        <ele>1924.787</ele>
        <time>2018-09-12T09:21:37Z</time>
      </trkpt>
      <trkpt lat="46.507826" lon="11.657869">
        <ele>1927.579</ele>
        <time>2018-09-12T09:21:54Z</time>
      </trkpt>
      <trkpt lat="46.507674" lon="11.657788">
        <ele>1929.575</ele>
        <time>2018-09-12T09:22:15Z</time>
      </trkpt>
      <trkpt lat="46.507599" lon="11.657734">
        <ele>1931.911</ele>
        <time>2018-09-12T09:22:31Z</time>
      </trkpt>
      <trkpt lat="46.507589" lon="11.657723">
        <ele>1932.321</ele>
        <time>2018-09-12T09:22:32Z</time>
      </trkpt>
      <trkpt lat="46.507581" lon="11.657710">
        <ele>1932.811</ele>
        <time>2018-09-12T09:22:33Z</time>
      </trkpt>
      <trkpt lat="46.507564" lon="11.657696">
        <ele>1933.354</ele>
        <time>2018-09-12T09:22:35Z</time>
      </trkpt>
      <trkpt lat="46.507555" lon="11.657691">
        <ele>1933.330</ele>
        <time>2018-09-12T09:22:36Z</time>
      </trkpt>
      <trkpt lat="46.507545" lon="11.657686">
        <ele>1933.876</ele>
        <time>2018-09-12T09:22:37Z</time>
      </trkpt>
      <trkpt lat="46.507535" lon="11.657682">
        <ele>1933.390</ele>
        <time>2018-09-12T09:22:38Z</time>
      </trkpt>
      <trkpt lat="46.507525" lon="11.657680">
        <ele>1933.819</ele>
        <time>2018-09-12T09:22:39Z</time>
      </trkpt>
      <trkpt lat="46.507515" lon="11.657676">
        <ele>1933.808</ele>
        <time>2018-09-12T09:22:40Z</time>
      </trkpt>
      <trkpt lat="46.507504" lon="11.657668">
        <ele>1933.891</ele>
        <time>2018-09-12T09:22:41Z</time>
      </trkpt>
      <trkpt lat="46.507358" lon="11.657607">
        <ele>1933.843</ele>
        <time>2018-09-12T09:22:55Z</time>
      </trkpt>
      <trkpt lat="46.507347" lon="11.657602">
        <ele>1933.849</ele>
        <time>2018-09-12T09:22:56Z</time>
      </trkpt>
      <trkpt lat="46.507335" lon="11.657596">
        <ele>1934.335</ele>
        <time>2018-09-12T09:22:57Z</time>
      </trkpt>
      <trkpt lat="46.507159" lon="11.657439">
        <ele>1936.725</ele>
        <time>2018-09-12T09:23:15Z</time>
      </trkpt>
      <trkpt lat="46.506997" lon="11.657327">
        <ele>1940.565</ele>
        <time>2018-09-12T09:23:31Z</time>
      </trkpt>
      <trkpt lat="46.506899" lon="11.657232">
        <ele>1942.078</ele>
        <time>2018-09-12T09:23:41Z</time>
      </trkpt>
      <trkpt lat="46.506887" lon="11.657226">
        <ele>1942.074</ele>
        <time>2018-09-12T09:23:42Z</time>
      </trkpt>
      <trkpt lat="46.506875" lon="11.657218">
        <ele>1942.074</ele>
        <time>2018-09-12T09:23:43Z</time>
      </trkpt>
      <trkpt lat="46.506737" lon="11.657140">
        <ele>1942.456</ele>
        <time>2018-09-12T09:23:57Z</time>
      </trkpt>
      <trkpt lat="46.506594" lon="11.656977">
        <ele>1944.821</ele>
        <time>2018-09-12T09:24:16Z</time>
      </trkpt>
      <trkpt lat="46.506419" lon="11.656804">
        <ele>1947.708</ele>
        <time>2018-09-12T09:24:33Z</time>
      </trkpt>
      <trkpt lat="46.506224" lon="11.656751">
        <ele>1949.261</ele>
        <time>2018-09-12T09:24:51Z</time>
      </trkpt>
      <trkpt lat="46.506132" lon="11.656723">
        <ele>1950.163</ele>
        <time>2018-09-12T09:25:00Z</time>
      </trkpt>
      <trkpt lat="46.506010" lon="11.656562">
        <ele>1952.059</ele>
        <time>2018-09-12T09:25:16Z</time>
      </trkpt>
      <trkpt lat="46.505988" lon="11.656533">
        <ele>1952.045</ele>
        <time>2018-09-12T09:25:19Z</time>
      </trkpt>
      <trkpt lat="46.505907" lon="11.656456">
        <ele>1954.025</ele>
        <time>2018-09-12T09:25:29Z</time>
      </trkpt>
      <trkpt lat="46.505804" lon="11.656350">
        <ele>1954.965</ele>
        <time>2018-09-12T09:25:43Z</time>
      </trkpt>
      <trkpt lat="46.505686" lon="11.656242">
        <ele>1956.498</ele>
        <time>2018-09-12T09:25:58Z</time>
      </trkpt>
      <trkpt lat="46.505671" lon="11.656224">
        <ele>1956.924</ele>
        <time>2018-09-12T09:26:00Z</time>
      </trkpt>
      <trkpt lat="46.505560" lon="11.656084">
        <ele>1957.826</ele>
        <time>2018-09-12T09:26:15Z</time>
      </trkpt>
      <trkpt lat="46.505467" lon="11.655948">
        <ele>1960.747</ele>
        <time>2018-09-12T09:26:29Z</time>
      </trkpt>
      <trkpt lat="46.505379" lon="11.655751">
        <ele>1962.611</ele>
        <time>2018-09-12T09:26:46Z</time>
      </trkpt>
      <trkpt lat="46.505376" lon="11.655725">
        <ele>1963.108</ele>
        <time>2018-09-12T09:26:48Z</time>
      </trkpt>
      <trkpt lat="46.505374" lon="11.655712">
        <ele>1963.166</ele>
        <time>2018-09-12T09:26:49Z</time>
      </trkpt>
      <trkpt lat="46.505358" lon="11.655675">
        <ele>1964.148</ele>
        <time>2018-09-12T09:26:52Z</time>
      </trkpt>
      <trkpt lat="46.505306" lon="11.655584">
        <ele>1966.584</ele>
        <time>2018-09-12T09:27:05Z</time>
      </trkpt>
      <trkpt lat="46.505213" lon="11.655480">
        <ele>1966.910</ele>
        <time>2018-09-12T09:27:21Z</time>
      </trkpt>
      <trkpt lat="46.505109" lon="11.655367">
        <ele>1969.410</ele>
        <time>2018-09-12T09:27:39Z</time>
      </trkpt>
      <trkpt lat="46.505011" lon="11.655212">
        <ele>1970.820</ele>
        <time>2018-09-12T09:28:00Z</time>
      </trkpt>
      <trkpt lat="46.504920" lon="11.655076">
        <ele>1972.213</ele>
        <time>2018-09-12T09:28:18Z</time>
      </trkpt>
      <trkpt lat="46.504810" lon="11.654946">
        <ele>1975.179</ele>
        <time>2018-09-12T09:28:37Z</time>
      </trkpt>
      <trkpt lat="46.504708" lon="11.654877">
        <ele>1978.599</ele>
        <time>2018-09-12T09:28:53Z</time>
      </trkpt>
      <trkpt lat="46.504700" lon="11.654739">
        <ele>1981.407</ele>
        <time>2018-09-12T09:29:11Z</time>
      </trkpt>
      <trkpt lat="46.504691" lon="11.654750">
        <ele>1981.927</ele>
        <time>2018-09-12T09:29:30Z</time>
      </trkpt>
      <trkpt lat="46.504780" lon="11.654687">
        <ele>1982.808</ele>
        <time>2018-09-12T09:29:44Z</time>
      </trkpt>
      <trkpt lat="46.504854" lon="11.654638">
        <ele>1983.863</ele>
        <time>2018-09-12T09:29:59Z</time>
      </trkpt>
      <trkpt lat="46.504876" lon="11.654648">
        <ele>1983.365</ele>
        <time>2018-09-12T09:30:18Z</time>
      </trkpt>
      <trkpt lat="46.504933" lon="11.654601">
        <ele>1982.841</ele>
        <time>2018-09-12T09:30:31Z</time>
      </trkpt>
      <trkpt lat="46.504964" lon="11.654581">
        <ele>1983.367</ele>
        <time>2018-09-12T09:30:39Z</time>
      </trkpt>
      <trkpt lat="46.505104" lon="11.654566">
        <ele>1984.797</ele>
        <time>2018-09-12T09:30:54Z</time>
      </trkpt>
      <trkpt lat="46.505234" lon="11.654604">
        <ele>1988.137</ele>
        <time>2018-09-12T09:31:08Z</time>
      </trkpt>
      <trkpt lat="46.505359" lon="11.654706">
        <ele>1991.030</ele>
        <time>2018-09-12T09:31:23Z</time>
      </trkpt>
      <trkpt lat="46.505479" lon="11.654712">
        <ele>1995.396</ele>
        <time>2018-09-12T09:31:37Z</time>
      </trkpt>
      <trkpt lat="46.505641" lon="11.654724">
        <ele>2004.441</ele>
        <time>2018-09-12T09:31:54Z</time>
      </trkpt>
      <trkpt lat="46.505754" lon="11.654746">
        <ele>2004.081</ele>
        <time>2018-09-12T09:32:07Z</time>
      </trkpt>
      <trkpt lat="46.505907" lon="11.654873">
        <ele>2006.809</ele>
        <time>2018-09-12T09:32:24Z</time>
      </trkpt>
      <trkpt lat="46.506014" lon="11.654936">
        <ele>2008.808</ele>
        <time>2018-09-12T09:32:36Z</time>
      </trkpt>
      <trkpt lat="46.506163" lon="11.654937">
        <ele>2011.268</ele>
        <time>2018-09-12T09:32:52Z</time>
      </trkpt>
      <trkpt lat="46.506258" lon="11.654931">
        <ele>2013.150</ele>
        <time>2018-09-12T09:33:04Z</time>
      </trkpt>
      <trkpt lat="46.506366" lon="11.655042">
        <ele>2015.556</ele>
        <time>2018-09-12T09:33:16Z</time>
      </trkpt>
      <trkpt lat="46.506387" lon="11.655046">
        <ele>2016.062</ele>
        <time>2018-09-12T09:33:18Z</time>
      </trkpt>
      <trkpt lat="46.506440" lon="11.655030">
        <ele>2016.962</ele>
        <time>2018-09-12T09:33:24Z</time>
      </trkpt>
      <trkpt lat="46.506446" lon="11.654910">
        <ele>2017.922</ele>
        <time>2018-09-12T09:33:34Z</time>
      </trkpt>
      <trkpt lat="46.506365" lon="11.654728">
        <ele>2021.745</ele>
        <time>2018-09-12T09:33:52Z</time>
      </trkpt>
      <trkpt lat="46.506295" lon="11.654594">
        <ele>2022.271</ele>
        <time>2018-09-12T09:34:06Z</time>
      </trkpt>
      <trkpt lat="46.506218" lon="11.654498">
        <ele>2023.778</ele>
        <time>2018-09-12T09:34:18Z</time>
      </trkpt>
      <trkpt lat="46.506143" lon="11.654410">
        <ele>2024.633</ele>
        <time>2018-09-12T09:34:31Z</time>
      </trkpt>
      <trkpt lat="46.506087" lon="11.654286">
        <ele>2025.626</ele>
        <time>2018-09-12T09:34:43Z</time>
      </trkpt>
      <trkpt lat="46.506127" lon="11.654221">
        <ele>2025.108</ele>
        <time>2018-09-12T09:34:51Z</time>
      </trkpt>
      <trkpt lat="46.506163" lon="11.654227">
        <ele>2026.671</ele>
        <time>2018-09-12T09:34:55Z</time>
      </trkpt>
      <trkpt lat="46.506192" lon="11.654268">
        <ele>2027.513</ele>
        <time>2018-09-12T09:34:59Z</time>
      </trkpt>
      <trkpt lat="46.506365" lon="11.654319">
        <ele>2030.469</ele>
        <time>2018-09-12T09:35:19Z</time>
      </trkpt>
      <trkpt lat="46.506373" lon="11.654314">
        <ele>2030.485</ele>
        <time>2018-09-12T09:35:20Z</time>
      </trkpt>
      <trkpt lat="46.506470" lon="11.654273">
        <ele>2032.355</ele>
        <time>2018-09-12T09:35:31Z</time>
      </trkpt>
      <trkpt lat="46.506654" lon="11.654158">
        <ele>2034.235</ele>
        <time>2018-09-12T09:35:49Z</time>
      </trkpt>
      <trkpt lat="46.506760" lon="11.654120">
        <ele>2037.628</ele>
        <time>2018-09-12T09:36:00Z</time>
      </trkpt>
      <trkpt lat="46.506820" lon="11.654132">
        <ele>2039.054</ele>
        <time>2018-09-12T09:36:06Z</time>
      </trkpt>
      <trkpt lat="46.506866" lon="11.654162">
        <ele>2039.549</ele>
        <time>2018-09-12T09:36:11Z</time>
      </trkpt>
      <trkpt lat="46.506942" lon="11.654230">
        <ele>2039.502</ele>
        <time>2018-09-12T09:36:20Z</time>
      </trkpt>
      <trkpt lat="46.507015" lon="11.654264">
        <ele>2039.522</ele>
        <time>2018-09-12T09:36:27Z</time>
      </trkpt>
      <trkpt lat="46.507177" lon="11.654205">
        <ele>2041.508</ele>
        <time>2018-09-12T09:36:43Z</time>
      </trkpt>
      <trkpt lat="46.507350" lon="11.654193">
        <ele>2045.338</ele>
        <time>2018-09-12T09:37:01Z</time>
      </trkpt>
      <trkpt lat="46.507492" lon="11.654156">
        <ele>2045.850</ele>
        <time>2018-09-12T09:37:15Z</time>
      </trkpt>
      <trkpt lat="46.507649" lon="11.654132">
        <ele>2049.626</ele>
        <time>2018-09-12T09:37:31Z</time>
      </trkpt>
      <trkpt lat="46.507800" lon="11.654195">
        <ele>2054.912</ele>
        <time>2018-09-12T09:37:47Z</time>
      </trkpt>
      <trkpt lat="46.507861" lon="11.654214">
        <ele>2054.982</ele>
        <time>2018-09-12T09:37:54Z</time>
      </trkpt>
      <trkpt lat="46.508018" lon="11.654187">
        <ele>2054.972</ele>
        <time>2018-09-12T09:38:09Z</time>
      </trkpt>
      <trkpt lat="46.508169" lon="11.654163">
        <ele>2056.425</ele>
        <time>2018-09-12T09:38:24Z</time>
      </trkpt>
      <trkpt lat="46.508327" lon="11.654124">
        <ele>2061.211</ele>
        <time>2018-09-12T09:38:40Z</time>
      </trkpt>
      <trkpt lat="46.508479" lon="11.654078">
        <ele>2061.627</ele>
        <time>2018-09-12T09:38:56Z</time>
      </trkpt>
      <trkpt lat="46.508623" lon="11.654013">
        <ele>2064.568</ele>
        <time>2018-09-12T09:39:10Z</time>
      </trkpt>
      <trkpt lat="46.508794" lon="11.653925">
        <ele>2066.414</ele>
        <time>2018-09-12T09:39:28Z</time>
      </trkpt>
      <trkpt lat="46.508822" lon="11.653903">
        <ele>2066.008</ele>
        <time>2018-09-12T09:39:31Z</time>
      </trkpt>
      <trkpt lat="46.508936" lon="11.653855">
        <ele>2065.036</ele>
        <time>2018-09-12T09:39:42Z</time>
      </trkpt>
      <trkpt lat="46.509089" lon="11.653671">
        <ele>2062.678</ele>
        <time>2018-09-12T09:39:59Z</time>
      </trkpt>
      <trkpt lat="46.509180" lon="11.653500">
        <ele>2059.224</ele>
        <time>2018-09-12T09:40:08Z</time>
      </trkpt>
      <trkpt lat="46.509256" lon="11.653340">
        <ele>2056.420</ele>
        <time>2018-09-12T09:40:22Z</time>
      </trkpt>
      <trkpt lat="46.509280" lon="11.653235">
        <ele>2055.430</ele>
        <time>2018-09-12T09:40:46Z</time>
      </trkpt>
      <trkpt lat="46.509283" lon="11.653228">
        <ele>2055.450</ele>
        <time>2018-09-12T09:41:04Z</time>
      </trkpt>
      <trkpt lat="46.509277" lon="11.653223">
        <ele>2054.953</ele>
        <time>2018-09-12T09:41:35Z</time>
      </trkpt>
      <trkpt lat="46.509294" lon="11.653215">
        <ele>2052.539</ele>
        <time>2018-09-12T09:42:18Z</time>
      </trkpt>
      <trkpt lat="46.509291" lon="11.653210">
        <ele>2055.923</ele>
        <time>2018-09-12T09:42:50Z</time>
      </trkpt>
      <trkpt lat="46.509305" lon="11.653224">
        <ele>2054.483</ele>
        <time>2018-09-12T09:43:24Z</time>
      </trkpt>
      <trkpt lat="46.509298" lon="11.653212">
        <ele>2051.111</ele>
        <time>2018-09-12T09:43:47Z</time>
      </trkpt>
      <trkpt lat="46.509276" lon="11.653202">
        <ele>2051.508</ele>
        <time>2018-09-12T09:44:19Z</time>
      </trkpt>
      <trkpt lat="46.509380" lon="11.653266">
        <ele>2052.066</ele>
        <time>2018-09-12T09:44:27Z</time>
      </trkpt>
      <trkpt lat="46.509465" lon="11.653414">
        <ele>2053.548</ele>
        <time>2018-09-12T09:44:41Z</time>
      </trkpt>
      <trkpt lat="46.509469" lon="11.653422">
        <ele>2052.544</ele>
        <time>2018-09-12T09:45:14Z</time>
      </trkpt>
      <trkpt lat="46.509486" lon="11.653397">
        <ele>2053.980</ele>
        <time>2018-09-12T09:45:47Z</time>
      </trkpt>
      <trkpt lat="46.509442" lon="11.653332">
        <ele>2054.480</ele>
        <time>2018-09-12T09:46:00Z</time>
      </trkpt>
      <trkpt lat="46.509437" lon="11.653318">
        <ele>2054.490</ele>
        <time>2018-09-12T09:46:01Z</time>
      </trkpt>
      <trkpt lat="46.509477" lon="11.653253">
        <ele>2054.993</ele>
        <time>2018-09-12T09:46:06Z</time>
      </trkpt>
      <trkpt lat="46.509711" lon="11.653193">
        <ele>2055.469</ele>
        <time>2018-09-12T09:46:22Z</time>
      </trkpt>
      <trkpt lat="46.509853" lon="11.652996">
        <ele>2055.948</ele>
        <time>2018-09-12T09:46:34Z</time>
      </trkpt>
      <trkpt lat="46.510019" lon="11.652932">
        <ele>2057.861</ele>
        <time>2018-09-12T09:46:47Z</time>
      </trkpt>
      <trkpt lat="46.510076" lon="11.652974">
        <ele>2059.217</ele>
        <time>2018-09-12T09:46:52Z</time>
      </trkpt>
      <trkpt lat="46.510216" lon="11.653187">
        <ele>2062.608</ele>
        <time>2018-09-12T09:47:10Z</time>
      </trkpt>
      <trkpt lat="46.510231" lon="11.653209">
        <ele>2062.648</ele>
        <time>2018-09-12T09:47:12Z</time>
      </trkpt>
      <trkpt lat="46.510270" lon="11.653261">
        <ele>2063.180</ele>
        <time>2018-09-12T09:47:17Z</time>
      </trkpt>
      <trkpt lat="46.510415" lon="11.653445">
        <ele>2066.466</ele>
        <time>2018-09-12T09:47:37Z</time>
      </trkpt>
      <trkpt lat="46.510519" lon="11.653670">
        <ele>2066.982</ele>
        <time>2018-09-12T09:47:54Z</time>
      </trkpt>
      <trkpt lat="46.510527" lon="11.653689">
        <ele>2066.442</ele>
        <time>2018-09-12T09:47:55Z</time>
      </trkpt>
      <trkpt lat="46.510565" lon="11.653742">
        <ele>2066.472</ele>
        <time>2018-09-12T09:47:58Z</time>
      </trkpt>
      <trkpt lat="46.510728" lon="11.653954">
        <ele>2066.915</ele>
        <time>2018-09-12T09:48:10Z</time>
      </trkpt>
      <trkpt lat="46.510746" lon="11.654051">
        <ele>2069.341</ele>
        <time>2018-09-12T09:48:16Z</time>
      </trkpt>
      <trkpt lat="46.510753" lon="11.654065">
        <ele>2069.398</ele>
        <time>2018-09-12T09:48:17Z</time>
      </trkpt>
      <trkpt lat="46.510783" lon="11.654147">
        <ele>2070.815</ele>
        <time>2018-09-12T09:48:23Z</time>
      </trkpt>
      <trkpt lat="46.510819" lon="11.654191">
        <ele>2071.726</ele>
        <time>2018-09-12T09:48:27Z</time>
      </trkpt>
      <trkpt lat="46.510875" lon="11.654275">
        <ele>2073.208</ele>
        <time>2018-09-12T09:48:36Z</time>
      </trkpt>
      <trkpt lat="46.510886" lon="11.654278">
        <ele>2073.213</ele>
        <time>2018-09-12T09:48:37Z</time>
      </trkpt>
      <trkpt lat="46.510896" lon="11.654282">
        <ele>2073.755</ele>
        <time>2018-09-12T09:48:38Z</time>
      </trkpt>
      <trkpt lat="46.510943" lon="11.654292">
        <ele>2074.151</ele>
        <time>2018-09-12T09:48:43Z</time>
      </trkpt>
      <trkpt lat="46.511115" lon="11.654364">
        <ele>2074.617</ele>
        <time>2018-09-12T09:48:59Z</time>
      </trkpt>
      <trkpt lat="46.511159" lon="11.654411">
        <ele>2075.667</ele>
        <time>2018-09-12T09:49:04Z</time>
      </trkpt>
      <trkpt lat="46.511165" lon="11.654426">
        <ele>2075.697</ele>
        <time>2018-09-12T09:49:05Z</time>
      </trkpt>
      <trkpt lat="46.511329" lon="11.654561">
        <ele>2078.520</ele>
        <time>2018-09-12T09:49:23Z</time>
      </trkpt>
      <trkpt lat="46.511452" lon="11.654646">
        <ele>2079.416</ele>
        <time>2018-09-12T09:49:36Z</time>
      </trkpt>
      <trkpt lat="46.511460" lon="11.654657">
        <ele>2079.461</ele>
        <time>2018-09-12T09:49:37Z</time>
      </trkpt>
      <trkpt lat="46.511471" lon="11.654667">
        <ele>2079.421</ele>
        <time>2018-09-12T09:49:38Z</time>
      </trkpt>
      <trkpt lat="46.511482" lon="11.654673">
        <ele>2079.913</ele>
        <time>2018-09-12T09:49:39Z</time>
      </trkpt>
      <trkpt lat="46.511490" lon="11.654679">
        <ele>2079.908</ele>
        <time>2018-09-12T09:49:40Z</time>
      </trkpt>
      <trkpt lat="46.511498" lon="11.654687">
        <ele>2079.970</ele>
        <time>2018-09-12T09:49:41Z</time>
      </trkpt>
      <trkpt lat="46.511506" lon="11.654697">
        <ele>2079.922</ele>
        <time>2018-09-12T09:49:42Z</time>
      </trkpt>
      <trkpt lat="46.511515" lon="11.654706">
        <ele>2079.958</ele>
        <time>2018-09-12T09:49:43Z</time>
      </trkpt>
      <trkpt lat="46.511525" lon="11.654712">
        <ele>2080.434</ele>
        <time>2018-09-12T09:49:44Z</time>
      </trkpt>
      <trkpt lat="46.511671" lon="11.654797">
        <ele>2079.934</ele>
        <time>2018-09-12T09:49:58Z</time>
      </trkpt>
      <trkpt lat="46.511715" lon="11.654818">
        <ele>2080.414</ele>
        <time>2018-09-12T09:50:08Z</time>
      </trkpt>
      <trkpt lat="46.511711" lon="11.654821">
        <ele>2079.997</ele>
        <time>2018-09-12T09:50:27Z</time>
      </trkpt>
      <trkpt lat="46.511725" lon="11.654802">
        <ele>2081.353</ele>
        <time>2018-09-12T09:50:58Z</time>
      </trkpt>
      <trkpt lat="46.511745" lon="11.654784">
        <ele>2080.479</ele>
        <time>2018-09-12T09:51:04Z</time>
      </trkpt>
      <trkpt lat="46.511759" lon="11.654777">
        <ele>2079.905</ele>
        <time>2018-09-12T09:51:05Z</time>
      </trkpt>
      <trkpt lat="46.511777" lon="11.654774">
        <ele>2079.925</ele>
        <time>2018-09-12T09:51:06Z</time>
      </trkpt>
      <trkpt lat="46.511797" lon="11.654772">
        <ele>2079.908</ele>
        <time>2018-09-12T09:51:07Z</time>
      </trkpt>
      <trkpt lat="46.511816" lon="11.654766">
        <ele>2079.911</ele>
        <time>2018-09-12T09:51:08Z</time>
      </trkpt>
      <trkpt lat="46.511965" lon="11.654632">
        <ele>2078.013</ele>
        <time>2018-09-12T09:51:16Z</time>
      </trkpt>
      <trkpt lat="46.511992" lon="11.654589">
        <ele>2079.479</ele>
        <time>2018-09-12T09:51:27Z</time>
      </trkpt>
      <trkpt lat="46.511987" lon="11.654598">
        <ele>2078.975</ele>
        <time>2018-09-12T09:52:00Z</time>
      </trkpt>
      <trkpt lat="46.511989" lon="11.654582">
        <ele>2078.955</ele>
        <time>2018-09-12T09:52:38Z</time>
      </trkpt>
      <trkpt lat="46.512032" lon="11.654501">
        <ele>2078.965</ele>
        <time>2018-09-12T09:53:07Z</time>
      </trkpt>
      <trkpt lat="46.512133" lon="11.654338">
        <ele>2077.068</ele>
        <time>2018-09-12T09:53:19Z</time>
      </trkpt>
      <trkpt lat="46.512135" lon="11.654334">
        <ele>2077.024</ele>
        <time>2018-09-12T09:53:37Z</time>
      </trkpt>
      <trkpt lat="46.512145" lon="11.654318">
        <ele>2077.023</ele>
        <time>2018-09-12T09:53:38Z</time>
      </trkpt>
      <trkpt lat="46.512368" lon="11.653925">
        <ele>2071.783</ele>
        <time>2018-09-12T09:53:45Z</time>
      </trkpt>
      <trkpt lat="46.512719" lon="11.653387">
        <ele>2071.711</ele>
        <time>2018-09-12T09:53:53Z</time>
      </trkpt>
      <trkpt lat="46.512778" lon="11.653347">
        <ele>2071.708</ele>
        <time>2018-09-12T09:53:54Z</time>
      </trkpt>
      <trkpt lat="46.512842" lon="11.653322">
        <ele>2071.346</ele>
        <time>2018-09-12T09:53:55Z</time>
      </trkpt>
      <trkpt lat="46.512910" lon="11.653304">
        <ele>2071.358</ele>
        <time>2018-09-12T09:53:56Z</time>
      </trkpt>
      <trkpt lat="46.512973" lon="11.653298">
        <ele>2071.334</ele>
        <time>2018-09-12T09:53:57Z</time>
      </trkpt>
      <trkpt lat="46.513025" lon="11.653306">
        <ele>2071.760</ele>
        <time>2018-09-12T09:53:58Z</time>
      </trkpt>
      <trkpt lat="46.513068" lon="11.653320">
        <ele>2072.220</ele>
        <time>2018-09-12T09:53:59Z</time>
      </trkpt>
      <trkpt lat="46.513107" lon="11.653336">
        <ele>2072.230</ele>
        <time>2018-09-12T09:54:00Z</time>
      </trkpt>
      <trkpt lat="46.513222" lon="11.653396">
        <ele>2071.733</ele>
        <time>2018-09-12T09:54:03Z</time>
      </trkpt>
      <trkpt lat="46.513375" lon="11.653482">
        <ele>2070.849</ele>
        <time>2018-09-12T09:54:07Z</time>
      </trkpt>
      <trkpt lat="46.513420" lon="11.653491">
        <ele>2070.374</ele>
        <time>2018-09-12T09:54:08Z</time>
      </trkpt>
      <trkpt lat="46.513470" lon="11.653491">
        <ele>2070.356</ele>
        <time>2018-09-12T09:54:09Z</time>
      </trkpt>
      <trkpt lat="46.513579" lon="11.653476">
        <ele>2069.321</ele>
        <time>2018-09-12T09:54:11Z</time>
      </trkpt>
      <trkpt lat="46.513631" lon="11.653453">
        <ele>2068.808</ele>
        <time>2018-09-12T09:54:12Z</time>
      </trkpt>
      <trkpt lat="46.513683" lon="11.653415">
        <ele>2068.421</ele>
        <time>2018-09-12T09:54:13Z</time>
      </trkpt>
      <trkpt lat="46.513733" lon="11.653363">
        <ele>2067.933</ele>
        <time>2018-09-12T09:54:14Z</time>
      </trkpt>
      <trkpt lat="46.513781" lon="11.653304">
        <ele>2067.969</ele>
        <time>2018-09-12T09:54:15Z</time>
      </trkpt>
      <trkpt lat="46.513873" lon="11.653205">
        <ele>2067.425</ele>
        <time>2018-09-12T09:54:17Z</time>
      </trkpt>
      <trkpt lat="46.513926" lon="11.653173">
        <ele>2067.425</ele>
        <time>2018-09-12T09:54:18Z</time>
      </trkpt>
      <trkpt lat="46.513984" lon="11.653157">
        <ele>2066.935</ele>
        <time>2018-09-12T09:54:19Z</time>
      </trkpt>
      <trkpt lat="46.514048" lon="11.653150">
        <ele>2066.418</ele>
        <time>2018-09-12T09:54:20Z</time>
      </trkpt>
      <trkpt lat="46.514103" lon="11.653139">
        <ele>2066.454</ele>
        <time>2018-09-12T09:54:21Z</time>
      </trkpt>
      <trkpt lat="46.514157" lon="11.653111">
        <ele>2066.469</ele>
        <time>2018-09-12T09:54:22Z</time>
      </trkpt>
      <trkpt lat="46.514200" lon="11.653069">
        <ele>2066.404</ele>
        <time>2018-09-12T09:54:23Z</time>
      </trkpt>
      <trkpt lat="46.514235" lon="11.653022">
        <ele>2066.924</ele>
        <time>2018-09-12T09:54:24Z</time>
      </trkpt>
      <trkpt lat="46.514269" lon="11.652977">
        <ele>2066.908</ele>
        <time>2018-09-12T09:54:25Z</time>
      </trkpt>
      <trkpt lat="46.514615" lon="11.652741">
        <ele>2063.610</ele>
        <time>2018-09-12T09:54:36Z</time>
      </trkpt>
      <trkpt lat="46.514744" lon="11.652628">
        <ele>2061.682</ele>
        <time>2018-09-12T09:54:40Z</time>
      </trkpt>
      <trkpt lat="46.515083" lon="11.652107">
        <ele>2055.968</ele>
        <time>2018-09-12T09:54:48Z</time>
      </trkpt>
      <trkpt lat="46.515313" lon="11.651714">
        <ele>2051.154</ele>
        <time>2018-09-12T09:54:57Z</time>
      </trkpt>
      <trkpt lat="46.515349" lon="11.651688">
        <ele>2050.664</ele>
        <time>2018-09-12T09:54:58Z</time>
      </trkpt>
      <trkpt lat="46.515388" lon="11.651676">
        <ele>2049.664</ele>
        <time>2018-09-12T09:54:59Z</time>
      </trkpt>
      <trkpt lat="46.515429" lon="11.651674">
        <ele>2048.757</ele>
        <time>2018-09-12T09:55:00Z</time>
      </trkpt>
      <trkpt lat="46.515470" lon="11.651674">
        <ele>2048.263</ele>
        <time>2018-09-12T09:55:01Z</time>
      </trkpt>
      <trkpt lat="46.515799" lon="11.651644">
        <ele>2044.818</ele>
        <time>2018-09-12T09:55:11Z</time>
      </trkpt>
      <trkpt lat="46.515813" lon="11.651624">
        <ele>2044.398</ele>
        <time>2018-09-12T09:55:12Z</time>
      </trkpt>
      <trkpt lat="46.515969" lon="11.651257">
        <ele>2040.517</ele>
        <time>2018-09-12T09:55:20Z</time>
      </trkpt>
      <trkpt lat="46.515985" lon="11.651190">
        <ele>2040.508</ele>
        <time>2018-09-12T09:55:21Z</time>
      </trkpt>
      <trkpt lat="46.515996" lon="11.651120">
        <ele>2040.045</ele>
        <time>2018-09-12T09:55:22Z</time>
      </trkpt>
      <trkpt lat="46.516003" lon="11.651046">
        <ele>2039.587</ele>
        <time>2018-09-12T09:55:23Z</time>
      </trkpt>
      <trkpt lat="46.516007" lon="11.650981">
        <ele>2039.513</ele>
        <time>2018-09-12T09:55:24Z</time>
      </trkpt>
      <trkpt lat="46.516007" lon="11.650907">
        <ele>2039.099</ele>
        <time>2018-09-12T09:55:25Z</time>
      </trkpt>
      <trkpt lat="46.515998" lon="11.650829">
        <ele>2038.639</ele>
        <time>2018-09-12T09:55:26Z</time>
      </trkpt>
      <trkpt lat="46.515980" lon="11.650752">
        <ele>2038.129</ele>
        <time>2018-09-12T09:55:27Z</time>
      </trkpt>
      <trkpt lat="46.515956" lon="11.650680">
        <ele>2037.632</ele>
        <time>2018-09-12T09:55:28Z</time>
      </trkpt>
      <trkpt lat="46.515931" lon="11.650605">
        <ele>2037.138</ele>
        <time>2018-09-12T09:55:29Z</time>
      </trkpt>
      <trkpt lat="46.515915" lon="11.650525">
        <ele>2037.191</ele>
        <time>2018-09-12T09:55:30Z</time>
      </trkpt>
      <trkpt lat="46.515915" lon="11.650441">
        <ele>2036.681</ele>
        <time>2018-09-12T09:55:31Z</time>
      </trkpt>
      <trkpt lat="46.515933" lon="11.650364">
        <ele>2037.119</ele>
        <time>2018-09-12T09:55:32Z</time>
      </trkpt>
      <trkpt lat="46.515960" lon="11.650306">
        <ele>2037.608</ele>
        <time>2018-09-12T09:55:33Z</time>
      </trkpt>
      <trkpt lat="46.515985" lon="11.650267">
        <ele>2038.163</ele>
        <time>2018-09-12T09:55:34Z</time>
      </trkpt>
      <trkpt lat="46.516006" lon="11.650243">
        <ele>2038.695</ele>
        <time>2018-09-12T09:55:35Z</time>
      </trkpt>
      <trkpt lat="46.516018" lon="11.650227">
        <ele>2039.591</ele>
        <time>2018-09-12T09:55:36Z</time>
      </trkpt>
      <trkpt lat="46.516027" lon="11.650217">
        <ele>2040.047</ele>
        <time>2018-09-12T09:55:37Z</time>
      </trkpt>
      <trkpt lat="46.516034" lon="11.650206">
        <ele>2040.557</ele>
        <time>2018-09-12T09:55:38Z</time>
      </trkpt>
      <trkpt lat="46.516042" lon="11.650193">
        <ele>2040.557</ele>
        <time>2018-09-12T09:55:39Z</time>
      </trkpt>
      <trkpt lat="46.516106" lon="11.650086">
        <ele>2041.030</ele>
        <time>2018-09-12T09:55:47Z</time>
      </trkpt>
      <trkpt lat="46.516113" lon="11.650070">
        <ele>2041.066</ele>
        <time>2018-09-12T09:55:48Z</time>
      </trkpt>
      <trkpt lat="46.516119" lon="11.650052">
        <ele>2041.041</ele>
        <time>2018-09-12T09:55:49Z</time>
      </trkpt>
      <trkpt lat="46.516159" lon="11.649934">
        <ele>2041.581</ele>
        <time>2018-09-12T09:55:56Z</time>
      </trkpt>
      <trkpt lat="46.516163" lon="11.649916">
        <ele>2041.509</ele>
        <time>2018-09-12T09:55:57Z</time>
      </trkpt>
      <trkpt lat="46.516168" lon="11.649899">
        <ele>2041.908</ele>
        <time>2018-09-12T09:55:58Z</time>
      </trkpt>
      <trkpt lat="46.516194" lon="11.649787">
        <ele>2043.438</ele>
        <time>2018-09-12T09:56:05Z</time>
      </trkpt>
      <trkpt lat="46.516200" lon="11.649773">
        <ele>2043.490</ele>
        <time>2018-09-12T09:56:06Z</time>
      </trkpt>
      <trkpt lat="46.516207" lon="11.649760">
        <ele>2043.916</ele>
        <time>2018-09-12T09:56:07Z</time>
      </trkpt>
      <trkpt lat="46.516213" lon="11.649746">
        <ele>2043.962</ele>
        <time>2018-09-12T09:56:08Z</time>
      </trkpt>
      <trkpt lat="46.516220" lon="11.649727">
        <ele>2043.912</ele>
        <time>2018-09-12T09:56:09Z</time>
      </trkpt>
      <trkpt lat="46.516225" lon="11.649713">
        <ele>2043.942</ele>
        <time>2018-09-12T09:56:10Z</time>
      </trkpt>
      <trkpt lat="46.516232" lon="11.649699">
        <ele>2043.925</ele>
        <time>2018-09-12T09:56:11Z</time>
      </trkpt>
      <trkpt lat="46.516373" lon="11.649380">
        <ele>2041.531</ele>
        <time>2018-09-12T09:56:25Z</time>
      </trkpt>
      <trkpt lat="46.516452" lon="11.649201">
        <ele>2038.614</ele>
        <time>2018-09-12T09:56:29Z</time>
      </trkpt>
      <trkpt lat="46.516459" lon="11.649140">
        <ele>2037.654</ele>
        <time>2018-09-12T09:56:30Z</time>
      </trkpt>
      <trkpt lat="46.516461" lon="11.649080">
        <ele>2037.109</ele>
        <time>2018-09-12T09:56:31Z</time>
      </trkpt>
      <trkpt lat="46.516458" lon="11.649018">
        <ele>2036.608</ele>
        <time>2018-09-12T09:56:32Z</time>
      </trkpt>
      <trkpt lat="46.516451" lon="11.648956">
        <ele>2035.775</ele>
        <time>2018-09-12T09:56:33Z</time>
      </trkpt>
      <trkpt lat="46.516439" lon="11.648896">
        <ele>2035.297</ele>
        <time>2018-09-12T09:56:34Z</time>
      </trkpt>
      <trkpt lat="46.516398" lon="11.648575">
        <ele>2031.883</ele>
        <time>2018-09-12T09:56:39Z</time>
      </trkpt>
      <trkpt lat="46.516401" lon="11.648516">
        <ele>2031.479</ele>
        <time>2018-09-12T09:56:40Z</time>
      </trkpt>
      <trkpt lat="46.516409" lon="11.648457">
        <ele>2031.499</ele>
        <time>2018-09-12T09:56:41Z</time>
      </trkpt>
      <trkpt lat="46.516417" lon="11.647897">
        <ele>2025.639</ele>
        <time>2018-09-12T09:56:51Z</time>
      </trkpt>
      <trkpt lat="46.516397" lon="11.647495">
        <ele>2022.222</ele>
        <time>2018-09-12T09:56:57Z</time>
      </trkpt>
      <trkpt lat="46.516410" lon="11.647430">
        <ele>2022.278</ele>
        <time>2018-09-12T09:56:58Z</time>
      </trkpt>
      <trkpt lat="46.516429" lon="11.647367">
        <ele>2021.761</ele>
        <time>2018-09-12T09:56:59Z</time>
      </trkpt>
      <trkpt lat="46.516455" lon="11.647310">
        <ele>2021.721</ele>
        <time>2018-09-12T09:57:00Z</time>
      </trkpt>
      <trkpt lat="46.516479" lon="11.647263">
        <ele>2021.313</ele>
        <time>2018-09-12T09:57:01Z</time>
      </trkpt>
      <trkpt lat="46.516534" lon="11.647167">
        <ele>2021.708</ele>
        <time>2018-09-12T09:57:09Z</time>
      </trkpt>
      <trkpt lat="46.516622" lon="11.646981">
        <ele>2021.760</ele>
        <time>2018-09-12T09:57:35Z</time>
      </trkpt>
      <trkpt lat="46.516680" lon="11.646540">
        <ele>2015.572</ele>
        <time>2018-09-12T09:57:46Z</time>
      </trkpt>
      <trkpt lat="46.516649" lon="11.646412">
        <ele>2015.038</ele>
        <time>2018-09-12T09:57:55Z</time>
      </trkpt>
      <trkpt lat="46.516632" lon="11.646402">
        <ele>2014.524</ele>
        <time>2018-09-12T09:57:56Z</time>
      </trkpt>
      <trkpt lat="46.516616" lon="11.646405">
        <ele>2014.524</ele>
        <time>2018-09-12T09:57:57Z</time>
      </trkpt>
      <trkpt lat="46.516588" lon="11.646414">
        <ele>2015.044</ele>
        <time>2018-09-12T09:57:59Z</time>
      </trkpt>
      <trkpt lat="46.516576" lon="11.646404">
        <ele>2015.097</ele>
        <time>2018-09-12T09:58:00Z</time>
      </trkpt>
      <trkpt lat="46.516564" lon="11.646395">
        <ele>2015.063</ele>
        <time>2018-09-12T09:58:01Z</time>
      </trkpt>
      <trkpt lat="46.516379" lon="11.646254">
        <ele>2016.562</ele>
        <time>2018-09-12T09:58:16Z</time>
      </trkpt>
      <trkpt lat="46.516368" lon="11.646251">
        <ele>2016.583</ele>
        <time>2018-09-12T09:58:17Z</time>
      </trkpt>
      <trkpt lat="46.516359" lon="11.646251">
        <ele>2016.511</ele>
        <time>2018-09-12T09:58:18Z</time>
      </trkpt>
      <trkpt lat="46.516236" lon="11.646260">
        <ele>2016.008</ele>
        <time>2018-09-12T09:58:34Z</time>
      </trkpt>
      <trkpt lat="46.516244" lon="11.646270">
        <ele>2015.090</ele>
        <time>2018-09-12T09:58:54Z</time>
      </trkpt>
      <trkpt lat="46.516234" lon="11.646281">
        <ele>2009.742</ele>
        <time>2018-09-12T10:37:31Z</time>
      </trkpt>
      <trkpt lat="46.516277" lon="11.646249">
        <ele>2013.158</ele>
        <time>2018-09-12T10:37:43Z</time>
      </trkpt>
      <trkpt lat="46.516232" lon="11.646272">
        <ele>2015.574</ele>
        <time>2018-09-12T10:37:56Z</time>
      </trkpt>
      <trkpt lat="46.516279" lon="11.646251">
        <ele>2016.584</ele>
        <time>2018-09-12T10:38:23Z</time>
      </trkpt>
      <trkpt lat="46.516297" lon="11.646255">
        <ele>2016.514</ele>
        <time>2018-09-12T10:38:25Z</time>
      </trkpt>
      <trkpt lat="46.516309" lon="11.646256">
        <ele>2016.557</ele>
        <time>2018-09-12T10:38:26Z</time>
      </trkpt>
      <trkpt lat="46.516373" lon="11.646270">
        <ele>2017.963</ele>
        <time>2018-09-12T10:38:30Z</time>
      </trkpt>
      <trkpt lat="46.516396" lon="11.646283">
        <ele>2017.942</ele>
        <time>2018-09-12T10:38:31Z</time>
      </trkpt>
      <trkpt lat="46.516417" lon="11.646296">
        <ele>2017.922</ele>
        <time>2018-09-12T10:38:32Z</time>
      </trkpt>
      <trkpt lat="46.516606" lon="11.646455">
        <ele>2017.414</ele>
        <time>2018-09-12T10:38:41Z</time>
      </trkpt>
      <trkpt lat="46.516628" lon="11.646439">
        <ele>2016.908</ele>
        <time>2018-09-12T10:38:42Z</time>
      </trkpt>
      <trkpt lat="46.516641" lon="11.646413">
        <ele>2016.588</ele>
        <time>2018-09-12T10:38:43Z</time>
      </trkpt>
      <trkpt lat="46.516647" lon="11.646383">
        <ele>2016.520</ele>
        <time>2018-09-12T10:38:44Z</time>
      </trkpt>
      <trkpt lat="46.516644" lon="11.646344">
        <ele>2016.086</ele>
        <time>2018-09-12T10:38:45Z</time>
      </trkpt>
      <trkpt lat="46.516637" lon="11.646307">
        <ele>2015.082</ele>
        <time>2018-09-12T10:38:46Z</time>
      </trkpt>
      <trkpt lat="46.516627" lon="11.646270">
        <ele>2014.582</ele>
        <time>2018-09-12T10:38:47Z</time>
      </trkpt>
      <trkpt lat="46.516617" lon="11.646231">
        <ele>2014.192</ele>
        <time>2018-09-12T10:38:48Z</time>
      </trkpt>
      <trkpt lat="46.516467" lon="11.645751">
        <ele>2007.365</ele>
        <time>2018-09-12T10:38:57Z</time>
      </trkpt>
      <trkpt lat="46.516456" lon="11.645685">
        <ele>2006.891</ele>
        <time>2018-09-12T10:38:58Z</time>
      </trkpt>
      <trkpt lat="46.516453" lon="11.645623">
        <ele>2006.817</ele>
        <time>2018-09-12T10:38:59Z</time>
      </trkpt>
      <trkpt lat="46.516462" lon="11.645571">
        <ele>2007.387</ele>
        <time>2018-09-12T10:39:00Z</time>
      </trkpt>
      <trkpt lat="46.516479" lon="11.645532">
        <ele>2007.315</ele>
        <time>2018-09-12T10:39:01Z</time>
      </trkpt>
      <trkpt lat="46.516501" lon="11.645500">
        <ele>2007.808</ele>
        <time>2018-09-12T10:39:02Z</time>
      </trkpt>
      <trkpt lat="46.516524" lon="11.645466">
        <ele>2007.315</ele>
        <time>2018-09-12T10:39:03Z</time>
      </trkpt>
      <trkpt lat="46.516760" lon="11.645249">
        <ele>2005.457</ele>
        <time>2018-09-12T10:39:11Z</time>
      </trkpt>
      <trkpt lat="46.517132" lon="11.645105">
        <ele>2004.933</ele>
        <time>2018-09-12T10:39:24Z</time>
      </trkpt>
      <trkpt lat="46.517144" lon="11.645104">
        <ele>2005.969</ele>
        <time>2018-09-12T10:39:47Z</time>
      </trkpt>
      <trkpt lat="46.517312" lon="11.645092">
        <ele>2006.489</ele>
        <time>2018-09-12T10:40:01Z</time>
      </trkpt>
      <trkpt lat="46.517357" lon="11.645082">
        <ele>2006.439</ele>
        <time>2018-09-12T10:40:05Z</time>
      </trkpt>
      <trkpt lat="46.517393" lon="11.645087">
        <ele>2006.432</ele>
        <time>2018-09-12T10:40:08Z</time>
      </trkpt>
      <trkpt lat="46.517407" lon="11.645087">
        <ele>2006.468</ele>
        <time>2018-09-12T10:40:09Z</time>
      </trkpt>
      <trkpt lat="46.517420" lon="11.645089">
        <ele>2006.498</ele>
        <time>2018-09-12T10:40:10Z</time>
      </trkpt>
      <trkpt lat="46.517433" lon="11.645090">
        <ele>2006.415</ele>
        <time>2018-09-12T10:40:11Z</time>
      </trkpt>
      <trkpt lat="46.517446" lon="11.645086">
        <ele>2006.426</ele>
        <time>2018-09-12T10:40:12Z</time>
      </trkpt>
      <trkpt lat="46.517698" lon="11.645091">
        <ele>2006.808</ele>
        <time>2018-09-12T10:40:31Z</time>
      </trkpt>
      <trkpt lat="46.517807" lon="11.645128">
        <ele>2007.313</ele>
        <time>2018-09-12T10:40:40Z</time>
      </trkpt>
      <trkpt lat="46.517821" lon="11.645133">
        <ele>2007.375</ele>
        <time>2018-09-12T10:40:41Z</time>
      </trkpt>
      <trkpt lat="46.517984" lon="11.645183">
        <ele>2009.291</ele>
        <time>2018-09-12T10:40:55Z</time>
      </trkpt>
      <trkpt lat="46.517996" lon="11.645182">
        <ele>2009.247</ele>
        <time>2018-09-12T10:40:56Z</time>
      </trkpt>
      <trkpt lat="46.518040" lon="11.645180">
        <ele>2010.297</ele>
        <time>2018-09-12T10:41:00Z</time>
      </trkpt>
      <trkpt lat="46.518050" lon="11.645186">
        <ele>2010.217</ele>
        <time>2018-09-12T10:41:01Z</time>
      </trkpt>
      <trkpt lat="46.518060" lon="11.645191">
        <ele>2010.240</ele>
        <time>2018-09-12T10:41:02Z</time>
      </trkpt>
      <trkpt lat="46.518070" lon="11.645202">
        <ele>2010.266</ele>
        <time>2018-09-12T10:41:03Z</time>
      </trkpt>
      <trkpt lat="46.518079" lon="11.645209">
        <ele>2010.279</ele>
        <time>2018-09-12T10:41:04Z</time>
      </trkpt>
      <trkpt lat="46.518088" lon="11.645214">
        <ele>2010.205</ele>
        <time>2018-09-12T10:41:05Z</time>
      </trkpt>
      <trkpt lat="46.518097" lon="11.645224">
        <ele>2010.725</ele>
        <time>2018-09-12T10:41:06Z</time>
      </trkpt>
      <trkpt lat="46.518106" lon="11.645233">
        <ele>2010.708</ele>
        <time>2018-09-12T10:41:07Z</time>
      </trkpt>
      <trkpt lat="46.518116" lon="11.645240">
        <ele>2010.711</ele>
        <time>2018-09-12T10:41:08Z</time>
      </trkpt>
      <trkpt lat="46.518302" lon="11.645378">
        <ele>2013.683</ele>
        <time>2018-09-12T10:41:28Z</time>
      </trkpt>
      <trkpt lat="46.518338" lon="11.645413">
        <ele>2015.559</ele>
        <time>2018-09-12T10:41:39Z</time>
      </trkpt>
      <trkpt lat="46.518455" lon="11.645470">
        <ele>2018.415</ele>
        <time>2018-09-12T10:41:57Z</time>
      </trkpt>
      <trkpt lat="46.518559" lon="11.645506">
        <ele>2021.365</ele>
        <time>2018-09-12T10:42:15Z</time>
      </trkpt>
      <trkpt lat="46.518684" lon="11.645532">
        <ele>2022.715</ele>
        <time>2018-09-12T10:42:32Z</time>
      </trkpt>
      <trkpt lat="46.518801" lon="11.645528">
        <ele>2025.678</ele>
        <time>2018-09-12T10:42:50Z</time>
      </trkpt>
      <trkpt lat="46.518912" lon="11.645515">
        <ele>2029.044</ele>
        <time>2018-09-12T10:43:07Z</time>
      </trkpt>
      <trkpt lat="46.519025" lon="11.645483">
        <ele>2029.992</ele>
        <time>2018-09-12T10:43:24Z</time>
      </trkpt>
      <trkpt lat="46.519135" lon="11.645427">
        <ele>2031.873</ele>
        <time>2018-09-12T10:43:42Z</time>
      </trkpt>
      <trkpt lat="46.519239" lon="11.645361">
        <ele>2032.820</ele>
        <time>2018-09-12T10:43:59Z</time>
      </trkpt>
      <trkpt lat="46.519372" lon="11.645277">
        <ele>2035.208</ele>
        <time>2018-09-12T10:44:18Z</time>
      </trkpt>
      <trkpt lat="46.519520" lon="11.645188">
        <ele>2038.133</ele>
        <time>2018-09-12T10:44:40Z</time>
      </trkpt>
      <trkpt lat="46.519670" lon="11.645099">
        <ele>2039.075</ele>
        <time>2018-09-12T10:44:59Z</time>
      </trkpt>
      <trkpt lat="46.519815" lon="11.645026">
        <ele>2040.531</ele>
        <time>2018-09-12T10:45:17Z</time>
      </trkpt>
      <trkpt lat="46.519952" lon="11.644953">
        <ele>2043.417</ele>
        <time>2018-09-12T10:45:36Z</time>
      </trkpt>
      <trkpt lat="46.520064" lon="11.644826">
        <ele>2044.877</ele>
        <time>2018-09-12T10:45:54Z</time>
      </trkpt>
      <trkpt lat="46.520102" lon="11.644780">
        <ele>2045.367</ele>
        <time>2018-09-12T10:46:06Z</time>
      </trkpt>
      <trkpt lat="46.520124" lon="11.644740">
        <ele>2044.810</ele>
        <time>2018-09-12T10:46:09Z</time>
      </trkpt>
      <trkpt lat="46.520124" lon="11.644723">
        <ele>2044.836</ele>
        <time>2018-09-12T10:46:10Z</time>
      </trkpt>
      <trkpt lat="46.520126" lon="11.644705">
        <ele>2044.888</ele>
        <time>2018-09-12T10:46:11Z</time>
      </trkpt>
      <trkpt lat="46.520130" lon="11.644687">
        <ele>2044.824</ele>
        <time>2018-09-12T10:46:12Z</time>
      </trkpt>
      <trkpt lat="46.520135" lon="11.644671">
        <ele>2044.826</ele>
        <time>2018-09-12T10:46:13Z</time>
      </trkpt>
      <trkpt lat="46.520142" lon="11.644654">
        <ele>2045.308</ele>
        <time>2018-09-12T10:46:14Z</time>
      </trkpt>
      <trkpt lat="46.520149" lon="11.644636">
        <ele>2045.352</ele>
        <time>2018-09-12T10:46:15Z</time>
      </trkpt>
      <trkpt lat="46.520286" lon="11.644369">
        <ele>2044.884</ele>
        <time>2018-09-12T10:46:29Z</time>
      </trkpt>
      <trkpt lat="46.520479" lon="11.644201">
        <ele>2045.370</ele>
        <time>2018-09-12T10:46:44Z</time>
      </trkpt>
      <trkpt lat="46.520698" lon="11.643847">
        <ele>2044.356</ele>
        <time>2018-09-12T10:47:00Z</time>
      </trkpt>
      <trkpt lat="46.520829" lon="11.643513">
        <ele>2044.396</ele>
        <time>2018-09-12T10:47:14Z</time>
      </trkpt>
      <trkpt lat="46.520968" lon="11.643175">
        <ele>2046.786</ele>
        <time>2018-09-12T10:47:31Z</time>
      </trkpt>
      <trkpt lat="46.521115" lon="11.642905">
        <ele>2048.259</ele>
        <time>2018-09-12T10:47:47Z</time>
      </trkpt>
      <trkpt lat="46.521265" lon="11.642579">
        <ele>2049.675</ele>
        <time>2018-09-12T10:48:05Z</time>
      </trkpt>
      <trkpt lat="46.521447" lon="11.642223">
        <ele>2050.698</ele>
        <time>2018-09-12T10:48:25Z</time>
      </trkpt>
      <trkpt lat="46.521570" lon="11.641972">
        <ele>2051.515</ele>
        <time>2018-09-12T10:48:43Z</time>
      </trkpt>
      <trkpt lat="46.521567" lon="11.641962">
        <ele>2051.526</ele>
        <time>2018-09-12T10:49:13Z</time>
      </trkpt>
      <trkpt lat="46.521577" lon="11.641934">
        <ele>2051.508</ele>
        <time>2018-09-12T10:49:16Z</time>
      </trkpt>
      <trkpt lat="46.521583" lon="11.641913">
        <ele>2051.523</ele>
        <time>2018-09-12T10:49:17Z</time>
      </trkpt>
      <trkpt lat="46.521594" lon="11.641890">
        <ele>2051.525</ele>
        <time>2018-09-12T10:49:18Z</time>
      </trkpt>
      <trkpt lat="46.521607" lon="11.641862">
        <ele>2051.171</ele>
        <time>2018-09-12T10:49:19Z</time>
      </trkpt>
      <trkpt lat="46.521620" lon="11.641827">
        <ele>2051.187</ele>
        <time>2018-09-12T10:49:20Z</time>
      </trkpt>
      <trkpt lat="46.521635" lon="11.641789">
        <ele>2051.127</ele>
        <time>2018-09-12T10:49:21Z</time>
      </trkpt>
      <trkpt lat="46.521652" lon="11.641749">
        <ele>2051.147</ele>
        <time>2018-09-12T10:49:22Z</time>
      </trkpt>
      <trkpt lat="46.521884" lon="11.641300">
        <ele>2051.150</ele>
        <time>2018-09-12T10:49:36Z</time>
      </trkpt>
      <trkpt lat="46.522170" lon="11.640681">
        <ele>2050.166</ele>
        <time>2018-09-12T10:49:54Z</time>
      </trkpt>
      <trkpt lat="46.522398" lon="11.640116">
        <ele>2050.163</ele>
        <time>2018-09-12T10:50:09Z</time>
      </trkpt>
      <trkpt lat="46.522342" lon="11.639470">
        <ele>2047.744</ele>
        <time>2018-09-12T10:50:24Z</time>
      </trkpt>
      <trkpt lat="46.522388" lon="11.638833">
        <ele>2048.218</ele>
        <time>2018-09-12T10:50:38Z</time>
      </trkpt>
      <trkpt lat="46.522481" lon="11.638229">
        <ele>2048.708</ele>
        <time>2018-09-12T10:50:54Z</time>
      </trkpt>
      <trkpt lat="46.522595" lon="11.637737">
        <ele>2047.710</ele>
        <time>2018-09-12T10:51:05Z</time>
      </trkpt>
      <trkpt lat="46.522773" lon="11.637201">
        <ele>2046.762</ele>
        <time>2018-09-12T10:51:19Z</time>
      </trkpt>
      <trkpt lat="46.522801" lon="11.637043">
        <ele>2046.768</ele>
        <time>2018-09-12T10:51:25Z</time>
      </trkpt>
      <trkpt lat="46.522815" lon="11.637034">
        <ele>2046.714</ele>
        <time>2018-09-12T10:51:26Z</time>
      </trkpt>
      <trkpt lat="46.523149" lon="11.636826">
        <ele>2041.954</ele>
        <time>2018-09-12T10:51:40Z</time>
      </trkpt>
      <trkpt lat="46.523291" lon="11.636314">
        <ele>2040.054</ele>
        <time>2018-09-12T10:51:52Z</time>
      </trkpt>
      <trkpt lat="46.523529" lon="11.635969">
        <ele>2037.657</ele>
        <time>2018-09-12T10:52:06Z</time>
      </trkpt>
      <trkpt lat="46.523681" lon="11.635647">
        <ele>2035.293</ele>
        <time>2018-09-12T10:52:14Z</time>
      </trkpt>
      <trkpt lat="46.523945" lon="11.634934">
        <ele>2032.884</ele>
        <time>2018-09-12T10:52:26Z</time>
      </trkpt>
      <trkpt lat="46.523952" lon="11.634862">
        <ele>2032.307</ele>
        <time>2018-09-12T10:52:27Z</time>
      </trkpt>
      <trkpt lat="46.523951" lon="11.634791">
        <ele>2032.317</ele>
        <time>2018-09-12T10:52:28Z</time>
      </trkpt>
      <trkpt lat="46.523945" lon="11.634721">
        <ele>2032.308</ele>
        <time>2018-09-12T10:52:29Z</time>
      </trkpt>
      <trkpt lat="46.523935" lon="11.634655">
        <ele>2032.392</ele>
        <time>2018-09-12T10:52:30Z</time>
      </trkpt>
      <trkpt lat="46.523923" lon="11.634597">
        <ele>2032.854</ele>
        <time>2018-09-12T10:52:31Z</time>
      </trkpt>
      <trkpt lat="46.523849" lon="11.634163">
        <ele>2033.360</ele>
        <time>2018-09-12T10:52:43Z</time>
      </trkpt>
      <trkpt lat="46.523850" lon="11.634136">
        <ele>2033.896</ele>
        <time>2018-09-12T10:52:44Z</time>
      </trkpt>
      <trkpt lat="46.523872" lon="11.634040">
        <ele>2032.896</ele>
        <time>2018-09-12T10:52:56Z</time>
      </trkpt>
      <trkpt lat="46.523865" lon="11.634037">
        <ele>2033.346</ele>
        <time>2018-09-12T10:53:30Z</time>
      </trkpt>
      <trkpt lat="46.523871" lon="11.634033">
        <ele>2032.849</ele>
        <time>2018-09-12T10:54:02Z</time>
      </trkpt>
      <trkpt lat="46.523868" lon="11.634034">
        <ele>2032.345</ele>
        <time>2018-09-12T10:54:37Z</time>
      </trkpt>
      <trkpt lat="46.523887" lon="11.634019">
        <ele>2032.354</ele>
        <time>2018-09-12T10:54:56Z</time>
      </trkpt>
      <trkpt lat="46.523909" lon="11.634008">
        <ele>2031.856</ele>
        <time>2018-09-12T10:54:57Z</time>
      </trkpt>
      <trkpt lat="46.523935" lon="11.633991">
        <ele>2031.811</ele>
        <time>2018-09-12T10:54:58Z</time>
      </trkpt>
      <trkpt lat="46.523963" lon="11.633962">
        <ele>2031.408</ele>
        <time>2018-09-12T10:54:59Z</time>
      </trkpt>
      <trkpt lat="46.523990" lon="11.633925">
        <ele>2031.469</ele>
        <time>2018-09-12T10:55:00Z</time>
      </trkpt>
      <trkpt lat="46.524017" lon="11.633882">
        <ele>2030.931</ele>
        <time>2018-09-12T10:55:01Z</time>
      </trkpt>
      <trkpt lat="46.524047" lon="11.633836">
        <ele>2030.977</ele>
        <time>2018-09-12T10:55:02Z</time>
      </trkpt>
      <trkpt lat="46.524079" lon="11.633787">
        <ele>2030.493</ele>
        <time>2018-09-12T10:55:03Z</time>
      </trkpt>
      <trkpt lat="46.524114" lon="11.633733">
        <ele>2029.953</ele>
        <time>2018-09-12T10:55:04Z</time>
      </trkpt>
      <trkpt lat="46.524148" lon="11.633677">
        <ele>2029.453</ele>
        <time>2018-09-12T10:55:05Z</time>
      </trkpt>
      <trkpt lat="46.524322" lon="11.633326">
        <ele>2027.046</ele>
        <time>2018-09-12T10:55:10Z</time>
      </trkpt>
      <trkpt lat="46.524538" lon="11.632620">
        <ele>2024.642</ele>
        <time>2018-09-12T10:55:18Z</time>
      </trkpt>
      <trkpt lat="46.524570" lon="11.632552">
        <ele>2024.163</ele>
        <time>2018-09-12T10:55:19Z</time>
      </trkpt>
      <trkpt lat="46.524606" lon="11.632495">
        <ele>2023.744</ele>
        <time>2018-09-12T10:55:20Z</time>
      </trkpt>
      <trkpt lat="46.524650" lon="11.632448">
        <ele>2023.218</ele>
        <time>2018-09-12T10:55:21Z</time>
      </trkpt>
      <trkpt lat="46.524701" lon="11.632415">
        <ele>2022.708</ele>
        <time>2018-09-12T10:55:22Z</time>
      </trkpt>
      <trkpt lat="46.524755" lon="11.632396">
        <ele>2022.780</ele>
        <time>2018-09-12T10:55:23Z</time>
      </trkpt>
      <trkpt lat="46.524806" lon="11.632384">
        <ele>2022.252</ele>
        <time>2018-09-12T10:55:24Z</time>
      </trkpt>
      <trkpt lat="46.525019" lon="11.632308">
        <ele>2020.338</ele>
        <time>2018-09-12T10:55:28Z</time>
      </trkpt>
      <trkpt lat="46.525608" lon="11.631906">
        <ele>2016.934</ele>
        <time>2018-09-12T10:55:38Z</time>
      </trkpt>
      <trkpt lat="46.525646" lon="11.631869">
        <ele>2016.974</ele>
        <time>2018-09-12T10:55:39Z</time>
      </trkpt>
      <trkpt lat="46.525835" lon="11.631672">
        <ele>2015.574</ele>
        <time>2018-09-12T10:55:49Z</time>
      </trkpt>
      <trkpt lat="46.525845" lon="11.631669">
        <ele>2016.527</ele>
        <time>2018-09-12T10:56:12Z</time>
      </trkpt>
      <trkpt lat="46.525860" lon="11.631667">
        <ele>2016.563</ele>
        <time>2018-09-12T10:56:13Z</time>
      </trkpt>
      <trkpt lat="46.525883" lon="11.631667">
        <ele>2016.038</ele>
        <time>2018-09-12T10:56:14Z</time>
      </trkpt>
      <trkpt lat="46.526197" lon="11.631618">
        <ele>2011.270</ele>
        <time>2018-09-12T10:56:22Z</time>
      </trkpt>
      <trkpt lat="46.526266" lon="11.631562">
        <ele>2009.717</ele>
        <time>2018-09-12T10:56:23Z</time>
      </trkpt>
      <trkpt lat="46.526330" lon="11.631474">
        <ele>2008.808</ele>
        <time>2018-09-12T10:56:24Z</time>
      </trkpt>
      <trkpt lat="46.526384" lon="11.631366">
        <ele>2007.817</ele>
        <time>2018-09-12T10:56:25Z</time>
      </trkpt>
      <trkpt lat="46.526428" lon="11.631253">
        <ele>2006.879</ele>
        <time>2018-09-12T10:56:26Z</time>
      </trkpt>
      <trkpt lat="46.526465" lon="11.631148">
        <ele>2006.445</ele>
        <time>2018-09-12T10:56:27Z</time>
      </trkpt>
      <trkpt lat="46.526646" lon="11.630703">
        <ele>2002.581</ele>
        <time>2018-09-12T10:56:34Z</time>
      </trkpt>
      <trkpt lat="46.526665" lon="11.630639">
        <ele>2001.681</ele>
        <time>2018-09-12T10:56:35Z</time>
      </trkpt>
      <trkpt lat="46.526693" lon="11.630573">
        <ele>2001.161</ele>
        <time>2018-09-12T10:56:36Z</time>
      </trkpt>
      <trkpt lat="46.526783" lon="11.630354">
        <ele>1997.784</ele>
        <time>2018-09-12T10:56:42Z</time>
      </trkpt>
      <trkpt lat="46.526782" lon="11.630329">
        <ele>1997.750</ele>
        <time>2018-09-12T10:56:43Z</time>
      </trkpt>
      <trkpt lat="46.526781" lon="11.630303">
        <ele>1997.747</ele>
        <time>2018-09-12T10:56:44Z</time>
      </trkpt>
      <trkpt lat="46.526778" lon="11.630283">
        <ele>1997.729</ele>
        <time>2018-09-12T10:56:45Z</time>
      </trkpt>
      <trkpt lat="46.526726" lon="11.630134">
        <ele>1999.221</ele>
        <time>2018-09-12T10:56:57Z</time>
      </trkpt>
      <trkpt lat="46.526637" lon="11.629861">
        <ele>2000.608</ele>
        <time>2018-09-12T10:57:16Z</time>
      </trkpt>
      <trkpt lat="46.526603" lon="11.629747">
        <ele>2000.638</ele>
        <time>2018-09-12T10:57:25Z</time>
      </trkpt>
      <trkpt lat="46.526617" lon="11.629544">
        <ele>2002.090</ele>
        <time>2018-09-12T10:57:43Z</time>
      </trkpt>
      <trkpt lat="46.526623" lon="11.629531">
        <ele>2001.636</ele>
        <time>2018-09-12T10:57:44Z</time>
      </trkpt>
      <trkpt lat="46.526627" lon="11.629516">
        <ele>2001.642</ele>
        <time>2018-09-12T10:57:45Z</time>
      </trkpt>
      <trkpt lat="46.526641" lon="11.629433">
        <ele>2001.612</ele>
        <time>2018-09-12T10:57:49Z</time>
      </trkpt>
      <trkpt lat="46.526718" lon="11.629054">
        <ele>2001.612</ele>
        <time>2018-09-12T10:58:05Z</time>
      </trkpt>
      <trkpt lat="46.526762" lon="11.628707">
        <ele>2001.155</ele>
        <time>2018-09-12T10:58:20Z</time>
      </trkpt>
      <trkpt lat="46.526807" lon="11.628303">
        <ele>2000.651</ele>
        <time>2018-09-12T10:58:35Z</time>
      </trkpt>
      <trkpt lat="46.526834" lon="11.628181">
        <ele>2000.618</ele>
        <time>2018-09-12T10:58:40Z</time>
      </trkpt>
      <trkpt lat="46.526801" lon="11.628076">
        <ele>2000.198</ele>
        <time>2018-09-12T10:58:54Z</time>
      </trkpt>
      <trkpt lat="46.526799" lon="11.628067">
        <ele>2000.117</ele>
        <time>2018-09-12T10:58:55Z</time>
      </trkpt>
      <trkpt lat="46.527039" lon="11.627735">
        <ele>1996.808</ele>
        <time>2018-09-12T10:59:08Z</time>
      </trkpt>
      <trkpt lat="46.527496" lon="11.627218">
        <ele>1993.925</ele>
        <time>2018-09-12T10:59:19Z</time>
      </trkpt>
      <trkpt lat="46.527840" lon="11.626863">
        <ele>1991.967</ele>
        <time>2018-09-12T10:59:30Z</time>
      </trkpt>
      <trkpt lat="46.528050" lon="11.626691">
        <ele>1989.173</ele>
        <time>2018-09-12T10:59:41Z</time>
      </trkpt>
      <trkpt lat="46.528082" lon="11.626680">
        <ele>1989.129</ele>
        <time>2018-09-12T10:59:43Z</time>
      </trkpt>
      <trkpt lat="46.528098" lon="11.626665">
        <ele>1989.119</ele>
        <time>2018-09-12T10:59:44Z</time>
      </trkpt>
      <trkpt lat="46.528117" lon="11.626656">
        <ele>1989.559</ele>
        <time>2018-09-12T10:59:45Z</time>
      </trkpt>
      <trkpt lat="46.528133" lon="11.626658">
        <ele>1989.522</ele>
        <time>2018-09-12T10:59:46Z</time>
      </trkpt>
      <trkpt lat="46.528160" lon="11.626673">
        <ele>1990.078</ele>
        <time>2018-09-12T10:59:48Z</time>
      </trkpt>
      <trkpt lat="46.528180" lon="11.626698">
        <ele>1991.076</ele>
        <time>2018-09-12T10:59:50Z</time>
      </trkpt>
      <trkpt lat="46.528269" lon="11.626639">
        <ele>1992.490</ele>
        <time>2018-09-12T10:59:58Z</time>
      </trkpt>
      <trkpt lat="46.528497" lon="11.626506">
        <ele>1995.319</ele>
        <time>2018-09-12T11:00:18Z</time>
      </trkpt>
      <trkpt lat="46.528733" lon="11.626371">
        <ele>1996.808</ele>
        <time>2018-09-12T11:00:38Z</time>
      </trkpt>
      <trkpt lat="46.528919" lon="11.626231">
        <ele>1999.261</ele>
        <time>2018-09-12T11:00:55Z</time>
      </trkpt>
      <trkpt lat="46.529092" lon="11.626167">
        <ele>2001.613</ele>
        <time>2018-09-12T11:01:09Z</time>
      </trkpt>
      <trkpt lat="46.529293" lon="11.626023">
        <ele>2003.559</ele>
        <time>2018-09-12T11:01:27Z</time>
      </trkpt>
      <trkpt lat="46.529352" lon="11.625982">
        <ele>2004.015</ele>
        <time>2018-09-12T11:01:32Z</time>
      </trkpt>
      <trkpt lat="46.529438" lon="11.625903">
        <ele>2004.925</ele>
        <time>2018-09-12T11:01:40Z</time>
      </trkpt>
      <trkpt lat="46.529687" lon="11.625713">
        <ele>2004.995</ele>
        <time>2018-09-12T11:01:58Z</time>
      </trkpt>
      <trkpt lat="46.529972" lon="11.625668">
        <ele>2006.848</ele>
        <time>2018-09-12T11:02:17Z</time>
      </trkpt>
      <trkpt lat="46.530162" lon="11.625490">
        <ele>2008.864</ele>
        <time>2018-09-12T11:02:31Z</time>
      </trkpt>
      <trkpt lat="46.530368" lon="11.625326">
        <ele>2011.784</ele>
        <time>2018-09-12T11:02:48Z</time>
      </trkpt>
      <trkpt lat="46.530576" lon="11.625276">
        <ele>2014.107</ele>
        <time>2018-09-12T11:03:05Z</time>
      </trkpt>
      <trkpt lat="46.530691" lon="11.625242">
        <ele>2013.617</ele>
        <time>2018-09-12T11:03:15Z</time>
      </trkpt>
      <trkpt lat="46.530701" lon="11.625161">
        <ele>2015.508</ele>
        <time>2018-09-12T11:05:25Z</time>
      </trkpt>
      <trkpt lat="46.530670" lon="11.625032">
        <ele>2014.592</ele>
        <time>2018-09-12T11:05:39Z</time>
      </trkpt>
      <trkpt lat="46.530680" lon="11.625030">
        <ele>2015.584</ele>
        <time>2018-09-12T11:06:06Z</time>
      </trkpt>
      <trkpt lat="46.530671" lon="11.625009">
        <ele>2015.510</ele>
        <time>2018-09-12T11:06:07Z</time>
      </trkpt>
      <trkpt lat="46.530650" lon="11.624958">
        <ele>2015.076</ele>
        <time>2018-09-12T11:06:09Z</time>
      </trkpt>
      <trkpt lat="46.530634" lon="11.624927">
        <ele>2015.026</ele>
        <time>2018-09-12T11:06:10Z</time>
      </trkpt>
      <trkpt lat="46.530618" lon="11.624894">
        <ele>2014.576</ele>
        <time>2018-09-12T11:06:11Z</time>
      </trkpt>
      <trkpt lat="46.530602" lon="11.624849">
        <ele>2014.169</ele>
        <time>2018-09-12T11:06:12Z</time>
      </trkpt>
      <trkpt lat="46.530587" lon="11.624799">
        <ele>2014.165</ele>
        <time>2018-09-12T11:06:13Z</time>
      </trkpt>
      <trkpt lat="46.530576" lon="11.624746">
        <ele>2013.611</ele>
        <time>2018-09-12T11:06:14Z</time>
      </trkpt>
      <trkpt lat="46.530563" lon="11.624693">
        <ele>2013.621</ele>
        <time>2018-09-12T11:06:15Z</time>
      </trkpt>
      <trkpt lat="46.530548" lon="11.624639">
        <ele>2013.103</ele>
        <time>2018-09-12T11:06:16Z</time>
      </trkpt>
      <trkpt lat="46.530494" lon="11.624478">
        <ele>2011.708</ele>
        <time>2018-09-12T11:06:19Z</time>
      </trkpt>
      <trkpt lat="46.530472" lon="11.624421">
        <ele>2011.745</ele>
        <time>2018-09-12T11:06:20Z</time>
      </trkpt>
      <trkpt lat="46.530372" lon="11.624165">
        <ele>2010.747</ele>
        <time>2018-09-12T11:06:24Z</time>
      </trkpt>
      <trkpt lat="46.530139" lon="11.623414">
        <ele>2011.233</ele>
        <time>2018-09-12T11:06:38Z</time>
      </trkpt>
      <trkpt lat="46.529935" lon="11.622892">
        <ele>2010.799</ele>
        <time>2018-09-12T11:06:53Z</time>
      </trkpt>
      <trkpt lat="46.529539" lon="11.622411">
        <ele>2010.769</ele>
        <time>2018-09-12T11:07:09Z</time>
      </trkpt>
      <trkpt lat="46.529438" lon="11.622264">
        <ele>2010.279</ele>
        <time>2018-09-12T11:07:13Z</time>
      </trkpt>
      <trkpt lat="46.529409" lon="11.622219">
        <ele>2009.742</ele>
        <time>2018-09-12T11:07:14Z</time>
      </trkpt>
      <trkpt lat="46.529285" lon="11.622047">
        <ele>2009.288</ele>
        <time>2018-09-12T11:07:18Z</time>
      </trkpt>
      <trkpt lat="46.529211" lon="11.621968">
        <ele>2009.234</ele>
        <time>2018-09-12T11:07:20Z</time>
      </trkpt>
      <trkpt lat="46.529169" lon="11.621938">
        <ele>2009.255</ele>
        <time>2018-09-12T11:07:21Z</time>
      </trkpt>
      <trkpt lat="46.529127" lon="11.621919">
        <ele>2009.210</ele>
        <time>2018-09-12T11:07:22Z</time>
      </trkpt>
      <trkpt lat="46.529085" lon="11.621910">
        <ele>2009.708</ele>
        <time>2018-09-12T11:07:23Z</time>
      </trkpt>
      <trkpt lat="46.529048" lon="11.621910">
        <ele>2009.737</ele>
        <time>2018-09-12T11:07:24Z</time>
      </trkpt>
      <trkpt lat="46.529015" lon="11.621915">
        <ele>2009.739</ele>
        <time>2018-09-12T11:07:25Z</time>
      </trkpt>
      <trkpt lat="46.528988" lon="11.621920">
        <ele>2010.215</ele>
        <time>2018-09-12T11:07:26Z</time>
      </trkpt>
      <trkpt lat="46.528755" lon="11.621986">
        <ele>2011.751</ele>
        <time>2018-09-12T11:07:39Z</time>
      </trkpt>
      <trkpt lat="46.528411" lon="11.622060">
        <ele>2015.581</ele>
        <time>2018-09-12T11:08:00Z</time>
      </trkpt>
      <trkpt lat="46.528109" lon="11.621953">
        <ele>2018.981</ele>
        <time>2018-09-12T11:08:21Z</time>
      </trkpt>
      <trkpt lat="46.527864" lon="11.621866">
        <ele>2019.844</ele>
        <time>2018-09-12T11:08:37Z</time>
      </trkpt>
      <trkpt lat="46.527582" lon="11.621695">
        <ele>2020.830</ele>
        <time>2018-09-12T11:08:53Z</time>
      </trkpt>
      <trkpt lat="46.527558" lon="11.621337">
        <ele>2022.223</ele>
        <time>2018-09-12T11:09:08Z</time>
      </trkpt>
      <trkpt lat="46.527542" lon="11.621267">
        <ele>2022.783</ele>
        <time>2018-09-12T11:09:11Z</time>
      </trkpt>
      <trkpt lat="46.527543" lon="11.621240">
        <ele>2022.711</ele>
        <time>2018-09-12T11:09:12Z</time>
      </trkpt>
      <trkpt lat="46.527546" lon="11.621215">
        <ele>2022.708</ele>
        <time>2018-09-12T11:09:13Z</time>
      </trkpt>
      <trkpt lat="46.527677" lon="11.620683">
        <ele>2022.796</ele>
        <time>2018-09-12T11:09:30Z</time>
      </trkpt>
      <trkpt lat="46.527762" lon="11.619952">
        <ele>2021.388</ele>
        <time>2018-09-12T11:09:45Z</time>
      </trkpt>
      <trkpt lat="46.527664" lon="11.619559">
        <ele>2019.844</ele>
        <time>2018-09-12T11:09:53Z</time>
      </trkpt>
      <trkpt lat="46.527669" lon="11.619502">
        <ele>2019.880</ele>
        <time>2018-09-12T11:09:54Z</time>
      </trkpt>
      <trkpt lat="46.527678" lon="11.619452">
        <ele>2019.360</ele>
        <time>2018-09-12T11:09:55Z</time>
      </trkpt>
      <trkpt lat="46.527685" lon="11.619409">
        <ele>2019.370</ele>
        <time>2018-09-12T11:09:56Z</time>
      </trkpt>
      <trkpt lat="46.527684" lon="11.619376">
        <ele>2019.363</ele>
        <time>2018-09-12T11:09:57Z</time>
      </trkpt>
      <trkpt lat="46.527677" lon="11.619351">
        <ele>2018.979</ele>
        <time>2018-09-12T11:09:58Z</time>
      </trkpt>
      <trkpt lat="46.527670" lon="11.619334">
        <ele>2018.967</ele>
        <time>2018-09-12T11:09:59Z</time>
      </trkpt>
      <trkpt lat="46.527657" lon="11.619316">
        <ele>2018.481</ele>
        <time>2018-09-12T11:10:02Z</time>
      </trkpt>
      <trkpt lat="46.527643" lon="11.619309">
        <ele>2018.419</ele>
        <time>2018-09-12T11:10:03Z</time>
      </trkpt>
      <trkpt lat="46.527504" lon="11.619241">
        <ele>2017.408</ele>
        <time>2018-09-12T11:10:14Z</time>
      </trkpt>
      <trkpt lat="46.527438" lon="11.619230">
        <ele>2016.910</ele>
        <time>2018-09-12T11:10:36Z</time>
      </trkpt>
      <trkpt lat="46.527045" lon="11.619004">
        <ele>2016.012</ele>
        <time>2018-09-12T11:10:53Z</time>
      </trkpt>
      <trkpt lat="46.526566" lon="11.618684">
        <ele>2015.568</ele>
        <time>2018-09-12T11:11:05Z</time>
      </trkpt>
      <trkpt lat="46.526499" lon="11.618631">
        <ele>2014.134</ele>
        <time>2018-09-12T11:11:07Z</time>
      </trkpt>
      <trkpt lat="46.526460" lon="11.618576">
        <ele>2013.644</ele>
        <time>2018-09-12T11:11:08Z</time>
      </trkpt>
      <trkpt lat="46.525979" lon="11.618017">
        <ele>2012.674</ele>
        <time>2018-09-12T11:11:18Z</time>
      </trkpt>
      <trkpt lat="46.525792" lon="11.617827">
        <ele>2014.567</ele>
        <time>2018-09-12T11:11:28Z</time>
      </trkpt>
      <trkpt lat="46.525662" lon="11.617557">
        <ele>2017.463</ele>
        <time>2018-09-12T11:11:43Z</time>
      </trkpt>
      <trkpt lat="46.525672" lon="11.617343">
        <ele>2017.435</ele>
        <time>2018-09-12T11:11:58Z</time>
      </trkpt>
      <trkpt lat="46.525698" lon="11.617097">
        <ele>2016.586</ele>
        <time>2018-09-12T11:12:21Z</time>
      </trkpt>
      <trkpt lat="46.525754" lon="11.616132">
        <ele>2009.714</ele>
        <time>2018-09-12T11:12:34Z</time>
      </trkpt>
      <trkpt lat="46.525801" lon="11.615722">
        <ele>2005.908</ele>
        <time>2018-09-12T11:12:39Z</time>
      </trkpt>
      <trkpt lat="46.525822" lon="11.615642">
        <ele>2005.427</ele>
        <time>2018-09-12T11:12:40Z</time>
      </trkpt>
      <trkpt lat="46.525866" lon="11.615471">
        <ele>2004.439</ele>
        <time>2018-09-12T11:12:42Z</time>
      </trkpt>
      <trkpt lat="46.525879" lon="11.615389">
        <ele>2004.015</ele>
        <time>2018-09-12T11:12:43Z</time>
      </trkpt>
      <trkpt lat="46.525889" lon="11.615295">
        <ele>2003.511</ele>
        <time>2018-09-12T11:12:44Z</time>
      </trkpt>
      <trkpt lat="46.525940" lon="11.614597">
        <ele>1999.661</ele>
        <time>2018-09-12T11:12:52Z</time>
      </trkpt>
      <trkpt lat="46.525956" lon="11.614517">
        <ele>1998.731</ele>
        <time>2018-09-12T11:12:53Z</time>
      </trkpt>
      <trkpt lat="46.525977" lon="11.614440">
        <ele>1997.744</ele>
        <time>2018-09-12T11:12:54Z</time>
      </trkpt>
      <trkpt lat="46.526098" lon="11.613913">
        <ele>1992.490</ele>
        <time>2018-09-12T11:13:01Z</time>
      </trkpt>
      <trkpt lat="46.526101" lon="11.613829">
        <ele>1991.561</ele>
        <time>2018-09-12T11:13:02Z</time>
      </trkpt>
      <trkpt lat="46.526096" lon="11.613742">
        <ele>1990.521</ele>
        <time>2018-09-12T11:13:03Z</time>
      </trkpt>
      <trkpt lat="46.526086" lon="11.613656">
        <ele>1990.013</ele>
        <time>2018-09-12T11:13:04Z</time>
      </trkpt>
      <trkpt lat="46.526074" lon="11.613573">
        <ele>1989.108</ele>
        <time>2018-09-12T11:13:05Z</time>
      </trkpt>
      <trkpt lat="46.525989" lon="11.612945">
        <ele>1985.290</ele>
        <time>2018-09-12T11:13:12Z</time>
      </trkpt>
      <trkpt lat="46.525943" lon="11.612786">
        <ele>1984.742</ele>
        <time>2018-09-12T11:13:14Z</time>
      </trkpt>
      <trkpt lat="46.525930" lon="11.612706">
        <ele>1984.338</ele>
        <time>2018-09-12T11:13:15Z</time>
      </trkpt>
      <trkpt lat="46.525926" lon="11.612625">
        <ele>1984.384</ele>
        <time>2018-09-12T11:13:16Z</time>
      </trkpt>
      <trkpt lat="46.525927" lon="11.612544">
        <ele>1983.894</ele>
        <time>2018-09-12T11:13:17Z</time>
      </trkpt>
      <trkpt lat="46.525930" lon="11.612466">
        <ele>1983.384</ele>
        <time>2018-09-12T11:13:18Z</time>
      </trkpt>
      <trkpt lat="46.525938" lon="11.612258">
        <ele>1982.397</ele>
        <time>2018-09-12T11:13:21Z</time>
      </trkpt>
      <trkpt lat="46.525899" lon="11.611279">
        <ele>1979.913</ele>
        <time>2018-09-12T11:13:35Z</time>
      </trkpt>
      <trkpt lat="46.525823" lon="11.610923">
        <ele>1976.148</ele>
        <time>2018-09-12T11:13:42Z</time>
      </trkpt>
      <trkpt lat="46.525805" lon="11.610863">
        <ele>1975.161</ele>
        <time>2018-09-12T11:13:43Z</time>
      </trkpt>
      <trkpt lat="46.525790" lon="11.610809">
        <ele>1974.217</ele>
        <time>2018-09-12T11:13:44Z</time>
      </trkpt>
      <trkpt lat="46.525781" lon="11.610747">
        <ele>1973.708</ele>
        <time>2018-09-12T11:13:45Z</time>
      </trkpt>
      <trkpt lat="46.525776" lon="11.610683">
        <ele>1972.748</ele>
        <time>2018-09-12T11:13:46Z</time>
      </trkpt>
      <trkpt lat="46.525774" lon="11.610622">
        <ele>1972.210</ele>
        <time>2018-09-12T11:13:47Z</time>
      </trkpt>
      <trkpt lat="46.525802" lon="11.610333">
        <ele>1968.966</ele>
        <time>2018-09-12T11:13:52Z</time>
      </trkpt>
      <trkpt lat="46.525819" lon="11.610281">
        <ele>1968.482</ele>
        <time>2018-09-12T11:13:53Z</time>
      </trkpt>
      <trkpt lat="46.525842" lon="11.610231">
        <ele>1968.432</ele>
        <time>2018-09-12T11:13:54Z</time>
      </trkpt>
      <trkpt lat="46.525958" lon="11.610019">
        <ele>1966.032</ele>
        <time>2018-09-12T11:13:58Z</time>
      </trkpt>
      <trkpt lat="46.526300" lon="11.609436">
        <ele>1962.625</ele>
        <time>2018-09-12T11:14:11Z</time>
      </trkpt>
      <trkpt lat="46.526327" lon="11.609396">
        <ele>1962.671</ele>
        <time>2018-09-12T11:14:12Z</time>
      </trkpt>
      <trkpt lat="46.526672" lon="11.608834">
        <ele>1957.856</ele>
        <time>2018-09-12T11:14:23Z</time>
      </trkpt>
      <trkpt lat="46.526708" lon="11.608789">
        <ele>1957.359</ele>
        <time>2018-09-12T11:14:24Z</time>
      </trkpt>
      <trkpt lat="46.526746" lon="11.608745">
        <ele>1957.314</ele>
        <time>2018-09-12T11:14:25Z</time>
      </trkpt>
      <trkpt lat="46.526782" lon="11.608691">
        <ele>1956.908</ele>
        <time>2018-09-12T11:14:26Z</time>
      </trkpt>
      <trkpt lat="46.526817" lon="11.608632">
        <ele>1956.939</ele>
        <time>2018-09-12T11:14:27Z</time>
      </trkpt>
      <trkpt lat="46.527314" lon="11.607938">
        <ele>1953.091</ele>
        <time>2018-09-12T11:14:39Z</time>
      </trkpt>
      <trkpt lat="46.527486" lon="11.607609">
        <ele>1952.027</ele>
        <time>2018-09-12T11:14:44Z</time>
      </trkpt>
      <trkpt lat="46.527689" lon="11.607134">
        <ele>1951.133</ele>
        <time>2018-09-12T11:14:51Z</time>
      </trkpt>
      <trkpt lat="46.527730" lon="11.607073">
        <ele>1950.193</ele>
        <time>2018-09-12T11:14:52Z</time>
      </trkpt>
      <trkpt lat="46.527779" lon="11.607014">
        <ele>1949.693</ele>
        <time>2018-09-12T11:14:53Z</time>
      </trkpt>
      <trkpt lat="46.527838" lon="11.606962">
        <ele>1949.236</ele>
        <time>2018-09-12T11:14:54Z</time>
      </trkpt>
      <trkpt lat="46.527899" lon="11.606913">
        <ele>1949.252</ele>
        <time>2018-09-12T11:14:55Z</time>
      </trkpt>
      <trkpt lat="46.528347" lon="11.606455">
        <ele>1949.638</ele>
        <time>2018-09-12T11:15:06Z</time>
      </trkpt>
      <trkpt lat="46.528492" lon="11.606084">
        <ele>1948.770</ele>
        <time>2018-09-12T11:15:14Z</time>
      </trkpt>
      <trkpt lat="46.528507" lon="11.606029">
        <ele>1948.717</ele>
        <time>2018-09-12T11:15:15Z</time>
      </trkpt>
      <trkpt lat="46.528519" lon="11.605973">
        <ele>1948.208</ele>
        <time>2018-09-12T11:15:16Z</time>
      </trkpt>
      <trkpt lat="46.528527" lon="11.605918">
        <ele>1948.227</ele>
        <time>2018-09-12T11:15:17Z</time>
      </trkpt>
      <trkpt lat="46.528531" lon="11.605861">
        <ele>1948.249</ele>
        <time>2018-09-12T11:15:18Z</time>
      </trkpt>
      <trkpt lat="46.528530" lon="11.605803">
        <ele>1947.735</ele>
        <time>2018-09-12T11:15:19Z</time>
      </trkpt>
      <trkpt lat="46.528529" lon="11.605742">
        <ele>1947.791</ele>
        <time>2018-09-12T11:15:20Z</time>
      </trkpt>
      <trkpt lat="46.528533" lon="11.605675">
        <ele>1947.291</ele>
        <time>2018-09-12T11:15:21Z</time>
      </trkpt>
      <trkpt lat="46.528542" lon="11.605602">
        <ele>1946.831</ele>
        <time>2018-09-12T11:15:22Z</time>
      </trkpt>
      <trkpt lat="46.528554" lon="11.605528">
        <ele>1946.354</ele>
        <time>2018-09-12T11:15:23Z</time>
      </trkpt>
      <trkpt lat="46.528561" lon="11.605453">
        <ele>1945.840</ele>
        <time>2018-09-12T11:15:24Z</time>
      </trkpt>
      <trkpt lat="46.528565" lon="11.605378">
        <ele>1945.362</ele>
        <time>2018-09-12T11:15:25Z</time>
      </trkpt>
      <trkpt lat="46.528601" lon="11.604269">
        <ele>1943.983</ele>
        <time>2018-09-12T11:15:39Z</time>
      </trkpt>
      <trkpt lat="46.528667" lon="11.603916">
        <ele>1943.411</ele>
        <time>2018-09-12T11:15:45Z</time>
      </trkpt>
      <trkpt lat="46.528689" lon="11.603867">
        <ele>1942.908</ele>
        <time>2018-09-12T11:15:46Z</time>
      </trkpt>
      <trkpt lat="46.528718" lon="11.603818">
        <ele>1942.440</ele>
        <time>2018-09-12T11:15:47Z</time>
      </trkpt>
      <trkpt lat="46.528784" lon="11.603713">
        <ele>1942.092</ele>
        <time>2018-09-12T11:15:49Z</time>
      </trkpt>
      <trkpt lat="46.528814" lon="11.603649">
        <ele>1942.088</ele>
        <time>2018-09-12T11:15:50Z</time>
      </trkpt>
      <trkpt lat="46.528840" lon="11.603582">
        <ele>1941.514</ele>
        <time>2018-09-12T11:15:51Z</time>
      </trkpt>
      <trkpt lat="46.528903" lon="11.603335">
        <ele>1941.084</ele>
        <time>2018-09-12T11:15:55Z</time>
      </trkpt>
      <trkpt lat="46.528907" lon="11.603275">
        <ele>1940.524</ele>
        <time>2018-09-12T11:15:56Z</time>
      </trkpt>
      <trkpt lat="46.528905" lon="11.603213">
        <ele>1940.097</ele>
        <time>2018-09-12T11:15:57Z</time>
      </trkpt>
      <trkpt lat="46.528899" lon="11.603149">
        <ele>1939.663</ele>
        <time>2018-09-12T11:15:58Z</time>
      </trkpt>
      <trkpt lat="46.528893" lon="11.603079">
        <ele>1939.166</ele>
        <time>2018-09-12T11:15:59Z</time>
      </trkpt>
      <trkpt lat="46.528891" lon="11.603006">
        <ele>1938.629</ele>
        <time>2018-09-12T11:16:00Z</time>
      </trkpt>
      <trkpt lat="46.528897" lon="11.602933">
        <ele>1938.121</ele>
        <time>2018-09-12T11:16:01Z</time>
      </trkpt>
      <trkpt lat="46.528912" lon="11.602856">
        <ele>1937.108</ele>
        <time>2018-09-12T11:16:02Z</time>
      </trkpt>
      <trkpt lat="46.528931" lon="11.602787">
        <ele>1936.760</ele>
        <time>2018-09-12T11:16:03Z</time>
      </trkpt>
      <trkpt lat="46.528953" lon="11.602711">
        <ele>1936.262</ele>
        <time>2018-09-12T11:16:04Z</time>
      </trkpt>
      <trkpt lat="46.529195" lon="11.602041">
        <ele>1927.558</ele>
        <time>2018-09-12T11:16:13Z</time>
      </trkpt>
      <trkpt lat="46.529237" lon="11.601977">
        <ele>1926.684</ele>
        <time>2018-09-12T11:16:14Z</time>
      </trkpt>
      <trkpt lat="46.529289" lon="11.601920">
        <ele>1925.144</ele>
        <time>2018-09-12T11:16:15Z</time>
      </trkpt>
      <trkpt lat="46.529349" lon="11.601891">
        <ele>1924.224</ele>
        <time>2018-09-12T11:16:16Z</time>
      </trkpt>
      <trkpt lat="46.529403" lon="11.601897">
        <ele>1923.747</ele>
        <time>2018-09-12T11:16:17Z</time>
      </trkpt>
      <trkpt lat="46.529455" lon="11.601930">
        <ele>1922.733</ele>
        <time>2018-09-12T11:16:18Z</time>
      </trkpt>
      <trkpt lat="46.529495" lon="11.601972">
        <ele>1922.787</ele>
        <time>2018-09-12T11:16:19Z</time>
      </trkpt>
      <trkpt lat="46.529527" lon="11.602015">
        <ele>1922.242</ele>
        <time>2018-09-12T11:16:20Z</time>
      </trkpt>
      <trkpt lat="46.529740" lon="11.602137">
        <ele>1918.926</ele>
        <time>2018-09-12T11:16:26Z</time>
      </trkpt>
      <trkpt lat="46.529788" lon="11.602138">
        <ele>1917.908</ele>
        <time>2018-09-12T11:16:27Z</time>
      </trkpt>
      <trkpt lat="46.529839" lon="11.602130">
        <ele>1917.012</ele>
        <time>2018-09-12T11:16:28Z</time>
      </trkpt>
      <trkpt lat="46.529894" lon="11.602113">
        <ele>1916.024</ele>
        <time>2018-09-12T11:16:29Z</time>
      </trkpt>
      <trkpt lat="46.529953" lon="11.602087">
        <ele>1915.090</ele>
        <time>2018-09-12T11:16:30Z</time>
      </trkpt>
      <trkpt lat="46.530016" lon="11.602055">
        <ele>1914.656</ele>
        <time>2018-09-12T11:16:31Z</time>
      </trkpt>
      <trkpt lat="46.530852" lon="11.601642">
        <ele>1899.736</ele>
        <time>2018-09-12T11:16:45Z</time>
      </trkpt>
      <trkpt lat="46.531305" lon="11.601418">
        <ele>1892.916</ele>
        <time>2018-09-12T11:16:52Z</time>
      </trkpt>
      <trkpt lat="46.531356" lon="11.601381">
        <ele>1892.089</ele>
        <time>2018-09-12T11:16:53Z</time>
      </trkpt>
      <trkpt lat="46.531400" lon="11.601335">
        <ele>1891.085</ele>
        <time>2018-09-12T11:16:54Z</time>
      </trkpt>
      <trkpt lat="46.531442" lon="11.601276">
        <ele>1890.048</ele>
        <time>2018-09-12T11:16:55Z</time>
      </trkpt>
      <trkpt lat="46.531480" lon="11.601208">
        <ele>1889.161</ele>
        <time>2018-09-12T11:16:56Z</time>
      </trkpt>
      <trkpt lat="46.531507" lon="11.601133">
        <ele>1888.117</ele>
        <time>2018-09-12T11:16:57Z</time>
      </trkpt>
      <trkpt lat="46.531526" lon="11.601049">
        <ele>1887.208</ele>
        <time>2018-09-12T11:16:58Z</time>
      </trkpt>
      <trkpt lat="46.531539" lon="11.600965">
        <ele>1886.298</ele>
        <time>2018-09-12T11:16:59Z</time>
      </trkpt>
      <trkpt lat="46.531549" lon="11.600875">
        <ele>1884.870</ele>
        <time>2018-09-12T11:17:00Z</time>
      </trkpt>
      <trkpt lat="46.531583" lon="11.600613">
        <ele>1880.926</ele>
        <time>2018-09-12T11:17:03Z</time>
      </trkpt>
      <trkpt lat="46.531616" lon="11.600536">
        <ele>1880.032</ele>
        <time>2018-09-12T11:17:04Z</time>
      </trkpt>
      <trkpt lat="46.531659" lon="11.600463">
        <ele>1878.522</ele>
        <time>2018-09-12T11:17:05Z</time>
      </trkpt>
      <trkpt lat="46.531796" lon="11.600271">
        <ele>1875.122</ele>
        <time>2018-09-12T11:17:08Z</time>
      </trkpt>
      <trkpt lat="46.531849" lon="11.600236">
        <ele>1874.225</ele>
        <time>2018-09-12T11:17:09Z</time>
      </trkpt>
      <trkpt lat="46.531908" lon="11.600226">
        <ele>1873.291</ele>
        <time>2018-09-12T11:17:10Z</time>
      </trkpt>
      <trkpt lat="46.531965" lon="11.600240">
        <ele>1871.816</ele>
        <time>2018-09-12T11:17:11Z</time>
      </trkpt>
      <trkpt lat="46.532022" lon="11.600270">
        <ele>1870.876</ele>
        <time>2018-09-12T11:17:12Z</time>
      </trkpt>
      <trkpt lat="46.532073" lon="11.600314">
        <ele>1869.413</ele>
        <time>2018-09-12T11:17:13Z</time>
      </trkpt>
      <trkpt lat="46.532119" lon="11.600371">
        <ele>1868.408</ele>
        <time>2018-09-12T11:17:14Z</time>
      </trkpt>
      <trkpt lat="46.532161" lon="11.600431">
        <ele>1867.015</ele>
        <time>2018-09-12T11:17:15Z</time>
      </trkpt>
      <trkpt lat="46.532542" lon="11.601083">
        <ele>1855.987</ele>
        <time>2018-09-12T11:17:25Z</time>
      </trkpt>
      <trkpt lat="46.532583" lon="11.601119">
        <ele>1855.093</ele>
        <time>2018-09-12T11:17:26Z</time>
      </trkpt>
      <trkpt lat="46.532632" lon="11.601123">
        <ele>1854.529</ele>
        <time>2018-09-12T11:17:27Z</time>
      </trkpt>
      <trkpt lat="46.532672" lon="11.601095">
        <ele>1853.519</ele>
        <time>2018-09-12T11:17:28Z</time>
      </trkpt>
      <trkpt lat="46.532697" lon="11.601038">
        <ele>1853.049</ele>
        <time>2018-09-12T11:17:29Z</time>
      </trkpt>
      <trkpt lat="46.532704" lon="11.600966">
        <ele>1853.042</ele>
        <time>2018-09-12T11:17:30Z</time>
      </trkpt>
      <trkpt lat="46.532701" lon="11.600891">
        <ele>1852.158</ele>
        <time>2018-09-12T11:17:31Z</time>
      </trkpt>
      <trkpt lat="46.532703" lon="11.600816">
        <ele>1851.167</ele>
        <time>2018-09-12T11:17:32Z</time>
      </trkpt>
      <trkpt lat="46.532716" lon="11.600745">
        <ele>1850.681</ele>
        <time>2018-09-12T11:17:33Z</time>
      </trkpt>
      <trkpt lat="46.532747" lon="11.600690">
        <ele>1849.719</ele>
        <time>2018-09-12T11:17:34Z</time>
      </trkpt>
      <trkpt lat="46.532791" lon="11.600659">
        <ele>1848.708</ele>
        <time>2018-09-12T11:17:35Z</time>
      </trkpt>
      <trkpt lat="46.532840" lon="11.600662">
        <ele>1847.370</ele>
        <time>2018-09-12T11:17:36Z</time>
      </trkpt>
      <trkpt lat="46.532888" lon="11.600692">
        <ele>1846.392</ele>
        <time>2018-09-12T11:17:37Z</time>
      </trkpt>
      <trkpt lat="46.532933" lon="11.600739">
        <ele>1845.378</ele>
        <time>2018-09-12T11:17:38Z</time>
      </trkpt>
      <trkpt lat="46.532976" lon="11.600788">
        <ele>1844.474</ele>
        <time>2018-09-12T11:17:39Z</time>
      </trkpt>
      <trkpt lat="46.533387" lon="11.601123">
        <ele>1835.734</ele>
        <time>2018-09-12T11:17:47Z</time>
      </trkpt>
      <trkpt lat="46.533446" lon="11.601144">
        <ele>1834.824</ele>
        <time>2018-09-12T11:17:48Z</time>
      </trkpt>
      <trkpt lat="46.533507" lon="11.601156">
        <ele>1833.817</ele>
        <time>2018-09-12T11:17:49Z</time>
      </trkpt>
      <trkpt lat="46.533569" lon="11.601158">
        <ele>1832.483</ele>
        <time>2018-09-12T11:17:50Z</time>
      </trkpt>
      <trkpt lat="46.533632" lon="11.601154">
        <ele>1831.446</ele>
        <time>2018-09-12T11:17:51Z</time>
      </trkpt>
      <trkpt lat="46.533696" lon="11.601147">
        <ele>1830.488</ele>
        <time>2018-09-12T11:17:52Z</time>
      </trkpt>
      <trkpt lat="46.534119" lon="11.601059">
        <ele>1823.216</ele>
        <time>2018-09-12T11:17:59Z</time>
      </trkpt>
      <trkpt lat="46.534180" lon="11.601065">
        <ele>1821.808</ele>
        <time>2018-09-12T11:18:00Z</time>
      </trkpt>
      <trkpt lat="46.534240" lon="11.601081">
        <ele>1820.818</ele>
        <time>2018-09-12T11:18:01Z</time>
      </trkpt>
      <trkpt lat="46.534301" lon="11.601107">
        <ele>1819.980</ele>
        <time>2018-09-12T11:18:02Z</time>
      </trkpt>
      <trkpt lat="46.534358" lon="11.601140">
        <ele>1818.496</ele>
        <time>2018-09-12T11:18:03Z</time>
      </trkpt>
      <trkpt lat="46.534413" lon="11.601177">
        <ele>1817.582</ele>
        <time>2018-09-12T11:18:04Z</time>
      </trkpt>
      <trkpt lat="46.534756" lon="11.601474">
        <ele>1808.892</ele>
        <time>2018-09-12T11:18:11Z</time>
      </trkpt>
      <trkpt lat="46.534787" lon="11.601542">
        <ele>1807.972</ele>
        <time>2018-09-12T11:18:12Z</time>
      </trkpt>
      <trkpt lat="46.534804" lon="11.601613">
        <ele>1806.945</ele>
        <time>2018-09-12T11:18:13Z</time>
      </trkpt>
      <trkpt lat="46.534804" lon="11.601690">
        <ele>1805.951</ele>
        <time>2018-09-12T11:18:14Z</time>
      </trkpt>
      <trkpt lat="46.534786" lon="11.601761">
        <ele>1805.472</ele>
        <time>2018-09-12T11:18:15Z</time>
      </trkpt>
      <trkpt lat="46.534759" lon="11.601827">
        <ele>1804.513</ele>
        <time>2018-09-12T11:18:16Z</time>
      </trkpt>
      <trkpt lat="46.534735" lon="11.601889">
        <ele>1803.514</ele>
        <time>2018-09-12T11:18:17Z</time>
      </trkpt>
      <trkpt lat="46.534716" lon="11.601957">
        <ele>1802.608</ele>
        <time>2018-09-12T11:18:18Z</time>
      </trkpt>
      <trkpt lat="46.534707" lon="11.602035">
        <ele>1801.671</ele>
        <time>2018-09-12T11:18:19Z</time>
      </trkpt>
      <trkpt lat="46.534708" lon="11.602114">
        <ele>1801.143</ele>
        <time>2018-09-12T11:18:20Z</time>
      </trkpt>
      <trkpt lat="46.534721" lon="11.602189">
        <ele>1800.279</ele>
        <time>2018-09-12T11:18:21Z</time>
      </trkpt>
      <trkpt lat="46.534746" lon="11.602257">
        <ele>1799.755</ele>
        <time>2018-09-12T11:18:22Z</time>
      </trkpt>
      <trkpt lat="46.534776" lon="11.602321">
        <ele>1798.795</ele>
        <time>2018-09-12T11:18:23Z</time>
      </trkpt>
      <trkpt lat="46.534859" lon="11.602534">
        <ele>1794.995</ele>
        <time>2018-09-12T11:18:26Z</time>
      </trkpt>
      <trkpt lat="46.534930" lon="11.602767">
        <ele>1790.548</ele>
        <time>2018-09-12T11:18:29Z</time>
      </trkpt>
      <trkpt lat="46.534964" lon="11.602837">
        <ele>1789.644</ele>
        <time>2018-09-12T11:18:30Z</time>
      </trkpt>
      <trkpt lat="46.535431" lon="11.603575">
        <ele>1777.612</ele>
        <time>2018-09-12T11:18:42Z</time>
      </trkpt>
      <trkpt lat="46.535488" lon="11.603614">
        <ele>1776.132</ele>
        <time>2018-09-12T11:18:43Z</time>
      </trkpt>
      <trkpt lat="46.535548" lon="11.603646">
        <ele>1774.705</ele>
        <time>2018-09-12T11:18:44Z</time>
      </trkpt>
      <trkpt lat="46.535610" lon="11.603671">
        <ele>1773.708</ele>
        <time>2018-09-12T11:18:45Z</time>
      </trkpt>
      <trkpt lat="46.535674" lon="11.603694">
        <ele>1772.395</ele>
        <time>2018-09-12T11:18:46Z</time>
      </trkpt>
      <trkpt lat="46.536152" lon="11.603932">
        <ele>1764.667</ele>
        <time>2018-09-12T11:18:54Z</time>
      </trkpt>
      <trkpt lat="46.536208" lon="11.603931">
        <ele>1763.643</ele>
        <time>2018-09-12T11:18:55Z</time>
      </trkpt>
      <trkpt lat="46.536264" lon="11.603903">
        <ele>1762.799</ele>
        <time>2018-09-12T11:18:56Z</time>
      </trkpt>
      <trkpt lat="46.536306" lon="11.603858">
        <ele>1761.789</ele>
        <time>2018-09-12T11:18:57Z</time>
      </trkpt>
      <trkpt lat="46.536343" lon="11.603795">
        <ele>1760.739</ele>
        <time>2018-09-12T11:18:58Z</time>
      </trkpt>
      <trkpt lat="46.536366" lon="11.603721">
        <ele>1759.852</ele>
        <time>2018-09-12T11:18:59Z</time>
      </trkpt>
      <trkpt lat="46.536381" lon="11.603639">
        <ele>1758.378</ele>
        <time>2018-09-12T11:19:00Z</time>
      </trkpt>
      <trkpt lat="46.536392" lon="11.603557">
        <ele>1757.483</ele>
        <time>2018-09-12T11:19:01Z</time>
      </trkpt>
      <trkpt lat="46.536403" lon="11.603467">
        <ele>1755.925</ele>
        <time>2018-09-12T11:19:02Z</time>
      </trkpt>
      <trkpt lat="46.536417" lon="11.603378">
        <ele>1755.017</ele>
        <time>2018-09-12T11:19:03Z</time>
      </trkpt>
      <trkpt lat="46.536448" lon="11.603132">
        <ele>1752.108</ele>
        <time>2018-09-12T11:19:06Z</time>
      </trkpt>
      <trkpt lat="46.536474" lon="11.603071">
        <ele>1751.172</ele>
        <time>2018-09-12T11:19:07Z</time>
      </trkpt>
      <trkpt lat="46.536516" lon="11.603037">
        <ele>1750.724</ele>
        <time>2018-09-12T11:19:08Z</time>
      </trkpt>
      <trkpt lat="46.536565" lon="11.603046">
        <ele>1749.710</ele>
        <time>2018-09-12T11:19:09Z</time>
      </trkpt>
      <trkpt lat="46.536612" lon="11.603085">
        <ele>1748.766</ele>
        <time>2018-09-12T11:19:10Z</time>
      </trkpt>
      <trkpt lat="46.536656" lon="11.603136">
        <ele>1747.836</ele>
        <time>2018-09-12T11:19:11Z</time>
      </trkpt>
      <trkpt lat="46.537021" lon="11.603530">
        <ele>1739.626</ele>
        <time>2018-09-12T11:19:19Z</time>
      </trkpt>
      <trkpt lat="46.537057" lon="11.603592">
        <ele>1738.649</ele>
        <time>2018-09-12T11:19:20Z</time>
      </trkpt>
      <trkpt lat="46.537081" lon="11.603659">
        <ele>1737.795</ele>
        <time>2018-09-12T11:19:21Z</time>
      </trkpt>
      <trkpt lat="46.537097" lon="11.603730">
        <ele>1736.792</ele>
        <time>2018-09-12T11:19:22Z</time>
      </trkpt>
      <trkpt lat="46.537114" lon="11.603803">
        <ele>1735.873</ele>
        <time>2018-09-12T11:19:23Z</time>
      </trkpt>
      <trkpt lat="46.537237" lon="11.604462">
        <ele>1727.120</ele>
        <time>2018-09-12T11:19:32Z</time>
      </trkpt>
      <trkpt lat="46.537264" lon="11.604523">
        <ele>1726.608</ele>
        <time>2018-09-12T11:19:33Z</time>
      </trkpt>
      <trkpt lat="46.537301" lon="11.604576">
        <ele>1725.743</ele>
        <time>2018-09-12T11:19:34Z</time>
      </trkpt>
      <trkpt lat="46.537411" lon="11.604731">
        <ele>1723.355</ele>
        <time>2018-09-12T11:19:37Z</time>
      </trkpt>
      <trkpt lat="46.537440" lon="11.604793">
        <ele>1722.381</ele>
        <time>2018-09-12T11:19:38Z</time>
      </trkpt>
      <trkpt lat="46.537495" lon="11.604914">
        <ele>1720.417</ele>
        <time>2018-09-12T11:19:40Z</time>
      </trkpt>
      <trkpt lat="46.537535" lon="11.604961">
        <ele>1719.917</ele>
        <time>2018-09-12T11:19:41Z</time>
      </trkpt>
      <trkpt lat="46.537585" lon="11.604995">
        <ele>1719.417</ele>
        <time>2018-09-12T11:19:42Z</time>
      </trkpt>
      <trkpt lat="46.537640" lon="11.605014">
        <ele>1718.990</ele>
        <time>2018-09-12T11:19:43Z</time>
      </trkpt>
      <trkpt lat="46.537694" lon="11.605022">
        <ele>1718.476</ele>
        <time>2018-09-12T11:19:44Z</time>
      </trkpt>
      <trkpt lat="46.537746" lon="11.605025">
        <ele>1718.089</ele>
        <time>2018-09-12T11:19:45Z</time>
      </trkpt>
      <trkpt lat="46.537799" lon="11.605018">
        <ele>1717.506</ele>
        <time>2018-09-12T11:19:46Z</time>
      </trkpt>
      <trkpt lat="46.537850" lon="11.605003">
        <ele>1717.526</ele>
        <time>2018-09-12T11:19:47Z</time>
      </trkpt>
      <trkpt lat="46.537897" lon="11.604981">
        <ele>1717.008</ele>
        <time>2018-09-12T11:19:48Z</time>
      </trkpt>
      <trkpt lat="46.537941" lon="11.604954">
        <ele>1717.092</ele>
        <time>2018-09-12T11:19:49Z</time>
      </trkpt>
      <trkpt lat="46.537980" lon="11.604920">
        <ele>1717.084</ele>
        <time>2018-09-12T11:19:50Z</time>
      </trkpt>
      <trkpt lat="46.538015" lon="11.604880">
        <ele>1716.580</ele>
        <time>2018-09-12T11:19:51Z</time>
      </trkpt>
      <trkpt lat="46.538045" lon="11.604834">
        <ele>1716.536</ele>
        <time>2018-09-12T11:19:52Z</time>
      </trkpt>
      <trkpt lat="46.538069" lon="11.604785">
        <ele>1716.076</ele>
        <time>2018-09-12T11:19:53Z</time>
      </trkpt>
      <trkpt lat="46.538090" lon="11.604733">
        <ele>1716.076</ele>
        <time>2018-09-12T11:19:54Z</time>
      </trkpt>
      <trkpt lat="46.538256" lon="11.604340">
        <ele>1714.159</ele>
        <time>2018-09-12T11:20:01Z</time>
      </trkpt>
      <trkpt lat="46.538261" lon="11.604268">
        <ele>1713.685</ele>
        <time>2018-09-12T11:20:02Z</time>
      </trkpt>
      <trkpt lat="46.538254" lon="11.604191">
        <ele>1713.216</ele>
        <time>2018-09-12T11:20:03Z</time>
      </trkpt>
      <trkpt lat="46.538254" lon="11.604135">
        <ele>1712.776</ele>
        <time>2018-09-12T11:20:04Z</time>
      </trkpt>
      <trkpt lat="46.538265" lon="11.604064">
        <ele>1712.213</ele>
        <time>2018-09-12T11:20:05Z</time>
      </trkpt>
      <trkpt lat="46.538285" lon="11.603993">
        <ele>1712.208</ele>
        <time>2018-09-12T11:20:06Z</time>
      </trkpt>
      <trkpt lat="46.538312" lon="11.603918">
        <ele>1711.795</ele>
        <time>2018-09-12T11:20:07Z</time>
      </trkpt>
      <trkpt lat="46.538340" lon="11.603844">
        <ele>1711.227</ele>
        <time>2018-09-12T11:20:08Z</time>
      </trkpt>
      <trkpt lat="46.538574" lon="11.603331">
        <ele>1707.973</ele>
        <time>2018-09-12T11:20:14Z</time>
      </trkpt>
      <trkpt lat="46.538610" lon="11.603240">
        <ele>1707.459</ele>
        <time>2018-09-12T11:20:15Z</time>
      </trkpt>
      <trkpt lat="46.538651" lon="11.603156">
        <ele>1706.929</ele>
        <time>2018-09-12T11:20:16Z</time>
      </trkpt>
      <trkpt lat="46.538734" lon="11.602989">
        <ele>1705.549</ele>
        <time>2018-09-12T11:20:18Z</time>
      </trkpt>
      <trkpt lat="46.538767" lon="11.602896">
        <ele>1704.522</ele>
        <time>2018-09-12T11:20:19Z</time>
      </trkpt>
      <trkpt lat="46.538792" lon="11.602792">
        <ele>1704.028</ele>
        <time>2018-09-12T11:20:20Z</time>
      </trkpt>
      <trkpt lat="46.538805" lon="11.602687">
        <ele>1703.531</ele>
        <time>2018-09-12T11:20:21Z</time>
      </trkpt>
      <trkpt lat="46.538808" lon="11.602577">
        <ele>1703.161</ele>
        <time>2018-09-12T11:20:22Z</time>
      </trkpt>
      <trkpt lat="46.538803" lon="11.602475">
        <ele>1702.607</ele>
        <time>2018-09-12T11:20:23Z</time>
      </trkpt>
      <trkpt lat="46.538789" lon="11.602370">
        <ele>1702.108</ele>
        <time>2018-09-12T11:20:24Z</time>
      </trkpt>
      <trkpt lat="46.538768" lon="11.602274">
        <ele>1701.697</ele>
        <time>2018-09-12T11:20:25Z</time>
      </trkpt>
      <trkpt lat="46.538737" lon="11.602179">
        <ele>1701.129</ele>
        <time>2018-09-12T11:20:26Z</time>
      </trkpt>
      <trkpt lat="46.538698" lon="11.602097">
        <ele>1700.715</ele>
        <time>2018-09-12T11:20:27Z</time>
      </trkpt>
      <trkpt lat="46.538723" lon="11.602139">
        <ele>1703.131</ele>
        <time>2018-09-12T11:21:32Z</time>
      </trkpt>
      <trkpt lat="46.538737" lon="11.602132">
        <ele>1703.161</ele>
        <time>2018-09-12T11:21:33Z</time>
      </trkpt>
      <trkpt lat="46.538749" lon="11.602121">
        <ele>1703.141</ele>
        <time>2018-09-12T11:21:34Z</time>
      </trkpt>
      <trkpt lat="46.538755" lon="11.602101">
        <ele>1703.554</ele>
        <time>2018-09-12T11:21:35Z</time>
      </trkpt>
      <trkpt lat="46.538753" lon="11.602077">
        <ele>1703.540</ele>
        <time>2018-09-12T11:21:36Z</time>
      </trkpt>
      <trkpt lat="46.538742" lon="11.602059">
        <ele>1703.514</ele>
        <time>2018-09-12T11:21:37Z</time>
      </trkpt>
      <trkpt lat="46.538727" lon="11.602048">
        <ele>1703.554</ele>
        <time>2018-09-12T11:21:38Z</time>
      </trkpt>
      <trkpt lat="46.538709" lon="11.602035">
        <ele>1704.009</ele>
        <time>2018-09-12T11:21:39Z</time>
      </trkpt>
      <trkpt lat="46.538694" lon="11.602019">
        <ele>1704.008</ele>
        <time>2018-09-12T11:21:40Z</time>
      </trkpt>
      <trkpt lat="46.538680" lon="11.602000">
        <ele>1704.085</ele>
        <time>2018-09-12T11:21:41Z</time>
      </trkpt>
      <trkpt lat="46.538666" lon="11.601981">
        <ele>1704.017</ele>
        <time>2018-09-12T11:21:42Z</time>
      </trkpt>
      <trkpt lat="46.538651" lon="11.601960">
        <ele>1704.083</ele>
        <time>2018-09-12T11:21:43Z</time>
      </trkpt>
      <trkpt lat="46.538540" lon="11.601457">
        <ele>1703.119</ele>
        <time>2018-09-12T11:21:58Z</time>
      </trkpt>
      <trkpt lat="46.538569" lon="11.601231">
        <ele>1702.149</ele>
        <time>2018-09-12T11:22:04Z</time>
      </trkpt>
      <trkpt lat="46.538588" lon="11.601200">
        <ele>1701.679</ele>
        <time>2018-09-12T11:22:05Z</time>
      </trkpt>
      <trkpt lat="46.538611" lon="11.601168">
        <ele>1701.112</ele>
        <time>2018-09-12T11:22:06Z</time>
      </trkpt>
      <trkpt lat="46.538825" lon="11.600970">
        <ele>1698.798</ele>
        <time>2018-09-12T11:22:16Z</time>
      </trkpt>
      <trkpt lat="46.538814" lon="11.600938">
        <ele>1698.319</ele>
        <time>2018-09-12T11:22:35Z</time>
      </trkpt>
      <trkpt lat="46.538824" lon="11.600910">
        <ele>1702.109</ele>
        <time>2018-09-12T11:22:53Z</time>
      </trkpt>
      <trkpt lat="46.538837" lon="11.600899">
        <ele>1701.619</ele>
        <time>2018-09-12T11:22:54Z</time>
      </trkpt>
      <trkpt lat="46.538849" lon="11.600887">
        <ele>1701.608</ele>
        <time>2018-09-12T11:22:55Z</time>
      </trkpt>
      <trkpt lat="46.538858" lon="11.600872">
        <ele>1701.125</ele>
        <time>2018-09-12T11:22:56Z</time>
      </trkpt>
      <trkpt lat="46.538870" lon="11.600855">
        <ele>1701.657</ele>
        <time>2018-09-12T11:22:57Z</time>
      </trkpt>
      <trkpt lat="46.538886" lon="11.600833">
        <ele>1701.673</ele>
        <time>2018-09-12T11:22:58Z</time>
      </trkpt>
      <trkpt lat="46.538903" lon="11.600808">
        <ele>1701.629</ele>
        <time>2018-09-12T11:22:59Z</time>
      </trkpt>
      <trkpt lat="46.538920" lon="11.600780">
        <ele>1701.129</ele>
        <time>2018-09-12T11:23:00Z</time>
      </trkpt>
      <trkpt lat="46.538942" lon="11.600749">
        <ele>1701.189</ele>
        <time>2018-09-12T11:23:01Z</time>
      </trkpt>
      <trkpt lat="46.538966" lon="11.600719">
        <ele>1701.142</ele>
        <time>2018-09-12T11:23:02Z</time>
      </trkpt>
      <trkpt lat="46.539169" lon="11.600557">
        <ele>1699.798</ele>
        <time>2018-09-12T11:23:08Z</time>
      </trkpt>
      <trkpt lat="46.539211" lon="11.600539">
        <ele>1699.268</ele>
        <time>2018-09-12T11:23:09Z</time>
      </trkpt>
      <trkpt lat="46.539252" lon="11.600530">
        <ele>1699.242</ele>
        <time>2018-09-12T11:23:10Z</time>
      </trkpt>
      <trkpt lat="46.539374" lon="11.600495">
        <ele>1698.726</ele>
        <time>2018-09-12T11:23:13Z</time>
      </trkpt>
      <trkpt lat="46.539588" lon="11.600353">
        <ele>1698.308</ele>
        <time>2018-09-12T11:23:18Z</time>
      </trkpt>
      <trkpt lat="46.539628" lon="11.600316">
        <ele>1698.370</ele>
        <time>2018-09-12T11:23:19Z</time>
      </trkpt>
      <trkpt lat="46.539668" lon="11.600278">
        <ele>1697.892</ele>
        <time>2018-09-12T11:23:20Z</time>
      </trkpt>
      <trkpt lat="46.539707" lon="11.600236">
        <ele>1697.818</ele>
        <time>2018-09-12T11:23:21Z</time>
      </trkpt>
      <trkpt lat="46.539737" lon="11.600186">
        <ele>1697.824</ele>
        <time>2018-09-12T11:23:22Z</time>
      </trkpt>
      <trkpt lat="46.539759" lon="11.600135">
        <ele>1697.864</ele>
        <time>2018-09-12T11:23:23Z</time>
      </trkpt>
      <trkpt lat="46.540027" lon="11.599688">
        <ele>1694.964</ele>
        <time>2018-09-12T11:23:33Z</time>
      </trkpt>
      <trkpt lat="46.540055" lon="11.599636">
        <ele>1694.497</ele>
        <time>2018-09-12T11:23:34Z</time>
      </trkpt>
      <trkpt lat="46.540133" lon="11.599481">
        <ele>1693.093</ele>
        <time>2018-09-12T11:23:37Z</time>
      </trkpt>
      <trkpt lat="46.540163" lon="11.599433">
        <ele>1692.527</ele>
        <time>2018-09-12T11:23:38Z</time>
      </trkpt>
      <trkpt lat="46.540193" lon="11.599388">
        <ele>1692.068</ele>
        <time>2018-09-12T11:23:39Z</time>
      </trkpt>
      <trkpt lat="46.540344" lon="11.599137">
        <ele>1689.614</ele>
        <time>2018-09-12T11:23:44Z</time>
      </trkpt>
      <trkpt lat="46.540381" lon="11.599093">
        <ele>1689.108</ele>
        <time>2018-09-12T11:23:45Z</time>
      </trkpt>
      <trkpt lat="46.540415" lon="11.599046">
        <ele>1688.626</ele>
        <time>2018-09-12T11:23:46Z</time>
      </trkpt>
      <trkpt lat="46.540543" lon="11.598809">
        <ele>1686.748</ele>
        <time>2018-09-12T11:23:50Z</time>
      </trkpt>
      <trkpt lat="46.540567" lon="11.598740">
        <ele>1686.714</ele>
        <time>2018-09-12T11:23:51Z</time>
      </trkpt>
      <trkpt lat="46.540620" lon="11.598529">
        <ele>1685.320</ele>
        <time>2018-09-12T11:23:54Z</time>
      </trkpt>
      <trkpt lat="46.540632" lon="11.598466">
        <ele>1684.820</ele>
        <time>2018-09-12T11:23:55Z</time>
      </trkpt>
      <trkpt lat="46.540644" lon="11.598409">
        <ele>1684.350</ele>
        <time>2018-09-12T11:23:56Z</time>
      </trkpt>
      <trkpt lat="46.540651" lon="11.598352">
        <ele>1683.893</ele>
        <time>2018-09-12T11:23:57Z</time>
      </trkpt>
      <trkpt lat="46.540650" lon="11.598297">
        <ele>1683.459</ele>
        <time>2018-09-12T11:23:58Z</time>
      </trkpt>
      <trkpt lat="46.540651" lon="11.598241">
        <ele>1682.955</ele>
        <time>2018-09-12T11:23:59Z</time>
      </trkpt>
      <trkpt lat="46.540655" lon="11.598179">
        <ele>1682.907</ele>
        <time>2018-09-12T11:24:00Z</time>
      </trkpt>
      <trkpt lat="46.540624" lon="11.597586">
        <ele>1680.017</ele>
        <time>2018-09-12T11:24:12Z</time>
      </trkpt>
      <trkpt lat="46.540485" lon="11.597047">
        <ele>1674.708</ele>
        <time>2018-09-12T11:24:24Z</time>
      </trkpt>
      <trkpt lat="46.540669" lon="11.596391">
        <ele>1670.959</ele>
        <time>2018-09-12T11:24:36Z</time>
      </trkpt>
      <trkpt lat="46.540683" lon="11.596337">
        <ele>1670.951</ele>
        <time>2018-09-12T11:24:37Z</time>
      </trkpt>
      <trkpt lat="46.540765" lon="11.595981">
        <ele>1668.527</ele>
        <time>2018-09-12T11:24:43Z</time>
      </trkpt>
      <trkpt lat="46.540916" lon="11.595353">
        <ele>1662.243</ele>
        <time>2018-09-12T11:24:55Z</time>
      </trkpt>
      <trkpt lat="46.541010" lon="11.594890">
        <ele>1657.463</ele>
        <time>2018-09-12T11:25:05Z</time>
      </trkpt>
      <trkpt lat="46.541113" lon="11.594334">
        <ele>1647.373</ele>
        <time>2018-09-12T11:25:17Z</time>
      </trkpt>
      <trkpt lat="46.541226" lon="11.593650">
        <ele>1639.636</ele>
        <time>2018-09-12T11:25:31Z</time>
      </trkpt>
      <trkpt lat="46.541271" lon="11.593092">
        <ele>1633.992</ele>
        <time>2018-09-12T11:25:42Z</time>
      </trkpt>
      <trkpt lat="46.541283" lon="11.593029">
        <ele>1633.428</ele>
        <time>2018-09-12T11:25:43Z</time>
      </trkpt>
      <trkpt lat="46.541295" lon="11.592968">
        <ele>1632.989</ele>
        <time>2018-09-12T11:25:44Z</time>
      </trkpt>
      <trkpt lat="46.541564" lon="11.592453">
        <ele>1627.117</ele>
        <time>2018-09-12T11:25:56Z</time>
      </trkpt>
      <trkpt lat="46.541773" lon="11.591996">
        <ele>1621.408</ele>
        <time>2018-09-12T11:26:07Z</time>
      </trkpt>
      <trkpt lat="46.541844" lon="11.591521">
        <ele>1615.626</ele>
        <time>2018-09-12T11:26:17Z</time>
      </trkpt>
      <trkpt lat="46.541865" lon="11.591146">
        <ele>1612.768</ele>
        <time>2018-09-12T11:26:24Z</time>
      </trkpt>
      <trkpt lat="46.541836" lon="11.591122">
        <ele>1613.284</ele>
        <time>2018-09-12T11:26:25Z</time>
      </trkpt>
      <trkpt lat="46.541802" lon="11.591116">
        <ele>1613.260</ele>
        <time>2018-09-12T11:26:26Z</time>
      </trkpt>
      <trkpt lat="46.541766" lon="11.591125">
        <ele>1613.260</ele>
        <time>2018-09-12T11:26:27Z</time>
      </trkpt>
      <trkpt lat="46.541733" lon="11.591149">
        <ele>1613.220</ele>
        <time>2018-09-12T11:26:28Z</time>
      </trkpt>
      <trkpt lat="46.541709" lon="11.591183">
        <ele>1613.213</ele>
        <time>2018-09-12T11:26:29Z</time>
      </trkpt>
      <trkpt lat="46.541694" lon="11.591222">
        <ele>1613.299</ele>
        <time>2018-09-12T11:26:30Z</time>
      </trkpt>
      <trkpt lat="46.541686" lon="11.591266">
        <ele>1613.265</ele>
        <time>2018-09-12T11:26:31Z</time>
      </trkpt>
      <trkpt lat="46.541677" lon="11.591312">
        <ele>1613.268</ele>
        <time>2018-09-12T11:26:32Z</time>
      </trkpt>
      <trkpt lat="46.541663" lon="11.591358">
        <ele>1612.714</ele>
        <time>2018-09-12T11:26:33Z</time>
      </trkpt>
      <trkpt lat="46.541433" lon="11.591682">
        <ele>1609.808</ele>
        <time>2018-09-12T11:26:45Z</time>
      </trkpt>
      <trkpt lat="46.541414" lon="11.591691">
        <ele>1609.370</ele>
        <time>2018-09-12T11:26:46Z</time>
      </trkpt>
      <trkpt lat="46.541397" lon="11.591682">
        <ele>1609.882</ele>
        <time>2018-09-12T11:26:47Z</time>
      </trkpt>
      <trkpt lat="46.541386" lon="11.591665">
        <ele>1609.838</ele>
        <time>2018-09-12T11:26:48Z</time>
      </trkpt>
      <trkpt lat="46.541380" lon="11.591639">
        <ele>1609.894</ele>
        <time>2018-09-12T11:26:49Z</time>
      </trkpt>
      <trkpt lat="46.541380" lon="11.591614">
        <ele>1609.894</ele>
        <time>2018-09-12T11:26:50Z</time>
      </trkpt>
      <trkpt lat="46.541390" lon="11.591591">
        <ele>1610.334</ele>
        <time>2018-09-12T11:26:51Z</time>
      </trkpt>
      <trkpt lat="46.541411" lon="11.591569">
        <ele>1609.827</ele>
        <time>2018-09-12T11:26:52Z</time>
      </trkpt>
      <trkpt lat="46.541437" lon="11.591549">
        <ele>1609.843</ele>
        <time>2018-09-12T11:26:53Z</time>
      </trkpt>
      <trkpt lat="46.541464" lon="11.591541">
        <ele>1614.113</ele>
        <time>2018-09-12T11:27:54Z</time>
      </trkpt>
      <trkpt lat="46.541475" lon="11.591509">
        <ele>1614.143</ele>
        <time>2018-09-12T11:27:55Z</time>
      </trkpt>
      <trkpt lat="46.541485" lon="11.591474">
        <ele>1613.707</ele>
        <time>2018-09-12T11:27:56Z</time>
      </trkpt>
      <trkpt lat="46.541493" lon="11.591199">
        <ele>1612.708</ele>
        <time>2018-09-12T11:28:02Z</time>
      </trkpt>
      <trkpt lat="46.541473" lon="11.591147">
        <ele>1612.225</ele>
        <time>2018-09-12T11:28:03Z</time>
      </trkpt>
      <trkpt lat="46.541442" lon="11.591100">
        <ele>1612.227</ele>
        <time>2018-09-12T11:28:04Z</time>
      </trkpt>
      <trkpt lat="46.541403" lon="11.591060">
        <ele>1612.273</ele>
        <time>2018-09-12T11:28:05Z</time>
      </trkpt>
      <trkpt lat="46.541360" lon="11.591034">
        <ele>1611.799</ele>
        <time>2018-09-12T11:28:06Z</time>
      </trkpt>
      <trkpt lat="46.541313" lon="11.591024">
        <ele>1611.769</ele>
        <time>2018-09-12T11:28:07Z</time>
      </trkpt>
      <trkpt lat="46.541263" lon="11.591033">
        <ele>1611.719</ele>
        <time>2018-09-12T11:28:08Z</time>
      </trkpt>
      <trkpt lat="46.541215" lon="11.591054">
        <ele>1611.732</ele>
        <time>2018-09-12T11:28:09Z</time>
      </trkpt>
      <trkpt lat="46.541165" lon="11.591083">
        <ele>1611.768</ele>
        <time>2018-09-12T11:28:10Z</time>
      </trkpt>
      <trkpt lat="46.541065" lon="11.591157">
        <ele>1611.373</ele>
        <time>2018-09-12T11:28:12Z</time>
      </trkpt>
      <trkpt lat="46.541016" lon="11.591204">
        <ele>1611.385</ele>
        <time>2018-09-12T11:28:13Z</time>
      </trkpt>
      <trkpt lat="46.540968" lon="11.591261">
        <ele>1610.813</ele>
        <time>2018-09-12T11:28:14Z</time>
      </trkpt>
      <trkpt lat="46.540921" lon="11.591331">
        <ele>1610.308</ele>
        <time>2018-09-12T11:28:15Z</time>
      </trkpt>
      <trkpt lat="46.540879" lon="11.591406">
        <ele>1609.841</ele>
        <time>2018-09-12T11:28:16Z</time>
      </trkpt>
      <trkpt lat="46.540843" lon="11.591493">
        <ele>1609.383</ele>
        <time>2018-09-12T11:28:17Z</time>
      </trkpt>
      <trkpt lat="46.540814" lon="11.591590">
        <ele>1608.959</ele>
        <time>2018-09-12T11:28:18Z</time>
      </trkpt>
      <trkpt lat="46.540790" lon="11.591692">
        <ele>1608.425</ele>
        <time>2018-09-12T11:28:19Z</time>
      </trkpt>
      <trkpt lat="46.540775" lon="11.591799">
        <ele>1607.925</ele>
        <time>2018-09-12T11:28:20Z</time>
      </trkpt>
      <trkpt lat="46.540768" lon="11.591912">
        <ele>1607.425</ele>
        <time>2018-09-12T11:28:21Z</time>
      </trkpt>
      <trkpt lat="46.540765" lon="11.592021">
        <ele>1606.938</ele>
        <time>2018-09-12T11:28:22Z</time>
      </trkpt>
      <trkpt lat="46.540741" lon="11.592251">
        <ele>1605.544</ele>
        <time>2018-09-12T11:28:24Z</time>
      </trkpt>
      <trkpt lat="46.540713" lon="11.592371">
        <ele>1604.514</ele>
        <time>2018-09-12T11:28:25Z</time>
      </trkpt>
      <trkpt lat="46.540673" lon="11.592495">
        <ele>1603.154</ele>
        <time>2018-09-12T11:28:26Z</time>
      </trkpt>
      <trkpt lat="46.540620" lon="11.592608">
        <ele>1602.109</ele>
        <time>2018-09-12T11:28:27Z</time>
      </trkpt>
      <trkpt lat="46.540553" lon="11.592718">
        <ele>1600.708</ele>
        <time>2018-09-12T11:28:28Z</time>
      </trkpt>
      <trkpt lat="46.540491" lon="11.592824">
        <ele>1599.295</ele>
        <time>2018-09-12T11:28:29Z</time>
      </trkpt>
      <trkpt lat="46.540440" lon="11.592943">
        <ele>1597.877</ele>
        <time>2018-09-12T11:28:30Z</time>
      </trkpt>
      <trkpt lat="46.540401" lon="11.593076">
        <ele>1596.873</ele>
        <time>2018-09-12T11:28:31Z</time>
      </trkpt>
      <trkpt lat="46.540372" lon="11.593206">
        <ele>1595.449</ele>
        <time>2018-09-12T11:28:32Z</time>
      </trkpt>
      <trkpt lat="46.539882" lon="11.594504">
        <ele>1585.329</ele>
        <time>2018-09-12T11:28:42Z</time>
      </trkpt>
      <trkpt lat="46.539220" lon="11.596055">
        <ele>1571.479</ele>
        <time>2018-09-12T11:28:53Z</time>
      </trkpt>
      <trkpt lat="46.539177" lon="11.596153">
        <ele>1570.462</ele>
        <time>2018-09-12T11:28:54Z</time>
      </trkpt>
      <trkpt lat="46.539121" lon="11.596214">
        <ele>1569.488</ele>
        <time>2018-09-12T11:28:55Z</time>
      </trkpt>
      <trkpt lat="46.539057" lon="11.596212">
        <ele>1569.091</ele>
        <time>2018-09-12T11:28:56Z</time>
      </trkpt>
      <trkpt lat="46.539007" lon="11.596146">
        <ele>1568.081</ele>
        <time>2018-09-12T11:28:57Z</time>
      </trkpt>
      <trkpt lat="46.538990" lon="11.596043">
        <ele>1567.519</ele>
        <time>2018-09-12T11:28:58Z</time>
      </trkpt>
      <trkpt lat="46.539009" lon="11.595937">
        <ele>1567.008</ele>
        <time>2018-09-12T11:28:59Z</time>
      </trkpt>
      <trkpt lat="46.539048" lon="11.595841">
        <ele>1566.683</ele>
        <time>2018-09-12T11:29:00Z</time>
      </trkpt>
      <trkpt lat="46.539095" lon="11.595746">
        <ele>1566.115</ele>
        <time>2018-09-12T11:29:01Z</time>
      </trkpt>
      <trkpt lat="46.539182" lon="11.595549">
        <ele>1565.161</ele>
        <time>2018-09-12T11:29:03Z</time>
      </trkpt>
      <trkpt lat="46.539562" lon="11.594231">
        <ele>1554.577</ele>
        <time>2018-09-12T11:29:14Z</time>
      </trkpt>
      <trkpt lat="46.539886" lon="11.592589">
        <ele>1542.537</ele>
        <time>2018-09-12T11:29:25Z</time>
      </trkpt>
      <trkpt lat="46.539933" lon="11.591004">
        <ele>1531.067</ele>
        <time>2018-09-12T11:29:36Z</time>
      </trkpt>
      <trkpt lat="46.539951" lon="11.590865">
        <ele>1529.540</ele>
        <time>2018-09-12T11:29:37Z</time>
      </trkpt>
      <trkpt lat="46.539979" lon="11.590727">
        <ele>1528.646</ele>
        <time>2018-09-12T11:29:38Z</time>
      </trkpt>
      <trkpt lat="46.540020" lon="11.590590">
        <ele>1527.128</ele>
        <time>2018-09-12T11:29:39Z</time>
      </trkpt>
      <trkpt lat="46.540072" lon="11.590456">
        <ele>1526.289</ele>
        <time>2018-09-12T11:29:40Z</time>
      </trkpt>
      <trkpt lat="46.540129" lon="11.590323">
        <ele>1524.717</ele>
        <time>2018-09-12T11:29:41Z</time>
      </trkpt>
      <trkpt lat="46.540821" lon="11.589020">
        <ele>1511.808</ele>
        <time>2018-09-12T11:29:51Z</time>
      </trkpt>
      <trkpt lat="46.540977" lon="11.588686">
        <ele>1508.446</ele>
        <time>2018-09-12T11:29:54Z</time>
      </trkpt>
      <trkpt lat="46.541166" lon="11.588088">
        <ele>1503.188</ele>
        <time>2018-09-12T11:29:59Z</time>
      </trkpt>
      <trkpt lat="46.541223" lon="11.587978">
        <ele>1502.274</ele>
        <time>2018-09-12T11:30:00Z</time>
      </trkpt>
      <trkpt lat="46.541289" lon="11.587894">
        <ele>1501.730</ele>
        <time>2018-09-12T11:30:01Z</time>
      </trkpt>
      <trkpt lat="46.541373" lon="11.587829">
        <ele>1500.760</ele>
        <time>2018-09-12T11:30:02Z</time>
      </trkpt>
      <trkpt lat="46.541483" lon="11.587790">
        <ele>1499.790</ele>
        <time>2018-09-12T11:30:03Z</time>
      </trkpt>
      <trkpt lat="46.541569" lon="11.587785">
        <ele>1498.883</ele>
        <time>2018-09-12T11:30:04Z</time>
      </trkpt>
      <trkpt lat="46.541689" lon="11.587806">
        <ele>1497.839</ele>
        <time>2018-09-12T11:30:05Z</time>
      </trkpt>
      <trkpt lat="46.541779" lon="11.587832">
        <ele>1497.372</ele>
        <time>2018-09-12T11:30:06Z</time>
      </trkpt>
      <trkpt lat="46.542503" lon="11.587981">
        <ele>1491.613</ele>
        <time>2018-09-12T11:30:13Z</time>
      </trkpt>
      <trkpt lat="46.542576" lon="11.587960">
        <ele>1491.114</ele>
        <time>2018-09-12T11:30:14Z</time>
      </trkpt>
      <trkpt lat="46.542631" lon="11.587897">
        <ele>1491.108</ele>
        <time>2018-09-12T11:30:15Z</time>
      </trkpt>
      <trkpt lat="46.542657" lon="11.587808">
        <ele>1490.671</ele>
        <time>2018-09-12T11:30:16Z</time>
      </trkpt>
      <trkpt lat="46.542644" lon="11.587718">
        <ele>1490.143</ele>
        <time>2018-09-12T11:30:17Z</time>
      </trkpt>
      <trkpt lat="46.542596" lon="11.587651">
        <ele>1489.289</ele>
        <time>2018-09-12T11:30:18Z</time>
      </trkpt>
      <trkpt lat="46.542529" lon="11.587623">
        <ele>1488.725</ele>
        <time>2018-09-12T11:30:19Z</time>
      </trkpt>
      <trkpt lat="46.542456" lon="11.587623">
        <ele>1487.735</ele>
        <time>2018-09-12T11:30:20Z</time>
      </trkpt>
      <trkpt lat="46.542380" lon="11.587637">
        <ele>1487.355</ele>
        <time>2018-09-12T11:30:21Z</time>
      </trkpt>
      <trkpt lat="46.542301" lon="11.587651">
        <ele>1486.388</ele>
        <time>2018-09-12T11:30:22Z</time>
      </trkpt>
      <trkpt lat="46.542225" lon="11.587654">
        <ele>1485.894</ele>
        <time>2018-09-12T11:30:23Z</time>
      </trkpt>
      <trkpt lat="46.542148" lon="11.587645">
        <ele>1485.351</ele>
        <time>2018-09-12T11:30:24Z</time>
      </trkpt>
      <trkpt lat="46.542073" lon="11.587628">
        <ele>1484.801</ele>
        <time>2018-09-12T11:30:25Z</time>
      </trkpt>
      <trkpt lat="46.542001" lon="11.587599">
        <ele>1484.411</ele>
        <time>2018-09-12T11:30:26Z</time>
      </trkpt>
      <trkpt lat="46.541931" lon="11.587555">
        <ele>1483.908</ele>
        <time>2018-09-12T11:30:27Z</time>
      </trkpt>
      <trkpt lat="46.541861" lon="11.587502">
        <ele>1483.489</ele>
        <time>2018-09-12T11:30:28Z</time>
      </trkpt>
      <trkpt lat="46.541789" lon="11.587441">
        <ele>1482.991</ele>
        <time>2018-09-12T11:30:29Z</time>
      </trkpt>
      <trkpt lat="46.541342" lon="11.587156">
        <ele>1478.647</ele>
        <time>2018-09-12T11:30:35Z</time>
      </trkpt>
      <trkpt lat="46.541270" lon="11.587146">
        <ele>1478.133</ele>
        <time>2018-09-12T11:30:36Z</time>
      </trkpt>
      <trkpt lat="46.541206" lon="11.587146">
        <ele>1477.613</ele>
        <time>2018-09-12T11:30:37Z</time>
      </trkpt>
      <trkpt lat="46.541144" lon="11.587150">
        <ele>1477.213</ele>
        <time>2018-09-12T11:30:38Z</time>
      </trkpt>
      <trkpt lat="46.541084" lon="11.587160">
        <ele>1476.726</ele>
        <time>2018-09-12T11:30:39Z</time>
      </trkpt>
      <trkpt lat="46.541030" lon="11.587179">
        <ele>1476.262</ele>
        <time>2018-09-12T11:30:40Z</time>
      </trkpt>
      <trkpt lat="46.540978" lon="11.587204">
        <ele>1475.746</ele>
        <time>2018-09-12T11:30:41Z</time>
      </trkpt>
      <trkpt lat="46.540925" lon="11.587233">
        <ele>1475.288</ele>
        <time>2018-09-12T11:30:42Z</time>
      </trkpt>
      <trkpt lat="46.540837" lon="11.587290">
        <ele>1474.816</ele>
        <time>2018-09-12T11:30:44Z</time>
      </trkpt>
      <trkpt lat="46.540804" lon="11.587323">
        <ele>1474.308</ele>
        <time>2018-09-12T11:30:45Z</time>
      </trkpt>
      <trkpt lat="46.540780" lon="11.587354">
        <ele>1473.828</ele>
        <time>2018-09-12T11:30:46Z</time>
      </trkpt>
      <trkpt lat="46.540600" lon="11.587612">
        <ele>1471.910</ele>
        <time>2018-09-12T11:30:58Z</time>
      </trkpt>
      <trkpt lat="46.540178" lon="11.588185">
        <ele>1467.546</ele>
        <time>2018-09-12T11:31:11Z</time>
      </trkpt>
      <trkpt lat="46.539940" lon="11.588550">
        <ele>1465.192</ele>
        <time>2018-09-12T11:31:16Z</time>
      </trkpt>
      <trkpt lat="46.539882" lon="11.588574">
        <ele>1464.752</ele>
        <time>2018-09-12T11:31:17Z</time>
      </trkpt>
      <trkpt lat="46.539825" lon="11.588552">
        <ele>1464.252</ele>
        <time>2018-09-12T11:31:18Z</time>
      </trkpt>
      <trkpt lat="46.539785" lon="11.588482">
        <ele>1463.775</ele>
        <time>2018-09-12T11:31:19Z</time>
      </trkpt>
      <trkpt lat="46.539778" lon="11.588386">
        <ele>1463.281</ele>
        <time>2018-09-12T11:31:20Z</time>
      </trkpt>
      <trkpt lat="46.539809" lon="11.588303">
        <ele>1462.358</ele>
        <time>2018-09-12T11:31:21Z</time>
      </trkpt>
      <trkpt lat="46.539855" lon="11.588236">
        <ele>1461.852</ele>
        <time>2018-09-12T11:31:22Z</time>
      </trkpt>
      <trkpt lat="46.539909" lon="11.588171">
        <ele>1461.317</ele>
        <time>2018-09-12T11:31:23Z</time>
      </trkpt>
      <trkpt lat="46.540179" lon="11.587859">
        <ele>1458.908</ele>
        <time>2018-09-12T11:31:28Z</time>
      </trkpt>
      <trkpt lat="46.540223" lon="11.587772">
        <ele>1458.469</ele>
        <time>2018-09-12T11:31:29Z</time>
      </trkpt>
      <trkpt lat="46.540259" lon="11.587680">
        <ele>1457.911</ele>
        <time>2018-09-12T11:31:30Z</time>
      </trkpt>
      <trkpt lat="46.540296" lon="11.587571">
        <ele>1457.077</ele>
        <time>2018-09-12T11:31:31Z</time>
      </trkpt>
      <trkpt lat="46.540327" lon="11.587457">
        <ele>1456.563</ele>
        <time>2018-09-12T11:31:32Z</time>
      </trkpt>
      <trkpt lat="46.540352" lon="11.587338">
        <ele>1455.593</ele>
        <time>2018-09-12T11:31:33Z</time>
      </trkpt>
      <trkpt lat="46.540519" lon="11.586714">
        <ele>1451.733</ele>
        <time>2018-09-12T11:31:38Z</time>
      </trkpt>
      <trkpt lat="46.540574" lon="11.586596">
        <ele>1450.716</ele>
        <time>2018-09-12T11:31:39Z</time>
      </trkpt>
      <trkpt lat="46.540637" lon="11.586487">
        <ele>1449.892</ele>
        <time>2018-09-12T11:31:40Z</time>
      </trkpt>
      <trkpt lat="46.540703" lon="11.586389">
        <ele>1448.816</ele>
        <time>2018-09-12T11:31:41Z</time>
      </trkpt>
      <trkpt lat="46.540777" lon="11.586305">
        <ele>1447.876</ele>
        <time>2018-09-12T11:31:42Z</time>
      </trkpt>
      <trkpt lat="46.540858" lon="11.586244">
        <ele>1446.413</ele>
        <time>2018-09-12T11:31:43Z</time>
      </trkpt>
      <trkpt lat="46.540951" lon="11.586212">
        <ele>1445.408</ele>
        <time>2018-09-12T11:31:44Z</time>
      </trkpt>
      <trkpt lat="46.541044" lon="11.586206">
        <ele>1444.055</ele>
        <time>2018-09-12T11:31:45Z</time>
      </trkpt>
      <trkpt lat="46.541140" lon="11.586225">
        <ele>1443.017</ele>
        <time>2018-09-12T11:31:46Z</time>
      </trkpt>
      <trkpt lat="46.541235" lon="11.586271">
        <ele>1442.683</ele>
        <time>2018-09-12T11:31:47Z</time>
      </trkpt>
      <trkpt lat="46.541323" lon="11.586331">
        <ele>1441.629</ele>
        <time>2018-09-12T11:31:48Z</time>
      </trkpt>
      <trkpt lat="46.541410" lon="11.586394">
        <ele>1440.679</ele>
        <time>2018-09-12T11:31:49Z</time>
      </trkpt>
      <trkpt lat="46.541496" lon="11.586443">
        <ele>1439.789</ele>
        <time>2018-09-12T11:31:50Z</time>
      </trkpt>
      <trkpt lat="46.541579" lon="11.586471">
        <ele>1438.712</ele>
        <time>2018-09-12T11:31:51Z</time>
      </trkpt>
      <trkpt lat="46.541657" lon="11.586486">
        <ele>1437.768</ele>
        <time>2018-09-12T11:31:52Z</time>
      </trkpt>
      <trkpt lat="46.541730" lon="11.586490">
        <ele>1436.853</ele>
        <time>2018-09-12T11:31:53Z</time>
      </trkpt>
      <trkpt lat="46.541801" lon="11.586488">
        <ele>1436.304</ele>
        <time>2018-09-12T11:31:54Z</time>
      </trkpt>
      <trkpt lat="46.541870" lon="11.586481">
        <ele>1435.814</ele>
        <time>2018-09-12T11:31:55Z</time>
      </trkpt>
      <trkpt lat="46.542164" lon="11.586453">
        <ele>1433.408</ele>
        <time>2018-09-12T11:31:59Z</time>
      </trkpt>
      <trkpt lat="46.542245" lon="11.586430">
        <ele>1432.929</ele>
        <time>2018-09-12T11:32:00Z</time>
      </trkpt>
      <trkpt lat="46.542325" lon="11.586400">
        <ele>1432.551</ele>
        <time>2018-09-12T11:32:01Z</time>
      </trkpt>
      <trkpt lat="46.542401" lon="11.586363">
        <ele>1431.597</ele>
        <time>2018-09-12T11:32:02Z</time>
      </trkpt>
      <trkpt lat="46.542474" lon="11.586316">
        <ele>1430.523</ele>
        <time>2018-09-12T11:32:03Z</time>
      </trkpt>
      <trkpt lat="46.542550" lon="11.586261">
        <ele>1430.123</ele>
        <time>2018-09-12T11:32:04Z</time>
      </trkpt>
      <trkpt lat="46.542614" lon="11.586203">
        <ele>1429.183</ele>
        <time>2018-09-12T11:32:05Z</time>
      </trkpt>
      <trkpt lat="46.542745" lon="11.586042">
        <ele>1427.226</ele>
        <time>2018-09-12T11:32:07Z</time>
      </trkpt>
      <trkpt lat="46.543405" lon="11.584770">
        <ele>1415.232</ele>
        <time>2018-09-12T11:32:18Z</time>
      </trkpt>
      <trkpt lat="46.543514" lon="11.584468">
        <ele>1412.721</ele>
        <time>2018-09-12T11:32:20Z</time>
      </trkpt>
      <trkpt lat="46.543555" lon="11.584307">
        <ele>1411.341</ele>
        <time>2018-09-12T11:32:21Z</time>
      </trkpt>
      <trkpt lat="46.543588" lon="11.584140">
        <ele>1409.905</ele>
        <time>2018-09-12T11:32:22Z</time>
      </trkpt>
      <trkpt lat="46.543613" lon="11.583971">
        <ele>1408.408</ele>
        <time>2018-09-12T11:32:23Z</time>
      </trkpt>
      <trkpt lat="46.543633" lon="11.583815">
        <ele>1407.056</ele>
        <time>2018-09-12T11:32:24Z</time>
      </trkpt>
      <trkpt lat="46.543739" lon="11.583232">
        <ele>1401.258</ele>
        <time>2018-09-12T11:32:28Z</time>
      </trkpt>
      <trkpt lat="46.543781" lon="11.583123">
        <ele>1400.314</ele>
        <time>2018-09-12T11:32:29Z</time>
      </trkpt>
      <trkpt lat="46.543834" lon="11.583043">
        <ele>1399.360</ele>
        <time>2018-09-12T11:32:30Z</time>
      </trkpt>
      <trkpt lat="46.543896" lon="11.582998">
        <ele>1398.880</ele>
        <time>2018-09-12T11:32:31Z</time>
      </trkpt>
      <trkpt lat="46.543965" lon="11.582994">
        <ele>1397.860</ele>
        <time>2018-09-12T11:32:32Z</time>
      </trkpt>
      <trkpt lat="46.544029" lon="11.583024">
        <ele>1397.463</ele>
        <time>2018-09-12T11:32:33Z</time>
      </trkpt>
      <trkpt lat="46.544090" lon="11.583081">
        <ele>1396.449</ele>
        <time>2018-09-12T11:32:34Z</time>
      </trkpt>
      <trkpt lat="46.544140" lon="11.583157">
        <ele>1395.434</ele>
        <time>2018-09-12T11:32:35Z</time>
      </trkpt>
      <trkpt lat="46.544177" lon="11.583233">
        <ele>1394.555</ele>
        <time>2018-09-12T11:32:36Z</time>
      </trkpt>
      <trkpt lat="46.544212" lon="11.583320">
        <ele>1393.510</ele>
        <time>2018-09-12T11:32:37Z</time>
      </trkpt>
      <trkpt lat="46.544247" lon="11.583411">
        <ele>1392.608</ele>
        <time>2018-09-12T11:32:38Z</time>
      </trkpt>
      <trkpt lat="46.544285" lon="11.583500">
        <ele>1391.627</ele>
        <time>2018-09-12T11:32:39Z</time>
      </trkpt>
      <trkpt lat="46.544556" lon="11.584087">
        <ele>1387.329</ele>
        <time>2018-09-12T11:32:45Z</time>
      </trkpt>
      <trkpt lat="46.544621" lon="11.584169">
        <ele>1386.345</ele>
        <time>2018-09-12T11:32:46Z</time>
      </trkpt>
      <trkpt lat="46.544696" lon="11.584236">
        <ele>1385.461</ele>
        <time>2018-09-12T11:32:47Z</time>
      </trkpt>
      <trkpt lat="46.544777" lon="11.584295">
        <ele>1384.481</ele>
        <time>2018-09-12T11:32:48Z</time>
      </trkpt>
      <trkpt lat="46.544859" lon="11.584349">
        <ele>1383.481</ele>
        <time>2018-09-12T11:32:49Z</time>
      </trkpt>
      <trkpt lat="46.545112" lon="11.584535">
        <ele>1380.194</ele>
        <time>2018-09-12T11:32:52Z</time>
      </trkpt>
      <trkpt lat="46.545183" lon="11.584631">
        <ele>1378.610</ele>
        <time>2018-09-12T11:32:53Z</time>
      </trkpt>
      <trkpt lat="46.545242" lon="11.584748">
        <ele>1377.745</ele>
        <time>2018-09-12T11:32:54Z</time>
      </trkpt>
      <trkpt lat="46.545286" lon="11.584882">
        <ele>1376.247</ele>
        <time>2018-09-12T11:32:55Z</time>
      </trkpt>
      <trkpt lat="46.545321" lon="11.585024">
        <ele>1375.311</ele>
        <time>2018-09-12T11:32:56Z</time>
      </trkpt>
      <trkpt lat="46.545485" lon="11.585745">
        <ele>1369.508</ele>
        <time>2018-09-12T11:33:01Z</time>
      </trkpt>
      <trkpt lat="46.545530" lon="11.585873">
        <ele>1368.548</ele>
        <time>2018-09-12T11:33:02Z</time>
      </trkpt>
      <trkpt lat="46.545590" lon="11.585982">
        <ele>1367.110</ele>
        <time>2018-09-12T11:33:03Z</time>
      </trkpt>
      <trkpt lat="46.545667" lon="11.586068">
        <ele>1366.176</ele>
        <time>2018-09-12T11:33:04Z</time>
      </trkpt>
      <trkpt lat="46.545757" lon="11.586128">
        <ele>1365.222</ele>
        <time>2018-09-12T11:33:05Z</time>
      </trkpt>
      <trkpt lat="46.545856" lon="11.586158">
        <ele>1364.212</ele>
        <time>2018-09-12T11:33:06Z</time>
      </trkpt>
      <trkpt lat="46.545959" lon="11.586153">
        <ele>1363.242</ele>
        <time>2018-09-12T11:33:07Z</time>
      </trkpt>
      <trkpt lat="46.546063" lon="11.586127">
        <ele>1362.365</ele>
        <time>2018-09-12T11:33:08Z</time>
      </trkpt>
      <trkpt lat="46.546165" lon="11.586095">
        <ele>1360.891</ele>
        <time>2018-09-12T11:33:09Z</time>
      </trkpt>
      <trkpt lat="46.546582" lon="11.585996">
        <ele>1356.592</ele>
        <time>2018-09-12T11:33:13Z</time>
      </trkpt>
      <trkpt lat="46.546691" lon="11.585994">
        <ele>1355.673</ele>
        <time>2018-09-12T11:33:14Z</time>
      </trkpt>
      <trkpt lat="46.546800" lon="11.586009">
        <ele>1354.620</ele>
        <time>2018-09-12T11:33:15Z</time>
      </trkpt>
      <trkpt lat="46.546907" lon="11.586043">
        <ele>1353.608</ele>
        <time>2018-09-12T11:33:16Z</time>
      </trkpt>
      <trkpt lat="46.547011" lon="11.586087">
        <ele>1352.243</ele>
        <time>2018-09-12T11:33:17Z</time>
      </trkpt>
      <trkpt lat="46.547624" lon="11.586381">
        <ele>1345.585</ele>
        <time>2018-09-12T11:33:23Z</time>
      </trkpt>
      <trkpt lat="46.547727" lon="11.586396">
        <ele>1344.061</ele>
        <time>2018-09-12T11:33:24Z</time>
      </trkpt>
      <trkpt lat="46.547816" lon="11.586394">
        <ele>1343.117</ele>
        <time>2018-09-12T11:33:25Z</time>
      </trkpt>
      <trkpt lat="46.548408" lon="11.586258">
        <ele>1338.767</ele>
        <time>2018-09-12T11:33:33Z</time>
      </trkpt>
      <trkpt lat="46.548461" lon="11.586230">
        <ele>1338.277</ele>
        <time>2018-09-12T11:33:34Z</time>
      </trkpt>
      <trkpt lat="46.548505" lon="11.586185">
        <ele>1337.880</ele>
        <time>2018-09-12T11:33:35Z</time>
      </trkpt>
      <trkpt lat="46.548534" lon="11.586124">
        <ele>1337.376</ele>
        <time>2018-09-12T11:33:36Z</time>
      </trkpt>
      <trkpt lat="46.548550" lon="11.586050">
        <ele>1337.312</ele>
        <time>2018-09-12T11:33:37Z</time>
      </trkpt>
      <trkpt lat="46.548550" lon="11.585968">
        <ele>1337.332</ele>
        <time>2018-09-12T11:33:38Z</time>
      </trkpt>
      <trkpt lat="46.548528" lon="11.585885">
        <ele>1336.805</ele>
        <time>2018-09-12T11:33:39Z</time>
      </trkpt>
      <trkpt lat="46.548483" lon="11.585816">
        <ele>1336.308</ele>
        <time>2018-09-12T11:33:40Z</time>
      </trkpt>
      <trkpt lat="46.548420" lon="11.585770">
        <ele>1335.845</ele>
        <time>2018-09-12T11:33:41Z</time>
      </trkpt>
      <trkpt lat="46.548348" lon="11.585751">
        <ele>1335.827</ele>
        <time>2018-09-12T11:33:42Z</time>
      </trkpt>
      <trkpt lat="46.548274" lon="11.585760">
        <ele>1334.953</ele>
        <time>2018-09-12T11:33:43Z</time>
      </trkpt>
      <trkpt lat="46.548201" lon="11.585779">
        <ele>1334.489</ele>
        <time>2018-09-12T11:33:44Z</time>
      </trkpt>
      <trkpt lat="46.547849" lon="11.585791">
        <ele>1331.049</ele>
        <time>2018-09-12T11:33:49Z</time>
      </trkpt>
      <trkpt lat="46.547786" lon="11.585760">
        <ele>1330.679</ele>
        <time>2018-09-12T11:33:50Z</time>
      </trkpt>
      <trkpt lat="46.547726" lon="11.585720">
        <ele>1329.612</ele>
        <time>2018-09-12T11:33:51Z</time>
      </trkpt>
      <trkpt lat="46.547671" lon="11.585672">
        <ele>1328.688</ele>
        <time>2018-09-12T11:33:52Z</time>
      </trkpt>
      <trkpt lat="46.547620" lon="11.585615">
        <ele>1327.718</ele>
        <time>2018-09-12T11:33:53Z</time>
      </trkpt>
      <trkpt lat="46.547571" lon="11.585549">
        <ele>1326.798</ele>
        <time>2018-09-12T11:33:54Z</time>
      </trkpt>
      <trkpt lat="46.547524" lon="11.585478">
        <ele>1325.817</ele>
        <time>2018-09-12T11:33:55Z</time>
      </trkpt>
      <trkpt lat="46.547221" lon="11.585091">
        <ele>1320.508</ele>
        <time>2018-09-12T11:34:01Z</time>
      </trkpt>
      <trkpt lat="46.547166" lon="11.585053">
        <ele>1319.545</ele>
        <time>2018-09-12T11:34:02Z</time>
      </trkpt>
      <trkpt lat="46.547109" lon="11.585021">
        <ele>1319.087</ele>
        <time>2018-09-12T11:34:03Z</time>
      </trkpt>
      <trkpt lat="46.547048" lon="11.584998">
        <ele>1318.563</ele>
        <time>2018-09-12T11:34:04Z</time>
      </trkpt>
      <trkpt lat="46.546988" lon="11.584983">
        <ele>1317.699</ele>
        <time>2018-09-12T11:34:05Z</time>
      </trkpt>
      <trkpt lat="46.546928" lon="11.584972">
        <ele>1317.129</ele>
        <time>2018-09-12T11:34:06Z</time>
      </trkpt>
      <trkpt lat="46.546763" lon="11.584956">
        <ele>1314.729</ele>
        <time>2018-09-12T11:34:09Z</time>
      </trkpt>
      <trkpt lat="46.546717" lon="11.584928">
        <ele>1314.242</ele>
        <time>2018-09-12T11:34:10Z</time>
      </trkpt>
      <trkpt lat="46.546683" lon="11.584888">
        <ele>1313.758</ele>
        <time>2018-09-12T11:34:11Z</time>
      </trkpt>
      <trkpt lat="46.546667" lon="11.584838">
        <ele>1313.731</ele>
        <time>2018-09-12T11:34:12Z</time>
      </trkpt>
      <trkpt lat="46.546665" lon="11.584790">
        <ele>1313.761</ele>
        <time>2018-09-12T11:34:13Z</time>
      </trkpt>
      <trkpt lat="46.546673" lon="11.584744">
        <ele>1313.707</ele>
        <time>2018-09-12T11:34:14Z</time>
      </trkpt>
      <trkpt lat="46.546689" lon="11.584716">
        <ele>1313.308</ele>
        <time>2018-09-12T11:34:15Z</time>
      </trkpt>
      <trkpt lat="46.546711" lon="11.584698">
        <ele>1313.317</ele>
        <time>2018-09-12T11:34:16Z</time>
      </trkpt>
      <trkpt lat="46.546732" lon="11.584681">
        <ele>1313.369</ele>
        <time>2018-09-12T11:34:17Z</time>
      </trkpt>
      <trkpt lat="46.546751" lon="11.584667">
        <ele>1313.385</ele>
        <time>2018-09-12T11:34:18Z</time>
      </trkpt>
      <trkpt lat="46.546771" lon="11.584660">
        <ele>1313.391</ele>
        <time>2018-09-12T11:34:19Z</time>
      </trkpt>
      <trkpt lat="46.546793" lon="11.584655">
        <ele>1313.391</ele>
        <time>2018-09-12T11:34:20Z</time>
      </trkpt>
      <trkpt lat="46.546818" lon="11.584655">
        <ele>1313.351</ele>
        <time>2018-09-12T11:34:21Z</time>
      </trkpt>
      <trkpt lat="46.546847" lon="11.584660">
        <ele>1313.334</ele>
        <time>2018-09-12T11:34:22Z</time>
      </trkpt>
      <trkpt lat="46.546923" lon="11.584682">
        <ele>1313.350</ele>
        <time>2018-09-12T11:34:24Z</time>
      </trkpt>
      <trkpt lat="46.547210" lon="11.584806">
        <ele>1310.972</ele>
        <time>2018-09-12T11:34:30Z</time>
      </trkpt>
      <trkpt lat="46.547915" lon="11.584779">
        <ele>1303.213</ele>
        <time>2018-09-12T11:34:40Z</time>
      </trkpt>
      <trkpt lat="46.548129" lon="11.584672">
        <ele>1299.814</ele>
        <time>2018-09-12T11:34:43Z</time>
      </trkpt>
      <trkpt lat="46.548275" lon="11.584594">
        <ele>1297.908</ele>
        <time>2018-09-12T11:34:45Z</time>
      </trkpt>
      <trkpt lat="46.548333" lon="11.584526">
        <ele>1296.911</ele>
        <time>2018-09-12T11:34:46Z</time>
      </trkpt>
      <trkpt lat="46.548432" lon="11.584384">
        <ele>1295.043</ele>
        <time>2018-09-12T11:34:48Z</time>
      </trkpt>
      <trkpt lat="46.548490" lon="11.584325">
        <ele>1294.029</ele>
        <time>2018-09-12T11:34:49Z</time>
      </trkpt>
      <trkpt lat="46.548771" lon="11.584055">
        <ele>1289.725</ele>
        <time>2018-09-12T11:34:55Z</time>
      </trkpt>
      <trkpt lat="46.548783" lon="11.584020">
        <ele>1289.745</ele>
        <time>2018-09-12T11:34:56Z</time>
      </trkpt>
      <trkpt lat="46.548791" lon="11.584000">
        <ele>1289.235</ele>
        <time>2018-09-12T11:34:57Z</time>
      </trkpt>
      <trkpt lat="46.548799" lon="11.583944">
        <ele>1289.228</ele>
        <time>2018-09-12T11:35:10Z</time>
      </trkpt>
      <trkpt lat="46.548805" lon="11.583917">
        <ele>1287.374</ele>
        <time>2018-09-12T11:35:32Z</time>
      </trkpt>
      <trkpt lat="46.548971" lon="11.583860">
        <ele>1286.317</ele>
        <time>2018-09-12T11:35:38Z</time>
      </trkpt>
      <trkpt lat="46.549338" lon="11.583505">
        <ele>1282.587</ele>
        <time>2018-09-12T11:35:45Z</time>
      </trkpt>
      <trkpt lat="46.549388" lon="11.583417">
        <ele>1281.515</ele>
        <time>2018-09-12T11:35:46Z</time>
      </trkpt>
      <trkpt lat="46.549434" lon="11.583319">
        <ele>1280.608</ele>
        <time>2018-09-12T11:35:47Z</time>
      </trkpt>
      <trkpt lat="46.549950" lon="11.581893">
        <ele>1266.675</ele>
        <time>2018-09-12T11:35:59Z</time>
      </trkpt>
      <trkpt lat="46.550241" lon="11.581149">
        <ele>1259.477</ele>
        <time>2018-09-12T11:36:05Z</time>
      </trkpt>
      <trkpt lat="46.550306" lon="11.581037">
        <ele>1258.083</ele>
        <time>2018-09-12T11:36:06Z</time>
      </trkpt>
      <trkpt lat="46.550381" lon="11.580935">
        <ele>1256.599</ele>
        <time>2018-09-12T11:36:07Z</time>
      </trkpt>
      <trkpt lat="46.550465" lon="11.580842">
        <ele>1255.639</ele>
        <time>2018-09-12T11:36:08Z</time>
      </trkpt>
      <trkpt lat="46.550555" lon="11.580761">
        <ele>1254.669</ele>
        <time>2018-09-12T11:36:09Z</time>
      </trkpt>
      <trkpt lat="46.550649" lon="11.580696">
        <ele>1253.762</ele>
        <time>2018-09-12T11:36:10Z</time>
      </trkpt>
      <trkpt lat="46.550747" lon="11.580644">
        <ele>1252.278</ele>
        <time>2018-09-12T11:36:11Z</time>
      </trkpt>
      <trkpt lat="46.550848" lon="11.580598">
        <ele>1251.216</ele>
        <time>2018-09-12T11:36:12Z</time>
      </trkpt>
      <trkpt lat="46.551760" lon="11.579858">
        <ele>1239.776</ele>
        <time>2018-09-12T11:36:22Z</time>
      </trkpt>
      <trkpt lat="46.551820" lon="11.579736">
        <ele>1238.313</ele>
        <time>2018-09-12T11:36:23Z</time>
      </trkpt>
      <trkpt lat="46.551863" lon="11.579612">
        <ele>1237.808</ele>
        <time>2018-09-12T11:36:24Z</time>
      </trkpt>
      <trkpt lat="46.551886" lon="11.579501">
        <ele>1236.875</ele>
        <time>2018-09-12T11:36:25Z</time>
      </trkpt>
      <trkpt lat="46.551895" lon="11.579409">
        <ele>1235.967</ele>
        <time>2018-09-12T11:36:26Z</time>
      </trkpt>
      <trkpt lat="46.551892" lon="11.579354">
        <ele>1235.413</ele>
        <time>2018-09-12T11:36:27Z</time>
      </trkpt>
      <trkpt lat="46.551869" lon="11.579322">
        <ele>1234.969</ele>
        <time>2018-09-12T11:36:28Z</time>
      </trkpt>
      <trkpt lat="46.551838" lon="11.579325">
        <ele>1234.919</ele>
        <time>2018-09-12T11:36:29Z</time>
      </trkpt>
      <trkpt lat="46.551814" lon="11.579343">
        <ele>1234.919</ele>
        <time>2018-09-12T11:36:30Z</time>
      </trkpt>
      <trkpt lat="46.551795" lon="11.579363">
        <ele>1234.942</ele>
        <time>2018-09-12T11:36:31Z</time>
      </trkpt>
      <trkpt lat="46.551781" lon="11.579374">
        <ele>1234.968</ele>
        <time>2018-09-12T11:36:32Z</time>
      </trkpt>
      <trkpt lat="46.551762" lon="11.579388">
        <ele>1235.957</ele>
        <time>2018-09-12T11:36:48Z</time>
      </trkpt>
      <trkpt lat="46.551534" lon="11.579482">
        <ele>1235.400</ele>
        <time>2018-09-12T11:37:04Z</time>
      </trkpt>
      <trkpt lat="46.551315" lon="11.579550">
        <ele>1233.920</ele>
        <time>2018-09-12T11:37:08Z</time>
      </trkpt>
      <trkpt lat="46.551248" lon="11.579547">
        <ele>1233.508</ele>
        <time>2018-09-12T11:37:09Z</time>
      </trkpt>
      <trkpt lat="46.551189" lon="11.579537">
        <ele>1233.079</ele>
        <time>2018-09-12T11:37:10Z</time>
      </trkpt>
      <trkpt lat="46.551124" lon="11.579517">
        <ele>1232.561</ele>
        <time>2018-09-12T11:37:11Z</time>
      </trkpt>
      <trkpt lat="46.551059" lon="11.579484">
        <ele>1231.597</ele>
        <time>2018-09-12T11:37:12Z</time>
      </trkpt>
      <trkpt lat="46.550995" lon="11.579433">
        <ele>1231.153</ele>
        <time>2018-09-12T11:37:13Z</time>
      </trkpt>
      <trkpt lat="46.550937" lon="11.579374">
        <ele>1230.133</ele>
        <time>2018-09-12T11:37:14Z</time>
      </trkpt>
      <trkpt lat="46.550875" lon="11.579309">
        <ele>1228.763</ele>
        <time>2018-09-12T11:37:15Z</time>
      </trkpt>
      <trkpt lat="46.550343" lon="11.578808">
        <ele>1220.576</ele>
        <time>2018-09-12T11:37:23Z</time>
      </trkpt>
      <trkpt lat="46.550268" lon="11.578774">
        <ele>1219.592</ele>
        <time>2018-09-12T11:37:24Z</time>
      </trkpt>
      <trkpt lat="46.550203" lon="11.578764">
        <ele>1219.038</ele>
        <time>2018-09-12T11:37:25Z</time>
      </trkpt>
      <trkpt lat="46.550126" lon="11.578775">
        <ele>1218.170</ele>
        <time>2018-09-12T11:37:26Z</time>
      </trkpt>
      <trkpt lat="46.550046" lon="11.578811">
        <ele>1217.117</ele>
        <time>2018-09-12T11:37:27Z</time>
      </trkpt>
      <trkpt lat="46.549973" lon="11.578862">
        <ele>1216.208</ele>
        <time>2018-09-12T11:37:28Z</time>
      </trkpt>
      <trkpt lat="46.549899" lon="11.578926">
        <ele>1215.237</ele>
        <time>2018-09-12T11:37:29Z</time>
      </trkpt>
      <trkpt lat="46.549822" lon="11.578999">
        <ele>1213.819</ele>
        <time>2018-09-12T11:37:30Z</time>
      </trkpt>
      <trkpt lat="46.549654" lon="11.579129">
        <ele>1211.465</ele>
        <time>2018-09-12T11:37:32Z</time>
      </trkpt>
      <trkpt lat="46.549565" lon="11.579168">
        <ele>1210.491</ele>
        <time>2018-09-12T11:37:33Z</time>
      </trkpt>
      <trkpt lat="46.549467" lon="11.579197">
        <ele>1209.421</ele>
        <time>2018-09-12T11:37:34Z</time>
      </trkpt>
      <trkpt lat="46.548571" lon="11.579512">
        <ele>1199.391</ele>
        <time>2018-09-12T11:37:45Z</time>
      </trkpt>
      <trkpt lat="46.548219" lon="11.579725">
        <ele>1196.084</ele>
        <time>2018-09-12T11:37:50Z</time>
      </trkpt>
      <trkpt lat="46.548139" lon="11.579731">
        <ele>1195.570</ele>
        <time>2018-09-12T11:37:51Z</time>
      </trkpt>
      <trkpt lat="46.548068" lon="11.579719">
        <ele>1195.012</ele>
        <time>2018-09-12T11:37:52Z</time>
      </trkpt>
      <trkpt lat="46.548000" lon="11.579692">
        <ele>1194.532</ele>
        <time>2018-09-12T11:37:53Z</time>
      </trkpt>
      <trkpt lat="46.547938" lon="11.579658">
        <ele>1193.605</ele>
        <time>2018-09-12T11:37:54Z</time>
      </trkpt>
      <trkpt lat="46.547874" lon="11.579615">
        <ele>1193.108</ele>
        <time>2018-09-12T11:37:55Z</time>
      </trkpt>
      <trkpt lat="46.547765" lon="11.579528">
        <ele>1191.655</ele>
        <time>2018-09-12T11:37:57Z</time>
      </trkpt>
      <trkpt lat="46.547477" lon="11.579235">
        <ele>1183.097</ele>
        <time>2018-09-12T11:38:06Z</time>
      </trkpt>
      <trkpt lat="46.547446" lon="11.579113">
        <ele>1183.513</ele>
        <time>2018-09-12T11:38:18Z</time>
      </trkpt>
      <trkpt lat="46.547453" lon="11.578996">
        <ele>1183.559</ele>
        <time>2018-09-12T11:38:29Z</time>
      </trkpt>
      <trkpt lat="46.547478" lon="11.578969">
        <ele>1183.039</ele>
        <time>2018-09-12T11:38:32Z</time>
      </trkpt>
      <trkpt lat="46.547487" lon="11.578958">
        <ele>1182.079</ele>
        <time>2018-09-12T11:38:33Z</time>
      </trkpt>
      <trkpt lat="46.547551" lon="11.578815">
        <ele>1180.142</ele>
        <time>2018-09-12T11:38:44Z</time>
      </trkpt>
      <trkpt lat="46.547575" lon="11.578742">
        <ele>1181.178</ele>
        <time>2018-09-12T11:38:48Z</time>
      </trkpt>
      <trkpt lat="46.547585" lon="11.578607">
        <ele>1179.676</ele>
        <time>2018-09-12T11:38:56Z</time>
      </trkpt>
      <trkpt lat="46.547556" lon="11.578478">
        <ele>1177.790</ele>
        <time>2018-09-12T11:39:11Z</time>
      </trkpt>
      <trkpt lat="46.547560" lon="11.578457">
        <ele>1177.219</ele>
        <time>2018-09-12T11:39:12Z</time>
      </trkpt>
      <trkpt lat="46.547562" lon="11.578432">
        <ele>1177.208</ele>
        <time>2018-09-12T11:39:13Z</time>
      </trkpt>
      <trkpt lat="46.547563" lon="11.578408">
        <ele>1177.291</ele>
        <time>2018-09-12T11:39:14Z</time>
      </trkpt>
      <trkpt lat="46.547562" lon="11.578383">
        <ele>1177.223</ele>
        <time>2018-09-12T11:39:15Z</time>
      </trkpt>
      <trkpt lat="46.547555" lon="11.578102">
        <ele>1175.349</ele>
        <time>2018-09-12T11:39:27Z</time>
      </trkpt>
      <trkpt lat="46.547538" lon="11.577854">
        <ele>1173.935</ele>
        <time>2018-09-12T11:39:40Z</time>
      </trkpt>
      <trkpt lat="46.547540" lon="11.577832">
        <ele>1173.465</ele>
        <time>2018-09-12T11:39:41Z</time>
      </trkpt>
      <trkpt lat="46.547544" lon="11.577809">
        <ele>1172.975</ele>
        <time>2018-09-12T11:39:42Z</time>
      </trkpt>
      <trkpt lat="46.547546" lon="11.577788">
        <ele>1172.418</ele>
        <time>2018-09-12T11:39:43Z</time>
      </trkpt>
      <trkpt lat="46.547545" lon="11.577502">
        <ele>1168.144</ele>
        <time>2018-09-12T11:39:57Z</time>
      </trkpt>
      <trkpt lat="46.547544" lon="11.577481">
        <ele>1167.619</ele>
        <time>2018-09-12T11:39:58Z</time>
      </trkpt>
      <trkpt lat="46.547508" lon="11.577254">
        <ele>1160.909</ele>
        <time>2018-09-12T11:40:09Z</time>
      </trkpt>
      <trkpt lat="46.547482" lon="11.577033">
        <ele>1158.519</ele>
        <time>2018-09-12T11:40:19Z</time>
      </trkpt>
      <trkpt lat="46.547450" lon="11.576693">
        <ele>1156.108</ele>
        <time>2018-09-12T11:40:32Z</time>
      </trkpt>
      <trkpt lat="46.547425" lon="11.576501">
        <ele>1155.175</ele>
        <time>2018-09-12T11:40:39Z</time>
      </trkpt>
      <trkpt lat="46.547355" lon="11.576349">
        <ele>1150.387</ele>
        <time>2018-09-12T11:40:47Z</time>
      </trkpt>
      <trkpt lat="46.547347" lon="11.576332">
        <ele>1149.833</ele>
        <time>2018-09-12T11:40:48Z</time>
      </trkpt>
      <trkpt lat="46.547335" lon="11.576313">
        <ele>1149.399</ele>
        <time>2018-09-12T11:40:49Z</time>
      </trkpt>
      <trkpt lat="46.547224" lon="11.576011">
        <ele>1146.559</ele>
        <time>2018-09-12T11:41:00Z</time>
      </trkpt>
      <trkpt lat="46.547036" lon="11.575702">
        <ele>1141.259</ele>
        <time>2018-09-12T11:41:12Z</time>
      </trkpt>
      <trkpt lat="46.546945" lon="11.575660">
        <ele>1139.312</ele>
        <time>2018-09-12T11:41:14Z</time>
      </trkpt>
      <trkpt lat="46.546795" lon="11.575587">
        <ele>1138.398</ele>
        <time>2018-09-12T11:41:17Z</time>
      </trkpt>
      <trkpt lat="46.546742" lon="11.575579">
        <ele>1138.383</ele>
        <time>2018-09-12T11:41:18Z</time>
      </trkpt>
      <trkpt lat="46.546693" lon="11.575576">
        <ele>1138.325</ele>
        <time>2018-09-12T11:41:19Z</time>
      </trkpt>
      <trkpt lat="46.546648" lon="11.575574">
        <ele>1138.317</ele>
        <time>2018-09-12T11:41:20Z</time>
      </trkpt>
      <trkpt lat="46.546605" lon="11.575570">
        <ele>1137.808</ele>
        <time>2018-09-12T11:41:21Z</time>
      </trkpt>
      <trkpt lat="46.546177" lon="11.575398">
        <ele>1134.942</ele>
        <time>2018-09-12T11:41:33Z</time>
      </trkpt>
      <trkpt lat="46.545998" lon="11.575048">
        <ele>1130.194</ele>
        <time>2018-09-12T11:41:44Z</time>
      </trkpt>
      <trkpt lat="46.545894" lon="11.574773">
        <ele>1127.770</ele>
        <time>2018-09-12T11:41:51Z</time>
      </trkpt>
      <trkpt lat="46.545891" lon="11.574701">
        <ele>1126.876</ele>
        <time>2018-09-12T11:41:52Z</time>
      </trkpt>
      <trkpt lat="46.545891" lon="11.574622">
        <ele>1125.866</ele>
        <time>2018-09-12T11:41:53Z</time>
      </trkpt>
      <trkpt lat="46.545914" lon="11.573769">
        <ele>1115.236</ele>
        <time>2018-09-12T11:42:01Z</time>
      </trkpt>
      <trkpt lat="46.545908" lon="11.573545">
        <ele>1112.899</ele>
        <time>2018-09-12T11:42:03Z</time>
      </trkpt>
      <trkpt lat="46.545846" lon="11.572968">
        <ele>1106.695</ele>
        <time>2018-09-12T11:42:11Z</time>
      </trkpt>
      <trkpt lat="46.545811" lon="11.572858">
        <ele>1105.125</ele>
        <time>2018-09-12T11:42:13Z</time>
      </trkpt>
      <trkpt lat="46.545780" lon="11.572794">
        <ele>1104.226</ele>
        <time>2018-09-12T11:42:14Z</time>
      </trkpt>
      <trkpt lat="46.545744" lon="11.572737">
        <ele>1103.208</ele>
        <time>2018-09-12T11:42:15Z</time>
      </trkpt>
      <trkpt lat="46.545660" lon="11.572611">
        <ele>1102.208</ele>
        <time>2018-09-12T11:42:17Z</time>
      </trkpt>
      <trkpt lat="46.545626" lon="11.572542">
        <ele>1101.336</ele>
        <time>2018-09-12T11:42:18Z</time>
      </trkpt>
      <trkpt lat="46.545592" lon="11.572446">
        <ele>1100.318</ele>
        <time>2018-09-12T11:42:19Z</time>
      </trkpt>
      <trkpt lat="46.545461" lon="11.572034">
        <ele>1096.034</ele>
        <time>2018-09-12T11:42:23Z</time>
      </trkpt>
      <trkpt lat="46.545442" lon="11.571933">
        <ele>1095.030</ele>
        <time>2018-09-12T11:42:24Z</time>
      </trkpt>
      <trkpt lat="46.545436" lon="11.571826">
        <ele>1094.180</ele>
        <time>2018-09-12T11:42:25Z</time>
      </trkpt>
      <trkpt lat="46.545437" lon="11.571609">
        <ele>1091.220</ele>
        <time>2018-09-12T11:42:27Z</time>
      </trkpt>
      <trkpt lat="46.545420" lon="11.571511">
        <ele>1090.243</ele>
        <time>2018-09-12T11:42:28Z</time>
      </trkpt>
      <trkpt lat="46.545383" lon="11.571417">
        <ele>1088.819</ele>
        <time>2018-09-12T11:42:29Z</time>
      </trkpt>
      <trkpt lat="46.545330" lon="11.571331">
        <ele>1087.897</ele>
        <time>2018-09-12T11:42:30Z</time>
      </trkpt>
      <trkpt lat="46.545272" lon="11.571259">
        <ele>1086.423</ele>
        <time>2018-09-12T11:42:31Z</time>
      </trkpt>
      <trkpt lat="46.545213" lon="11.571192">
        <ele>1085.425</ele>
        <time>2018-09-12T11:42:32Z</time>
      </trkpt>
      <trkpt lat="46.545158" lon="11.571121">
        <ele>1084.008</ele>
        <time>2018-09-12T11:42:33Z</time>
      </trkpt>
      <trkpt lat="46.545117" lon="11.571044">
        <ele>1082.583</ele>
        <time>2018-09-12T11:42:34Z</time>
      </trkpt>
      <trkpt lat="46.545092" lon="11.570960">
        <ele>1081.625</ele>
        <time>2018-09-12T11:42:35Z</time>
      </trkpt>
      <trkpt lat="46.545092" lon="11.570869">
        <ele>1080.671</ele>
        <time>2018-09-12T11:42:36Z</time>
      </trkpt>
      <trkpt lat="46.545114" lon="11.570771">
        <ele>1079.227</ele>
        <time>2018-09-12T11:42:37Z</time>
      </trkpt>
      <trkpt lat="46.545144" lon="11.570659">
        <ele>1078.257</ele>
        <time>2018-09-12T11:42:38Z</time>
      </trkpt>
      <trkpt lat="46.545274" lon="11.570160">
        <ele>1072.037</ele>
        <time>2018-09-12T11:42:45Z</time>
      </trkpt>
      <trkpt lat="46.545285" lon="11.570138">
        <ele>1071.010</ele>
        <time>2018-09-12T11:42:46Z</time>
      </trkpt>
      <trkpt lat="46.545295" lon="11.570121">
        <ele>1071.016</ele>
        <time>2018-09-12T11:42:47Z</time>
      </trkpt>
      <trkpt lat="46.545304" lon="11.570081">
        <ele>1069.683</ele>
        <time>2018-09-12T11:42:54Z</time>
      </trkpt>
      <trkpt lat="46.545299" lon="11.570059">
        <ele>1069.125</ele>
        <time>2018-09-12T11:42:55Z</time>
      </trkpt>
      <trkpt lat="46.545283" lon="11.570051">
        <ele>1069.117</ele>
        <time>2018-09-12T11:42:56Z</time>
      </trkpt>
      <trkpt lat="46.545267" lon="11.570060">
        <ele>1069.108</ele>
        <time>2018-09-12T11:42:57Z</time>
      </trkpt>
      <trkpt lat="46.545256" lon="11.570078">
        <ele>1069.162</ele>
        <time>2018-09-12T11:42:58Z</time>
      </trkpt>
      <trkpt lat="46.545241" lon="11.570086">
        <ele>1069.624</ele>
        <time>2018-09-12T11:42:59Z</time>
      </trkpt>
      <trkpt lat="46.545225" lon="11.570085">
        <ele>1069.670</ele>
        <time>2018-09-12T11:43:00Z</time>
      </trkpt>
      <trkpt lat="46.544903" lon="11.570092">
        <ele>1067.696</ele>
        <time>2018-09-12T11:43:11Z</time>
      </trkpt>
      <trkpt lat="46.544664" lon="11.570174">
        <ele>1067.656</ele>
        <time>2018-09-12T11:43:24Z</time>
      </trkpt>
      <trkpt lat="46.544635" lon="11.570159">
        <ele>1067.646</ele>
        <time>2018-09-12T11:43:25Z</time>
      </trkpt>
      <trkpt lat="46.544612" lon="11.570143">
        <ele>1067.669</ele>
        <time>2018-09-12T11:43:26Z</time>
      </trkpt>
      <trkpt lat="46.544584" lon="11.570126">
        <ele>1067.225</ele>
        <time>2018-09-12T11:43:27Z</time>
      </trkpt>
      <trkpt lat="46.544555" lon="11.570108">
        <ele>1067.274</ele>
        <time>2018-09-12T11:43:28Z</time>
      </trkpt>
      <trkpt lat="46.544534" lon="11.570088">
        <ele>1067.256</ele>
        <time>2018-09-12T11:43:29Z</time>
      </trkpt>
      <trkpt lat="46.544520" lon="11.570073">
        <ele>1066.721</ele>
        <time>2018-09-12T11:43:30Z</time>
      </trkpt>
      <trkpt lat="46.544503" lon="11.570062">
        <ele>1066.208</ele>
        <time>2018-09-12T11:43:31Z</time>
      </trkpt>
      <trkpt lat="46.544482" lon="11.570054">
        <ele>1065.741</ele>
        <time>2018-09-12T11:43:32Z</time>
      </trkpt>
      <trkpt lat="46.544461" lon="11.570042">
        <ele>1065.223</ele>
        <time>2018-09-12T11:43:33Z</time>
      </trkpt>
      <trkpt lat="46.544440" lon="11.570029">
        <ele>1064.379</ele>
        <time>2018-09-12T11:43:34Z</time>
      </trkpt>
      <trkpt lat="46.544417" lon="11.570021">
        <ele>1063.855</ele>
        <time>2018-09-12T11:43:35Z</time>
      </trkpt>
      <trkpt lat="46.544392" lon="11.570014">
        <ele>1063.385</ele>
        <time>2018-09-12T11:43:36Z</time>
      </trkpt>
      <trkpt lat="46.544232" lon="11.569996">
        <ele>1060.485</ele>
        <time>2018-09-12T11:43:46Z</time>
      </trkpt>
      <trkpt lat="46.544217" lon="11.569957">
        <ele>1060.448</ele>
        <time>2018-09-12T11:43:58Z</time>
      </trkpt>
      <trkpt lat="46.544211" lon="11.569921">
        <ele>1059.524</ele>
        <time>2018-09-12T11:44:06Z</time>
      </trkpt>
      <trkpt lat="46.544207" lon="11.569896">
        <ele>1059.563</ele>
        <time>2018-09-12T11:44:07Z</time>
      </trkpt>
      <trkpt lat="46.544200" lon="11.569861">
        <ele>1059.544</ele>
        <time>2018-09-12T11:44:08Z</time>
      </trkpt>
      <trkpt lat="46.544198" lon="11.569819">
        <ele>1059.018</ele>
        <time>2018-09-12T11:44:09Z</time>
      </trkpt>
      <trkpt lat="46.544199" lon="11.569775">
        <ele>1059.008</ele>
        <time>2018-09-12T11:44:10Z</time>
      </trkpt>
      <trkpt lat="46.544203" lon="11.569730">
        <ele>1059.020</ele>
        <time>2018-09-12T11:44:11Z</time>
      </trkpt>
      <trkpt lat="46.544255" lon="11.569243">
        <ele>1057.582</ele>
        <time>2018-09-12T11:44:22Z</time>
      </trkpt>
      <trkpt lat="46.544310" lon="11.568967">
        <ele>1054.768</ele>
        <time>2018-09-12T11:44:27Z</time>
      </trkpt>
      <trkpt lat="46.544318" lon="11.568899">
        <ele>1054.214</ele>
        <time>2018-09-12T11:44:28Z</time>
      </trkpt>
      <trkpt lat="46.544331" lon="11.568831">
        <ele>1053.754</ele>
        <time>2018-09-12T11:44:29Z</time>
      </trkpt>
      <trkpt lat="46.544443" lon="11.568005">
        <ele>1047.454</ele>
        <time>2018-09-12T11:44:40Z</time>
      </trkpt>
      <trkpt lat="46.544442" lon="11.567936">
        <ele>1047.017</ele>
        <time>2018-09-12T11:44:41Z</time>
      </trkpt>
      <trkpt lat="46.544447" lon="11.567316">
        <ele>1043.153</ele>
        <time>2018-09-12T11:44:52Z</time>
      </trkpt>
      <trkpt lat="46.544512" lon="11.566813">
        <ele>1038.388</ele>
        <time>2018-09-12T11:45:03Z</time>
      </trkpt>
      <trkpt lat="46.544434" lon="11.566252">
        <ele>1031.624</ele>
        <time>2018-09-12T11:45:16Z</time>
      </trkpt>
      <trkpt lat="46.544365" lon="11.566072">
        <ele>1028.226</ele>
        <time>2018-09-12T11:45:27Z</time>
      </trkpt>
      <trkpt lat="46.544321" lon="11.565966">
        <ele>1026.308</ele>
        <time>2018-09-12T11:45:40Z</time>
      </trkpt>
      <trkpt lat="46.544252" lon="11.565702">
        <ele>1023.932</ele>
        <time>2018-09-12T11:45:51Z</time>
      </trkpt>
      <trkpt lat="46.544198" lon="11.565514">
        <ele>1022.944</ele>
        <time>2018-09-12T11:45:55Z</time>
      </trkpt>
      <trkpt lat="46.544054" lon="11.565173">
        <ele>1022.050</ele>
        <time>2018-09-12T11:46:01Z</time>
      </trkpt>
      <trkpt lat="46.543989" lon="11.564175">
        <ele>1022.076</ele>
        <time>2018-09-12T11:46:18Z</time>
      </trkpt>
      <trkpt lat="46.543955" lon="11.563731">
        <ele>1021.076</ele>
        <time>2018-09-12T11:46:25Z</time>
      </trkpt>
      <trkpt lat="46.543960" lon="11.563596">
        <ele>1021.086</ele>
        <time>2018-09-12T11:46:27Z</time>
      </trkpt>
      <trkpt lat="46.543969" lon="11.563527">
        <ele>1020.569</ele>
        <time>2018-09-12T11:46:28Z</time>
      </trkpt>
      <trkpt lat="46.543982" lon="11.563456">
        <ele>1020.575</ele>
        <time>2018-09-12T11:46:29Z</time>
      </trkpt>
      <trkpt lat="46.544003" lon="11.563386">
        <ele>1019.634</ele>
        <time>2018-09-12T11:46:30Z</time>
      </trkpt>
      <trkpt lat="46.544032" lon="11.563315">
        <ele>1019.155</ele>
        <time>2018-09-12T11:46:31Z</time>
      </trkpt>
      <trkpt lat="46.544067" lon="11.563242">
        <ele>1018.610</ele>
        <time>2018-09-12T11:46:32Z</time>
      </trkpt>
      <trkpt lat="46.544106" lon="11.563166">
        <ele>1018.108</ele>
        <time>2018-09-12T11:46:33Z</time>
      </trkpt>
      <trkpt lat="46.544404" lon="11.562595">
        <ele>1013.857</ele>
        <time>2018-09-12T11:46:40Z</time>
      </trkpt>
      <trkpt lat="46.544425" lon="11.562526">
        <ele>1013.819</ele>
        <time>2018-09-12T11:46:41Z</time>
      </trkpt>
      <trkpt lat="46.544439" lon="11.562464">
        <ele>1013.395</ele>
        <time>2018-09-12T11:46:42Z</time>
      </trkpt>
      <trkpt lat="46.544464" lon="11.561966">
        <ele>1012.461</ele>
        <time>2018-09-12T11:46:51Z</time>
      </trkpt>
      <trkpt lat="46.544467" lon="11.561912">
        <ele>1011.921</ele>
        <time>2018-09-12T11:46:52Z</time>
      </trkpt>
      <trkpt lat="46.544471" lon="11.561231">
        <ele>1008.051</ele>
        <time>2018-09-12T11:47:01Z</time>
      </trkpt>
      <trkpt lat="46.544473" lon="11.561149">
        <ele>1007.684</ele>
        <time>2018-09-12T11:47:02Z</time>
      </trkpt>
      <trkpt lat="46.544490" lon="11.560644">
        <ele>1006.650</ele>
        <time>2018-09-12T11:47:09Z</time>
      </trkpt>
      <trkpt lat="46.544491" lon="11.560435">
        <ele>1007.122</ele>
        <time>2018-09-12T11:47:12Z</time>
      </trkpt>
      <trkpt lat="46.544497" lon="11.560363">
        <ele>1006.662</ele>
        <time>2018-09-12T11:47:13Z</time>
      </trkpt>
      <trkpt lat="46.544506" lon="11.560302">
        <ele>1006.608</ele>
        <time>2018-09-12T11:47:14Z</time>
      </trkpt>
      <trkpt lat="46.544688" lon="11.559729">
        <ele>1004.208</ele>
        <time>2018-09-12T11:47:26Z</time>
      </trkpt>
      <trkpt lat="46.544695" lon="11.559666">
        <ele>1004.736</ele>
        <time>2018-09-12T11:47:28Z</time>
      </trkpt>
      <trkpt lat="46.544684" lon="11.559629">
        <ele>1004.738</ele>
        <time>2018-09-12T11:47:29Z</time>
      </trkpt>
      <trkpt lat="46.544671" lon="11.559600">
        <ele>1004.294</ele>
        <time>2018-09-12T11:47:30Z</time>
      </trkpt>
      <trkpt lat="46.544650" lon="11.559567">
        <ele>1004.280</ele>
        <time>2018-09-12T11:47:31Z</time>
      </trkpt>
      <trkpt lat="46.544621" lon="11.559537">
        <ele>1004.260</ele>
        <time>2018-09-12T11:47:32Z</time>
      </trkpt>
      <trkpt lat="46.544589" lon="11.559505">
        <ele>1004.210</ele>
        <time>2018-09-12T11:47:33Z</time>
      </trkpt>
      <trkpt lat="46.544417" lon="11.559311">
        <ele>1004.723</ele>
        <time>2018-09-12T11:47:38Z</time>
      </trkpt>
      <trkpt lat="46.544378" lon="11.559279">
        <ele>1004.739</ele>
        <time>2018-09-12T11:47:39Z</time>
      </trkpt>
      <trkpt lat="46.544341" lon="11.559264">
        <ele>1004.726</ele>
        <time>2018-09-12T11:47:40Z</time>
      </trkpt>
      <trkpt lat="46.544303" lon="11.559260">
        <ele>1004.247</ele>
        <time>2018-09-12T11:47:41Z</time>
      </trkpt>
      <trkpt lat="46.544262" lon="11.559261">
        <ele>1003.711</ele>
        <time>2018-09-12T11:47:42Z</time>
      </trkpt>
      <trkpt lat="46.544218" lon="11.559267">
        <ele>1003.208</ele>
        <time>2018-09-12T11:47:43Z</time>
      </trkpt>
      <trkpt lat="46.544170" lon="11.559279">
        <ele>1003.236</ele>
        <time>2018-09-12T11:47:44Z</time>
      </trkpt>
      <trkpt lat="46.544121" lon="11.559298">
        <ele>1002.788</ele>
        <time>2018-09-12T11:47:45Z</time>
      </trkpt>
      <trkpt lat="46.543426" lon="11.559611">
        <ele>996.054</ele>
        <time>2018-09-12T11:47:59Z</time>
      </trkpt>
      <trkpt lat="46.543378" lon="11.559645">
        <ele>995.510</ele>
        <time>2018-09-12T11:48:00Z</time>
      </trkpt>
      <trkpt lat="46.543334" lon="11.559689">
        <ele>994.640</ele>
        <time>2018-09-12T11:48:01Z</time>
      </trkpt>
      <trkpt lat="46.543291" lon="11.559740">
        <ele>993.630</ele>
        <time>2018-09-12T11:48:02Z</time>
      </trkpt>
      <trkpt lat="46.543248" lon="11.559792">
        <ele>993.153</ele>
        <time>2018-09-12T11:48:03Z</time>
      </trkpt>
      <trkpt lat="46.543034" lon="11.559973">
        <ele>989.369</ele>
        <time>2018-09-12T11:48:07Z</time>
      </trkpt>
      <trkpt lat="46.542973" lon="11.560001">
        <ele>988.854</ele>
        <time>2018-09-12T11:48:08Z</time>
      </trkpt>
      <trkpt lat="46.542674" lon="11.560078">
        <ele>985.056</ele>
        <time>2018-09-12T11:48:13Z</time>
      </trkpt>
      <trkpt lat="46.542620" lon="11.560066">
        <ele>984.011</ele>
        <time>2018-09-12T11:48:14Z</time>
      </trkpt>
      <trkpt lat="46.542569" lon="11.560044">
        <ele>983.508</ele>
        <time>2018-09-12T11:48:15Z</time>
      </trkpt>
      <trkpt lat="46.542519" lon="11.560010">
        <ele>982.639</ele>
        <time>2018-09-12T11:48:16Z</time>
      </trkpt>
      <trkpt lat="46.542470" lon="11.559960">
        <ele>981.631</ele>
        <time>2018-09-12T11:48:17Z</time>
      </trkpt>
      <trkpt lat="46.542424" lon="11.559910">
        <ele>980.627</ele>
        <time>2018-09-12T11:48:18Z</time>
      </trkpt>
      <trkpt lat="46.542370" lon="11.559862">
        <ele>979.753</ele>
        <time>2018-09-12T11:48:19Z</time>
      </trkpt>
      <trkpt lat="46.542304" lon="11.559821">
        <ele>978.773</ele>
        <time>2018-09-12T11:48:20Z</time>
      </trkpt>
      <trkpt lat="46.542234" lon="11.559793">
        <ele>978.213</ele>
        <time>2018-09-12T11:48:21Z</time>
      </trkpt>
      <trkpt lat="46.542157" lon="11.559780">
        <ele>977.366</ele>
        <time>2018-09-12T11:48:22Z</time>
      </trkpt>
      <trkpt lat="46.542082" lon="11.559790">
        <ele>976.872</ele>
        <time>2018-09-12T11:48:23Z</time>
      </trkpt>
      <trkpt lat="46.542009" lon="11.559811">
        <ele>976.395</ele>
        <time>2018-09-12T11:48:24Z</time>
      </trkpt>
      <trkpt lat="46.541939" lon="11.559838">
        <ele>975.849</ele>
        <time>2018-09-12T11:48:25Z</time>
      </trkpt>
      <trkpt lat="46.541739" lon="11.559913">
        <ele>975.323</ele>
        <time>2018-09-12T11:48:28Z</time>
      </trkpt>
      <trkpt lat="46.541333" lon="11.559970">
        <ele>972.508</ele>
        <time>2018-09-12T11:48:34Z</time>
      </trkpt>
      <trkpt lat="46.541269" lon="11.559944">
        <ele>972.043</ele>
        <time>2018-09-12T11:48:35Z</time>
      </trkpt>
      <trkpt lat="46.541220" lon="11.559912">
        <ele>972.025</ele>
        <time>2018-09-12T11:48:36Z</time>
      </trkpt>
      <trkpt lat="46.541185" lon="11.559882">
        <ele>972.051</ele>
        <time>2018-09-12T11:48:37Z</time>
      </trkpt>
      <trkpt lat="46.541160" lon="11.559850">
        <ele>972.057</ele>
        <time>2018-09-12T11:48:38Z</time>
      </trkpt>
      <trkpt lat="46.541147" lon="11.559804">
        <ele>972.097</ele>
        <time>2018-09-12T11:48:39Z</time>
      </trkpt>
      <trkpt lat="46.541147" lon="11.559755">
        <ele>972.017</ele>
        <time>2018-09-12T11:48:40Z</time>
      </trkpt>
      <trkpt lat="46.541148" lon="11.559706">
        <ele>972.020</ele>
        <time>2018-09-12T11:48:41Z</time>
      </trkpt>
      <trkpt lat="46.541145" lon="11.559655">
        <ele>972.026</ele>
        <time>2018-09-12T11:48:42Z</time>
      </trkpt>
      <trkpt lat="46.541140" lon="11.559605">
        <ele>972.056</ele>
        <time>2018-09-12T11:48:43Z</time>
      </trkpt>
      <trkpt lat="46.541134" lon="11.559557">
        <ele>972.059</ele>
        <time>2018-09-12T11:48:44Z</time>
      </trkpt>
      <trkpt lat="46.541128" lon="11.559506">
        <ele>972.014</ele>
        <time>2018-09-12T11:48:45Z</time>
      </trkpt>
      <trkpt lat="46.541121" lon="11.559453">
        <ele>972.008</ele>
        <time>2018-09-12T11:48:46Z</time>
      </trkpt>
      <trkpt lat="46.540909" lon="11.559096">
        <ele>972.929</ele>
        <time>2018-09-12T11:48:57Z</time>
      </trkpt>
      <trkpt lat="46.540672" lon="11.558909">
        <ele>971.531</ele>
        <time>2018-09-12T11:49:05Z</time>
      </trkpt>
      <trkpt lat="46.540634" lon="11.558869">
        <ele>971.097</ele>
        <time>2018-09-12T11:49:06Z</time>
      </trkpt>
      <trkpt lat="46.540407" lon="11.558627">
        <ele>970.183</ele>
        <time>2018-09-12T11:49:11Z</time>
      </trkpt>
      <trkpt lat="46.540361" lon="11.558571">
        <ele>969.613</ele>
        <time>2018-09-12T11:49:12Z</time>
      </trkpt>
      <trkpt lat="46.540310" lon="11.558493">
        <ele>969.663</ele>
        <time>2018-09-12T11:49:13Z</time>
      </trkpt>
      <trkpt lat="46.540277" lon="11.558432">
        <ele>969.646</ele>
        <time>2018-09-12T11:49:14Z</time>
      </trkpt>
      <trkpt lat="46.540233" lon="11.558343">
        <ele>969.162</ele>
        <time>2018-09-12T11:49:15Z</time>
      </trkpt>
      <trkpt lat="46.540029" lon="11.557947">
        <ele>970.573</ele>
        <time>2018-09-12T11:49:24Z</time>
      </trkpt>
      <trkpt lat="46.539900" lon="11.557525">
        <ele>973.985</ele>
        <time>2018-09-12T11:49:40Z</time>
      </trkpt>
      <trkpt lat="46.539777" lon="11.557232">
        <ele>976.813</ele>
        <time>2018-09-12T11:49:56Z</time>
      </trkpt>
      <trkpt lat="46.539592" lon="11.557167">
        <ele>976.808</ele>
        <time>2018-09-12T11:50:06Z</time>
      </trkpt>
      <trkpt lat="46.539582" lon="11.557143">
        <ele>977.321</ele>
        <time>2018-09-12T11:50:07Z</time>
      </trkpt>
      <trkpt lat="46.539579" lon="11.557116">
        <ele>977.333</ele>
        <time>2018-09-12T11:50:08Z</time>
      </trkpt>
      <trkpt lat="46.539582" lon="11.557095">
        <ele>976.839</ele>
        <time>2018-09-12T11:50:09Z</time>
      </trkpt>
      <trkpt lat="46.539591" lon="11.557058">
        <ele>976.815</ele>
        <time>2018-09-12T11:50:10Z</time>
      </trkpt>
      <trkpt lat="46.539600" lon="11.557020">
        <ele>976.315</ele>
        <time>2018-09-12T11:50:11Z</time>
      </trkpt>
      <trkpt lat="46.539617" lon="11.556902">
        <ele>975.315</ele>
        <time>2018-09-12T11:50:13Z</time>
      </trkpt>
      <trkpt lat="46.539616" lon="11.556831">
        <ele>974.988</ele>
        <time>2018-09-12T11:50:14Z</time>
      </trkpt>
      <trkpt lat="46.539606" lon="11.556675">
        <ele>973.964</ele>
        <time>2018-09-12T11:50:16Z</time>
      </trkpt>
      <trkpt lat="46.539585" lon="11.555987">
        <ele>969.122</ele>
        <time>2018-09-12T11:50:23Z</time>
      </trkpt>
      <trkpt lat="46.539598" lon="11.555880">
        <ele>968.662</ele>
        <time>2018-09-12T11:50:24Z</time>
      </trkpt>
      <trkpt lat="46.539845" lon="11.554731">
        <ele>964.808</ele>
        <time>2018-09-12T11:50:35Z</time>
      </trkpt>
      <trkpt lat="46.539854" lon="11.554626">
        <ele>964.308</ele>
        <time>2018-09-12T11:50:36Z</time>
      </trkpt>
      <trkpt lat="46.539853" lon="11.554310">
        <ele>963.346</ele>
        <time>2018-09-12T11:50:39Z</time>
      </trkpt>
      <trkpt lat="46.539840" lon="11.554210">
        <ele>963.348</ele>
        <time>2018-09-12T11:50:40Z</time>
      </trkpt>
      <trkpt lat="46.539823" lon="11.554111">
        <ele>962.964</ele>
        <time>2018-09-12T11:50:41Z</time>
      </trkpt>
      <trkpt lat="46.539799" lon="11.554016">
        <ele>962.470</ele>
        <time>2018-09-12T11:50:42Z</time>
      </trkpt>
      <trkpt lat="46.539769" lon="11.553926">
        <ele>961.920</ele>
        <time>2018-09-12T11:50:43Z</time>
      </trkpt>
      <trkpt lat="46.539614" lon="11.553400">
        <ele>960.070</ele>
        <time>2018-09-12T11:50:49Z</time>
      </trkpt>
      <trkpt lat="46.539240" lon="11.552368">
        <ele>957.143</ele>
        <time>2018-09-12T11:51:02Z</time>
      </trkpt>
      <trkpt lat="46.538899" lon="11.551821">
        <ele>957.129</ele>
        <time>2018-09-12T11:51:12Z</time>
      </trkpt>
      <trkpt lat="46.538860" lon="11.551781">
        <ele>957.199</ele>
        <time>2018-09-12T11:51:13Z</time>
      </trkpt>
      <trkpt lat="46.538372" lon="11.551238">
        <ele>957.107</ele>
        <time>2018-09-12T11:51:26Z</time>
      </trkpt>
      <trkpt lat="46.538337" lon="11.551190">
        <ele>957.127</ele>
        <time>2018-09-12T11:51:27Z</time>
      </trkpt>
      <trkpt lat="46.538121" lon="11.550571">
        <ele>957.108</ele>
        <time>2018-09-12T11:51:36Z</time>
      </trkpt>
      <trkpt lat="46.538219" lon="11.549997">
        <ele>958.533</ele>
        <time>2018-09-12T11:51:46Z</time>
      </trkpt>
      <trkpt lat="46.537992" lon="11.549550">
        <ele>959.515</ele>
        <time>2018-09-12T11:51:54Z</time>
      </trkpt>
      <trkpt lat="46.537958" lon="11.549495">
        <ele>960.011</ele>
        <time>2018-09-12T11:51:55Z</time>
      </trkpt>
      <trkpt lat="46.537734" lon="11.549066">
        <ele>961.427</ele>
        <time>2018-09-12T11:52:05Z</time>
      </trkpt>
      <trkpt lat="46.537441" lon="11.548424">
        <ele>962.967</ele>
        <time>2018-09-12T11:52:17Z</time>
      </trkpt>
      <trkpt lat="46.537282" lon="11.548134">
        <ele>962.427</ele>
        <time>2018-09-12T11:52:22Z</time>
      </trkpt>
      <trkpt lat="46.537257" lon="11.548078">
        <ele>961.990</ele>
        <time>2018-09-12T11:52:23Z</time>
      </trkpt>
      <trkpt lat="46.537228" lon="11.548027">
        <ele>961.976</ele>
        <time>2018-09-12T11:52:24Z</time>
      </trkpt>
      <trkpt lat="46.537034" lon="11.547873">
        <ele>963.823</ele>
        <time>2018-09-12T11:52:30Z</time>
      </trkpt>
      <trkpt lat="46.536988" lon="11.547873">
        <ele>964.383</ele>
        <time>2018-09-12T11:52:31Z</time>
      </trkpt>
      <trkpt lat="46.536942" lon="11.547874">
        <ele>964.811</ele>
        <time>2018-09-12T11:52:32Z</time>
      </trkpt>
      <trkpt lat="46.536899" lon="11.547866">
        <ele>964.808</ele>
        <time>2018-09-12T11:52:33Z</time>
      </trkpt>
      <trkpt lat="46.536858" lon="11.547851">
        <ele>965.336</ele>
        <time>2018-09-12T11:52:34Z</time>
      </trkpt>
      <trkpt lat="46.536818" lon="11.547826">
        <ele>965.318</ele>
        <time>2018-09-12T11:52:35Z</time>
      </trkpt>
      <trkpt lat="46.536783" lon="11.547795">
        <ele>965.754</ele>
        <time>2018-09-12T11:52:36Z</time>
      </trkpt>
      <trkpt lat="46.536739" lon="11.547753">
        <ele>966.260</ele>
        <time>2018-09-12T11:52:37Z</time>
      </trkpt>
      <trkpt lat="46.536645" lon="11.547663">
        <ele>966.270</ele>
        <time>2018-09-12T11:52:39Z</time>
      </trkpt>
      <trkpt lat="46.536592" lon="11.547621">
        <ele>966.740</ele>
        <time>2018-09-12T11:52:40Z</time>
      </trkpt>
      <trkpt lat="46.536537" lon="11.547584">
        <ele>966.753</ele>
        <time>2018-09-12T11:52:41Z</time>
      </trkpt>
      <trkpt lat="46.536279" lon="11.547416">
        <ele>964.359</ele>
        <time>2018-09-12T11:52:45Z</time>
      </trkpt>
      <trkpt lat="46.536223" lon="11.547357">
        <ele>963.872</ele>
        <time>2018-09-12T11:52:46Z</time>
      </trkpt>
      <trkpt lat="46.536167" lon="11.547289">
        <ele>963.313</ele>
        <time>2018-09-12T11:52:47Z</time>
      </trkpt>
      <trkpt lat="46.536110" lon="11.547210">
        <ele>962.914</ele>
        <time>2018-09-12T11:52:48Z</time>
      </trkpt>
      <trkpt lat="46.536056" lon="11.547129">
        <ele>961.908</ele>
        <time>2018-09-12T11:52:49Z</time>
      </trkpt>
      <trkpt lat="46.535956" lon="11.547005">
        <ele>960.931</ele>
        <time>2018-09-12T11:52:51Z</time>
      </trkpt>
      <trkpt lat="46.535899" lon="11.546950">
        <ele>960.493</ele>
        <time>2018-09-12T11:52:52Z</time>
      </trkpt>
      <trkpt lat="46.535848" lon="11.546902">
        <ele>959.579</ele>
        <time>2018-09-12T11:52:53Z</time>
      </trkpt>
      <trkpt lat="46.535798" lon="11.546856">
        <ele>958.565</ele>
        <time>2018-09-12T11:52:54Z</time>
      </trkpt>
      <trkpt lat="46.535744" lon="11.546814">
        <ele>958.075</ele>
        <time>2018-09-12T11:52:55Z</time>
      </trkpt>
      <trkpt lat="46.535581" lon="11.546720">
        <ele>957.665</ele>
        <time>2018-09-12T11:52:58Z</time>
      </trkpt>
      <trkpt lat="46.535539" lon="11.546704">
        <ele>958.068</ele>
        <time>2018-09-12T11:52:59Z</time>
      </trkpt>
      <trkpt lat="46.535505" lon="11.546686">
        <ele>958.564</ele>
        <time>2018-09-12T11:53:00Z</time>
      </trkpt>
      <trkpt lat="46.535250" lon="11.546305">
        <ele>958.542</ele>
        <time>2018-09-12T11:53:12Z</time>
      </trkpt>
      <trkpt lat="46.535252" lon="11.546268">
        <ele>959.022</ele>
        <time>2018-09-12T11:53:13Z</time>
      </trkpt>
      <trkpt lat="46.535246" lon="11.545759">
        <ele>963.314</ele>
        <time>2018-09-12T11:53:25Z</time>
      </trkpt>
      <trkpt lat="46.535069" lon="11.545233">
        <ele>966.708</ele>
        <time>2018-09-12T11:53:38Z</time>
      </trkpt>
      <trkpt lat="46.534844" lon="11.544654">
        <ele>967.768</ele>
        <time>2018-09-12T11:53:48Z</time>
      </trkpt>
      <trkpt lat="46.534823" lon="11.544586">
        <ele>967.780</ele>
        <time>2018-09-12T11:53:49Z</time>
      </trkpt>
      <trkpt lat="46.534803" lon="11.544523">
        <ele>967.216</ele>
        <time>2018-09-12T11:53:50Z</time>
      </trkpt>
      <trkpt lat="46.534778" lon="11.544464">
        <ele>967.232</ele>
        <time>2018-09-12T11:53:51Z</time>
      </trkpt>
      <trkpt lat="46.534752" lon="11.544410">
        <ele>966.762</ele>
        <time>2018-09-12T11:53:52Z</time>
      </trkpt>
      <trkpt lat="46.534617" lon="11.544012">
        <ele>961.972</ele>
        <time>2018-09-12T11:54:00Z</time>
      </trkpt>
      <trkpt lat="46.534628" lon="11.543946">
        <ele>961.495</ele>
        <time>2018-09-12T11:54:01Z</time>
      </trkpt>
      <trkpt lat="46.534645" lon="11.543893">
        <ele>960.921</ele>
        <time>2018-09-12T11:54:02Z</time>
      </trkpt>
      <trkpt lat="46.534662" lon="11.543855">
        <ele>960.971</ele>
        <time>2018-09-12T11:54:03Z</time>
      </trkpt>
      <trkpt lat="46.534673" lon="11.543828">
        <ele>960.941</ele>
        <time>2018-09-12T11:54:04Z</time>
      </trkpt>
      <trkpt lat="46.534769" lon="11.543411">
        <ele>953.215</ele>
        <time>2018-09-12T11:54:16Z</time>
      </trkpt>
      <trkpt lat="46.534777" lon="11.543281">
        <ele>951.808</ele>
        <time>2018-09-12T11:54:18Z</time>
      </trkpt>
      <trkpt lat="46.534774" lon="11.543064">
        <ele>950.481</ele>
        <time>2018-09-12T11:54:21Z</time>
      </trkpt>
      <trkpt lat="46.534760" lon="11.542427">
        <ele>946.553</ele>
        <time>2018-09-12T11:54:29Z</time>
      </trkpt>
      <trkpt lat="46.534748" lon="11.542351">
        <ele>946.059</ele>
        <time>2018-09-12T11:54:30Z</time>
      </trkpt>
      <trkpt lat="46.534741" lon="11.542271">
        <ele>945.535</ele>
        <time>2018-09-12T11:54:31Z</time>
      </trkpt>
      <trkpt lat="46.534734" lon="11.542193">
        <ele>945.165</ele>
        <time>2018-09-12T11:54:32Z</time>
      </trkpt>
      <trkpt lat="46.534725" lon="11.542107">
        <ele>944.685</ele>
        <time>2018-09-12T11:54:33Z</time>
      </trkpt>
      <trkpt lat="46.534710" lon="11.542017">
        <ele>944.178</ele>
        <time>2018-09-12T11:54:34Z</time>
      </trkpt>
      <trkpt lat="46.534623" lon="11.541431">
        <ele>940.794</ele>
        <time>2018-09-12T11:54:40Z</time>
      </trkpt>
      <trkpt lat="46.534599" lon="11.541335">
        <ele>940.329</ele>
        <time>2018-09-12T11:54:41Z</time>
      </trkpt>
      <trkpt lat="46.534568" lon="11.541255">
        <ele>939.300</ele>
        <time>2018-09-12T11:54:42Z</time>
      </trkpt>
      <trkpt lat="46.534528" lon="11.541186">
        <ele>938.820</ele>
        <time>2018-09-12T11:54:43Z</time>
      </trkpt>
      <trkpt lat="46.534486" lon="11.541124">
        <ele>938.308</ele>
        <time>2018-09-12T11:54:44Z</time>
      </trkpt>
      <trkpt lat="46.534343" lon="11.540867">
        <ele>936.986</ele>
        <time>2018-09-12T11:54:48Z</time>
      </trkpt>
      <trkpt lat="46.534326" lon="11.540797">
        <ele>936.418</ele>
        <time>2018-09-12T11:54:49Z</time>
      </trkpt>
      <trkpt lat="46.534319" lon="11.540727">
        <ele>935.954</ele>
        <time>2018-09-12T11:54:50Z</time>
      </trkpt>
      <trkpt lat="46.534314" lon="11.540655">
        <ele>935.910</ele>
        <time>2018-09-12T11:54:51Z</time>
      </trkpt>
      <trkpt lat="46.534312" lon="11.540592">
        <ele>935.570</ele>
        <time>2018-09-12T11:54:52Z</time>
      </trkpt>
      <trkpt lat="46.534313" lon="11.540537">
        <ele>935.580</ele>
        <time>2018-09-12T11:54:53Z</time>
      </trkpt>
      <trkpt lat="46.534307" lon="11.540475">
        <ele>935.523</ele>
        <time>2018-09-12T11:54:54Z</time>
      </trkpt>
      <trkpt lat="46.534295" lon="11.540416">
        <ele>935.079</ele>
        <time>2018-09-12T11:54:55Z</time>
      </trkpt>
      <trkpt lat="46.534212" lon="11.540045">
        <ele>935.025</ele>
        <time>2018-09-12T11:55:01Z</time>
      </trkpt>
      <trkpt lat="46.534065" lon="11.539557">
        <ele>931.626</ele>
        <time>2018-09-12T11:55:06Z</time>
      </trkpt>
      <trkpt lat="46.534004" lon="11.539300">
        <ele>930.208</ele>
        <time>2018-09-12T11:55:08Z</time>
      </trkpt>
      <trkpt lat="46.533960" lon="11.539178">
        <ele>929.708</ele>
        <time>2018-09-12T11:55:09Z</time>
      </trkpt>
      <trkpt lat="46.533910" lon="11.539070">
        <ele>930.266</ele>
        <time>2018-09-12T11:55:10Z</time>
      </trkpt>
      <trkpt lat="46.533773" lon="11.538837">
        <ele>932.168</ele>
        <time>2018-09-12T11:55:13Z</time>
      </trkpt>
      <trkpt lat="46.533726" lon="11.538786">
        <ele>932.674</ele>
        <time>2018-09-12T11:55:14Z</time>
      </trkpt>
      <trkpt lat="46.533675" lon="11.538744">
        <ele>932.670</ele>
        <time>2018-09-12T11:55:15Z</time>
      </trkpt>
      <trkpt lat="46.533624" lon="11.538709">
        <ele>932.140</ele>
        <time>2018-09-12T11:55:16Z</time>
      </trkpt>
      <trkpt lat="46.533569" lon="11.538678">
        <ele>932.140</ele>
        <time>2018-09-12T11:55:17Z</time>
      </trkpt>
      <trkpt lat="46.533510" lon="11.538655">
        <ele>931.623</ele>
        <time>2018-09-12T11:55:18Z</time>
      </trkpt>
      <trkpt lat="46.533455" lon="11.538645">
        <ele>931.689</ele>
        <time>2018-09-12T11:55:19Z</time>
      </trkpt>
      <trkpt lat="46.533399" lon="11.538641">
        <ele>931.618</ele>
        <time>2018-09-12T11:55:20Z</time>
      </trkpt>
      <trkpt lat="46.532866" lon="11.538531">
        <ele>926.898</ele>
        <time>2018-09-12T11:55:29Z</time>
      </trkpt>
      <trkpt lat="46.532814" lon="11.538497">
        <ele>925.817</ele>
        <time>2018-09-12T11:55:30Z</time>
      </trkpt>
      <trkpt lat="46.532761" lon="11.538448">
        <ele>924.908</ele>
        <time>2018-09-12T11:55:31Z</time>
      </trkpt>
      <trkpt lat="46.532715" lon="11.538391">
        <ele>924.415</ele>
        <time>2018-09-12T11:55:32Z</time>
      </trkpt>
      <trkpt lat="46.532676" lon="11.538324">
        <ele>923.457</ele>
        <time>2018-09-12T11:55:33Z</time>
      </trkpt>
      <trkpt lat="46.532646" lon="11.538245">
        <ele>923.063</ele>
        <time>2018-09-12T11:55:34Z</time>
      </trkpt>
      <trkpt lat="46.532629" lon="11.538154">
        <ele>922.589</ele>
        <time>2018-09-12T11:55:35Z</time>
      </trkpt>
      <trkpt lat="46.532623" lon="11.538061">
        <ele>922.089</ele>
        <time>2018-09-12T11:55:36Z</time>
      </trkpt>
      <trkpt lat="46.532618" lon="11.537968">
        <ele>922.029</ele>
        <time>2018-09-12T11:55:37Z</time>
      </trkpt>
      <trkpt lat="46.532608" lon="11.537878">
        <ele>921.562</ele>
        <time>2018-09-12T11:55:38Z</time>
      </trkpt>
      <trkpt lat="46.532593" lon="11.537797">
        <ele>921.588</ele>
        <time>2018-09-12T11:55:39Z</time>
      </trkpt>
      <trkpt lat="46.532571" lon="11.537721">
        <ele>921.034</ele>
        <time>2018-09-12T11:55:40Z</time>
      </trkpt>
      <trkpt lat="46.532538" lon="11.537653">
        <ele>921.055</ele>
        <time>2018-09-12T11:55:41Z</time>
      </trkpt>
      <trkpt lat="46.532497" lon="11.537595">
        <ele>920.610</ele>
        <time>2018-09-12T11:55:42Z</time>
      </trkpt>
      <trkpt lat="46.532454" lon="11.537543">
        <ele>920.608</ele>
        <time>2018-09-12T11:55:43Z</time>
      </trkpt>
      <trkpt lat="46.532411" lon="11.537493">
        <ele>920.657</ele>
        <time>2018-09-12T11:55:44Z</time>
      </trkpt>
      <trkpt lat="46.532368" lon="11.537445">
        <ele>920.189</ele>
        <time>2018-09-12T11:55:45Z</time>
      </trkpt>
      <trkpt lat="46.532322" lon="11.537406">
        <ele>920.185</ele>
        <time>2018-09-12T11:55:46Z</time>
      </trkpt>
      <trkpt lat="46.532274" lon="11.537378">
        <ele>920.141</ele>
        <time>2018-09-12T11:55:47Z</time>
      </trkpt>
      <trkpt lat="46.532225" lon="11.537362">
        <ele>920.611</ele>
        <time>2018-09-12T11:55:48Z</time>
      </trkpt>
      <trkpt lat="46.532179" lon="11.537357">
        <ele>920.641</ele>
        <time>2018-09-12T11:55:49Z</time>
      </trkpt>
      <trkpt lat="46.532134" lon="11.537355">
        <ele>921.054</ele>
        <time>2018-09-12T11:55:50Z</time>
      </trkpt>
      <trkpt lat="46.531890" lon="11.537298">
        <ele>922.510</ele>
        <time>2018-09-12T11:55:57Z</time>
      </trkpt>
      <trkpt lat="46.531882" lon="11.537271">
        <ele>923.055</ele>
        <time>2018-09-12T11:55:58Z</time>
      </trkpt>
      <trkpt lat="46.531880" lon="11.537241">
        <ele>923.407</ele>
        <time>2018-09-12T11:55:59Z</time>
      </trkpt>
      <trkpt lat="46.531881" lon="11.537208">
        <ele>923.917</ele>
        <time>2018-09-12T11:56:00Z</time>
      </trkpt>
      <trkpt lat="46.531881" lon="11.537172">
        <ele>924.408</ele>
        <time>2018-09-12T11:56:01Z</time>
      </trkpt>
      <trkpt lat="46.531889" lon="11.537137">
        <ele>924.479</ele>
        <time>2018-09-12T11:56:02Z</time>
      </trkpt>
      <trkpt lat="46.531907" lon="11.537101">
        <ele>924.471</ele>
        <time>2018-09-12T11:56:03Z</time>
      </trkpt>
      <trkpt lat="46.531931" lon="11.537071">
        <ele>923.937</ele>
        <time>2018-09-12T11:56:04Z</time>
      </trkpt>
      <trkpt lat="46.531960" lon="11.537042">
        <ele>923.973</ele>
        <time>2018-09-12T11:56:05Z</time>
      </trkpt>
      <trkpt lat="46.532080" lon="11.536887">
        <ele>922.073</ele>
        <time>2018-09-12T11:56:09Z</time>
      </trkpt>
      <trkpt lat="46.532086" lon="11.536828">
        <ele>921.543</ele>
        <time>2018-09-12T11:56:10Z</time>
      </trkpt>
      <trkpt lat="46.532077" lon="11.536766">
        <ele>921.526</ele>
        <time>2018-09-12T11:56:11Z</time>
      </trkpt>
      <trkpt lat="46.532052" lon="11.536706">
        <ele>921.062</ele>
        <time>2018-09-12T11:56:12Z</time>
      </trkpt>
      <trkpt lat="46.532015" lon="11.536650">
        <ele>920.634</ele>
        <time>2018-09-12T11:56:13Z</time>
      </trkpt>
      <trkpt lat="46.531973" lon="11.536595">
        <ele>920.655</ele>
        <time>2018-09-12T11:56:14Z</time>
      </trkpt>
      <trkpt lat="46.531896" lon="11.536478">
        <ele>919.610</ele>
        <time>2018-09-12T11:56:16Z</time>
      </trkpt>
      <trkpt lat="46.531637" lon="11.535902">
        <ele>920.608</ele>
        <time>2018-09-12T11:56:28Z</time>
      </trkpt>
      <trkpt lat="46.531618" lon="11.535537">
        <ele>930.237</ele>
        <time>2018-09-12T11:56:38Z</time>
      </trkpt>
      <trkpt lat="46.531657" lon="11.535023">
        <ele>937.959</ele>
        <time>2018-09-12T11:56:48Z</time>
      </trkpt>
      <trkpt lat="46.531641" lon="11.534501">
        <ele>944.175</ele>
        <time>2018-09-12T11:57:02Z</time>
      </trkpt>
      <trkpt lat="46.531818" lon="11.533876">
        <ele>934.531</ele>
        <time>2018-09-12T11:57:16Z</time>
      </trkpt>
      <trkpt lat="46.531903" lon="11.533459">
        <ele>927.821</ele>
        <time>2018-09-12T11:57:32Z</time>
      </trkpt>
      <trkpt lat="46.532018" lon="11.532777">
        <ele>924.931</ele>
        <time>2018-09-12T11:57:48Z</time>
      </trkpt>
      <trkpt lat="46.532198" lon="11.532296">
        <ele>926.864</ele>
        <time>2018-09-12T11:58:04Z</time>
      </trkpt>
      <trkpt lat="46.532362" lon="11.531708">
        <ele>926.820</ele>
        <time>2018-09-12T11:58:19Z</time>
      </trkpt>
      <trkpt lat="46.532678" lon="11.531265">
        <ele>927.861</ele>
        <time>2018-09-12T11:58:35Z</time>
      </trkpt>
      <trkpt lat="46.533079" lon="11.530872">
        <ele>929.221</ele>
        <time>2018-09-12T11:58:52Z</time>
      </trkpt>
      <trkpt lat="46.533404" lon="11.530714">
        <ele>930.213</ele>
        <time>2018-09-12T11:59:06Z</time>
      </trkpt>
      <trkpt lat="46.533761" lon="11.530751">
        <ele>928.708</ele>
        <time>2018-09-12T11:59:21Z</time>
      </trkpt>
      <trkpt lat="46.533771" lon="11.530742">
        <ele>927.830</ele>
        <time>2018-09-12T11:59:50Z</time>
      </trkpt>
      <trkpt lat="46.533764" lon="11.530758">
        <ele>925.432</ele>
        <time>2018-09-12T12:00:24Z</time>
      </trkpt>
      <trkpt lat="46.533763" lon="11.530759">
        <ele>925.878</ele>
        <time>2018-09-12T12:00:57Z</time>
      </trkpt>
      <trkpt lat="46.533769" lon="11.530756">
        <ele>925.414</ele>
        <time>2018-09-12T12:01:29Z</time>
      </trkpt>
      <trkpt lat="46.533792" lon="11.530758">
        <ele>925.834</ele>
        <time>2018-09-12T12:01:56Z</time>
      </trkpt>
      <trkpt lat="46.534126" lon="11.530784">
        <ele>926.334</ele>
        <time>2018-09-12T12:02:09Z</time>
      </trkpt>
      <trkpt lat="46.534537" lon="11.530596">
        <ele>927.397</ele>
        <time>2018-09-12T12:02:23Z</time>
      </trkpt>
      <trkpt lat="46.534825" lon="11.530018">
        <ele>926.813</ele>
        <time>2018-09-12T12:02:37Z</time>
      </trkpt>
      <trkpt lat="46.534840" lon="11.529896">
        <ele>926.348</ele>
        <time>2018-09-12T12:02:39Z</time>
      </trkpt>
      <trkpt lat="46.534814" lon="11.529456">
        <ele>924.461</ele>
        <time>2018-09-12T12:02:50Z</time>
      </trkpt>
      <trkpt lat="46.534808" lon="11.529445">
        <ele>924.417</ele>
        <time>2018-09-12T12:03:15Z</time>
      </trkpt>
      <trkpt lat="46.534647" lon="11.528899">
        <ele>923.008</ele>
        <time>2018-09-12T12:03:28Z</time>
      </trkpt>
      <trkpt lat="46.534428" lon="11.528212">
        <ele>921.528</ele>
        <time>2018-09-12T12:03:42Z</time>
      </trkpt>
      <trkpt lat="46.534427" lon="11.527966">
        <ele>919.660</ele>
        <time>2018-09-12T12:03:48Z</time>
      </trkpt>
      <trkpt lat="46.534413" lon="11.527674">
        <ele>917.236</ele>
        <time>2018-09-12T12:03:52Z</time>
      </trkpt>
      <trkpt lat="46.534469" lon="11.527207">
        <ele>914.352</ele>
        <time>2018-09-12T12:03:57Z</time>
      </trkpt>
      <trkpt lat="46.534500" lon="11.527115">
        <ele>913.382</ele>
        <time>2018-09-12T12:03:58Z</time>
      </trkpt>
      <trkpt lat="46.534541" lon="11.527043">
        <ele>912.432</ele>
        <time>2018-09-12T12:03:59Z</time>
      </trkpt>
      <trkpt lat="46.534590" lon="11.526983">
        <ele>911.975</ele>
        <time>2018-09-12T12:04:00Z</time>
      </trkpt>
      <trkpt lat="46.534653" lon="11.526920">
        <ele>910.911</ele>
        <time>2018-09-12T12:04:01Z</time>
      </trkpt>
      <trkpt lat="46.534704" lon="11.526875">
        <ele>910.581</ele>
        <time>2018-09-12T12:04:02Z</time>
      </trkpt>
      <trkpt lat="46.535219" lon="11.526367">
        <ele>909.061</ele>
        <time>2018-09-12T12:04:14Z</time>
      </trkpt>
      <trkpt lat="46.535434" lon="11.525840">
        <ele>909.017</ele>
        <time>2018-09-12T12:04:31Z</time>
      </trkpt>
      <trkpt lat="46.535609" lon="11.525284">
        <ele>910.508</ele>
        <time>2018-09-12T12:04:47Z</time>
      </trkpt>
      <trkpt lat="46.535750" lon="11.524656">
        <ele>908.582</ele>
        <time>2018-09-12T12:05:00Z</time>
      </trkpt>
      <trkpt lat="46.535935" lon="11.523823">
        <ele>908.194</ele>
        <time>2018-09-12T12:05:12Z</time>
      </trkpt>
      <trkpt lat="46.535938" lon="11.523760">
        <ele>908.150</ele>
        <time>2018-09-12T12:05:13Z</time>
      </trkpt>
      <trkpt lat="46.535935" lon="11.523702">
        <ele>908.516</ele>
        <time>2018-09-12T12:05:14Z</time>
      </trkpt>
      <trkpt lat="46.535928" lon="11.523638">
        <ele>909.056</ele>
        <time>2018-09-12T12:05:15Z</time>
      </trkpt>
      <trkpt lat="46.535918" lon="11.523569">
        <ele>909.036</ele>
        <time>2018-09-12T12:05:16Z</time>
      </trkpt>
      <trkpt lat="46.535888" lon="11.523428">
        <ele>909.039</ele>
        <time>2018-09-12T12:05:18Z</time>
      </trkpt>
      <trkpt lat="46.535790" lon="11.523069">
        <ele>909.065</ele>
        <time>2018-09-12T12:05:23Z</time>
      </trkpt>
      <trkpt lat="46.535781" lon="11.522994">
        <ele>909.098</ele>
        <time>2018-09-12T12:05:24Z</time>
      </trkpt>
      <trkpt lat="46.535779" lon="11.522920">
        <ele>909.515</ele>
        <time>2018-09-12T12:05:25Z</time>
      </trkpt>
      <trkpt lat="46.535783" lon="11.522841">
        <ele>909.526</ele>
        <time>2018-09-12T12:05:26Z</time>
      </trkpt>
      <trkpt lat="46.535792" lon="11.522767">
        <ele>909.008</ele>
        <time>2018-09-12T12:05:27Z</time>
      </trkpt>
      <trkpt lat="46.535856" lon="11.521866">
        <ele>909.043</ele>
        <time>2018-09-12T12:05:41Z</time>
      </trkpt>
      <trkpt lat="46.535785" lon="11.521217">
        <ele>908.165</ele>
        <time>2018-09-12T12:05:51Z</time>
      </trkpt>
      <trkpt lat="46.535792" lon="11.521163">
        <ele>908.121</ele>
        <time>2018-09-12T12:05:52Z</time>
      </trkpt>
      <trkpt lat="46.535800" lon="11.521111">
        <ele>908.167</ele>
        <time>2018-09-12T12:05:53Z</time>
      </trkpt>
      <trkpt lat="46.535890" lon="11.520503">
        <ele>906.637</ele>
        <time>2018-09-12T12:06:06Z</time>
      </trkpt>
      <trkpt lat="46.535838" lon="11.520206">
        <ele>904.717</ele>
        <time>2018-09-12T12:06:13Z</time>
      </trkpt>
      <trkpt lat="46.535626" lon="11.519454">
        <ele>901.350</ele>
        <time>2018-09-12T12:06:26Z</time>
      </trkpt>
      <trkpt lat="46.535565" lon="11.519299">
        <ele>900.876</ele>
        <time>2018-09-12T12:06:29Z</time>
      </trkpt>
      <trkpt lat="46.535486" lon="11.519028">
        <ele>899.443</ele>
        <time>2018-09-12T12:06:33Z</time>
      </trkpt>
      <trkpt lat="46.535450" lon="11.518886">
        <ele>898.464</ele>
        <time>2018-09-12T12:06:35Z</time>
      </trkpt>
      <trkpt lat="46.535428" lon="11.518829">
        <ele>898.410</ele>
        <time>2018-09-12T12:06:36Z</time>
      </trkpt>
      <trkpt lat="46.535402" lon="11.518776">
        <ele>898.008</ele>
        <time>2018-09-12T12:06:37Z</time>
      </trkpt>
      <trkpt lat="46.535372" lon="11.518729">
        <ele>897.568</ele>
        <time>2018-09-12T12:06:38Z</time>
      </trkpt>
      <trkpt lat="46.535336" lon="11.518687">
        <ele>897.050</ele>
        <time>2018-09-12T12:06:39Z</time>
      </trkpt>
      <trkpt lat="46.535296" lon="11.518648">
        <ele>896.556</ele>
        <time>2018-09-12T12:06:40Z</time>
      </trkpt>
      <trkpt lat="46.535249" lon="11.518613">
        <ele>896.062</ele>
        <time>2018-09-12T12:06:41Z</time>
      </trkpt>
      <trkpt lat="46.535196" lon="11.518589">
        <ele>895.612</ele>
        <time>2018-09-12T12:06:42Z</time>
      </trkpt>
      <trkpt lat="46.535143" lon="11.518571">
        <ele>895.182</ele>
        <time>2018-09-12T12:06:43Z</time>
      </trkpt>
      <trkpt lat="46.534940" lon="11.518465">
        <ele>893.295</ele>
        <time>2018-09-12T12:06:47Z</time>
      </trkpt>
      <trkpt lat="46.534901" lon="11.518424">
        <ele>893.221</ele>
        <time>2018-09-12T12:06:48Z</time>
      </trkpt>
      <trkpt lat="46.534867" lon="11.518379">
        <ele>892.738</ele>
        <time>2018-09-12T12:06:49Z</time>
      </trkpt>
      <trkpt lat="46.534832" lon="11.518329">
        <ele>892.270</ele>
        <time>2018-09-12T12:06:50Z</time>
      </trkpt>
      <trkpt lat="46.534792" lon="11.518276">
        <ele>892.217</ele>
        <time>2018-09-12T12:06:51Z</time>
      </trkpt>
      <trkpt lat="46.534753" lon="11.518220">
        <ele>892.208</ele>
        <time>2018-09-12T12:06:52Z</time>
      </trkpt>
      <trkpt lat="46.534627" lon="11.517990">
        <ele>890.877</ele>
        <time>2018-09-12T12:06:56Z</time>
      </trkpt>
      <trkpt lat="46.534500" lon="11.517774">
        <ele>889.399</ele>
        <time>2018-09-12T12:07:00Z</time>
      </trkpt>
      <trkpt lat="46.534464" lon="11.517727">
        <ele>888.855</ele>
        <time>2018-09-12T12:07:01Z</time>
      </trkpt>
      <trkpt lat="46.534375" lon="11.517623">
        <ele>888.411</ele>
        <time>2018-09-12T12:07:03Z</time>
      </trkpt>
      <trkpt lat="46.534319" lon="11.517574">
        <ele>888.441</ele>
        <time>2018-09-12T12:07:04Z</time>
      </trkpt>
      <trkpt lat="46.534258" lon="11.517538">
        <ele>888.481</ele>
        <time>2018-09-12T12:07:05Z</time>
      </trkpt>
      <trkpt lat="46.534193" lon="11.517512">
        <ele>888.494</ele>
        <time>2018-09-12T12:07:06Z</time>
      </trkpt>
      <trkpt lat="46.534130" lon="11.517502">
        <ele>888.850</ele>
        <time>2018-09-12T12:07:07Z</time>
      </trkpt>
      <trkpt lat="46.534072" lon="11.517508">
        <ele>888.875</ele>
        <time>2018-09-12T12:07:08Z</time>
      </trkpt>
      <trkpt lat="46.534019" lon="11.517517">
        <ele>889.328</ele>
        <time>2018-09-12T12:07:09Z</time>
      </trkpt>
      <trkpt lat="46.533975" lon="11.517507">
        <ele>889.320</ele>
        <time>2018-09-12T12:07:10Z</time>
      </trkpt>
      <trkpt lat="46.533950" lon="11.517483">
        <ele>889.808</ele>
        <time>2018-09-12T12:07:11Z</time>
      </trkpt>
      <trkpt lat="46.533928" lon="11.517451">
        <ele>889.851</ele>
        <time>2018-09-12T12:07:12Z</time>
      </trkpt>
      <trkpt lat="46.533921" lon="11.517429">
        <ele>890.383</ele>
        <time>2018-09-12T12:07:13Z</time>
      </trkpt>
      <trkpt lat="46.533916" lon="11.517401">
        <ele>890.889</ele>
        <time>2018-09-12T12:07:14Z</time>
      </trkpt>
      <trkpt lat="46.533911" lon="11.517375">
        <ele>891.215</ele>
        <time>2018-09-12T12:07:15Z</time>
      </trkpt>
      <trkpt lat="46.533907" lon="11.517349">
        <ele>891.715</ele>
        <time>2018-09-12T12:07:16Z</time>
      </trkpt>
      <trkpt lat="46.533908" lon="11.517331">
        <ele>892.235</ele>
        <time>2018-09-12T12:07:17Z</time>
      </trkpt>
      <trkpt lat="46.533912" lon="11.517311">
        <ele>893.258</ele>
        <time>2018-09-12T12:07:18Z</time>
      </trkpt>
      <trkpt lat="46.534009" lon="11.516986">
        <ele>899.984</ele>
        <time>2018-09-12T12:07:30Z</time>
      </trkpt>
      <trkpt lat="46.533856" lon="11.516705">
        <ele>901.893</ele>
        <time>2018-09-12T12:07:40Z</time>
      </trkpt>
      <trkpt lat="46.533688" lon="11.516479">
        <ele>908.165</ele>
        <time>2018-09-12T12:07:53Z</time>
      </trkpt>
      <trkpt lat="46.533532" lon="11.516264">
        <ele>911.921</ele>
        <time>2018-09-12T12:08:06Z</time>
      </trkpt>
      <trkpt lat="46.533423" lon="11.515943">
        <ele>910.508</ele>
        <time>2018-09-12T12:08:16Z</time>
      </trkpt>
      <trkpt lat="46.533282" lon="11.515569">
        <ele>912.453</ele>
        <time>2018-09-12T12:08:29Z</time>
      </trkpt>
      <trkpt lat="46.533021" lon="11.515222">
        <ele>919.665</ele>
        <time>2018-09-12T12:08:43Z</time>
      </trkpt>
      <trkpt lat="46.532606" lon="11.514772">
        <ele>922.071</ele>
        <time>2018-09-12T12:08:54Z</time>
      </trkpt>
      <trkpt lat="46.532524" lon="11.514683">
        <ele>922.087</ele>
        <time>2018-09-12T12:08:56Z</time>
      </trkpt>
      <trkpt lat="46.532304" lon="11.514508">
        <ele>920.177</ele>
        <time>2018-09-12T12:09:00Z</time>
      </trkpt>
      <trkpt lat="46.531885" lon="11.514030">
        <ele>913.877</ele>
        <time>2018-09-12T12:09:08Z</time>
      </trkpt>
      <trkpt lat="46.531815" lon="11.513907">
        <ele>912.410</ele>
        <time>2018-09-12T12:09:10Z</time>
      </trkpt>
      <trkpt lat="46.531528" lon="11.513310">
        <ele>904.216</ele>
        <time>2018-09-12T12:09:22Z</time>
      </trkpt>
      <trkpt lat="46.531163" lon="11.512982">
        <ele>902.839</ele>
        <time>2018-09-12T12:09:31Z</time>
      </trkpt>
      <trkpt lat="46.531108" lon="11.512965">
        <ele>902.801</ele>
        <time>2018-09-12T12:09:32Z</time>
      </trkpt>
      <trkpt lat="46.530899" lon="11.512915">
        <ele>902.821</ele>
        <time>2018-09-12T12:09:36Z</time>
      </trkpt>
      <trkpt lat="46.530855" lon="11.512888">
        <ele>902.808</ele>
        <time>2018-09-12T12:09:37Z</time>
      </trkpt>
      <trkpt lat="46.530814" lon="11.512853">
        <ele>902.347</ele>
        <time>2018-09-12T12:09:38Z</time>
      </trkpt>
      <trkpt lat="46.530773" lon="11.512803">
        <ele>901.829</ele>
        <time>2018-09-12T12:09:39Z</time>
      </trkpt>
      <trkpt lat="46.530732" lon="11.512742">
        <ele>901.355</ele>
        <time>2018-09-12T12:09:40Z</time>
      </trkpt>
      <trkpt lat="46.530695" lon="11.512678">
        <ele>900.871</ele>
        <time>2018-09-12T12:09:41Z</time>
      </trkpt>
      <trkpt lat="46.530658" lon="11.512618">
        <ele>899.911</ele>
        <time>2018-09-12T12:09:42Z</time>
      </trkpt>
      <trkpt lat="46.530626" lon="11.512565">
        <ele>899.411</ele>
        <time>2018-09-12T12:09:43Z</time>
      </trkpt>
      <trkpt lat="46.530600" lon="11.512508">
        <ele>898.424</ele>
        <time>2018-09-12T12:09:44Z</time>
      </trkpt>
      <trkpt lat="46.530579" lon="11.512440">
        <ele>896.560</ele>
        <time>2018-09-12T12:09:45Z</time>
      </trkpt>
      <trkpt lat="46.530562" lon="11.512368">
        <ele>894.674</ele>
        <time>2018-09-12T12:09:46Z</time>
      </trkpt>
      <trkpt lat="46.530540" lon="11.512295">
        <ele>892.256</ele>
        <time>2018-09-12T12:09:47Z</time>
      </trkpt>
      <trkpt lat="46.530513" lon="11.512228">
        <ele>891.221</ele>
        <time>2018-09-12T12:09:48Z</time>
      </trkpt>
      <trkpt lat="46.530482" lon="11.512150">
        <ele>890.308</ele>
        <time>2018-09-12T12:09:49Z</time>
      </trkpt>
      <trkpt lat="46.530451" lon="11.512070">
        <ele>889.341</ele>
        <time>2018-09-12T12:09:50Z</time>
      </trkpt>
      <trkpt lat="46.530418" lon="11.511984">
        <ele>888.483</ele>
        <time>2018-09-12T12:09:51Z</time>
      </trkpt>
      <trkpt lat="46.530341" lon="11.511818">
        <ele>886.929</ele>
        <time>2018-09-12T12:09:53Z</time>
      </trkpt>
      <trkpt lat="46.530294" lon="11.511745">
        <ele>885.935</ele>
        <time>2018-09-12T12:09:54Z</time>
      </trkpt>
      <trkpt lat="46.530240" lon="11.511680">
        <ele>885.545</ele>
        <time>2018-09-12T12:09:55Z</time>
      </trkpt>
      <trkpt lat="46.530181" lon="11.511623">
        <ele>885.085</ele>
        <time>2018-09-12T12:09:56Z</time>
      </trkpt>
      <trkpt lat="46.530119" lon="11.511586">
        <ele>885.078</ele>
        <time>2018-09-12T12:09:57Z</time>
      </trkpt>
      <trkpt lat="46.530069" lon="11.511571">
        <ele>885.024</ele>
        <time>2018-09-12T12:09:58Z</time>
      </trkpt>
      <trkpt lat="46.530016" lon="11.511563">
        <ele>885.014</ele>
        <time>2018-09-12T12:09:59Z</time>
      </trkpt>
      <trkpt lat="46.529968" lon="11.511567">
        <ele>885.054</ele>
        <time>2018-09-12T12:10:00Z</time>
      </trkpt>
      <trkpt lat="46.529921" lon="11.511578">
        <ele>885.009</ele>
        <time>2018-09-12T12:10:01Z</time>
      </trkpt>
      <trkpt lat="46.529876" lon="11.511592">
        <ele>885.008</ele>
        <time>2018-09-12T12:10:02Z</time>
      </trkpt>
      <trkpt lat="46.529751" lon="11.511636">
        <ele>884.065</ele>
        <time>2018-09-12T12:10:05Z</time>
      </trkpt>
      <trkpt lat="46.529383" lon="11.511590">
        <ele>878.767</ele>
        <time>2018-09-12T12:10:17Z</time>
      </trkpt>
      <trkpt lat="46.529344" lon="11.511556">
        <ele>877.843</ele>
        <time>2018-09-12T12:10:18Z</time>
      </trkpt>
      <trkpt lat="46.529301" lon="11.511506">
        <ele>877.349</ele>
        <time>2018-09-12T12:10:19Z</time>
      </trkpt>
      <trkpt lat="46.528741" lon="11.510711">
        <ele>870.179</ele>
        <time>2018-09-12T12:10:29Z</time>
      </trkpt>
      <trkpt lat="46.527625" lon="11.509420">
        <ele>863.479</ele>
        <time>2018-09-12T12:10:44Z</time>
      </trkpt>
      <trkpt lat="46.527391" lon="11.509182">
        <ele>865.892</ele>
        <time>2018-09-12T12:10:48Z</time>
      </trkpt>
      <trkpt lat="46.527339" lon="11.509145">
        <ele>866.238</ele>
        <time>2018-09-12T12:10:49Z</time>
      </trkpt>
      <trkpt lat="46.527290" lon="11.509120">
        <ele>867.246</ele>
        <time>2018-09-12T12:10:50Z</time>
      </trkpt>
      <trkpt lat="46.527013" lon="11.508974">
        <ele>869.188</ele>
        <time>2018-09-12T12:11:01Z</time>
      </trkpt>
      <trkpt lat="46.526641" lon="11.508830">
        <ele>871.016</ele>
        <time>2018-09-12T12:11:20Z</time>
      </trkpt>
      <trkpt lat="46.526394" lon="11.508726">
        <ele>873.508</ele>
        <time>2018-09-12T12:11:36Z</time>
      </trkpt>
      <trkpt lat="46.526153" lon="11.508534">
        <ele>876.848</ele>
        <time>2018-09-12T12:11:53Z</time>
      </trkpt>
      <trkpt lat="46.525931" lon="11.508288">
        <ele>878.750</ele>
        <time>2018-09-12T12:12:11Z</time>
      </trkpt>
      <trkpt lat="46.525696" lon="11.508141">
        <ele>880.246</ele>
        <time>2018-09-12T12:12:27Z</time>
      </trkpt>
      <trkpt lat="46.525401" lon="11.508164">
        <ele>881.182</ele>
        <time>2018-09-12T12:12:45Z</time>
      </trkpt>
      <trkpt lat="46.525260" lon="11.508199">
        <ele>881.122</ele>
        <time>2018-09-12T12:12:54Z</time>
      </trkpt>
      <trkpt lat="46.525248" lon="11.508205">
        <ele>881.112</ele>
        <time>2018-09-12T12:12:55Z</time>
      </trkpt>
      <trkpt lat="46.525220" lon="11.508198">
        <ele>880.235</ele>
        <time>2018-09-12T12:13:07Z</time>
      </trkpt>
      <trkpt lat="46.525207" lon="11.508188">
        <ele>880.791</ele>
        <time>2018-09-12T12:13:08Z</time>
      </trkpt>
      <trkpt lat="46.525191" lon="11.508175">
        <ele>880.766</ele>
        <time>2018-09-12T12:13:09Z</time>
      </trkpt>
      <trkpt lat="46.525175" lon="11.508156">
        <ele>880.729</ele>
        <time>2018-09-12T12:13:10Z</time>
      </trkpt>
      <trkpt lat="46.525161" lon="11.508133">
        <ele>880.721</ele>
        <time>2018-09-12T12:13:11Z</time>
      </trkpt>
      <trkpt lat="46.525005" lon="11.507996">
        <ele>879.708</ele>
        <time>2018-09-12T12:13:23Z</time>
      </trkpt>
      <trkpt lat="46.524973" lon="11.508011">
        <ele>879.720</ele>
        <time>2018-09-12T12:13:34Z</time>
      </trkpt>
      <trkpt lat="46.524916" lon="11.507939">
        <ele>876.832</ele>
        <time>2018-09-12T12:14:54Z</time>
      </trkpt>
      <trkpt lat="46.524892" lon="11.507911">
        <ele>876.898</ele>
        <time>2018-09-12T12:14:55Z</time>
      </trkpt>
      <trkpt lat="46.524861" lon="11.507881">
        <ele>876.814</ele>
        <time>2018-09-12T12:14:56Z</time>
      </trkpt>
      <trkpt lat="46.524791" lon="11.507796">
        <ele>876.344</ele>
        <time>2018-09-12T12:14:58Z</time>
      </trkpt>
      <trkpt lat="46.524757" lon="11.507737">
        <ele>876.344</ele>
        <time>2018-09-12T12:14:59Z</time>
      </trkpt>
      <trkpt lat="46.524729" lon="11.507674">
        <ele>875.967</ele>
        <time>2018-09-12T12:15:00Z</time>
      </trkpt>
      <trkpt lat="46.524677" lon="11.507533">
        <ele>874.943</ele>
        <time>2018-09-12T12:15:02Z</time>
      </trkpt>
      <trkpt lat="46.524662" lon="11.507452">
        <ele>874.989</ele>
        <time>2018-09-12T12:15:03Z</time>
      </trkpt>
      <trkpt lat="46.524632" lon="11.507279">
        <ele>873.506</ele>
        <time>2018-09-12T12:15:05Z</time>
      </trkpt>
      <trkpt lat="46.524607" lon="11.507190">
        <ele>873.026</ele>
        <time>2018-09-12T12:15:06Z</time>
      </trkpt>
      <trkpt lat="46.524576" lon="11.507107">
        <ele>872.508</ele>
        <time>2018-09-12T12:15:07Z</time>
      </trkpt>
      <trkpt lat="46.524537" lon="11.507024">
        <ele>872.042</ele>
        <time>2018-09-12T12:15:08Z</time>
      </trkpt>
      <trkpt lat="46.524487" lon="11.506950">
        <ele>871.564</ele>
        <time>2018-09-12T12:15:09Z</time>
      </trkpt>
      <trkpt lat="46.524426" lon="11.506893">
        <ele>870.680</ele>
        <time>2018-09-12T12:15:10Z</time>
      </trkpt>
      <trkpt lat="46.524353" lon="11.506853">
        <ele>870.146</ele>
        <time>2018-09-12T12:15:11Z</time>
      </trkpt>
      <trkpt lat="46.524278" lon="11.506832">
        <ele>869.146</ele>
        <time>2018-09-12T12:15:12Z</time>
      </trkpt>
      <trkpt lat="46.524195" lon="11.506821">
        <ele>868.266</ele>
        <time>2018-09-12T12:15:13Z</time>
      </trkpt>
      <trkpt lat="46.524117" lon="11.506818">
        <ele>867.239</ele>
        <time>2018-09-12T12:15:14Z</time>
      </trkpt>
      <trkpt lat="46.523493" lon="11.506828">
        <ele>862.485</ele>
        <time>2018-09-12T12:15:22Z</time>
      </trkpt>
      <trkpt lat="46.523449" lon="11.506844">
        <ele>862.454</ele>
        <time>2018-09-12T12:15:23Z</time>
      </trkpt>
      <trkpt lat="46.523425" lon="11.506858">
        <ele>861.956</ele>
        <time>2018-09-12T12:15:24Z</time>
      </trkpt>
      <trkpt lat="46.523413" lon="11.506867">
        <ele>861.411</ele>
        <time>2018-09-12T12:15:25Z</time>
      </trkpt>
      <trkpt lat="46.523401" lon="11.506873">
        <ele>861.408</ele>
        <time>2018-09-12T12:15:26Z</time>
      </trkpt>
      <trkpt lat="46.523389" lon="11.506878">
        <ele>861.029</ele>
        <time>2018-09-12T12:15:27Z</time>
      </trkpt>
      <trkpt lat="46.523371" lon="11.506888">
        <ele>861.071</ele>
        <time>2018-09-12T12:15:28Z</time>
      </trkpt>
      <trkpt lat="46.523352" lon="11.506911">
        <ele>860.577</ele>
        <time>2018-09-12T12:15:29Z</time>
      </trkpt>
      <trkpt lat="46.523344" lon="11.506948">
        <ele>860.013</ele>
        <time>2018-09-12T12:15:30Z</time>
      </trkpt>
      <trkpt lat="46.523344" lon="11.506989">
        <ele>859.553</ele>
        <time>2018-09-12T12:15:31Z</time>
      </trkpt>
      <trkpt lat="46.523317" lon="11.507137">
        <ele>858.173</ele>
        <time>2018-09-12T12:15:34Z</time>
      </trkpt>
      <trkpt lat="46.523140" lon="11.507854">
        <ele>852.856</ele>
        <time>2018-09-12T12:15:42Z</time>
      </trkpt>
      <trkpt lat="46.523105" lon="11.507950">
        <ele>852.312</ele>
        <time>2018-09-12T12:15:43Z</time>
      </trkpt>
      <trkpt lat="46.523068" lon="11.508030">
        <ele>851.322</ele>
        <time>2018-09-12T12:15:44Z</time>
      </trkpt>
      <trkpt lat="46.523029" lon="11.508082">
        <ele>850.962</ele>
        <time>2018-09-12T12:15:45Z</time>
      </trkpt>
      <trkpt lat="46.522995" lon="11.508098">
        <ele>850.408</ele>
        <time>2018-09-12T12:15:46Z</time>
      </trkpt>
      <trkpt lat="46.522975" lon="11.508089">
        <ele>849.908</ele>
        <time>2018-09-12T12:15:47Z</time>
      </trkpt>
      <trkpt lat="46.522963" lon="11.508080">
        <ele>849.956</ele>
        <time>2018-09-12T12:15:48Z</time>
      </trkpt>
      <trkpt lat="46.522942" lon="11.508081">
        <ele>850.458</ele>
        <time>2018-09-12T12:15:59Z</time>
      </trkpt>
      <trkpt lat="46.522938" lon="11.508085">
        <ele>850.434</ele>
        <time>2018-09-12T12:16:01Z</time>
      </trkpt>
      <trkpt lat="46.522929" lon="11.508097">
        <ele>850.470</ele>
        <time>2018-09-12T12:16:02Z</time>
      </trkpt>
      <trkpt lat="46.522920" lon="11.508116">
        <ele>850.420</ele>
        <time>2018-09-12T12:16:03Z</time>
      </trkpt>
      <trkpt lat="46.522911" lon="11.508142">
        <ele>850.420</ele>
        <time>2018-09-12T12:16:04Z</time>
      </trkpt>
      <trkpt lat="46.522901" lon="11.508170">
        <ele>850.433</ele>
        <time>2018-09-12T12:16:05Z</time>
      </trkpt>
      <trkpt lat="46.522887" lon="11.508196">
        <ele>849.939</ele>
        <time>2018-09-12T12:16:06Z</time>
      </trkpt>
      <trkpt lat="46.522871" lon="11.508218">
        <ele>849.989</ele>
        <time>2018-09-12T12:16:07Z</time>
      </trkpt>
      <trkpt lat="46.522853" lon="11.508232">
        <ele>849.906</ele>
        <time>2018-09-12T12:16:08Z</time>
      </trkpt>
      <trkpt lat="46.522837" lon="11.508241">
        <ele>849.926</ele>
        <time>2018-09-12T12:16:09Z</time>
      </trkpt>
      <trkpt lat="46.522822" lon="11.508243">
        <ele>849.908</ele>
        <time>2018-09-12T12:16:10Z</time>
      </trkpt>
      <trkpt lat="46.522805" lon="11.508240">
        <ele>849.922</ele>
        <time>2018-09-12T12:16:11Z</time>
      </trkpt>
      <trkpt lat="46.522785" lon="11.508231">
        <ele>849.924</ele>
        <time>2018-09-12T12:16:12Z</time>
      </trkpt>
      <trkpt lat="46.522758" lon="11.508215">
        <ele>849.960</ele>
        <time>2018-09-12T12:16:13Z</time>
      </trkpt>
      <trkpt lat="46.522729" lon="11.508191">
        <ele>849.446</ele>
        <time>2018-09-12T12:16:14Z</time>
      </trkpt>
      <trkpt lat="46.522698" lon="11.508160">
        <ele>849.426</ele>
        <time>2018-09-12T12:16:15Z</time>
      </trkpt>
      <trkpt lat="46.522201" lon="11.507716">
        <ele>848.556</ele>
        <time>2018-09-12T12:16:29Z</time>
      </trkpt>
      <trkpt lat="46.521737" lon="11.507244">
        <ele>848.959</ele>
        <time>2018-09-12T12:16:44Z</time>
      </trkpt>
      <trkpt lat="46.521493" lon="11.506972">
        <ele>851.345</ele>
        <time>2018-09-12T12:16:57Z</time>
      </trkpt>
      <trkpt lat="46.521432" lon="11.506885">
        <ele>853.385</ele>
        <time>2018-09-12T12:17:03Z</time>
      </trkpt>
      <trkpt lat="46.521424" lon="11.506872">
        <ele>853.389</ele>
        <time>2018-09-12T12:17:04Z</time>
      </trkpt>
      <trkpt lat="46.521415" lon="11.506863">
        <ele>853.317</ele>
        <time>2018-09-12T12:17:05Z</time>
      </trkpt>
      <trkpt lat="46.521406" lon="11.506852">
        <ele>853.708</ele>
        <time>2018-09-12T12:17:06Z</time>
      </trkpt>
      <trkpt lat="46.521398" lon="11.506839">
        <ele>853.732</ele>
        <time>2018-09-12T12:17:07Z</time>
      </trkpt>
      <trkpt lat="46.521391" lon="11.506826">
        <ele>853.794</ele>
        <time>2018-09-12T12:17:08Z</time>
      </trkpt>
      <trkpt lat="46.521381" lon="11.506815">
        <ele>853.720</ele>
        <time>2018-09-12T12:17:09Z</time>
      </trkpt>
      <trkpt lat="46.521370" lon="11.506803">
        <ele>854.256</ele>
        <time>2018-09-12T12:17:10Z</time>
      </trkpt>
      <trkpt lat="46.521215" lon="11.506648">
        <ele>856.136</ele>
        <time>2018-09-12T12:17:25Z</time>
      </trkpt>
      <trkpt lat="46.520972" lon="11.506390">
        <ele>858.126</ele>
        <time>2018-09-12T12:17:40Z</time>
      </trkpt>
      <trkpt lat="46.520575" lon="11.506085">
        <ele>856.129</ele>
        <time>2018-09-12T12:17:54Z</time>
      </trkpt>
      <trkpt lat="46.520128" lon="11.505710">
        <ele>855.285</ele>
        <time>2018-09-12T12:18:12Z</time>
      </trkpt>
      <trkpt lat="46.519735" lon="11.505388">
        <ele>856.129</ele>
        <time>2018-09-12T12:18:29Z</time>
      </trkpt>
      <trkpt lat="46.519406" lon="11.505190">
        <ele>859.000</ele>
        <time>2018-09-12T12:18:45Z</time>
      </trkpt>
      <trkpt lat="46.519123" lon="11.504908">
        <ele>860.520</ele>
        <time>2018-09-12T12:19:02Z</time>
      </trkpt>
      <trkpt lat="46.518964" lon="11.504769">
        <ele>861.908</ele>
        <time>2018-09-12T12:19:13Z</time>
      </trkpt>
      <trkpt lat="46.518952" lon="11.504751">
        <ele>862.466</ele>
        <time>2018-09-12T12:19:14Z</time>
      </trkpt>
      <trkpt lat="46.518938" lon="11.504724">
        <ele>862.998</ele>
        <time>2018-09-12T12:19:15Z</time>
      </trkpt>
      <trkpt lat="46.518618" lon="11.504293">
        <ele>862.974</ele>
        <time>2018-09-12T12:19:32Z</time>
      </trkpt>
      <trkpt lat="46.518475" lon="11.504073">
        <ele>862.460</ele>
        <time>2018-09-12T12:19:42Z</time>
      </trkpt>
      <trkpt lat="46.518461" lon="11.504056">
        <ele>862.420</ele>
        <time>2018-09-12T12:19:43Z</time>
      </trkpt>
      <trkpt lat="46.518410" lon="11.503999">
        <ele>862.970</ele>
        <time>2018-09-12T12:19:55Z</time>
      </trkpt>
      <trkpt lat="46.518378" lon="11.504011">
        <ele>866.723</ele>
        <time>2018-09-12T12:20:26Z</time>
      </trkpt>
      <trkpt lat="46.518366" lon="11.503981">
        <ele>865.839</ele>
        <time>2018-09-12T12:20:46Z</time>
      </trkpt>
      <trkpt lat="46.518355" lon="11.503947">
        <ele>865.833</ele>
        <time>2018-09-12T12:20:48Z</time>
      </trkpt>
      <trkpt lat="46.518354" lon="11.503920">
        <ele>865.823</ele>
        <time>2018-09-12T12:20:49Z</time>
      </trkpt>
      <trkpt lat="46.518356" lon="11.503821">
        <ele>865.815</ele>
        <time>2018-09-12T12:20:53Z</time>
      </trkpt>
      <trkpt lat="46.518361" lon="11.503795">
        <ele>865.308</ele>
        <time>2018-09-12T12:20:54Z</time>
      </trkpt>
      <trkpt lat="46.518413" lon="11.503417">
        <ele>867.767</ele>
        <time>2018-09-12T12:21:09Z</time>
      </trkpt>
      <trkpt lat="46.518434" lon="11.503299">
        <ele>867.729</ele>
        <time>2018-09-12T12:21:21Z</time>
      </trkpt>
      <trkpt lat="46.518457" lon="11.503291">
        <ele>867.265</ele>
        <time>2018-09-12T12:21:28Z</time>
      </trkpt>
      <trkpt lat="46.518470" lon="11.503296">
        <ele>867.761</ele>
        <time>2018-09-12T12:21:29Z</time>
      </trkpt>
      <trkpt lat="46.518484" lon="11.503303">
        <ele>867.781</ele>
        <time>2018-09-12T12:21:30Z</time>
      </trkpt>
      <trkpt lat="46.518502" lon="11.503318">
        <ele>867.251</ele>
        <time>2018-09-12T12:21:31Z</time>
      </trkpt>
      <trkpt lat="46.518519" lon="11.503337">
        <ele>866.784</ele>
        <time>2018-09-12T12:21:32Z</time>
      </trkpt>
      <trkpt lat="46.518678" lon="11.503663">
        <ele>860.030</ele>
        <time>2018-09-12T12:21:41Z</time>
      </trkpt>
      <trkpt lat="46.518704" lon="11.503683">
        <ele>859.551</ele>
        <time>2018-09-12T12:21:42Z</time>
      </trkpt>
      <trkpt lat="46.518726" lon="11.503690">
        <ele>859.501</ele>
        <time>2018-09-12T12:21:43Z</time>
      </trkpt>
      <trkpt lat="46.518843" lon="11.503669">
        <ele>857.611</ele>
        <time>2018-09-12T12:21:51Z</time>
      </trkpt>
      <trkpt lat="46.518852" lon="11.503655">
        <ele>857.608</ele>
        <time>2018-09-12T12:21:52Z</time>
      </trkpt>
      <trkpt lat="46.518838" lon="11.503651">
        <ele>858.579</ele>
        <time>2018-09-12T12:22:03Z</time>
      </trkpt>
      <trkpt lat="46.518836" lon="11.503675">
        <ele>858.571</ele>
        <time>2018-09-12T12:22:04Z</time>
      </trkpt>
      <trkpt lat="46.518837" lon="11.503695">
        <ele>858.137</ele>
        <time>2018-09-12T12:22:05Z</time>
      </trkpt>
      <trkpt lat="46.518839" lon="11.503718">
        <ele>858.143</ele>
        <time>2018-09-12T12:22:06Z</time>
      </trkpt>
      <trkpt lat="46.518842" lon="11.503740">
        <ele>857.643</ele>
        <time>2018-09-12T12:22:07Z</time>
      </trkpt>
      <trkpt lat="46.518839" lon="11.503766">
        <ele>857.183</ele>
        <time>2018-09-12T12:22:08Z</time>
      </trkpt>
      <trkpt lat="46.518833" lon="11.503799">
        <ele>857.116</ele>
        <time>2018-09-12T12:22:09Z</time>
      </trkpt>
      <trkpt lat="46.518834" lon="11.503906">
        <ele>855.792</ele>
        <time>2018-09-12T12:22:12Z</time>
      </trkpt>
      <trkpt lat="46.518853" lon="11.503928">
        <ele>855.724</ele>
        <time>2018-09-12T12:22:13Z</time>
      </trkpt>
      <trkpt lat="46.518872" lon="11.503935">
        <ele>855.204</ele>
        <time>2018-09-12T12:22:14Z</time>
      </trkpt>
      <trkpt lat="46.518891" lon="11.503937">
        <ele>854.714</ele>
        <time>2018-09-12T12:22:15Z</time>
      </trkpt>
      <trkpt lat="46.518916" lon="11.503937">
        <ele>854.208</ele>
        <time>2018-09-12T12:22:16Z</time>
      </trkpt>
      <trkpt lat="46.518941" lon="11.503937">
        <ele>853.346</ele>
        <time>2018-09-12T12:22:17Z</time>
      </trkpt>
      <trkpt lat="46.519379" lon="11.504122">
        <ele>841.798</ele>
        <time>2018-09-12T12:22:30Z</time>
      </trkpt>
      <trkpt lat="46.519854" lon="11.504353">
        <ele>833.124</ele>
        <time>2018-09-12T12:22:44Z</time>
      </trkpt>
      <trkpt lat="46.520353" lon="11.504559">
        <ele>825.480</ele>
        <time>2018-09-12T12:22:58Z</time>
      </trkpt>
      <trkpt lat="46.521035" lon="11.505007">
        <ele>818.260</ele>
        <time>2018-09-12T12:23:16Z</time>
      </trkpt>
      <trkpt lat="46.521153" lon="11.505048">
        <ele>816.710</ele>
        <time>2018-09-12T12:23:19Z</time>
      </trkpt>
      <trkpt lat="46.521193" lon="11.505064">
        <ele>816.383</ele>
        <time>2018-09-12T12:23:20Z</time>
      </trkpt>
      <trkpt lat="46.521417" lon="11.505152">
        <ele>814.339</ele>
        <time>2018-09-12T12:23:26Z</time>
      </trkpt>
      <trkpt lat="46.521453" lon="11.505177">
        <ele>813.819</ele>
        <time>2018-09-12T12:23:27Z</time>
      </trkpt>
      <trkpt lat="46.521677" lon="11.505361">
        <ele>811.009</ele>
        <time>2018-09-12T12:23:33Z</time>
      </trkpt>
      <trkpt lat="46.521715" lon="11.505409">
        <ele>810.019</ele>
        <time>2018-09-12T12:23:34Z</time>
      </trkpt>
      <trkpt lat="46.521918" lon="11.505664">
        <ele>808.108</ele>
        <time>2018-09-12T12:23:39Z</time>
      </trkpt>
      <trkpt lat="46.521958" lon="11.505688">
        <ele>808.175</ele>
        <time>2018-09-12T12:23:40Z</time>
      </trkpt>
      <trkpt lat="46.521997" lon="11.505702">
        <ele>808.177</ele>
        <time>2018-09-12T12:23:41Z</time>
      </trkpt>
      <trkpt lat="46.522035" lon="11.505711">
        <ele>808.123</ele>
        <time>2018-09-12T12:23:42Z</time>
      </trkpt>
      <trkpt lat="46.522073" lon="11.505709">
        <ele>807.619</ele>
        <time>2018-09-12T12:23:43Z</time>
      </trkpt>
      <trkpt lat="46.522104" lon="11.505699">
        <ele>808.159</ele>
        <time>2018-09-12T12:23:44Z</time>
      </trkpt>
      <trkpt lat="46.522127" lon="11.505682">
        <ele>808.189</ele>
        <time>2018-09-12T12:23:45Z</time>
      </trkpt>
      <trkpt lat="46.522139" lon="11.505663">
        <ele>808.132</ele>
        <time>2018-09-12T12:23:46Z</time>
      </trkpt>
      <trkpt lat="46.522143" lon="11.505637">
        <ele>808.138</ele>
        <time>2018-09-12T12:23:47Z</time>
      </trkpt>
      <trkpt lat="46.522141" lon="11.505604">
        <ele>807.686</ele>
        <time>2018-09-12T12:23:48Z</time>
      </trkpt>
      <trkpt lat="46.522135" lon="11.505570">
        <ele>807.160</ele>
        <time>2018-09-12T12:23:49Z</time>
      </trkpt>
      <trkpt lat="46.522133" lon="11.505036">
        <ele>798.526</ele>
        <time>2018-09-12T12:24:02Z</time>
      </trkpt>
      <trkpt lat="46.522149" lon="11.504639">
        <ele>792.708</ele>
        <time>2018-09-12T12:24:15Z</time>
      </trkpt>
      <trkpt lat="46.522171" lon="11.504521">
        <ele>794.172</ele>
        <time>2018-09-12T12:24:21Z</time>
      </trkpt>
      <trkpt lat="46.522200" lon="11.504195">
        <ele>798.514</ele>
        <time>2018-09-12T12:24:38Z</time>
      </trkpt>
      <trkpt lat="46.522208" lon="11.504165">
        <ele>799.940</ele>
        <time>2018-09-12T12:24:51Z</time>
      </trkpt>
      <trkpt lat="46.522243" lon="11.503994">
        <ele>799.996</ele>
        <time>2018-09-12T12:25:16Z</time>
      </trkpt>
      <trkpt lat="46.522337" lon="11.503400">
        <ele>795.116</ele>
        <time>2018-09-12T12:25:28Z</time>
      </trkpt>
      <trkpt lat="46.522365" lon="11.503204">
        <ele>792.266</ele>
        <time>2018-09-12T12:25:31Z</time>
      </trkpt>
      <trkpt lat="46.522390" lon="11.503127">
        <ele>791.319</ele>
        <time>2018-09-12T12:25:32Z</time>
      </trkpt>
      <trkpt lat="46.522420" lon="11.503062">
        <ele>790.345</ele>
        <time>2018-09-12T12:25:33Z</time>
      </trkpt>
      <trkpt lat="46.522675" lon="11.502597">
        <ele>783.185</ele>
        <time>2018-09-12T12:25:44Z</time>
      </trkpt>
      <trkpt lat="46.522903" lon="11.502397">
        <ele>785.089</ele>
        <time>2018-09-12T12:25:59Z</time>
      </trkpt>
      <trkpt lat="46.523018" lon="11.502272">
        <ele>784.517</ele>
        <time>2018-09-12T12:26:07Z</time>
      </trkpt>
      <trkpt lat="46.523018" lon="11.502240">
        <ele>784.008</ele>
        <time>2018-09-12T12:26:08Z</time>
      </trkpt>
      <trkpt lat="46.523018" lon="11.502206">
        <ele>783.692</ele>
        <time>2018-09-12T12:26:09Z</time>
      </trkpt>
      <trkpt lat="46.522981" lon="11.501756">
        <ele>774.934</ele>
        <time>2018-09-12T12:26:22Z</time>
      </trkpt>
      <trkpt lat="46.522983" lon="11.501249">
        <ele>766.370</ele>
        <time>2018-09-12T12:26:37Z</time>
      </trkpt>
      <trkpt lat="46.523025" lon="11.500707">
        <ele>759.516</ele>
        <time>2018-09-12T12:26:50Z</time>
      </trkpt>
      <trkpt lat="46.523212" lon="11.500333">
        <ele>751.466</ele>
        <time>2018-09-12T12:27:02Z</time>
      </trkpt>
      <trkpt lat="46.523450" lon="11.500195">
        <ele>744.616</ele>
        <time>2018-09-12T12:27:14Z</time>
      </trkpt>
      <trkpt lat="46.523463" lon="11.500199">
        <ele>744.269</ele>
        <time>2018-09-12T12:27:15Z</time>
      </trkpt>
      <trkpt lat="46.523477" lon="11.500201">
        <ele>743.755</ele>
        <time>2018-09-12T12:27:16Z</time>
      </trkpt>
      <trkpt lat="46.523495" lon="11.500200">
        <ele>742.712</ele>
        <time>2018-09-12T12:27:17Z</time>
      </trkpt>
      <trkpt lat="46.523513" lon="11.500194">
        <ele>742.232</ele>
        <time>2018-09-12T12:27:18Z</time>
      </trkpt>
      <trkpt lat="46.523531" lon="11.500184">
        <ele>741.705</ele>
        <time>2018-09-12T12:27:19Z</time>
      </trkpt>
      <trkpt lat="46.523550" lon="11.500178">
        <ele>740.808</ele>
        <time>2018-09-12T12:27:20Z</time>
      </trkpt>
      <trkpt lat="46.523565" lon="11.500169">
        <ele>740.345</ele>
        <time>2018-09-12T12:27:21Z</time>
      </trkpt>
      <trkpt lat="46.523725" lon="11.500047">
        <ele>735.057</ele>
        <time>2018-09-12T12:27:32Z</time>
      </trkpt>
      <trkpt lat="46.523735" lon="11.500022">
        <ele>734.583</ele>
        <time>2018-09-12T12:27:33Z</time>
      </trkpt>
      <trkpt lat="46.523751" lon="11.500002">
        <ele>733.659</ele>
        <time>2018-09-12T12:27:34Z</time>
      </trkpt>
      <trkpt lat="46.523770" lon="11.499989">
        <ele>733.129</ele>
        <time>2018-09-12T12:27:35Z</time>
      </trkpt>
      <trkpt lat="46.523790" lon="11.499975">
        <ele>732.699</ele>
        <time>2018-09-12T12:27:36Z</time>
      </trkpt>
      <trkpt lat="46.523810" lon="11.499963">
        <ele>732.132</ele>
        <time>2018-09-12T12:27:37Z</time>
      </trkpt>
      <trkpt lat="46.523831" lon="11.499953">
        <ele>731.768</ele>
        <time>2018-09-12T12:27:38Z</time>
      </trkpt>
      <trkpt lat="46.523851" lon="11.499946">
        <ele>731.225</ele>
        <time>2018-09-12T12:27:39Z</time>
      </trkpt>
      <trkpt lat="46.523868" lon="11.499937">
        <ele>730.726</ele>
        <time>2018-09-12T12:27:40Z</time>
      </trkpt>
      <trkpt lat="46.523888" lon="11.499920">
        <ele>730.708</ele>
        <time>2018-09-12T12:27:41Z</time>
      </trkpt>
      <trkpt lat="46.524106" lon="11.499871">
        <ele>730.708</ele>
        <time>2018-09-12T12:27:52Z</time>
      </trkpt>
      <trkpt lat="46.524132" lon="11.499879">
        <ele>730.756</ele>
        <time>2018-09-12T12:27:54Z</time>
      </trkpt>
      <trkpt lat="46.524147" lon="11.499882">
        <ele>730.768</ele>
        <time>2018-09-12T12:27:55Z</time>
      </trkpt>
      <trkpt lat="46.524215" lon="11.499904">
        <ele>730.774</ele>
        <time>2018-09-12T12:27:59Z</time>
      </trkpt>
      <trkpt lat="46.524368" lon="11.499942">
        <ele>728.390</ele>
        <time>2018-09-12T12:28:08Z</time>
      </trkpt>
      <trkpt lat="46.524438" lon="11.499939">
        <ele>725.470</ele>
        <time>2018-09-12T12:28:19Z</time>
      </trkpt>
      <trkpt lat="46.524403" lon="11.499885">
        <ele>723.580</ele>
        <time>2018-09-12T12:28:32Z</time>
      </trkpt>
      <trkpt lat="46.524395" lon="11.499870">
        <ele>723.583</ele>
        <time>2018-09-12T12:28:33Z</time>
      </trkpt>
      <trkpt lat="46.524385" lon="11.499852">
        <ele>723.059</ele>
        <time>2018-09-12T12:28:34Z</time>
      </trkpt>
      <trkpt lat="46.524375" lon="11.499835">
        <ele>723.012</ele>
        <time>2018-09-12T12:28:35Z</time>
      </trkpt>
      <trkpt lat="46.524364" lon="11.499821">
        <ele>722.532</ele>
        <time>2018-09-12T12:28:36Z</time>
      </trkpt>
      <trkpt lat="46.524353" lon="11.499809">
        <ele>722.005</ele>
        <time>2018-09-12T12:28:37Z</time>
      </trkpt>
      <trkpt lat="46.524343" lon="11.499800">
        <ele>721.108</ele>
        <time>2018-09-12T12:28:38Z</time>
      </trkpt>
      <trkpt lat="46.524332" lon="11.499792">
        <ele>720.185</ele>
        <time>2018-09-12T12:28:39Z</time>
      </trkpt>
      <trkpt lat="46.524251" lon="11.499695">
        <ele>715.817</ele>
        <time>2018-09-12T12:28:46Z</time>
      </trkpt>
      <trkpt lat="46.524244" lon="11.499680">
        <ele>715.393</ele>
        <time>2018-09-12T12:28:47Z</time>
      </trkpt>
      <trkpt lat="46.524241" lon="11.499660">
        <ele>715.829</ele>
        <time>2018-09-12T12:28:48Z</time>
      </trkpt>
      <trkpt lat="46.524243" lon="11.499636">
        <ele>715.859</ele>
        <time>2018-09-12T12:28:49Z</time>
      </trkpt>
      <trkpt lat="46.524253" lon="11.499612">
        <ele>715.859</ele>
        <time>2018-09-12T12:28:50Z</time>
      </trkpt>
      <trkpt lat="46.524263" lon="11.499592">
        <ele>715.822</ele>
        <time>2018-09-12T12:28:51Z</time>
      </trkpt>
      <trkpt lat="46.524273" lon="11.499574">
        <ele>715.878</ele>
        <time>2018-09-12T12:28:52Z</time>
      </trkpt>
      <trkpt lat="46.524299" lon="11.499468">
        <ele>715.882</ele>
        <time>2018-09-12T12:29:00Z</time>
      </trkpt>
      <trkpt lat="46.524293" lon="11.499456">
        <ele>715.843</ele>
        <time>2018-09-12T12:29:01Z</time>
      </trkpt>
      <trkpt lat="46.524270" lon="11.499401">
        <ele>716.317</ele>
        <time>2018-09-12T12:29:48Z</time>
      </trkpt>
      <trkpt lat="46.524271" lon="11.499331">
        <ele>715.308</ele>
        <time>2018-09-12T12:29:58Z</time>
      </trkpt>
      <trkpt lat="46.524286" lon="11.499307">
        <ele>714.892</ele>
        <time>2018-09-12T12:29:59Z</time>
      </trkpt>
      <trkpt lat="46.524301" lon="11.499285">
        <ele>713.994</ele>
        <time>2018-09-12T12:30:00Z</time>
      </trkpt>
      <trkpt lat="46.524612" lon="11.499043">
        <ele>700.990</ele>
        <time>2018-09-12T12:30:14Z</time>
      </trkpt>
      <trkpt lat="46.524967" lon="11.498593">
        <ele>686.566</ele>
        <time>2018-09-12T12:30:30Z</time>
      </trkpt>
      <trkpt lat="46.525164" lon="11.498249">
        <ele>680.296</ele>
        <time>2018-09-12T12:30:41Z</time>
      </trkpt>
      <trkpt lat="46.525524" lon="11.497953">
        <ele>674.026</ele>
        <time>2018-09-12T12:30:54Z</time>
      </trkpt>
      <trkpt lat="46.525846" lon="11.497737">
        <ele>667.769</ele>
        <time>2018-09-12T12:31:08Z</time>
      </trkpt>
      <trkpt lat="46.526069" lon="11.497491">
        <ele>660.065</ele>
        <time>2018-09-12T12:31:21Z</time>
      </trkpt>
      <trkpt lat="46.526097" lon="11.497443">
        <ele>659.175</ele>
        <time>2018-09-12T12:31:23Z</time>
      </trkpt>
      <trkpt lat="46.526089" lon="11.497415">
        <ele>659.128</ele>
        <time>2018-09-12T12:31:24Z</time>
      </trkpt>
      <trkpt lat="46.526062" lon="11.497397">
        <ele>658.620</ele>
        <time>2018-09-12T12:31:25Z</time>
      </trkpt>
      <trkpt lat="46.526027" lon="11.497401">
        <ele>658.608</ele>
        <time>2018-09-12T12:31:26Z</time>
      </trkpt>
      <trkpt lat="46.525997" lon="11.497406">
        <ele>658.161</ele>
        <time>2018-09-12T12:31:27Z</time>
      </trkpt>
      <trkpt lat="46.525918" lon="11.497409">
        <ele>657.633</ele>
        <time>2018-09-12T12:31:29Z</time>
      </trkpt>
      <trkpt lat="46.525828" lon="11.497384">
        <ele>657.219</ele>
        <time>2018-09-12T12:31:31Z</time>
      </trkpt>
      <trkpt lat="46.525781" lon="11.497357">
        <ele>656.725</ele>
        <time>2018-09-12T12:31:32Z</time>
      </trkpt>
      <trkpt lat="46.525730" lon="11.497319">
        <ele>656.275</ele>
        <time>2018-09-12T12:31:33Z</time>
      </trkpt>
      <trkpt lat="46.525679" lon="11.497262">
        <ele>655.785</ele>
        <time>2018-09-12T12:31:34Z</time>
      </trkpt>
      <trkpt lat="46.525635" lon="11.497199">
        <ele>655.288</ele>
        <time>2018-09-12T12:31:35Z</time>
      </trkpt>
      <trkpt lat="46.525593" lon="11.497127">
        <ele>654.894</ele>
        <time>2018-09-12T12:31:36Z</time>
      </trkpt>
      <trkpt lat="46.525548" lon="11.497056">
        <ele>654.386</ele>
        <time>2018-09-12T12:31:37Z</time>
      </trkpt>
      <trkpt lat="46.525499" lon="11.496996">
        <ele>653.860</ele>
        <time>2018-09-12T12:31:38Z</time>
      </trkpt>
      <trkpt lat="46.525445" lon="11.496947">
        <ele>652.826</ele>
        <time>2018-09-12T12:31:39Z</time>
      </trkpt>
      <trkpt lat="46.525388" lon="11.496910">
        <ele>651.908</ele>
        <time>2018-09-12T12:31:40Z</time>
      </trkpt>
      <trkpt lat="46.525328" lon="11.496884">
        <ele>650.962</ele>
        <time>2018-09-12T12:31:41Z</time>
      </trkpt>
      <trkpt lat="46.525263" lon="11.496861">
        <ele>649.954</ele>
        <time>2018-09-12T12:31:42Z</time>
      </trkpt>
      <trkpt lat="46.525195" lon="11.496832">
        <ele>649.020</ele>
        <time>2018-09-12T12:31:43Z</time>
      </trkpt>
      <trkpt lat="46.525129" lon="11.496791">
        <ele>648.026</ele>
        <time>2018-09-12T12:31:44Z</time>
      </trkpt>
      <trkpt lat="46.524977" lon="11.496700">
        <ele>646.616</ele>
        <time>2018-09-12T12:31:46Z</time>
      </trkpt>
      <trkpt lat="46.524894" lon="11.496666">
        <ele>645.656</ele>
        <time>2018-09-12T12:31:47Z</time>
      </trkpt>
      <trkpt lat="46.524631" lon="11.496604">
        <ele>642.739</ele>
        <time>2018-09-12T12:31:50Z</time>
      </trkpt>
      <trkpt lat="46.524563" lon="11.496612">
        <ele>641.855</ele>
        <time>2018-09-12T12:31:51Z</time>
      </trkpt>
      <trkpt lat="46.524509" lon="11.496617">
        <ele>641.373</ele>
        <time>2018-09-12T12:31:52Z</time>
      </trkpt>
      <trkpt lat="46.524472" lon="11.496590">
        <ele>640.385</ele>
        <time>2018-09-12T12:31:53Z</time>
      </trkpt>
      <trkpt lat="46.524467" lon="11.496541">
        <ele>639.413</ele>
        <time>2018-09-12T12:31:54Z</time>
      </trkpt>
      <trkpt lat="46.524495" lon="11.496497">
        <ele>638.908</ele>
        <time>2018-09-12T12:31:55Z</time>
      </trkpt>
      <trkpt lat="46.524542" lon="11.496480">
        <ele>637.941</ele>
        <time>2018-09-12T12:31:56Z</time>
      </trkpt>
      <trkpt lat="46.524598" lon="11.496485">
        <ele>637.973</ele>
        <time>2018-09-12T12:31:57Z</time>
      </trkpt>
      <trkpt lat="46.524660" lon="11.496491">
        <ele>637.469</ele>
        <time>2018-09-12T12:31:58Z</time>
      </trkpt>
      <trkpt lat="46.524729" lon="11.496490">
        <ele>637.035</ele>
        <time>2018-09-12T12:31:59Z</time>
      </trkpt>
      <trkpt lat="46.524800" lon="11.496485">
        <ele>636.515</ele>
        <time>2018-09-12T12:32:00Z</time>
      </trkpt>
      <trkpt lat="46.525465" lon="11.496364">
        <ele>629.325</ele>
        <time>2018-09-12T12:32:09Z</time>
      </trkpt>
      <trkpt lat="46.525647" lon="11.496360">
        <ele>627.488</ele>
        <time>2018-09-12T12:32:14Z</time>
      </trkpt>
      <trkpt lat="46.525685" lon="11.496321">
        <ele>626.984</ele>
        <time>2018-09-12T12:32:15Z</time>
      </trkpt>
      <trkpt lat="46.525725" lon="11.496269">
        <ele>626.454</ele>
        <time>2018-09-12T12:32:16Z</time>
      </trkpt>
      <trkpt lat="46.525802" lon="11.496157">
        <ele>625.456</ele>
        <time>2018-09-12T12:32:18Z</time>
      </trkpt>
      <trkpt lat="46.525851" lon="11.496120">
        <ele>624.511</ele>
        <time>2018-09-12T12:32:19Z</time>
      </trkpt>
      <trkpt lat="46.525913" lon="11.496098">
        <ele>624.008</ele>
        <time>2018-09-12T12:32:20Z</time>
      </trkpt>
      <trkpt lat="46.525982" lon="11.496088">
        <ele>623.079</ele>
        <time>2018-09-12T12:32:21Z</time>
      </trkpt>
      <trkpt lat="46.526059" lon="11.496086">
        <ele>622.111</ele>
        <time>2018-09-12T12:32:22Z</time>
      </trkpt>
      <trkpt lat="46.526140" lon="11.496077">
        <ele>621.167</ele>
        <time>2018-09-12T12:32:23Z</time>
      </trkpt>
      <trkpt lat="46.526221" lon="11.496051">
        <ele>620.663</ele>
        <time>2018-09-12T12:32:24Z</time>
      </trkpt>
      <trkpt lat="46.526304" lon="11.496010">
        <ele>620.143</ele>
        <time>2018-09-12T12:32:25Z</time>
      </trkpt>
      <trkpt lat="46.526669" lon="11.495802">
        <ele>616.883</ele>
        <time>2018-09-12T12:32:30Z</time>
      </trkpt>
      <trkpt lat="46.526735" lon="11.495793">
        <ele>616.836</ele>
        <time>2018-09-12T12:32:31Z</time>
      </trkpt>
      <trkpt lat="46.526805" lon="11.495799">
        <ele>615.852</ele>
        <time>2018-09-12T12:32:32Z</time>
      </trkpt>
      <trkpt lat="46.527344" lon="11.495869">
        <ele>611.048</ele>
        <time>2018-09-12T12:32:39Z</time>
      </trkpt>
      <trkpt lat="46.527429" lon="11.495849">
        <ele>610.061</ele>
        <time>2018-09-12T12:32:40Z</time>
      </trkpt>
      <trkpt lat="46.527516" lon="11.495803">
        <ele>609.117</ele>
        <time>2018-09-12T12:32:41Z</time>
      </trkpt>
      <trkpt lat="46.527586" lon="11.495738">
        <ele>608.108</ele>
        <time>2018-09-12T12:32:42Z</time>
      </trkpt>
      <trkpt lat="46.527645" lon="11.495664">
        <ele>607.288</ele>
        <time>2018-09-12T12:32:43Z</time>
      </trkpt>
      <trkpt lat="46.527706" lon="11.495586">
        <ele>606.220</ele>
        <time>2018-09-12T12:32:44Z</time>
      </trkpt>
      <trkpt lat="46.527833" lon="11.495461">
        <ele>604.886</ele>
        <time>2018-09-12T12:32:46Z</time>
      </trkpt>
      <trkpt lat="46.527904" lon="11.495427">
        <ele>603.892</ele>
        <time>2018-09-12T12:32:47Z</time>
      </trkpt>
      <trkpt lat="46.527982" lon="11.495408">
        <ele>602.892</ele>
        <time>2018-09-12T12:32:48Z</time>
      </trkpt>
      <trkpt lat="46.528064" lon="11.495399">
        <ele>601.482</ele>
        <time>2018-09-12T12:32:49Z</time>
      </trkpt>
      <trkpt lat="46.528150" lon="11.495392">
        <ele>600.425</ele>
        <time>2018-09-12T12:32:50Z</time>
      </trkpt>
      <trkpt lat="46.528323" lon="11.495391">
        <ele>598.551</ele>
        <time>2018-09-12T12:32:52Z</time>
      </trkpt>
      <trkpt lat="46.528405" lon="11.495413">
        <ele>598.053</ele>
        <time>2018-09-12T12:32:53Z</time>
      </trkpt>
      <trkpt lat="46.528481" lon="11.495458">
        <ele>597.104</ele>
        <time>2018-09-12T12:32:54Z</time>
      </trkpt>
      <trkpt lat="46.528549" lon="11.495523">
        <ele>596.614</ele>
        <time>2018-09-12T12:32:55Z</time>
      </trkpt>
      <trkpt lat="46.528617" lon="11.495594">
        <ele>596.108</ele>
        <time>2018-09-12T12:32:56Z</time>
      </trkpt>
      <trkpt lat="46.528693" lon="11.495652">
        <ele>595.699</ele>
        <time>2018-09-12T12:32:57Z</time>
      </trkpt>
      <trkpt lat="46.528779" lon="11.495689">
        <ele>594.721</ele>
        <time>2018-09-12T12:32:58Z</time>
      </trkpt>
      <trkpt lat="46.528871" lon="11.495714">
        <ele>594.237</ele>
        <time>2018-09-12T12:32:59Z</time>
      </trkpt>
      <trkpt lat="46.528963" lon="11.495727">
        <ele>593.213</ele>
        <time>2018-09-12T12:33:00Z</time>
      </trkpt>
      <trkpt lat="46.529051" lon="11.495725">
        <ele>592.343</ele>
        <time>2018-09-12T12:33:01Z</time>
      </trkpt>
      <trkpt lat="46.529138" lon="11.495722">
        <ele>591.373</ele>
        <time>2018-09-12T12:33:02Z</time>
      </trkpt>
      <trkpt lat="46.529226" lon="11.495732">
        <ele>590.366</ele>
        <time>2018-09-12T12:33:03Z</time>
      </trkpt>
      <trkpt lat="46.529313" lon="11.495750">
        <ele>589.422</ele>
        <time>2018-09-12T12:33:04Z</time>
      </trkpt>
      <trkpt lat="46.529685" lon="11.495850">
        <ele>585.152</ele>
        <time>2018-09-12T12:33:11Z</time>
      </trkpt>
      <trkpt lat="46.529738" lon="11.495846">
        <ele>583.653</ele>
        <time>2018-09-12T12:33:20Z</time>
      </trkpt>
      <trkpt lat="46.529845" lon="11.495860">
        <ele>583.108</ele>
        <time>2018-09-12T12:33:23Z</time>
      </trkpt>
      <trkpt lat="46.529947" lon="11.495857">
        <ele>582.208</ele>
        <time>2018-09-12T12:33:25Z</time>
      </trkpt>
      <trkpt lat="46.530006" lon="11.495851">
        <ele>582.269</ele>
        <time>2018-09-12T12:33:26Z</time>
      </trkpt>
      <trkpt lat="46.530066" lon="11.495858">
        <ele>581.751</ele>
        <time>2018-09-12T12:33:27Z</time>
      </trkpt>
      <trkpt lat="46.530127" lon="11.495883">
        <ele>581.797</ele>
        <time>2018-09-12T12:33:28Z</time>
      </trkpt>
      <trkpt lat="46.530190" lon="11.495915">
        <ele>581.253</ele>
        <time>2018-09-12T12:33:29Z</time>
      </trkpt>
      <trkpt lat="46.530258" lon="11.495941">
        <ele>581.283</ele>
        <time>2018-09-12T12:33:30Z</time>
      </trkpt>
      <trkpt lat="46.530328" lon="11.495951">
        <ele>580.723</ele>
        <time>2018-09-12T12:33:31Z</time>
      </trkpt>
      <trkpt lat="46.530403" lon="11.495940">
        <ele>580.216</ele>
        <time>2018-09-12T12:33:32Z</time>
      </trkpt>
      <trkpt lat="46.530700" lon="11.495874">
        <ele>579.312</ele>
        <time>2018-09-12T12:33:36Z</time>
      </trkpt>
      <trkpt lat="46.530770" lon="11.495879">
        <ele>578.855</ele>
        <time>2018-09-12T12:33:37Z</time>
      </trkpt>
      <trkpt lat="46.530836" lon="11.495900">
        <ele>578.307</ele>
        <time>2018-09-12T12:33:38Z</time>
      </trkpt>
      <trkpt lat="46.530901" lon="11.495934">
        <ele>577.817</ele>
        <time>2018-09-12T12:33:39Z</time>
      </trkpt>
      <trkpt lat="46.530971" lon="11.495970">
        <ele>576.908</ele>
        <time>2018-09-12T12:33:40Z</time>
      </trkpt>
      <trkpt lat="46.531114" lon="11.496037">
        <ele>575.489</ele>
        <time>2018-09-12T12:33:42Z</time>
      </trkpt>
      <trkpt lat="46.531265" lon="11.496083">
        <ele>574.591</ele>
        <time>2018-09-12T12:33:44Z</time>
      </trkpt>
      <trkpt lat="46.531590" lon="11.496191">
        <ele>570.267</ele>
        <time>2018-09-12T12:33:48Z</time>
      </trkpt>
      <trkpt lat="46.531663" lon="11.496237">
        <ele>569.283</ele>
        <time>2018-09-12T12:33:49Z</time>
      </trkpt>
      <trkpt lat="46.531734" lon="11.496295">
        <ele>568.263</ele>
        <time>2018-09-12T12:33:50Z</time>
      </trkpt>
      <trkpt lat="46.531797" lon="11.496362">
        <ele>566.813</ele>
        <time>2018-09-12T12:33:51Z</time>
      </trkpt>
      <trkpt lat="46.531854" lon="11.496438">
        <ele>565.816</ele>
        <time>2018-09-12T12:33:52Z</time>
      </trkpt>
      <trkpt lat="46.531908" lon="11.496528">
        <ele>564.482</ele>
        <time>2018-09-12T12:33:53Z</time>
      </trkpt>
      <trkpt lat="46.531965" lon="11.496623">
        <ele>563.471</ele>
        <time>2018-09-12T12:33:54Z</time>
      </trkpt>
      <trkpt lat="46.532649" lon="11.497662">
        <ele>551.941</ele>
        <time>2018-09-12T12:34:05Z</time>
      </trkpt>
      <trkpt lat="46.532958" lon="11.498050">
        <ele>546.115</ele>
        <time>2018-09-12T12:34:10Z</time>
      </trkpt>
      <trkpt lat="46.533010" lon="11.498144">
        <ele>544.708</ele>
        <time>2018-09-12T12:34:11Z</time>
      </trkpt>
      <trkpt lat="46.533111" lon="11.498338">
        <ele>542.811</ele>
        <time>2018-09-12T12:34:13Z</time>
      </trkpt>
      <trkpt lat="46.533239" lon="11.498520">
        <ele>540.443</ele>
        <time>2018-09-12T12:34:15Z</time>
      </trkpt>
      <trkpt lat="46.533726" lon="11.499118">
        <ele>531.769</ele>
        <time>2018-09-12T12:34:22Z</time>
      </trkpt>
      <trkpt lat="46.533772" lon="11.499210">
        <ele>530.725</ele>
        <time>2018-09-12T12:34:23Z</time>
      </trkpt>
      <trkpt lat="46.533808" lon="11.499302">
        <ele>529.395</ele>
        <time>2018-09-12T12:34:24Z</time>
      </trkpt>
      <trkpt lat="46.533843" lon="11.499372">
        <ele>528.335</ele>
        <time>2018-09-12T12:34:25Z</time>
      </trkpt>
      <trkpt lat="46.533883" lon="11.499403">
        <ele>527.488</ele>
        <time>2018-09-12T12:34:26Z</time>
      </trkpt>
      <trkpt lat="46.533916" lon="11.499382">
        <ele>526.974</ele>
        <time>2018-09-12T12:34:27Z</time>
      </trkpt>
      <trkpt lat="46.533930" lon="11.499329">
        <ele>525.945</ele>
        <time>2018-09-12T12:34:28Z</time>
      </trkpt>
      <trkpt lat="46.533924" lon="11.499264">
        <ele>525.047</ele>
        <time>2018-09-12T12:34:29Z</time>
      </trkpt>
      <trkpt lat="46.533903" lon="11.499194">
        <ele>524.511</ele>
        <time>2018-09-12T12:34:30Z</time>
      </trkpt>
      <trkpt lat="46.533875" lon="11.499120">
        <ele>524.008</ele>
        <time>2018-09-12T12:34:31Z</time>
      </trkpt>
      <trkpt lat="46.533843" lon="11.499031">
        <ele>523.068</ele>
        <time>2018-09-12T12:34:32Z</time>
      </trkpt>
      <trkpt lat="46.533614" lon="11.498394">
        <ele>517.820</ele>
        <time>2018-09-12T12:34:38Z</time>
      </trkpt>
      <trkpt lat="46.533515" lon="11.498194">
        <ele>515.496</ele>
        <time>2018-09-12T12:34:40Z</time>
      </trkpt>
      <trkpt lat="46.533480" lon="11.498079">
        <ele>514.452</ele>
        <time>2018-09-12T12:34:41Z</time>
      </trkpt>
      <trkpt lat="46.533447" lon="11.497976">
        <ele>513.412</ele>
        <time>2018-09-12T12:34:42Z</time>
      </trkpt>
      <trkpt lat="46.533400" lon="11.497886">
        <ele>513.072</ele>
        <time>2018-09-12T12:34:43Z</time>
      </trkpt>
      <trkpt lat="46.533342" lon="11.497806">
        <ele>512.075</ele>
        <time>2018-09-12T12:34:44Z</time>
      </trkpt>
      <trkpt lat="46.533276" lon="11.497723">
        <ele>511.071</ele>
        <time>2018-09-12T12:34:45Z</time>
      </trkpt>
      <trkpt lat="46.533215" lon="11.497621">
        <ele>510.199</ele>
        <time>2018-09-12T12:34:46Z</time>
      </trkpt>
      <trkpt lat="46.533162" lon="11.497506">
        <ele>508.607</ele>
        <time>2018-09-12T12:34:47Z</time>
      </trkpt>
      <trkpt lat="46.533115" lon="11.497383">
        <ele>507.727</ele>
        <time>2018-09-12T12:34:48Z</time>
      </trkpt>
      <trkpt lat="46.533076" lon="11.497257">
        <ele>506.708</ele>
        <time>2018-09-12T12:34:49Z</time>
      </trkpt>
      <trkpt lat="46.533052" lon="11.497126">
        <ele>505.713</ele>
        <time>2018-09-12T12:34:50Z</time>
      </trkpt>
      <trkpt lat="46.533051" lon="11.497003">
        <ele>504.875</ele>
        <time>2018-09-12T12:34:51Z</time>
      </trkpt>
      <trkpt lat="46.533061" lon="11.496872">
        <ele>503.891</ele>
        <time>2018-09-12T12:34:52Z</time>
      </trkpt>
      <trkpt lat="46.533060" lon="11.496744">
        <ele>502.937</ele>
        <time>2018-09-12T12:34:53Z</time>
      </trkpt>
      <trkpt lat="46.533047" lon="11.496610">
        <ele>501.937</ele>
        <time>2018-09-12T12:34:54Z</time>
      </trkpt>
      <trkpt lat="46.533022" lon="11.496470">
        <ele>500.557</ele>
        <time>2018-09-12T12:34:55Z</time>
      </trkpt>
      <trkpt lat="46.532992" lon="11.496333">
        <ele>499.570</ele>
        <time>2018-09-12T12:34:56Z</time>
      </trkpt>
      <trkpt lat="46.532810" lon="11.495620">
        <ele>494.766</ele>
        <time>2018-09-12T12:35:01Z</time>
      </trkpt>
      <trkpt lat="46.532764" lon="11.495510">
        <ele>493.748</ele>
        <time>2018-09-12T12:35:02Z</time>
      </trkpt>
      <trkpt lat="46.532709" lon="11.495418">
        <ele>493.261</ele>
        <time>2018-09-12T12:35:03Z</time>
      </trkpt>
      <trkpt lat="46.532643" lon="11.495351">
        <ele>492.817</ele>
        <time>2018-09-12T12:35:04Z</time>
      </trkpt>
      <trkpt lat="46.532578" lon="11.495319">
        <ele>491.808</ele>
        <time>2018-09-12T12:35:05Z</time>
      </trkpt>
      <trkpt lat="46.532499" lon="11.495301">
        <ele>491.328</ele>
        <time>2018-09-12T12:35:06Z</time>
      </trkpt>
      <trkpt lat="46.532416" lon="11.495288">
        <ele>490.490</ele>
        <time>2018-09-12T12:35:07Z</time>
      </trkpt>
      <trkpt lat="46.532255" lon="11.495254">
        <ele>488.486</ele>
        <time>2018-09-12T12:35:09Z</time>
      </trkpt>
      <trkpt lat="46.532178" lon="11.495225">
        <ele>487.522</ele>
        <time>2018-09-12T12:35:10Z</time>
      </trkpt>
      <trkpt lat="46.532105" lon="11.495188">
        <ele>486.542</ele>
        <time>2018-09-12T12:35:11Z</time>
      </trkpt>
      <trkpt lat="46.532029" lon="11.495137">
        <ele>485.642</ele>
        <time>2018-09-12T12:35:12Z</time>
      </trkpt>
      <trkpt lat="46.531955" lon="11.495074">
        <ele>484.695</ele>
        <time>2018-09-12T12:35:13Z</time>
      </trkpt>
      <trkpt lat="46.531877" lon="11.495008">
        <ele>483.271</ele>
        <time>2018-09-12T12:35:14Z</time>
      </trkpt>
      <trkpt lat="46.531011" lon="11.494247">
        <ele>476.479</ele>
        <time>2018-09-12T12:35:24Z</time>
      </trkpt>
      <trkpt lat="46.530865" lon="11.494118">
        <ele>475.505</ele>
        <time>2018-09-12T12:35:26Z</time>
      </trkpt>
      <trkpt lat="46.530786" lon="11.494068">
        <ele>475.025</ele>
        <time>2018-09-12T12:35:27Z</time>
      </trkpt>
      <trkpt lat="46.530539" lon="11.493891">
        <ele>473.108</ele>
        <time>2018-09-12T12:35:30Z</time>
      </trkpt>
      <trkpt lat="46.530462" lon="11.493799">
        <ele>472.171</ele>
        <time>2018-09-12T12:35:31Z</time>
      </trkpt>
      <trkpt lat="46.530391" lon="11.493696">
        <ele>471.693</ele>
        <time>2018-09-12T12:35:32Z</time>
      </trkpt>
      <trkpt lat="46.529973" lon="11.493186">
        <ele>467.889</ele>
        <time>2018-09-12T12:35:39Z</time>
      </trkpt>
      <trkpt lat="46.529907" lon="11.493138">
        <ele>467.375</ele>
        <time>2018-09-12T12:35:40Z</time>
      </trkpt>
      <trkpt lat="46.529845" lon="11.493103">
        <ele>466.875</ele>
        <time>2018-09-12T12:35:41Z</time>
      </trkpt>
      <trkpt lat="46.529452" lon="11.492862">
        <ele>460.685</ele>
        <time>2018-09-12T12:35:47Z</time>
      </trkpt>
      <trkpt lat="46.529406" lon="11.492798">
        <ele>459.658</ele>
        <time>2018-09-12T12:35:48Z</time>
      </trkpt>
      <trkpt lat="46.529370" lon="11.492729">
        <ele>458.664</ele>
        <time>2018-09-12T12:35:49Z</time>
      </trkpt>
      <trkpt lat="46.529342" lon="11.492662">
        <ele>457.749</ele>
        <time>2018-09-12T12:35:50Z</time>
      </trkpt>
      <trkpt lat="46.529330" lon="11.492586">
        <ele>456.702</ele>
        <time>2018-09-12T12:35:51Z</time>
      </trkpt>
      <trkpt lat="46.529346" lon="11.492501">
        <ele>455.322</ele>
        <time>2018-09-12T12:35:52Z</time>
      </trkpt>
      <trkpt lat="46.529375" lon="11.492427">
        <ele>454.308</ele>
        <time>2018-09-12T12:35:53Z</time>
      </trkpt>
      <trkpt lat="46.529411" lon="11.492343">
        <ele>452.948</ele>
        <time>2018-09-12T12:35:54Z</time>
      </trkpt>
      <trkpt lat="46.529633" lon="11.491932">
        <ele>447.670</ele>
        <time>2018-09-12T12:35:59Z</time>
      </trkpt>
      <trkpt lat="46.529692" lon="11.491870">
        <ele>447.136</ele>
        <time>2018-09-12T12:36:00Z</time>
      </trkpt>
      <trkpt lat="46.529757" lon="11.491814">
        <ele>446.192</ele>
        <time>2018-09-12T12:36:01Z</time>
      </trkpt>
      <trkpt lat="46.529824" lon="11.491772">
        <ele>445.262</ele>
        <time>2018-09-12T12:36:02Z</time>
      </trkpt>
      <trkpt lat="46.529894" lon="11.491750">
        <ele>444.712</ele>
        <time>2018-09-12T12:36:03Z</time>
      </trkpt>
      <trkpt lat="46.529966" lon="11.491747">
        <ele>443.795</ele>
        <time>2018-09-12T12:36:04Z</time>
      </trkpt>
      <trkpt lat="46.530039" lon="11.491756">
        <ele>443.371</ele>
        <time>2018-09-12T12:36:05Z</time>
      </trkpt>
      <trkpt lat="46.530109" lon="11.491772">
        <ele>442.361</ele>
        <time>2018-09-12T12:36:06Z</time>
      </trkpt>
      <trkpt lat="46.530518" lon="11.491901">
        <ele>438.021</ele>
        <time>2018-09-12T12:36:12Z</time>
      </trkpt>
      <trkpt lat="46.530570" lon="11.491944">
        <ele>437.013</ele>
        <time>2018-09-12T12:36:13Z</time>
      </trkpt>
      <trkpt lat="46.530617" lon="11.492007">
        <ele>436.108</ele>
        <time>2018-09-12T12:36:14Z</time>
      </trkpt>
      <trkpt lat="46.530654" lon="11.492075">
        <ele>435.610</ele>
        <time>2018-09-12T12:36:15Z</time>
      </trkpt>
      <trkpt lat="46.530693" lon="11.492159">
        <ele>434.672</ele>
        <time>2018-09-12T12:36:16Z</time>
      </trkpt>
      <trkpt lat="46.530735" lon="11.492243">
        <ele>433.268</ele>
        <time>2018-09-12T12:36:17Z</time>
      </trkpt>
      <trkpt lat="46.530785" lon="11.492308">
        <ele>432.294</ele>
        <time>2018-09-12T12:36:18Z</time>
      </trkpt>
      <trkpt lat="46.530841" lon="11.492354">
        <ele>431.234</ele>
        <time>2018-09-12T12:36:19Z</time>
      </trkpt>
      <trkpt lat="46.530909" lon="11.492396">
        <ele>430.364</ele>
        <time>2018-09-12T12:36:20Z</time>
      </trkpt>
      <trkpt lat="46.530972" lon="11.492432">
        <ele>429.397</ele>
        <time>2018-09-12T12:36:21Z</time>
      </trkpt>
      <trkpt lat="46.531105" lon="11.492528">
        <ele>427.473</ele>
        <time>2018-09-12T12:36:23Z</time>
      </trkpt>
      <trkpt lat="46.531170" lon="11.492591">
        <ele>426.081</ele>
        <time>2018-09-12T12:36:24Z</time>
      </trkpt>
      <trkpt lat="46.531237" lon="11.492674">
        <ele>425.061</ele>
        <time>2018-09-12T12:36:25Z</time>
      </trkpt>
      <trkpt lat="46.531812" lon="11.493320">
        <ele>415.917</ele>
        <time>2018-09-12T12:36:34Z</time>
      </trkpt>
      <trkpt lat="46.531919" lon="11.493441">
        <ele>414.408</ele>
        <time>2018-09-12T12:36:36Z</time>
      </trkpt>
      <trkpt lat="46.532107" lon="11.493664">
        <ele>410.682</ele>
        <time>2018-09-12T12:36:40Z</time>
      </trkpt>
      <trkpt lat="46.532161" lon="11.493700">
        <ele>409.114</ele>
        <time>2018-09-12T12:36:41Z</time>
      </trkpt>
      <trkpt lat="46.532219" lon="11.493722">
        <ele>408.230</ele>
        <time>2018-09-12T12:36:42Z</time>
      </trkpt>
      <trkpt lat="46.532285" lon="11.493739">
        <ele>407.266</ele>
        <time>2018-09-12T12:36:43Z</time>
      </trkpt>
      <trkpt lat="46.532339" lon="11.493748">
        <ele>406.786</ele>
        <time>2018-09-12T12:36:44Z</time>
      </trkpt>
      <trkpt lat="46.532403" lon="11.493753">
        <ele>405.836</ele>
        <time>2018-09-12T12:36:45Z</time>
      </trkpt>
      <trkpt lat="46.532469" lon="11.493748">
        <ele>405.349</ele>
        <time>2018-09-12T12:36:46Z</time>
      </trkpt>
      <trkpt lat="46.532537" lon="11.493741">
        <ele>404.335</ele>
        <time>2018-09-12T12:36:47Z</time>
      </trkpt>
      <trkpt lat="46.532607" lon="11.493745">
        <ele>403.437</ele>
        <time>2018-09-12T12:36:48Z</time>
      </trkpt>
      <trkpt lat="46.532674" lon="11.493762">
        <ele>402.949</ele>
        <time>2018-09-12T12:36:49Z</time>
      </trkpt>
      <trkpt lat="46.532738" lon="11.493790">
        <ele>401.913</ele>
        <time>2018-09-12T12:36:50Z</time>
      </trkpt>
      <trkpt lat="46.532799" lon="11.493827">
        <ele>401.008</ele>
        <time>2018-09-12T12:36:51Z</time>
      </trkpt>
      <trkpt lat="46.533193" lon="11.494041">
        <ele>391.877</ele>
        <time>2018-09-12T12:36:57Z</time>
      </trkpt>
      <trkpt lat="46.533271" lon="11.494050">
        <ele>390.419</ele>
        <time>2018-09-12T12:36:58Z</time>
      </trkpt>
      <trkpt lat="46.533353" lon="11.494055">
        <ele>388.955</ele>
        <time>2018-09-12T12:36:59Z</time>
      </trkpt>
      <trkpt lat="46.533510" lon="11.494086">
        <ele>386.121</ele>
        <time>2018-09-12T12:37:01Z</time>
      </trkpt>
      <trkpt lat="46.534065" lon="11.494346">
        <ele>375.551</ele>
        <time>2018-09-12T12:37:10Z</time>
      </trkpt>
      <trkpt lat="46.534107" lon="11.494355">
        <ele>375.031</ele>
        <time>2018-09-12T12:37:11Z</time>
      </trkpt>
      <trkpt lat="46.534382" lon="11.494201">
        <ele>375.534</ele>
        <time>2018-09-12T12:37:20Z</time>
      </trkpt>
      <trkpt lat="46.534687" lon="11.493708">
        <ele>373.620</ele>
        <time>2018-09-12T12:37:36Z</time>
      </trkpt>
      <trkpt lat="46.534685" lon="11.493651">
        <ele>373.621</ele>
        <time>2018-09-12T12:37:37Z</time>
      </trkpt>
      <trkpt lat="46.534665" lon="11.493605">
        <ele>373.641</ele>
        <time>2018-09-12T12:37:38Z</time>
      </trkpt>
      <trkpt lat="46.534642" lon="11.493572">
        <ele>373.105</ele>
        <time>2018-09-12T12:37:39Z</time>
      </trkpt>
      <trkpt lat="46.534290" lon="11.493052">
        <ele>373.108</ele>
        <time>2018-09-12T12:37:53Z</time>
      </trkpt>
      <trkpt lat="46.533559" lon="11.491943">
        <ele>371.616</ele>
        <time>2018-09-12T12:38:15Z</time>
      </trkpt>
      <trkpt lat="46.532890" lon="11.490930">
        <ele>371.258</ele>
        <time>2018-09-12T12:38:33Z</time>
      </trkpt>
      <trkpt lat="46.532149" lon="11.489846">
        <ele>370.734</ele>
        <time>2018-09-12T12:38:51Z</time>
      </trkpt>
      <trkpt lat="46.532123" lon="11.489800">
        <ele>370.740</ele>
        <time>2018-09-12T12:38:52Z</time>
      </trkpt>
      <trkpt lat="46.532110" lon="11.489755">
        <ele>371.220</ele>
        <time>2018-09-12T12:38:53Z</time>
      </trkpt>
      <trkpt lat="46.531847" lon="11.489167">
        <ele>373.680</ele>
        <time>2018-09-12T12:39:04Z</time>
      </trkpt>
      <trkpt lat="46.531764" lon="11.489050">
        <ele>373.673</ele>
        <time>2018-09-12T12:39:05Z</time>
      </trkpt>
      <trkpt lat="46.531689" lon="11.488969">
        <ele>373.669</ele>
        <time>2018-09-12T12:39:06Z</time>
      </trkpt>
      <trkpt lat="46.531613" lon="11.488898">
        <ele>373.691</ele>
        <time>2018-09-12T12:39:07Z</time>
      </trkpt>
      <trkpt lat="46.531422" lon="11.488790">
        <ele>373.181</ele>
        <time>2018-09-12T12:39:09Z</time>
      </trkpt>
      <trkpt lat="46.531337" lon="11.488743">
        <ele>372.619</ele>
        <time>2018-09-12T12:39:10Z</time>
      </trkpt>
      <trkpt lat="46.531268" lon="11.488713">
        <ele>372.608</ele>
        <time>2018-09-12T12:39:11Z</time>
      </trkpt>
      <trkpt lat="46.530205" lon="11.488841">
        <ele>369.293</ele>
        <time>2018-09-12T12:39:26Z</time>
      </trkpt>
      <trkpt lat="46.529160" lon="11.488895">
        <ele>366.465</ele>
        <time>2018-09-12T12:39:43Z</time>
      </trkpt>
      <trkpt lat="46.529107" lon="11.488921">
        <ele>365.991</ele>
        <time>2018-09-12T12:39:44Z</time>
      </trkpt>
      <trkpt lat="46.527541" lon="11.489731">
        <ele>347.117</ele>
        <time>2018-09-12T12:40:15Z</time>
      </trkpt>
      <trkpt lat="46.527383" lon="11.489869">
        <ele>339.987</ele>
        <time>2018-09-12T12:40:17Z</time>
      </trkpt>
      <trkpt lat="46.527343" lon="11.489822">
        <ele>342.827</ele>
        <time>2018-09-12T12:40:18Z</time>
      </trkpt>
      <trkpt lat="46.527296" lon="11.489804">
        <ele>343.390</ele>
        <time>2018-09-12T12:40:19Z</time>
      </trkpt>
      <trkpt lat="46.526655" lon="11.489995">
        <ele>348.146</ele>
        <time>2018-09-12T12:40:30Z</time>
      </trkpt>
      <trkpt lat="46.526466" lon="11.490051">
        <ele>346.699</ele>
        <time>2018-09-12T12:40:34Z</time>
      </trkpt>
      <trkpt lat="46.526383" lon="11.490061">
        <ele>351.507</ele>
        <time>2018-09-12T12:40:35Z</time>
      </trkpt>
      <trkpt lat="46.525458" lon="11.490013">
        <ele>360.627</ele>
        <time>2018-09-12T12:40:50Z</time>
      </trkpt>
      <trkpt lat="46.525183" lon="11.489901">
        <ele>360.608</ele>
        <time>2018-09-12T12:40:55Z</time>
      </trkpt>
      <trkpt lat="46.524829" lon="11.489666">
        <ele>361.583</ele>
        <time>2018-09-12T12:41:02Z</time>
      </trkpt>
      <trkpt lat="46.524779" lon="11.489637">
        <ele>361.555</ele>
        <time>2018-09-12T12:41:03Z</time>
      </trkpt>
      <trkpt lat="46.524052" lon="11.489009">
        <ele>359.141</ele>
        <time>2018-09-12T12:41:17Z</time>
      </trkpt>
      <trkpt lat="46.523184" lon="11.488297">
        <ele>357.297</ele>
        <time>2018-09-12T12:41:36Z</time>
      </trkpt>
      <trkpt lat="46.522434" lon="11.487395">
        <ele>355.387</ele>
        <time>2018-09-12T12:41:53Z</time>
      </trkpt>
      <trkpt lat="46.522216" lon="11.486996">
        <ele>354.347</ele>
        <time>2018-09-12T12:41:59Z</time>
      </trkpt>
      <trkpt lat="46.522080" lon="11.486733">
        <ele>353.470</ele>
        <time>2018-09-12T12:42:03Z</time>
      </trkpt>
      <trkpt lat="46.522043" lon="11.486676">
        <ele>353.936</ele>
        <time>2018-09-12T12:42:04Z</time>
      </trkpt>
      <trkpt lat="46.521815" lon="11.486071">
        <ele>354.371</ele>
        <time>2018-09-12T12:42:16Z</time>
      </trkpt>
      <trkpt lat="46.520687" lon="11.483831">
        <ele>350.041</ele>
        <time>2018-09-12T12:42:45Z</time>
      </trkpt>
      <trkpt lat="46.519934" lon="11.483231">
        <ele>351.015</ele>
        <time>2018-09-12T12:42:59Z</time>
      </trkpt>
      <trkpt lat="46.519269" lon="11.482737">
        <ele>350.008</ele>
        <time>2018-09-12T12:43:12Z</time>
      </trkpt>
      <trkpt lat="46.518890" lon="11.482462">
        <ele>350.511</ele>
        <time>2018-09-12T12:43:19Z</time>
      </trkpt>
      <trkpt lat="46.518848" lon="11.482393">
        <ele>350.083</ele>
        <time>2018-09-12T12:43:20Z</time>
      </trkpt>
      <trkpt lat="46.518372" lon="11.481490">
        <ele>348.619</ele>
        <time>2018-09-12T12:43:33Z</time>
      </trkpt>
      <trkpt lat="46.518240" lon="11.481147">
        <ele>347.195</ele>
        <time>2018-09-12T12:43:38Z</time>
      </trkpt>
      <trkpt lat="46.518176" lon="11.481050">
        <ele>347.115</ele>
        <time>2018-09-12T12:43:39Z</time>
      </trkpt>
      <trkpt lat="46.517349" lon="11.480322">
        <ele>346.645</ele>
        <time>2018-09-12T12:43:55Z</time>
      </trkpt>
      <trkpt lat="46.516512" lon="11.479681">
        <ele>346.218</ele>
        <time>2018-09-12T12:44:13Z</time>
      </trkpt>
      <trkpt lat="46.515869" lon="11.479231">
        <ele>345.774</ele>
        <time>2018-09-12T12:44:27Z</time>
      </trkpt>
      <trkpt lat="46.515006" lon="11.478821">
        <ele>345.271</ele>
        <time>2018-09-12T12:44:45Z</time>
      </trkpt>
      <trkpt lat="46.514089" lon="11.478746">
        <ele>344.741</ele>
        <time>2018-09-12T12:45:04Z</time>
      </trkpt>
      <trkpt lat="46.513138" lon="11.478572">
        <ele>343.815</ele>
        <time>2018-09-12T12:45:23Z</time>
      </trkpt>
      <trkpt lat="46.512601" lon="11.478241">
        <ele>343.308</ele>
        <time>2018-09-12T12:45:34Z</time>
      </trkpt>
      <trkpt lat="46.512046" lon="11.477556">
        <ele>341.811</ele>
        <time>2018-09-12T12:45:49Z</time>
      </trkpt>
      <trkpt lat="46.511991" lon="11.477454">
        <ele>341.853</ele>
        <time>2018-09-12T12:45:51Z</time>
      </trkpt>
      <trkpt lat="46.511618" lon="11.476568">
        <ele>339.919</ele>
        <time>2018-09-12T12:46:06Z</time>
      </trkpt>
      <trkpt lat="46.511551" lon="11.476302">
        <ele>339.435</ele>
        <time>2018-09-12T12:46:10Z</time>
      </trkpt>
      <trkpt lat="46.511455" lon="11.474942">
        <ele>336.685</ele>
        <time>2018-09-12T12:46:28Z</time>
      </trkpt>
      <trkpt lat="46.511555" lon="11.473484">
        <ele>334.685</ele>
        <time>2018-09-12T12:46:45Z</time>
      </trkpt>
      <trkpt lat="46.511658" lon="11.472288">
        <ele>331.798</ele>
        <time>2018-09-12T12:46:59Z</time>
      </trkpt>
      <trkpt lat="46.511644" lon="11.471316">
        <ele>330.854</ele>
        <time>2018-09-12T12:47:10Z</time>
      </trkpt>
      <trkpt lat="46.511627" lon="11.471229">
        <ele>330.896</ele>
        <time>2018-09-12T12:47:11Z</time>
      </trkpt>
      <trkpt lat="46.511602" lon="11.471144">
        <ele>330.831</ele>
        <time>2018-09-12T12:47:12Z</time>
      </trkpt>
      <trkpt lat="46.511573" lon="11.471068">
        <ele>330.324</ele>
        <time>2018-09-12T12:47:13Z</time>
      </trkpt>
      <trkpt lat="46.511537" lon="11.470991">
        <ele>330.308</ele>
        <time>2018-09-12T12:47:14Z</time>
      </trkpt>
      <trkpt lat="46.511376" lon="11.470718">
        <ele>330.843</ele>
        <time>2018-09-12T12:47:18Z</time>
      </trkpt>
      <trkpt lat="46.511327" lon="11.470660">
        <ele>330.855</ele>
        <time>2018-09-12T12:47:19Z</time>
      </trkpt>
      <trkpt lat="46.510400" lon="11.469832">
        <ele>331.331</ele>
        <time>2018-09-12T12:47:36Z</time>
      </trkpt>
      <trkpt lat="46.509586" lon="11.469062">
        <ele>331.787</ele>
        <time>2018-09-12T12:47:52Z</time>
      </trkpt>
      <trkpt lat="46.508797" lon="11.468253">
        <ele>330.827</ele>
        <time>2018-09-12T12:48:08Z</time>
      </trkpt>
      <trkpt lat="46.507957" lon="11.467290">
        <ele>330.327</ele>
        <time>2018-09-12T12:48:25Z</time>
      </trkpt>
      <trkpt lat="46.507323" lon="11.466135">
        <ele>328.910</ele>
        <time>2018-09-12T12:48:42Z</time>
      </trkpt>
      <trkpt lat="46.507221" lon="11.465875">
        <ele>328.416</ele>
        <time>2018-09-12T12:48:46Z</time>
      </trkpt>
      <trkpt lat="46.507193" lon="11.465811">
        <ele>327.923</ele>
        <time>2018-09-12T12:48:47Z</time>
      </trkpt>
      <trkpt lat="46.506643" lon="11.464515">
        <ele>326.583</ele>
        <time>2018-09-12T12:49:06Z</time>
      </trkpt>
      <trkpt lat="46.506125" lon="11.463266">
        <ele>325.011</ele>
        <time>2018-09-12T12:49:24Z</time>
      </trkpt>
      <trkpt lat="46.506111" lon="11.463197">
        <ele>325.008</ele>
        <time>2018-09-12T12:49:25Z</time>
      </trkpt>
      <trkpt lat="46.506103" lon="11.463135">
        <ele>325.556</ele>
        <time>2018-09-12T12:49:26Z</time>
      </trkpt>
      <trkpt lat="46.506005" lon="11.462478">
        <ele>326.568</ele>
        <time>2018-09-12T12:49:38Z</time>
      </trkpt>
      <trkpt lat="46.505765" lon="11.462219">
        <ele>325.044</ele>
        <time>2018-09-12T12:49:39Z</time>
      </trkpt>
      <trkpt lat="46.505703" lon="11.462114">
        <ele>325.010</ele>
        <time>2018-09-12T12:49:40Z</time>
      </trkpt>
      <trkpt lat="46.505025" lon="11.461107">
        <ele>324.190</ele>
        <time>2018-09-12T12:49:56Z</time>
      </trkpt>
      <trkpt lat="46.504207" lon="11.460440">
        <ele>325.010</ele>
        <time>2018-09-12T12:50:15Z</time>
      </trkpt>
      <trkpt lat="46.503226" lon="11.459823">
        <ele>324.533</ele>
        <time>2018-09-12T12:50:37Z</time>
      </trkpt>
      <trkpt lat="46.502248" lon="11.459173">
        <ele>323.659</ele>
        <time>2018-09-12T12:50:59Z</time>
      </trkpt>
      <trkpt lat="46.501520" lon="11.458343">
        <ele>322.111</ele>
        <time>2018-09-12T12:51:18Z</time>
      </trkpt>
      <trkpt lat="46.501114" lon="11.457387">
        <ele>320.721</ele>
        <time>2018-09-12T12:51:34Z</time>
      </trkpt>
      <trkpt lat="46.501001" lon="11.456906">
        <ele>319.703</ele>
        <time>2018-09-12T12:51:41Z</time>
      </trkpt>
      <trkpt lat="46.500990" lon="11.456837">
        <ele>319.708</ele>
        <time>2018-09-12T12:51:42Z</time>
      </trkpt>
      <trkpt lat="46.500882" lon="11.455769">
        <ele>319.745</ele>
        <time>2018-09-12T12:51:57Z</time>
      </trkpt>
      <trkpt lat="46.500823" lon="11.454766">
        <ele>318.857</ele>
        <time>2018-09-12T12:52:11Z</time>
      </trkpt>
      <trkpt lat="46.500689" lon="11.453845">
        <ele>317.313</ele>
        <time>2018-09-12T12:52:24Z</time>
      </trkpt>
      <trkpt lat="46.500222" lon="11.452684">
        <ele>317.339</ele>
        <time>2018-09-12T12:52:42Z</time>
      </trkpt>
      <trkpt lat="46.499577" lon="11.451868">
        <ele>318.899</ele>
        <time>2018-09-12T12:52:59Z</time>
      </trkpt>
      <trkpt lat="46.498847" lon="11.451353">
        <ele>318.879</ele>
        <time>2018-09-12T12:53:15Z</time>
      </trkpt>
      <trkpt lat="46.498008" lon="11.450805">
        <ele>319.792</ele>
        <time>2018-09-12T12:53:33Z</time>
      </trkpt>
      <trkpt lat="46.497379" lon="11.450103">
        <ele>320.278</ele>
        <time>2018-09-12T12:53:49Z</time>
      </trkpt>
      <trkpt lat="46.497064" lon="11.449629">
        <ele>322.164</ele>
        <time>2018-09-12T12:54:04Z</time>
      </trkpt>
      <trkpt lat="46.496864" lon="11.449235">
        <ele>323.606</ele>
        <time>2018-09-12T12:54:19Z</time>
      </trkpt>
      <trkpt lat="46.496692" lon="11.448958">
        <ele>327.416</ele>
        <time>2018-09-12T12:54:32Z</time>
      </trkpt>
      <trkpt lat="46.496419" lon="11.448816">
        <ele>330.308</ele>
        <time>2018-09-12T12:54:48Z</time>
      </trkpt>
      <trkpt lat="46.496275" lon="11.448681">
        <ele>330.390</ele>
        <time>2018-09-12T12:54:57Z</time>
      </trkpt>
      <trkpt lat="46.496267" lon="11.448658">
        <ele>330.382</ele>
        <time>2018-09-12T12:54:58Z</time>
      </trkpt>
      <trkpt lat="46.496267" lon="11.448625">
        <ele>329.868</ele>
        <time>2018-09-12T12:54:59Z</time>
      </trkpt>
      <trkpt lat="46.496278" lon="11.448585">
        <ele>329.314</ele>
        <time>2018-09-12T12:55:00Z</time>
      </trkpt>
      <trkpt lat="46.496293" lon="11.448531">
        <ele>328.944</ele>
        <time>2018-09-12T12:55:01Z</time>
      </trkpt>
      <trkpt lat="46.496299" lon="11.448468">
        <ele>327.984</ele>
        <time>2018-09-12T12:55:02Z</time>
      </trkpt>
      <trkpt lat="46.496295" lon="11.448394">
        <ele>327.447</ele>
        <time>2018-09-12T12:55:03Z</time>
      </trkpt>
      <trkpt lat="46.496286" lon="11.448329">
        <ele>326.543</ele>
        <time>2018-09-12T12:55:04Z</time>
      </trkpt>
      <trkpt lat="46.496269" lon="11.448244">
        <ele>325.537</ele>
        <time>2018-09-12T12:55:05Z</time>
      </trkpt>
      <trkpt lat="46.496251" lon="11.448156">
        <ele>325.049</ele>
        <time>2018-09-12T12:55:06Z</time>
      </trkpt>
      <trkpt lat="46.495979" lon="11.447130">
        <ele>323.113</ele>
        <time>2018-09-12T12:55:18Z</time>
      </trkpt>
      <trkpt lat="46.495856" lon="11.446555">
        <ele>318.808</ele>
        <time>2018-09-12T12:55:27Z</time>
      </trkpt>
      <trkpt lat="46.495832" lon="11.446537">
        <ele>318.817</ele>
        <time>2018-09-12T12:55:28Z</time>
      </trkpt>
      <trkpt lat="46.495804" lon="11.446530">
        <ele>319.369</ele>
        <time>2018-09-12T12:55:29Z</time>
      </trkpt>
      <trkpt lat="46.495776" lon="11.446536">
        <ele>319.355</ele>
        <time>2018-09-12T12:55:30Z</time>
      </trkpt>
      <trkpt lat="46.495751" lon="11.446553">
        <ele>319.331</ele>
        <time>2018-09-12T12:55:31Z</time>
      </trkpt>
      <trkpt lat="46.495724" lon="11.446560">
        <ele>318.871</ele>
        <time>2018-09-12T12:55:32Z</time>
      </trkpt>
      <trkpt lat="46.495700" lon="11.446548">
        <ele>318.861</ele>
        <time>2018-09-12T12:55:33Z</time>
      </trkpt>
      <trkpt lat="46.495687" lon="11.446515">
        <ele>318.894</ele>
        <time>2018-09-12T12:55:34Z</time>
      </trkpt>
      <trkpt lat="46.495700" lon="11.446469">
        <ele>318.830</ele>
        <time>2018-09-12T12:55:35Z</time>
      </trkpt>
      <trkpt lat="46.495729" lon="11.446459">
        <ele>318.885</ele>
        <time>2018-09-12T12:55:36Z</time>
      </trkpt>
      <trkpt lat="46.495767" lon="11.446466">
        <ele>318.389</ele>
        <time>2018-09-12T12:55:37Z</time>
      </trkpt>
      <trkpt lat="46.495806" lon="11.446456">
        <ele>318.317</ele>
        <time>2018-09-12T12:55:38Z</time>
      </trkpt>
      <trkpt lat="46.495835" lon="11.446398">
        <ele>317.808</ele>
        <time>2018-09-12T12:55:39Z</time>
      </trkpt>
      <trkpt lat="46.495839" lon="11.446339">
        <ele>317.312</ele>
        <time>2018-09-12T12:55:40Z</time>
      </trkpt>
      <trkpt lat="46.495837" lon="11.446279">
        <ele>317.334</ele>
        <time>2018-09-12T12:55:41Z</time>
      </trkpt>
      <trkpt lat="46.495833" lon="11.446213">
        <ele>317.320</ele>
        <time>2018-09-12T12:55:42Z</time>
      </trkpt>
      <trkpt lat="46.495811" lon="11.445752">
        <ele>315.936</ele>
        <time>2018-09-12T12:55:49Z</time>
      </trkpt>
      <trkpt lat="46.495814" lon="11.445692">
        <ele>315.916</ele>
        <time>2018-09-12T12:55:50Z</time>
      </trkpt>
      <trkpt lat="46.495809" lon="11.445628">
        <ele>315.986</ele>
        <time>2018-09-12T12:55:51Z</time>
      </trkpt>
      <trkpt lat="46.495801" lon="11.445567">
        <ele>316.489</ele>
        <time>2018-09-12T12:55:52Z</time>
      </trkpt>
      <trkpt lat="46.495790" lon="11.445506">
        <ele>316.465</ele>
        <time>2018-09-12T12:55:53Z</time>
      </trkpt>
      <trkpt lat="46.495714" lon="11.445011">
        <ele>313.524</ele>
        <time>2018-09-12T12:56:01Z</time>
      </trkpt>
      <trkpt lat="46.495571" lon="11.444258">
        <ele>313.004</ele>
        <time>2018-09-12T12:56:12Z</time>
      </trkpt>
      <trkpt lat="46.495577" lon="11.444171">
        <ele>312.514</ele>
        <time>2018-09-12T12:56:13Z</time>
      </trkpt>
      <trkpt lat="46.495592" lon="11.444074">
        <ele>312.008</ele>
        <time>2018-09-12T12:56:14Z</time>
      </trkpt>
      <trkpt lat="46.495608" lon="11.443974">
        <ele>311.686</ele>
        <time>2018-09-12T12:56:15Z</time>
      </trkpt>
      <trkpt lat="46.495614" lon="11.443875">
        <ele>311.128</ele>
        <time>2018-09-12T12:56:16Z</time>
      </trkpt>
      <trkpt lat="46.495611" lon="11.443780">
        <ele>311.144</ele>
        <time>2018-09-12T12:56:17Z</time>
      </trkpt>
      <trkpt lat="46.495605" lon="11.443687">
        <ele>311.140</ele>
        <time>2018-09-12T12:56:18Z</time>
      </trkpt>
      <trkpt lat="46.495505" lon="11.443049">
        <ele>313.090</ele>
        <time>2018-09-12T12:56:29Z</time>
      </trkpt>
      <trkpt lat="46.495350" lon="11.442664">
        <ele>313.560</ele>
        <time>2018-09-12T12:56:36Z</time>
      </trkpt>
      <trkpt lat="46.495324" lon="11.442609">
        <ele>313.513</ele>
        <time>2018-09-12T12:56:37Z</time>
      </trkpt>
      <trkpt lat="46.494672" lon="11.441591">
        <ele>314.079</ele>
        <time>2018-09-12T12:56:56Z</time>
      </trkpt>
      <trkpt lat="46.493638" lon="11.440583">
        <ele>312.085</ele>
        <time>2018-09-12T12:57:19Z</time>
      </trkpt>
      <trkpt lat="46.492735" lon="11.439728">
        <ele>310.689</ele>
        <time>2018-09-12T12:57:38Z</time>
      </trkpt>
      <trkpt lat="46.492234" lon="11.439287">
        <ele>314.417</ele>
        <time>2018-09-12T12:57:54Z</time>
      </trkpt>
      <trkpt lat="46.491870" lon="11.438827">
        <ele>317.308</ele>
        <time>2018-09-12T12:58:12Z</time>
      </trkpt>
      <trkpt lat="46.491747" lon="11.438260">
        <ele>317.872</ele>
        <time>2018-09-12T12:58:27Z</time>
      </trkpt>
      <trkpt lat="46.491716" lon="11.437910">
        <ele>315.994</ele>
        <time>2018-09-12T12:58:32Z</time>
      </trkpt>
      <trkpt lat="46.491717" lon="11.437837">
        <ele>315.950</ele>
        <time>2018-09-12T12:58:33Z</time>
      </trkpt>
      <trkpt lat="46.491771" lon="11.437290">
        <ele>316.446</ele>
        <time>2018-09-12T12:58:41Z</time>
      </trkpt>
      <trkpt lat="46.491918" lon="11.436776">
        <ele>315.486</ele>
        <time>2018-09-12T12:58:49Z</time>
      </trkpt>
      <trkpt lat="46.491975" lon="11.436637">
        <ele>314.956</ele>
        <time>2018-09-12T12:58:51Z</time>
      </trkpt>
      <trkpt lat="46.491997" lon="11.436555">
        <ele>314.499</ele>
        <time>2018-09-12T12:58:52Z</time>
      </trkpt>
      <trkpt lat="46.492011" lon="11.436463">
        <ele>313.565</ele>
        <time>2018-09-12T12:58:53Z</time>
      </trkpt>
      <trkpt lat="46.492084" lon="11.435829">
        <ele>309.686</ele>
        <time>2018-09-12T12:58:59Z</time>
      </trkpt>
      <trkpt lat="46.492114" lon="11.435712">
        <ele>308.760</ele>
        <time>2018-09-12T12:59:00Z</time>
      </trkpt>
      <trkpt lat="46.492158" lon="11.435600">
        <ele>308.226</ele>
        <time>2018-09-12T12:59:01Z</time>
      </trkpt>
      <trkpt lat="46.492192" lon="11.435496">
        <ele>307.708</ele>
        <time>2018-09-12T12:59:02Z</time>
      </trkpt>
      <trkpt lat="46.492210" lon="11.435401">
        <ele>307.762</ele>
        <time>2018-09-12T12:59:03Z</time>
      </trkpt>
      <trkpt lat="46.489742" lon="11.428194">
        <ele>310.184</ele>
        <time>2018-09-12T13:00:49Z</time>
      </trkpt>
      <trkpt lat="46.489303" lon="11.427154">
        <ele>306.340</ele>
        <time>2018-09-12T13:01:06Z</time>
      </trkpt>
      <trkpt lat="46.488841" lon="11.425681">
        <ele>306.816</ele>
        <time>2018-09-12T13:01:27Z</time>
      </trkpt>
      <trkpt lat="46.488721" lon="11.425178">
        <ele>308.776</ele>
        <time>2018-09-12T13:01:38Z</time>
      </trkpt>
      <trkpt lat="46.488652" lon="11.424794">
        <ele>311.116</ele>
        <time>2018-09-12T13:01:52Z</time>
      </trkpt>
      <trkpt lat="46.488554" lon="11.424006">
        <ele>310.179</ele>
        <time>2018-09-12T13:02:07Z</time>
      </trkpt>
      <trkpt lat="46.488564" lon="11.422743">
        <ele>309.655</ele>
        <time>2018-09-12T13:02:26Z</time>
      </trkpt>
      <trkpt lat="46.488575" lon="11.422602">
        <ele>309.264</ele>
        <time>2018-09-12T13:02:28Z</time>
      </trkpt>
      <trkpt lat="46.488829" lon="11.421211">
        <ele>309.206</ele>
        <time>2018-09-12T13:02:48Z</time>
      </trkpt>
      <trkpt lat="46.489039" lon="11.420509">
        <ele>307.716</ele>
        <time>2018-09-12T13:02:58Z</time>
      </trkpt>
      <trkpt lat="46.489076" lon="11.420448">
        <ele>307.708</ele>
        <time>2018-09-12T13:02:59Z</time>
      </trkpt>
      <trkpt lat="46.489149" lon="11.420326">
        <ele>307.230</ele>
        <time>2018-09-12T13:03:01Z</time>
      </trkpt>
      <trkpt lat="46.489178" lon="11.420260">
        <ele>307.262</ele>
        <time>2018-09-12T13:03:02Z</time>
      </trkpt>
      <trkpt lat="46.489286" lon="11.419933">
        <ele>307.248</ele>
        <time>2018-09-12T13:03:07Z</time>
      </trkpt>
      <trkpt lat="46.489300" lon="11.419869">
        <ele>307.234</ele>
        <time>2018-09-12T13:03:08Z</time>
      </trkpt>
      <trkpt lat="46.489339" lon="11.419676">
        <ele>306.884</ele>
        <time>2018-09-12T13:03:11Z</time>
      </trkpt>
      <trkpt lat="46.489363" lon="11.419611">
        <ele>306.884</ele>
        <time>2018-09-12T13:03:12Z</time>
      </trkpt>
      <trkpt lat="46.489821" lon="11.418671">
        <ele>301.547</ele>
        <time>2018-09-12T13:03:23Z</time>
      </trkpt>
      <trkpt lat="46.490436" lon="11.417540">
        <ele>300.093</ele>
        <time>2018-09-12T13:03:38Z</time>
      </trkpt>
      <trkpt lat="46.491116" lon="11.416361">
        <ele>299.131</ele>
        <time>2018-09-12T13:03:56Z</time>
      </trkpt>
      <trkpt lat="46.491774" lon="11.415114">
        <ele>298.161</ele>
        <time>2018-09-12T13:04:14Z</time>
      </trkpt>
      <trkpt lat="46.492492" lon="11.413611">
        <ele>295.707</ele>
        <time>2018-09-12T13:04:35Z</time>
      </trkpt>
      <trkpt lat="46.492938" lon="11.412308">
        <ele>296.708</ele>
        <time>2018-09-12T13:04:52Z</time>
      </trkpt>
      <trkpt lat="46.493133" lon="11.410847">
        <ele>295.727</ele>
        <time>2018-09-12T13:05:09Z</time>
      </trkpt>
      <trkpt lat="46.493371" lon="11.409055">
        <ele>293.859</ele>
        <time>2018-09-12T13:05:30Z</time>
      </trkpt>
      <trkpt lat="46.493496" lon="11.407310">
        <ele>291.975</ele>
        <time>2018-09-12T13:05:50Z</time>
      </trkpt>
      <trkpt lat="46.493389" lon="11.405623">
        <ele>289.931</ele>
        <time>2018-09-12T13:06:09Z</time>
      </trkpt>
      <trkpt lat="46.493137" lon="11.403913">
        <ele>288.061</ele>
        <time>2018-09-12T13:06:30Z</time>
      </trkpt>
      <trkpt lat="46.493005" lon="11.402975">
        <ele>284.261</ele>
        <time>2018-09-12T13:06:41Z</time>
      </trkpt>
      <trkpt lat="46.493005" lon="11.402899">
        <ele>285.134</ele>
        <time>2018-09-12T13:06:42Z</time>
      </trkpt>
      <trkpt lat="46.493025" lon="11.402748">
        <ele>286.680</ele>
        <time>2018-09-12T13:06:44Z</time>
      </trkpt>
      <trkpt lat="46.493045" lon="11.402684">
        <ele>287.512</ele>
        <time>2018-09-12T13:06:45Z</time>
      </trkpt>
      <trkpt lat="46.493060" lon="11.402627">
        <ele>288.032</ele>
        <time>2018-09-12T13:06:46Z</time>
      </trkpt>
      <trkpt lat="46.493065" lon="11.402575">
        <ele>288.505</ele>
        <time>2018-09-12T13:06:47Z</time>
      </trkpt>
      <trkpt lat="46.493060" lon="11.402528">
        <ele>288.508</ele>
        <time>2018-09-12T13:06:48Z</time>
      </trkpt>
      <trkpt lat="46.493054" lon="11.402485">
        <ele>289.085</ele>
        <time>2018-09-12T13:06:49Z</time>
      </trkpt>
      <trkpt lat="46.492899" lon="11.401674">
        <ele>289.487</ele>
        <time>2018-09-12T13:07:08Z</time>
      </trkpt>
      <trkpt lat="46.492774" lon="11.400759">
        <ele>289.073</ele>
        <time>2018-09-12T13:07:25Z</time>
      </trkpt>
      <trkpt lat="46.492679" lon="11.399726">
        <ele>285.659</ele>
        <time>2018-09-12T13:07:40Z</time>
      </trkpt>
      <trkpt lat="46.492657" lon="11.399646">
        <ele>285.699</ele>
        <time>2018-09-12T13:07:41Z</time>
      </trkpt>
      <trkpt lat="46.492582" lon="11.399445">
        <ele>285.139</ele>
        <time>2018-09-12T13:07:44Z</time>
      </trkpt>
      <trkpt lat="46.492565" lon="11.399374">
        <ele>285.142</ele>
        <time>2018-09-12T13:07:45Z</time>
      </trkpt>
      <trkpt lat="46.492560" lon="11.398712">
        <ele>289.028</ele>
        <time>2018-09-12T13:07:58Z</time>
      </trkpt>
      <trkpt lat="46.492569" lon="11.398298">
        <ele>288.587</ele>
        <time>2018-09-12T13:08:05Z</time>
      </trkpt>
      <trkpt lat="46.492677" lon="11.397701">
        <ele>284.642</ele>
        <time>2018-09-12T13:08:13Z</time>
      </trkpt>
      <trkpt lat="46.492771" lon="11.397475">
        <ele>283.226</ele>
        <time>2018-09-12T13:08:16Z</time>
      </trkpt>
      <trkpt lat="46.492882" lon="11.397163">
        <ele>280.808</ele>
        <time>2018-09-12T13:08:20Z</time>
      </trkpt>
      <trkpt lat="46.492993" lon="11.396736">
        <ele>276.582</ele>
        <time>2018-09-12T13:08:31Z</time>
      </trkpt>
      <trkpt lat="46.492991" lon="11.396703">
        <ele>276.054</ele>
        <time>2018-09-12T13:08:32Z</time>
      </trkpt>
      <trkpt lat="46.492989" lon="11.396667">
        <ele>275.540</ele>
        <time>2018-09-12T13:08:33Z</time>
      </trkpt>
      <trkpt lat="46.493011" lon="11.396582">
        <ele>274.176</ele>
        <time>2018-09-12T13:08:36Z</time>
      </trkpt>
      <trkpt lat="46.493040" lon="11.396537">
        <ele>273.686</ele>
        <time>2018-09-12T13:08:37Z</time>
      </trkpt>
      <trkpt lat="46.493293" lon="11.396162">
        <ele>272.116</ele>
        <time>2018-09-12T13:08:43Z</time>
      </trkpt>
      <trkpt lat="46.493687" lon="11.395412">
        <ele>265.979</ele>
        <time>2018-09-12T13:08:58Z</time>
      </trkpt>
      <trkpt lat="46.493713" lon="11.395366">
        <ele>265.465</ele>
        <time>2018-09-12T13:08:59Z</time>
      </trkpt>
      <trkpt lat="46.493790" lon="11.395256">
        <ele>264.034</ele>
        <time>2018-09-12T13:09:02Z</time>
      </trkpt>
      <trkpt lat="46.493913" lon="11.395049">
        <ele>268.855</ele>
        <time>2018-09-12T13:09:07Z</time>
      </trkpt>
      <trkpt lat="46.494531" lon="11.394318">
        <ele>285.110</ele>
        <time>2018-09-12T13:09:24Z</time>
      </trkpt>
      <trkpt lat="46.494638" lon="11.394214">
        <ele>285.608</ele>
        <time>2018-09-12T13:09:28Z</time>
      </trkpt>
      <trkpt lat="46.494644" lon="11.394173">
        <ele>285.647</ele>
        <time>2018-09-12T13:09:29Z</time>
      </trkpt>
      <trkpt lat="46.494797" lon="11.393534">
        <ele>285.649</ele>
        <time>2018-09-12T13:09:42Z</time>
      </trkpt>
      <trkpt lat="46.494956" lon="11.392547">
        <ele>285.185</ele>
        <time>2018-09-12T13:09:59Z</time>
      </trkpt>
      <trkpt lat="46.495044" lon="11.392005">
        <ele>284.261</ele>
        <time>2018-09-12T13:10:08Z</time>
      </trkpt>
      <trkpt lat="46.495131" lon="11.391485">
        <ele>283.241</ele>
        <time>2018-09-12T13:10:18Z</time>
      </trkpt>
      <trkpt lat="46.495152" lon="11.391472">
        <ele>283.241</ele>
        <time>2018-09-12T13:10:19Z</time>
      </trkpt>
      <trkpt lat="46.495164" lon="11.391496">
        <ele>282.794</ele>
        <time>2018-09-12T13:10:20Z</time>
      </trkpt>
      <trkpt lat="46.495161" lon="11.391543">
        <ele>282.280</ele>
        <time>2018-09-12T13:10:21Z</time>
      </trkpt>
      <trkpt lat="46.495156" lon="11.391593">
        <ele>282.243</ele>
        <time>2018-09-12T13:10:22Z</time>
      </trkpt>
      <trkpt lat="46.495154" lon="11.391638">
        <ele>282.264</ele>
        <time>2018-09-12T13:10:23Z</time>
      </trkpt>
      <trkpt lat="46.495145" lon="11.391765">
        <ele>281.810</ele>
        <time>2018-09-12T13:10:25Z</time>
      </trkpt>
      <trkpt lat="46.494581" lon="11.391740">
        <ele>284.608</ele>
        <time>2018-09-12T13:10:41Z</time>
      </trkpt>
      <trkpt lat="46.494551" lon="11.391727">
        <ele>286.618</ele>
        <time>2018-09-12T13:10:42Z</time>
      </trkpt>
      <trkpt lat="46.494402" lon="11.391591">
        <ele>291.940</ele>
        <time>2018-09-12T13:10:56Z</time>
      </trkpt>
      <trkpt lat="46.494340" lon="11.391514">
        <ele>291.496</ele>
        <time>2018-09-12T13:11:04Z</time>
      </trkpt>
      <trkpt lat="46.494358" lon="11.391502">
        <ele>290.942</ele>
        <time>2018-09-12T13:11:05Z</time>
      </trkpt>
      <trkpt lat="46.494370" lon="11.391501">
        <ele>290.972</ele>
        <time>2018-09-12T13:11:06Z</time>
      </trkpt>
      <trkpt lat="46.494613" lon="11.391695">
        <ele>288.092</ele>
        <time>2018-09-12T13:11:18Z</time>
      </trkpt>
      <trkpt lat="46.494802" lon="11.391508">
        <ele>287.025</ele>
        <time>2018-09-12T13:11:28Z</time>
      </trkpt>
      <trkpt lat="46.494916" lon="11.390772">
        <ele>285.621</ele>
        <time>2018-09-12T13:11:44Z</time>
      </trkpt>
      <trkpt lat="46.494893" lon="11.390724">
        <ele>284.625</ele>
        <time>2018-09-12T13:11:45Z</time>
      </trkpt>
      <trkpt lat="46.494865" lon="11.390693">
        <ele>284.626</ele>
        <time>2018-09-12T13:11:46Z</time>
      </trkpt>
      <trkpt lat="46.494643" lon="11.390452">
        <ele>288.008</ele>
        <time>2018-09-12T13:11:55Z</time>
      </trkpt>
      <trkpt lat="46.494643" lon="11.390415">
        <ele>288.508</ele>
        <time>2018-09-12T13:11:56Z</time>
      </trkpt>
      <trkpt lat="46.494650" lon="11.390374">
        <ele>288.586</ele>
        <time>2018-09-12T13:11:57Z</time>
      </trkpt>
      <trkpt lat="46.494660" lon="11.390343">
        <ele>288.548</ele>
        <time>2018-09-12T13:11:58Z</time>
      </trkpt>
      <trkpt lat="46.494671" lon="11.390302">
        <ele>288.514</ele>
        <time>2018-09-12T13:11:59Z</time>
      </trkpt>
      <trkpt lat="46.494683" lon="11.390256">
        <ele>288.050</ele>
        <time>2018-09-12T13:12:00Z</time>
      </trkpt>
      <trkpt lat="46.494869" lon="11.389328">
        <ele>286.110</ele>
        <time>2018-09-12T13:12:15Z</time>
      </trkpt>
      <trkpt lat="46.494998" lon="11.388826">
        <ele>288.550</ele>
        <time>2018-09-12T13:12:26Z</time>
      </trkpt>
      <trkpt lat="46.495072" lon="11.388599">
        <ele>287.013</ele>
        <time>2018-09-12T13:12:30Z</time>
      </trkpt>
      <trkpt lat="46.495085" lon="11.388521">
        <ele>286.639</ele>
        <time>2018-09-12T13:12:31Z</time>
      </trkpt>
      <trkpt lat="46.495091" lon="11.388446">
        <ele>286.169</ele>
        <time>2018-09-12T13:12:32Z</time>
      </trkpt>
      <trkpt lat="46.495085" lon="11.387957">
        <ele>285.104</ele>
        <time>2018-09-12T13:12:39Z</time>
      </trkpt>
      <trkpt lat="46.495004" lon="11.387718">
        <ele>283.224</ele>
        <time>2018-09-12T13:12:42Z</time>
      </trkpt>
      <trkpt lat="46.494987" lon="11.387618">
        <ele>282.208</ele>
        <time>2018-09-12T13:12:43Z</time>
      </trkpt>
      <trkpt lat="46.494974" lon="11.387506">
        <ele>281.810</ele>
        <time>2018-09-12T13:12:44Z</time>
      </trkpt>
      <trkpt lat="46.494804" lon="11.386041">
        <ele>278.962</ele>
        <time>2018-09-12T13:13:00Z</time>
      </trkpt>
      <trkpt lat="46.494651" lon="11.384585">
        <ele>277.478</ele>
        <time>2018-09-12T13:13:18Z</time>
      </trkpt>
      <trkpt lat="46.494640" lon="11.384517">
        <ele>277.474</ele>
        <time>2018-09-12T13:13:19Z</time>
      </trkpt>
      <trkpt lat="46.494587" lon="11.384127">
        <ele>276.534</ele>
        <time>2018-09-12T13:13:25Z</time>
      </trkpt>
      <trkpt lat="46.494620" lon="11.382781">
        <ele>277.084</ele>
        <time>2018-09-12T13:13:45Z</time>
      </trkpt>
      <trkpt lat="46.494636" lon="11.382123">
        <ele>277.047</ele>
        <time>2018-09-12T13:13:58Z</time>
      </trkpt>
      <trkpt lat="46.494655" lon="11.382126">
        <ele>277.953</ele>
        <time>2018-09-12T13:14:22Z</time>
      </trkpt>
      <trkpt lat="46.494657" lon="11.382087">
        <ele>277.942</ele>
        <time>2018-09-12T13:14:36Z</time>
      </trkpt>
      <trkpt lat="46.494653" lon="11.382071">
        <ele>277.922</ele>
        <time>2018-09-12T13:14:37Z</time>
      </trkpt>
      <trkpt lat="46.494651" lon="11.382052">
        <ele>277.914</ele>
        <time>2018-09-12T13:14:38Z</time>
      </trkpt>
      <trkpt lat="46.494618" lon="11.381448">
        <ele>277.408</ele>
        <time>2018-09-12T13:14:51Z</time>
      </trkpt>
      <trkpt lat="46.494590" lon="11.380861">
        <ele>277.468</ele>
        <time>2018-09-12T13:15:01Z</time>
      </trkpt>
      <trkpt lat="46.494569" lon="11.380237">
        <ele>280.320</ele>
        <time>2018-09-12T13:15:14Z</time>
      </trkpt>
      <trkpt lat="46.494551" lon="11.379529">
        <ele>280.336</ele>
        <time>2018-09-12T13:15:28Z</time>
      </trkpt>
      <trkpt lat="46.494541" lon="11.379466">
        <ele>280.392</ele>
        <time>2018-09-12T13:15:29Z</time>
      </trkpt>
      <trkpt lat="46.494357" lon="11.378501">
        <ele>277.032</ele>
        <time>2018-09-12T13:15:41Z</time>
      </trkpt>
      <trkpt lat="46.494317" lon="11.377125">
        <ele>275.552</ele>
        <time>2018-09-12T13:15:57Z</time>
      </trkpt>
      <trkpt lat="46.494326" lon="11.376885">
        <ele>275.565</ele>
        <time>2018-09-12T13:16:01Z</time>
      </trkpt>
      <trkpt lat="46.494343" lon="11.376863">
        <ele>276.021</ele>
        <time>2018-09-12T13:16:10Z</time>
      </trkpt>
      <trkpt lat="46.494327" lon="11.376844">
        <ele>276.597</ele>
        <time>2018-09-12T13:16:41Z</time>
      </trkpt>
      <trkpt lat="46.494311" lon="11.376804">
        <ele>277.423</ele>
        <time>2018-09-12T13:16:51Z</time>
      </trkpt>
      <trkpt lat="46.494308" lon="11.376780">
        <ele>277.925</ele>
        <time>2018-09-12T13:16:55Z</time>
      </trkpt>
      <trkpt lat="46.494302" lon="11.376757">
        <ele>277.408</ele>
        <time>2018-09-12T13:16:56Z</time>
      </trkpt>
      <trkpt lat="46.494299" lon="11.376732">
        <ele>277.923</ele>
        <time>2018-09-12T13:16:57Z</time>
      </trkpt>
      <trkpt lat="46.494297" lon="11.376704">
        <ele>277.455</ele>
        <time>2018-09-12T13:16:58Z</time>
      </trkpt>
      <trkpt lat="46.494292" lon="11.376672">
        <ele>277.421</ele>
        <time>2018-09-12T13:16:59Z</time>
      </trkpt>
      <trkpt lat="46.494288" lon="11.376635">
        <ele>277.427</ele>
        <time>2018-09-12T13:17:00Z</time>
      </trkpt>
      <trkpt lat="46.494193" lon="11.375771">
        <ele>276.577</ele>
        <time>2018-09-12T13:17:16Z</time>
      </trkpt>
      <trkpt lat="46.494026" lon="11.374722">
        <ele>275.527</ele>
        <time>2018-09-12T13:17:32Z</time>
      </trkpt>
      <trkpt lat="46.494026" lon="11.374641">
        <ele>275.530</ele>
        <time>2018-09-12T13:17:33Z</time>
      </trkpt>
      <trkpt lat="46.494019" lon="11.374562">
        <ele>275.566</ele>
        <time>2018-09-12T13:17:34Z</time>
      </trkpt>
      <trkpt lat="46.494010" lon="11.374506">
        <ele>275.595</ele>
        <time>2018-09-12T13:17:35Z</time>
      </trkpt>
      <trkpt lat="46.493997" lon="11.374429">
        <ele>275.549</ele>
        <time>2018-09-12T13:17:36Z</time>
      </trkpt>
      <trkpt lat="46.493780" lon="11.373014">
        <ele>275.523</ele>
        <time>2018-09-12T13:17:56Z</time>
      </trkpt>
      <trkpt lat="46.493595" lon="11.371668">
        <ele>275.008</ele>
        <time>2018-09-12T13:18:14Z</time>
      </trkpt>
      <trkpt lat="46.493482" lon="11.371012">
        <ele>274.523</ele>
        <time>2018-09-12T13:18:26Z</time>
      </trkpt>
      <trkpt lat="46.493398" lon="11.370284">
        <ele>274.535</ele>
        <time>2018-09-12T13:18:39Z</time>
      </trkpt>
      <trkpt lat="46.493186" lon="11.369202">
        <ele>273.131</ele>
        <time>2018-09-12T13:18:56Z</time>
      </trkpt>
      <trkpt lat="46.493079" lon="11.368744">
        <ele>275.527</ele>
        <time>2018-09-12T13:19:08Z</time>
      </trkpt>
      <trkpt lat="46.493085" lon="11.368749">
        <ele>275.567</ele>
        <time>2018-09-12T13:19:30Z</time>
      </trkpt>
      <trkpt lat="46.493068" lon="11.368749">
        <ele>275.597</ele>
        <time>2018-09-12T13:20:00Z</time>
      </trkpt>
      <trkpt lat="46.493038" lon="11.368486">
        <ele>276.530</ele>
        <time>2018-09-12T13:20:10Z</time>
      </trkpt>
      <trkpt lat="46.493046" lon="11.368491">
        <ele>276.036</ele>
        <time>2018-09-12T13:20:31Z</time>
      </trkpt>
      <trkpt lat="46.493020" lon="11.368424">
        <ele>275.592</ele>
        <time>2018-09-12T13:20:53Z</time>
      </trkpt>
      <trkpt lat="46.492968" lon="11.368199">
        <ele>274.573</ele>
        <time>2018-09-12T13:20:58Z</time>
      </trkpt>
      <trkpt lat="46.492957" lon="11.368062">
        <ele>273.620</ele>
        <time>2018-09-12T13:21:00Z</time>
      </trkpt>
      <trkpt lat="46.492953" lon="11.367915">
        <ele>273.608</ele>
        <time>2018-09-12T13:21:02Z</time>
      </trkpt>
      <trkpt lat="46.492954" lon="11.367840">
        <ele>273.193</ele>
        <time>2018-09-12T13:21:03Z</time>
      </trkpt>
      <trkpt lat="46.492825" lon="11.366747">
        <ele>271.255</ele>
        <time>2018-09-12T13:21:19Z</time>
      </trkpt>
      <trkpt lat="46.492558" lon="11.365263">
        <ele>271.231</ele>
        <time>2018-09-12T13:21:40Z</time>
      </trkpt>
      <trkpt lat="46.492338" lon="11.364051">
        <ele>269.737</ele>
        <time>2018-09-12T13:21:57Z</time>
      </trkpt>
      <trkpt lat="46.492315" lon="11.363302">
        <ele>269.727</ele>
        <time>2018-09-12T13:22:07Z</time>
      </trkpt>
      <trkpt lat="46.492404" lon="11.362481">
        <ele>269.787</ele>
        <time>2018-09-12T13:22:18Z</time>
      </trkpt>
      <trkpt lat="46.492414" lon="11.362411">
        <ele>270.220</ele>
        <time>2018-09-12T13:22:19Z</time>
      </trkpt>
      <trkpt lat="46.492542" lon="11.361395">
        <ele>269.746</ele>
        <time>2018-09-12T13:22:33Z</time>
      </trkpt>
      <trkpt lat="46.492654" lon="11.360524">
        <ele>271.246</ele>
        <time>2018-09-12T13:22:48Z</time>
      </trkpt>
      <trkpt lat="46.492827" lon="11.359691">
        <ele>269.788</ele>
        <time>2018-09-12T13:23:03Z</time>
      </trkpt>
      <trkpt lat="46.492832" lon="11.359661">
        <ele>269.316</ele>
        <time>2018-09-12T13:23:04Z</time>
      </trkpt>
      <trkpt lat="46.492845" lon="11.359688">
        <ele>269.308</ele>
        <time>2018-09-12T13:23:17Z</time>
      </trkpt>
      <trkpt lat="46.492898" lon="11.359592">
        <ele>270.728</ele>
        <time>2018-09-12T13:23:31Z</time>
      </trkpt>
      <trkpt lat="46.492892" lon="11.359561">
        <ele>270.730</ele>
        <time>2018-09-12T13:23:32Z</time>
      </trkpt>
      <trkpt lat="46.492777" lon="11.359006">
        <ele>270.786</ele>
        <time>2018-09-12T13:23:45Z</time>
      </trkpt>
      <trkpt lat="46.493185" lon="11.358099">
        <ele>271.762</ele>
        <time>2018-09-12T13:23:59Z</time>
      </trkpt>
      <trkpt lat="46.493495" lon="11.356922">
        <ele>267.832</ele>
        <time>2018-09-12T13:24:17Z</time>
      </trkpt>
      <trkpt lat="46.493706" lon="11.356365">
        <ele>266.412</ele>
        <time>2018-09-12T13:24:30Z</time>
      </trkpt>
      <trkpt lat="46.493736" lon="11.356367">
        <ele>266.415</ele>
        <time>2018-09-12T13:24:41Z</time>
      </trkpt>
      <trkpt lat="46.493856" lon="11.356378">
        <ele>266.471</ele>
        <time>2018-09-12T13:24:46Z</time>
      </trkpt>
      <trkpt lat="46.493887" lon="11.356328">
        <ele>266.486</ele>
        <time>2018-09-12T13:24:47Z</time>
      </trkpt>
      <trkpt lat="46.493900" lon="11.356289">
        <ele>265.960</ele>
        <time>2018-09-12T13:24:48Z</time>
      </trkpt>
      <trkpt lat="46.493918" lon="11.356229">
        <ele>265.926</ele>
        <time>2018-09-12T13:24:49Z</time>
      </trkpt>
      <trkpt lat="46.493940" lon="11.356170">
        <ele>265.908</ele>
        <time>2018-09-12T13:24:50Z</time>
      </trkpt>
      <trkpt lat="46.494356" lon="11.355138">
        <ele>261.672</ele>
        <time>2018-09-12T13:25:03Z</time>
      </trkpt>
      <trkpt lat="46.494546" lon="11.354691">
        <ele>264.084</ele>
        <time>2018-09-12T13:25:11Z</time>
      </trkpt>
      <trkpt lat="46.494570" lon="11.354635">
        <ele>265.450</ele>
        <time>2018-09-12T13:25:21Z</time>
      </trkpt>
      <trkpt lat="46.494604" lon="11.354536">
        <ele>265.986</ele>
        <time>2018-09-12T13:25:28Z</time>
      </trkpt>
      <trkpt lat="46.494704" lon="11.354139">
        <ele>266.976</ele>
        <time>2018-09-12T13:25:42Z</time>
      </trkpt>
      <trkpt lat="46.494728" lon="11.354125">
        <ele>267.396</ele>
        <time>2018-09-12T13:25:43Z</time>
      </trkpt>
      <trkpt lat="46.494751" lon="11.354123">
        <ele>267.369</ele>
        <time>2018-09-12T13:25:44Z</time>
      </trkpt>
      <trkpt lat="46.494779" lon="11.354129">
        <ele>267.375</ele>
        <time>2018-09-12T13:25:45Z</time>
      </trkpt>
      <trkpt lat="46.494795" lon="11.354136">
        <ele>267.368</ele>
        <time>2018-09-12T13:25:46Z</time>
      </trkpt>
      <trkpt lat="46.494814" lon="11.354149">
        <ele>267.342</ele>
        <time>2018-09-12T13:25:47Z</time>
      </trkpt>
      <trkpt lat="46.494831" lon="11.354162">
        <ele>267.326</ele>
        <time>2018-09-12T13:25:48Z</time>
      </trkpt>
      <trkpt lat="46.494847" lon="11.354176">
        <ele>266.908</ele>
        <time>2018-09-12T13:25:49Z</time>
      </trkpt>
      <trkpt lat="46.494857" lon="11.354188">
        <ele>266.940</ele>
        <time>2018-09-12T13:25:50Z</time>
      </trkpt>
      <trkpt lat="46.494865" lon="11.354200">
        <ele>266.942</ele>
        <time>2018-09-12T13:25:51Z</time>
      </trkpt>
      <trkpt lat="46.494924" lon="11.354338">
        <ele>265.458</ele>
        <time>2018-09-12T13:26:01Z</time>
      </trkpt>
      <trkpt lat="46.494945" lon="11.354815">
        <ele>266.464</ele>
        <time>2018-09-12T13:26:13Z</time>
      </trkpt>
      <trkpt lat="46.495038" lon="11.355454">
        <ele>270.224</ele>
        <time>2018-09-12T13:26:30Z</time>
      </trkpt>
      <trkpt lat="46.495278" lon="11.355993">
        <ele>267.394</ele>
        <time>2018-09-12T13:26:45Z</time>
      </trkpt>
      <trkpt lat="46.495666" lon="11.356568">
        <ele>267.897</ele>
        <time>2018-09-12T13:27:02Z</time>
      </trkpt>
      <trkpt lat="46.496046" lon="11.357193">
        <ele>270.263</ele>
        <time>2018-09-12T13:27:17Z</time>
      </trkpt>
      <trkpt lat="46.496333" lon="11.357688">
        <ele>271.788</ele>
        <time>2018-09-12T13:27:29Z</time>
      </trkpt>
      <trkpt lat="46.496500" lon="11.357989">
        <ele>272.624</ele>
        <time>2018-09-12T13:27:43Z</time>
      </trkpt>
      <trkpt lat="46.496515" lon="11.358042">
        <ele>273.126</ele>
        <time>2018-09-12T13:27:49Z</time>
      </trkpt>
      <trkpt lat="46.496524" lon="11.358047">
        <ele>273.108</ele>
        <time>2018-09-12T13:27:50Z</time>
      </trkpt>
      <trkpt lat="46.496534" lon="11.358050">
        <ele>273.122</ele>
        <time>2018-09-12T13:27:51Z</time>
      </trkpt>
      <trkpt lat="46.496551" lon="11.358075">
        <ele>271.784</ele>
        <time>2018-09-12T13:27:56Z</time>
      </trkpt>
      <trkpt lat="46.496544" lon="11.358103">
        <ele>272.180</ele>
        <time>2018-09-12T13:28:05Z</time>
      </trkpt>
      <trkpt lat="46.496555" lon="11.358110">
        <ele>272.116</ele>
        <time>2018-09-12T13:28:06Z</time>
      </trkpt>
      <trkpt lat="46.496566" lon="11.358118">
        <ele>272.686</ele>
        <time>2018-09-12T13:28:07Z</time>
      </trkpt>
      <trkpt lat="46.496885" lon="11.357627">
        <ele>280.836</ele>
        <time>2022-07-08T12:04:26Z</time>
      </trkpt>
      <trkpt lat="46.496884" lon="11.357626">
        <ele>280.817</ele>
        <time>2022-07-08T12:04:27Z</time>
      </trkpt>
      <trkpt lat="46.496880" lon="11.357631">
        <ele>282.218</ele>
        <time>2022-07-08T12:04:32Z</time>
      </trkpt>
      <trkpt lat="46.496872" lon="11.357628">
        <ele>280.809</ele>
        <time>2022-07-08T12:04:36Z</time>
      </trkpt>
      <trkpt lat="46.496873" lon="11.357636">
        <ele>282.744</ele>
        <time>2022-07-08T12:04:38Z</time>
      </trkpt>
      <trkpt lat="46.496949" lon="11.357701">
        <ele>282.733</ele>
        <time>2022-07-08T12:04:55Z</time>
      </trkpt>
      <trkpt lat="46.496939" lon="11.357722">
        <ele>282.781</ele>
        <time>2022-07-08T12:05:16Z</time>
      </trkpt>
      <trkpt lat="46.496860" lon="11.357817">
        <ele>282.743</ele>
        <time>2022-07-08T12:05:23Z</time>
      </trkpt>
      <trkpt lat="46.496843" lon="11.357807">
        <ele>282.799</ele>
        <time>2022-07-08T12:05:24Z</time>
      </trkpt>
      <trkpt lat="46.496830" lon="11.357789">
        <ele>282.763</ele>
        <time>2022-07-08T12:05:25Z</time>
      </trkpt>
      <trkpt lat="46.496829" lon="11.357762">
        <ele>282.744</ele>
        <time>2022-07-08T12:05:26Z</time>
      </trkpt>
      <trkpt lat="46.496835" lon="11.357735">
        <ele>282.792</ele>
        <time>2022-07-08T12:05:27Z</time>
      </trkpt>
      <trkpt lat="46.496845" lon="11.357704">
        <ele>282.776</ele>
        <time>2022-07-08T12:05:28Z</time>
      </trkpt>
      <trkpt lat="46.496858" lon="11.357668">
        <ele>282.739</ele>
        <time>2022-07-08T12:05:29Z</time>
      </trkpt>
      <trkpt lat="46.496872" lon="11.357631">
        <ele>282.701</ele>
        <time>2022-07-08T12:05:30Z</time>
      </trkpt>
      <trkpt lat="46.497038" lon="11.357149">
        <ele>282.721</ele>
        <time>2022-07-08T12:05:43Z</time>
      </trkpt>
      <trkpt lat="46.497193" lon="11.356659">
        <ele>282.709</ele>
        <time>2022-07-08T12:05:58Z</time>
      </trkpt>
      <trkpt lat="46.497298" lon="11.356315">
        <ele>281.334</ele>
        <time>2022-07-08T12:06:11Z</time>
      </trkpt>
      <trkpt lat="46.497466" lon="11.355655">
        <ele>281.323</ele>
        <time>2022-07-08T12:06:25Z</time>
      </trkpt>
      <trkpt lat="46.497750" lon="11.355022">
        <ele>282.231</ele>
        <time>2022-07-08T12:06:41Z</time>
      </trkpt>
      <trkpt lat="46.497959" lon="11.354637">
        <ele>282.263</ele>
        <time>2022-07-08T12:06:56Z</time>
      </trkpt>
      <trkpt lat="46.497946" lon="11.354595">
        <ele>282.239</ele>
        <time>2022-07-08T12:07:00Z</time>
      </trkpt>
      <trkpt lat="46.497880" lon="11.354072">
        <ele>282.233</ele>
        <time>2022-07-08T12:07:16Z</time>
      </trkpt>
      <trkpt lat="46.497769" lon="11.353489">
        <ele>282.724</ele>
        <time>2022-07-08T12:07:32Z</time>
      </trkpt>
      <trkpt lat="46.497750" lon="11.353419">
        <ele>282.762</ele>
        <time>2022-07-08T12:07:35Z</time>
      </trkpt>
      <trkpt lat="46.497743" lon="11.353400">
        <ele>282.726</ele>
        <time>2022-07-08T12:07:36Z</time>
      </trkpt>
      <trkpt lat="46.497763" lon="11.353301">
        <ele>281.811</ele>
        <time>2022-07-08T12:08:42Z</time>
      </trkpt>
      <trkpt lat="46.497765" lon="11.353285">
        <ele>281.821</ele>
        <time>2022-07-08T12:08:43Z</time>
      </trkpt>
      <trkpt lat="46.497768" lon="11.353267">
        <ele>281.803</ele>
        <time>2022-07-08T12:08:44Z</time>
      </trkpt>
      <trkpt lat="46.497773" lon="11.353252">
        <ele>281.809</ele>
        <time>2022-07-08T12:08:45Z</time>
      </trkpt>
      <trkpt lat="46.497783" lon="11.353242">
        <ele>281.852</ele>
        <time>2022-07-08T12:08:46Z</time>
      </trkpt>
      <trkpt lat="46.497760" lon="11.353196">
        <ele>281.841</ele>
        <time>2022-07-08T12:09:21Z</time>
      </trkpt>
      <trkpt lat="46.497746" lon="11.353207">
        <ele>281.899</ele>
        <time>2022-07-08T12:09:29Z</time>
      </trkpt>
      <trkpt lat="46.497735" lon="11.353222">
        <ele>281.821</ele>
        <time>2022-07-08T12:09:30Z</time>
      </trkpt>
      <trkpt lat="46.497721" lon="11.353241">
        <ele>281.827</ele>
        <time>2022-07-08T12:09:31Z</time>
      </trkpt>
      <trkpt lat="46.497705" lon="11.353261">
        <ele>281.821</ele>
        <time>2022-07-08T12:09:32Z</time>
      </trkpt>
      <trkpt lat="46.497699" lon="11.353289">
        <ele>281.862</ele>
        <time>2022-07-08T12:09:33Z</time>
      </trkpt>
      <trkpt lat="46.497686" lon="11.353333">
        <ele>281.380</ele>
        <time>2022-07-08T12:09:34Z</time>
      </trkpt>
      <trkpt lat="46.497682" lon="11.353366">
        <ele>281.314</ele>
        <time>2022-07-08T12:09:35Z</time>
      </trkpt>
      <trkpt lat="46.497678" lon="11.353408">
        <ele>281.376</ele>
        <time>2022-07-08T12:09:36Z</time>
      </trkpt>
      <trkpt lat="46.497681" lon="11.353467">
        <ele>281.390</ele>
        <time>2022-07-08T12:09:37Z</time>
      </trkpt>
      <trkpt lat="46.497695" lon="11.353527">
        <ele>281.319</ele>
        <time>2022-07-08T12:09:38Z</time>
      </trkpt>
      <trkpt lat="46.497705" lon="11.353588">
        <ele>281.309</ele>
        <time>2022-07-08T12:09:39Z</time>
      </trkpt>
      <trkpt lat="46.497871" lon="11.354456">
        <ele>280.358</ele>
        <time>2022-07-08T12:09:56Z</time>
      </trkpt>
      <trkpt lat="46.498045" lon="11.354707">
        <ele>280.397</ele>
        <time>2022-07-08T12:10:06Z</time>
      </trkpt>
      <trkpt lat="46.498068" lon="11.354724">
        <ele>280.345</ele>
        <time>2022-07-08T12:10:07Z</time>
      </trkpt>
      <trkpt lat="46.498116" lon="11.354826">
        <ele>280.367</ele>
        <time>2022-07-08T12:10:11Z</time>
      </trkpt>
      <trkpt lat="46.498149" lon="11.354843">
        <ele>281.833</ele>
        <time>2022-07-08T12:10:16Z</time>
      </trkpt>
      <trkpt lat="46.498179" lon="11.354851">
        <ele>282.287</ele>
        <time>2022-07-08T12:10:38Z</time>
      </trkpt>
      <trkpt lat="46.498329" lon="11.354690">
        <ele>282.258</ele>
        <time>2022-07-08T12:10:49Z</time>
      </trkpt>
      <trkpt lat="46.498412" lon="11.354742">
        <ele>282.776</ele>
        <time>2022-07-08T12:10:53Z</time>
      </trkpt>
      <trkpt lat="46.498523" lon="11.355046">
        <ele>283.280</ele>
        <time>2022-07-08T12:11:04Z</time>
      </trkpt>
      <trkpt lat="46.498586" lon="11.355222">
        <ele>283.258</ele>
        <time>2022-07-08T12:11:10Z</time>
      </trkpt>
      <trkpt lat="46.498666" lon="11.355246">
        <ele>282.752</ele>
        <time>2022-07-08T12:11:15Z</time>
      </trkpt>
      <trkpt lat="46.498719" lon="11.355288">
        <ele>284.617</ele>
        <time>2022-07-08T12:11:21Z</time>
      </trkpt>
      <trkpt lat="46.498740" lon="11.355307">
        <ele>284.609</ele>
        <time>2022-07-08T12:11:23Z</time>
      </trkpt>
      <trkpt lat="46.498803" lon="11.355315">
        <ele>284.686</ele>
        <time>2022-07-08T12:11:27Z</time>
      </trkpt>
      <trkpt lat="46.498943" lon="11.355275">
        <ele>285.675</ele>
        <time>2022-07-08T12:11:34Z</time>
      </trkpt>
      <trkpt lat="46.499022" lon="11.355170">
        <ele>285.623</ele>
        <time>2022-07-08T12:11:38Z</time>
      </trkpt>
      <trkpt lat="46.499059" lon="11.355147">
        <ele>285.685</ele>
        <time>2022-07-08T12:11:40Z</time>
      </trkpt>
      <trkpt lat="46.499098" lon="11.355151">
        <ele>285.671</ele>
        <time>2022-07-08T12:11:42Z</time>
      </trkpt>
      <trkpt lat="46.499135" lon="11.355197">
        <ele>285.695</ele>
        <time>2022-07-08T12:11:45Z</time>
      </trkpt>
      <trkpt lat="46.499308" lon="11.355389">
        <ele>287.036</ele>
        <time>2022-07-08T12:11:55Z</time>
      </trkpt>
      <trkpt lat="46.499596" lon="11.355451">
        <ele>287.094</ele>
        <time>2022-07-08T12:12:09Z</time>
      </trkpt>
      <trkpt lat="46.499609" lon="11.355440">
        <ele>287.048</ele>
        <time>2022-07-08T12:12:10Z</time>
      </trkpt>
      <trkpt lat="46.499648" lon="11.355368">
        <ele>287.049</ele>
        <time>2022-07-08T12:12:14Z</time>
      </trkpt>
      <trkpt lat="46.499672" lon="11.355239">
        <ele>287.002</ele>
        <time>2022-07-08T12:12:18Z</time>
      </trkpt>
      <trkpt lat="46.499635" lon="11.354563">
        <ele>287.522</ele>
        <time>2022-07-08T12:12:36Z</time>
      </trkpt>
      <trkpt lat="46.499637" lon="11.354074">
        <ele>286.109</ele>
        <time>2022-07-08T12:12:49Z</time>
      </trkpt>
      <trkpt lat="46.499633" lon="11.353939">
        <ele>286.125</ele>
        <time>2022-07-08T12:13:08Z</time>
      </trkpt>
      <trkpt lat="46.499644" lon="11.353920">
        <ele>285.144</ele>
        <time>2022-07-08T12:13:27Z</time>
      </trkpt>
      <trkpt lat="46.499611" lon="11.353458">
        <ele>285.142</ele>
        <time>2022-07-08T12:13:41Z</time>
      </trkpt>
      <trkpt lat="46.499633" lon="11.352982">
        <ele>286.634</ele>
        <time>2022-07-08T12:13:55Z</time>
      </trkpt>
      <trkpt lat="46.499620" lon="11.352718">
        <ele>287.090</ele>
        <time>2022-07-08T12:14:10Z</time>
      </trkpt>
      <trkpt lat="46.499564" lon="11.352622">
        <ele>287.074</ele>
        <time>2022-07-08T12:14:18Z</time>
      </trkpt>
      <trkpt lat="46.499555" lon="11.352506">
        <ele>285.645</ele>
        <time>2022-07-08T12:14:24Z</time>
      </trkpt>
      <trkpt lat="46.499542" lon="11.352502">
        <ele>285.683</ele>
        <time>2022-07-08T12:14:25Z</time>
      </trkpt>
      <trkpt lat="46.499532" lon="11.352498">
        <ele>285.627</ele>
        <time>2022-07-08T12:14:26Z</time>
      </trkpt>
      <trkpt lat="46.499521" lon="11.352488">
        <ele>285.613</ele>
        <time>2022-07-08T12:14:27Z</time>
      </trkpt>
      <trkpt lat="46.499513" lon="11.352478">
        <ele>285.643</ele>
        <time>2022-07-08T12:14:28Z</time>
      </trkpt>
      <trkpt lat="46.499504" lon="11.352467">
        <ele>285.607</ele>
        <time>2022-07-08T12:14:29Z</time>
      </trkpt>
      <trkpt lat="46.499280" lon="11.352366">
        <ele>284.609</ele>
        <time>2022-07-08T12:14:47Z</time>
      </trkpt>
      <trkpt lat="46.499266" lon="11.352380">
        <ele>284.652</ele>
        <time>2022-07-08T12:14:48Z</time>
      </trkpt>
      <trkpt lat="46.499223" lon="11.352414">
        <ele>284.621</ele>
        <time>2022-07-08T12:14:54Z</time>
      </trkpt>
      <trkpt lat="46.499206" lon="11.352411">
        <ele>284.649</ele>
        <time>2022-07-08T12:14:55Z</time>
      </trkpt>
      <trkpt lat="46.499191" lon="11.352412">
        <ele>284.621</ele>
        <time>2022-07-08T12:14:56Z</time>
      </trkpt>
      <trkpt lat="46.499170" lon="11.352412">
        <ele>284.687</ele>
        <time>2022-07-08T12:14:57Z</time>
      </trkpt>
      <trkpt lat="46.499149" lon="11.352412">
        <ele>284.671</ele>
        <time>2022-07-08T12:14:58Z</time>
      </trkpt>
      <trkpt lat="46.498940" lon="11.352363">
        <ele>284.232</ele>
        <time>2022-07-08T12:15:10Z</time>
      </trkpt>
      <trkpt lat="46.498939" lon="11.352343">
        <ele>284.210</ele>
        <time>2022-07-08T12:15:11Z</time>
      </trkpt>
      <trkpt lat="46.498914" lon="11.351894">
        <ele>284.274</ele>
        <time>2022-07-08T12:15:25Z</time>
      </trkpt>
      <trkpt lat="46.498905" lon="11.351773">
        <ele>284.272</ele>
        <time>2022-07-08T12:15:28Z</time>
      </trkpt>
      <trkpt lat="46.498895" lon="11.351737">
        <ele>284.213</ele>
        <time>2022-07-08T12:15:29Z</time>
      </trkpt>
      <trkpt lat="46.498918" lon="11.351105">
        <ele>284.214</ele>
        <time>2022-07-08T12:15:42Z</time>
      </trkpt>
      <trkpt lat="46.498975" lon="11.350256">
        <ele>283.709</ele>
        <time>2022-07-08T12:15:57Z</time>
      </trkpt>
      <trkpt lat="46.499002" lon="11.349319">
        <ele>283.768</ele>
        <time>2022-07-08T12:16:14Z</time>
      </trkpt>
      <trkpt lat="46.498987" lon="11.349277">
        <ele>283.717</ele>
        <time>2022-07-08T12:16:15Z</time>
      </trkpt>
      <trkpt lat="46.498967" lon="11.349241">
        <ele>283.725</ele>
        <time>2022-07-08T12:16:16Z</time>
      </trkpt>
      <trkpt lat="46.498952" lon="11.349201">
        <ele>283.777</ele>
        <time>2022-07-08T12:16:17Z</time>
      </trkpt>
      <trkpt lat="46.498951" lon="11.349157">
        <ele>283.713</ele>
        <time>2022-07-08T12:16:18Z</time>
      </trkpt>
      <trkpt lat="46.498961" lon="11.349117">
        <ele>283.767</ele>
        <time>2022-07-08T12:16:19Z</time>
      </trkpt>
      <trkpt lat="46.498978" lon="11.349080">
        <ele>283.778</ele>
        <time>2022-07-08T12:16:20Z</time>
      </trkpt>
      <trkpt lat="46.498995" lon="11.349043">
        <ele>283.796</ele>
        <time>2022-07-08T12:16:21Z</time>
      </trkpt>
      <trkpt lat="46.499004" lon="11.349003">
        <ele>283.770</ele>
        <time>2022-07-08T12:16:22Z</time>
      </trkpt>
      <trkpt lat="46.499009" lon="11.348962">
        <ele>283.767</ele>
        <time>2022-07-08T12:16:23Z</time>
      </trkpt>
      <trkpt lat="46.499013" lon="11.348918">
        <ele>283.781</ele>
        <time>2022-07-08T12:16:24Z</time>
      </trkpt>
      <trkpt lat="46.499016" lon="11.348829">
        <ele>285.119</ele>
        <time>2022-07-08T12:16:26Z</time>
      </trkpt>
      <trkpt lat="46.499059" lon="11.348089">
        <ele>286.109</ele>
        <time>2022-07-08T12:16:43Z</time>
      </trkpt>
      <trkpt lat="46.499048" lon="11.347933">
        <ele>286.177</ele>
        <time>2022-07-08T12:16:47Z</time>
      </trkpt>
      <trkpt lat="46.499027" lon="11.347918">
        <ele>286.136</ele>
        <time>2022-07-08T12:16:48Z</time>
      </trkpt>
      <trkpt lat="46.498906" lon="11.347866">
        <ele>286.614</ele>
        <time>2022-07-08T12:17:01Z</time>
      </trkpt>
      <trkpt lat="46.498896" lon="11.347834">
        <ele>286.676</ele>
        <time>2022-07-08T12:17:20Z</time>
      </trkpt>
      <trkpt lat="46.498917" lon="11.347466">
        <ele>286.642</ele>
        <time>2022-07-08T12:17:30Z</time>
      </trkpt>
      <trkpt lat="46.498938" lon="11.347436">
        <ele>286.696</ele>
        <time>2022-07-08T12:17:31Z</time>
      </trkpt>
      <trkpt lat="46.498962" lon="11.347412">
        <ele>286.627</ele>
        <time>2022-07-08T12:17:32Z</time>
      </trkpt>
      <trkpt lat="46.499169" lon="11.347019">
        <ele>287.525</ele>
        <time>2022-07-08T12:17:44Z</time>
      </trkpt>
      <trkpt lat="46.499167" lon="11.346282">
        <ele>286.139</ele>
        <time>2022-07-08T12:18:32Z</time>
      </trkpt>
      <trkpt lat="46.499148" lon="11.346290">
        <ele>286.144</ele>
        <time>2022-07-08T12:18:33Z</time>
      </trkpt>
      <trkpt lat="46.499130" lon="11.346285">
        <ele>286.105</ele>
        <time>2022-07-08T12:18:34Z</time>
      </trkpt>
      <trkpt lat="46.499107" lon="11.346271">
        <ele>286.115</ele>
        <time>2022-07-08T12:18:35Z</time>
      </trkpt>
      <trkpt lat="46.499084" lon="11.346260">
        <ele>286.109</ele>
        <time>2022-07-08T12:18:36Z</time>
      </trkpt>
      <trkpt lat="46.499061" lon="11.346248">
        <ele>286.135</ele>
        <time>2022-07-08T12:18:37Z</time>
      </trkpt>
      <trkpt lat="46.498822" lon="11.346184">
        <ele>285.694</ele>
        <time>2022-07-08T12:18:44Z</time>
      </trkpt>
      <trkpt lat="46.498127" lon="11.346387">
        <ele>284.282</ele>
        <time>2022-07-08T12:19:01Z</time>
      </trkpt>
      <trkpt lat="46.497800" lon="11.346455">
        <ele>284.694</ele>
        <time>2022-07-08T12:19:08Z</time>
      </trkpt>
      <trkpt lat="46.497753" lon="11.346469">
        <ele>284.640</ele>
        <time>2022-07-08T12:19:09Z</time>
      </trkpt>
      <trkpt lat="46.497426" lon="11.346581">
        <ele>283.264</ele>
        <time>2022-07-08T12:19:16Z</time>
      </trkpt>
      <trkpt lat="46.497043" lon="11.346715">
        <ele>283.215</ele>
        <time>2022-07-08T12:19:25Z</time>
      </trkpt>
      <trkpt lat="46.497002" lon="11.346730">
        <ele>283.273</ele>
        <time>2022-07-08T12:19:26Z</time>
      </trkpt>
      <trkpt lat="46.496217" lon="11.347036">
        <ele>282.227</ele>
        <time>2022-07-08T12:19:43Z</time>
      </trkpt>
      <trkpt lat="46.495198" lon="11.347465">
        <ele>280.876</ele>
        <time>2022-07-08T12:20:03Z</time>
      </trkpt>
      <trkpt lat="46.494830" lon="11.347624">
        <ele>277.490</ele>
        <time>2022-07-08T12:20:08Z</time>
      </trkpt>
      <trkpt lat="46.494660" lon="11.347705">
        <ele>277.019</ele>
        <time>2022-07-08T12:20:10Z</time>
      </trkpt>
      <trkpt lat="46.494575" lon="11.347735">
        <ele>277.009</ele>
        <time>2022-07-08T12:20:11Z</time>
      </trkpt>
      <trkpt lat="46.494496" lon="11.347738">
        <ele>277.088</ele>
        <time>2022-07-08T12:20:12Z</time>
      </trkpt>
      <trkpt lat="46.494418" lon="11.347722">
        <ele>277.067</ele>
        <time>2022-07-08T12:20:13Z</time>
      </trkpt>
      <trkpt lat="46.494343" lon="11.347705">
        <ele>277.055</ele>
        <time>2022-07-08T12:20:14Z</time>
      </trkpt>
      <trkpt lat="46.494276" lon="11.347695">
        <ele>277.067</ele>
        <time>2022-07-08T12:20:15Z</time>
      </trkpt>
      <trkpt lat="46.494211" lon="11.347695">
        <ele>276.553</ele>
        <time>2022-07-08T12:20:16Z</time>
      </trkpt>
      <trkpt lat="46.494100" lon="11.347693">
        <ele>277.917</ele>
        <time>2022-07-08T12:20:18Z</time>
      </trkpt>
      <trkpt lat="46.494048" lon="11.347682">
        <ele>278.948</ele>
        <time>2022-07-08T12:20:19Z</time>
      </trkpt>
      <trkpt lat="46.493995" lon="11.347665">
        <ele>278.926</ele>
        <time>2022-07-08T12:20:20Z</time>
      </trkpt>
      <trkpt lat="46.493950" lon="11.347642">
        <ele>278.950</ele>
        <time>2022-07-08T12:20:21Z</time>
      </trkpt>
      <trkpt lat="46.493848" lon="11.347597">
        <ele>279.897</ele>
        <time>2022-07-08T12:20:25Z</time>
      </trkpt>
      <trkpt lat="46.493826" lon="11.347603">
        <ele>279.823</ele>
        <time>2022-07-08T12:20:26Z</time>
      </trkpt>
      <trkpt lat="46.493806" lon="11.347620">
        <ele>279.825</ele>
        <time>2022-07-08T12:20:27Z</time>
      </trkpt>
      <trkpt lat="46.493786" lon="11.347644">
        <ele>279.809</ele>
        <time>2022-07-08T12:20:28Z</time>
      </trkpt>
      <trkpt lat="46.493759" lon="11.347670">
        <ele>279.870</ele>
        <time>2022-07-08T12:20:29Z</time>
      </trkpt>
      <trkpt lat="46.493725" lon="11.347686">
        <ele>279.889</ele>
        <time>2022-07-08T12:20:30Z</time>
      </trkpt>
      <trkpt lat="46.493683" lon="11.347685">
        <ele>279.817</ele>
        <time>2022-07-08T12:20:31Z</time>
      </trkpt>
      <trkpt lat="46.493635" lon="11.347676">
        <ele>278.479</ele>
        <time>2022-07-08T12:20:32Z</time>
      </trkpt>
      <trkpt lat="46.493585" lon="11.347668">
        <ele>278.495</ele>
        <time>2022-07-08T12:20:33Z</time>
      </trkpt>
      <trkpt lat="46.492753" lon="11.347415">
        <ele>277.029</ele>
        <time>2022-07-08T12:20:48Z</time>
      </trkpt>
      <trkpt lat="46.492698" lon="11.347385">
        <ele>276.590</ele>
        <time>2022-07-08T12:20:49Z</time>
      </trkpt>
      <trkpt lat="46.492322" lon="11.347169">
        <ele>275.578</ele>
        <time>2022-07-08T12:20:56Z</time>
      </trkpt>
      <trkpt lat="46.492163" lon="11.347136">
        <ele>275.552</ele>
        <time>2022-07-08T12:20:59Z</time>
      </trkpt>
      <trkpt lat="46.492110" lon="11.347106">
        <ele>275.025</ele>
        <time>2022-07-08T12:21:00Z</time>
      </trkpt>
      <trkpt lat="46.492059" lon="11.347070">
        <ele>275.026</ele>
        <time>2022-07-08T12:21:01Z</time>
      </trkpt>
      <trkpt lat="46.491225" lon="11.346287">
        <ele>274.508</ele>
        <time>2022-07-08T12:21:19Z</time>
      </trkpt>
      <trkpt lat="46.490426" lon="11.345724">
        <ele>273.609</ele>
        <time>2022-07-08T12:21:36Z</time>
      </trkpt>
      <trkpt lat="46.490177" lon="11.345524">
        <ele>275.013</ele>
        <time>2022-07-08T12:21:43Z</time>
      </trkpt>
      <trkpt lat="46.490072" lon="11.345079">
        <ele>276.522</ele>
        <time>2022-07-08T12:21:54Z</time>
      </trkpt>
      <trkpt lat="46.489936" lon="11.344772">
        <ele>276.550</ele>
        <time>2022-07-08T12:22:03Z</time>
      </trkpt>
      <trkpt lat="46.489814" lon="11.344587">
        <ele>276.532</ele>
        <time>2022-07-08T12:22:08Z</time>
      </trkpt>
      <trkpt lat="46.489790" lon="11.344518">
        <ele>275.538</ele>
        <time>2022-07-08T12:22:09Z</time>
      </trkpt>
      <trkpt lat="46.489775" lon="11.344457">
        <ele>275.032</ele>
        <time>2022-07-08T12:22:10Z</time>
      </trkpt>
      <trkpt lat="46.489633" lon="11.343406">
        <ele>273.153</ele>
        <time>2022-07-08T12:22:23Z</time>
      </trkpt>
      <trkpt lat="46.489641" lon="11.343320">
        <ele>273.121</ele>
        <time>2022-07-08T12:22:24Z</time>
      </trkpt>
      <trkpt lat="46.489661" lon="11.343237">
        <ele>273.115</ele>
        <time>2022-07-08T12:22:25Z</time>
      </trkpt>
      <trkpt lat="46.489728" lon="11.342987">
        <ele>272.144</ele>
        <time>2022-07-08T12:22:28Z</time>
      </trkpt>
      <trkpt lat="46.489788" lon="11.342709">
        <ele>271.705</ele>
        <time>2022-07-08T12:22:31Z</time>
      </trkpt>
      <trkpt lat="46.489817" lon="11.342641">
        <ele>271.715</ele>
        <time>2022-07-08T12:22:32Z</time>
      </trkpt>
      <trkpt lat="46.489849" lon="11.342583">
        <ele>271.709</ele>
        <time>2022-07-08T12:22:33Z</time>
      </trkpt>
      <trkpt lat="46.489876" lon="11.342532">
        <ele>271.285</ele>
        <time>2022-07-08T12:22:34Z</time>
      </trkpt>
      <trkpt lat="46.489881" lon="11.342520">
        <ele>271.254</ele>
        <time>2022-07-08T12:22:35Z</time>
      </trkpt>
      <trkpt lat="46.489887" lon="11.342492">
        <ele>271.282</ele>
        <time>2022-07-08T12:22:36Z</time>
      </trkpt>
      <trkpt lat="46.489893" lon="11.342461">
        <ele>271.224</ele>
        <time>2022-07-08T12:22:37Z</time>
      </trkpt>
      <trkpt lat="46.489887" lon="11.342342">
        <ele>270.720</ele>
        <time>2022-07-08T12:22:40Z</time>
      </trkpt>
      <trkpt lat="46.489877" lon="11.342288">
        <ele>270.754</ele>
        <time>2022-07-08T12:22:41Z</time>
      </trkpt>
      <trkpt lat="46.489867" lon="11.342233">
        <ele>270.715</ele>
        <time>2022-07-08T12:22:42Z</time>
      </trkpt>
      <trkpt lat="46.489837" lon="11.342049">
        <ele>272.163</ele>
        <time>2022-07-08T12:22:46Z</time>
      </trkpt>
      <trkpt lat="46.489744" lon="11.341470">
        <ele>273.127</ele>
        <time>2022-07-08T12:22:59Z</time>
      </trkpt>
      <trkpt lat="46.489645" lon="11.341045">
        <ele>271.786</ele>
        <time>2022-07-08T12:23:07Z</time>
      </trkpt>
      <trkpt lat="46.489434" lon="11.340070">
        <ele>271.760</ele>
        <time>2022-07-08T12:23:23Z</time>
      </trkpt>
      <trkpt lat="46.489213" lon="11.339086">
        <ele>271.726</ele>
        <time>2022-07-08T12:23:39Z</time>
      </trkpt>
      <trkpt lat="46.488993" lon="11.338192">
        <ele>271.209</ele>
        <time>2022-07-08T12:23:54Z</time>
      </trkpt>
      <trkpt lat="46.488689" lon="11.337240">
        <ele>270.729</ele>
        <time>2022-07-08T12:24:10Z</time>
      </trkpt>
      <trkpt lat="46.488481" lon="11.336385">
        <ele>270.718</ele>
        <time>2022-07-08T12:24:25Z</time>
      </trkpt>
      <trkpt lat="46.488288" lon="11.335467">
        <ele>269.746</ele>
        <time>2022-07-08T12:24:42Z</time>
      </trkpt>
      <trkpt lat="46.488077" lon="11.334439">
        <ele>271.228</ele>
        <time>2022-07-08T12:24:59Z</time>
      </trkpt>
      <trkpt lat="46.487859" lon="11.333513">
        <ele>269.784</ele>
        <time>2022-07-08T12:25:14Z</time>
      </trkpt>
      <trkpt lat="46.487824" lon="11.333407">
        <ele>269.768</ele>
        <time>2022-07-08T12:25:16Z</time>
      </trkpt>
      <trkpt lat="46.487467" lon="11.332548">
        <ele>269.379</ele>
        <time>2022-07-08T12:25:31Z</time>
      </trkpt>
      <trkpt lat="46.487280" lon="11.331979">
        <ele>269.357</ele>
        <time>2022-07-08T12:25:40Z</time>
      </trkpt>
      <trkpt lat="46.487242" lon="11.331769">
        <ele>268.841</ele>
        <time>2022-07-08T12:25:43Z</time>
      </trkpt>
      <trkpt lat="46.487060" lon="11.331063">
        <ele>266.422</ele>
        <time>2022-07-08T12:25:51Z</time>
      </trkpt>
      <trkpt lat="46.486851" lon="11.330659">
        <ele>269.362</ele>
        <time>2022-07-08T12:26:00Z</time>
      </trkpt>
      <trkpt lat="46.486714" lon="11.330339">
        <ele>267.808</ele>
        <time>2022-07-08T12:26:07Z</time>
      </trkpt>
      <trkpt lat="46.486346" lon="11.329299">
        <ele>267.809</ele>
        <time>2022-07-08T12:26:25Z</time>
      </trkpt>
      <trkpt lat="46.486271" lon="11.329052">
        <ele>267.843</ele>
        <time>2022-07-08T12:26:29Z</time>
      </trkpt>
      <trkpt lat="46.486259" lon="11.328980">
        <ele>267.862</ele>
        <time>2022-07-08T12:26:30Z</time>
      </trkpt>
      <trkpt lat="46.486210" lon="11.328648">
        <ele>267.880</ele>
        <time>2022-07-08T12:26:35Z</time>
      </trkpt>
      <trkpt lat="46.486189" lon="11.328586">
        <ele>267.882</ele>
        <time>2022-07-08T12:26:36Z</time>
      </trkpt>
      <trkpt lat="46.486163" lon="11.328527">
        <ele>267.878</ele>
        <time>2022-07-08T12:26:37Z</time>
      </trkpt>
      <trkpt lat="46.485876" lon="11.328059">
        <ele>267.882</ele>
        <time>2022-07-08T12:26:46Z</time>
      </trkpt>
      <trkpt lat="46.485834" lon="11.328026">
        <ele>267.813</ele>
        <time>2022-07-08T12:26:47Z</time>
      </trkpt>
      <trkpt lat="46.485787" lon="11.328000">
        <ele>267.811</ele>
        <time>2022-07-08T12:26:48Z</time>
      </trkpt>
      <trkpt lat="46.485698" lon="11.327946">
        <ele>267.895</ele>
        <time>2022-07-08T12:26:50Z</time>
      </trkpt>
      <trkpt lat="46.485659" lon="11.327903">
        <ele>267.857</ele>
        <time>2022-07-08T12:26:51Z</time>
      </trkpt>
      <trkpt lat="46.485625" lon="11.327857">
        <ele>266.900</ele>
        <time>2022-07-08T12:26:52Z</time>
      </trkpt>
      <trkpt lat="46.485059" lon="11.326946">
        <ele>266.920</ele>
        <time>2022-07-08T12:27:10Z</time>
      </trkpt>
      <trkpt lat="46.484511" lon="11.326149">
        <ele>266.909</ele>
        <time>2022-07-08T12:27:27Z</time>
      </trkpt>
      <trkpt lat="46.483873" lon="11.325227">
        <ele>266.916</ele>
        <time>2022-07-08T12:27:46Z</time>
      </trkpt>
      <trkpt lat="46.483141" lon="11.324188">
        <ele>266.925</ele>
        <time>2022-07-08T12:28:07Z</time>
      </trkpt>
      <trkpt lat="46.482590" lon="11.323272">
        <ele>265.463</ele>
        <time>2022-07-08T12:28:24Z</time>
      </trkpt>
      <trkpt lat="46.482512" lon="11.323081">
        <ele>264.945</ele>
        <time>2022-07-08T12:28:27Z</time>
      </trkpt>
      <trkpt lat="46.482492" lon="11.323009">
        <ele>264.991</ele>
        <time>2022-07-08T12:28:28Z</time>
      </trkpt>
      <trkpt lat="46.482464" lon="11.322863">
        <ele>264.535</ele>
        <time>2022-07-08T12:28:30Z</time>
      </trkpt>
      <trkpt lat="46.482453" lon="11.322720">
        <ele>264.586</ele>
        <time>2022-07-08T12:28:32Z</time>
      </trkpt>
      <trkpt lat="46.482434" lon="11.322648">
        <ele>264.584</ele>
        <time>2022-07-08T12:28:33Z</time>
      </trkpt>
      <trkpt lat="46.482402" lon="11.322576">
        <ele>264.088</ele>
        <time>2022-07-08T12:28:34Z</time>
      </trkpt>
      <trkpt lat="46.482379" lon="11.322511">
        <ele>263.036</ele>
        <time>2022-07-08T12:28:35Z</time>
      </trkpt>
      <trkpt lat="46.482369" lon="11.322460">
        <ele>263.017</ele>
        <time>2022-07-08T12:28:36Z</time>
      </trkpt>
      <trkpt lat="46.482356" lon="11.322411">
        <ele>263.018</ele>
        <time>2022-07-08T12:28:37Z</time>
      </trkpt>
      <trkpt lat="46.482341" lon="11.322363">
        <ele>263.009</ele>
        <time>2022-07-08T12:28:38Z</time>
      </trkpt>
      <trkpt lat="46.482196" lon="11.322196">
        <ele>264.594</ele>
        <time>2022-07-08T12:28:47Z</time>
      </trkpt>
      <trkpt lat="46.481923" lon="11.321978">
        <ele>265.413</ele>
        <time>2022-07-08T12:29:00Z</time>
      </trkpt>
      <trkpt lat="46.481733" lon="11.321701">
        <ele>264.051</ele>
        <time>2022-07-08T12:29:07Z</time>
      </trkpt>
      <trkpt lat="46.481524" lon="11.321386">
        <ele>262.573</ele>
        <time>2022-07-08T12:29:13Z</time>
      </trkpt>
      <trkpt lat="46.481124" lon="11.320785">
        <ele>261.659</ele>
        <time>2022-07-08T12:29:24Z</time>
      </trkpt>
      <trkpt lat="46.481100" lon="11.320727">
        <ele>261.663</ele>
        <time>2022-07-08T12:29:25Z</time>
      </trkpt>
      <trkpt lat="46.481076" lon="11.320671">
        <ele>261.694</ele>
        <time>2022-07-08T12:29:26Z</time>
      </trkpt>
      <trkpt lat="46.481037" lon="11.320607">
        <ele>261.162</ele>
        <time>2022-07-08T12:29:27Z</time>
      </trkpt>
      <trkpt lat="46.480986" lon="11.320561">
        <ele>261.156</ele>
        <time>2022-07-08T12:29:29Z</time>
      </trkpt>
      <trkpt lat="46.480937" lon="11.320517">
        <ele>261.168</ele>
        <time>2022-07-08T12:29:30Z</time>
      </trkpt>
      <trkpt lat="46.480900" lon="11.320471">
        <ele>261.142</ele>
        <time>2022-07-08T12:29:31Z</time>
      </trkpt>
      <trkpt lat="46.480875" lon="11.320433">
        <ele>261.126</ele>
        <time>2022-07-08T12:29:32Z</time>
      </trkpt>
      <trkpt lat="46.480850" lon="11.320385">
        <ele>261.109</ele>
        <time>2022-07-08T12:29:33Z</time>
      </trkpt>
      <trkpt lat="46.480823" lon="11.320335">
        <ele>261.187</ele>
        <time>2022-07-08T12:29:34Z</time>
      </trkpt>
      <trkpt lat="46.480794" lon="11.320284">
        <ele>262.156</ele>
        <time>2022-07-08T12:29:35Z</time>
      </trkpt>
      <trkpt lat="46.480634" lon="11.320033">
        <ele>262.154</ele>
        <time>2022-07-08T12:29:40Z</time>
      </trkpt>
      <trkpt lat="46.480276" lon="11.319446">
        <ele>262.146</ele>
        <time>2022-07-08T12:29:51Z</time>
      </trkpt>
      <trkpt lat="46.480071" lon="11.318983">
        <ele>263.082</ele>
        <time>2022-07-08T12:30:02Z</time>
      </trkpt>
      <trkpt lat="46.480056" lon="11.318967">
        <ele>263.046</ele>
        <time>2022-07-08T12:30:03Z</time>
      </trkpt>
      <trkpt lat="46.480036" lon="11.318966">
        <ele>263.047</ele>
        <time>2022-07-08T12:30:04Z</time>
      </trkpt>
      <trkpt lat="46.480003" lon="11.318981">
        <ele>264.965</ele>
        <time>2022-07-08T12:30:13Z</time>
      </trkpt>
      <trkpt lat="46.479924" lon="11.319004">
        <ele>266.429</ele>
        <time>2022-07-08T12:30:28Z</time>
      </trkpt>
      <trkpt lat="46.479897" lon="11.319000">
        <ele>266.941</ele>
        <time>2022-07-08T12:30:36Z</time>
      </trkpt>
      <trkpt lat="46.479883" lon="11.318997">
        <ele>266.981</ele>
        <time>2022-07-08T12:30:37Z</time>
      </trkpt>
      <trkpt lat="46.479869" lon="11.318986">
        <ele>266.909</ele>
        <time>2022-07-08T12:30:38Z</time>
      </trkpt>
      <trkpt lat="46.479857" lon="11.318966">
        <ele>266.909</ele>
        <time>2022-07-08T12:30:39Z</time>
      </trkpt>
      <trkpt lat="46.479844" lon="11.318943">
        <ele>266.935</ele>
        <time>2022-07-08T12:30:40Z</time>
      </trkpt>
      <trkpt lat="46.479825" lon="11.318914">
        <ele>265.964</ele>
        <time>2022-07-08T12:30:41Z</time>
      </trkpt>
      <trkpt lat="46.479808" lon="11.318884">
        <ele>265.912</ele>
        <time>2022-07-08T12:30:42Z</time>
      </trkpt>
      <trkpt lat="46.479497" lon="11.318358">
        <ele>265.474</ele>
        <time>2022-07-08T12:30:55Z</time>
      </trkpt>
      <trkpt lat="46.478955" lon="11.317353">
        <ele>263.040</ele>
        <time>2022-07-08T12:31:13Z</time>
      </trkpt>
      <trkpt lat="46.478574" lon="11.316814">
        <ele>264.044</ele>
        <time>2022-07-08T12:31:24Z</time>
      </trkpt>
      <trkpt lat="46.478037" lon="11.315972">
        <ele>264.025</ele>
        <time>2022-07-08T12:31:42Z</time>
      </trkpt>
      <trkpt lat="46.477624" lon="11.315321">
        <ele>262.593</ele>
        <time>2022-07-08T12:31:55Z</time>
      </trkpt>
      <trkpt lat="46.477040" lon="11.314429">
        <ele>262.137</ele>
        <time>2022-07-08T12:32:12Z</time>
      </trkpt>
      <trkpt lat="46.476652" lon="11.313890">
        <ele>262.113</ele>
        <time>2022-07-08T12:32:23Z</time>
      </trkpt>
      <trkpt lat="46.476619" lon="11.313853">
        <ele>262.143</ele>
        <time>2022-07-08T12:32:24Z</time>
      </trkpt>
      <trkpt lat="46.476097" lon="11.313284">
        <ele>262.107</ele>
        <time>2022-07-08T12:32:37Z</time>
      </trkpt>
      <trkpt lat="46.475536" lon="11.312581">
        <ele>262.109</ele>
        <time>2022-07-08T12:32:52Z</time>
      </trkpt>
      <trkpt lat="46.474913" lon="11.311808">
        <ele>262.132</ele>
        <time>2022-07-08T12:33:09Z</time>
      </trkpt>
      <trkpt lat="46.474124" lon="11.311018">
        <ele>262.171</ele>
        <time>2022-07-08T12:33:28Z</time>
      </trkpt>
      <trkpt lat="46.473736" lon="11.310641">
        <ele>262.179</ele>
        <time>2022-07-08T12:33:39Z</time>
      </trkpt>
      <trkpt lat="46.473648" lon="11.310582">
        <ele>262.151</ele>
        <time>2022-07-08T12:33:41Z</time>
      </trkpt>
      <trkpt lat="46.473609" lon="11.310549">
        <ele>262.197</ele>
        <time>2022-07-08T12:33:42Z</time>
      </trkpt>
      <trkpt lat="46.473576" lon="11.310508">
        <ele>261.671</ele>
        <time>2022-07-08T12:33:43Z</time>
      </trkpt>
      <trkpt lat="46.473556" lon="11.310450">
        <ele>261.652</ele>
        <time>2022-07-08T12:33:44Z</time>
      </trkpt>
      <trkpt lat="46.473548" lon="11.310395">
        <ele>261.120</ele>
        <time>2022-07-08T12:33:45Z</time>
      </trkpt>
      <trkpt lat="46.473548" lon="11.310327">
        <ele>261.154</ele>
        <time>2022-07-08T12:33:46Z</time>
      </trkpt>
      <trkpt lat="46.473551" lon="11.310259">
        <ele>260.693</ele>
        <time>2022-07-08T12:33:47Z</time>
      </trkpt>
      <trkpt lat="46.473582" lon="11.309541">
        <ele>259.265</ele>
        <time>2022-07-08T12:33:57Z</time>
      </trkpt>
      <trkpt lat="46.473617" lon="11.309518">
        <ele>259.221</ele>
        <time>2022-07-08T12:33:59Z</time>
      </trkpt>
      <trkpt lat="46.473657" lon="11.309503">
        <ele>259.209</ele>
        <time>2022-07-08T12:34:00Z</time>
      </trkpt>
      <trkpt lat="46.473686" lon="11.309496">
        <ele>259.230</ele>
        <time>2022-07-08T12:34:01Z</time>
      </trkpt>
      <trkpt lat="46.473717" lon="11.309490">
        <ele>259.229</ele>
        <time>2022-07-08T12:34:02Z</time>
      </trkpt>
      <trkpt lat="46.473751" lon="11.309490">
        <ele>259.287</ele>
        <time>2022-07-08T12:34:03Z</time>
      </trkpt>
      <trkpt lat="46.473785" lon="11.309492">
        <ele>259.219</ele>
        <time>2022-07-08T12:34:04Z</time>
      </trkpt>
      <trkpt lat="46.474559" lon="11.309397">
        <ele>258.245</ele>
        <time>2022-07-08T12:34:25Z</time>
      </trkpt>
      <trkpt lat="46.475095" lon="11.309250">
        <ele>258.269</ele>
        <time>2022-07-08T12:34:40Z</time>
      </trkpt>
      <trkpt lat="46.475124" lon="11.309240">
        <ele>257.760</ele>
        <time>2022-07-08T12:34:53Z</time>
      </trkpt>
      <trkpt lat="46.475205" lon="11.309203">
        <ele>257.738</ele>
        <time>2022-07-08T12:35:21Z</time>
      </trkpt>
      <trkpt lat="46.475713" lon="11.309001">
        <ele>256.362</ele>
        <time>2022-07-08T12:35:35Z</time>
      </trkpt>
      <trkpt lat="46.476407" lon="11.308695">
        <ele>257.215</ele>
        <time>2022-07-08T12:35:53Z</time>
      </trkpt>
      <trkpt lat="46.477022" lon="11.308450">
        <ele>255.865</ele>
        <time>2022-07-08T12:36:11Z</time>
      </trkpt>
      <trkpt lat="46.477168" lon="11.308420">
        <ele>257.211</ele>
        <time>2022-07-08T12:36:15Z</time>
      </trkpt>
      <trkpt lat="46.477980" lon="11.308409">
        <ele>257.709</ele>
        <time>2022-07-08T12:36:37Z</time>
      </trkpt>
      <trkpt lat="46.478698" lon="11.308523">
        <ele>257.272</ele>
        <time>2022-07-08T12:36:55Z</time>
      </trkpt>
      <trkpt lat="46.479282" lon="11.308363">
        <ele>257.261</ele>
        <time>2022-07-08T12:37:11Z</time>
      </trkpt>
      <trkpt lat="46.480120" lon="11.307956">
        <ele>257.759</ele>
        <time>2022-07-08T12:37:34Z</time>
      </trkpt>
      <trkpt lat="46.480668" lon="11.307646">
        <ele>257.741</ele>
        <time>2022-07-08T12:37:48Z</time>
      </trkpt>
      <trkpt lat="46.481324" lon="11.307264">
        <ele>257.767</ele>
        <time>2022-07-08T12:38:04Z</time>
      </trkpt>
      <trkpt lat="46.482099" lon="11.306589">
        <ele>257.761</ele>
        <time>2022-07-08T12:38:25Z</time>
      </trkpt>
      <trkpt lat="46.482373" lon="11.306287">
        <ele>257.732</ele>
        <time>2022-07-08T12:38:33Z</time>
      </trkpt>
      <trkpt lat="46.482853" lon="11.305479">
        <ele>257.710</ele>
        <time>2022-07-08T12:38:50Z</time>
      </trkpt>
      <trkpt lat="46.483088" lon="11.304534">
        <ele>258.764</ele>
        <time>2022-07-08T12:39:07Z</time>
      </trkpt>
      <trkpt lat="46.482819" lon="11.303951">
        <ele>259.267</ele>
        <time>2022-07-08T12:39:21Z</time>
      </trkpt>
      <trkpt lat="46.482717" lon="11.303410">
        <ele>257.281</ele>
        <time>2022-07-08T12:41:46Z</time>
      </trkpt>
      <trkpt lat="46.482767" lon="11.303361">
        <ele>256.319</ele>
        <time>2022-07-08T12:41:47Z</time>
      </trkpt>
      <trkpt lat="46.482806" lon="11.303287">
        <ele>256.309</ele>
        <time>2022-07-08T12:41:48Z</time>
      </trkpt>
      <trkpt lat="46.482832" lon="11.303205">
        <ele>255.877</ele>
        <time>2022-07-08T12:41:49Z</time>
      </trkpt>
      <trkpt lat="46.482860" lon="11.303108">
        <ele>255.876</ele>
        <time>2022-07-08T12:41:50Z</time>
      </trkpt>
      <trkpt lat="46.483203" lon="11.302118">
        <ele>255.814</ele>
        <time>2022-07-08T12:42:05Z</time>
      </trkpt>
      <trkpt lat="46.483647" lon="11.300772">
        <ele>256.836</ele>
        <time>2022-07-08T12:42:27Z</time>
      </trkpt>
      <trkpt lat="46.483984" lon="11.299704">
        <ele>257.742</ele>
        <time>2022-07-08T12:42:45Z</time>
      </trkpt>
      <trkpt lat="46.484023" lon="11.299583">
        <ele>257.796</ele>
        <time>2022-07-08T12:42:48Z</time>
      </trkpt>
      <trkpt lat="46.484093" lon="11.299497">
        <ele>255.857</ele>
        <time>2022-07-08T12:42:50Z</time>
      </trkpt>
      <trkpt lat="46.484193" lon="11.299304">
        <ele>257.215</ele>
        <time>2022-07-08T12:42:54Z</time>
      </trkpt>
      <trkpt lat="46.484215" lon="11.299241">
        <ele>257.779</ele>
        <time>2022-07-08T12:42:55Z</time>
      </trkpt>
      <trkpt lat="46.484220" lon="11.299221">
        <ele>257.735</ele>
        <time>2022-07-08T12:42:56Z</time>
      </trkpt>
      <trkpt lat="46.484227" lon="11.299192">
        <ele>258.286</ele>
        <time>2022-07-08T12:42:57Z</time>
      </trkpt>
      <trkpt lat="46.484231" lon="11.299167">
        <ele>258.214</ele>
        <time>2022-07-08T12:42:58Z</time>
      </trkpt>
      <trkpt lat="46.484228" lon="11.299141">
        <ele>258.209</ele>
        <time>2022-07-08T12:42:59Z</time>
      </trkpt>
      <trkpt lat="46.484214" lon="11.299095">
        <ele>258.214</ele>
        <time>2022-07-08T12:43:00Z</time>
      </trkpt>
      <trkpt lat="46.483915" lon="11.298841">
        <ele>258.243</ele>
        <time>2022-07-08T12:43:09Z</time>
      </trkpt>
      <trkpt lat="46.483473" lon="11.298236">
        <ele>258.251</ele>
        <time>2022-07-08T12:43:23Z</time>
      </trkpt>
      <trkpt lat="46.483045" lon="11.298017">
        <ele>260.143</ele>
        <time>2022-07-08T12:43:38Z</time>
      </trkpt>
      <trkpt lat="46.483050" lon="11.298006">
        <ele>260.189</ele>
        <time>2022-07-08T12:44:05Z</time>
      </trkpt>
      <trkpt lat="46.483031" lon="11.298009">
        <ele>261.663</ele>
        <time>2022-07-08T12:44:07Z</time>
      </trkpt>
      <trkpt lat="46.483017" lon="11.298014">
        <ele>261.624</ele>
        <time>2022-07-08T12:44:08Z</time>
      </trkpt>
      <trkpt lat="46.483002" lon="11.298016">
        <ele>261.682</ele>
        <time>2022-07-08T12:44:09Z</time>
      </trkpt>
      <trkpt lat="46.482980" lon="11.298019">
        <ele>261.616</ele>
        <time>2022-07-08T12:44:10Z</time>
      </trkpt>
      <trkpt lat="46.482954" lon="11.298024">
        <ele>261.645</ele>
        <time>2022-07-08T12:44:11Z</time>
      </trkpt>
      <trkpt lat="46.482925" lon="11.298031">
        <ele>261.647</ele>
        <time>2022-07-08T12:44:12Z</time>
      </trkpt>
      <trkpt lat="46.482420" lon="11.298254">
        <ele>262.111</ele>
        <time>2022-07-08T12:44:26Z</time>
      </trkpt>
      <trkpt lat="46.482371" lon="11.298229">
        <ele>262.109</ele>
        <time>2022-07-08T12:44:29Z</time>
      </trkpt>
      <trkpt lat="46.482301" lon="11.298028">
        <ele>260.625</ele>
        <time>2022-07-08T12:44:33Z</time>
      </trkpt>
      <trkpt lat="46.482262" lon="11.298000">
        <ele>260.684</ele>
        <time>2022-07-08T12:44:34Z</time>
      </trkpt>
      <trkpt lat="46.482219" lon="11.297985">
        <ele>260.692</ele>
        <time>2022-07-08T12:44:35Z</time>
      </trkpt>
      <trkpt lat="46.482167" lon="11.297980">
        <ele>260.194</ele>
        <time>2022-07-08T12:44:36Z</time>
      </trkpt>
      <trkpt lat="46.482126" lon="11.297978">
        <ele>260.120</ele>
        <time>2022-07-08T12:44:37Z</time>
      </trkpt>
      <trkpt lat="46.481531" lon="11.297910">
        <ele>256.874</ele>
        <time>2022-07-08T12:44:48Z</time>
      </trkpt>
      <trkpt lat="46.481298" lon="11.297848">
        <ele>256.355</ele>
        <time>2022-07-08T12:44:53Z</time>
      </trkpt>
      <trkpt lat="46.481285" lon="11.297814">
        <ele>256.343</ele>
        <time>2022-07-08T12:44:54Z</time>
      </trkpt>
      <trkpt lat="46.481298" lon="11.297780">
        <ele>256.387</ele>
        <time>2022-07-08T12:44:55Z</time>
      </trkpt>
      <trkpt lat="46.481325" lon="11.297767">
        <ele>256.379</ele>
        <time>2022-07-08T12:44:56Z</time>
      </trkpt>
      <trkpt lat="46.481359" lon="11.297769">
        <ele>255.805</ele>
        <time>2022-07-08T12:44:57Z</time>
      </trkpt>
      <trkpt lat="46.481392" lon="11.297776">
        <ele>255.825</ele>
        <time>2022-07-08T12:44:58Z</time>
      </trkpt>
      <trkpt lat="46.481554" lon="11.297820">
        <ele>255.809</ele>
        <time>2022-07-08T12:45:02Z</time>
      </trkpt>
      <trkpt lat="46.481600" lon="11.297826">
        <ele>255.848</ele>
        <time>2022-07-08T12:45:03Z</time>
      </trkpt>
      <trkpt lat="46.482347" lon="11.297836">
        <ele>254.427</ele>
        <time>2022-07-08T12:45:19Z</time>
      </trkpt>
      <trkpt lat="46.482393" lon="11.297822">
        <ele>254.445</ele>
        <time>2022-07-08T12:45:20Z</time>
      </trkpt>
      <trkpt lat="46.482435" lon="11.297797">
        <ele>254.437</ele>
        <time>2022-07-08T12:45:21Z</time>
      </trkpt>
      <trkpt lat="46.482473" lon="11.297760">
        <ele>254.433</ele>
        <time>2022-07-08T12:45:22Z</time>
      </trkpt>
      <trkpt lat="46.482510" lon="11.297717">
        <ele>254.437</ele>
        <time>2022-07-08T12:45:23Z</time>
      </trkpt>
      <trkpt lat="46.482543" lon="11.297671">
        <ele>254.478</ele>
        <time>2022-07-08T12:45:24Z</time>
      </trkpt>
      <trkpt lat="46.482574" lon="11.297621">
        <ele>254.466</ele>
        <time>2022-07-08T12:45:25Z</time>
      </trkpt>
      <trkpt lat="46.482601" lon="11.297569">
        <ele>254.410</ele>
        <time>2022-07-08T12:45:26Z</time>
      </trkpt>
      <trkpt lat="46.482720" lon="11.297361">
        <ele>254.427</ele>
        <time>2022-07-08T12:45:30Z</time>
      </trkpt>
      <trkpt lat="46.482737" lon="11.297299">
        <ele>254.468</ele>
        <time>2022-07-08T12:45:31Z</time>
      </trkpt>
      <trkpt lat="46.482743" lon="11.297235">
        <ele>254.414</ele>
        <time>2022-07-08T12:45:32Z</time>
      </trkpt>
      <trkpt lat="46.482737" lon="11.297165">
        <ele>254.409</ele>
        <time>2022-07-08T12:45:33Z</time>
      </trkpt>
      <trkpt lat="46.482722" lon="11.297103">
        <ele>254.453</ele>
        <time>2022-07-08T12:45:34Z</time>
      </trkpt>
      <trkpt lat="46.482701" lon="11.297039">
        <ele>254.412</ele>
        <time>2022-07-08T12:45:35Z</time>
      </trkpt>
      <trkpt lat="46.482674" lon="11.296983">
        <ele>254.410</ele>
        <time>2022-07-08T12:45:36Z</time>
      </trkpt>
      <trkpt lat="46.482644" lon="11.296930">
        <ele>254.422</ele>
        <time>2022-07-08T12:45:37Z</time>
      </trkpt>
      <trkpt lat="46.482282" lon="11.295937">
        <ele>253.998</ele>
        <time>2022-07-08T12:45:53Z</time>
      </trkpt>
      <trkpt lat="46.482270" lon="11.295867">
        <ele>253.932</ele>
        <time>2022-07-08T12:45:54Z</time>
      </trkpt>
      <trkpt lat="46.482269" lon="11.295182">
        <ele>253.413</ele>
        <time>2022-07-08T12:46:04Z</time>
      </trkpt>
      <trkpt lat="46.482263" lon="11.294969">
        <ele>253.451</ele>
        <time>2022-07-08T12:46:07Z</time>
      </trkpt>
      <trkpt lat="46.482456" lon="11.293923">
        <ele>252.915</ele>
        <time>2022-07-08T12:46:23Z</time>
      </trkpt>
      <trkpt lat="46.482475" lon="11.293798">
        <ele>252.937</ele>
        <time>2022-07-08T12:46:25Z</time>
      </trkpt>
      <trkpt lat="46.482479" lon="11.293740">
        <ele>252.949</ele>
        <time>2022-07-08T12:46:26Z</time>
      </trkpt>
      <trkpt lat="46.482452" lon="11.293225">
        <ele>252.413</ele>
        <time>2022-07-08T12:46:34Z</time>
      </trkpt>
      <trkpt lat="46.482414" lon="11.292970">
        <ele>252.409</ele>
        <time>2022-07-08T12:46:38Z</time>
      </trkpt>
      <trkpt lat="46.482401" lon="11.292909">
        <ele>252.414</ele>
        <time>2022-07-08T12:46:39Z</time>
      </trkpt>
      <trkpt lat="46.482337" lon="11.292661">
        <ele>253.973</ele>
        <time>2022-07-08T12:46:43Z</time>
      </trkpt>
      <trkpt lat="46.482088" lon="11.291858">
        <ele>252.411</ele>
        <time>2022-07-08T12:46:56Z</time>
      </trkpt>
      <trkpt lat="46.481808" lon="11.290794">
        <ele>252.443</ele>
        <time>2022-07-08T12:47:13Z</time>
      </trkpt>
      <trkpt lat="46.481562" lon="11.289508">
        <ele>252.489</ele>
        <time>2022-07-08T12:47:33Z</time>
      </trkpt>
      <trkpt lat="46.481428" lon="11.288813">
        <ele>252.433</ele>
        <time>2022-07-08T12:47:45Z</time>
      </trkpt>
      <trkpt lat="46.481411" lon="11.288696">
        <ele>252.424</ele>
        <time>2022-07-08T12:47:47Z</time>
      </trkpt>
      <trkpt lat="46.481318" lon="11.288156">
        <ele>252.492</ele>
        <time>2022-07-08T12:47:56Z</time>
      </trkpt>
      <trkpt lat="46.481314" lon="11.288099">
        <ele>252.426</ele>
        <time>2022-07-08T12:47:57Z</time>
      </trkpt>
      <trkpt lat="46.481298" lon="11.287203">
        <ele>253.468</ele>
        <time>2022-07-08T12:48:12Z</time>
      </trkpt>
      <trkpt lat="46.481292" lon="11.286893">
        <ele>253.442</ele>
        <time>2022-07-08T12:48:17Z</time>
      </trkpt>
      <trkpt lat="46.481279" lon="11.286826">
        <ele>253.426</ele>
        <time>2022-07-08T12:48:18Z</time>
      </trkpt>
      <trkpt lat="46.481266" lon="11.286782">
        <ele>253.409</ele>
        <time>2022-07-08T12:48:19Z</time>
      </trkpt>
      <trkpt lat="46.481143" lon="11.286455">
        <ele>253.937</ele>
        <time>2022-07-08T12:48:26Z</time>
      </trkpt>
      <trkpt lat="46.481160" lon="11.286432">
        <ele>253.916</ele>
        <time>2022-07-08T12:48:27Z</time>
      </trkpt>
      <trkpt lat="46.481183" lon="11.286396">
        <ele>253.964</ele>
        <time>2022-07-08T12:48:28Z</time>
      </trkpt>
      <trkpt lat="46.481202" lon="11.286351">
        <ele>252.986</ele>
        <time>2022-07-08T12:48:29Z</time>
      </trkpt>
      <trkpt lat="46.481218" lon="11.286296">
        <ele>252.942</ele>
        <time>2022-07-08T12:48:30Z</time>
      </trkpt>
      <trkpt lat="46.481328" lon="11.285919">
        <ele>252.936</ele>
        <time>2022-07-08T12:48:36Z</time>
      </trkpt>
      <trkpt lat="46.481363" lon="11.285871">
        <ele>252.967</ele>
        <time>2022-07-08T12:48:37Z</time>
      </trkpt>
      <trkpt lat="46.481406" lon="11.285858">
        <ele>252.925</ele>
        <time>2022-07-08T12:48:38Z</time>
      </trkpt>
      <trkpt lat="46.481468" lon="11.285884">
        <ele>252.979</ele>
        <time>2022-07-08T12:48:39Z</time>
      </trkpt>
      <trkpt lat="46.481492" lon="11.285902">
        <ele>252.992</ele>
        <time>2022-07-08T12:48:40Z</time>
      </trkpt>
      <trkpt lat="46.481530" lon="11.285930">
        <ele>252.973</ele>
        <time>2022-07-08T12:48:41Z</time>
      </trkpt>
      <trkpt lat="46.481572" lon="11.285962">
        <ele>252.920</ele>
        <time>2022-07-08T12:48:42Z</time>
      </trkpt>
      <trkpt lat="46.481607" lon="11.285986">
        <ele>252.909</ele>
        <time>2022-07-08T12:48:43Z</time>
      </trkpt>
      <trkpt lat="46.481646" lon="11.286011">
        <ele>252.990</ele>
        <time>2022-07-08T12:48:44Z</time>
      </trkpt>
      <trkpt lat="46.481802" lon="11.286124">
        <ele>252.419</ele>
        <time>2022-07-08T12:48:48Z</time>
      </trkpt>
      <trkpt lat="46.482340" lon="11.286514">
        <ele>253.497</ele>
        <time>2022-07-08T12:49:03Z</time>
      </trkpt>
      <trkpt lat="46.482475" lon="11.286574">
        <ele>253.449</ele>
        <time>2022-07-08T12:49:07Z</time>
      </trkpt>
      <trkpt lat="46.482511" lon="11.286549">
        <ele>253.455</ele>
        <time>2022-07-08T12:49:08Z</time>
      </trkpt>
      <trkpt lat="46.482540" lon="11.286509">
        <ele>253.449</ele>
        <time>2022-07-08T12:49:09Z</time>
      </trkpt>
      <trkpt lat="46.483139" lon="11.285710">
        <ele>253.420</ele>
        <time>2022-07-08T12:49:28Z</time>
      </trkpt>
      <trkpt lat="46.483778" lon="11.284869">
        <ele>252.468</ele>
        <time>2022-07-08T12:49:47Z</time>
      </trkpt>
      <trkpt lat="46.484441" lon="11.284001">
        <ele>252.412</ele>
        <time>2022-07-08T12:50:07Z</time>
      </trkpt>
      <trkpt lat="46.484775" lon="11.283569">
        <ele>251.517</ele>
        <time>2022-07-08T12:50:17Z</time>
      </trkpt>
      <trkpt lat="46.484804" lon="11.283530">
        <ele>251.587</ele>
        <time>2022-07-08T12:50:18Z</time>
      </trkpt>
      <trkpt lat="46.484833" lon="11.283491">
        <ele>251.515</ele>
        <time>2022-07-08T12:50:19Z</time>
      </trkpt>
      <trkpt lat="46.485357" lon="11.282811">
        <ele>251.509</ele>
        <time>2022-07-08T12:50:35Z</time>
      </trkpt>
      <trkpt lat="46.486131" lon="11.281800">
        <ele>251.522</ele>
        <time>2022-07-08T12:50:58Z</time>
      </trkpt>
      <trkpt lat="46.486864" lon="11.280823">
        <ele>251.531</ele>
        <time>2022-07-08T12:51:20Z</time>
      </trkpt>
      <trkpt lat="46.487432" lon="11.280099">
        <ele>251.519</ele>
        <time>2022-07-08T12:51:37Z</time>
      </trkpt>
      <trkpt lat="46.487775" lon="11.279671">
        <ele>252.421</ele>
        <time>2022-07-08T12:51:51Z</time>
      </trkpt>
      <trkpt lat="46.487788" lon="11.279642">
        <ele>252.497</ele>
        <time>2022-07-08T12:52:05Z</time>
      </trkpt>
      <trkpt lat="46.488003" lon="11.279370">
        <ele>252.421</ele>
        <time>2022-07-08T12:52:16Z</time>
      </trkpt>
      <trkpt lat="46.488626" lon="11.278551">
        <ele>252.992</ele>
        <time>2022-07-08T12:52:36Z</time>
      </trkpt>
      <trkpt lat="46.489272" lon="11.277707">
        <ele>252.490</ele>
        <time>2022-07-08T12:52:55Z</time>
      </trkpt>
      <trkpt lat="46.489962" lon="11.276826">
        <ele>252.454</ele>
        <time>2022-07-08T12:53:16Z</time>
      </trkpt>
      <trkpt lat="46.490103" lon="11.276641">
        <ele>252.433</ele>
        <time>2022-07-08T12:53:27Z</time>
      </trkpt>
      <trkpt lat="46.490096" lon="11.276638">
        <ele>252.923</ele>
        <time>2022-07-08T12:53:51Z</time>
      </trkpt>
      <trkpt lat="46.490114" lon="11.276653">
        <ele>252.915</ele>
        <time>2022-07-08T12:54:04Z</time>
      </trkpt>
      <trkpt lat="46.490126" lon="11.276644">
        <ele>252.909</ele>
        <time>2022-07-08T12:54:05Z</time>
      </trkpt>
      <trkpt lat="46.490137" lon="11.276624">
        <ele>252.994</ele>
        <time>2022-07-08T12:54:06Z</time>
      </trkpt>
      <trkpt lat="46.490149" lon="11.276598">
        <ele>252.953</ele>
        <time>2022-07-08T12:54:07Z</time>
      </trkpt>
      <trkpt lat="46.490169" lon="11.276569">
        <ele>252.921</ele>
        <time>2022-07-08T12:54:08Z</time>
      </trkpt>
      <trkpt lat="46.490191" lon="11.276543">
        <ele>252.993</ele>
        <time>2022-07-08T12:54:09Z</time>
      </trkpt>
      <trkpt lat="46.490220" lon="11.276514">
        <ele>252.929</ele>
        <time>2022-07-08T12:54:10Z</time>
      </trkpt>
      <trkpt lat="46.490682" lon="11.275956">
        <ele>252.063</ele>
        <time>2022-07-08T12:54:25Z</time>
      </trkpt>
      <trkpt lat="46.491300" lon="11.275092">
        <ele>251.524</ele>
        <time>2022-07-08T12:54:44Z</time>
      </trkpt>
      <trkpt lat="46.491614" lon="11.274159">
        <ele>252.922</ele>
        <time>2022-07-08T12:54:59Z</time>
      </trkpt>
      <trkpt lat="46.491892" lon="11.272979">
        <ele>252.956</ele>
        <time>2022-07-08T12:55:16Z</time>
      </trkpt>
      <trkpt lat="46.492181" lon="11.271756">
        <ele>251.524</ele>
        <time>2022-07-08T12:55:34Z</time>
      </trkpt>
      <trkpt lat="46.492511" lon="11.270358">
        <ele>251.504</ele>
        <time>2022-07-08T12:55:55Z</time>
      </trkpt>
      <trkpt lat="46.492809" lon="11.269146">
        <ele>251.514</ele>
        <time>2022-07-08T12:56:13Z</time>
      </trkpt>
      <trkpt lat="46.493113" lon="11.267874">
        <ele>252.409</ele>
        <time>2022-07-08T12:56:32Z</time>
      </trkpt>
      <trkpt lat="46.493457" lon="11.266507">
        <ele>252.953</ele>
        <time>2022-07-08T12:56:52Z</time>
      </trkpt>
      <trkpt lat="46.493856" lon="11.264942">
        <ele>252.982</ele>
        <time>2022-07-08T12:57:15Z</time>
      </trkpt>
      <trkpt lat="46.494147" lon="11.263696">
        <ele>252.990</ele>
        <time>2022-07-08T12:57:33Z</time>
      </trkpt>
      <trkpt lat="46.494454" lon="11.262496">
        <ele>253.422</ele>
        <time>2022-07-08T12:57:51Z</time>
      </trkpt>
      <trkpt lat="46.494746" lon="11.261340">
        <ele>253.488</ele>
        <time>2022-07-08T12:58:08Z</time>
      </trkpt>
      <trkpt lat="46.495071" lon="11.260116">
        <ele>253.442</ele>
        <time>2022-07-08T12:58:26Z</time>
      </trkpt>
      <trkpt lat="46.495436" lon="11.258747">
        <ele>253.433</ele>
        <time>2022-07-08T12:58:47Z</time>
      </trkpt>
      <trkpt lat="46.495432" lon="11.258683">
        <ele>253.431</ele>
        <time>2022-07-08T12:58:48Z</time>
      </trkpt>
      <trkpt lat="46.495411" lon="11.258633">
        <ele>253.425</ele>
        <time>2022-07-08T12:58:49Z</time>
      </trkpt>
      <trkpt lat="46.495380" lon="11.258596">
        <ele>253.484</ele>
        <time>2022-07-08T12:58:50Z</time>
      </trkpt>
      <trkpt lat="46.495352" lon="11.258556">
        <ele>253.407</ele>
        <time>2022-07-08T12:58:51Z</time>
      </trkpt>
      <trkpt lat="46.495341" lon="11.258507">
        <ele>252.417</ele>
        <time>2022-07-08T12:58:52Z</time>
      </trkpt>
      <trkpt lat="46.495344" lon="11.258454">
        <ele>252.409</ele>
        <time>2022-07-08T12:58:53Z</time>
      </trkpt>
      <trkpt lat="46.495355" lon="11.258402">
        <ele>252.499</ele>
        <time>2022-07-08T12:58:54Z</time>
      </trkpt>
      <trkpt lat="46.495369" lon="11.258350">
        <ele>252.438</ele>
        <time>2022-07-08T12:58:55Z</time>
      </trkpt>
      <trkpt lat="46.495666" lon="11.257292">
        <ele>253.486</ele>
        <time>2022-07-08T12:59:13Z</time>
      </trkpt>
      <trkpt lat="46.495770" lon="11.256842">
        <ele>253.458</ele>
        <time>2022-07-08T12:59:20Z</time>
      </trkpt>
      <trkpt lat="46.495771" lon="11.256781">
        <ele>253.424</ele>
        <time>2022-07-08T12:59:21Z</time>
      </trkpt>
      <trkpt lat="46.495769" lon="11.256730">
        <ele>253.458</ele>
        <time>2022-07-08T12:59:22Z</time>
      </trkpt>
      <trkpt lat="46.495773" lon="11.256695">
        <ele>253.489</ele>
        <time>2022-07-08T12:59:23Z</time>
      </trkpt>
      <trkpt lat="46.495775" lon="11.256675">
        <ele>253.437</ele>
        <time>2022-07-08T12:59:24Z</time>
      </trkpt>
      <trkpt lat="46.495775" lon="11.256662">
        <ele>253.481</ele>
        <time>2022-07-08T12:59:25Z</time>
      </trkpt>
      <trkpt lat="46.495784" lon="11.256621">
        <ele>253.985</ele>
        <time>2022-07-08T12:59:32Z</time>
      </trkpt>
      <trkpt lat="46.495778" lon="11.256600">
        <ele>253.989</ele>
        <time>2022-07-08T12:59:33Z</time>
      </trkpt>
      <trkpt lat="46.495763" lon="11.256585">
        <ele>253.917</ele>
        <time>2022-07-08T12:59:34Z</time>
      </trkpt>
      <trkpt lat="46.495742" lon="11.256574">
        <ele>253.909</ele>
        <time>2022-07-08T12:59:35Z</time>
      </trkpt>
      <trkpt lat="46.495715" lon="11.256559">
        <ele>253.959</ele>
        <time>2022-07-08T12:59:36Z</time>
      </trkpt>
      <trkpt lat="46.495687" lon="11.256548">
        <ele>253.918</ele>
        <time>2022-07-08T12:59:37Z</time>
      </trkpt>
      <trkpt lat="46.495048" lon="11.256329">
        <ele>254.816</ele>
        <time>2022-07-08T12:59:56Z</time>
      </trkpt>
      <trkpt lat="46.494945" lon="11.256280">
        <ele>254.448</ele>
        <time>2022-07-08T13:00:36Z</time>
      </trkpt>
      <trkpt lat="46.494959" lon="11.256235">
        <ele>254.494</ele>
        <time>2022-07-08T13:00:37Z</time>
      </trkpt>
      <trkpt lat="46.494967" lon="11.256200">
        <ele>254.488</ele>
        <time>2022-07-08T13:00:38Z</time>
      </trkpt>
      <trkpt lat="46.494977" lon="11.256155">
        <ele>254.439</ele>
        <time>2022-07-08T13:00:39Z</time>
      </trkpt>
      <trkpt lat="46.495306" lon="11.255554">
        <ele>254.447</ele>
        <time>2022-07-08T13:00:53Z</time>
      </trkpt>
      <trkpt lat="46.495704" lon="11.254915">
        <ele>254.461</ele>
        <time>2022-07-08T13:01:07Z</time>
      </trkpt>
      <trkpt lat="46.495907" lon="11.254341">
        <ele>255.837</ele>
        <time>2022-07-08T13:01:19Z</time>
      </trkpt>
      <trkpt lat="46.495984" lon="11.253670">
        <ele>256.849</ele>
        <time>2022-07-08T13:01:33Z</time>
      </trkpt>
      <trkpt lat="46.495819" lon="11.253023">
        <ele>260.113</ele>
        <time>2022-07-08T13:01:50Z</time>
      </trkpt>
      <trkpt lat="46.495794" lon="11.252385">
        <ele>262.109</ele>
        <time>2022-07-08T13:02:07Z</time>
      </trkpt>
      <trkpt lat="46.495919" lon="11.251557">
        <ele>263.094</ele>
        <time>2022-07-08T13:02:26Z</time>
      </trkpt>
      <trkpt lat="46.496071" lon="11.250675">
        <ele>261.613</ele>
        <time>2022-07-08T13:02:42Z</time>
      </trkpt>
      <trkpt lat="46.496222" lon="11.249547">
        <ele>258.781</ele>
        <time>2022-07-08T13:02:55Z</time>
      </trkpt>
      <trkpt lat="46.496697" lon="11.248164">
        <ele>256.333</ele>
        <time>2022-07-08T13:03:11Z</time>
      </trkpt>
      <trkpt lat="46.497406" lon="11.246913">
        <ele>254.419</ele>
        <time>2022-07-08T13:03:28Z</time>
      </trkpt>
      <trkpt lat="46.497732" lon="11.246341">
        <ele>255.823</ele>
        <time>2022-07-08T13:03:36Z</time>
      </trkpt>
      <trkpt lat="46.497809" lon="11.246129">
        <ele>255.874</ele>
        <time>2022-07-08T13:03:39Z</time>
      </trkpt>
      <trkpt lat="46.497958" lon="11.245622">
        <ele>255.812</ele>
        <time>2022-07-08T13:03:46Z</time>
      </trkpt>
      <trkpt lat="46.498331" lon="11.244842">
        <ele>255.836</ele>
        <time>2022-07-08T13:04:01Z</time>
      </trkpt>
      <trkpt lat="46.498420" lon="11.244645">
        <ele>255.365</ele>
        <time>2022-07-08T13:04:05Z</time>
      </trkpt>
      <trkpt lat="46.498456" lon="11.244603">
        <ele>255.368</ele>
        <time>2022-07-08T13:04:06Z</time>
      </trkpt>
      <trkpt lat="46.498880" lon="11.244157">
        <ele>255.814</ele>
        <time>2022-07-08T13:04:18Z</time>
      </trkpt>
      <trkpt lat="46.498945" lon="11.244035">
        <ele>254.409</ele>
        <time>2022-07-08T13:04:20Z</time>
      </trkpt>
      <trkpt lat="46.499154" lon="11.243516">
        <ele>254.457</ele>
        <time>2022-07-08T13:04:32Z</time>
      </trkpt>
      <trkpt lat="46.499315" lon="11.243020">
        <ele>254.456</ele>
        <time>2022-07-08T13:04:45Z</time>
      </trkpt>
      <trkpt lat="46.499600" lon="11.242457">
        <ele>254.454</ele>
        <time>2022-07-08T13:04:59Z</time>
      </trkpt>
      <trkpt lat="46.499671" lon="11.242422">
        <ele>255.856</ele>
        <time>2022-07-08T13:05:09Z</time>
      </trkpt>
      <trkpt lat="46.499699" lon="11.242346">
        <ele>255.382</ele>
        <time>2022-07-08T13:05:25Z</time>
      </trkpt>
      <trkpt lat="46.499711" lon="11.242346">
        <ele>255.366</ele>
        <time>2022-07-08T13:05:42Z</time>
      </trkpt>
      <trkpt lat="46.499724" lon="11.242337">
        <ele>255.317</ele>
        <time>2022-07-08T13:05:43Z</time>
      </trkpt>
      <trkpt lat="46.499738" lon="11.242319">
        <ele>255.355</ele>
        <time>2022-07-08T13:05:44Z</time>
      </trkpt>
      <trkpt lat="46.499760" lon="11.242297">
        <ele>255.369</ele>
        <time>2022-07-08T13:05:45Z</time>
      </trkpt>
      <trkpt lat="46.499782" lon="11.242275">
        <ele>255.339</ele>
        <time>2022-07-08T13:05:46Z</time>
      </trkpt>
      <trkpt lat="46.499806" lon="11.242251">
        <ele>255.301</ele>
        <time>2022-07-08T13:05:47Z</time>
      </trkpt>
      <trkpt lat="46.500034" lon="11.241771">
        <ele>255.821</ele>
        <time>2022-07-08T13:05:59Z</time>
      </trkpt>
      <trkpt lat="46.500424" lon="11.241001">
        <ele>254.409</ele>
        <time>2022-07-08T13:06:12Z</time>
      </trkpt>
      <trkpt lat="46.500452" lon="11.240941">
        <ele>254.434</ele>
        <time>2022-07-08T13:06:13Z</time>
      </trkpt>
      <trkpt lat="46.500498" lon="11.240816">
        <ele>254.493</ele>
        <time>2022-07-08T13:06:15Z</time>
      </trkpt>
      <trkpt lat="46.500576" lon="11.240474">
        <ele>254.441</ele>
        <time>2022-07-08T13:06:20Z</time>
      </trkpt>
      <trkpt lat="46.500592" lon="11.240396">
        <ele>254.453</ele>
        <time>2022-07-08T13:06:21Z</time>
      </trkpt>
      <trkpt lat="46.500652" lon="11.240216">
        <ele>254.479</ele>
        <time>2022-07-08T13:06:24Z</time>
      </trkpt>
      <trkpt lat="46.500684" lon="11.240151">
        <ele>254.423</ele>
        <time>2022-07-08T13:06:25Z</time>
      </trkpt>
      <trkpt lat="46.500716" lon="11.240097">
        <ele>253.914</ele>
        <time>2022-07-08T13:06:26Z</time>
      </trkpt>
      <trkpt lat="46.500756" lon="11.240049">
        <ele>253.932</ele>
        <time>2022-07-08T13:06:27Z</time>
      </trkpt>
      <trkpt lat="46.500804" lon="11.240011">
        <ele>253.986</ele>
        <time>2022-07-08T13:06:28Z</time>
      </trkpt>
      <trkpt lat="46.500857" lon="11.239973">
        <ele>253.992</ele>
        <time>2022-07-08T13:06:29Z</time>
      </trkpt>
      <trkpt lat="46.501174" lon="11.239692">
        <ele>253.473</ele>
        <time>2022-07-08T13:06:36Z</time>
      </trkpt>
      <trkpt lat="46.501306" lon="11.239496">
        <ele>253.420</ele>
        <time>2022-07-08T13:06:40Z</time>
      </trkpt>
      <trkpt lat="46.501340" lon="11.239450">
        <ele>253.409</ele>
        <time>2022-07-08T13:06:41Z</time>
      </trkpt>
      <trkpt lat="46.501593" lon="11.239149">
        <ele>253.430</ele>
        <time>2022-07-08T13:06:48Z</time>
      </trkpt>
      <trkpt lat="46.501868" lon="11.238931">
        <ele>253.449</ele>
        <time>2022-07-08T13:06:55Z</time>
      </trkpt>
      <trkpt lat="46.501990" lon="11.238826">
        <ele>253.417</ele>
        <time>2022-07-08T13:06:58Z</time>
      </trkpt>
      <trkpt lat="46.502033" lon="11.238791">
        <ele>253.479</ele>
        <time>2022-07-08T13:06:59Z</time>
      </trkpt>
      <trkpt lat="46.502109" lon="11.238730">
        <ele>253.455</ele>
        <time>2022-07-08T13:07:01Z</time>
      </trkpt>
      <trkpt lat="46.502149" lon="11.238699">
        <ele>253.459</ele>
        <time>2022-07-08T13:07:02Z</time>
      </trkpt>
      <trkpt lat="46.502342" lon="11.238516">
        <ele>253.490</ele>
        <time>2022-07-08T13:07:07Z</time>
      </trkpt>
      <trkpt lat="46.502380" lon="11.238475">
        <ele>253.448</ele>
        <time>2022-07-08T13:07:08Z</time>
      </trkpt>
      <trkpt lat="46.502466" lon="11.238392">
        <ele>253.442</ele>
        <time>2022-07-08T13:07:10Z</time>
      </trkpt>
      <trkpt lat="46.502519" lon="11.238352">
        <ele>253.499</ele>
        <time>2022-07-08T13:07:11Z</time>
      </trkpt>
      <trkpt lat="46.503046" lon="11.238080">
        <ele>254.807</ele>
        <time>2022-07-08T13:07:24Z</time>
      </trkpt>
      <trkpt lat="46.503080" lon="11.238074">
        <ele>254.827</ele>
        <time>2022-07-08T13:07:25Z</time>
      </trkpt>
      <trkpt lat="46.503567" lon="11.237829">
        <ele>255.809</ele>
        <time>2022-07-08T13:07:39Z</time>
      </trkpt>
      <trkpt lat="46.504029" lon="11.237839">
        <ele>256.830</ele>
        <time>2022-07-08T13:07:52Z</time>
      </trkpt>
      <trkpt lat="46.504477" lon="11.237692">
        <ele>256.829</ele>
        <time>2022-07-08T13:08:04Z</time>
      </trkpt>
      <trkpt lat="46.504728" lon="11.237541">
        <ele>255.857</ele>
        <time>2022-07-08T13:08:09Z</time>
      </trkpt>
      <trkpt lat="46.505153" lon="11.237109">
        <ele>254.459</ele>
        <time>2022-07-08T13:08:18Z</time>
      </trkpt>
      <trkpt lat="46.505182" lon="11.237063">
        <ele>254.485</ele>
        <time>2022-07-08T13:08:19Z</time>
      </trkpt>
      <trkpt lat="46.505517" lon="11.236492">
        <ele>255.819</ele>
        <time>2022-07-08T13:08:31Z</time>
      </trkpt>
      <trkpt lat="46.505793" lon="11.235862">
        <ele>256.360</ele>
        <time>2022-07-08T13:08:44Z</time>
      </trkpt>
      <trkpt lat="46.505828" lon="11.235760">
        <ele>257.768</ele>
        <time>2022-07-08T13:08:46Z</time>
      </trkpt>
      <trkpt lat="46.506132" lon="11.235261">
        <ele>257.252</ele>
        <time>2022-07-08T13:08:59Z</time>
      </trkpt>
      <trkpt lat="46.506533" lon="11.234780">
        <ele>259.235</ele>
        <time>2022-07-08T13:09:16Z</time>
      </trkpt>
      <trkpt lat="46.506922" lon="11.234530">
        <ele>260.686</ele>
        <time>2022-07-08T13:09:31Z</time>
      </trkpt>
      <trkpt lat="46.507290" lon="11.234400">
        <ele>261.114</ele>
        <time>2022-07-08T13:09:47Z</time>
      </trkpt>
      <trkpt lat="46.507289" lon="11.234392">
        <ele>261.109</ele>
        <time>2022-07-08T13:10:12Z</time>
      </trkpt>
      <trkpt lat="46.507312" lon="11.234375">
        <ele>261.144</ele>
        <time>2022-07-08T13:10:30Z</time>
      </trkpt>
      <trkpt lat="46.507537" lon="11.234217">
        <ele>261.123</ele>
        <time>2022-07-08T13:10:41Z</time>
      </trkpt>
      <trkpt lat="46.507985" lon="11.233978">
        <ele>263.591</ele>
        <time>2022-07-08T13:10:58Z</time>
      </trkpt>
      <trkpt lat="46.508433" lon="11.233712">
        <ele>265.953</ele>
        <time>2022-07-08T13:11:17Z</time>
      </trkpt>
      <trkpt lat="46.508797" lon="11.233633">
        <ele>269.389</ele>
        <time>2022-07-08T13:11:34Z</time>
      </trkpt>
      <trkpt lat="46.509024" lon="11.233356">
        <ele>270.723</ele>
        <time>2022-07-08T13:11:49Z</time>
      </trkpt>
      <trkpt lat="46.509279" lon="11.233113">
        <ele>272.164</ele>
        <time>2022-07-08T13:12:04Z</time>
      </trkpt>
      <trkpt lat="46.509552" lon="11.232859">
        <ele>273.692</ele>
        <time>2022-07-08T13:12:19Z</time>
      </trkpt>
      <trkpt lat="46.509848" lon="11.232585">
        <ele>276.076</ele>
        <time>2022-07-08T13:12:36Z</time>
      </trkpt>
      <trkpt lat="46.510081" lon="11.232336">
        <ele>278.989</ele>
        <time>2022-07-08T13:12:52Z</time>
      </trkpt>
      <trkpt lat="46.510331" lon="11.232117">
        <ele>280.806</ele>
        <time>2022-07-08T13:13:08Z</time>
      </trkpt>
      <trkpt lat="46.510542" lon="11.231922">
        <ele>282.726</ele>
        <time>2022-07-08T13:13:23Z</time>
      </trkpt>
      <trkpt lat="46.510737" lon="11.231757">
        <ele>284.609</ele>
        <time>2022-07-08T13:13:39Z</time>
      </trkpt>
      <trkpt lat="46.510958" lon="11.231626">
        <ele>286.619</ele>
        <time>2022-07-08T13:13:55Z</time>
      </trkpt>
      <trkpt lat="46.511189" lon="11.231700">
        <ele>288.058</ele>
        <time>2022-07-08T13:14:09Z</time>
      </trkpt>
      <trkpt lat="46.511600" lon="11.232140">
        <ele>288.096</ele>
        <time>2022-07-08T13:14:27Z</time>
      </trkpt>
      <trkpt lat="46.511647" lon="11.232212">
        <ele>288.058</ele>
        <time>2022-07-08T13:14:38Z</time>
      </trkpt>
      <trkpt lat="46.511690" lon="11.232247">
        <ele>287.514</ele>
        <time>2022-07-08T13:15:04Z</time>
      </trkpt>
      <trkpt lat="46.511707" lon="11.232259">
        <ele>287.548</ele>
        <time>2022-07-08T13:15:05Z</time>
      </trkpt>
      <trkpt lat="46.512049" lon="11.232639">
        <ele>287.569</ele>
        <time>2022-07-08T13:15:19Z</time>
      </trkpt>
      <trkpt lat="46.512470" lon="11.232881">
        <ele>287.527</ele>
        <time>2022-07-08T13:15:33Z</time>
      </trkpt>
      <trkpt lat="46.512788" lon="11.232791">
        <ele>287.551</ele>
        <time>2022-07-08T13:15:46Z</time>
      </trkpt>
      <trkpt lat="46.512859" lon="11.232766">
        <ele>289.486</ele>
        <time>2022-07-08T13:15:49Z</time>
      </trkpt>
      <trkpt lat="46.512979" lon="11.232728">
        <ele>292.860</ele>
        <time>2022-07-08T13:15:54Z</time>
      </trkpt>
      <trkpt lat="46.513003" lon="11.232719">
        <ele>289.926</ele>
        <time>2022-07-08T13:15:55Z</time>
      </trkpt>
      <trkpt lat="46.513282" lon="11.232546">
        <ele>292.309</ele>
        <time>2022-07-08T13:16:10Z</time>
      </trkpt>
      <trkpt lat="46.513453" lon="11.232388">
        <ele>294.369</ele>
        <time>2022-07-08T13:16:23Z</time>
      </trkpt>
      <trkpt lat="46.513653" lon="11.232225">
        <ele>297.148</ele>
        <time>2022-07-08T13:16:38Z</time>
      </trkpt>
      <trkpt lat="46.513770" lon="11.232102">
        <ele>298.196</ele>
        <time>2022-07-08T13:16:48Z</time>
      </trkpt>
      <trkpt lat="46.513773" lon="11.232082">
        <ele>298.128</ele>
        <time>2022-07-08T13:16:49Z</time>
      </trkpt>
      <trkpt lat="46.513768" lon="11.232056">
        <ele>298.154</ele>
        <time>2022-07-08T13:16:50Z</time>
      </trkpt>
      <trkpt lat="46.513761" lon="11.232040">
        <ele>298.118</ele>
        <time>2022-07-08T13:16:51Z</time>
      </trkpt>
      <trkpt lat="46.513754" lon="11.232021">
        <ele>298.149</ele>
        <time>2022-07-08T13:16:52Z</time>
      </trkpt>
      <trkpt lat="46.513519" lon="11.231834">
        <ele>298.617</ele>
        <time>2022-07-08T13:17:06Z</time>
      </trkpt>
      <trkpt lat="46.513453" lon="11.231526">
        <ele>299.591</ele>
        <time>2022-07-08T13:17:18Z</time>
      </trkpt>
      <trkpt lat="46.513417" lon="11.231218">
        <ele>301.535</ele>
        <time>2022-07-08T13:17:31Z</time>
      </trkpt>
      <trkpt lat="46.513452" lon="11.230854">
        <ele>304.386</ele>
        <time>2022-07-08T13:17:49Z</time>
      </trkpt>
      <trkpt lat="46.513448" lon="11.230699">
        <ele>305.814</ele>
        <time>2022-07-08T13:17:57Z</time>
      </trkpt>
      <trkpt lat="46.513443" lon="11.230653">
        <ele>305.809</ele>
        <time>2022-07-08T13:18:00Z</time>
      </trkpt>
      <trkpt lat="46.513443" lon="11.230634">
        <ele>306.384</ele>
        <time>2022-07-08T13:18:01Z</time>
      </trkpt>
      <trkpt lat="46.513439" lon="11.230615">
        <ele>306.383</ele>
        <time>2022-07-08T13:18:02Z</time>
      </trkpt>
      <trkpt lat="46.513436" lon="11.230596">
        <ele>306.871</ele>
        <time>2022-07-08T13:18:03Z</time>
      </trkpt>
      <trkpt lat="46.513434" lon="11.230577">
        <ele>306.823</ele>
        <time>2022-07-08T13:18:04Z</time>
      </trkpt>
      <trkpt lat="46.513433" lon="11.230558">
        <ele>307.299</ele>
        <time>2022-07-08T13:18:05Z</time>
      </trkpt>
      <trkpt lat="46.513371" lon="11.230259">
        <ele>308.743</ele>
        <time>2022-07-08T13:18:21Z</time>
      </trkpt>
      <trkpt lat="46.513373" lon="11.230238">
        <ele>308.774</ele>
        <time>2022-07-08T13:18:22Z</time>
      </trkpt>
      <trkpt lat="46.513350" lon="11.229894">
        <ele>311.112</ele>
        <time>2022-07-08T13:18:40Z</time>
      </trkpt>
      <trkpt lat="46.513347" lon="11.229876">
        <ele>311.146</ele>
        <time>2022-07-08T13:18:41Z</time>
      </trkpt>
      <trkpt lat="46.513345" lon="11.229859">
        <ele>311.178</ele>
        <time>2022-07-08T13:18:42Z</time>
      </trkpt>
      <trkpt lat="46.513345" lon="11.229842">
        <ele>312.033</ele>
        <time>2022-07-08T13:18:43Z</time>
      </trkpt>
      <trkpt lat="46.513346" lon="11.229825">
        <ele>312.026</ele>
        <time>2022-07-08T13:18:44Z</time>
      </trkpt>
      <trkpt lat="46.513349" lon="11.229805">
        <ele>312.009</ele>
        <time>2022-07-08T13:18:45Z</time>
      </trkpt>
      <trkpt lat="46.513351" lon="11.229788">
        <ele>312.528</ele>
        <time>2022-07-08T13:18:46Z</time>
      </trkpt>
      <trkpt lat="46.513353" lon="11.229770">
        <ele>312.577</ele>
        <time>2022-07-08T13:18:47Z</time>
      </trkpt>
      <trkpt lat="46.513355" lon="11.229751">
        <ele>312.515</ele>
        <time>2022-07-08T13:18:48Z</time>
      </trkpt>
      <trkpt lat="46.513357" lon="11.229732">
        <ele>312.527</ele>
        <time>2022-07-08T13:18:49Z</time>
      </trkpt>
      <trkpt lat="46.513359" lon="11.229714">
        <ele>313.033</ele>
        <time>2022-07-08T13:18:50Z</time>
      </trkpt>
      <trkpt lat="46.513360" lon="11.229700">
        <ele>313.027</ele>
        <time>2022-07-08T13:18:51Z</time>
      </trkpt>
      <trkpt lat="46.513435" lon="11.229442">
        <ele>315.458</ele>
        <time>2022-07-08T13:19:07Z</time>
      </trkpt>
      <trkpt lat="46.513561" lon="11.229153">
        <ele>317.896</ele>
        <time>2022-07-08T13:19:25Z</time>
      </trkpt>
      <trkpt lat="46.513686" lon="11.228870">
        <ele>319.760</ele>
        <time>2022-07-08T13:19:43Z</time>
      </trkpt>
      <trkpt lat="46.513768" lon="11.228698">
        <ele>321.758</ele>
        <time>2022-07-08T13:19:55Z</time>
      </trkpt>
      <trkpt lat="46.513774" lon="11.228683">
        <ele>322.152</ele>
        <time>2022-07-08T13:19:56Z</time>
      </trkpt>
      <trkpt lat="46.513781" lon="11.228669">
        <ele>322.117</ele>
        <time>2022-07-08T13:19:57Z</time>
      </trkpt>
      <trkpt lat="46.513817" lon="11.228627">
        <ele>322.609</ele>
        <time>2022-07-08T13:20:01Z</time>
      </trkpt>
      <trkpt lat="46.513828" lon="11.228631">
        <ele>322.686</ele>
        <time>2022-07-08T13:20:02Z</time>
      </trkpt>
      <trkpt lat="46.513876" lon="11.228659">
        <ele>323.185</ele>
        <time>2022-07-08T13:20:06Z</time>
      </trkpt>
      <trkpt lat="46.513891" lon="11.228662">
        <ele>323.183</ele>
        <time>2022-07-08T13:20:07Z</time>
      </trkpt>
      <trkpt lat="46.514151" lon="11.228764">
        <ele>323.115</ele>
        <time>2022-07-08T13:20:23Z</time>
      </trkpt>
      <trkpt lat="46.514165" lon="11.228745">
        <ele>323.651</ele>
        <time>2022-07-08T13:20:25Z</time>
      </trkpt>
      <trkpt lat="46.514181" lon="11.228701">
        <ele>324.165</ele>
        <time>2022-07-08T13:20:27Z</time>
      </trkpt>
      <trkpt lat="46.514181" lon="11.228684">
        <ele>324.166</ele>
        <time>2022-07-08T13:20:28Z</time>
      </trkpt>
      <trkpt lat="46.514181" lon="11.228668">
        <ele>324.164</ele>
        <time>2022-07-08T13:20:29Z</time>
      </trkpt>
      <trkpt lat="46.514183" lon="11.228652">
        <ele>324.128</ele>
        <time>2022-07-08T13:20:30Z</time>
      </trkpt>
      <trkpt lat="46.514186" lon="11.228635">
        <ele>325.025</ele>
        <time>2022-07-08T13:20:31Z</time>
      </trkpt>
      <trkpt lat="46.514190" lon="11.228617">
        <ele>325.026</ele>
        <time>2022-07-08T13:20:32Z</time>
      </trkpt>
      <trkpt lat="46.514194" lon="11.228600">
        <ele>325.008</ele>
        <time>2022-07-08T13:20:33Z</time>
      </trkpt>
      <trkpt lat="46.514200" lon="11.228583">
        <ele>325.009</ele>
        <time>2022-07-08T13:20:34Z</time>
      </trkpt>
      <trkpt lat="46.514205" lon="11.228569">
        <ele>325.593</ele>
        <time>2022-07-08T13:20:35Z</time>
      </trkpt>
      <trkpt lat="46.514210" lon="11.228555">
        <ele>325.582</ele>
        <time>2022-07-08T13:20:36Z</time>
      </trkpt>
      <trkpt lat="46.514214" lon="11.228541">
        <ele>326.020</ele>
        <time>2022-07-08T13:20:37Z</time>
      </trkpt>
      <trkpt lat="46.514239" lon="11.228460">
        <ele>326.592</ele>
        <time>2022-07-08T13:20:43Z</time>
      </trkpt>
      <trkpt lat="46.514248" lon="11.228445">
        <ele>326.928</ele>
        <time>2022-07-08T13:20:44Z</time>
      </trkpt>
      <trkpt lat="46.514255" lon="11.228434">
        <ele>326.962</ele>
        <time>2022-07-08T13:20:45Z</time>
      </trkpt>
      <trkpt lat="46.514265" lon="11.228417">
        <ele>326.923</ele>
        <time>2022-07-08T13:20:46Z</time>
      </trkpt>
      <trkpt lat="46.514271" lon="11.228405">
        <ele>326.961</ele>
        <time>2022-07-08T13:20:47Z</time>
      </trkpt>
      <trkpt lat="46.514280" lon="11.228387">
        <ele>326.915</ele>
        <time>2022-07-08T13:20:48Z</time>
      </trkpt>
      <trkpt lat="46.514287" lon="11.228369">
        <ele>327.462</ele>
        <time>2022-07-08T13:20:49Z</time>
      </trkpt>
      <trkpt lat="46.514294" lon="11.228352">
        <ele>327.483</ele>
        <time>2022-07-08T13:20:50Z</time>
      </trkpt>
      <trkpt lat="46.514298" lon="11.228331">
        <ele>327.411</ele>
        <time>2022-07-08T13:20:51Z</time>
      </trkpt>
      <trkpt lat="46.514373" lon="11.228105">
        <ele>329.809</ele>
        <time>2022-07-08T13:21:04Z</time>
      </trkpt>
      <trkpt lat="46.514376" lon="11.228091">
        <ele>329.847</ele>
        <time>2022-07-08T13:21:05Z</time>
      </trkpt>
      <trkpt lat="46.514422" lon="11.227783">
        <ele>332.286</ele>
        <time>2022-07-08T13:21:23Z</time>
      </trkpt>
      <trkpt lat="46.514393" lon="11.227466">
        <ele>335.644</ele>
        <time>2022-07-08T13:21:42Z</time>
      </trkpt>
      <trkpt lat="46.514386" lon="11.227336">
        <ele>336.656</ele>
        <time>2022-07-08T13:21:50Z</time>
      </trkpt>
      <trkpt lat="46.514391" lon="11.227324">
        <ele>336.652</ele>
        <time>2022-07-08T13:21:51Z</time>
      </trkpt>
      <trkpt lat="46.514452" lon="11.227188">
        <ele>339.476</ele>
        <time>2022-07-08T13:22:02Z</time>
      </trkpt>
      <trkpt lat="46.514584" lon="11.226964">
        <ele>341.427</ele>
        <time>2022-07-08T13:22:20Z</time>
      </trkpt>
      <trkpt lat="46.514694" lon="11.226798">
        <ele>343.845</ele>
        <time>2022-07-08T13:22:35Z</time>
      </trkpt>
      <trkpt lat="46.514737" lon="11.226757">
        <ele>345.299</ele>
        <time>2022-07-08T13:22:39Z</time>
      </trkpt>
      <trkpt lat="46.514746" lon="11.226744">
        <ele>345.249</ele>
        <time>2022-07-08T13:22:40Z</time>
      </trkpt>
      <trkpt lat="46.514881" lon="11.226586">
        <ele>347.602</ele>
        <time>2022-07-08T13:22:57Z</time>
      </trkpt>
      <trkpt lat="46.515011" lon="11.226450">
        <ele>350.522</ele>
        <time>2022-07-08T13:23:12Z</time>
      </trkpt>
      <trkpt lat="46.515196" lon="11.226428">
        <ele>351.509</ele>
        <time>2022-07-08T13:23:26Z</time>
      </trkpt>
      <trkpt lat="46.515543" lon="11.226401">
        <ele>352.455</ele>
        <time>2022-07-08T13:23:44Z</time>
      </trkpt>
      <trkpt lat="46.515814" lon="11.226177">
        <ele>353.464</ele>
        <time>2022-07-08T13:24:00Z</time>
      </trkpt>
      <trkpt lat="46.515931" lon="11.225873">
        <ele>356.332</ele>
        <time>2022-07-08T13:24:18Z</time>
      </trkpt>
      <trkpt lat="46.516055" lon="11.225582">
        <ele>358.744</ele>
        <time>2022-07-08T13:24:35Z</time>
      </trkpt>
      <trkpt lat="46.516075" lon="11.225488">
        <ele>359.640</ele>
        <time>2022-07-08T13:24:40Z</time>
      </trkpt>
      <trkpt lat="46.516228" lon="11.225210">
        <ele>362.024</ele>
        <time>2022-07-08T13:24:57Z</time>
      </trkpt>
      <trkpt lat="46.516301" lon="11.225004">
        <ele>363.585</ele>
        <time>2022-07-08T13:25:07Z</time>
      </trkpt>
      <trkpt lat="46.516299" lon="11.224983">
        <ele>363.533</ele>
        <time>2022-07-08T13:25:08Z</time>
      </trkpt>
      <trkpt lat="46.516284" lon="11.224689">
        <ele>365.467</ele>
        <time>2022-07-08T13:25:24Z</time>
      </trkpt>
      <trkpt lat="46.516300" lon="11.224548">
        <ele>366.849</ele>
        <time>2022-07-08T13:25:38Z</time>
      </trkpt>
      <trkpt lat="46.516323" lon="11.224506">
        <ele>366.802</ele>
        <time>2022-07-08T13:26:10Z</time>
      </trkpt>
      <trkpt lat="46.516316" lon="11.224501">
        <ele>367.322</ele>
        <time>2022-07-08T13:26:43Z</time>
      </trkpt>
      <trkpt lat="46.516308" lon="11.224466">
        <ele>367.309</ele>
        <time>2022-07-08T13:27:13Z</time>
      </trkpt>
      <trkpt lat="46.516331" lon="11.224252">
        <ele>369.275</ele>
        <time>2022-07-08T13:27:28Z</time>
      </trkpt>
      <trkpt lat="46.516426" lon="11.224088">
        <ele>372.164</ele>
        <time>2022-07-08T13:27:43Z</time>
      </trkpt>
      <trkpt lat="46.516512" lon="11.223927">
        <ele>375.052</ele>
        <time>2022-07-08T13:27:59Z</time>
      </trkpt>
      <trkpt lat="46.516563" lon="11.223724">
        <ele>377.494</ele>
        <time>2022-07-08T13:28:14Z</time>
      </trkpt>
      <trkpt lat="46.516594" lon="11.223502">
        <ele>379.870</ele>
        <time>2022-07-08T13:28:31Z</time>
      </trkpt>
      <trkpt lat="46.516637" lon="11.223362">
        <ele>382.214</ele>
        <time>2022-07-08T13:28:44Z</time>
      </trkpt>
      <trkpt lat="46.516631" lon="11.223201">
        <ele>383.765</ele>
        <time>2022-07-08T13:28:55Z</time>
      </trkpt>
      <trkpt lat="46.516628" lon="11.223181">
        <ele>383.763</ele>
        <time>2022-07-08T13:28:56Z</time>
      </trkpt>
      <trkpt lat="46.516623" lon="11.223162">
        <ele>383.747</ele>
        <time>2022-07-08T13:28:57Z</time>
      </trkpt>
      <trkpt lat="46.516617" lon="11.223145">
        <ele>383.792</ele>
        <time>2022-07-08T13:28:58Z</time>
      </trkpt>
      <trkpt lat="46.516536" lon="11.222951">
        <ele>385.673</ele>
        <time>2022-07-08T13:29:13Z</time>
      </trkpt>
      <trkpt lat="46.516540" lon="11.222886">
        <ele>385.620</ele>
        <time>2022-07-08T13:29:17Z</time>
      </trkpt>
      <trkpt lat="46.516547" lon="11.222868">
        <ele>386.109</ele>
        <time>2022-07-08T13:29:18Z</time>
      </trkpt>
      <trkpt lat="46.516553" lon="11.222852">
        <ele>386.170</ele>
        <time>2022-07-08T13:29:19Z</time>
      </trkpt>
      <trkpt lat="46.516558" lon="11.222834">
        <ele>386.199</ele>
        <time>2022-07-08T13:29:20Z</time>
      </trkpt>
      <trkpt lat="46.516559" lon="11.222816">
        <ele>386.167</ele>
        <time>2022-07-08T13:29:21Z</time>
      </trkpt>
      <trkpt lat="46.516559" lon="11.222797">
        <ele>386.179</ele>
        <time>2022-07-08T13:29:22Z</time>
      </trkpt>
      <trkpt lat="46.516564" lon="11.222781">
        <ele>386.145</ele>
        <time>2022-07-08T13:29:23Z</time>
      </trkpt>
      <trkpt lat="46.516572" lon="11.222766">
        <ele>386.599</ele>
        <time>2022-07-08T13:29:24Z</time>
      </trkpt>
      <trkpt lat="46.516583" lon="11.222754">
        <ele>386.560</ele>
        <time>2022-07-08T13:29:25Z</time>
      </trkpt>
      <trkpt lat="46.516595" lon="11.222744">
        <ele>386.548</ele>
        <time>2022-07-08T13:29:26Z</time>
      </trkpt>
      <trkpt lat="46.516607" lon="11.222730">
        <ele>386.582</ele>
        <time>2022-07-08T13:29:27Z</time>
      </trkpt>
      <trkpt lat="46.516616" lon="11.222716">
        <ele>387.074</ele>
        <time>2022-07-08T13:29:28Z</time>
      </trkpt>
      <trkpt lat="46.516634" lon="11.222690">
        <ele>387.056</ele>
        <time>2022-07-08T13:29:30Z</time>
      </trkpt>
      <trkpt lat="46.516643" lon="11.222680">
        <ele>387.021</ele>
        <time>2022-07-08T13:29:31Z</time>
      </trkpt>
      <trkpt lat="46.516652" lon="11.222669">
        <ele>387.509</ele>
        <time>2022-07-08T13:29:32Z</time>
      </trkpt>
      <trkpt lat="46.516773" lon="11.222532">
        <ele>389.418</ele>
        <time>2022-07-08T13:29:44Z</time>
      </trkpt>
      <trkpt lat="46.516951" lon="11.222413">
        <ele>392.337</ele>
        <time>2022-07-08T13:30:02Z</time>
      </trkpt>
      <trkpt lat="46.517097" lon="11.222421">
        <ele>395.255</ele>
        <time>2022-07-08T13:30:19Z</time>
      </trkpt>
      <trkpt lat="46.517198" lon="11.222449">
        <ele>396.657</ele>
        <time>2022-07-08T13:30:28Z</time>
      </trkpt>
      <trkpt lat="46.517283" lon="11.222328">
        <ele>398.683</ele>
        <time>2022-07-08T13:30:41Z</time>
      </trkpt>
      <trkpt lat="46.517413" lon="11.222210">
        <ele>401.097</ele>
        <time>2022-07-08T13:30:56Z</time>
      </trkpt>
      <trkpt lat="46.517477" lon="11.222175">
        <ele>402.438</ele>
        <time>2022-07-08T13:31:02Z</time>
      </trkpt>
      <trkpt lat="46.517489" lon="11.222172">
        <ele>402.456</ele>
        <time>2022-07-08T13:31:03Z</time>
      </trkpt>
      <trkpt lat="46.517501" lon="11.222170">
        <ele>402.430</ele>
        <time>2022-07-08T13:31:04Z</time>
      </trkpt>
      <trkpt lat="46.517741" lon="11.222197">
        <ele>403.427</ele>
        <time>2022-07-08T13:31:21Z</time>
      </trkpt>
      <trkpt lat="46.518015" lon="11.222185">
        <ele>404.368</ele>
        <time>2022-07-08T13:31:35Z</time>
      </trkpt>
      <trkpt lat="46.518350" lon="11.222151">
        <ele>404.814</ele>
        <time>2022-07-08T13:31:51Z</time>
      </trkpt>
      <trkpt lat="46.518570" lon="11.222102">
        <ele>405.809</ele>
        <time>2022-07-08T13:32:04Z</time>
      </trkpt>
      <trkpt lat="46.518586" lon="11.222088">
        <ele>406.283</ele>
        <time>2022-07-08T13:32:05Z</time>
      </trkpt>
      <trkpt lat="46.518600" lon="11.222076">
        <ele>406.292</ele>
        <time>2022-07-08T13:32:06Z</time>
      </trkpt>
      <trkpt lat="46.518773" lon="11.221904">
        <ele>408.290</ele>
        <time>2022-07-08T13:32:20Z</time>
      </trkpt>
      <trkpt lat="46.518869" lon="11.221756">
        <ele>409.662</ele>
        <time>2022-07-08T13:32:30Z</time>
      </trkpt>
      <trkpt lat="46.518876" lon="11.221737">
        <ele>409.638</ele>
        <time>2022-07-08T13:32:31Z</time>
      </trkpt>
      <trkpt lat="46.518888" lon="11.221721">
        <ele>410.152</ele>
        <time>2022-07-08T13:32:32Z</time>
      </trkpt>
      <trkpt lat="46.519024" lon="11.221598">
        <ele>412.583</ele>
        <time>2022-07-08T13:32:46Z</time>
      </trkpt>
      <trkpt lat="46.519199" lon="11.221480">
        <ele>413.981</ele>
        <time>2022-07-08T13:33:01Z</time>
      </trkpt>
      <trkpt lat="46.519425" lon="11.221298">
        <ele>414.475</ele>
        <time>2022-07-08T13:33:14Z</time>
      </trkpt>
      <trkpt lat="46.519679" lon="11.221040">
        <ele>415.463</ele>
        <time>2022-07-08T13:33:26Z</time>
      </trkpt>
      <trkpt lat="46.519888" lon="11.220754">
        <ele>415.444</ele>
        <time>2022-07-08T13:33:38Z</time>
      </trkpt>
      <trkpt lat="46.520120" lon="11.220611">
        <ele>417.818</ele>
        <time>2022-07-08T13:33:53Z</time>
      </trkpt>
      <trkpt lat="46.520164" lon="11.220578">
        <ele>417.809</ele>
        <time>2022-07-08T13:33:56Z</time>
      </trkpt>
      <trkpt lat="46.520181" lon="11.220570">
        <ele>418.377</ele>
        <time>2022-07-08T13:33:57Z</time>
      </trkpt>
      <trkpt lat="46.520328" lon="11.220446">
        <ele>419.726</ele>
        <time>2022-07-08T13:34:11Z</time>
      </trkpt>
      <trkpt lat="46.520487" lon="11.220289">
        <ele>422.114</ele>
        <time>2022-07-08T13:34:26Z</time>
      </trkpt>
      <trkpt lat="46.520506" lon="11.220267">
        <ele>422.626</ele>
        <time>2022-07-08T13:34:28Z</time>
      </trkpt>
      <trkpt lat="46.520605" lon="11.220198">
        <ele>424.512</ele>
        <time>2022-07-08T13:34:39Z</time>
      </trkpt>
      <trkpt lat="46.520802" lon="11.220066">
        <ele>426.086</ele>
        <time>2022-07-08T13:34:55Z</time>
      </trkpt>
      <trkpt lat="46.520950" lon="11.219848">
        <ele>426.017</ele>
        <time>2022-07-08T13:35:05Z</time>
      </trkpt>
      <trkpt lat="46.521090" lon="11.219613">
        <ele>427.935</ele>
        <time>2022-07-08T13:35:20Z</time>
      </trkpt>
      <trkpt lat="46.521195" lon="11.219389">
        <ele>430.349</ele>
        <time>2022-07-08T13:35:36Z</time>
      </trkpt>
      <trkpt lat="46.521321" lon="11.219232">
        <ele>432.228</ele>
        <time>2022-07-08T13:35:50Z</time>
      </trkpt>
      <trkpt lat="46.521532" lon="11.219048">
        <ele>434.189</ele>
        <time>2022-07-08T13:36:05Z</time>
      </trkpt>
      <trkpt lat="46.521790" lon="11.218922">
        <ele>434.617</ele>
        <time>2022-07-08T13:36:19Z</time>
      </trkpt>
      <trkpt lat="46.522096" lon="11.218774">
        <ele>435.109</ele>
        <time>2022-07-08T13:36:32Z</time>
      </trkpt>
      <trkpt lat="46.522213" lon="11.218694">
        <ele>433.273</ele>
        <time>2022-07-08T13:36:35Z</time>
      </trkpt>
      <trkpt lat="46.522301" lon="11.218619">
        <ele>432.752</ele>
        <time>2022-07-08T13:36:37Z</time>
      </trkpt>
      <trkpt lat="46.522343" lon="11.218568">
        <ele>431.720</ele>
        <time>2022-07-08T13:36:38Z</time>
      </trkpt>
      <trkpt lat="46.522442" lon="11.218407">
        <ele>431.712</ele>
        <time>2022-07-08T13:36:41Z</time>
      </trkpt>
      <trkpt lat="46.522469" lon="11.218354">
        <ele>431.728</ele>
        <time>2022-07-08T13:36:42Z</time>
      </trkpt>
      <trkpt lat="46.522645" lon="11.218117">
        <ele>433.242</ele>
        <time>2022-07-08T13:36:51Z</time>
      </trkpt>
      <trkpt lat="46.522753" lon="11.217900">
        <ele>433.663</ele>
        <time>2022-07-08T13:37:02Z</time>
      </trkpt>
      <trkpt lat="46.522853" lon="11.217708">
        <ele>434.661</ele>
        <time>2022-07-08T13:37:09Z</time>
      </trkpt>
      <trkpt lat="46.522956" lon="11.217411">
        <ele>435.655</ele>
        <time>2022-07-08T13:37:23Z</time>
      </trkpt>
      <trkpt lat="46.523004" lon="11.217181">
        <ele>437.592</ele>
        <time>2022-07-08T13:37:36Z</time>
      </trkpt>
      <trkpt lat="46.523085" lon="11.216927">
        <ele>439.973</ele>
        <time>2022-07-08T13:37:52Z</time>
      </trkpt>
      <trkpt lat="46.523182" lon="11.216688">
        <ele>442.320</ele>
        <time>2022-07-08T13:38:07Z</time>
      </trkpt>
      <trkpt lat="46.523282" lon="11.216441">
        <ele>444.209</ele>
        <time>2022-07-08T13:38:23Z</time>
      </trkpt>
      <trkpt lat="46.523416" lon="11.216247">
        <ele>446.160</ele>
        <time>2022-07-08T13:38:38Z</time>
      </trkpt>
      <trkpt lat="46.523557" lon="11.216031">
        <ele>447.629</ele>
        <time>2022-07-08T13:38:54Z</time>
      </trkpt>
      <trkpt lat="46.523692" lon="11.215818">
        <ele>449.517</ele>
        <time>2022-07-08T13:39:10Z</time>
      </trkpt>
      <trkpt lat="46.523839" lon="11.215588">
        <ele>451.919</ele>
        <time>2022-07-08T13:39:27Z</time>
      </trkpt>
      <trkpt lat="46.523859" lon="11.215562">
        <ele>451.935</ele>
        <time>2022-07-08T13:39:29Z</time>
      </trkpt>
      <trkpt lat="46.523877" lon="11.215555">
        <ele>452.919</ele>
        <time>2022-07-08T13:40:51Z</time>
      </trkpt>
      <trkpt lat="46.523910" lon="11.215536">
        <ele>452.970</ele>
        <time>2022-07-08T13:41:11Z</time>
      </trkpt>
      <trkpt lat="46.523897" lon="11.215544">
        <ele>452.988</ele>
        <time>2022-07-08T13:41:30Z</time>
      </trkpt>
      <trkpt lat="46.523924" lon="11.215505">
        <ele>452.942</ele>
        <time>2022-07-08T13:41:49Z</time>
      </trkpt>
      <trkpt lat="46.524103" lon="11.215264">
        <ele>454.391</ele>
        <time>2022-07-08T13:42:06Z</time>
      </trkpt>
      <trkpt lat="46.524154" lon="11.215198">
        <ele>455.881</ele>
        <time>2022-07-08T13:42:18Z</time>
      </trkpt>
      <trkpt lat="46.524235" lon="11.215107">
        <ele>459.119</ele>
        <time>2022-07-08T13:42:36Z</time>
      </trkpt>
      <trkpt lat="46.524334" lon="11.215045">
        <ele>461.009</ele>
        <time>2022-07-08T13:42:54Z</time>
      </trkpt>
      <trkpt lat="46.524421" lon="11.214970">
        <ele>463.480</ele>
        <time>2022-07-08T13:43:10Z</time>
      </trkpt>
      <trkpt lat="46.524470" lon="11.214891">
        <ele>465.929</ele>
        <time>2022-07-08T13:43:25Z</time>
      </trkpt>
      <trkpt lat="46.524532" lon="11.214793">
        <ele>467.367</ele>
        <time>2022-07-08T13:43:40Z</time>
      </trkpt>
      <trkpt lat="46.524603" lon="11.214697">
        <ele>469.779</ele>
        <time>2022-07-08T13:43:55Z</time>
      </trkpt>
      <trkpt lat="46.524654" lon="11.214616">
        <ele>471.655</ele>
        <time>2022-07-08T13:44:12Z</time>
      </trkpt>
      <trkpt lat="46.524699" lon="11.214449">
        <ele>474.039</ele>
        <time>2022-07-08T13:44:29Z</time>
      </trkpt>
      <trkpt lat="46.524777" lon="11.214307">
        <ele>476.440</ele>
        <time>2022-07-08T13:44:46Z</time>
      </trkpt>
      <trkpt lat="46.524858" lon="11.214217">
        <ele>477.998</ele>
        <time>2022-07-08T13:45:02Z</time>
      </trkpt>
      <trkpt lat="46.524915" lon="11.214147">
        <ele>479.862</ele>
        <time>2022-07-08T13:45:17Z</time>
      </trkpt>
      <trkpt lat="46.524996" lon="11.214102">
        <ele>482.294</ele>
        <time>2022-07-08T13:45:32Z</time>
      </trkpt>
      <trkpt lat="46.525104" lon="11.214037">
        <ele>484.157</ele>
        <time>2022-07-08T13:45:49Z</time>
      </trkpt>
      <trkpt lat="46.525177" lon="11.213909">
        <ele>486.022</ele>
        <time>2022-07-08T13:46:04Z</time>
      </trkpt>
      <trkpt lat="46.525240" lon="11.213791">
        <ele>488.909</ele>
        <time>2022-07-08T13:46:20Z</time>
      </trkpt>
      <trkpt lat="46.525291" lon="11.213728">
        <ele>490.410</ele>
        <time>2022-07-08T13:46:37Z</time>
      </trkpt>
      <trkpt lat="46.525274" lon="11.213693">
        <ele>490.489</ele>
        <time>2022-07-08T13:47:05Z</time>
      </trkpt>
      <trkpt lat="46.525356" lon="11.213681">
        <ele>491.847</ele>
        <time>2022-07-08T13:47:13Z</time>
      </trkpt>
      <trkpt lat="46.525430" lon="11.213626">
        <ele>492.869</ele>
        <time>2022-07-08T13:47:19Z</time>
      </trkpt>
      <trkpt lat="46.525543" lon="11.213485">
        <ele>494.755</ele>
        <time>2022-07-08T13:47:32Z</time>
      </trkpt>
      <trkpt lat="46.525593" lon="11.213449">
        <ele>495.239</ele>
        <time>2022-07-08T13:47:36Z</time>
      </trkpt>
      <trkpt lat="46.525780" lon="11.213390">
        <ele>497.630</ele>
        <time>2022-07-08T13:47:52Z</time>
      </trkpt>
      <trkpt lat="46.525846" lon="11.213380">
        <ele>498.578</ele>
        <time>2022-07-08T13:47:58Z</time>
      </trkpt>
      <trkpt lat="46.526046" lon="11.213253">
        <ele>500.972</ele>
        <time>2022-07-08T13:48:16Z</time>
      </trkpt>
      <trkpt lat="46.526122" lon="11.213217">
        <ele>502.458</ele>
        <time>2022-07-08T13:48:23Z</time>
      </trkpt>
      <trkpt lat="46.526207" lon="11.213057">
        <ele>504.852</ele>
        <time>2022-07-08T13:48:36Z</time>
      </trkpt>
      <trkpt lat="46.526411" lon="11.212795">
        <ele>506.217</ele>
        <time>2022-07-08T13:48:52Z</time>
      </trkpt>
      <trkpt lat="46.526533" lon="11.212608">
        <ele>506.709</ele>
        <time>2022-07-08T13:49:02Z</time>
      </trkpt>
      <trkpt lat="46.526540" lon="11.212586">
        <ele>506.746</ele>
        <time>2022-07-08T13:49:03Z</time>
      </trkpt>
      <trkpt lat="46.526551" lon="11.212559">
        <ele>506.765</ele>
        <time>2022-07-08T13:49:04Z</time>
      </trkpt>
      <trkpt lat="46.526568" lon="11.212526">
        <ele>506.783</ele>
        <time>2022-07-08T13:49:05Z</time>
      </trkpt>
      <trkpt lat="46.526596" lon="11.212487">
        <ele>506.735</ele>
        <time>2022-07-08T13:49:06Z</time>
      </trkpt>
      <trkpt lat="46.526626" lon="11.212448">
        <ele>505.311</ele>
        <time>2022-07-08T13:49:07Z</time>
      </trkpt>
      <trkpt lat="46.526659" lon="11.212412">
        <ele>505.325</ele>
        <time>2022-07-08T13:49:08Z</time>
      </trkpt>
      <trkpt lat="46.526691" lon="11.212379">
        <ele>504.836</ele>
        <time>2022-07-08T13:49:09Z</time>
      </trkpt>
      <trkpt lat="46.526921" lon="11.212139">
        <ele>506.724</ele>
        <time>2022-07-08T13:49:20Z</time>
      </trkpt>
      <trkpt lat="46.527052" lon="11.211928">
        <ele>510.198</ele>
        <time>2022-07-08T13:49:34Z</time>
      </trkpt>
      <trkpt lat="46.527120" lon="11.211773">
        <ele>512.581</ele>
        <time>2022-07-08T13:49:48Z</time>
      </trkpt>
      <trkpt lat="46.527130" lon="11.211732">
        <ele>512.561</ele>
        <time>2022-07-08T13:49:51Z</time>
      </trkpt>
      <trkpt lat="46.527136" lon="11.211700">
        <ele>513.017</ele>
        <time>2022-07-08T13:49:53Z</time>
      </trkpt>
      <trkpt lat="46.527192" lon="11.211493">
        <ele>515.409</ele>
        <time>2022-07-08T13:50:09Z</time>
      </trkpt>
      <trkpt lat="46.527259" lon="11.211261">
        <ele>516.819</ele>
        <time>2022-07-08T13:50:22Z</time>
      </trkpt>
      <trkpt lat="46.527439" lon="11.210918">
        <ele>517.878</ele>
        <time>2022-07-08T13:50:37Z</time>
      </trkpt>
      <trkpt lat="46.527652" lon="11.210625">
        <ele>518.746</ele>
        <time>2022-07-08T13:50:51Z</time>
      </trkpt>
      <trkpt lat="46.527901" lon="11.210261">
        <ele>519.718</ele>
        <time>2022-07-08T13:51:07Z</time>
      </trkpt>
      <trkpt lat="46.528084" lon="11.210007">
        <ele>518.714</ele>
        <time>2022-07-08T13:51:22Z</time>
      </trkpt>
      <trkpt lat="46.528383" lon="11.209618">
        <ele>515.488</ele>
        <time>2022-07-08T13:51:38Z</time>
      </trkpt>
      <trkpt lat="46.528675" lon="11.209179">
        <ele>513.029</ele>
        <time>2022-07-08T13:51:54Z</time>
      </trkpt>
      <trkpt lat="46.528695" lon="11.208929">
        <ele>511.547</ele>
        <time>2022-07-08T13:51:59Z</time>
      </trkpt>
      <trkpt lat="46.528802" lon="11.208332">
        <ele>511.061</ele>
        <time>2022-07-08T13:52:12Z</time>
      </trkpt>
      <trkpt lat="46.528967" lon="11.207841">
        <ele>511.061</ele>
        <time>2022-07-08T13:52:25Z</time>
      </trkpt>
      <trkpt lat="46.529073" lon="11.207336">
        <ele>510.621</ele>
        <time>2022-07-08T13:52:36Z</time>
      </trkpt>
      <trkpt lat="46.529052" lon="11.207313">
        <ele>510.613</ele>
        <time>2022-07-08T13:52:37Z</time>
      </trkpt>
      <trkpt lat="46.528805" lon="11.207198">
        <ele>511.509</ele>
        <time>2022-07-08T13:52:47Z</time>
      </trkpt>
      <trkpt lat="46.528674" lon="11.206862">
        <ele>512.547</ele>
        <time>2022-07-08T13:52:58Z</time>
      </trkpt>
      <trkpt lat="46.528753" lon="11.206397">
        <ele>513.076</ele>
        <time>2022-07-08T13:53:11Z</time>
      </trkpt>
      <trkpt lat="46.528966" lon="11.206291">
        <ele>514.974</ele>
        <time>2022-07-08T13:53:22Z</time>
      </trkpt>
      <trkpt lat="46.529068" lon="11.206023">
        <ele>517.346</ele>
        <time>2022-07-08T13:53:37Z</time>
      </trkpt>
      <trkpt lat="46.529023" lon="11.205780">
        <ele>520.262</ele>
        <time>2022-07-08T13:53:51Z</time>
      </trkpt>
      <trkpt lat="46.528937" lon="11.205612">
        <ele>522.156</ele>
        <time>2022-07-08T13:54:04Z</time>
      </trkpt>
      <trkpt lat="46.528867" lon="11.205493">
        <ele>524.587</ele>
        <time>2022-07-08T13:54:13Z</time>
      </trkpt>
      <trkpt lat="46.528881" lon="11.205342">
        <ele>525.535</ele>
        <time>2022-07-08T13:54:24Z</time>
      </trkpt>
      <trkpt lat="46.529088" lon="11.205344">
        <ele>522.649</ele>
        <time>2022-07-08T13:54:31Z</time>
      </trkpt>
      <trkpt lat="46.529133" lon="11.205362">
        <ele>521.677</ele>
        <time>2022-07-08T13:54:32Z</time>
      </trkpt>
      <trkpt lat="46.529177" lon="11.205378">
        <ele>521.161</ele>
        <time>2022-07-08T13:54:33Z</time>
      </trkpt>
      <trkpt lat="46.529417" lon="11.205433">
        <ele>517.827</ele>
        <time>2022-07-08T13:54:38Z</time>
      </trkpt>
      <trkpt lat="46.529518" lon="11.205450">
        <ele>517.309</ele>
        <time>2022-07-08T13:54:40Z</time>
      </trkpt>
      <trkpt lat="46.529673" lon="11.205494">
        <ele>513.948</ele>
        <time>2022-07-08T13:54:43Z</time>
      </trkpt>
      <trkpt lat="46.529726" lon="11.205496">
        <ele>513.457</ele>
        <time>2022-07-08T13:54:44Z</time>
      </trkpt>
      <trkpt lat="46.529776" lon="11.205488">
        <ele>512.555</ele>
        <time>2022-07-08T13:54:45Z</time>
      </trkpt>
      <trkpt lat="46.529831" lon="11.205473">
        <ele>512.097</ele>
        <time>2022-07-08T13:54:46Z</time>
      </trkpt>
      <trkpt lat="46.529876" lon="11.205462">
        <ele>511.043</ele>
        <time>2022-07-08T13:54:47Z</time>
      </trkpt>
      <trkpt lat="46.529923" lon="11.205463">
        <ele>510.197</ele>
        <time>2022-07-08T13:54:48Z</time>
      </trkpt>
      <trkpt lat="46.529966" lon="11.205475">
        <ele>509.648</ele>
        <time>2022-07-08T13:54:49Z</time>
      </trkpt>
      <trkpt lat="46.530007" lon="11.205493">
        <ele>509.116</ele>
        <time>2022-07-08T13:54:50Z</time>
      </trkpt>
      <trkpt lat="46.530079" lon="11.205521">
        <ele>508.120</ele>
        <time>2022-07-08T13:54:52Z</time>
      </trkpt>
      <trkpt lat="46.530161" lon="11.205536">
        <ele>506.752</ele>
        <time>2022-07-08T13:54:55Z</time>
      </trkpt>
      <trkpt lat="46.530274" lon="11.205542">
        <ele>505.353</ele>
        <time>2022-07-08T13:55:05Z</time>
      </trkpt>
      <trkpt lat="46.530284" lon="11.205552">
        <ele>505.308</ele>
        <time>2022-07-08T13:55:31Z</time>
      </trkpt>
      <trkpt lat="46.530390" lon="11.205504">
        <ele>504.309</ele>
        <time>2022-07-08T13:55:49Z</time>
      </trkpt>
      <trkpt lat="46.530556" lon="11.205438">
        <ele>502.416</ele>
        <time>2022-07-08T13:55:56Z</time>
      </trkpt>
      <trkpt lat="46.530660" lon="11.205420">
        <ele>500.995</ele>
        <time>2022-07-08T13:56:00Z</time>
      </trkpt>
      <trkpt lat="46.530866" lon="11.205459">
        <ele>498.113</ele>
        <time>2022-07-08T13:56:13Z</time>
      </trkpt>
      <trkpt lat="46.530866" lon="11.205451">
        <ele>498.515</ele>
        <time>2022-07-08T13:56:28Z</time>
      </trkpt>
      <trkpt lat="46.530865" lon="11.205438">
        <ele>498.111</ele>
        <time>2022-07-08T13:56:50Z</time>
      </trkpt>
      <trkpt lat="46.530870" lon="11.205451">
        <ele>497.665</ele>
        <time>2022-07-08T13:57:02Z</time>
      </trkpt>
      <trkpt lat="46.531094" lon="11.205473">
        <ele>495.736</ele>
        <time>2022-07-08T13:57:11Z</time>
      </trkpt>
      <trkpt lat="46.531337" lon="11.205505">
        <ele>492.324</ele>
        <time>2022-07-08T13:57:15Z</time>
      </trkpt>
      <trkpt lat="46.531449" lon="11.205547">
        <ele>491.888</ele>
        <time>2022-07-08T13:57:17Z</time>
      </trkpt>
      <trkpt lat="46.531744" lon="11.205743">
        <ele>488.068</ele>
        <time>2022-07-08T13:57:23Z</time>
      </trkpt>
      <trkpt lat="46.531788" lon="11.205770">
        <ele>487.542</ele>
        <time>2022-07-08T13:57:24Z</time>
      </trkpt>
      <trkpt lat="46.531831" lon="11.205782">
        <ele>486.526</ele>
        <time>2022-07-08T13:57:25Z</time>
      </trkpt>
      <trkpt lat="46.531916" lon="11.205794">
        <ele>485.609</ele>
        <time>2022-07-08T13:57:27Z</time>
      </trkpt>
      <trkpt lat="46.532155" lon="11.205759">
        <ele>482.247</ele>
        <time>2022-07-08T13:57:33Z</time>
      </trkpt>
      <trkpt lat="46.532188" lon="11.205723">
        <ele>482.236</ele>
        <time>2022-07-08T13:57:34Z</time>
      </trkpt>
      <trkpt lat="46.532213" lon="11.205675">
        <ele>481.784</ele>
        <time>2022-07-08T13:57:35Z</time>
      </trkpt>
      <trkpt lat="46.532231" lon="11.205617">
        <ele>481.266</ele>
        <time>2022-07-08T13:57:36Z</time>
      </trkpt>
      <trkpt lat="46.532247" lon="11.205543">
        <ele>480.352</ele>
        <time>2022-07-08T13:57:37Z</time>
      </trkpt>
      <trkpt lat="46.532312" lon="11.205408">
        <ele>478.896</ele>
        <time>2022-07-08T13:57:40Z</time>
      </trkpt>
      <trkpt lat="46.532360" lon="11.205389">
        <ele>477.467</ele>
        <time>2022-07-08T13:57:41Z</time>
      </trkpt>
      <trkpt lat="46.532399" lon="11.205388">
        <ele>476.955</ele>
        <time>2022-07-08T13:57:42Z</time>
      </trkpt>
      <trkpt lat="46.532610" lon="11.205413">
        <ele>473.589</ele>
        <time>2022-07-08T13:57:46Z</time>
      </trkpt>
      <trkpt lat="46.532834" lon="11.205416">
        <ele>470.229</ele>
        <time>2022-07-08T13:57:50Z</time>
      </trkpt>
      <trkpt lat="46.532888" lon="11.205398">
        <ele>470.200</ele>
        <time>2022-07-08T13:57:51Z</time>
      </trkpt>
      <trkpt lat="46.533110" lon="11.205296">
        <ele>465.920</ele>
        <time>2022-07-08T13:57:55Z</time>
      </trkpt>
      <trkpt lat="46.533165" lon="11.205258">
        <ele>465.409</ele>
        <time>2022-07-08T13:57:56Z</time>
      </trkpt>
      <trkpt lat="46.533216" lon="11.205209">
        <ele>463.923</ele>
        <time>2022-07-08T13:57:57Z</time>
      </trkpt>
      <trkpt lat="46.533378" lon="11.205052">
        <ele>460.672</ele>
        <time>2022-07-08T13:58:00Z</time>
      </trkpt>
      <trkpt lat="46.533496" lon="11.204955">
        <ele>459.120</ele>
        <time>2022-07-08T13:58:02Z</time>
      </trkpt>
      <trkpt lat="46.533557" lon="11.204918">
        <ele>457.742</ele>
        <time>2022-07-08T13:58:03Z</time>
      </trkpt>
      <trkpt lat="46.533620" lon="11.204889">
        <ele>456.718</ele>
        <time>2022-07-08T13:58:04Z</time>
      </trkpt>
      <trkpt lat="46.533681" lon="11.204859">
        <ele>456.282</ele>
        <time>2022-07-08T13:58:05Z</time>
      </trkpt>
      <trkpt lat="46.533738" lon="11.204815">
        <ele>455.353</ele>
        <time>2022-07-08T13:58:06Z</time>
      </trkpt>
      <trkpt lat="46.533785" lon="11.204764">
        <ele>454.821</ele>
        <time>2022-07-08T13:58:07Z</time>
      </trkpt>
      <trkpt lat="46.533845" lon="11.204676">
        <ele>453.885</ele>
        <time>2022-07-08T13:58:08Z</time>
      </trkpt>
      <trkpt lat="46.533877" lon="11.204625">
        <ele>453.446</ele>
        <time>2022-07-08T13:58:09Z</time>
      </trkpt>
      <trkpt lat="46.533961" lon="11.204499">
        <ele>451.488</ele>
        <time>2022-07-08T13:58:11Z</time>
      </trkpt>
      <trkpt lat="46.534019" lon="11.204452">
        <ele>451.016</ele>
        <time>2022-07-08T13:58:12Z</time>
      </trkpt>
      <trkpt lat="46.534136" lon="11.204402">
        <ele>448.509</ele>
        <time>2022-07-08T13:58:14Z</time>
      </trkpt>
      <trkpt lat="46.534413" lon="11.204284">
        <ele>445.225</ele>
        <time>2022-07-08T13:58:18Z</time>
      </trkpt>
      <trkpt lat="46.534652" lon="11.204163">
        <ele>442.344</ele>
        <time>2022-07-08T13:58:21Z</time>
      </trkpt>
      <trkpt lat="46.534884" lon="11.204030">
        <ele>438.952</ele>
        <time>2022-07-08T13:58:24Z</time>
      </trkpt>
      <trkpt lat="46.535215" lon="11.203885">
        <ele>435.684</ele>
        <time>2022-07-08T13:58:28Z</time>
      </trkpt>
      <trkpt lat="46.535483" lon="11.203790">
        <ele>431.750</ele>
        <time>2022-07-08T13:58:31Z</time>
      </trkpt>
      <trkpt lat="46.535733" lon="11.203708">
        <ele>428.454</ele>
        <time>2022-07-08T13:58:34Z</time>
      </trkpt>
      <trkpt lat="46.535806" lon="11.203699">
        <ele>427.465</ele>
        <time>2022-07-08T13:58:35Z</time>
      </trkpt>
      <trkpt lat="46.535898" lon="11.203702">
        <ele>426.063</ele>
        <time>2022-07-08T13:58:36Z</time>
      </trkpt>
      <trkpt lat="46.536187" lon="11.203680">
        <ele>422.697</ele>
        <time>2022-07-08T13:58:40Z</time>
      </trkpt>
      <trkpt lat="46.536260" lon="11.203658">
        <ele>421.159</ele>
        <time>2022-07-08T13:58:41Z</time>
      </trkpt>
      <trkpt lat="46.536328" lon="11.203628">
        <ele>420.203</ele>
        <time>2022-07-08T13:58:42Z</time>
      </trkpt>
      <trkpt lat="46.536395" lon="11.203588">
        <ele>419.723</ele>
        <time>2022-07-08T13:58:43Z</time>
      </trkpt>
      <trkpt lat="46.536460" lon="11.203540">
        <ele>418.709</ele>
        <time>2022-07-08T13:58:44Z</time>
      </trkpt>
      <trkpt lat="46.536528" lon="11.203477">
        <ele>417.836</ele>
        <time>2022-07-08T13:58:45Z</time>
      </trkpt>
      <trkpt lat="46.536589" lon="11.203405">
        <ele>416.385</ele>
        <time>2022-07-08T13:58:46Z</time>
      </trkpt>
      <trkpt lat="46.536640" lon="11.203325">
        <ele>415.983</ele>
        <time>2022-07-08T13:58:47Z</time>
      </trkpt>
      <trkpt lat="46.536687" lon="11.203237">
        <ele>414.995</ele>
        <time>2022-07-08T13:58:48Z</time>
      </trkpt>
      <trkpt lat="46.536726" lon="11.203152">
        <ele>413.931</ele>
        <time>2022-07-08T13:58:49Z</time>
      </trkpt>
      <trkpt lat="46.536763" lon="11.203061">
        <ele>413.045</ele>
        <time>2022-07-08T13:58:50Z</time>
      </trkpt>
      <trkpt lat="46.536791" lon="11.202976">
        <ele>412.596</ele>
        <time>2022-07-08T13:58:51Z</time>
      </trkpt>
      <trkpt lat="46.536838" lon="11.202829">
        <ele>410.644</ele>
        <time>2022-07-08T13:58:53Z</time>
      </trkpt>
      <trkpt lat="46.536870" lon="11.202797">
        <ele>409.648</ele>
        <time>2022-07-08T13:58:54Z</time>
      </trkpt>
      <trkpt lat="46.536904" lon="11.202804">
        <ele>409.197</ele>
        <time>2022-07-08T13:58:55Z</time>
      </trkpt>
      <trkpt lat="46.536930" lon="11.202844">
        <ele>408.723</ele>
        <time>2022-07-08T13:58:56Z</time>
      </trkpt>
      <trkpt lat="46.536936" lon="11.202903">
        <ele>408.725</ele>
        <time>2022-07-08T13:58:57Z</time>
      </trkpt>
      <trkpt lat="46.536926" lon="11.202974">
        <ele>407.709</ele>
        <time>2022-07-08T13:58:58Z</time>
      </trkpt>
      <trkpt lat="46.536907" lon="11.203060">
        <ele>406.760</ele>
        <time>2022-07-08T13:58:59Z</time>
      </trkpt>
      <trkpt lat="46.536891" lon="11.203161">
        <ele>406.239</ele>
        <time>2022-07-08T13:59:00Z</time>
      </trkpt>
      <trkpt lat="46.536871" lon="11.203330">
        <ele>404.887</ele>
        <time>2022-07-08T13:59:02Z</time>
      </trkpt>
      <trkpt lat="46.536852" lon="11.203415">
        <ele>403.869</ele>
        <time>2022-07-08T13:59:03Z</time>
      </trkpt>
      <trkpt lat="46.536828" lon="11.203489">
        <ele>403.455</ele>
        <time>2022-07-08T13:59:04Z</time>
      </trkpt>
      <trkpt lat="46.536795" lon="11.203564">
        <ele>402.919</ele>
        <time>2022-07-08T13:59:05Z</time>
      </trkpt>
      <trkpt lat="46.536762" lon="11.203622">
        <ele>402.440</ele>
        <time>2022-07-08T13:59:06Z</time>
      </trkpt>
      <trkpt lat="46.536708" lon="11.203701">
        <ele>401.428</ele>
        <time>2022-07-08T13:59:07Z</time>
      </trkpt>
      <trkpt lat="46.536670" lon="11.203750">
        <ele>401.092</ele>
        <time>2022-07-08T13:59:08Z</time>
      </trkpt>
      <trkpt lat="46.536409" lon="11.204065">
        <ele>397.646</ele>
        <time>2022-07-08T13:59:13Z</time>
      </trkpt>
      <trkpt lat="46.536354" lon="11.204116">
        <ele>397.188</ele>
        <time>2022-07-08T13:59:14Z</time>
      </trkpt>
      <trkpt lat="46.536296" lon="11.204150">
        <ele>396.616</ele>
        <time>2022-07-08T13:59:15Z</time>
      </trkpt>
      <trkpt lat="46.536239" lon="11.204168">
        <ele>395.709</ele>
        <time>2022-07-08T13:59:16Z</time>
      </trkpt>
      <trkpt lat="46.536182" lon="11.204172">
        <ele>395.285</ele>
        <time>2022-07-08T13:59:17Z</time>
      </trkpt>
      <trkpt lat="46.536130" lon="11.204189">
        <ele>394.784</ele>
        <time>2022-07-08T13:59:18Z</time>
      </trkpt>
      <trkpt lat="46.536103" lon="11.204236">
        <ele>394.752</ele>
        <time>2022-07-08T13:59:19Z</time>
      </trkpt>
      <trkpt lat="46.536104" lon="11.204295">
        <ele>394.764</ele>
        <time>2022-07-08T13:59:20Z</time>
      </trkpt>
      <trkpt lat="46.536128" lon="11.204346">
        <ele>394.270</ele>
        <time>2022-07-08T13:59:21Z</time>
      </trkpt>
      <trkpt lat="46.536167" lon="11.204376">
        <ele>393.874</ele>
        <time>2022-07-08T13:59:22Z</time>
      </trkpt>
      <trkpt lat="46.536211" lon="11.204381">
        <ele>393.825</ele>
        <time>2022-07-08T13:59:23Z</time>
      </trkpt>
      <trkpt lat="46.536259" lon="11.204366">
        <ele>392.823</ele>
        <time>2022-07-08T13:59:24Z</time>
      </trkpt>
      <trkpt lat="46.536301" lon="11.204350">
        <ele>392.327</ele>
        <time>2022-07-08T13:59:25Z</time>
      </trkpt>
      <trkpt lat="46.536348" lon="11.204327">
        <ele>391.889</ele>
        <time>2022-07-08T13:59:26Z</time>
      </trkpt>
      <trkpt lat="46.536658" lon="11.204131">
        <ele>388.006</ele>
        <time>2022-07-08T13:59:32Z</time>
      </trkpt>
      <trkpt lat="46.536842" lon="11.204003">
        <ele>385.126</ele>
        <time>2022-07-08T13:59:35Z</time>
      </trkpt>
      <trkpt lat="46.537086" lon="11.203819">
        <ele>381.709</ele>
        <time>2022-07-08T13:59:39Z</time>
      </trkpt>
      <trkpt lat="46.537293" lon="11.203659">
        <ele>378.419</ele>
        <time>2022-07-08T13:59:43Z</time>
      </trkpt>
      <trkpt lat="46.537346" lon="11.203603">
        <ele>377.968</ele>
        <time>2022-07-08T13:59:44Z</time>
      </trkpt>
      <trkpt lat="46.537371" lon="11.203567">
        <ele>377.466</ele>
        <time>2022-07-08T13:59:45Z</time>
      </trkpt>
      <trkpt lat="46.537408" lon="11.203506">
        <ele>376.958</ele>
        <time>2022-07-08T13:59:46Z</time>
      </trkpt>
      <trkpt lat="46.537429" lon="11.203470">
        <ele>376.014</ele>
        <time>2022-07-08T13:59:47Z</time>
      </trkpt>
      <trkpt lat="46.537455" lon="11.203420">
        <ele>375.598</ele>
        <time>2022-07-08T13:59:48Z</time>
      </trkpt>
      <trkpt lat="46.537474" lon="11.203357">
        <ele>374.529</ele>
        <time>2022-07-08T13:59:49Z</time>
      </trkpt>
      <trkpt lat="46.537485" lon="11.203278">
        <ele>374.027</ele>
        <time>2022-07-08T13:59:50Z</time>
      </trkpt>
      <trkpt lat="46.537494" lon="11.203190">
        <ele>372.121</ele>
        <time>2022-07-08T13:59:51Z</time>
      </trkpt>
      <trkpt lat="46.537526" lon="11.202860">
        <ele>368.881</ele>
        <time>2022-07-08T13:59:55Z</time>
      </trkpt>
      <trkpt lat="46.537540" lon="11.202799">
        <ele>367.861</ele>
        <time>2022-07-08T13:59:56Z</time>
      </trkpt>
      <trkpt lat="46.537555" lon="11.202740">
        <ele>367.817</ele>
        <time>2022-07-08T13:59:57Z</time>
      </trkpt>
      <trkpt lat="46.537504" lon="11.202270">
        <ele>366.409</ele>
        <time>2022-07-08T14:00:07Z</time>
      </trkpt>
      <trkpt lat="46.537724" lon="11.201937">
        <ele>364.999</ele>
        <time>2022-07-08T14:00:17Z</time>
      </trkpt>
      <trkpt lat="46.537806" lon="11.201866">
        <ele>364.438</ele>
        <time>2022-07-08T14:00:27Z</time>
      </trkpt>
      <trkpt lat="46.537819" lon="11.201883">
        <ele>364.426</ele>
        <time>2022-07-08T14:00:29Z</time>
      </trkpt>
      <trkpt lat="46.537815" lon="11.201897">
        <ele>364.428</ele>
        <time>2022-07-08T14:00:30Z</time>
      </trkpt>
      <trkpt lat="46.537657" lon="11.202019">
        <ele>364.474</ele>
        <time>2022-07-08T14:00:43Z</time>
      </trkpt>
      <trkpt lat="46.537646" lon="11.202025">
        <ele>364.468</ele>
        <time>2022-07-08T14:00:44Z</time>
      </trkpt>
      <trkpt lat="46.537659" lon="11.202052">
        <ele>365.989</ele>
        <time>2022-07-08T14:00:48Z</time>
      </trkpt>
      <trkpt lat="46.537671" lon="11.202036">
        <ele>365.447</ele>
        <time>2022-07-08T14:01:07Z</time>
      </trkpt>
      <trkpt lat="46.537689" lon="11.202011">
        <ele>365.491</ele>
        <time>2022-07-08T14:01:15Z</time>
      </trkpt>
      <trkpt lat="46.537701" lon="11.201998">
        <ele>365.494</ele>
        <time>2022-07-08T14:01:16Z</time>
      </trkpt>
      <trkpt lat="46.537716" lon="11.201981">
        <ele>365.457</ele>
        <time>2022-07-08T14:01:17Z</time>
      </trkpt>
      <trkpt lat="46.537730" lon="11.201961">
        <ele>365.422</ele>
        <time>2022-07-08T14:01:18Z</time>
      </trkpt>
      <trkpt lat="46.537748" lon="11.201937">
        <ele>365.409</ele>
        <time>2022-07-08T14:01:19Z</time>
      </trkpt>
      <trkpt lat="46.537771" lon="11.201909">
        <ele>365.480</ele>
        <time>2022-07-08T14:01:20Z</time>
      </trkpt>
      <trkpt lat="46.537801" lon="11.201877">
        <ele>365.449</ele>
        <time>2022-07-08T14:01:21Z</time>
      </trkpt>
      <trkpt lat="46.537862" lon="11.201823">
        <ele>364.477</ele>
        <time>2022-07-08T14:01:23Z</time>
      </trkpt>
      <trkpt lat="46.537897" lon="11.201815">
        <ele>364.419</ele>
        <time>2022-07-08T14:01:24Z</time>
      </trkpt>
      <trkpt lat="46.537938" lon="11.201825">
        <ele>363.585</ele>
        <time>2022-07-08T14:01:25Z</time>
      </trkpt>
      <trkpt lat="46.537968" lon="11.201840">
        <ele>363.519</ele>
        <time>2022-07-08T14:01:26Z</time>
      </trkpt>
      <trkpt lat="46.538043" lon="11.201889">
        <ele>362.590</ele>
        <time>2022-07-08T14:01:28Z</time>
      </trkpt>
      <trkpt lat="46.538303" lon="11.202147">
        <ele>359.128</ele>
        <time>2022-07-08T14:01:35Z</time>
      </trkpt>
      <trkpt lat="46.538341" lon="11.202186">
        <ele>359.162</ele>
        <time>2022-07-08T14:01:36Z</time>
      </trkpt>
      <trkpt lat="46.538497" lon="11.202371">
        <ele>355.858</ele>
        <time>2022-07-08T14:01:40Z</time>
      </trkpt>
      <trkpt lat="46.538705" lon="11.202580">
        <ele>352.952</ele>
        <time>2022-07-08T14:01:44Z</time>
      </trkpt>
      <trkpt lat="46.538878" lon="11.202733">
        <ele>350.017</ele>
        <time>2022-07-08T14:01:47Z</time>
      </trkpt>
      <trkpt lat="46.538935" lon="11.202756">
        <ele>349.509</ele>
        <time>2022-07-08T14:01:48Z</time>
      </trkpt>
      <trkpt lat="46.538997" lon="11.202766">
        <ele>348.676</ele>
        <time>2022-07-08T14:01:49Z</time>
      </trkpt>
      <trkpt lat="46.539047" lon="11.202763">
        <ele>347.695</ele>
        <time>2022-07-08T14:01:50Z</time>
      </trkpt>
      <trkpt lat="46.539099" lon="11.202759">
        <ele>347.163</ele>
        <time>2022-07-08T14:01:51Z</time>
      </trkpt>
      <trkpt lat="46.539150" lon="11.202760">
        <ele>347.145</ele>
        <time>2022-07-08T14:01:52Z</time>
      </trkpt>
      <trkpt lat="46.539202" lon="11.202777">
        <ele>346.251</ele>
        <time>2022-07-08T14:01:53Z</time>
      </trkpt>
      <trkpt lat="46.539245" lon="11.202805">
        <ele>345.745</ele>
        <time>2022-07-08T14:01:54Z</time>
      </trkpt>
      <trkpt lat="46.539286" lon="11.202844">
        <ele>345.216</ele>
        <time>2022-07-08T14:01:55Z</time>
      </trkpt>
      <trkpt lat="46.539328" lon="11.202894">
        <ele>344.264</ele>
        <time>2022-07-08T14:01:56Z</time>
      </trkpt>
      <trkpt lat="46.539369" lon="11.202950">
        <ele>344.288</ele>
        <time>2022-07-08T14:01:57Z</time>
      </trkpt>
      <trkpt lat="46.539477" lon="11.203090">
        <ele>342.811</ele>
        <time>2022-07-08T14:02:00Z</time>
      </trkpt>
      <trkpt lat="46.539519" lon="11.203121">
        <ele>341.821</ele>
        <time>2022-07-08T14:02:01Z</time>
      </trkpt>
      <trkpt lat="46.539566" lon="11.203143">
        <ele>341.803</ele>
        <time>2022-07-08T14:02:02Z</time>
      </trkpt>
      <trkpt lat="46.539616" lon="11.203155">
        <ele>340.909</ele>
        <time>2022-07-08T14:02:03Z</time>
      </trkpt>
      <trkpt lat="46.539671" lon="11.203163">
        <ele>340.482</ele>
        <time>2022-07-08T14:02:04Z</time>
      </trkpt>
      <trkpt lat="46.540006" lon="11.203182">
        <ele>337.081</ele>
        <time>2022-07-08T14:02:09Z</time>
      </trkpt>
      <trkpt lat="46.540309" lon="11.203245">
        <ele>333.749</ele>
        <time>2022-07-08T14:02:14Z</time>
      </trkpt>
      <trkpt lat="46.540372" lon="11.203287">
        <ele>333.261</ele>
        <time>2022-07-08T14:02:15Z</time>
      </trkpt>
      <trkpt lat="46.540428" lon="11.203340">
        <ele>332.227</ele>
        <time>2022-07-08T14:02:16Z</time>
      </trkpt>
      <trkpt lat="46.540481" lon="11.203405">
        <ele>330.861</ele>
        <time>2022-07-08T14:02:17Z</time>
      </trkpt>
      <trkpt lat="46.540523" lon="11.203474">
        <ele>329.812</ele>
        <time>2022-07-08T14:02:18Z</time>
      </trkpt>
      <trkpt lat="46.540553" lon="11.203532">
        <ele>329.890</ele>
        <time>2022-07-08T14:02:19Z</time>
      </trkpt>
      <trkpt lat="46.540615" lon="11.203581">
        <ele>328.994</ele>
        <time>2022-07-08T14:02:27Z</time>
      </trkpt>
      <trkpt lat="46.540615" lon="11.203671">
        <ele>329.317</ele>
        <time>2022-07-08T14:03:07Z</time>
      </trkpt>
      <trkpt lat="46.540628" lon="11.203741">
        <ele>328.987</ele>
        <time>2022-07-08T14:03:08Z</time>
      </trkpt>
      <trkpt lat="46.540637" lon="11.203803">
        <ele>328.915</ele>
        <time>2022-07-08T14:03:09Z</time>
      </trkpt>
      <trkpt lat="46.540643" lon="11.203871">
        <ele>327.909</ele>
        <time>2022-07-08T14:03:10Z</time>
      </trkpt>
      <trkpt lat="46.540651" lon="11.203939">
        <ele>327.992</ele>
        <time>2022-07-08T14:03:11Z</time>
      </trkpt>
      <trkpt lat="46.540670" lon="11.204004">
        <ele>326.911</ele>
        <time>2022-07-08T14:03:12Z</time>
      </trkpt>
      <trkpt lat="46.540699" lon="11.204071">
        <ele>326.559</ele>
        <time>2022-07-08T14:03:13Z</time>
      </trkpt>
      <trkpt lat="46.540728" lon="11.204128">
        <ele>326.021</ele>
        <time>2022-07-08T14:03:14Z</time>
      </trkpt>
      <trkpt lat="46.540767" lon="11.204173">
        <ele>325.057</ele>
        <time>2022-07-08T14:03:15Z</time>
      </trkpt>
      <trkpt lat="46.540812" lon="11.204201">
        <ele>324.581</ele>
        <time>2022-07-08T14:03:16Z</time>
      </trkpt>
      <trkpt lat="46.540853" lon="11.204213">
        <ele>324.552</ele>
        <time>2022-07-08T14:03:17Z</time>
      </trkpt>
      <trkpt lat="46.540900" lon="11.204223">
        <ele>324.140</ele>
        <time>2022-07-08T14:03:18Z</time>
      </trkpt>
      <trkpt lat="46.541004" lon="11.204238">
        <ele>322.684</ele>
        <time>2022-07-08T14:03:20Z</time>
      </trkpt>
      <trkpt lat="46.541055" lon="11.204232">
        <ele>322.166</ele>
        <time>2022-07-08T14:03:21Z</time>
      </trkpt>
      <trkpt lat="46.541110" lon="11.204208">
        <ele>322.129</ele>
        <time>2022-07-08T14:03:22Z</time>
      </trkpt>
      <trkpt lat="46.541168" lon="11.204169">
        <ele>321.721</ele>
        <time>2022-07-08T14:03:23Z</time>
      </trkpt>
      <trkpt lat="46.541216" lon="11.204138">
        <ele>321.209</ele>
        <time>2022-07-08T14:03:24Z</time>
      </trkpt>
      <trkpt lat="46.541713" lon="11.203830">
        <ele>317.887</ele>
        <time>2022-07-08T14:03:32Z</time>
      </trkpt>
      <trkpt lat="46.541840" lon="11.203734">
        <ele>316.896</ele>
        <time>2022-07-08T14:03:34Z</time>
      </trkpt>
      <trkpt lat="46.542696" lon="11.203045">
        <ele>314.064</ele>
        <time>2022-07-08T14:03:48Z</time>
      </trkpt>
      <trkpt lat="46.542911" lon="11.202912">
        <ele>313.546</ele>
        <time>2022-07-08T14:03:52Z</time>
      </trkpt>
      <trkpt lat="46.543002" lon="11.202828">
        <ele>313.032</ele>
        <time>2022-07-08T14:03:54Z</time>
      </trkpt>
      <trkpt lat="46.543038" lon="11.202783">
        <ele>313.016</ele>
        <time>2022-07-08T14:03:55Z</time>
      </trkpt>
      <trkpt lat="46.543067" lon="11.202733">
        <ele>313.047</ele>
        <time>2022-07-08T14:03:56Z</time>
      </trkpt>
      <trkpt lat="46.543088" lon="11.202688">
        <ele>313.095</ele>
        <time>2022-07-08T14:03:57Z</time>
      </trkpt>
      <trkpt lat="46.543112" lon="11.202640">
        <ele>313.089</ele>
        <time>2022-07-08T14:03:58Z</time>
      </trkpt>
      <trkpt lat="46.543166" lon="11.202538">
        <ele>314.499</ele>
        <time>2022-07-08T14:04:01Z</time>
      </trkpt>
      <trkpt lat="46.543450" lon="11.201949">
        <ele>315.407</ele>
        <time>2022-07-08T14:04:19Z</time>
      </trkpt>
      <trkpt lat="46.543778" lon="11.201619">
        <ele>317.827</ele>
        <time>2022-07-08T14:04:35Z</time>
      </trkpt>
      <trkpt lat="46.544042" lon="11.201422">
        <ele>320.209</ele>
        <time>2022-07-08T14:04:49Z</time>
      </trkpt>
      <trkpt lat="46.544472" lon="11.201101">
        <ele>321.760</ele>
        <time>2022-07-08T14:05:09Z</time>
      </trkpt>
      <trkpt lat="46.544653" lon="11.200820">
        <ele>324.519</ele>
        <time>2022-07-08T14:05:23Z</time>
      </trkpt>
      <trkpt lat="46.544684" lon="11.200534">
        <ele>326.087</ele>
        <time>2022-07-08T14:05:33Z</time>
      </trkpt>
      <trkpt lat="46.544693" lon="11.200512">
        <ele>326.089</ele>
        <time>2022-07-08T14:05:34Z</time>
      </trkpt>
      <trkpt lat="46.544700" lon="11.200487">
        <ele>326.065</ele>
        <time>2022-07-08T14:05:35Z</time>
      </trkpt>
      <trkpt lat="46.544751" lon="11.200404">
        <ele>326.029</ele>
        <time>2022-07-08T14:05:40Z</time>
      </trkpt>
      <trkpt lat="46.544770" lon="11.200414">
        <ele>326.580</ele>
        <time>2022-07-08T14:05:41Z</time>
      </trkpt>
      <trkpt lat="46.544916" lon="11.200689">
        <ele>326.568</ele>
        <time>2022-07-08T14:05:51Z</time>
      </trkpt>
      <trkpt lat="46.544941" lon="11.200698">
        <ele>326.542</ele>
        <time>2022-07-08T14:05:52Z</time>
      </trkpt>
      <trkpt lat="46.544966" lon="11.200699">
        <ele>326.553</ele>
        <time>2022-07-08T14:05:53Z</time>
      </trkpt>
      <trkpt lat="46.544992" lon="11.200689">
        <ele>326.504</ele>
        <time>2022-07-08T14:05:54Z</time>
      </trkpt>
      <trkpt lat="46.545019" lon="11.200675">
        <ele>326.514</ele>
        <time>2022-07-08T14:05:55Z</time>
      </trkpt>
      <trkpt lat="46.545076" lon="11.200629">
        <ele>327.409</ele>
        <time>2022-07-08T14:06:41Z</time>
      </trkpt>
      <trkpt lat="46.545071" lon="11.200649">
        <ele>326.976</ele>
        <time>2022-07-08T14:06:42Z</time>
      </trkpt>
      <trkpt lat="46.545077" lon="11.200678">
        <ele>326.935</ele>
        <time>2022-07-08T14:06:43Z</time>
      </trkpt>
      <trkpt lat="46.545088" lon="11.200700">
        <ele>326.943</ele>
        <time>2022-07-08T14:06:44Z</time>
      </trkpt>
      <trkpt lat="46.545103" lon="11.200731">
        <ele>326.985</ele>
        <time>2022-07-08T14:06:45Z</time>
      </trkpt>
      <trkpt lat="46.545115" lon="11.200764">
        <ele>326.941</ele>
        <time>2022-07-08T14:06:46Z</time>
      </trkpt>
      <trkpt lat="46.545121" lon="11.200798">
        <ele>326.955</ele>
        <time>2022-07-08T14:06:47Z</time>
      </trkpt>
      <trkpt lat="46.545276" lon="11.201169">
        <ele>324.196</ele>
        <time>2022-07-08T14:06:57Z</time>
      </trkpt>
      <trkpt lat="46.545384" lon="11.201309">
        <ele>322.144</ele>
        <time>2022-07-08T14:07:01Z</time>
      </trkpt>
      <trkpt lat="46.545605" lon="11.201438">
        <ele>318.898</ele>
        <time>2022-07-08T14:07:08Z</time>
      </trkpt>
      <trkpt lat="46.545641" lon="11.201449">
        <ele>318.379</ele>
        <time>2022-07-08T14:07:09Z</time>
      </trkpt>
      <trkpt lat="46.546036" lon="11.201508">
        <ele>314.905</ele>
        <time>2022-07-08T14:07:17Z</time>
      </trkpt>
      <trkpt lat="46.546127" lon="11.201507">
        <ele>314.025</ele>
        <time>2022-07-08T14:07:19Z</time>
      </trkpt>
      <trkpt lat="46.546590" lon="11.201569">
        <ele>311.109</ele>
        <time>2022-07-08T14:07:32Z</time>
      </trkpt>
      <trkpt lat="46.546659" lon="11.201958">
        <ele>308.218</ele>
        <time>2022-07-08T14:07:40Z</time>
      </trkpt>
      <trkpt lat="46.546642" lon="11.202214">
        <ele>306.887</ele>
        <time>2022-07-08T14:07:45Z</time>
      </trkpt>
      <trkpt lat="46.546649" lon="11.202260">
        <ele>305.845</ele>
        <time>2022-07-08T14:07:46Z</time>
      </trkpt>
      <trkpt lat="46.546672" lon="11.202294">
        <ele>305.827</ele>
        <time>2022-07-08T14:07:47Z</time>
      </trkpt>
      <trkpt lat="46.546703" lon="11.202317">
        <ele>305.363</ele>
        <time>2022-07-08T14:07:48Z</time>
      </trkpt>
      <trkpt lat="46.546738" lon="11.202338">
        <ele>305.387</ele>
        <time>2022-07-08T14:07:49Z</time>
      </trkpt>
      <trkpt lat="46.546779" lon="11.202357">
        <ele>304.348</ele>
        <time>2022-07-08T14:07:50Z</time>
      </trkpt>
      <trkpt lat="46.546826" lon="11.202377">
        <ele>304.356</ele>
        <time>2022-07-08T14:07:51Z</time>
      </trkpt>
      <trkpt lat="46.547119" lon="11.202477">
        <ele>302.930</ele>
        <time>2022-07-08T14:07:57Z</time>
      </trkpt>
      <trkpt lat="46.547162" lon="11.202503">
        <ele>302.993</ele>
        <time>2022-07-08T14:07:58Z</time>
      </trkpt>
      <trkpt lat="46.547374" lon="11.202652">
        <ele>301.565</ele>
        <time>2022-07-08T14:08:03Z</time>
      </trkpt>
      <trkpt lat="46.547652" lon="11.202841">
        <ele>300.521</ele>
        <time>2022-07-08T14:08:09Z</time>
      </trkpt>
      <trkpt lat="46.547751" lon="11.202898">
        <ele>299.509</ele>
        <time>2022-07-08T14:08:11Z</time>
      </trkpt>
      <trkpt lat="46.547806" lon="11.202920">
        <ele>299.140</ele>
        <time>2022-07-08T14:08:12Z</time>
      </trkpt>
      <trkpt lat="46.548135" lon="11.203026">
        <ele>298.149</ele>
        <time>2022-07-08T14:08:18Z</time>
      </trkpt>
      <trkpt lat="46.548775" lon="11.203087">
        <ele>295.747</ele>
        <time>2022-07-08T14:08:30Z</time>
      </trkpt>
      <trkpt lat="46.548812" lon="11.203112">
        <ele>295.299</ele>
        <time>2022-07-08T14:08:31Z</time>
      </trkpt>
      <trkpt lat="46.548833" lon="11.203158">
        <ele>295.265</ele>
        <time>2022-07-08T14:08:32Z</time>
      </trkpt>
      <trkpt lat="46.548835" lon="11.203213">
        <ele>295.239</ele>
        <time>2022-07-08T14:08:33Z</time>
      </trkpt>
      <trkpt lat="46.548830" lon="11.203248">
        <ele>295.240</ele>
        <time>2022-07-08T14:08:34Z</time>
      </trkpt>
      <trkpt lat="46.548822" lon="11.203291">
        <ele>295.278</ele>
        <time>2022-07-08T14:08:35Z</time>
      </trkpt>
      <trkpt lat="46.548787" lon="11.203451">
        <ele>295.272</ele>
        <time>2022-07-08T14:08:39Z</time>
      </trkpt>
      <trkpt lat="46.548791" lon="11.203478">
        <ele>295.261</ele>
        <time>2022-07-08T14:08:40Z</time>
      </trkpt>
      <trkpt lat="46.548806" lon="11.203503">
        <ele>295.221</ele>
        <time>2022-07-08T14:08:41Z</time>
      </trkpt>
      <trkpt lat="46.548838" lon="11.203522">
        <ele>294.313</ele>
        <time>2022-07-08T14:08:42Z</time>
      </trkpt>
      <trkpt lat="46.548865" lon="11.203529">
        <ele>294.309</ele>
        <time>2022-07-08T14:08:43Z</time>
      </trkpt>
      <trkpt lat="46.548905" lon="11.203534">
        <ele>293.857</ele>
        <time>2022-07-08T14:08:44Z</time>
      </trkpt>
      <trkpt lat="46.549519" lon="11.203590">
        <ele>291.956</ele>
        <time>2022-07-08T14:08:55Z</time>
      </trkpt>
      <trkpt lat="46.549871" lon="11.203603">
        <ele>289.914</ele>
        <time>2022-07-08T14:09:00Z</time>
      </trkpt>
      <trkpt lat="46.550873" lon="11.203700">
        <ele>287.036</ele>
        <time>2022-07-08T14:09:13Z</time>
      </trkpt>
      <trkpt lat="46.551943" lon="11.203934">
        <ele>283.712</ele>
        <time>2022-07-08T14:09:27Z</time>
      </trkpt>
      <trkpt lat="46.552892" lon="11.204213">
        <ele>281.336</ele>
        <time>2022-07-08T14:09:40Z</time>
      </trkpt>
      <trkpt lat="46.552956" lon="11.204213">
        <ele>280.317</ele>
        <time>2022-07-08T14:09:41Z</time>
      </trkpt>
      <trkpt lat="46.553018" lon="11.204192">
        <ele>280.325</ele>
        <time>2022-07-08T14:09:42Z</time>
      </trkpt>
      <trkpt lat="46.554072" lon="11.203857">
        <ele>277.459</ele>
        <time>2022-07-08T14:10:00Z</time>
      </trkpt>
      <trkpt lat="46.555120" lon="11.203231">
        <ele>275.098</ele>
        <time>2022-07-08T14:10:20Z</time>
      </trkpt>
      <trkpt lat="46.555174" lon="11.203183">
        <ele>275.015</ele>
        <time>2022-07-08T14:10:21Z</time>
      </trkpt>
      <trkpt lat="46.555211" lon="11.203135">
        <ele>275.026</ele>
        <time>2022-07-08T14:10:22Z</time>
      </trkpt>
      <trkpt lat="46.555243" lon="11.203064">
        <ele>274.109</ele>
        <time>2022-07-08T14:10:23Z</time>
      </trkpt>
      <trkpt lat="46.555391" lon="11.202707">
        <ele>273.670</ele>
        <time>2022-07-08T14:10:28Z</time>
      </trkpt>
      <trkpt lat="46.555431" lon="11.202639">
        <ele>273.159</ele>
        <time>2022-07-08T14:10:29Z</time>
      </trkpt>
      <trkpt lat="46.555473" lon="11.202579">
        <ele>272.687</ele>
        <time>2022-07-08T14:10:30Z</time>
      </trkpt>
      <trkpt lat="46.556145" lon="11.201786">
        <ele>271.259</ele>
        <time>2022-07-08T14:10:45Z</time>
      </trkpt>
      <trkpt lat="46.556939" lon="11.201078">
        <ele>269.385</ele>
        <time>2022-07-08T14:11:01Z</time>
      </trkpt>
      <trkpt lat="46.557186" lon="11.200875">
        <ele>270.799</ele>
        <time>2022-07-08T14:11:06Z</time>
      </trkpt>
      <trkpt lat="46.557410" lon="11.200629">
        <ele>269.310</ele>
        <time>2022-07-08T14:11:11Z</time>
      </trkpt>
      <trkpt lat="46.557628" lon="11.200389">
        <ele>269.328</ele>
        <time>2022-07-08T14:11:16Z</time>
      </trkpt>
      <trkpt lat="46.557672" lon="11.200354">
        <ele>269.362</ele>
        <time>2022-07-08T14:11:17Z</time>
      </trkpt>
      <trkpt lat="46.557720" lon="11.200324">
        <ele>269.353</ele>
        <time>2022-07-08T14:11:18Z</time>
      </trkpt>
      <trkpt lat="46.557769" lon="11.200300">
        <ele>269.304</ele>
        <time>2022-07-08T14:11:19Z</time>
      </trkpt>
      <trkpt lat="46.557820" lon="11.200281">
        <ele>269.314</ele>
        <time>2022-07-08T14:11:20Z</time>
      </trkpt>
      <trkpt lat="46.558215" lon="11.200218">
        <ele>268.809</ele>
        <time>2022-07-08T14:11:28Z</time>
      </trkpt>
      <trkpt lat="46.558251" lon="11.200203">
        <ele>268.866</ele>
        <time>2022-07-08T14:11:29Z</time>
      </trkpt>
      <trkpt lat="46.558312" lon="11.200170">
        <ele>270.265</ele>
        <time>2022-07-08T14:11:31Z</time>
      </trkpt>
      <trkpt lat="46.558396" lon="11.199986">
        <ele>268.813</ele>
        <time>2022-07-08T14:11:37Z</time>
      </trkpt>
      <trkpt lat="46.558381" lon="11.199959">
        <ele>268.815</ele>
        <time>2022-07-08T14:11:38Z</time>
      </trkpt>
      <trkpt lat="46.558345" lon="11.199917">
        <ele>268.341</ele>
        <time>2022-07-08T14:11:39Z</time>
      </trkpt>
      <trkpt lat="46.558315" lon="11.199898">
        <ele>268.365</ele>
        <time>2022-07-08T14:11:40Z</time>
      </trkpt>
      <trkpt lat="46.558269" lon="11.199866">
        <ele>268.326</ele>
        <time>2022-07-08T14:11:41Z</time>
      </trkpt>
      <trkpt lat="46.558241" lon="11.199839">
        <ele>268.334</ele>
        <time>2022-07-08T14:11:42Z</time>
      </trkpt>
      <trkpt lat="46.558079" lon="11.199670">
        <ele>268.328</ele>
        <time>2022-07-08T14:11:47Z</time>
      </trkpt>
      <trkpt lat="46.557604" lon="11.199371">
        <ele>267.868</ele>
        <time>2022-07-08T14:12:00Z</time>
      </trkpt>
      <trkpt lat="46.557041" lon="11.198957">
        <ele>267.842</ele>
        <time>2022-07-08T14:12:15Z</time>
      </trkpt>
      <trkpt lat="46.556425" lon="11.198553">
        <ele>269.726</ele>
        <time>2022-07-08T14:12:32Z</time>
      </trkpt>
      <trkpt lat="46.556305" lon="11.198389">
        <ele>269.709</ele>
        <time>2022-07-08T14:12:36Z</time>
      </trkpt>
      <trkpt lat="46.556066" lon="11.198133">
        <ele>269.777</ele>
        <time>2022-07-08T14:12:44Z</time>
      </trkpt>
      <trkpt lat="46.556058" lon="11.198083">
        <ele>269.746</ele>
        <time>2022-07-08T14:12:45Z</time>
      </trkpt>
      <trkpt lat="46.556065" lon="11.198036">
        <ele>269.784</ele>
        <time>2022-07-08T14:12:46Z</time>
      </trkpt>
      <trkpt lat="46.556090" lon="11.198002">
        <ele>269.736</ele>
        <time>2022-07-08T14:12:47Z</time>
      </trkpt>
      <trkpt lat="46.556121" lon="11.197986">
        <ele>269.762</ele>
        <time>2022-07-08T14:12:48Z</time>
      </trkpt>
      <trkpt lat="46.556157" lon="11.197968">
        <ele>269.746</ele>
        <time>2022-07-08T14:12:49Z</time>
      </trkpt>
      <trkpt lat="46.556232" lon="11.197926">
        <ele>269.797</ele>
        <time>2022-07-08T14:12:51Z</time>
      </trkpt>
      <trkpt lat="46.556348" lon="11.197843">
        <ele>269.745</ele>
        <time>2022-07-08T14:12:54Z</time>
      </trkpt>
      <trkpt lat="46.556382" lon="11.197817">
        <ele>269.739</ele>
        <time>2022-07-08T14:12:55Z</time>
      </trkpt>
      <trkpt lat="46.557054" lon="11.197394">
        <ele>269.734</ele>
        <time>2022-07-08T14:13:12Z</time>
      </trkpt>
      <trkpt lat="46.557220" lon="11.197257">
        <ele>269.755</ele>
        <time>2022-07-08T14:13:16Z</time>
      </trkpt>
      <trkpt lat="46.557417" lon="11.197111">
        <ele>269.710</ele>
        <time>2022-07-08T14:13:21Z</time>
      </trkpt>
      <trkpt lat="46.557765" lon="11.196854">
        <ele>267.809</ele>
        <time>2022-07-08T14:13:30Z</time>
      </trkpt>
      <trkpt lat="46.558113" lon="11.196620">
        <ele>267.394</ele>
        <time>2022-07-08T14:13:38Z</time>
      </trkpt>
      <trkpt lat="46.558156" lon="11.196585">
        <ele>267.393</ele>
        <time>2022-07-08T14:13:39Z</time>
      </trkpt>
      <trkpt lat="46.558193" lon="11.196560">
        <ele>267.361</ele>
        <time>2022-07-08T14:13:40Z</time>
      </trkpt>
      <trkpt lat="46.558236" lon="11.196541">
        <ele>267.353</ele>
        <time>2022-07-08T14:13:41Z</time>
      </trkpt>
      <trkpt lat="46.558280" lon="11.196524">
        <ele>267.359</ele>
        <time>2022-07-08T14:13:42Z</time>
      </trkpt>
      <trkpt lat="46.558939" lon="11.196277">
        <ele>267.363</ele>
        <time>2022-07-08T14:13:57Z</time>
      </trkpt>
      <trkpt lat="46.559522" lon="11.195981">
        <ele>267.344</ele>
        <time>2022-07-08T14:14:11Z</time>
      </trkpt>
      <trkpt lat="46.560213" lon="11.195699">
        <ele>266.972</ele>
        <time>2022-07-08T14:14:28Z</time>
      </trkpt>
      <trkpt lat="46.560367" lon="11.195612">
        <ele>266.986</ele>
        <time>2022-07-08T14:14:32Z</time>
      </trkpt>
      <trkpt lat="46.560403" lon="11.195581">
        <ele>266.949</ele>
        <time>2022-07-08T14:14:33Z</time>
      </trkpt>
      <trkpt lat="46.560437" lon="11.195550">
        <ele>266.902</ele>
        <time>2022-07-08T14:14:34Z</time>
      </trkpt>
      <trkpt lat="46.561003" lon="11.195109">
        <ele>266.422</ele>
        <time>2022-07-08T14:14:50Z</time>
      </trkpt>
      <trkpt lat="46.561265" lon="11.194875">
        <ele>267.809</ele>
        <time>2022-07-08T14:14:58Z</time>
      </trkpt>
      <trkpt lat="46.561310" lon="11.194863">
        <ele>267.885</ele>
        <time>2022-07-08T14:14:59Z</time>
      </trkpt>
      <trkpt lat="46.561360" lon="11.194856">
        <ele>267.844</ele>
        <time>2022-07-08T14:15:00Z</time>
      </trkpt>
      <trkpt lat="46.561408" lon="11.194857">
        <ele>267.862</ele>
        <time>2022-07-08T14:15:01Z</time>
      </trkpt>
      <trkpt lat="46.561456" lon="11.194872">
        <ele>266.474</ele>
        <time>2022-07-08T14:15:02Z</time>
      </trkpt>
      <trkpt lat="46.561501" lon="11.194902">
        <ele>266.460</ele>
        <time>2022-07-08T14:15:03Z</time>
      </trkpt>
      <trkpt lat="46.561543" lon="11.194940">
        <ele>265.944</ele>
        <time>2022-07-08T14:15:04Z</time>
      </trkpt>
      <trkpt lat="46.561578" lon="11.194978">
        <ele>265.965</ele>
        <time>2022-07-08T14:15:05Z</time>
      </trkpt>
      <trkpt lat="46.561710" lon="11.195087">
        <ele>265.983</ele>
        <time>2022-07-08T14:15:10Z</time>
      </trkpt>
      <trkpt lat="46.561685" lon="11.195034">
        <ele>265.927</ele>
        <time>2022-07-08T14:15:20Z</time>
      </trkpt>
      <trkpt lat="46.561670" lon="11.195061">
        <ele>265.993</ele>
        <time>2022-07-08T14:15:33Z</time>
      </trkpt>
      <trkpt lat="46.561680" lon="11.195070">
        <ele>265.965</ele>
        <time>2022-07-08T14:15:34Z</time>
      </trkpt>
      <trkpt lat="46.561693" lon="11.195076">
        <ele>265.921</ele>
        <time>2022-07-08T14:15:35Z</time>
      </trkpt>
      <trkpt lat="46.561707" lon="11.195079">
        <ele>265.909</ele>
        <time>2022-07-08T14:15:36Z</time>
      </trkpt>
      <trkpt lat="46.561724" lon="11.195081">
        <ele>265.940</ele>
        <time>2022-07-08T14:15:37Z</time>
      </trkpt>
      <trkpt lat="46.561746" lon="11.195080">
        <ele>265.919</ele>
        <time>2022-07-08T14:15:38Z</time>
      </trkpt>
      <trkpt lat="46.561773" lon="11.195079">
        <ele>265.927</ele>
        <time>2022-07-08T14:15:39Z</time>
      </trkpt>
      <trkpt lat="46.562268" lon="11.195087">
        <ele>265.499</ele>
        <time>2022-07-08T14:15:52Z</time>
      </trkpt>
      <trkpt lat="46.562592" lon="11.195090">
        <ele>265.475</ele>
        <time>2022-07-08T14:16:01Z</time>
      </trkpt>
      <trkpt lat="46.562611" lon="11.195064">
        <ele>265.489</ele>
        <time>2022-07-08T14:16:02Z</time>
      </trkpt>
      <trkpt lat="46.562748" lon="11.194770">
        <ele>266.480</ele>
        <time>2022-07-08T14:16:09Z</time>
      </trkpt>
      <trkpt lat="46.563152" lon="11.193642">
        <ele>266.468</ele>
        <time>2022-07-08T14:16:29Z</time>
      </trkpt>
      <trkpt lat="46.563253" lon="11.193001">
        <ele>264.912</ele>
        <time>2022-07-08T14:16:39Z</time>
      </trkpt>
      <trkpt lat="46.563283" lon="11.192788">
        <ele>264.561</ele>
        <time>2022-07-08T14:16:42Z</time>
      </trkpt>
      <trkpt lat="46.563299" lon="11.192726">
        <ele>264.521</ele>
        <time>2022-07-08T14:16:43Z</time>
      </trkpt>
      <trkpt lat="46.563442" lon="11.192407">
        <ele>264.513</ele>
        <time>2022-07-08T14:16:49Z</time>
      </trkpt>
      <trkpt lat="46.563460" lon="11.192352">
        <ele>264.509</ele>
        <time>2022-07-08T14:16:50Z</time>
      </trkpt>
      <trkpt lat="46.563473" lon="11.192299">
        <ele>264.527</ele>
        <time>2022-07-08T14:16:51Z</time>
      </trkpt>
      <trkpt lat="46.563492" lon="11.192250">
        <ele>264.566</ele>
        <time>2022-07-08T14:16:52Z</time>
      </trkpt>
      <trkpt lat="46.563520" lon="11.192207">
        <ele>264.514</ele>
        <time>2022-07-08T14:16:53Z</time>
      </trkpt>
      <trkpt lat="46.563550" lon="11.192165">
        <ele>264.556</ele>
        <time>2022-07-08T14:16:54Z</time>
      </trkpt>
      <trkpt lat="46.564090" lon="11.191323">
        <ele>264.532</ele>
        <time>2022-07-08T14:17:12Z</time>
      </trkpt>
      <trkpt lat="46.564602" lon="11.190549">
        <ele>265.456</ele>
        <time>2022-07-08T14:17:29Z</time>
      </trkpt>
      <trkpt lat="46.564628" lon="11.190509">
        <ele>265.447</ele>
        <time>2022-07-08T14:17:30Z</time>
      </trkpt>
      <trkpt lat="46.565111" lon="11.189794">
        <ele>265.475</ele>
        <time>2022-07-08T14:17:49Z</time>
      </trkpt>
      <trkpt lat="46.565553" lon="11.189424">
        <ele>264.049</ele>
        <time>2022-07-08T14:18:04Z</time>
      </trkpt>
      <trkpt lat="46.566123" lon="11.189066">
        <ele>264.097</ele>
        <time>2022-07-08T14:18:21Z</time>
      </trkpt>
      <trkpt lat="46.566789" lon="11.188644">
        <ele>264.023</ele>
        <time>2022-07-08T14:18:41Z</time>
      </trkpt>
      <trkpt lat="46.567366" lon="11.188326">
        <ele>264.925</ele>
        <time>2022-07-08T14:18:58Z</time>
      </trkpt>
      <trkpt lat="46.568011" lon="11.187985">
        <ele>264.909</ele>
        <time>2022-07-08T14:19:17Z</time>
      </trkpt>
      <trkpt lat="46.568545" lon="11.187444">
        <ele>264.920</ele>
        <time>2022-07-08T14:19:35Z</time>
      </trkpt>
      <trkpt lat="46.568876" lon="11.186763">
        <ele>264.989</ele>
        <time>2022-07-08T14:19:51Z</time>
      </trkpt>
      <trkpt lat="46.569219" lon="11.186118">
        <ele>264.937</ele>
        <time>2022-07-08T14:20:08Z</time>
      </trkpt>
      <trkpt lat="46.569594" lon="11.185781">
        <ele>264.599</ele>
        <time>2022-07-08T14:20:21Z</time>
      </trkpt>
      <trkpt lat="46.569846" lon="11.185184">
        <ele>264.595</ele>
        <time>2022-07-08T14:20:35Z</time>
      </trkpt>
      <trkpt lat="46.569708" lon="11.184783">
        <ele>265.459</ele>
        <time>2022-07-08T14:20:46Z</time>
      </trkpt>
      <trkpt lat="46.569713" lon="11.184606">
        <ele>265.470</ele>
        <time>2022-07-08T14:20:50Z</time>
      </trkpt>
      <trkpt lat="46.569745" lon="11.184538">
        <ele>265.498</ele>
        <time>2022-07-08T14:20:52Z</time>
      </trkpt>
      <trkpt lat="46.569763" lon="11.184502">
        <ele>265.472</ele>
        <time>2022-07-08T14:20:53Z</time>
      </trkpt>
      <trkpt lat="46.569782" lon="11.184467">
        <ele>265.451</ele>
        <time>2022-07-08T14:20:54Z</time>
      </trkpt>
      <trkpt lat="46.570144" lon="11.183845">
        <ele>266.401</ele>
        <time>2022-07-08T14:21:10Z</time>
      </trkpt>
      <trkpt lat="46.570696" lon="11.183217">
        <ele>266.411</ele>
        <time>2022-07-08T14:21:29Z</time>
      </trkpt>
      <trkpt lat="46.570953" lon="11.182750">
        <ele>267.809</ele>
        <time>2022-07-08T14:21:40Z</time>
      </trkpt>
      <trkpt lat="46.571537" lon="11.182123">
        <ele>267.816</ele>
        <time>2022-07-08T14:21:58Z</time>
      </trkpt>
      <trkpt lat="46.572118" lon="11.181661">
        <ele>267.895</ele>
        <time>2022-07-08T14:22:14Z</time>
      </trkpt>
      <trkpt lat="46.572645" lon="11.181204">
        <ele>267.893</ele>
        <time>2022-07-08T14:22:29Z</time>
      </trkpt>
      <trkpt lat="46.572685" lon="11.181202">
        <ele>267.815</ele>
        <time>2022-07-08T14:22:30Z</time>
      </trkpt>
      <trkpt lat="46.572723" lon="11.181211">
        <ele>267.841</ele>
        <time>2022-07-08T14:22:31Z</time>
      </trkpt>
      <trkpt lat="46.572763" lon="11.181236">
        <ele>267.835</ele>
        <time>2022-07-08T14:22:32Z</time>
      </trkpt>
      <trkpt lat="46.572793" lon="11.181267">
        <ele>267.876</ele>
        <time>2022-07-08T14:22:33Z</time>
      </trkpt>
      <trkpt lat="46.572828" lon="11.181321">
        <ele>267.844</ele>
        <time>2022-07-08T14:22:34Z</time>
      </trkpt>
      <trkpt lat="46.572845" lon="11.181365">
        <ele>267.878</ele>
        <time>2022-07-08T14:22:35Z</time>
      </trkpt>
      <trkpt lat="46.572868" lon="11.181435">
        <ele>267.879</ele>
        <time>2022-07-08T14:22:36Z</time>
      </trkpt>
      <trkpt lat="46.572887" lon="11.181497">
        <ele>267.805</ele>
        <time>2022-07-08T14:22:37Z</time>
      </trkpt>
      <trkpt lat="46.573089" lon="11.182401">
        <ele>265.925</ele>
        <time>2022-07-08T14:22:52Z</time>
      </trkpt>
      <trkpt lat="46.573307" lon="11.183651">
        <ele>265.909</ele>
        <time>2022-07-08T14:23:11Z</time>
      </trkpt>
      <trkpt lat="46.573511" lon="11.184799">
        <ele>265.998</ele>
        <time>2022-07-08T14:23:28Z</time>
      </trkpt>
      <trkpt lat="46.573753" lon="11.186311">
        <ele>265.937</ele>
        <time>2022-07-08T14:23:50Z</time>
      </trkpt>
      <trkpt lat="46.573980" lon="11.187641">
        <ele>266.965</ele>
        <time>2022-07-08T14:24:10Z</time>
      </trkpt>
      <trkpt lat="46.574164" lon="11.188707">
        <ele>266.977</ele>
        <time>2022-07-08T14:24:27Z</time>
      </trkpt>
      <trkpt lat="46.574178" lon="11.188775">
        <ele>266.953</ele>
        <time>2022-07-08T14:24:28Z</time>
      </trkpt>
      <trkpt lat="46.574288" lon="11.189265">
        <ele>267.397</ele>
        <time>2022-07-08T14:24:38Z</time>
      </trkpt>
      <trkpt lat="46.574642" lon="11.190351">
        <ele>267.328</ele>
        <time>2022-07-08T14:24:56Z</time>
      </trkpt>
      <trkpt lat="46.575023" lon="11.191675">
        <ele>267.326</ele>
        <time>2022-07-08T14:25:16Z</time>
      </trkpt>
      <trkpt lat="46.575319" lon="11.193185">
        <ele>267.370</ele>
        <time>2022-07-08T14:25:38Z</time>
      </trkpt>
      <trkpt lat="46.575406" lon="11.193597">
        <ele>267.379</ele>
        <time>2022-07-08T14:25:44Z</time>
      </trkpt>
      <trkpt lat="46.575484" lon="11.193942">
        <ele>267.305</ele>
        <time>2022-07-08T14:25:49Z</time>
      </trkpt>
      <trkpt lat="46.575508" lon="11.194000">
        <ele>267.325</ele>
        <time>2022-07-08T14:25:50Z</time>
      </trkpt>
      <trkpt lat="46.575768" lon="11.194489">
        <ele>269.709</ele>
        <time>2022-07-08T14:26:03Z</time>
      </trkpt>
      <trkpt lat="46.575989" lon="11.194894">
        <ele>273.138</ele>
        <time>2022-07-08T14:26:18Z</time>
      </trkpt>
      <trkpt lat="46.576197" lon="11.195366">
        <ele>274.597</ele>
        <time>2022-07-08T14:26:36Z</time>
      </trkpt>
      <trkpt lat="46.576301" lon="11.195618">
        <ele>276.055</ele>
        <time>2022-07-08T14:26:47Z</time>
      </trkpt>
      <trkpt lat="46.576511" lon="11.196027">
        <ele>277.047</ele>
        <time>2022-07-08T14:27:02Z</time>
      </trkpt>
      <trkpt lat="46.576823" lon="11.196678">
        <ele>277.953</ele>
        <time>2022-07-08T14:27:21Z</time>
      </trkpt>
      <trkpt lat="46.576907" lon="11.196865">
        <ele>277.057</ele>
        <time>2022-07-08T14:27:25Z</time>
      </trkpt>
      <trkpt lat="46.577203" lon="11.197448">
        <ele>273.188</ele>
        <time>2022-07-08T14:27:34Z</time>
      </trkpt>
      <trkpt lat="46.577307" lon="11.197592">
        <ele>272.176</ele>
        <time>2022-07-08T14:27:36Z</time>
      </trkpt>
      <trkpt lat="46.577373" lon="11.197660">
        <ele>272.150</ele>
        <time>2022-07-08T14:27:37Z</time>
      </trkpt>
      <trkpt lat="46.577741" lon="11.197947">
        <ele>268.326</ele>
        <time>2022-07-08T14:27:42Z</time>
      </trkpt>
      <trkpt lat="46.577889" lon="11.198058">
        <ele>267.847</ele>
        <time>2022-07-08T14:27:44Z</time>
      </trkpt>
      <trkpt lat="46.578131" lon="11.198233">
        <ele>265.911</ele>
        <time>2022-07-08T14:27:47Z</time>
      </trkpt>
      <trkpt lat="46.578285" lon="11.198355">
        <ele>265.409</ele>
        <time>2022-07-08T14:27:49Z</time>
      </trkpt>
      <trkpt lat="46.578352" lon="11.198426">
        <ele>264.913</ele>
        <time>2022-07-08T14:27:50Z</time>
      </trkpt>
      <trkpt lat="46.578472" lon="11.198566">
        <ele>265.442</ele>
        <time>2022-07-08T14:27:52Z</time>
      </trkpt>
      <trkpt lat="46.578538" lon="11.198607">
        <ele>265.430</ele>
        <time>2022-07-08T14:27:53Z</time>
      </trkpt>
      <trkpt lat="46.578610" lon="11.198603">
        <ele>265.452</ele>
        <time>2022-07-08T14:27:54Z</time>
      </trkpt>
      <trkpt lat="46.578663" lon="11.198539">
        <ele>265.448</ele>
        <time>2022-07-08T14:27:55Z</time>
      </trkpt>
      <trkpt lat="46.578680" lon="11.198468">
        <ele>265.442</ele>
        <time>2022-07-08T14:27:56Z</time>
      </trkpt>
      <trkpt lat="46.578678" lon="11.198383">
        <ele>265.423</ele>
        <time>2022-07-08T14:27:57Z</time>
      </trkpt>
      <trkpt lat="46.578655" lon="11.198309">
        <ele>265.481</ele>
        <time>2022-07-08T14:27:58Z</time>
      </trkpt>
      <trkpt lat="46.578615" lon="11.198257">
        <ele>265.465</ele>
        <time>2022-07-08T14:27:59Z</time>
      </trkpt>
      <trkpt lat="46.578564" lon="11.198227">
        <ele>265.457</ele>
        <time>2022-07-08T14:28:00Z</time>
      </trkpt>
      <trkpt lat="46.578513" lon="11.198213">
        <ele>265.400</ele>
        <time>2022-07-08T14:28:01Z</time>
      </trkpt>
      <trkpt lat="46.578462" lon="11.198205">
        <ele>265.420</ele>
        <time>2022-07-08T14:28:02Z</time>
      </trkpt>
      <trkpt lat="46.578412" lon="11.198198">
        <ele>265.409</ele>
        <time>2022-07-08T14:28:03Z</time>
      </trkpt>
      <trkpt lat="46.578366" lon="11.198184">
        <ele>265.426</ele>
        <time>2022-07-08T14:28:04Z</time>
      </trkpt>
      <trkpt lat="46.578322" lon="11.198160">
        <ele>265.475</ele>
        <time>2022-07-08T14:28:05Z</time>
      </trkpt>
      <trkpt lat="46.578278" lon="11.198131">
        <ele>265.413</ele>
        <time>2022-07-08T14:28:06Z</time>
      </trkpt>
      <trkpt lat="46.578237" lon="11.198099">
        <ele>265.425</ele>
        <time>2022-07-08T14:28:07Z</time>
      </trkpt>
      <trkpt lat="46.578272" lon="11.197988">
        <ele>265.431</ele>
        <time>2022-07-08T14:29:55Z</time>
      </trkpt>
      <trkpt lat="46.578289" lon="11.197945">
        <ele>265.445</ele>
        <time>2022-07-08T14:29:56Z</time>
      </trkpt>
      <trkpt lat="46.578303" lon="11.197910">
        <ele>265.416</ele>
        <time>2022-07-08T14:29:57Z</time>
      </trkpt>
      <trkpt lat="46.578323" lon="11.197868">
        <ele>265.444</ele>
        <time>2022-07-08T14:29:58Z</time>
      </trkpt>
      <trkpt lat="46.578340" lon="11.197835">
        <ele>265.418</ele>
        <time>2022-07-08T14:29:59Z</time>
      </trkpt>
      <trkpt lat="46.578750" lon="11.197073">
        <ele>266.424</ele>
        <time>2022-07-08T14:30:18Z</time>
      </trkpt>
      <trkpt lat="46.578773" lon="11.196970">
        <ele>266.404</ele>
        <time>2022-07-08T14:30:20Z</time>
      </trkpt>
      <trkpt lat="46.578765" lon="11.196916">
        <ele>266.414</ele>
        <time>2022-07-08T14:30:21Z</time>
      </trkpt>
      <trkpt lat="46.578743" lon="11.196875">
        <ele>266.409</ele>
        <time>2022-07-08T14:30:22Z</time>
      </trkpt>
      <trkpt lat="46.578262" lon="11.196324">
        <ele>266.473</ele>
        <time>2022-07-08T14:30:38Z</time>
      </trkpt>
      <trkpt lat="46.577910" lon="11.195763">
        <ele>266.462</ele>
        <time>2022-07-08T14:30:52Z</time>
      </trkpt>
      <trkpt lat="46.578147" lon="11.195359">
        <ele>266.470</ele>
        <time>2022-07-08T14:31:02Z</time>
      </trkpt>
      <trkpt lat="46.578664" lon="11.194779">
        <ele>266.412</ele>
        <time>2022-07-08T14:31:19Z</time>
      </trkpt>
      <trkpt lat="46.578885" lon="11.194519">
        <ele>266.918</ele>
        <time>2022-07-08T14:31:26Z</time>
      </trkpt>
      <trkpt lat="46.579023" lon="11.194299">
        <ele>267.342</ele>
        <time>2022-07-08T14:31:31Z</time>
      </trkpt>
      <trkpt lat="46.579058" lon="11.194257">
        <ele>266.483</ele>
        <time>2022-07-08T14:31:32Z</time>
      </trkpt>
      <trkpt lat="46.579097" lon="11.194215">
        <ele>266.441</ele>
        <time>2022-07-08T14:31:33Z</time>
      </trkpt>
      <trkpt lat="46.579728" lon="11.193514">
        <ele>265.935</ele>
        <time>2022-07-08T14:31:51Z</time>
      </trkpt>
      <trkpt lat="46.580376" lon="11.192784">
        <ele>265.919</ele>
        <time>2022-07-08T14:32:11Z</time>
      </trkpt>
      <trkpt lat="46.581016" lon="11.192104">
        <ele>266.909</ele>
        <time>2022-07-08T14:32:30Z</time>
      </trkpt>
      <trkpt lat="46.581719" lon="11.191507">
        <ele>266.919</ele>
        <time>2022-07-08T14:32:49Z</time>
      </trkpt>
      <trkpt lat="46.582323" lon="11.191053">
        <ele>267.309</ele>
        <time>2022-07-08T14:33:06Z</time>
      </trkpt>
      <trkpt lat="46.583090" lon="11.190582">
        <ele>267.352</ele>
        <time>2022-07-08T14:33:25Z</time>
      </trkpt>
      <trkpt lat="46.583732" lon="11.190258">
        <ele>267.371</ele>
        <time>2022-07-08T14:33:41Z</time>
      </trkpt>
      <trkpt lat="46.583774" lon="11.190248">
        <ele>267.379</ele>
        <time>2022-07-08T14:33:42Z</time>
      </trkpt>
      <trkpt lat="46.583814" lon="11.190248">
        <ele>267.351</ele>
        <time>2022-07-08T14:33:43Z</time>
      </trkpt>
      <trkpt lat="46.583855" lon="11.190258">
        <ele>267.327</ele>
        <time>2022-07-08T14:33:44Z</time>
      </trkpt>
      <trkpt lat="46.583898" lon="11.190279">
        <ele>267.391</ele>
        <time>2022-07-08T14:33:45Z</time>
      </trkpt>
      <trkpt lat="46.583936" lon="11.190300">
        <ele>267.312</ele>
        <time>2022-07-08T14:33:46Z</time>
      </trkpt>
      <trkpt lat="46.584021" lon="11.190343">
        <ele>267.310</ele>
        <time>2022-07-08T14:33:48Z</time>
      </trkpt>
      <trkpt lat="46.584063" lon="11.190351">
        <ele>267.354</ele>
        <time>2022-07-08T14:33:49Z</time>
      </trkpt>
      <trkpt lat="46.584110" lon="11.190346">
        <ele>267.329</ele>
        <time>2022-07-08T14:33:50Z</time>
      </trkpt>
      <trkpt lat="46.584153" lon="11.190332">
        <ele>267.300</ele>
        <time>2022-07-08T14:33:51Z</time>
      </trkpt>
      <trkpt lat="46.584196" lon="11.190311">
        <ele>267.320</ele>
        <time>2022-07-08T14:33:52Z</time>
      </trkpt>
      <trkpt lat="46.584241" lon="11.190287">
        <ele>267.309</ele>
        <time>2022-07-08T14:33:53Z</time>
      </trkpt>
      <trkpt lat="46.584396" lon="11.190207">
        <ele>267.373</ele>
        <time>2022-07-08T14:33:57Z</time>
      </trkpt>
      <trkpt lat="46.584439" lon="11.190190">
        <ele>267.312</ele>
        <time>2022-07-08T14:33:58Z</time>
      </trkpt>
      <trkpt lat="46.585234" lon="11.189818">
        <ele>267.310</ele>
        <time>2022-07-08T14:34:18Z</time>
      </trkpt>
      <trkpt lat="46.585901" lon="11.189582">
        <ele>267.822</ele>
        <time>2022-07-08T14:34:34Z</time>
      </trkpt>
      <trkpt lat="46.586368" lon="11.189407">
        <ele>270.258</ele>
        <time>2022-07-08T14:34:49Z</time>
      </trkpt>
      <trkpt lat="46.586398" lon="11.189405">
        <ele>270.782</ele>
        <time>2022-07-08T14:34:51Z</time>
      </trkpt>
      <trkpt lat="46.586415" lon="11.189416">
        <ele>270.793</ele>
        <time>2022-07-08T14:34:52Z</time>
      </trkpt>
      <trkpt lat="46.586435" lon="11.189440">
        <ele>271.231</ele>
        <time>2022-07-08T14:34:53Z</time>
      </trkpt>
      <trkpt lat="46.586841" lon="11.189999">
        <ele>271.785</ele>
        <time>2022-07-08T14:35:10Z</time>
      </trkpt>
      <trkpt lat="46.587386" lon="11.190678">
        <ele>271.277</ele>
        <time>2022-07-08T14:35:29Z</time>
      </trkpt>
      <trkpt lat="46.587960" lon="11.191336">
        <ele>271.761</ele>
        <time>2022-07-08T14:35:47Z</time>
      </trkpt>
      <trkpt lat="46.588300" lon="11.191694">
        <ele>271.727</ele>
        <time>2022-07-08T14:35:57Z</time>
      </trkpt>
      <trkpt lat="46.588342" lon="11.191720">
        <ele>271.709</ele>
        <time>2022-07-08T14:35:58Z</time>
      </trkpt>
      <trkpt lat="46.588382" lon="11.191740">
        <ele>271.718</ele>
        <time>2022-07-08T14:35:59Z</time>
      </trkpt>
      <trkpt lat="46.588584" lon="11.191811">
        <ele>271.787</ele>
        <time>2022-07-08T14:36:04Z</time>
      </trkpt>
      <trkpt lat="46.588622" lon="11.191832">
        <ele>271.715</ele>
        <time>2022-07-08T14:36:05Z</time>
      </trkpt>
      <trkpt lat="46.588660" lon="11.191859">
        <ele>271.737</ele>
        <time>2022-07-08T14:36:06Z</time>
      </trkpt>
      <trkpt lat="46.588697" lon="11.191894">
        <ele>271.763</ele>
        <time>2022-07-08T14:36:07Z</time>
      </trkpt>
      <trkpt lat="46.588728" lon="11.191932">
        <ele>271.757</ele>
        <time>2022-07-08T14:36:08Z</time>
      </trkpt>
      <trkpt lat="46.588763" lon="11.191974">
        <ele>271.718</ele>
        <time>2022-07-08T14:36:09Z</time>
      </trkpt>
      <trkpt lat="46.588795" lon="11.192014">
        <ele>271.726</ele>
        <time>2022-07-08T14:36:10Z</time>
      </trkpt>
      <trkpt lat="46.588825" lon="11.192054">
        <ele>271.750</ele>
        <time>2022-07-08T14:36:11Z</time>
      </trkpt>
      <trkpt lat="46.588855" lon="11.192099">
        <ele>271.772</ele>
        <time>2022-07-08T14:36:12Z</time>
      </trkpt>
      <trkpt lat="46.588881" lon="11.192147">
        <ele>271.713</ele>
        <time>2022-07-08T14:36:13Z</time>
      </trkpt>
      <trkpt lat="46.588906" lon="11.192200">
        <ele>271.714</ele>
        <time>2022-07-08T14:36:14Z</time>
      </trkpt>
      <trkpt lat="46.588968" lon="11.192371">
        <ele>271.709</ele>
        <time>2022-07-08T14:36:17Z</time>
      </trkpt>
      <trkpt lat="46.589109" lon="11.193463">
        <ele>272.118</ele>
        <time>2022-07-08T14:36:35Z</time>
      </trkpt>
      <trkpt lat="46.589235" lon="11.194499">
        <ele>272.697</ele>
        <time>2022-07-08T14:36:53Z</time>
      </trkpt>
      <trkpt lat="46.589219" lon="11.194550">
        <ele>272.625</ele>
        <time>2022-07-08T14:36:54Z</time>
      </trkpt>
      <trkpt lat="46.589191" lon="11.194598">
        <ele>272.687</ele>
        <time>2022-07-08T14:36:55Z</time>
      </trkpt>
      <trkpt lat="46.589164" lon="11.194655">
        <ele>272.683</ele>
        <time>2022-07-08T14:36:56Z</time>
      </trkpt>
      <trkpt lat="46.589152" lon="11.194722">
        <ele>272.667</ele>
        <time>2022-07-08T14:36:57Z</time>
      </trkpt>
      <trkpt lat="46.589140" lon="11.194794">
        <ele>272.668</ele>
        <time>2022-07-08T14:36:58Z</time>
      </trkpt>
      <trkpt lat="46.589123" lon="11.194844">
        <ele>272.626</ele>
        <time>2022-07-08T14:36:59Z</time>
      </trkpt>
      <trkpt lat="46.589092" lon="11.194880">
        <ele>272.670</ele>
        <time>2022-07-08T14:37:00Z</time>
      </trkpt>
      <trkpt lat="46.589045" lon="11.194899">
        <ele>272.627</ele>
        <time>2022-07-08T14:37:01Z</time>
      </trkpt>
      <trkpt lat="46.589007" lon="11.194911">
        <ele>272.668</ele>
        <time>2022-07-08T14:37:02Z</time>
      </trkpt>
      <trkpt lat="46.588731" lon="11.195004">
        <ele>271.214</ele>
        <time>2022-07-08T14:37:08Z</time>
      </trkpt>
      <trkpt lat="46.588687" lon="11.195027">
        <ele>271.209</ele>
        <time>2022-07-08T14:37:09Z</time>
      </trkpt>
      <trkpt lat="46.588650" lon="11.195058">
        <ele>271.213</ele>
        <time>2022-07-08T14:37:10Z</time>
      </trkpt>
      <trkpt lat="46.588626" lon="11.195110">
        <ele>271.252</ele>
        <time>2022-07-08T14:37:11Z</time>
      </trkpt>
      <trkpt lat="46.588622" lon="11.195170">
        <ele>271.240</ele>
        <time>2022-07-08T14:37:12Z</time>
      </trkpt>
      <trkpt lat="46.588629" lon="11.195228">
        <ele>271.272</ele>
        <time>2022-07-08T14:37:13Z</time>
      </trkpt>
      <trkpt lat="46.588642" lon="11.195282">
        <ele>271.288</ele>
        <time>2022-07-08T14:37:14Z</time>
      </trkpt>
      <trkpt lat="46.588655" lon="11.195334">
        <ele>271.282</ele>
        <time>2022-07-08T14:37:15Z</time>
      </trkpt>
      <trkpt lat="46.588739" lon="11.195891">
        <ele>272.693</ele>
        <time>2022-07-08T14:37:25Z</time>
      </trkpt>
      <trkpt lat="46.588756" lon="11.197033">
        <ele>273.641</ele>
        <time>2022-07-08T14:37:44Z</time>
      </trkpt>
      <trkpt lat="46.588756" lon="11.198106">
        <ele>274.595</ele>
        <time>2022-07-08T14:38:02Z</time>
      </trkpt>
      <trkpt lat="46.588756" lon="11.198223">
        <ele>274.515</ele>
        <time>2022-07-08T14:38:04Z</time>
      </trkpt>
      <trkpt lat="46.588755" lon="11.198282">
        <ele>274.565</ele>
        <time>2022-07-08T14:38:05Z</time>
      </trkpt>
      <trkpt lat="46.588750" lon="11.199259">
        <ele>277.011</ele>
        <time>2022-07-08T14:38:24Z</time>
      </trkpt>
      <trkpt lat="46.588735" lon="11.199842">
        <ele>279.409</ele>
        <time>2022-07-08T14:38:39Z</time>
      </trkpt>
      <trkpt lat="46.588767" lon="11.199905">
        <ele>279.862</ele>
        <time>2022-07-08T14:38:42Z</time>
      </trkpt>
      <trkpt lat="46.588779" lon="11.199912">
        <ele>279.811</ele>
        <time>2022-07-08T14:38:43Z</time>
      </trkpt>
      <trkpt lat="46.589171" lon="11.200081">
        <ele>281.389</ele>
        <time>2022-07-08T14:38:59Z</time>
      </trkpt>
      <trkpt lat="46.589173" lon="11.200062">
        <ele>281.381</ele>
        <time>2022-07-08T14:39:11Z</time>
      </trkpt>
      <trkpt lat="46.589194" lon="11.200057">
        <ele>281.837</ele>
        <time>2022-07-08T14:39:35Z</time>
      </trkpt>
      <trkpt lat="46.589177" lon="11.200055">
        <ele>281.821</ele>
        <time>2022-07-08T14:40:02Z</time>
      </trkpt>
      <trkpt lat="46.589193" lon="11.200068">
        <ele>281.892</ele>
        <time>2022-07-08T14:40:28Z</time>
      </trkpt>
      <trkpt lat="46.589208" lon="11.200057">
        <ele>281.890</ele>
        <time>2022-07-08T14:40:29Z</time>
      </trkpt>
      <trkpt lat="46.589225" lon="11.200033">
        <ele>281.824</ele>
        <time>2022-07-08T14:40:30Z</time>
      </trkpt>
      <trkpt lat="46.589231" lon="11.200010">
        <ele>281.887</ele>
        <time>2022-07-08T14:40:31Z</time>
      </trkpt>
      <trkpt lat="46.589235" lon="11.199972">
        <ele>280.342</ele>
        <time>2022-07-08T14:40:32Z</time>
      </trkpt>
      <trkpt lat="46.589239" lon="11.199930">
        <ele>280.326</ele>
        <time>2022-07-08T14:40:33Z</time>
      </trkpt>
      <trkpt lat="46.589245" lon="11.199887">
        <ele>279.809</ele>
        <time>2022-07-08T14:40:34Z</time>
      </trkpt>
      <trkpt lat="46.589248" lon="11.199839">
        <ele>278.959</ele>
        <time>2022-07-08T14:40:35Z</time>
      </trkpt>
      <trkpt lat="46.589249" lon="11.199793">
        <ele>278.998</ele>
        <time>2022-07-08T14:40:36Z</time>
      </trkpt>
      <trkpt lat="46.589247" lon="11.199749">
        <ele>278.966</ele>
        <time>2022-07-08T14:40:37Z</time>
      </trkpt>
      <trkpt lat="46.589245" lon="11.199706">
        <ele>278.988</ele>
        <time>2022-07-08T14:40:38Z</time>
      </trkpt>
      <trkpt lat="46.589243" lon="11.199658">
        <ele>278.944</ele>
        <time>2022-07-08T14:40:39Z</time>
      </trkpt>
      <trkpt lat="46.589276" lon="11.198952">
        <ele>277.958</ele>
        <time>2022-07-08T14:40:56Z</time>
      </trkpt>
      <trkpt lat="46.589283" lon="11.198797">
        <ele>277.949</ele>
        <time>2022-07-08T14:41:14Z</time>
      </trkpt>
      <trkpt lat="46.589338" lon="11.197807">
        <ele>276.067</ele>
        <time>2022-07-08T14:41:30Z</time>
      </trkpt>
      <trkpt lat="46.589424" lon="11.196660">
        <ele>275.011</ele>
        <time>2022-07-08T14:41:47Z</time>
      </trkpt>
      <trkpt lat="46.589638" lon="11.196032">
        <ele>273.124</ele>
        <time>2022-07-08T14:41:58Z</time>
      </trkpt>
      <trkpt lat="46.589716" lon="11.195848">
        <ele>273.104</ele>
        <time>2022-07-08T14:42:01Z</time>
      </trkpt>
      <trkpt lat="46.589751" lon="11.195796">
        <ele>273.114</ele>
        <time>2022-07-08T14:42:02Z</time>
      </trkpt>
      <trkpt lat="46.589795" lon="11.195755">
        <ele>273.109</ele>
        <time>2022-07-08T14:42:03Z</time>
      </trkpt>
      <trkpt lat="46.589841" lon="11.195732">
        <ele>272.643</ele>
        <time>2022-07-08T14:42:04Z</time>
      </trkpt>
      <trkpt lat="46.589890" lon="11.195719">
        <ele>272.632</ele>
        <time>2022-07-08T14:42:05Z</time>
      </trkpt>
      <trkpt lat="46.589939" lon="11.195711">
        <ele>272.140</ele>
        <time>2022-07-08T14:42:06Z</time>
      </trkpt>
      <trkpt lat="46.590137" lon="11.195667">
        <ele>272.152</ele>
        <time>2022-07-08T14:42:10Z</time>
      </trkpt>
      <trkpt lat="46.590188" lon="11.195625">
        <ele>272.158</ele>
        <time>2022-07-08T14:42:11Z</time>
      </trkpt>
      <trkpt lat="46.590206" lon="11.195579">
        <ele>272.152</ele>
        <time>2022-07-08T14:42:12Z</time>
      </trkpt>
      <trkpt lat="46.590217" lon="11.195506">
        <ele>272.193</ele>
        <time>2022-07-08T14:42:13Z</time>
      </trkpt>
      <trkpt lat="46.590218" lon="11.195435">
        <ele>272.181</ele>
        <time>2022-07-08T14:42:14Z</time>
      </trkpt>
      <trkpt lat="46.590215" lon="11.195362">
        <ele>271.715</ele>
        <time>2022-07-08T14:42:15Z</time>
      </trkpt>
      <trkpt lat="46.590190" lon="11.194405">
        <ele>270.728</ele>
        <time>2022-07-08T14:42:28Z</time>
      </trkpt>
      <trkpt lat="46.590208" lon="11.194340">
        <ele>270.789</ele>
        <time>2022-07-08T14:42:29Z</time>
      </trkpt>
      <trkpt lat="46.590228" lon="11.194306">
        <ele>270.717</ele>
        <time>2022-07-08T14:42:30Z</time>
      </trkpt>
      <trkpt lat="46.590224" lon="11.194271">
        <ele>270.709</ele>
        <time>2022-07-08T14:42:36Z</time>
      </trkpt>
      <trkpt lat="46.590210" lon="11.194262">
        <ele>270.713</ele>
        <time>2022-07-08T14:42:37Z</time>
      </trkpt>
      <trkpt lat="46.590200" lon="11.194251">
        <ele>270.752</ele>
        <time>2022-07-08T14:42:38Z</time>
      </trkpt>
      <trkpt lat="46.590190" lon="11.194231">
        <ele>270.750</ele>
        <time>2022-07-08T14:42:39Z</time>
      </trkpt>
      <trkpt lat="46.590183" lon="11.194201">
        <ele>270.742</ele>
        <time>2022-07-08T14:42:40Z</time>
      </trkpt>
      <trkpt lat="46.590181" lon="11.194170">
        <ele>270.738</ele>
        <time>2022-07-08T14:42:41Z</time>
      </trkpt>
      <trkpt lat="46.590182" lon="11.194130">
        <ele>270.742</ele>
        <time>2022-07-08T14:42:42Z</time>
      </trkpt>
      <trkpt lat="46.590184" lon="11.194084">
        <ele>270.233</ele>
        <time>2022-07-08T14:42:43Z</time>
      </trkpt>
      <trkpt lat="46.590201" lon="11.193153">
        <ele>269.311</ele>
        <time>2022-07-08T14:42:58Z</time>
      </trkpt>
      <trkpt lat="46.590074" lon="11.191889">
        <ele>268.885</ele>
        <time>2022-07-08T14:43:17Z</time>
      </trkpt>
      <trkpt lat="46.590076" lon="11.191824">
        <ele>268.856</ele>
        <time>2022-07-08T14:43:18Z</time>
      </trkpt>
      <trkpt lat="46.590098" lon="11.191769">
        <ele>268.859</ele>
        <time>2022-07-08T14:43:19Z</time>
      </trkpt>
      <trkpt lat="46.590136" lon="11.191737">
        <ele>268.814</ele>
        <time>2022-07-08T14:43:20Z</time>
      </trkpt>
      <trkpt lat="46.590180" lon="11.191725">
        <ele>268.809</ele>
        <time>2022-07-08T14:43:21Z</time>
      </trkpt>
      <trkpt lat="46.590226" lon="11.191721">
        <ele>268.826</ele>
        <time>2022-07-08T14:43:22Z</time>
      </trkpt>
      <trkpt lat="46.591059" lon="11.191528">
        <ele>268.885</ele>
        <time>2022-07-08T14:43:41Z</time>
      </trkpt>
      <trkpt lat="46.591323" lon="11.191462">
        <ele>268.823</ele>
        <time>2022-07-08T14:43:47Z</time>
      </trkpt>
      <trkpt lat="46.591456" lon="11.191441">
        <ele>268.875</ele>
        <time>2022-07-08T14:43:50Z</time>
      </trkpt>
      <trkpt lat="46.592080" lon="11.191293">
        <ele>268.831</ele>
        <time>2022-07-08T14:44:05Z</time>
      </trkpt>
      <trkpt lat="46.592120" lon="11.191269">
        <ele>268.895</ele>
        <time>2022-07-08T14:44:06Z</time>
      </trkpt>
      <trkpt lat="46.592153" lon="11.191238">
        <ele>268.826</ele>
        <time>2022-07-08T14:44:07Z</time>
      </trkpt>
      <trkpt lat="46.592185" lon="11.191215">
        <ele>268.854</ele>
        <time>2022-07-08T14:44:08Z</time>
      </trkpt>
      <trkpt lat="46.592221" lon="11.191211">
        <ele>268.898</ele>
        <time>2022-07-08T14:44:09Z</time>
      </trkpt>
      <trkpt lat="46.592257" lon="11.191228">
        <ele>268.899</ele>
        <time>2022-07-08T14:44:10Z</time>
      </trkpt>
      <trkpt lat="46.592288" lon="11.191259">
        <ele>268.807</ele>
        <time>2022-07-08T14:44:11Z</time>
      </trkpt>
      <trkpt lat="46.592317" lon="11.191293">
        <ele>268.827</ele>
        <time>2022-07-08T14:44:12Z</time>
      </trkpt>
      <trkpt lat="46.592351" lon="11.191329">
        <ele>268.809</ele>
        <time>2022-07-08T14:44:13Z</time>
      </trkpt>
      <trkpt lat="46.593002" lon="11.192028">
        <ele>269.740</ele>
        <time>2022-07-08T14:44:32Z</time>
      </trkpt>
      <trkpt lat="46.593601" lon="11.192673">
        <ele>269.789</ele>
        <time>2022-07-08T14:44:49Z</time>
      </trkpt>
      <trkpt lat="46.594180" lon="11.193206">
        <ele>269.717</ele>
        <time>2022-07-08T14:45:04Z</time>
      </trkpt>
      <trkpt lat="46.594228" lon="11.193223">
        <ele>269.739</ele>
        <time>2022-07-08T14:45:05Z</time>
      </trkpt>
      <trkpt lat="46.594274" lon="11.193232">
        <ele>269.725</ele>
        <time>2022-07-08T14:45:06Z</time>
      </trkpt>
      <trkpt lat="46.594365" lon="11.193241">
        <ele>269.749</ele>
        <time>2022-07-08T14:45:08Z</time>
      </trkpt>
      <trkpt lat="46.594792" lon="11.193264">
        <ele>269.770</ele>
        <time>2022-07-08T14:45:17Z</time>
      </trkpt>
      <trkpt lat="46.595088" lon="11.193475">
        <ele>269.768</ele>
        <time>2022-07-08T14:45:24Z</time>
      </trkpt>
      <trkpt lat="46.595202" lon="11.193570">
        <ele>270.232</ele>
        <time>2022-07-08T14:45:27Z</time>
      </trkpt>
      <trkpt lat="46.595244" lon="11.193587">
        <ele>270.233</ele>
        <time>2022-07-08T14:45:28Z</time>
      </trkpt>
      <trkpt lat="46.595284" lon="11.193594">
        <ele>270.223</ele>
        <time>2022-07-08T14:45:29Z</time>
      </trkpt>
      <trkpt lat="46.595320" lon="11.193593">
        <ele>270.215</ele>
        <time>2022-07-08T14:45:30Z</time>
      </trkpt>
      <trkpt lat="46.595358" lon="11.193589">
        <ele>270.209</ele>
        <time>2022-07-08T14:45:31Z</time>
      </trkpt>
      <trkpt lat="46.596052" lon="11.193430">
        <ele>270.224</ele>
        <time>2022-07-08T14:45:48Z</time>
      </trkpt>
      <trkpt lat="46.596125" lon="11.192971">
        <ele>270.273</ele>
        <time>2022-07-08T14:45:57Z</time>
      </trkpt>
      <trkpt lat="46.596133" lon="11.192799">
        <ele>270.271</ele>
        <time>2022-07-08T14:46:00Z</time>
      </trkpt>
      <trkpt lat="46.596143" lon="11.192672">
        <ele>270.273</ele>
        <time>2022-07-08T14:46:02Z</time>
      </trkpt>
      <trkpt lat="46.596149" lon="11.192546">
        <ele>269.759</ele>
        <time>2022-07-08T14:46:04Z</time>
      </trkpt>
      <trkpt lat="46.596157" lon="11.192485">
        <ele>269.733</ele>
        <time>2022-07-08T14:46:05Z</time>
      </trkpt>
      <trkpt lat="46.596169" lon="11.192426">
        <ele>269.764</ele>
        <time>2022-07-08T14:46:06Z</time>
      </trkpt>
      <trkpt lat="46.596187" lon="11.192370">
        <ele>269.712</ele>
        <time>2022-07-08T14:46:07Z</time>
      </trkpt>
      <trkpt lat="46.596210" lon="11.192315">
        <ele>269.776</ele>
        <time>2022-07-08T14:46:08Z</time>
      </trkpt>
      <trkpt lat="46.596248" lon="11.192263">
        <ele>270.263</ele>
        <time>2022-07-08T14:46:09Z</time>
      </trkpt>
      <trkpt lat="46.596290" lon="11.192232">
        <ele>270.244</ele>
        <time>2022-07-08T14:46:10Z</time>
      </trkpt>
      <trkpt lat="46.596329" lon="11.192218">
        <ele>270.218</ele>
        <time>2022-07-08T14:46:11Z</time>
      </trkpt>
      <trkpt lat="46.596366" lon="11.192210">
        <ele>269.709</ele>
        <time>2022-07-08T14:46:12Z</time>
      </trkpt>
      <trkpt lat="46.596410" lon="11.192203">
        <ele>270.277</ele>
        <time>2022-07-08T14:46:13Z</time>
      </trkpt>
      <trkpt lat="46.596534" lon="11.192174">
        <ele>268.876</ele>
        <time>2022-07-08T14:46:16Z</time>
      </trkpt>
      <trkpt lat="46.597045" lon="11.191981">
        <ele>268.864</ele>
        <time>2022-07-08T14:46:28Z</time>
      </trkpt>
      <trkpt lat="46.597420" lon="11.191807">
        <ele>270.286</ele>
        <time>2022-07-08T14:46:37Z</time>
      </trkpt>
      <trkpt lat="46.598270" lon="11.191412">
        <ele>269.722</ele>
        <time>2022-07-08T14:46:57Z</time>
      </trkpt>
      <trkpt lat="46.599032" lon="11.191034">
        <ele>269.736</ele>
        <time>2022-07-08T14:47:15Z</time>
      </trkpt>
      <trkpt lat="46.599641" lon="11.190480">
        <ele>269.777</ele>
        <time>2022-07-08T14:47:33Z</time>
      </trkpt>
      <trkpt lat="46.600268" lon="11.189972">
        <ele>270.265</ele>
        <time>2022-07-08T14:47:50Z</time>
      </trkpt>
      <trkpt lat="46.600299" lon="11.189935">
        <ele>270.249</ele>
        <time>2022-07-08T14:47:51Z</time>
      </trkpt>
      <trkpt lat="46.600322" lon="11.189896">
        <ele>270.219</ele>
        <time>2022-07-08T14:47:52Z</time>
      </trkpt>
      <trkpt lat="46.600346" lon="11.189838">
        <ele>270.209</ele>
        <time>2022-07-08T14:47:53Z</time>
      </trkpt>
      <trkpt lat="46.600358" lon="11.189789">
        <ele>270.219</ele>
        <time>2022-07-08T14:47:54Z</time>
      </trkpt>
      <trkpt lat="46.600369" lon="11.189725">
        <ele>270.209</ele>
        <time>2022-07-08T14:47:55Z</time>
      </trkpt>
      <trkpt lat="46.600374" lon="11.189669">
        <ele>270.282</ele>
        <time>2022-07-08T14:47:56Z</time>
      </trkpt>
      <trkpt lat="46.600376" lon="11.189620">
        <ele>270.291</ele>
        <time>2022-07-08T14:47:57Z</time>
      </trkpt>
      <trkpt lat="46.600380" lon="11.189556">
        <ele>270.239</ele>
        <time>2022-07-08T14:47:58Z</time>
      </trkpt>
      <trkpt lat="46.600385" lon="11.189500">
        <ele>270.261</ele>
        <time>2022-07-08T14:47:59Z</time>
      </trkpt>
      <trkpt lat="46.600403" lon="11.189335">
        <ele>270.257</ele>
        <time>2022-07-08T14:48:02Z</time>
      </trkpt>
      <trkpt lat="46.600424" lon="11.189269">
        <ele>270.221</ele>
        <time>2022-07-08T14:48:03Z</time>
      </trkpt>
      <trkpt lat="46.600445" lon="11.189233">
        <ele>270.232</ele>
        <time>2022-07-08T14:48:04Z</time>
      </trkpt>
      <trkpt lat="46.600478" lon="11.189195">
        <ele>270.260</ele>
        <time>2022-07-08T14:48:05Z</time>
      </trkpt>
      <trkpt lat="46.600517" lon="11.189170">
        <ele>270.294</ele>
        <time>2022-07-08T14:48:06Z</time>
      </trkpt>
      <trkpt lat="46.600554" lon="11.189154">
        <ele>270.241</ele>
        <time>2022-07-08T14:48:07Z</time>
      </trkpt>
      <trkpt lat="46.600591" lon="11.189138">
        <ele>270.281</ele>
        <time>2022-07-08T14:48:08Z</time>
      </trkpt>
      <trkpt lat="46.601179" lon="11.188993">
        <ele>270.209</ele>
        <time>2022-07-08T14:48:23Z</time>
      </trkpt>
      <trkpt lat="46.601655" lon="11.188842">
        <ele>270.209</ele>
        <time>2022-07-08T14:48:35Z</time>
      </trkpt>
      <trkpt lat="46.601774" lon="11.188804">
        <ele>270.215</ele>
        <time>2022-07-08T14:48:38Z</time>
      </trkpt>
      <trkpt lat="46.601813" lon="11.188805">
        <ele>270.234</ele>
        <time>2022-07-08T14:48:39Z</time>
      </trkpt>
      <trkpt lat="46.601853" lon="11.188820">
        <ele>270.232</ele>
        <time>2022-07-08T14:48:40Z</time>
      </trkpt>
      <trkpt lat="46.601890" lon="11.188846">
        <ele>270.794</ele>
        <time>2022-07-08T14:48:41Z</time>
      </trkpt>
      <trkpt lat="46.601922" lon="11.188882">
        <ele>270.790</ele>
        <time>2022-07-08T14:48:42Z</time>
      </trkpt>
      <trkpt lat="46.601951" lon="11.188925">
        <ele>270.764</ele>
        <time>2022-07-08T14:48:43Z</time>
      </trkpt>
      <trkpt lat="46.601979" lon="11.188972">
        <ele>270.765</ele>
        <time>2022-07-08T14:48:44Z</time>
      </trkpt>
      <trkpt lat="46.602501" lon="11.189841">
        <ele>270.763</ele>
        <time>2022-07-08T14:49:03Z</time>
      </trkpt>
      <trkpt lat="46.602661" lon="11.190187">
        <ele>270.717</ele>
        <time>2022-07-08T14:49:10Z</time>
      </trkpt>
      <trkpt lat="46.602689" lon="11.190230">
        <ele>270.759</ele>
        <time>2022-07-08T14:49:11Z</time>
      </trkpt>
      <trkpt lat="46.602720" lon="11.190268">
        <ele>270.703</ele>
        <time>2022-07-08T14:49:12Z</time>
      </trkpt>
      <trkpt lat="46.602996" lon="11.190441">
        <ele>270.723</ele>
        <time>2022-07-08T14:49:23Z</time>
      </trkpt>
      <trkpt lat="46.603038" lon="11.190422">
        <ele>270.709</ele>
        <time>2022-07-08T14:51:21Z</time>
      </trkpt>
      <trkpt lat="46.603063" lon="11.190421">
        <ele>270.786</ele>
        <time>2022-07-08T14:51:22Z</time>
      </trkpt>
      <trkpt lat="46.603095" lon="11.190423">
        <ele>270.255</ele>
        <time>2022-07-08T14:51:23Z</time>
      </trkpt>
      <trkpt lat="46.603522" lon="11.190423">
        <ele>270.213</ele>
        <time>2022-07-08T14:51:34Z</time>
      </trkpt>
      <trkpt lat="46.603563" lon="11.190414">
        <ele>270.215</ele>
        <time>2022-07-08T14:51:35Z</time>
      </trkpt>
      <trkpt lat="46.603816" lon="11.190272">
        <ele>269.761</ele>
        <time>2022-07-08T14:51:42Z</time>
      </trkpt>
      <trkpt lat="46.604521" lon="11.190053">
        <ele>269.385</ele>
        <time>2022-07-08T14:51:59Z</time>
      </trkpt>
      <trkpt lat="46.605334" lon="11.189956">
        <ele>269.326</ele>
        <time>2022-07-08T14:52:20Z</time>
      </trkpt>
      <trkpt lat="46.605459" lon="11.189836">
        <ele>269.314</ele>
        <time>2022-07-08T14:52:24Z</time>
      </trkpt>
      <trkpt lat="46.605478" lon="11.189780">
        <ele>269.338</ele>
        <time>2022-07-08T14:52:25Z</time>
      </trkpt>
      <trkpt lat="46.605486" lon="11.189722">
        <ele>269.349</ele>
        <time>2022-07-08T14:52:26Z</time>
      </trkpt>
      <trkpt lat="46.605623" lon="11.188675">
        <ele>270.202</ele>
        <time>2022-07-08T14:52:44Z</time>
      </trkpt>
      <trkpt lat="46.605780" lon="11.187606">
        <ele>270.222</ele>
        <time>2022-07-08T14:53:02Z</time>
      </trkpt>
      <trkpt lat="46.605804" lon="11.187546">
        <ele>270.209</ele>
        <time>2022-07-08T14:53:03Z</time>
      </trkpt>
      <trkpt lat="46.605832" lon="11.187509">
        <ele>270.245</ele>
        <time>2022-07-08T14:53:04Z</time>
      </trkpt>
      <trkpt lat="46.605869" lon="11.187485">
        <ele>270.244</ele>
        <time>2022-07-08T14:53:05Z</time>
      </trkpt>
      <trkpt lat="46.605908" lon="11.187477">
        <ele>270.242</ele>
        <time>2022-07-08T14:53:06Z</time>
      </trkpt>
      <trkpt lat="46.605957" lon="11.187472">
        <ele>270.264</ele>
        <time>2022-07-08T14:53:07Z</time>
      </trkpt>
      <trkpt lat="46.606003" lon="11.187471">
        <ele>270.210</ele>
        <time>2022-07-08T14:53:08Z</time>
      </trkpt>
      <trkpt lat="46.606690" lon="11.187442">
        <ele>269.784</ele>
        <time>2022-07-08T14:53:25Z</time>
      </trkpt>
      <trkpt lat="46.606733" lon="11.187436">
        <ele>269.775</ele>
        <time>2022-07-08T14:53:26Z</time>
      </trkpt>
      <trkpt lat="46.607327" lon="11.187351">
        <ele>269.783</ele>
        <time>2022-07-08T14:53:43Z</time>
      </trkpt>
      <trkpt lat="46.607907" lon="11.187250">
        <ele>269.717</ele>
        <time>2022-07-08T14:54:00Z</time>
      </trkpt>
      <trkpt lat="46.608391" lon="11.187135">
        <ele>270.793</ele>
        <time>2022-07-08T14:54:15Z</time>
      </trkpt>
      <trkpt lat="46.608830" lon="11.186883">
        <ele>270.765</ele>
        <time>2022-07-08T14:54:31Z</time>
      </trkpt>
      <trkpt lat="46.608846" lon="11.186882">
        <ele>270.721</ele>
        <time>2022-07-08T14:54:32Z</time>
      </trkpt>
      <trkpt lat="46.608862" lon="11.186885">
        <ele>270.709</ele>
        <time>2022-07-08T14:54:33Z</time>
      </trkpt>
      <trkpt lat="46.608879" lon="11.186880">
        <ele>270.780</ele>
        <time>2022-07-08T14:54:34Z</time>
      </trkpt>
      <trkpt lat="46.608900" lon="11.186869">
        <ele>271.229</ele>
        <time>2022-07-08T14:54:35Z</time>
      </trkpt>
      <trkpt lat="46.608923" lon="11.186857">
        <ele>271.247</ele>
        <time>2022-07-08T14:54:36Z</time>
      </trkpt>
      <trkpt lat="46.608948" lon="11.186846">
        <ele>271.299</ele>
        <time>2022-07-08T14:54:37Z</time>
      </trkpt>
      <trkpt lat="46.609468" lon="11.186560">
        <ele>271.765</ele>
        <time>2022-07-08T14:54:54Z</time>
      </trkpt>
      <trkpt lat="46.609587" lon="11.186508">
        <ele>271.759</ele>
        <time>2022-07-08T14:55:05Z</time>
      </trkpt>
      <trkpt lat="46.609579" lon="11.186497">
        <ele>271.710</ele>
        <time>2022-07-08T14:55:27Z</time>
      </trkpt>
      <trkpt lat="46.609604" lon="11.186514">
        <ele>271.788</ele>
        <time>2022-07-08T14:56:02Z</time>
      </trkpt>
      <trkpt lat="46.609608" lon="11.186515">
        <ele>271.762</ele>
        <time>2022-07-08T14:56:09Z</time>
      </trkpt>
      <trkpt lat="46.609612" lon="11.186526">
        <ele>271.741</ele>
        <time>2022-07-08T14:56:10Z</time>
      </trkpt>
      <trkpt lat="46.609609" lon="11.186554">
        <ele>271.781</ele>
        <time>2022-07-08T14:56:12Z</time>
      </trkpt>
      <trkpt lat="46.609610" lon="11.186571">
        <ele>271.709</ele>
        <time>2022-07-08T14:56:13Z</time>
      </trkpt>
      <trkpt lat="46.609605" lon="11.186601">
        <ele>271.709</ele>
        <time>2022-07-08T14:56:14Z</time>
      </trkpt>
      <trkpt lat="46.609603" lon="11.186629">
        <ele>270.295</ele>
        <time>2022-07-08T14:56:15Z</time>
      </trkpt>
      <trkpt lat="46.609601" lon="11.186664">
        <ele>272.614</ele>
        <time>2022-07-08T14:56:16Z</time>
      </trkpt>
      <trkpt lat="46.609601" lon="11.186859">
        <ele>271.232</ele>
        <time>2022-07-08T14:56:20Z</time>
      </trkpt>
      <trkpt lat="46.609618" lon="11.187755">
        <ele>271.244</ele>
        <time>2022-07-08T14:56:37Z</time>
      </trkpt>
      <trkpt lat="46.609638" lon="11.188764">
        <ele>270.290</ele>
        <time>2022-07-08T14:56:53Z</time>
      </trkpt>
      <trkpt lat="46.609665" lon="11.189861">
        <ele>271.794</ele>
        <time>2022-07-08T14:57:09Z</time>
      </trkpt>
      <trkpt lat="46.609671" lon="11.190252">
        <ele>271.775</ele>
        <time>2022-07-08T14:57:15Z</time>
      </trkpt>
      <trkpt lat="46.609706" lon="11.191237">
        <ele>271.733</ele>
        <time>2022-07-08T14:57:31Z</time>
      </trkpt>
      <trkpt lat="46.609742" lon="11.191930">
        <ele>274.167</ele>
        <time>2022-07-08T14:57:48Z</time>
      </trkpt>
      <trkpt lat="46.609826" lon="11.192410">
        <ele>276.037</ele>
        <time>2022-07-08T14:58:02Z</time>
      </trkpt>
      <trkpt lat="46.609776" lon="11.192244">
        <ele>281.849</ele>
        <time>2022-07-09T06:32:15Z</time>
      </trkpt>
      <trkpt lat="46.609777" lon="11.192200">
        <ele>280.813</ele>
        <time>2022-07-09T06:32:16Z</time>
      </trkpt>
      <trkpt lat="46.609779" lon="11.192176">
        <ele>280.809</ele>
        <time>2022-07-09T06:32:17Z</time>
      </trkpt>
      <trkpt lat="46.609780" lon="11.192144">
        <ele>280.864</ele>
        <time>2022-07-09T06:32:18Z</time>
      </trkpt>
      <trkpt lat="46.609781" lon="11.192106">
        <ele>280.353</ele>
        <time>2022-07-09T06:32:19Z</time>
      </trkpt>
      <trkpt lat="46.609761" lon="11.191301">
        <ele>277.961</ele>
        <time>2022-07-09T06:32:32Z</time>
      </trkpt>
      <trkpt lat="46.609742" lon="11.189907">
        <ele>276.073</ele>
        <time>2022-07-09T06:32:49Z</time>
      </trkpt>
      <trkpt lat="46.609724" lon="11.189086">
        <ele>276.029</ele>
        <time>2022-07-09T06:33:02Z</time>
      </trkpt>
      <trkpt lat="46.609687" lon="11.187914">
        <ele>276.023</ele>
        <time>2022-07-09T06:33:22Z</time>
      </trkpt>
      <trkpt lat="46.609652" lon="11.186583">
        <ele>277.094</ele>
        <time>2022-07-09T06:33:45Z</time>
      </trkpt>
      <trkpt lat="46.609627" lon="11.185639">
        <ele>277.082</ele>
        <time>2022-07-09T06:34:01Z</time>
      </trkpt>
      <trkpt lat="46.609547" lon="11.184841">
        <ele>277.076</ele>
        <time>2022-07-09T06:34:16Z</time>
      </trkpt>
      <trkpt lat="46.609566" lon="11.183968">
        <ele>277.075</ele>
        <time>2022-07-09T06:34:32Z</time>
      </trkpt>
      <trkpt lat="46.609508" lon="11.183577">
        <ele>278.428</ele>
        <time>2022-07-09T06:34:46Z</time>
      </trkpt>
      <trkpt lat="46.609508" lon="11.183242">
        <ele>277.020</ele>
        <time>2022-07-09T06:34:51Z</time>
      </trkpt>
      <trkpt lat="46.609512" lon="11.182361">
        <ele>277.009</ele>
        <time>2022-07-09T06:35:07Z</time>
      </trkpt>
      <trkpt lat="46.609490" lon="11.181606">
        <ele>277.018</ele>
        <time>2022-07-09T06:35:22Z</time>
      </trkpt>
      <trkpt lat="46.609518" lon="11.181573">
        <ele>277.067</ele>
        <time>2022-07-09T06:35:23Z</time>
      </trkpt>
      <trkpt lat="46.609546" lon="11.181558">
        <ele>277.055</ele>
        <time>2022-07-09T06:35:24Z</time>
      </trkpt>
      <trkpt lat="46.609578" lon="11.181548">
        <ele>277.017</ele>
        <time>2022-07-09T06:35:25Z</time>
      </trkpt>
      <trkpt lat="46.609607" lon="11.181540">
        <ele>277.083</ele>
        <time>2022-07-09T06:35:26Z</time>
      </trkpt>
      <trkpt lat="46.609684" lon="11.181529">
        <ele>278.497</ele>
        <time>2022-07-09T06:35:29Z</time>
      </trkpt>
      <trkpt lat="46.609993" lon="11.181464">
        <ele>281.348</ele>
        <time>2022-07-09T06:35:45Z</time>
      </trkpt>
      <trkpt lat="46.610272" lon="11.181405">
        <ele>283.766</ele>
        <time>2022-07-09T06:36:01Z</time>
      </trkpt>
      <trkpt lat="46.610418" lon="11.181381">
        <ele>285.190</ele>
        <time>2022-07-09T06:36:10Z</time>
      </trkpt>
      <trkpt lat="46.610426" lon="11.181363">
        <ele>285.665</ele>
        <time>2022-07-09T06:36:11Z</time>
      </trkpt>
      <trkpt lat="46.610430" lon="11.181341">
        <ele>285.668</ele>
        <time>2022-07-09T06:36:12Z</time>
      </trkpt>
      <trkpt lat="46.610432" lon="11.181322">
        <ele>285.614</ele>
        <time>2022-07-09T06:36:13Z</time>
      </trkpt>
      <trkpt lat="46.610433" lon="11.181296">
        <ele>285.609</ele>
        <time>2022-07-09T06:36:14Z</time>
      </trkpt>
      <trkpt lat="46.610455" lon="11.181190">
        <ele>285.677</ele>
        <time>2022-07-09T06:36:18Z</time>
      </trkpt>
      <trkpt lat="46.610478" lon="11.181175">
        <ele>285.666</ele>
        <time>2022-07-09T06:36:19Z</time>
      </trkpt>
      <trkpt lat="46.610504" lon="11.181165">
        <ele>285.694</ele>
        <time>2022-07-09T06:36:20Z</time>
      </trkpt>
      <trkpt lat="46.610539" lon="11.181160">
        <ele>285.686</ele>
        <time>2022-07-09T06:36:21Z</time>
      </trkpt>
      <trkpt lat="46.610578" lon="11.181162">
        <ele>284.262</ele>
        <time>2022-07-09T06:36:22Z</time>
      </trkpt>
      <trkpt lat="46.610619" lon="11.181167">
        <ele>284.246</ele>
        <time>2022-07-09T06:36:23Z</time>
      </trkpt>
      <trkpt lat="46.611010" lon="11.181219">
        <ele>280.877</ele>
        <time>2022-07-09T06:36:30Z</time>
      </trkpt>
      <trkpt lat="46.611732" lon="11.181426">
        <ele>279.455</ele>
        <time>2022-07-09T06:36:41Z</time>
      </trkpt>
      <trkpt lat="46.612649" lon="11.182049">
        <ele>279.469</ele>
        <time>2022-07-09T06:37:01Z</time>
      </trkpt>
      <trkpt lat="46.613376" lon="11.182888">
        <ele>279.463</ele>
        <time>2022-07-09T06:37:22Z</time>
      </trkpt>
      <trkpt lat="46.614027" lon="11.183489">
        <ele>280.844</ele>
        <time>2022-07-09T06:37:41Z</time>
      </trkpt>
      <trkpt lat="46.614822" lon="11.184032">
        <ele>280.818</ele>
        <time>2022-07-09T06:38:03Z</time>
      </trkpt>
      <trkpt lat="46.615691" lon="11.184416">
        <ele>280.809</ele>
        <time>2022-07-09T06:38:26Z</time>
      </trkpt>
      <trkpt lat="46.616569" lon="11.184639">
        <ele>280.897</ele>
        <time>2022-07-09T06:38:49Z</time>
      </trkpt>
      <trkpt lat="46.617425" lon="11.184713">
        <ele>281.336</ele>
        <time>2022-07-09T06:39:10Z</time>
      </trkpt>
      <trkpt lat="46.618235" lon="11.184798">
        <ele>281.864</ele>
        <time>2022-07-09T06:39:30Z</time>
      </trkpt>
      <trkpt lat="46.618794" lon="11.184838">
        <ele>282.246</ele>
        <time>2022-07-09T06:39:45Z</time>
      </trkpt>
      <trkpt lat="46.619673" lon="11.184737">
        <ele>281.862</ele>
        <time>2022-07-09T06:40:07Z</time>
      </trkpt>
      <trkpt lat="46.620378" lon="11.184579">
        <ele>282.226</ele>
        <time>2022-07-09T06:40:25Z</time>
      </trkpt>
      <trkpt lat="46.621086" lon="11.184263">
        <ele>282.287</ele>
        <time>2022-07-09T06:40:44Z</time>
      </trkpt>
      <trkpt lat="46.621859" lon="11.183840">
        <ele>282.775</ele>
        <time>2022-07-09T06:41:05Z</time>
      </trkpt>
      <trkpt lat="46.622799" lon="11.183295">
        <ele>283.249</ele>
        <time>2022-07-09T06:41:30Z</time>
      </trkpt>
      <trkpt lat="46.623373" lon="11.182968">
        <ele>283.251</ele>
        <time>2022-07-09T06:41:47Z</time>
      </trkpt>
      <trkpt lat="46.623802" lon="11.182715">
        <ele>283.201</ele>
        <time>2022-07-09T06:42:01Z</time>
      </trkpt>
      <trkpt lat="46.624563" lon="11.182283">
        <ele>283.211</ele>
        <time>2022-07-09T06:42:22Z</time>
      </trkpt>
      <trkpt lat="46.625423" lon="11.181797">
        <ele>283.709</ele>
        <time>2022-07-09T06:42:45Z</time>
      </trkpt>
      <trkpt lat="46.626383" lon="11.181231">
        <ele>284.256</ele>
        <time>2022-07-09T06:43:11Z</time>
      </trkpt>
      <trkpt lat="46.627235" lon="11.180738">
        <ele>284.265</ele>
        <time>2022-07-09T06:43:34Z</time>
      </trkpt>
      <trkpt lat="46.628179" lon="11.180194">
        <ele>284.613</ele>
        <time>2022-07-09T06:43:59Z</time>
      </trkpt>
      <trkpt lat="46.629037" lon="11.179698">
        <ele>284.665</ele>
        <time>2022-07-09T06:44:22Z</time>
      </trkpt>
      <trkpt lat="46.629860" lon="11.179092">
        <ele>285.131</ele>
        <time>2022-07-09T06:44:45Z</time>
      </trkpt>
      <trkpt lat="46.630599" lon="11.178301">
        <ele>285.135</ele>
        <time>2022-07-09T06:45:08Z</time>
      </trkpt>
      <trkpt lat="46.631205" lon="11.177495">
        <ele>283.276</ele>
        <time>2022-07-09T06:45:27Z</time>
      </trkpt>
      <trkpt lat="46.631349" lon="11.177281">
        <ele>281.374</ele>
        <time>2022-07-09T06:45:31Z</time>
      </trkpt>
      <trkpt lat="46.631447" lon="11.177165">
        <ele>280.368</ele>
        <time>2022-07-09T06:45:34Z</time>
      </trkpt>
      <trkpt lat="46.631531" lon="11.177054">
        <ele>281.814</ele>
        <time>2022-07-09T06:45:38Z</time>
      </trkpt>
      <trkpt lat="46.631688" lon="11.176969">
        <ele>284.654</ele>
        <time>2022-07-09T06:45:48Z</time>
      </trkpt>
      <trkpt lat="46.631926" lon="11.176680">
        <ele>285.609</ele>
        <time>2022-07-09T06:46:02Z</time>
      </trkpt>
      <trkpt lat="46.632304" lon="11.176103">
        <ele>286.109</ele>
        <time>2022-07-09T06:46:21Z</time>
      </trkpt>
      <trkpt lat="46.632672" lon="11.175513">
        <ele>286.642</ele>
        <time>2022-07-09T06:46:39Z</time>
      </trkpt>
      <trkpt lat="46.633049" lon="11.174942">
        <ele>287.081</ele>
        <time>2022-07-09T06:46:55Z</time>
      </trkpt>
      <trkpt lat="46.633500" lon="11.174297">
        <ele>286.679</ele>
        <time>2022-07-09T06:47:13Z</time>
      </trkpt>
      <trkpt lat="46.634036" lon="11.173672">
        <ele>287.041</ele>
        <time>2022-07-09T06:47:32Z</time>
      </trkpt>
      <trkpt lat="46.634540" lon="11.173223">
        <ele>288.037</ele>
        <time>2022-07-09T06:47:49Z</time>
      </trkpt>
      <trkpt lat="46.635028" lon="11.172956">
        <ele>287.511</ele>
        <time>2022-07-09T06:48:04Z</time>
      </trkpt>
      <trkpt lat="46.635063" lon="11.172988">
        <ele>287.522</ele>
        <time>2022-07-09T06:48:05Z</time>
      </trkpt>
      <trkpt lat="46.635091" lon="11.173029">
        <ele>287.560</ele>
        <time>2022-07-09T06:48:06Z</time>
      </trkpt>
      <trkpt lat="46.635119" lon="11.173071">
        <ele>287.574</ele>
        <time>2022-07-09T06:48:07Z</time>
      </trkpt>
      <trkpt lat="46.635149" lon="11.173107">
        <ele>287.537</ele>
        <time>2022-07-09T06:48:08Z</time>
      </trkpt>
      <trkpt lat="46.635181" lon="11.173137">
        <ele>287.549</ele>
        <time>2022-07-09T06:48:09Z</time>
      </trkpt>
      <trkpt lat="46.635216" lon="11.173165">
        <ele>287.513</ele>
        <time>2022-07-09T06:48:10Z</time>
      </trkpt>
      <trkpt lat="46.635570" lon="11.173154">
        <ele>287.509</ele>
        <time>2022-07-09T06:48:20Z</time>
      </trkpt>
      <trkpt lat="46.636221" lon="11.172757">
        <ele>287.574</ele>
        <time>2022-07-09T06:48:38Z</time>
      </trkpt>
      <trkpt lat="46.636974" lon="11.172349">
        <ele>287.593</ele>
        <time>2022-07-09T06:48:59Z</time>
      </trkpt>
      <trkpt lat="46.637747" lon="11.172083">
        <ele>287.541</ele>
        <time>2022-07-09T06:49:19Z</time>
      </trkpt>
      <trkpt lat="46.638413" lon="11.172126">
        <ele>286.673</ele>
        <time>2022-07-09T06:49:35Z</time>
      </trkpt>
      <trkpt lat="46.638456" lon="11.172132">
        <ele>286.689</ele>
        <time>2022-07-09T06:49:36Z</time>
      </trkpt>
      <trkpt lat="46.638522" lon="11.172128">
        <ele>286.133</ele>
        <time>2022-07-09T06:49:37Z</time>
      </trkpt>
      <trkpt lat="46.639086" lon="11.172116">
        <ele>286.124</ele>
        <time>2022-07-09T06:49:50Z</time>
      </trkpt>
      <trkpt lat="46.639645" lon="11.172122">
        <ele>285.632</ele>
        <time>2022-07-09T06:50:03Z</time>
      </trkpt>
      <trkpt lat="46.640350" lon="11.172166">
        <ele>285.656</ele>
        <time>2022-07-09T06:50:20Z</time>
      </trkpt>
      <trkpt lat="46.641264" lon="11.172389">
        <ele>287.054</ele>
        <time>2022-07-09T06:50:42Z</time>
      </trkpt>
      <trkpt lat="46.642073" lon="11.172700">
        <ele>288.056</ele>
        <time>2022-07-09T06:51:04Z</time>
      </trkpt>
      <trkpt lat="46.642830" lon="11.173139">
        <ele>289.911</ele>
        <time>2022-07-09T06:51:26Z</time>
      </trkpt>
      <trkpt lat="46.643562" lon="11.173675">
        <ele>289.409</ele>
        <time>2022-07-09T06:51:49Z</time>
      </trkpt>
      <trkpt lat="46.644243" lon="11.174184">
        <ele>289.946</ele>
        <time>2022-07-09T06:52:10Z</time>
      </trkpt>
      <trkpt lat="46.644946" lon="11.174728">
        <ele>290.495</ele>
        <time>2022-07-09T06:52:32Z</time>
      </trkpt>
      <trkpt lat="46.645401" lon="11.175065">
        <ele>290.923</ele>
        <time>2022-07-09T06:52:47Z</time>
      </trkpt>
      <trkpt lat="46.645799" lon="11.175279">
        <ele>291.485</ele>
        <time>2022-07-09T06:53:00Z</time>
      </trkpt>
      <trkpt lat="46.646457" lon="11.175783">
        <ele>293.851</ele>
        <time>2022-07-09T06:53:23Z</time>
      </trkpt>
      <trkpt lat="46.647034" lon="11.176226">
        <ele>295.295</ele>
        <time>2022-07-09T06:53:43Z</time>
      </trkpt>
      <trkpt lat="46.647500" lon="11.176596">
        <ele>295.786</ele>
        <time>2022-07-09T06:53:59Z</time>
      </trkpt>
      <trkpt lat="46.647727" lon="11.176751">
        <ele>296.794</ele>
        <time>2022-07-09T06:54:08Z</time>
      </trkpt>
      <trkpt lat="46.647742" lon="11.176725">
        <ele>297.138</ele>
        <time>2022-07-09T06:54:09Z</time>
      </trkpt>
      <trkpt lat="46.647843" lon="11.176585">
        <ele>297.164</ele>
        <time>2022-07-09T06:54:14Z</time>
      </trkpt>
      <trkpt lat="46.647872" lon="11.176586">
        <ele>297.106</ele>
        <time>2022-07-09T06:54:15Z</time>
      </trkpt>
      <trkpt lat="46.647904" lon="11.176602">
        <ele>297.116</ele>
        <time>2022-07-09T06:54:16Z</time>
      </trkpt>
      <trkpt lat="46.648337" lon="11.177008">
        <ele>298.609</ele>
        <time>2022-07-09T06:54:33Z</time>
      </trkpt>
      <trkpt lat="46.648689" lon="11.176993">
        <ele>298.637</ele>
        <time>2022-07-09T06:54:44Z</time>
      </trkpt>
      <trkpt lat="46.649216" lon="11.176787">
        <ele>298.696</ele>
        <time>2022-07-09T06:55:00Z</time>
      </trkpt>
      <trkpt lat="46.649873" lon="11.176292">
        <ele>298.684</ele>
        <time>2022-07-09T06:55:20Z</time>
      </trkpt>
      <trkpt lat="46.650488" lon="11.175634">
        <ele>299.146</ele>
        <time>2022-07-09T06:55:41Z</time>
      </trkpt>
      <trkpt lat="46.651021" lon="11.175187">
        <ele>299.112</ele>
        <time>2022-07-09T06:55:59Z</time>
      </trkpt>
      <trkpt lat="46.651664" lon="11.175066">
        <ele>299.536</ele>
        <time>2022-07-09T06:56:17Z</time>
      </trkpt>
      <trkpt lat="46.652362" lon="11.175013">
        <ele>301.027</ele>
        <time>2022-07-09T06:56:38Z</time>
      </trkpt>
      <trkpt lat="46.652843" lon="11.174808">
        <ele>301.915</ele>
        <time>2022-07-09T06:56:54Z</time>
      </trkpt>
      <trkpt lat="46.653132" lon="11.174290">
        <ele>302.979</ele>
        <time>2022-07-09T06:57:09Z</time>
      </trkpt>
      <trkpt lat="46.653398" lon="11.173491">
        <ele>302.491</ele>
        <time>2022-07-09T06:57:26Z</time>
      </trkpt>
      <trkpt lat="46.653665" lon="11.172644">
        <ele>301.581</ele>
        <time>2022-07-09T06:57:41Z</time>
      </trkpt>
      <trkpt lat="46.654086" lon="11.171568">
        <ele>301.019</ele>
        <time>2022-07-09T06:58:01Z</time>
      </trkpt>
      <trkpt lat="46.654530" lon="11.170899">
        <ele>301.009</ele>
        <time>2022-07-09T06:58:18Z</time>
      </trkpt>
      <trkpt lat="46.654978" lon="11.170350">
        <ele>302.460</ele>
        <time>2022-07-09T06:58:35Z</time>
      </trkpt>
      <trkpt lat="46.655077" lon="11.170172">
        <ele>302.419</ele>
        <time>2022-07-09T06:58:46Z</time>
      </trkpt>
      <trkpt lat="46.655060" lon="11.170152">
        <ele>302.487</ele>
        <time>2022-07-09T06:58:47Z</time>
      </trkpt>
      <trkpt lat="46.655028" lon="11.170133">
        <ele>302.449</ele>
        <time>2022-07-09T06:58:49Z</time>
      </trkpt>
      <trkpt lat="46.654984" lon="11.170099">
        <ele>302.475</ele>
        <time>2022-07-09T06:58:50Z</time>
      </trkpt>
      <trkpt lat="46.654951" lon="11.170075">
        <ele>301.949</ele>
        <time>2022-07-09T06:58:51Z</time>
      </trkpt>
      <trkpt lat="46.654915" lon="11.170051">
        <ele>301.910</ele>
        <time>2022-07-09T06:58:52Z</time>
      </trkpt>
      <trkpt lat="46.654840" lon="11.170007">
        <ele>301.958</ele>
        <time>2022-07-09T06:58:54Z</time>
      </trkpt>
      <trkpt lat="46.654802" lon="11.169989">
        <ele>301.942</ele>
        <time>2022-07-09T06:58:55Z</time>
      </trkpt>
      <trkpt lat="46.654723" lon="11.169944">
        <ele>301.023</ele>
        <time>2022-07-09T06:58:57Z</time>
      </trkpt>
      <trkpt lat="46.654505" lon="11.169754">
        <ele>300.583</ele>
        <time>2022-07-09T06:59:04Z</time>
      </trkpt>
      <trkpt lat="46.654506" lon="11.169721">
        <ele>300.511</ele>
        <time>2022-07-09T06:59:05Z</time>
      </trkpt>
      <trkpt lat="46.654522" lon="11.169688">
        <ele>300.509</ele>
        <time>2022-07-09T06:59:06Z</time>
      </trkpt>
      <trkpt lat="46.654742" lon="11.169246">
        <ele>299.583</ele>
        <time>2022-07-09T06:59:17Z</time>
      </trkpt>
      <trkpt lat="46.654766" lon="11.169140">
        <ele>299.572</ele>
        <time>2022-07-09T06:59:21Z</time>
      </trkpt>
      <trkpt lat="46.654751" lon="11.169120">
        <ele>299.540</ele>
        <time>2022-07-09T06:59:22Z</time>
      </trkpt>
      <trkpt lat="46.654728" lon="11.169102">
        <ele>299.512</ele>
        <time>2022-07-09T06:59:23Z</time>
      </trkpt>
      <trkpt lat="46.654360" lon="11.168871">
        <ele>299.558</ele>
        <time>2022-07-09T06:59:36Z</time>
      </trkpt>
      <trkpt lat="46.653889" lon="11.168553">
        <ele>298.672</ele>
        <time>2022-07-09T06:59:49Z</time>
      </trkpt>
      <trkpt lat="46.653816" lon="11.168503">
        <ele>298.633</ele>
        <time>2022-07-09T06:59:51Z</time>
      </trkpt>
      <trkpt lat="46.653793" lon="11.168451">
        <ele>298.661</ele>
        <time>2022-07-09T06:59:52Z</time>
      </trkpt>
      <trkpt lat="46.653792" lon="11.168378">
        <ele>298.675</ele>
        <time>2022-07-09T06:59:53Z</time>
      </trkpt>
      <trkpt lat="46.653804" lon="11.168332">
        <ele>298.659</ele>
        <time>2022-07-09T06:59:54Z</time>
      </trkpt>
      <trkpt lat="46.653822" lon="11.168289">
        <ele>298.603</ele>
        <time>2022-07-09T06:59:55Z</time>
      </trkpt>
      <trkpt lat="46.654159" lon="11.167329">
        <ele>298.623</ele>
        <time>2022-07-09T07:00:13Z</time>
      </trkpt>
      <trkpt lat="46.654247" lon="11.167056">
        <ele>298.609</ele>
        <time>2022-07-09T07:00:18Z</time>
      </trkpt>
      <trkpt lat="46.654576" lon="11.166088">
        <ele>298.676</ele>
        <time>2022-07-09T07:00:36Z</time>
      </trkpt>
      <trkpt lat="46.654934" lon="11.165100">
        <ele>298.645</ele>
        <time>2022-07-09T07:00:54Z</time>
      </trkpt>
      <trkpt lat="46.655251" lon="11.164208">
        <ele>298.643</ele>
        <time>2022-07-09T07:01:10Z</time>
      </trkpt>
      <trkpt lat="46.655487" lon="11.163643">
        <ele>298.665</ele>
        <time>2022-07-09T07:01:21Z</time>
      </trkpt>
      <trkpt lat="46.655524" lon="11.163604">
        <ele>298.691</ele>
        <time>2022-07-09T07:01:22Z</time>
      </trkpt>
      <trkpt lat="46.655557" lon="11.163576">
        <ele>298.665</ele>
        <time>2022-07-09T07:01:23Z</time>
      </trkpt>
      <trkpt lat="46.655597" lon="11.163549">
        <ele>298.656</ele>
        <time>2022-07-09T07:01:24Z</time>
      </trkpt>
      <trkpt lat="46.655638" lon="11.163527">
        <ele>298.664</ele>
        <time>2022-07-09T07:01:25Z</time>
      </trkpt>
      <trkpt lat="46.655670" lon="11.163516">
        <ele>298.688</ele>
        <time>2022-07-09T07:01:26Z</time>
      </trkpt>
      <trkpt lat="46.655716" lon="11.163510">
        <ele>298.633</ele>
        <time>2022-07-09T07:01:27Z</time>
      </trkpt>
      <trkpt lat="46.655746" lon="11.163511">
        <ele>298.623</ele>
        <time>2022-07-09T07:01:28Z</time>
      </trkpt>
      <trkpt lat="46.655786" lon="11.163518">
        <ele>298.615</ele>
        <time>2022-07-09T07:01:29Z</time>
      </trkpt>
      <trkpt lat="46.655822" lon="11.163526">
        <ele>298.609</ele>
        <time>2022-07-09T07:01:30Z</time>
      </trkpt>
      <trkpt lat="46.656026" lon="11.163638">
        <ele>300.024</ele>
        <time>2022-07-09T07:01:36Z</time>
      </trkpt>
      <trkpt lat="46.656508" lon="11.163695">
        <ele>300.553</ele>
        <time>2022-07-09T07:01:51Z</time>
      </trkpt>
      <trkpt lat="46.656789" lon="11.163131">
        <ele>301.931</ele>
        <time>2022-07-09T07:02:05Z</time>
      </trkpt>
      <trkpt lat="46.656989" lon="11.162500">
        <ele>300.523</ele>
        <time>2022-07-09T07:02:17Z</time>
      </trkpt>
      <trkpt lat="46.657029" lon="11.162361">
        <ele>299.529</ele>
        <time>2022-07-09T07:02:19Z</time>
      </trkpt>
      <trkpt lat="46.657056" lon="11.162306">
        <ele>299.533</ele>
        <time>2022-07-09T07:02:20Z</time>
      </trkpt>
      <trkpt lat="46.657097" lon="11.162269">
        <ele>299.544</ele>
        <time>2022-07-09T07:02:21Z</time>
      </trkpt>
      <trkpt lat="46.657139" lon="11.162267">
        <ele>299.522</ele>
        <time>2022-07-09T07:02:22Z</time>
      </trkpt>
      <trkpt lat="46.657181" lon="11.162284">
        <ele>299.566</ele>
        <time>2022-07-09T07:02:23Z</time>
      </trkpt>
      <trkpt lat="46.657225" lon="11.162304">
        <ele>299.527</ele>
        <time>2022-07-09T07:02:24Z</time>
      </trkpt>
      <trkpt lat="46.657510" lon="11.162124">
        <ele>299.168</ele>
        <time>2022-07-09T07:02:34Z</time>
      </trkpt>
      <trkpt lat="46.657784" lon="11.161214">
        <ele>299.114</ele>
        <time>2022-07-09T07:02:53Z</time>
      </trkpt>
      <trkpt lat="46.658099" lon="11.160174">
        <ele>300.509</ele>
        <time>2022-07-09T07:03:15Z</time>
      </trkpt>
      <trkpt lat="46.658113" lon="11.160157">
        <ele>300.563</ele>
        <time>2022-07-09T07:03:16Z</time>
      </trkpt>
      <trkpt lat="46.658131" lon="11.160155">
        <ele>300.542</ele>
        <time>2022-07-09T07:03:17Z</time>
      </trkpt>
      <trkpt lat="46.658147" lon="11.160157">
        <ele>300.520</ele>
        <time>2022-07-09T07:03:18Z</time>
      </trkpt>
      <trkpt lat="46.658167" lon="11.160162">
        <ele>300.532</ele>
        <time>2022-07-09T07:03:19Z</time>
      </trkpt>
      <trkpt lat="46.658187" lon="11.160171">
        <ele>300.558</ele>
        <time>2022-07-09T07:03:20Z</time>
      </trkpt>
      <trkpt lat="46.658591" lon="11.160263">
        <ele>301.922</ele>
        <time>2022-07-09T07:03:36Z</time>
      </trkpt>
      <trkpt lat="46.658917" lon="11.160437">
        <ele>302.483</ele>
        <time>2022-07-09T07:03:51Z</time>
      </trkpt>
      <trkpt lat="46.659246" lon="11.160535">
        <ele>303.471</ele>
        <time>2022-07-09T07:04:04Z</time>
      </trkpt>
      <trkpt lat="46.659665" lon="11.160746">
        <ele>304.315</ele>
        <time>2022-07-09T07:04:21Z</time>
      </trkpt>
      <trkpt lat="46.659965" lon="11.160920">
        <ele>305.362</ele>
        <time>2022-07-09T07:04:35Z</time>
      </trkpt>
      <trkpt lat="46.660282" lon="11.160813">
        <ele>306.883</ele>
        <time>2022-07-09T07:04:49Z</time>
      </trkpt>
      <trkpt lat="46.660640" lon="11.160748">
        <ele>307.711</ele>
        <time>2022-07-09T07:05:04Z</time>
      </trkpt>
      <trkpt lat="46.661028" lon="11.160667">
        <ele>309.209</ele>
        <time>2022-07-09T07:05:20Z</time>
      </trkpt>
      <trkpt lat="46.661247" lon="11.160333">
        <ele>309.257</ele>
        <time>2022-07-09T07:05:33Z</time>
      </trkpt>
      <trkpt lat="46.661580" lon="11.159907">
        <ele>309.656</ele>
        <time>2022-07-09T07:05:47Z</time>
      </trkpt>
      <trkpt lat="46.661614" lon="11.159856">
        <ele>309.654</ele>
        <time>2022-07-09T07:05:49Z</time>
      </trkpt>
      <trkpt lat="46.661618" lon="11.159817">
        <ele>309.616</ele>
        <time>2022-07-09T07:05:50Z</time>
      </trkpt>
      <trkpt lat="46.661618" lon="11.159777">
        <ele>309.292</ele>
        <time>2022-07-09T07:05:51Z</time>
      </trkpt>
      <trkpt lat="46.661621" lon="11.159741">
        <ele>307.786</ele>
        <time>2022-07-09T07:05:52Z</time>
      </trkpt>
      <trkpt lat="46.661623" lon="11.159708">
        <ele>307.767</ele>
        <time>2022-07-09T07:05:53Z</time>
      </trkpt>
      <trkpt lat="46.661632" lon="11.159698">
        <ele>307.795</ele>
        <time>2022-07-09T07:05:54Z</time>
      </trkpt>
      <trkpt lat="46.661644" lon="11.159689">
        <ele>307.759</ele>
        <time>2022-07-09T07:05:55Z</time>
      </trkpt>
      <trkpt lat="46.661659" lon="11.159684">
        <ele>307.232</ele>
        <time>2022-07-09T07:05:56Z</time>
      </trkpt>
      <trkpt lat="46.661676" lon="11.159675">
        <ele>307.292</ele>
        <time>2022-07-09T07:05:57Z</time>
      </trkpt>
      <trkpt lat="46.661698" lon="11.159661">
        <ele>307.211</ele>
        <time>2022-07-09T07:05:58Z</time>
      </trkpt>
      <trkpt lat="46.661729" lon="11.159645">
        <ele>307.209</ele>
        <time>2022-07-09T07:05:59Z</time>
      </trkpt>
      <trkpt lat="46.661790" lon="11.159681">
        <ele>306.814</ele>
        <time>2022-07-09T07:06:01Z</time>
      </trkpt>
      <trkpt lat="46.661800" lon="11.159708">
        <ele>306.863</ele>
        <time>2022-07-09T07:06:02Z</time>
      </trkpt>
      <trkpt lat="46.661861" lon="11.159821">
        <ele>306.821</ele>
        <time>2022-07-09T07:06:06Z</time>
      </trkpt>
      <trkpt lat="46.661891" lon="11.159815">
        <ele>306.823</ele>
        <time>2022-07-09T07:06:07Z</time>
      </trkpt>
      <trkpt lat="46.661920" lon="11.159788">
        <ele>306.829</ele>
        <time>2022-07-09T07:06:08Z</time>
      </trkpt>
      <trkpt lat="46.661934" lon="11.159765">
        <ele>306.893</ele>
        <time>2022-07-09T07:06:09Z</time>
      </trkpt>
      <trkpt lat="46.661954" lon="11.159730">
        <ele>306.894</ele>
        <time>2022-07-09T07:06:10Z</time>
      </trkpt>
      <trkpt lat="46.661978" lon="11.159692">
        <ele>306.882</ele>
        <time>2022-07-09T07:06:11Z</time>
      </trkpt>
      <trkpt lat="46.661999" lon="11.159667">
        <ele>306.836</ele>
        <time>2022-07-09T07:06:12Z</time>
      </trkpt>
      <trkpt lat="46.662236" lon="11.159414">
        <ele>306.895</ele>
        <time>2022-07-09T07:06:25Z</time>
      </trkpt>
      <trkpt lat="46.662390" lon="11.159229">
        <ele>306.849</ele>
        <time>2022-07-09T07:06:36Z</time>
      </trkpt>
      <trkpt lat="46.662401" lon="11.159210">
        <ele>306.823</ele>
        <time>2022-07-09T07:06:37Z</time>
      </trkpt>
      <trkpt lat="46.662417" lon="11.159189">
        <ele>306.809</ele>
        <time>2022-07-09T07:06:38Z</time>
      </trkpt>
      <trkpt lat="46.662426" lon="11.159156">
        <ele>306.860</ele>
        <time>2022-07-09T07:06:39Z</time>
      </trkpt>
      <trkpt lat="46.662423" lon="11.159122">
        <ele>306.889</ele>
        <time>2022-07-09T07:06:40Z</time>
      </trkpt>
      <trkpt lat="46.662419" lon="11.159084">
        <ele>306.827</ele>
        <time>2022-07-09T07:06:41Z</time>
      </trkpt>
      <trkpt lat="46.662425" lon="11.158899">
        <ele>306.879</ele>
        <time>2022-07-09T07:06:46Z</time>
      </trkpt>
      <trkpt lat="46.662450" lon="11.158870">
        <ele>306.865</ele>
        <time>2022-07-09T07:06:47Z</time>
      </trkpt>
      <trkpt lat="46.662472" lon="11.158856">
        <ele>306.839</ele>
        <time>2022-07-09T07:06:48Z</time>
      </trkpt>
      <trkpt lat="46.662502" lon="11.158846">
        <ele>306.890</ele>
        <time>2022-07-09T07:06:49Z</time>
      </trkpt>
      <trkpt lat="46.662527" lon="11.158842">
        <ele>306.848</ele>
        <time>2022-07-09T07:06:50Z</time>
      </trkpt>
      <trkpt lat="46.662557" lon="11.158840">
        <ele>306.872</ele>
        <time>2022-07-09T07:06:51Z</time>
      </trkpt>
      <trkpt lat="46.662588" lon="11.158839">
        <ele>306.872</ele>
        <time>2022-07-09T07:06:52Z</time>
      </trkpt>
      <trkpt lat="46.662907" lon="11.158791">
        <ele>308.213</ele>
        <time>2022-07-09T07:07:04Z</time>
      </trkpt>
      <trkpt lat="46.663375" lon="11.158730">
        <ele>309.214</ele>
        <time>2022-07-09T07:07:20Z</time>
      </trkpt>
      <trkpt lat="46.663480" lon="11.158687">
        <ele>309.209</ele>
        <time>2022-07-09T07:07:24Z</time>
      </trkpt>
      <trkpt lat="46.663502" lon="11.158684">
        <ele>309.268</ele>
        <time>2022-07-09T07:07:25Z</time>
      </trkpt>
      <trkpt lat="46.663916" lon="11.158591">
        <ele>309.627</ele>
        <time>2022-07-09T07:07:39Z</time>
      </trkpt>
      <trkpt lat="46.664080" lon="11.158888">
        <ele>311.175</ele>
        <time>2022-07-09T07:07:50Z</time>
      </trkpt>
      <trkpt lat="46.664094" lon="11.158904">
        <ele>311.617</ele>
        <time>2022-07-09T07:07:51Z</time>
      </trkpt>
      <trkpt lat="46.664113" lon="11.158919">
        <ele>311.643</ele>
        <time>2022-07-09T07:07:52Z</time>
      </trkpt>
      <trkpt lat="46.664139" lon="11.158930">
        <ele>311.637</ele>
        <time>2022-07-09T07:07:53Z</time>
      </trkpt>
      <trkpt lat="46.664157" lon="11.158931">
        <ele>311.648</ele>
        <time>2022-07-09T07:07:54Z</time>
      </trkpt>
      <trkpt lat="46.664183" lon="11.158931">
        <ele>311.676</ele>
        <time>2022-07-09T07:07:55Z</time>
      </trkpt>
      <trkpt lat="46.664490" lon="11.158667">
        <ele>311.660</ele>
        <time>2022-07-09T07:08:07Z</time>
      </trkpt>
      <trkpt lat="46.664936" lon="11.158229">
        <ele>311.643</ele>
        <time>2022-07-09T07:08:21Z</time>
      </trkpt>
      <trkpt lat="46.665145" lon="11.158003">
        <ele>312.564</ele>
        <time>2022-07-09T07:08:29Z</time>
      </trkpt>
      <trkpt lat="46.665150" lon="11.157962">
        <ele>312.510</ele>
        <time>2022-07-09T07:08:30Z</time>
      </trkpt>
      <trkpt lat="46.665150" lon="11.157902">
        <ele>312.509</ele>
        <time>2022-07-09T07:08:31Z</time>
      </trkpt>
      <trkpt lat="46.665146" lon="11.157871">
        <ele>312.595</ele>
        <time>2022-07-09T07:08:32Z</time>
      </trkpt>
      <trkpt lat="46.665134" lon="11.157826">
        <ele>313.044</ele>
        <time>2022-07-09T07:08:33Z</time>
      </trkpt>
      <trkpt lat="46.665118" lon="11.157785">
        <ele>313.032</ele>
        <time>2022-07-09T07:08:34Z</time>
      </trkpt>
      <trkpt lat="46.665103" lon="11.157750">
        <ele>313.024</ele>
        <time>2022-07-09T07:08:35Z</time>
      </trkpt>
      <trkpt lat="46.665082" lon="11.157706">
        <ele>313.080</ele>
        <time>2022-07-09T07:08:36Z</time>
      </trkpt>
      <trkpt lat="46.664830" lon="11.157012">
        <ele>313.054</ele>
        <time>2022-07-09T07:08:51Z</time>
      </trkpt>
      <trkpt lat="46.664554" lon="11.155851">
        <ele>313.045</ele>
        <time>2022-07-09T07:09:12Z</time>
      </trkpt>
      <trkpt lat="46.664374" lon="11.154801">
        <ele>311.683</ele>
        <time>2022-07-09T07:09:31Z</time>
      </trkpt>
      <trkpt lat="46.664452" lon="11.153976">
        <ele>311.617</ele>
        <time>2022-07-09T07:09:45Z</time>
      </trkpt>
      <trkpt lat="46.664518" lon="11.153494">
        <ele>311.118</ele>
        <time>2022-07-09T07:09:55Z</time>
      </trkpt>
      <trkpt lat="46.664508" lon="11.153469">
        <ele>311.198</ele>
        <time>2022-07-09T07:09:56Z</time>
      </trkpt>
      <trkpt lat="46.664495" lon="11.153454">
        <ele>311.117</ele>
        <time>2022-07-09T07:09:57Z</time>
      </trkpt>
      <trkpt lat="46.664480" lon="11.153440">
        <ele>311.109</ele>
        <time>2022-07-09T07:09:58Z</time>
      </trkpt>
      <trkpt lat="46.664460" lon="11.153421">
        <ele>311.172</ele>
        <time>2022-07-09T07:09:59Z</time>
      </trkpt>
      <trkpt lat="46.664435" lon="11.153397">
        <ele>311.151</ele>
        <time>2022-07-09T07:10:00Z</time>
      </trkpt>
      <trkpt lat="46.664107" lon="11.153145">
        <ele>310.199</ele>
        <time>2022-07-09T07:10:10Z</time>
      </trkpt>
      <trkpt lat="46.663542" lon="11.152594">
        <ele>308.711</ele>
        <time>2022-07-09T07:10:27Z</time>
      </trkpt>
      <trkpt lat="46.663035" lon="11.151867">
        <ele>308.297</ele>
        <time>2022-07-09T07:10:44Z</time>
      </trkpt>
      <trkpt lat="46.662933" lon="11.151676">
        <ele>308.771</ele>
        <time>2022-07-09T07:10:48Z</time>
      </trkpt>
      <trkpt lat="46.662602" lon="11.151101">
        <ele>307.242</ele>
        <time>2022-07-09T07:11:01Z</time>
      </trkpt>
      <trkpt lat="46.662566" lon="11.151069">
        <ele>307.270</ele>
        <time>2022-07-09T07:11:02Z</time>
      </trkpt>
      <trkpt lat="46.662522" lon="11.151037">
        <ele>307.224</ele>
        <time>2022-07-09T07:11:03Z</time>
      </trkpt>
      <trkpt lat="46.662489" lon="11.151021">
        <ele>307.239</ele>
        <time>2022-07-09T07:11:04Z</time>
      </trkpt>
      <trkpt lat="46.662450" lon="11.151004">
        <ele>307.201</ele>
        <time>2022-07-09T07:11:05Z</time>
      </trkpt>
      <trkpt lat="46.662337" lon="11.150938">
        <ele>307.221</ele>
        <time>2022-07-09T07:11:08Z</time>
      </trkpt>
      <trkpt lat="46.662303" lon="11.150905">
        <ele>307.209</ele>
        <time>2022-07-09T07:11:09Z</time>
      </trkpt>
      <trkpt lat="46.662274" lon="11.150866">
        <ele>306.864</ele>
        <time>2022-07-09T07:11:10Z</time>
      </trkpt>
      <trkpt lat="46.662053" lon="11.150392">
        <ele>306.333</ele>
        <time>2022-07-09T07:11:19Z</time>
      </trkpt>
      <trkpt lat="46.661452" lon="11.149562">
        <ele>305.851</ele>
        <time>2022-07-09T07:11:39Z</time>
      </trkpt>
      <trkpt lat="46.660756" lon="11.148653">
        <ele>304.883</ele>
        <time>2022-07-09T07:12:01Z</time>
      </trkpt>
      <trkpt lat="46.660127" lon="11.147838">
        <ele>304.399</ele>
        <time>2022-07-09T07:12:21Z</time>
      </trkpt>
      <trkpt lat="46.659649" lon="11.147194">
        <ele>304.313</ele>
        <time>2022-07-09T07:12:37Z</time>
      </trkpt>
      <trkpt lat="46.659407" lon="11.146885">
        <ele>305.334</ele>
        <time>2022-07-09T07:12:46Z</time>
      </trkpt>
      <trkpt lat="46.659255" lon="11.146719">
        <ele>303.922</ele>
        <time>2022-07-09T07:12:52Z</time>
      </trkpt>
      <trkpt lat="46.659235" lon="11.146692">
        <ele>303.986</ele>
        <time>2022-07-09T07:12:53Z</time>
      </trkpt>
      <trkpt lat="46.659224" lon="11.146661">
        <ele>302.915</ele>
        <time>2022-07-09T07:12:54Z</time>
      </trkpt>
      <trkpt lat="46.659225" lon="11.146634">
        <ele>302.965</ele>
        <time>2022-07-09T07:12:55Z</time>
      </trkpt>
      <trkpt lat="46.659239" lon="11.146593">
        <ele>302.911</ele>
        <time>2022-07-09T07:12:57Z</time>
      </trkpt>
      <trkpt lat="46.659294" lon="11.146443">
        <ele>303.909</ele>
        <time>2022-07-09T07:13:03Z</time>
      </trkpt>
      <trkpt lat="46.659317" lon="11.146410">
        <ele>303.922</ele>
        <time>2022-07-09T07:13:04Z</time>
      </trkpt>
      <trkpt lat="46.659344" lon="11.146381">
        <ele>303.951</ele>
        <time>2022-07-09T07:13:05Z</time>
      </trkpt>
      <trkpt lat="46.659364" lon="11.146351">
        <ele>303.929</ele>
        <time>2022-07-09T07:13:06Z</time>
      </trkpt>
      <trkpt lat="46.659376" lon="11.146320">
        <ele>303.951</ele>
        <time>2022-07-09T07:13:07Z</time>
      </trkpt>
      <trkpt lat="46.659378" lon="11.146286">
        <ele>303.977</ele>
        <time>2022-07-09T07:13:08Z</time>
      </trkpt>
      <trkpt lat="46.659378" lon="11.146250">
        <ele>304.361</ele>
        <time>2022-07-09T07:13:09Z</time>
      </trkpt>
      <trkpt lat="46.659386" lon="11.146085">
        <ele>304.872</ele>
        <time>2022-07-09T07:13:13Z</time>
      </trkpt>
      <trkpt lat="46.659407" lon="11.146047">
        <ele>304.810</ele>
        <time>2022-07-09T07:13:14Z</time>
      </trkpt>
      <trkpt lat="46.659432" lon="11.146017">
        <ele>304.834</ele>
        <time>2022-07-09T07:13:15Z</time>
      </trkpt>
      <trkpt lat="46.659462" lon="11.145990">
        <ele>304.815</ele>
        <time>2022-07-09T07:13:16Z</time>
      </trkpt>
      <trkpt lat="46.659493" lon="11.145965">
        <ele>304.865</ele>
        <time>2022-07-09T07:13:17Z</time>
      </trkpt>
      <trkpt lat="46.659526" lon="11.145939">
        <ele>304.811</ele>
        <time>2022-07-09T07:13:18Z</time>
      </trkpt>
      <trkpt lat="46.659690" lon="11.145804">
        <ele>304.809</ele>
        <time>2022-07-09T07:13:24Z</time>
      </trkpt>
      <trkpt lat="46.659792" lon="11.145777">
        <ele>304.842</ele>
        <time>2022-07-09T07:13:27Z</time>
      </trkpt>
      <trkpt lat="46.659806" lon="11.145725">
        <ele>304.881</ele>
        <time>2022-07-09T07:13:28Z</time>
      </trkpt>
      <trkpt lat="46.659812" lon="11.145678">
        <ele>304.889</ele>
        <time>2022-07-09T07:13:29Z</time>
      </trkpt>
      <trkpt lat="46.659815" lon="11.145629">
        <ele>304.871</ele>
        <time>2022-07-09T07:13:30Z</time>
      </trkpt>
      <trkpt lat="46.659816" lon="11.145572">
        <ele>304.887</ele>
        <time>2022-07-09T07:13:31Z</time>
      </trkpt>
      <trkpt lat="46.659817" lon="11.145516">
        <ele>304.841</ele>
        <time>2022-07-09T07:13:32Z</time>
      </trkpt>
      <trkpt lat="46.659841" lon="11.145436">
        <ele>304.812</ele>
        <time>2022-07-09T07:13:34Z</time>
      </trkpt>
      <trkpt lat="46.659870" lon="11.145421">
        <ele>304.830</ele>
        <time>2022-07-09T07:13:35Z</time>
      </trkpt>
      <trkpt lat="46.660374" lon="11.145219">
        <ele>304.894</ele>
        <time>2022-07-09T07:13:50Z</time>
      </trkpt>
      <trkpt lat="46.660533" lon="11.145180">
        <ele>303.499</ele>
        <time>2022-07-09T07:13:53Z</time>
      </trkpt>
      <trkpt lat="46.660588" lon="11.145174">
        <ele>303.407</ele>
        <time>2022-07-09T07:13:54Z</time>
      </trkpt>
      <trkpt lat="46.661079" lon="11.144994">
        <ele>304.327</ele>
        <time>2022-07-09T07:14:07Z</time>
      </trkpt>
      <trkpt lat="46.661563" lon="11.144854">
        <ele>306.309</ele>
        <time>2022-07-09T07:14:23Z</time>
      </trkpt>
      <trkpt lat="46.662104" lon="11.144676">
        <ele>305.870</ele>
        <time>2022-07-09T07:14:39Z</time>
      </trkpt>
      <trkpt lat="46.662447" lon="11.144596">
        <ele>307.779</ele>
        <time>2022-07-09T07:14:52Z</time>
      </trkpt>
      <trkpt lat="46.662865" lon="11.144485">
        <ele>309.217</ele>
        <time>2022-07-09T07:15:06Z</time>
      </trkpt>
      <trkpt lat="46.663335" lon="11.144424">
        <ele>310.639</ele>
        <time>2022-07-09T07:15:22Z</time>
      </trkpt>
      <trkpt lat="46.663786" lon="11.144775">
        <ele>310.675</ele>
        <time>2022-07-09T07:15:37Z</time>
      </trkpt>
      <trkpt lat="46.664286" lon="11.145239">
        <ele>312.099</ele>
        <time>2022-07-09T07:15:55Z</time>
      </trkpt>
      <trkpt lat="46.664769" lon="11.145714">
        <ele>312.570</ele>
        <time>2022-07-09T07:16:12Z</time>
      </trkpt>
      <trkpt lat="46.665314" lon="11.146288">
        <ele>312.548</ele>
        <time>2022-07-09T07:16:31Z</time>
      </trkpt>
      <trkpt lat="46.665857" lon="11.146865">
        <ele>313.572</ele>
        <time>2022-07-09T07:16:51Z</time>
      </trkpt>
      <trkpt lat="46.665963" lon="11.146926">
        <ele>313.521</ele>
        <time>2022-07-09T07:16:56Z</time>
      </trkpt>
      <trkpt lat="46.665979" lon="11.146908">
        <ele>313.541</ele>
        <time>2022-07-09T07:16:57Z</time>
      </trkpt>
      <trkpt lat="46.665991" lon="11.146885">
        <ele>314.005</ele>
        <time>2022-07-09T07:16:58Z</time>
      </trkpt>
      <trkpt lat="46.666006" lon="11.146850">
        <ele>314.009</ele>
        <time>2022-07-09T07:16:59Z</time>
      </trkpt>
      <trkpt lat="46.666021" lon="11.146810">
        <ele>314.063</ele>
        <time>2022-07-09T07:17:00Z</time>
      </trkpt>
      <trkpt lat="46.666217" lon="11.146318">
        <ele>314.082</ele>
        <time>2022-07-09T07:17:12Z</time>
      </trkpt>
      <trkpt lat="46.666208" lon="11.146284">
        <ele>314.070</ele>
        <time>2022-07-09T07:17:13Z</time>
      </trkpt>
      <trkpt lat="46.666068" lon="11.145959">
        <ele>313.042</ele>
        <time>2022-07-09T07:17:21Z</time>
      </trkpt>
      <trkpt lat="46.665805" lon="11.145198">
        <ele>312.588</ele>
        <time>2022-07-09T07:17:37Z</time>
      </trkpt>
      <trkpt lat="46.665536" lon="11.144050">
        <ele>312.062</ele>
        <time>2022-07-09T07:17:57Z</time>
      </trkpt>
      <trkpt lat="46.665492" lon="11.143322">
        <ele>312.073</ele>
        <time>2022-07-09T07:18:10Z</time>
      </trkpt>
      <trkpt lat="46.665358" lon="11.142868">
        <ele>310.651</ele>
        <time>2022-07-09T07:18:20Z</time>
      </trkpt>
      <trkpt lat="46.665246" lon="11.142673">
        <ele>308.715</ele>
        <time>2022-07-09T07:18:23Z</time>
      </trkpt>
      <trkpt lat="46.665231" lon="11.142609">
        <ele>308.722</ele>
        <time>2022-07-09T07:18:24Z</time>
      </trkpt>
      <trkpt lat="46.665242" lon="11.142557">
        <ele>310.162</ele>
        <time>2022-07-09T07:18:25Z</time>
      </trkpt>
      <trkpt lat="46.665264" lon="11.142520">
        <ele>310.608</ele>
        <time>2022-07-09T07:18:26Z</time>
      </trkpt>
      <trkpt lat="46.665287" lon="11.142492">
        <ele>310.609</ele>
        <time>2022-07-09T07:18:27Z</time>
      </trkpt>
      <trkpt lat="46.665311" lon="11.142469">
        <ele>310.663</ele>
        <time>2022-07-09T07:18:28Z</time>
      </trkpt>
      <trkpt lat="46.665602" lon="11.142181">
        <ele>314.022</ele>
        <time>2022-07-09T07:18:43Z</time>
      </trkpt>
      <trkpt lat="46.666037" lon="11.141597">
        <ele>314.440</ele>
        <time>2022-07-09T07:19:03Z</time>
      </trkpt>
      <trkpt lat="46.666481" lon="11.140853">
        <ele>315.462</ele>
        <time>2022-07-09T07:19:25Z</time>
      </trkpt>
      <trkpt lat="46.666961" lon="11.140070">
        <ele>316.848</ele>
        <time>2022-07-09T07:19:48Z</time>
      </trkpt>
      <trkpt lat="46.667464" lon="11.139425">
        <ele>317.892</ele>
        <time>2022-07-09T07:20:09Z</time>
      </trkpt>
      <trkpt lat="46.668016" lon="11.138881">
        <ele>317.853</ele>
        <time>2022-07-09T07:20:29Z</time>
      </trkpt>
      <trkpt lat="46.668559" lon="11.138513">
        <ele>318.331</ele>
        <time>2022-07-09T07:20:46Z</time>
      </trkpt>
      <trkpt lat="46.669261" lon="11.137997">
        <ele>319.365</ele>
        <time>2022-07-09T07:21:08Z</time>
      </trkpt>
      <trkpt lat="46.669790" lon="11.137437">
        <ele>320.752</ele>
        <time>2022-07-09T07:21:27Z</time>
      </trkpt>
      <trkpt lat="46.670308" lon="11.136685">
        <ele>322.153</ele>
        <time>2022-07-09T07:21:48Z</time>
      </trkpt>
      <trkpt lat="46.670815" lon="11.135886">
        <ele>323.608</ele>
        <time>2022-07-09T07:22:10Z</time>
      </trkpt>
      <trkpt lat="46.671311" lon="11.135042">
        <ele>324.509</ele>
        <time>2022-07-09T07:22:32Z</time>
      </trkpt>
      <trkpt lat="46.671832" lon="11.134436">
        <ele>325.546</ele>
        <time>2022-07-09T07:22:52Z</time>
      </trkpt>
      <trkpt lat="46.672340" lon="11.133960">
        <ele>326.995</ele>
        <time>2022-07-09T07:23:11Z</time>
      </trkpt>
      <trkpt lat="46.672917" lon="11.133470">
        <ele>328.463</ele>
        <time>2022-07-09T07:23:33Z</time>
      </trkpt>
      <trkpt lat="46.673495" lon="11.132815">
        <ele>329.325</ele>
        <time>2022-07-09T07:23:57Z</time>
      </trkpt>
      <trkpt lat="46.673911" lon="11.132192">
        <ele>331.351</ele>
        <time>2022-07-09T07:24:16Z</time>
      </trkpt>
      <trkpt lat="46.674293" lon="11.131495">
        <ele>332.235</ele>
        <time>2022-07-09T07:24:36Z</time>
      </trkpt>
      <trkpt lat="46.674724" lon="11.130850">
        <ele>334.246</ele>
        <time>2022-07-09T07:24:56Z</time>
      </trkpt>
      <trkpt lat="46.675185" lon="11.130247">
        <ele>334.684</ele>
        <time>2022-07-09T07:25:16Z</time>
      </trkpt>
      <trkpt lat="46.675686" lon="11.129630">
        <ele>336.668</ele>
        <time>2022-07-09T07:25:38Z</time>
      </trkpt>
      <trkpt lat="46.676087" lon="11.129056">
        <ele>338.014</ele>
        <time>2022-07-09T07:25:56Z</time>
      </trkpt>
      <trkpt lat="46.676315" lon="11.128594">
        <ele>339.054</ele>
        <time>2022-07-09T07:26:08Z</time>
      </trkpt>
      <trkpt lat="46.676503" lon="11.128147">
        <ele>342.309</ele>
        <time>2022-07-09T07:26:20Z</time>
      </trkpt>
      <trkpt lat="46.676748" lon="11.127357">
        <ele>342.309</ele>
        <time>2022-07-09T07:26:39Z</time>
      </trkpt>
      <trkpt lat="46.676847" lon="11.126918">
        <ele>344.212</ele>
        <time>2022-07-09T07:26:49Z</time>
      </trkpt>
      <trkpt lat="46.677062" lon="11.126127">
        <ele>345.271</ele>
        <time>2022-07-09T07:27:09Z</time>
      </trkpt>
      <trkpt lat="46.677361" lon="11.125391">
        <ele>347.149</ele>
        <time>2022-07-09T07:27:29Z</time>
      </trkpt>
      <trkpt lat="46.677803" lon="11.124659">
        <ele>348.671</ele>
        <time>2022-07-09T07:27:51Z</time>
      </trkpt>
      <trkpt lat="46.678151" lon="11.124016">
        <ele>350.067</ele>
        <time>2022-07-09T07:28:10Z</time>
      </trkpt>
      <trkpt lat="46.678320" lon="11.123599">
        <ele>351.051</ele>
        <time>2022-07-09T07:28:23Z</time>
      </trkpt>
      <trkpt lat="46.678568" lon="11.123020">
        <ele>352.452</ele>
        <time>2022-07-09T07:28:38Z</time>
      </trkpt>
      <trkpt lat="46.678746" lon="11.122742">
        <ele>352.920</ele>
        <time>2022-07-09T07:28:48Z</time>
      </trkpt>
      <trkpt lat="46.678921" lon="11.122228">
        <ele>354.354</ele>
        <time>2022-07-09T07:29:03Z</time>
      </trkpt>
      <trkpt lat="46.679138" lon="11.121545">
        <ele>356.397</ele>
        <time>2022-07-09T07:29:23Z</time>
      </trkpt>
      <trkpt lat="46.679362" lon="11.120780">
        <ele>357.723</ele>
        <time>2022-07-09T07:29:45Z</time>
      </trkpt>
      <trkpt lat="46.679514" lon="11.119980">
        <ele>358.225</ele>
        <time>2022-07-09T07:30:04Z</time>
      </trkpt>
      <trkpt lat="46.679637" lon="11.119276">
        <ele>360.609</ele>
        <time>2022-07-09T07:30:23Z</time>
      </trkpt>
      <trkpt lat="46.679747" lon="11.118607">
        <ele>362.570</ele>
        <time>2022-07-09T07:30:42Z</time>
      </trkpt>
      <trkpt lat="46.679786" lon="11.118315">
        <ele>363.059</ele>
        <time>2022-07-09T07:30:56Z</time>
      </trkpt>
      <trkpt lat="46.679783" lon="11.118310">
        <ele>363.077</ele>
        <time>2022-07-09T07:31:22Z</time>
      </trkpt>
      <trkpt lat="46.679792" lon="11.118298">
        <ele>363.019</ele>
        <time>2022-07-09T07:31:46Z</time>
      </trkpt>
      <trkpt lat="46.679804" lon="11.118306">
        <ele>363.085</ele>
        <time>2022-07-09T07:31:47Z</time>
      </trkpt>
      <trkpt lat="46.679820" lon="11.118314">
        <ele>363.099</ele>
        <time>2022-07-09T07:31:48Z</time>
      </trkpt>
      <trkpt lat="46.680171" lon="11.118400">
        <ele>364.950</ele>
        <time>2022-07-09T07:32:04Z</time>
      </trkpt>
      <trkpt lat="46.680336" lon="11.117896">
        <ele>366.478</ele>
        <time>2022-07-09T07:32:19Z</time>
      </trkpt>
      <trkpt lat="46.680413" lon="11.117397">
        <ele>367.342</ele>
        <time>2022-07-09T07:32:35Z</time>
      </trkpt>
      <trkpt lat="46.680420" lon="11.117292">
        <ele>367.852</ele>
        <time>2022-07-09T07:32:39Z</time>
      </trkpt>
      <trkpt lat="46.680419" lon="11.117261">
        <ele>367.853</ele>
        <time>2022-07-09T07:32:40Z</time>
      </trkpt>
      <trkpt lat="46.680416" lon="11.117224">
        <ele>367.808</ele>
        <time>2022-07-09T07:32:41Z</time>
      </trkpt>
      <trkpt lat="46.680302" lon="11.116667">
        <ele>367.809</ele>
        <time>2022-07-09T07:32:55Z</time>
      </trkpt>
      <trkpt lat="46.680054" lon="11.116434">
        <ele>367.876</ele>
        <time>2022-07-09T07:33:07Z</time>
      </trkpt>
      <trkpt lat="46.680055" lon="11.116405">
        <ele>367.845</ele>
        <time>2022-07-09T07:33:08Z</time>
      </trkpt>
      <trkpt lat="46.680054" lon="11.116345">
        <ele>368.343</ele>
        <time>2022-07-09T07:33:10Z</time>
      </trkpt>
      <trkpt lat="46.680047" lon="11.116322">
        <ele>368.365</ele>
        <time>2022-07-09T07:33:11Z</time>
      </trkpt>
      <trkpt lat="46.680037" lon="11.116296">
        <ele>368.391</ele>
        <time>2022-07-09T07:33:25Z</time>
      </trkpt>
      <trkpt lat="46.680032" lon="11.116297">
        <ele>368.335</ele>
        <time>2022-07-09T07:33:44Z</time>
      </trkpt>
      <trkpt lat="46.680022" lon="11.116226">
        <ele>368.836</ele>
        <time>2022-07-09T07:34:01Z</time>
      </trkpt>
      <trkpt lat="46.680028" lon="11.116207">
        <ele>368.834</ele>
        <time>2022-07-09T07:34:02Z</time>
      </trkpt>
      <trkpt lat="46.680039" lon="11.116184">
        <ele>368.888</ele>
        <time>2022-07-09T07:34:03Z</time>
      </trkpt>
      <trkpt lat="46.680048" lon="11.116155">
        <ele>368.867</ele>
        <time>2022-07-09T07:34:04Z</time>
      </trkpt>
      <trkpt lat="46.680054" lon="11.116124">
        <ele>368.881</ele>
        <time>2022-07-09T07:34:05Z</time>
      </trkpt>
      <trkpt lat="46.680061" lon="11.116087">
        <ele>368.819</ele>
        <time>2022-07-09T07:34:06Z</time>
      </trkpt>
      <trkpt lat="46.680194" lon="11.115362">
        <ele>370.209</ele>
        <time>2022-07-09T07:34:24Z</time>
      </trkpt>
      <trkpt lat="46.680337" lon="11.114614">
        <ele>372.667</ele>
        <time>2022-07-09T07:34:45Z</time>
      </trkpt>
      <trkpt lat="46.680409" lon="11.113789">
        <ele>375.076</ele>
        <time>2022-07-09T07:35:09Z</time>
      </trkpt>
      <trkpt lat="46.680455" lon="11.113195">
        <ele>377.414</ele>
        <time>2022-07-09T07:35:28Z</time>
      </trkpt>
      <trkpt lat="46.680459" lon="11.112586">
        <ele>379.366</ele>
        <time>2022-07-09T07:35:48Z</time>
      </trkpt>
      <trkpt lat="46.680422" lon="11.112053">
        <ele>381.722</ele>
        <time>2022-07-09T07:36:06Z</time>
      </trkpt>
      <trkpt lat="46.680404" lon="11.111422">
        <ele>383.786</ele>
        <time>2022-07-09T07:36:26Z</time>
      </trkpt>
      <trkpt lat="46.680460" lon="11.110780">
        <ele>386.597</ele>
        <time>2022-07-09T07:36:47Z</time>
      </trkpt>
      <trkpt lat="46.680463" lon="11.110752">
        <ele>386.545</ele>
        <time>2022-07-09T07:36:48Z</time>
      </trkpt>
      <trkpt lat="46.680502" lon="11.110213">
        <ele>387.099</ele>
        <time>2022-07-09T07:37:05Z</time>
      </trkpt>
      <trkpt lat="46.680509" lon="11.110156">
        <ele>388.563</ele>
        <time>2022-07-09T07:37:07Z</time>
      </trkpt>
      <trkpt lat="46.680517" lon="11.110097">
        <ele>387.044</ele>
        <time>2022-07-09T07:37:09Z</time>
      </trkpt>
      <trkpt lat="46.680522" lon="11.110001">
        <ele>389.418</ele>
        <time>2022-07-09T07:37:12Z</time>
      </trkpt>
      <trkpt lat="46.680515" lon="11.109391">
        <ele>390.409</ele>
        <time>2022-07-09T07:37:32Z</time>
      </trkpt>
      <trkpt lat="46.680456" lon="11.108871">
        <ele>392.867</ele>
        <time>2022-07-09T07:37:51Z</time>
      </trkpt>
      <trkpt lat="46.680333" lon="11.108384">
        <ele>395.766</ele>
        <time>2022-07-09T07:38:09Z</time>
      </trkpt>
      <trkpt lat="46.680177" lon="11.107940">
        <ele>398.124</ele>
        <time>2022-07-09T07:38:29Z</time>
      </trkpt>
      <trkpt lat="46.680068" lon="11.107508">
        <ele>401.086</ele>
        <time>2022-07-09T07:38:48Z</time>
      </trkpt>
      <trkpt lat="46.680006" lon="11.107059">
        <ele>403.812</ele>
        <time>2022-07-09T07:39:07Z</time>
      </trkpt>
      <trkpt lat="46.679988" lon="11.106601">
        <ele>405.386</ele>
        <time>2022-07-09T07:39:25Z</time>
      </trkpt>
      <trkpt lat="46.680010" lon="11.106038">
        <ele>408.797</ele>
        <time>2022-07-09T07:39:47Z</time>
      </trkpt>
      <trkpt lat="46.680064" lon="11.105475">
        <ele>411.125</ele>
        <time>2022-07-09T07:40:09Z</time>
      </trkpt>
      <trkpt lat="46.680102" lon="11.104988">
        <ele>412.599</ele>
        <time>2022-07-09T07:40:27Z</time>
      </trkpt>
      <trkpt lat="46.680109" lon="11.104619">
        <ele>415.974</ele>
        <time>2022-07-09T07:40:43Z</time>
      </trkpt>
      <trkpt lat="46.680121" lon="11.104293">
        <ele>417.356</ele>
        <time>2022-07-09T07:40:58Z</time>
      </trkpt>
      <trkpt lat="46.680155" lon="11.103862">
        <ele>419.221</ele>
        <time>2022-07-09T07:41:17Z</time>
      </trkpt>
      <trkpt lat="46.680197" lon="11.103510">
        <ele>421.109</ele>
        <time>2022-07-09T07:41:33Z</time>
      </trkpt>
      <trkpt lat="46.680295" lon="11.103098">
        <ele>424.038</ele>
        <time>2022-07-09T07:41:52Z</time>
      </trkpt>
      <trkpt lat="46.680545" lon="11.102882">
        <ele>426.447</ele>
        <time>2022-07-09T07:42:11Z</time>
      </trkpt>
      <trkpt lat="46.680664" lon="11.102520">
        <ele>429.335</ele>
        <time>2022-07-09T07:42:30Z</time>
      </trkpt>
      <trkpt lat="46.680788" lon="11.102179">
        <ele>431.757</ele>
        <time>2022-07-09T07:42:48Z</time>
      </trkpt>
      <trkpt lat="46.680949" lon="11.101926">
        <ele>434.633</ele>
        <time>2022-07-09T07:43:07Z</time>
      </trkpt>
      <trkpt lat="46.681088" lon="11.101697">
        <ele>437.587</ele>
        <time>2022-07-09T07:43:26Z</time>
      </trkpt>
      <trkpt lat="46.681192" lon="11.101463">
        <ele>439.928</ele>
        <time>2022-07-09T07:43:43Z</time>
      </trkpt>
      <trkpt lat="46.681222" lon="11.101180">
        <ele>442.346</ele>
        <time>2022-07-09T07:44:00Z</time>
      </trkpt>
      <trkpt lat="46.681222" lon="11.101144">
        <ele>442.840</ele>
        <time>2022-07-09T07:44:02Z</time>
      </trkpt>
      <trkpt lat="46.681237" lon="11.101092">
        <ele>443.349</ele>
        <time>2022-07-09T07:44:05Z</time>
      </trkpt>
      <trkpt lat="46.681245" lon="11.101081">
        <ele>443.302</ele>
        <time>2022-07-09T07:44:06Z</time>
      </trkpt>
      <trkpt lat="46.681255" lon="11.101072">
        <ele>443.322</ele>
        <time>2022-07-09T07:44:07Z</time>
      </trkpt>
      <trkpt lat="46.681263" lon="11.101064">
        <ele>443.709</ele>
        <time>2022-07-09T07:44:08Z</time>
      </trkpt>
      <trkpt lat="46.681272" lon="11.101055">
        <ele>443.795</ele>
        <time>2022-07-09T07:44:09Z</time>
      </trkpt>
      <trkpt lat="46.681281" lon="11.101047">
        <ele>443.714</ele>
        <time>2022-07-09T07:44:10Z</time>
      </trkpt>
      <trkpt lat="46.681293" lon="11.101042">
        <ele>444.242</ele>
        <time>2022-07-09T07:44:11Z</time>
      </trkpt>
      <trkpt lat="46.681444" lon="11.101131">
        <ele>446.174</ele>
        <time>2022-07-09T07:44:27Z</time>
      </trkpt>
      <trkpt lat="46.681447" lon="11.101096">
        <ele>446.670</ele>
        <time>2022-07-09T07:44:30Z</time>
      </trkpt>
      <trkpt lat="46.681437" lon="11.101087">
        <ele>446.634</ele>
        <time>2022-07-09T07:44:31Z</time>
      </trkpt>
      <trkpt lat="46.681424" lon="11.101076">
        <ele>446.615</ele>
        <time>2022-07-09T07:44:32Z</time>
      </trkpt>
      <trkpt lat="46.681415" lon="11.101064">
        <ele>446.643</ele>
        <time>2022-07-09T07:44:33Z</time>
      </trkpt>
      <trkpt lat="46.681404" lon="11.101052">
        <ele>446.677</ele>
        <time>2022-07-09T07:44:34Z</time>
      </trkpt>
      <trkpt lat="46.681392" lon="11.101045">
        <ele>446.621</ele>
        <time>2022-07-09T07:44:35Z</time>
      </trkpt>
      <trkpt lat="46.681380" lon="11.101040">
        <ele>446.641</ele>
        <time>2022-07-09T07:44:36Z</time>
      </trkpt>
      <trkpt lat="46.681372" lon="11.101044">
        <ele>446.605</ele>
        <time>2022-07-09T07:44:52Z</time>
      </trkpt>
      <trkpt lat="46.681353" lon="11.101032">
        <ele>446.609</ele>
        <time>2022-07-09T07:45:22Z</time>
      </trkpt>
      <trkpt lat="46.681375" lon="11.101033">
        <ele>446.653</ele>
        <time>2022-07-09T07:45:28Z</time>
      </trkpt>
      <trkpt lat="46.681387" lon="11.101062">
        <ele>446.632</ele>
        <time>2022-07-09T07:45:30Z</time>
      </trkpt>
      <trkpt lat="46.681397" lon="11.101081">
        <ele>446.690</ele>
        <time>2022-07-09T07:45:31Z</time>
      </trkpt>
      <trkpt lat="46.681499" lon="11.101421">
        <ele>448.192</ele>
        <time>2022-07-09T07:45:47Z</time>
      </trkpt>
      <trkpt lat="46.681513" lon="11.101718">
        <ele>449.598</ele>
        <time>2022-07-09T07:46:00Z</time>
      </trkpt>
      <trkpt lat="46.681519" lon="11.101741">
        <ele>450.042</ele>
        <time>2022-07-09T07:46:01Z</time>
      </trkpt>
      <trkpt lat="46.681528" lon="11.101766">
        <ele>450.023</ele>
        <time>2022-07-09T07:46:02Z</time>
      </trkpt>
      <trkpt lat="46.681539" lon="11.101777">
        <ele>450.021</ele>
        <time>2022-07-09T07:46:03Z</time>
      </trkpt>
      <trkpt lat="46.681554" lon="11.101781">
        <ele>450.085</ele>
        <time>2022-07-09T07:46:04Z</time>
      </trkpt>
      <trkpt lat="46.681569" lon="11.101777">
        <ele>450.025</ele>
        <time>2022-07-09T07:46:05Z</time>
      </trkpt>
      <trkpt lat="46.681582" lon="11.101767">
        <ele>450.026</ele>
        <time>2022-07-09T07:46:06Z</time>
      </trkpt>
      <trkpt lat="46.681591" lon="11.101750">
        <ele>450.008</ele>
        <time>2022-07-09T07:46:07Z</time>
      </trkpt>
      <trkpt lat="46.681597" lon="11.101726">
        <ele>450.009</ele>
        <time>2022-07-09T07:46:08Z</time>
      </trkpt>
      <trkpt lat="46.681599" lon="11.101710">
        <ele>450.093</ele>
        <time>2022-07-09T07:46:09Z</time>
      </trkpt>
      <trkpt lat="46.681599" lon="11.101687">
        <ele>450.572</ele>
        <time>2022-07-09T07:46:10Z</time>
      </trkpt>
      <trkpt lat="46.681616" lon="11.101362">
        <ele>451.950</ele>
        <time>2022-07-09T07:46:25Z</time>
      </trkpt>
      <trkpt lat="46.681755" lon="11.100993">
        <ele>453.882</ele>
        <time>2022-07-09T07:46:43Z</time>
      </trkpt>
      <trkpt lat="46.681884" lon="11.100527">
        <ele>455.818</ele>
        <time>2022-07-09T07:47:04Z</time>
      </trkpt>
      <trkpt lat="46.681745" lon="11.100135">
        <ele>457.212</ele>
        <time>2022-07-09T07:47:20Z</time>
      </trkpt>
      <trkpt lat="46.681741" lon="11.099957">
        <ele>458.643</ele>
        <time>2022-07-09T07:47:28Z</time>
      </trkpt>
      <trkpt lat="46.681755" lon="11.099949">
        <ele>458.661</ele>
        <time>2022-07-09T07:47:29Z</time>
      </trkpt>
      <trkpt lat="46.681776" lon="11.099949">
        <ele>458.665</ele>
        <time>2022-07-09T07:47:30Z</time>
      </trkpt>
      <trkpt lat="46.681796" lon="11.099955">
        <ele>458.691</ele>
        <time>2022-07-09T07:47:31Z</time>
      </trkpt>
      <trkpt lat="46.681817" lon="11.099965">
        <ele>458.681</ele>
        <time>2022-07-09T07:47:32Z</time>
      </trkpt>
      <trkpt lat="46.681838" lon="11.099976">
        <ele>459.119</ele>
        <time>2022-07-09T07:47:33Z</time>
      </trkpt>
      <trkpt lat="46.682167" lon="11.100243">
        <ele>460.609</ele>
        <time>2022-07-09T07:47:52Z</time>
      </trkpt>
      <trkpt lat="46.682095" lon="11.100488">
        <ele>463.050</ele>
        <time>2022-07-09T07:48:05Z</time>
      </trkpt>
      <trkpt lat="46.681979" lon="11.100883">
        <ele>464.979</ele>
        <time>2022-07-09T07:48:23Z</time>
      </trkpt>
      <trkpt lat="46.681864" lon="11.101315">
        <ele>467.387</ele>
        <time>2022-07-09T07:48:43Z</time>
      </trkpt>
      <trkpt lat="46.681842" lon="11.101727">
        <ele>469.279</ele>
        <time>2022-07-09T07:49:01Z</time>
      </trkpt>
      <trkpt lat="46.681872" lon="11.101842">
        <ele>469.775</ele>
        <time>2022-07-09T07:49:07Z</time>
      </trkpt>
      <trkpt lat="46.681898" lon="11.101844">
        <ele>470.259</ele>
        <time>2022-07-09T07:49:08Z</time>
      </trkpt>
      <trkpt lat="46.681914" lon="11.101835">
        <ele>470.260</ele>
        <time>2022-07-09T07:49:09Z</time>
      </trkpt>
      <trkpt lat="46.681925" lon="11.101818">
        <ele>470.268</ele>
        <time>2022-07-09T07:49:10Z</time>
      </trkpt>
      <trkpt lat="46.681929" lon="11.101797">
        <ele>470.272</ele>
        <time>2022-07-09T07:49:11Z</time>
      </trkpt>
      <trkpt lat="46.681932" lon="11.101769">
        <ele>470.211</ele>
        <time>2022-07-09T07:49:12Z</time>
      </trkpt>
      <trkpt lat="46.681932" lon="11.101748">
        <ele>470.721</ele>
        <time>2022-07-09T07:49:13Z</time>
      </trkpt>
      <trkpt lat="46.681930" lon="11.101721">
        <ele>470.703</ele>
        <time>2022-07-09T07:49:14Z</time>
      </trkpt>
      <trkpt lat="46.682000" lon="11.101293">
        <ele>473.109</ele>
        <time>2022-07-09T07:49:33Z</time>
      </trkpt>
      <trkpt lat="46.682165" lon="11.100915">
        <ele>474.542</ele>
        <time>2022-07-09T07:49:49Z</time>
      </trkpt>
      <trkpt lat="46.682238" lon="11.100762">
        <ele>475.011</ele>
        <time>2022-07-09T07:49:57Z</time>
      </trkpt>
      <trkpt lat="46.682255" lon="11.100769">
        <ele>475.069</ele>
        <time>2022-07-09T07:49:58Z</time>
      </trkpt>
      <trkpt lat="46.682264" lon="11.100784">
        <ele>475.061</ele>
        <time>2022-07-09T07:49:59Z</time>
      </trkpt>
      <trkpt lat="46.682266" lon="11.100810">
        <ele>475.597</ele>
        <time>2022-07-09T07:50:00Z</time>
      </trkpt>
      <trkpt lat="46.682260" lon="11.100835">
        <ele>475.541</ele>
        <time>2022-07-09T07:50:01Z</time>
      </trkpt>
      <trkpt lat="46.682249" lon="11.100856">
        <ele>475.542</ele>
        <time>2022-07-09T07:50:02Z</time>
      </trkpt>
      <trkpt lat="46.682235" lon="11.100873">
        <ele>475.590</ele>
        <time>2022-07-09T07:50:03Z</time>
      </trkpt>
      <trkpt lat="46.682220" lon="11.100887">
        <ele>475.534</ele>
        <time>2022-07-09T07:50:04Z</time>
      </trkpt>
      <trkpt lat="46.682099" lon="11.101232">
        <ele>476.917</ele>
        <time>2022-07-09T07:50:20Z</time>
      </trkpt>
      <trkpt lat="46.682031" lon="11.101701">
        <ele>478.387</ele>
        <time>2022-07-09T07:50:39Z</time>
      </trkpt>
      <trkpt lat="46.682043" lon="11.101717">
        <ele>478.315</ele>
        <time>2022-07-09T07:50:40Z</time>
      </trkpt>
      <trkpt lat="46.682062" lon="11.101726">
        <ele>478.309</ele>
        <time>2022-07-09T07:50:41Z</time>
      </trkpt>
      <trkpt lat="46.682081" lon="11.101733">
        <ele>478.332</ele>
        <time>2022-07-09T07:50:42Z</time>
      </trkpt>
      <trkpt lat="46.682101" lon="11.101745">
        <ele>478.891</ele>
        <time>2022-07-09T07:50:43Z</time>
      </trkpt>
      <trkpt lat="46.682116" lon="11.101751">
        <ele>478.859</ele>
        <time>2022-07-09T07:50:44Z</time>
      </trkpt>
      <trkpt lat="46.682129" lon="11.101748">
        <ele>478.841</ele>
        <time>2022-07-09T07:50:58Z</time>
      </trkpt>
      <trkpt lat="46.682174" lon="11.101746">
        <ele>478.887</ele>
        <time>2022-07-09T07:51:29Z</time>
      </trkpt>
      <trkpt lat="46.682190" lon="11.101745">
        <ele>478.881</ele>
        <time>2022-07-09T07:51:30Z</time>
      </trkpt>
      <trkpt lat="46.682208" lon="11.101743">
        <ele>478.842</ele>
        <time>2022-07-09T07:51:31Z</time>
      </trkpt>
      <trkpt lat="46.682381" lon="11.101431">
        <ele>479.870</ele>
        <time>2022-07-09T07:51:45Z</time>
      </trkpt>
      <trkpt lat="46.682507" lon="11.100934">
        <ele>483.294</ele>
        <time>2022-07-09T07:52:03Z</time>
      </trkpt>
      <trkpt lat="46.682598" lon="11.100443">
        <ele>485.623</ele>
        <time>2022-07-09T07:52:22Z</time>
      </trkpt>
      <trkpt lat="46.682766" lon="11.099869">
        <ele>487.083</ele>
        <time>2022-07-09T07:52:43Z</time>
      </trkpt>
      <trkpt lat="46.682908" lon="11.099272">
        <ele>488.911</ele>
        <time>2022-07-09T07:53:03Z</time>
      </trkpt>
      <trkpt lat="46.683018" lon="11.098669">
        <ele>491.309</ele>
        <time>2022-07-09T07:53:23Z</time>
      </trkpt>
      <trkpt lat="46.683123" lon="11.097968">
        <ele>493.273</ele>
        <time>2022-07-09T07:53:46Z</time>
      </trkpt>
      <trkpt lat="46.683142" lon="11.097372">
        <ele>495.762</ele>
        <time>2022-07-09T07:54:05Z</time>
      </trkpt>
      <trkpt lat="46.683169" lon="11.096771">
        <ele>496.690</ele>
        <time>2022-07-09T07:54:22Z</time>
      </trkpt>
      <trkpt lat="46.683238" lon="11.095915">
        <ele>497.622</ele>
        <time>2022-07-09T07:54:40Z</time>
      </trkpt>
      <trkpt lat="46.683138" lon="11.095669">
        <ele>500.928</ele>
        <time>2022-07-09T07:54:55Z</time>
      </trkpt>
      <trkpt lat="46.683107" lon="11.095594">
        <ele>501.452</ele>
        <time>2022-07-09T07:55:00Z</time>
      </trkpt>
      <trkpt lat="46.683100" lon="11.095580">
        <ele>501.943</ele>
        <time>2022-07-09T07:55:01Z</time>
      </trkpt>
      <trkpt lat="46.683092" lon="11.095569">
        <ele>501.961</ele>
        <time>2022-07-09T07:55:02Z</time>
      </trkpt>
      <trkpt lat="46.683084" lon="11.095554">
        <ele>502.425</ele>
        <time>2022-07-09T07:55:03Z</time>
      </trkpt>
      <trkpt lat="46.683077" lon="11.095540">
        <ele>502.458</ele>
        <time>2022-07-09T07:55:04Z</time>
      </trkpt>
      <trkpt lat="46.683060" lon="11.095475">
        <ele>503.852</ele>
        <time>2022-07-09T07:55:08Z</time>
      </trkpt>
      <trkpt lat="46.683060" lon="11.095458">
        <ele>503.817</ele>
        <time>2022-07-09T07:55:09Z</time>
      </trkpt>
      <trkpt lat="46.683060" lon="11.095441">
        <ele>503.809</ele>
        <time>2022-07-09T07:55:10Z</time>
      </trkpt>
      <trkpt lat="46.683131" lon="11.095099">
        <ele>506.226</ele>
        <time>2022-07-09T07:55:29Z</time>
      </trkpt>
      <trkpt lat="46.683103" lon="11.094714">
        <ele>508.665</ele>
        <time>2022-07-09T07:55:49Z</time>
      </trkpt>
      <trkpt lat="46.683092" lon="11.094674">
        <ele>508.683</ele>
        <time>2022-07-09T07:55:51Z</time>
      </trkpt>
      <trkpt lat="46.683080" lon="11.094656">
        <ele>508.635</ele>
        <time>2022-07-09T07:55:52Z</time>
      </trkpt>
      <trkpt lat="46.683066" lon="11.094643">
        <ele>508.651</ele>
        <time>2022-07-09T07:55:53Z</time>
      </trkpt>
      <trkpt lat="46.683053" lon="11.094634">
        <ele>508.655</ele>
        <time>2022-07-09T07:55:54Z</time>
      </trkpt>
      <trkpt lat="46.683036" lon="11.094628">
        <ele>509.136</ele>
        <time>2022-07-09T07:55:55Z</time>
      </trkpt>
      <trkpt lat="46.683017" lon="11.094625">
        <ele>509.174</ele>
        <time>2022-07-09T07:55:56Z</time>
      </trkpt>
      <trkpt lat="46.682741" lon="11.094671">
        <ele>508.688</ele>
        <time>2022-07-09T07:56:10Z</time>
      </trkpt>
      <trkpt lat="46.682529" lon="11.095022">
        <ele>508.614</ele>
        <time>2022-07-09T07:56:24Z</time>
      </trkpt>
      <trkpt lat="46.682421" lon="11.095291">
        <ele>509.154</ele>
        <time>2022-07-09T07:56:33Z</time>
      </trkpt>
      <trkpt lat="46.682400" lon="11.095296">
        <ele>509.109</ele>
        <time>2022-07-09T07:56:34Z</time>
      </trkpt>
      <trkpt lat="46.682377" lon="11.095293">
        <ele>509.109</ele>
        <time>2022-07-09T07:56:35Z</time>
      </trkpt>
      <trkpt lat="46.682355" lon="11.095283">
        <ele>509.142</ele>
        <time>2022-07-09T07:56:36Z</time>
      </trkpt>
      <trkpt lat="46.682331" lon="11.095273">
        <ele>509.181</ele>
        <time>2022-07-09T07:56:37Z</time>
      </trkpt>
      <trkpt lat="46.682304" lon="11.095264">
        <ele>509.199</ele>
        <time>2022-07-09T07:56:38Z</time>
      </trkpt>
      <trkpt lat="46.682276" lon="11.095258">
        <ele>509.161</ele>
        <time>2022-07-09T07:56:39Z</time>
      </trkpt>
      <trkpt lat="46.682007" lon="11.094939">
        <ele>509.627</ele>
        <time>2022-07-09T07:56:52Z</time>
      </trkpt>
      <trkpt lat="46.681719" lon="11.094326">
        <ele>510.671</ele>
        <time>2022-07-09T07:57:09Z</time>
      </trkpt>
      <trkpt lat="46.681746" lon="11.093613">
        <ele>510.672</ele>
        <time>2022-07-09T07:57:22Z</time>
      </trkpt>
      <trkpt lat="46.681753" lon="11.093434">
        <ele>510.630</ele>
        <time>2022-07-09T07:57:25Z</time>
      </trkpt>
      <trkpt lat="46.681600" lon="11.092562">
        <ele>510.634</ele>
        <time>2022-07-09T07:57:42Z</time>
      </trkpt>
      <trkpt lat="46.681212" lon="11.092129">
        <ele>511.575</ele>
        <time>2022-07-09T07:57:56Z</time>
      </trkpt>
      <trkpt lat="46.680793" lon="11.091901">
        <ele>512.528</ele>
        <time>2022-07-09T07:58:10Z</time>
      </trkpt>
      <trkpt lat="46.680315" lon="11.091773">
        <ele>514.920</ele>
        <time>2022-07-09T07:58:27Z</time>
      </trkpt>
      <trkpt lat="46.680103" lon="11.091428">
        <ele>516.809</ele>
        <time>2022-07-09T07:58:40Z</time>
      </trkpt>
      <trkpt lat="46.680020" lon="11.091167">
        <ele>517.378</ele>
        <time>2022-07-09T07:58:48Z</time>
      </trkpt>
      <trkpt lat="46.680015" lon="11.091148">
        <ele>517.387</ele>
        <time>2022-07-09T07:58:49Z</time>
      </trkpt>
      <trkpt lat="46.680010" lon="11.091130">
        <ele>517.385</ele>
        <time>2022-07-09T07:58:50Z</time>
      </trkpt>
      <trkpt lat="46.680006" lon="11.091110">
        <ele>517.347</ele>
        <time>2022-07-09T07:58:51Z</time>
      </trkpt>
      <trkpt lat="46.680000" lon="11.091085">
        <ele>517.353</ele>
        <time>2022-07-09T07:58:52Z</time>
      </trkpt>
      <trkpt lat="46.679989" lon="11.091064">
        <ele>517.867</ele>
        <time>2022-07-09T07:58:53Z</time>
      </trkpt>
      <trkpt lat="46.679970" lon="11.091050">
        <ele>517.828</ele>
        <time>2022-07-09T07:58:54Z</time>
      </trkpt>
      <trkpt lat="46.679948" lon="11.091049">
        <ele>517.826</ele>
        <time>2022-07-09T07:58:55Z</time>
      </trkpt>
      <trkpt lat="46.679930" lon="11.091051">
        <ele>517.840</ele>
        <time>2022-07-09T07:58:56Z</time>
      </trkpt>
      <trkpt lat="46.679912" lon="11.091059">
        <ele>517.873</ele>
        <time>2022-07-09T07:58:57Z</time>
      </trkpt>
      <trkpt lat="46.679893" lon="11.091072">
        <ele>517.885</ele>
        <time>2022-07-09T07:58:58Z</time>
      </trkpt>
      <trkpt lat="46.679874" lon="11.091079">
        <ele>517.813</ele>
        <time>2022-07-09T07:58:59Z</time>
      </trkpt>
      <trkpt lat="46.679855" lon="11.091070">
        <ele>517.809</ele>
        <time>2022-07-09T07:59:00Z</time>
      </trkpt>
      <trkpt lat="46.679840" lon="11.091039">
        <ele>517.838</ele>
        <time>2022-07-09T07:59:01Z</time>
      </trkpt>
      <trkpt lat="46.679840" lon="11.091024">
        <ele>517.847</ele>
        <time>2022-07-09T07:59:02Z</time>
      </trkpt>
      <trkpt lat="46.679837" lon="11.090996">
        <ele>517.825</ele>
        <time>2022-07-09T07:59:03Z</time>
      </trkpt>
      <trkpt lat="46.679832" lon="11.090974">
        <ele>517.867</ele>
        <time>2022-07-09T07:59:04Z</time>
      </trkpt>
      <trkpt lat="46.679696" lon="11.090355">
        <ele>518.283</ele>
        <time>2022-07-09T07:59:18Z</time>
      </trkpt>
      <trkpt lat="46.679393" lon="11.089608">
        <ele>518.787</ele>
        <time>2022-07-09T07:59:36Z</time>
      </trkpt>
      <trkpt lat="46.679061" lon="11.088890">
        <ele>519.788</ele>
        <time>2022-07-09T07:59:54Z</time>
      </trkpt>
      <trkpt lat="46.678982" lon="11.088747">
        <ele>519.796</ele>
        <time>2022-07-09T07:59:57Z</time>
      </trkpt>
      <trkpt lat="46.678452" lon="11.088131">
        <ele>516.850</ele>
        <time>2022-07-09T08:00:10Z</time>
      </trkpt>
      <trkpt lat="46.678052" lon="11.087396">
        <ele>516.868</ele>
        <time>2022-07-09T08:00:25Z</time>
      </trkpt>
      <trkpt lat="46.678006" lon="11.087137">
        <ele>518.242</ele>
        <time>2022-07-09T08:00:30Z</time>
      </trkpt>
      <trkpt lat="46.677805" lon="11.086677">
        <ele>518.226</ele>
        <time>2022-07-09T08:00:39Z</time>
      </trkpt>
      <trkpt lat="46.677782" lon="11.086636">
        <ele>518.209</ele>
        <time>2022-07-09T08:00:40Z</time>
      </trkpt>
      <trkpt lat="46.677535" lon="11.086125">
        <ele>518.277</ele>
        <time>2022-07-09T08:00:50Z</time>
      </trkpt>
      <trkpt lat="46.677518" lon="11.086065">
        <ele>518.296</ele>
        <time>2022-07-09T08:00:51Z</time>
      </trkpt>
      <trkpt lat="46.677220" lon="11.085076">
        <ele>519.214</ele>
        <time>2022-07-09T08:01:09Z</time>
      </trkpt>
      <trkpt lat="46.677012" lon="11.084698">
        <ele>520.246</ele>
        <time>2022-07-09T08:01:20Z</time>
      </trkpt>
      <trkpt lat="46.676650" lon="11.084229">
        <ele>520.292</ele>
        <time>2022-07-09T08:01:33Z</time>
      </trkpt>
      <trkpt lat="46.675974" lon="11.083713">
        <ele>519.276</ele>
        <time>2022-07-09T08:01:50Z</time>
      </trkpt>
      <trkpt lat="46.675217" lon="11.083152">
        <ele>519.287</ele>
        <time>2022-07-09T08:02:09Z</time>
      </trkpt>
      <trkpt lat="46.674903" lon="11.082902">
        <ele>520.215</ele>
        <time>2022-07-09T08:02:18Z</time>
      </trkpt>
      <trkpt lat="46.674295" lon="11.082359">
        <ele>520.629</ele>
        <time>2022-07-09T08:02:37Z</time>
      </trkpt>
      <trkpt lat="46.673963" lon="11.081963">
        <ele>520.666</ele>
        <time>2022-07-09T08:02:47Z</time>
      </trkpt>
      <trkpt lat="46.673342" lon="11.081105">
        <ele>520.629</ele>
        <time>2022-07-09T08:03:05Z</time>
      </trkpt>
      <trkpt lat="46.672739" lon="11.080342">
        <ele>520.621</ele>
        <time>2022-07-09T08:03:23Z</time>
      </trkpt>
      <trkpt lat="46.672207" lon="11.079647">
        <ele>520.609</ele>
        <time>2022-07-09T08:03:39Z</time>
      </trkpt>
      <trkpt lat="46.671997" lon="11.079315">
        <ele>520.697</ele>
        <time>2022-07-09T08:03:46Z</time>
      </trkpt>
      <trkpt lat="46.671338" lon="11.078537">
        <ele>520.646</ele>
        <time>2022-07-09T08:04:05Z</time>
      </trkpt>
      <trkpt lat="46.670982" lon="11.078084">
        <ele>521.174</ele>
        <time>2022-07-09T08:04:17Z</time>
      </trkpt>
      <trkpt lat="46.670322" lon="11.077262">
        <ele>521.146</ele>
        <time>2022-07-09T08:04:37Z</time>
      </trkpt>
      <trkpt lat="46.669697" lon="11.076364">
        <ele>521.152</ele>
        <time>2022-07-09T08:04:57Z</time>
      </trkpt>
      <trkpt lat="46.669139" lon="11.075420">
        <ele>521.636</ele>
        <time>2022-07-09T08:05:16Z</time>
      </trkpt>
      <trkpt lat="46.668697" lon="11.074565">
        <ele>522.177</ele>
        <time>2022-07-09T08:05:33Z</time>
      </trkpt>
      <trkpt lat="46.668289" lon="11.073650">
        <ele>524.065</ele>
        <time>2022-07-09T08:05:51Z</time>
      </trkpt>
      <trkpt lat="46.667925" lon="11.072770">
        <ele>523.589</ele>
        <time>2022-07-09T08:06:07Z</time>
      </trkpt>
      <trkpt lat="46.667469" lon="11.071662">
        <ele>523.552</ele>
        <time>2022-07-09T08:06:27Z</time>
      </trkpt>
      <trkpt lat="46.666931" lon="11.070375">
        <ele>524.553</ele>
        <time>2022-07-09T08:06:51Z</time>
      </trkpt>
      <trkpt lat="46.666437" lon="11.069163">
        <ele>524.508</ele>
        <time>2022-07-09T08:07:12Z</time>
      </trkpt>
      <trkpt lat="46.666177" lon="11.068548">
        <ele>524.509</ele>
        <time>2022-07-09T08:07:26Z</time>
      </trkpt>
      <trkpt lat="46.665860" lon="11.067813">
        <ele>524.526</ele>
        <time>2022-07-09T08:07:41Z</time>
      </trkpt>
      <trkpt lat="46.665409" lon="11.066749">
        <ele>525.025</ele>
        <time>2022-07-09T08:08:03Z</time>
      </trkpt>
      <trkpt lat="46.664974" lon="11.065685">
        <ele>525.553</ele>
        <time>2022-07-09T08:08:23Z</time>
      </trkpt>
      <trkpt lat="46.664563" lon="11.064706">
        <ele>525.535</ele>
        <time>2022-07-09T08:08:41Z</time>
      </trkpt>
      <trkpt lat="46.664317" lon="11.064105">
        <ele>525.551</ele>
        <time>2022-07-09T08:08:52Z</time>
      </trkpt>
      <trkpt lat="46.663936" lon="11.063207">
        <ele>525.985</ele>
        <time>2022-07-09T08:09:09Z</time>
      </trkpt>
      <trkpt lat="46.663607" lon="11.062417">
        <ele>525.996</ele>
        <time>2022-07-09T08:09:24Z</time>
      </trkpt>
      <trkpt lat="46.663191" lon="11.061443">
        <ele>526.454</ele>
        <time>2022-07-09T08:09:42Z</time>
      </trkpt>
      <trkpt lat="46.662713" lon="11.060294">
        <ele>526.938</ele>
        <time>2022-07-09T08:10:04Z</time>
      </trkpt>
      <trkpt lat="46.662313" lon="11.059138">
        <ele>526.972</ele>
        <time>2022-07-09T08:10:24Z</time>
      </trkpt>
      <trkpt lat="46.661981" lon="11.057907">
        <ele>527.413</ele>
        <time>2022-07-09T08:10:44Z</time>
      </trkpt>
      <trkpt lat="46.661779" lon="11.056924">
        <ele>527.414</ele>
        <time>2022-07-09T08:11:00Z</time>
      </trkpt>
      <trkpt lat="46.661635" lon="11.055717">
        <ele>527.409</ele>
        <time>2022-07-09T08:11:19Z</time>
      </trkpt>
      <trkpt lat="46.661548" lon="11.054744">
        <ele>527.958</ele>
        <time>2022-07-09T08:11:35Z</time>
      </trkpt>
      <trkpt lat="46.661524" lon="11.053530">
        <ele>528.817</ele>
        <time>2022-07-09T08:11:54Z</time>
      </trkpt>
      <trkpt lat="46.661514" lon="11.052293">
        <ele>528.815</ele>
        <time>2022-07-09T08:12:13Z</time>
      </trkpt>
      <trkpt lat="46.661494" lon="11.051100">
        <ele>529.397</ele>
        <time>2022-07-09T08:12:31Z</time>
      </trkpt>
      <trkpt lat="46.661443" lon="11.049816">
        <ele>529.313</ele>
        <time>2022-07-09T08:12:50Z</time>
      </trkpt>
      <trkpt lat="46.661319" lon="11.048466">
        <ele>529.347</ele>
        <time>2022-07-09T08:13:11Z</time>
      </trkpt>
      <trkpt lat="46.661111" lon="11.047282">
        <ele>529.888</ele>
        <time>2022-07-09T08:13:30Z</time>
      </trkpt>
      <trkpt lat="46.660954" lon="11.046561">
        <ele>530.326</ele>
        <time>2022-07-09T08:13:42Z</time>
      </trkpt>
      <trkpt lat="46.660677" lon="11.045612">
        <ele>530.370</ele>
        <time>2022-07-09T08:13:58Z</time>
      </trkpt>
      <trkpt lat="46.660316" lon="11.044465">
        <ele>530.748</ele>
        <time>2022-07-09T08:14:17Z</time>
      </trkpt>
      <trkpt lat="46.660150" lon="11.044028">
        <ele>530.761</ele>
        <time>2022-07-09T08:14:25Z</time>
      </trkpt>
      <trkpt lat="46.660131" lon="11.043973">
        <ele>530.717</ele>
        <time>2022-07-09T08:14:26Z</time>
      </trkpt>
      <trkpt lat="46.660006" lon="11.043634">
        <ele>530.709</ele>
        <time>2022-07-09T08:14:32Z</time>
      </trkpt>
      <trkpt lat="46.659631" lon="11.042720">
        <ele>531.215</ele>
        <time>2022-07-09T08:14:49Z</time>
      </trkpt>
      <trkpt lat="46.659273" lon="11.041788">
        <ele>531.214</ele>
        <time>2022-07-09T08:15:06Z</time>
      </trkpt>
      <trkpt lat="46.659130" lon="11.041450">
        <ele>531.742</ele>
        <time>2022-07-09T08:15:13Z</time>
      </trkpt>
      <trkpt lat="46.659084" lon="11.041346">
        <ele>531.774</ele>
        <time>2022-07-09T08:15:15Z</time>
      </trkpt>
      <trkpt lat="46.659066" lon="11.041286">
        <ele>531.760</ele>
        <time>2022-07-09T08:15:16Z</time>
      </trkpt>
      <trkpt lat="46.659050" lon="11.041236">
        <ele>531.794</ele>
        <time>2022-07-09T08:15:17Z</time>
      </trkpt>
      <trkpt lat="46.659034" lon="11.041172">
        <ele>531.715</ele>
        <time>2022-07-09T08:15:18Z</time>
      </trkpt>
      <trkpt lat="46.659019" lon="11.041121">
        <ele>531.723</ele>
        <time>2022-07-09T08:15:19Z</time>
      </trkpt>
      <trkpt lat="46.658998" lon="11.041067">
        <ele>532.257</ele>
        <time>2022-07-09T08:15:20Z</time>
      </trkpt>
      <trkpt lat="46.658882" lon="11.040804">
        <ele>532.258</ele>
        <time>2022-07-09T08:15:25Z</time>
      </trkpt>
      <trkpt lat="46.658855" lon="11.040752">
        <ele>532.252</ele>
        <time>2022-07-09T08:15:26Z</time>
      </trkpt>
      <trkpt lat="46.658560" lon="11.040067">
        <ele>533.117</ele>
        <time>2022-07-09T08:15:42Z</time>
      </trkpt>
      <trkpt lat="46.658410" lon="11.039711">
        <ele>533.109</ele>
        <time>2022-07-09T08:15:51Z</time>
      </trkpt>
      <trkpt lat="46.657998" lon="11.038701">
        <ele>531.746</ele>
        <time>2022-07-09T08:16:10Z</time>
      </trkpt>
      <trkpt lat="46.657548" lon="11.037601">
        <ele>531.785</ele>
        <time>2022-07-09T08:16:30Z</time>
      </trkpt>
      <trkpt lat="46.657101" lon="11.036513">
        <ele>533.153</ele>
        <time>2022-07-09T08:16:50Z</time>
      </trkpt>
      <trkpt lat="46.656612" lon="11.035350">
        <ele>533.165</ele>
        <time>2022-07-09T08:17:11Z</time>
      </trkpt>
      <trkpt lat="46.656244" lon="11.034411">
        <ele>534.181</ele>
        <time>2022-07-09T08:17:28Z</time>
      </trkpt>
      <trkpt lat="46.655781" lon="11.033309">
        <ele>534.195</ele>
        <time>2022-07-09T08:17:47Z</time>
      </trkpt>
      <trkpt lat="46.655351" lon="11.032242">
        <ele>534.636</ele>
        <time>2022-07-09T08:18:06Z</time>
      </trkpt>
      <trkpt lat="46.654987" lon="11.031345">
        <ele>534.634</ele>
        <time>2022-07-09T08:18:22Z</time>
      </trkpt>
      <trkpt lat="46.654573" lon="11.030364">
        <ele>535.138</ele>
        <time>2022-07-09T08:18:40Z</time>
      </trkpt>
      <trkpt lat="46.654188" lon="11.029419">
        <ele>535.139</ele>
        <time>2022-07-09T08:18:57Z</time>
      </trkpt>
      <trkpt lat="46.653738" lon="11.028338">
        <ele>535.101</ele>
        <time>2022-07-09T08:19:17Z</time>
      </trkpt>
      <trkpt lat="46.653421" lon="11.027581">
        <ele>535.521</ele>
        <time>2022-07-09T08:19:33Z</time>
      </trkpt>
      <trkpt lat="46.653311" lon="11.027399">
        <ele>536.009</ele>
        <time>2022-07-09T08:19:45Z</time>
      </trkpt>
      <trkpt lat="46.653336" lon="11.027387">
        <ele>536.064</ele>
        <time>2022-07-09T08:19:59Z</time>
      </trkpt>
      <trkpt lat="46.653327" lon="11.027370">
        <ele>536.033</ele>
        <time>2022-07-09T08:20:25Z</time>
      </trkpt>
      <trkpt lat="46.653321" lon="11.027373">
        <ele>535.591</ele>
        <time>2022-07-09T08:20:49Z</time>
      </trkpt>
      <trkpt lat="46.653333" lon="11.027385">
        <ele>535.563</ele>
        <time>2022-07-09T08:21:09Z</time>
      </trkpt>
      <trkpt lat="46.653326" lon="11.027371">
        <ele>535.579</ele>
        <time>2022-07-09T08:21:31Z</time>
      </trkpt>
      <trkpt lat="46.653304" lon="11.027373">
        <ele>535.193</ele>
        <time>2022-07-09T08:21:56Z</time>
      </trkpt>
      <trkpt lat="46.653354" lon="11.027377">
        <ele>535.184</ele>
        <time>2022-07-09T08:22:22Z</time>
      </trkpt>
      <trkpt lat="46.653353" lon="11.027373">
        <ele>535.172</ele>
        <time>2022-07-09T08:22:43Z</time>
      </trkpt>
      <trkpt lat="46.653367" lon="11.027390">
        <ele>535.126</ele>
        <time>2022-07-09T08:23:15Z</time>
      </trkpt>
      <trkpt lat="46.653344" lon="11.027370">
        <ele>535.535</ele>
        <time>2022-07-09T08:23:39Z</time>
      </trkpt>
      <trkpt lat="46.653346" lon="11.027349">
        <ele>535.586</ele>
        <time>2022-07-09T08:24:03Z</time>
      </trkpt>
      <trkpt lat="46.653337" lon="11.027359">
        <ele>535.514</ele>
        <time>2022-07-09T08:24:25Z</time>
      </trkpt>
      <trkpt lat="46.653335" lon="11.027305">
        <ele>535.509</ele>
        <time>2022-07-09T08:24:37Z</time>
      </trkpt>
      <trkpt lat="46.653331" lon="11.027289">
        <ele>535.554</ele>
        <time>2022-07-09T08:24:38Z</time>
      </trkpt>
      <trkpt lat="46.653321" lon="11.027275">
        <ele>535.523</ele>
        <time>2022-07-09T08:24:39Z</time>
      </trkpt>
      <trkpt lat="46.653314" lon="11.027255">
        <ele>535.541</ele>
        <time>2022-07-09T08:24:40Z</time>
      </trkpt>
      <trkpt lat="46.653305" lon="11.027230">
        <ele>535.553</ele>
        <time>2022-07-09T08:24:41Z</time>
      </trkpt>
      <trkpt lat="46.653052" lon="11.026601">
        <ele>535.549</ele>
        <time>2022-07-09T08:24:55Z</time>
      </trkpt>
      <trkpt lat="46.652637" lon="11.025607">
        <ele>536.073</ele>
        <time>2022-07-09T08:25:15Z</time>
      </trkpt>
      <trkpt lat="46.652574" lon="11.025453">
        <ele>536.044</ele>
        <time>2022-07-09T08:25:18Z</time>
      </trkpt>
      <trkpt lat="46.652553" lon="11.025399">
        <ele>536.082</ele>
        <time>2022-07-09T08:25:19Z</time>
      </trkpt>
      <trkpt lat="46.652091" lon="11.024282">
        <ele>536.556</ele>
        <time>2022-07-09T08:25:41Z</time>
      </trkpt>
      <trkpt lat="46.651743" lon="11.023466">
        <ele>537.065</ele>
        <time>2022-07-09T08:25:57Z</time>
      </trkpt>
      <trkpt lat="46.651296" lon="11.022399">
        <ele>537.968</ele>
        <time>2022-07-09T08:26:17Z</time>
      </trkpt>
      <trkpt lat="46.650852" lon="11.021490">
        <ele>537.914</ele>
        <time>2022-07-09T08:26:35Z</time>
      </trkpt>
      <trkpt lat="46.650423" lon="11.020618">
        <ele>537.909</ele>
        <time>2022-07-09T08:26:52Z</time>
      </trkpt>
      <trkpt lat="46.649981" lon="11.019794">
        <ele>537.977</ele>
        <time>2022-07-09T08:27:09Z</time>
      </trkpt>
      <trkpt lat="46.649355" lon="11.018750">
        <ele>537.976</ele>
        <time>2022-07-09T08:27:31Z</time>
      </trkpt>
      <trkpt lat="46.648718" lon="11.017709">
        <ele>538.984</ele>
        <time>2022-07-09T08:27:53Z</time>
      </trkpt>
      <trkpt lat="46.648152" lon="11.016731">
        <ele>538.966</ele>
        <time>2022-07-09T08:28:13Z</time>
      </trkpt>
      <trkpt lat="46.647578" lon="11.015697">
        <ele>539.472</ele>
        <time>2022-07-09T08:28:34Z</time>
      </trkpt>
      <trkpt lat="46.647148" lon="11.014799">
        <ele>539.926</ele>
        <time>2022-07-09T08:28:52Z</time>
      </trkpt>
      <trkpt lat="46.646696" lon="11.013662">
        <ele>539.457</ele>
        <time>2022-07-09T08:29:14Z</time>
      </trkpt>
      <trkpt lat="46.646374" lon="11.012628">
        <ele>539.995</ele>
        <time>2022-07-09T08:29:32Z</time>
      </trkpt>
      <trkpt lat="46.646056" lon="11.011437">
        <ele>540.479</ele>
        <time>2022-07-09T08:29:52Z</time>
      </trkpt>
      <trkpt lat="46.645896" lon="11.010710">
        <ele>540.876</ele>
        <time>2022-07-09T08:30:04Z</time>
      </trkpt>
      <trkpt lat="46.645726" lon="11.009565">
        <ele>541.890</ele>
        <time>2022-07-09T08:30:22Z</time>
      </trkpt>
      <trkpt lat="46.645629" lon="11.008586">
        <ele>542.319</ele>
        <time>2022-07-09T08:30:37Z</time>
      </trkpt>
      <trkpt lat="46.645577" lon="11.007715">
        <ele>542.809</ele>
        <time>2022-07-09T08:30:50Z</time>
      </trkpt>
      <trkpt lat="46.645546" lon="11.006590">
        <ele>543.278</ele>
        <time>2022-07-09T08:31:07Z</time>
      </trkpt>
      <trkpt lat="46.645554" lon="11.005315">
        <ele>543.747</ele>
        <time>2022-07-09T08:31:26Z</time>
      </trkpt>
      <trkpt lat="46.645564" lon="11.004887">
        <ele>545.685</ele>
        <time>2022-07-09T08:31:38Z</time>
      </trkpt>
      <trkpt lat="46.645562" lon="11.004824">
        <ele>545.687</ele>
        <time>2022-07-09T08:33:27Z</time>
      </trkpt>
      <trkpt lat="46.645570" lon="11.004803">
        <ele>545.683</ele>
        <time>2022-07-09T08:33:28Z</time>
      </trkpt>
      <trkpt lat="46.645578" lon="11.004763">
        <ele>545.647</ele>
        <time>2022-07-09T08:33:29Z</time>
      </trkpt>
      <trkpt lat="46.645585" lon="11.004716">
        <ele>544.248</ele>
        <time>2022-07-09T08:33:30Z</time>
      </trkpt>
      <trkpt lat="46.645590" lon="11.004667">
        <ele>544.246</ele>
        <time>2022-07-09T08:33:31Z</time>
      </trkpt>
      <trkpt lat="46.645594" lon="11.004611">
        <ele>544.260</ele>
        <time>2022-07-09T08:33:32Z</time>
      </trkpt>
      <trkpt lat="46.645604" lon="11.004521">
        <ele>543.253</ele>
        <time>2022-07-09T08:33:33Z</time>
      </trkpt>
      <trkpt lat="46.645659" lon="11.003852">
        <ele>541.804</ele>
        <time>2022-07-09T08:33:41Z</time>
      </trkpt>
      <trkpt lat="46.645792" lon="11.002819">
        <ele>541.814</ele>
        <time>2022-07-09T08:33:57Z</time>
      </trkpt>
      <trkpt lat="46.645841" lon="11.002463">
        <ele>542.809</ele>
        <time>2022-07-09T08:34:03Z</time>
      </trkpt>
      <trkpt lat="46.645959" lon="11.001691">
        <ele>542.886</ele>
        <time>2022-07-09T08:34:16Z</time>
      </trkpt>
      <trkpt lat="46.645973" lon="11.001633">
        <ele>542.895</ele>
        <time>2022-07-09T08:34:17Z</time>
      </trkpt>
      <trkpt lat="46.646171" lon="11.000603">
        <ele>543.783</ele>
        <time>2022-07-09T08:34:34Z</time>
      </trkpt>
      <trkpt lat="46.646411" lon="10.999666">
        <ele>543.765</ele>
        <time>2022-07-09T08:34:50Z</time>
      </trkpt>
      <trkpt lat="46.646755" lon="10.998551">
        <ele>545.251</ele>
        <time>2022-07-09T08:35:09Z</time>
      </trkpt>
      <trkpt lat="46.647108" lon="10.997438">
        <ele>545.635</ele>
        <time>2022-07-09T08:35:28Z</time>
      </trkpt>
      <trkpt lat="46.647468" lon="10.996309">
        <ele>546.186</ele>
        <time>2022-07-09T08:35:47Z</time>
      </trkpt>
      <trkpt lat="46.647853" lon="10.995099">
        <ele>547.174</ele>
        <time>2022-07-09T08:36:07Z</time>
      </trkpt>
      <trkpt lat="46.648167" lon="10.994098">
        <ele>547.648</ele>
        <time>2022-07-09T08:36:24Z</time>
      </trkpt>
      <trkpt lat="46.648428" lon="10.993253">
        <ele>548.599</ele>
        <time>2022-07-09T08:36:40Z</time>
      </trkpt>
      <trkpt lat="46.648558" lon="10.992593">
        <ele>550.007</ele>
        <time>2022-07-09T08:36:54Z</time>
      </trkpt>
      <trkpt lat="46.648626" lon="10.992128">
        <ele>551.427</ele>
        <time>2022-07-09T08:37:06Z</time>
      </trkpt>
      <trkpt lat="46.648587" lon="10.992012">
        <ele>550.909</ele>
        <time>2022-07-09T08:37:34Z</time>
      </trkpt>
      <trkpt lat="46.648572" lon="10.992020">
        <ele>550.940</ele>
        <time>2022-07-09T08:37:35Z</time>
      </trkpt>
      <trkpt lat="46.648550" lon="10.992017">
        <ele>551.499</ele>
        <time>2022-07-09T08:37:36Z</time>
      </trkpt>
      <trkpt lat="46.648531" lon="10.992016">
        <ele>551.477</ele>
        <time>2022-07-09T08:37:37Z</time>
      </trkpt>
      <trkpt lat="46.648235" lon="10.991971">
        <ele>551.459</ele>
        <time>2022-07-09T08:37:48Z</time>
      </trkpt>
      <trkpt lat="46.648228" lon="10.991918">
        <ele>551.435</ele>
        <time>2022-07-09T08:37:49Z</time>
      </trkpt>
      <trkpt lat="46.648230" lon="10.991875">
        <ele>551.419</ele>
        <time>2022-07-09T08:37:50Z</time>
      </trkpt>
      <trkpt lat="46.648204" lon="10.991277">
        <ele>550.020</ele>
        <time>2022-07-09T08:37:59Z</time>
      </trkpt>
      <trkpt lat="46.647981" lon="10.989810">
        <ele>550.418</ele>
        <time>2022-07-09T08:38:21Z</time>
      </trkpt>
      <trkpt lat="46.647801" lon="10.988483">
        <ele>552.432</ele>
        <time>2022-07-09T08:38:41Z</time>
      </trkpt>
      <trkpt lat="46.647835" lon="10.987080">
        <ele>553.358</ele>
        <time>2022-07-09T08:39:03Z</time>
      </trkpt>
      <trkpt lat="46.647971" lon="10.985699">
        <ele>555.352</ele>
        <time>2022-07-09T08:39:26Z</time>
      </trkpt>
      <trkpt lat="46.648029" lon="10.984892">
        <ele>557.717</ele>
        <time>2022-07-09T08:39:43Z</time>
      </trkpt>
      <trkpt lat="46.648051" lon="10.984017">
        <ele>558.609</ele>
        <time>2022-07-09T08:40:01Z</time>
      </trkpt>
      <trkpt lat="46.647894" lon="10.983265">
        <ele>559.116</ele>
        <time>2022-07-09T08:40:16Z</time>
      </trkpt>
      <trkpt lat="46.647685" lon="10.982573">
        <ele>559.675</ele>
        <time>2022-07-09T08:40:31Z</time>
      </trkpt>
      <trkpt lat="46.647318" lon="10.981726">
        <ele>560.563</ele>
        <time>2022-07-09T08:40:50Z</time>
      </trkpt>
      <trkpt lat="46.647020" lon="10.981000">
        <ele>562.055</ele>
        <time>2022-07-09T08:41:06Z</time>
      </trkpt>
      <trkpt lat="46.646820" lon="10.980111">
        <ele>563.941</ele>
        <time>2022-07-09T08:41:24Z</time>
      </trkpt>
      <trkpt lat="46.646839" lon="10.979215">
        <ele>565.345</ele>
        <time>2022-07-09T08:41:41Z</time>
      </trkpt>
      <trkpt lat="46.646949" lon="10.977912">
        <ele>564.936</ele>
        <time>2022-07-09T08:42:01Z</time>
      </trkpt>
      <trkpt lat="46.647007" lon="10.977296">
        <ele>563.934</ele>
        <time>2022-07-09T08:42:09Z</time>
      </trkpt>
      <trkpt lat="46.647079" lon="10.976470">
        <ele>563.978</ele>
        <time>2022-07-09T08:42:20Z</time>
      </trkpt>
      <trkpt lat="46.647073" lon="10.975293">
        <ele>563.998</ele>
        <time>2022-07-09T08:42:36Z</time>
      </trkpt>
      <trkpt lat="46.647030" lon="10.974120">
        <ele>563.915</ele>
        <time>2022-07-09T08:42:54Z</time>
      </trkpt>
      <trkpt lat="46.647012" lon="10.973996">
        <ele>564.926</ele>
        <time>2022-07-09T08:42:56Z</time>
      </trkpt>
      <trkpt lat="46.646857" lon="10.973283">
        <ele>565.309</ele>
        <time>2022-07-09T08:43:07Z</time>
      </trkpt>
      <trkpt lat="46.646795" lon="10.972863">
        <ele>565.360</ele>
        <time>2022-07-09T08:43:13Z</time>
      </trkpt>
      <trkpt lat="46.646758" lon="10.971646">
        <ele>565.389</ele>
        <time>2022-07-09T08:43:29Z</time>
      </trkpt>
      <trkpt lat="46.646765" lon="10.971302">
        <ele>563.417</ele>
        <time>2022-07-09T08:43:33Z</time>
      </trkpt>
      <trkpt lat="46.646675" lon="10.970180">
        <ele>563.419</ele>
        <time>2022-07-09T08:43:47Z</time>
      </trkpt>
      <trkpt lat="46.646621" lon="10.969650">
        <ele>563.445</ele>
        <time>2022-07-09T08:43:55Z</time>
      </trkpt>
      <trkpt lat="46.646608" lon="10.969589">
        <ele>563.499</ele>
        <time>2022-07-09T08:43:56Z</time>
      </trkpt>
      <trkpt lat="46.646218" lon="10.968690">
        <ele>564.910</ele>
        <time>2022-07-09T08:44:12Z</time>
      </trkpt>
      <trkpt lat="46.645696" lon="10.967710">
        <ele>565.318</ele>
        <time>2022-07-09T08:44:31Z</time>
      </trkpt>
      <trkpt lat="46.645642" lon="10.967543">
        <ele>565.312</ele>
        <time>2022-07-09T08:44:40Z</time>
      </trkpt>
      <trkpt lat="46.645647" lon="10.967517">
        <ele>565.842</ele>
        <time>2022-07-09T08:45:17Z</time>
      </trkpt>
      <trkpt lat="46.645619" lon="10.967441">
        <ele>565.822</ele>
        <time>2022-07-09T08:45:52Z</time>
      </trkpt>
      <trkpt lat="46.645478" lon="10.966948">
        <ele>565.814</ele>
        <time>2022-07-09T08:46:04Z</time>
      </trkpt>
      <trkpt lat="46.645361" lon="10.966087">
        <ele>566.809</ele>
        <time>2022-07-09T08:46:20Z</time>
      </trkpt>
      <trkpt lat="46.645380" lon="10.966072">
        <ele>567.875</ele>
        <time>2022-07-09T08:46:21Z</time>
      </trkpt>
      <trkpt lat="46.645402" lon="10.966069">
        <ele>567.824</ele>
        <time>2022-07-09T08:46:22Z</time>
      </trkpt>
      <trkpt lat="46.645430" lon="10.966068">
        <ele>567.882</ele>
        <time>2022-07-09T08:46:23Z</time>
      </trkpt>
      <trkpt lat="46.645457" lon="10.966069">
        <ele>567.884</ele>
        <time>2022-07-09T08:46:24Z</time>
      </trkpt>
      <trkpt lat="46.645483" lon="10.966069">
        <ele>567.850</ele>
        <time>2022-07-09T08:46:25Z</time>
      </trkpt>
      <trkpt lat="46.645606" lon="10.966024">
        <ele>567.874</ele>
        <time>2022-07-09T08:46:30Z</time>
      </trkpt>
      <trkpt lat="46.645608" lon="10.965987">
        <ele>567.895</ele>
        <time>2022-07-09T08:46:31Z</time>
      </trkpt>
      <trkpt lat="46.645601" lon="10.965939">
        <ele>567.833</ele>
        <time>2022-07-09T08:46:32Z</time>
      </trkpt>
      <trkpt lat="46.645599" lon="10.965904">
        <ele>567.857</ele>
        <time>2022-07-09T08:46:33Z</time>
      </trkpt>
      <trkpt lat="46.645593" lon="10.965855">
        <ele>567.884</ele>
        <time>2022-07-09T08:46:34Z</time>
      </trkpt>
      <trkpt lat="46.645579" lon="10.965679">
        <ele>566.807</ele>
        <time>2022-07-09T08:46:37Z</time>
      </trkpt>
      <trkpt lat="46.645438" lon="10.964507">
        <ele>565.817</ele>
        <time>2022-07-09T08:46:55Z</time>
      </trkpt>
      <trkpt lat="46.645140" lon="10.963596">
        <ele>565.809</ele>
        <time>2022-07-09T08:47:10Z</time>
      </trkpt>
      <trkpt lat="46.644697" lon="10.962513">
        <ele>565.859</ele>
        <time>2022-07-09T08:47:28Z</time>
      </trkpt>
      <trkpt lat="46.644253" lon="10.961375">
        <ele>565.828</ele>
        <time>2022-07-09T08:47:47Z</time>
      </trkpt>
      <trkpt lat="46.644089" lon="10.961049">
        <ele>565.846</ele>
        <time>2022-07-09T08:47:53Z</time>
      </trkpt>
      <trkpt lat="46.643923" lon="10.960642">
        <ele>566.888</ele>
        <time>2022-07-09T08:48:00Z</time>
      </trkpt>
      <trkpt lat="46.643540" lon="10.959643">
        <ele>567.334</ele>
        <time>2022-07-09T08:48:17Z</time>
      </trkpt>
      <trkpt lat="46.643319" lon="10.959110">
        <ele>567.338</ele>
        <time>2022-07-09T08:48:26Z</time>
      </trkpt>
      <trkpt lat="46.643272" lon="10.958986">
        <ele>567.379</ele>
        <time>2022-07-09T08:48:28Z</time>
      </trkpt>
      <trkpt lat="46.642856" lon="10.957942">
        <ele>567.837</ele>
        <time>2022-07-09T08:48:46Z</time>
      </trkpt>
      <trkpt lat="46.642394" lon="10.956848">
        <ele>567.821</ele>
        <time>2022-07-09T08:49:05Z</time>
      </trkpt>
      <trkpt lat="46.641984" lon="10.955846">
        <ele>568.235</ele>
        <time>2022-07-09T08:49:23Z</time>
      </trkpt>
      <trkpt lat="46.641935" lon="10.955739">
        <ele>568.286</ele>
        <time>2022-07-09T08:49:25Z</time>
      </trkpt>
      <trkpt lat="46.641529" lon="10.954705">
        <ele>569.214</ele>
        <time>2022-07-09T08:49:44Z</time>
      </trkpt>
      <trkpt lat="46.641138" lon="10.953744">
        <ele>569.209</ele>
        <time>2022-07-09T08:50:02Z</time>
      </trkpt>
      <trkpt lat="46.640748" lon="10.952781">
        <ele>569.294</ele>
        <time>2022-07-09T08:50:22Z</time>
      </trkpt>
      <trkpt lat="46.640441" lon="10.952035">
        <ele>569.723</ele>
        <time>2022-07-09T08:50:39Z</time>
      </trkpt>
      <trkpt lat="46.640150" lon="10.951321">
        <ele>569.741</ele>
        <time>2022-07-09T08:50:54Z</time>
      </trkpt>
      <trkpt lat="46.639947" lon="10.950845">
        <ele>570.223</ele>
        <time>2022-07-09T08:51:08Z</time>
      </trkpt>
      <trkpt lat="46.639791" lon="10.950577">
        <ele>570.279</ele>
        <time>2022-07-09T08:51:20Z</time>
      </trkpt>
      <trkpt lat="46.639806" lon="10.950546">
        <ele>570.213</ele>
        <time>2022-07-09T08:51:58Z</time>
      </trkpt>
      <trkpt lat="46.639786" lon="10.950573">
        <ele>570.294</ele>
        <time>2022-07-09T08:52:30Z</time>
      </trkpt>
      <trkpt lat="46.639787" lon="10.950569">
        <ele>569.732</ele>
        <time>2022-07-09T08:53:06Z</time>
      </trkpt>
      <trkpt lat="46.639808" lon="10.950573">
        <ele>569.736</ele>
        <time>2022-07-09T08:53:40Z</time>
      </trkpt>
      <trkpt lat="46.639800" lon="10.950551">
        <ele>569.757</ele>
        <time>2022-07-09T08:54:02Z</time>
      </trkpt>
      <trkpt lat="46.639796" lon="10.950529">
        <ele>569.700</ele>
        <time>2022-07-09T08:54:04Z</time>
      </trkpt>
      <trkpt lat="46.639784" lon="10.950489">
        <ele>569.720</ele>
        <time>2022-07-09T08:54:06Z</time>
      </trkpt>
      <trkpt lat="46.639600" lon="10.950028">
        <ele>569.709</ele>
        <time>2022-07-09T08:54:17Z</time>
      </trkpt>
      <trkpt lat="46.639146" lon="10.948917">
        <ele>569.296</ele>
        <time>2022-07-09T08:54:39Z</time>
      </trkpt>
      <trkpt lat="46.638784" lon="10.948038">
        <ele>569.295</ele>
        <time>2022-07-09T08:54:56Z</time>
      </trkpt>
      <trkpt lat="46.638372" lon="10.947021">
        <ele>570.243</ele>
        <time>2022-07-09T08:55:15Z</time>
      </trkpt>
      <trkpt lat="46.638026" lon="10.946152">
        <ele>571.165</ele>
        <time>2022-07-09T08:55:31Z</time>
      </trkpt>
      <trkpt lat="46.637681" lon="10.945272">
        <ele>570.641</ele>
        <time>2022-07-09T08:55:47Z</time>
      </trkpt>
      <trkpt lat="46.637278" lon="10.944301">
        <ele>571.185</ele>
        <time>2022-07-09T08:56:05Z</time>
      </trkpt>
      <trkpt lat="46.636896" lon="10.943384">
        <ele>571.666</ele>
        <time>2022-07-09T08:56:22Z</time>
      </trkpt>
      <trkpt lat="46.636577" lon="10.942594">
        <ele>572.684</ele>
        <time>2022-07-09T08:56:37Z</time>
      </trkpt>
      <trkpt lat="46.636130" lon="10.941521">
        <ele>572.648</ele>
        <time>2022-07-09T08:56:57Z</time>
      </trkpt>
      <trkpt lat="46.635769" lon="10.940612">
        <ele>572.643</ele>
        <time>2022-07-09T08:57:14Z</time>
      </trkpt>
      <trkpt lat="46.635448" lon="10.939672">
        <ele>573.564</ele>
        <time>2022-07-09T08:57:32Z</time>
      </trkpt>
      <trkpt lat="46.635160" lon="10.938987">
        <ele>573.510</ele>
        <time>2022-07-09T08:57:46Z</time>
      </trkpt>
      <trkpt lat="46.634792" lon="10.938220">
        <ele>574.009</ele>
        <time>2022-07-09T08:58:01Z</time>
      </trkpt>
      <trkpt lat="46.634439" lon="10.937374">
        <ele>574.565</ele>
        <time>2022-07-09T08:58:17Z</time>
      </trkpt>
      <trkpt lat="46.634086" lon="10.936475">
        <ele>575.014</ele>
        <time>2022-07-09T08:58:34Z</time>
      </trkpt>
      <trkpt lat="46.633650" lon="10.935382">
        <ele>575.032</ele>
        <time>2022-07-09T08:58:54Z</time>
      </trkpt>
      <trkpt lat="46.633183" lon="10.934223">
        <ele>575.954</ele>
        <time>2022-07-09T08:59:15Z</time>
      </trkpt>
      <trkpt lat="46.632626" lon="10.932900">
        <ele>576.430</ele>
        <time>2022-07-09T08:59:39Z</time>
      </trkpt>
      <trkpt lat="46.632093" lon="10.931600">
        <ele>576.414</ele>
        <time>2022-07-09T09:00:03Z</time>
      </trkpt>
      <trkpt lat="46.631649" lon="10.930492">
        <ele>576.995</ele>
        <time>2022-07-09T09:00:23Z</time>
      </trkpt>
      <trkpt lat="46.631188" lon="10.929384">
        <ele>577.423</ele>
        <time>2022-07-09T09:00:43Z</time>
      </trkpt>
      <trkpt lat="46.630973" lon="10.928880">
        <ele>577.427</ele>
        <time>2022-07-09T09:00:52Z</time>
      </trkpt>
      <trkpt lat="46.630582" lon="10.927913">
        <ele>577.811</ele>
        <time>2022-07-09T09:01:09Z</time>
      </trkpt>
      <trkpt lat="46.630175" lon="10.926861">
        <ele>577.821</ele>
        <time>2022-07-09T09:01:28Z</time>
      </trkpt>
      <trkpt lat="46.630122" lon="10.926698">
        <ele>578.303</ele>
        <time>2022-07-09T09:01:31Z</time>
      </trkpt>
      <trkpt lat="46.630099" lon="10.926646">
        <ele>578.309</ele>
        <time>2022-07-09T09:01:32Z</time>
      </trkpt>
      <trkpt lat="46.629631" lon="10.925583">
        <ele>579.882</ele>
        <time>2022-07-09T09:01:52Z</time>
      </trkpt>
      <trkpt lat="46.629551" lon="10.925376">
        <ele>579.881</ele>
        <time>2022-07-09T09:01:56Z</time>
      </trkpt>
      <trkpt lat="46.629525" lon="10.925324">
        <ele>579.899</ele>
        <time>2022-07-09T09:01:57Z</time>
      </trkpt>
      <trkpt lat="46.629501" lon="10.925269">
        <ele>579.811</ele>
        <time>2022-07-09T09:01:58Z</time>
      </trkpt>
      <trkpt lat="46.629479" lon="10.925208">
        <ele>579.867</ele>
        <time>2022-07-09T09:01:59Z</time>
      </trkpt>
      <trkpt lat="46.629458" lon="10.925152">
        <ele>579.831</ele>
        <time>2022-07-09T09:02:00Z</time>
      </trkpt>
      <trkpt lat="46.629435" lon="10.925094">
        <ele>579.822</ele>
        <time>2022-07-09T09:02:01Z</time>
      </trkpt>
      <trkpt lat="46.629051" lon="10.924159">
        <ele>579.360</ele>
        <time>2022-07-09T09:02:18Z</time>
      </trkpt>
      <trkpt lat="46.628704" lon="10.923323">
        <ele>579.834</ele>
        <time>2022-07-09T09:02:33Z</time>
      </trkpt>
      <trkpt lat="46.628184" lon="10.922063">
        <ele>580.266</ele>
        <time>2022-07-09T09:02:56Z</time>
      </trkpt>
      <trkpt lat="46.627669" lon="10.920785">
        <ele>581.229</ele>
        <time>2022-07-09T09:03:19Z</time>
      </trkpt>
      <trkpt lat="46.627308" lon="10.919921">
        <ele>581.221</ele>
        <time>2022-07-09T09:03:35Z</time>
      </trkpt>
      <trkpt lat="46.626821" lon="10.918714">
        <ele>582.209</ele>
        <time>2022-07-09T09:03:57Z</time>
      </trkpt>
      <trkpt lat="46.626505" lon="10.917920">
        <ele>583.117</ele>
        <time>2022-07-09T09:04:12Z</time>
      </trkpt>
      <trkpt lat="46.626139" lon="10.916938">
        <ele>583.646</ele>
        <time>2022-07-09T09:04:30Z</time>
      </trkpt>
      <trkpt lat="46.625856" lon="10.915855">
        <ele>584.164</ele>
        <time>2022-07-09T09:04:49Z</time>
      </trkpt>
      <trkpt lat="46.625794" lon="10.915519">
        <ele>585.116</ele>
        <time>2022-07-09T09:04:59Z</time>
      </trkpt>
      <trkpt lat="46.625707" lon="10.915017">
        <ele>584.682</ele>
        <time>2022-07-09T09:05:09Z</time>
      </trkpt>
      <trkpt lat="46.625613" lon="10.913777">
        <ele>583.656</ele>
        <time>2022-07-09T09:05:29Z</time>
      </trkpt>
      <trkpt lat="46.625654" lon="10.912614">
        <ele>585.167</ele>
        <time>2022-07-09T09:05:48Z</time>
      </trkpt>
      <trkpt lat="46.625796" lon="10.911201">
        <ele>586.065</ele>
        <time>2022-07-09T09:06:11Z</time>
      </trkpt>
      <trkpt lat="46.626013" lon="10.909892">
        <ele>587.089</ele>
        <time>2022-07-09T09:06:32Z</time>
      </trkpt>
      <trkpt lat="46.626363" lon="10.908630">
        <ele>587.523</ele>
        <time>2022-07-09T09:06:54Z</time>
      </trkpt>
      <trkpt lat="46.626764" lon="10.907524">
        <ele>588.483</ele>
        <time>2022-07-09T09:07:14Z</time>
      </trkpt>
      <trkpt lat="46.627183" lon="10.906339">
        <ele>588.911</ele>
        <time>2022-07-09T09:07:36Z</time>
      </trkpt>
      <trkpt lat="46.627507" lon="10.905326">
        <ele>589.909</ele>
        <time>2022-07-09T09:07:54Z</time>
      </trkpt>
      <trkpt lat="46.627787" lon="10.904029">
        <ele>590.363</ele>
        <time>2022-07-09T09:08:15Z</time>
      </trkpt>
      <trkpt lat="46.627914" lon="10.902779">
        <ele>590.852</ele>
        <time>2022-07-09T09:08:35Z</time>
      </trkpt>
      <trkpt lat="46.627994" lon="10.901792">
        <ele>591.840</ele>
        <time>2022-07-09T09:08:52Z</time>
      </trkpt>
      <trkpt lat="46.628003" lon="10.901720">
        <ele>591.852</ele>
        <time>2022-07-09T09:08:53Z</time>
      </trkpt>
      <trkpt lat="46.628007" lon="10.901305">
        <ele>594.248</ele>
        <time>2022-07-09T09:09:04Z</time>
      </trkpt>
      <trkpt lat="46.627994" lon="10.901306">
        <ele>594.272</ele>
        <time>2022-07-09T09:09:05Z</time>
      </trkpt>
      <trkpt lat="46.627912" lon="10.901288">
        <ele>594.793</ele>
        <time>2022-07-09T09:09:10Z</time>
      </trkpt>
      <trkpt lat="46.627904" lon="10.901254">
        <ele>594.711</ele>
        <time>2022-07-09T09:09:11Z</time>
      </trkpt>
      <trkpt lat="46.627900" lon="10.901221">
        <ele>594.745</ele>
        <time>2022-07-09T09:09:12Z</time>
      </trkpt>
      <trkpt lat="46.627854" lon="10.900793">
        <ele>596.144</ele>
        <time>2022-07-09T09:09:24Z</time>
      </trkpt>
      <trkpt lat="46.627797" lon="10.900080">
        <ele>597.105</ele>
        <time>2022-07-09T09:09:44Z</time>
      </trkpt>
      <trkpt lat="46.627772" lon="10.900027">
        <ele>597.115</ele>
        <time>2022-07-09T09:09:57Z</time>
      </trkpt>
      <trkpt lat="46.627789" lon="10.900027">
        <ele>597.109</ele>
        <time>2022-07-09T09:10:29Z</time>
      </trkpt>
      <trkpt lat="46.627775" lon="10.899978">
        <ele>597.135</ele>
        <time>2022-07-09T09:10:32Z</time>
      </trkpt>
      <trkpt lat="46.627769" lon="10.899957">
        <ele>597.184</ele>
        <time>2022-07-09T09:10:33Z</time>
      </trkpt>
      <trkpt lat="46.627763" lon="10.899930">
        <ele>597.152</ele>
        <time>2022-07-09T09:10:34Z</time>
      </trkpt>
      <trkpt lat="46.627756" lon="10.899906">
        <ele>597.174</ele>
        <time>2022-07-09T09:10:35Z</time>
      </trkpt>
      <trkpt lat="46.627749" lon="10.899883">
        <ele>597.150</ele>
        <time>2022-07-09T09:10:36Z</time>
      </trkpt>
      <trkpt lat="46.627743" lon="10.899855">
        <ele>597.164</ele>
        <time>2022-07-09T09:10:37Z</time>
      </trkpt>
      <trkpt lat="46.627738" lon="10.899815">
        <ele>597.165</ele>
        <time>2022-07-09T09:10:38Z</time>
      </trkpt>
      <trkpt lat="46.627685" lon="10.899650">
        <ele>597.193</ele>
        <time>2022-07-09T09:10:46Z</time>
      </trkpt>
      <trkpt lat="46.627675" lon="10.899641">
        <ele>597.187</ele>
        <time>2022-07-09T09:10:47Z</time>
      </trkpt>
      <trkpt lat="46.627663" lon="10.899628">
        <ele>597.136</ele>
        <time>2022-07-09T09:10:48Z</time>
      </trkpt>
      <trkpt lat="46.627656" lon="10.899600">
        <ele>597.117</ele>
        <time>2022-07-09T09:10:49Z</time>
      </trkpt>
      <trkpt lat="46.627647" lon="10.899563">
        <ele>597.118</ele>
        <time>2022-07-09T09:10:50Z</time>
      </trkpt>
      <trkpt lat="46.627631" lon="10.899521">
        <ele>596.109</ele>
        <time>2022-07-09T09:10:51Z</time>
      </trkpt>
      <trkpt lat="46.627545" lon="10.899249">
        <ele>594.774</ele>
        <time>2022-07-09T09:10:55Z</time>
      </trkpt>
      <trkpt lat="46.627472" lon="10.898925">
        <ele>593.753</ele>
        <time>2022-07-09T09:10:59Z</time>
      </trkpt>
      <trkpt lat="46.627460" lon="10.898841">
        <ele>593.741</ele>
        <time>2022-07-09T09:11:00Z</time>
      </trkpt>
      <trkpt lat="46.627420" lon="10.898418">
        <ele>593.753</ele>
        <time>2022-07-09T09:11:09Z</time>
      </trkpt>
      <trkpt lat="46.627427" lon="10.897994">
        <ele>593.749</ele>
        <time>2022-07-09T09:11:23Z</time>
      </trkpt>
      <trkpt lat="46.627437" lon="10.897607">
        <ele>593.793</ele>
        <time>2022-07-09T09:11:36Z</time>
      </trkpt>
      <trkpt lat="46.627432" lon="10.897572">
        <ele>593.774</ele>
        <time>2022-07-09T09:11:48Z</time>
      </trkpt>
      <trkpt lat="46.627433" lon="10.897563">
        <ele>595.192</ele>
        <time>2022-07-09T09:11:53Z</time>
      </trkpt>
      <trkpt lat="46.627435" lon="10.897495">
        <ele>595.196</ele>
        <time>2022-07-09T09:12:17Z</time>
      </trkpt>
      <trkpt lat="46.627452" lon="10.897443">
        <ele>595.179</ele>
        <time>2022-07-09T09:12:19Z</time>
      </trkpt>
      <trkpt lat="46.627455" lon="10.897410">
        <ele>595.105</ele>
        <time>2022-07-09T09:12:20Z</time>
      </trkpt>
      <trkpt lat="46.627475" lon="10.896580">
        <ele>596.125</ele>
        <time>2022-07-09T09:12:39Z</time>
      </trkpt>
      <trkpt lat="46.627396" lon="10.895706">
        <ele>596.109</ele>
        <time>2022-07-09T09:12:56Z</time>
      </trkpt>
      <trkpt lat="46.627172" lon="10.894879">
        <ele>596.678</ele>
        <time>2022-07-09T09:13:12Z</time>
      </trkpt>
      <trkpt lat="46.626865" lon="10.893969">
        <ele>597.157</ele>
        <time>2022-07-09T09:13:31Z</time>
      </trkpt>
      <trkpt lat="46.626659" lon="10.893254">
        <ele>598.045</ele>
        <time>2022-07-09T09:13:46Z</time>
      </trkpt>
      <trkpt lat="46.626504" lon="10.892738">
        <ele>600.417</ele>
        <time>2022-07-09T09:13:57Z</time>
      </trkpt>
      <trkpt lat="46.626212" lon="10.892096">
        <ele>600.433</ele>
        <time>2022-07-09T09:14:12Z</time>
      </trkpt>
      <trkpt lat="46.626204" lon="10.892048">
        <ele>600.497</ele>
        <time>2022-07-09T09:14:13Z</time>
      </trkpt>
      <trkpt lat="46.626057" lon="10.891092">
        <ele>600.948</ele>
        <time>2022-07-09T09:14:32Z</time>
      </trkpt>
      <trkpt lat="46.626130" lon="10.890369">
        <ele>601.956</ele>
        <time>2022-07-09T09:14:46Z</time>
      </trkpt>
      <trkpt lat="46.626311" lon="10.889536">
        <ele>603.860</ele>
        <time>2022-07-09T09:15:04Z</time>
      </trkpt>
      <trkpt lat="46.626310" lon="10.888720">
        <ele>605.269</ele>
        <time>2022-07-09T09:15:20Z</time>
      </trkpt>
      <trkpt lat="46.626156" lon="10.887727">
        <ele>606.704</ele>
        <time>2022-07-09T09:15:41Z</time>
      </trkpt>
      <trkpt lat="46.625947" lon="10.887075">
        <ele>607.624</ele>
        <time>2022-07-09T09:15:57Z</time>
      </trkpt>
      <trkpt lat="46.625675" lon="10.886383">
        <ele>608.609</ele>
        <time>2022-07-09T09:16:15Z</time>
      </trkpt>
      <trkpt lat="46.625419" lon="10.885699">
        <ele>611.067</ele>
        <time>2022-07-09T09:16:34Z</time>
      </trkpt>
      <trkpt lat="46.625140" lon="10.885160">
        <ele>612.066</ele>
        <time>2022-07-09T09:16:49Z</time>
      </trkpt>
      <trkpt lat="46.624823" lon="10.884536">
        <ele>613.424</ele>
        <time>2022-07-09T09:17:07Z</time>
      </trkpt>
      <trkpt lat="46.624589" lon="10.883819">
        <ele>615.886</ele>
        <time>2022-07-09T09:17:26Z</time>
      </trkpt>
      <trkpt lat="46.624442" lon="10.883190">
        <ele>618.232</ele>
        <time>2022-07-09T09:17:44Z</time>
      </trkpt>
      <trkpt lat="46.624342" lon="10.882653">
        <ele>620.136</ele>
        <time>2022-07-09T09:17:59Z</time>
      </trkpt>
      <trkpt lat="46.624244" lon="10.882118">
        <ele>622.527</ele>
        <time>2022-07-09T09:18:15Z</time>
      </trkpt>
      <trkpt lat="46.624118" lon="10.881522">
        <ele>624.585</ele>
        <time>2022-07-09T09:18:33Z</time>
      </trkpt>
      <trkpt lat="46.624030" lon="10.880927">
        <ele>626.489</ele>
        <time>2022-07-09T09:18:49Z</time>
      </trkpt>
      <trkpt lat="46.623954" lon="10.880001">
        <ele>627.849</ele>
        <time>2022-07-09T09:19:08Z</time>
      </trkpt>
      <trkpt lat="46.623837" lon="10.879516">
        <ele>627.802</ele>
        <time>2022-07-09T09:19:17Z</time>
      </trkpt>
      <trkpt lat="46.623815" lon="10.879460">
        <ele>627.822</ele>
        <time>2022-07-09T09:19:18Z</time>
      </trkpt>
      <trkpt lat="46.623720" lon="10.879232">
        <ele>627.809</ele>
        <time>2022-07-09T09:19:22Z</time>
      </trkpt>
      <trkpt lat="46.623703" lon="10.879172">
        <ele>627.855</ele>
        <time>2022-07-09T09:19:23Z</time>
      </trkpt>
      <trkpt lat="46.623643" lon="10.877985">
        <ele>627.894</ele>
        <time>2022-07-09T09:19:42Z</time>
      </trkpt>
      <trkpt lat="46.623746" lon="10.876784">
        <ele>628.842</ele>
        <time>2022-07-09T09:20:02Z</time>
      </trkpt>
      <trkpt lat="46.623793" lon="10.876090">
        <ele>629.884</ele>
        <time>2022-07-09T09:20:14Z</time>
      </trkpt>
      <trkpt lat="46.623858" lon="10.875158">
        <ele>629.870</ele>
        <time>2022-07-09T09:20:29Z</time>
      </trkpt>
      <trkpt lat="46.623751" lon="10.874560">
        <ele>629.814</ele>
        <time>2022-07-09T09:20:40Z</time>
      </trkpt>
      <trkpt lat="46.623461" lon="10.873938">
        <ele>630.735</ele>
        <time>2022-07-09T09:20:54Z</time>
      </trkpt>
      <trkpt lat="46.623177" lon="10.873106">
        <ele>631.713</ele>
        <time>2022-07-09T09:21:12Z</time>
      </trkpt>
      <trkpt lat="46.622862" lon="10.872255">
        <ele>633.147</ele>
        <time>2022-07-09T09:21:30Z</time>
      </trkpt>
      <trkpt lat="46.622849" lon="10.872201">
        <ele>633.199</ele>
        <time>2022-07-09T09:21:31Z</time>
      </trkpt>
      <trkpt lat="46.622839" lon="10.872140">
        <ele>633.107</ele>
        <time>2022-07-09T09:21:32Z</time>
      </trkpt>
      <trkpt lat="46.622835" lon="10.872078">
        <ele>633.627</ele>
        <time>2022-07-09T09:21:33Z</time>
      </trkpt>
      <trkpt lat="46.622834" lon="10.872016">
        <ele>633.609</ele>
        <time>2022-07-09T09:21:34Z</time>
      </trkpt>
      <trkpt lat="46.622837" lon="10.871956">
        <ele>633.630</ele>
        <time>2022-07-09T09:21:35Z</time>
      </trkpt>
      <trkpt lat="46.622843" lon="10.871898">
        <ele>633.689</ele>
        <time>2022-07-09T09:21:36Z</time>
      </trkpt>
      <trkpt lat="46.622851" lon="10.871843">
        <ele>633.617</ele>
        <time>2022-07-09T09:21:37Z</time>
      </trkpt>
      <trkpt lat="46.622985" lon="10.870948">
        <ele>635.069</ele>
        <time>2022-07-09T09:21:55Z</time>
      </trkpt>
      <trkpt lat="46.622907" lon="10.870053">
        <ele>635.565</ele>
        <time>2022-07-09T09:22:12Z</time>
      </trkpt>
      <trkpt lat="46.622743" lon="10.869474">
        <ele>638.459</ele>
        <time>2022-07-09T09:22:27Z</time>
      </trkpt>
      <trkpt lat="46.622571" lon="10.869487">
        <ele>639.820</ele>
        <time>2022-07-09T09:22:36Z</time>
      </trkpt>
      <trkpt lat="46.622328" lon="10.869623">
        <ele>641.368</ele>
        <time>2022-07-09T09:22:47Z</time>
      </trkpt>
      <trkpt lat="46.622305" lon="10.869617">
        <ele>641.382</ele>
        <time>2022-07-09T09:22:48Z</time>
      </trkpt>
      <trkpt lat="46.622283" lon="10.869600">
        <ele>641.319</ele>
        <time>2022-07-09T09:22:49Z</time>
      </trkpt>
      <trkpt lat="46.622267" lon="10.869573">
        <ele>641.809</ele>
        <time>2022-07-09T09:22:50Z</time>
      </trkpt>
      <trkpt lat="46.622252" lon="10.869543">
        <ele>641.819</ele>
        <time>2022-07-09T09:22:51Z</time>
      </trkpt>
      <trkpt lat="46.622236" lon="10.869516">
        <ele>641.809</ele>
        <time>2022-07-09T09:22:52Z</time>
      </trkpt>
      <trkpt lat="46.622219" lon="10.869495">
        <ele>641.882</ele>
        <time>2022-07-09T09:22:53Z</time>
      </trkpt>
      <trkpt lat="46.622205" lon="10.869474">
        <ele>642.361</ele>
        <time>2022-07-09T09:22:54Z</time>
      </trkpt>
      <trkpt lat="46.622193" lon="10.869452">
        <ele>642.379</ele>
        <time>2022-07-09T09:22:55Z</time>
      </trkpt>
      <trkpt lat="46.621977" lon="10.868950">
        <ele>642.781</ele>
        <time>2022-07-09T09:23:11Z</time>
      </trkpt>
      <trkpt lat="46.621618" lon="10.868118">
        <ele>643.227</ele>
        <time>2022-07-09T09:23:30Z</time>
      </trkpt>
      <trkpt lat="46.621276" lon="10.867267">
        <ele>643.211</ele>
        <time>2022-07-09T09:23:47Z</time>
      </trkpt>
      <trkpt lat="46.621077" lon="10.866756">
        <ele>642.712</ele>
        <time>2022-07-09T09:23:57Z</time>
      </trkpt>
      <trkpt lat="46.621055" lon="10.866724">
        <ele>642.720</ele>
        <time>2022-07-09T09:23:58Z</time>
      </trkpt>
      <trkpt lat="46.621028" lon="10.866686">
        <ele>642.734</ele>
        <time>2022-07-09T09:23:59Z</time>
      </trkpt>
      <trkpt lat="46.621013" lon="10.866658">
        <ele>642.782</ele>
        <time>2022-07-09T09:24:00Z</time>
      </trkpt>
      <trkpt lat="46.621001" lon="10.866625">
        <ele>642.743</ele>
        <time>2022-07-09T09:24:01Z</time>
      </trkpt>
      <trkpt lat="46.620988" lon="10.866581">
        <ele>642.717</ele>
        <time>2022-07-09T09:24:02Z</time>
      </trkpt>
      <trkpt lat="46.620871" lon="10.866286">
        <ele>643.209</ele>
        <time>2022-07-09T09:24:10Z</time>
      </trkpt>
      <trkpt lat="46.620871" lon="10.866193">
        <ele>641.839</ele>
        <time>2022-07-09T09:24:11Z</time>
      </trkpt>
      <trkpt lat="46.620883" lon="10.866124">
        <ele>641.358</ele>
        <time>2022-07-09T09:24:12Z</time>
      </trkpt>
      <trkpt lat="46.620891" lon="10.866074">
        <ele>641.346</ele>
        <time>2022-07-09T09:24:13Z</time>
      </trkpt>
      <trkpt lat="46.620899" lon="10.865995">
        <ele>641.398</ele>
        <time>2022-07-09T09:24:14Z</time>
      </trkpt>
      <trkpt lat="46.620901" lon="10.865926">
        <ele>641.344</ele>
        <time>2022-07-09T09:24:15Z</time>
      </trkpt>
      <trkpt lat="46.620899" lon="10.865829">
        <ele>641.398</ele>
        <time>2022-07-09T09:24:16Z</time>
      </trkpt>
      <trkpt lat="46.620896" lon="10.865757">
        <ele>640.819</ele>
        <time>2022-07-09T09:24:17Z</time>
      </trkpt>
      <trkpt lat="46.620887" lon="10.865574">
        <ele>640.397</ele>
        <time>2022-07-09T09:24:19Z</time>
      </trkpt>
      <trkpt lat="46.620873" lon="10.865479">
        <ele>639.471</ele>
        <time>2022-07-09T09:24:20Z</time>
      </trkpt>
      <trkpt lat="46.620811" lon="10.865111">
        <ele>638.965</ele>
        <time>2022-07-09T09:24:24Z</time>
      </trkpt>
      <trkpt lat="46.620808" lon="10.865023">
        <ele>639.468</ele>
        <time>2022-07-09T09:24:25Z</time>
      </trkpt>
      <trkpt lat="46.620813" lon="10.864940">
        <ele>638.914</ele>
        <time>2022-07-09T09:24:26Z</time>
      </trkpt>
      <trkpt lat="46.620966" lon="10.864220">
        <ele>640.309</ele>
        <time>2022-07-09T09:24:36Z</time>
      </trkpt>
      <trkpt lat="46.621002" lon="10.864085">
        <ele>640.387</ele>
        <time>2022-07-09T09:24:38Z</time>
      </trkpt>
      <trkpt lat="46.621109" lon="10.863835">
        <ele>640.386</ele>
        <time>2022-07-09T09:24:42Z</time>
      </trkpt>
      <trkpt lat="46.621140" lon="10.863783">
        <ele>640.384</ele>
        <time>2022-07-09T09:24:43Z</time>
      </trkpt>
      <trkpt lat="46.621468" lon="10.863175">
        <ele>642.376</ele>
        <time>2022-07-09T09:24:57Z</time>
      </trkpt>
      <trkpt lat="46.621488" lon="10.863161">
        <ele>642.322</ele>
        <time>2022-07-09T09:24:58Z</time>
      </trkpt>
      <trkpt lat="46.621514" lon="10.863164">
        <ele>641.826</ele>
        <time>2022-07-09T09:24:59Z</time>
      </trkpt>
      <trkpt lat="46.621545" lon="10.863180">
        <ele>642.397</ele>
        <time>2022-07-09T09:25:00Z</time>
      </trkpt>
      <trkpt lat="46.621569" lon="10.863197">
        <ele>641.885</ele>
        <time>2022-07-09T09:25:01Z</time>
      </trkpt>
      <trkpt lat="46.621801" lon="10.863243">
        <ele>642.389</ele>
        <time>2022-07-09T09:25:08Z</time>
      </trkpt>
      <trkpt lat="46.621823" lon="10.863207">
        <ele>642.374</ele>
        <time>2022-07-09T09:25:09Z</time>
      </trkpt>
      <trkpt lat="46.622124" lon="10.862647">
        <ele>642.756</ele>
        <time>2022-07-09T09:25:23Z</time>
      </trkpt>
      <trkpt lat="46.622492" lon="10.861822">
        <ele>643.221</ele>
        <time>2022-07-09T09:25:40Z</time>
      </trkpt>
      <trkpt lat="46.622632" lon="10.860974">
        <ele>644.209</ele>
        <time>2022-07-09T09:25:56Z</time>
      </trkpt>
      <trkpt lat="46.622663" lon="10.859960">
        <ele>645.648</ele>
        <time>2022-07-09T09:26:17Z</time>
      </trkpt>
      <trkpt lat="46.622533" lon="10.859084">
        <ele>646.657</ele>
        <time>2022-07-09T09:26:35Z</time>
      </trkpt>
      <trkpt lat="46.622363" lon="10.858263">
        <ele>647.155</ele>
        <time>2022-07-09T09:26:50Z</time>
      </trkpt>
      <trkpt lat="46.622320" lon="10.858015">
        <ele>647.197</ele>
        <time>2022-07-09T09:26:54Z</time>
      </trkpt>
      <trkpt lat="46.622306" lon="10.857955">
        <ele>647.153</ele>
        <time>2022-07-09T09:26:55Z</time>
      </trkpt>
      <trkpt lat="46.622180" lon="10.857427">
        <ele>647.147</ele>
        <time>2022-07-09T09:27:04Z</time>
      </trkpt>
      <trkpt lat="46.621958" lon="10.856684">
        <ele>647.538</ele>
        <time>2022-07-09T09:27:18Z</time>
      </trkpt>
      <trkpt lat="46.621913" lon="10.856518">
        <ele>648.076</ele>
        <time>2022-07-09T09:27:21Z</time>
      </trkpt>
      <trkpt lat="46.621801" lon="10.855503">
        <ele>648.050</ele>
        <time>2022-07-09T09:27:37Z</time>
      </trkpt>
      <trkpt lat="46.621790" lon="10.855432">
        <ele>648.064</ele>
        <time>2022-07-09T09:27:38Z</time>
      </trkpt>
      <trkpt lat="46.621767" lon="10.855364">
        <ele>646.606</ele>
        <time>2022-07-09T09:27:39Z</time>
      </trkpt>
      <trkpt lat="46.621712" lon="10.855300">
        <ele>646.616</ele>
        <time>2022-07-09T09:27:40Z</time>
      </trkpt>
      <trkpt lat="46.621658" lon="10.855275">
        <ele>645.609</ele>
        <time>2022-07-09T09:27:41Z</time>
      </trkpt>
      <trkpt lat="46.621603" lon="10.855256">
        <ele>645.637</ele>
        <time>2022-07-09T09:27:42Z</time>
      </trkpt>
      <trkpt lat="46.621542" lon="10.855211">
        <ele>645.156</ele>
        <time>2022-07-09T09:27:43Z</time>
      </trkpt>
      <trkpt lat="46.621506" lon="10.855151">
        <ele>645.174</ele>
        <time>2022-07-09T09:27:44Z</time>
      </trkpt>
      <trkpt lat="46.621482" lon="10.855073">
        <ele>645.176</ele>
        <time>2022-07-09T09:27:45Z</time>
      </trkpt>
      <trkpt lat="46.621281" lon="10.854020">
        <ele>645.162</ele>
        <time>2022-07-09T09:28:00Z</time>
      </trkpt>
      <trkpt lat="46.621364" lon="10.852844">
        <ele>647.556</ele>
        <time>2022-07-09T09:28:19Z</time>
      </trkpt>
      <trkpt lat="46.621584" lon="10.851557">
        <ele>649.087</ele>
        <time>2022-07-09T09:28:41Z</time>
      </trkpt>
      <trkpt lat="46.621601" lon="10.850545">
        <ele>650.935</ele>
        <time>2022-07-09T09:28:59Z</time>
      </trkpt>
      <trkpt lat="46.621560" lon="10.849744">
        <ele>652.869</ele>
        <time>2022-07-09T09:29:16Z</time>
      </trkpt>
      <trkpt lat="46.621547" lon="10.849119">
        <ele>652.821</ele>
        <time>2022-07-09T09:29:28Z</time>
      </trkpt>
      <trkpt lat="46.621373" lon="10.848333">
        <ele>651.441</ele>
        <time>2022-07-09T09:29:40Z</time>
      </trkpt>
      <trkpt lat="46.621340" lon="10.848232">
        <ele>652.305</ele>
        <time>2022-07-09T09:29:42Z</time>
      </trkpt>
      <trkpt lat="46.620954" lon="10.847163">
        <ele>651.409</ele>
        <time>2022-07-09T09:30:01Z</time>
      </trkpt>
      <trkpt lat="46.620930" lon="10.847103">
        <ele>651.423</ele>
        <time>2022-07-09T09:30:02Z</time>
      </trkpt>
      <trkpt lat="46.620649" lon="10.846168">
        <ele>651.422</ele>
        <time>2022-07-09T09:30:18Z</time>
      </trkpt>
      <trkpt lat="46.620429" lon="10.845397">
        <ele>653.330</ele>
        <time>2022-07-09T09:30:34Z</time>
      </trkpt>
      <trkpt lat="46.620144" lon="10.844592">
        <ele>653.332</ele>
        <time>2022-07-09T09:30:50Z</time>
      </trkpt>
      <trkpt lat="46.619828" lon="10.843711">
        <ele>653.858</ele>
        <time>2022-07-09T09:31:07Z</time>
      </trkpt>
      <trkpt lat="46.619544" lon="10.842584">
        <ele>655.792</ele>
        <time>2022-07-09T09:31:30Z</time>
      </trkpt>
      <trkpt lat="46.619387" lon="10.842031">
        <ele>656.753</ele>
        <time>2022-07-09T09:31:42Z</time>
      </trkpt>
      <trkpt lat="46.619286" lon="10.841756">
        <ele>659.191</ele>
        <time>2022-07-09T09:31:52Z</time>
      </trkpt>
      <trkpt lat="46.619274" lon="10.841740">
        <ele>659.185</ele>
        <time>2022-07-09T09:31:53Z</time>
      </trkpt>
      <trkpt lat="46.619264" lon="10.841724">
        <ele>659.681</ele>
        <time>2022-07-09T09:31:54Z</time>
      </trkpt>
      <trkpt lat="46.619024" lon="10.841375">
        <ele>660.061</ele>
        <time>2022-07-09T09:32:08Z</time>
      </trkpt>
      <trkpt lat="46.618954" lon="10.841323">
        <ele>660.017</ele>
        <time>2022-07-09T09:32:10Z</time>
      </trkpt>
      <trkpt lat="46.618809" lon="10.841239">
        <ele>657.609</ele>
        <time>2022-07-09T09:32:13Z</time>
      </trkpt>
      <trkpt lat="46.618768" lon="10.841189">
        <ele>657.659</ele>
        <time>2022-07-09T09:32:14Z</time>
      </trkpt>
      <trkpt lat="46.618730" lon="10.841141">
        <ele>657.668</ele>
        <time>2022-07-09T09:32:15Z</time>
      </trkpt>
      <trkpt lat="46.618326" lon="10.840631">
        <ele>659.656</ele>
        <time>2022-07-09T09:32:29Z</time>
      </trkpt>
      <trkpt lat="46.618296" lon="10.839999">
        <ele>661.548</ele>
        <time>2022-07-09T09:32:43Z</time>
      </trkpt>
      <trkpt lat="46.618491" lon="10.839564">
        <ele>662.954</ele>
        <time>2022-07-09T09:32:56Z</time>
      </trkpt>
      <trkpt lat="46.618748" lon="10.838791">
        <ele>664.438</ele>
        <time>2022-07-09T09:33:16Z</time>
      </trkpt>
      <trkpt lat="46.618958" lon="10.838108">
        <ele>664.849</ele>
        <time>2022-07-09T09:33:32Z</time>
      </trkpt>
      <trkpt lat="46.619231" lon="10.837363">
        <ele>666.357</ele>
        <time>2022-07-09T09:33:50Z</time>
      </trkpt>
      <trkpt lat="46.619624" lon="10.836346">
        <ele>666.381</ele>
        <time>2022-07-09T09:34:09Z</time>
      </trkpt>
      <trkpt lat="46.619674" lon="10.836225">
        <ele>664.836</ele>
        <time>2022-07-09T09:34:11Z</time>
      </trkpt>
      <trkpt lat="46.620092" lon="10.835158">
        <ele>664.817</ele>
        <time>2022-07-09T09:34:30Z</time>
      </trkpt>
      <trkpt lat="46.620419" lon="10.834255">
        <ele>662.918</ele>
        <time>2022-07-09T09:34:45Z</time>
      </trkpt>
      <trkpt lat="46.620423" lon="10.834184">
        <ele>662.909</ele>
        <time>2022-07-09T09:34:46Z</time>
      </trkpt>
      <trkpt lat="46.620414" lon="10.834120">
        <ele>662.914</ele>
        <time>2022-07-09T09:34:47Z</time>
      </trkpt>
      <trkpt lat="46.620391" lon="10.834063">
        <ele>662.973</ele>
        <time>2022-07-09T09:34:48Z</time>
      </trkpt>
      <trkpt lat="46.620351" lon="10.834004">
        <ele>662.981</ele>
        <time>2022-07-09T09:34:49Z</time>
      </trkpt>
      <trkpt lat="46.620314" lon="10.833962">
        <ele>662.493</ele>
        <time>2022-07-09T09:34:50Z</time>
      </trkpt>
      <trkpt lat="46.620273" lon="10.833917">
        <ele>662.469</ele>
        <time>2022-07-09T09:34:51Z</time>
      </trkpt>
      <trkpt lat="46.620191" lon="10.833816">
        <ele>662.083</ele>
        <time>2022-07-09T09:34:53Z</time>
      </trkpt>
      <trkpt lat="46.620171" lon="10.833778">
        <ele>662.064</ele>
        <time>2022-07-09T09:34:54Z</time>
      </trkpt>
      <trkpt lat="46.620161" lon="10.833738">
        <ele>662.042</ele>
        <time>2022-07-09T09:34:55Z</time>
      </trkpt>
      <trkpt lat="46.620156" lon="10.833710">
        <ele>662.036</ele>
        <time>2022-07-09T09:34:56Z</time>
      </trkpt>
      <trkpt lat="46.620145" lon="10.833677">
        <ele>663.441</ele>
        <time>2022-07-09T09:34:57Z</time>
      </trkpt>
      <trkpt lat="46.620131" lon="10.833655">
        <ele>663.481</ele>
        <time>2022-07-09T09:34:58Z</time>
      </trkpt>
      <trkpt lat="46.620108" lon="10.833633">
        <ele>663.409</ele>
        <time>2022-07-09T09:34:59Z</time>
      </trkpt>
      <trkpt lat="46.620080" lon="10.833614">
        <ele>663.409</ele>
        <time>2022-07-09T09:35:00Z</time>
      </trkpt>
      <trkpt lat="46.620045" lon="10.833594">
        <ele>663.425</ele>
        <time>2022-07-09T09:35:01Z</time>
      </trkpt>
      <trkpt lat="46.620009" lon="10.833579">
        <ele>663.494</ele>
        <time>2022-07-09T09:35:02Z</time>
      </trkpt>
      <trkpt lat="46.619940" lon="10.833534">
        <ele>663.492</ele>
        <time>2022-07-09T09:35:04Z</time>
      </trkpt>
      <trkpt lat="46.619934" lon="10.833483">
        <ele>663.444</ele>
        <time>2022-07-09T09:35:05Z</time>
      </trkpt>
      <trkpt lat="46.619949" lon="10.833419">
        <ele>663.450</ele>
        <time>2022-07-09T09:35:06Z</time>
      </trkpt>
      <trkpt lat="46.619966" lon="10.833378">
        <ele>663.414</ele>
        <time>2022-07-09T09:35:07Z</time>
      </trkpt>
      <trkpt lat="46.619988" lon="10.833324">
        <ele>663.415</ele>
        <time>2022-07-09T09:35:08Z</time>
      </trkpt>
      <trkpt lat="46.620005" lon="10.833268">
        <ele>663.433</ele>
        <time>2022-07-09T09:35:09Z</time>
      </trkpt>
      <trkpt lat="46.620020" lon="10.833210">
        <ele>663.497</ele>
        <time>2022-07-09T09:35:10Z</time>
      </trkpt>
      <trkpt lat="46.620175" lon="10.832494">
        <ele>664.455</ele>
        <time>2022-07-09T09:35:22Z</time>
      </trkpt>
      <trkpt lat="46.620158" lon="10.832465">
        <ele>664.407</ele>
        <time>2022-07-09T09:35:23Z</time>
      </trkpt>
      <trkpt lat="46.620180" lon="10.832412">
        <ele>664.417</ele>
        <time>2022-07-09T09:41:30Z</time>
      </trkpt>
      <trkpt lat="46.620200" lon="10.832393">
        <ele>664.409</ele>
        <time>2022-07-09T09:41:31Z</time>
      </trkpt>
      <trkpt lat="46.620219" lon="10.832364">
        <ele>664.466</ele>
        <time>2022-07-09T09:41:32Z</time>
      </trkpt>
      <trkpt lat="46.620233" lon="10.832337">
        <ele>664.435</ele>
        <time>2022-07-09T09:41:33Z</time>
      </trkpt>
      <trkpt lat="46.620246" lon="10.832303">
        <ele>664.493</ele>
        <time>2022-07-09T09:41:34Z</time>
      </trkpt>
      <trkpt lat="46.620256" lon="10.832263">
        <ele>664.425</ele>
        <time>2022-07-09T09:41:35Z</time>
      </trkpt>
      <trkpt lat="46.620265" lon="10.832222">
        <ele>664.421</ele>
        <time>2022-07-09T09:41:36Z</time>
      </trkpt>
      <trkpt lat="46.620502" lon="10.831395">
        <ele>665.375</ele>
        <time>2022-07-09T09:41:54Z</time>
      </trkpt>
      <trkpt lat="46.620677" lon="10.830473">
        <ele>665.366</ele>
        <time>2022-07-09T09:42:12Z</time>
      </trkpt>
      <trkpt lat="46.620704" lon="10.829544">
        <ele>665.374</ele>
        <time>2022-07-09T09:42:29Z</time>
      </trkpt>
      <trkpt lat="46.620625" lon="10.828638">
        <ele>666.378</ele>
        <time>2022-07-09T09:42:45Z</time>
      </trkpt>
      <trkpt lat="46.620462" lon="10.827560">
        <ele>666.873</ele>
        <time>2022-07-09T09:43:04Z</time>
      </trkpt>
      <trkpt lat="46.620440" lon="10.827430">
        <ele>664.485</ele>
        <time>2022-07-09T09:43:06Z</time>
      </trkpt>
      <trkpt lat="46.620419" lon="10.827312">
        <ele>667.213</ele>
        <time>2022-07-09T09:43:08Z</time>
      </trkpt>
      <trkpt lat="46.620412" lon="10.827261">
        <ele>667.209</ele>
        <time>2022-07-09T09:43:09Z</time>
      </trkpt>
      <trkpt lat="46.620329" lon="10.826905">
        <ele>665.858</ele>
        <time>2022-07-09T09:43:15Z</time>
      </trkpt>
      <trkpt lat="46.620185" lon="10.826165">
        <ele>665.867</ele>
        <time>2022-07-09T09:43:29Z</time>
      </trkpt>
      <trkpt lat="46.620129" lon="10.825891">
        <ele>665.865</ele>
        <time>2022-07-09T09:43:34Z</time>
      </trkpt>
      <trkpt lat="46.620105" lon="10.825840">
        <ele>665.817</ele>
        <time>2022-07-09T09:43:35Z</time>
      </trkpt>
      <trkpt lat="46.620078" lon="10.825799">
        <ele>665.853</ele>
        <time>2022-07-09T09:43:36Z</time>
      </trkpt>
      <trkpt lat="46.620050" lon="10.825756">
        <ele>665.877</ele>
        <time>2022-07-09T09:43:37Z</time>
      </trkpt>
      <trkpt lat="46.620025" lon="10.825710">
        <ele>665.848</ele>
        <time>2022-07-09T09:43:38Z</time>
      </trkpt>
      <trkpt lat="46.620006" lon="10.825654">
        <ele>667.216</ele>
        <time>2022-07-09T09:43:39Z</time>
      </trkpt>
      <trkpt lat="46.620000" lon="10.825599">
        <ele>667.290</ele>
        <time>2022-07-09T09:43:40Z</time>
      </trkpt>
      <trkpt lat="46.620002" lon="10.825546">
        <ele>667.228</ele>
        <time>2022-07-09T09:43:41Z</time>
      </trkpt>
      <trkpt lat="46.620003" lon="10.825502">
        <ele>667.289</ele>
        <time>2022-07-09T09:43:42Z</time>
      </trkpt>
      <trkpt lat="46.620017" lon="10.825280">
        <ele>668.217</ele>
        <time>2022-07-09T09:43:49Z</time>
      </trkpt>
      <trkpt lat="46.620021" lon="10.825263">
        <ele>668.209</ele>
        <time>2022-07-09T09:43:50Z</time>
      </trkpt>
      <trkpt lat="46.620024" lon="10.825239">
        <ele>668.233</ele>
        <time>2022-07-09T09:43:51Z</time>
      </trkpt>
      <trkpt lat="46.620026" lon="10.825210">
        <ele>668.232</ele>
        <time>2022-07-09T09:43:52Z</time>
      </trkpt>
      <trkpt lat="46.620025" lon="10.825178">
        <ele>668.240</ele>
        <time>2022-07-09T09:43:53Z</time>
      </trkpt>
      <trkpt lat="46.620021" lon="10.825140">
        <ele>668.252</ele>
        <time>2022-07-09T09:43:54Z</time>
      </trkpt>
      <trkpt lat="46.620015" lon="10.825102">
        <ele>668.228</ele>
        <time>2022-07-09T09:43:55Z</time>
      </trkpt>
      <trkpt lat="46.620047" lon="10.824627">
        <ele>668.222</ele>
        <time>2022-07-09T09:44:06Z</time>
      </trkpt>
      <trkpt lat="46.620143" lon="10.824156">
        <ele>669.253</ele>
        <time>2022-07-09T09:44:17Z</time>
      </trkpt>
      <trkpt lat="46.620064" lon="10.823296">
        <ele>669.731</ele>
        <time>2022-07-09T09:44:34Z</time>
      </trkpt>
      <trkpt lat="46.619925" lon="10.822250">
        <ele>670.185</ele>
        <time>2022-07-09T09:44:54Z</time>
      </trkpt>
      <trkpt lat="46.619780" lon="10.821285">
        <ele>670.683</ele>
        <time>2022-07-09T09:45:13Z</time>
      </trkpt>
      <trkpt lat="46.619607" lon="10.820132">
        <ele>671.125</ele>
        <time>2022-07-09T09:45:35Z</time>
      </trkpt>
      <trkpt lat="46.619541" lon="10.819069">
        <ele>671.617</ele>
        <time>2022-07-09T09:45:56Z</time>
      </trkpt>
      <trkpt lat="46.619697" lon="10.818115">
        <ele>672.509</ele>
        <time>2022-07-09T09:46:16Z</time>
      </trkpt>
      <trkpt lat="46.619845" lon="10.817264">
        <ele>673.579</ele>
        <time>2022-07-09T09:46:35Z</time>
      </trkpt>
      <trkpt lat="46.619838" lon="10.816290">
        <ele>674.038</ele>
        <time>2022-07-09T09:46:55Z</time>
      </trkpt>
      <trkpt lat="46.619732" lon="10.815414">
        <ele>674.046</ele>
        <time>2022-07-09T09:47:13Z</time>
      </trkpt>
      <trkpt lat="46.619562" lon="10.814473">
        <ele>674.538</ele>
        <time>2022-07-09T09:47:32Z</time>
      </trkpt>
      <trkpt lat="46.619416" lon="10.813786">
        <ele>674.974</ele>
        <time>2022-07-09T09:47:49Z</time>
      </trkpt>
      <trkpt lat="46.619395" lon="10.813747">
        <ele>674.968</ele>
        <time>2022-07-09T09:48:02Z</time>
      </trkpt>
      <trkpt lat="46.619395" lon="10.813740">
        <ele>674.559</ele>
        <time>2022-07-09T09:48:28Z</time>
      </trkpt>
      <trkpt lat="46.619389" lon="10.813762">
        <ele>674.997</ele>
        <time>2022-07-09T09:48:58Z</time>
      </trkpt>
      <trkpt lat="46.619384" lon="10.813732">
        <ele>674.921</ele>
        <time>2022-07-09T09:49:01Z</time>
      </trkpt>
      <trkpt lat="46.619293" lon="10.813257">
        <ele>674.951</ele>
        <time>2022-07-09T09:49:14Z</time>
      </trkpt>
      <trkpt lat="46.619138" lon="10.812565">
        <ele>675.401</ele>
        <time>2022-07-09T09:49:29Z</time>
      </trkpt>
      <trkpt lat="46.618864" lon="10.811668">
        <ele>673.011</ele>
        <time>2022-07-09T09:49:46Z</time>
      </trkpt>
      <trkpt lat="46.618844" lon="10.811584">
        <ele>673.009</ele>
        <time>2022-07-09T09:49:47Z</time>
      </trkpt>
      <trkpt lat="46.618831" lon="10.811495">
        <ele>672.576</ele>
        <time>2022-07-09T09:49:48Z</time>
      </trkpt>
      <trkpt lat="46.618823" lon="10.811343">
        <ele>674.045</ele>
        <time>2022-07-09T09:49:51Z</time>
      </trkpt>
      <trkpt lat="46.618820" lon="10.811261">
        <ele>675.413</ele>
        <time>2022-07-09T09:49:54Z</time>
      </trkpt>
      <trkpt lat="46.618830" lon="10.810783">
        <ele>676.425</ele>
        <time>2022-07-09T09:50:07Z</time>
      </trkpt>
      <trkpt lat="46.618853" lon="10.810408">
        <ele>676.941</ele>
        <time>2022-07-09T09:50:18Z</time>
      </trkpt>
      <trkpt lat="46.618858" lon="10.810390">
        <ele>676.915</ele>
        <time>2022-07-09T09:50:41Z</time>
      </trkpt>
      <trkpt lat="46.618885" lon="10.810149">
        <ele>676.976</ele>
        <time>2022-07-09T09:50:51Z</time>
      </trkpt>
      <trkpt lat="46.618940" lon="10.809233">
        <ele>677.384</ele>
        <time>2022-07-09T09:51:07Z</time>
      </trkpt>
      <trkpt lat="46.618872" lon="10.808059">
        <ele>677.328</ele>
        <time>2022-07-09T09:51:27Z</time>
      </trkpt>
      <trkpt lat="46.618800" lon="10.807102">
        <ele>678.848</ele>
        <time>2022-07-09T09:51:46Z</time>
      </trkpt>
      <trkpt lat="46.618684" lon="10.806140">
        <ele>678.861</ele>
        <time>2022-07-09T09:52:05Z</time>
      </trkpt>
      <trkpt lat="46.618484" lon="10.805007">
        <ele>679.317</ele>
        <time>2022-07-09T09:52:27Z</time>
      </trkpt>
      <trkpt lat="46.618308" lon="10.803934">
        <ele>680.709</ele>
        <time>2022-07-09T09:52:48Z</time>
      </trkpt>
      <trkpt lat="46.618204" lon="10.802868">
        <ele>680.735</ele>
        <time>2022-07-09T09:53:08Z</time>
      </trkpt>
      <trkpt lat="46.618101" lon="10.801807">
        <ele>681.234</ele>
        <time>2022-07-09T09:53:29Z</time>
      </trkpt>
      <trkpt lat="46.618031" lon="10.800725">
        <ele>681.782</ele>
        <time>2022-07-09T09:53:50Z</time>
      </trkpt>
      <trkpt lat="46.617969" lon="10.799755">
        <ele>683.154</ele>
        <time>2022-07-09T09:54:09Z</time>
      </trkpt>
      <trkpt lat="46.617837" lon="10.798712">
        <ele>683.630</ele>
        <time>2022-07-09T09:54:29Z</time>
      </trkpt>
      <trkpt lat="46.617703" lon="10.797615">
        <ele>683.674</ele>
        <time>2022-07-09T09:54:50Z</time>
      </trkpt>
      <trkpt lat="46.617580" lon="10.796390">
        <ele>685.095</ele>
        <time>2022-07-09T09:55:13Z</time>
      </trkpt>
      <trkpt lat="46.617493" lon="10.795328">
        <ele>686.523</ele>
        <time>2022-07-09T09:55:33Z</time>
      </trkpt>
      <trkpt lat="46.617332" lon="10.794350">
        <ele>686.567</ele>
        <time>2022-07-09T09:55:52Z</time>
      </trkpt>
      <trkpt lat="46.617111" lon="10.793512">
        <ele>687.436</ele>
        <time>2022-07-09T09:56:10Z</time>
      </trkpt>
      <trkpt lat="46.616849" lon="10.792536">
        <ele>688.417</ele>
        <time>2022-07-09T09:56:31Z</time>
      </trkpt>
      <trkpt lat="46.616620" lon="10.791490">
        <ele>689.418</ele>
        <time>2022-07-09T09:56:53Z</time>
      </trkpt>
      <trkpt lat="46.616645" lon="10.790564">
        <ele>688.409</ele>
        <time>2022-07-09T09:57:11Z</time>
      </trkpt>
      <trkpt lat="46.616554" lon="10.789693">
        <ele>690.324</ele>
        <time>2022-07-09T09:57:28Z</time>
      </trkpt>
      <trkpt lat="46.616529" lon="10.788867">
        <ele>690.823</ele>
        <time>2022-07-09T09:57:45Z</time>
      </trkpt>
      <trkpt lat="46.616444" lon="10.788060">
        <ele>691.851</ele>
        <time>2022-07-09T09:58:02Z</time>
      </trkpt>
      <trkpt lat="46.616310" lon="10.787383">
        <ele>692.253</ele>
        <time>2022-07-09T09:58:16Z</time>
      </trkpt>
      <trkpt lat="46.616136" lon="10.786684">
        <ele>693.259</ele>
        <time>2022-07-09T09:58:32Z</time>
      </trkpt>
      <trkpt lat="46.616038" lon="10.785767">
        <ele>693.753</ele>
        <time>2022-07-09T09:58:50Z</time>
      </trkpt>
      <trkpt lat="46.616016" lon="10.785023">
        <ele>695.694</ele>
        <time>2022-07-09T09:59:07Z</time>
      </trkpt>
      <trkpt lat="46.616070" lon="10.784231">
        <ele>697.552</ele>
        <time>2022-07-09T09:59:25Z</time>
      </trkpt>
      <trkpt lat="46.616090" lon="10.784058">
        <ele>697.586</ele>
        <time>2022-07-09T09:59:29Z</time>
      </trkpt>
      <trkpt lat="46.616186" lon="10.783456">
        <ele>698.097</ele>
        <time>2022-07-09T09:59:44Z</time>
      </trkpt>
      <trkpt lat="46.616216" lon="10.783438">
        <ele>698.523</ele>
        <time>2022-07-09T09:59:45Z</time>
      </trkpt>
      <trkpt lat="46.616239" lon="10.783424">
        <ele>698.525</ele>
        <time>2022-07-09T09:59:46Z</time>
      </trkpt>
      <trkpt lat="46.616547" lon="10.782988">
        <ele>698.509</ele>
        <time>2022-07-09T10:00:00Z</time>
      </trkpt>
      <trkpt lat="46.616709" lon="10.782163">
        <ele>698.540</ele>
        <time>2022-07-09T10:00:19Z</time>
      </trkpt>
      <trkpt lat="46.616844" lon="10.781497">
        <ele>700.489</ele>
        <time>2022-07-09T10:00:36Z</time>
      </trkpt>
      <trkpt lat="46.617246" lon="10.781504">
        <ele>700.487</ele>
        <time>2022-07-09T10:00:49Z</time>
      </trkpt>
      <trkpt lat="46.617748" lon="10.781539">
        <ele>700.419</ele>
        <time>2022-07-09T10:01:05Z</time>
      </trkpt>
      <trkpt lat="46.618380" lon="10.781420">
        <ele>700.985</ele>
        <time>2022-07-09T10:01:25Z</time>
      </trkpt>
      <trkpt lat="46.618963" lon="10.781396">
        <ele>701.439</ele>
        <time>2022-07-09T10:01:43Z</time>
      </trkpt>
      <trkpt lat="46.619496" lon="10.781164">
        <ele>701.940</ele>
        <time>2022-07-09T10:02:00Z</time>
      </trkpt>
      <trkpt lat="46.620007" lon="10.780891">
        <ele>702.318</ele>
        <time>2022-07-09T10:02:18Z</time>
      </trkpt>
      <trkpt lat="46.620283" lon="10.780410">
        <ele>703.852</ele>
        <time>2022-07-09T10:02:33Z</time>
      </trkpt>
      <trkpt lat="46.620556" lon="10.779619">
        <ele>705.223</ele>
        <time>2022-07-09T10:02:54Z</time>
      </trkpt>
      <trkpt lat="46.620707" lon="10.779139">
        <ele>706.783</ele>
        <time>2022-07-09T10:03:08Z</time>
      </trkpt>
      <trkpt lat="46.620811" lon="10.778310">
        <ele>708.111</ele>
        <time>2022-07-09T10:03:28Z</time>
      </trkpt>
      <trkpt lat="46.620949" lon="10.777655">
        <ele>708.609</ele>
        <time>2022-07-09T10:03:45Z</time>
      </trkpt>
      <trkpt lat="46.621196" lon="10.776896">
        <ele>710.023</ele>
        <time>2022-07-09T10:04:05Z</time>
      </trkpt>
      <trkpt lat="46.621431" lon="10.776164">
        <ele>710.572</ele>
        <time>2022-07-09T10:04:23Z</time>
      </trkpt>
      <trkpt lat="46.621728" lon="10.775374">
        <ele>712.490</ele>
        <time>2022-07-09T10:04:44Z</time>
      </trkpt>
      <trkpt lat="46.621981" lon="10.774742">
        <ele>713.452</ele>
        <time>2022-07-09T10:05:00Z</time>
      </trkpt>
      <trkpt lat="46.622284" lon="10.774210">
        <ele>714.428</ele>
        <time>2022-07-09T10:05:18Z</time>
      </trkpt>
      <trkpt lat="46.622301" lon="10.774200">
        <ele>714.482</ele>
        <time>2022-07-09T10:05:19Z</time>
      </trkpt>
      <trkpt lat="46.622312" lon="10.774201">
        <ele>714.463</ele>
        <time>2022-07-09T10:05:20Z</time>
      </trkpt>
      <trkpt lat="46.622310" lon="10.774196">
        <ele>714.481</ele>
        <time>2022-07-09T10:06:44Z</time>
      </trkpt>
      <trkpt lat="46.622273" lon="10.774139">
        <ele>713.955</ele>
        <time>2022-07-09T10:06:45Z</time>
      </trkpt>
      <trkpt lat="46.622259" lon="10.774083">
        <ele>713.923</ele>
        <time>2022-07-09T10:06:46Z</time>
      </trkpt>
      <trkpt lat="46.622247" lon="10.774001">
        <ele>713.983</ele>
        <time>2022-07-09T10:06:47Z</time>
      </trkpt>
      <trkpt lat="46.622241" lon="10.773948">
        <ele>713.911</ele>
        <time>2022-07-09T10:06:48Z</time>
      </trkpt>
      <trkpt lat="46.622085" lon="10.772889">
        <ele>713.909</ele>
        <time>2022-07-09T10:07:08Z</time>
      </trkpt>
      <trkpt lat="46.622070" lon="10.772749">
        <ele>714.813</ele>
        <time>2022-07-09T10:07:11Z</time>
      </trkpt>
      <trkpt lat="46.621971" lon="10.771860">
        <ele>716.332</ele>
        <time>2022-07-09T10:07:32Z</time>
      </trkpt>
      <trkpt lat="46.621716" lon="10.771136">
        <ele>718.240</ele>
        <time>2022-07-09T10:07:51Z</time>
      </trkpt>
      <trkpt lat="46.621497" lon="10.770425">
        <ele>719.252</ele>
        <time>2022-07-09T10:08:10Z</time>
      </trkpt>
      <trkpt lat="46.621346" lon="10.769641">
        <ele>720.188</ele>
        <time>2022-07-09T10:08:29Z</time>
      </trkpt>
      <trkpt lat="46.621235" lon="10.768749">
        <ele>721.132</ele>
        <time>2022-07-09T10:08:50Z</time>
      </trkpt>
      <trkpt lat="46.621281" lon="10.768093">
        <ele>723.523</ele>
        <time>2022-07-09T10:09:07Z</time>
      </trkpt>
      <trkpt lat="46.621377" lon="10.767403">
        <ele>724.981</ele>
        <time>2022-07-09T10:09:26Z</time>
      </trkpt>
      <trkpt lat="46.621294" lon="10.766754">
        <ele>724.915</ele>
        <time>2022-07-09T10:09:42Z</time>
      </trkpt>
      <trkpt lat="46.621135" lon="10.766193">
        <ele>724.083</ele>
        <time>2022-07-09T10:09:55Z</time>
      </trkpt>
      <trkpt lat="46.621117" lon="10.766127">
        <ele>724.025</ele>
        <time>2022-07-09T10:09:56Z</time>
      </trkpt>
      <trkpt lat="46.621035" lon="10.765340">
        <ele>725.417</ele>
        <time>2022-07-09T10:10:11Z</time>
      </trkpt>
      <trkpt lat="46.621032" lon="10.764704">
        <ele>726.409</ele>
        <time>2022-07-09T10:10:26Z</time>
      </trkpt>
      <trkpt lat="46.621007" lon="10.763931">
        <ele>726.819</ele>
        <time>2022-07-09T10:10:42Z</time>
      </trkpt>
      <trkpt lat="46.620991" lon="10.763852">
        <ele>727.878</ele>
        <time>2022-07-09T10:10:44Z</time>
      </trkpt>
      <trkpt lat="46.620970" lon="10.763830">
        <ele>727.876</ele>
        <time>2022-07-09T10:10:45Z</time>
      </trkpt>
      <trkpt lat="46.620942" lon="10.763815">
        <ele>727.868</ele>
        <time>2022-07-09T10:10:46Z</time>
      </trkpt>
      <trkpt lat="46.620917" lon="10.763808">
        <ele>727.884</ele>
        <time>2022-07-09T10:10:47Z</time>
      </trkpt>
      <trkpt lat="46.620887" lon="10.763808">
        <ele>727.888</ele>
        <time>2022-07-09T10:10:48Z</time>
      </trkpt>
      <trkpt lat="46.620856" lon="10.763811">
        <ele>727.869</ele>
        <time>2022-07-09T10:10:49Z</time>
      </trkpt>
      <trkpt lat="46.620810" lon="10.763819">
        <ele>727.857</ele>
        <time>2022-07-09T10:10:50Z</time>
      </trkpt>
      <trkpt lat="46.620794" lon="10.763827">
        <ele>727.851</ele>
        <time>2022-07-09T10:10:51Z</time>
      </trkpt>
      <trkpt lat="46.620760" lon="10.763849">
        <ele>727.817</ele>
        <time>2022-07-09T10:10:52Z</time>
      </trkpt>
      <trkpt lat="46.620736" lon="10.763864">
        <ele>727.887</ele>
        <time>2022-07-09T10:10:53Z</time>
      </trkpt>
      <trkpt lat="46.620680" lon="10.763867">
        <ele>728.315</ele>
        <time>2022-07-09T10:10:55Z</time>
      </trkpt>
      <trkpt lat="46.620654" lon="10.763850">
        <ele>728.309</ele>
        <time>2022-07-09T10:10:56Z</time>
      </trkpt>
      <trkpt lat="46.620633" lon="10.763832">
        <ele>728.312</ele>
        <time>2022-07-09T10:10:57Z</time>
      </trkpt>
      <trkpt lat="46.620613" lon="10.763809">
        <ele>728.331</ele>
        <time>2022-07-09T10:10:58Z</time>
      </trkpt>
      <trkpt lat="46.620600" lon="10.763780">
        <ele>728.369</ele>
        <time>2022-07-09T10:10:59Z</time>
      </trkpt>
      <trkpt lat="46.620589" lon="10.763741">
        <ele>728.361</ele>
        <time>2022-07-09T10:11:00Z</time>
      </trkpt>
      <trkpt lat="46.620582" lon="10.763696">
        <ele>728.327</ele>
        <time>2022-07-09T10:11:01Z</time>
      </trkpt>
      <trkpt lat="46.620575" lon="10.763649">
        <ele>728.381</ele>
        <time>2022-07-09T10:11:02Z</time>
      </trkpt>
      <trkpt lat="46.620570" lon="10.763609">
        <ele>728.392</ele>
        <time>2022-07-09T10:11:03Z</time>
      </trkpt>
      <trkpt lat="46.620565" lon="10.763574">
        <ele>728.360</ele>
        <time>2022-07-09T10:11:04Z</time>
      </trkpt>
      <trkpt lat="46.620558" lon="10.763539">
        <ele>728.354</ele>
        <time>2022-07-09T10:11:05Z</time>
      </trkpt>
      <trkpt lat="46.620427" lon="10.763189">
        <ele>729.399</ele>
        <time>2022-07-09T10:11:16Z</time>
      </trkpt>
      <trkpt lat="46.620379" lon="10.763117">
        <ele>729.707</ele>
        <time>2022-07-09T10:11:19Z</time>
      </trkpt>
      <trkpt lat="46.620368" lon="10.763088">
        <ele>729.727</ele>
        <time>2022-07-09T10:11:20Z</time>
      </trkpt>
      <trkpt lat="46.620187" lon="10.762412">
        <ele>730.209</ele>
        <time>2022-07-09T10:11:37Z</time>
      </trkpt>
      <trkpt lat="46.619917" lon="10.762043">
        <ele>730.760</ele>
        <time>2022-07-09T10:11:49Z</time>
      </trkpt>
      <trkpt lat="46.619641" lon="10.761461">
        <ele>732.659</ele>
        <time>2022-07-09T10:12:07Z</time>
      </trkpt>
      <trkpt lat="46.619501" lon="10.761130">
        <ele>734.177</ele>
        <time>2022-07-09T10:12:20Z</time>
      </trkpt>
      <trkpt lat="46.619342" lon="10.760678">
        <ele>735.559</ele>
        <time>2022-07-09T10:12:37Z</time>
      </trkpt>
      <trkpt lat="46.619195" lon="10.760038">
        <ele>736.055</ele>
        <time>2022-07-09T10:12:53Z</time>
      </trkpt>
      <trkpt lat="46.619152" lon="10.759741">
        <ele>734.569</ele>
        <time>2022-07-09T10:12:58Z</time>
      </trkpt>
      <trkpt lat="46.618957" lon="10.759070">
        <ele>734.570</ele>
        <time>2022-07-09T10:13:12Z</time>
      </trkpt>
      <trkpt lat="46.618911" lon="10.758974">
        <ele>736.078</ele>
        <time>2022-07-09T10:13:15Z</time>
      </trkpt>
      <trkpt lat="46.618718" lon="10.758292">
        <ele>737.482</ele>
        <time>2022-07-09T10:13:32Z</time>
      </trkpt>
      <trkpt lat="46.618709" lon="10.758235">
        <ele>737.417</ele>
        <time>2022-07-09T10:13:33Z</time>
      </trkpt>
      <trkpt lat="46.618698" lon="10.758170">
        <ele>736.587</ele>
        <time>2022-07-09T10:13:34Z</time>
      </trkpt>
      <trkpt lat="46.618683" lon="10.758101">
        <ele>736.515</ele>
        <time>2022-07-09T10:13:35Z</time>
      </trkpt>
      <trkpt lat="46.618517" lon="10.757474">
        <ele>737.409</ele>
        <time>2022-07-09T10:13:46Z</time>
      </trkpt>
      <trkpt lat="46.618383" lon="10.756878">
        <ele>738.922</ele>
        <time>2022-07-09T10:14:02Z</time>
      </trkpt>
      <trkpt lat="46.618292" lon="10.756324">
        <ele>739.891</ele>
        <time>2022-07-09T10:14:16Z</time>
      </trkpt>
      <trkpt lat="46.618268" lon="10.755878">
        <ele>741.729</ele>
        <time>2022-07-09T10:14:29Z</time>
      </trkpt>
      <trkpt lat="46.618260" lon="10.755334">
        <ele>743.291</ele>
        <time>2022-07-09T10:14:46Z</time>
      </trkpt>
      <trkpt lat="46.618226" lon="10.754858">
        <ele>745.167</ele>
        <time>2022-07-09T10:15:03Z</time>
      </trkpt>
      <trkpt lat="46.618227" lon="10.754644">
        <ele>746.131</ele>
        <time>2022-07-09T10:15:10Z</time>
      </trkpt>
      <trkpt lat="46.618224" lon="10.754615">
        <ele>746.122</ele>
        <time>2022-07-09T10:15:11Z</time>
      </trkpt>
      <trkpt lat="46.618206" lon="10.754093">
        <ele>749.020</ele>
        <time>2022-07-09T10:15:31Z</time>
      </trkpt>
      <trkpt lat="46.618217" lon="10.753772">
        <ele>751.894</ele>
        <time>2022-07-09T10:15:45Z</time>
      </trkpt>
      <trkpt lat="46.618244" lon="10.753415">
        <ele>755.285</ele>
        <time>2022-07-09T10:16:02Z</time>
      </trkpt>
      <trkpt lat="46.618288" lon="10.753025">
        <ele>755.789</ele>
        <time>2022-07-09T10:16:20Z</time>
      </trkpt>
      <trkpt lat="46.618284" lon="10.752915">
        <ele>757.117</ele>
        <time>2022-07-09T10:16:25Z</time>
      </trkpt>
      <trkpt lat="46.618284" lon="10.752450">
        <ele>759.509</ele>
        <time>2022-07-09T10:16:45Z</time>
      </trkpt>
      <trkpt lat="46.618282" lon="10.752398">
        <ele>760.029</ele>
        <time>2022-07-09T10:16:47Z</time>
      </trkpt>
      <trkpt lat="46.618278" lon="10.752379">
        <ele>760.048</ele>
        <time>2022-07-09T10:16:48Z</time>
      </trkpt>
      <trkpt lat="46.618171" lon="10.751959">
        <ele>761.576</ele>
        <time>2022-07-09T10:17:06Z</time>
      </trkpt>
      <trkpt lat="46.618106" lon="10.751489">
        <ele>762.428</ele>
        <time>2022-07-09T10:17:20Z</time>
      </trkpt>
      <trkpt lat="46.617908" lon="10.750528">
        <ele>760.094</ele>
        <time>2022-07-09T10:17:35Z</time>
      </trkpt>
      <trkpt lat="46.617868" lon="10.750400">
        <ele>760.088</ele>
        <time>2022-07-09T10:17:37Z</time>
      </trkpt>
      <trkpt lat="46.617835" lon="10.750347">
        <ele>760.059</ele>
        <time>2022-07-09T10:17:38Z</time>
      </trkpt>
      <trkpt lat="46.617798" lon="10.750304">
        <ele>760.087</ele>
        <time>2022-07-09T10:17:39Z</time>
      </trkpt>
      <trkpt lat="46.617764" lon="10.750274">
        <ele>760.041</ele>
        <time>2022-07-09T10:17:40Z</time>
      </trkpt>
      <trkpt lat="46.617719" lon="10.750249">
        <ele>759.556</ele>
        <time>2022-07-09T10:17:41Z</time>
      </trkpt>
      <trkpt lat="46.617677" lon="10.750229">
        <ele>759.559</ele>
        <time>2022-07-09T10:17:42Z</time>
      </trkpt>
      <trkpt lat="46.617644" lon="10.750217">
        <ele>759.514</ele>
        <time>2022-07-09T10:17:43Z</time>
      </trkpt>
      <trkpt lat="46.617522" lon="10.750174">
        <ele>760.009</ele>
        <time>2022-07-09T10:17:46Z</time>
      </trkpt>
      <trkpt lat="46.617475" lon="10.750145">
        <ele>759.166</ele>
        <time>2022-07-09T10:17:47Z</time>
      </trkpt>
      <trkpt lat="46.617431" lon="10.750102">
        <ele>759.175</ele>
        <time>2022-07-09T10:17:48Z</time>
      </trkpt>
      <trkpt lat="46.617399" lon="10.750053">
        <ele>759.133</ele>
        <time>2022-07-09T10:17:49Z</time>
      </trkpt>
      <trkpt lat="46.617373" lon="10.749996">
        <ele>759.135</ele>
        <time>2022-07-09T10:17:50Z</time>
      </trkpt>
      <trkpt lat="46.617352" lon="10.749932">
        <ele>759.161</ele>
        <time>2022-07-09T10:17:51Z</time>
      </trkpt>
      <trkpt lat="46.617335" lon="10.749862">
        <ele>759.125</ele>
        <time>2022-07-09T10:17:52Z</time>
      </trkpt>
      <trkpt lat="46.617325" lon="10.749795">
        <ele>759.146</ele>
        <time>2022-07-09T10:17:53Z</time>
      </trkpt>
      <trkpt lat="46.617321" lon="10.749742">
        <ele>759.174</ele>
        <time>2022-07-09T10:17:54Z</time>
      </trkpt>
      <trkpt lat="46.617316" lon="10.749670">
        <ele>759.198</ele>
        <time>2022-07-09T10:17:55Z</time>
      </trkpt>
      <trkpt lat="46.617308" lon="10.749611">
        <ele>759.152</ele>
        <time>2022-07-09T10:17:56Z</time>
      </trkpt>
      <trkpt lat="46.617172" lon="10.749208">
        <ele>760.553</ele>
        <time>2022-07-09T10:18:04Z</time>
      </trkpt>
      <trkpt lat="46.616983" lon="10.748793">
        <ele>760.508</ele>
        <time>2022-07-09T10:18:15Z</time>
      </trkpt>
      <trkpt lat="46.616640" lon="10.748281">
        <ele>761.009</ele>
        <time>2022-07-09T10:18:32Z</time>
      </trkpt>
      <trkpt lat="46.616379" lon="10.748120">
        <ele>763.486</ele>
        <time>2022-07-09T10:18:47Z</time>
      </trkpt>
      <trkpt lat="46.616132" lon="10.747952">
        <ele>766.375</ele>
        <time>2022-07-09T10:19:02Z</time>
      </trkpt>
      <trkpt lat="46.615820" lon="10.747718">
        <ele>767.263</ele>
        <time>2022-07-09T10:19:18Z</time>
      </trkpt>
      <trkpt lat="46.615769" lon="10.747684">
        <ele>765.835</ele>
        <time>2022-07-09T10:19:20Z</time>
      </trkpt>
      <trkpt lat="46.615519" lon="10.747414">
        <ele>764.871</ele>
        <time>2022-07-09T10:19:29Z</time>
      </trkpt>
      <trkpt lat="46.615239" lon="10.747046">
        <ele>765.375</ele>
        <time>2022-07-09T10:19:41Z</time>
      </trkpt>
      <trkpt lat="46.615067" lon="10.746648">
        <ele>766.766</ele>
        <time>2022-07-09T10:19:56Z</time>
      </trkpt>
      <trkpt lat="46.615034" lon="10.746005">
        <ele>766.784</ele>
        <time>2022-07-09T10:20:11Z</time>
      </trkpt>
      <trkpt lat="46.615009" lon="10.745833">
        <ele>768.748</ele>
        <time>2022-07-09T10:20:17Z</time>
      </trkpt>
      <trkpt lat="46.614987" lon="10.745277">
        <ele>769.655</ele>
        <time>2022-07-09T10:20:35Z</time>
      </trkpt>
      <trkpt lat="46.614942" lon="10.745044">
        <ele>769.607</ele>
        <time>2022-07-09T10:20:43Z</time>
      </trkpt>
      <trkpt lat="46.614926" lon="10.745012">
        <ele>769.617</ele>
        <time>2022-07-09T10:20:44Z</time>
      </trkpt>
      <trkpt lat="46.614914" lon="10.744991">
        <ele>770.109</ele>
        <time>2022-07-09T10:20:45Z</time>
      </trkpt>
      <trkpt lat="46.614895" lon="10.744959">
        <ele>770.116</ele>
        <time>2022-07-09T10:20:46Z</time>
      </trkpt>
      <trkpt lat="46.614886" lon="10.744939">
        <ele>770.125</ele>
        <time>2022-07-09T10:20:47Z</time>
      </trkpt>
      <trkpt lat="46.614672" lon="10.744604">
        <ele>773.033</ele>
        <time>2022-07-09T10:21:04Z</time>
      </trkpt>
      <trkpt lat="46.614513" lon="10.744332">
        <ele>775.985</ele>
        <time>2022-07-09T10:21:20Z</time>
      </trkpt>
      <trkpt lat="46.614338" lon="10.743980">
        <ele>775.961</ele>
        <time>2022-07-09T10:21:35Z</time>
      </trkpt>
      <trkpt lat="46.614076" lon="10.743475">
        <ele>776.465</ele>
        <time>2022-07-09T10:21:53Z</time>
      </trkpt>
      <trkpt lat="46.613935" lon="10.742871">
        <ele>778.336</ele>
        <time>2022-07-09T10:22:11Z</time>
      </trkpt>
      <trkpt lat="46.613888" lon="10.742356">
        <ele>780.234</ele>
        <time>2022-07-09T10:22:26Z</time>
      </trkpt>
      <trkpt lat="46.613846" lon="10.741852">
        <ele>781.678</ele>
        <time>2022-07-09T10:22:41Z</time>
      </trkpt>
      <trkpt lat="46.613845" lon="10.741392">
        <ele>783.634</ele>
        <time>2022-07-09T10:22:54Z</time>
      </trkpt>
      <trkpt lat="46.613695" lon="10.740903">
        <ele>783.655</ele>
        <time>2022-07-09T10:23:07Z</time>
      </trkpt>
      <trkpt lat="46.613525" lon="10.740493">
        <ele>785.010</ele>
        <time>2022-07-09T10:23:20Z</time>
      </trkpt>
      <trkpt lat="46.613488" lon="10.740449">
        <ele>786.009</ele>
        <time>2022-07-09T10:23:23Z</time>
      </trkpt>
      <trkpt lat="46.613480" lon="10.740435">
        <ele>786.014</ele>
        <time>2022-07-09T10:23:24Z</time>
      </trkpt>
      <trkpt lat="46.613464" lon="10.740391">
        <ele>786.973</ele>
        <time>2022-07-09T10:23:27Z</time>
      </trkpt>
      <trkpt lat="46.613466" lon="10.740354">
        <ele>787.451</ele>
        <time>2022-07-09T10:23:41Z</time>
      </trkpt>
      <trkpt lat="46.613461" lon="10.740386">
        <ele>786.033</ele>
        <time>2022-07-09T10:23:57Z</time>
      </trkpt>
      <trkpt lat="46.613455" lon="10.740336">
        <ele>787.959</ele>
        <time>2022-07-09T10:24:15Z</time>
      </trkpt>
      <trkpt lat="46.613463" lon="10.740321">
        <ele>786.933</ele>
        <time>2022-07-09T10:24:17Z</time>
      </trkpt>
      <trkpt lat="46.613511" lon="10.740207">
        <ele>786.924</ele>
        <time>2022-07-09T10:24:29Z</time>
      </trkpt>
      <trkpt lat="46.613459" lon="10.740248">
        <ele>786.962</ele>
        <time>2022-07-09T10:24:39Z</time>
      </trkpt>
      <trkpt lat="46.613448" lon="10.740301">
        <ele>786.926</ele>
        <time>2022-07-09T10:24:44Z</time>
      </trkpt>
      <trkpt lat="46.613452" lon="10.740324">
        <ele>786.959</ele>
        <time>2022-07-09T10:24:45Z</time>
      </trkpt>
      <trkpt lat="46.613459" lon="10.740347">
        <ele>786.903</ele>
        <time>2022-07-09T10:24:46Z</time>
      </trkpt>
      <trkpt lat="46.613461" lon="10.740357">
        <ele>786.523</ele>
        <time>2022-07-09T10:24:47Z</time>
      </trkpt>
      <trkpt lat="46.613472" lon="10.740345">
        <ele>786.509</ele>
        <time>2022-07-09T10:24:50Z</time>
      </trkpt>
      <trkpt lat="46.613472" lon="10.740326">
        <ele>786.516</ele>
        <time>2022-07-09T10:24:51Z</time>
      </trkpt>
      <trkpt lat="46.613472" lon="10.740312">
        <ele>786.525</ele>
        <time>2022-07-09T10:24:52Z</time>
      </trkpt>
      <trkpt lat="46.613472" lon="10.740292">
        <ele>786.533</ele>
        <time>2022-07-09T10:24:53Z</time>
      </trkpt>
      <trkpt lat="46.613477" lon="10.740268">
        <ele>786.535</ele>
        <time>2022-07-09T10:24:54Z</time>
      </trkpt>
      <trkpt lat="46.613480" lon="10.740256">
        <ele>786.531</ele>
        <time>2022-07-09T10:24:55Z</time>
      </trkpt>
      <trkpt lat="46.613487" lon="10.740239">
        <ele>786.555</ele>
        <time>2022-07-09T10:24:56Z</time>
      </trkpt>
      <trkpt lat="46.613497" lon="10.740221">
        <ele>786.536</ele>
        <time>2022-07-09T10:24:57Z</time>
      </trkpt>
      <trkpt lat="46.613509" lon="10.740201">
        <ele>786.594</ele>
        <time>2022-07-09T10:24:58Z</time>
      </trkpt>
      <trkpt lat="46.613523" lon="10.740184">
        <ele>787.938</ele>
        <time>2022-07-09T10:24:59Z</time>
      </trkpt>
      <trkpt lat="46.613539" lon="10.740169">
        <ele>787.923</ele>
        <time>2022-07-09T10:25:00Z</time>
      </trkpt>
      <trkpt lat="46.613734" lon="10.739709">
        <ele>786.583</ele>
        <time>2022-07-09T10:25:13Z</time>
      </trkpt>
      <trkpt lat="46.613732" lon="10.739665">
        <ele>786.511</ele>
        <time>2022-07-09T10:25:14Z</time>
      </trkpt>
      <trkpt lat="46.613803" lon="10.739195">
        <ele>788.409</ele>
        <time>2022-07-09T10:25:28Z</time>
      </trkpt>
      <trkpt lat="46.613922" lon="10.738582">
        <ele>789.353</ele>
        <time>2022-07-09T10:25:48Z</time>
      </trkpt>
      <trkpt lat="46.613945" lon="10.738097">
        <ele>789.822</ele>
        <time>2022-07-09T10:26:02Z</time>
      </trkpt>
      <trkpt lat="46.613992" lon="10.737501">
        <ele>791.330</ele>
        <time>2022-07-09T10:26:21Z</time>
      </trkpt>
      <trkpt lat="46.613965" lon="10.737066">
        <ele>792.732</ele>
        <time>2022-07-09T10:26:35Z</time>
      </trkpt>
      <trkpt lat="46.613918" lon="10.736695">
        <ele>795.168</ele>
        <time>2022-07-09T10:26:48Z</time>
      </trkpt>
      <trkpt lat="46.613811" lon="10.736242">
        <ele>795.652</ele>
        <time>2022-07-09T10:27:03Z</time>
      </trkpt>
      <trkpt lat="46.613750" lon="10.735861">
        <ele>797.093</ele>
        <time>2022-07-09T10:27:15Z</time>
      </trkpt>
      <trkpt lat="46.613717" lon="10.735385">
        <ele>798.911</ele>
        <time>2022-07-09T10:27:30Z</time>
      </trkpt>
      <trkpt lat="46.613648" lon="10.734966">
        <ele>799.415</ele>
        <time>2022-07-09T10:27:44Z</time>
      </trkpt>
      <trkpt lat="46.613653" lon="10.734503">
        <ele>800.977</ele>
        <time>2022-07-09T10:27:58Z</time>
      </trkpt>
      <trkpt lat="46.613614" lon="10.733952">
        <ele>801.461</ele>
        <time>2022-07-09T10:28:13Z</time>
      </trkpt>
      <trkpt lat="46.613634" lon="10.733236">
        <ele>802.327</ele>
        <time>2022-07-09T10:28:32Z</time>
      </trkpt>
      <trkpt lat="46.613535" lon="10.732857">
        <ele>802.809</ele>
        <time>2022-07-09T10:28:44Z</time>
      </trkpt>
      <trkpt lat="46.613344" lon="10.732372">
        <ele>804.238</ele>
        <time>2022-07-09T10:28:59Z</time>
      </trkpt>
      <trkpt lat="46.613274" lon="10.731972">
        <ele>806.657</ele>
        <time>2022-07-09T10:29:13Z</time>
      </trkpt>
      <trkpt lat="46.613206" lon="10.731607">
        <ele>809.015</ele>
        <time>2022-07-09T10:29:28Z</time>
      </trkpt>
      <trkpt lat="46.613118" lon="10.731295">
        <ele>811.087</ele>
        <time>2022-07-09T10:29:41Z</time>
      </trkpt>
      <trkpt lat="46.612925" lon="10.730877">
        <ele>812.473</ele>
        <time>2022-07-09T10:29:58Z</time>
      </trkpt>
      <trkpt lat="46.612707" lon="10.730715">
        <ele>813.437</ele>
        <time>2022-07-09T10:30:11Z</time>
      </trkpt>
      <trkpt lat="46.612417" lon="10.730874">
        <ele>813.478</ele>
        <time>2022-07-09T10:30:24Z</time>
      </trkpt>
      <trkpt lat="46.612164" lon="10.730647">
        <ele>813.456</ele>
        <time>2022-07-09T10:30:34Z</time>
      </trkpt>
      <trkpt lat="46.611954" lon="10.730181">
        <ele>814.860</ele>
        <time>2022-07-09T10:30:48Z</time>
      </trkpt>
      <trkpt lat="46.611842" lon="10.729772">
        <ele>815.355</ele>
        <time>2022-07-09T10:31:01Z</time>
      </trkpt>
      <trkpt lat="46.611810" lon="10.729602">
        <ele>816.707</ele>
        <time>2022-07-09T10:31:08Z</time>
      </trkpt>
      <trkpt lat="46.611809" lon="10.729579">
        <ele>816.717</ele>
        <time>2022-07-09T10:31:09Z</time>
      </trkpt>
      <trkpt lat="46.611647" lon="10.729156">
        <ele>817.709</ele>
        <time>2022-07-09T10:31:22Z</time>
      </trkpt>
      <trkpt lat="46.611625" lon="10.728939">
        <ele>818.246</ele>
        <time>2022-07-09T10:31:36Z</time>
      </trkpt>
      <trkpt lat="46.611618" lon="10.728821">
        <ele>818.275</ele>
        <time>2022-07-09T10:31:51Z</time>
      </trkpt>
      <trkpt lat="46.611653" lon="10.728814">
        <ele>819.623</ele>
        <time>2022-07-09T10:32:08Z</time>
      </trkpt>
      <trkpt lat="46.611631" lon="10.728783">
        <ele>818.725</ele>
        <time>2022-07-09T10:32:27Z</time>
      </trkpt>
      <trkpt lat="46.611619" lon="10.728777">
        <ele>818.781</ele>
        <time>2022-07-09T10:32:55Z</time>
      </trkpt>
      <trkpt lat="46.611596" lon="10.728777">
        <ele>818.745</ele>
        <time>2022-07-09T10:33:03Z</time>
      </trkpt>
      <trkpt lat="46.611537" lon="10.728908">
        <ele>818.746</ele>
        <time>2022-07-09T10:33:10Z</time>
      </trkpt>
      <trkpt lat="46.611512" lon="10.728914">
        <ele>818.784</ele>
        <time>2022-07-09T10:33:11Z</time>
      </trkpt>
      <trkpt lat="46.611496" lon="10.728906">
        <ele>818.778</ele>
        <time>2022-07-09T10:33:12Z</time>
      </trkpt>
      <trkpt lat="46.611486" lon="10.728893">
        <ele>818.775</ele>
        <time>2022-07-09T10:33:13Z</time>
      </trkpt>
      <trkpt lat="46.611476" lon="10.728874">
        <ele>818.728</ele>
        <time>2022-07-09T10:33:14Z</time>
      </trkpt>
      <trkpt lat="46.611470" lon="10.728855">
        <ele>818.720</ele>
        <time>2022-07-09T10:33:15Z</time>
      </trkpt>
      <trkpt lat="46.611458" lon="10.728825">
        <ele>818.709</ele>
        <time>2022-07-09T10:33:17Z</time>
      </trkpt>
      <trkpt lat="46.611436" lon="10.728814">
        <ele>818.718</ele>
        <time>2022-07-09T10:33:18Z</time>
      </trkpt>
      <trkpt lat="46.611430" lon="10.728815">
        <ele>818.717</ele>
        <time>2022-07-09T10:33:19Z</time>
      </trkpt>
      <trkpt lat="46.611420" lon="10.728837">
        <ele>820.145</ele>
        <time>2022-07-09T10:33:24Z</time>
      </trkpt>
      <trkpt lat="46.611437" lon="10.728845">
        <ele>820.137</ele>
        <time>2022-07-09T10:33:27Z</time>
      </trkpt>
      <trkpt lat="46.611450" lon="10.728827">
        <ele>820.123</ele>
        <time>2022-07-09T10:33:28Z</time>
      </trkpt>
      <trkpt lat="46.611453" lon="10.728809">
        <ele>820.147</ele>
        <time>2022-07-09T10:33:29Z</time>
      </trkpt>
      <trkpt lat="46.611452" lon="10.728792">
        <ele>820.118</ele>
        <time>2022-07-09T10:33:30Z</time>
      </trkpt>
      <trkpt lat="46.611446" lon="10.728767">
        <ele>820.176</ele>
        <time>2022-07-09T10:33:31Z</time>
      </trkpt>
      <trkpt lat="46.611444" lon="10.728755">
        <ele>820.190</ele>
        <time>2022-07-09T10:33:32Z</time>
      </trkpt>
      <trkpt lat="46.611447" lon="10.728738">
        <ele>820.119</ele>
        <time>2022-07-09T10:33:33Z</time>
      </trkpt>
      <trkpt lat="46.611449" lon="10.728719">
        <ele>820.109</ele>
        <time>2022-07-09T10:33:34Z</time>
      </trkpt>
      <trkpt lat="46.611446" lon="10.728699">
        <ele>820.119</ele>
        <time>2022-07-09T10:33:35Z</time>
      </trkpt>
      <trkpt lat="46.611441" lon="10.728678">
        <ele>820.609</ele>
        <time>2022-07-09T10:33:36Z</time>
      </trkpt>
      <trkpt lat="46.611427" lon="10.728252">
        <ele>822.592</ele>
        <time>2022-07-09T10:33:50Z</time>
      </trkpt>
      <trkpt lat="46.611388" lon="10.727850">
        <ele>823.031</ele>
        <time>2022-07-09T10:34:03Z</time>
      </trkpt>
      <trkpt lat="46.611360" lon="10.727701">
        <ele>823.069</ele>
        <time>2022-07-09T10:34:08Z</time>
      </trkpt>
      <trkpt lat="46.611345" lon="10.727672">
        <ele>823.021</ele>
        <time>2022-07-09T10:34:09Z</time>
      </trkpt>
      <trkpt lat="46.611044" lon="10.727283">
        <ele>823.087</ele>
        <time>2022-07-09T10:34:24Z</time>
      </trkpt>
      <trkpt lat="46.610741" lon="10.726836">
        <ele>823.921</ele>
        <time>2022-07-09T10:34:42Z</time>
      </trkpt>
      <trkpt lat="46.610544" lon="10.726553">
        <ele>824.432</ele>
        <time>2022-07-09T10:34:57Z</time>
      </trkpt>
      <trkpt lat="46.610478" lon="10.726411">
        <ele>825.930</ele>
        <time>2022-07-09T10:35:02Z</time>
      </trkpt>
      <trkpt lat="46.610472" lon="10.726380">
        <ele>826.374</ele>
        <time>2022-07-09T10:35:03Z</time>
      </trkpt>
      <trkpt lat="46.610323" lon="10.725877">
        <ele>826.897</ele>
        <time>2022-07-09T10:35:16Z</time>
      </trkpt>
      <trkpt lat="46.610266" lon="10.725571">
        <ele>829.223</ele>
        <time>2022-07-09T10:35:24Z</time>
      </trkpt>
      <trkpt lat="46.610306" lon="10.724965">
        <ele>827.325</ele>
        <time>2022-07-09T10:35:38Z</time>
      </trkpt>
      <trkpt lat="46.610323" lon="10.724899">
        <ele>826.809</ele>
        <time>2022-07-09T10:35:39Z</time>
      </trkpt>
      <trkpt lat="46.610340" lon="10.724832">
        <ele>826.850</ele>
        <time>2022-07-09T10:35:40Z</time>
      </trkpt>
      <trkpt lat="46.610412" lon="10.724318">
        <ele>827.849</ele>
        <time>2022-07-09T10:35:49Z</time>
      </trkpt>
      <trkpt lat="46.610315" lon="10.723727">
        <ele>828.797</ele>
        <time>2022-07-09T10:36:03Z</time>
      </trkpt>
      <trkpt lat="46.610256" lon="10.723337">
        <ele>831.679</ele>
        <time>2022-07-09T10:36:18Z</time>
      </trkpt>
      <trkpt lat="46.610261" lon="10.722909">
        <ele>834.015</ele>
        <time>2022-07-09T10:36:34Z</time>
      </trkpt>
      <trkpt lat="46.610234" lon="10.722452">
        <ele>834.549</ele>
        <time>2022-07-09T10:36:49Z</time>
      </trkpt>
      <trkpt lat="46.610166" lon="10.722038">
        <ele>837.950</ele>
        <time>2022-07-09T10:37:04Z</time>
      </trkpt>
      <trkpt lat="46.610185" lon="10.721612">
        <ele>840.358</ele>
        <time>2022-07-09T10:37:21Z</time>
      </trkpt>
      <trkpt lat="46.610224" lon="10.721152">
        <ele>842.252</ele>
        <time>2022-07-09T10:37:39Z</time>
      </trkpt>
      <trkpt lat="46.610229" lon="10.720698">
        <ele>842.721</ele>
        <time>2022-07-09T10:37:56Z</time>
      </trkpt>
      <trkpt lat="46.610210" lon="10.720340">
        <ele>844.641</ele>
        <time>2022-07-09T10:38:11Z</time>
      </trkpt>
      <trkpt lat="46.610159" lon="10.719943">
        <ele>846.505</ele>
        <time>2022-07-09T10:38:27Z</time>
      </trkpt>
      <trkpt lat="46.610152" lon="10.719924">
        <ele>846.509</ele>
        <time>2022-07-09T10:38:28Z</time>
      </trkpt>
      <trkpt lat="46.610145" lon="10.719899">
        <ele>846.593</ele>
        <time>2022-07-09T10:38:29Z</time>
      </trkpt>
      <trkpt lat="46.610141" lon="10.719881">
        <ele>846.592</ele>
        <time>2022-07-09T10:38:30Z</time>
      </trkpt>
      <trkpt lat="46.610135" lon="10.719855">
        <ele>847.010</ele>
        <time>2022-07-09T10:38:31Z</time>
      </trkpt>
      <trkpt lat="46.610130" lon="10.719828">
        <ele>847.052</ele>
        <time>2022-07-09T10:38:32Z</time>
      </trkpt>
      <trkpt lat="46.610125" lon="10.719797">
        <ele>847.528</ele>
        <time>2022-07-09T10:38:33Z</time>
      </trkpt>
      <trkpt lat="46.610096" lon="10.719567">
        <ele>846.172</ele>
        <time>2022-07-09T10:38:38Z</time>
      </trkpt>
      <trkpt lat="46.610067" lon="10.719301">
        <ele>845.623</ele>
        <time>2022-07-09T10:38:41Z</time>
      </trkpt>
      <trkpt lat="46.610045" lon="10.718845">
        <ele>848.021</ele>
        <time>2022-07-09T10:38:50Z</time>
      </trkpt>
      <trkpt lat="46.610049" lon="10.718801">
        <ele>848.055</ele>
        <time>2022-07-09T10:38:52Z</time>
      </trkpt>
      <trkpt lat="46.610055" lon="10.718780">
        <ele>848.036</ele>
        <time>2022-07-09T10:38:53Z</time>
      </trkpt>
      <trkpt lat="46.610057" lon="10.718756">
        <ele>848.017</ele>
        <time>2022-07-09T10:38:54Z</time>
      </trkpt>
      <trkpt lat="46.610125" lon="10.718415">
        <ele>848.518</ele>
        <time>2022-07-09T10:39:09Z</time>
      </trkpt>
      <trkpt lat="46.610122" lon="10.718366">
        <ele>852.309</ele>
        <time>2022-07-09T10:39:10Z</time>
      </trkpt>
      <trkpt lat="46.610122" lon="10.718308">
        <ele>850.914</ele>
        <time>2022-07-09T10:39:12Z</time>
      </trkpt>
      <trkpt lat="46.610133" lon="10.718237">
        <ele>852.343</ele>
        <time>2022-07-09T10:39:15Z</time>
      </trkpt>
      <trkpt lat="46.610222" lon="10.717869">
        <ele>852.871</ele>
        <time>2022-07-09T10:39:28Z</time>
      </trkpt>
      <trkpt lat="46.610229" lon="10.717505">
        <ele>852.853</ele>
        <time>2022-07-09T10:39:40Z</time>
      </trkpt>
      <trkpt lat="46.610195" lon="10.717115">
        <ele>854.759</ele>
        <time>2022-07-09T10:39:55Z</time>
      </trkpt>
      <trkpt lat="46.610080" lon="10.716784">
        <ele>857.123</ele>
        <time>2022-07-09T10:40:10Z</time>
      </trkpt>
      <trkpt lat="46.610010" lon="10.716471">
        <ele>857.664</ele>
        <time>2022-07-09T10:40:23Z</time>
      </trkpt>
      <trkpt lat="46.609925" lon="10.716123">
        <ele>860.032</ele>
        <time>2022-07-09T10:40:35Z</time>
      </trkpt>
      <trkpt lat="46.609913" lon="10.715647">
        <ele>860.536</ele>
        <time>2022-07-09T10:40:50Z</time>
      </trkpt>
      <trkpt lat="46.609916" lon="10.715296">
        <ele>861.947</ele>
        <time>2022-07-09T10:41:02Z</time>
      </trkpt>
      <trkpt lat="46.609960" lon="10.714990">
        <ele>862.429</ele>
        <time>2022-07-09T10:41:12Z</time>
      </trkpt>
      <trkpt lat="46.609961" lon="10.714943">
        <ele>863.421</ele>
        <time>2022-07-09T10:41:14Z</time>
      </trkpt>
      <trkpt lat="46.610031" lon="10.714605">
        <ele>864.809</ele>
        <time>2022-07-09T10:41:29Z</time>
      </trkpt>
      <trkpt lat="46.610044" lon="10.714505">
        <ele>865.865</ele>
        <time>2022-07-09T10:41:34Z</time>
      </trkpt>
      <trkpt lat="46.610024" lon="10.714027">
        <ele>867.224</ele>
        <time>2022-07-09T10:41:50Z</time>
      </trkpt>
      <trkpt lat="46.609954" lon="10.713483">
        <ele>867.762</ele>
        <time>2022-07-09T10:42:06Z</time>
      </trkpt>
      <trkpt lat="46.609954" lon="10.712863">
        <ele>867.754</ele>
        <time>2022-07-09T10:42:18Z</time>
      </trkpt>
      <trkpt lat="46.610098" lon="10.712410">
        <ele>868.250</ele>
        <time>2022-07-09T10:42:29Z</time>
      </trkpt>
      <trkpt lat="46.610213" lon="10.712116">
        <ele>865.864</ele>
        <time>2022-07-09T10:42:34Z</time>
      </trkpt>
      <trkpt lat="46.610281" lon="10.711953">
        <ele>864.365</ele>
        <time>2022-07-09T10:42:36Z</time>
      </trkpt>
      <trkpt lat="46.610347" lon="10.711800">
        <ele>862.983</ele>
        <time>2022-07-09T10:42:38Z</time>
      </trkpt>
      <trkpt lat="46.610412" lon="10.711618">
        <ele>861.497</ele>
        <time>2022-07-09T10:42:40Z</time>
      </trkpt>
      <trkpt lat="46.610439" lon="10.711511">
        <ele>860.533</ele>
        <time>2022-07-09T10:42:41Z</time>
      </trkpt>
      <trkpt lat="46.610459" lon="10.711402">
        <ele>860.523</ele>
        <time>2022-07-09T10:42:42Z</time>
      </trkpt>
      <trkpt lat="46.610478" lon="10.711300">
        <ele>860.015</ele>
        <time>2022-07-09T10:42:43Z</time>
      </trkpt>
      <trkpt lat="46.610505" lon="10.711212">
        <ele>860.009</ele>
        <time>2022-07-09T10:42:44Z</time>
      </trkpt>
      <trkpt lat="46.610543" lon="10.711130">
        <ele>860.064</ele>
        <time>2022-07-09T10:42:45Z</time>
      </trkpt>
      <trkpt lat="46.610570" lon="10.711074">
        <ele>860.023</ele>
        <time>2022-07-09T10:42:46Z</time>
      </trkpt>
      <trkpt lat="46.610626" lon="10.710954">
        <ele>861.061</ele>
        <time>2022-07-09T10:42:48Z</time>
      </trkpt>
      <trkpt lat="46.610757" lon="10.710456">
        <ele>862.413</ele>
        <time>2022-07-09T10:42:59Z</time>
      </trkpt>
      <trkpt lat="46.610832" lon="10.710039">
        <ele>863.889</ele>
        <time>2022-07-09T10:43:12Z</time>
      </trkpt>
      <trkpt lat="46.610865" lon="10.709927">
        <ele>864.883</ele>
        <time>2022-07-09T10:43:17Z</time>
      </trkpt>
      <trkpt lat="46.611010" lon="10.709844">
        <ele>865.844</ele>
        <time>2022-07-09T10:43:27Z</time>
      </trkpt>
      <trkpt lat="46.611088" lon="10.709787">
        <ele>866.282</ele>
        <time>2022-07-09T10:43:31Z</time>
      </trkpt>
      <trkpt lat="46.611103" lon="10.709768">
        <ele>866.296</ele>
        <time>2022-07-09T10:43:32Z</time>
      </trkpt>
      <trkpt lat="46.611124" lon="10.709749">
        <ele>866.281</ele>
        <time>2022-07-09T10:43:33Z</time>
      </trkpt>
      <trkpt lat="46.611144" lon="10.709728">
        <ele>866.261</ele>
        <time>2022-07-09T10:43:34Z</time>
      </trkpt>
      <trkpt lat="46.611158" lon="10.709702">
        <ele>866.717</ele>
        <time>2022-07-09T10:43:35Z</time>
      </trkpt>
      <trkpt lat="46.611394" lon="10.709264">
        <ele>867.709</ele>
        <time>2022-07-09T10:43:51Z</time>
      </trkpt>
      <trkpt lat="46.611841" lon="10.709053">
        <ele>866.259</ele>
        <time>2022-07-09T10:44:05Z</time>
      </trkpt>
      <trkpt lat="46.612245" lon="10.708719">
        <ele>866.218</ele>
        <time>2022-07-09T10:44:19Z</time>
      </trkpt>
      <trkpt lat="46.612274" lon="10.708026">
        <ele>866.256</ele>
        <time>2022-07-09T10:44:33Z</time>
      </trkpt>
      <trkpt lat="46.612281" lon="10.707943">
        <ele>867.778</ele>
        <time>2022-07-09T10:44:36Z</time>
      </trkpt>
      <trkpt lat="46.612252" lon="10.707438">
        <ele>870.684</ele>
        <time>2022-07-09T10:44:55Z</time>
      </trkpt>
      <trkpt lat="46.612224" lon="10.707319">
        <ele>871.558</ele>
        <time>2022-07-09T10:45:00Z</time>
      </trkpt>
      <trkpt lat="46.612185" lon="10.707165">
        <ele>873.079</ele>
        <time>2022-07-09T10:45:07Z</time>
      </trkpt>
      <trkpt lat="46.612189" lon="10.707144">
        <ele>873.077</ele>
        <time>2022-07-09T10:45:08Z</time>
      </trkpt>
      <trkpt lat="46.612194" lon="10.707125">
        <ele>873.551</ele>
        <time>2022-07-09T10:45:09Z</time>
      </trkpt>
      <trkpt lat="46.612202" lon="10.707101">
        <ele>873.534</ele>
        <time>2022-07-09T10:45:10Z</time>
      </trkpt>
      <trkpt lat="46.612213" lon="10.707075">
        <ele>873.555</ele>
        <time>2022-07-09T10:45:12Z</time>
      </trkpt>
      <trkpt lat="46.612413" lon="10.706862">
        <ele>874.910</ele>
        <time>2022-07-09T10:45:24Z</time>
      </trkpt>
      <trkpt lat="46.612783" lon="10.706510">
        <ele>874.909</ele>
        <time>2022-07-09T10:45:40Z</time>
      </trkpt>
      <trkpt lat="46.613179" lon="10.706105">
        <ele>874.924</ele>
        <time>2022-07-09T10:45:54Z</time>
      </trkpt>
      <trkpt lat="46.613455" lon="10.705714">
        <ele>872.523</ele>
        <time>2022-07-09T10:46:02Z</time>
      </trkpt>
      <trkpt lat="46.613489" lon="10.705668">
        <ele>872.531</ele>
        <time>2022-07-09T10:46:03Z</time>
      </trkpt>
      <trkpt lat="46.613948" lon="10.704934">
        <ele>872.033</ele>
        <time>2022-07-09T10:46:19Z</time>
      </trkpt>
      <trkpt lat="46.614218" lon="10.704184">
        <ele>872.059</ele>
        <time>2022-07-09T10:46:35Z</time>
      </trkpt>
      <trkpt lat="46.614394" lon="10.703440">
        <ele>873.553</ele>
        <time>2022-07-09T10:46:50Z</time>
      </trkpt>
      <trkpt lat="46.614582" lon="10.702733">
        <ele>873.954</ele>
        <time>2022-07-09T10:47:06Z</time>
      </trkpt>
      <trkpt lat="46.614767" lon="10.702170">
        <ele>873.912</ele>
        <time>2022-07-09T10:47:18Z</time>
      </trkpt>
      <trkpt lat="46.614838" lon="10.701928">
        <ele>873.976</ele>
        <time>2022-07-09T10:47:23Z</time>
      </trkpt>
      <trkpt lat="46.614861" lon="10.701858">
        <ele>872.524</ele>
        <time>2022-07-09T10:47:24Z</time>
      </trkpt>
      <trkpt lat="46.614900" lon="10.701726">
        <ele>872.004</ele>
        <time>2022-07-09T10:47:26Z</time>
      </trkpt>
      <trkpt lat="46.614931" lon="10.701583">
        <ele>872.014</ele>
        <time>2022-07-09T10:47:28Z</time>
      </trkpt>
      <trkpt lat="46.614956" lon="10.701506">
        <ele>871.509</ele>
        <time>2022-07-09T10:47:29Z</time>
      </trkpt>
      <trkpt lat="46.614981" lon="10.701432">
        <ele>871.513</ele>
        <time>2022-07-09T10:47:30Z</time>
      </trkpt>
      <trkpt lat="46.615052" lon="10.701183">
        <ele>869.612</ele>
        <time>2022-07-09T10:47:33Z</time>
      </trkpt>
      <trkpt lat="46.615101" lon="10.701020">
        <ele>868.670</ele>
        <time>2022-07-09T10:47:35Z</time>
      </trkpt>
      <trkpt lat="46.615132" lon="10.700944">
        <ele>868.642</ele>
        <time>2022-07-09T10:47:36Z</time>
      </trkpt>
      <trkpt lat="46.615345" lon="10.700497">
        <ele>868.218</ele>
        <time>2022-07-09T10:47:42Z</time>
      </trkpt>
      <trkpt lat="46.615450" lon="10.700234">
        <ele>867.252</ele>
        <time>2022-07-09T10:47:46Z</time>
      </trkpt>
      <trkpt lat="46.615478" lon="10.700178">
        <ele>867.253</ele>
        <time>2022-07-09T10:47:47Z</time>
      </trkpt>
      <trkpt lat="46.615505" lon="10.700140">
        <ele>868.691</ele>
        <time>2022-07-09T10:47:48Z</time>
      </trkpt>
      <trkpt lat="46.615530" lon="10.700116">
        <ele>868.625</ele>
        <time>2022-07-09T10:47:49Z</time>
      </trkpt>
      <trkpt lat="46.615559" lon="10.700096">
        <ele>869.661</ele>
        <time>2022-07-09T10:47:50Z</time>
      </trkpt>
      <trkpt lat="46.615581" lon="10.700080">
        <ele>869.621</ele>
        <time>2022-07-09T10:47:51Z</time>
      </trkpt>
      <trkpt lat="46.615586" lon="10.700098">
        <ele>873.513</ele>
        <time>2022-07-09T11:24:29Z</time>
      </trkpt>
      <trkpt lat="46.615579" lon="10.700092">
        <ele>873.509</ele>
        <time>2022-07-09T11:24:48Z</time>
      </trkpt>
      <trkpt lat="46.615618" lon="10.700108">
        <ele>873.577</ele>
        <time>2022-07-09T11:25:01Z</time>
      </trkpt>
      <trkpt lat="46.615633" lon="10.700102">
        <ele>873.546</ele>
        <time>2022-07-09T11:25:02Z</time>
      </trkpt>
      <trkpt lat="46.615646" lon="10.700101">
        <ele>873.524</ele>
        <time>2022-07-09T11:25:03Z</time>
      </trkpt>
      <trkpt lat="46.615654" lon="10.700110">
        <ele>873.516</ele>
        <time>2022-07-09T11:25:04Z</time>
      </trkpt>
      <trkpt lat="46.615670" lon="10.700133">
        <ele>873.542</ele>
        <time>2022-07-09T11:25:06Z</time>
      </trkpt>
      <trkpt lat="46.615683" lon="10.700122">
        <ele>873.576</ele>
        <time>2022-07-09T11:25:07Z</time>
      </trkpt>
      <trkpt lat="46.615907" lon="10.700225">
        <ele>873.527</ele>
        <time>2022-07-09T11:25:22Z</time>
      </trkpt>
      <trkpt lat="46.615926" lon="10.700224">
        <ele>873.555</ele>
        <time>2022-07-09T11:25:23Z</time>
      </trkpt>
      <trkpt lat="46.615939" lon="10.700217">
        <ele>873.599</ele>
        <time>2022-07-09T11:25:24Z</time>
      </trkpt>
      <trkpt lat="46.615948" lon="10.700174">
        <ele>873.516</ele>
        <time>2022-07-09T11:25:28Z</time>
      </trkpt>
      <trkpt lat="46.615958" lon="10.700145">
        <ele>873.576</ele>
        <time>2022-07-09T11:25:29Z</time>
      </trkpt>
      <trkpt lat="46.615968" lon="10.700120">
        <ele>873.513</ele>
        <time>2022-07-09T11:25:30Z</time>
      </trkpt>
      <trkpt lat="46.615986" lon="10.700085">
        <ele>873.509</ele>
        <time>2022-07-09T11:25:31Z</time>
      </trkpt>
      <trkpt lat="46.616004" lon="10.700055">
        <ele>873.562</ele>
        <time>2022-07-09T11:25:32Z</time>
      </trkpt>
      <trkpt lat="46.616026" lon="10.700014">
        <ele>873.571</ele>
        <time>2022-07-09T11:25:33Z</time>
      </trkpt>
      <trkpt lat="46.616309" lon="10.699534">
        <ele>872.039</ele>
        <time>2022-07-09T11:25:46Z</time>
      </trkpt>
      <trkpt lat="46.616581" lon="10.699108">
        <ele>872.091</ele>
        <time>2022-07-09T11:26:00Z</time>
      </trkpt>
      <trkpt lat="46.616814" lon="10.698788">
        <ele>874.487</ele>
        <time>2022-07-09T11:26:12Z</time>
      </trkpt>
      <trkpt lat="46.616903" lon="10.698440">
        <ele>874.431</ele>
        <time>2022-07-09T11:26:23Z</time>
      </trkpt>
      <trkpt lat="46.616886" lon="10.698331">
        <ele>873.972</ele>
        <time>2022-07-09T11:26:25Z</time>
      </trkpt>
      <trkpt lat="46.616880" lon="10.698264">
        <ele>873.990</ele>
        <time>2022-07-09T11:26:26Z</time>
      </trkpt>
      <trkpt lat="46.616879" lon="10.698194">
        <ele>873.954</ele>
        <time>2022-07-09T11:26:27Z</time>
      </trkpt>
      <trkpt lat="46.616883" lon="10.698127">
        <ele>873.027</ele>
        <time>2022-07-09T11:26:28Z</time>
      </trkpt>
      <trkpt lat="46.616893" lon="10.698058">
        <ele>873.068</ele>
        <time>2022-07-09T11:26:29Z</time>
      </trkpt>
      <trkpt lat="46.616900" lon="10.698003">
        <ele>872.514</ele>
        <time>2022-07-09T11:26:30Z</time>
      </trkpt>
      <trkpt lat="46.616950" lon="10.697617">
        <ele>873.909</ele>
        <time>2022-07-09T11:26:41Z</time>
      </trkpt>
      <trkpt lat="46.616948" lon="10.697622">
        <ele>873.963</ele>
        <time>2022-07-09T11:26:49Z</time>
      </trkpt>
      <trkpt lat="46.616962" lon="10.697635">
        <ele>873.952</ele>
        <time>2022-07-09T11:26:50Z</time>
      </trkpt>
      <trkpt lat="46.616988" lon="10.697639">
        <ele>873.910</ele>
        <time>2022-07-09T11:26:52Z</time>
      </trkpt>
      <trkpt lat="46.617007" lon="10.697616">
        <ele>873.942</ele>
        <time>2022-07-09T11:26:53Z</time>
      </trkpt>
      <trkpt lat="46.617017" lon="10.697589">
        <ele>873.978</ele>
        <time>2022-07-09T11:26:54Z</time>
      </trkpt>
      <trkpt lat="46.617027" lon="10.697555">
        <ele>873.942</ele>
        <time>2022-07-09T11:26:55Z</time>
      </trkpt>
      <trkpt lat="46.617034" lon="10.697533">
        <ele>873.983</ele>
        <time>2022-07-09T11:26:56Z</time>
      </trkpt>
      <trkpt lat="46.617327" lon="10.696979">
        <ele>873.941</ele>
        <time>2022-07-09T11:27:11Z</time>
      </trkpt>
      <trkpt lat="46.617704" lon="10.696403">
        <ele>873.915</ele>
        <time>2022-07-09T11:27:28Z</time>
      </trkpt>
      <trkpt lat="46.618184" lon="10.695715">
        <ele>874.453</ele>
        <time>2022-07-09T11:27:50Z</time>
      </trkpt>
      <trkpt lat="46.618214" lon="10.695709">
        <ele>874.404</ele>
        <time>2022-07-09T11:27:51Z</time>
      </trkpt>
      <trkpt lat="46.618228" lon="10.695720">
        <ele>874.414</ele>
        <time>2022-07-09T11:27:52Z</time>
      </trkpt>
      <trkpt lat="46.618247" lon="10.695746">
        <ele>874.909</ele>
        <time>2022-07-09T11:27:53Z</time>
      </trkpt>
      <trkpt lat="46.618266" lon="10.695775">
        <ele>874.966</ele>
        <time>2022-07-09T11:27:54Z</time>
      </trkpt>
      <trkpt lat="46.618295" lon="10.695788">
        <ele>874.945</ele>
        <time>2022-07-09T11:27:55Z</time>
      </trkpt>
      <trkpt lat="46.618315" lon="10.695783">
        <ele>874.993</ele>
        <time>2022-07-09T11:27:56Z</time>
      </trkpt>
      <trkpt lat="46.618342" lon="10.695766">
        <ele>874.965</ele>
        <time>2022-07-09T11:27:57Z</time>
      </trkpt>
      <trkpt lat="46.618365" lon="10.695743">
        <ele>874.941</ele>
        <time>2022-07-09T11:27:58Z</time>
      </trkpt>
      <trkpt lat="46.618385" lon="10.695713">
        <ele>874.945</ele>
        <time>2022-07-09T11:27:59Z</time>
      </trkpt>
      <trkpt lat="46.618406" lon="10.695679">
        <ele>874.936</ele>
        <time>2022-07-09T11:28:00Z</time>
      </trkpt>
      <trkpt lat="46.618520" lon="10.695302">
        <ele>873.934</ele>
        <time>2022-07-09T11:28:09Z</time>
      </trkpt>
      <trkpt lat="46.618766" lon="10.694797">
        <ele>873.928</ele>
        <time>2022-07-09T11:28:22Z</time>
      </trkpt>
      <trkpt lat="46.619137" lon="10.694176">
        <ele>873.956</ele>
        <time>2022-07-09T11:28:40Z</time>
      </trkpt>
      <trkpt lat="46.619542" lon="10.693564">
        <ele>873.059</ele>
        <time>2022-07-09T11:28:58Z</time>
      </trkpt>
      <trkpt lat="46.619901" lon="10.693088">
        <ele>873.014</ele>
        <time>2022-07-09T11:29:13Z</time>
      </trkpt>
      <trkpt lat="46.620370" lon="10.692497">
        <ele>874.409</ele>
        <time>2022-07-09T11:29:32Z</time>
      </trkpt>
      <trkpt lat="46.620492" lon="10.691991">
        <ele>874.446</ele>
        <time>2022-07-09T11:29:45Z</time>
      </trkpt>
      <trkpt lat="46.620477" lon="10.691972">
        <ele>874.415</ele>
        <time>2022-07-09T11:29:46Z</time>
      </trkpt>
      <trkpt lat="46.620460" lon="10.691954">
        <ele>874.443</ele>
        <time>2022-07-09T11:29:47Z</time>
      </trkpt>
      <trkpt lat="46.620438" lon="10.691937">
        <ele>874.495</ele>
        <time>2022-07-09T11:29:48Z</time>
      </trkpt>
      <trkpt lat="46.620412" lon="10.691925">
        <ele>874.481</ele>
        <time>2022-07-09T11:29:49Z</time>
      </trkpt>
      <trkpt lat="46.620386" lon="10.691921">
        <ele>874.485</ele>
        <time>2022-07-09T11:29:50Z</time>
      </trkpt>
      <trkpt lat="46.620359" lon="10.691923">
        <ele>874.496</ele>
        <time>2022-07-09T11:29:51Z</time>
      </trkpt>
      <trkpt lat="46.620330" lon="10.691927">
        <ele>874.434</ele>
        <time>2022-07-09T11:29:52Z</time>
      </trkpt>
      <trkpt lat="46.620301" lon="10.691935">
        <ele>874.438</ele>
        <time>2022-07-09T11:29:53Z</time>
      </trkpt>
      <trkpt lat="46.619837" lon="10.691865">
        <ele>874.963</ele>
        <time>2022-07-09T11:30:07Z</time>
      </trkpt>
      <trkpt lat="46.619284" lon="10.691750">
        <ele>873.944</ele>
        <time>2022-07-09T11:30:23Z</time>
      </trkpt>
      <trkpt lat="46.618680" lon="10.691594">
        <ele>873.918</ele>
        <time>2022-07-09T11:30:41Z</time>
      </trkpt>
      <trkpt lat="46.618037" lon="10.691455">
        <ele>873.909</ele>
        <time>2022-07-09T11:31:00Z</time>
      </trkpt>
      <trkpt lat="46.617897" lon="10.691397">
        <ele>874.987</ele>
        <time>2022-07-09T11:31:05Z</time>
      </trkpt>
      <trkpt lat="46.617625" lon="10.691256">
        <ele>876.886</ele>
        <time>2022-07-09T11:31:17Z</time>
      </trkpt>
      <trkpt lat="46.617484" lon="10.691212">
        <ele>876.854</ele>
        <time>2022-07-09T11:31:22Z</time>
      </trkpt>
      <trkpt lat="46.617465" lon="10.691165">
        <ele>876.846</ele>
        <time>2022-07-09T11:31:23Z</time>
      </trkpt>
      <trkpt lat="46.617466" lon="10.691106">
        <ele>876.852</ele>
        <time>2022-07-09T11:31:24Z</time>
      </trkpt>
      <trkpt lat="46.617477" lon="10.691048">
        <ele>874.946</ele>
        <time>2022-07-09T11:31:25Z</time>
      </trkpt>
      <trkpt lat="46.617490" lon="10.690996">
        <ele>874.997</ele>
        <time>2022-07-09T11:31:26Z</time>
      </trkpt>
      <trkpt lat="46.617571" lon="10.690229">
        <ele>874.955</ele>
        <time>2022-07-09T11:31:42Z</time>
      </trkpt>
      <trkpt lat="46.617642" lon="10.689424">
        <ele>874.979</ele>
        <time>2022-07-09T11:32:00Z</time>
      </trkpt>
      <trkpt lat="46.617760" lon="10.688460">
        <ele>874.949</ele>
        <time>2022-07-09T11:32:20Z</time>
      </trkpt>
      <trkpt lat="46.617851" lon="10.687682">
        <ele>874.902</ele>
        <time>2022-07-09T11:32:37Z</time>
      </trkpt>
      <trkpt lat="46.617943" lon="10.686744">
        <ele>876.322</ele>
        <time>2022-07-09T11:32:58Z</time>
      </trkpt>
      <trkpt lat="46.618018" lon="10.685914">
        <ele>876.309</ele>
        <time>2022-07-09T11:33:14Z</time>
      </trkpt>
      <trkpt lat="46.618124" lon="10.684983">
        <ele>876.885</ele>
        <time>2022-07-09T11:33:35Z</time>
      </trkpt>
      <trkpt lat="46.618215" lon="10.683994">
        <ele>876.394</ele>
        <time>2022-07-09T11:33:54Z</time>
      </trkpt>
      <trkpt lat="46.618323" lon="10.682937">
        <ele>876.322</ele>
        <time>2022-07-09T11:34:14Z</time>
      </trkpt>
      <trkpt lat="46.618438" lon="10.681954">
        <ele>875.414</ele>
        <time>2022-07-09T11:34:34Z</time>
      </trkpt>
      <trkpt lat="46.618457" lon="10.681801">
        <ele>876.870</ele>
        <time>2022-07-09T11:34:37Z</time>
      </trkpt>
      <trkpt lat="46.618560" lon="10.680892">
        <ele>876.834</ele>
        <time>2022-07-09T11:34:55Z</time>
      </trkpt>
      <trkpt lat="46.618663" lon="10.679956">
        <ele>877.885</ele>
        <time>2022-07-09T11:35:16Z</time>
      </trkpt>
      <trkpt lat="46.618654" lon="10.679930">
        <ele>877.853</ele>
        <time>2022-07-09T11:35:28Z</time>
      </trkpt>
      <trkpt lat="46.618653" lon="10.679921">
        <ele>876.887</ele>
        <time>2022-07-09T11:35:51Z</time>
      </trkpt>
      <trkpt lat="46.618714" lon="10.679426">
        <ele>875.914</ele>
        <time>2022-07-09T11:36:03Z</time>
      </trkpt>
      <trkpt lat="46.618790" lon="10.678757">
        <ele>875.954</ele>
        <time>2022-07-09T11:36:18Z</time>
      </trkpt>
      <trkpt lat="46.618833" lon="10.678380">
        <ele>878.309</ele>
        <time>2022-07-09T11:36:26Z</time>
      </trkpt>
      <trkpt lat="46.618935" lon="10.677351">
        <ele>878.309</ele>
        <time>2022-07-09T11:36:47Z</time>
      </trkpt>
      <trkpt lat="46.619033" lon="10.676484">
        <ele>878.382</ele>
        <time>2022-07-09T11:37:05Z</time>
      </trkpt>
      <trkpt lat="46.619101" lon="10.675866">
        <ele>878.751</ele>
        <time>2022-07-09T11:37:18Z</time>
      </trkpt>
      <trkpt lat="46.619110" lon="10.675810">
        <ele>878.779</ele>
        <time>2022-07-09T11:37:19Z</time>
      </trkpt>
      <trkpt lat="46.619144" lon="10.675525">
        <ele>877.851</ele>
        <time>2022-07-09T11:37:24Z</time>
      </trkpt>
      <trkpt lat="46.619201" lon="10.674792">
        <ele>877.397</ele>
        <time>2022-07-09T11:37:39Z</time>
      </trkpt>
      <trkpt lat="46.619294" lon="10.673969">
        <ele>878.331</ele>
        <time>2022-07-09T11:37:56Z</time>
      </trkpt>
      <trkpt lat="46.619340" lon="10.673354">
        <ele>877.372</ele>
        <time>2022-07-09T11:38:08Z</time>
      </trkpt>
      <trkpt lat="46.619406" lon="10.672766">
        <ele>877.330</ele>
        <time>2022-07-09T11:38:20Z</time>
      </trkpt>
      <trkpt lat="46.619491" lon="10.671856">
        <ele>877.384</ele>
        <time>2022-07-09T11:38:38Z</time>
      </trkpt>
      <trkpt lat="46.619569" lon="10.671149">
        <ele>878.752</ele>
        <time>2022-07-09T11:38:52Z</time>
      </trkpt>
      <trkpt lat="46.619675" lon="10.670227">
        <ele>878.753</ele>
        <time>2022-07-09T11:39:09Z</time>
      </trkpt>
      <trkpt lat="46.619742" lon="10.669457">
        <ele>877.808</ele>
        <time>2022-07-09T11:39:24Z</time>
      </trkpt>
      <trkpt lat="46.619831" lon="10.668562">
        <ele>877.809</ele>
        <time>2022-07-09T11:39:42Z</time>
      </trkpt>
      <trkpt lat="46.619935" lon="10.667649">
        <ele>879.216</ele>
        <time>2022-07-09T11:40:01Z</time>
      </trkpt>
      <trkpt lat="46.620047" lon="10.666678">
        <ele>879.285</ele>
        <time>2022-07-09T11:40:19Z</time>
      </trkpt>
      <trkpt lat="46.620074" lon="10.666405">
        <ele>879.233</ele>
        <time>2022-07-09T11:40:24Z</time>
      </trkpt>
      <trkpt lat="46.620074" lon="10.666343">
        <ele>879.245</ele>
        <time>2022-07-09T11:40:25Z</time>
      </trkpt>
      <trkpt lat="46.620155" lon="10.665484">
        <ele>879.221</ele>
        <time>2022-07-09T11:40:41Z</time>
      </trkpt>
      <trkpt lat="46.620254" lon="10.664491">
        <ele>879.275</ele>
        <time>2022-07-09T11:40:59Z</time>
      </trkpt>
      <trkpt lat="46.620333" lon="10.663608">
        <ele>879.796</ele>
        <time>2022-07-09T11:41:16Z</time>
      </trkpt>
      <trkpt lat="46.620368" lon="10.663247">
        <ele>878.784</ele>
        <time>2022-07-09T11:41:22Z</time>
      </trkpt>
      <trkpt lat="46.620389" lon="10.663117">
        <ele>878.768</ele>
        <time>2022-07-09T11:41:24Z</time>
      </trkpt>
      <trkpt lat="46.620478" lon="10.662470">
        <ele>879.282</ele>
        <time>2022-07-09T11:41:37Z</time>
      </trkpt>
      <trkpt lat="46.620580" lon="10.661806">
        <ele>879.243</ele>
        <time>2022-07-09T11:41:49Z</time>
      </trkpt>
      <trkpt lat="46.620694" lon="10.660884">
        <ele>879.217</ele>
        <time>2022-07-09T11:42:06Z</time>
      </trkpt>
      <trkpt lat="46.620711" lon="10.660724">
        <ele>878.309</ele>
        <time>2022-07-09T11:42:09Z</time>
      </trkpt>
      <trkpt lat="46.620782" lon="10.659894">
        <ele>878.379</ele>
        <time>2022-07-09T11:42:25Z</time>
      </trkpt>
      <trkpt lat="46.620751" lon="10.659237">
        <ele>878.368</ele>
        <time>2022-07-09T11:42:38Z</time>
      </trkpt>
      <trkpt lat="46.620902" lon="10.658528">
        <ele>878.396</ele>
        <time>2022-07-09T11:42:53Z</time>
      </trkpt>
      <trkpt lat="46.620964" lon="10.658200">
        <ele>879.728</ele>
        <time>2022-07-09T11:43:00Z</time>
      </trkpt>
      <trkpt lat="46.621078" lon="10.657239">
        <ele>879.724</ele>
        <time>2022-07-09T11:43:19Z</time>
      </trkpt>
      <trkpt lat="46.621150" lon="10.656373">
        <ele>879.718</ele>
        <time>2022-07-09T11:43:36Z</time>
      </trkpt>
      <trkpt lat="46.621257" lon="10.655412">
        <ele>879.759</ele>
        <time>2022-07-09T11:43:55Z</time>
      </trkpt>
      <trkpt lat="46.621367" lon="10.654429">
        <ele>879.727</ele>
        <time>2022-07-09T11:44:14Z</time>
      </trkpt>
      <trkpt lat="46.621475" lon="10.653454">
        <ele>880.271</ele>
        <time>2022-07-09T11:44:33Z</time>
      </trkpt>
      <trkpt lat="46.621561" lon="10.652548">
        <ele>880.768</ele>
        <time>2022-07-09T11:44:51Z</time>
      </trkpt>
      <trkpt lat="46.621644" lon="10.651677">
        <ele>880.742</ele>
        <time>2022-07-09T11:45:09Z</time>
      </trkpt>
      <trkpt lat="46.621766" lon="10.650657">
        <ele>880.726</ele>
        <time>2022-07-09T11:45:29Z</time>
      </trkpt>
      <trkpt lat="46.621839" lon="10.649876">
        <ele>881.109</ele>
        <time>2022-07-09T11:45:44Z</time>
      </trkpt>
      <trkpt lat="46.621967" lon="10.648905">
        <ele>881.187</ele>
        <time>2022-07-09T11:46:02Z</time>
      </trkpt>
      <trkpt lat="46.622029" lon="10.648222">
        <ele>882.666</ele>
        <time>2022-07-09T11:46:17Z</time>
      </trkpt>
      <trkpt lat="46.622057" lon="10.648011">
        <ele>883.144</ele>
        <time>2022-07-09T11:46:24Z</time>
      </trkpt>
      <trkpt lat="46.622045" lon="10.647983">
        <ele>883.156</ele>
        <time>2022-07-09T11:46:25Z</time>
      </trkpt>
      <trkpt lat="46.622025" lon="10.647964">
        <ele>883.522</ele>
        <time>2022-07-09T11:46:26Z</time>
      </trkpt>
      <trkpt lat="46.621998" lon="10.647955">
        <ele>883.576</ele>
        <time>2022-07-09T11:46:27Z</time>
      </trkpt>
      <trkpt lat="46.621970" lon="10.647954">
        <ele>883.527</ele>
        <time>2022-07-09T11:46:28Z</time>
      </trkpt>
      <trkpt lat="46.621855" lon="10.647947">
        <ele>882.135</ele>
        <time>2022-07-09T11:46:31Z</time>
      </trkpt>
      <trkpt lat="46.621129" lon="10.647833">
        <ele>880.229</ele>
        <time>2022-07-09T11:46:44Z</time>
      </trkpt>
      <trkpt lat="46.620716" lon="10.647661">
        <ele>880.753</ele>
        <time>2022-07-09T11:46:53Z</time>
      </trkpt>
      <trkpt lat="46.620057" lon="10.647010">
        <ele>880.704</ele>
        <time>2022-07-09T11:47:10Z</time>
      </trkpt>
      <trkpt lat="46.619262" lon="10.646244">
        <ele>879.714</ele>
        <time>2022-07-09T11:47:31Z</time>
      </trkpt>
      <trkpt lat="46.618577" lon="10.645611">
        <ele>881.109</ele>
        <time>2022-07-09T11:47:51Z</time>
      </trkpt>
      <trkpt lat="46.617873" lon="10.644997">
        <ele>881.666</ele>
        <time>2022-07-09T11:48:12Z</time>
      </trkpt>
      <trkpt lat="46.617354" lon="10.644545">
        <ele>882.645</ele>
        <time>2022-07-09T11:48:30Z</time>
      </trkpt>
      <trkpt lat="46.616939" lon="10.644157">
        <ele>885.513</ele>
        <time>2022-07-09T11:48:49Z</time>
      </trkpt>
      <trkpt lat="46.616852" lon="10.644014">
        <ele>885.535</ele>
        <time>2022-07-09T11:48:57Z</time>
      </trkpt>
      <trkpt lat="46.616833" lon="10.644020">
        <ele>885.941</ele>
        <time>2022-07-09T11:48:58Z</time>
      </trkpt>
      <trkpt lat="46.616813" lon="10.644026">
        <ele>885.945</ele>
        <time>2022-07-09T11:48:59Z</time>
      </trkpt>
      <trkpt lat="46.616802" lon="10.644026">
        <ele>885.556</ele>
        <time>2022-07-09T11:49:00Z</time>
      </trkpt>
      <trkpt lat="46.616788" lon="10.644015">
        <ele>885.924</ele>
        <time>2022-07-09T11:49:01Z</time>
      </trkpt>
      <trkpt lat="46.616776" lon="10.643998">
        <ele>885.968</ele>
        <time>2022-07-09T11:49:02Z</time>
      </trkpt>
      <trkpt lat="46.616766" lon="10.643981">
        <ele>885.928</ele>
        <time>2022-07-09T11:49:03Z</time>
      </trkpt>
      <trkpt lat="46.616756" lon="10.643960">
        <ele>885.989</ele>
        <time>2022-07-09T11:49:04Z</time>
      </trkpt>
      <trkpt lat="46.616743" lon="10.643938">
        <ele>885.917</ele>
        <time>2022-07-09T11:49:05Z</time>
      </trkpt>
      <trkpt lat="46.616730" lon="10.643914">
        <ele>886.909</ele>
        <time>2022-07-09T11:49:06Z</time>
      </trkpt>
      <trkpt lat="46.616469" lon="10.643522">
        <ele>889.353</ele>
        <time>2022-07-09T11:49:27Z</time>
      </trkpt>
      <trkpt lat="46.616205" lon="10.643103">
        <ele>892.242</ele>
        <time>2022-07-09T11:49:50Z</time>
      </trkpt>
      <trkpt lat="46.615957" lon="10.642726">
        <ele>893.640</ele>
        <time>2022-07-09T11:50:11Z</time>
      </trkpt>
      <trkpt lat="46.615720" lon="10.642344">
        <ele>897.012</ele>
        <time>2022-07-09T11:50:32Z</time>
      </trkpt>
      <trkpt lat="46.615518" lon="10.642045">
        <ele>898.948</ele>
        <time>2022-07-09T11:50:49Z</time>
      </trkpt>
      <trkpt lat="46.615301" lon="10.641730">
        <ele>901.312</ele>
        <time>2022-07-09T11:51:08Z</time>
      </trkpt>
      <trkpt lat="46.615116" lon="10.641466">
        <ele>904.243</ele>
        <time>2022-07-09T11:51:26Z</time>
      </trkpt>
      <trkpt lat="46.614892" lon="10.641130">
        <ele>906.661</ele>
        <time>2022-07-09T11:51:49Z</time>
      </trkpt>
      <trkpt lat="46.614692" lon="10.640846">
        <ele>910.065</ele>
        <time>2022-07-09T11:52:09Z</time>
      </trkpt>
      <trkpt lat="46.614501" lon="10.640589">
        <ele>912.946</ele>
        <time>2022-07-09T11:52:29Z</time>
      </trkpt>
      <trkpt lat="46.614296" lon="10.640384">
        <ele>914.888</ele>
        <time>2022-07-09T11:52:48Z</time>
      </trkpt>
      <trkpt lat="46.614070" lon="10.640212">
        <ele>917.216</ele>
        <time>2022-07-09T11:53:07Z</time>
      </trkpt>
      <trkpt lat="46.613881" lon="10.640011">
        <ele>919.609</ele>
        <time>2022-07-09T11:53:24Z</time>
      </trkpt>
      <trkpt lat="46.613788" lon="10.639820">
        <ele>921.575</ele>
        <time>2022-07-09T11:53:38Z</time>
      </trkpt>
      <trkpt lat="46.613784" lon="10.639806">
        <ele>921.574</ele>
        <time>2022-07-09T11:53:39Z</time>
      </trkpt>
      <trkpt lat="46.613777" lon="10.639790">
        <ele>922.042</ele>
        <time>2022-07-09T11:53:40Z</time>
      </trkpt>
      <trkpt lat="46.613669" lon="10.639535">
        <ele>924.914</ele>
        <time>2022-07-09T11:53:58Z</time>
      </trkpt>
      <trkpt lat="46.613564" lon="10.639256">
        <ele>927.860</ele>
        <time>2022-07-09T11:54:16Z</time>
      </trkpt>
      <trkpt lat="46.613506" lon="10.638986">
        <ele>930.294</ele>
        <time>2022-07-09T11:54:33Z</time>
      </trkpt>
      <trkpt lat="46.613439" lon="10.638667">
        <ele>933.135</ele>
        <time>2022-07-09T11:54:53Z</time>
      </trkpt>
      <trkpt lat="46.613403" lon="10.638500">
        <ele>935.043</ele>
        <time>2022-07-09T11:55:04Z</time>
      </trkpt>
      <trkpt lat="46.613228" lon="10.638290">
        <ele>936.487</ele>
        <time>2022-07-09T11:55:24Z</time>
      </trkpt>
      <trkpt lat="46.613134" lon="10.638054">
        <ele>939.882</ele>
        <time>2022-07-09T11:55:41Z</time>
      </trkpt>
      <trkpt lat="46.613123" lon="10.637901">
        <ele>942.243</ele>
        <time>2022-07-09T11:55:54Z</time>
      </trkpt>
      <trkpt lat="46.613107" lon="10.637720">
        <ele>943.617</ele>
        <time>2022-07-09T11:56:05Z</time>
      </trkpt>
      <trkpt lat="46.613106" lon="10.637675">
        <ele>943.609</ele>
        <time>2022-07-09T11:56:08Z</time>
      </trkpt>
      <trkpt lat="46.613062" lon="10.637472">
        <ele>945.139</ele>
        <time>2022-07-09T11:56:21Z</time>
      </trkpt>
      <trkpt lat="46.613056" lon="10.637456">
        <ele>945.178</ele>
        <time>2022-07-09T11:56:22Z</time>
      </trkpt>
      <trkpt lat="46.612976" lon="10.637149">
        <ele>948.046</ele>
        <time>2022-07-09T11:56:41Z</time>
      </trkpt>
      <trkpt lat="46.612871" lon="10.636876">
        <ele>950.898</ele>
        <time>2022-07-09T11:56:59Z</time>
      </trkpt>
      <trkpt lat="46.612852" lon="10.636793">
        <ele>951.334</ele>
        <time>2022-07-09T11:57:04Z</time>
      </trkpt>
      <trkpt lat="46.612842" lon="10.636788">
        <ele>951.888</ele>
        <time>2022-07-09T11:57:05Z</time>
      </trkpt>
      <trkpt lat="46.612830" lon="10.636788">
        <ele>951.839</ele>
        <time>2022-07-09T11:57:06Z</time>
      </trkpt>
      <trkpt lat="46.612811" lon="10.636781">
        <ele>951.867</ele>
        <time>2022-07-09T11:57:07Z</time>
      </trkpt>
      <trkpt lat="46.612804" lon="10.636775">
        <ele>951.821</ele>
        <time>2022-07-09T11:57:08Z</time>
      </trkpt>
      <trkpt lat="46.612795" lon="10.636765">
        <ele>951.867</ele>
        <time>2022-07-09T11:57:09Z</time>
      </trkpt>
      <trkpt lat="46.612785" lon="10.636748">
        <ele>952.381</ele>
        <time>2022-07-09T11:57:10Z</time>
      </trkpt>
      <trkpt lat="46.612742" lon="10.636700">
        <ele>952.819</ele>
        <time>2022-07-09T11:57:24Z</time>
      </trkpt>
      <trkpt lat="46.612731" lon="10.636665">
        <ele>953.209</ele>
        <time>2022-07-09T11:57:52Z</time>
      </trkpt>
      <trkpt lat="46.612747" lon="10.636669">
        <ele>953.227</ele>
        <time>2022-07-09T11:58:08Z</time>
      </trkpt>
      <trkpt lat="46.612750" lon="10.636669">
        <ele>953.256</ele>
        <time>2022-07-09T11:58:10Z</time>
      </trkpt>
      <trkpt lat="46.612792" lon="10.636567">
        <ele>954.244</ele>
        <time>2022-07-09T11:58:19Z</time>
      </trkpt>
      <trkpt lat="46.612640" lon="10.636119">
        <ele>951.886</ele>
        <time>2022-07-09T11:58:33Z</time>
      </trkpt>
      <trkpt lat="46.612623" lon="10.636076">
        <ele>951.832</ele>
        <time>2022-07-09T11:58:34Z</time>
      </trkpt>
      <trkpt lat="46.612533" lon="10.635881">
        <ele>951.356</ele>
        <time>2022-07-09T11:58:37Z</time>
      </trkpt>
      <trkpt lat="46.612508" lon="10.635816">
        <ele>951.367</ele>
        <time>2022-07-09T11:58:38Z</time>
      </trkpt>
      <trkpt lat="46.612459" lon="10.635692">
        <ele>950.855</ele>
        <time>2022-07-09T11:58:40Z</time>
      </trkpt>
      <trkpt lat="46.612310" lon="10.635340">
        <ele>948.479</ele>
        <time>2022-07-09T11:58:46Z</time>
      </trkpt>
      <trkpt lat="46.612304" lon="10.635271">
        <ele>947.042</ele>
        <time>2022-07-09T11:58:47Z</time>
      </trkpt>
      <trkpt lat="46.612307" lon="10.635203">
        <ele>945.522</ele>
        <time>2022-07-09T11:58:48Z</time>
      </trkpt>
      <trkpt lat="46.612319" lon="10.635137">
        <ele>944.114</ele>
        <time>2022-07-09T11:58:49Z</time>
      </trkpt>
      <trkpt lat="46.612347" lon="10.635095">
        <ele>944.109</ele>
        <time>2022-07-09T11:58:50Z</time>
      </trkpt>
      <trkpt lat="46.612400" lon="10.635081">
        <ele>942.785</ele>
        <time>2022-07-09T11:58:51Z</time>
      </trkpt>
      <trkpt lat="46.612426" lon="10.635080">
        <ele>942.214</ele>
        <time>2022-07-09T11:58:52Z</time>
      </trkpt>
      <trkpt lat="46.612548" lon="10.635089">
        <ele>940.352</ele>
        <time>2022-07-09T11:58:56Z</time>
      </trkpt>
      <trkpt lat="46.612569" lon="10.635075">
        <ele>940.714</ele>
        <time>2022-07-09T11:59:04Z</time>
      </trkpt>
      <trkpt lat="46.612582" lon="10.635065">
        <ele>940.780</ele>
        <time>2022-07-09T11:59:05Z</time>
      </trkpt>
      <trkpt lat="46.612611" lon="10.635052">
        <ele>939.814</ele>
        <time>2022-07-09T11:59:06Z</time>
      </trkpt>
      <trkpt lat="46.612655" lon="10.635041">
        <ele>938.895</ele>
        <time>2022-07-09T11:59:07Z</time>
      </trkpt>
      <trkpt lat="46.612699" lon="10.635036">
        <ele>937.943</ele>
        <time>2022-07-09T11:59:08Z</time>
      </trkpt>
      <trkpt lat="46.612757" lon="10.635039">
        <ele>936.927</ele>
        <time>2022-07-09T11:59:09Z</time>
      </trkpt>
      <trkpt lat="46.612809" lon="10.635046">
        <ele>936.483</ele>
        <time>2022-07-09T11:59:10Z</time>
      </trkpt>
      <trkpt lat="46.612867" lon="10.635060">
        <ele>935.925</ele>
        <time>2022-07-09T11:59:11Z</time>
      </trkpt>
      <trkpt lat="46.612924" lon="10.635085">
        <ele>935.917</ele>
        <time>2022-07-09T11:59:12Z</time>
      </trkpt>
      <trkpt lat="46.612979" lon="10.635118">
        <ele>935.909</ele>
        <time>2022-07-09T11:59:13Z</time>
      </trkpt>
      <trkpt lat="46.613036" lon="10.635159">
        <ele>936.989</ele>
        <time>2022-07-09T11:59:14Z</time>
      </trkpt>
      <trkpt lat="46.613077" lon="10.635197">
        <ele>936.978</ele>
        <time>2022-07-09T11:59:15Z</time>
      </trkpt>
      <trkpt lat="46.613122" lon="10.635229">
        <ele>936.926</ele>
        <time>2022-07-09T11:59:16Z</time>
      </trkpt>
      <trkpt lat="46.613171" lon="10.635244">
        <ele>936.968</ele>
        <time>2022-07-09T11:59:17Z</time>
      </trkpt>
      <trkpt lat="46.613220" lon="10.635236">
        <ele>936.934</ele>
        <time>2022-07-09T11:59:18Z</time>
      </trkpt>
      <trkpt lat="46.613273" lon="10.635194">
        <ele>936.998</ele>
        <time>2022-07-09T11:59:19Z</time>
      </trkpt>
      <trkpt lat="46.613309" lon="10.635152">
        <ele>936.929</ele>
        <time>2022-07-09T11:59:20Z</time>
      </trkpt>
      <trkpt lat="46.613352" lon="10.635089">
        <ele>935.077</ele>
        <time>2022-07-09T11:59:21Z</time>
      </trkpt>
      <trkpt lat="46.613393" lon="10.635012">
        <ele>934.521</ele>
        <time>2022-07-09T11:59:22Z</time>
      </trkpt>
      <trkpt lat="46.613435" lon="10.634929">
        <ele>933.571</ele>
        <time>2022-07-09T11:59:23Z</time>
      </trkpt>
      <trkpt lat="46.613591" lon="10.634621">
        <ele>930.241</ele>
        <time>2022-07-09T11:59:26Z</time>
      </trkpt>
      <trkpt lat="46.613686" lon="10.634344">
        <ele>926.815</ele>
        <time>2022-07-09T11:59:29Z</time>
      </trkpt>
      <trkpt lat="46.613710" lon="10.634223">
        <ele>925.809</ele>
        <time>2022-07-09T11:59:30Z</time>
      </trkpt>
      <trkpt lat="46.613795" lon="10.633858">
        <ele>922.088</ele>
        <time>2022-07-09T11:59:33Z</time>
      </trkpt>
      <trkpt lat="46.613837" lon="10.633743">
        <ele>921.547</ele>
        <time>2022-07-09T11:59:34Z</time>
      </trkpt>
      <trkpt lat="46.613886" lon="10.633633">
        <ele>920.195</ele>
        <time>2022-07-09T11:59:35Z</time>
      </trkpt>
      <trkpt lat="46.614058" lon="10.633340">
        <ele>916.787</ele>
        <time>2022-07-09T11:59:38Z</time>
      </trkpt>
      <trkpt lat="46.614131" lon="10.633262">
        <ele>916.263</ele>
        <time>2022-07-09T11:59:39Z</time>
      </trkpt>
      <trkpt lat="46.614358" lon="10.633061">
        <ele>912.947</ele>
        <time>2022-07-09T11:59:42Z</time>
      </trkpt>
      <trkpt lat="46.614431" lon="10.632974">
        <ele>913.338</ele>
        <time>2022-07-09T11:59:43Z</time>
      </trkpt>
      <trkpt lat="46.614496" lon="10.632877">
        <ele>911.446</ele>
        <time>2022-07-09T11:59:44Z</time>
      </trkpt>
      <trkpt lat="46.614680" lon="10.632520">
        <ele>908.140</ele>
        <time>2022-07-09T11:59:47Z</time>
      </trkpt>
      <trkpt lat="46.614782" lon="10.632334">
        <ele>907.682</ele>
        <time>2022-07-09T11:59:49Z</time>
      </trkpt>
      <trkpt lat="46.614842" lon="10.632239">
        <ele>905.743</ele>
        <time>2022-07-09T11:59:50Z</time>
      </trkpt>
      <trkpt lat="46.614912" lon="10.632148">
        <ele>905.217</ele>
        <time>2022-07-09T11:59:51Z</time>
      </trkpt>
      <trkpt lat="46.615239" lon="10.631844">
        <ele>901.809</ele>
        <time>2022-07-09T11:59:55Z</time>
      </trkpt>
      <trkpt lat="46.615314" lon="10.631804">
        <ele>901.879</ele>
        <time>2022-07-09T11:59:56Z</time>
      </trkpt>
      <trkpt lat="46.615580" lon="10.631654">
        <ele>899.948</ele>
        <time>2022-07-09T11:59:59Z</time>
      </trkpt>
      <trkpt lat="46.615663" lon="10.631587">
        <ele>899.456</ele>
        <time>2022-07-09T12:00:00Z</time>
      </trkpt>
      <trkpt lat="46.615747" lon="10.631498">
        <ele>898.478</ele>
        <time>2022-07-09T12:00:01Z</time>
      </trkpt>
      <trkpt lat="46.615822" lon="10.631397">
        <ele>897.024</ele>
        <time>2022-07-09T12:00:02Z</time>
      </trkpt>
      <trkpt lat="46.615896" lon="10.631292">
        <ele>895.628</ele>
        <time>2022-07-09T12:00:03Z</time>
      </trkpt>
      <trkpt lat="46.616328" lon="10.630818">
        <ele>892.259</ele>
        <time>2022-07-09T12:00:08Z</time>
      </trkpt>
      <trkpt lat="46.617362" lon="10.629992">
        <ele>889.357</ele>
        <time>2022-07-09T12:00:20Z</time>
      </trkpt>
      <trkpt lat="46.617604" lon="10.629831">
        <ele>887.941</ele>
        <time>2022-07-09T12:00:23Z</time>
      </trkpt>
      <trkpt lat="46.618450" lon="10.629365">
        <ele>886.984</ele>
        <time>2022-07-09T12:00:36Z</time>
      </trkpt>
      <trkpt lat="46.618839" lon="10.629001">
        <ele>887.407</ele>
        <time>2022-07-09T12:00:45Z</time>
      </trkpt>
      <trkpt lat="46.619194" lon="10.628493">
        <ele>886.917</ele>
        <time>2022-07-09T12:00:57Z</time>
      </trkpt>
      <trkpt lat="46.619567" lon="10.627670">
        <ele>885.909</ele>
        <time>2022-07-09T12:01:14Z</time>
      </trkpt>
      <trkpt lat="46.619793" lon="10.627160">
        <ele>886.929</ele>
        <time>2022-07-09T12:01:26Z</time>
      </trkpt>
      <trkpt lat="46.619988" lon="10.626901">
        <ele>886.958</ele>
        <time>2022-07-09T12:01:34Z</time>
      </trkpt>
      <trkpt lat="46.619985" lon="10.626860">
        <ele>886.966</ele>
        <time>2022-07-09T12:01:35Z</time>
      </trkpt>
      <trkpt lat="46.619966" lon="10.626821">
        <ele>886.968</ele>
        <time>2022-07-09T12:01:36Z</time>
      </trkpt>
      <trkpt lat="46.619950" lon="10.626799">
        <ele>886.964</ele>
        <time>2022-07-09T12:01:37Z</time>
      </trkpt>
      <trkpt lat="46.619929" lon="10.626768">
        <ele>886.928</ele>
        <time>2022-07-09T12:01:38Z</time>
      </trkpt>
      <trkpt lat="46.619906" lon="10.626730">
        <ele>886.989</ele>
        <time>2022-07-09T12:01:39Z</time>
      </trkpt>
      <trkpt lat="46.619695" lon="10.626163">
        <ele>885.977</ele>
        <time>2022-07-09T12:01:51Z</time>
      </trkpt>
      <trkpt lat="46.619317" lon="10.625228">
        <ele>887.941</ele>
        <time>2022-07-09T12:02:12Z</time>
      </trkpt>
      <trkpt lat="46.619287" lon="10.625157">
        <ele>887.928</ele>
        <time>2022-07-09T12:02:24Z</time>
      </trkpt>
      <trkpt lat="46.619304" lon="10.625192">
        <ele>887.989</ele>
        <time>2022-07-09T12:02:44Z</time>
      </trkpt>
      <trkpt lat="46.619336" lon="10.625173">
        <ele>887.917</ele>
        <time>2022-07-09T12:02:58Z</time>
      </trkpt>
      <trkpt lat="46.619300" lon="10.625169">
        <ele>887.909</ele>
        <time>2022-07-09T12:03:20Z</time>
      </trkpt>
      <trkpt lat="46.619170" lon="10.624836">
        <ele>887.943</ele>
        <time>2022-07-09T12:03:31Z</time>
      </trkpt>
      <trkpt lat="46.618756" lon="10.623809">
        <ele>888.452</ele>
        <time>2022-07-09T12:03:54Z</time>
      </trkpt>
      <trkpt lat="46.618330" lon="10.622776">
        <ele>889.340</ele>
        <time>2022-07-09T12:04:17Z</time>
      </trkpt>
      <trkpt lat="46.617959" lon="10.621855">
        <ele>889.342</ele>
        <time>2022-07-09T12:04:37Z</time>
      </trkpt>
      <trkpt lat="46.617608" lon="10.620971">
        <ele>889.328</ele>
        <time>2022-07-09T12:04:56Z</time>
      </trkpt>
      <trkpt lat="46.617153" lon="10.619864">
        <ele>890.382</ele>
        <time>2022-07-09T12:05:20Z</time>
      </trkpt>
      <trkpt lat="46.616823" lon="10.619026">
        <ele>890.353</ele>
        <time>2022-07-09T12:05:39Z</time>
      </trkpt>
      <trkpt lat="46.616417" lon="10.618004">
        <ele>891.241</ele>
        <time>2022-07-09T12:06:02Z</time>
      </trkpt>
      <trkpt lat="46.616182" lon="10.617136">
        <ele>891.215</ele>
        <time>2022-07-09T12:06:20Z</time>
      </trkpt>
      <trkpt lat="46.616020" lon="10.616317">
        <ele>891.791</ele>
        <time>2022-07-09T12:06:38Z</time>
      </trkpt>
      <trkpt lat="46.615931" lon="10.615550">
        <ele>892.281</ele>
        <time>2022-07-09T12:06:54Z</time>
      </trkpt>
      <trkpt lat="46.616028" lon="10.614621">
        <ele>892.719</ele>
        <time>2022-07-09T12:07:13Z</time>
      </trkpt>
      <trkpt lat="46.616204" lon="10.613769">
        <ele>894.109</ele>
        <time>2022-07-09T12:07:31Z</time>
      </trkpt>
      <trkpt lat="46.616365" lon="10.613050">
        <ele>894.670</ele>
        <time>2022-07-09T12:07:48Z</time>
      </trkpt>
      <trkpt lat="46.616505" lon="10.612036">
        <ele>895.159</ele>
        <time>2022-07-09T12:08:10Z</time>
      </trkpt>
      <trkpt lat="46.616498" lon="10.611158">
        <ele>895.187</ele>
        <time>2022-07-09T12:08:31Z</time>
      </trkpt>
      <trkpt lat="46.616588" lon="10.610386">
        <ele>896.019</ele>
        <time>2022-07-09T12:08:49Z</time>
      </trkpt>
      <trkpt lat="46.616619" lon="10.609338">
        <ele>896.545</ele>
        <time>2022-07-09T12:09:12Z</time>
      </trkpt>
      <trkpt lat="46.616723" lon="10.608489">
        <ele>897.029</ele>
        <time>2022-07-09T12:09:31Z</time>
      </trkpt>
      <trkpt lat="46.616737" lon="10.607638">
        <ele>897.550</ele>
        <time>2022-07-09T12:09:50Z</time>
      </trkpt>
      <trkpt lat="46.616761" lon="10.606724">
        <ele>898.968</ele>
        <time>2022-07-09T12:10:11Z</time>
      </trkpt>
      <trkpt lat="46.616798" lon="10.605797">
        <ele>899.432</ele>
        <time>2022-07-09T12:10:32Z</time>
      </trkpt>
      <trkpt lat="46.616855" lon="10.605055">
        <ele>899.987</ele>
        <time>2022-07-09T12:10:50Z</time>
      </trkpt>
      <trkpt lat="46.617088" lon="10.604314">
        <ele>900.442</ele>
        <time>2022-07-09T12:11:08Z</time>
      </trkpt>
      <trkpt lat="46.617279" lon="10.603560">
        <ele>901.326</ele>
        <time>2022-07-09T12:11:26Z</time>
      </trkpt>
      <trkpt lat="46.617386" lon="10.602476">
        <ele>902.809</ele>
        <time>2022-07-09T12:11:50Z</time>
      </trkpt>
      <trkpt lat="46.617409" lon="10.601591">
        <ele>903.739</ele>
        <time>2022-07-09T12:12:10Z</time>
      </trkpt>
      <trkpt lat="46.617485" lon="10.600790">
        <ele>904.278</ele>
        <time>2022-07-09T12:12:28Z</time>
      </trkpt>
      <trkpt lat="46.617613" lon="10.600064">
        <ele>905.256</ele>
        <time>2022-07-09T12:12:45Z</time>
      </trkpt>
      <trkpt lat="46.617712" lon="10.599211">
        <ele>906.148</ele>
        <time>2022-07-09T12:13:05Z</time>
      </trkpt>
      <trkpt lat="46.617897" lon="10.598434">
        <ele>906.674</ele>
        <time>2022-07-09T12:13:25Z</time>
      </trkpt>
      <trkpt lat="46.617941" lon="10.597805">
        <ele>907.648</ele>
        <time>2022-07-09T12:13:40Z</time>
      </trkpt>
      <trkpt lat="46.617904" lon="10.597074">
        <ele>907.639</ele>
        <time>2022-07-09T12:13:58Z</time>
      </trkpt>
      <trkpt lat="46.617878" lon="10.596384">
        <ele>908.197</ele>
        <time>2022-07-09T12:14:13Z</time>
      </trkpt>
      <trkpt lat="46.617731" lon="10.595499">
        <ele>909.091</ele>
        <time>2022-07-09T12:14:33Z</time>
      </trkpt>
      <trkpt lat="46.617642" lon="10.594861">
        <ele>910.571</ele>
        <time>2022-07-09T12:14:49Z</time>
      </trkpt>
      <trkpt lat="46.617644" lon="10.594838">
        <ele>910.541</ele>
        <time>2022-07-09T12:14:50Z</time>
      </trkpt>
      <trkpt lat="46.617655" lon="10.594809">
        <ele>910.515</ele>
        <time>2022-07-09T12:14:51Z</time>
      </trkpt>
      <trkpt lat="46.617674" lon="10.594780">
        <ele>910.509</ele>
        <time>2022-07-09T12:14:53Z</time>
      </trkpt>
      <trkpt lat="46.617691" lon="10.594772">
        <ele>910.588</ele>
        <time>2022-07-09T12:14:54Z</time>
      </trkpt>
      <trkpt lat="46.617701" lon="10.594764">
        <ele>910.527</ele>
        <time>2022-07-09T12:14:55Z</time>
      </trkpt>
      <trkpt lat="46.617727" lon="10.594712">
        <ele>910.585</ele>
        <time>2022-07-09T12:15:07Z</time>
      </trkpt>
      <trkpt lat="46.617729" lon="10.594675">
        <ele>910.547</ele>
        <time>2022-07-09T12:15:08Z</time>
      </trkpt>
      <trkpt lat="46.617637" lon="10.594030">
        <ele>910.553</ele>
        <time>2022-07-09T12:15:23Z</time>
      </trkpt>
      <trkpt lat="46.617579" lon="10.593465">
        <ele>910.957</ele>
        <time>2022-07-09T12:15:37Z</time>
      </trkpt>
      <trkpt lat="46.617599" lon="10.593437">
        <ele>910.918</ele>
        <time>2022-07-09T12:15:38Z</time>
      </trkpt>
      <trkpt lat="46.617632" lon="10.593423">
        <ele>910.946</ele>
        <time>2022-07-09T12:15:40Z</time>
      </trkpt>
      <trkpt lat="46.617673" lon="10.593422">
        <ele>910.940</ele>
        <time>2022-07-09T12:15:41Z</time>
      </trkpt>
      <trkpt lat="46.618060" lon="10.593500">
        <ele>910.934</ele>
        <time>2022-07-09T12:15:54Z</time>
      </trkpt>
      <trkpt lat="46.618502" lon="10.593199">
        <ele>910.955</ele>
        <time>2022-07-09T12:16:08Z</time>
      </trkpt>
      <trkpt lat="46.618878" lon="10.592751">
        <ele>910.910</ele>
        <time>2022-07-09T12:16:20Z</time>
      </trkpt>
      <trkpt lat="46.619157" lon="10.592461">
        <ele>909.509</ele>
        <time>2022-07-09T12:16:28Z</time>
      </trkpt>
      <trkpt lat="46.619614" lon="10.592121">
        <ele>908.584</ele>
        <time>2022-07-09T12:16:40Z</time>
      </trkpt>
      <trkpt lat="46.619723" lon="10.592045">
        <ele>908.553</ele>
        <time>2022-07-09T12:16:43Z</time>
      </trkpt>
      <trkpt lat="46.619764" lon="10.592024">
        <ele>908.571</ele>
        <time>2022-07-09T12:16:44Z</time>
      </trkpt>
      <trkpt lat="46.619801" lon="10.591998">
        <ele>910.043</ele>
        <time>2022-07-09T12:16:45Z</time>
      </trkpt>
      <trkpt lat="46.619837" lon="10.591968">
        <ele>910.069</ele>
        <time>2022-07-09T12:16:46Z</time>
      </trkpt>
      <trkpt lat="46.619874" lon="10.591935">
        <ele>910.073</ele>
        <time>2022-07-09T12:16:47Z</time>
      </trkpt>
      <trkpt lat="46.620266" lon="10.591436">
        <ele>910.584</ele>
        <time>2022-07-09T12:17:01Z</time>
      </trkpt>
      <trkpt lat="46.620641" lon="10.590972">
        <ele>911.442</ele>
        <time>2022-07-09T12:17:17Z</time>
      </trkpt>
      <trkpt lat="46.620945" lon="10.590520">
        <ele>912.966</ele>
        <time>2022-07-09T12:17:33Z</time>
      </trkpt>
      <trkpt lat="46.621037" lon="10.590372">
        <ele>913.355</ele>
        <time>2022-07-09T12:17:38Z</time>
      </trkpt>
      <trkpt lat="46.621063" lon="10.590376">
        <ele>913.307</ele>
        <time>2022-07-09T12:17:39Z</time>
      </trkpt>
      <trkpt lat="46.621094" lon="10.590406">
        <ele>913.317</ele>
        <time>2022-07-09T12:17:40Z</time>
      </trkpt>
      <trkpt lat="46.621414" lon="10.590789">
        <ele>913.309</ele>
        <time>2022-07-09T12:17:51Z</time>
      </trkpt>
      <trkpt lat="46.621804" lon="10.591257">
        <ele>911.926</ele>
        <time>2022-07-09T12:18:03Z</time>
      </trkpt>
      <trkpt lat="46.622171" lon="10.591676">
        <ele>911.445</ele>
        <time>2022-07-09T12:18:13Z</time>
      </trkpt>
      <trkpt lat="46.622716" lon="10.592293">
        <ele>910.013</ele>
        <time>2022-07-09T12:18:29Z</time>
      </trkpt>
      <trkpt lat="46.623303" lon="10.592965">
        <ele>910.095</ele>
        <time>2022-07-09T12:18:46Z</time>
      </trkpt>
      <trkpt lat="46.623417" lon="10.593073">
        <ele>909.511</ele>
        <time>2022-07-09T12:18:49Z</time>
      </trkpt>
      <trkpt lat="46.624090" lon="10.593847">
        <ele>908.115</ele>
        <time>2022-07-09T12:19:07Z</time>
      </trkpt>
      <trkpt lat="46.624290" lon="10.594084">
        <ele>907.696</ele>
        <time>2022-07-09T12:19:12Z</time>
      </trkpt>
      <trkpt lat="46.624856" lon="10.594742">
        <ele>907.154</ele>
        <time>2022-07-09T12:19:28Z</time>
      </trkpt>
      <trkpt lat="46.624925" lon="10.594827">
        <ele>907.118</ele>
        <time>2022-07-09T12:19:30Z</time>
      </trkpt>
      <trkpt lat="46.625583" lon="10.595595">
        <ele>906.142</ele>
        <time>2022-07-09T12:19:48Z</time>
      </trkpt>
      <trkpt lat="46.625719" lon="10.595752">
        <ele>905.722</ele>
        <time>2022-07-09T12:19:52Z</time>
      </trkpt>
      <trkpt lat="46.625790" lon="10.595823">
        <ele>905.714</ele>
        <time>2022-07-09T12:19:54Z</time>
      </trkpt>
      <trkpt lat="46.626454" lon="10.596266">
        <ele>904.209</ele>
        <time>2022-07-09T12:20:08Z</time>
      </trkpt>
      <trkpt lat="46.626929" lon="10.596573">
        <ele>902.835</ele>
        <time>2022-07-09T12:20:18Z</time>
      </trkpt>
      <trkpt lat="46.627196" lon="10.596669">
        <ele>901.884</ele>
        <time>2022-07-09T12:20:24Z</time>
      </trkpt>
      <trkpt lat="46.627235" lon="10.596749">
        <ele>902.312</ele>
        <time>2022-07-09T12:20:25Z</time>
      </trkpt>
      <trkpt lat="46.627272" lon="10.596859">
        <ele>902.364</ele>
        <time>2022-07-09T12:20:27Z</time>
      </trkpt>
      <trkpt lat="46.627296" lon="10.596905">
        <ele>902.380</ele>
        <time>2022-07-09T12:20:28Z</time>
      </trkpt>
      <trkpt lat="46.627322" lon="10.596947">
        <ele>902.344</ele>
        <time>2022-07-09T12:20:29Z</time>
      </trkpt>
      <trkpt lat="46.627494" lon="10.597143">
        <ele>902.375</ele>
        <time>2022-07-09T12:20:34Z</time>
      </trkpt>
      <trkpt lat="46.627650" lon="10.597270">
        <ele>902.323</ele>
        <time>2022-07-09T12:20:38Z</time>
      </trkpt>
      <trkpt lat="46.627778" lon="10.597329">
        <ele>901.347</ele>
        <time>2022-07-09T12:20:41Z</time>
      </trkpt>
      <trkpt lat="46.627819" lon="10.597337">
        <ele>901.368</ele>
        <time>2022-07-09T12:20:42Z</time>
      </trkpt>
      <trkpt lat="46.628361" lon="10.597394">
        <ele>900.842</ele>
        <time>2022-07-09T12:20:54Z</time>
      </trkpt>
      <trkpt lat="46.628414" lon="10.597422">
        <ele>900.826</ele>
        <time>2022-07-09T12:20:55Z</time>
      </trkpt>
      <trkpt lat="46.628452" lon="10.597448">
        <ele>900.809</ele>
        <time>2022-07-09T12:20:56Z</time>
      </trkpt>
      <trkpt lat="46.628494" lon="10.597484">
        <ele>900.887</ele>
        <time>2022-07-09T12:20:57Z</time>
      </trkpt>
      <trkpt lat="46.628538" lon="10.597527">
        <ele>900.816</ele>
        <time>2022-07-09T12:20:58Z</time>
      </trkpt>
      <trkpt lat="46.629056" lon="10.598279">
        <ele>899.414</ele>
        <time>2022-07-09T12:21:13Z</time>
      </trkpt>
      <trkpt lat="46.629462" lon="10.598811">
        <ele>898.986</ele>
        <time>2022-07-09T12:21:27Z</time>
      </trkpt>
      <trkpt lat="46.629473" lon="10.598828">
        <ele>898.922</ele>
        <time>2022-07-09T12:21:28Z</time>
      </trkpt>
      <trkpt lat="46.629488" lon="10.598847">
        <ele>898.956</ele>
        <time>2022-07-09T12:21:29Z</time>
      </trkpt>
      <trkpt lat="46.629553" lon="10.598929">
        <ele>898.977</ele>
        <time>2022-07-09T12:21:40Z</time>
      </trkpt>
      <trkpt lat="46.629570" lon="10.598939">
        <ele>898.955</ele>
        <time>2022-07-09T12:22:09Z</time>
      </trkpt>
      <trkpt lat="46.629567" lon="10.598935">
        <ele>898.999</ele>
        <time>2022-07-09T12:22:35Z</time>
      </trkpt>
      <trkpt lat="46.629572" lon="10.598935">
        <ele>898.957</ele>
        <time>2022-07-09T12:23:07Z</time>
      </trkpt>
      <trkpt lat="46.629579" lon="10.598950">
        <ele>898.900</ele>
        <time>2022-07-09T12:23:28Z</time>
      </trkpt>
      <trkpt lat="46.629588" lon="10.598964">
        <ele>898.920</ele>
        <time>2022-07-09T12:23:29Z</time>
      </trkpt>
      <trkpt lat="46.629796" lon="10.599332">
        <ele>898.409</ele>
        <time>2022-07-09T12:23:40Z</time>
      </trkpt>
      <trkpt lat="46.630091" lon="10.599801">
        <ele>897.026</ele>
        <time>2022-07-09T12:23:50Z</time>
      </trkpt>
      <trkpt lat="46.630126" lon="10.599840">
        <ele>897.065</ele>
        <time>2022-07-09T12:23:51Z</time>
      </trkpt>
      <trkpt lat="46.630162" lon="10.599870">
        <ele>897.093</ele>
        <time>2022-07-09T12:23:52Z</time>
      </trkpt>
      <trkpt lat="46.630207" lon="10.599899">
        <ele>897.095</ele>
        <time>2022-07-09T12:23:53Z</time>
      </trkpt>
      <trkpt lat="46.630245" lon="10.599916">
        <ele>897.011</ele>
        <time>2022-07-09T12:23:54Z</time>
      </trkpt>
      <trkpt lat="46.630289" lon="10.599926">
        <ele>897.035</ele>
        <time>2022-07-09T12:23:55Z</time>
      </trkpt>
      <trkpt lat="46.630336" lon="10.599928">
        <ele>897.056</ele>
        <time>2022-07-09T12:23:56Z</time>
      </trkpt>
      <trkpt lat="46.630380" lon="10.599924">
        <ele>897.044</ele>
        <time>2022-07-09T12:23:57Z</time>
      </trkpt>
      <trkpt lat="46.630519" lon="10.599909">
        <ele>898.468</ele>
        <time>2022-07-09T12:24:00Z</time>
      </trkpt>
      <trkpt lat="46.630758" lon="10.599905">
        <ele>898.446</ele>
        <time>2022-07-09T12:24:05Z</time>
      </trkpt>
      <trkpt lat="46.630807" lon="10.599925">
        <ele>898.488</ele>
        <time>2022-07-09T12:24:06Z</time>
      </trkpt>
      <trkpt lat="46.630855" lon="10.599955">
        <ele>898.416</ele>
        <time>2022-07-09T12:24:07Z</time>
      </trkpt>
      <trkpt lat="46.630895" lon="10.599989">
        <ele>898.409</ele>
        <time>2022-07-09T12:24:08Z</time>
      </trkpt>
      <trkpt lat="46.630944" lon="10.600038">
        <ele>898.465</ele>
        <time>2022-07-09T12:24:09Z</time>
      </trkpt>
      <trkpt lat="46.630975" lon="10.600071">
        <ele>897.024</ele>
        <time>2022-07-09T12:24:10Z</time>
      </trkpt>
      <trkpt lat="46.631011" lon="10.600116">
        <ele>897.042</ele>
        <time>2022-07-09T12:24:11Z</time>
      </trkpt>
      <trkpt lat="46.631545" lon="10.600936">
        <ele>897.094</ele>
        <time>2022-07-09T12:24:28Z</time>
      </trkpt>
      <trkpt lat="46.631925" lon="10.601529">
        <ele>896.090</ele>
        <time>2022-07-09T12:24:39Z</time>
      </trkpt>
      <trkpt lat="46.631957" lon="10.601587">
        <ele>896.074</ele>
        <time>2022-07-09T12:24:40Z</time>
      </trkpt>
      <trkpt lat="46.632524" lon="10.602434">
        <ele>894.125</ele>
        <time>2022-07-09T12:24:57Z</time>
      </trkpt>
      <trkpt lat="46.632993" lon="10.603284">
        <ele>894.143</ele>
        <time>2022-07-09T12:25:12Z</time>
      </trkpt>
      <trkpt lat="46.633027" lon="10.603347">
        <ele>894.167</ele>
        <time>2022-07-09T12:25:13Z</time>
      </trkpt>
      <trkpt lat="46.633052" lon="10.603404">
        <ele>894.116</ele>
        <time>2022-07-09T12:25:14Z</time>
      </trkpt>
      <trkpt lat="46.633078" lon="10.603481">
        <ele>893.676</ele>
        <time>2022-07-09T12:25:15Z</time>
      </trkpt>
      <trkpt lat="46.633091" lon="10.603533">
        <ele>893.613</ele>
        <time>2022-07-09T12:25:16Z</time>
      </trkpt>
      <trkpt lat="46.633101" lon="10.603605">
        <ele>893.609</ele>
        <time>2022-07-09T12:25:17Z</time>
      </trkpt>
      <trkpt lat="46.633106" lon="10.603680">
        <ele>893.682</ele>
        <time>2022-07-09T12:25:18Z</time>
      </trkpt>
      <trkpt lat="46.633103" lon="10.603824">
        <ele>893.671</ele>
        <time>2022-07-09T12:25:20Z</time>
      </trkpt>
      <trkpt lat="46.633092" lon="10.603886">
        <ele>893.679</ele>
        <time>2022-07-09T12:25:21Z</time>
      </trkpt>
      <trkpt lat="46.633074" lon="10.603949">
        <ele>893.651</ele>
        <time>2022-07-09T12:25:22Z</time>
      </trkpt>
      <trkpt lat="46.632804" lon="10.604468">
        <ele>893.697</ele>
        <time>2022-07-09T12:26:18Z</time>
      </trkpt>
      <trkpt lat="46.632807" lon="10.604462">
        <ele>892.231</ele>
        <time>2022-07-09T12:26:51Z</time>
      </trkpt>
      <trkpt lat="46.632807" lon="10.604459">
        <ele>893.692</ele>
        <time>2022-07-09T12:26:54Z</time>
      </trkpt>
      <trkpt lat="46.632784" lon="10.604455">
        <ele>893.670</ele>
        <time>2022-07-09T12:27:09Z</time>
      </trkpt>
      <trkpt lat="46.632767" lon="10.604464">
        <ele>893.624</ele>
        <time>2022-07-09T12:27:10Z</time>
      </trkpt>
      <trkpt lat="46.632755" lon="10.604478">
        <ele>893.682</ele>
        <time>2022-07-09T12:27:11Z</time>
      </trkpt>
      <trkpt lat="46.632745" lon="10.604491">
        <ele>893.643</ele>
        <time>2022-07-09T12:27:12Z</time>
      </trkpt>
      <trkpt lat="46.632729" lon="10.604513">
        <ele>893.617</ele>
        <time>2022-07-09T12:27:13Z</time>
      </trkpt>
      <trkpt lat="46.632435" lon="10.604891">
        <ele>892.209</ele>
        <time>2022-07-09T12:27:26Z</time>
      </trkpt>
      <trkpt lat="46.632060" lon="10.605664">
        <ele>891.289</ele>
        <time>2022-07-09T12:27:42Z</time>
      </trkpt>
      <trkpt lat="46.632048" lon="10.605730">
        <ele>891.218</ele>
        <time>2022-07-09T12:27:43Z</time>
      </trkpt>
      <trkpt lat="46.632041" lon="10.605796">
        <ele>891.286</ele>
        <time>2022-07-09T12:27:44Z</time>
      </trkpt>
      <trkpt lat="46.632011" lon="10.606423">
        <ele>890.818</ele>
        <time>2022-07-09T12:27:53Z</time>
      </trkpt>
      <trkpt lat="46.631998" lon="10.606493">
        <ele>890.824</ele>
        <time>2022-07-09T12:27:54Z</time>
      </trkpt>
      <trkpt lat="46.631972" lon="10.606623">
        <ele>890.818</ele>
        <time>2022-07-09T12:27:56Z</time>
      </trkpt>
      <trkpt lat="46.631968" lon="10.606690">
        <ele>890.839</ele>
        <time>2022-07-09T12:27:57Z</time>
      </trkpt>
      <trkpt lat="46.631974" lon="10.606757">
        <ele>890.877</ele>
        <time>2022-07-09T12:27:58Z</time>
      </trkpt>
      <trkpt lat="46.631988" lon="10.606822">
        <ele>890.841</ele>
        <time>2022-07-09T12:27:59Z</time>
      </trkpt>
      <trkpt lat="46.632004" lon="10.606874">
        <ele>890.838</ele>
        <time>2022-07-09T12:28:00Z</time>
      </trkpt>
      <trkpt lat="46.632031" lon="10.606938">
        <ele>890.870</ele>
        <time>2022-07-09T12:28:01Z</time>
      </trkpt>
      <trkpt lat="46.632054" lon="10.606985">
        <ele>890.817</ele>
        <time>2022-07-09T12:28:02Z</time>
      </trkpt>
      <trkpt lat="46.632084" lon="10.607043">
        <ele>890.809</ele>
        <time>2022-07-09T12:28:03Z</time>
      </trkpt>
      <trkpt lat="46.632354" lon="10.607622">
        <ele>890.884</ele>
        <time>2022-07-09T12:28:14Z</time>
      </trkpt>
      <trkpt lat="46.632430" lon="10.608193">
        <ele>890.863</ele>
        <time>2022-07-09T12:28:23Z</time>
      </trkpt>
      <trkpt lat="46.632467" lon="10.608321">
        <ele>890.851</ele>
        <time>2022-07-09T12:28:25Z</time>
      </trkpt>
      <trkpt lat="46.632494" lon="10.608377">
        <ele>890.833</ele>
        <time>2022-07-09T12:28:26Z</time>
      </trkpt>
      <trkpt lat="46.632533" lon="10.608429">
        <ele>890.899</ele>
        <time>2022-07-09T12:28:27Z</time>
      </trkpt>
      <trkpt lat="46.632574" lon="10.608465">
        <ele>890.353</ele>
        <time>2022-07-09T12:28:28Z</time>
      </trkpt>
      <trkpt lat="46.632621" lon="10.608498">
        <ele>890.344</ele>
        <time>2022-07-09T12:28:29Z</time>
      </trkpt>
      <trkpt lat="46.633002" lon="10.608712">
        <ele>890.382</ele>
        <time>2022-07-09T12:28:38Z</time>
      </trkpt>
      <trkpt lat="46.633049" lon="10.608724">
        <ele>890.396</ele>
        <time>2022-07-09T12:28:39Z</time>
      </trkpt>
      <trkpt lat="46.633179" lon="10.608743">
        <ele>889.881</ele>
        <time>2022-07-09T12:28:42Z</time>
      </trkpt>
      <trkpt lat="46.633229" lon="10.608760">
        <ele>889.861</ele>
        <time>2022-07-09T12:28:43Z</time>
      </trkpt>
      <trkpt lat="46.633265" lon="10.608779">
        <ele>889.817</ele>
        <time>2022-07-09T12:28:44Z</time>
      </trkpt>
      <trkpt lat="46.633302" lon="10.608805">
        <ele>889.809</ele>
        <time>2022-07-09T12:28:45Z</time>
      </trkpt>
      <trkpt lat="46.633343" lon="10.608841">
        <ele>889.859</ele>
        <time>2022-07-09T12:28:46Z</time>
      </trkpt>
      <trkpt lat="46.633378" lon="10.608879">
        <ele>889.838</ele>
        <time>2022-07-09T12:28:47Z</time>
      </trkpt>
      <trkpt lat="46.633420" lon="10.608925">
        <ele>889.876</ele>
        <time>2022-07-09T12:28:48Z</time>
      </trkpt>
      <trkpt lat="46.633766" lon="10.609498">
        <ele>889.348</ele>
        <time>2022-07-09T12:29:01Z</time>
      </trkpt>
      <trkpt lat="46.634038" lon="10.609490">
        <ele>889.374</ele>
        <time>2022-07-09T12:29:09Z</time>
      </trkpt>
      <trkpt lat="46.634065" lon="10.609441">
        <ele>889.338</ele>
        <time>2022-07-09T12:29:10Z</time>
      </trkpt>
      <trkpt lat="46.634083" lon="10.609397">
        <ele>889.379</ele>
        <time>2022-07-09T12:29:11Z</time>
      </trkpt>
      <trkpt lat="46.634352" lon="10.608697">
        <ele>889.347</ele>
        <time>2022-07-09T12:29:25Z</time>
      </trkpt>
      <trkpt lat="46.634728" lon="10.607838">
        <ele>889.371</ele>
        <time>2022-07-09T12:29:42Z</time>
      </trkpt>
      <trkpt lat="46.634879" lon="10.607314">
        <ele>889.319</ele>
        <time>2022-07-09T12:29:52Z</time>
      </trkpt>
      <trkpt lat="46.634991" lon="10.607013">
        <ele>890.309</ele>
        <time>2022-07-09T12:29:58Z</time>
      </trkpt>
      <trkpt lat="46.635371" lon="10.606183">
        <ele>890.819</ele>
        <time>2022-07-09T12:30:16Z</time>
      </trkpt>
      <trkpt lat="46.635480" lon="10.605624">
        <ele>891.209</ele>
        <time>2022-07-09T12:30:28Z</time>
      </trkpt>
      <trkpt lat="46.635658" lon="10.604912">
        <ele>892.792</ele>
        <time>2022-07-09T12:30:43Z</time>
      </trkpt>
      <trkpt lat="46.635925" lon="10.603956">
        <ele>891.291</ele>
        <time>2022-07-09T12:31:03Z</time>
      </trkpt>
      <trkpt lat="46.636213" lon="10.602883">
        <ele>891.269</ele>
        <time>2022-07-09T12:31:23Z</time>
      </trkpt>
      <trkpt lat="46.636511" lon="10.601821">
        <ele>890.881</ele>
        <time>2022-07-09T12:31:42Z</time>
      </trkpt>
      <trkpt lat="46.636719" lon="10.601015">
        <ele>890.897</ele>
        <time>2022-07-09T12:31:57Z</time>
      </trkpt>
      <trkpt lat="46.636817" lon="10.600664">
        <ele>892.221</ele>
        <time>2022-07-09T12:32:04Z</time>
      </trkpt>
      <trkpt lat="46.636938" lon="10.600251">
        <ele>892.262</ele>
        <time>2022-07-09T12:32:12Z</time>
      </trkpt>
      <trkpt lat="46.636971" lon="10.600240">
        <ele>892.290</ele>
        <time>2022-07-09T12:32:13Z</time>
      </trkpt>
      <trkpt lat="46.637001" lon="10.600253">
        <ele>892.714</ele>
        <time>2022-07-09T12:32:14Z</time>
      </trkpt>
      <trkpt lat="46.637028" lon="10.600265">
        <ele>892.788</ele>
        <time>2022-07-09T12:32:15Z</time>
      </trkpt>
      <trkpt lat="46.637066" lon="10.600263">
        <ele>892.724</ele>
        <time>2022-07-09T12:32:16Z</time>
      </trkpt>
      <trkpt lat="46.637093" lon="10.600255">
        <ele>892.726</ele>
        <time>2022-07-09T12:32:17Z</time>
      </trkpt>
      <trkpt lat="46.637121" lon="10.600229">
        <ele>892.709</ele>
        <time>2022-07-09T12:32:18Z</time>
      </trkpt>
      <trkpt lat="46.637143" lon="10.600187">
        <ele>892.779</ele>
        <time>2022-07-09T12:32:19Z</time>
      </trkpt>
      <trkpt lat="46.637169" lon="10.600138">
        <ele>892.758</ele>
        <time>2022-07-09T12:32:20Z</time>
      </trkpt>
      <trkpt lat="46.637191" lon="10.600105">
        <ele>892.716</ele>
        <time>2022-07-09T12:32:21Z</time>
      </trkpt>
      <trkpt lat="46.637500" lon="10.599538">
        <ele>891.278</ele>
        <time>2022-07-09T12:32:33Z</time>
      </trkpt>
      <trkpt lat="46.637614" lon="10.599338">
        <ele>892.254</ele>
        <time>2022-07-09T12:32:37Z</time>
      </trkpt>
      <trkpt lat="46.637729" lon="10.599143">
        <ele>892.228</ele>
        <time>2022-07-09T12:32:41Z</time>
      </trkpt>
      <trkpt lat="46.638102" lon="10.598551">
        <ele>892.239</ele>
        <time>2022-07-09T12:32:55Z</time>
      </trkpt>
      <trkpt lat="46.638360" lon="10.598242">
        <ele>892.217</ele>
        <time>2022-07-09T12:33:03Z</time>
      </trkpt>
      <trkpt lat="46.638474" lon="10.598095">
        <ele>890.811</ele>
        <time>2022-07-09T12:33:06Z</time>
      </trkpt>
      <trkpt lat="46.638652" lon="10.597766">
        <ele>892.224</ele>
        <time>2022-07-09T12:33:13Z</time>
      </trkpt>
      <trkpt lat="46.638940" lon="10.597007">
        <ele>892.704</ele>
        <time>2022-07-09T12:33:28Z</time>
      </trkpt>
      <trkpt lat="46.639225" lon="10.596260">
        <ele>893.214</ele>
        <time>2022-07-09T12:33:43Z</time>
      </trkpt>
      <trkpt lat="46.639243" lon="10.596211">
        <ele>893.209</ele>
        <time>2022-07-09T12:33:44Z</time>
      </trkpt>
      <trkpt lat="46.639481" lon="10.595539">
        <ele>892.753</ele>
        <time>2022-07-09T12:33:57Z</time>
      </trkpt>
      <trkpt lat="46.639565" lon="10.595332">
        <ele>892.762</ele>
        <time>2022-07-09T12:34:01Z</time>
      </trkpt>
      <trkpt lat="46.639583" lon="10.595285">
        <ele>892.790</ele>
        <time>2022-07-09T12:34:02Z</time>
      </trkpt>
      <trkpt lat="46.639976" lon="10.594255">
        <ele>893.242</ele>
        <time>2022-07-09T12:34:21Z</time>
      </trkpt>
      <trkpt lat="46.640421" lon="10.593107">
        <ele>893.658</ele>
        <time>2022-07-09T12:34:42Z</time>
      </trkpt>
      <trkpt lat="46.640456" lon="10.593008">
        <ele>893.652</ele>
        <time>2022-07-09T12:34:44Z</time>
      </trkpt>
      <trkpt lat="46.640474" lon="10.592951">
        <ele>893.613</ele>
        <time>2022-07-09T12:34:45Z</time>
      </trkpt>
      <trkpt lat="46.640893" lon="10.591846">
        <ele>893.611</ele>
        <time>2022-07-09T12:35:06Z</time>
      </trkpt>
      <trkpt lat="46.640942" lon="10.591728">
        <ele>893.675</ele>
        <time>2022-07-09T12:35:08Z</time>
      </trkpt>
      <trkpt lat="46.640958" lon="10.591673">
        <ele>893.687</ele>
        <time>2022-07-09T12:35:09Z</time>
      </trkpt>
      <trkpt lat="46.641029" lon="10.591473">
        <ele>894.142</ele>
        <time>2022-07-09T12:35:13Z</time>
      </trkpt>
      <trkpt lat="46.641365" lon="10.590698">
        <ele>894.126</ele>
        <time>2022-07-09T12:35:27Z</time>
      </trkpt>
      <trkpt lat="46.641387" lon="10.590641">
        <ele>894.109</ele>
        <time>2022-07-09T12:35:28Z</time>
      </trkpt>
      <trkpt lat="46.641649" lon="10.589932">
        <ele>894.619</ele>
        <time>2022-07-09T12:35:42Z</time>
      </trkpt>
      <trkpt lat="46.641981" lon="10.589048">
        <ele>894.688</ele>
        <time>2022-07-09T12:35:59Z</time>
      </trkpt>
      <trkpt lat="46.642350" lon="10.588097">
        <ele>894.646</ele>
        <time>2022-07-09T12:36:17Z</time>
      </trkpt>
      <trkpt lat="46.642660" lon="10.587298">
        <ele>895.128</ele>
        <time>2022-07-09T12:36:33Z</time>
      </trkpt>
      <trkpt lat="46.642939" lon="10.586599">
        <ele>895.114</ele>
        <time>2022-07-09T12:36:47Z</time>
      </trkpt>
      <trkpt lat="46.643242" lon="10.585793">
        <ele>895.148</ele>
        <time>2022-07-09T12:37:02Z</time>
      </trkpt>
      <trkpt lat="46.643536" lon="10.585046">
        <ele>894.669</ele>
        <time>2022-07-09T12:37:16Z</time>
      </trkpt>
      <trkpt lat="46.643854" lon="10.584231">
        <ele>894.627</ele>
        <time>2022-07-09T12:37:32Z</time>
      </trkpt>
      <trkpt lat="46.644233" lon="10.583272">
        <ele>895.681</ele>
        <time>2022-07-09T12:37:51Z</time>
      </trkpt>
      <trkpt lat="46.644500" lon="10.582587">
        <ele>894.152</ele>
        <time>2022-07-09T12:38:04Z</time>
      </trkpt>
      <trkpt lat="46.644808" lon="10.581793">
        <ele>895.653</ele>
        <time>2022-07-09T12:38:19Z</time>
      </trkpt>
      <trkpt lat="46.645181" lon="10.580810">
        <ele>895.608</ele>
        <time>2022-07-09T12:38:38Z</time>
      </trkpt>
      <trkpt lat="46.645250" lon="10.580658">
        <ele>895.609</ele>
        <time>2022-07-09T12:38:41Z</time>
      </trkpt>
      <trkpt lat="46.645648" lon="10.579704">
        <ele>896.036</ele>
        <time>2022-07-09T12:39:00Z</time>
      </trkpt>
      <trkpt lat="46.645845" lon="10.579270">
        <ele>897.075</ele>
        <time>2022-07-09T12:39:09Z</time>
      </trkpt>
      <trkpt lat="46.646422" lon="10.578283">
        <ele>897.043</ele>
        <time>2022-07-09T12:39:30Z</time>
      </trkpt>
      <trkpt lat="46.646451" lon="10.578240">
        <ele>897.035</ele>
        <time>2022-07-09T12:39:31Z</time>
      </trkpt>
      <trkpt lat="46.646482" lon="10.578196">
        <ele>897.041</ele>
        <time>2022-07-09T12:39:32Z</time>
      </trkpt>
      <trkpt lat="46.646925" lon="10.577584">
        <ele>897.035</ele>
        <time>2022-07-09T12:39:47Z</time>
      </trkpt>
      <trkpt lat="46.647550" lon="10.576833">
        <ele>897.016</ele>
        <time>2022-07-09T12:40:06Z</time>
      </trkpt>
      <trkpt lat="46.647765" lon="10.576600">
        <ele>896.034</ele>
        <time>2022-07-09T12:40:13Z</time>
      </trkpt>
      <trkpt lat="46.647978" lon="10.576394">
        <ele>896.548</ele>
        <time>2022-07-09T12:40:19Z</time>
      </trkpt>
      <trkpt lat="46.648192" lon="10.576206">
        <ele>896.559</ele>
        <time>2022-07-09T12:40:25Z</time>
      </trkpt>
      <trkpt lat="46.648616" lon="10.575831">
        <ele>898.003</ele>
        <time>2022-07-09T12:40:37Z</time>
      </trkpt>
      <trkpt lat="46.649209" lon="10.575312">
        <ele>897.523</ele>
        <time>2022-07-09T12:40:55Z</time>
      </trkpt>
      <trkpt lat="46.649308" lon="10.575224">
        <ele>898.909</ele>
        <time>2022-07-09T12:40:58Z</time>
      </trkpt>
      <trkpt lat="46.649813" lon="10.574763">
        <ele>898.936</ele>
        <time>2022-07-09T12:41:12Z</time>
      </trkpt>
      <trkpt lat="46.650318" lon="10.574319">
        <ele>898.965</ele>
        <time>2022-07-09T12:41:27Z</time>
      </trkpt>
      <trkpt lat="46.650726" lon="10.573937">
        <ele>899.463</ele>
        <time>2022-07-09T12:41:39Z</time>
      </trkpt>
      <trkpt lat="46.651355" lon="10.573394">
        <ele>899.415</ele>
        <time>2022-07-09T12:41:56Z</time>
      </trkpt>
      <trkpt lat="46.651819" lon="10.572949">
        <ele>899.491</ele>
        <time>2022-07-09T12:42:10Z</time>
      </trkpt>
      <trkpt lat="46.652277" lon="10.572513">
        <ele>899.965</ele>
        <time>2022-07-09T12:42:25Z</time>
      </trkpt>
      <trkpt lat="46.652526" lon="10.572311">
        <ele>899.446</ele>
        <time>2022-07-09T12:42:34Z</time>
      </trkpt>
      <trkpt lat="46.652989" lon="10.571919">
        <ele>898.944</ele>
        <time>2022-07-09T12:42:47Z</time>
      </trkpt>
      <trkpt lat="46.653539" lon="10.571423">
        <ele>900.468</ele>
        <time>2022-07-09T12:43:03Z</time>
      </trkpt>
      <trkpt lat="46.653575" lon="10.571393">
        <ele>900.494</ele>
        <time>2022-07-09T12:43:04Z</time>
      </trkpt>
      <trkpt lat="46.654162" lon="10.570870">
        <ele>900.457</ele>
        <time>2022-07-09T12:43:21Z</time>
      </trkpt>
      <trkpt lat="46.654761" lon="10.570341">
        <ele>900.822</ele>
        <time>2022-07-09T12:43:39Z</time>
      </trkpt>
      <trkpt lat="46.655323" lon="10.569843">
        <ele>900.809</ele>
        <time>2022-07-09T12:43:56Z</time>
      </trkpt>
      <trkpt lat="46.656025" lon="10.569226">
        <ele>901.320</ele>
        <time>2022-07-09T12:44:17Z</time>
      </trkpt>
      <trkpt lat="46.656496" lon="10.568817">
        <ele>901.339</ele>
        <time>2022-07-09T12:44:30Z</time>
      </trkpt>
      <trkpt lat="46.656703" lon="10.568629">
        <ele>901.367</ele>
        <time>2022-07-09T12:44:36Z</time>
      </trkpt>
      <trkpt lat="46.657247" lon="10.568123">
        <ele>901.879</ele>
        <time>2022-07-09T12:44:53Z</time>
      </trkpt>
      <trkpt lat="46.657882" lon="10.567541">
        <ele>902.875</ele>
        <time>2022-07-09T12:45:15Z</time>
      </trkpt>
      <trkpt lat="46.658333" lon="10.567119">
        <ele>904.749</ele>
        <time>2022-07-09T12:45:31Z</time>
      </trkpt>
      <trkpt lat="46.658825" lon="10.566692">
        <ele>904.740</ele>
        <time>2022-07-09T12:45:48Z</time>
      </trkpt>
      <trkpt lat="46.659311" lon="10.566264">
        <ele>904.798</ele>
        <time>2022-07-09T12:46:05Z</time>
      </trkpt>
      <trkpt lat="46.659796" lon="10.565825">
        <ele>905.252</ele>
        <time>2022-07-09T12:46:21Z</time>
      </trkpt>
      <trkpt lat="46.660305" lon="10.565366">
        <ele>905.237</ele>
        <time>2022-07-09T12:46:39Z</time>
      </trkpt>
      <trkpt lat="46.660476" lon="10.565295">
        <ele>905.249</ele>
        <time>2022-07-09T12:46:46Z</time>
      </trkpt>
      <trkpt lat="46.660649" lon="10.565456">
        <ele>905.213</ele>
        <time>2022-07-09T12:46:54Z</time>
      </trkpt>
      <trkpt lat="46.660678" lon="10.565448">
        <ele>905.209</ele>
        <time>2022-07-09T12:46:55Z</time>
      </trkpt>
      <trkpt lat="46.660702" lon="10.565435">
        <ele>905.284</ele>
        <time>2022-07-09T12:46:56Z</time>
      </trkpt>
      <trkpt lat="46.660727" lon="10.565413">
        <ele>905.283</ele>
        <time>2022-07-09T12:46:57Z</time>
      </trkpt>
      <trkpt lat="46.660751" lon="10.565388">
        <ele>905.251</ele>
        <time>2022-07-09T12:46:58Z</time>
      </trkpt>
      <trkpt lat="46.660774" lon="10.565363">
        <ele>905.213</ele>
        <time>2022-07-09T12:46:59Z</time>
      </trkpt>
      <trkpt lat="46.660802" lon="10.565335">
        <ele>905.289</ele>
        <time>2022-07-09T12:47:00Z</time>
      </trkpt>
      <trkpt lat="46.661234" lon="10.564942">
        <ele>905.273</ele>
        <time>2022-07-09T12:47:16Z</time>
      </trkpt>
      <trkpt lat="46.661913" lon="10.564342">
        <ele>906.164</ele>
        <time>2022-07-09T12:47:40Z</time>
      </trkpt>
      <trkpt lat="46.662440" lon="10.563874">
        <ele>907.142</ele>
        <time>2022-07-09T12:47:59Z</time>
      </trkpt>
      <trkpt lat="46.662943" lon="10.563416">
        <ele>907.656</ele>
        <time>2022-07-09T12:48:16Z</time>
      </trkpt>
      <trkpt lat="46.663540" lon="10.562885">
        <ele>907.674</ele>
        <time>2022-07-09T12:48:36Z</time>
      </trkpt>
      <trkpt lat="46.664029" lon="10.562473">
        <ele>907.656</ele>
        <time>2022-07-09T12:48:52Z</time>
      </trkpt>
      <trkpt lat="46.664648" lon="10.562003">
        <ele>909.021</ele>
        <time>2022-07-09T12:49:11Z</time>
      </trkpt>
      <trkpt lat="46.665231" lon="10.561570">
        <ele>909.009</ele>
        <time>2022-07-09T12:49:29Z</time>
      </trkpt>
      <trkpt lat="46.665770" lon="10.560972">
        <ele>909.588</ele>
        <time>2022-07-09T12:49:48Z</time>
      </trkpt>
      <trkpt lat="46.666122" lon="10.560309">
        <ele>910.097</ele>
        <time>2022-07-09T12:50:05Z</time>
      </trkpt>
      <trkpt lat="46.666467" lon="10.559637">
        <ele>910.525</ele>
        <time>2022-07-09T12:50:21Z</time>
      </trkpt>
      <trkpt lat="46.666881" lon="10.558872">
        <ele>910.957</ele>
        <time>2022-07-09T12:50:41Z</time>
      </trkpt>
      <trkpt lat="46.667145" lon="10.558336">
        <ele>911.433</ele>
        <time>2022-07-09T12:50:55Z</time>
      </trkpt>
      <trkpt lat="46.667523" lon="10.557590">
        <ele>911.987</ele>
        <time>2022-07-09T12:51:14Z</time>
      </trkpt>
      <trkpt lat="46.667885" lon="10.556858">
        <ele>912.448</ele>
        <time>2022-07-09T12:51:32Z</time>
      </trkpt>
      <trkpt lat="46.668251" lon="10.556180">
        <ele>913.336</ele>
        <time>2022-07-09T12:51:49Z</time>
      </trkpt>
      <trkpt lat="46.668679" lon="10.555398">
        <ele>913.810</ele>
        <time>2022-07-09T12:52:09Z</time>
      </trkpt>
      <trkpt lat="46.668913" lon="10.554937">
        <ele>914.324</ele>
        <time>2022-07-09T12:52:20Z</time>
      </trkpt>
      <trkpt lat="46.669295" lon="10.554276">
        <ele>914.304</ele>
        <time>2022-07-09T12:52:37Z</time>
      </trkpt>
      <trkpt lat="46.669429" lon="10.554024">
        <ele>913.314</ele>
        <time>2022-07-09T12:52:43Z</time>
      </trkpt>
      <trkpt lat="46.669686" lon="10.553615">
        <ele>914.809</ele>
        <time>2022-07-09T12:52:55Z</time>
      </trkpt>
      <trkpt lat="46.669710" lon="10.553583">
        <ele>914.873</ele>
        <time>2022-07-09T12:52:56Z</time>
      </trkpt>
      <trkpt lat="46.669945" lon="10.553185">
        <ele>914.862</ele>
        <time>2022-07-09T12:53:10Z</time>
      </trkpt>
      <trkpt lat="46.670017" lon="10.553063">
        <ele>915.780</ele>
        <time>2022-07-09T12:53:22Z</time>
      </trkpt>
      <trkpt lat="46.670023" lon="10.553057">
        <ele>915.792</ele>
        <time>2022-07-09T12:53:45Z</time>
      </trkpt>
      <trkpt lat="46.670043" lon="10.553046">
        <ele>915.768</ele>
        <time>2022-07-09T12:53:47Z</time>
      </trkpt>
      <trkpt lat="46.670055" lon="10.553039">
        <ele>915.792</ele>
        <time>2022-07-09T12:53:48Z</time>
      </trkpt>
      <trkpt lat="46.670070" lon="10.553038">
        <ele>915.743</ele>
        <time>2022-07-09T12:53:49Z</time>
      </trkpt>
      <trkpt lat="46.670088" lon="10.553042">
        <ele>915.751</ele>
        <time>2022-07-09T12:53:50Z</time>
      </trkpt>
      <trkpt lat="46.670107" lon="10.553049">
        <ele>915.735</ele>
        <time>2022-07-09T12:53:51Z</time>
      </trkpt>
      <trkpt lat="46.670167" lon="10.553046">
        <ele>914.386</ele>
        <time>2022-07-09T12:53:54Z</time>
      </trkpt>
      <trkpt lat="46.670184" lon="10.553032">
        <ele>913.860</ele>
        <time>2022-07-09T12:53:55Z</time>
      </trkpt>
      <trkpt lat="46.670211" lon="10.553016">
        <ele>913.826</ele>
        <time>2022-07-09T12:53:56Z</time>
      </trkpt>
      <trkpt lat="46.670421" lon="10.552924">
        <ele>912.409</ele>
        <time>2022-07-09T12:54:03Z</time>
      </trkpt>
      <trkpt lat="46.670436" lon="10.552910">
        <ele>912.489</ele>
        <time>2022-07-09T12:54:04Z</time>
      </trkpt>
      <trkpt lat="46.670456" lon="10.552898">
        <ele>911.998</ele>
        <time>2022-07-09T12:54:05Z</time>
      </trkpt>
      <trkpt lat="46.670474" lon="10.552890">
        <ele>911.996</ele>
        <time>2022-07-09T12:54:06Z</time>
      </trkpt>
      <trkpt lat="46.670496" lon="10.552882">
        <ele>911.978</ele>
        <time>2022-07-09T12:54:07Z</time>
      </trkpt>
      <trkpt lat="46.670537" lon="10.552857">
        <ele>911.444</ele>
        <time>2022-07-09T12:54:19Z</time>
      </trkpt>
      <trkpt lat="46.670543" lon="10.552846">
        <ele>911.488</ele>
        <time>2022-07-09T12:54:57Z</time>
      </trkpt>
      <trkpt lat="46.670525" lon="10.552836">
        <ele>911.459</ele>
        <time>2022-07-09T12:55:23Z</time>
      </trkpt>
      <trkpt lat="46.670539" lon="10.552803">
        <ele>911.467</ele>
        <time>2022-07-09T12:55:49Z</time>
      </trkpt>
      <trkpt lat="46.670552" lon="10.552847">
        <ele>911.421</ele>
        <time>2022-07-09T12:55:58Z</time>
      </trkpt>
      <trkpt lat="46.670545" lon="10.552872">
        <ele>911.443</ele>
        <time>2022-07-09T12:55:59Z</time>
      </trkpt>
      <trkpt lat="46.670524" lon="10.552879">
        <ele>911.964</ele>
        <time>2022-07-09T12:56:01Z</time>
      </trkpt>
      <trkpt lat="46.670492" lon="10.552863">
        <ele>911.910</ele>
        <time>2022-07-09T12:56:02Z</time>
      </trkpt>
      <trkpt lat="46.670340" lon="10.552889">
        <ele>913.309</ele>
        <time>2022-07-09T12:56:10Z</time>
      </trkpt>
      <trkpt lat="46.670221" lon="10.552960">
        <ele>913.895</ele>
        <time>2022-07-09T12:56:19Z</time>
      </trkpt>
      <trkpt lat="46.670209" lon="10.552972">
        <ele>913.834</ele>
        <time>2022-07-09T12:56:20Z</time>
      </trkpt>
      <trkpt lat="46.670197" lon="10.552982">
        <ele>913.822</ele>
        <time>2022-07-09T12:56:21Z</time>
      </trkpt>
      <trkpt lat="46.670180" lon="10.552989">
        <ele>914.874</ele>
        <time>2022-07-09T12:56:22Z</time>
      </trkpt>
      <trkpt lat="46.670169" lon="10.552988">
        <ele>914.880</ele>
        <time>2022-07-09T12:56:23Z</time>
      </trkpt>
      <trkpt lat="46.670153" lon="10.552984">
        <ele>915.384</ele>
        <time>2022-07-09T12:56:24Z</time>
      </trkpt>
      <trkpt lat="46.670124" lon="10.552981">
        <ele>915.785</ele>
        <time>2022-07-09T12:56:26Z</time>
      </trkpt>
      <trkpt lat="46.670095" lon="10.552966">
        <ele>915.723</ele>
        <time>2022-07-09T12:56:29Z</time>
      </trkpt>
      <trkpt lat="46.670044" lon="10.552930">
        <ele>916.727</ele>
        <time>2022-07-09T12:56:43Z</time>
      </trkpt>
      <trkpt lat="46.670041" lon="10.552931">
        <ele>915.716</ele>
        <time>2022-07-09T12:56:48Z</time>
      </trkpt>
      <trkpt lat="46.670036" lon="10.552941">
        <ele>917.276</ele>
        <time>2022-07-09T12:56:55Z</time>
      </trkpt>
      <trkpt lat="46.670025" lon="10.552949">
        <ele>915.313</ele>
        <time>2022-07-09T12:57:04Z</time>
      </trkpt>
      <trkpt lat="46.670023" lon="10.552953">
        <ele>917.209</ele>
        <time>2022-07-09T12:57:09Z</time>
      </trkpt>
      <trkpt lat="46.670008" lon="10.552997">
        <ele>917.242</ele>
        <time>2022-07-09T12:57:16Z</time>
      </trkpt>
      <trkpt lat="46.669985" lon="10.553052">
        <ele>917.291</ele>
        <time>2022-07-09T12:57:19Z</time>
      </trkpt>
      <trkpt lat="46.669919" lon="10.553026">
        <ele>917.289</ele>
        <time>2022-07-09T12:57:30Z</time>
      </trkpt>
      <trkpt lat="46.669907" lon="10.553020">
        <ele>917.251</ele>
        <time>2022-07-09T12:57:31Z</time>
      </trkpt>
      <trkpt lat="46.669848" lon="10.552978">
        <ele>917.227</ele>
        <time>2022-07-09T12:57:49Z</time>
      </trkpt>
      <trkpt lat="46.669779" lon="10.552924">
        <ele>917.291</ele>
        <time>2022-07-09T12:58:09Z</time>
      </trkpt>
      <trkpt lat="46.669665" lon="10.552677">
        <ele>918.212</ele>
        <time>2022-07-09T12:58:23Z</time>
      </trkpt>
      <trkpt lat="46.669670" lon="10.552564">
        <ele>918.680</ele>
        <time>2022-07-09T12:58:37Z</time>
      </trkpt>
      <trkpt lat="46.669672" lon="10.552551">
        <ele>917.794</ele>
        <time>2022-07-09T12:58:48Z</time>
      </trkpt>
      <trkpt lat="46.669687" lon="10.552560">
        <ele>918.677</ele>
        <time>2022-07-09T12:59:01Z</time>
      </trkpt>
      <trkpt lat="46.669686" lon="10.552563">
        <ele>917.261</ele>
        <time>2022-07-09T12:59:11Z</time>
      </trkpt>
      <trkpt lat="46.669686" lon="10.552565">
        <ele>918.227</ele>
        <time>2022-07-09T12:59:13Z</time>
      </trkpt>
      <trkpt lat="46.669689" lon="10.552566">
        <ele>919.609</ele>
        <time>2022-07-09T12:59:32Z</time>
      </trkpt>
      <trkpt lat="46.669703" lon="10.552563">
        <ele>919.638</ele>
        <time>2022-07-09T12:59:33Z</time>
      </trkpt>
      <trkpt lat="46.669723" lon="10.552550">
        <ele>919.117</ele>
        <time>2022-07-09T12:59:34Z</time>
      </trkpt>
      <trkpt lat="46.669737" lon="10.552535">
        <ele>919.175</ele>
        <time>2022-07-09T12:59:35Z</time>
      </trkpt>
      <trkpt lat="46.669750" lon="10.552512">
        <ele>919.157</ele>
        <time>2022-07-09T12:59:36Z</time>
      </trkpt>
      <trkpt lat="46.669760" lon="10.552484">
        <ele>919.133</ele>
        <time>2022-07-09T12:59:37Z</time>
      </trkpt>
      <trkpt lat="46.669769" lon="10.552454">
        <ele>919.177</ele>
        <time>2022-07-09T12:59:38Z</time>
      </trkpt>
      <trkpt lat="46.669793" lon="10.552360">
        <ele>918.218</ele>
        <time>2022-07-09T12:59:41Z</time>
      </trkpt>
      <trkpt lat="46.669885" lon="10.551792">
        <ele>918.256</ele>
        <time>2022-07-09T12:59:57Z</time>
      </trkpt>
      <trkpt lat="46.669880" lon="10.551516">
        <ele>919.640</ele>
        <time>2022-07-09T13:00:04Z</time>
      </trkpt>
      <trkpt lat="46.669836" lon="10.550828">
        <ele>920.131</ele>
        <time>2022-07-09T13:00:22Z</time>
      </trkpt>
      <trkpt lat="46.669861" lon="10.550609">
        <ele>921.561</ele>
        <time>2022-07-09T13:00:34Z</time>
      </trkpt>
      <trkpt lat="46.669891" lon="10.550152">
        <ele>923.007</ele>
        <time>2022-07-09T13:00:50Z</time>
      </trkpt>
      <trkpt lat="46.669948" lon="10.549538">
        <ele>924.909</ele>
        <time>2022-07-09T13:01:09Z</time>
      </trkpt>
      <trkpt lat="46.669942" lon="10.548824">
        <ele>926.854</ele>
        <time>2022-07-09T13:01:30Z</time>
      </trkpt>
      <trkpt lat="46.669871" lon="10.548087">
        <ele>929.283</ele>
        <time>2022-07-09T13:01:51Z</time>
      </trkpt>
      <trkpt lat="46.669789" lon="10.547360">
        <ele>931.191</ele>
        <time>2022-07-09T13:02:12Z</time>
      </trkpt>
      <trkpt lat="46.669644" lon="10.546748">
        <ele>933.193</ele>
        <time>2022-07-09T13:02:30Z</time>
      </trkpt>
      <trkpt lat="46.669454" lon="10.546295">
        <ele>935.099</ele>
        <time>2022-07-09T13:02:46Z</time>
      </trkpt>
      <trkpt lat="46.669421" lon="10.546231">
        <ele>935.943</ele>
        <time>2022-07-09T13:02:57Z</time>
      </trkpt>
      <trkpt lat="46.669448" lon="10.546236">
        <ele>935.974</ele>
        <time>2022-07-09T13:03:17Z</time>
      </trkpt>
      <trkpt lat="46.669449" lon="10.546298">
        <ele>935.942</ele>
        <time>2022-07-09T13:03:24Z</time>
      </trkpt>
      <trkpt lat="46.669486" lon="10.546366">
        <ele>934.516</ele>
        <time>2022-07-09T13:03:29Z</time>
      </trkpt>
      <trkpt lat="46.669501" lon="10.546373">
        <ele>934.532</ele>
        <time>2022-07-09T13:03:30Z</time>
      </trkpt>
      <trkpt lat="46.669530" lon="10.546334">
        <ele>934.592</ele>
        <time>2022-07-09T13:03:32Z</time>
      </trkpt>
      <trkpt lat="46.669530" lon="10.546293">
        <ele>934.511</ele>
        <time>2022-07-09T13:03:33Z</time>
      </trkpt>
      <trkpt lat="46.669526" lon="10.546266">
        <ele>934.509</ele>
        <time>2022-07-09T13:03:34Z</time>
      </trkpt>
      <trkpt lat="46.669521" lon="10.546234">
        <ele>934.534</ele>
        <time>2022-07-09T13:03:35Z</time>
      </trkpt>
      <trkpt lat="46.669454" lon="10.545561">
        <ele>934.593</ele>
        <time>2022-07-09T13:03:53Z</time>
      </trkpt>
      <trkpt lat="46.669402" lon="10.544707">
        <ele>934.511</ele>
        <time>2022-07-09T13:04:12Z</time>
      </trkpt>
      <trkpt lat="46.669386" lon="10.544350">
        <ele>935.533</ele>
        <time>2022-07-09T13:04:21Z</time>
      </trkpt>
      <trkpt lat="46.669365" lon="10.544338">
        <ele>935.559</ele>
        <time>2022-07-09T13:04:22Z</time>
      </trkpt>
      <trkpt lat="46.669342" lon="10.544329">
        <ele>935.533</ele>
        <time>2022-07-09T13:04:23Z</time>
      </trkpt>
      <trkpt lat="46.669320" lon="10.544311">
        <ele>935.554</ele>
        <time>2022-07-09T13:04:24Z</time>
      </trkpt>
      <trkpt lat="46.669301" lon="10.544292">
        <ele>935.532</ele>
        <time>2022-07-09T13:04:25Z</time>
      </trkpt>
      <trkpt lat="46.669285" lon="10.544276">
        <ele>935.566</ele>
        <time>2022-07-09T13:04:26Z</time>
      </trkpt>
      <trkpt lat="46.669114" lon="10.544197">
        <ele>937.949</ele>
        <time>2022-07-09T13:04:37Z</time>
      </trkpt>
      <trkpt lat="46.669104" lon="10.544190">
        <ele>939.302</ele>
        <time>2022-07-09T13:04:38Z</time>
      </trkpt>
      <trkpt lat="46.669088" lon="10.544169">
        <ele>939.822</ele>
        <time>2022-07-09T13:04:52Z</time>
      </trkpt>
      <trkpt lat="46.669078" lon="10.544172">
        <ele>939.809</ele>
        <time>2022-07-09T13:05:25Z</time>
      </trkpt>
      <trkpt lat="46.669091" lon="10.544177">
        <ele>938.395</ele>
        <time>2022-07-09T13:05:36Z</time>
      </trkpt>
      <trkpt lat="46.669099" lon="10.544190">
        <ele>939.864</ele>
        <time>2022-07-09T13:05:42Z</time>
      </trkpt>
      <trkpt lat="46.669106" lon="10.544191">
        <ele>939.832</ele>
        <time>2022-07-09T13:05:43Z</time>
      </trkpt>
      <trkpt lat="46.669121" lon="10.544193">
        <ele>938.874</ele>
        <time>2022-07-09T13:05:44Z</time>
      </trkpt>
      <trkpt lat="46.669140" lon="10.544197">
        <ele>938.820</ele>
        <time>2022-07-09T13:05:45Z</time>
      </trkpt>
      <trkpt lat="46.669356" lon="10.544342">
        <ele>935.554</ele>
        <time>2022-07-09T13:05:54Z</time>
      </trkpt>
      <trkpt lat="46.669377" lon="10.544339">
        <ele>935.095</ele>
        <time>2022-07-09T13:05:55Z</time>
      </trkpt>
      <trkpt lat="46.669394" lon="10.544318">
        <ele>935.023</ele>
        <time>2022-07-09T13:05:56Z</time>
      </trkpt>
      <trkpt lat="46.669401" lon="10.544296">
        <ele>935.097</ele>
        <time>2022-07-09T13:05:57Z</time>
      </trkpt>
      <trkpt lat="46.669403" lon="10.544268">
        <ele>935.093</ele>
        <time>2022-07-09T13:05:58Z</time>
      </trkpt>
      <trkpt lat="46.669405" lon="10.544236">
        <ele>935.065</ele>
        <time>2022-07-09T13:05:59Z</time>
      </trkpt>
      <trkpt lat="46.669405" lon="10.544198">
        <ele>935.021</ele>
        <time>2022-07-09T13:06:00Z</time>
      </trkpt>
      <trkpt lat="46.669394" lon="10.543771">
        <ele>935.909</ele>
        <time>2022-07-09T13:06:11Z</time>
      </trkpt>
      <trkpt lat="46.669185" lon="10.542916">
        <ele>935.930</ele>
        <time>2022-07-09T13:06:31Z</time>
      </trkpt>
      <trkpt lat="46.668956" lon="10.542005">
        <ele>935.929</ele>
        <time>2022-07-09T13:06:52Z</time>
      </trkpt>
      <trkpt lat="46.668880" lon="10.541143">
        <ele>937.437</ele>
        <time>2022-07-09T13:07:11Z</time>
      </trkpt>
      <trkpt lat="46.668653" lon="10.540385">
        <ele>937.929</ele>
        <time>2022-07-09T13:07:30Z</time>
      </trkpt>
      <trkpt lat="46.668337" lon="10.539735">
        <ele>938.895</ele>
        <time>2022-07-09T13:07:48Z</time>
      </trkpt>
      <trkpt lat="46.668019" lon="10.539036">
        <ele>939.819</ele>
        <time>2022-07-09T13:08:07Z</time>
      </trkpt>
      <trkpt lat="46.668047" lon="10.538439">
        <ele>940.340</ele>
        <time>2022-07-09T13:08:22Z</time>
      </trkpt>
      <trkpt lat="46.668232" lon="10.537763">
        <ele>940.728</ele>
        <time>2022-07-09T13:08:39Z</time>
      </trkpt>
      <trkpt lat="46.668467" lon="10.536878">
        <ele>941.732</ele>
        <time>2022-07-09T13:09:01Z</time>
      </trkpt>
      <trkpt lat="46.668566" lon="10.536083">
        <ele>941.753</ele>
        <time>2022-07-09T13:09:18Z</time>
      </trkpt>
      <trkpt lat="46.668747" lon="10.535101">
        <ele>941.704</ele>
        <time>2022-07-09T13:09:39Z</time>
      </trkpt>
      <trkpt lat="46.668890" lon="10.534087">
        <ele>943.114</ele>
        <time>2022-07-09T13:10:00Z</time>
      </trkpt>
      <trkpt lat="46.668737" lon="10.533198">
        <ele>943.609</ele>
        <time>2022-07-09T13:10:17Z</time>
      </trkpt>
      <trkpt lat="46.668567" lon="10.532227">
        <ele>943.656</ele>
        <time>2022-07-09T13:10:35Z</time>
      </trkpt>
      <trkpt lat="46.668523" lon="10.531030">
        <ele>944.135</ele>
        <time>2022-07-09T13:10:58Z</time>
      </trkpt>
      <trkpt lat="46.668424" lon="10.530073">
        <ele>944.633</ele>
        <time>2022-07-09T13:11:17Z</time>
      </trkpt>
      <trkpt lat="46.668249" lon="10.529215">
        <ele>945.165</ele>
        <time>2022-07-09T13:11:34Z</time>
      </trkpt>
      <trkpt lat="46.667982" lon="10.528278">
        <ele>946.021</ele>
        <time>2022-07-09T13:11:54Z</time>
      </trkpt>
      <trkpt lat="46.667761" lon="10.527317">
        <ele>946.575</ele>
        <time>2022-07-09T13:12:13Z</time>
      </trkpt>
      <trkpt lat="46.667616" lon="10.526315">
        <ele>947.526</ele>
        <time>2022-07-09T13:12:32Z</time>
      </trkpt>
      <trkpt lat="46.667630" lon="10.525260">
        <ele>947.554</ele>
        <time>2022-07-09T13:12:52Z</time>
      </trkpt>
      <trkpt lat="46.667782" lon="10.524488">
        <ele>948.498</ele>
        <time>2022-07-09T13:13:08Z</time>
      </trkpt>
      <trkpt lat="46.667724" lon="10.523642">
        <ele>948.913</ele>
        <time>2022-07-09T13:13:24Z</time>
      </trkpt>
      <trkpt lat="46.667667" lon="10.522453">
        <ele>948.943</ele>
        <time>2022-07-09T13:13:47Z</time>
      </trkpt>
      <trkpt lat="46.667760" lon="10.521307">
        <ele>949.907</ele>
        <time>2022-07-09T13:14:07Z</time>
      </trkpt>
      <trkpt lat="46.667839" lon="10.520292">
        <ele>951.309</ele>
        <time>2022-07-09T13:14:27Z</time>
      </trkpt>
      <trkpt lat="46.667916" lon="10.519363">
        <ele>954.762</ele>
        <time>2022-07-09T13:14:50Z</time>
      </trkpt>
      <trkpt lat="46.667994" lon="10.518571">
        <ele>956.631</ele>
        <time>2022-07-09T13:15:10Z</time>
      </trkpt>
      <trkpt lat="46.668018" lon="10.517905">
        <ele>959.589</ele>
        <time>2022-07-09T13:15:27Z</time>
      </trkpt>
      <trkpt lat="46.668019" lon="10.517865">
        <ele>959.561</ele>
        <time>2022-07-09T13:15:28Z</time>
      </trkpt>
      <trkpt lat="46.668054" lon="10.517176">
        <ele>959.537</ele>
        <time>2022-07-09T13:15:44Z</time>
      </trkpt>
      <trkpt lat="46.668138" lon="10.516345">
        <ele>960.921</ele>
        <time>2022-07-09T13:16:03Z</time>
      </trkpt>
      <trkpt lat="46.668198" lon="10.515858">
        <ele>964.322</ele>
        <time>2022-07-09T13:16:15Z</time>
      </trkpt>
      <trkpt lat="46.668176" lon="10.515005">
        <ele>965.340</ele>
        <time>2022-07-09T13:16:35Z</time>
      </trkpt>
      <trkpt lat="46.668140" lon="10.514078">
        <ele>966.754</ele>
        <time>2022-07-09T13:16:56Z</time>
      </trkpt>
      <trkpt lat="46.668102" lon="10.513139">
        <ele>968.179</ele>
        <time>2022-07-09T13:17:18Z</time>
      </trkpt>
      <trkpt lat="46.668161" lon="10.512428">
        <ele>968.605</ele>
        <time>2022-07-09T13:17:35Z</time>
      </trkpt>
      <trkpt lat="46.668238" lon="10.511811">
        <ele>969.625</ele>
        <time>2022-07-09T13:17:50Z</time>
      </trkpt>
      <trkpt lat="46.668236" lon="10.511774">
        <ele>970.109</ele>
        <time>2022-07-09T13:17:51Z</time>
      </trkpt>
      <trkpt lat="46.668230" lon="10.511737">
        <ele>970.158</ele>
        <time>2022-07-09T13:17:52Z</time>
      </trkpt>
      <trkpt lat="46.668219" lon="10.511697">
        <ele>970.197</ele>
        <time>2022-07-09T13:17:53Z</time>
      </trkpt>
      <trkpt lat="46.668215" lon="10.511673">
        <ele>970.115</ele>
        <time>2022-07-09T13:17:54Z</time>
      </trkpt>
      <trkpt lat="46.668207" lon="10.511631">
        <ele>970.177</ele>
        <time>2022-07-09T13:17:55Z</time>
      </trkpt>
      <trkpt lat="46.668201" lon="10.511598">
        <ele>970.123</ele>
        <time>2022-07-09T13:17:56Z</time>
      </trkpt>
      <trkpt lat="46.668073" lon="10.510925">
        <ele>971.027</ele>
        <time>2022-07-09T13:18:13Z</time>
      </trkpt>
      <trkpt lat="46.667885" lon="10.510218">
        <ele>972.528</ele>
        <time>2022-07-09T13:18:31Z</time>
      </trkpt>
      <trkpt lat="46.667656" lon="10.509698">
        <ele>973.966</ele>
        <time>2022-07-09T13:18:48Z</time>
      </trkpt>
      <trkpt lat="46.667405" lon="10.509132">
        <ele>977.390</ele>
        <time>2022-07-09T13:19:08Z</time>
      </trkpt>
      <trkpt lat="46.667152" lon="10.508617">
        <ele>979.798</ele>
        <time>2022-07-09T13:19:27Z</time>
      </trkpt>
      <trkpt lat="46.666915" lon="10.508117">
        <ele>980.615</ele>
        <time>2022-07-09T13:19:45Z</time>
      </trkpt>
      <trkpt lat="46.666677" lon="10.507397">
        <ele>981.126</ele>
        <time>2022-07-09T13:20:02Z</time>
      </trkpt>
      <trkpt lat="46.666440" lon="10.506663">
        <ele>981.109</ele>
        <time>2022-07-09T13:20:18Z</time>
      </trkpt>
      <trkpt lat="46.666143" lon="10.506144">
        <ele>983.020</ele>
        <time>2022-07-09T13:20:36Z</time>
      </trkpt>
      <trkpt lat="46.665864" lon="10.505834">
        <ele>984.019</ele>
        <time>2022-07-09T13:20:52Z</time>
      </trkpt>
      <trkpt lat="46.665606" lon="10.505596">
        <ele>985.917</ele>
        <time>2022-07-09T13:21:08Z</time>
      </trkpt>
      <trkpt lat="46.665364" lon="10.505329">
        <ele>987.419</ele>
        <time>2022-07-09T13:21:24Z</time>
      </trkpt>
      <trkpt lat="46.664986" lon="10.505036">
        <ele>988.355</ele>
        <time>2022-07-09T13:21:44Z</time>
      </trkpt>
      <trkpt lat="46.664662" lon="10.504883">
        <ele>991.249</ele>
        <time>2022-07-09T13:22:02Z</time>
      </trkpt>
      <trkpt lat="46.664383" lon="10.504752">
        <ele>992.730</ele>
        <time>2022-07-09T13:22:16Z</time>
      </trkpt>
      <trkpt lat="46.664095" lon="10.504594">
        <ele>992.748</ele>
        <time>2022-07-09T13:22:30Z</time>
      </trkpt>
      <trkpt lat="46.663877" lon="10.504452">
        <ele>994.172</ele>
        <time>2022-07-09T13:22:45Z</time>
      </trkpt>
      <trkpt lat="46.663879" lon="10.504487">
        <ele>995.522</ele>
        <time>2022-07-09T13:23:09Z</time>
      </trkpt>
      <trkpt lat="46.663861" lon="10.504451">
        <ele>993.662</ele>
        <time>2022-07-09T13:23:31Z</time>
      </trkpt>
      <trkpt lat="46.663864" lon="10.504441">
        <ele>993.108</ele>
        <time>2022-07-09T13:23:55Z</time>
      </trkpt>
      <trkpt lat="46.663870" lon="10.504448">
        <ele>992.709</ele>
        <time>2022-07-09T13:24:26Z</time>
      </trkpt>
      <trkpt lat="46.663886" lon="10.504467">
        <ele>994.173</ele>
        <time>2022-07-09T13:24:55Z</time>
      </trkpt>
      <trkpt lat="46.663781" lon="10.504407">
        <ele>994.132</ele>
        <time>2022-07-09T13:25:12Z</time>
      </trkpt>
      <trkpt lat="46.663485" lon="10.504157">
        <ele>994.670</ele>
        <time>2022-07-09T13:25:28Z</time>
      </trkpt>
      <trkpt lat="46.663141" lon="10.503856">
        <ele>995.142</ele>
        <time>2022-07-09T13:25:45Z</time>
      </trkpt>
      <trkpt lat="46.662806" lon="10.503679">
        <ele>996.078</ele>
        <time>2022-07-09T13:26:01Z</time>
      </trkpt>
      <trkpt lat="46.662444" lon="10.503522">
        <ele>996.562</ele>
        <time>2022-07-09T13:26:18Z</time>
      </trkpt>
      <trkpt lat="46.662098" lon="10.503271">
        <ele>997.053</ele>
        <time>2022-07-09T13:26:33Z</time>
      </trkpt>
      <trkpt lat="46.661745" lon="10.502916">
        <ele>997.061</ele>
        <time>2022-07-09T13:26:51Z</time>
      </trkpt>
      <trkpt lat="46.661495" lon="10.502444">
        <ele>997.925</ele>
        <time>2022-07-09T13:27:08Z</time>
      </trkpt>
      <trkpt lat="46.661233" lon="10.502077">
        <ele>998.998</ele>
        <time>2022-07-09T13:27:25Z</time>
      </trkpt>
      <trkpt lat="46.660964" lon="10.501775">
        <ele>1000.315</ele>
        <time>2022-07-09T13:27:41Z</time>
      </trkpt>
      <trkpt lat="46.660813" lon="10.501323">
        <ele>1001.826</ele>
        <time>2022-07-09T13:27:57Z</time>
      </trkpt>
      <trkpt lat="46.660692" lon="10.500818">
        <ele>1003.709</ele>
        <time>2022-07-09T13:28:16Z</time>
      </trkpt>
      <trkpt lat="46.660542" lon="10.500349">
        <ele>1005.210</ele>
        <time>2022-07-09T13:28:35Z</time>
      </trkpt>
      <trkpt lat="46.660351" lon="10.499895">
        <ele>1006.619</ele>
        <time>2022-07-09T13:28:54Z</time>
      </trkpt>
      <trkpt lat="46.660186" lon="10.499490">
        <ele>1009.057</ele>
        <time>2022-07-09T13:29:11Z</time>
      </trkpt>
      <trkpt lat="46.660065" lon="10.499102">
        <ele>1010.469</ele>
        <time>2022-07-09T13:29:28Z</time>
      </trkpt>
      <trkpt lat="46.659851" lon="10.498671">
        <ele>1011.945</ele>
        <time>2022-07-09T13:29:47Z</time>
      </trkpt>
      <trkpt lat="46.659643" lon="10.498342">
        <ele>1013.819</ele>
        <time>2022-07-09T13:30:04Z</time>
      </trkpt>
      <trkpt lat="46.659422" lon="10.498105">
        <ele>1015.220</ele>
        <time>2022-07-09T13:30:19Z</time>
      </trkpt>
      <trkpt lat="46.659175" lon="10.497810">
        <ele>1017.298</ele>
        <time>2022-07-09T13:30:36Z</time>
      </trkpt>
      <trkpt lat="46.658976" lon="10.497508">
        <ele>1017.272</ele>
        <time>2022-07-09T13:30:52Z</time>
      </trkpt>
      <trkpt lat="46.658703" lon="10.497189">
        <ele>1020.192</ele>
        <time>2022-07-09T13:31:12Z</time>
      </trkpt>
      <trkpt lat="46.658390" lon="10.497143">
        <ele>1022.073</ele>
        <time>2022-07-09T13:31:29Z</time>
      </trkpt>
      <trkpt lat="46.658019" lon="10.497117">
        <ele>1024.420</ele>
        <time>2022-07-09T13:31:48Z</time>
      </trkpt>
      <trkpt lat="46.657733" lon="10.497094">
        <ele>1026.309</ele>
        <time>2022-07-09T13:32:04Z</time>
      </trkpt>
      <trkpt lat="46.657478" lon="10.496846">
        <ele>1026.880</ele>
        <time>2022-07-09T13:32:20Z</time>
      </trkpt>
      <trkpt lat="46.657261" lon="10.496373">
        <ele>1027.779</ele>
        <time>2022-07-09T13:32:40Z</time>
      </trkpt>
      <trkpt lat="46.657162" lon="10.496035">
        <ele>1029.297</ele>
        <time>2022-07-09T13:32:54Z</time>
      </trkpt>
      <trkpt lat="46.657034" lon="10.495554">
        <ele>1030.199</ele>
        <time>2022-07-09T13:33:14Z</time>
      </trkpt>
      <trkpt lat="46.656894" lon="10.495104">
        <ele>1032.595</ele>
        <time>2022-07-09T13:33:33Z</time>
      </trkpt>
      <trkpt lat="46.656745" lon="10.494673">
        <ele>1034.539</ele>
        <time>2022-07-09T13:33:51Z</time>
      </trkpt>
      <trkpt lat="46.656493" lon="10.494354">
        <ele>1037.450</ele>
        <time>2022-07-09T13:34:11Z</time>
      </trkpt>
      <trkpt lat="46.656191" lon="10.494284">
        <ele>1039.338</ele>
        <time>2022-07-09T13:34:30Z</time>
      </trkpt>
      <trkpt lat="46.656073" lon="10.494244">
        <ele>1041.212</ele>
        <time>2022-07-09T13:34:38Z</time>
      </trkpt>
      <trkpt lat="46.656010" lon="10.494225">
        <ele>1040.244</ele>
        <time>2022-07-09T13:34:42Z</time>
      </trkpt>
      <trkpt lat="46.655854" lon="10.494170">
        <ele>1042.605</ele>
        <time>2022-07-09T13:34:51Z</time>
      </trkpt>
      <trkpt lat="46.655620" lon="10.494096">
        <ele>1042.615</ele>
        <time>2022-07-09T13:35:06Z</time>
      </trkpt>
      <trkpt lat="46.655371" lon="10.493910">
        <ele>1043.109</ele>
        <time>2022-07-09T13:35:23Z</time>
      </trkpt>
      <trkpt lat="46.655200" lon="10.493737">
        <ele>1044.115</ele>
        <time>2022-07-09T13:35:36Z</time>
      </trkpt>
      <trkpt lat="46.654968" lon="10.493452">
        <ele>1045.594</ele>
        <time>2022-07-09T13:35:54Z</time>
      </trkpt>
      <trkpt lat="46.654836" lon="10.493076">
        <ele>1046.012</ele>
        <time>2022-07-09T13:36:10Z</time>
      </trkpt>
      <trkpt lat="46.654745" lon="10.492556">
        <ele>1048.474</ele>
        <time>2022-07-09T13:36:30Z</time>
      </trkpt>
      <trkpt lat="46.654572" lon="10.492144">
        <ele>1049.980</ele>
        <time>2022-07-09T13:36:47Z</time>
      </trkpt>
      <trkpt lat="46.654386" lon="10.491771">
        <ele>1052.354</ele>
        <time>2022-07-09T13:37:04Z</time>
      </trkpt>
      <trkpt lat="46.654205" lon="10.491399">
        <ele>1052.785</ele>
        <time>2022-07-09T13:37:20Z</time>
      </trkpt>
      <trkpt lat="46.653984" lon="10.491245">
        <ele>1054.773</ele>
        <time>2022-07-09T13:37:33Z</time>
      </trkpt>
      <trkpt lat="46.653709" lon="10.491100">
        <ele>1055.617</ele>
        <time>2022-07-09T13:37:50Z</time>
      </trkpt>
      <trkpt lat="46.653447" lon="10.490842">
        <ele>1057.585</ele>
        <time>2022-07-09T13:38:07Z</time>
      </trkpt>
      <trkpt lat="46.653252" lon="10.490484">
        <ele>1059.589</ele>
        <time>2022-07-09T13:38:24Z</time>
      </trkpt>
      <trkpt lat="46.653040" lon="10.490018">
        <ele>1061.417</ele>
        <time>2022-07-09T13:38:45Z</time>
      </trkpt>
      <trkpt lat="46.652859" lon="10.489685">
        <ele>1062.809</ele>
        <time>2022-07-09T13:39:01Z</time>
      </trkpt>
      <trkpt lat="46.652849" lon="10.489665">
        <ele>1062.849</ele>
        <time>2022-07-09T13:39:02Z</time>
      </trkpt>
      <trkpt lat="46.652836" lon="10.489646">
        <ele>1063.378</ele>
        <time>2022-07-09T13:39:03Z</time>
      </trkpt>
      <trkpt lat="46.652825" lon="10.489625">
        <ele>1063.356</ele>
        <time>2022-07-09T13:39:04Z</time>
      </trkpt>
      <trkpt lat="46.652814" lon="10.489604">
        <ele>1063.348</ele>
        <time>2022-07-09T13:39:05Z</time>
      </trkpt>
      <trkpt lat="46.652803" lon="10.489584">
        <ele>1063.354</ele>
        <time>2022-07-09T13:39:06Z</time>
      </trkpt>
      <trkpt lat="46.652791" lon="10.489565">
        <ele>1063.398</ele>
        <time>2022-07-09T13:39:07Z</time>
      </trkpt>
      <trkpt lat="46.652598" lon="10.489114">
        <ele>1065.299</ele>
        <time>2022-07-09T13:39:27Z</time>
      </trkpt>
      <trkpt lat="46.652479" lon="10.488570">
        <ele>1066.717</ele>
        <time>2022-07-09T13:39:48Z</time>
      </trkpt>
      <trkpt lat="46.652429" lon="10.488285">
        <ele>1067.611</ele>
        <time>2022-07-09T13:40:05Z</time>
      </trkpt>
      <trkpt lat="46.652424" lon="10.488271">
        <ele>1068.685</ele>
        <time>2022-07-09T13:40:20Z</time>
      </trkpt>
      <trkpt lat="46.652399" lon="10.488303">
        <ele>1068.689</ele>
        <time>2022-07-09T13:40:50Z</time>
      </trkpt>
      <trkpt lat="46.652456" lon="10.488276">
        <ele>1068.117</ele>
        <time>2022-07-09T13:41:14Z</time>
      </trkpt>
      <trkpt lat="46.652447" lon="10.488271">
        <ele>1067.209</ele>
        <time>2022-07-09T13:41:35Z</time>
      </trkpt>
      <trkpt lat="46.652458" lon="10.488249">
        <ele>1067.289</ele>
        <time>2022-07-09T13:42:04Z</time>
      </trkpt>
      <trkpt lat="46.652456" lon="10.488278">
        <ele>1067.288</ele>
        <time>2022-07-09T13:42:25Z</time>
      </trkpt>
      <trkpt lat="46.652470" lon="10.488266">
        <ele>1067.286</ele>
        <time>2022-07-09T13:42:27Z</time>
      </trkpt>
      <trkpt lat="46.652478" lon="10.488252">
        <ele>1067.248</ele>
        <time>2022-07-09T13:42:28Z</time>
      </trkpt>
      <trkpt lat="46.652480" lon="10.488236">
        <ele>1067.274</ele>
        <time>2022-07-09T13:42:29Z</time>
      </trkpt>
      <trkpt lat="46.652483" lon="10.488212">
        <ele>1067.268</ele>
        <time>2022-07-09T13:42:30Z</time>
      </trkpt>
      <trkpt lat="46.652483" lon="10.488192">
        <ele>1067.219</ele>
        <time>2022-07-09T13:42:31Z</time>
      </trkpt>
      <trkpt lat="46.652481" lon="10.488168">
        <ele>1067.257</ele>
        <time>2022-07-09T13:42:32Z</time>
      </trkpt>
      <trkpt lat="46.652437" lon="10.487664">
        <ele>1070.081</ele>
        <time>2022-07-09T13:42:52Z</time>
      </trkpt>
      <trkpt lat="46.652349" lon="10.487267">
        <ele>1072.037</ele>
        <time>2022-07-09T13:43:10Z</time>
      </trkpt>
      <trkpt lat="46.652266" lon="10.486847">
        <ele>1074.449</ele>
        <time>2022-07-09T13:43:29Z</time>
      </trkpt>
      <trkpt lat="46.652238" lon="10.486482">
        <ele>1076.313</ele>
        <time>2022-07-09T13:43:45Z</time>
      </trkpt>
      <trkpt lat="46.652222" lon="10.486051">
        <ele>1078.209</ele>
        <time>2022-07-09T13:44:03Z</time>
      </trkpt>
      <trkpt lat="46.652212" lon="10.485508">
        <ele>1080.124</ele>
        <time>2022-07-09T13:44:25Z</time>
      </trkpt>
      <trkpt lat="46.652196" lon="10.485100">
        <ele>1083.093</ele>
        <time>2022-07-09T13:44:42Z</time>
      </trkpt>
      <trkpt lat="46.652119" lon="10.484695">
        <ele>1084.031</ele>
        <time>2022-07-09T13:44:58Z</time>
      </trkpt>
      <trkpt lat="46.651942" lon="10.484283">
        <ele>1086.473</ele>
        <time>2022-07-09T13:45:17Z</time>
      </trkpt>
      <trkpt lat="46.651727" lon="10.483859">
        <ele>1087.369</ele>
        <time>2022-07-09T13:45:38Z</time>
      </trkpt>
      <trkpt lat="46.651494" lon="10.483501">
        <ele>1089.713</ele>
        <time>2022-07-09T13:45:57Z</time>
      </trkpt>
      <trkpt lat="46.651172" lon="10.483071">
        <ele>1090.764</ele>
        <time>2022-07-09T13:46:20Z</time>
      </trkpt>
      <trkpt lat="46.650975" lon="10.482634">
        <ele>1091.742</ele>
        <time>2022-07-09T13:46:38Z</time>
      </trkpt>
      <trkpt lat="46.650804" lon="10.482280">
        <ele>1093.666</ele>
        <time>2022-07-09T13:46:54Z</time>
      </trkpt>
      <trkpt lat="46.650611" lon="10.481889">
        <ele>1094.685</ele>
        <time>2022-07-09T13:47:11Z</time>
      </trkpt>
      <trkpt lat="46.650402" lon="10.481419">
        <ele>1096.089</ele>
        <time>2022-07-09T13:47:32Z</time>
      </trkpt>
      <trkpt lat="46.650228" lon="10.480957">
        <ele>1097.417</ele>
        <time>2022-07-09T13:47:51Z</time>
      </trkpt>
      <trkpt lat="46.650045" lon="10.480563">
        <ele>1097.909</ele>
        <time>2022-07-09T13:48:06Z</time>
      </trkpt>
      <trkpt lat="46.649689" lon="10.480187">
        <ele>1098.499</ele>
        <time>2022-07-09T13:48:25Z</time>
      </trkpt>
      <trkpt lat="46.649434" lon="10.479930">
        <ele>1099.868</ele>
        <time>2022-07-09T13:48:40Z</time>
      </trkpt>
      <trkpt lat="46.649201" lon="10.479811">
        <ele>1100.836</ele>
        <time>2022-07-09T13:48:52Z</time>
      </trkpt>
      <trkpt lat="46.649161" lon="10.479763">
        <ele>1101.868</ele>
        <time>2022-07-09T13:48:55Z</time>
      </trkpt>
      <trkpt lat="46.649171" lon="10.479727">
        <ele>1102.284</ele>
        <time>2022-07-09T13:49:11Z</time>
      </trkpt>
      <trkpt lat="46.649207" lon="10.479738">
        <ele>1101.858</ele>
        <time>2022-07-09T13:49:38Z</time>
      </trkpt>
      <trkpt lat="46.649247" lon="10.479746">
        <ele>1101.849</ele>
        <time>2022-07-09T13:50:02Z</time>
      </trkpt>
      <trkpt lat="46.649262" lon="10.479746">
        <ele>1101.827</ele>
        <time>2022-07-09T13:50:24Z</time>
      </trkpt>
      <trkpt lat="46.649288" lon="10.479803">
        <ele>1101.891</ele>
        <time>2022-07-09T13:50:47Z</time>
      </trkpt>
      <trkpt lat="46.649318" lon="10.479827">
        <ele>1102.262</ele>
        <time>2022-07-09T13:51:06Z</time>
      </trkpt>
      <trkpt lat="46.649328" lon="10.479852">
        <ele>1102.783</ele>
        <time>2022-07-09T13:51:24Z</time>
      </trkpt>
      <trkpt lat="46.649253" lon="10.479772">
        <ele>1102.711</ele>
        <time>2022-07-09T13:51:48Z</time>
      </trkpt>
      <trkpt lat="46.649223" lon="10.479736">
        <ele>1102.709</ele>
        <time>2022-07-09T13:51:49Z</time>
      </trkpt>
      <trkpt lat="46.649204" lon="10.479714">
        <ele>1102.757</ele>
        <time>2022-07-09T13:51:50Z</time>
      </trkpt>
      <trkpt lat="46.649192" lon="10.479690">
        <ele>1102.776</ele>
        <time>2022-07-09T13:51:51Z</time>
      </trkpt>
      <trkpt lat="46.649165" lon="10.479669">
        <ele>1102.754</ele>
        <time>2022-07-09T13:51:52Z</time>
      </trkpt>
      <trkpt lat="46.649156" lon="10.479628">
        <ele>1102.766</ele>
        <time>2022-07-09T13:51:53Z</time>
      </trkpt>
      <trkpt lat="46.649140" lon="10.479589">
        <ele>1102.792</ele>
        <time>2022-07-09T13:51:54Z</time>
      </trkpt>
      <trkpt lat="46.649114" lon="10.479546">
        <ele>1102.726</ele>
        <time>2022-07-09T13:51:55Z</time>
      </trkpt>
      <trkpt lat="46.649102" lon="10.479501">
        <ele>1102.717</ele>
        <time>2022-07-09T13:51:56Z</time>
      </trkpt>
      <trkpt lat="46.649094" lon="10.479454">
        <ele>1102.715</ele>
        <time>2022-07-09T13:51:57Z</time>
      </trkpt>
      <trkpt lat="46.649089" lon="10.479403">
        <ele>1102.719</ele>
        <time>2022-07-09T13:51:58Z</time>
      </trkpt>
      <trkpt lat="46.649099" lon="10.479349">
        <ele>1102.213</ele>
        <time>2022-07-09T13:51:59Z</time>
      </trkpt>
      <trkpt lat="46.649117" lon="10.479302">
        <ele>1102.243</ele>
        <time>2022-07-09T13:52:00Z</time>
      </trkpt>
      <trkpt lat="46.649135" lon="10.479277">
        <ele>1102.207</ele>
        <time>2022-07-09T13:52:01Z</time>
      </trkpt>
      <trkpt lat="46.649158" lon="10.479254">
        <ele>1102.209</ele>
        <time>2022-07-09T13:52:02Z</time>
      </trkpt>
      <trkpt lat="46.649181" lon="10.479230">
        <ele>1102.272</ele>
        <time>2022-07-09T13:52:03Z</time>
      </trkpt>
      <trkpt lat="46.649195" lon="10.479205">
        <ele>1102.221</ele>
        <time>2022-07-09T13:52:04Z</time>
      </trkpt>
      <trkpt lat="46.649392" lon="10.479068">
        <ele>1102.249</ele>
        <time>2022-07-09T13:52:14Z</time>
      </trkpt>
      <trkpt lat="46.649415" lon="10.479088">
        <ele>1102.291</ele>
        <time>2022-07-09T13:52:15Z</time>
      </trkpt>
      <trkpt lat="46.649435" lon="10.479108">
        <ele>1102.297</ele>
        <time>2022-07-09T13:52:16Z</time>
      </trkpt>
      <trkpt lat="46.649462" lon="10.479131">
        <ele>1102.221</ele>
        <time>2022-07-09T13:52:17Z</time>
      </trkpt>
      <trkpt lat="46.649484" lon="10.479148">
        <ele>1102.222</ele>
        <time>2022-07-09T13:52:18Z</time>
      </trkpt>
      <trkpt lat="46.649891" lon="10.479377">
        <ele>1101.880</ele>
        <time>2022-07-09T13:52:32Z</time>
      </trkpt>
      <trkpt lat="46.650312" lon="10.479391">
        <ele>1101.854</ele>
        <time>2022-07-09T13:52:46Z</time>
      </trkpt>
      <trkpt lat="46.650545" lon="10.479312">
        <ele>1103.223</ele>
        <time>2022-07-09T13:52:58Z</time>
      </trkpt>
      <trkpt lat="46.650838" lon="10.479151">
        <ele>1105.683</ele>
        <time>2022-07-09T13:53:16Z</time>
      </trkpt>
      <trkpt lat="46.650844" lon="10.479124">
        <ele>1105.611</ele>
        <time>2022-07-09T13:53:17Z</time>
      </trkpt>
      <trkpt lat="46.650847" lon="10.479110">
        <ele>1105.609</ele>
        <time>2022-07-09T13:53:18Z</time>
      </trkpt>
      <trkpt lat="46.650852" lon="10.479089">
        <ele>1105.653</ele>
        <time>2022-07-09T13:53:19Z</time>
      </trkpt>
      <trkpt lat="46.650853" lon="10.479070">
        <ele>1105.682</ele>
        <time>2022-07-09T13:53:20Z</time>
      </trkpt>
      <trkpt lat="46.650856" lon="10.478996">
        <ele>1106.120</ele>
        <time>2022-07-09T13:53:24Z</time>
      </trkpt>
      <trkpt lat="46.650852" lon="10.478979">
        <ele>1106.122</ele>
        <time>2022-07-09T13:53:25Z</time>
      </trkpt>
      <trkpt lat="46.650814" lon="10.478891">
        <ele>1107.558</ele>
        <time>2022-07-09T13:53:30Z</time>
      </trkpt>
      <trkpt lat="46.650800" lon="10.478879">
        <ele>1107.522</ele>
        <time>2022-07-09T13:53:31Z</time>
      </trkpt>
      <trkpt lat="46.650790" lon="10.478862">
        <ele>1107.543</ele>
        <time>2022-07-09T13:53:32Z</time>
      </trkpt>
      <trkpt lat="46.650779" lon="10.478851">
        <ele>1108.011</ele>
        <time>2022-07-09T13:53:33Z</time>
      </trkpt>
      <trkpt lat="46.650768" lon="10.478841">
        <ele>1108.055</ele>
        <time>2022-07-09T13:53:34Z</time>
      </trkpt>
      <trkpt lat="46.650755" lon="10.478832">
        <ele>1108.076</ele>
        <time>2022-07-09T13:53:35Z</time>
      </trkpt>
      <trkpt lat="46.650741" lon="10.478823">
        <ele>1109.090</ele>
        <time>2022-07-09T13:53:36Z</time>
      </trkpt>
      <trkpt lat="46.650543" lon="10.478716">
        <ele>1110.419</ele>
        <time>2022-07-09T13:53:51Z</time>
      </trkpt>
      <trkpt lat="46.650271" lon="10.478635">
        <ele>1112.809</ele>
        <time>2022-07-09T13:54:09Z</time>
      </trkpt>
      <trkpt lat="46.650074" lon="10.478615">
        <ele>1113.828</ele>
        <time>2022-07-09T13:54:22Z</time>
      </trkpt>
      <trkpt lat="46.649814" lon="10.478472">
        <ele>1116.777</ele>
        <time>2022-07-09T13:54:40Z</time>
      </trkpt>
      <trkpt lat="46.649749" lon="10.478401">
        <ele>1117.175</ele>
        <time>2022-07-09T13:54:45Z</time>
      </trkpt>
      <trkpt lat="46.649737" lon="10.478380">
        <ele>1117.117</ele>
        <time>2022-07-09T13:54:46Z</time>
      </trkpt>
      <trkpt lat="46.649730" lon="10.478366">
        <ele>1117.123</ele>
        <time>2022-07-09T13:54:47Z</time>
      </trkpt>
      <trkpt lat="46.649721" lon="10.478348">
        <ele>1117.137</ele>
        <time>2022-07-09T13:54:48Z</time>
      </trkpt>
      <trkpt lat="46.649709" lon="10.478336">
        <ele>1117.128</ele>
        <time>2022-07-09T13:54:49Z</time>
      </trkpt>
      <trkpt lat="46.649698" lon="10.478322">
        <ele>1117.166</ele>
        <time>2022-07-09T13:54:50Z</time>
      </trkpt>
      <trkpt lat="46.649692" lon="10.478311">
        <ele>1117.660</ele>
        <time>2022-07-09T13:54:51Z</time>
      </trkpt>
      <trkpt lat="46.649692" lon="10.478297">
        <ele>1117.623</ele>
        <time>2022-07-09T13:54:52Z</time>
      </trkpt>
      <trkpt lat="46.649695" lon="10.478279">
        <ele>1117.683</ele>
        <time>2022-07-09T13:54:53Z</time>
      </trkpt>
      <trkpt lat="46.649694" lon="10.478261">
        <ele>1118.111</ele>
        <time>2022-07-09T13:54:54Z</time>
      </trkpt>
      <trkpt lat="46.649698" lon="10.478246">
        <ele>1118.109</ele>
        <time>2022-07-09T13:54:55Z</time>
      </trkpt>
      <trkpt lat="46.649701" lon="10.478228">
        <ele>1118.183</ele>
        <time>2022-07-09T13:54:56Z</time>
      </trkpt>
      <trkpt lat="46.649703" lon="10.478213">
        <ele>1118.172</ele>
        <time>2022-07-09T13:54:57Z</time>
      </trkpt>
      <trkpt lat="46.649706" lon="10.478199">
        <ele>1118.180</ele>
        <time>2022-07-09T13:54:58Z</time>
      </trkpt>
      <trkpt lat="46.649745" lon="10.477954">
        <ele>1120.012</ele>
        <time>2022-07-09T13:55:13Z</time>
      </trkpt>
      <trkpt lat="46.649741" lon="10.477940">
        <ele>1120.098</ele>
        <time>2022-07-09T13:55:14Z</time>
      </trkpt>
      <trkpt lat="46.649731" lon="10.477920">
        <ele>1120.082</ele>
        <time>2022-07-09T13:55:15Z</time>
      </trkpt>
      <trkpt lat="46.649724" lon="10.477910">
        <ele>1120.083</ele>
        <time>2022-07-09T13:55:16Z</time>
      </trkpt>
      <trkpt lat="46.649712" lon="10.477900">
        <ele>1120.071</ele>
        <time>2022-07-09T13:55:17Z</time>
      </trkpt>
      <trkpt lat="46.649700" lon="10.477890">
        <ele>1120.025</ele>
        <time>2022-07-09T13:55:18Z</time>
      </trkpt>
      <trkpt lat="46.649692" lon="10.477880">
        <ele>1120.077</ele>
        <time>2022-07-09T13:55:19Z</time>
      </trkpt>
      <trkpt lat="46.649681" lon="10.477867">
        <ele>1120.561</ele>
        <time>2022-07-09T13:55:20Z</time>
      </trkpt>
      <trkpt lat="46.649671" lon="10.477858">
        <ele>1120.527</ele>
        <time>2022-07-09T13:55:21Z</time>
      </trkpt>
      <trkpt lat="46.649661" lon="10.477847">
        <ele>1120.509</ele>
        <time>2022-07-09T13:55:22Z</time>
      </trkpt>
      <trkpt lat="46.649653" lon="10.477833">
        <ele>1120.598</ele>
        <time>2022-07-09T13:55:23Z</time>
      </trkpt>
      <trkpt lat="46.649645" lon="10.477819">
        <ele>1120.537</ele>
        <time>2022-07-09T13:55:24Z</time>
      </trkpt>
      <trkpt lat="46.649635" lon="10.477809">
        <ele>1120.585</ele>
        <time>2022-07-09T13:55:25Z</time>
      </trkpt>
      <trkpt lat="46.649624" lon="10.477800">
        <ele>1120.527</ele>
        <time>2022-07-09T13:55:26Z</time>
      </trkpt>
      <trkpt lat="46.649472" lon="10.477645">
        <ele>1122.053</ele>
        <time>2022-07-09T13:55:41Z</time>
      </trkpt>
      <trkpt lat="46.649251" lon="10.477425">
        <ele>1122.097</ele>
        <time>2022-07-09T13:56:00Z</time>
      </trkpt>
      <trkpt lat="46.649064" lon="10.477219">
        <ele>1123.958</ele>
        <time>2022-07-09T13:56:18Z</time>
      </trkpt>
      <trkpt lat="46.649056" lon="10.477206">
        <ele>1123.956</ele>
        <time>2022-07-09T13:56:19Z</time>
      </trkpt>
      <trkpt lat="46.648869" lon="10.476994">
        <ele>1125.390</ele>
        <time>2022-07-09T13:56:38Z</time>
      </trkpt>
      <trkpt lat="46.648836" lon="10.476938">
        <ele>1126.317</ele>
        <time>2022-07-09T13:56:42Z</time>
      </trkpt>
      <trkpt lat="46.648824" lon="10.476929">
        <ele>1126.387</ele>
        <time>2022-07-09T13:56:43Z</time>
      </trkpt>
      <trkpt lat="46.648815" lon="10.476917">
        <ele>1126.815</ele>
        <time>2022-07-09T13:56:44Z</time>
      </trkpt>
      <trkpt lat="46.648680" lon="10.476715">
        <ele>1128.209</ele>
        <time>2022-07-09T13:57:00Z</time>
      </trkpt>
      <trkpt lat="46.648478" lon="10.476511">
        <ele>1130.112</ele>
        <time>2022-07-09T13:57:20Z</time>
      </trkpt>
      <trkpt lat="46.648432" lon="10.476490">
        <ele>1130.161</ele>
        <time>2022-07-09T13:57:24Z</time>
      </trkpt>
      <trkpt lat="46.648423" lon="10.476479">
        <ele>1130.179</ele>
        <time>2022-07-09T13:57:25Z</time>
      </trkpt>
      <trkpt lat="46.648416" lon="10.476467">
        <ele>1130.641</ele>
        <time>2022-07-09T13:57:26Z</time>
      </trkpt>
      <trkpt lat="46.648406" lon="10.476454">
        <ele>1130.657</ele>
        <time>2022-07-09T13:57:27Z</time>
      </trkpt>
      <trkpt lat="46.648396" lon="10.476440">
        <ele>1130.631</ele>
        <time>2022-07-09T13:57:28Z</time>
      </trkpt>
      <trkpt lat="46.648386" lon="10.476428">
        <ele>1130.632</ele>
        <time>2022-07-09T13:57:29Z</time>
      </trkpt>
      <trkpt lat="46.648160" lon="10.476274">
        <ele>1133.080</ele>
        <time>2022-07-09T13:57:49Z</time>
      </trkpt>
      <trkpt lat="46.647954" lon="10.476157">
        <ele>1135.424</ele>
        <time>2022-07-09T13:58:07Z</time>
      </trkpt>
      <trkpt lat="46.647754" lon="10.475927">
        <ele>1137.839</ele>
        <time>2022-07-09T13:58:26Z</time>
      </trkpt>
      <trkpt lat="46.647580" lon="10.475698">
        <ele>1140.201</ele>
        <time>2022-07-09T13:58:43Z</time>
      </trkpt>
      <trkpt lat="46.647398" lon="10.475432">
        <ele>1140.221</ele>
        <time>2022-07-09T13:58:58Z</time>
      </trkpt>
      <trkpt lat="46.647231" lon="10.475183">
        <ele>1141.209</ele>
        <time>2022-07-09T13:59:14Z</time>
      </trkpt>
      <trkpt lat="46.647057" lon="10.474867">
        <ele>1143.184</ele>
        <time>2022-07-09T13:59:33Z</time>
      </trkpt>
      <trkpt lat="46.646844" lon="10.474580">
        <ele>1145.063</ele>
        <time>2022-07-09T13:59:52Z</time>
      </trkpt>
      <trkpt lat="46.646668" lon="10.474311">
        <ele>1146.911</ele>
        <time>2022-07-09T14:00:09Z</time>
      </trkpt>
      <trkpt lat="46.646457" lon="10.474031">
        <ele>1147.983</ele>
        <time>2022-07-09T14:00:28Z</time>
      </trkpt>
      <trkpt lat="46.646300" lon="10.473826">
        <ele>1149.379</ele>
        <time>2022-07-09T14:00:42Z</time>
      </trkpt>
      <trkpt lat="46.646126" lon="10.473541">
        <ele>1151.843</ele>
        <time>2022-07-09T14:01:00Z</time>
      </trkpt>
      <trkpt lat="46.645983" lon="10.473243">
        <ele>1153.734</ele>
        <time>2022-07-09T14:01:20Z</time>
      </trkpt>
      <trkpt lat="46.645851" lon="10.472961">
        <ele>1155.662</ele>
        <time>2022-07-09T14:01:39Z</time>
      </trkpt>
      <trkpt lat="46.645774" lon="10.472721">
        <ele>1157.516</ele>
        <time>2022-07-09T14:01:54Z</time>
      </trkpt>
      <trkpt lat="46.645770" lon="10.472704">
        <ele>1157.578</ele>
        <time>2022-07-09T14:01:55Z</time>
      </trkpt>
      <trkpt lat="46.645673" lon="10.472421">
        <ele>1159.433</ele>
        <time>2022-07-09T14:02:13Z</time>
      </trkpt>
      <trkpt lat="46.645526" lon="10.472119">
        <ele>1161.826</ele>
        <time>2022-07-09T14:02:34Z</time>
      </trkpt>
      <trkpt lat="46.645360" lon="10.471837">
        <ele>1164.709</ele>
        <time>2022-07-09T14:02:55Z</time>
      </trkpt>
      <trkpt lat="46.645241" lon="10.471575">
        <ele>1167.628</ele>
        <time>2022-07-09T14:03:15Z</time>
      </trkpt>
      <trkpt lat="46.645174" lon="10.471365">
        <ele>1169.187</ele>
        <time>2022-07-09T14:03:29Z</time>
      </trkpt>
      <trkpt lat="46.645164" lon="10.471351">
        <ele>1169.165</ele>
        <time>2022-07-09T14:03:30Z</time>
      </trkpt>
      <trkpt lat="46.645155" lon="10.471333">
        <ele>1169.577</ele>
        <time>2022-07-09T14:03:31Z</time>
      </trkpt>
      <trkpt lat="46.645148" lon="10.471310">
        <ele>1169.593</ele>
        <time>2022-07-09T14:03:32Z</time>
      </trkpt>
      <trkpt lat="46.645142" lon="10.471285">
        <ele>1169.557</ele>
        <time>2022-07-09T14:03:33Z</time>
      </trkpt>
      <trkpt lat="46.645139" lon="10.471263">
        <ele>1169.528</ele>
        <time>2022-07-09T14:03:34Z</time>
      </trkpt>
      <trkpt lat="46.645118" lon="10.471162">
        <ele>1170.536</ele>
        <time>2022-07-09T14:03:40Z</time>
      </trkpt>
      <trkpt lat="46.645113" lon="10.471151">
        <ele>1170.570</ele>
        <time>2022-07-09T14:03:41Z</time>
      </trkpt>
      <trkpt lat="46.645108" lon="10.471138">
        <ele>1170.518</ele>
        <time>2022-07-09T14:03:42Z</time>
      </trkpt>
      <trkpt lat="46.645102" lon="10.471123">
        <ele>1170.598</ele>
        <time>2022-07-09T14:03:43Z</time>
      </trkpt>
      <trkpt lat="46.645099" lon="10.471110">
        <ele>1170.517</ele>
        <time>2022-07-09T14:03:44Z</time>
      </trkpt>
      <trkpt lat="46.645096" lon="10.471095">
        <ele>1170.509</ele>
        <time>2022-07-09T14:03:45Z</time>
      </trkpt>
      <trkpt lat="46.645091" lon="10.471080">
        <ele>1170.542</ele>
        <time>2022-07-09T14:03:46Z</time>
      </trkpt>
      <trkpt lat="46.645084" lon="10.471065">
        <ele>1171.551</ele>
        <time>2022-07-09T14:03:47Z</time>
      </trkpt>
      <trkpt lat="46.645076" lon="10.471049">
        <ele>1171.589</ele>
        <time>2022-07-09T14:03:48Z</time>
      </trkpt>
      <trkpt lat="46.645070" lon="10.471035">
        <ele>1171.511</ele>
        <time>2022-07-09T14:03:49Z</time>
      </trkpt>
      <trkpt lat="46.645065" lon="10.471018">
        <ele>1171.597</ele>
        <time>2022-07-09T14:03:50Z</time>
      </trkpt>
      <trkpt lat="46.645058" lon="10.471003">
        <ele>1171.561</ele>
        <time>2022-07-09T14:03:51Z</time>
      </trkpt>
      <trkpt lat="46.645046" lon="10.470948">
        <ele>1171.912</ele>
        <time>2022-07-09T14:03:55Z</time>
      </trkpt>
      <trkpt lat="46.645040" lon="10.470934">
        <ele>1171.950</ele>
        <time>2022-07-09T14:03:56Z</time>
      </trkpt>
      <trkpt lat="46.644983" lon="10.470655">
        <ele>1174.364</ele>
        <time>2022-07-09T14:04:13Z</time>
      </trkpt>
      <trkpt lat="46.644932" lon="10.470521">
        <ele>1174.893</ele>
        <time>2022-07-09T14:04:22Z</time>
      </trkpt>
      <trkpt lat="46.644844" lon="10.470265">
        <ele>1177.265</ele>
        <time>2022-07-09T14:04:40Z</time>
      </trkpt>
      <trkpt lat="46.644731" lon="10.470047">
        <ele>1178.721</ele>
        <time>2022-07-09T14:04:56Z</time>
      </trkpt>
      <trkpt lat="46.644613" lon="10.469849">
        <ele>1181.109</ele>
        <time>2022-07-09T14:05:13Z</time>
      </trkpt>
      <trkpt lat="46.644542" lon="10.469601">
        <ele>1183.540</ele>
        <time>2022-07-09T14:05:30Z</time>
      </trkpt>
      <trkpt lat="46.644456" lon="10.469285">
        <ele>1185.499</ele>
        <time>2022-07-09T14:05:50Z</time>
      </trkpt>
      <trkpt lat="46.644432" lon="10.469170">
        <ele>1186.897</ele>
        <time>2022-07-09T14:05:58Z</time>
      </trkpt>
      <trkpt lat="46.644437" lon="10.469137">
        <ele>1187.349</ele>
        <time>2022-07-09T14:06:00Z</time>
      </trkpt>
      <trkpt lat="46.644436" lon="10.469122">
        <ele>1187.325</ele>
        <time>2022-07-09T14:06:01Z</time>
      </trkpt>
      <trkpt lat="46.644431" lon="10.469107">
        <ele>1187.849</ele>
        <time>2022-07-09T14:06:02Z</time>
      </trkpt>
      <trkpt lat="46.644427" lon="10.469095">
        <ele>1187.840</ele>
        <time>2022-07-09T14:06:03Z</time>
      </trkpt>
      <trkpt lat="46.644422" lon="10.469079">
        <ele>1187.878</ele>
        <time>2022-07-09T14:06:04Z</time>
      </trkpt>
      <trkpt lat="46.644415" lon="10.469064">
        <ele>1187.862</ele>
        <time>2022-07-09T14:06:05Z</time>
      </trkpt>
      <trkpt lat="46.644327" lon="10.468760">
        <ele>1189.731</ele>
        <time>2022-07-09T14:06:24Z</time>
      </trkpt>
      <trkpt lat="46.644318" lon="10.468723">
        <ele>1190.261</ele>
        <time>2022-07-09T14:06:40Z</time>
      </trkpt>
      <trkpt lat="46.644327" lon="10.468738">
        <ele>1191.207</ele>
        <time>2022-07-09T14:07:03Z</time>
      </trkpt>
      <trkpt lat="46.644320" lon="10.468724">
        <ele>1186.809</ele>
        <time>2022-07-09T14:07:27Z</time>
      </trkpt>
      <trkpt lat="46.644319" lon="10.468723">
        <ele>1191.664</ele>
        <time>2022-07-09T14:07:28Z</time>
      </trkpt>
      <trkpt lat="46.644283" lon="10.468581">
        <ele>1191.663</ele>
        <time>2022-07-09T14:12:24Z</time>
      </trkpt>
      <trkpt lat="46.644273" lon="10.468489">
        <ele>1193.191</ele>
        <time>2022-07-09T14:12:29Z</time>
      </trkpt>
      <trkpt lat="46.644254" lon="10.468444">
        <ele>1193.613</ele>
        <time>2022-07-09T14:12:41Z</time>
      </trkpt>
      <trkpt lat="46.644264" lon="10.468382">
        <ele>1194.099</ele>
        <time>2022-07-09T14:13:22Z</time>
      </trkpt>
      <trkpt lat="46.644201" lon="10.468099">
        <ele>1196.543</ele>
        <time>2022-07-09T14:13:44Z</time>
      </trkpt>
      <trkpt lat="46.644215" lon="10.468101">
        <ele>1196.984</ele>
        <time>2022-07-09T14:13:59Z</time>
      </trkpt>
      <trkpt lat="46.644175" lon="10.468047">
        <ele>1197.422</ele>
        <time>2022-07-09T14:14:14Z</time>
      </trkpt>
      <trkpt lat="46.644098" lon="10.467908">
        <ele>1198.476</ele>
        <time>2022-07-09T14:14:29Z</time>
      </trkpt>
      <trkpt lat="46.644092" lon="10.467900">
        <ele>1196.975</ele>
        <time>2022-07-09T14:15:03Z</time>
      </trkpt>
      <trkpt lat="46.644092" lon="10.467902">
        <ele>1197.928</ele>
        <time>2022-07-09T14:15:26Z</time>
      </trkpt>
      <trkpt lat="46.644080" lon="10.467865">
        <ele>1197.920</ele>
        <time>2022-07-09T14:15:47Z</time>
      </trkpt>
      <trkpt lat="46.644066" lon="10.467835">
        <ele>1197.909</ele>
        <time>2022-07-09T14:15:49Z</time>
      </trkpt>
      <trkpt lat="46.644060" lon="10.467827">
        <ele>1197.968</ele>
        <time>2022-07-09T14:15:50Z</time>
      </trkpt>
      <trkpt lat="46.644051" lon="10.467815">
        <ele>1197.917</ele>
        <time>2022-07-09T14:15:51Z</time>
      </trkpt>
      <trkpt lat="46.644042" lon="10.467808">
        <ele>1197.965</ele>
        <time>2022-07-09T14:15:52Z</time>
      </trkpt>
      <trkpt lat="46.644031" lon="10.467800">
        <ele>1197.917</ele>
        <time>2022-07-09T14:15:53Z</time>
      </trkpt>
      <trkpt lat="46.644020" lon="10.467792">
        <ele>1198.473</ele>
        <time>2022-07-09T14:15:54Z</time>
      </trkpt>
      <trkpt lat="46.644009" lon="10.467783">
        <ele>1198.447</ele>
        <time>2022-07-09T14:15:55Z</time>
      </trkpt>
      <trkpt lat="46.644000" lon="10.467769">
        <ele>1199.358</ele>
        <time>2022-07-09T14:15:56Z</time>
      </trkpt>
      <trkpt lat="46.643992" lon="10.467755">
        <ele>1199.326</ele>
        <time>2022-07-09T14:15:57Z</time>
      </trkpt>
      <trkpt lat="46.643983" lon="10.467740">
        <ele>1199.370</ele>
        <time>2022-07-09T14:15:58Z</time>
      </trkpt>
      <trkpt lat="46.643827" lon="10.467498">
        <ele>1201.767</ele>
        <time>2022-07-09T14:16:16Z</time>
      </trkpt>
      <trkpt lat="46.643683" lon="10.467256">
        <ele>1205.181</ele>
        <time>2022-07-09T14:16:34Z</time>
      </trkpt>
      <trkpt lat="46.643445" lon="10.466887">
        <ele>1209.919</ele>
        <time>2022-07-09T14:23:10Z</time>
      </trkpt>
      <trkpt lat="46.643357" lon="10.466710">
        <ele>1209.909</ele>
        <time>2022-07-09T14:23:21Z</time>
      </trkpt>
      <trkpt lat="46.643196" lon="10.466403">
        <ele>1211.827</ele>
        <time>2022-07-09T14:23:39Z</time>
      </trkpt>
      <trkpt lat="46.643105" lon="10.466159">
        <ele>1213.826</ele>
        <time>2022-07-09T14:23:54Z</time>
      </trkpt>
      <trkpt lat="46.643064" lon="10.466042">
        <ele>1215.724</ele>
        <time>2022-07-09T14:24:03Z</time>
      </trkpt>
      <trkpt lat="46.643062" lon="10.466027">
        <ele>1215.786</ele>
        <time>2022-07-09T14:24:04Z</time>
      </trkpt>
      <trkpt lat="46.643057" lon="10.466012">
        <ele>1215.772</ele>
        <time>2022-07-09T14:24:05Z</time>
      </trkpt>
      <trkpt lat="46.643050" lon="10.465997">
        <ele>1215.746</ele>
        <time>2022-07-09T14:24:06Z</time>
      </trkpt>
      <trkpt lat="46.642998" lon="10.465826">
        <ele>1216.627</ele>
        <time>2022-07-09T14:24:17Z</time>
      </trkpt>
      <trkpt lat="46.642991" lon="10.465811">
        <ele>1216.685</ele>
        <time>2022-07-09T14:24:18Z</time>
      </trkpt>
      <trkpt lat="46.642985" lon="10.465796">
        <ele>1216.669</ele>
        <time>2022-07-09T14:24:19Z</time>
      </trkpt>
      <trkpt lat="46.642981" lon="10.465780">
        <ele>1217.191</ele>
        <time>2022-07-09T14:24:20Z</time>
      </trkpt>
      <trkpt lat="46.642974" lon="10.465765">
        <ele>1217.181</ele>
        <time>2022-07-09T14:24:21Z</time>
      </trkpt>
      <trkpt lat="46.642967" lon="10.465751">
        <ele>1217.119</ele>
        <time>2022-07-09T14:24:22Z</time>
      </trkpt>
      <trkpt lat="46.642966" lon="10.465737">
        <ele>1217.109</ele>
        <time>2022-07-09T14:24:23Z</time>
      </trkpt>
      <trkpt lat="46.642964" lon="10.465719">
        <ele>1217.120</ele>
        <time>2022-07-09T14:24:24Z</time>
      </trkpt>
      <trkpt lat="46.642956" lon="10.465704">
        <ele>1217.689</ele>
        <time>2022-07-09T14:24:25Z</time>
      </trkpt>
      <trkpt lat="46.642949" lon="10.465694">
        <ele>1217.667</ele>
        <time>2022-07-09T14:24:26Z</time>
      </trkpt>
      <trkpt lat="46.642941" lon="10.465680">
        <ele>1217.679</ele>
        <time>2022-07-09T14:24:27Z</time>
      </trkpt>
      <trkpt lat="46.642933" lon="10.465665">
        <ele>1217.675</ele>
        <time>2022-07-09T14:24:28Z</time>
      </trkpt>
      <trkpt lat="46.642925" lon="10.465648">
        <ele>1218.179</ele>
        <time>2022-07-09T14:24:29Z</time>
      </trkpt>
      <trkpt lat="46.642920" lon="10.465636">
        <ele>1218.190</ele>
        <time>2022-07-09T14:24:30Z</time>
      </trkpt>
      <trkpt lat="46.642783" lon="10.465453">
        <ele>1219.548</ele>
        <time>2022-07-09T14:24:46Z</time>
      </trkpt>
      <trkpt lat="46.642589" lon="10.465362">
        <ele>1221.032</ele>
        <time>2022-07-09T14:25:02Z</time>
      </trkpt>
      <trkpt lat="46.642576" lon="10.465346">
        <ele>1221.927</ele>
        <time>2022-07-09T14:25:03Z</time>
      </trkpt>
      <trkpt lat="46.642437" lon="10.465123">
        <ele>1222.968</ele>
        <time>2022-07-09T14:25:19Z</time>
      </trkpt>
      <trkpt lat="46.642326" lon="10.464849">
        <ele>1224.814</ele>
        <time>2022-07-09T14:25:36Z</time>
      </trkpt>
      <trkpt lat="46.642237" lon="10.464576">
        <ele>1226.709</ele>
        <time>2022-07-09T14:25:53Z</time>
      </trkpt>
      <trkpt lat="46.642240" lon="10.464484">
        <ele>1227.753</ele>
        <time>2022-07-09T14:25:59Z</time>
      </trkpt>
      <trkpt lat="46.642235" lon="10.464468">
        <ele>1227.762</ele>
        <time>2022-07-09T14:26:00Z</time>
      </trkpt>
      <trkpt lat="46.642182" lon="10.464186">
        <ele>1228.760</ele>
        <time>2022-07-09T14:26:16Z</time>
      </trkpt>
      <trkpt lat="46.642169" lon="10.464108">
        <ele>1229.632</ele>
        <time>2022-07-09T14:26:21Z</time>
      </trkpt>
      <trkpt lat="46.642163" lon="10.464094">
        <ele>1229.668</ele>
        <time>2022-07-09T14:26:22Z</time>
      </trkpt>
      <trkpt lat="46.642067" lon="10.463849">
        <ele>1232.092</ele>
        <time>2022-07-09T14:26:38Z</time>
      </trkpt>
      <trkpt lat="46.642068" lon="10.463833">
        <ele>1232.033</ele>
        <time>2022-07-09T14:26:39Z</time>
      </trkpt>
      <trkpt lat="46.642066" lon="10.463777">
        <ele>1233.091</ele>
        <time>2022-07-09T14:26:43Z</time>
      </trkpt>
      <trkpt lat="46.642069" lon="10.463761">
        <ele>1233.035</ele>
        <time>2022-07-09T14:26:44Z</time>
      </trkpt>
      <trkpt lat="46.642078" lon="10.463665">
        <ele>1233.968</ele>
        <time>2022-07-09T14:26:50Z</time>
      </trkpt>
      <trkpt lat="46.642080" lon="10.463648">
        <ele>1234.442</ele>
        <time>2022-07-09T14:26:51Z</time>
      </trkpt>
      <trkpt lat="46.642082" lon="10.463631">
        <ele>1234.426</ele>
        <time>2022-07-09T14:26:52Z</time>
      </trkpt>
      <trkpt lat="46.642085" lon="10.463613">
        <ele>1234.409</ele>
        <time>2022-07-09T14:26:53Z</time>
      </trkpt>
      <trkpt lat="46.642091" lon="10.463601">
        <ele>1234.987</ele>
        <time>2022-07-09T14:26:54Z</time>
      </trkpt>
      <trkpt lat="46.642098" lon="10.463587">
        <ele>1235.456</ele>
        <time>2022-07-09T14:26:55Z</time>
      </trkpt>
      <trkpt lat="46.642103" lon="10.463571">
        <ele>1235.424</ele>
        <time>2022-07-09T14:26:56Z</time>
      </trkpt>
      <trkpt lat="46.642127" lon="10.463485">
        <ele>1236.396</ele>
        <time>2022-07-09T14:27:02Z</time>
      </trkpt>
      <trkpt lat="46.642129" lon="10.463469">
        <ele>1236.862</ele>
        <time>2022-07-09T14:27:03Z</time>
      </trkpt>
      <trkpt lat="46.642136" lon="10.463422">
        <ele>1236.816</ele>
        <time>2022-07-09T14:27:06Z</time>
      </trkpt>
      <trkpt lat="46.642141" lon="10.463406">
        <ele>1236.887</ele>
        <time>2022-07-09T14:27:07Z</time>
      </trkpt>
      <trkpt lat="46.642195" lon="10.463113">
        <ele>1238.325</ele>
        <time>2022-07-09T14:27:25Z</time>
      </trkpt>
      <trkpt lat="46.642221" lon="10.462969">
        <ele>1239.239</ele>
        <time>2022-07-09T14:27:34Z</time>
      </trkpt>
      <trkpt lat="46.642224" lon="10.462952">
        <ele>1239.254</ele>
        <time>2022-07-09T14:27:35Z</time>
      </trkpt>
      <trkpt lat="46.642228" lon="10.462936">
        <ele>1239.256</ele>
        <time>2022-07-09T14:27:36Z</time>
      </trkpt>
      <trkpt lat="46.642232" lon="10.462919">
        <ele>1240.211</ele>
        <time>2022-07-09T14:27:37Z</time>
      </trkpt>
      <trkpt lat="46.642236" lon="10.462903">
        <ele>1240.709</ele>
        <time>2022-07-09T14:27:38Z</time>
      </trkpt>
      <trkpt lat="46.642241" lon="10.462890">
        <ele>1241.236</ele>
        <time>2022-07-09T14:27:39Z</time>
      </trkpt>
      <trkpt lat="46.642245" lon="10.462873">
        <ele>1241.215</ele>
        <time>2022-07-09T14:27:40Z</time>
      </trkpt>
      <trkpt lat="46.642247" lon="10.462856">
        <ele>1241.683</ele>
        <time>2022-07-09T14:27:41Z</time>
      </trkpt>
      <trkpt lat="46.642251" lon="10.462841">
        <ele>1241.665</ele>
        <time>2022-07-09T14:27:42Z</time>
      </trkpt>
      <trkpt lat="46.642204" lon="10.462708">
        <ele>1248.831</ele>
        <time>2022-07-10T05:24:33Z</time>
      </trkpt>
      <trkpt lat="46.642175" lon="10.462745">
        <ele>1248.485</ele>
        <time>2022-07-10T05:24:35Z</time>
      </trkpt>
      <trkpt lat="46.642141" lon="10.462758">
        <ele>1248.456</ele>
        <time>2022-07-10T05:24:36Z</time>
      </trkpt>
      <trkpt lat="46.642095" lon="10.462760">
        <ele>1247.914</ele>
        <time>2022-07-10T05:24:37Z</time>
      </trkpt>
      <trkpt lat="46.641516" lon="10.462804">
        <ele>1246.948</ele>
        <time>2022-07-10T05:24:51Z</time>
      </trkpt>
      <trkpt lat="46.640685" lon="10.462556">
        <ele>1246.019</ele>
        <time>2022-07-10T05:25:09Z</time>
      </trkpt>
      <trkpt lat="46.639710" lon="10.462076">
        <ele>1244.509</ele>
        <time>2022-07-10T05:25:31Z</time>
      </trkpt>
      <trkpt lat="46.639003" lon="10.461595">
        <ele>1244.519</ele>
        <time>2022-07-10T05:25:52Z</time>
      </trkpt>
      <trkpt lat="46.638885" lon="10.461515">
        <ele>1246.009</ele>
        <time>2022-07-10T05:25:57Z</time>
      </trkpt>
      <trkpt lat="46.638537" lon="10.461260">
        <ele>1246.422</ele>
        <time>2022-07-10T05:26:12Z</time>
      </trkpt>
      <trkpt lat="46.637936" lon="10.460984">
        <ele>1246.961</ele>
        <time>2022-07-10T05:26:35Z</time>
      </trkpt>
      <trkpt lat="46.637422" lon="10.460798">
        <ele>1246.969</ele>
        <time>2022-07-10T05:26:54Z</time>
      </trkpt>
      <trkpt lat="46.637023" lon="10.460606">
        <ele>1246.091</ele>
        <time>2022-07-10T05:27:07Z</time>
      </trkpt>
      <trkpt lat="46.636832" lon="10.460533">
        <ele>1245.557</ele>
        <time>2022-07-10T05:27:12Z</time>
      </trkpt>
      <trkpt lat="46.636793" lon="10.460536">
        <ele>1245.051</ele>
        <time>2022-07-10T05:27:13Z</time>
      </trkpt>
      <trkpt lat="46.636753" lon="10.460547">
        <ele>1245.072</ele>
        <time>2022-07-10T05:27:14Z</time>
      </trkpt>
      <trkpt lat="46.636706" lon="10.460569">
        <ele>1245.010</ele>
        <time>2022-07-10T05:27:15Z</time>
      </trkpt>
      <trkpt lat="46.636664" lon="10.460596">
        <ele>1244.054</ele>
        <time>2022-07-10T05:27:16Z</time>
      </trkpt>
      <trkpt lat="46.636616" lon="10.460631">
        <ele>1244.021</ele>
        <time>2022-07-10T05:27:17Z</time>
      </trkpt>
      <trkpt lat="46.636572" lon="10.460670">
        <ele>1243.641</ele>
        <time>2022-07-10T05:27:18Z</time>
      </trkpt>
      <trkpt lat="46.636261" lon="10.460997">
        <ele>1240.205</ele>
        <time>2022-07-10T05:27:26Z</time>
      </trkpt>
      <trkpt lat="46.636210" lon="10.461032">
        <ele>1239.709</ele>
        <time>2022-07-10T05:27:27Z</time>
      </trkpt>
      <trkpt lat="46.636163" lon="10.461071">
        <ele>1239.763</ele>
        <time>2022-07-10T05:27:28Z</time>
      </trkpt>
      <trkpt lat="46.636120" lon="10.461114">
        <ele>1238.812</ele>
        <time>2022-07-10T05:27:29Z</time>
      </trkpt>
      <trkpt lat="46.636081" lon="10.461159">
        <ele>1238.360</ele>
        <time>2022-07-10T05:27:30Z</time>
      </trkpt>
      <trkpt lat="46.635918" lon="10.461369">
        <ele>1236.372</ele>
        <time>2022-07-10T05:27:34Z</time>
      </trkpt>
      <trkpt lat="46.635881" lon="10.461419">
        <ele>1235.438</ele>
        <time>2022-07-10T05:27:35Z</time>
      </trkpt>
      <trkpt lat="46.635841" lon="10.461459">
        <ele>1234.952</ele>
        <time>2022-07-10T05:27:36Z</time>
      </trkpt>
      <trkpt lat="46.635794" lon="10.461487">
        <ele>1233.923</ele>
        <time>2022-07-10T05:27:37Z</time>
      </trkpt>
      <trkpt lat="46.635745" lon="10.461504">
        <ele>1233.011</ele>
        <time>2022-07-10T05:27:38Z</time>
      </trkpt>
      <trkpt lat="46.635687" lon="10.461522">
        <ele>1232.535</ele>
        <time>2022-07-10T05:27:39Z</time>
      </trkpt>
      <trkpt lat="46.635628" lon="10.461542">
        <ele>1231.579</ele>
        <time>2022-07-10T05:27:40Z</time>
      </trkpt>
      <trkpt lat="46.635394" lon="10.461624">
        <ele>1228.205</ele>
        <time>2022-07-10T05:27:44Z</time>
      </trkpt>
      <trkpt lat="46.635335" lon="10.461655">
        <ele>1227.725</ele>
        <time>2022-07-10T05:27:45Z</time>
      </trkpt>
      <trkpt lat="46.635128" lon="10.461797">
        <ele>1227.209</ele>
        <time>2022-07-10T05:27:49Z</time>
      </trkpt>
      <trkpt lat="46.635085" lon="10.461837">
        <ele>1227.278</ele>
        <time>2022-07-10T05:27:50Z</time>
      </trkpt>
      <trkpt lat="46.635042" lon="10.461884">
        <ele>1227.247</ele>
        <time>2022-07-10T05:27:51Z</time>
      </trkpt>
      <trkpt lat="46.634818" lon="10.462161">
        <ele>1226.775</ele>
        <time>2022-07-10T05:27:57Z</time>
      </trkpt>
      <trkpt lat="46.634795" lon="10.462219">
        <ele>1226.797</ele>
        <time>2022-07-10T05:27:58Z</time>
      </trkpt>
      <trkpt lat="46.634789" lon="10.462286">
        <ele>1226.753</ele>
        <time>2022-07-10T05:27:59Z</time>
      </trkpt>
      <trkpt lat="46.634795" lon="10.462334">
        <ele>1226.777</ele>
        <time>2022-07-10T05:28:00Z</time>
      </trkpt>
      <trkpt lat="46.634809" lon="10.462388">
        <ele>1226.748</ele>
        <time>2022-07-10T05:28:01Z</time>
      </trkpt>
      <trkpt lat="46.634820" lon="10.462425">
        <ele>1226.796</ele>
        <time>2022-07-10T05:28:02Z</time>
      </trkpt>
      <trkpt lat="46.634805" lon="10.462586">
        <ele>1228.270</ele>
        <time>2022-07-10T05:28:07Z</time>
      </trkpt>
      <trkpt lat="46.634515" lon="10.462766">
        <ele>1228.795</ele>
        <time>2022-07-10T05:28:20Z</time>
      </trkpt>
      <trkpt lat="46.634162" lon="10.462933">
        <ele>1228.749</ele>
        <time>2022-07-10T05:28:34Z</time>
      </trkpt>
      <trkpt lat="46.633744" lon="10.462815">
        <ele>1229.123</ele>
        <time>2022-07-10T05:28:50Z</time>
      </trkpt>
      <trkpt lat="46.633339" lon="10.462445">
        <ele>1229.609</ele>
        <time>2022-07-10T05:29:08Z</time>
      </trkpt>
      <trkpt lat="46.633135" lon="10.462331">
        <ele>1229.640</ele>
        <time>2022-07-10T05:29:19Z</time>
      </trkpt>
      <trkpt lat="46.633111" lon="10.462318">
        <ele>1229.649</ele>
        <time>2022-07-10T05:29:20Z</time>
      </trkpt>
      <trkpt lat="46.632749" lon="10.462118">
        <ele>1229.677</ele>
        <time>2022-07-10T05:29:34Z</time>
      </trkpt>
      <trkpt lat="46.632533" lon="10.461670">
        <ele>1230.629</ele>
        <time>2022-07-10T05:29:47Z</time>
      </trkpt>
      <trkpt lat="46.632299" lon="10.461118">
        <ele>1231.135</ele>
        <time>2022-07-10T05:30:02Z</time>
      </trkpt>
      <trkpt lat="46.632105" lon="10.460666">
        <ele>1232.089</ele>
        <time>2022-07-10T05:30:16Z</time>
      </trkpt>
      <trkpt lat="46.631818" lon="10.460449">
        <ele>1233.050</ele>
        <time>2022-07-10T05:30:31Z</time>
      </trkpt>
      <trkpt lat="46.631563" lon="10.460349">
        <ele>1234.998</ele>
        <time>2022-07-10T05:30:46Z</time>
      </trkpt>
      <trkpt lat="46.631409" lon="10.460162">
        <ele>1235.422</ele>
        <time>2022-07-10T05:30:59Z</time>
      </trkpt>
      <trkpt lat="46.631197" lon="10.459796">
        <ele>1235.496</ele>
        <time>2022-07-10T05:31:15Z</time>
      </trkpt>
      <trkpt lat="46.631168" lon="10.459525">
        <ele>1235.431</ele>
        <time>2022-07-10T05:31:24Z</time>
      </trkpt>
      <trkpt lat="46.631185" lon="10.459507">
        <ele>1235.424</ele>
        <time>2022-07-10T05:31:25Z</time>
      </trkpt>
      <trkpt lat="46.631205" lon="10.459493">
        <ele>1235.409</ele>
        <time>2022-07-10T05:31:26Z</time>
      </trkpt>
      <trkpt lat="46.631221" lon="10.459479">
        <ele>1235.480</ele>
        <time>2022-07-10T05:31:27Z</time>
      </trkpt>
      <trkpt lat="46.631236" lon="10.459463">
        <ele>1235.459</ele>
        <time>2022-07-10T05:31:28Z</time>
      </trkpt>
      <trkpt lat="46.631299" lon="10.459383">
        <ele>1235.927</ele>
        <time>2022-07-10T05:31:32Z</time>
      </trkpt>
      <trkpt lat="46.631307" lon="10.459329">
        <ele>1235.449</ele>
        <time>2022-07-10T05:31:33Z</time>
      </trkpt>
      <trkpt lat="46.631307" lon="10.459291">
        <ele>1235.945</ele>
        <time>2022-07-10T05:31:34Z</time>
      </trkpt>
      <trkpt lat="46.631303" lon="10.459256">
        <ele>1235.959</ele>
        <time>2022-07-10T05:31:35Z</time>
      </trkpt>
      <trkpt lat="46.631300" lon="10.459221">
        <ele>1235.940</ele>
        <time>2022-07-10T05:31:36Z</time>
      </trkpt>
      <trkpt lat="46.631279" lon="10.458698">
        <ele>1235.958</ele>
        <time>2022-07-10T05:31:53Z</time>
      </trkpt>
      <trkpt lat="46.631321" lon="10.458335">
        <ele>1238.392</ele>
        <time>2022-07-10T05:32:09Z</time>
      </trkpt>
      <trkpt lat="46.631358" lon="10.457874">
        <ele>1239.284</ele>
        <time>2022-07-10T05:32:25Z</time>
      </trkpt>
      <trkpt lat="46.631337" lon="10.457264">
        <ele>1239.707</ele>
        <time>2022-07-10T05:32:44Z</time>
      </trkpt>
      <trkpt lat="46.631120" lon="10.456598">
        <ele>1239.717</ele>
        <time>2022-07-10T05:33:07Z</time>
      </trkpt>
      <trkpt lat="46.630864" lon="10.456237">
        <ele>1240.209</ele>
        <time>2022-07-10T05:33:24Z</time>
      </trkpt>
      <trkpt lat="46.630489" lon="10.455846">
        <ele>1240.289</ele>
        <time>2022-07-10T05:33:44Z</time>
      </trkpt>
      <trkpt lat="46.630238" lon="10.455253">
        <ele>1240.768</ele>
        <time>2022-07-10T05:34:03Z</time>
      </trkpt>
      <trkpt lat="46.630279" lon="10.454488">
        <ele>1241.226</ele>
        <time>2022-07-10T05:34:24Z</time>
      </trkpt>
      <trkpt lat="46.630184" lon="10.453737">
        <ele>1242.148</ele>
        <time>2022-07-10T05:34:45Z</time>
      </trkpt>
      <trkpt lat="46.629874" lon="10.453282">
        <ele>1242.684</ele>
        <time>2022-07-10T05:35:03Z</time>
      </trkpt>
      <trkpt lat="46.629492" lon="10.452915">
        <ele>1243.168</ele>
        <time>2022-07-10T05:35:22Z</time>
      </trkpt>
      <trkpt lat="46.629082" lon="10.452563">
        <ele>1244.059</ele>
        <time>2022-07-10T05:35:41Z</time>
      </trkpt>
      <trkpt lat="46.628979" lon="10.452552">
        <ele>1244.527</ele>
        <time>2022-07-10T05:35:46Z</time>
      </trkpt>
      <trkpt lat="46.628960" lon="10.452584">
        <ele>1244.541</ele>
        <time>2022-07-10T05:35:47Z</time>
      </trkpt>
      <trkpt lat="46.628685" lon="10.452969">
        <ele>1244.575</ele>
        <time>2022-07-10T05:36:01Z</time>
      </trkpt>
      <trkpt lat="46.628601" lon="10.453543">
        <ele>1245.028</ele>
        <time>2022-07-10T05:36:18Z</time>
      </trkpt>
      <trkpt lat="46.628556" lon="10.453712">
        <ele>1245.020</ele>
        <time>2022-07-10T05:36:23Z</time>
      </trkpt>
      <trkpt lat="46.628549" lon="10.453740">
        <ele>1245.509</ele>
        <time>2022-07-10T05:39:11Z</time>
      </trkpt>
      <trkpt lat="46.628268" lon="10.453640">
        <ele>1245.518</ele>
        <time>2022-07-10T05:39:24Z</time>
      </trkpt>
      <trkpt lat="46.627890" lon="10.453191">
        <ele>1245.527</ele>
        <time>2022-07-10T05:39:44Z</time>
      </trkpt>
      <trkpt lat="46.627525" lon="10.452988">
        <ele>1245.555</ele>
        <time>2022-07-10T05:39:59Z</time>
      </trkpt>
      <trkpt lat="46.627085" lon="10.452950">
        <ele>1246.067</ele>
        <time>2022-07-10T05:40:16Z</time>
      </trkpt>
      <trkpt lat="46.626807" lon="10.453275">
        <ele>1246.943</ele>
        <time>2022-07-10T05:40:31Z</time>
      </trkpt>
      <trkpt lat="46.626444" lon="10.453712">
        <ele>1249.347</ele>
        <time>2022-07-10T05:40:53Z</time>
      </trkpt>
      <trkpt lat="46.626081" lon="10.454028">
        <ele>1251.278</ele>
        <time>2022-07-10T05:41:16Z</time>
      </trkpt>
      <trkpt lat="46.625692" lon="10.454411">
        <ele>1252.756</ele>
        <time>2022-07-10T05:41:40Z</time>
      </trkpt>
      <trkpt lat="46.625370" lon="10.454703">
        <ele>1254.180</ele>
        <time>2022-07-10T05:42:00Z</time>
      </trkpt>
      <trkpt lat="46.625046" lon="10.454933">
        <ele>1255.157</ele>
        <time>2022-07-10T05:42:19Z</time>
      </trkpt>
      <trkpt lat="46.624609" lon="10.455279">
        <ele>1255.100</ele>
        <time>2022-07-10T05:42:36Z</time>
      </trkpt>
      <trkpt lat="46.624223" lon="10.455256">
        <ele>1253.720</ele>
        <time>2022-07-10T05:42:48Z</time>
      </trkpt>
      <trkpt lat="46.623959" lon="10.454880">
        <ele>1253.709</ele>
        <time>2022-07-10T05:43:01Z</time>
      </trkpt>
      <trkpt lat="46.623668" lon="10.454086">
        <ele>1253.786</ele>
        <time>2022-07-10T05:43:21Z</time>
      </trkpt>
      <trkpt lat="46.623419" lon="10.453532">
        <ele>1255.175</ele>
        <time>2022-07-10T05:43:39Z</time>
      </trkpt>
      <trkpt lat="46.623162" lon="10.453096">
        <ele>1257.573</ele>
        <time>2022-07-10T05:44:02Z</time>
      </trkpt>
      <trkpt lat="46.623005" lon="10.452876">
        <ele>1260.495</ele>
        <time>2022-07-10T05:44:19Z</time>
      </trkpt>
      <trkpt lat="46.622862" lon="10.452553">
        <ele>1261.311</ele>
        <time>2022-07-10T05:44:39Z</time>
      </trkpt>
      <trkpt lat="46.622635" lon="10.452258">
        <ele>1261.325</ele>
        <time>2022-07-10T05:44:55Z</time>
      </trkpt>
      <trkpt lat="46.622384" lon="10.451949">
        <ele>1261.336</ele>
        <time>2022-07-10T05:45:11Z</time>
      </trkpt>
      <trkpt lat="46.622215" lon="10.451468">
        <ele>1259.444</ele>
        <time>2022-07-10T05:45:24Z</time>
      </trkpt>
      <trkpt lat="46.622192" lon="10.451323">
        <ele>1258.928</ele>
        <time>2022-07-10T05:45:26Z</time>
      </trkpt>
      <trkpt lat="46.622139" lon="10.451084">
        <ele>1257.555</ele>
        <time>2022-07-10T05:45:29Z</time>
      </trkpt>
      <trkpt lat="46.622110" lon="10.451013">
        <ele>1257.507</ele>
        <time>2022-07-10T05:45:30Z</time>
      </trkpt>
      <trkpt lat="46.622075" lon="10.450946">
        <ele>1257.017</ele>
        <time>2022-07-10T05:45:31Z</time>
      </trkpt>
      <trkpt lat="46.622040" lon="10.450887">
        <ele>1257.009</ele>
        <time>2022-07-10T05:45:32Z</time>
      </trkpt>
      <trkpt lat="46.622005" lon="10.450831">
        <ele>1257.066</ele>
        <time>2022-07-10T05:45:33Z</time>
      </trkpt>
      <trkpt lat="46.621968" lon="10.450775">
        <ele>1257.015</ele>
        <time>2022-07-10T05:45:34Z</time>
      </trkpt>
      <trkpt lat="46.621931" lon="10.450719">
        <ele>1257.083</ele>
        <time>2022-07-10T05:45:35Z</time>
      </trkpt>
      <trkpt lat="46.621873" lon="10.450625">
        <ele>1256.545</ele>
        <time>2022-07-10T05:45:37Z</time>
      </trkpt>
      <trkpt lat="46.621837" lon="10.450581">
        <ele>1256.511</ele>
        <time>2022-07-10T05:45:38Z</time>
      </trkpt>
      <trkpt lat="46.621800" lon="10.450563">
        <ele>1256.535</ele>
        <time>2022-07-10T05:45:39Z</time>
      </trkpt>
      <trkpt lat="46.621759" lon="10.450557">
        <ele>1256.546</ele>
        <time>2022-07-10T05:45:40Z</time>
      </trkpt>
      <trkpt lat="46.621725" lon="10.450559">
        <ele>1256.594</ele>
        <time>2022-07-10T05:45:41Z</time>
      </trkpt>
      <trkpt lat="46.621703" lon="10.450565">
        <ele>1257.548</ele>
        <time>2022-07-10T05:45:42Z</time>
      </trkpt>
      <trkpt lat="46.621681" lon="10.450576">
        <ele>1257.583</ele>
        <time>2022-07-10T05:45:43Z</time>
      </trkpt>
      <trkpt lat="46.621656" lon="10.450590">
        <ele>1257.525</ele>
        <time>2022-07-10T05:45:44Z</time>
      </trkpt>
      <trkpt lat="46.621247" lon="10.450884">
        <ele>1258.017</ele>
        <time>2022-07-10T05:46:04Z</time>
      </trkpt>
      <trkpt lat="46.620954" lon="10.450862">
        <ele>1258.509</ele>
        <time>2022-07-10T05:46:19Z</time>
      </trkpt>
      <trkpt lat="46.620611" lon="10.450679">
        <ele>1259.449</ele>
        <time>2022-07-10T05:46:36Z</time>
      </trkpt>
      <trkpt lat="46.620301" lon="10.450528">
        <ele>1259.918</ele>
        <time>2022-07-10T05:46:51Z</time>
      </trkpt>
      <trkpt lat="46.620050" lon="10.450352">
        <ele>1260.926</ele>
        <time>2022-07-10T05:47:03Z</time>
      </trkpt>
      <trkpt lat="46.619657" lon="10.450047">
        <ele>1261.898</ele>
        <time>2022-07-10T05:47:20Z</time>
      </trkpt>
      <trkpt lat="46.619324" lon="10.449899">
        <ele>1262.364</ele>
        <time>2022-07-10T05:47:35Z</time>
      </trkpt>
      <trkpt lat="46.619040" lon="10.449530">
        <ele>1263.328</ele>
        <time>2022-07-10T05:47:53Z</time>
      </trkpt>
      <trkpt lat="46.618815" lon="10.449177">
        <ele>1263.769</ele>
        <time>2022-07-10T05:48:09Z</time>
      </trkpt>
      <trkpt lat="46.618565" lon="10.448922">
        <ele>1264.777</ele>
        <time>2022-07-10T05:48:24Z</time>
      </trkpt>
      <trkpt lat="46.618253" lon="10.448636">
        <ele>1265.731</ele>
        <time>2022-07-10T05:48:41Z</time>
      </trkpt>
      <trkpt lat="46.617938" lon="10.448339">
        <ele>1266.688</ele>
        <time>2022-07-10T05:49:00Z</time>
      </trkpt>
      <trkpt lat="46.617646" lon="10.448201">
        <ele>1267.124</ele>
        <time>2022-07-10T05:49:15Z</time>
      </trkpt>
      <trkpt lat="46.617314" lon="10.447977">
        <ele>1268.126</ele>
        <time>2022-07-10T05:49:33Z</time>
      </trkpt>
      <trkpt lat="46.617008" lon="10.447758">
        <ele>1269.509</ele>
        <time>2022-07-10T05:49:51Z</time>
      </trkpt>
      <trkpt lat="46.616783" lon="10.447458">
        <ele>1271.449</ele>
        <time>2022-07-10T05:50:09Z</time>
      </trkpt>
      <trkpt lat="46.616625" lon="10.447066">
        <ele>1272.458</ele>
        <time>2022-07-10T05:50:27Z</time>
      </trkpt>
      <trkpt lat="46.616416" lon="10.446790">
        <ele>1273.876</ele>
        <time>2022-07-10T05:50:45Z</time>
      </trkpt>
      <trkpt lat="46.616203" lon="10.446589">
        <ele>1274.888</ele>
        <time>2022-07-10T05:51:01Z</time>
      </trkpt>
      <trkpt lat="46.616036" lon="10.446498">
        <ele>1277.274</ele>
        <time>2022-07-10T05:51:16Z</time>
      </trkpt>
      <trkpt lat="46.615807" lon="10.446375">
        <ele>1279.158</ele>
        <time>2022-07-10T05:51:36Z</time>
      </trkpt>
      <trkpt lat="46.615732" lon="10.446325">
        <ele>1279.629</ele>
        <time>2022-07-10T05:51:43Z</time>
      </trkpt>
      <trkpt lat="46.615564" lon="10.446111">
        <ele>1280.687</ele>
        <time>2022-07-10T05:52:01Z</time>
      </trkpt>
      <trkpt lat="46.615366" lon="10.445864">
        <ele>1280.621</ele>
        <time>2022-07-10T05:52:19Z</time>
      </trkpt>
      <trkpt lat="46.615140" lon="10.445693">
        <ele>1282.022</ele>
        <time>2022-07-10T05:52:37Z</time>
      </trkpt>
      <trkpt lat="46.614842" lon="10.445357">
        <ele>1282.062</ele>
        <time>2022-07-10T05:52:52Z</time>
      </trkpt>
      <trkpt lat="46.614631" lon="10.445119">
        <ele>1282.008</ele>
        <time>2022-07-10T05:53:07Z</time>
      </trkpt>
      <trkpt lat="46.614608" lon="10.445096">
        <ele>1282.009</ele>
        <time>2022-07-10T05:53:21Z</time>
      </trkpt>
      <trkpt lat="46.614618" lon="10.445095">
        <ele>1282.033</ele>
        <time>2022-07-10T05:53:36Z</time>
      </trkpt>
      <trkpt lat="46.614609" lon="10.445084">
        <ele>1282.082</ele>
        <time>2022-07-10T05:53:37Z</time>
      </trkpt>
      <trkpt lat="46.614598" lon="10.445073">
        <ele>1282.020</ele>
        <time>2022-07-10T05:53:38Z</time>
      </trkpt>
      <trkpt lat="46.614349" lon="10.444728">
        <ele>1280.632</ele>
        <time>2022-07-10T05:53:53Z</time>
      </trkpt>
      <trkpt lat="46.614244" lon="10.444385">
        <ele>1282.078</ele>
        <time>2022-07-10T05:54:05Z</time>
      </trkpt>
      <trkpt lat="46.614109" lon="10.443728">
        <ele>1283.532</ele>
        <time>2022-07-10T05:54:27Z</time>
      </trkpt>
      <trkpt lat="46.613965" lon="10.443078">
        <ele>1284.943</ele>
        <time>2022-07-10T05:54:50Z</time>
      </trkpt>
      <trkpt lat="46.613832" lon="10.442484">
        <ele>1286.881</ele>
        <time>2022-07-10T05:55:12Z</time>
      </trkpt>
      <trkpt lat="46.613593" lon="10.442136">
        <ele>1288.795</ele>
        <time>2022-07-10T05:55:32Z</time>
      </trkpt>
      <trkpt lat="46.613393" lon="10.441718">
        <ele>1290.799</ele>
        <time>2022-07-10T05:55:53Z</time>
      </trkpt>
      <trkpt lat="46.613339" lon="10.441419">
        <ele>1293.107</ele>
        <time>2022-07-10T05:56:09Z</time>
      </trkpt>
      <trkpt lat="46.613281" lon="10.441087">
        <ele>1294.527</ele>
        <time>2022-07-10T05:56:27Z</time>
      </trkpt>
      <trkpt lat="46.613082" lon="10.440885">
        <ele>1295.509</ele>
        <time>2022-07-10T05:56:44Z</time>
      </trkpt>
      <trkpt lat="46.613070" lon="10.440884">
        <ele>1295.520</ele>
        <time>2022-07-10T05:56:45Z</time>
      </trkpt>
      <trkpt lat="46.613057" lon="10.440890">
        <ele>1295.579</ele>
        <time>2022-07-10T05:56:46Z</time>
      </trkpt>
      <trkpt lat="46.613047" lon="10.440897">
        <ele>1296.427</ele>
        <time>2022-07-10T05:56:47Z</time>
      </trkpt>
      <trkpt lat="46.613037" lon="10.440904">
        <ele>1296.499</ele>
        <time>2022-07-10T05:56:48Z</time>
      </trkpt>
      <trkpt lat="46.612904" lon="10.440996">
        <ele>1298.455</ele>
        <time>2022-07-10T05:57:04Z</time>
      </trkpt>
      <trkpt lat="46.612816" lon="10.441087">
        <ele>1299.369</ele>
        <time>2022-07-10T05:57:15Z</time>
      </trkpt>
      <trkpt lat="46.612809" lon="10.441099">
        <ele>1299.350</ele>
        <time>2022-07-10T05:57:16Z</time>
      </trkpt>
      <trkpt lat="46.612753" lon="10.441148">
        <ele>1300.368</ele>
        <time>2022-07-10T05:57:32Z</time>
      </trkpt>
      <trkpt lat="46.612748" lon="10.441121">
        <ele>1300.362</ele>
        <time>2022-07-10T05:57:56Z</time>
      </trkpt>
      <trkpt lat="46.612655" lon="10.441255">
        <ele>1300.814</ele>
        <time>2022-07-10T05:58:12Z</time>
      </trkpt>
      <trkpt lat="46.612646" lon="10.441266">
        <ele>1301.254</ele>
        <time>2022-07-10T05:58:13Z</time>
      </trkpt>
      <trkpt lat="46.612463" lon="10.441468">
        <ele>1303.209</ele>
        <time>2022-07-10T05:58:32Z</time>
      </trkpt>
      <trkpt lat="46.612455" lon="10.441477">
        <ele>1303.609</ele>
        <time>2022-07-10T05:58:33Z</time>
      </trkpt>
      <trkpt lat="46.612233" lon="10.441659">
        <ele>1305.152</ele>
        <time>2022-07-10T05:58:54Z</time>
      </trkpt>
      <trkpt lat="46.612037" lon="10.441808">
        <ele>1307.061</ele>
        <time>2022-07-10T05:59:12Z</time>
      </trkpt>
      <trkpt lat="46.611910" lon="10.442065">
        <ele>1308.929</ele>
        <time>2022-07-10T05:59:30Z</time>
      </trkpt>
      <trkpt lat="46.611892" lon="10.442212">
        <ele>1311.321</ele>
        <time>2022-07-10T05:59:38Z</time>
      </trkpt>
      <trkpt lat="46.611875" lon="10.442391">
        <ele>1310.997</ele>
        <time>2022-07-10T05:59:48Z</time>
      </trkpt>
      <trkpt lat="46.611863" lon="10.442395">
        <ele>1310.961</ele>
        <time>2022-07-10T05:59:49Z</time>
      </trkpt>
      <trkpt lat="46.611840" lon="10.442397">
        <ele>1311.362</ele>
        <time>2022-07-10T05:59:51Z</time>
      </trkpt>
      <trkpt lat="46.611811" lon="10.442355">
        <ele>1311.390</ele>
        <time>2022-07-10T05:59:54Z</time>
      </trkpt>
      <trkpt lat="46.611805" lon="10.442343">
        <ele>1311.814</ele>
        <time>2022-07-10T05:59:55Z</time>
      </trkpt>
      <trkpt lat="46.611799" lon="10.442323">
        <ele>1311.865</ele>
        <time>2022-07-10T05:59:56Z</time>
      </trkpt>
      <trkpt lat="46.611734" lon="10.442054">
        <ele>1313.368</ele>
        <time>2022-07-10T06:00:12Z</time>
      </trkpt>
      <trkpt lat="46.611611" lon="10.441800">
        <ele>1315.214</ele>
        <time>2022-07-10T06:00:30Z</time>
      </trkpt>
      <trkpt lat="46.611603" lon="10.441792">
        <ele>1315.209</ele>
        <time>2022-07-10T06:00:31Z</time>
      </trkpt>
      <trkpt lat="46.611595" lon="10.441778">
        <ele>1315.277</ele>
        <time>2022-07-10T06:00:32Z</time>
      </trkpt>
      <trkpt lat="46.611510" lon="10.441577">
        <ele>1317.116</ele>
        <time>2022-07-10T06:00:48Z</time>
      </trkpt>
      <trkpt lat="46.611413" lon="10.441371">
        <ele>1320.074</ele>
        <time>2022-07-10T06:01:05Z</time>
      </trkpt>
      <trkpt lat="46.611268" lon="10.441092">
        <ele>1322.486</ele>
        <time>2022-07-10T06:01:27Z</time>
      </trkpt>
      <trkpt lat="46.611143" lon="10.440846">
        <ele>1324.822</ele>
        <time>2022-07-10T06:01:46Z</time>
      </trkpt>
      <trkpt lat="46.611013" lon="10.440585">
        <ele>1327.746</ele>
        <time>2022-07-10T06:02:06Z</time>
      </trkpt>
      <trkpt lat="46.610909" lon="10.440375">
        <ele>1330.147</ele>
        <time>2022-07-10T06:02:23Z</time>
      </trkpt>
      <trkpt lat="46.610801" lon="10.440126">
        <ele>1332.595</ele>
        <time>2022-07-10T06:02:43Z</time>
      </trkpt>
      <trkpt lat="46.610672" lon="10.439870">
        <ele>1334.999</ele>
        <time>2022-07-10T06:03:04Z</time>
      </trkpt>
      <trkpt lat="46.610523" lon="10.439569">
        <ele>1337.394</ele>
        <time>2022-07-10T06:03:28Z</time>
      </trkpt>
      <trkpt lat="46.610373" lon="10.439281">
        <ele>1340.257</ele>
        <time>2022-07-10T06:03:50Z</time>
      </trkpt>
      <trkpt lat="46.610352" lon="10.439244">
        <ele>1340.722</ele>
        <time>2022-07-10T06:03:53Z</time>
      </trkpt>
      <trkpt lat="46.610347" lon="10.439227">
        <ele>1340.709</ele>
        <time>2022-07-10T06:03:54Z</time>
      </trkpt>
      <trkpt lat="46.610342" lon="10.439210">
        <ele>1340.730</ele>
        <time>2022-07-10T06:03:55Z</time>
      </trkpt>
      <trkpt lat="46.610260" lon="10.439063">
        <ele>1342.159</ele>
        <time>2022-07-10T06:04:07Z</time>
      </trkpt>
      <trkpt lat="46.610252" lon="10.439052">
        <ele>1342.697</ele>
        <time>2022-07-10T06:04:08Z</time>
      </trkpt>
      <trkpt lat="46.610247" lon="10.439042">
        <ele>1342.689</ele>
        <time>2022-07-10T06:04:09Z</time>
      </trkpt>
      <trkpt lat="46.610242" lon="10.439030">
        <ele>1342.655</ele>
        <time>2022-07-10T06:04:10Z</time>
      </trkpt>
      <trkpt lat="46.610235" lon="10.439019">
        <ele>1342.639</ele>
        <time>2022-07-10T06:04:11Z</time>
      </trkpt>
      <trkpt lat="46.610227" lon="10.439007">
        <ele>1342.610</ele>
        <time>2022-07-10T06:04:12Z</time>
      </trkpt>
      <trkpt lat="46.610219" lon="10.438993">
        <ele>1342.678</ele>
        <time>2022-07-10T06:04:13Z</time>
      </trkpt>
      <trkpt lat="46.610211" lon="10.438981">
        <ele>1342.652</ele>
        <time>2022-07-10T06:04:14Z</time>
      </trkpt>
      <trkpt lat="46.610067" lon="10.438769">
        <ele>1345.075</ele>
        <time>2022-07-10T06:04:33Z</time>
      </trkpt>
      <trkpt lat="46.609983" lon="10.438682">
        <ele>1346.428</ele>
        <time>2022-07-10T06:04:42Z</time>
      </trkpt>
      <trkpt lat="46.609801" lon="10.438604">
        <ele>1349.820</ele>
        <time>2022-07-10T06:05:01Z</time>
      </trkpt>
      <trkpt lat="46.609649" lon="10.438532">
        <ele>1352.209</ele>
        <time>2022-07-10T06:05:20Z</time>
      </trkpt>
      <trkpt lat="46.609616" lon="10.438532">
        <ele>1352.718</ele>
        <time>2022-07-10T06:05:24Z</time>
      </trkpt>
      <trkpt lat="46.609607" lon="10.438536">
        <ele>1352.737</ele>
        <time>2022-07-10T06:05:25Z</time>
      </trkpt>
      <trkpt lat="46.609595" lon="10.438541">
        <ele>1352.715</ele>
        <time>2022-07-10T06:05:26Z</time>
      </trkpt>
      <trkpt lat="46.609473" lon="10.438470">
        <ele>1354.647</ele>
        <time>2022-07-10T06:05:40Z</time>
      </trkpt>
      <trkpt lat="46.609353" lon="10.438173">
        <ele>1356.023</ele>
        <time>2022-07-10T06:05:59Z</time>
      </trkpt>
      <trkpt lat="46.609302" lon="10.437697">
        <ele>1356.537</ele>
        <time>2022-07-10T06:06:15Z</time>
      </trkpt>
      <trkpt lat="46.609198" lon="10.437183">
        <ele>1360.478</ele>
        <time>2022-07-10T06:06:39Z</time>
      </trkpt>
      <trkpt lat="46.609195" lon="10.437167">
        <ele>1360.456</ele>
        <time>2022-07-10T06:06:40Z</time>
      </trkpt>
      <trkpt lat="46.609122" lon="10.437023">
        <ele>1361.830</ele>
        <time>2022-07-10T06:06:50Z</time>
      </trkpt>
      <trkpt lat="46.609060" lon="10.436958">
        <ele>1363.299</ele>
        <time>2022-07-10T06:06:56Z</time>
      </trkpt>
      <trkpt lat="46.609052" lon="10.436941">
        <ele>1363.207</ele>
        <time>2022-07-10T06:06:57Z</time>
      </trkpt>
      <trkpt lat="46.608851" lon="10.436775">
        <ele>1363.227</ele>
        <time>2022-07-10T06:07:14Z</time>
      </trkpt>
      <trkpt lat="46.608629" lon="10.436624">
        <ele>1366.109</ele>
        <time>2022-07-10T06:07:32Z</time>
      </trkpt>
      <trkpt lat="46.608468" lon="10.436518">
        <ele>1367.170</ele>
        <time>2022-07-10T06:07:47Z</time>
      </trkpt>
      <trkpt lat="46.608290" lon="10.436397">
        <ele>1370.069</ele>
        <time>2022-07-10T06:08:04Z</time>
      </trkpt>
      <trkpt lat="46.608030" lon="10.436237">
        <ele>1372.417</ele>
        <time>2022-07-10T06:08:27Z</time>
      </trkpt>
      <trkpt lat="46.607866" lon="10.436123">
        <ele>1374.349</ele>
        <time>2022-07-10T06:08:42Z</time>
      </trkpt>
      <trkpt lat="46.607860" lon="10.436105">
        <ele>1374.345</ele>
        <time>2022-07-10T06:08:43Z</time>
      </trkpt>
      <trkpt lat="46.607742" lon="10.435819">
        <ele>1376.719</ele>
        <time>2022-07-10T06:09:02Z</time>
      </trkpt>
      <trkpt lat="46.607612" lon="10.435618">
        <ele>1378.690</ele>
        <time>2022-07-10T06:09:18Z</time>
      </trkpt>
      <trkpt lat="46.607599" lon="10.435610">
        <ele>1378.668</ele>
        <time>2022-07-10T06:09:19Z</time>
      </trkpt>
      <trkpt lat="46.607589" lon="10.435603">
        <ele>1379.182</ele>
        <time>2022-07-10T06:09:20Z</time>
      </trkpt>
      <trkpt lat="46.607548" lon="10.435601">
        <ele>1379.683</ele>
        <time>2022-07-10T06:09:38Z</time>
      </trkpt>
      <trkpt lat="46.607465" lon="10.435573">
        <ele>1379.625</ele>
        <time>2022-07-10T06:09:45Z</time>
      </trkpt>
      <trkpt lat="46.607453" lon="10.435564">
        <ele>1379.617</ele>
        <time>2022-07-10T06:09:46Z</time>
      </trkpt>
      <trkpt lat="46.607263" lon="10.435500">
        <ele>1382.009</ele>
        <time>2022-07-10T06:10:04Z</time>
      </trkpt>
      <trkpt lat="46.607251" lon="10.435499">
        <ele>1382.559</ele>
        <time>2022-07-10T06:10:05Z</time>
      </trkpt>
      <trkpt lat="46.607239" lon="10.435504">
        <ele>1382.568</ele>
        <time>2022-07-10T06:10:06Z</time>
      </trkpt>
      <trkpt lat="46.607229" lon="10.435510">
        <ele>1382.996</ele>
        <time>2022-07-10T06:10:07Z</time>
      </trkpt>
      <trkpt lat="46.607221" lon="10.435512">
        <ele>1382.988</ele>
        <time>2022-07-10T06:10:08Z</time>
      </trkpt>
      <trkpt lat="46.607203" lon="10.435502">
        <ele>1383.444</ele>
        <time>2022-07-10T06:10:10Z</time>
      </trkpt>
      <trkpt lat="46.607185" lon="10.435484">
        <ele>1383.928</ele>
        <time>2022-07-10T06:10:12Z</time>
      </trkpt>
      <trkpt lat="46.607175" lon="10.435475">
        <ele>1383.969</ele>
        <time>2022-07-10T06:10:13Z</time>
      </trkpt>
      <trkpt lat="46.607164" lon="10.435468">
        <ele>1383.937</ele>
        <time>2022-07-10T06:10:14Z</time>
      </trkpt>
      <trkpt lat="46.607151" lon="10.435460">
        <ele>1383.911</ele>
        <time>2022-07-10T06:10:15Z</time>
      </trkpt>
      <trkpt lat="46.607142" lon="10.435451">
        <ele>1383.991</ele>
        <time>2022-07-10T06:10:16Z</time>
      </trkpt>
      <trkpt lat="46.607132" lon="10.435443">
        <ele>1383.981</ele>
        <time>2022-07-10T06:10:17Z</time>
      </trkpt>
      <trkpt lat="46.607123" lon="10.435438">
        <ele>1384.919</ele>
        <time>2022-07-10T06:10:18Z</time>
      </trkpt>
      <trkpt lat="46.607113" lon="10.435432">
        <ele>1384.909</ele>
        <time>2022-07-10T06:10:19Z</time>
      </trkpt>
      <trkpt lat="46.606971" lon="10.435400">
        <ele>1386.840</ele>
        <time>2022-07-10T06:10:33Z</time>
      </trkpt>
      <trkpt lat="46.606963" lon="10.435391">
        <ele>1386.829</ele>
        <time>2022-07-10T06:10:34Z</time>
      </trkpt>
      <trkpt lat="46.606955" lon="10.435387">
        <ele>1386.857</ele>
        <time>2022-07-10T06:10:35Z</time>
      </trkpt>
      <trkpt lat="46.606943" lon="10.435389">
        <ele>1386.849</ele>
        <time>2022-07-10T06:10:36Z</time>
      </trkpt>
      <trkpt lat="46.606774" lon="10.435344">
        <ele>1389.245</ele>
        <time>2022-07-10T06:10:53Z</time>
      </trkpt>
      <trkpt lat="46.606764" lon="10.435347">
        <ele>1389.229</ele>
        <time>2022-07-10T06:10:54Z</time>
      </trkpt>
      <trkpt lat="46.606752" lon="10.435347">
        <ele>1389.760</ele>
        <time>2022-07-10T06:10:55Z</time>
      </trkpt>
      <trkpt lat="46.606743" lon="10.435348">
        <ele>1389.758</ele>
        <time>2022-07-10T06:10:56Z</time>
      </trkpt>
      <trkpt lat="46.606568" lon="10.435293">
        <ele>1391.682</ele>
        <time>2022-07-10T06:11:14Z</time>
      </trkpt>
      <trkpt lat="46.606420" lon="10.435240">
        <ele>1394.053</ele>
        <time>2022-07-10T06:11:29Z</time>
      </trkpt>
      <trkpt lat="46.606259" lon="10.435250">
        <ele>1396.404</ele>
        <time>2022-07-10T06:11:46Z</time>
      </trkpt>
      <trkpt lat="46.606130" lon="10.435223">
        <ele>1397.814</ele>
        <time>2022-07-10T06:12:00Z</time>
      </trkpt>
      <trkpt lat="46.605976" lon="10.435123">
        <ele>1399.309</ele>
        <time>2022-07-10T06:12:17Z</time>
      </trkpt>
      <trkpt lat="46.605741" lon="10.435030">
        <ele>1401.236</ele>
        <time>2022-07-10T06:12:37Z</time>
      </trkpt>
      <trkpt lat="46.605527" lon="10.434943">
        <ele>1402.775</ele>
        <time>2022-07-10T06:12:56Z</time>
      </trkpt>
      <trkpt lat="46.605516" lon="10.434942">
        <ele>1402.723</ele>
        <time>2022-07-10T06:12:57Z</time>
      </trkpt>
      <trkpt lat="46.605505" lon="10.434943">
        <ele>1402.745</ele>
        <time>2022-07-10T06:12:58Z</time>
      </trkpt>
      <trkpt lat="46.605493" lon="10.434940">
        <ele>1402.751</ele>
        <time>2022-07-10T06:12:59Z</time>
      </trkpt>
      <trkpt lat="46.605274" lon="10.434979">
        <ele>1405.165</ele>
        <time>2022-07-10T06:13:18Z</time>
      </trkpt>
      <trkpt lat="46.605214" lon="10.434972">
        <ele>1405.536</ele>
        <time>2022-07-10T06:13:23Z</time>
      </trkpt>
      <trkpt lat="46.605200" lon="10.434972">
        <ele>1405.594</ele>
        <time>2022-07-10T06:13:24Z</time>
      </trkpt>
      <trkpt lat="46.605188" lon="10.434970">
        <ele>1405.548</ele>
        <time>2022-07-10T06:13:25Z</time>
      </trkpt>
      <trkpt lat="46.605036" lon="10.434859">
        <ele>1406.046</ele>
        <time>2022-07-10T06:13:42Z</time>
      </trkpt>
      <trkpt lat="46.605021" lon="10.434853">
        <ele>1406.588</ele>
        <time>2022-07-10T06:14:14Z</time>
      </trkpt>
      <trkpt lat="46.605019" lon="10.434837">
        <ele>1406.516</ele>
        <time>2022-07-10T06:14:15Z</time>
      </trkpt>
      <trkpt lat="46.605016" lon="10.434815">
        <ele>1406.509</ele>
        <time>2022-07-10T06:14:16Z</time>
      </trkpt>
      <trkpt lat="46.605008" lon="10.434795">
        <ele>1406.585</ele>
        <time>2022-07-10T06:14:17Z</time>
      </trkpt>
      <trkpt lat="46.604997" lon="10.434775">
        <ele>1406.554</ele>
        <time>2022-07-10T06:14:18Z</time>
      </trkpt>
      <trkpt lat="46.604987" lon="10.434757">
        <ele>1406.552</ele>
        <time>2022-07-10T06:14:19Z</time>
      </trkpt>
      <trkpt lat="46.604693" lon="10.434390">
        <ele>1406.554</ele>
        <time>2022-07-10T06:14:36Z</time>
      </trkpt>
      <trkpt lat="46.604595" lon="10.434230">
        <ele>1405.110</ele>
        <time>2022-07-10T06:14:42Z</time>
      </trkpt>
      <trkpt lat="46.604375" lon="10.433805">
        <ele>1404.654</ele>
        <time>2022-07-10T06:14:58Z</time>
      </trkpt>
      <trkpt lat="46.604133" lon="10.433445">
        <ele>1405.125</ele>
        <time>2022-07-10T06:15:14Z</time>
      </trkpt>
      <trkpt lat="46.603894" lon="10.433096">
        <ele>1406.073</ele>
        <time>2022-07-10T06:15:30Z</time>
      </trkpt>
      <trkpt lat="46.603675" lon="10.432681">
        <ele>1407.567</ele>
        <time>2022-07-10T06:15:47Z</time>
      </trkpt>
      <trkpt lat="46.603589" lon="10.432411">
        <ele>1405.527</ele>
        <time>2022-07-10T06:15:57Z</time>
      </trkpt>
      <trkpt lat="46.603581" lon="10.432388">
        <ele>1409.468</ele>
        <time>2022-07-10T06:15:58Z</time>
      </trkpt>
      <trkpt lat="46.603572" lon="10.432364">
        <ele>1407.914</ele>
        <time>2022-07-10T06:15:59Z</time>
      </trkpt>
      <trkpt lat="46.603396" lon="10.431886">
        <ele>1407.909</ele>
        <time>2022-07-10T06:16:17Z</time>
      </trkpt>
      <trkpt lat="46.603208" lon="10.431154">
        <ele>1406.533</ele>
        <time>2022-07-10T06:16:31Z</time>
      </trkpt>
      <trkpt lat="46.603031" lon="10.430613">
        <ele>1406.532</ele>
        <time>2022-07-10T06:16:46Z</time>
      </trkpt>
      <trkpt lat="46.602837" lon="10.430082">
        <ele>1406.010</ele>
        <time>2022-07-10T06:16:59Z</time>
      </trkpt>
      <trkpt lat="46.602837" lon="10.429652">
        <ele>1406.052</ele>
        <time>2022-07-10T06:17:12Z</time>
      </trkpt>
      <trkpt lat="46.602834" lon="10.429139">
        <ele>1402.738</ele>
        <time>2022-07-10T06:17:21Z</time>
      </trkpt>
      <trkpt lat="46.602826" lon="10.429067">
        <ele>1402.222</ele>
        <time>2022-07-10T06:17:22Z</time>
      </trkpt>
      <trkpt lat="46.602817" lon="10.429002">
        <ele>1402.273</ele>
        <time>2022-07-10T06:17:23Z</time>
      </trkpt>
      <trkpt lat="46.602803" lon="10.428940">
        <ele>1401.721</ele>
        <time>2022-07-10T06:17:24Z</time>
      </trkpt>
      <trkpt lat="46.602783" lon="10.428879">
        <ele>1401.735</ele>
        <time>2022-07-10T06:17:25Z</time>
      </trkpt>
      <trkpt lat="46.602786" lon="10.428804">
        <ele>1401.293</ele>
        <time>2022-07-10T06:17:49Z</time>
      </trkpt>
      <trkpt lat="46.602787" lon="10.428776">
        <ele>1400.765</ele>
        <time>2022-07-10T06:17:50Z</time>
      </trkpt>
      <trkpt lat="46.602783" lon="10.428739">
        <ele>1400.321</ele>
        <time>2022-07-10T06:17:51Z</time>
      </trkpt>
      <trkpt lat="46.602661" lon="10.427865">
        <ele>1398.309</ele>
        <time>2022-07-10T06:18:08Z</time>
      </trkpt>
      <trkpt lat="46.602598" lon="10.427578">
        <ele>1395.920</ele>
        <time>2022-07-10T06:18:12Z</time>
      </trkpt>
      <trkpt lat="46.602427" lon="10.426896">
        <ele>1395.029</ele>
        <time>2022-07-10T06:18:25Z</time>
      </trkpt>
      <trkpt lat="46.602154" lon="10.426539">
        <ele>1393.597</ele>
        <time>2022-07-10T06:18:38Z</time>
      </trkpt>
      <trkpt lat="46.601882" lon="10.426227">
        <ele>1392.199</ele>
        <time>2022-07-10T06:18:48Z</time>
      </trkpt>
      <trkpt lat="46.601553" lon="10.425629">
        <ele>1389.245</ele>
        <time>2022-07-10T06:19:04Z</time>
      </trkpt>
      <trkpt lat="46.601496" lon="10.425495">
        <ele>1388.269</ele>
        <time>2022-07-10T06:19:09Z</time>
      </trkpt>
      <trkpt lat="46.601602" lon="10.425384">
        <ele>1387.330</ele>
        <time>2022-07-10T06:19:14Z</time>
      </trkpt>
      <trkpt lat="46.601880" lon="10.425172">
        <ele>1383.498</ele>
        <time>2022-07-10T06:19:23Z</time>
      </trkpt>
      <trkpt lat="46.602006" lon="10.424959">
        <ele>1381.082</ele>
        <time>2022-07-10T06:19:33Z</time>
      </trkpt>
      <trkpt lat="46.602022" lon="10.424958">
        <ele>1381.081</ele>
        <time>2022-07-10T06:19:45Z</time>
      </trkpt>
      <trkpt lat="46.602042" lon="10.424949">
        <ele>1381.061</ele>
        <time>2022-07-10T06:19:47Z</time>
      </trkpt>
      <trkpt lat="46.602048" lon="10.424926">
        <ele>1381.017</ele>
        <time>2022-07-10T06:19:48Z</time>
      </trkpt>
      <trkpt lat="46.602040" lon="10.424909">
        <ele>1381.009</ele>
        <time>2022-07-10T06:19:49Z</time>
      </trkpt>
      <trkpt lat="46.602029" lon="10.424892">
        <ele>1381.059</ele>
        <time>2022-07-10T06:19:50Z</time>
      </trkpt>
      <trkpt lat="46.602016" lon="10.424876">
        <ele>1381.018</ele>
        <time>2022-07-10T06:19:51Z</time>
      </trkpt>
      <trkpt lat="46.602002" lon="10.424859">
        <ele>1381.036</ele>
        <time>2022-07-10T06:19:52Z</time>
      </trkpt>
      <trkpt lat="46.601983" lon="10.424840">
        <ele>1381.018</ele>
        <time>2022-07-10T06:19:53Z</time>
      </trkpt>
      <trkpt lat="46.601647" lon="10.424367">
        <ele>1378.114</ele>
        <time>2022-07-10T06:20:06Z</time>
      </trkpt>
      <trkpt lat="46.601611" lon="10.424310">
        <ele>1377.718</ele>
        <time>2022-07-10T06:20:07Z</time>
      </trkpt>
      <trkpt lat="46.601374" lon="10.423912">
        <ele>1379.619</ele>
        <time>2022-07-10T06:20:18Z</time>
      </trkpt>
      <trkpt lat="46.601212" lon="10.423675">
        <ele>1381.577</ele>
        <time>2022-07-10T06:20:34Z</time>
      </trkpt>
      <trkpt lat="46.601140" lon="10.423579">
        <ele>1382.551</ele>
        <time>2022-07-10T06:20:41Z</time>
      </trkpt>
      <trkpt lat="46.601131" lon="10.423564">
        <ele>1382.594</ele>
        <time>2022-07-10T06:20:42Z</time>
      </trkpt>
      <trkpt lat="46.601121" lon="10.423549">
        <ele>1382.557</ele>
        <time>2022-07-10T06:20:43Z</time>
      </trkpt>
      <trkpt lat="46.601113" lon="10.423539">
        <ele>1382.522</ele>
        <time>2022-07-10T06:20:44Z</time>
      </trkpt>
      <trkpt lat="46.601103" lon="10.423527">
        <ele>1382.909</ele>
        <time>2022-07-10T06:20:45Z</time>
      </trkpt>
      <trkpt lat="46.600965" lon="10.423281">
        <ele>1385.830</ele>
        <time>2022-07-10T06:21:05Z</time>
      </trkpt>
      <trkpt lat="46.600918" lon="10.423093">
        <ele>1387.359</ele>
        <time>2022-07-10T06:21:17Z</time>
      </trkpt>
      <trkpt lat="46.600919" lon="10.423074">
        <ele>1387.397</ele>
        <time>2022-07-10T06:21:18Z</time>
      </trkpt>
      <trkpt lat="46.600920" lon="10.423052">
        <ele>1387.829</ele>
        <time>2022-07-10T06:21:19Z</time>
      </trkpt>
      <trkpt lat="46.600921" lon="10.422890">
        <ele>1389.265</ele>
        <time>2022-07-10T06:21:30Z</time>
      </trkpt>
      <trkpt lat="46.600921" lon="10.422861">
        <ele>1389.299</ele>
        <time>2022-07-10T06:21:32Z</time>
      </trkpt>
      <trkpt lat="46.601019" lon="10.422577">
        <ele>1391.680</ele>
        <time>2022-07-10T06:21:53Z</time>
      </trkpt>
      <trkpt lat="46.601025" lon="10.422565">
        <ele>1391.638</ele>
        <time>2022-07-10T06:21:54Z</time>
      </trkpt>
      <trkpt lat="46.601111" lon="10.422301">
        <ele>1393.572</ele>
        <time>2022-07-10T06:22:11Z</time>
      </trkpt>
      <trkpt lat="46.601070" lon="10.421971">
        <ele>1394.549</ele>
        <time>2022-07-10T06:22:28Z</time>
      </trkpt>
      <trkpt lat="46.600990" lon="10.421634">
        <ele>1396.402</ele>
        <time>2022-07-10T06:22:45Z</time>
      </trkpt>
      <trkpt lat="46.600992" lon="10.421610">
        <ele>1396.422</ele>
        <time>2022-07-10T06:22:46Z</time>
      </trkpt>
      <trkpt lat="46.600991" lon="10.421592">
        <ele>1396.409</ele>
        <time>2022-07-10T06:22:47Z</time>
      </trkpt>
      <trkpt lat="46.600987" lon="10.421570">
        <ele>1396.445</ele>
        <time>2022-07-10T06:22:48Z</time>
      </trkpt>
      <trkpt lat="46.600983" lon="10.421549">
        <ele>1396.424</ele>
        <time>2022-07-10T06:22:49Z</time>
      </trkpt>
      <trkpt lat="46.600978" lon="10.421529">
        <ele>1396.422</ele>
        <time>2022-07-10T06:22:50Z</time>
      </trkpt>
      <trkpt lat="46.600882" lon="10.421177">
        <ele>1398.834</ele>
        <time>2022-07-10T06:23:08Z</time>
      </trkpt>
      <trkpt lat="46.600781" lon="10.420841">
        <ele>1399.830</ele>
        <time>2022-07-10T06:23:25Z</time>
      </trkpt>
      <trkpt lat="46.600694" lon="10.420489">
        <ele>1401.764</ele>
        <time>2022-07-10T06:23:42Z</time>
      </trkpt>
      <trkpt lat="46.600618" lon="10.420082">
        <ele>1403.155</ele>
        <time>2022-07-10T06:24:02Z</time>
      </trkpt>
      <trkpt lat="46.600573" lon="10.419700">
        <ele>1403.183</ele>
        <time>2022-07-10T06:24:19Z</time>
      </trkpt>
      <trkpt lat="46.600560" lon="10.419585">
        <ele>1404.637</ele>
        <time>2022-07-10T06:24:24Z</time>
      </trkpt>
      <trkpt lat="46.600529" lon="10.419123">
        <ele>1406.062</ele>
        <time>2022-07-10T06:24:44Z</time>
      </trkpt>
      <trkpt lat="46.600521" lon="10.418928">
        <ele>1406.083</ele>
        <time>2022-07-10T06:24:52Z</time>
      </trkpt>
      <trkpt lat="46.600526" lon="10.418906">
        <ele>1406.011</ele>
        <time>2022-07-10T06:24:53Z</time>
      </trkpt>
      <trkpt lat="46.600529" lon="10.418884">
        <ele>1406.009</ele>
        <time>2022-07-10T06:24:54Z</time>
      </trkpt>
      <trkpt lat="46.600527" lon="10.418865">
        <ele>1406.047</ele>
        <time>2022-07-10T06:24:55Z</time>
      </trkpt>
      <trkpt lat="46.600520" lon="10.418853">
        <ele>1406.086</ele>
        <time>2022-07-10T06:24:56Z</time>
      </trkpt>
      <trkpt lat="46.600507" lon="10.418846">
        <ele>1406.094</ele>
        <time>2022-07-10T06:24:57Z</time>
      </trkpt>
      <trkpt lat="46.600491" lon="10.418838">
        <ele>1406.096</ele>
        <time>2022-07-10T06:24:58Z</time>
      </trkpt>
      <trkpt lat="46.600480" lon="10.418837">
        <ele>1406.062</ele>
        <time>2022-07-10T06:24:59Z</time>
      </trkpt>
      <trkpt lat="46.600469" lon="10.418833">
        <ele>1406.046</ele>
        <time>2022-07-10T06:25:00Z</time>
      </trkpt>
      <trkpt lat="46.600454" lon="10.418823">
        <ele>1406.577</ele>
        <time>2022-07-10T06:25:01Z</time>
      </trkpt>
      <trkpt lat="46.600439" lon="10.418805">
        <ele>1406.595</ele>
        <time>2022-07-10T06:25:02Z</time>
      </trkpt>
      <trkpt lat="46.600432" lon="10.418788">
        <ele>1406.519</ele>
        <time>2022-07-10T06:25:03Z</time>
      </trkpt>
      <trkpt lat="46.600426" lon="10.418767">
        <ele>1406.599</ele>
        <time>2022-07-10T06:25:04Z</time>
      </trkpt>
      <trkpt lat="46.600379" lon="10.418400">
        <ele>1407.007</ele>
        <time>2022-07-10T06:25:19Z</time>
      </trkpt>
      <trkpt lat="46.600328" lon="10.417921">
        <ele>1408.427</ele>
        <time>2022-07-10T06:25:40Z</time>
      </trkpt>
      <trkpt lat="46.600293" lon="10.417482">
        <ele>1408.909</ele>
        <time>2022-07-10T06:25:58Z</time>
      </trkpt>
      <trkpt lat="46.600257" lon="10.416878">
        <ele>1409.970</ele>
        <time>2022-07-10T06:26:19Z</time>
      </trkpt>
      <trkpt lat="46.600233" lon="10.416356">
        <ele>1410.899</ele>
        <time>2022-07-10T06:26:38Z</time>
      </trkpt>
      <trkpt lat="46.600200" lon="10.416277">
        <ele>1410.897</ele>
        <time>2022-07-10T06:26:54Z</time>
      </trkpt>
      <trkpt lat="46.600196" lon="10.416266">
        <ele>1410.839</ele>
        <time>2022-07-10T06:27:22Z</time>
      </trkpt>
      <trkpt lat="46.600202" lon="10.416296">
        <ele>1411.345</ele>
        <time>2022-07-10T06:27:55Z</time>
      </trkpt>
      <trkpt lat="46.600221" lon="10.416323">
        <ele>1411.399</ele>
        <time>2022-07-10T06:28:38Z</time>
      </trkpt>
      <trkpt lat="46.600207" lon="10.416288">
        <ele>1411.360</ele>
        <time>2022-07-10T06:29:19Z</time>
      </trkpt>
      <trkpt lat="46.600214" lon="10.416304">
        <ele>1411.868</ele>
        <time>2022-07-10T06:30:06Z</time>
      </trkpt>
      <trkpt lat="46.600189" lon="10.416274">
        <ele>1411.882</ele>
        <time>2022-07-10T06:30:43Z</time>
      </trkpt>
      <trkpt lat="46.600176" lon="10.416286">
        <ele>1411.853</ele>
        <time>2022-07-10T06:30:46Z</time>
      </trkpt>
      <trkpt lat="46.600166" lon="10.416295">
        <ele>1411.804</ele>
        <time>2022-07-10T06:30:47Z</time>
      </trkpt>
      <trkpt lat="46.600134" lon="10.416302">
        <ele>1412.314</ele>
        <time>2022-07-10T06:30:52Z</time>
      </trkpt>
      <trkpt lat="46.600126" lon="10.416292">
        <ele>1412.309</ele>
        <time>2022-07-10T06:30:53Z</time>
      </trkpt>
      <trkpt lat="46.600116" lon="10.416284">
        <ele>1412.736</ele>
        <time>2022-07-10T06:30:54Z</time>
      </trkpt>
      <trkpt lat="46.600106" lon="10.416279">
        <ele>1412.765</ele>
        <time>2022-07-10T06:30:55Z</time>
      </trkpt>
      <trkpt lat="46.600096" lon="10.416276">
        <ele>1412.793</ele>
        <time>2022-07-10T06:30:56Z</time>
      </trkpt>
      <trkpt lat="46.599923" lon="10.416196">
        <ele>1415.245</ele>
        <time>2022-07-10T06:31:15Z</time>
      </trkpt>
      <trkpt lat="46.599764" lon="10.416167">
        <ele>1417.611</ele>
        <time>2022-07-10T06:31:34Z</time>
      </trkpt>
      <trkpt lat="46.599619" lon="10.416186">
        <ele>1420.045</ele>
        <time>2022-07-10T06:31:51Z</time>
      </trkpt>
      <trkpt lat="46.599500" lon="10.416246">
        <ele>1421.456</ele>
        <time>2022-07-10T06:32:05Z</time>
      </trkpt>
      <trkpt lat="46.599346" lon="10.416338">
        <ele>1423.334</ele>
        <time>2022-07-10T06:32:23Z</time>
      </trkpt>
      <trkpt lat="46.599163" lon="10.416415">
        <ele>1424.818</ele>
        <time>2022-07-10T06:32:41Z</time>
      </trkpt>
      <trkpt lat="46.598995" lon="10.416527">
        <ele>1427.295</ele>
        <time>2022-07-10T06:33:00Z</time>
      </trkpt>
      <trkpt lat="46.598861" lon="10.416595">
        <ele>1428.149</ele>
        <time>2022-07-10T06:33:14Z</time>
      </trkpt>
      <trkpt lat="46.598746" lon="10.416619">
        <ele>1429.623</ele>
        <time>2022-07-10T06:33:27Z</time>
      </trkpt>
      <trkpt lat="46.598699" lon="10.416568">
        <ele>1430.509</ele>
        <time>2022-07-10T06:33:32Z</time>
      </trkpt>
      <trkpt lat="46.598669" lon="10.416478">
        <ele>1430.550</ele>
        <time>2022-07-10T06:33:39Z</time>
      </trkpt>
      <trkpt lat="46.598672" lon="10.416454">
        <ele>1430.579</ele>
        <time>2022-07-10T06:33:40Z</time>
      </trkpt>
      <trkpt lat="46.598672" lon="10.416435">
        <ele>1430.567</ele>
        <time>2022-07-10T06:33:41Z</time>
      </trkpt>
      <trkpt lat="46.598675" lon="10.416403">
        <ele>1430.519</ele>
        <time>2022-07-10T06:33:42Z</time>
      </trkpt>
      <trkpt lat="46.598680" lon="10.416377">
        <ele>1430.545</ele>
        <time>2022-07-10T06:33:43Z</time>
      </trkpt>
      <trkpt lat="46.598687" lon="10.416346">
        <ele>1430.539</ele>
        <time>2022-07-10T06:33:44Z</time>
      </trkpt>
      <trkpt lat="46.598693" lon="10.416311">
        <ele>1430.520</ele>
        <time>2022-07-10T06:33:45Z</time>
      </trkpt>
      <trkpt lat="46.598695" lon="10.416274">
        <ele>1430.538</ele>
        <time>2022-07-10T06:33:46Z</time>
      </trkpt>
      <trkpt lat="46.598697" lon="10.416237">
        <ele>1430.552</ele>
        <time>2022-07-10T06:33:47Z</time>
      </trkpt>
      <trkpt lat="46.598693" lon="10.416196">
        <ele>1430.595</ele>
        <time>2022-07-10T06:33:48Z</time>
      </trkpt>
      <trkpt lat="46.598688" lon="10.416153">
        <ele>1430.549</ele>
        <time>2022-07-10T06:33:49Z</time>
      </trkpt>
      <trkpt lat="46.598681" lon="10.416109">
        <ele>1430.523</ele>
        <time>2022-07-10T06:33:50Z</time>
      </trkpt>
      <trkpt lat="46.598674" lon="10.416072">
        <ele>1430.509</ele>
        <time>2022-07-10T06:33:51Z</time>
      </trkpt>
      <trkpt lat="46.598668" lon="10.416048">
        <ele>1430.510</ele>
        <time>2022-07-10T06:33:52Z</time>
      </trkpt>
      <trkpt lat="46.598612" lon="10.415934">
        <ele>1431.579</ele>
        <time>2022-07-10T06:34:02Z</time>
      </trkpt>
      <trkpt lat="46.598459" lon="10.415881">
        <ele>1434.437</ele>
        <time>2022-07-10T06:34:23Z</time>
      </trkpt>
      <trkpt lat="46.598311" lon="10.415868">
        <ele>1436.389</ele>
        <time>2022-07-10T06:34:40Z</time>
      </trkpt>
      <trkpt lat="46.598165" lon="10.415879">
        <ele>1437.765</ele>
        <time>2022-07-10T06:34:56Z</time>
      </trkpt>
      <trkpt lat="46.598000" lon="10.415906">
        <ele>1440.659</ele>
        <time>2022-07-10T06:35:15Z</time>
      </trkpt>
      <trkpt lat="46.597836" lon="10.415919">
        <ele>1442.110</ele>
        <time>2022-07-10T06:35:32Z</time>
      </trkpt>
      <trkpt lat="46.597699" lon="10.415930">
        <ele>1444.098</ele>
        <time>2022-07-10T06:35:47Z</time>
      </trkpt>
      <trkpt lat="46.597532" lon="10.415909">
        <ele>1446.452</ele>
        <time>2022-07-10T06:36:05Z</time>
      </trkpt>
      <trkpt lat="46.597398" lon="10.415879">
        <ele>1447.895</ele>
        <time>2022-07-10T06:36:21Z</time>
      </trkpt>
      <trkpt lat="46.597244" lon="10.415862">
        <ele>1449.349</ele>
        <time>2022-07-10T06:36:37Z</time>
      </trkpt>
      <trkpt lat="46.597112" lon="10.415909">
        <ele>1452.223</ele>
        <time>2022-07-10T06:36:53Z</time>
      </trkpt>
      <trkpt lat="46.596946" lon="10.415972">
        <ele>1454.109</ele>
        <time>2022-07-10T06:37:11Z</time>
      </trkpt>
      <trkpt lat="46.596810" lon="10.416037">
        <ele>1456.530</ele>
        <time>2022-07-10T06:37:29Z</time>
      </trkpt>
      <trkpt lat="46.596691" lon="10.416015">
        <ele>1458.449</ele>
        <time>2022-07-10T06:37:41Z</time>
      </trkpt>
      <trkpt lat="46.596574" lon="10.415860">
        <ele>1459.947</ele>
        <time>2022-07-10T06:37:57Z</time>
      </trkpt>
      <trkpt lat="46.596518" lon="10.415630">
        <ele>1461.869</ele>
        <time>2022-07-10T06:38:13Z</time>
      </trkpt>
      <trkpt lat="46.596471" lon="10.415431">
        <ele>1463.225</ele>
        <time>2022-07-10T06:38:40Z</time>
      </trkpt>
      <trkpt lat="46.596450" lon="10.415267">
        <ele>1465.129</ele>
        <time>2022-07-10T06:44:00Z</time>
      </trkpt>
      <trkpt lat="46.596399" lon="10.415003">
        <ele>1467.130</ele>
        <time>2022-07-10T06:44:16Z</time>
      </trkpt>
      <trkpt lat="46.596344" lon="10.414741">
        <ele>1468.538</ele>
        <time>2022-07-10T06:44:33Z</time>
      </trkpt>
      <trkpt lat="46.596338" lon="10.414729">
        <ele>1468.592</ele>
        <time>2022-07-10T06:44:34Z</time>
      </trkpt>
      <trkpt lat="46.596239" lon="10.414500">
        <ele>1470.924</ele>
        <time>2022-07-10T06:44:53Z</time>
      </trkpt>
      <trkpt lat="46.596114" lon="10.414362">
        <ele>1473.804</ele>
        <time>2022-07-10T06:45:10Z</time>
      </trkpt>
      <trkpt lat="46.595994" lon="10.414259">
        <ele>1475.214</ele>
        <time>2022-07-10T06:45:27Z</time>
      </trkpt>
      <trkpt lat="46.595846" lon="10.414164">
        <ele>1477.609</ele>
        <time>2022-07-10T06:45:45Z</time>
      </trkpt>
      <trkpt lat="46.595681" lon="10.414090">
        <ele>1479.673</ele>
        <time>2022-07-10T06:46:04Z</time>
      </trkpt>
      <trkpt lat="46.595537" lon="10.414050">
        <ele>1482.022</ele>
        <time>2022-07-10T06:46:20Z</time>
      </trkpt>
      <trkpt lat="46.595419" lon="10.414054">
        <ele>1483.470</ele>
        <time>2022-07-10T06:46:33Z</time>
      </trkpt>
      <trkpt lat="46.595320" lon="10.413931">
        <ele>1485.352</ele>
        <time>2022-07-10T06:46:48Z</time>
      </trkpt>
      <trkpt lat="46.595235" lon="10.413808">
        <ele>1487.348</ele>
        <time>2022-07-10T06:47:03Z</time>
      </trkpt>
      <trkpt lat="46.595145" lon="10.413652">
        <ele>1489.242</ele>
        <time>2022-07-10T06:47:19Z</time>
      </trkpt>
      <trkpt lat="46.595050" lon="10.413489">
        <ele>1491.653</ele>
        <time>2022-07-10T06:47:36Z</time>
      </trkpt>
      <trkpt lat="46.594971" lon="10.413344">
        <ele>1493.581</ele>
        <time>2022-07-10T06:47:51Z</time>
      </trkpt>
      <trkpt lat="46.594915" lon="10.413194">
        <ele>1495.975</ele>
        <time>2022-07-10T06:48:06Z</time>
      </trkpt>
      <trkpt lat="46.594831" lon="10.413012">
        <ele>1498.334</ele>
        <time>2022-07-10T06:48:23Z</time>
      </trkpt>
      <trkpt lat="46.594735" lon="10.412825">
        <ele>1501.255</ele>
        <time>2022-07-10T06:48:41Z</time>
      </trkpt>
      <trkpt lat="46.594698" lon="10.412721">
        <ele>1502.610</ele>
        <time>2022-07-10T06:48:53Z</time>
      </trkpt>
      <trkpt lat="46.594586" lon="10.412577">
        <ele>1504.609</ele>
        <time>2022-07-10T06:49:10Z</time>
      </trkpt>
      <trkpt lat="46.594502" lon="10.412402">
        <ele>1507.964</ele>
        <time>2022-07-10T06:49:29Z</time>
      </trkpt>
      <trkpt lat="46.594455" lon="10.412252">
        <ele>1509.483</ele>
        <time>2022-07-10T06:49:45Z</time>
      </trkpt>
      <trkpt lat="46.594418" lon="10.412111">
        <ele>1511.821</ele>
        <time>2022-07-10T06:49:58Z</time>
      </trkpt>
      <trkpt lat="46.594385" lon="10.411960">
        <ele>1514.253</ele>
        <time>2022-07-10T06:50:12Z</time>
      </trkpt>
      <trkpt lat="46.594371" lon="10.411794">
        <ele>1516.169</ele>
        <time>2022-07-10T06:50:28Z</time>
      </trkpt>
      <trkpt lat="46.594330" lon="10.411590">
        <ele>1519.033</ele>
        <time>2022-07-10T06:50:45Z</time>
      </trkpt>
      <trkpt lat="46.594247" lon="10.411420">
        <ele>1521.474</ele>
        <time>2022-07-10T06:51:00Z</time>
      </trkpt>
      <trkpt lat="46.594142" lon="10.411285">
        <ele>1523.382</ele>
        <time>2022-07-10T06:51:16Z</time>
      </trkpt>
      <trkpt lat="46.594036" lon="10.411149">
        <ele>1525.786</ele>
        <time>2022-07-10T06:51:33Z</time>
      </trkpt>
      <trkpt lat="46.593930" lon="10.411008">
        <ele>1527.649</ele>
        <time>2022-07-10T06:51:50Z</time>
      </trkpt>
      <trkpt lat="46.593825" lon="10.410845">
        <ele>1530.002</ele>
        <time>2022-07-10T06:52:08Z</time>
      </trkpt>
      <trkpt lat="46.593746" lon="10.410750">
        <ele>1532.022</ele>
        <time>2022-07-10T06:52:21Z</time>
      </trkpt>
      <trkpt lat="46.593640" lon="10.410640">
        <ele>1533.909</ele>
        <time>2022-07-10T06:52:37Z</time>
      </trkpt>
      <trkpt lat="46.593607" lon="10.410636">
        <ele>1533.935</ele>
        <time>2022-07-10T06:52:41Z</time>
      </trkpt>
      <trkpt lat="46.593534" lon="10.410633">
        <ele>1534.874</ele>
        <time>2022-07-10T06:52:49Z</time>
      </trkpt>
      <trkpt lat="46.593488" lon="10.410611">
        <ele>1536.332</ele>
        <time>2022-07-10T06:52:55Z</time>
      </trkpt>
      <trkpt lat="46.593447" lon="10.410520">
        <ele>1537.274</ele>
        <time>2022-07-10T06:53:05Z</time>
      </trkpt>
      <trkpt lat="46.593453" lon="10.410345">
        <ele>1539.270</ele>
        <time>2022-07-10T06:53:19Z</time>
      </trkpt>
      <trkpt lat="46.593465" lon="10.410188">
        <ele>1540.164</ele>
        <time>2022-07-10T06:53:36Z</time>
      </trkpt>
      <trkpt lat="46.593458" lon="10.410162">
        <ele>1540.675</ele>
        <time>2022-07-10T06:54:06Z</time>
      </trkpt>
      <trkpt lat="46.593451" lon="10.410001">
        <ele>1541.633</ele>
        <time>2022-07-10T06:54:18Z</time>
      </trkpt>
      <trkpt lat="46.593376" lon="10.409840">
        <ele>1543.577</ele>
        <time>2022-07-10T06:54:33Z</time>
      </trkpt>
      <trkpt lat="46.593280" lon="10.409757">
        <ele>1545.455</ele>
        <time>2022-07-10T06:54:47Z</time>
      </trkpt>
      <trkpt lat="46.593129" lon="10.409667">
        <ele>1547.307</ele>
        <time>2022-07-10T06:55:05Z</time>
      </trkpt>
      <trkpt lat="46.593102" lon="10.409586">
        <ele>1548.317</ele>
        <time>2022-07-10T06:55:12Z</time>
      </trkpt>
      <trkpt lat="46.593115" lon="10.409404">
        <ele>1550.209</ele>
        <time>2022-07-10T06:55:28Z</time>
      </trkpt>
      <trkpt lat="46.593155" lon="10.409234">
        <ele>1552.616</ele>
        <time>2022-07-10T06:55:43Z</time>
      </trkpt>
      <trkpt lat="46.593181" lon="10.409004">
        <ele>1554.535</ele>
        <time>2022-07-10T06:56:01Z</time>
      </trkpt>
      <trkpt lat="46.593210" lon="10.408854">
        <ele>1556.953</ele>
        <time>2022-07-10T06:56:14Z</time>
      </trkpt>
      <trkpt lat="46.593245" lon="10.408685">
        <ele>1558.945</ele>
        <time>2022-07-10T06:56:29Z</time>
      </trkpt>
      <trkpt lat="46.593282" lon="10.408481">
        <ele>1560.881</ele>
        <time>2022-07-10T06:56:46Z</time>
      </trkpt>
      <trkpt lat="46.593308" lon="10.408339">
        <ele>1562.775</ele>
        <time>2022-07-10T06:56:59Z</time>
      </trkpt>
      <trkpt lat="46.593335" lon="10.408156">
        <ele>1565.176</ele>
        <time>2022-07-10T06:57:15Z</time>
      </trkpt>
      <trkpt lat="46.593293" lon="10.407956">
        <ele>1567.564</ele>
        <time>2022-07-10T06:57:33Z</time>
      </trkpt>
      <trkpt lat="46.593197" lon="10.407864">
        <ele>1569.428</ele>
        <time>2022-07-10T06:57:47Z</time>
      </trkpt>
      <trkpt lat="46.593095" lon="10.407845">
        <ele>1571.891</ele>
        <time>2022-07-10T06:58:02Z</time>
      </trkpt>
      <trkpt lat="46.592978" lon="10.407886">
        <ele>1573.881</ele>
        <time>2022-07-10T06:58:18Z</time>
      </trkpt>
      <trkpt lat="46.592857" lon="10.407871">
        <ele>1576.219</ele>
        <time>2022-07-10T06:58:33Z</time>
      </trkpt>
      <trkpt lat="46.592743" lon="10.407867">
        <ele>1578.609</ele>
        <time>2022-07-10T06:58:48Z</time>
      </trkpt>
      <trkpt lat="46.592679" lon="10.407704">
        <ele>1581.030</ele>
        <time>2022-07-10T06:59:05Z</time>
      </trkpt>
      <trkpt lat="46.592667" lon="10.407465">
        <ele>1583.479</ele>
        <time>2022-07-10T06:59:25Z</time>
      </trkpt>
      <trkpt lat="46.592617" lon="10.407352">
        <ele>1584.817</ele>
        <time>2022-07-10T06:59:36Z</time>
      </trkpt>
      <trkpt lat="46.592478" lon="10.407382">
        <ele>1586.749</ele>
        <time>2022-07-10T06:59:53Z</time>
      </trkpt>
      <trkpt lat="46.592398" lon="10.407344">
        <ele>1588.215</ele>
        <time>2022-07-10T07:00:03Z</time>
      </trkpt>
      <trkpt lat="46.592311" lon="10.407246">
        <ele>1590.629</ele>
        <time>2022-07-10T07:00:16Z</time>
      </trkpt>
      <trkpt lat="46.592285" lon="10.407089">
        <ele>1592.530</ele>
        <time>2022-07-10T07:00:31Z</time>
      </trkpt>
      <trkpt lat="46.592242" lon="10.406932">
        <ele>1594.448</ele>
        <time>2022-07-10T07:00:46Z</time>
      </trkpt>
      <trkpt lat="46.592221" lon="10.406792">
        <ele>1596.482</ele>
        <time>2022-07-10T07:00:58Z</time>
      </trkpt>
      <trkpt lat="46.592173" lon="10.406615">
        <ele>1598.394</ele>
        <time>2022-07-10T07:01:13Z</time>
      </trkpt>
      <trkpt lat="46.592120" lon="10.406435">
        <ele>1600.757</ele>
        <time>2022-07-10T07:01:30Z</time>
      </trkpt>
      <trkpt lat="46.592093" lon="10.406267">
        <ele>1603.122</ele>
        <time>2022-07-10T07:01:46Z</time>
      </trkpt>
      <trkpt lat="46.592059" lon="10.406123">
        <ele>1605.009</ele>
        <time>2022-07-10T07:02:00Z</time>
      </trkpt>
      <trkpt lat="46.591996" lon="10.405994">
        <ele>1606.980</ele>
        <time>2022-07-10T07:02:15Z</time>
      </trkpt>
      <trkpt lat="46.591882" lon="10.405939">
        <ele>1609.369</ele>
        <time>2022-07-10T07:02:32Z</time>
      </trkpt>
      <trkpt lat="46.591761" lon="10.405879">
        <ele>1611.737</ele>
        <time>2022-07-10T07:02:49Z</time>
      </trkpt>
      <trkpt lat="46.591703" lon="10.405854">
        <ele>1612.229</ele>
        <time>2022-07-10T07:04:59Z</time>
      </trkpt>
      <trkpt lat="46.591717" lon="10.405816">
        <ele>1612.735</ele>
        <time>2022-07-10T07:05:02Z</time>
      </trkpt>
      <trkpt lat="46.591720" lon="10.405801">
        <ele>1612.759</ele>
        <time>2022-07-10T07:05:03Z</time>
      </trkpt>
      <trkpt lat="46.591711" lon="10.405731">
        <ele>1613.720</ele>
        <time>2022-07-10T07:05:08Z</time>
      </trkpt>
      <trkpt lat="46.591704" lon="10.405638">
        <ele>1615.118</ele>
        <time>2022-07-10T07:05:15Z</time>
      </trkpt>
      <trkpt lat="46.591697" lon="10.405494">
        <ele>1617.542</ele>
        <time>2022-07-10T07:05:27Z</time>
      </trkpt>
      <trkpt lat="46.591614" lon="10.405383">
        <ele>1619.992</ele>
        <time>2022-07-10T07:05:42Z</time>
      </trkpt>
      <trkpt lat="46.591510" lon="10.405432">
        <ele>1621.473</ele>
        <time>2022-07-10T07:05:57Z</time>
      </trkpt>
      <trkpt lat="46.591414" lon="10.405491">
        <ele>1623.320</ele>
        <time>2022-07-10T07:06:11Z</time>
      </trkpt>
      <trkpt lat="46.591307" lon="10.405512">
        <ele>1626.209</ele>
        <time>2022-07-10T07:06:27Z</time>
      </trkpt>
      <trkpt lat="46.591211" lon="10.405455">
        <ele>1628.660</ele>
        <time>2022-07-10T07:06:42Z</time>
      </trkpt>
      <trkpt lat="46.591179" lon="10.405284">
        <ele>1630.069</ele>
        <time>2022-07-10T07:06:57Z</time>
      </trkpt>
      <trkpt lat="46.591234" lon="10.405132">
        <ele>1632.417</ele>
        <time>2022-07-10T07:07:13Z</time>
      </trkpt>
      <trkpt lat="46.591300" lon="10.404999">
        <ele>1634.829</ele>
        <time>2022-07-10T07:07:28Z</time>
      </trkpt>
      <trkpt lat="46.591310" lon="10.404962">
        <ele>1634.825</ele>
        <time>2022-07-10T07:07:31Z</time>
      </trkpt>
      <trkpt lat="46.591263" lon="10.404796">
        <ele>1636.729</ele>
        <time>2022-07-10T07:07:45Z</time>
      </trkpt>
      <trkpt lat="46.591170" lon="10.404662">
        <ele>1638.730</ele>
        <time>2022-07-10T07:08:00Z</time>
      </trkpt>
      <trkpt lat="46.591077" lon="10.404528">
        <ele>1640.188</ele>
        <time>2022-07-10T07:08:14Z</time>
      </trkpt>
      <trkpt lat="46.590990" lon="10.404351">
        <ele>1642.082</ele>
        <time>2022-07-10T07:08:31Z</time>
      </trkpt>
      <trkpt lat="46.590916" lon="10.404198">
        <ele>1643.935</ele>
        <time>2022-07-10T07:08:45Z</time>
      </trkpt>
      <trkpt lat="46.590820" lon="10.404073">
        <ele>1645.986</ele>
        <time>2022-07-10T07:09:00Z</time>
      </trkpt>
      <trkpt lat="46.590673" lon="10.403966">
        <ele>1648.314</ele>
        <time>2022-07-10T07:09:18Z</time>
      </trkpt>
      <trkpt lat="46.590564" lon="10.403889">
        <ele>1650.209</ele>
        <time>2022-07-10T07:09:33Z</time>
      </trkpt>
      <trkpt lat="46.590473" lon="10.403869">
        <ele>1652.194</ele>
        <time>2022-07-10T07:09:45Z</time>
      </trkpt>
      <trkpt lat="46.590411" lon="10.403960">
        <ele>1653.163</ele>
        <time>2022-07-10T07:09:55Z</time>
      </trkpt>
      <trkpt lat="46.590408" lon="10.403972">
        <ele>1653.111</ele>
        <time>2022-07-10T07:09:56Z</time>
      </trkpt>
      <trkpt lat="46.590408" lon="10.403987">
        <ele>1653.113</ele>
        <time>2022-07-10T07:09:57Z</time>
      </trkpt>
      <trkpt lat="46.590407" lon="10.404002">
        <ele>1653.629</ele>
        <time>2022-07-10T07:09:58Z</time>
      </trkpt>
      <trkpt lat="46.590406" lon="10.404016">
        <ele>1653.623</ele>
        <time>2022-07-10T07:09:59Z</time>
      </trkpt>
      <trkpt lat="46.590410" lon="10.404069">
        <ele>1653.614</ele>
        <time>2022-07-10T07:10:03Z</time>
      </trkpt>
      <trkpt lat="46.590414" lon="10.404086">
        <ele>1654.012</ele>
        <time>2022-07-10T07:10:04Z</time>
      </trkpt>
      <trkpt lat="46.590420" lon="10.404098">
        <ele>1654.036</ele>
        <time>2022-07-10T07:10:05Z</time>
      </trkpt>
      <trkpt lat="46.590427" lon="10.404114">
        <ele>1654.075</ele>
        <time>2022-07-10T07:10:06Z</time>
      </trkpt>
      <trkpt lat="46.590434" lon="10.404125">
        <ele>1654.028</ele>
        <time>2022-07-10T07:10:07Z</time>
      </trkpt>
      <trkpt lat="46.590487" lon="10.404200">
        <ele>1654.520</ele>
        <time>2022-07-10T07:10:14Z</time>
      </trkpt>
      <trkpt lat="46.590502" lon="10.404236">
        <ele>1655.009</ele>
        <time>2022-07-10T07:10:17Z</time>
      </trkpt>
      <trkpt lat="46.590508" lon="10.404249">
        <ele>1655.088</ele>
        <time>2022-07-10T07:10:18Z</time>
      </trkpt>
      <trkpt lat="46.590601" lon="10.404398">
        <ele>1656.957</ele>
        <time>2022-07-10T07:10:32Z</time>
      </trkpt>
      <trkpt lat="46.590611" lon="10.404510">
        <ele>1658.425</ele>
        <time>2022-07-10T07:10:42Z</time>
      </trkpt>
      <trkpt lat="46.590537" lon="10.404586">
        <ele>1659.327</ele>
        <time>2022-07-10T07:10:52Z</time>
      </trkpt>
      <trkpt lat="46.590527" lon="10.404582">
        <ele>1659.333</ele>
        <time>2022-07-10T07:10:53Z</time>
      </trkpt>
      <trkpt lat="46.590517" lon="10.404576">
        <ele>1659.367</ele>
        <time>2022-07-10T07:10:54Z</time>
      </trkpt>
      <trkpt lat="46.590507" lon="10.404571">
        <ele>1659.368</ele>
        <time>2022-07-10T07:10:55Z</time>
      </trkpt>
      <trkpt lat="46.590354" lon="10.404457">
        <ele>1661.746</ele>
        <time>2022-07-10T07:11:13Z</time>
      </trkpt>
      <trkpt lat="46.590346" lon="10.404431">
        <ele>1662.210</ele>
        <time>2022-07-10T07:11:15Z</time>
      </trkpt>
      <trkpt lat="46.590196" lon="10.404311">
        <ele>1664.117</ele>
        <time>2022-07-10T07:11:32Z</time>
      </trkpt>
      <trkpt lat="46.590074" lon="10.404227">
        <ele>1666.187</ele>
        <time>2022-07-10T07:11:46Z</time>
      </trkpt>
      <trkpt lat="46.589962" lon="10.404144">
        <ele>1667.515</ele>
        <time>2022-07-10T07:12:00Z</time>
      </trkpt>
      <trkpt lat="46.589821" lon="10.404022">
        <ele>1669.909</ele>
        <time>2022-07-10T07:12:17Z</time>
      </trkpt>
      <trkpt lat="46.589703" lon="10.403929">
        <ele>1671.832</ele>
        <time>2022-07-10T07:12:34Z</time>
      </trkpt>
      <trkpt lat="46.589581" lon="10.403846">
        <ele>1673.741</ele>
        <time>2022-07-10T07:12:50Z</time>
      </trkpt>
      <trkpt lat="46.589454" lon="10.403763">
        <ele>1675.799</ele>
        <time>2022-07-10T07:13:06Z</time>
      </trkpt>
      <trkpt lat="46.589343" lon="10.403625">
        <ele>1678.181</ele>
        <time>2022-07-10T07:13:22Z</time>
      </trkpt>
      <trkpt lat="46.589327" lon="10.403512">
        <ele>1679.057</ele>
        <time>2022-07-10T07:13:31Z</time>
      </trkpt>
      <trkpt lat="46.589328" lon="10.403496">
        <ele>1679.091</ele>
        <time>2022-07-10T07:13:32Z</time>
      </trkpt>
      <trkpt lat="46.589328" lon="10.403463">
        <ele>1679.012</ele>
        <time>2022-07-10T07:13:34Z</time>
      </trkpt>
      <trkpt lat="46.589334" lon="10.403444">
        <ele>1679.050</ele>
        <time>2022-07-10T07:13:35Z</time>
      </trkpt>
      <trkpt lat="46.589342" lon="10.403418">
        <ele>1679.064</ele>
        <time>2022-07-10T07:13:36Z</time>
      </trkpt>
      <trkpt lat="46.589345" lon="10.403404">
        <ele>1679.035</ele>
        <time>2022-07-10T07:13:37Z</time>
      </trkpt>
      <trkpt lat="46.589348" lon="10.403387">
        <ele>1679.086</ele>
        <time>2022-07-10T07:13:38Z</time>
      </trkpt>
      <trkpt lat="46.589475" lon="10.403064">
        <ele>1679.014</ele>
        <time>2022-07-10T07:13:50Z</time>
      </trkpt>
      <trkpt lat="46.589531" lon="10.402868">
        <ele>1680.009</ele>
        <time>2022-07-10T07:14:02Z</time>
      </trkpt>
      <trkpt lat="46.589540" lon="10.402854">
        <ele>1680.594</ele>
        <time>2022-07-10T07:14:03Z</time>
      </trkpt>
      <trkpt lat="46.589591" lon="10.402447">
        <ele>1679.573</ele>
        <time>2022-07-10T07:14:14Z</time>
      </trkpt>
      <trkpt lat="46.589587" lon="10.402396">
        <ele>1680.551</ele>
        <time>2022-07-10T07:14:18Z</time>
      </trkpt>
      <trkpt lat="46.589586" lon="10.402386">
        <ele>1680.553</ele>
        <time>2022-07-10T07:14:19Z</time>
      </trkpt>
      <trkpt lat="46.589584" lon="10.402357">
        <ele>1680.569</ele>
        <time>2022-07-10T07:14:21Z</time>
      </trkpt>
      <trkpt lat="46.589584" lon="10.402342">
        <ele>1681.063</ele>
        <time>2022-07-10T07:14:22Z</time>
      </trkpt>
      <trkpt lat="46.589585" lon="10.402299">
        <ele>1681.414</ele>
        <time>2022-07-10T07:14:25Z</time>
      </trkpt>
      <trkpt lat="46.589548" lon="10.402039">
        <ele>1683.452</ele>
        <time>2022-07-10T07:14:41Z</time>
      </trkpt>
      <trkpt lat="46.589483" lon="10.401759">
        <ele>1685.816</ele>
        <time>2022-07-10T07:15:00Z</time>
      </trkpt>
      <trkpt lat="46.589457" lon="10.401610">
        <ele>1686.726</ele>
        <time>2022-07-10T07:15:10Z</time>
      </trkpt>
      <trkpt lat="46.589485" lon="10.401388">
        <ele>1688.247</ele>
        <time>2022-07-10T07:15:26Z</time>
      </trkpt>
      <trkpt lat="46.589449" lon="10.401164">
        <ele>1689.111</ele>
        <time>2022-07-10T07:15:39Z</time>
      </trkpt>
      <trkpt lat="46.589450" lon="10.401082">
        <ele>1691.109</ele>
        <time>2022-07-10T07:15:45Z</time>
      </trkpt>
      <trkpt lat="46.589408" lon="10.400903">
        <ele>1692.073</ele>
        <time>2022-07-10T07:16:00Z</time>
      </trkpt>
      <trkpt lat="46.589373" lon="10.400690">
        <ele>1693.522</ele>
        <time>2022-07-10T07:16:14Z</time>
      </trkpt>
      <trkpt lat="46.589330" lon="10.400529">
        <ele>1695.480</ele>
        <time>2022-07-10T07:16:28Z</time>
      </trkpt>
      <trkpt lat="46.589299" lon="10.400330">
        <ele>1696.842</ele>
        <time>2022-07-10T07:16:44Z</time>
      </trkpt>
      <trkpt lat="46.589248" lon="10.400168">
        <ele>1699.298</ele>
        <time>2022-07-10T07:16:59Z</time>
      </trkpt>
      <trkpt lat="46.589144" lon="10.399957">
        <ele>1701.162</ele>
        <time>2022-07-10T07:17:16Z</time>
      </trkpt>
      <trkpt lat="46.589055" lon="10.399825">
        <ele>1702.693</ele>
        <time>2022-07-10T07:17:31Z</time>
      </trkpt>
      <trkpt lat="46.588954" lon="10.399633">
        <ele>1705.041</ele>
        <time>2022-07-10T07:17:50Z</time>
      </trkpt>
      <trkpt lat="46.588895" lon="10.399487">
        <ele>1706.985</ele>
        <time>2022-07-10T07:18:05Z</time>
      </trkpt>
      <trkpt lat="46.588873" lon="10.399328">
        <ele>1708.883</ele>
        <time>2022-07-10T07:18:20Z</time>
      </trkpt>
      <trkpt lat="46.588826" lon="10.399155">
        <ele>1710.325</ele>
        <time>2022-07-10T07:18:34Z</time>
      </trkpt>
      <trkpt lat="46.588773" lon="10.398980">
        <ele>1712.717</ele>
        <time>2022-07-10T07:18:50Z</time>
      </trkpt>
      <trkpt lat="46.588707" lon="10.398779">
        <ele>1714.609</ele>
        <time>2022-07-10T07:19:07Z</time>
      </trkpt>
      <trkpt lat="46.588654" lon="10.398605">
        <ele>1716.029</ele>
        <time>2022-07-10T07:19:22Z</time>
      </trkpt>
      <trkpt lat="46.588634" lon="10.398514">
        <ele>1717.078</ele>
        <time>2022-07-10T07:19:29Z</time>
      </trkpt>
      <trkpt lat="46.588605" lon="10.398417">
        <ele>1717.546</ele>
        <time>2022-07-10T07:19:36Z</time>
      </trkpt>
      <trkpt lat="46.588521" lon="10.398187">
        <ele>1718.918</ele>
        <time>2022-07-10T07:19:54Z</time>
      </trkpt>
      <trkpt lat="46.588427" lon="10.397997">
        <ele>1720.934</ele>
        <time>2022-07-10T07:20:10Z</time>
      </trkpt>
      <trkpt lat="46.588364" lon="10.397840">
        <ele>1722.328</ele>
        <time>2022-07-10T07:20:24Z</time>
      </trkpt>
      <trkpt lat="46.588278" lon="10.397668">
        <ele>1724.749</ele>
        <time>2022-07-10T07:20:40Z</time>
      </trkpt>
      <trkpt lat="46.588159" lon="10.397456">
        <ele>1726.687</ele>
        <time>2022-07-10T07:20:59Z</time>
      </trkpt>
      <trkpt lat="46.588046" lon="10.397338">
        <ele>1728.151</ele>
        <time>2022-07-10T07:21:15Z</time>
      </trkpt>
      <trkpt lat="46.587981" lon="10.397187">
        <ele>1729.012</ele>
        <time>2022-07-10T07:21:27Z</time>
      </trkpt>
      <trkpt lat="46.587967" lon="10.397097">
        <ele>1730.032</ele>
        <time>2022-07-10T07:21:34Z</time>
      </trkpt>
      <trkpt lat="46.587903" lon="10.396871">
        <ele>1731.405</ele>
        <time>2022-07-10T07:21:50Z</time>
      </trkpt>
      <trkpt lat="46.587862" lon="10.396720">
        <ele>1732.909</ele>
        <time>2022-07-10T07:22:03Z</time>
      </trkpt>
      <trkpt lat="46.587771" lon="10.396485">
        <ele>1734.382</ele>
        <time>2022-07-10T07:22:18Z</time>
      </trkpt>
      <trkpt lat="46.587662" lon="10.396259">
        <ele>1735.841</ele>
        <time>2022-07-10T07:22:33Z</time>
      </trkpt>
      <trkpt lat="46.587586" lon="10.396068">
        <ele>1735.869</ele>
        <time>2022-07-10T07:22:47Z</time>
      </trkpt>
      <trkpt lat="46.587576" lon="10.395991">
        <ele>1736.271</ele>
        <time>2022-07-10T07:24:00Z</time>
      </trkpt>
      <trkpt lat="46.587546" lon="10.395974">
        <ele>1736.277</ele>
        <time>2022-07-10T07:25:10Z</time>
      </trkpt>
      <trkpt lat="46.587546" lon="10.395957">
        <ele>1736.261</ele>
        <time>2022-07-10T07:25:11Z</time>
      </trkpt>
      <trkpt lat="46.587542" lon="10.395941">
        <ele>1736.262</ele>
        <time>2022-07-10T07:25:12Z</time>
      </trkpt>
      <trkpt lat="46.587534" lon="10.395926">
        <ele>1736.220</ele>
        <time>2022-07-10T07:25:13Z</time>
      </trkpt>
      <trkpt lat="46.587526" lon="10.395910">
        <ele>1736.214</ele>
        <time>2022-07-10T07:25:14Z</time>
      </trkpt>
      <trkpt lat="46.587403" lon="10.395672">
        <ele>1737.287</ele>
        <time>2022-07-10T07:25:28Z</time>
      </trkpt>
      <trkpt lat="46.587293" lon="10.395499">
        <ele>1738.242</ele>
        <time>2022-07-10T07:25:40Z</time>
      </trkpt>
      <trkpt lat="46.587284" lon="10.395484">
        <ele>1738.626</ele>
        <time>2022-07-10T07:25:41Z</time>
      </trkpt>
      <trkpt lat="46.587276" lon="10.395469">
        <ele>1738.609</ele>
        <time>2022-07-10T07:25:42Z</time>
      </trkpt>
      <trkpt lat="46.587268" lon="10.395454">
        <ele>1738.649</ele>
        <time>2022-07-10T07:25:43Z</time>
      </trkpt>
      <trkpt lat="46.587263" lon="10.395438">
        <ele>1738.688</ele>
        <time>2022-07-10T07:25:44Z</time>
      </trkpt>
      <trkpt lat="46.587257" lon="10.395420">
        <ele>1738.626</ele>
        <time>2022-07-10T07:25:45Z</time>
      </trkpt>
      <trkpt lat="46.587247" lon="10.395403">
        <ele>1738.638</ele>
        <time>2022-07-10T07:25:46Z</time>
      </trkpt>
      <trkpt lat="46.587236" lon="10.395390">
        <ele>1738.634</ele>
        <time>2022-07-10T07:25:47Z</time>
      </trkpt>
      <trkpt lat="46.587223" lon="10.395377">
        <ele>1738.668</ele>
        <time>2022-07-10T07:25:48Z</time>
      </trkpt>
      <trkpt lat="46.587211" lon="10.395366">
        <ele>1738.639</ele>
        <time>2022-07-10T07:25:49Z</time>
      </trkpt>
      <trkpt lat="46.587198" lon="10.395356">
        <ele>1739.147</ele>
        <time>2022-07-10T07:25:50Z</time>
      </trkpt>
      <trkpt lat="46.587187" lon="10.395343">
        <ele>1739.181</ele>
        <time>2022-07-10T07:25:51Z</time>
      </trkpt>
      <trkpt lat="46.587174" lon="10.395326">
        <ele>1739.161</ele>
        <time>2022-07-10T07:25:52Z</time>
      </trkpt>
      <trkpt lat="46.587168" lon="10.395316">
        <ele>1739.121</ele>
        <time>2022-07-10T07:25:53Z</time>
      </trkpt>
      <trkpt lat="46.587156" lon="10.395301">
        <ele>1739.113</ele>
        <time>2022-07-10T07:25:54Z</time>
      </trkpt>
      <trkpt lat="46.587143" lon="10.395286">
        <ele>1739.109</ele>
        <time>2022-07-10T07:25:55Z</time>
      </trkpt>
      <trkpt lat="46.587130" lon="10.395270">
        <ele>1739.137</ele>
        <time>2022-07-10T07:25:56Z</time>
      </trkpt>
      <trkpt lat="46.587117" lon="10.395249">
        <ele>1739.166</ele>
        <time>2022-07-10T07:25:57Z</time>
      </trkpt>
      <trkpt lat="46.586899" lon="10.395012">
        <ele>1741.054</ele>
        <time>2022-07-10T07:26:15Z</time>
      </trkpt>
      <trkpt lat="46.586733" lon="10.394768">
        <ele>1741.536</ele>
        <time>2022-07-10T07:26:31Z</time>
      </trkpt>
      <trkpt lat="46.586511" lon="10.394608">
        <ele>1743.022</ele>
        <time>2022-07-10T07:26:47Z</time>
      </trkpt>
      <trkpt lat="46.586365" lon="10.394525">
        <ele>1743.456</ele>
        <time>2022-07-10T07:27:03Z</time>
      </trkpt>
      <trkpt lat="46.586300" lon="10.394506">
        <ele>1743.927</ele>
        <time>2022-07-10T07:27:37Z</time>
      </trkpt>
      <trkpt lat="46.586140" lon="10.394431">
        <ele>1745.485</ele>
        <time>2022-07-10T07:27:50Z</time>
      </trkpt>
      <trkpt lat="46.586031" lon="10.394388">
        <ele>1746.899</ele>
        <time>2022-07-10T07:27:59Z</time>
      </trkpt>
      <trkpt lat="46.586022" lon="10.394383">
        <ele>1746.856</ele>
        <time>2022-07-10T07:28:00Z</time>
      </trkpt>
      <trkpt lat="46.586012" lon="10.394383">
        <ele>1746.859</ele>
        <time>2022-07-10T07:28:01Z</time>
      </trkpt>
      <trkpt lat="46.586000" lon="10.394378">
        <ele>1747.314</ele>
        <time>2022-07-10T07:28:02Z</time>
      </trkpt>
      <trkpt lat="46.585985" lon="10.394377">
        <ele>1747.309</ele>
        <time>2022-07-10T07:28:03Z</time>
      </trkpt>
      <trkpt lat="46.585789" lon="10.394367">
        <ele>1748.776</ele>
        <time>2022-07-10T07:28:18Z</time>
      </trkpt>
      <trkpt lat="46.585554" lon="10.394294">
        <ele>1749.785</ele>
        <time>2022-07-10T07:28:35Z</time>
      </trkpt>
      <trkpt lat="46.585325" lon="10.394275">
        <ele>1751.653</ele>
        <time>2022-07-10T07:28:52Z</time>
      </trkpt>
      <trkpt lat="46.585260" lon="10.394280">
        <ele>1752.135</ele>
        <time>2022-07-10T07:28:57Z</time>
      </trkpt>
      <trkpt lat="46.585249" lon="10.394277">
        <ele>1752.151</ele>
        <time>2022-07-10T07:28:58Z</time>
      </trkpt>
      <trkpt lat="46.585236" lon="10.394275">
        <ele>1752.155</ele>
        <time>2022-07-10T07:28:59Z</time>
      </trkpt>
      <trkpt lat="46.585225" lon="10.394274">
        <ele>1752.156</ele>
        <time>2022-07-10T07:29:00Z</time>
      </trkpt>
      <trkpt lat="46.585211" lon="10.394271">
        <ele>1752.624</ele>
        <time>2022-07-10T07:29:01Z</time>
      </trkpt>
      <trkpt lat="46.585198" lon="10.394270">
        <ele>1752.648</ele>
        <time>2022-07-10T07:29:02Z</time>
      </trkpt>
      <trkpt lat="46.584997" lon="10.394190">
        <ele>1753.569</ele>
        <time>2022-07-10T07:29:17Z</time>
      </trkpt>
      <trkpt lat="46.584817" lon="10.394116">
        <ele>1755.504</ele>
        <time>2022-07-10T07:29:31Z</time>
      </trkpt>
      <trkpt lat="46.584804" lon="10.394117">
        <ele>1755.524</ele>
        <time>2022-07-10T07:29:32Z</time>
      </trkpt>
      <trkpt lat="46.584492" lon="10.394052">
        <ele>1756.409</ele>
        <time>2022-07-10T07:29:54Z</time>
      </trkpt>
      <trkpt lat="46.584188" lon="10.394067">
        <ele>1756.937</ele>
        <time>2022-07-10T07:30:10Z</time>
      </trkpt>
      <trkpt lat="46.583965" lon="10.393821">
        <ele>1757.456</ele>
        <time>2022-07-10T07:30:24Z</time>
      </trkpt>
      <trkpt lat="46.583780" lon="10.393510">
        <ele>1759.384</ele>
        <time>2022-07-10T07:30:43Z</time>
      </trkpt>
      <trkpt lat="46.583647" lon="10.393209">
        <ele>1760.776</ele>
        <time>2022-07-10T07:31:00Z</time>
      </trkpt>
      <trkpt lat="46.583482" lon="10.392905">
        <ele>1762.222</ele>
        <time>2022-07-10T07:31:19Z</time>
      </trkpt>
      <trkpt lat="46.583359" lon="10.392618">
        <ele>1764.156</ele>
        <time>2022-07-10T07:31:37Z</time>
      </trkpt>
      <trkpt lat="46.583244" lon="10.392312">
        <ele>1765.657</ele>
        <time>2022-07-10T07:31:53Z</time>
      </trkpt>
      <trkpt lat="46.583170" lon="10.392262">
        <ele>1765.655</ele>
        <time>2022-07-10T07:31:59Z</time>
      </trkpt>
      <trkpt lat="46.583151" lon="10.392263">
        <ele>1765.679</ele>
        <time>2022-07-10T07:32:00Z</time>
      </trkpt>
      <trkpt lat="46.582851" lon="10.392220">
        <ele>1766.546</ele>
        <time>2022-07-10T07:32:19Z</time>
      </trkpt>
      <trkpt lat="46.582789" lon="10.392199">
        <ele>1766.588</ele>
        <time>2022-07-10T07:32:23Z</time>
      </trkpt>
      <trkpt lat="46.582774" lon="10.392189">
        <ele>1766.516</ele>
        <time>2022-07-10T07:32:24Z</time>
      </trkpt>
      <trkpt lat="46.582616" lon="10.391852">
        <ele>1767.009</ele>
        <time>2022-07-10T07:32:41Z</time>
      </trkpt>
      <trkpt lat="46.582637" lon="10.391671">
        <ele>1767.545</ele>
        <time>2022-07-10T07:32:56Z</time>
      </trkpt>
      <trkpt lat="46.582637" lon="10.391654">
        <ele>1767.584</ele>
        <time>2022-07-10T07:33:13Z</time>
      </trkpt>
      <trkpt lat="46.582608" lon="10.391502">
        <ele>1767.532</ele>
        <time>2022-07-10T07:33:26Z</time>
      </trkpt>
      <trkpt lat="46.582591" lon="10.391368">
        <ele>1768.014</ele>
        <time>2022-07-10T07:33:32Z</time>
      </trkpt>
      <trkpt lat="46.582591" lon="10.391349">
        <ele>1768.030</ele>
        <time>2022-07-10T07:33:33Z</time>
      </trkpt>
      <trkpt lat="46.582591" lon="10.391331">
        <ele>1768.024</ele>
        <time>2022-07-10T07:33:34Z</time>
      </trkpt>
      <trkpt lat="46.582586" lon="10.391313">
        <ele>1768.035</ele>
        <time>2022-07-10T07:33:35Z</time>
      </trkpt>
      <trkpt lat="46.582582" lon="10.391298">
        <ele>1768.413</ele>
        <time>2022-07-10T07:33:36Z</time>
      </trkpt>
      <trkpt lat="46.582556" lon="10.391215">
        <ele>1768.937</ele>
        <time>2022-07-10T07:33:41Z</time>
      </trkpt>
      <trkpt lat="46.582552" lon="10.391202">
        <ele>1768.985</ele>
        <time>2022-07-10T07:33:42Z</time>
      </trkpt>
      <trkpt lat="46.582546" lon="10.391186">
        <ele>1768.989</ele>
        <time>2022-07-10T07:33:43Z</time>
      </trkpt>
      <trkpt lat="46.582518" lon="10.390937">
        <ele>1771.817</ele>
        <time>2022-07-10T07:33:59Z</time>
      </trkpt>
      <trkpt lat="46.582513" lon="10.390904">
        <ele>1772.309</ele>
        <time>2022-07-10T07:34:01Z</time>
      </trkpt>
      <trkpt lat="46.582516" lon="10.390890">
        <ele>1772.379</ele>
        <time>2022-07-10T07:34:02Z</time>
      </trkpt>
      <trkpt lat="46.582518" lon="10.390873">
        <ele>1772.348</ele>
        <time>2022-07-10T07:34:03Z</time>
      </trkpt>
      <trkpt lat="46.582519" lon="10.390860">
        <ele>1772.396</ele>
        <time>2022-07-10T07:34:04Z</time>
      </trkpt>
      <trkpt lat="46.582517" lon="10.390810">
        <ele>1772.318</ele>
        <time>2022-07-10T07:34:07Z</time>
      </trkpt>
      <trkpt lat="46.582517" lon="10.390794">
        <ele>1772.344</ele>
        <time>2022-07-10T07:34:08Z</time>
      </trkpt>
      <trkpt lat="46.582517" lon="10.390772">
        <ele>1772.358</ele>
        <time>2022-07-10T07:34:09Z</time>
      </trkpt>
      <trkpt lat="46.582510" lon="10.390717">
        <ele>1773.779</ele>
        <time>2022-07-10T07:34:12Z</time>
      </trkpt>
      <trkpt lat="46.582504" lon="10.390660">
        <ele>1773.747</ele>
        <time>2022-07-10T07:34:15Z</time>
      </trkpt>
      <trkpt lat="46.582501" lon="10.390640">
        <ele>1773.711</ele>
        <time>2022-07-10T07:34:16Z</time>
      </trkpt>
      <trkpt lat="46.582496" lon="10.390623">
        <ele>1773.738</ele>
        <time>2022-07-10T07:34:17Z</time>
      </trkpt>
      <trkpt lat="46.582363" lon="10.390364">
        <ele>1775.670</ele>
        <time>2022-07-10T07:34:38Z</time>
      </trkpt>
      <trkpt lat="46.582288" lon="10.390205">
        <ele>1777.617</ele>
        <time>2022-07-10T07:34:52Z</time>
      </trkpt>
      <trkpt lat="46.582221" lon="10.390017">
        <ele>1779.509</ele>
        <time>2022-07-10T07:35:07Z</time>
      </trkpt>
      <trkpt lat="46.582213" lon="10.389861">
        <ele>1780.584</ele>
        <time>2022-07-10T07:35:20Z</time>
      </trkpt>
      <trkpt lat="46.582215" lon="10.389849">
        <ele>1780.983</ele>
        <time>2022-07-10T07:35:34Z</time>
      </trkpt>
      <trkpt lat="46.582231" lon="10.389819">
        <ele>1780.991</ele>
        <time>2022-07-10T07:35:38Z</time>
      </trkpt>
      <trkpt lat="46.582206" lon="10.389762">
        <ele>1781.443</ele>
        <time>2022-07-10T07:35:44Z</time>
      </trkpt>
      <trkpt lat="46.582197" lon="10.389762">
        <ele>1781.449</ele>
        <time>2022-07-10T07:35:45Z</time>
      </trkpt>
      <trkpt lat="46.582188" lon="10.389758">
        <ele>1781.413</ele>
        <time>2022-07-10T07:35:46Z</time>
      </trkpt>
      <trkpt lat="46.582178" lon="10.389758">
        <ele>1781.424</ele>
        <time>2022-07-10T07:35:47Z</time>
      </trkpt>
      <trkpt lat="46.582053" lon="10.389638">
        <ele>1783.382</ele>
        <time>2022-07-10T07:36:03Z</time>
      </trkpt>
      <trkpt lat="46.581939" lon="10.389442">
        <ele>1785.366</ele>
        <time>2022-07-10T07:36:21Z</time>
      </trkpt>
      <trkpt lat="46.581895" lon="10.389343">
        <ele>1786.226</ele>
        <time>2022-07-10T07:36:29Z</time>
      </trkpt>
      <trkpt lat="46.581811" lon="10.389160">
        <ele>1788.147</ele>
        <time>2022-07-10T07:36:46Z</time>
      </trkpt>
      <trkpt lat="46.581716" lon="10.389001">
        <ele>1790.511</ele>
        <time>2022-07-10T07:37:03Z</time>
      </trkpt>
      <trkpt lat="46.581615" lon="10.388873">
        <ele>1793.009</ele>
        <time>2022-07-10T07:37:21Z</time>
      </trkpt>
      <trkpt lat="46.581497" lon="10.388709">
        <ele>1794.423</ele>
        <time>2022-07-10T07:37:38Z</time>
      </trkpt>
      <trkpt lat="46.581421" lon="10.388528">
        <ele>1796.312</ele>
        <time>2022-07-10T07:37:53Z</time>
      </trkpt>
      <trkpt lat="46.581307" lon="10.388405">
        <ele>1798.250</ele>
        <time>2022-07-10T07:38:09Z</time>
      </trkpt>
      <trkpt lat="46.581199" lon="10.388257">
        <ele>1800.612</ele>
        <time>2022-07-10T07:38:27Z</time>
      </trkpt>
      <trkpt lat="46.581099" lon="10.388188">
        <ele>1802.198</ele>
        <time>2022-07-10T07:38:42Z</time>
      </trkpt>
      <trkpt lat="46.581001" lon="10.388099">
        <ele>1804.572</ele>
        <time>2022-07-10T07:38:57Z</time>
      </trkpt>
      <trkpt lat="46.580892" lon="10.388037">
        <ele>1806.463</ele>
        <time>2022-07-10T07:39:12Z</time>
      </trkpt>
      <trkpt lat="46.580753" lon="10.387937">
        <ele>1808.351</ele>
        <time>2022-07-10T07:39:30Z</time>
      </trkpt>
      <trkpt lat="46.580684" lon="10.387905">
        <ele>1808.825</ele>
        <time>2022-07-10T07:39:39Z</time>
      </trkpt>
      <trkpt lat="46.580562" lon="10.387836">
        <ele>1810.759</ele>
        <time>2022-07-10T07:39:52Z</time>
      </trkpt>
      <trkpt lat="46.580380" lon="10.387772">
        <ele>1812.203</ele>
        <time>2022-07-10T07:40:09Z</time>
      </trkpt>
      <trkpt lat="46.580248" lon="10.387782">
        <ele>1812.223</ele>
        <time>2022-07-10T07:40:21Z</time>
      </trkpt>
      <trkpt lat="46.580162" lon="10.387746">
        <ele>1813.609</ele>
        <time>2022-07-10T07:40:30Z</time>
      </trkpt>
      <trkpt lat="46.580154" lon="10.387740">
        <ele>1813.676</ele>
        <time>2022-07-10T07:40:31Z</time>
      </trkpt>
      <trkpt lat="46.580036" lon="10.387592">
        <ele>1815.575</ele>
        <time>2022-07-10T07:40:46Z</time>
      </trkpt>
      <trkpt lat="46.580029" lon="10.387572">
        <ele>1815.513</ele>
        <time>2022-07-10T07:40:47Z</time>
      </trkpt>
      <trkpt lat="46.579955" lon="10.387417">
        <ele>1817.075</ele>
        <time>2022-07-10T07:40:58Z</time>
      </trkpt>
      <trkpt lat="46.579805" lon="10.387376">
        <ele>1817.951</ele>
        <time>2022-07-10T07:41:10Z</time>
      </trkpt>
      <trkpt lat="46.579714" lon="10.387374">
        <ele>1819.435</ele>
        <time>2022-07-10T07:41:22Z</time>
      </trkpt>
      <trkpt lat="46.579703" lon="10.387387">
        <ele>1819.486</ele>
        <time>2022-07-10T07:41:24Z</time>
      </trkpt>
      <trkpt lat="46.579557" lon="10.387421">
        <ele>1822.384</ele>
        <time>2022-07-10T07:41:40Z</time>
      </trkpt>
      <trkpt lat="46.579505" lon="10.387425">
        <ele>1823.238</ele>
        <time>2022-07-10T07:41:55Z</time>
      </trkpt>
      <trkpt lat="46.579458" lon="10.387404">
        <ele>1823.212</ele>
        <time>2022-07-10T07:42:11Z</time>
      </trkpt>
      <trkpt lat="46.579418" lon="10.387401">
        <ele>1824.232</ele>
        <time>2022-07-10T07:42:32Z</time>
      </trkpt>
      <trkpt lat="46.579386" lon="10.387389">
        <ele>1824.205</ele>
        <time>2022-07-10T07:42:59Z</time>
      </trkpt>
      <trkpt lat="46.579389" lon="10.387408">
        <ele>1824.209</ele>
        <time>2022-07-10T07:43:17Z</time>
      </trkpt>
      <trkpt lat="46.579385" lon="10.387415">
        <ele>1824.222</ele>
        <time>2022-07-10T07:43:42Z</time>
      </trkpt>
      <trkpt lat="46.579393" lon="10.387416">
        <ele>1824.291</ele>
        <time>2022-07-10T07:44:02Z</time>
      </trkpt>
      <trkpt lat="46.579314" lon="10.387413">
        <ele>1824.739</ele>
        <time>2022-07-10T07:44:15Z</time>
      </trkpt>
      <trkpt lat="46.579307" lon="10.387395">
        <ele>1824.781</ele>
        <time>2022-07-10T07:44:16Z</time>
      </trkpt>
      <trkpt lat="46.579301" lon="10.387383">
        <ele>1824.767</ele>
        <time>2022-07-10T07:44:17Z</time>
      </trkpt>
      <trkpt lat="46.579291" lon="10.387373">
        <ele>1824.751</ele>
        <time>2022-07-10T07:44:18Z</time>
      </trkpt>
      <trkpt lat="46.579272" lon="10.387374">
        <ele>1824.752</ele>
        <time>2022-07-10T07:44:20Z</time>
      </trkpt>
      <trkpt lat="46.579261" lon="10.387379">
        <ele>1825.220</ele>
        <time>2022-07-10T07:44:21Z</time>
      </trkpt>
      <trkpt lat="46.579248" lon="10.387380">
        <ele>1825.294</ele>
        <time>2022-07-10T07:44:22Z</time>
      </trkpt>
      <trkpt lat="46.579237" lon="10.387368">
        <ele>1825.645</ele>
        <time>2022-07-10T07:44:24Z</time>
      </trkpt>
      <trkpt lat="46.579228" lon="10.387356">
        <ele>1825.647</ele>
        <time>2022-07-10T07:44:25Z</time>
      </trkpt>
      <trkpt lat="46.579219" lon="10.387344">
        <ele>1825.611</ele>
        <time>2022-07-10T07:44:26Z</time>
      </trkpt>
      <trkpt lat="46.579202" lon="10.387331">
        <ele>1826.109</ele>
        <time>2022-07-10T07:44:28Z</time>
      </trkpt>
      <trkpt lat="46.579060" lon="10.387253">
        <ele>1828.015</ele>
        <time>2022-07-10T07:44:45Z</time>
      </trkpt>
      <trkpt lat="46.578958" lon="10.387194">
        <ele>1830.444</ele>
        <time>2022-07-10T07:45:00Z</time>
      </trkpt>
      <trkpt lat="46.578929" lon="10.387157">
        <ele>1830.992</ele>
        <time>2022-07-10T07:45:04Z</time>
      </trkpt>
      <trkpt lat="46.578922" lon="10.387143">
        <ele>1830.944</ele>
        <time>2022-07-10T07:45:05Z</time>
      </trkpt>
      <trkpt lat="46.578895" lon="10.387113">
        <ele>1831.430</ele>
        <time>2022-07-10T07:45:08Z</time>
      </trkpt>
      <trkpt lat="46.578765" lon="10.387039">
        <ele>1832.844</ele>
        <time>2022-07-10T07:45:25Z</time>
      </trkpt>
      <trkpt lat="46.578626" lon="10.386995">
        <ele>1835.285</ele>
        <time>2022-07-10T07:45:42Z</time>
      </trkpt>
      <trkpt lat="46.578476" lon="10.386934">
        <ele>1837.223</ele>
        <time>2022-07-10T07:45:59Z</time>
      </trkpt>
      <trkpt lat="46.578368" lon="10.386829">
        <ele>1838.647</ele>
        <time>2022-07-10T07:46:14Z</time>
      </trkpt>
      <trkpt lat="46.578343" lon="10.386792">
        <ele>1839.619</ele>
        <time>2022-07-10T07:46:19Z</time>
      </trkpt>
      <trkpt lat="46.578351" lon="10.386599">
        <ele>1841.509</ele>
        <time>2022-07-10T07:46:34Z</time>
      </trkpt>
      <trkpt lat="46.578410" lon="10.386504">
        <ele>1842.519</ele>
        <time>2022-07-10T07:46:45Z</time>
      </trkpt>
      <trkpt lat="46.578485" lon="10.386377">
        <ele>1843.409</ele>
        <time>2022-07-10T07:46:58Z</time>
      </trkpt>
      <trkpt lat="46.578542" lon="10.386232">
        <ele>1845.392</ele>
        <time>2022-07-10T07:47:13Z</time>
      </trkpt>
      <trkpt lat="46.578600" lon="10.386066">
        <ele>1846.381</ele>
        <time>2022-07-10T07:47:27Z</time>
      </trkpt>
      <trkpt lat="46.578658" lon="10.386010">
        <ele>1846.869</ele>
        <time>2022-07-10T07:50:37Z</time>
      </trkpt>
      <trkpt lat="46.578692" lon="10.386014">
        <ele>1846.891</ele>
        <time>2022-07-10T07:51:33Z</time>
      </trkpt>
      <trkpt lat="46.578701" lon="10.385998">
        <ele>1848.227</ele>
        <time>2022-07-10T07:53:41Z</time>
      </trkpt>
      <trkpt lat="46.578707" lon="10.385979">
        <ele>1848.291</ele>
        <time>2022-07-10T07:53:42Z</time>
      </trkpt>
      <trkpt lat="46.578714" lon="10.385966">
        <ele>1848.252</ele>
        <time>2022-07-10T07:53:43Z</time>
      </trkpt>
      <trkpt lat="46.578796" lon="10.385728">
        <ele>1850.120</ele>
        <time>2022-07-10T07:53:58Z</time>
      </trkpt>
      <trkpt lat="46.578869" lon="10.385537">
        <ele>1851.684</ele>
        <time>2022-07-10T07:54:12Z</time>
      </trkpt>
      <trkpt lat="46.578873" lon="10.385524">
        <ele>1851.615</ele>
        <time>2022-07-10T07:54:13Z</time>
      </trkpt>
      <trkpt lat="46.578883" lon="10.385505">
        <ele>1852.165</ele>
        <time>2022-07-10T07:54:14Z</time>
      </trkpt>
      <trkpt lat="46.578886" lon="10.385497">
        <ele>1852.111</ele>
        <time>2022-07-10T07:54:15Z</time>
      </trkpt>
      <trkpt lat="46.578890" lon="10.385485">
        <ele>1852.109</ele>
        <time>2022-07-10T07:54:16Z</time>
      </trkpt>
      <trkpt lat="46.578923" lon="10.385370">
        <ele>1853.062</ele>
        <time>2022-07-10T07:54:24Z</time>
      </trkpt>
      <trkpt lat="46.578933" lon="10.385349">
        <ele>1853.051</ele>
        <time>2022-07-10T07:54:25Z</time>
      </trkpt>
      <trkpt lat="46.578979" lon="10.385265">
        <ele>1854.019</ele>
        <time>2022-07-10T07:54:31Z</time>
      </trkpt>
      <trkpt lat="46.578985" lon="10.385251">
        <ele>1854.011</ele>
        <time>2022-07-10T07:54:32Z</time>
      </trkpt>
      <trkpt lat="46.578992" lon="10.385237">
        <ele>1854.057</ele>
        <time>2022-07-10T07:54:33Z</time>
      </trkpt>
      <trkpt lat="46.579061" lon="10.385038">
        <ele>1855.461</ele>
        <time>2022-07-10T07:54:48Z</time>
      </trkpt>
      <trkpt lat="46.579154" lon="10.384806">
        <ele>1857.472</ele>
        <time>2022-07-10T07:55:04Z</time>
      </trkpt>
      <trkpt lat="46.579251" lon="10.384639">
        <ele>1858.310</ele>
        <time>2022-07-10T07:55:18Z</time>
      </trkpt>
      <trkpt lat="46.579253" lon="10.384619">
        <ele>1858.824</ele>
        <time>2022-07-10T07:55:19Z</time>
      </trkpt>
      <trkpt lat="46.579254" lon="10.384598">
        <ele>1858.884</ele>
        <time>2022-07-10T07:55:20Z</time>
      </trkpt>
      <trkpt lat="46.579238" lon="10.384519">
        <ele>1859.307</ele>
        <time>2022-07-10T07:55:25Z</time>
      </trkpt>
      <trkpt lat="46.579228" lon="10.384516">
        <ele>1859.317</ele>
        <time>2022-07-10T07:55:26Z</time>
      </trkpt>
      <trkpt lat="46.579216" lon="10.384512">
        <ele>1859.309</ele>
        <time>2022-07-10T07:55:27Z</time>
      </trkpt>
      <trkpt lat="46.579164" lon="10.384515">
        <ele>1860.279</ele>
        <time>2022-07-10T07:55:33Z</time>
      </trkpt>
      <trkpt lat="46.579101" lon="10.384516">
        <ele>1861.298</ele>
        <time>2022-07-10T07:55:41Z</time>
      </trkpt>
      <trkpt lat="46.578962" lon="10.384506">
        <ele>1863.196</ele>
        <time>2022-07-10T07:55:57Z</time>
      </trkpt>
      <trkpt lat="46.578806" lon="10.384459">
        <ele>1865.078</ele>
        <time>2022-07-10T07:56:14Z</time>
      </trkpt>
      <trkpt lat="46.578754" lon="10.384441">
        <ele>1865.594</ele>
        <time>2022-07-10T07:56:19Z</time>
      </trkpt>
      <trkpt lat="46.578633" lon="10.384331">
        <ele>1867.518</ele>
        <time>2022-07-10T07:56:35Z</time>
      </trkpt>
      <trkpt lat="46.578492" lon="10.384259">
        <ele>1869.419</ele>
        <time>2022-07-10T07:56:50Z</time>
      </trkpt>
      <trkpt lat="46.578353" lon="10.384241">
        <ele>1871.867</ele>
        <time>2022-07-10T07:57:06Z</time>
      </trkpt>
      <trkpt lat="46.578184" lon="10.384225">
        <ele>1874.221</ele>
        <time>2022-07-10T07:57:23Z</time>
      </trkpt>
      <trkpt lat="46.578020" lon="10.384202">
        <ele>1876.145</ele>
        <time>2022-07-10T07:57:41Z</time>
      </trkpt>
      <trkpt lat="46.577895" lon="10.384150">
        <ele>1878.047</ele>
        <time>2022-07-10T07:57:56Z</time>
      </trkpt>
      <trkpt lat="46.577764" lon="10.384085">
        <ele>1880.011</ele>
        <time>2022-07-10T07:58:11Z</time>
      </trkpt>
      <trkpt lat="46.577581" lon="10.383981">
        <ele>1882.809</ele>
        <time>2022-07-10T07:58:30Z</time>
      </trkpt>
      <trkpt lat="46.577438" lon="10.383858">
        <ele>1884.375</ele>
        <time>2022-07-10T07:58:47Z</time>
      </trkpt>
      <trkpt lat="46.577341" lon="10.383711">
        <ele>1886.274</ele>
        <time>2022-07-10T07:59:02Z</time>
      </trkpt>
      <trkpt lat="46.577309" lon="10.383661">
        <ele>1887.222</ele>
        <time>2022-07-10T07:59:07Z</time>
      </trkpt>
      <trkpt lat="46.577188" lon="10.383538">
        <ele>1888.664</ele>
        <time>2022-07-10T07:59:22Z</time>
      </trkpt>
      <trkpt lat="46.577122" lon="10.383422">
        <ele>1890.010</ele>
        <time>2022-07-10T07:59:33Z</time>
      </trkpt>
      <trkpt lat="46.577117" lon="10.383407">
        <ele>1890.054</ele>
        <time>2022-07-10T07:59:34Z</time>
      </trkpt>
      <trkpt lat="46.577113" lon="10.383395">
        <ele>1890.055</ele>
        <time>2022-07-10T07:59:35Z</time>
      </trkpt>
      <trkpt lat="46.577106" lon="10.383322">
        <ele>1891.073</ele>
        <time>2022-07-10T07:59:40Z</time>
      </trkpt>
      <trkpt lat="46.577156" lon="10.383219">
        <ele>1892.447</ele>
        <time>2022-07-10T07:59:51Z</time>
      </trkpt>
      <trkpt lat="46.577265" lon="10.383122">
        <ele>1893.414</ele>
        <time>2022-07-10T08:00:06Z</time>
      </trkpt>
      <trkpt lat="46.577401" lon="10.383025">
        <ele>1895.854</ele>
        <time>2022-07-10T08:00:24Z</time>
      </trkpt>
      <trkpt lat="46.577504" lon="10.382904">
        <ele>1898.209</ele>
        <time>2022-07-10T08:00:39Z</time>
      </trkpt>
      <trkpt lat="46.577580" lon="10.382775">
        <ele>1900.109</ele>
        <time>2022-07-10T08:00:52Z</time>
      </trkpt>
      <trkpt lat="46.577658" lon="10.382578">
        <ele>1902.192</ele>
        <time>2022-07-10T08:01:11Z</time>
      </trkpt>
      <trkpt lat="46.577687" lon="10.382500">
        <ele>1902.591</ele>
        <time>2022-07-10T08:01:17Z</time>
      </trkpt>
      <trkpt lat="46.577736" lon="10.382344">
        <ele>1904.599</ele>
        <time>2022-07-10T08:01:30Z</time>
      </trkpt>
      <trkpt lat="46.577752" lon="10.382180">
        <ele>1905.931</ele>
        <time>2022-07-10T08:01:43Z</time>
      </trkpt>
      <trkpt lat="46.577815" lon="10.382013">
        <ele>1907.837</ele>
        <time>2022-07-10T08:01:57Z</time>
      </trkpt>
      <trkpt lat="46.577846" lon="10.381842">
        <ele>1908.881</ele>
        <time>2022-07-10T08:02:10Z</time>
      </trkpt>
      <trkpt lat="46.577839" lon="10.381830">
        <ele>1909.342</ele>
        <time>2022-07-10T08:02:11Z</time>
      </trkpt>
      <trkpt lat="46.577779" lon="10.381748">
        <ele>1909.890</ele>
        <time>2022-07-10T08:02:19Z</time>
      </trkpt>
      <trkpt lat="46.577692" lon="10.381811">
        <ele>1912.294</ele>
        <time>2022-07-10T08:02:35Z</time>
      </trkpt>
      <trkpt lat="46.577545" lon="10.381754">
        <ele>1914.152</ele>
        <time>2022-07-10T08:02:50Z</time>
      </trkpt>
      <trkpt lat="46.577420" lon="10.381628">
        <ele>1915.053</ele>
        <time>2022-07-10T08:03:04Z</time>
      </trkpt>
      <trkpt lat="46.577327" lon="10.381472">
        <ele>1917.408</ele>
        <time>2022-07-10T08:03:18Z</time>
      </trkpt>
      <trkpt lat="46.577298" lon="10.381446">
        <ele>1917.909</ele>
        <time>2022-07-10T08:03:21Z</time>
      </trkpt>
      <trkpt lat="46.577207" lon="10.381389">
        <ele>1919.476</ele>
        <time>2022-07-10T08:03:34Z</time>
      </trkpt>
      <trkpt lat="46.577085" lon="10.381281">
        <ele>1921.845</ele>
        <time>2022-07-10T08:03:49Z</time>
      </trkpt>
      <trkpt lat="46.577026" lon="10.381237">
        <ele>1922.263</ele>
        <time>2022-07-10T08:03:57Z</time>
      </trkpt>
      <trkpt lat="46.576899" lon="10.381105">
        <ele>1924.265</ele>
        <time>2022-07-10T08:04:13Z</time>
      </trkpt>
      <trkpt lat="46.576762" lon="10.380976">
        <ele>1926.181</ele>
        <time>2022-07-10T08:04:30Z</time>
      </trkpt>
      <trkpt lat="46.576810" lon="10.380798">
        <ele>1927.575</ele>
        <time>2022-07-10T08:04:45Z</time>
      </trkpt>
      <trkpt lat="46.576939" lon="10.380736">
        <ele>1929.026</ele>
        <time>2022-07-10T08:04:57Z</time>
      </trkpt>
      <trkpt lat="46.577073" lon="10.380606">
        <ele>1930.994</ele>
        <time>2022-07-10T08:05:15Z</time>
      </trkpt>
      <trkpt lat="46.577196" lon="10.380450">
        <ele>1932.858</ele>
        <time>2022-07-10T08:05:31Z</time>
      </trkpt>
      <trkpt lat="46.577277" lon="10.380370">
        <ele>1933.822</ele>
        <time>2022-07-10T08:05:43Z</time>
      </trkpt>
      <trkpt lat="46.577393" lon="10.380266">
        <ele>1935.762</ele>
        <time>2022-07-10T08:05:57Z</time>
      </trkpt>
      <trkpt lat="46.577528" lon="10.380126">
        <ele>1938.108</ele>
        <time>2022-07-10T08:06:16Z</time>
      </trkpt>
      <trkpt lat="46.577532" lon="10.380109">
        <ele>1938.109</ele>
        <time>2022-07-10T08:06:17Z</time>
      </trkpt>
      <trkpt lat="46.577532" lon="10.380094">
        <ele>1938.143</ele>
        <time>2022-07-10T08:06:18Z</time>
      </trkpt>
      <trkpt lat="46.577486" lon="10.379987">
        <ele>1939.682</ele>
        <time>2022-07-10T08:06:26Z</time>
      </trkpt>
      <trkpt lat="46.577387" lon="10.379935">
        <ele>1942.020</ele>
        <time>2022-07-10T08:06:39Z</time>
      </trkpt>
      <trkpt lat="46.577355" lon="10.379905">
        <ele>1942.472</ele>
        <time>2022-07-10T08:06:43Z</time>
      </trkpt>
      <trkpt lat="46.577281" lon="10.379858">
        <ele>1942.468</ele>
        <time>2022-07-10T08:06:52Z</time>
      </trkpt>
      <trkpt lat="46.577166" lon="10.379826">
        <ele>1943.912</ele>
        <time>2022-07-10T08:07:05Z</time>
      </trkpt>
      <trkpt lat="46.577103" lon="10.379790">
        <ele>1945.393</ele>
        <time>2022-07-10T08:07:12Z</time>
      </trkpt>
      <trkpt lat="46.577014" lon="10.379631">
        <ele>1946.311</ele>
        <time>2022-07-10T08:07:28Z</time>
      </trkpt>
      <trkpt lat="46.576894" lon="10.379488">
        <ele>1949.215</ele>
        <time>2022-07-10T08:07:44Z</time>
      </trkpt>
      <trkpt lat="46.576852" lon="10.379424">
        <ele>1950.119</ele>
        <time>2022-07-10T08:07:51Z</time>
      </trkpt>
      <trkpt lat="46.576905" lon="10.379299">
        <ele>1951.609</ele>
        <time>2022-07-10T08:08:08Z</time>
      </trkpt>
      <trkpt lat="46.576931" lon="10.379285">
        <ele>1951.619</ele>
        <time>2022-07-10T08:08:11Z</time>
      </trkpt>
      <trkpt lat="46.577105" lon="10.379203">
        <ele>1954.009</ele>
        <time>2022-07-10T08:08:29Z</time>
      </trkpt>
      <trkpt lat="46.577245" lon="10.379093">
        <ele>1955.932</ele>
        <time>2022-07-10T08:08:44Z</time>
      </trkpt>
      <trkpt lat="46.577364" lon="10.378970">
        <ele>1957.361</ele>
        <time>2022-07-10T08:08:59Z</time>
      </trkpt>
      <trkpt lat="46.577472" lon="10.378815">
        <ele>1959.339</ele>
        <time>2022-07-10T08:09:16Z</time>
      </trkpt>
      <trkpt lat="46.577606" lon="10.378650">
        <ele>1960.281</ele>
        <time>2022-07-10T08:09:32Z</time>
      </trkpt>
      <trkpt lat="46.577821" lon="10.378598">
        <ele>1961.777</ele>
        <time>2022-07-10T08:09:49Z</time>
      </trkpt>
      <trkpt lat="46.578001" lon="10.378685">
        <ele>1963.181</ele>
        <time>2022-07-10T08:10:03Z</time>
      </trkpt>
      <trkpt lat="46.578083" lon="10.378808">
        <ele>1964.182</ele>
        <time>2022-07-10T08:10:16Z</time>
      </trkpt>
      <trkpt lat="46.578152" lon="10.379059">
        <ele>1966.020</ele>
        <time>2022-07-10T08:10:35Z</time>
      </trkpt>
      <trkpt lat="46.578251" lon="10.379189">
        <ele>1967.914</ele>
        <time>2022-07-10T08:10:51Z</time>
      </trkpt>
      <trkpt lat="46.578255" lon="10.379184">
        <ele>1967.953</ele>
        <time>2022-07-10T08:10:52Z</time>
      </trkpt>
      <trkpt lat="46.578268" lon="10.379148">
        <ele>1968.404</ele>
        <time>2022-07-10T08:10:55Z</time>
      </trkpt>
      <trkpt lat="46.578206" lon="10.378968">
        <ele>1969.414</ele>
        <time>2022-07-10T08:11:10Z</time>
      </trkpt>
      <trkpt lat="46.578177" lon="10.378743">
        <ele>1970.809</ele>
        <time>2022-07-10T08:11:25Z</time>
      </trkpt>
      <trkpt lat="46.578175" lon="10.378668">
        <ele>1971.376</ele>
        <time>2022-07-10T08:11:30Z</time>
      </trkpt>
      <trkpt lat="46.578138" lon="10.378535">
        <ele>1972.725</ele>
        <time>2022-07-10T08:11:39Z</time>
      </trkpt>
      <trkpt lat="46.578089" lon="10.378466">
        <ele>1973.223</ele>
        <time>2022-07-10T08:11:46Z</time>
      </trkpt>
      <trkpt lat="46.578015" lon="10.378403">
        <ele>1974.295</ele>
        <time>2022-07-10T08:11:56Z</time>
      </trkpt>
      <trkpt lat="46.577965" lon="10.378375">
        <ele>1976.181</ele>
        <time>2022-07-10T08:12:03Z</time>
      </trkpt>
      <trkpt lat="46.577814" lon="10.378255">
        <ele>1977.575</ele>
        <time>2022-07-10T08:12:20Z</time>
      </trkpt>
      <trkpt lat="46.577706" lon="10.378105">
        <ele>1979.976</ele>
        <time>2022-07-10T08:12:36Z</time>
      </trkpt>
      <trkpt lat="46.577676" lon="10.378078">
        <ele>1978.554</ele>
        <time>2022-07-10T08:12:40Z</time>
      </trkpt>
      <trkpt lat="46.577666" lon="10.378072">
        <ele>1981.438</ele>
        <time>2022-07-10T08:12:41Z</time>
      </trkpt>
      <trkpt lat="46.577656" lon="10.378070">
        <ele>1981.487</ele>
        <time>2022-07-10T08:12:42Z</time>
      </trkpt>
      <trkpt lat="46.577647" lon="10.378064">
        <ele>1981.442</ele>
        <time>2022-07-10T08:12:43Z</time>
      </trkpt>
      <trkpt lat="46.577624" lon="10.378030">
        <ele>1979.926</ele>
        <time>2022-07-10T08:12:46Z</time>
      </trkpt>
      <trkpt lat="46.577604" lon="10.377998">
        <ele>1981.409</ele>
        <time>2022-07-10T08:12:49Z</time>
      </trkpt>
      <trkpt lat="46.577563" lon="10.377941">
        <ele>1981.489</ele>
        <time>2022-07-10T08:12:54Z</time>
      </trkpt>
      <trkpt lat="46.577429" lon="10.377806">
        <ele>1983.358</ele>
        <time>2022-07-10T08:13:10Z</time>
      </trkpt>
      <trkpt lat="46.577316" lon="10.377638">
        <ele>1985.276</ele>
        <time>2022-07-10T08:13:27Z</time>
      </trkpt>
      <trkpt lat="46.577195" lon="10.377462">
        <ele>1987.698</ele>
        <time>2022-07-10T08:13:43Z</time>
      </trkpt>
      <trkpt lat="46.577182" lon="10.377441">
        <ele>1988.644</ele>
        <time>2022-07-10T08:13:45Z</time>
      </trkpt>
      <trkpt lat="46.577060" lon="10.377308">
        <ele>1990.528</ele>
        <time>2022-07-10T08:13:59Z</time>
      </trkpt>
      <trkpt lat="46.576993" lon="10.377254">
        <ele>1991.069</ele>
        <time>2022-07-10T08:14:05Z</time>
      </trkpt>
      <trkpt lat="46.576878" lon="10.377181">
        <ele>1992.957</ele>
        <time>2022-07-10T08:14:20Z</time>
      </trkpt>
      <trkpt lat="46.576853" lon="10.377159">
        <ele>1993.431</ele>
        <time>2022-07-10T08:14:23Z</time>
      </trkpt>
      <trkpt lat="46.576804" lon="10.377094">
        <ele>1994.385</ele>
        <time>2022-07-10T08:14:30Z</time>
      </trkpt>
      <trkpt lat="46.576671" lon="10.376926">
        <ele>1996.889</ele>
        <time>2022-07-10T08:14:47Z</time>
      </trkpt>
      <trkpt lat="46.576601" lon="10.376866">
        <ele>1997.217</ele>
        <time>2022-07-10T08:14:55Z</time>
      </trkpt>
      <trkpt lat="46.576505" lon="10.376625">
        <ele>1999.209</ele>
        <time>2022-07-10T08:15:13Z</time>
      </trkpt>
      <trkpt lat="46.576392" lon="10.376430">
        <ele>2001.179</ele>
        <time>2022-07-10T08:15:32Z</time>
      </trkpt>
      <trkpt lat="46.576271" lon="10.376351">
        <ele>2003.568</ele>
        <time>2022-07-10T08:15:47Z</time>
      </trkpt>
      <trkpt lat="46.576141" lon="10.376363">
        <ele>2004.416</ele>
        <time>2022-07-10T08:16:02Z</time>
      </trkpt>
      <trkpt lat="46.576077" lon="10.376376">
        <ele>2005.468</ele>
        <time>2022-07-10T08:16:08Z</time>
      </trkpt>
      <trkpt lat="46.576005" lon="10.376384">
        <ele>2006.874</ele>
        <time>2022-07-10T08:16:15Z</time>
      </trkpt>
      <trkpt lat="46.575856" lon="10.376353">
        <ele>2008.348</ele>
        <time>2022-07-10T08:16:30Z</time>
      </trkpt>
      <trkpt lat="46.575700" lon="10.376298">
        <ele>2010.799</ele>
        <time>2022-07-10T08:16:46Z</time>
      </trkpt>
      <trkpt lat="46.575632" lon="10.376240">
        <ele>2011.237</ele>
        <time>2022-07-10T08:16:53Z</time>
      </trkpt>
      <trkpt lat="46.575515" lon="10.376141">
        <ele>2012.631</ele>
        <time>2022-07-10T08:17:08Z</time>
      </trkpt>
      <trkpt lat="46.575406" lon="10.375951">
        <ele>2015.085</ele>
        <time>2022-07-10T08:17:24Z</time>
      </trkpt>
      <trkpt lat="46.575376" lon="10.375913">
        <ele>2015.589</ele>
        <time>2022-07-10T08:17:28Z</time>
      </trkpt>
      <trkpt lat="46.575351" lon="10.375893">
        <ele>2016.017</ele>
        <time>2022-07-10T08:17:31Z</time>
      </trkpt>
      <trkpt lat="46.575320" lon="10.375830">
        <ele>2016.509</ele>
        <time>2022-07-10T08:17:36Z</time>
      </trkpt>
      <trkpt lat="46.575218" lon="10.375663">
        <ele>2018.449</ele>
        <time>2022-07-10T08:17:52Z</time>
      </trkpt>
      <trkpt lat="46.575127" lon="10.375542">
        <ele>2019.818</ele>
        <time>2022-07-10T08:18:04Z</time>
      </trkpt>
      <trkpt lat="46.574947" lon="10.375376">
        <ele>2022.226</ele>
        <time>2022-07-10T08:18:25Z</time>
      </trkpt>
      <trkpt lat="46.574813" lon="10.375278">
        <ele>2023.768</ele>
        <time>2022-07-10T08:18:41Z</time>
      </trkpt>
      <trkpt lat="46.574676" lon="10.375155">
        <ele>2026.144</ele>
        <time>2022-07-10T08:18:58Z</time>
      </trkpt>
      <trkpt lat="46.574560" lon="10.374940">
        <ele>2029.038</ele>
        <time>2022-07-10T08:19:16Z</time>
      </trkpt>
      <trkpt lat="46.574529" lon="10.374838">
        <ele>2029.439</ele>
        <time>2022-07-10T08:19:23Z</time>
      </trkpt>
      <trkpt lat="46.574438" lon="10.374662">
        <ele>2030.927</ele>
        <time>2022-07-10T08:19:37Z</time>
      </trkpt>
      <trkpt lat="46.574395" lon="10.374520">
        <ele>2031.491</ele>
        <time>2022-07-10T08:19:46Z</time>
      </trkpt>
      <trkpt lat="46.574339" lon="10.374383">
        <ele>2031.878</ele>
        <time>2022-07-10T08:19:56Z</time>
      </trkpt>
      <trkpt lat="46.574262" lon="10.374225">
        <ele>2033.333</ele>
        <time>2022-07-10T08:20:14Z</time>
      </trkpt>
      <trkpt lat="46.574269" lon="10.374188">
        <ele>2033.326</ele>
        <time>2022-07-10T08:20:39Z</time>
      </trkpt>
      <trkpt lat="46.574250" lon="10.374199">
        <ele>2033.309</ele>
        <time>2022-07-10T08:21:09Z</time>
      </trkpt>
      <trkpt lat="46.574265" lon="10.374136">
        <ele>2033.318</ele>
        <time>2022-07-10T08:21:32Z</time>
      </trkpt>
      <trkpt lat="46.574238" lon="10.373925">
        <ele>2034.757</ele>
        <time>2022-07-10T08:21:45Z</time>
      </trkpt>
      <trkpt lat="46.574236" lon="10.373657">
        <ele>2037.135</ele>
        <time>2022-07-10T08:22:02Z</time>
      </trkpt>
      <trkpt lat="46.574184" lon="10.373341">
        <ele>2038.687</ele>
        <time>2022-07-10T08:22:20Z</time>
      </trkpt>
      <trkpt lat="46.574112" lon="10.373049">
        <ele>2039.083</ele>
        <time>2022-07-10T08:22:36Z</time>
      </trkpt>
      <trkpt lat="46.574078" lon="10.372941">
        <ele>2040.567</ele>
        <time>2022-07-10T08:22:43Z</time>
      </trkpt>
      <trkpt lat="46.574035" lon="10.372849">
        <ele>2041.088</ele>
        <time>2022-07-10T08:22:50Z</time>
      </trkpt>
      <trkpt lat="46.573992" lon="10.372789">
        <ele>2041.076</ele>
        <time>2022-07-10T08:22:55Z</time>
      </trkpt>
      <trkpt lat="46.573960" lon="10.372559">
        <ele>2042.420</ele>
        <time>2022-07-10T08:23:11Z</time>
      </trkpt>
      <trkpt lat="46.573972" lon="10.372546">
        <ele>2042.985</ele>
        <time>2022-07-10T08:23:41Z</time>
      </trkpt>
      <trkpt lat="46.573973" lon="10.372539">
        <ele>2042.989</ele>
        <time>2022-07-10T08:24:10Z</time>
      </trkpt>
      <trkpt lat="46.573959" lon="10.372533">
        <ele>2042.917</ele>
        <time>2022-07-10T08:24:29Z</time>
      </trkpt>
      <trkpt lat="46.573937" lon="10.372473">
        <ele>2042.909</ele>
        <time>2022-07-10T08:24:33Z</time>
      </trkpt>
      <trkpt lat="46.573943" lon="10.372442">
        <ele>2043.499</ele>
        <time>2022-07-10T08:24:35Z</time>
      </trkpt>
      <trkpt lat="46.573912" lon="10.372215">
        <ele>2045.368</ele>
        <time>2022-07-10T08:24:50Z</time>
      </trkpt>
      <trkpt lat="46.573889" lon="10.371985">
        <ele>2048.256</ele>
        <time>2022-07-10T08:25:08Z</time>
      </trkpt>
      <trkpt lat="46.573867" lon="10.371809">
        <ele>2050.148</ele>
        <time>2022-07-10T08:25:22Z</time>
      </trkpt>
      <trkpt lat="46.573856" lon="10.371727">
        <ele>2050.654</ele>
        <time>2022-07-10T08:25:29Z</time>
      </trkpt>
      <trkpt lat="46.573833" lon="10.371511">
        <ele>2053.038</ele>
        <time>2022-07-10T08:25:46Z</time>
      </trkpt>
      <trkpt lat="46.573791" lon="10.371304">
        <ele>2055.929</ele>
        <time>2022-07-10T08:26:03Z</time>
      </trkpt>
      <trkpt lat="46.573737" lon="10.371111">
        <ele>2057.857</ele>
        <time>2022-07-10T08:26:20Z</time>
      </trkpt>
      <trkpt lat="46.573663" lon="10.370926">
        <ele>2060.251</ele>
        <time>2022-07-10T08:26:38Z</time>
      </trkpt>
      <trkpt lat="46.573635" lon="10.370823">
        <ele>2061.636</ele>
        <time>2022-07-10T08:26:49Z</time>
      </trkpt>
      <trkpt lat="46.573633" lon="10.370791">
        <ele>2061.617</ele>
        <time>2022-07-10T08:27:14Z</time>
      </trkpt>
      <trkpt lat="46.573619" lon="10.370781">
        <ele>2061.618</ele>
        <time>2022-07-10T08:27:16Z</time>
      </trkpt>
      <trkpt lat="46.573533" lon="10.370640">
        <ele>2063.109</ele>
        <time>2022-07-10T08:27:28Z</time>
      </trkpt>
      <trkpt lat="46.573478" lon="10.370570">
        <ele>2064.054</ele>
        <time>2022-07-10T08:27:36Z</time>
      </trkpt>
      <trkpt lat="46.573328" lon="10.370332">
        <ele>2067.443</ele>
        <time>2022-07-10T08:27:57Z</time>
      </trkpt>
      <trkpt lat="46.573208" lon="10.370183">
        <ele>2069.341</ele>
        <time>2022-07-10T08:28:13Z</time>
      </trkpt>
      <trkpt lat="46.573120" lon="10.370015">
        <ele>2070.833</ele>
        <time>2022-07-10T08:28:26Z</time>
      </trkpt>
      <trkpt lat="46.573100" lon="10.369989">
        <ele>2070.839</ele>
        <time>2022-07-10T08:28:29Z</time>
      </trkpt>
      <trkpt lat="46.572986" lon="10.369771">
        <ele>2073.233</ele>
        <time>2022-07-10T08:28:48Z</time>
      </trkpt>
      <trkpt lat="46.572971" lon="10.369744">
        <ele>2073.724</ele>
        <time>2022-07-10T08:28:51Z</time>
      </trkpt>
      <trkpt lat="46.572896" lon="10.369600">
        <ele>2075.692</ele>
        <time>2022-07-10T08:29:06Z</time>
      </trkpt>
      <trkpt lat="46.572877" lon="10.369581">
        <ele>2076.146</ele>
        <time>2022-07-10T08:29:08Z</time>
      </trkpt>
      <trkpt lat="46.572768" lon="10.369431">
        <ele>2077.521</ele>
        <time>2022-07-10T08:29:23Z</time>
      </trkpt>
      <trkpt lat="46.572720" lon="10.369357">
        <ele>2078.541</ele>
        <time>2022-07-10T08:29:31Z</time>
      </trkpt>
      <trkpt lat="46.572620" lon="10.369141">
        <ele>2080.905</ele>
        <time>2022-07-10T08:29:49Z</time>
      </trkpt>
      <trkpt lat="46.572577" lon="10.368933">
        <ele>2082.809</ele>
        <time>2022-07-10T08:30:04Z</time>
      </trkpt>
      <trkpt lat="46.572428" lon="10.368549">
        <ele>2083.353</ele>
        <time>2022-07-10T08:30:21Z</time>
      </trkpt>
      <trkpt lat="46.572271" lon="10.368250">
        <ele>2085.252</ele>
        <time>2022-07-10T08:30:39Z</time>
      </trkpt>
      <trkpt lat="46.572174" lon="10.367996">
        <ele>2087.620</ele>
        <time>2022-07-10T08:30:57Z</time>
      </trkpt>
      <trkpt lat="46.572134" lon="10.367815">
        <ele>2088.632</ele>
        <time>2022-07-10T08:31:07Z</time>
      </trkpt>
      <trkpt lat="46.572133" lon="10.367799">
        <ele>2088.688</ele>
        <time>2022-07-10T08:31:08Z</time>
      </trkpt>
      <trkpt lat="46.571991" lon="10.367413">
        <ele>2089.052</ele>
        <time>2022-07-10T08:31:24Z</time>
      </trkpt>
      <trkpt lat="46.571859" lon="10.367122">
        <ele>2090.043</ele>
        <time>2022-07-10T08:31:39Z</time>
      </trkpt>
      <trkpt lat="46.571698" lon="10.366856">
        <ele>2090.551</ele>
        <time>2022-07-10T08:31:55Z</time>
      </trkpt>
      <trkpt lat="46.571550" lon="10.366697">
        <ele>2092.455</ele>
        <time>2022-07-10T08:32:11Z</time>
      </trkpt>
      <trkpt lat="46.571528" lon="10.366656">
        <ele>2093.468</ele>
        <time>2022-07-10T08:32:15Z</time>
      </trkpt>
      <trkpt lat="46.571358" lon="10.366467">
        <ele>2095.842</ele>
        <time>2022-07-10T08:32:36Z</time>
      </trkpt>
      <trkpt lat="46.571268" lon="10.366350">
        <ele>2097.226</ele>
        <time>2022-07-10T08:32:48Z</time>
      </trkpt>
      <trkpt lat="46.571258" lon="10.366322">
        <ele>2097.209</ele>
        <time>2022-07-10T08:32:50Z</time>
      </trkpt>
      <trkpt lat="46.571252" lon="10.366312">
        <ele>2097.797</ele>
        <time>2022-07-10T08:32:51Z</time>
      </trkpt>
      <trkpt lat="46.571201" lon="10.366088">
        <ele>2099.146</ele>
        <time>2022-07-10T08:33:07Z</time>
      </trkpt>
      <trkpt lat="46.571135" lon="10.365836">
        <ele>2103.044</ele>
        <time>2022-07-10T08:33:27Z</time>
      </trkpt>
      <trkpt lat="46.571127" lon="10.365664">
        <ele>2103.956</ele>
        <time>2022-07-10T08:33:42Z</time>
      </trkpt>
      <trkpt lat="46.571046" lon="10.365541">
        <ele>2106.322</ele>
        <time>2022-07-10T08:33:57Z</time>
      </trkpt>
      <trkpt lat="46.570940" lon="10.365591">
        <ele>2108.376</ele>
        <time>2022-07-10T08:34:12Z</time>
      </trkpt>
      <trkpt lat="46.570807" lon="10.365591">
        <ele>2110.237</ele>
        <time>2022-07-10T08:34:27Z</time>
      </trkpt>
      <trkpt lat="46.570669" lon="10.365514">
        <ele>2112.175</ele>
        <time>2022-07-10T08:34:44Z</time>
      </trkpt>
      <trkpt lat="46.570531" lon="10.365441">
        <ele>2114.549</ele>
        <time>2022-07-10T08:35:02Z</time>
      </trkpt>
      <trkpt lat="46.570425" lon="10.365338">
        <ele>2116.422</ele>
        <time>2022-07-10T08:35:17Z</time>
      </trkpt>
      <trkpt lat="46.570287" lon="10.365179">
        <ele>2118.862</ele>
        <time>2022-07-10T08:35:36Z</time>
      </trkpt>
      <trkpt lat="46.570266" lon="10.365152">
        <ele>2118.808</ele>
        <time>2022-07-10T08:35:39Z</time>
      </trkpt>
      <trkpt lat="46.570209" lon="10.365027">
        <ele>2120.309</ele>
        <time>2022-07-10T08:35:49Z</time>
      </trkpt>
      <trkpt lat="46.570207" lon="10.365010">
        <ele>2120.373</ele>
        <time>2022-07-10T08:35:50Z</time>
      </trkpt>
      <trkpt lat="46.570171" lon="10.364928">
        <ele>2121.272</ele>
        <time>2022-07-10T08:35:56Z</time>
      </trkpt>
      <trkpt lat="46.570155" lon="10.364897">
        <ele>2121.260</ele>
        <time>2022-07-10T08:35:59Z</time>
      </trkpt>
      <trkpt lat="46.570150" lon="10.364880">
        <ele>2121.242</ele>
        <time>2022-07-10T08:36:00Z</time>
      </trkpt>
      <trkpt lat="46.570131" lon="10.364828">
        <ele>2122.788</ele>
        <time>2022-07-10T08:36:04Z</time>
      </trkpt>
      <trkpt lat="46.570065" lon="10.364544">
        <ele>2123.642</ele>
        <time>2022-07-10T08:36:23Z</time>
      </trkpt>
      <trkpt lat="46.570076" lon="10.364294">
        <ele>2125.633</ele>
        <time>2022-07-10T08:36:40Z</time>
      </trkpt>
      <trkpt lat="46.570097" lon="10.364043">
        <ele>2127.591</ele>
        <time>2022-07-10T08:36:58Z</time>
      </trkpt>
      <trkpt lat="46.570121" lon="10.363895">
        <ele>2128.515</ele>
        <time>2022-07-10T08:37:08Z</time>
      </trkpt>
      <trkpt lat="46.570100" lon="10.363679">
        <ele>2130.964</ele>
        <time>2022-07-10T08:37:24Z</time>
      </trkpt>
      <trkpt lat="46.570147" lon="10.363503">
        <ele>2133.306</ele>
        <time>2022-07-10T08:37:38Z</time>
      </trkpt>
      <trkpt lat="46.570155" lon="10.363497">
        <ele>2133.316</ele>
        <time>2022-07-10T08:37:39Z</time>
      </trkpt>
      <trkpt lat="46.570186" lon="10.363477">
        <ele>2133.309</ele>
        <time>2022-07-10T08:37:42Z</time>
      </trkpt>
      <trkpt lat="46.570284" lon="10.363506">
        <ele>2135.247</ele>
        <time>2022-07-10T08:37:54Z</time>
      </trkpt>
      <trkpt lat="46.570372" lon="10.363682">
        <ele>2137.136</ele>
        <time>2022-07-10T08:38:11Z</time>
      </trkpt>
      <trkpt lat="46.570446" lon="10.363822">
        <ele>2139.014</ele>
        <time>2022-07-10T08:38:25Z</time>
      </trkpt>
      <trkpt lat="46.570580" lon="10.363937">
        <ele>2140.956</ele>
        <time>2022-07-10T08:38:40Z</time>
      </trkpt>
      <trkpt lat="46.570681" lon="10.363966">
        <ele>2141.952</ele>
        <time>2022-07-10T08:38:48Z</time>
      </trkpt>
      <trkpt lat="46.570782" lon="10.363994">
        <ele>2143.446</ele>
        <time>2022-07-10T08:39:00Z</time>
      </trkpt>
      <trkpt lat="46.570892" lon="10.364066">
        <ele>2144.847</ele>
        <time>2022-07-10T08:39:16Z</time>
      </trkpt>
      <trkpt lat="46.570968" lon="10.364155">
        <ele>2146.295</ele>
        <time>2022-07-10T08:39:27Z</time>
      </trkpt>
      <trkpt lat="46.570970" lon="10.364170">
        <ele>2146.259</ele>
        <time>2022-07-10T08:39:28Z</time>
      </trkpt>
      <trkpt lat="46.570982" lon="10.364338">
        <ele>2147.715</ele>
        <time>2022-07-10T08:39:41Z</time>
      </trkpt>
      <trkpt lat="46.570999" lon="10.364376">
        <ele>2149.165</ele>
        <time>2022-07-10T08:39:44Z</time>
      </trkpt>
      <trkpt lat="46.571029" lon="10.364430">
        <ele>2149.111</ele>
        <time>2022-07-10T08:39:49Z</time>
      </trkpt>
      <trkpt lat="46.571039" lon="10.364436">
        <ele>2149.109</ele>
        <time>2022-07-10T08:39:50Z</time>
      </trkpt>
      <trkpt lat="46.571050" lon="10.364446">
        <ele>2149.162</ele>
        <time>2022-07-10T08:39:51Z</time>
      </trkpt>
      <trkpt lat="46.571059" lon="10.364455">
        <ele>2149.651</ele>
        <time>2022-07-10T08:39:52Z</time>
      </trkpt>
      <trkpt lat="46.571068" lon="10.364461">
        <ele>2149.679</ele>
        <time>2022-07-10T08:39:53Z</time>
      </trkpt>
      <trkpt lat="46.571181" lon="10.364520">
        <ele>2150.621</ele>
        <time>2022-07-10T08:40:07Z</time>
      </trkpt>
      <trkpt lat="46.571316" lon="10.364524">
        <ele>2153.087</ele>
        <time>2022-07-10T08:40:22Z</time>
      </trkpt>
      <trkpt lat="46.571370" lon="10.364367">
        <ele>2154.921</ele>
        <time>2022-07-10T08:40:36Z</time>
      </trkpt>
      <trkpt lat="46.571324" lon="10.364170">
        <ele>2157.362</ele>
        <time>2022-07-10T08:40:52Z</time>
      </trkpt>
      <trkpt lat="46.571320" lon="10.363978">
        <ele>2158.720</ele>
        <time>2022-07-10T08:41:07Z</time>
      </trkpt>
      <trkpt lat="46.571342" lon="10.363795">
        <ele>2160.774</ele>
        <time>2022-07-10T08:41:20Z</time>
      </trkpt>
      <trkpt lat="46.571394" lon="10.363576">
        <ele>2163.126</ele>
        <time>2022-07-10T08:41:37Z</time>
      </trkpt>
      <trkpt lat="46.571455" lon="10.363394">
        <ele>2164.547</ele>
        <time>2022-07-10T08:41:52Z</time>
      </trkpt>
      <trkpt lat="46.571460" lon="10.363139">
        <ele>2166.911</ele>
        <time>2022-07-10T08:42:07Z</time>
      </trkpt>
      <trkpt lat="46.571386" lon="10.362943">
        <ele>2168.809</ele>
        <time>2022-07-10T08:42:22Z</time>
      </trkpt>
      <trkpt lat="46.571377" lon="10.362937">
        <ele>2168.823</ele>
        <time>2022-07-10T08:42:23Z</time>
      </trkpt>
      <trkpt lat="46.571342" lon="10.362928">
        <ele>2169.892</ele>
        <time>2022-07-10T08:42:29Z</time>
      </trkpt>
      <trkpt lat="46.571237" lon="10.362903">
        <ele>2170.710</ele>
        <time>2022-07-10T08:42:42Z</time>
      </trkpt>
      <trkpt lat="46.571183" lon="10.362840">
        <ele>2172.232</ele>
        <time>2022-07-10T08:42:50Z</time>
      </trkpt>
      <trkpt lat="46.571180" lon="10.362822">
        <ele>2172.248</ele>
        <time>2022-07-10T08:42:51Z</time>
      </trkpt>
      <trkpt lat="46.571077" lon="10.362706">
        <ele>2173.682</ele>
        <time>2022-07-10T08:43:04Z</time>
      </trkpt>
      <trkpt lat="46.570971" lon="10.362549">
        <ele>2176.013</ele>
        <time>2022-07-10T08:43:21Z</time>
      </trkpt>
      <trkpt lat="46.570961" lon="10.362523">
        <ele>2176.581</ele>
        <time>2022-07-10T08:43:23Z</time>
      </trkpt>
      <trkpt lat="46.570876" lon="10.362347">
        <ele>2178.085</ele>
        <time>2022-07-10T08:43:40Z</time>
      </trkpt>
      <trkpt lat="46.570826" lon="10.362245">
        <ele>2178.948</ele>
        <time>2022-07-10T08:43:49Z</time>
      </trkpt>
      <trkpt lat="46.570780" lon="10.362171">
        <ele>2180.861</ele>
        <time>2022-07-10T08:43:56Z</time>
      </trkpt>
      <trkpt lat="46.570701" lon="10.362034">
        <ele>2181.817</ele>
        <time>2022-07-10T08:44:10Z</time>
      </trkpt>
      <trkpt lat="46.570615" lon="10.361838">
        <ele>2183.209</ele>
        <time>2022-07-10T08:44:26Z</time>
      </trkpt>
      <trkpt lat="46.570539" lon="10.361678">
        <ele>2185.655</ele>
        <time>2022-07-10T08:44:40Z</time>
      </trkpt>
      <trkpt lat="46.570518" lon="10.361526">
        <ele>2186.664</ele>
        <time>2022-07-10T08:44:51Z</time>
      </trkpt>
      <trkpt lat="46.570521" lon="10.361321">
        <ele>2188.552</ele>
        <time>2022-07-10T08:45:06Z</time>
      </trkpt>
      <trkpt lat="46.570515" lon="10.361251">
        <ele>2189.034</ele>
        <time>2022-07-10T08:45:11Z</time>
      </trkpt>
      <trkpt lat="46.570476" lon="10.361022">
        <ele>2190.520</ele>
        <time>2022-07-10T08:45:27Z</time>
      </trkpt>
      <trkpt lat="46.570471" lon="10.361009">
        <ele>2190.514</ele>
        <time>2022-07-10T08:45:28Z</time>
      </trkpt>
      <trkpt lat="46.570425" lon="10.360869">
        <ele>2192.995</ele>
        <time>2022-07-10T08:45:40Z</time>
      </trkpt>
      <trkpt lat="46.570422" lon="10.360853">
        <ele>2193.343</ele>
        <time>2022-07-10T08:45:41Z</time>
      </trkpt>
      <trkpt lat="46.570376" lon="10.360627">
        <ele>2195.377</ele>
        <time>2022-07-10T08:45:58Z</time>
      </trkpt>
      <trkpt lat="46.570337" lon="10.360396">
        <ele>2197.781</ele>
        <time>2022-07-10T08:46:15Z</time>
      </trkpt>
      <trkpt lat="46.570332" lon="10.360384">
        <ele>2197.761</ele>
        <time>2022-07-10T08:46:16Z</time>
      </trkpt>
      <trkpt lat="46.570327" lon="10.360358">
        <ele>2198.117</ele>
        <time>2022-07-10T08:46:18Z</time>
      </trkpt>
      <trkpt lat="46.570334" lon="10.360154">
        <ele>2200.109</ele>
        <time>2022-07-10T08:46:33Z</time>
      </trkpt>
      <trkpt lat="46.570337" lon="10.360065">
        <ele>2200.559</ele>
        <time>2022-07-10T08:46:46Z</time>
      </trkpt>
      <trkpt lat="46.570334" lon="10.360068">
        <ele>2200.548</ele>
        <time>2022-07-10T08:47:12Z</time>
      </trkpt>
      <trkpt lat="46.570323" lon="10.360123">
        <ele>2200.576</ele>
        <time>2022-07-10T08:47:43Z</time>
      </trkpt>
      <trkpt lat="46.570315" lon="10.360112">
        <ele>2200.588</ele>
        <time>2022-07-10T08:48:13Z</time>
      </trkpt>
      <trkpt lat="46.570350" lon="10.360065">
        <ele>2201.524</ele>
        <time>2022-07-10T08:48:48Z</time>
      </trkpt>
      <trkpt lat="46.570355" lon="10.360048">
        <ele>2201.548</ele>
        <time>2022-07-10T08:48:49Z</time>
      </trkpt>
      <trkpt lat="46.570404" lon="10.359794">
        <ele>2203.069</ele>
        <time>2022-07-10T08:49:05Z</time>
      </trkpt>
      <trkpt lat="46.570496" lon="10.359584">
        <ele>2204.467</ele>
        <time>2022-07-10T08:49:21Z</time>
      </trkpt>
      <trkpt lat="46.570554" lon="10.359360">
        <ele>2206.891</ele>
        <time>2022-07-10T08:49:37Z</time>
      </trkpt>
      <trkpt lat="46.570562" lon="10.359104">
        <ele>2209.779</ele>
        <time>2022-07-10T08:49:55Z</time>
      </trkpt>
      <trkpt lat="46.570477" lon="10.358809">
        <ele>2211.605</ele>
        <time>2022-07-10T08:50:17Z</time>
      </trkpt>
      <trkpt lat="46.570417" lon="10.358564">
        <ele>2212.625</ele>
        <time>2022-07-10T08:50:34Z</time>
      </trkpt>
      <trkpt lat="46.570445" lon="10.358302">
        <ele>2212.609</ele>
        <time>2022-07-10T08:50:47Z</time>
      </trkpt>
      <trkpt lat="46.570542" lon="10.357905">
        <ele>2212.638</ele>
        <time>2022-07-10T08:51:03Z</time>
      </trkpt>
      <trkpt lat="46.570536" lon="10.357828">
        <ele>2213.067</ele>
        <time>2022-07-10T08:51:21Z</time>
      </trkpt>
      <trkpt lat="46.570552" lon="10.357818">
        <ele>2213.535</ele>
        <time>2022-07-10T08:51:32Z</time>
      </trkpt>
      <trkpt lat="46.570556" lon="10.357803">
        <ele>2213.557</ele>
        <time>2022-07-10T08:51:33Z</time>
      </trkpt>
      <trkpt lat="46.570639" lon="10.357549">
        <ele>2212.163</ele>
        <time>2022-07-10T08:51:42Z</time>
      </trkpt>
      <trkpt lat="46.570768" lon="10.357022">
        <ele>2212.197</ele>
        <time>2022-07-10T08:51:56Z</time>
      </trkpt>
      <trkpt lat="46.570912" lon="10.356375">
        <ele>2212.178</ele>
        <time>2022-07-10T08:52:13Z</time>
      </trkpt>
      <trkpt lat="46.570931" lon="10.356250">
        <ele>2213.556</ele>
        <time>2022-07-10T08:52:16Z</time>
      </trkpt>
      <trkpt lat="46.570953" lon="10.355794">
        <ele>2215.070</ele>
        <time>2022-07-10T08:52:31Z</time>
      </trkpt>
      <trkpt lat="46.570868" lon="10.355403">
        <ele>2215.962</ele>
        <time>2022-07-10T08:52:46Z</time>
      </trkpt>
      <trkpt lat="46.570813" lon="10.355062">
        <ele>2217.983</ele>
        <time>2022-07-10T08:53:02Z</time>
      </trkpt>
      <trkpt lat="46.570761" lon="10.354804">
        <ele>2218.811</ele>
        <time>2022-07-10T08:53:15Z</time>
      </trkpt>
      <trkpt lat="46.570676" lon="10.354587">
        <ele>2221.209</ele>
        <time>2022-07-10T08:53:31Z</time>
      </trkpt>
      <trkpt lat="46.570578" lon="10.354376">
        <ele>2223.667</ele>
        <time>2022-07-10T08:53:49Z</time>
      </trkpt>
      <trkpt lat="46.570477" lon="10.354193">
        <ele>2226.046</ele>
        <time>2022-07-10T08:54:06Z</time>
      </trkpt>
      <trkpt lat="46.570440" lon="10.354139">
        <ele>2227.084</ele>
        <time>2022-07-10T08:54:12Z</time>
      </trkpt>
      <trkpt lat="46.570436" lon="10.354121">
        <ele>2227.046</ele>
        <time>2022-07-10T08:54:13Z</time>
      </trkpt>
      <trkpt lat="46.570350" lon="10.353797">
        <ele>2228.972</ele>
        <time>2022-07-10T08:54:35Z</time>
      </trkpt>
      <trkpt lat="46.570240" lon="10.353480">
        <ele>2229.966</ele>
        <time>2022-07-10T08:54:55Z</time>
      </trkpt>
      <trkpt lat="46.570197" lon="10.353286">
        <ele>2230.447</ele>
        <time>2022-07-10T08:55:04Z</time>
      </trkpt>
      <trkpt lat="46.570106" lon="10.352933">
        <ele>2231.885</ele>
        <time>2022-07-10T08:55:21Z</time>
      </trkpt>
      <trkpt lat="46.570050" lon="10.352551">
        <ele>2231.899</ele>
        <time>2022-07-10T08:55:37Z</time>
      </trkpt>
      <trkpt lat="46.570027" lon="10.352452">
        <ele>2234.722</ele>
        <time>2022-07-10T08:57:15Z</time>
      </trkpt>
      <trkpt lat="46.570017" lon="10.352451">
        <ele>2234.762</ele>
        <time>2022-07-10T08:57:16Z</time>
      </trkpt>
      <trkpt lat="46.570003" lon="10.352450">
        <ele>2233.208</ele>
        <time>2022-07-10T08:57:18Z</time>
      </trkpt>
      <trkpt lat="46.569999" lon="10.352422">
        <ele>2233.209</ele>
        <time>2022-07-10T08:57:23Z</time>
      </trkpt>
      <trkpt lat="46.569944" lon="10.352153">
        <ele>2233.223</ele>
        <time>2022-07-10T08:57:35Z</time>
      </trkpt>
      <trkpt lat="46.569891" lon="10.351711">
        <ele>2235.252</ele>
        <time>2022-07-10T08:57:55Z</time>
      </trkpt>
      <trkpt lat="46.569848" lon="10.351319">
        <ele>2236.150</ele>
        <time>2022-07-10T08:58:12Z</time>
      </trkpt>
      <trkpt lat="46.569844" lon="10.351299">
        <ele>2236.152</ele>
        <time>2022-07-10T08:58:13Z</time>
      </trkpt>
      <trkpt lat="46.569761" lon="10.351071">
        <ele>2236.168</ele>
        <time>2022-07-10T08:58:29Z</time>
      </trkpt>
      <trkpt lat="46.569781" lon="10.351060">
        <ele>2236.692</ele>
        <time>2022-07-10T08:59:24Z</time>
      </trkpt>
      <trkpt lat="46.569774" lon="10.351015">
        <ele>2236.173</ele>
        <time>2022-07-10T09:02:43Z</time>
      </trkpt>
      <trkpt lat="46.569776" lon="10.350967">
        <ele>2236.121</ele>
        <time>2022-07-10T09:02:47Z</time>
      </trkpt>
      <trkpt lat="46.569741" lon="10.350756">
        <ele>2236.195</ele>
        <time>2022-07-10T09:02:55Z</time>
      </trkpt>
      <trkpt lat="46.569738" lon="10.350739">
        <ele>2236.172</ele>
        <time>2022-07-10T09:02:56Z</time>
      </trkpt>
      <trkpt lat="46.569736" lon="10.350716">
        <ele>2236.113</ele>
        <time>2022-07-10T09:02:57Z</time>
      </trkpt>
      <trkpt lat="46.569655" lon="10.350444">
        <ele>2235.214</ele>
        <time>2022-07-10T09:03:04Z</time>
      </trkpt>
      <trkpt lat="46.569606" lon="10.350323">
        <ele>2234.209</ele>
        <time>2022-07-10T09:03:06Z</time>
      </trkpt>
      <trkpt lat="46.569586" lon="10.350256">
        <ele>2233.298</ele>
        <time>2022-07-10T09:03:07Z</time>
      </trkpt>
      <trkpt lat="46.569566" lon="10.350180">
        <ele>2233.227</ele>
        <time>2022-07-10T09:03:08Z</time>
      </trkpt>
      <trkpt lat="46.569259" lon="10.349094">
        <ele>2230.895</ele>
        <time>2022-07-10T09:03:25Z</time>
      </trkpt>
      <trkpt lat="46.569105" lon="10.348556">
        <ele>2230.837</ele>
        <time>2022-07-10T09:03:39Z</time>
      </trkpt>
      <trkpt lat="46.568991" lon="10.348272">
        <ele>2231.393</ele>
        <time>2022-07-10T09:03:45Z</time>
      </trkpt>
      <trkpt lat="46.568985" lon="10.348212">
        <ele>2230.847</ele>
        <time>2022-07-10T09:03:46Z</time>
      </trkpt>
      <trkpt lat="46.568984" lon="10.348149">
        <ele>2230.428</ele>
        <time>2022-07-10T09:03:47Z</time>
      </trkpt>
      <trkpt lat="46.568987" lon="10.348086">
        <ele>2230.486</ele>
        <time>2022-07-10T09:03:48Z</time>
      </trkpt>
      <trkpt lat="46.568994" lon="10.348022">
        <ele>2229.920</ele>
        <time>2022-07-10T09:03:49Z</time>
      </trkpt>
      <trkpt lat="46.569007" lon="10.347958">
        <ele>2229.912</ele>
        <time>2022-07-10T09:03:50Z</time>
      </trkpt>
      <trkpt lat="46.569088" lon="10.347275">
        <ele>2228.432</ele>
        <time>2022-07-10T09:04:01Z</time>
      </trkpt>
      <trkpt lat="46.569102" lon="10.347214">
        <ele>2228.405</ele>
        <time>2022-07-10T09:04:02Z</time>
      </trkpt>
      <trkpt lat="46.569121" lon="10.347155">
        <ele>2227.909</ele>
        <time>2022-07-10T09:04:03Z</time>
      </trkpt>
      <trkpt lat="46.569300" lon="10.346100">
        <ele>2226.032</ele>
        <time>2022-07-10T09:04:21Z</time>
      </trkpt>
      <trkpt lat="46.569584" lon="10.345285">
        <ele>2224.111</ele>
        <time>2022-07-10T09:04:37Z</time>
      </trkpt>
      <trkpt lat="46.569618" lon="10.345224">
        <ele>2224.189</ele>
        <time>2022-07-10T09:04:38Z</time>
      </trkpt>
      <trkpt lat="46.569809" lon="10.344858">
        <ele>2221.281</ele>
        <time>2022-07-10T09:04:43Z</time>
      </trkpt>
      <trkpt lat="46.570058" lon="10.344150">
        <ele>2219.857</ele>
        <time>2022-07-10T09:04:52Z</time>
      </trkpt>
      <trkpt lat="46.570144" lon="10.343682">
        <ele>2218.881</ele>
        <time>2022-07-10T09:04:59Z</time>
      </trkpt>
      <trkpt lat="46.570330" lon="10.342947">
        <ele>2218.852</ele>
        <time>2022-07-10T09:05:15Z</time>
      </trkpt>
      <trkpt lat="46.570549" lon="10.342116">
        <ele>2218.320</ele>
        <time>2022-07-10T09:05:32Z</time>
      </trkpt>
      <trkpt lat="46.570589" lon="10.341957">
        <ele>2218.394</ele>
        <time>2022-07-10T09:05:35Z</time>
      </trkpt>
      <trkpt lat="46.570595" lon="10.341902">
        <ele>2218.317</ele>
        <time>2022-07-10T09:05:36Z</time>
      </trkpt>
      <trkpt lat="46.570596" lon="10.341847">
        <ele>2218.387</ele>
        <time>2022-07-10T09:05:37Z</time>
      </trkpt>
      <trkpt lat="46.570593" lon="10.341796">
        <ele>2217.915</ele>
        <time>2022-07-10T09:05:38Z</time>
      </trkpt>
      <trkpt lat="46.570586" lon="10.341745">
        <ele>2217.909</ele>
        <time>2022-07-10T09:05:39Z</time>
      </trkpt>
      <trkpt lat="46.570591" lon="10.341092">
        <ele>2217.912</ele>
        <time>2022-07-10T09:05:54Z</time>
      </trkpt>
      <trkpt lat="46.570815" lon="10.340535">
        <ele>2217.951</ele>
        <time>2022-07-10T09:06:08Z</time>
      </trkpt>
      <trkpt lat="46.571126" lon="10.340031">
        <ele>2217.939</ele>
        <time>2022-07-10T09:06:23Z</time>
      </trkpt>
      <trkpt lat="46.571205" lon="10.339430">
        <ele>2219.331</ele>
        <time>2022-07-10T09:06:39Z</time>
      </trkpt>
      <trkpt lat="46.571193" lon="10.338909">
        <ele>2219.377</ele>
        <time>2022-07-10T09:06:52Z</time>
      </trkpt>
      <trkpt lat="46.571195" lon="10.338575">
        <ele>2217.491</ele>
        <time>2022-07-10T09:07:02Z</time>
      </trkpt>
      <trkpt lat="46.571230" lon="10.338333">
        <ele>2216.432</ele>
        <time>2022-07-10T09:07:13Z</time>
      </trkpt>
      <trkpt lat="46.571252" lon="10.338263">
        <ele>2216.440</ele>
        <time>2022-07-10T09:07:41Z</time>
      </trkpt>
      <trkpt lat="46.571421" lon="10.338016">
        <ele>2213.584</ele>
        <time>2022-07-10T09:07:49Z</time>
      </trkpt>
      <trkpt lat="46.571471" lon="10.337763">
        <ele>2210.212</ele>
        <time>2022-07-10T09:07:54Z</time>
      </trkpt>
      <trkpt lat="46.571482" lon="10.337710">
        <ele>2210.232</ele>
        <time>2022-07-10T09:07:55Z</time>
      </trkpt>
      <trkpt lat="46.571496" lon="10.337659">
        <ele>2209.705</ele>
        <time>2022-07-10T09:07:56Z</time>
      </trkpt>
      <trkpt lat="46.571517" lon="10.337601">
        <ele>2209.709</ele>
        <time>2022-07-10T09:07:57Z</time>
      </trkpt>
      <trkpt lat="46.571543" lon="10.337544">
        <ele>2209.212</ele>
        <time>2022-07-10T09:07:58Z</time>
      </trkpt>
      <trkpt lat="46.571573" lon="10.337491">
        <ele>2208.291</ele>
        <time>2022-07-10T09:07:59Z</time>
      </trkpt>
      <trkpt lat="46.571603" lon="10.337440">
        <ele>2208.299</ele>
        <time>2022-07-10T09:08:00Z</time>
      </trkpt>
      <trkpt lat="46.571636" lon="10.337392">
        <ele>2207.871</ele>
        <time>2022-07-10T09:08:01Z</time>
      </trkpt>
      <trkpt lat="46.571665" lon="10.337347">
        <ele>2207.837</ele>
        <time>2022-07-10T09:08:02Z</time>
      </trkpt>
      <trkpt lat="46.571694" lon="10.337303">
        <ele>2206.831</ele>
        <time>2022-07-10T09:08:03Z</time>
      </trkpt>
      <trkpt lat="46.571721" lon="10.337255">
        <ele>2206.832</ele>
        <time>2022-07-10T09:08:04Z</time>
      </trkpt>
      <trkpt lat="46.571745" lon="10.337204">
        <ele>2206.360</ele>
        <time>2022-07-10T09:08:05Z</time>
      </trkpt>
      <trkpt lat="46.571766" lon="10.337148">
        <ele>2205.864</ele>
        <time>2022-07-10T09:08:06Z</time>
      </trkpt>
      <trkpt lat="46.571854" lon="10.336836">
        <ele>2202.584</ele>
        <time>2022-07-10T09:08:11Z</time>
      </trkpt>
      <trkpt lat="46.571868" lon="10.336772">
        <ele>2202.507</ele>
        <time>2022-07-10T09:08:12Z</time>
      </trkpt>
      <trkpt lat="46.571918" lon="10.336458">
        <ele>2200.117</ele>
        <time>2022-07-10T09:08:17Z</time>
      </trkpt>
      <trkpt lat="46.571936" lon="10.336391">
        <ele>2200.109</ele>
        <time>2022-07-10T09:08:18Z</time>
      </trkpt>
      <trkpt lat="46.571959" lon="10.336323">
        <ele>2200.169</ele>
        <time>2022-07-10T09:08:19Z</time>
      </trkpt>
      <trkpt lat="46.572051" lon="10.336042">
        <ele>2198.198</ele>
        <time>2022-07-10T09:08:23Z</time>
      </trkpt>
      <trkpt lat="46.572079" lon="10.335984">
        <ele>2198.126</ele>
        <time>2022-07-10T09:08:24Z</time>
      </trkpt>
      <trkpt lat="46.572111" lon="10.335937">
        <ele>2198.138</ele>
        <time>2022-07-10T09:08:25Z</time>
      </trkpt>
      <trkpt lat="46.572146" lon="10.335892">
        <ele>2198.174</ele>
        <time>2022-07-10T09:08:26Z</time>
      </trkpt>
      <trkpt lat="46.572177" lon="10.335842">
        <ele>2198.148</ele>
        <time>2022-07-10T09:08:27Z</time>
      </trkpt>
      <trkpt lat="46.572204" lon="10.335788">
        <ele>2198.119</ele>
        <time>2022-07-10T09:08:28Z</time>
      </trkpt>
      <trkpt lat="46.572229" lon="10.335727">
        <ele>2198.167</ele>
        <time>2022-07-10T09:08:29Z</time>
      </trkpt>
      <trkpt lat="46.572251" lon="10.335667">
        <ele>2197.281</ele>
        <time>2022-07-10T09:08:30Z</time>
      </trkpt>
      <trkpt lat="46.572341" lon="10.335442">
        <ele>2196.798</ele>
        <time>2022-07-10T09:08:34Z</time>
      </trkpt>
      <trkpt lat="46.572369" lon="10.335391">
        <ele>2196.715</ele>
        <time>2022-07-10T09:08:35Z</time>
      </trkpt>
      <trkpt lat="46.572431" lon="10.335295">
        <ele>2195.726</ele>
        <time>2022-07-10T09:08:37Z</time>
      </trkpt>
      <trkpt lat="46.572463" lon="10.335259">
        <ele>2195.309</ele>
        <time>2022-07-10T09:08:38Z</time>
      </trkpt>
      <trkpt lat="46.572531" lon="10.335192">
        <ele>2194.320</ele>
        <time>2022-07-10T09:08:40Z</time>
      </trkpt>
      <trkpt lat="46.572562" lon="10.335152">
        <ele>2193.899</ele>
        <time>2022-07-10T09:08:41Z</time>
      </trkpt>
      <trkpt lat="46.572589" lon="10.335105">
        <ele>2193.337</ele>
        <time>2022-07-10T09:08:42Z</time>
      </trkpt>
      <trkpt lat="46.572696" lon="10.334848">
        <ele>2190.969</ele>
        <time>2022-07-10T09:08:47Z</time>
      </trkpt>
      <trkpt lat="46.572754" lon="10.334573">
        <ele>2188.185</ele>
        <time>2022-07-10T09:08:51Z</time>
      </trkpt>
      <trkpt lat="46.572753" lon="10.334514">
        <ele>2187.699</ele>
        <time>2022-07-10T09:08:52Z</time>
      </trkpt>
      <trkpt lat="46.572747" lon="10.334434">
        <ele>2187.660</ele>
        <time>2022-07-10T09:08:53Z</time>
      </trkpt>
      <trkpt lat="46.572728" lon="10.333984">
        <ele>2184.758</ele>
        <time>2022-07-10T09:09:00Z</time>
      </trkpt>
      <trkpt lat="46.572737" lon="10.333919">
        <ele>2184.242</ele>
        <time>2022-07-10T09:09:01Z</time>
      </trkpt>
      <trkpt lat="46.572763" lon="10.333788">
        <ele>2183.239</ele>
        <time>2022-07-10T09:09:03Z</time>
      </trkpt>
      <trkpt lat="46.572780" lon="10.333723">
        <ele>2182.301</ele>
        <time>2022-07-10T09:09:04Z</time>
      </trkpt>
      <trkpt lat="46.572830" lon="10.333605">
        <ele>2181.821</ele>
        <time>2022-07-10T09:09:06Z</time>
      </trkpt>
      <trkpt lat="46.572933" lon="10.333413">
        <ele>2179.909</ele>
        <time>2022-07-10T09:09:09Z</time>
      </trkpt>
      <trkpt lat="46.573268" lon="10.332791">
        <ele>2179.464</ele>
        <time>2022-07-10T09:09:20Z</time>
      </trkpt>
      <trkpt lat="46.573761" lon="10.331899">
        <ele>2176.093</ele>
        <time>2022-07-10T09:09:37Z</time>
      </trkpt>
      <trkpt lat="46.574060" lon="10.330892">
        <ele>2175.151</ele>
        <time>2022-07-10T09:09:56Z</time>
      </trkpt>
      <trkpt lat="46.573968" lon="10.330066">
        <ele>2174.633</ele>
        <time>2022-07-10T09:10:11Z</time>
      </trkpt>
      <trkpt lat="46.573803" lon="10.329169">
        <ele>2174.669</ele>
        <time>2022-07-10T09:10:27Z</time>
      </trkpt>
      <trkpt lat="46.573773" lon="10.328259">
        <ele>2172.253</ele>
        <time>2022-07-10T09:10:43Z</time>
      </trkpt>
      <trkpt lat="46.573791" lon="10.327275">
        <ele>2170.794</ele>
        <time>2022-07-10T09:11:00Z</time>
      </trkpt>
      <trkpt lat="46.573830" lon="10.326677">
        <ele>2170.362</ele>
        <time>2022-07-10T09:11:14Z</time>
      </trkpt>
      <trkpt lat="46.573997" lon="10.325955">
        <ele>2170.396</ele>
        <time>2022-07-10T09:11:30Z</time>
      </trkpt>
      <trkpt lat="46.574265" lon="10.325190">
        <ele>2169.838</ele>
        <time>2022-07-10T09:11:49Z</time>
      </trkpt>
      <trkpt lat="46.574535" lon="10.324679">
        <ele>2168.870</ele>
        <time>2022-07-10T09:12:02Z</time>
      </trkpt>
      <trkpt lat="46.574860" lon="10.323948">
        <ele>2165.917</ele>
        <time>2022-07-10T09:12:17Z</time>
      </trkpt>
      <trkpt lat="46.574955" lon="10.323814">
        <ele>2165.909</ele>
        <time>2022-07-10T09:12:20Z</time>
      </trkpt>
      <trkpt lat="46.575303" lon="10.323368">
        <ele>2165.514</ele>
        <time>2022-07-10T09:12:34Z</time>
      </trkpt>
      <trkpt lat="46.575543" lon="10.322921">
        <ele>2164.073</ele>
        <time>2022-07-10T09:12:46Z</time>
      </trkpt>
      <trkpt lat="46.575523" lon="10.322892">
        <ele>2164.591</ele>
        <time>2022-07-10T09:12:59Z</time>
      </trkpt>
      <trkpt lat="46.575536" lon="10.322920">
        <ele>2165.053</ele>
        <time>2022-07-10T09:13:21Z</time>
      </trkpt>
      <trkpt lat="46.575522" lon="10.322905">
        <ele>2165.549</ele>
        <time>2022-07-10T09:13:49Z</time>
      </trkpt>
      <trkpt lat="46.575517" lon="10.322898">
        <ele>2165.563</ele>
        <time>2022-07-10T09:14:25Z</time>
      </trkpt>
      <trkpt lat="46.575520" lon="10.322887">
        <ele>2165.524</ele>
        <time>2022-07-10T09:15:00Z</time>
      </trkpt>
      <trkpt lat="46.575519" lon="10.322903">
        <ele>2165.592</ele>
        <time>2022-07-10T09:15:24Z</time>
      </trkpt>
      <trkpt lat="46.575525" lon="10.322886">
        <ele>2165.936</ele>
        <time>2022-07-10T09:15:54Z</time>
      </trkpt>
      <trkpt lat="46.575510" lon="10.322887">
        <ele>2165.925</ele>
        <time>2022-07-10T09:16:26Z</time>
      </trkpt>
      <trkpt lat="46.575530" lon="10.322877">
        <ele>2165.926</ele>
        <time>2022-07-10T09:16:47Z</time>
      </trkpt>
      <trkpt lat="46.575536" lon="10.322869">
        <ele>2165.508</ele>
        <time>2022-07-10T09:17:06Z</time>
      </trkpt>
      <trkpt lat="46.575589" lon="10.322731">
        <ele>2164.509</ele>
        <time>2022-07-10T09:17:13Z</time>
      </trkpt>
      <trkpt lat="46.575683" lon="10.322442">
        <ele>2163.113</ele>
        <time>2022-07-10T09:17:19Z</time>
      </trkpt>
      <trkpt lat="46.575926" lon="10.321993">
        <ele>2160.792</ele>
        <time>2022-07-10T09:17:27Z</time>
      </trkpt>
      <trkpt lat="46.575962" lon="10.321940">
        <ele>2160.290</ele>
        <time>2022-07-10T09:17:28Z</time>
      </trkpt>
      <trkpt lat="46.576024" lon="10.321831">
        <ele>2159.212</ele>
        <time>2022-07-10T09:17:30Z</time>
      </trkpt>
      <trkpt lat="46.576050" lon="10.321770">
        <ele>2159.298</ele>
        <time>2022-07-10T09:17:31Z</time>
      </trkpt>
      <trkpt lat="46.576107" lon="10.321650">
        <ele>2158.722</ele>
        <time>2022-07-10T09:17:33Z</time>
      </trkpt>
      <trkpt lat="46.576256" lon="10.321402">
        <ele>2157.393</ele>
        <time>2022-07-10T09:17:37Z</time>
      </trkpt>
      <trkpt lat="46.576655" lon="10.320687">
        <ele>2154.941</ele>
        <time>2022-07-10T09:17:48Z</time>
      </trkpt>
      <trkpt lat="46.576757" lon="10.320487">
        <ele>2156.335</ele>
        <time>2022-07-10T09:17:54Z</time>
      </trkpt>
      <trkpt lat="46.576928" lon="10.320161">
        <ele>2157.336</ele>
        <time>2022-07-10T09:18:08Z</time>
      </trkpt>
      <trkpt lat="46.577140" lon="10.319897">
        <ele>2157.317</ele>
        <time>2022-07-10T09:18:18Z</time>
      </trkpt>
      <trkpt lat="46.577173" lon="10.319855">
        <ele>2155.818</ele>
        <time>2022-07-10T09:18:19Z</time>
      </trkpt>
      <trkpt lat="46.577201" lon="10.319804">
        <ele>2155.809</ele>
        <time>2022-07-10T09:18:20Z</time>
      </trkpt>
      <trkpt lat="46.577217" lon="10.319735">
        <ele>2155.814</ele>
        <time>2022-07-10T09:18:21Z</time>
      </trkpt>
      <trkpt lat="46.577221" lon="10.319683">
        <ele>2155.833</ele>
        <time>2022-07-10T09:18:22Z</time>
      </trkpt>
      <trkpt lat="46.577221" lon="10.319637">
        <ele>2155.871</ele>
        <time>2022-07-10T09:18:23Z</time>
      </trkpt>
      <trkpt lat="46.577218" lon="10.319603">
        <ele>2155.883</ele>
        <time>2022-07-10T09:18:24Z</time>
      </trkpt>
      <trkpt lat="46.577219" lon="10.319569">
        <ele>2155.859</ele>
        <time>2022-07-10T09:18:25Z</time>
      </trkpt>
      <trkpt lat="46.577250" lon="10.319397">
        <ele>2158.763</ele>
        <time>2022-07-10T09:18:31Z</time>
      </trkpt>
      <trkpt lat="46.577410" lon="10.318942">
        <ele>2156.884</ele>
        <time>2022-07-10T09:18:44Z</time>
      </trkpt>
      <trkpt lat="46.577539" lon="10.318661">
        <ele>2157.382</ele>
        <time>2022-07-10T09:18:52Z</time>
      </trkpt>
      <trkpt lat="46.577776" lon="10.318196">
        <ele>2158.346</ele>
        <time>2022-07-10T09:19:08Z</time>
      </trkpt>
      <trkpt lat="46.577836" lon="10.318069">
        <ele>2156.883</ele>
        <time>2022-07-10T09:19:12Z</time>
      </trkpt>
      <trkpt lat="46.577887" lon="10.317934">
        <ele>2155.825</ele>
        <time>2022-07-10T09:19:23Z</time>
      </trkpt>
      <trkpt lat="46.578042" lon="10.317616">
        <ele>2154.917</ele>
        <time>2022-07-10T09:19:33Z</time>
      </trkpt>
      <trkpt lat="46.578060" lon="10.317607">
        <ele>2154.909</ele>
        <time>2022-07-10T09:19:34Z</time>
      </trkpt>
      <trkpt lat="46.578073" lon="10.317598">
        <ele>2154.999</ele>
        <time>2022-07-10T09:19:35Z</time>
      </trkpt>
      <trkpt lat="46.578082" lon="10.317579">
        <ele>2155.848</ele>
        <time>2022-07-10T09:19:36Z</time>
      </trkpt>
      <trkpt lat="46.578089" lon="10.317554">
        <ele>2155.826</ele>
        <time>2022-07-10T09:19:37Z</time>
      </trkpt>
      <trkpt lat="46.578145" lon="10.317324">
        <ele>2153.998</ele>
        <time>2022-07-10T09:19:43Z</time>
      </trkpt>
      <trkpt lat="46.578465" lon="10.316848">
        <ele>2153.054</ele>
        <time>2022-07-10T09:19:58Z</time>
      </trkpt>
      <trkpt lat="46.578893" lon="10.316410">
        <ele>2154.498</ele>
        <time>2022-07-10T09:20:16Z</time>
      </trkpt>
      <trkpt lat="46.579320" lon="10.315978">
        <ele>2154.459</ele>
        <time>2022-07-10T09:20:33Z</time>
      </trkpt>
      <trkpt lat="46.579594" lon="10.315807">
        <ele>2153.087</ele>
        <time>2022-07-10T09:20:42Z</time>
      </trkpt>
      <trkpt lat="46.579755" lon="10.315719">
        <ele>2152.081</ele>
        <time>2022-07-10T09:20:46Z</time>
      </trkpt>
      <trkpt lat="46.579953" lon="10.315593">
        <ele>2150.616</ele>
        <time>2022-07-10T09:20:51Z</time>
      </trkpt>
      <trkpt lat="46.579989" lon="10.315574">
        <ele>2150.676</ele>
        <time>2022-07-10T09:20:52Z</time>
      </trkpt>
      <trkpt lat="46.580024" lon="10.315546">
        <ele>2150.113</ele>
        <time>2022-07-10T09:20:53Z</time>
      </trkpt>
      <trkpt lat="46.580349" lon="10.315278">
        <ele>2146.709</ele>
        <time>2022-07-10T09:21:02Z</time>
      </trkpt>
      <trkpt lat="46.580380" lon="10.315227">
        <ele>2146.242</ele>
        <time>2022-07-10T09:21:03Z</time>
      </trkpt>
      <trkpt lat="46.580649" lon="10.314869">
        <ele>2142.971</ele>
        <time>2022-07-10T09:21:11Z</time>
      </trkpt>
      <trkpt lat="46.580686" lon="10.314825">
        <ele>2142.969</ele>
        <time>2022-07-10T09:21:12Z</time>
      </trkpt>
      <trkpt lat="46.580936" lon="10.314509">
        <ele>2139.581</ele>
        <time>2022-07-10T09:21:21Z</time>
      </trkpt>
      <trkpt lat="46.580993" lon="10.314449">
        <ele>2138.567</ele>
        <time>2022-07-10T09:21:23Z</time>
      </trkpt>
      <trkpt lat="46.581069" lon="10.314393">
        <ele>2137.621</ele>
        <time>2022-07-10T09:21:25Z</time>
      </trkpt>
      <trkpt lat="46.581118" lon="10.314368">
        <ele>2137.172</ele>
        <time>2022-07-10T09:21:26Z</time>
      </trkpt>
      <trkpt lat="46.581345" lon="10.314264">
        <ele>2136.170</ele>
        <time>2022-07-10T09:21:31Z</time>
      </trkpt>
      <trkpt lat="46.581385" lon="10.314223">
        <ele>2136.184</ele>
        <time>2022-07-10T09:21:32Z</time>
      </trkpt>
      <trkpt lat="46.581600" lon="10.313839">
        <ele>2135.751</ele>
        <time>2022-07-10T09:21:41Z</time>
      </trkpt>
      <trkpt lat="46.581629" lon="10.313795">
        <ele>2134.701</ele>
        <time>2022-07-10T09:21:42Z</time>
      </trkpt>
      <trkpt lat="46.581655" lon="10.313753">
        <ele>2134.211</ele>
        <time>2022-07-10T09:21:43Z</time>
      </trkpt>
      <trkpt lat="46.581683" lon="10.313713">
        <ele>2134.709</ele>
        <time>2022-07-10T09:21:44Z</time>
      </trkpt>
      <trkpt lat="46.582166" lon="10.313296">
        <ele>2131.876</ele>
        <time>2022-07-10T09:21:59Z</time>
      </trkpt>
      <trkpt lat="46.582824" lon="10.312971">
        <ele>2131.395</ele>
        <time>2022-07-10T09:22:19Z</time>
      </trkpt>
      <trkpt lat="46.583151" lon="10.312750">
        <ele>2130.933</ele>
        <time>2022-07-10T09:22:31Z</time>
      </trkpt>
      <trkpt lat="46.583337" lon="10.312575">
        <ele>2128.575</ele>
        <time>2022-07-10T09:22:38Z</time>
      </trkpt>
      <trkpt lat="46.583435" lon="10.312492">
        <ele>2126.521</ele>
        <time>2022-07-10T09:22:41Z</time>
      </trkpt>
      <trkpt lat="46.583688" lon="10.312238">
        <ele>2123.215</ele>
        <time>2022-07-10T09:22:52Z</time>
      </trkpt>
      <trkpt lat="46.583966" lon="10.312000">
        <ele>2119.816</ele>
        <time>2022-07-10T09:23:00Z</time>
      </trkpt>
      <trkpt lat="46.584001" lon="10.311970">
        <ele>2119.344</ele>
        <time>2022-07-10T09:23:01Z</time>
      </trkpt>
      <trkpt lat="46.584035" lon="10.311932">
        <ele>2119.368</ele>
        <time>2022-07-10T09:23:02Z</time>
      </trkpt>
      <trkpt lat="46.584065" lon="10.311893">
        <ele>2117.957</ele>
        <time>2022-07-10T09:23:03Z</time>
      </trkpt>
      <trkpt lat="46.584092" lon="10.311853">
        <ele>2117.400</ele>
        <time>2022-07-10T09:23:04Z</time>
      </trkpt>
      <trkpt lat="46.584117" lon="10.311812">
        <ele>2117.420</ele>
        <time>2022-07-10T09:23:05Z</time>
      </trkpt>
      <trkpt lat="46.584331" lon="10.311564">
        <ele>2114.009</ele>
        <time>2022-07-10T09:23:12Z</time>
      </trkpt>
      <trkpt lat="46.584377" lon="10.311478">
        <ele>2113.666</ele>
        <time>2022-07-10T09:23:14Z</time>
      </trkpt>
      <trkpt lat="46.584400" lon="10.311423">
        <ele>2112.635</ele>
        <time>2022-07-10T09:23:15Z</time>
      </trkpt>
      <trkpt lat="46.584419" lon="10.311363">
        <ele>2112.643</ele>
        <time>2022-07-10T09:23:16Z</time>
      </trkpt>
      <trkpt lat="46.584434" lon="10.311301">
        <ele>2112.145</ele>
        <time>2022-07-10T09:23:17Z</time>
      </trkpt>
      <trkpt lat="46.584446" lon="10.311234">
        <ele>2112.131</ele>
        <time>2022-07-10T09:23:18Z</time>
      </trkpt>
      <trkpt lat="46.584599" lon="10.310752">
        <ele>2108.795</ele>
        <time>2022-07-10T09:23:27Z</time>
      </trkpt>
      <trkpt lat="46.584655" lon="10.310666">
        <ele>2107.836</ele>
        <time>2022-07-10T09:23:29Z</time>
      </trkpt>
      <trkpt lat="46.584810" lon="10.310482">
        <ele>2106.334</ele>
        <time>2022-07-10T09:23:33Z</time>
      </trkpt>
      <trkpt lat="46.584962" lon="10.310286">
        <ele>2105.928</ele>
        <time>2022-07-10T09:23:37Z</time>
      </trkpt>
      <trkpt lat="46.584987" lon="10.310233">
        <ele>2105.984</ele>
        <time>2022-07-10T09:23:38Z</time>
      </trkpt>
      <trkpt lat="46.585130" lon="10.309921">
        <ele>2105.907</ele>
        <time>2022-07-10T09:23:44Z</time>
      </trkpt>
      <trkpt lat="46.585437" lon="10.309467">
        <ele>2103.917</ele>
        <time>2022-07-10T09:23:54Z</time>
      </trkpt>
      <trkpt lat="46.585625" lon="10.309069">
        <ele>2103.009</ele>
        <time>2022-07-10T09:24:02Z</time>
      </trkpt>
      <trkpt lat="46.585824" lon="10.308564">
        <ele>2102.029</ele>
        <time>2022-07-10T09:24:14Z</time>
      </trkpt>
      <trkpt lat="46.586001" lon="10.308176">
        <ele>2103.098</ele>
        <time>2022-07-10T09:24:25Z</time>
      </trkpt>
      <trkpt lat="46.586158" lon="10.307778">
        <ele>2101.536</ele>
        <time>2022-07-10T09:24:33Z</time>
      </trkpt>
      <trkpt lat="46.586379" lon="10.307134">
        <ele>2101.178</ele>
        <time>2022-07-10T09:24:47Z</time>
      </trkpt>
      <trkpt lat="46.586395" lon="10.307000">
        <ele>2101.134</ele>
        <time>2022-07-10T09:24:50Z</time>
      </trkpt>
      <trkpt lat="46.586397" lon="10.306932">
        <ele>2101.168</ele>
        <time>2022-07-10T09:24:51Z</time>
      </trkpt>
      <trkpt lat="46.586393" lon="10.306863">
        <ele>2101.199</ele>
        <time>2022-07-10T09:24:52Z</time>
      </trkpt>
      <trkpt lat="46.586386" lon="10.306795">
        <ele>2100.677</ele>
        <time>2022-07-10T09:24:53Z</time>
      </trkpt>
      <trkpt lat="46.586378" lon="10.306727">
        <ele>2100.681</ele>
        <time>2022-07-10T09:24:54Z</time>
      </trkpt>
      <trkpt lat="46.586376" lon="10.306661">
        <ele>2100.675</ele>
        <time>2022-07-10T09:24:55Z</time>
      </trkpt>
      <trkpt lat="46.586380" lon="10.306604">
        <ele>2100.628</ele>
        <time>2022-07-10T09:24:56Z</time>
      </trkpt>
      <trkpt lat="46.586392" lon="10.306537">
        <ele>2100.120</ele>
        <time>2022-07-10T09:24:57Z</time>
      </trkpt>
      <trkpt lat="46.586409" lon="10.306474">
        <ele>2100.109</ele>
        <time>2022-07-10T09:24:58Z</time>
      </trkpt>
      <trkpt lat="46.586430" lon="10.306417">
        <ele>2100.128</ele>
        <time>2022-07-10T09:24:59Z</time>
      </trkpt>
      <trkpt lat="46.586450" lon="10.306363">
        <ele>2100.157</ele>
        <time>2022-07-10T09:25:00Z</time>
      </trkpt>
      <trkpt lat="46.586580" lon="10.305826">
        <ele>2099.675</ele>
        <time>2022-07-10T09:25:11Z</time>
      </trkpt>
      <trkpt lat="46.586625" lon="10.305519">
        <ele>2098.297</ele>
        <time>2022-07-10T09:25:16Z</time>
      </trkpt>
      <trkpt lat="46.586667" lon="10.305391">
        <ele>2097.273</ele>
        <time>2022-07-10T09:25:18Z</time>
      </trkpt>
      <trkpt lat="46.586697" lon="10.305327">
        <ele>2096.767</ele>
        <time>2022-07-10T09:25:19Z</time>
      </trkpt>
      <trkpt lat="46.586732" lon="10.305273">
        <ele>2096.728</ele>
        <time>2022-07-10T09:25:20Z</time>
      </trkpt>
      <trkpt lat="46.587108" lon="10.304800">
        <ele>2096.776</ele>
        <time>2022-07-10T09:25:33Z</time>
      </trkpt>
      <trkpt lat="46.587147" lon="10.304679">
        <ele>2097.740</ele>
        <time>2022-07-10T09:25:42Z</time>
      </trkpt>
      <trkpt lat="46.587155" lon="10.304658">
        <ele>2098.292</ele>
        <time>2022-07-10T09:26:20Z</time>
      </trkpt>
      <trkpt lat="46.587381" lon="10.304206">
        <ele>2096.273</ele>
        <time>2022-07-10T09:26:31Z</time>
      </trkpt>
      <trkpt lat="46.587708" lon="10.303613">
        <ele>2096.220</ele>
        <time>2022-07-10T09:26:47Z</time>
      </trkpt>
      <trkpt lat="46.587958" lon="10.303174">
        <ele>2097.709</ele>
        <time>2022-07-10T09:27:00Z</time>
      </trkpt>
      <trkpt lat="46.588229" lon="10.302896">
        <ele>2099.190</ele>
        <time>2022-07-10T09:27:16Z</time>
      </trkpt>
      <trkpt lat="46.588469" lon="10.302608">
        <ele>2099.649</ele>
        <time>2022-07-10T09:27:31Z</time>
      </trkpt>
      <trkpt lat="46.588477" lon="10.302313">
        <ele>2100.187</ele>
        <time>2022-07-10T09:27:41Z</time>
      </trkpt>
      <trkpt lat="46.588721" lon="10.301611">
        <ele>2100.629</ele>
        <time>2022-07-10T09:28:02Z</time>
      </trkpt>
      <trkpt lat="46.588903" lon="10.301156">
        <ele>2101.175</ele>
        <time>2022-07-10T09:28:17Z</time>
      </trkpt>
      <trkpt lat="46.589038" lon="10.300867">
        <ele>2101.159</ele>
        <time>2022-07-10T09:28:28Z</time>
      </trkpt>
      <trkpt lat="46.589151" lon="10.300354">
        <ele>2098.250</ele>
        <time>2022-07-10T09:28:41Z</time>
      </trkpt>
      <trkpt lat="46.589149" lon="10.300309">
        <ele>2098.218</ele>
        <time>2022-07-10T09:28:42Z</time>
      </trkpt>
      <trkpt lat="46.589165" lon="10.300090">
        <ele>2096.732</ele>
        <time>2022-07-10T09:28:46Z</time>
      </trkpt>
      <trkpt lat="46.589181" lon="10.300028">
        <ele>2095.843</ele>
        <time>2022-07-10T09:28:47Z</time>
      </trkpt>
      <trkpt lat="46.589199" lon="10.299963">
        <ele>2095.864</ele>
        <time>2022-07-10T09:28:48Z</time>
      </trkpt>
      <trkpt lat="46.589216" lon="10.299909">
        <ele>2095.810</ele>
        <time>2022-07-10T09:28:49Z</time>
      </trkpt>
      <trkpt lat="46.589230" lon="10.299849">
        <ele>2095.809</ele>
        <time>2022-07-10T09:28:50Z</time>
      </trkpt>
      <trkpt lat="46.589489" lon="10.299088">
        <ele>2093.835</ele>
        <time>2022-07-10T09:29:03Z</time>
      </trkpt>
      <trkpt lat="46.589594" lon="10.298964">
        <ele>2093.464</ele>
        <time>2022-07-10T09:29:06Z</time>
      </trkpt>
      <trkpt lat="46.589626" lon="10.298918">
        <ele>2093.492</ele>
        <time>2022-07-10T09:29:07Z</time>
      </trkpt>
      <trkpt lat="46.589647" lon="10.298870">
        <ele>2093.434</ele>
        <time>2022-07-10T09:29:08Z</time>
      </trkpt>
      <trkpt lat="46.589663" lon="10.298821">
        <ele>2093.480</ele>
        <time>2022-07-10T09:29:09Z</time>
      </trkpt>
      <trkpt lat="46.589681" lon="10.298766">
        <ele>2092.994</ele>
        <time>2022-07-10T09:29:10Z</time>
      </trkpt>
      <trkpt lat="46.589784" lon="10.298516">
        <ele>2091.495</ele>
        <time>2022-07-10T09:29:14Z</time>
      </trkpt>
      <trkpt lat="46.589840" lon="10.298403">
        <ele>2091.473</ele>
        <time>2022-07-10T09:29:16Z</time>
      </trkpt>
      <trkpt lat="46.589871" lon="10.298353">
        <ele>2091.087</ele>
        <time>2022-07-10T09:29:17Z</time>
      </trkpt>
      <trkpt lat="46.589974" lon="10.298106">
        <ele>2090.597</ele>
        <time>2022-07-10T09:29:22Z</time>
      </trkpt>
      <trkpt lat="46.589979" lon="10.298045">
        <ele>2090.523</ele>
        <time>2022-07-10T09:29:23Z</time>
      </trkpt>
      <trkpt lat="46.589983" lon="10.297985">
        <ele>2090.025</ele>
        <time>2022-07-10T09:29:24Z</time>
      </trkpt>
      <trkpt lat="46.590002" lon="10.297867">
        <ele>2089.009</ele>
        <time>2022-07-10T09:29:26Z</time>
      </trkpt>
      <trkpt lat="46.590020" lon="10.297747">
        <ele>2088.130</ele>
        <time>2022-07-10T09:29:28Z</time>
      </trkpt>
      <trkpt lat="46.590033" lon="10.297685">
        <ele>2087.149</ele>
        <time>2022-07-10T09:29:29Z</time>
      </trkpt>
      <trkpt lat="46.590047" lon="10.297628">
        <ele>2087.147</ele>
        <time>2022-07-10T09:29:30Z</time>
      </trkpt>
      <trkpt lat="46.590220" lon="10.297255">
        <ele>2083.799</ele>
        <time>2022-07-10T09:29:38Z</time>
      </trkpt>
      <trkpt lat="46.590359" lon="10.296898">
        <ele>2080.435</ele>
        <time>2022-07-10T09:29:45Z</time>
      </trkpt>
      <trkpt lat="46.590467" lon="10.296578">
        <ele>2078.969</ele>
        <time>2022-07-10T09:29:50Z</time>
      </trkpt>
      <trkpt lat="46.590540" lon="10.296337">
        <ele>2078.580</ele>
        <time>2022-07-10T09:29:54Z</time>
      </trkpt>
      <trkpt lat="46.590561" lon="10.296214">
        <ele>2078.528</ele>
        <time>2022-07-10T09:29:56Z</time>
      </trkpt>
      <trkpt lat="46.590569" lon="10.296151">
        <ele>2078.522</ele>
        <time>2022-07-10T09:29:57Z</time>
      </trkpt>
      <trkpt lat="46.590693" lon="10.295703">
        <ele>2077.577</ele>
        <time>2022-07-10T09:30:06Z</time>
      </trkpt>
      <trkpt lat="46.590769" lon="10.295501">
        <ele>2076.161</ele>
        <time>2022-07-10T09:30:10Z</time>
      </trkpt>
      <trkpt lat="46.590894" lon="10.295282">
        <ele>2074.127</ele>
        <time>2022-07-10T09:30:14Z</time>
      </trkpt>
      <trkpt lat="46.591304" lon="10.294655">
        <ele>2071.309</ele>
        <time>2022-07-10T09:30:27Z</time>
      </trkpt>
      <trkpt lat="46.591534" lon="10.294213">
        <ele>2068.458</ele>
        <time>2022-07-10T09:30:35Z</time>
      </trkpt>
      <trkpt lat="46.591923" lon="10.293595">
        <ele>2067.967</ele>
        <time>2022-07-10T09:30:50Z</time>
      </trkpt>
      <trkpt lat="46.591929" lon="10.293490">
        <ele>2068.865</ele>
        <time>2022-07-10T09:31:46Z</time>
      </trkpt>
      <trkpt lat="46.591909" lon="10.293495">
        <ele>2068.487</ele>
        <time>2022-07-10T09:31:47Z</time>
      </trkpt>
      <trkpt lat="46.591883" lon="10.293452">
        <ele>2067.993</ele>
        <time>2022-07-10T09:31:49Z</time>
      </trkpt>
      <trkpt lat="46.591876" lon="10.293413">
        <ele>2067.487</ele>
        <time>2022-07-10T09:31:50Z</time>
      </trkpt>
      <trkpt lat="46.591873" lon="10.293384">
        <ele>2067.438</ele>
        <time>2022-07-10T09:31:51Z</time>
      </trkpt>
      <trkpt lat="46.591983" lon="10.292986">
        <ele>2065.556</ele>
        <time>2022-07-10T09:32:01Z</time>
      </trkpt>
      <trkpt lat="46.592317" lon="10.292488">
        <ele>2063.610</ele>
        <time>2022-07-10T09:32:15Z</time>
      </trkpt>
      <trkpt lat="46.592570" lon="10.291944">
        <ele>2060.799</ele>
        <time>2022-07-10T09:32:28Z</time>
      </trkpt>
      <trkpt lat="46.592633" lon="10.291747">
        <ele>2060.207</ele>
        <time>2022-07-10T09:32:32Z</time>
      </trkpt>
      <trkpt lat="46.592645" lon="10.291690">
        <ele>2059.727</ele>
        <time>2022-07-10T09:32:33Z</time>
      </trkpt>
      <trkpt lat="46.592849" lon="10.291105">
        <ele>2057.809</ele>
        <time>2022-07-10T09:32:47Z</time>
      </trkpt>
      <trkpt lat="46.592875" lon="10.291055">
        <ele>2057.890</ele>
        <time>2022-07-10T09:32:57Z</time>
      </trkpt>
      <trkpt lat="46.592925" lon="10.290902">
        <ele>2057.839</ele>
        <time>2022-07-10T09:33:10Z</time>
      </trkpt>
      <trkpt lat="46.593045" lon="10.290530">
        <ele>2057.357</ele>
        <time>2022-07-10T09:33:21Z</time>
      </trkpt>
      <trkpt lat="46.593208" lon="10.289823">
        <ele>2056.839</ele>
        <time>2022-07-10T09:33:37Z</time>
      </trkpt>
      <trkpt lat="46.593434" lon="10.289315">
        <ele>2054.435</ele>
        <time>2022-07-10T09:33:50Z</time>
      </trkpt>
      <trkpt lat="46.593534" lon="10.288964">
        <ele>2051.199</ele>
        <time>2022-07-10T09:33:58Z</time>
      </trkpt>
      <trkpt lat="46.593630" lon="10.288243">
        <ele>2050.610</ele>
        <time>2022-07-10T09:34:13Z</time>
      </trkpt>
      <trkpt lat="46.593823" lon="10.287702">
        <ele>2051.188</ele>
        <time>2022-07-10T09:34:27Z</time>
      </trkpt>
      <trkpt lat="46.593966" lon="10.287225">
        <ele>2050.142</ele>
        <time>2022-07-10T09:34:38Z</time>
      </trkpt>
      <trkpt lat="46.594081" lon="10.286527">
        <ele>2047.713</ele>
        <time>2022-07-10T09:34:51Z</time>
      </trkpt>
      <trkpt lat="46.594231" lon="10.286189">
        <ele>2047.743</ele>
        <time>2022-07-10T09:35:02Z</time>
      </trkpt>
      <trkpt lat="46.594273" lon="10.286001">
        <ele>2047.707</ele>
        <time>2022-07-10T09:35:13Z</time>
      </trkpt>
      <trkpt lat="46.594381" lon="10.285691">
        <ele>2046.309</ele>
        <time>2022-07-10T09:35:26Z</time>
      </trkpt>
      <trkpt lat="46.594650" lon="10.285175">
        <ele>2044.822</ele>
        <time>2022-07-10T09:35:40Z</time>
      </trkpt>
      <trkpt lat="46.594908" lon="10.284849">
        <ele>2043.441</ele>
        <time>2022-07-10T09:35:51Z</time>
      </trkpt>
      <trkpt lat="46.595109" lon="10.284492">
        <ele>2042.439</ele>
        <time>2022-07-10T09:36:01Z</time>
      </trkpt>
      <trkpt lat="46.595134" lon="10.284447">
        <ele>2043.411</ele>
        <time>2022-07-10T09:36:03Z</time>
      </trkpt>
      <trkpt lat="46.595299" lon="10.284069">
        <ele>2042.977</ele>
        <time>2022-07-10T09:36:15Z</time>
      </trkpt>
      <trkpt lat="46.595509" lon="10.283651">
        <ele>2040.511</ele>
        <time>2022-07-10T09:36:25Z</time>
      </trkpt>
      <trkpt lat="46.595528" lon="10.283601">
        <ele>2040.072</ele>
        <time>2022-07-10T09:36:26Z</time>
      </trkpt>
      <trkpt lat="46.595550" lon="10.283554">
        <ele>2039.550</ele>
        <time>2022-07-10T09:36:27Z</time>
      </trkpt>
      <trkpt lat="46.595573" lon="10.283507">
        <ele>2039.524</ele>
        <time>2022-07-10T09:36:28Z</time>
      </trkpt>
      <trkpt lat="46.595595" lon="10.283463">
        <ele>2039.542</ele>
        <time>2022-07-10T09:36:29Z</time>
      </trkpt>
      <trkpt lat="46.595774" lon="10.283159">
        <ele>2039.522</ele>
        <time>2022-07-10T09:36:41Z</time>
      </trkpt>
      <trkpt lat="46.595769" lon="10.283142">
        <ele>2040.514</ele>
        <time>2022-07-10T09:36:53Z</time>
      </trkpt>
      <trkpt lat="46.595781" lon="10.283107">
        <ele>2040.509</ele>
        <time>2022-07-10T09:36:59Z</time>
      </trkpt>
      <trkpt lat="46.595855" lon="10.282873">
        <ele>2039.045</ele>
        <time>2022-07-10T09:37:06Z</time>
      </trkpt>
      <trkpt lat="46.595993" lon="10.282808">
        <ele>2037.174</ele>
        <time>2022-07-10T09:37:13Z</time>
      </trkpt>
      <trkpt lat="46.596010" lon="10.282790">
        <ele>2036.652</ele>
        <time>2022-07-10T09:37:14Z</time>
      </trkpt>
      <trkpt lat="46.596101" lon="10.282660">
        <ele>2032.844</ele>
        <time>2022-07-10T09:37:19Z</time>
      </trkpt>
      <trkpt lat="46.596124" lon="10.282626">
        <ele>2032.840</ele>
        <time>2022-07-10T09:37:20Z</time>
      </trkpt>
      <trkpt lat="46.596173" lon="10.282540">
        <ele>2031.834</ele>
        <time>2022-07-10T09:37:22Z</time>
      </trkpt>
      <trkpt lat="46.596197" lon="10.282487">
        <ele>2030.995</ele>
        <time>2022-07-10T09:37:23Z</time>
      </trkpt>
      <trkpt lat="46.596218" lon="10.282427">
        <ele>2030.993</ele>
        <time>2022-07-10T09:37:24Z</time>
      </trkpt>
      <trkpt lat="46.596483" lon="10.281725">
        <ele>2029.447</ele>
        <time>2022-07-10T09:37:38Z</time>
      </trkpt>
      <trkpt lat="46.596765" lon="10.281308">
        <ele>2027.012</ele>
        <time>2022-07-10T09:37:52Z</time>
      </trkpt>
      <trkpt lat="46.597022" lon="10.280683">
        <ele>2026.132</ele>
        <time>2022-07-10T09:38:09Z</time>
      </trkpt>
      <trkpt lat="46.597256" lon="10.280267">
        <ele>2025.605</ele>
        <time>2022-07-10T09:38:22Z</time>
      </trkpt>
      <trkpt lat="46.597505" lon="10.279811">
        <ele>2025.609</ele>
        <time>2022-07-10T09:38:38Z</time>
      </trkpt>
      <trkpt lat="46.597671" lon="10.279312">
        <ele>2024.622</ele>
        <time>2022-07-10T09:38:50Z</time>
      </trkpt>
      <trkpt lat="46.597852" lon="10.278870">
        <ele>2024.611</ele>
        <time>2022-07-10T09:39:03Z</time>
      </trkpt>
      <trkpt lat="46.597988" lon="10.278658">
        <ele>2024.199</ele>
        <time>2022-07-10T09:39:12Z</time>
      </trkpt>
      <trkpt lat="46.598065" lon="10.278428">
        <ele>2022.251</ele>
        <time>2022-07-10T09:39:23Z</time>
      </trkpt>
      <trkpt lat="46.598090" lon="10.278314">
        <ele>2022.237</ele>
        <time>2022-07-10T09:39:54Z</time>
      </trkpt>
      <trkpt lat="46.598172" lon="10.277654">
        <ele>2021.331</ele>
        <time>2022-07-10T09:40:09Z</time>
      </trkpt>
      <trkpt lat="46.598257" lon="10.277254">
        <ele>2022.222</ele>
        <time>2022-07-10T09:40:21Z</time>
      </trkpt>
      <trkpt lat="46.598273" lon="10.276644">
        <ele>2022.280</ele>
        <time>2022-07-10T09:40:35Z</time>
      </trkpt>
      <trkpt lat="46.598313" lon="10.276015">
        <ele>2022.234</ele>
        <time>2022-07-10T09:40:49Z</time>
      </trkpt>
      <trkpt lat="46.598385" lon="10.275404">
        <ele>2022.231</ele>
        <time>2022-07-10T09:41:02Z</time>
      </trkpt>
      <trkpt lat="46.598527" lon="10.274909">
        <ele>2022.261</ele>
        <time>2022-07-10T09:41:14Z</time>
      </trkpt>
      <trkpt lat="46.598456" lon="10.274534">
        <ele>2020.807</ele>
        <time>2022-07-10T09:41:22Z</time>
      </trkpt>
      <trkpt lat="46.598452" lon="10.274477">
        <ele>2020.809</ele>
        <time>2022-07-10T09:41:23Z</time>
      </trkpt>
      <trkpt lat="46.598453" lon="10.274415">
        <ele>2020.354</ele>
        <time>2022-07-10T09:41:24Z</time>
      </trkpt>
      <trkpt lat="46.598503" lon="10.273730">
        <ele>2017.983</ele>
        <time>2022-07-10T09:41:36Z</time>
      </trkpt>
      <trkpt lat="46.598534" lon="10.273699">
        <ele>2017.961</ele>
        <time>2022-07-10T09:41:37Z</time>
      </trkpt>
      <trkpt lat="46.598708" lon="10.273440">
        <ele>2017.473</ele>
        <time>2022-07-10T09:41:47Z</time>
      </trkpt>
      <trkpt lat="46.598822" lon="10.273215">
        <ele>2016.919</ele>
        <time>2022-07-10T09:41:59Z</time>
      </trkpt>
      <trkpt lat="46.598945" lon="10.273036">
        <ele>2016.593</ele>
        <time>2022-07-10T09:42:14Z</time>
      </trkpt>
      <trkpt lat="46.599256" lon="10.272549">
        <ele>2012.614</ele>
        <time>2022-07-10T09:42:23Z</time>
      </trkpt>
      <trkpt lat="46.599633" lon="10.271953">
        <ele>2011.782</ele>
        <time>2022-07-10T09:42:33Z</time>
      </trkpt>
      <trkpt lat="46.599663" lon="10.271886">
        <ele>2011.746</ele>
        <time>2022-07-10T09:42:34Z</time>
      </trkpt>
      <trkpt lat="46.599686" lon="10.271811">
        <ele>2011.792</ele>
        <time>2022-07-10T09:42:35Z</time>
      </trkpt>
      <trkpt lat="46.599742" lon="10.271593">
        <ele>2011.773</ele>
        <time>2022-07-10T09:42:38Z</time>
      </trkpt>
      <trkpt lat="46.599764" lon="10.271523">
        <ele>2011.720</ele>
        <time>2022-07-10T09:42:39Z</time>
      </trkpt>
      <trkpt lat="46.599778" lon="10.271450">
        <ele>2011.709</ele>
        <time>2022-07-10T09:42:40Z</time>
      </trkpt>
      <trkpt lat="46.599785" lon="10.271375">
        <ele>2011.260</ele>
        <time>2022-07-10T09:42:41Z</time>
      </trkpt>
      <trkpt lat="46.599786" lon="10.271287">
        <ele>2011.229</ele>
        <time>2022-07-10T09:42:42Z</time>
      </trkpt>
      <trkpt lat="46.599782" lon="10.271218">
        <ele>2011.267</ele>
        <time>2022-07-10T09:42:43Z</time>
      </trkpt>
      <trkpt lat="46.599773" lon="10.271120">
        <ele>2010.739</ele>
        <time>2022-07-10T09:42:44Z</time>
      </trkpt>
      <trkpt lat="46.599748" lon="10.270918">
        <ele>2010.215</ele>
        <time>2022-07-10T09:42:47Z</time>
      </trkpt>
      <trkpt lat="46.599727" lon="10.270827">
        <ele>2009.789</ele>
        <time>2022-07-10T09:42:48Z</time>
      </trkpt>
      <trkpt lat="46.599708" lon="10.270781">
        <ele>2009.780</ele>
        <time>2022-07-10T09:42:49Z</time>
      </trkpt>
      <trkpt lat="46.599673" lon="10.270722">
        <ele>2009.778</ele>
        <time>2022-07-10T09:42:50Z</time>
      </trkpt>
      <trkpt lat="46.599639" lon="10.270680">
        <ele>2009.782</ele>
        <time>2022-07-10T09:42:51Z</time>
      </trkpt>
      <trkpt lat="46.599599" lon="10.270634">
        <ele>2009.272</ele>
        <time>2022-07-10T09:42:52Z</time>
      </trkpt>
      <trkpt lat="46.599564" lon="10.270586">
        <ele>2009.213</ele>
        <time>2022-07-10T09:42:53Z</time>
      </trkpt>
      <trkpt lat="46.599535" lon="10.270533">
        <ele>2009.214</ele>
        <time>2022-07-10T09:42:54Z</time>
      </trkpt>
      <trkpt lat="46.599512" lon="10.270476">
        <ele>2008.809</ele>
        <time>2022-07-10T09:42:55Z</time>
      </trkpt>
      <trkpt lat="46.599492" lon="10.270412">
        <ele>2008.858</ele>
        <time>2022-07-10T09:42:56Z</time>
      </trkpt>
      <trkpt lat="46.599475" lon="10.270349">
        <ele>2008.357</ele>
        <time>2022-07-10T09:42:57Z</time>
      </trkpt>
      <trkpt lat="46.599411" lon="10.270092">
        <ele>2007.875</ele>
        <time>2022-07-10T09:43:01Z</time>
      </trkpt>
      <trkpt lat="46.599358" lon="10.268991">
        <ele>2005.987</ele>
        <time>2022-07-10T09:43:16Z</time>
      </trkpt>
      <trkpt lat="46.599355" lon="10.268945">
        <ele>2005.993</ele>
        <time>2022-07-10T09:43:17Z</time>
      </trkpt>
      <trkpt lat="46.599344" lon="10.268887">
        <ele>2005.927</ele>
        <time>2022-07-10T09:43:18Z</time>
      </trkpt>
      <trkpt lat="46.599332" lon="10.268838">
        <ele>2005.998</ele>
        <time>2022-07-10T09:43:19Z</time>
      </trkpt>
      <trkpt lat="46.599315" lon="10.268786">
        <ele>2005.916</ele>
        <time>2022-07-10T09:43:20Z</time>
      </trkpt>
      <trkpt lat="46.599295" lon="10.268732">
        <ele>2005.920</ele>
        <time>2022-07-10T09:43:21Z</time>
      </trkpt>
      <trkpt lat="46.599110" lon="10.268180">
        <ele>2004.475</ele>
        <time>2022-07-10T09:43:33Z</time>
      </trkpt>
      <trkpt lat="46.598802" lon="10.267655">
        <ele>2004.028</ele>
        <time>2022-07-10T09:43:45Z</time>
      </trkpt>
      <trkpt lat="46.598741" lon="10.267469">
        <ele>2003.020</ele>
        <time>2022-07-10T09:43:48Z</time>
      </trkpt>
      <trkpt lat="46.598730" lon="10.267405">
        <ele>2003.009</ele>
        <time>2022-07-10T09:43:49Z</time>
      </trkpt>
      <trkpt lat="46.598719" lon="10.267343">
        <ele>2003.088</ele>
        <time>2022-07-10T09:43:50Z</time>
      </trkpt>
      <trkpt lat="46.598706" lon="10.267284">
        <ele>2003.027</ele>
        <time>2022-07-10T09:43:51Z</time>
      </trkpt>
      <trkpt lat="46.598694" lon="10.267226">
        <ele>2003.085</ele>
        <time>2022-07-10T09:43:52Z</time>
      </trkpt>
      <trkpt lat="46.598684" lon="10.267175">
        <ele>2003.087</ele>
        <time>2022-07-10T09:43:53Z</time>
      </trkpt>
      <trkpt lat="46.598421" lon="10.266407">
        <ele>2001.673</ele>
        <time>2022-07-10T09:44:10Z</time>
      </trkpt>
      <trkpt lat="46.598292" lon="10.266033">
        <ele>2003.037</ele>
        <time>2022-07-10T09:44:23Z</time>
      </trkpt>
      <trkpt lat="46.598270" lon="10.265982">
        <ele>2003.048</ele>
        <time>2022-07-10T09:44:25Z</time>
      </trkpt>
      <trkpt lat="46.598135" lon="10.265648">
        <ele>2003.066</ele>
        <time>2022-07-10T09:44:35Z</time>
      </trkpt>
      <trkpt lat="46.598107" lon="10.265602">
        <ele>2003.070</ele>
        <time>2022-07-10T09:44:36Z</time>
      </trkpt>
      <trkpt lat="46.598088" lon="10.265549">
        <ele>2003.055</ele>
        <time>2022-07-10T09:44:37Z</time>
      </trkpt>
      <trkpt lat="46.598073" lon="10.265498">
        <ele>2003.007</ele>
        <time>2022-07-10T09:44:38Z</time>
      </trkpt>
      <trkpt lat="46.597991" lon="10.265251">
        <ele>2004.417</ele>
        <time>2022-07-10T09:44:48Z</time>
      </trkpt>
      <trkpt lat="46.597973" lon="10.265233">
        <ele>2004.909</ele>
        <time>2022-07-10T09:44:50Z</time>
      </trkpt>
      <trkpt lat="46.597961" lon="10.265222">
        <ele>2004.986</ele>
        <time>2022-07-10T09:44:51Z</time>
      </trkpt>
      <trkpt lat="46.597947" lon="10.265207">
        <ele>2004.945</ele>
        <time>2022-07-10T09:44:52Z</time>
      </trkpt>
      <trkpt lat="46.597933" lon="10.265191">
        <ele>2004.973</ele>
        <time>2022-07-10T09:44:53Z</time>
      </trkpt>
      <trkpt lat="46.597917" lon="10.265173">
        <ele>2004.935</ele>
        <time>2022-07-10T09:44:54Z</time>
      </trkpt>
      <trkpt lat="46.597721" lon="10.264935">
        <ele>2004.931</ele>
        <time>2022-07-10T09:45:06Z</time>
      </trkpt>
      <trkpt lat="46.597534" lon="10.264733">
        <ele>2005.435</ele>
        <time>2022-07-10T09:45:20Z</time>
      </trkpt>
      <trkpt lat="46.597329" lon="10.264543">
        <ele>2006.436</ele>
        <time>2022-07-10T09:45:33Z</time>
      </trkpt>
      <trkpt lat="46.597148" lon="10.264285">
        <ele>2006.484</ele>
        <time>2022-07-10T09:45:44Z</time>
      </trkpt>
      <trkpt lat="46.597068" lon="10.264176">
        <ele>2005.488</ele>
        <time>2022-07-10T09:45:47Z</time>
      </trkpt>
      <trkpt lat="46.597004" lon="10.264093">
        <ele>2005.499</ele>
        <time>2022-07-10T09:45:56Z</time>
      </trkpt>
      <trkpt lat="46.596868" lon="10.263813">
        <ele>2003.507</ele>
        <time>2022-07-10T09:46:08Z</time>
      </trkpt>
      <trkpt lat="46.596716" lon="10.263511">
        <ele>2002.527</ele>
        <time>2022-07-10T09:46:17Z</time>
      </trkpt>
      <trkpt lat="46.596538" lon="10.263254">
        <ele>2004.409</ele>
        <time>2022-07-10T09:46:28Z</time>
      </trkpt>
      <trkpt lat="46.596255" lon="10.263015">
        <ele>2002.580</ele>
        <time>2022-07-10T09:46:40Z</time>
      </trkpt>
      <trkpt lat="46.596239" lon="10.262989">
        <ele>2002.599</ele>
        <time>2022-07-10T09:46:41Z</time>
      </trkpt>
      <trkpt lat="46.596225" lon="10.262963">
        <ele>2002.577</ele>
        <time>2022-07-10T09:46:42Z</time>
      </trkpt>
      <trkpt lat="46.596210" lon="10.262941">
        <ele>2002.539</ele>
        <time>2022-07-10T09:46:43Z</time>
      </trkpt>
      <trkpt lat="46.596192" lon="10.262926">
        <ele>2002.515</ele>
        <time>2022-07-10T09:46:44Z</time>
      </trkpt>
      <trkpt lat="46.596174" lon="10.262915">
        <ele>2002.589</ele>
        <time>2022-07-10T09:46:45Z</time>
      </trkpt>
      <trkpt lat="46.596160" lon="10.262903">
        <ele>2004.090</ele>
        <time>2022-07-10T09:46:46Z</time>
      </trkpt>
      <trkpt lat="46.596147" lon="10.262892">
        <ele>2004.058</ele>
        <time>2022-07-10T09:46:47Z</time>
      </trkpt>
      <trkpt lat="46.596135" lon="10.262880">
        <ele>2004.042</ele>
        <time>2022-07-10T09:46:48Z</time>
      </trkpt>
      <trkpt lat="46.596120" lon="10.262865">
        <ele>2004.028</ele>
        <time>2022-07-10T09:46:49Z</time>
      </trkpt>
      <trkpt lat="46.596102" lon="10.262854">
        <ele>2004.089</ele>
        <time>2022-07-10T09:46:50Z</time>
      </trkpt>
      <trkpt lat="46.595955" lon="10.262739">
        <ele>2000.617</ele>
        <time>2022-07-10T09:46:59Z</time>
      </trkpt>
      <trkpt lat="46.595944" lon="10.262720">
        <ele>2000.609</ele>
        <time>2022-07-10T09:47:00Z</time>
      </trkpt>
      <trkpt lat="46.595933" lon="10.262695">
        <ele>2000.673</ele>
        <time>2022-07-10T09:47:01Z</time>
      </trkpt>
      <trkpt lat="46.595911" lon="10.262667">
        <ele>2000.682</ele>
        <time>2022-07-10T09:47:02Z</time>
      </trkpt>
      <trkpt lat="46.595883" lon="10.262649">
        <ele>1999.630</ele>
        <time>2022-07-10T09:47:03Z</time>
      </trkpt>
      <trkpt lat="46.595844" lon="10.262630">
        <ele>1998.752</ele>
        <time>2022-07-10T09:47:04Z</time>
      </trkpt>
      <trkpt lat="46.595822" lon="10.262613">
        <ele>1998.738</ele>
        <time>2022-07-10T09:47:05Z</time>
      </trkpt>
      <trkpt lat="46.595798" lon="10.262594">
        <ele>1998.792</ele>
        <time>2022-07-10T09:47:06Z</time>
      </trkpt>
      <trkpt lat="46.595782" lon="10.262586">
        <ele>1998.773</ele>
        <time>2022-07-10T09:47:07Z</time>
      </trkpt>
      <trkpt lat="46.595763" lon="10.262576">
        <ele>1998.741</ele>
        <time>2022-07-10T09:47:08Z</time>
      </trkpt>
      <trkpt lat="46.595750" lon="10.262563">
        <ele>1998.765</ele>
        <time>2022-07-10T09:47:09Z</time>
      </trkpt>
      <trkpt lat="46.595737" lon="10.262549">
        <ele>1998.714</ele>
        <time>2022-07-10T09:47:10Z</time>
      </trkpt>
      <trkpt lat="46.595657" lon="10.262339">
        <ele>2000.154</ele>
        <time>2022-07-10T09:47:17Z</time>
      </trkpt>
      <trkpt lat="46.595572" lon="10.262044">
        <ele>2000.109</ele>
        <time>2022-07-10T09:47:25Z</time>
      </trkpt>
      <trkpt lat="46.595569" lon="10.261987">
        <ele>1998.709</ele>
        <time>2022-07-10T09:47:27Z</time>
      </trkpt>
      <trkpt lat="46.595540" lon="10.261937">
        <ele>1999.662</ele>
        <time>2022-07-10T09:47:41Z</time>
      </trkpt>
      <trkpt lat="46.595526" lon="10.261803">
        <ele>1999.681</ele>
        <time>2022-07-10T09:48:02Z</time>
      </trkpt>
      <trkpt lat="46.595548" lon="10.261566">
        <ele>1998.299</ele>
        <time>2022-07-10T09:48:08Z</time>
      </trkpt>
      <trkpt lat="46.595579" lon="10.261227">
        <ele>1999.641</ele>
        <time>2022-07-10T09:48:18Z</time>
      </trkpt>
      <trkpt lat="46.595591" lon="10.261098">
        <ele>1999.617</ele>
        <time>2022-07-10T09:48:22Z</time>
      </trkpt>
      <trkpt lat="46.595584" lon="10.261075">
        <ele>1999.691</ele>
        <time>2022-07-10T09:48:23Z</time>
      </trkpt>
      <trkpt lat="46.595560" lon="10.260977">
        <ele>1998.752</ele>
        <time>2022-07-10T09:48:26Z</time>
      </trkpt>
      <trkpt lat="46.595512" lon="10.260844">
        <ele>1996.820</ele>
        <time>2022-07-10T09:48:29Z</time>
      </trkpt>
      <trkpt lat="46.595486" lon="10.260800">
        <ele>1996.354</ele>
        <time>2022-07-10T09:48:30Z</time>
      </trkpt>
      <trkpt lat="46.595182" lon="10.260534">
        <ele>1993.419</ele>
        <time>2022-07-10T09:48:42Z</time>
      </trkpt>
      <trkpt lat="46.595119" lon="10.260495">
        <ele>1992.909</ele>
        <time>2022-07-10T09:48:44Z</time>
      </trkpt>
      <trkpt lat="46.594747" lon="10.260311">
        <ele>1990.519</ele>
        <time>2022-07-10T09:48:58Z</time>
      </trkpt>
      <trkpt lat="46.594560" lon="10.260105">
        <ele>1988.609</ele>
        <time>2022-07-10T09:49:10Z</time>
      </trkpt>
      <trkpt lat="46.594385" lon="10.260102">
        <ele>1987.182</ele>
        <time>2022-07-10T09:49:17Z</time>
      </trkpt>
      <trkpt lat="46.594367" lon="10.260083">
        <ele>1987.191</ele>
        <time>2022-07-10T09:49:18Z</time>
      </trkpt>
      <trkpt lat="46.594362" lon="10.260057">
        <ele>1987.169</ele>
        <time>2022-07-10T09:49:19Z</time>
      </trkpt>
      <trkpt lat="46.594358" lon="10.260028">
        <ele>1987.181</ele>
        <time>2022-07-10T09:49:20Z</time>
      </trkpt>
      <trkpt lat="46.594352" lon="10.259998">
        <ele>1987.177</ele>
        <time>2022-07-10T09:49:21Z</time>
      </trkpt>
      <trkpt lat="46.594180" lon="10.259708">
        <ele>1985.721</ele>
        <time>2022-07-10T09:49:30Z</time>
      </trkpt>
      <trkpt lat="46.593995" lon="10.259397">
        <ele>1984.732</ele>
        <time>2022-07-10T09:49:39Z</time>
      </trkpt>
      <trkpt lat="46.593967" lon="10.259360">
        <ele>1984.380</ele>
        <time>2022-07-10T09:49:41Z</time>
      </trkpt>
      <trkpt lat="46.593949" lon="10.259353">
        <ele>1984.334</ele>
        <time>2022-07-10T09:49:42Z</time>
      </trkpt>
      <trkpt lat="46.593928" lon="10.259352">
        <ele>1983.864</ele>
        <time>2022-07-10T09:49:43Z</time>
      </trkpt>
      <trkpt lat="46.593909" lon="10.259349">
        <ele>1983.806</ele>
        <time>2022-07-10T09:49:44Z</time>
      </trkpt>
      <trkpt lat="46.593894" lon="10.259334">
        <ele>1983.816</ele>
        <time>2022-07-10T09:49:45Z</time>
      </trkpt>
      <trkpt lat="46.593880" lon="10.259314">
        <ele>1983.809</ele>
        <time>2022-07-10T09:49:46Z</time>
      </trkpt>
      <trkpt lat="46.593863" lon="10.259295">
        <ele>1983.837</ele>
        <time>2022-07-10T09:49:47Z</time>
      </trkpt>
      <trkpt lat="46.593841" lon="10.259281">
        <ele>1983.846</ele>
        <time>2022-07-10T09:49:48Z</time>
      </trkpt>
      <trkpt lat="46.593815" lon="10.259268">
        <ele>1983.854</ele>
        <time>2022-07-10T09:49:49Z</time>
      </trkpt>
      <trkpt lat="46.593597" lon="10.258997">
        <ele>1982.876</ele>
        <time>2022-07-10T09:50:00Z</time>
      </trkpt>
      <trkpt lat="46.593420" lon="10.258817">
        <ele>1984.382</ele>
        <time>2022-07-10T09:50:10Z</time>
      </trkpt>
      <trkpt lat="46.593360" lon="10.258785">
        <ele>1984.716</ele>
        <time>2022-07-10T09:50:14Z</time>
      </trkpt>
      <trkpt lat="46.593334" lon="10.258770">
        <ele>1984.377</ele>
        <time>2022-07-10T09:50:15Z</time>
      </trkpt>
      <trkpt lat="46.593318" lon="10.258756">
        <ele>1984.375</ele>
        <time>2022-07-10T09:50:16Z</time>
      </trkpt>
      <trkpt lat="46.593309" lon="10.258745">
        <ele>1984.399</ele>
        <time>2022-07-10T09:50:17Z</time>
      </trkpt>
      <trkpt lat="46.593295" lon="10.258741">
        <ele>1984.724</ele>
        <time>2022-07-10T09:50:18Z</time>
      </trkpt>
      <trkpt lat="46.593274" lon="10.258737">
        <ele>1984.704</ele>
        <time>2022-07-10T09:50:31Z</time>
      </trkpt>
      <trkpt lat="46.593280" lon="10.258739">
        <ele>1984.714</ele>
        <time>2022-07-10T09:50:46Z</time>
      </trkpt>
      <trkpt lat="46.593263" lon="10.258744">
        <ele>1984.709</ele>
        <time>2022-07-10T09:50:47Z</time>
      </trkpt>
      <trkpt lat="46.593150" lon="10.258723">
        <ele>1982.873</ele>
        <time>2022-07-10T09:50:51Z</time>
      </trkpt>
      <trkpt lat="46.592908" lon="10.258641">
        <ele>1979.912</ele>
        <time>2022-07-10T09:50:56Z</time>
      </trkpt>
      <trkpt lat="46.592872" lon="10.258621">
        <ele>1979.920</ele>
        <time>2022-07-10T09:50:57Z</time>
      </trkpt>
      <trkpt lat="46.592623" lon="10.258462">
        <ele>1981.482</ele>
        <time>2022-07-10T09:51:06Z</time>
      </trkpt>
      <trkpt lat="46.592409" lon="10.258271">
        <ele>1979.928</ele>
        <time>2022-07-10T09:51:17Z</time>
      </trkpt>
      <trkpt lat="46.592328" lon="10.258210">
        <ele>1979.012</ele>
        <time>2022-07-10T09:51:27Z</time>
      </trkpt>
      <trkpt lat="46.592237" lon="10.258187">
        <ele>1982.363</ele>
        <time>2022-07-10T09:51:39Z</time>
      </trkpt>
      <trkpt lat="46.592139" lon="10.258066">
        <ele>1984.741</ele>
        <time>2022-07-10T09:51:57Z</time>
      </trkpt>
      <trkpt lat="46.592053" lon="10.257972">
        <ele>1984.725</ele>
        <time>2022-07-10T09:52:11Z</time>
      </trkpt>
      <trkpt lat="46.591956" lon="10.257785">
        <ele>1983.311</ele>
        <time>2022-07-10T09:52:22Z</time>
      </trkpt>
      <trkpt lat="46.591932" lon="10.257766">
        <ele>1982.321</ele>
        <time>2022-07-10T09:52:23Z</time>
      </trkpt>
      <trkpt lat="46.591905" lon="10.257758">
        <ele>1982.303</ele>
        <time>2022-07-10T09:52:24Z</time>
      </trkpt>
      <trkpt lat="46.591876" lon="10.257746">
        <ele>1981.909</ele>
        <time>2022-07-10T09:52:25Z</time>
      </trkpt>
      <trkpt lat="46.591856" lon="10.257715">
        <ele>1981.992</ele>
        <time>2022-07-10T09:52:26Z</time>
      </trkpt>
      <trkpt lat="46.591844" lon="10.257682">
        <ele>1981.931</ele>
        <time>2022-07-10T09:52:27Z</time>
      </trkpt>
      <trkpt lat="46.591744" lon="10.257472">
        <ele>1981.999</ele>
        <time>2022-07-10T09:52:39Z</time>
      </trkpt>
      <trkpt lat="46.591514" lon="10.257090">
        <ele>1980.971</ele>
        <time>2022-07-10T09:52:52Z</time>
      </trkpt>
      <trkpt lat="46.591356" lon="10.256741">
        <ele>1980.917</ele>
        <time>2022-07-10T09:53:04Z</time>
      </trkpt>
      <trkpt lat="46.591102" lon="10.256546">
        <ele>1980.931</ele>
        <time>2022-07-10T09:53:13Z</time>
      </trkpt>
      <trkpt lat="46.590730" lon="10.256265">
        <ele>1977.542</ele>
        <time>2022-07-10T09:53:22Z</time>
      </trkpt>
      <trkpt lat="46.590688" lon="10.256237">
        <ele>1977.520</ele>
        <time>2022-07-10T09:53:23Z</time>
      </trkpt>
      <trkpt lat="46.590604" lon="10.256169">
        <ele>1977.024</ele>
        <time>2022-07-10T09:53:25Z</time>
      </trkpt>
      <trkpt lat="46.590387" lon="10.256085">
        <ele>1979.048</ele>
        <time>2022-07-10T09:53:34Z</time>
      </trkpt>
      <trkpt lat="46.590372" lon="10.256060">
        <ele>1978.561</ele>
        <time>2022-07-10T09:53:48Z</time>
      </trkpt>
      <trkpt lat="46.590364" lon="10.256080">
        <ele>1979.017</ele>
        <time>2022-07-10T09:54:13Z</time>
      </trkpt>
      <trkpt lat="46.590289" lon="10.256047">
        <ele>1979.409</ele>
        <time>2022-07-10T09:54:38Z</time>
      </trkpt>
      <trkpt lat="46.590173" lon="10.255941">
        <ele>1980.475</ele>
        <time>2022-07-10T09:54:52Z</time>
      </trkpt>
      <trkpt lat="46.590035" lon="10.255853">
        <ele>1982.314</ele>
        <time>2022-07-10T09:55:10Z</time>
      </trkpt>
      <trkpt lat="46.590017" lon="10.255850">
        <ele>1982.882</ele>
        <time>2022-07-10T09:55:12Z</time>
      </trkpt>
      <trkpt lat="46.589899" lon="10.255811">
        <ele>1983.854</ele>
        <time>2022-07-10T09:55:29Z</time>
      </trkpt>
      <trkpt lat="46.589878" lon="10.255769">
        <ele>1984.750</ele>
        <time>2022-07-10T09:55:45Z</time>
      </trkpt>
      <trkpt lat="46.589847" lon="10.255747">
        <ele>1984.744</ele>
        <time>2022-07-10T09:56:02Z</time>
      </trkpt>
      <trkpt lat="46.589767" lon="10.255665">
        <ele>1983.325</ele>
        <time>2022-07-10T09:56:07Z</time>
      </trkpt>
      <trkpt lat="46.589646" lon="10.255515">
        <ele>1980.923</ele>
        <time>2022-07-10T09:56:13Z</time>
      </trkpt>
      <trkpt lat="46.589607" lon="10.255322">
        <ele>1977.577</ele>
        <time>2022-07-10T09:56:19Z</time>
      </trkpt>
      <trkpt lat="46.589491" lon="10.255217">
        <ele>1974.212</ele>
        <time>2022-07-10T09:56:26Z</time>
      </trkpt>
      <trkpt lat="46.589386" lon="10.255225">
        <ele>1971.332</ele>
        <time>2022-07-10T09:56:36Z</time>
      </trkpt>
      <trkpt lat="46.589446" lon="10.255134">
        <ele>1969.405</ele>
        <time>2022-07-10T09:56:40Z</time>
      </trkpt>
      <trkpt lat="46.589458" lon="10.255072">
        <ele>1968.409</ele>
        <time>2022-07-10T09:56:42Z</time>
      </trkpt>
      <trkpt lat="46.589448" lon="10.255037">
        <ele>1968.422</ele>
        <time>2022-07-10T09:56:43Z</time>
      </trkpt>
      <trkpt lat="46.589429" lon="10.255019">
        <ele>1967.481</ele>
        <time>2022-07-10T09:56:44Z</time>
      </trkpt>
      <trkpt lat="46.589400" lon="10.255013">
        <ele>1967.459</ele>
        <time>2022-07-10T09:56:45Z</time>
      </trkpt>
      <trkpt lat="46.589362" lon="10.255009">
        <ele>1966.581</ele>
        <time>2022-07-10T09:56:46Z</time>
      </trkpt>
      <trkpt lat="46.589325" lon="10.255002">
        <ele>1966.017</ele>
        <time>2022-07-10T09:56:47Z</time>
      </trkpt>
      <trkpt lat="46.589289" lon="10.254991">
        <ele>1965.011</ele>
        <time>2022-07-10T09:56:48Z</time>
      </trkpt>
      <trkpt lat="46.589248" lon="10.254974">
        <ele>1964.572</ele>
        <time>2022-07-10T09:56:49Z</time>
      </trkpt>
      <trkpt lat="46.589148" lon="10.254925">
        <ele>1963.110</ele>
        <time>2022-07-10T09:56:51Z</time>
      </trkpt>
      <trkpt lat="46.589091" lon="10.254908">
        <ele>1961.744</ele>
        <time>2022-07-10T09:56:52Z</time>
      </trkpt>
      <trkpt lat="46.589040" lon="10.254904">
        <ele>1961.751</ele>
        <time>2022-07-10T09:56:53Z</time>
      </trkpt>
      <trkpt lat="46.588715" lon="10.254763">
        <ele>1960.201</ele>
        <time>2022-07-10T09:57:03Z</time>
      </trkpt>
      <trkpt lat="46.588676" lon="10.254733">
        <ele>1958.811</ele>
        <time>2022-07-10T09:57:04Z</time>
      </trkpt>
      <trkpt lat="46.588631" lon="10.254706">
        <ele>1958.809</ele>
        <time>2022-07-10T09:57:05Z</time>
      </trkpt>
      <trkpt lat="46.588312" lon="10.254489">
        <ele>1957.356</ele>
        <time>2022-07-10T09:57:12Z</time>
      </trkpt>
      <trkpt lat="46.588261" lon="10.254466">
        <ele>1957.325</ele>
        <time>2022-07-10T09:57:13Z</time>
      </trkpt>
      <trkpt lat="46.588218" lon="10.254440">
        <ele>1957.343</ele>
        <time>2022-07-10T09:57:14Z</time>
      </trkpt>
      <trkpt lat="46.587856" lon="10.254217">
        <ele>1956.985</ele>
        <time>2022-07-10T09:57:25Z</time>
      </trkpt>
      <trkpt lat="46.587615" lon="10.254129">
        <ele>1956.471</ele>
        <time>2022-07-10T09:57:32Z</time>
      </trkpt>
      <trkpt lat="46.587296" lon="10.254082">
        <ele>1955.425</ele>
        <time>2022-07-10T09:57:42Z</time>
      </trkpt>
      <trkpt lat="46.586968" lon="10.254014">
        <ele>1954.926</ele>
        <time>2022-07-10T09:57:53Z</time>
      </trkpt>
      <trkpt lat="46.586853" lon="10.253975">
        <ele>1956.484</ele>
        <time>2022-07-10T09:57:59Z</time>
      </trkpt>
      <trkpt lat="46.586684" lon="10.253889">
        <ele>1956.448</ele>
        <time>2022-07-10T09:58:10Z</time>
      </trkpt>
      <trkpt lat="46.586677" lon="10.253888">
        <ele>1956.493</ele>
        <time>2022-07-10T09:58:23Z</time>
      </trkpt>
      <trkpt lat="46.586689" lon="10.253821">
        <ele>1954.965</ele>
        <time>2022-07-10T09:58:34Z</time>
      </trkpt>
      <trkpt lat="46.586610" lon="10.253784">
        <ele>1953.021</ele>
        <time>2022-07-10T09:58:47Z</time>
      </trkpt>
      <trkpt lat="46.586580" lon="10.253788">
        <ele>1954.509</ele>
        <time>2022-07-10T09:58:53Z</time>
      </trkpt>
      <trkpt lat="46.586502" lon="10.253791">
        <ele>1955.980</ele>
        <time>2022-07-10T09:59:07Z</time>
      </trkpt>
      <trkpt lat="46.586449" lon="10.253665">
        <ele>1957.879</ele>
        <time>2022-07-10T09:59:21Z</time>
      </trkpt>
      <trkpt lat="46.586383" lon="10.253552">
        <ele>1958.347</ele>
        <time>2022-07-10T09:59:39Z</time>
      </trkpt>
      <trkpt lat="46.586314" lon="10.253527">
        <ele>1958.859</ele>
        <time>2022-07-10T09:59:51Z</time>
      </trkpt>
      <trkpt lat="46.586303" lon="10.253519">
        <ele>1958.845</ele>
        <time>2022-07-10T09:59:52Z</time>
      </trkpt>
      <trkpt lat="46.586095" lon="10.253417">
        <ele>1958.399</ele>
        <time>2022-07-10T10:00:04Z</time>
      </trkpt>
      <trkpt lat="46.586026" lon="10.253350">
        <ele>1956.460</ele>
        <time>2022-07-10T10:00:09Z</time>
      </trkpt>
      <trkpt lat="46.585884" lon="10.253210">
        <ele>1953.088</ele>
        <time>2022-07-10T10:00:17Z</time>
      </trkpt>
      <trkpt lat="46.585865" lon="10.253190">
        <ele>1953.072</ele>
        <time>2022-07-10T10:00:18Z</time>
      </trkpt>
      <trkpt lat="46.585733" lon="10.253033">
        <ele>1949.281</ele>
        <time>2022-07-10T10:00:26Z</time>
      </trkpt>
      <trkpt lat="46.585688" lon="10.252999">
        <ele>1948.261</ele>
        <time>2022-07-10T10:00:28Z</time>
      </trkpt>
      <trkpt lat="46.585593" lon="10.252919">
        <ele>1945.317</ele>
        <time>2022-07-10T10:00:32Z</time>
      </trkpt>
      <trkpt lat="46.585511" lon="10.252888">
        <ele>1943.909</ele>
        <time>2022-07-10T10:00:35Z</time>
      </trkpt>
      <trkpt lat="46.585082" lon="10.252840">
        <ele>1941.099</ele>
        <time>2022-07-10T10:00:46Z</time>
      </trkpt>
      <trkpt lat="46.585045" lon="10.252811">
        <ele>1941.558</ele>
        <time>2022-07-10T10:00:47Z</time>
      </trkpt>
      <trkpt lat="46.585006" lon="10.252779">
        <ele>1941.046</ele>
        <time>2022-07-10T10:00:48Z</time>
      </trkpt>
      <trkpt lat="46.584965" lon="10.252750">
        <ele>1940.048</ele>
        <time>2022-07-10T10:00:49Z</time>
      </trkpt>
      <trkpt lat="46.584921" lon="10.252722">
        <ele>1940.014</ele>
        <time>2022-07-10T10:00:50Z</time>
      </trkpt>
      <trkpt lat="46.584657" lon="10.252512">
        <ele>1941.568</ele>
        <time>2022-07-10T10:00:59Z</time>
      </trkpt>
      <trkpt lat="46.584644" lon="10.252507">
        <ele>1941.539</ele>
        <time>2022-07-10T10:01:00Z</time>
      </trkpt>
      <trkpt lat="46.584621" lon="10.252494">
        <ele>1942.427</ele>
        <time>2022-07-10T10:01:02Z</time>
      </trkpt>
      <trkpt lat="46.584599" lon="10.252479">
        <ele>1942.471</ele>
        <time>2022-07-10T10:01:04Z</time>
      </trkpt>
      <trkpt lat="46.584588" lon="10.252467">
        <ele>1942.922</ele>
        <time>2022-07-10T10:01:05Z</time>
      </trkpt>
      <trkpt lat="46.584577" lon="10.252457">
        <ele>1942.962</ele>
        <time>2022-07-10T10:01:06Z</time>
      </trkpt>
      <trkpt lat="46.584566" lon="10.252446">
        <ele>1943.408</ele>
        <time>2022-07-10T10:01:07Z</time>
      </trkpt>
      <trkpt lat="46.584412" lon="10.252309">
        <ele>1944.809</ele>
        <time>2022-07-10T10:01:20Z</time>
      </trkpt>
      <trkpt lat="46.584374" lon="10.252267">
        <ele>1944.813</ele>
        <time>2022-07-10T10:01:26Z</time>
      </trkpt>
      <trkpt lat="46.584351" lon="10.252158">
        <ele>1944.842</ele>
        <time>2022-07-10T10:01:40Z</time>
      </trkpt>
      <trkpt lat="46.584333" lon="10.252111">
        <ele>1943.450</ele>
        <time>2022-07-10T10:01:42Z</time>
      </trkpt>
      <trkpt lat="46.584085" lon="10.252066">
        <ele>1941.572</ele>
        <time>2022-07-10T10:01:51Z</time>
      </trkpt>
      <trkpt lat="46.584030" lon="10.252095">
        <ele>1941.518</ele>
        <time>2022-07-10T10:02:00Z</time>
      </trkpt>
      <trkpt lat="46.583997" lon="10.252090">
        <ele>1942.922</ele>
        <time>2022-07-10T10:02:04Z</time>
      </trkpt>
      <trkpt lat="46.583909" lon="10.252064">
        <ele>1944.413</ele>
        <time>2022-07-10T10:02:18Z</time>
      </trkpt>
      <trkpt lat="46.583868" lon="10.252079">
        <ele>1945.361</ele>
        <time>2022-07-10T10:02:34Z</time>
      </trkpt>
      <trkpt lat="46.583830" lon="10.252037">
        <ele>1945.355</ele>
        <time>2022-07-10T10:02:55Z</time>
      </trkpt>
      <trkpt lat="46.583804" lon="10.252022">
        <ele>1945.396</ele>
        <time>2022-07-10T10:03:00Z</time>
      </trkpt>
      <trkpt lat="46.583674" lon="10.251975">
        <ele>1943.931</ele>
        <time>2022-07-10T10:03:06Z</time>
      </trkpt>
      <trkpt lat="46.583565" lon="10.251964">
        <ele>1941.024</ele>
        <time>2022-07-10T10:03:09Z</time>
      </trkpt>
      <trkpt lat="46.583524" lon="10.251969">
        <ele>1941.009</ele>
        <time>2022-07-10T10:03:10Z</time>
      </trkpt>
      <trkpt lat="46.583493" lon="10.251968">
        <ele>1941.020</ele>
        <time>2022-07-10T10:03:11Z</time>
      </trkpt>
      <trkpt lat="46.583231" lon="10.252024">
        <ele>1942.019</ele>
        <time>2022-07-10T10:03:20Z</time>
      </trkpt>
      <trkpt lat="46.583217" lon="10.252032">
        <ele>1942.097</ele>
        <time>2022-07-10T10:03:21Z</time>
      </trkpt>
      <trkpt lat="46.582950" lon="10.252074">
        <ele>1943.479</ele>
        <time>2022-07-10T10:03:36Z</time>
      </trkpt>
      <trkpt lat="46.582709" lon="10.251983">
        <ele>1943.945</ele>
        <time>2022-07-10T10:03:49Z</time>
      </trkpt>
      <trkpt lat="46.582366" lon="10.251785">
        <ele>1942.029</ele>
        <time>2022-07-10T10:04:03Z</time>
      </trkpt>
      <trkpt lat="46.582215" lon="10.251655">
        <ele>1943.950</ele>
        <time>2022-07-10T10:04:13Z</time>
      </trkpt>
      <trkpt lat="46.581845" lon="10.251467">
        <ele>1946.848</ele>
        <time>2022-07-10T10:04:31Z</time>
      </trkpt>
      <trkpt lat="46.581668" lon="10.251370">
        <ele>1946.822</ele>
        <time>2022-07-10T10:04:41Z</time>
      </trkpt>
      <trkpt lat="46.581557" lon="10.251292">
        <ele>1946.847</ele>
        <time>2022-07-10T10:04:48Z</time>
      </trkpt>
      <trkpt lat="46.581541" lon="10.251307">
        <ele>1946.829</ele>
        <time>2022-07-10T10:04:50Z</time>
      </trkpt>
      <trkpt lat="46.581534" lon="10.251318">
        <ele>1946.821</ele>
        <time>2022-07-10T10:04:51Z</time>
      </trkpt>
      <trkpt lat="46.581525" lon="10.251329">
        <ele>1946.809</ele>
        <time>2022-07-10T10:04:52Z</time>
      </trkpt>
      <trkpt lat="46.581513" lon="10.251337">
        <ele>1946.885</ele>
        <time>2022-07-10T10:04:53Z</time>
      </trkpt>
      <trkpt lat="46.581496" lon="10.251342">
        <ele>1946.844</ele>
        <time>2022-07-10T10:04:54Z</time>
      </trkpt>
      <trkpt lat="46.581474" lon="10.251345">
        <ele>1945.332</ele>
        <time>2022-07-10T10:04:55Z</time>
      </trkpt>
      <trkpt lat="46.581457" lon="10.251345">
        <ele>1944.824</ele>
        <time>2022-07-10T10:04:56Z</time>
      </trkpt>
      <trkpt lat="46.581409" lon="10.251295">
        <ele>1944.410</ele>
        <time>2022-07-10T10:05:08Z</time>
      </trkpt>
      <trkpt lat="46.581398" lon="10.251261">
        <ele>1944.414</ele>
        <time>2022-07-10T10:05:12Z</time>
      </trkpt>
      <trkpt lat="46.581336" lon="10.251129">
        <ele>1944.445</ele>
        <time>2022-07-10T10:05:26Z</time>
      </trkpt>
      <trkpt lat="46.581300" lon="10.251106">
        <ele>1944.483</ele>
        <time>2022-07-10T10:05:34Z</time>
      </trkpt>
      <trkpt lat="46.581283" lon="10.251097">
        <ele>1944.427</ele>
        <time>2022-07-10T10:05:35Z</time>
      </trkpt>
      <trkpt lat="46.581260" lon="10.251085">
        <ele>1944.444</ele>
        <time>2022-07-10T10:05:36Z</time>
      </trkpt>
      <trkpt lat="46.581236" lon="10.251076">
        <ele>1944.405</ele>
        <time>2022-07-10T10:05:37Z</time>
      </trkpt>
      <trkpt lat="46.581214" lon="10.251066">
        <ele>1944.415</ele>
        <time>2022-07-10T10:05:38Z</time>
      </trkpt>
      <trkpt lat="46.581196" lon="10.251053">
        <ele>1944.409</ele>
        <time>2022-07-10T10:05:39Z</time>
      </trkpt>
      <trkpt lat="46.581150" lon="10.251018">
        <ele>1944.465</ele>
        <time>2022-07-10T10:05:50Z</time>
      </trkpt>
      <trkpt lat="46.580887" lon="10.250901">
        <ele>1944.454</ele>
        <time>2022-07-10T10:06:02Z</time>
      </trkpt>
      <trkpt lat="46.580601" lon="10.250715">
        <ele>1945.822</ele>
        <time>2022-07-10T10:06:14Z</time>
      </trkpt>
      <trkpt lat="46.580264" lon="10.250599">
        <ele>1945.884</ele>
        <time>2022-07-10T10:06:27Z</time>
      </trkpt>
      <trkpt lat="46.579956" lon="10.250551">
        <ele>1945.320</ele>
        <time>2022-07-10T10:06:38Z</time>
      </trkpt>
      <trkpt lat="46.579699" lon="10.250279">
        <ele>1944.444</ele>
        <time>2022-07-10T10:06:49Z</time>
      </trkpt>
      <trkpt lat="46.579671" lon="10.250256">
        <ele>1944.465</ele>
        <time>2022-07-10T10:06:50Z</time>
      </trkpt>
      <trkpt lat="46.579394" lon="10.249982">
        <ele>1944.473</ele>
        <time>2022-07-10T10:07:02Z</time>
      </trkpt>
      <trkpt lat="46.579341" lon="10.249936">
        <ele>1945.377</ele>
        <time>2022-07-10T10:07:04Z</time>
      </trkpt>
      <trkpt lat="46.578997" lon="10.249707">
        <ele>1944.463</ele>
        <time>2022-07-10T10:07:16Z</time>
      </trkpt>
      <trkpt lat="46.578718" lon="10.249394">
        <ele>1944.444</ele>
        <time>2022-07-10T10:07:27Z</time>
      </trkpt>
      <trkpt lat="46.578336" lon="10.249232">
        <ele>1945.818</ele>
        <time>2022-07-10T10:07:39Z</time>
      </trkpt>
      <trkpt lat="46.578240" lon="10.249173">
        <ele>1944.809</ele>
        <time>2022-07-10T10:07:42Z</time>
      </trkpt>
      <trkpt lat="46.578204" lon="10.249178">
        <ele>1944.897</ele>
        <time>2022-07-10T10:07:43Z</time>
      </trkpt>
      <trkpt lat="46.578170" lon="10.249181">
        <ele>1944.486</ele>
        <time>2022-07-10T10:07:44Z</time>
      </trkpt>
      <trkpt lat="46.578134" lon="10.249177">
        <ele>1944.414</ele>
        <time>2022-07-10T10:07:45Z</time>
      </trkpt>
      <trkpt lat="46.578104" lon="10.249165">
        <ele>1944.486</ele>
        <time>2022-07-10T10:07:46Z</time>
      </trkpt>
      <trkpt lat="46.578078" lon="10.249145">
        <ele>1944.412</ele>
        <time>2022-07-10T10:07:47Z</time>
      </trkpt>
      <trkpt lat="46.578048" lon="10.249118">
        <ele>1944.456</ele>
        <time>2022-07-10T10:07:48Z</time>
      </trkpt>
      <trkpt lat="46.578026" lon="10.249092">
        <ele>1944.437</ele>
        <time>2022-07-10T10:07:49Z</time>
      </trkpt>
      <trkpt lat="46.577995" lon="10.249048">
        <ele>1944.475</ele>
        <time>2022-07-10T10:07:50Z</time>
      </trkpt>
      <trkpt lat="46.577975" lon="10.249017">
        <ele>1944.499</ele>
        <time>2022-07-10T10:07:51Z</time>
      </trkpt>
      <trkpt lat="46.577954" lon="10.248981">
        <ele>1944.498</ele>
        <time>2022-07-10T10:07:52Z</time>
      </trkpt>
      <trkpt lat="46.577514" lon="10.248704">
        <ele>1945.815</ele>
        <time>2022-07-10T10:08:05Z</time>
      </trkpt>
      <trkpt lat="46.577108" lon="10.248564">
        <ele>1945.826</ele>
        <time>2022-07-10T10:08:17Z</time>
      </trkpt>
      <trkpt lat="46.577031" lon="10.248625">
        <ele>1945.809</ele>
        <time>2022-07-10T10:08:19Z</time>
      </trkpt>
      <trkpt lat="46.576991" lon="10.248645">
        <ele>1945.840</ele>
        <time>2022-07-10T10:08:20Z</time>
      </trkpt>
      <trkpt lat="46.576952" lon="10.248646">
        <ele>1945.839</ele>
        <time>2022-07-10T10:08:21Z</time>
      </trkpt>
      <trkpt lat="46.576917" lon="10.248629">
        <ele>1945.857</ele>
        <time>2022-07-10T10:08:22Z</time>
      </trkpt>
      <trkpt lat="46.576892" lon="10.248609">
        <ele>1945.849</ele>
        <time>2022-07-10T10:08:23Z</time>
      </trkpt>
      <trkpt lat="46.576871" lon="10.248590">
        <ele>1945.865</ele>
        <time>2022-07-10T10:08:24Z</time>
      </trkpt>
      <trkpt lat="46.576848" lon="10.248565">
        <ele>1945.859</ele>
        <time>2022-07-10T10:08:25Z</time>
      </trkpt>
      <trkpt lat="46.576833" lon="10.248545">
        <ele>1946.320</ele>
        <time>2022-07-10T10:08:26Z</time>
      </trkpt>
      <trkpt lat="46.576562" lon="10.248380">
        <ele>1946.858</ele>
        <time>2022-07-10T10:08:38Z</time>
      </trkpt>
      <trkpt lat="46.576181" lon="10.248326">
        <ele>1946.822</ele>
        <time>2022-07-10T10:08:49Z</time>
      </trkpt>
      <trkpt lat="46.575930" lon="10.248093">
        <ele>1946.895</ele>
        <time>2022-07-10T10:08:59Z</time>
      </trkpt>
      <trkpt lat="46.575815" lon="10.247997">
        <ele>1945.349</ele>
        <time>2022-07-10T10:09:03Z</time>
      </trkpt>
      <trkpt lat="46.575530" lon="10.247667">
        <ele>1942.423</ele>
        <time>2022-07-10T10:09:13Z</time>
      </trkpt>
      <trkpt lat="46.575347" lon="10.247208">
        <ele>1941.509</ele>
        <time>2022-07-10T10:09:24Z</time>
      </trkpt>
      <trkpt lat="46.574863" lon="10.246420">
        <ele>1939.160</ele>
        <time>2022-07-10T10:09:40Z</time>
      </trkpt>
      <trkpt lat="46.574769" lon="10.246273">
        <ele>1939.189</ele>
        <time>2022-07-10T10:09:48Z</time>
      </trkpt>
      <trkpt lat="46.574750" lon="10.246286">
        <ele>1939.197</ele>
        <time>2022-07-10T10:10:12Z</time>
      </trkpt>
      <trkpt lat="46.574731" lon="10.246305">
        <ele>1939.149</ele>
        <time>2022-07-10T10:10:23Z</time>
      </trkpt>
      <trkpt lat="46.574749" lon="10.246277">
        <ele>1938.655</ele>
        <time>2022-07-10T10:10:53Z</time>
      </trkpt>
      <trkpt lat="46.574745" lon="10.246248">
        <ele>1938.629</ele>
        <time>2022-07-10T10:10:55Z</time>
      </trkpt>
      <trkpt lat="46.574722" lon="10.246176">
        <ele>1938.690</ele>
        <time>2022-07-10T10:10:58Z</time>
      </trkpt>
      <trkpt lat="46.574706" lon="10.246149">
        <ele>1938.688</ele>
        <time>2022-07-10T10:10:59Z</time>
      </trkpt>
      <trkpt lat="46.574690" lon="10.246124">
        <ele>1938.662</ele>
        <time>2022-07-10T10:11:00Z</time>
      </trkpt>
      <trkpt lat="46.574670" lon="10.246099">
        <ele>1938.628</ele>
        <time>2022-07-10T10:11:01Z</time>
      </trkpt>
      <trkpt lat="46.574647" lon="10.246073">
        <ele>1938.689</ele>
        <time>2022-07-10T10:11:02Z</time>
      </trkpt>
      <trkpt lat="46.574621" lon="10.246048">
        <ele>1938.617</ele>
        <time>2022-07-10T10:11:03Z</time>
      </trkpt>
      <trkpt lat="46.574591" lon="10.246025">
        <ele>1938.609</ele>
        <time>2022-07-10T10:11:04Z</time>
      </trkpt>
      <trkpt lat="46.574351" lon="10.245827">
        <ele>1938.643</ele>
        <time>2022-07-10T10:11:11Z</time>
      </trkpt>
      <trkpt lat="46.574269" lon="10.245793">
        <ele>1937.622</ele>
        <time>2022-07-10T10:11:13Z</time>
      </trkpt>
      <trkpt lat="46.574142" lon="10.245775">
        <ele>1937.640</ele>
        <time>2022-07-10T10:11:16Z</time>
      </trkpt>
      <trkpt lat="46.573937" lon="10.245783">
        <ele>1937.162</ele>
        <time>2022-07-10T10:11:21Z</time>
      </trkpt>
      <trkpt lat="46.573393" lon="10.245518">
        <ele>1935.788</ele>
        <time>2022-07-10T10:11:35Z</time>
      </trkpt>
      <trkpt lat="46.573227" lon="10.245397">
        <ele>1935.262</ele>
        <time>2022-07-10T10:11:39Z</time>
      </trkpt>
      <trkpt lat="46.572615" lon="10.245308">
        <ele>1932.873</ele>
        <time>2022-07-10T10:11:52Z</time>
      </trkpt>
      <trkpt lat="46.572566" lon="10.245315">
        <ele>1932.891</ele>
        <time>2022-07-10T10:11:53Z</time>
      </trkpt>
      <trkpt lat="46.572410" lon="10.245329">
        <ele>1932.315</ele>
        <time>2022-07-10T10:11:56Z</time>
      </trkpt>
      <trkpt lat="46.572302" lon="10.245311">
        <ele>1931.485</ele>
        <time>2022-07-10T10:11:58Z</time>
      </trkpt>
      <trkpt lat="46.572197" lon="10.245268">
        <ele>1930.989</ele>
        <time>2022-07-10T10:12:00Z</time>
      </trkpt>
      <trkpt lat="46.572145" lon="10.245238">
        <ele>1930.417</ele>
        <time>2022-07-10T10:12:01Z</time>
      </trkpt>
      <trkpt lat="46.572085" lon="10.245213">
        <ele>1930.409</ele>
        <time>2022-07-10T10:12:02Z</time>
      </trkpt>
      <trkpt lat="46.571243" lon="10.245145">
        <ele>1927.589</ele>
        <time>2022-07-10T10:12:16Z</time>
      </trkpt>
      <trkpt lat="46.570634" lon="10.245037">
        <ele>1924.268</ele>
        <time>2022-07-10T10:12:27Z</time>
      </trkpt>
      <trkpt lat="46.570519" lon="10.244990">
        <ele>1924.216</ele>
        <time>2022-07-10T10:12:29Z</time>
      </trkpt>
      <trkpt lat="46.570465" lon="10.244955">
        <ele>1924.218</ele>
        <time>2022-07-10T10:12:30Z</time>
      </trkpt>
      <trkpt lat="46.570334" lon="10.244836">
        <ele>1924.264</ele>
        <time>2022-07-10T10:12:33Z</time>
      </trkpt>
      <trkpt lat="46.570304" lon="10.244804">
        <ele>1924.248</ele>
        <time>2022-07-10T10:12:34Z</time>
      </trkpt>
      <trkpt lat="46.570182" lon="10.244736">
        <ele>1925.629</ele>
        <time>2022-07-10T10:12:39Z</time>
      </trkpt>
      <trkpt lat="46.569764" lon="10.244759">
        <ele>1927.137</ele>
        <time>2022-07-10T10:12:52Z</time>
      </trkpt>
      <trkpt lat="46.569441" lon="10.244952">
        <ele>1929.051</ele>
        <time>2022-07-10T10:13:06Z</time>
      </trkpt>
      <trkpt lat="46.569194" lon="10.245000">
        <ele>1931.456</ele>
        <time>2022-07-10T10:13:20Z</time>
      </trkpt>
      <trkpt lat="46.568891" lon="10.245016">
        <ele>1931.459</ele>
        <time>2022-07-10T10:13:36Z</time>
      </trkpt>
      <trkpt lat="46.568824" lon="10.245039">
        <ele>1932.314</ele>
        <time>2022-07-10T10:13:40Z</time>
      </trkpt>
      <trkpt lat="46.568805" lon="10.245054">
        <ele>1932.809</ele>
        <time>2022-07-10T10:13:42Z</time>
      </trkpt>
      <trkpt lat="46.568790" lon="10.245060">
        <ele>1932.846</ele>
        <time>2022-07-10T10:13:43Z</time>
      </trkpt>
      <trkpt lat="46.568773" lon="10.245067">
        <ele>1932.835</ele>
        <time>2022-07-10T10:13:44Z</time>
      </trkpt>
      <trkpt lat="46.568756" lon="10.245076">
        <ele>1932.833</ele>
        <time>2022-07-10T10:13:45Z</time>
      </trkpt>
      <trkpt lat="46.568740" lon="10.245085">
        <ele>1933.325</ele>
        <time>2022-07-10T10:13:46Z</time>
      </trkpt>
      <trkpt lat="46.568724" lon="10.245092">
        <ele>1933.341</ele>
        <time>2022-07-10T10:13:47Z</time>
      </trkpt>
      <trkpt lat="46.568481" lon="10.245165">
        <ele>1935.275</ele>
        <time>2022-07-10T10:14:01Z</time>
      </trkpt>
      <trkpt lat="46.568213" lon="10.245223">
        <ele>1937.166</ele>
        <time>2022-07-10T10:14:17Z</time>
      </trkpt>
      <trkpt lat="46.567938" lon="10.245192">
        <ele>1937.624</ele>
        <time>2022-07-10T10:14:31Z</time>
      </trkpt>
      <trkpt lat="46.567708" lon="10.245241">
        <ele>1938.138</ele>
        <time>2022-07-10T10:14:45Z</time>
      </trkpt>
      <trkpt lat="46.567500" lon="10.245333">
        <ele>1939.697</ele>
        <time>2022-07-10T10:14:58Z</time>
      </trkpt>
      <trkpt lat="46.567244" lon="10.245502">
        <ele>1940.523</ele>
        <time>2022-07-10T10:15:11Z</time>
      </trkpt>
      <trkpt lat="46.566974" lon="10.245557">
        <ele>1940.525</ele>
        <time>2022-07-10T10:15:24Z</time>
      </trkpt>
      <trkpt lat="46.566726" lon="10.245673">
        <ele>1942.909</ele>
        <time>2022-07-10T10:15:41Z</time>
      </trkpt>
      <trkpt lat="46.566431" lon="10.245781">
        <ele>1943.960</ele>
        <time>2022-07-10T10:15:54Z</time>
      </trkpt>
      <trkpt lat="46.566386" lon="10.245774">
        <ele>1942.469</ele>
        <time>2022-07-10T10:15:55Z</time>
      </trkpt>
      <trkpt lat="46.566343" lon="10.245762">
        <ele>1942.477</ele>
        <time>2022-07-10T10:15:56Z</time>
      </trkpt>
      <trkpt lat="46.566302" lon="10.245748">
        <ele>1942.469</ele>
        <time>2022-07-10T10:15:57Z</time>
      </trkpt>
      <trkpt lat="46.566260" lon="10.245735">
        <ele>1942.445</ele>
        <time>2022-07-10T10:15:58Z</time>
      </trkpt>
      <trkpt lat="46.566223" lon="10.245722">
        <ele>1942.489</ele>
        <time>2022-07-10T10:15:59Z</time>
      </trkpt>
      <trkpt lat="46.566186" lon="10.245714">
        <ele>1942.420</ele>
        <time>2022-07-10T10:16:00Z</time>
      </trkpt>
      <trkpt lat="46.566152" lon="10.245707">
        <ele>1942.088</ele>
        <time>2022-07-10T10:16:01Z</time>
      </trkpt>
      <trkpt lat="46.565800" lon="10.245615">
        <ele>1943.912</ele>
        <time>2022-07-10T10:16:17Z</time>
      </trkpt>
      <trkpt lat="46.565409" lon="10.245648">
        <ele>1943.974</ele>
        <time>2022-07-10T10:16:31Z</time>
      </trkpt>
      <trkpt lat="46.564873" lon="10.245759">
        <ele>1944.456</ele>
        <time>2022-07-10T10:16:46Z</time>
      </trkpt>
      <trkpt lat="46.564686" lon="10.245781">
        <ele>1944.421</ele>
        <time>2022-07-10T10:16:51Z</time>
      </trkpt>
      <trkpt lat="46.564499" lon="10.245820">
        <ele>1943.409</ele>
        <time>2022-07-10T10:16:55Z</time>
      </trkpt>
      <trkpt lat="46.563715" lon="10.245979">
        <ele>1940.538</ele>
        <time>2022-07-10T10:17:11Z</time>
      </trkpt>
      <trkpt lat="46.562978" lon="10.246137">
        <ele>1937.657</ele>
        <time>2022-07-10T10:17:23Z</time>
      </trkpt>
      <trkpt lat="46.562415" lon="10.246229">
        <ele>1935.285</ele>
        <time>2022-07-10T10:17:32Z</time>
      </trkpt>
      <trkpt lat="46.561694" lon="10.246376">
        <ele>1933.867</ele>
        <time>2022-07-10T10:17:46Z</time>
      </trkpt>
      <trkpt lat="46.561151" lon="10.246464">
        <ele>1933.883</ele>
        <time>2022-07-10T10:18:02Z</time>
      </trkpt>
      <trkpt lat="46.560907" lon="10.246553">
        <ele>1935.287</ele>
        <time>2022-07-10T10:18:10Z</time>
      </trkpt>
      <trkpt lat="46.560502" lon="10.246502">
        <ele>1935.768</ele>
        <time>2022-07-10T10:18:23Z</time>
      </trkpt>
      <trkpt lat="46.560462" lon="10.246503">
        <ele>1935.796</ele>
        <time>2022-07-10T10:18:24Z</time>
      </trkpt>
      <trkpt lat="46.560424" lon="10.246505">
        <ele>1935.780</ele>
        <time>2022-07-10T10:18:25Z</time>
      </trkpt>
      <trkpt lat="46.560124" lon="10.246591">
        <ele>1936.729</ele>
        <time>2022-07-10T10:18:38Z</time>
      </trkpt>
      <trkpt lat="46.559871" lon="10.246731">
        <ele>1938.100</ele>
        <time>2022-07-10T10:18:52Z</time>
      </trkpt>
      <trkpt lat="46.559601" lon="10.246872">
        <ele>1939.120</ele>
        <time>2022-07-10T10:19:07Z</time>
      </trkpt>
      <trkpt lat="46.559313" lon="10.247009">
        <ele>1940.009</ele>
        <time>2022-07-10T10:19:21Z</time>
      </trkpt>
      <trkpt lat="46.558978" lon="10.247167">
        <ele>1940.523</ele>
        <time>2022-07-10T10:19:38Z</time>
      </trkpt>
      <trkpt lat="46.558655" lon="10.247343">
        <ele>1941.512</ele>
        <time>2022-07-10T10:19:54Z</time>
      </trkpt>
      <trkpt lat="46.558291" lon="10.247563">
        <ele>1942.470</ele>
        <time>2022-07-10T10:20:11Z</time>
      </trkpt>
      <trkpt lat="46.557937" lon="10.247759">
        <ele>1943.952</ele>
        <time>2022-07-10T10:20:28Z</time>
      </trkpt>
      <trkpt lat="46.557487" lon="10.248002">
        <ele>1944.838</ele>
        <time>2022-07-10T10:20:48Z</time>
      </trkpt>
      <trkpt lat="46.557121" lon="10.248351">
        <ele>1945.382</ele>
        <time>2022-07-10T10:21:05Z</time>
      </trkpt>
      <trkpt lat="46.556921" lon="10.248614">
        <ele>1947.713</ele>
        <time>2022-07-10T10:24:19Z</time>
      </trkpt>
      <trkpt lat="46.556929" lon="10.248598">
        <ele>1947.791</ele>
        <time>2022-07-10T10:24:48Z</time>
      </trkpt>
      <trkpt lat="46.556918" lon="10.248608">
        <ele>1947.765</ele>
        <time>2022-07-10T10:25:16Z</time>
      </trkpt>
      <trkpt lat="46.556900" lon="10.248603">
        <ele>1947.785</ele>
        <time>2022-07-10T10:25:34Z</time>
      </trkpt>
      <trkpt lat="46.556890" lon="10.248607">
        <ele>1947.789</ele>
        <time>2022-07-10T10:25:35Z</time>
      </trkpt>
      <trkpt lat="46.556879" lon="10.248615">
        <ele>1947.717</ele>
        <time>2022-07-10T10:25:36Z</time>
      </trkpt>
      <trkpt lat="46.556866" lon="10.248627">
        <ele>1947.709</ele>
        <time>2022-07-10T10:25:37Z</time>
      </trkpt>
      <trkpt lat="46.556850" lon="10.248637">
        <ele>1947.739</ele>
        <time>2022-07-10T10:25:38Z</time>
      </trkpt>
      <trkpt lat="46.556830" lon="10.248649">
        <ele>1947.778</ele>
        <time>2022-07-10T10:25:39Z</time>
      </trkpt>
      <trkpt lat="46.556810" lon="10.248663">
        <ele>1947.756</ele>
        <time>2022-07-10T10:25:40Z</time>
      </trkpt>
      <trkpt lat="46.556789" lon="10.248680">
        <ele>1947.728</ele>
        <time>2022-07-10T10:25:41Z</time>
      </trkpt>
      <trkpt lat="46.556772" lon="10.248691">
        <ele>1947.774</ele>
        <time>2022-07-10T10:25:42Z</time>
      </trkpt>
      <trkpt lat="46.556425" lon="10.248989">
        <ele>1948.778</ele>
        <time>2022-07-10T10:25:59Z</time>
      </trkpt>
      <trkpt lat="46.556086" lon="10.249125">
        <ele>1948.269</ele>
        <time>2022-07-10T10:26:12Z</time>
      </trkpt>
      <trkpt lat="46.555852" lon="10.249293">
        <ele>1949.627</ele>
        <time>2022-07-10T10:26:24Z</time>
      </trkpt>
      <trkpt lat="46.555656" lon="10.249498">
        <ele>1952.071</ele>
        <time>2022-07-10T10:26:37Z</time>
      </trkpt>
      <trkpt lat="46.555362" lon="10.249824">
        <ele>1954.091</ele>
        <time>2022-07-10T10:26:57Z</time>
      </trkpt>
      <trkpt lat="46.555139" lon="10.250067">
        <ele>1954.581</ele>
        <time>2022-07-10T10:27:13Z</time>
      </trkpt>
      <trkpt lat="46.554852" lon="10.250360">
        <ele>1955.419</ele>
        <time>2022-07-10T10:27:31Z</time>
      </trkpt>
      <trkpt lat="46.554556" lon="10.250679">
        <ele>1957.809</ele>
        <time>2022-07-10T10:27:50Z</time>
      </trkpt>
      <trkpt lat="46.554337" lon="10.250931">
        <ele>1959.770</ele>
        <time>2022-07-10T10:28:04Z</time>
      </trkpt>
      <trkpt lat="46.553977" lon="10.251389">
        <ele>1959.739</ele>
        <time>2022-07-10T10:28:27Z</time>
      </trkpt>
      <trkpt lat="46.553674" lon="10.251849">
        <ele>1959.767</ele>
        <time>2022-07-10T10:28:42Z</time>
      </trkpt>
      <trkpt lat="46.553291" lon="10.252382">
        <ele>1960.289</ele>
        <time>2022-07-10T10:29:03Z</time>
      </trkpt>
      <trkpt lat="46.552914" lon="10.252842">
        <ele>1960.225</ele>
        <time>2022-07-10T10:29:18Z</time>
      </trkpt>
      <trkpt lat="46.552701" lon="10.253044">
        <ele>1960.259</ele>
        <time>2022-07-10T10:29:28Z</time>
      </trkpt>
      <trkpt lat="46.552675" lon="10.253011">
        <ele>1960.280</ele>
        <time>2022-07-10T10:29:41Z</time>
      </trkpt>
      <trkpt lat="46.552667" lon="10.253007">
        <ele>1960.288</ele>
        <time>2022-07-10T10:30:06Z</time>
      </trkpt>
      <trkpt lat="46.552514" lon="10.252889">
        <ele>1960.212</ele>
        <time>2022-07-10T10:30:22Z</time>
      </trkpt>
      <trkpt lat="46.552137" lon="10.252920">
        <ele>1961.758</ele>
        <time>2022-07-10T10:30:38Z</time>
      </trkpt>
      <trkpt lat="46.551663" lon="10.252906">
        <ele>1961.752</ele>
        <time>2022-07-10T10:30:54Z</time>
      </trkpt>
      <trkpt lat="46.551586" lon="10.252926">
        <ele>1960.217</ele>
        <time>2022-07-10T10:30:56Z</time>
      </trkpt>
      <trkpt lat="46.551550" lon="10.252948">
        <ele>1960.209</ele>
        <time>2022-07-10T10:30:57Z</time>
      </trkpt>
      <trkpt lat="46.551519" lon="10.252977">
        <ele>1960.266</ele>
        <time>2022-07-10T10:30:58Z</time>
      </trkpt>
      <trkpt lat="46.551491" lon="10.253006">
        <ele>1960.295</ele>
        <time>2022-07-10T10:30:59Z</time>
      </trkpt>
      <trkpt lat="46.551460" lon="10.253030">
        <ele>1960.283</ele>
        <time>2022-07-10T10:31:00Z</time>
      </trkpt>
      <trkpt lat="46.551188" lon="10.252966">
        <ele>1960.225</ele>
        <time>2022-07-10T10:31:11Z</time>
      </trkpt>
      <trkpt lat="46.550933" lon="10.252807">
        <ele>1960.261</ele>
        <time>2022-07-10T10:31:20Z</time>
      </trkpt>
      <trkpt lat="46.550501" lon="10.253230">
        <ele>1959.765</ele>
        <time>2022-07-10T10:31:36Z</time>
      </trkpt>
      <trkpt lat="46.550330" lon="10.253157">
        <ele>1959.746</ele>
        <time>2022-07-10T10:31:46Z</time>
      </trkpt>
      <trkpt lat="46.550305" lon="10.253093">
        <ele>1959.734</ele>
        <time>2022-07-10T10:31:55Z</time>
      </trkpt>
      <trkpt lat="46.550276" lon="10.252941">
        <ele>1959.718</ele>
        <time>2022-07-10T10:32:00Z</time>
      </trkpt>
      <trkpt lat="46.550268" lon="10.252922">
        <ele>1959.737</ele>
        <time>2022-07-10T10:32:01Z</time>
      </trkpt>
      <trkpt lat="46.550265" lon="10.252928">
        <ele>1959.749</ele>
        <time>2022-07-10T10:32:18Z</time>
      </trkpt>
      <trkpt lat="46.550174" lon="10.252767">
        <ele>1959.713</ele>
        <time>2022-07-10T10:32:41Z</time>
      </trkpt>
      <trkpt lat="46.549851" lon="10.252293">
        <ele>1959.709</ele>
        <time>2022-07-10T10:32:56Z</time>
      </trkpt>
      <trkpt lat="46.549684" lon="10.251870">
        <ele>1959.714</ele>
        <time>2022-07-10T10:33:08Z</time>
      </trkpt>
      <trkpt lat="46.549797" lon="10.251281">
        <ele>1961.233</ele>
        <time>2022-07-10T10:33:23Z</time>
      </trkpt>
      <trkpt lat="46.549776" lon="10.251049">
        <ele>1961.761</ele>
        <time>2022-07-10T10:33:30Z</time>
      </trkpt>
      <trkpt lat="46.549779" lon="10.251045">
        <ele>1962.193</ele>
        <time>2022-07-10T10:33:42Z</time>
      </trkpt>
      <trkpt lat="46.549784" lon="10.251010">
        <ele>1962.139</ele>
        <time>2022-07-10T10:34:08Z</time>
      </trkpt>
      <trkpt lat="46.549781" lon="10.250995">
        <ele>1962.173</ele>
        <time>2022-07-10T10:34:09Z</time>
      </trkpt>
      <trkpt lat="46.549756" lon="10.250755">
        <ele>1962.134</ele>
        <time>2022-07-10T10:34:18Z</time>
      </trkpt>
      <trkpt lat="46.549753" lon="10.250705">
        <ele>1962.612</ele>
        <time>2022-07-10T10:34:21Z</time>
      </trkpt>
      <trkpt lat="46.549755" lon="10.250654">
        <ele>1963.626</ele>
        <time>2022-07-10T10:34:24Z</time>
      </trkpt>
      <trkpt lat="46.549747" lon="10.250641">
        <ele>1963.618</ele>
        <time>2022-07-10T10:34:25Z</time>
      </trkpt>
      <trkpt lat="46.549739" lon="10.250630">
        <ele>1963.698</ele>
        <time>2022-07-10T10:34:26Z</time>
      </trkpt>
      <trkpt lat="46.549727" lon="10.250617">
        <ele>1963.617</ele>
        <time>2022-07-10T10:34:27Z</time>
      </trkpt>
      <trkpt lat="46.549717" lon="10.250605">
        <ele>1963.609</ele>
        <time>2022-07-10T10:34:28Z</time>
      </trkpt>
      <trkpt lat="46.549706" lon="10.250592">
        <ele>1963.652</ele>
        <time>2022-07-10T10:34:29Z</time>
      </trkpt>
      <trkpt lat="46.549697" lon="10.250580">
        <ele>1964.121</ele>
        <time>2022-07-10T10:34:30Z</time>
      </trkpt>
      <trkpt lat="46.549688" lon="10.250571">
        <ele>1964.179</ele>
        <time>2022-07-10T10:34:31Z</time>
      </trkpt>
      <trkpt lat="46.549678" lon="10.250561">
        <ele>1964.111</ele>
        <time>2022-07-10T10:34:32Z</time>
      </trkpt>
      <trkpt lat="46.549668" lon="10.250552">
        <ele>1964.587</ele>
        <time>2022-07-10T10:34:33Z</time>
      </trkpt>
      <trkpt lat="46.549657" lon="10.250542">
        <ele>1964.571</ele>
        <time>2022-07-10T10:34:34Z</time>
      </trkpt>
      <trkpt lat="46.549647" lon="10.250531">
        <ele>1964.552</ele>
        <time>2022-07-10T10:34:35Z</time>
      </trkpt>
      <trkpt lat="46.549638" lon="10.250522">
        <ele>1964.560</ele>
        <time>2022-07-10T10:34:36Z</time>
      </trkpt>
      <trkpt lat="46.549628" lon="10.250510">
        <ele>1965.014</ele>
        <time>2022-07-10T10:34:37Z</time>
      </trkpt>
      <trkpt lat="46.549564" lon="10.250441">
        <ele>1966.097</ele>
        <time>2022-07-10T10:34:45Z</time>
      </trkpt>
      <trkpt lat="46.549421" lon="10.250341">
        <ele>1967.423</ele>
        <time>2022-07-10T10:35:02Z</time>
      </trkpt>
      <trkpt lat="46.549308" lon="10.250273">
        <ele>1968.925</ele>
        <time>2022-07-10T10:35:16Z</time>
      </trkpt>
      <trkpt lat="46.549171" lon="10.250242">
        <ele>1971.309</ele>
        <time>2022-07-10T10:35:33Z</time>
      </trkpt>
      <trkpt lat="46.549152" lon="10.250242">
        <ele>1971.850</ele>
        <time>2022-07-10T10:35:36Z</time>
      </trkpt>
      <trkpt lat="46.549139" lon="10.250219">
        <ele>1971.869</ele>
        <time>2022-07-10T10:35:39Z</time>
      </trkpt>
      <trkpt lat="46.549136" lon="10.250208">
        <ele>1971.857</ele>
        <time>2022-07-10T10:35:40Z</time>
      </trkpt>
      <trkpt lat="46.549138" lon="10.250193">
        <ele>1972.219</ele>
        <time>2022-07-10T10:35:41Z</time>
      </trkpt>
      <trkpt lat="46.549144" lon="10.250184">
        <ele>1972.255</ele>
        <time>2022-07-10T10:35:42Z</time>
      </trkpt>
      <trkpt lat="46.549220" lon="10.250179">
        <ele>1972.719</ele>
        <time>2022-07-10T10:35:51Z</time>
      </trkpt>
      <trkpt lat="46.549257" lon="10.250180">
        <ele>1974.290</ele>
        <time>2022-07-10T10:35:56Z</time>
      </trkpt>
      <trkpt lat="46.549378" lon="10.250145">
        <ele>1975.618</ele>
        <time>2022-07-10T10:36:10Z</time>
      </trkpt>
      <trkpt lat="46.549476" lon="10.250081">
        <ele>1977.072</ele>
        <time>2022-07-10T10:36:19Z</time>
      </trkpt>
      <trkpt lat="46.549485" lon="10.250047">
        <ele>1977.043</ele>
        <time>2022-07-10T10:36:21Z</time>
      </trkpt>
      <trkpt lat="46.549485" lon="10.250034">
        <ele>1977.064</ele>
        <time>2022-07-10T10:36:22Z</time>
      </trkpt>
      <trkpt lat="46.549480" lon="10.250020">
        <ele>1977.010</ele>
        <time>2022-07-10T10:36:23Z</time>
      </trkpt>
      <trkpt lat="46.549471" lon="10.250005">
        <ele>1977.009</ele>
        <time>2022-07-10T10:36:24Z</time>
      </trkpt>
      <trkpt lat="46.549465" lon="10.249993">
        <ele>1977.095</ele>
        <time>2022-07-10T10:36:25Z</time>
      </trkpt>
      <trkpt lat="46.549454" lon="10.249984">
        <ele>1977.054</ele>
        <time>2022-07-10T10:36:26Z</time>
      </trkpt>
      <trkpt lat="46.549446" lon="10.249980">
        <ele>1977.072</ele>
        <time>2022-07-10T10:36:27Z</time>
      </trkpt>
      <trkpt lat="46.549436" lon="10.249979">
        <ele>1977.594</ele>
        <time>2022-07-10T10:36:28Z</time>
      </trkpt>
      <trkpt lat="46.549426" lon="10.249979">
        <ele>1977.570</ele>
        <time>2022-07-10T10:36:29Z</time>
      </trkpt>
      <trkpt lat="46.549415" lon="10.249980">
        <ele>1977.594</ele>
        <time>2022-07-10T10:36:30Z</time>
      </trkpt>
      <trkpt lat="46.549404" lon="10.249985">
        <ele>1977.535</ele>
        <time>2022-07-10T10:36:31Z</time>
      </trkpt>
      <trkpt lat="46.549396" lon="10.249986">
        <ele>1977.513</ele>
        <time>2022-07-10T10:36:32Z</time>
      </trkpt>
      <trkpt lat="46.549234" lon="10.249962">
        <ele>1979.977</ele>
        <time>2022-07-10T10:36:49Z</time>
      </trkpt>
      <trkpt lat="46.549067" lon="10.249971">
        <ele>1981.919</ele>
        <time>2022-07-10T10:37:06Z</time>
      </trkpt>
      <trkpt lat="46.548961" lon="10.249974">
        <ele>1983.809</ele>
        <time>2022-07-10T10:37:18Z</time>
      </trkpt>
      <trkpt lat="46.548964" lon="10.249960">
        <ele>1983.819</ele>
        <time>2022-07-10T10:37:19Z</time>
      </trkpt>
      <trkpt lat="46.548980" lon="10.249930">
        <ele>1984.309</ele>
        <time>2022-07-10T10:37:22Z</time>
      </trkpt>
      <trkpt lat="46.549064" lon="10.249865">
        <ele>1986.292</ele>
        <time>2022-07-10T10:37:35Z</time>
      </trkpt>
      <trkpt lat="46.549158" lon="10.249730">
        <ele>1987.161</ele>
        <time>2022-07-10T10:37:49Z</time>
      </trkpt>
      <trkpt lat="46.549276" lon="10.249585">
        <ele>1989.599</ele>
        <time>2022-07-10T10:38:05Z</time>
      </trkpt>
      <trkpt lat="46.549324" lon="10.249472">
        <ele>1991.071</ele>
        <time>2022-07-10T10:38:18Z</time>
      </trkpt>
      <trkpt lat="46.549306" lon="10.249434">
        <ele>1991.567</ele>
        <time>2022-07-10T10:38:21Z</time>
      </trkpt>
      <trkpt lat="46.549277" lon="10.249418">
        <ele>1991.581</ele>
        <time>2022-07-10T10:38:25Z</time>
      </trkpt>
      <trkpt lat="46.549244" lon="10.249456">
        <ele>1991.582</ele>
        <time>2022-07-10T10:38:30Z</time>
      </trkpt>
      <trkpt lat="46.549194" lon="10.249484">
        <ele>1992.940</ele>
        <time>2022-07-10T10:38:39Z</time>
      </trkpt>
      <trkpt lat="46.549094" lon="10.249526">
        <ele>1994.374</ele>
        <time>2022-07-10T10:38:54Z</time>
      </trkpt>
      <trkpt lat="46.549001" lon="10.249601">
        <ele>1996.328</ele>
        <time>2022-07-10T10:39:07Z</time>
      </trkpt>
      <trkpt lat="46.548901" lon="10.249677">
        <ele>1997.789</ele>
        <time>2022-07-10T10:39:20Z</time>
      </trkpt>
      <trkpt lat="46.548825" lon="10.249652">
        <ele>1998.717</ele>
        <time>2022-07-10T10:39:31Z</time>
      </trkpt>
      <trkpt lat="46.548884" lon="10.249527">
        <ele>2001.109</ele>
        <time>2022-07-10T10:39:46Z</time>
      </trkpt>
      <trkpt lat="46.548960" lon="10.249348">
        <ele>2003.523</ele>
        <time>2022-07-10T10:40:04Z</time>
      </trkpt>
      <trkpt lat="46.549037" lon="10.249203">
        <ele>2005.952</ele>
        <time>2022-07-10T10:40:19Z</time>
      </trkpt>
      <trkpt lat="46.549118" lon="10.249086">
        <ele>2007.350</ele>
        <time>2022-07-10T10:40:31Z</time>
      </trkpt>
      <trkpt lat="46.549150" lon="10.249050">
        <ele>2007.372</ele>
        <time>2022-07-10T10:40:36Z</time>
      </trkpt>
      <trkpt lat="46.549104" lon="10.248990">
        <ele>2008.378</ele>
        <time>2022-07-10T10:40:46Z</time>
      </trkpt>
      <trkpt lat="46.549027" lon="10.249078">
        <ele>2010.242</ele>
        <time>2022-07-10T10:41:00Z</time>
      </trkpt>
      <trkpt lat="46.548951" lon="10.249120">
        <ele>2011.743</ele>
        <time>2022-07-10T10:41:13Z</time>
      </trkpt>
      <trkpt lat="46.548859" lon="10.249150">
        <ele>2012.661</ele>
        <time>2022-07-10T10:41:26Z</time>
      </trkpt>
      <trkpt lat="46.548832" lon="10.249162">
        <ele>2012.665</ele>
        <time>2022-07-10T10:41:29Z</time>
      </trkpt>
      <trkpt lat="46.548713" lon="10.249134">
        <ele>2015.068</ele>
        <time>2022-07-10T10:41:42Z</time>
      </trkpt>
      <trkpt lat="46.548655" lon="10.249004">
        <ele>2016.542</ele>
        <time>2022-07-10T10:41:56Z</time>
      </trkpt>
      <trkpt lat="46.548609" lon="10.248850">
        <ele>2018.426</ele>
        <time>2022-07-10T10:42:10Z</time>
      </trkpt>
      <trkpt lat="46.548578" lon="10.248728">
        <ele>2020.309</ele>
        <time>2022-07-10T10:42:21Z</time>
      </trkpt>
      <trkpt lat="46.548553" lon="10.248670">
        <ele>2020.877</ele>
        <time>2022-07-10T10:42:34Z</time>
      </trkpt>
      <trkpt lat="46.548527" lon="10.248631">
        <ele>2021.356</ele>
        <time>2022-07-10T10:43:30Z</time>
      </trkpt>
      <trkpt lat="46.548506" lon="10.248628">
        <ele>2021.374</ele>
        <time>2022-07-10T10:43:46Z</time>
      </trkpt>
      <trkpt lat="46.548501" lon="10.248638">
        <ele>2021.386</ele>
        <time>2022-07-10T10:44:10Z</time>
      </trkpt>
      <trkpt lat="46.548473" lon="10.248645">
        <ele>2023.272</ele>
        <time>2022-07-10T10:51:50Z</time>
      </trkpt>
      <trkpt lat="46.548438" lon="10.248613">
        <ele>2023.726</ele>
        <time>2022-07-10T10:52:06Z</time>
      </trkpt>
      <trkpt lat="46.548420" lon="10.248566">
        <ele>2024.197</ele>
        <time>2022-07-10T10:52:10Z</time>
      </trkpt>
      <trkpt lat="46.548408" lon="10.248561">
        <ele>2024.115</ele>
        <time>2022-07-10T10:52:11Z</time>
      </trkpt>
      <trkpt lat="46.548376" lon="10.248547">
        <ele>2024.619</ele>
        <time>2022-07-10T10:52:14Z</time>
      </trkpt>
      <trkpt lat="46.548367" lon="10.248535">
        <ele>2024.644</ele>
        <time>2022-07-10T10:52:15Z</time>
      </trkpt>
      <trkpt lat="46.548355" lon="10.248513">
        <ele>2025.105</ele>
        <time>2022-07-10T10:52:17Z</time>
      </trkpt>
      <trkpt lat="46.548353" lon="10.248496">
        <ele>2025.115</ele>
        <time>2022-07-10T10:52:18Z</time>
      </trkpt>
      <trkpt lat="46.548341" lon="10.248470">
        <ele>2025.109</ele>
        <time>2022-07-10T10:52:20Z</time>
      </trkpt>
      <trkpt lat="46.548329" lon="10.248458">
        <ele>2025.115</ele>
        <time>2022-07-10T10:52:21Z</time>
      </trkpt>
      <trkpt lat="46.548257" lon="10.248370">
        <ele>2027.014</ele>
        <time>2022-07-10T10:52:33Z</time>
      </trkpt>
      <trkpt lat="46.548211" lon="10.248324">
        <ele>2027.522</ele>
        <time>2022-07-10T10:52:39Z</time>
      </trkpt>
      <trkpt lat="46.548117" lon="10.248190">
        <ele>2029.954</ele>
        <time>2022-07-10T10:52:54Z</time>
      </trkpt>
      <trkpt lat="46.548059" lon="10.248150">
        <ele>2030.430</ele>
        <time>2022-07-10T10:53:01Z</time>
      </trkpt>
      <trkpt lat="46.548051" lon="10.248142">
        <ele>2030.454</ele>
        <time>2022-07-10T10:53:02Z</time>
      </trkpt>
      <trkpt lat="46.548041" lon="10.248133">
        <ele>2030.435</ele>
        <time>2022-07-10T10:53:03Z</time>
      </trkpt>
      <trkpt lat="46.548034" lon="10.248121">
        <ele>2030.423</ele>
        <time>2022-07-10T10:53:04Z</time>
      </trkpt>
      <trkpt lat="46.547945" lon="10.248038">
        <ele>2031.827</ele>
        <time>2022-07-10T10:53:16Z</time>
      </trkpt>
      <trkpt lat="46.547827" lon="10.247940">
        <ele>2034.712</ele>
        <time>2022-07-10T10:53:32Z</time>
      </trkpt>
      <trkpt lat="46.547778" lon="10.247954">
        <ele>2035.232</ele>
        <time>2022-07-10T10:53:39Z</time>
      </trkpt>
      <trkpt lat="46.547756" lon="10.247978">
        <ele>2035.705</ele>
        <time>2022-07-10T10:53:42Z</time>
      </trkpt>
      <trkpt lat="46.547752" lon="10.247988">
        <ele>2035.709</ele>
        <time>2022-07-10T10:53:43Z</time>
      </trkpt>
      <trkpt lat="46.547750" lon="10.248109">
        <ele>2037.132</ele>
        <time>2022-07-10T10:53:56Z</time>
      </trkpt>
      <trkpt lat="46.547732" lon="10.248156">
        <ele>2038.151</ele>
        <time>2022-07-10T10:54:00Z</time>
      </trkpt>
      <trkpt lat="46.547721" lon="10.248289">
        <ele>2039.539</ele>
        <time>2022-07-10T10:54:12Z</time>
      </trkpt>
      <trkpt lat="46.547690" lon="10.248331">
        <ele>2040.071</ele>
        <time>2022-07-10T10:54:17Z</time>
      </trkpt>
      <trkpt lat="46.547673" lon="10.248334">
        <ele>2040.047</ele>
        <time>2022-07-10T10:54:19Z</time>
      </trkpt>
      <trkpt lat="46.547657" lon="10.248321">
        <ele>2040.511</ele>
        <time>2022-07-10T10:54:21Z</time>
      </trkpt>
      <trkpt lat="46.547588" lon="10.248196">
        <ele>2041.052</ele>
        <time>2022-07-10T10:54:35Z</time>
      </trkpt>
      <trkpt lat="46.547527" lon="10.248038">
        <ele>2042.930</ele>
        <time>2022-07-10T10:54:50Z</time>
      </trkpt>
      <trkpt lat="46.547473" lon="10.247912">
        <ele>2043.914</ele>
        <time>2022-07-10T10:55:01Z</time>
      </trkpt>
      <trkpt lat="46.547427" lon="10.247734">
        <ele>2045.847</ele>
        <time>2022-07-10T10:55:16Z</time>
      </trkpt>
      <trkpt lat="46.547381" lon="10.247596">
        <ele>2047.229</ele>
        <time>2022-07-10T10:55:29Z</time>
      </trkpt>
      <trkpt lat="46.547324" lon="10.247457">
        <ele>2048.721</ele>
        <time>2022-07-10T10:55:41Z</time>
      </trkpt>
      <trkpt lat="46.547263" lon="10.247323">
        <ele>2051.509</ele>
        <time>2022-07-10T10:55:56Z</time>
      </trkpt>
      <trkpt lat="46.547186" lon="10.247198">
        <ele>2053.045</ele>
        <time>2022-07-10T10:56:08Z</time>
      </trkpt>
      <trkpt lat="46.547207" lon="10.247052">
        <ele>2053.914</ele>
        <time>2022-07-10T10:56:20Z</time>
      </trkpt>
      <trkpt lat="46.547339" lon="10.246987">
        <ele>2055.982</ele>
        <time>2022-07-10T10:56:34Z</time>
      </trkpt>
      <trkpt lat="46.547442" lon="10.246875">
        <ele>2057.354</ele>
        <time>2022-07-10T10:56:49Z</time>
      </trkpt>
      <trkpt lat="46.547533" lon="10.246844">
        <ele>2058.340</ele>
        <time>2022-07-10T10:57:00Z</time>
      </trkpt>
      <trkpt lat="46.547641" lon="10.246866">
        <ele>2060.274</ele>
        <time>2022-07-10T10:57:14Z</time>
      </trkpt>
      <trkpt lat="46.547809" lon="10.246893">
        <ele>2062.185</ele>
        <time>2022-07-10T10:57:30Z</time>
      </trkpt>
      <trkpt lat="46.547941" lon="10.246969">
        <ele>2064.073</ele>
        <time>2022-07-10T10:57:45Z</time>
      </trkpt>
      <trkpt lat="46.548037" lon="10.246975">
        <ele>2065.097</ele>
        <time>2022-07-10T10:57:56Z</time>
      </trkpt>
      <trkpt lat="46.548045" lon="10.246966">
        <ele>2065.012</ele>
        <time>2022-07-10T10:57:57Z</time>
      </trkpt>
      <trkpt lat="46.548099" lon="10.246874">
        <ele>2065.532</ele>
        <time>2022-07-10T10:58:04Z</time>
      </trkpt>
      <trkpt lat="46.548154" lon="10.246796">
        <ele>2066.005</ele>
        <time>2022-07-10T10:58:10Z</time>
      </trkpt>
      <trkpt lat="46.548154" lon="10.246782">
        <ele>2066.009</ele>
        <time>2022-07-10T10:58:11Z</time>
      </trkpt>
      <trkpt lat="46.548154" lon="10.246764">
        <ele>2066.032</ele>
        <time>2022-07-10T10:58:12Z</time>
      </trkpt>
      <trkpt lat="46.548153" lon="10.246744">
        <ele>2066.081</ele>
        <time>2022-07-10T10:58:13Z</time>
      </trkpt>
      <trkpt lat="46.548149" lon="10.246731">
        <ele>2066.079</ele>
        <time>2022-07-10T10:58:14Z</time>
      </trkpt>
      <trkpt lat="46.548146" lon="10.246713">
        <ele>2066.031</ele>
        <time>2022-07-10T10:58:15Z</time>
      </trkpt>
      <trkpt lat="46.548142" lon="10.246697">
        <ele>2066.037</ele>
        <time>2022-07-10T10:58:16Z</time>
      </trkpt>
      <trkpt lat="46.548136" lon="10.246684">
        <ele>2066.411</ele>
        <time>2022-07-10T10:58:17Z</time>
      </trkpt>
      <trkpt lat="46.548128" lon="10.246671">
        <ele>2066.972</ele>
        <time>2022-07-10T10:58:18Z</time>
      </trkpt>
      <trkpt lat="46.548131" lon="10.246664">
        <ele>2067.430</ele>
        <time>2022-07-10T10:58:34Z</time>
      </trkpt>
      <trkpt lat="46.548137" lon="10.246688">
        <ele>2067.484</ele>
        <time>2022-07-10T10:58:56Z</time>
      </trkpt>
      <trkpt lat="46.548143" lon="10.246658">
        <ele>2067.921</ele>
        <time>2022-07-10T10:59:19Z</time>
      </trkpt>
      <trkpt lat="46.548105" lon="10.246633">
        <ele>2067.941</ele>
        <time>2022-07-10T10:59:39Z</time>
      </trkpt>
      <trkpt lat="46.548099" lon="10.246648">
        <ele>2067.905</ele>
        <time>2022-07-10T10:59:41Z</time>
      </trkpt>
      <trkpt lat="46.548087" lon="10.246647">
        <ele>2067.909</ele>
        <time>2022-07-10T10:59:42Z</time>
      </trkpt>
      <trkpt lat="46.547987" lon="10.246538">
        <ele>2069.353</ele>
        <time>2022-07-10T10:59:52Z</time>
      </trkpt>
      <trkpt lat="46.547865" lon="10.246261">
        <ele>2070.372</ele>
        <time>2022-07-10T11:00:08Z</time>
      </trkpt>
      <trkpt lat="46.547760" lon="10.246015">
        <ele>2071.710</ele>
        <time>2022-07-10T11:00:25Z</time>
      </trkpt>
      <trkpt lat="46.547663" lon="10.245841">
        <ele>2074.192</ele>
        <time>2022-07-10T11:00:42Z</time>
      </trkpt>
      <trkpt lat="46.547562" lon="10.245642">
        <ele>2076.118</ele>
        <time>2022-07-10T11:00:58Z</time>
      </trkpt>
      <trkpt lat="46.547482" lon="10.245445">
        <ele>2077.512</ele>
        <time>2022-07-10T11:01:13Z</time>
      </trkpt>
      <trkpt lat="46.547360" lon="10.245350">
        <ele>2078.573</ele>
        <time>2022-07-10T11:01:28Z</time>
      </trkpt>
      <trkpt lat="46.547348" lon="10.245344">
        <ele>2079.441</ele>
        <time>2022-07-10T11:01:29Z</time>
      </trkpt>
      <trkpt lat="46.547234" lon="10.245214">
        <ele>2080.475</ele>
        <time>2022-07-10T11:01:43Z</time>
      </trkpt>
      <trkpt lat="46.547216" lon="10.245202">
        <ele>2080.479</ele>
        <time>2022-07-10T11:01:45Z</time>
      </trkpt>
      <trkpt lat="46.547120" lon="10.245159">
        <ele>2080.905</ele>
        <time>2022-07-10T11:01:53Z</time>
      </trkpt>
      <trkpt lat="46.547110" lon="10.245147">
        <ele>2080.925</ele>
        <time>2022-07-10T11:01:54Z</time>
      </trkpt>
      <trkpt lat="46.547097" lon="10.245140">
        <ele>2081.809</ele>
        <time>2022-07-10T11:01:55Z</time>
      </trkpt>
      <trkpt lat="46.547038" lon="10.245096">
        <ele>2081.838</ele>
        <time>2022-07-10T11:02:01Z</time>
      </trkpt>
      <trkpt lat="46.547023" lon="10.245091">
        <ele>2081.847</ele>
        <time>2022-07-10T11:02:02Z</time>
      </trkpt>
      <trkpt lat="46.547015" lon="10.245093">
        <ele>2081.875</ele>
        <time>2022-07-10T11:02:03Z</time>
      </trkpt>
      <trkpt lat="46.547005" lon="10.245093">
        <ele>2081.877</ele>
        <time>2022-07-10T11:02:04Z</time>
      </trkpt>
      <trkpt lat="46.546996" lon="10.245090">
        <ele>2081.893</ele>
        <time>2022-07-10T11:02:05Z</time>
      </trkpt>
      <trkpt lat="46.546839" lon="10.245147">
        <ele>2083.787</ele>
        <time>2022-07-10T11:02:20Z</time>
      </trkpt>
      <trkpt lat="46.546830" lon="10.245157">
        <ele>2083.728</ele>
        <time>2022-07-10T11:02:21Z</time>
      </trkpt>
      <trkpt lat="46.546822" lon="10.245170">
        <ele>2083.776</ele>
        <time>2022-07-10T11:02:22Z</time>
      </trkpt>
      <trkpt lat="46.546815" lon="10.245181">
        <ele>2083.720</ele>
        <time>2022-07-10T11:02:23Z</time>
      </trkpt>
      <trkpt lat="46.546770" lon="10.245241">
        <ele>2083.796</ele>
        <time>2022-07-10T11:02:29Z</time>
      </trkpt>
      <trkpt lat="46.546745" lon="10.245270">
        <ele>2084.731</ele>
        <time>2022-07-10T11:02:32Z</time>
      </trkpt>
      <trkpt lat="46.546698" lon="10.245409">
        <ele>2086.224</ele>
        <time>2022-07-10T11:02:43Z</time>
      </trkpt>
      <trkpt lat="46.546672" lon="10.245551">
        <ele>2088.109</ele>
        <time>2022-07-10T11:02:54Z</time>
      </trkpt>
      <trkpt lat="46.546668" lon="10.245565">
        <ele>2088.160</ele>
        <time>2022-07-10T11:02:55Z</time>
      </trkpt>
      <trkpt lat="46.546643" lon="10.245789">
        <ele>2088.119</ele>
        <time>2022-07-10T11:03:10Z</time>
      </trkpt>
      <trkpt lat="46.546629" lon="10.245882">
        <ele>2090.097</ele>
        <time>2022-07-10T11:03:16Z</time>
      </trkpt>
      <trkpt lat="46.546631" lon="10.245907">
        <ele>2091.089</ele>
        <time>2022-07-10T11:03:18Z</time>
      </trkpt>
      <trkpt lat="46.546629" lon="10.245922">
        <ele>2091.435</ele>
        <time>2022-07-10T11:03:19Z</time>
      </trkpt>
      <trkpt lat="46.546574" lon="10.246173">
        <ele>2091.039</ele>
        <time>2022-07-10T11:03:36Z</time>
      </trkpt>
      <trkpt lat="46.546551" lon="10.246231">
        <ele>2092.470</ele>
        <time>2022-07-10T11:03:41Z</time>
      </trkpt>
      <trkpt lat="46.546503" lon="10.246473">
        <ele>2092.438</ele>
        <time>2022-07-10T11:03:59Z</time>
      </trkpt>
      <trkpt lat="46.546502" lon="10.246682">
        <ele>2094.852</ele>
        <time>2022-07-10T11:04:14Z</time>
      </trkpt>
      <trkpt lat="46.546465" lon="10.246875">
        <ele>2096.785</ele>
        <time>2022-07-10T11:04:29Z</time>
      </trkpt>
      <trkpt lat="46.546403" lon="10.247038">
        <ele>2097.289</ele>
        <time>2022-07-10T11:04:42Z</time>
      </trkpt>
      <trkpt lat="46.546316" lon="10.247276">
        <ele>2098.717</ele>
        <time>2022-07-10T11:04:59Z</time>
      </trkpt>
      <trkpt lat="46.546269" lon="10.247218">
        <ele>2099.609</ele>
        <time>2022-07-10T11:05:10Z</time>
      </trkpt>
      <trkpt lat="46.546292" lon="10.247059">
        <ele>2101.189</ele>
        <time>2022-07-10T11:05:25Z</time>
      </trkpt>
      <trkpt lat="46.546323" lon="10.246878">
        <ele>2102.538</ele>
        <time>2022-07-10T11:05:40Z</time>
      </trkpt>
      <trkpt lat="46.546366" lon="10.246698">
        <ele>2104.986</ele>
        <time>2022-07-10T11:05:54Z</time>
      </trkpt>
      <trkpt lat="46.546376" lon="10.246561">
        <ele>2105.968</ele>
        <time>2022-07-10T11:06:05Z</time>
      </trkpt>
      <trkpt lat="46.546319" lon="10.246386">
        <ele>2107.884</ele>
        <time>2022-07-10T11:06:19Z</time>
      </trkpt>
      <trkpt lat="46.546252" lon="10.246217">
        <ele>2108.738</ele>
        <time>2022-07-10T11:06:33Z</time>
      </trkpt>
      <trkpt lat="46.546180" lon="10.246014">
        <ele>2110.269</ele>
        <time>2022-07-10T11:06:47Z</time>
      </trkpt>
      <trkpt lat="46.546164" lon="10.245865">
        <ele>2111.667</ele>
        <time>2022-07-10T11:06:58Z</time>
      </trkpt>
      <trkpt lat="46.546142" lon="10.245647">
        <ele>2114.011</ele>
        <time>2022-07-10T11:07:11Z</time>
      </trkpt>
      <trkpt lat="46.546122" lon="10.245518">
        <ele>2115.557</ele>
        <time>2022-07-10T11:07:21Z</time>
      </trkpt>
      <trkpt lat="46.546072" lon="10.245357">
        <ele>2116.900</ele>
        <time>2022-07-10T11:07:32Z</time>
      </trkpt>
      <trkpt lat="46.546015" lon="10.245230">
        <ele>2117.920</ele>
        <time>2022-07-10T11:07:42Z</time>
      </trkpt>
      <trkpt lat="46.546012" lon="10.245030">
        <ele>2119.309</ele>
        <time>2022-07-10T11:07:56Z</time>
      </trkpt>
      <trkpt lat="46.546008" lon="10.244986">
        <ele>2119.366</ele>
        <time>2022-07-10T11:07:59Z</time>
      </trkpt>
      <trkpt lat="46.546013" lon="10.244972">
        <ele>2119.815</ele>
        <time>2022-07-10T11:08:00Z</time>
      </trkpt>
      <trkpt lat="46.546014" lon="10.244952">
        <ele>2119.853</ele>
        <time>2022-07-10T11:08:01Z</time>
      </trkpt>
      <trkpt lat="46.546013" lon="10.244931">
        <ele>2119.865</ele>
        <time>2022-07-10T11:08:02Z</time>
      </trkpt>
      <trkpt lat="46.546010" lon="10.244906">
        <ele>2120.361</ele>
        <time>2022-07-10T11:08:03Z</time>
      </trkpt>
      <trkpt lat="46.545990" lon="10.244843">
        <ele>2121.255</ele>
        <time>2022-07-10T11:08:08Z</time>
      </trkpt>
      <trkpt lat="46.545989" lon="10.244827">
        <ele>2121.236</ele>
        <time>2022-07-10T11:08:09Z</time>
      </trkpt>
      <trkpt lat="46.545986" lon="10.244811">
        <ele>2121.264</ele>
        <time>2022-07-10T11:08:10Z</time>
      </trkpt>
      <trkpt lat="46.545980" lon="10.244791">
        <ele>2121.298</ele>
        <time>2022-07-10T11:08:11Z</time>
      </trkpt>
      <trkpt lat="46.545978" lon="10.244725">
        <ele>2121.789</ele>
        <time>2022-07-10T11:08:16Z</time>
      </trkpt>
      <trkpt lat="46.545969" lon="10.244513">
        <ele>2124.106</ele>
        <time>2022-07-10T11:08:30Z</time>
      </trkpt>
      <trkpt lat="46.545945" lon="10.244228">
        <ele>2125.126</ele>
        <time>2022-07-10T11:08:48Z</time>
      </trkpt>
      <trkpt lat="46.545928" lon="10.244003">
        <ele>2126.509</ele>
        <time>2022-07-10T11:09:03Z</time>
      </trkpt>
      <trkpt lat="46.545927" lon="10.243875">
        <ele>2127.569</ele>
        <time>2022-07-10T11:09:11Z</time>
      </trkpt>
      <trkpt lat="46.545910" lon="10.243685">
        <ele>2128.538</ele>
        <time>2022-07-10T11:09:24Z</time>
      </trkpt>
      <trkpt lat="46.545917" lon="10.243608">
        <ele>2129.416</ele>
        <time>2022-07-10T11:09:30Z</time>
      </trkpt>
      <trkpt lat="46.545916" lon="10.243587">
        <ele>2129.428</ele>
        <time>2022-07-10T11:09:31Z</time>
      </trkpt>
      <trkpt lat="46.545915" lon="10.243575">
        <ele>2129.494</ele>
        <time>2022-07-10T11:09:32Z</time>
      </trkpt>
      <trkpt lat="46.545878" lon="10.243388">
        <ele>2131.338</ele>
        <time>2022-07-10T11:09:46Z</time>
      </trkpt>
      <trkpt lat="46.545867" lon="10.243371">
        <ele>2131.829</ele>
        <time>2022-07-10T11:09:48Z</time>
      </trkpt>
      <trkpt lat="46.545859" lon="10.243359">
        <ele>2131.857</ele>
        <time>2022-07-10T11:09:49Z</time>
      </trkpt>
      <trkpt lat="46.545826" lon="10.243280">
        <ele>2132.311</ele>
        <time>2022-07-10T11:09:55Z</time>
      </trkpt>
      <trkpt lat="46.545803" lon="10.243184">
        <ele>2132.854</ele>
        <time>2022-07-10T11:10:02Z</time>
      </trkpt>
      <trkpt lat="46.545799" lon="10.243167">
        <ele>2132.856</ele>
        <time>2022-07-10T11:10:03Z</time>
      </trkpt>
      <trkpt lat="46.545795" lon="10.243148">
        <ele>2132.811</ele>
        <time>2022-07-10T11:10:04Z</time>
      </trkpt>
      <trkpt lat="46.545769" lon="10.242920">
        <ele>2134.709</ele>
        <time>2022-07-10T11:10:20Z</time>
      </trkpt>
      <trkpt lat="46.545755" lon="10.242729">
        <ele>2135.766</ele>
        <time>2022-07-10T11:10:34Z</time>
      </trkpt>
      <trkpt lat="46.545754" lon="10.242479">
        <ele>2138.185</ele>
        <time>2022-07-10T11:10:50Z</time>
      </trkpt>
      <trkpt lat="46.545740" lon="10.242211">
        <ele>2140.053</ele>
        <time>2022-07-10T11:11:08Z</time>
      </trkpt>
      <trkpt lat="46.545727" lon="10.241994">
        <ele>2142.435</ele>
        <time>2022-07-10T11:11:24Z</time>
      </trkpt>
      <trkpt lat="46.545717" lon="10.241931">
        <ele>2142.981</ele>
        <time>2022-07-10T11:11:28Z</time>
      </trkpt>
      <trkpt lat="46.545712" lon="10.241902">
        <ele>2142.955</ele>
        <time>2022-07-10T11:11:30Z</time>
      </trkpt>
      <trkpt lat="46.545712" lon="10.241886">
        <ele>2143.466</ele>
        <time>2022-07-10T11:11:31Z</time>
      </trkpt>
      <trkpt lat="46.545712" lon="10.241869">
        <ele>2143.464</ele>
        <time>2022-07-10T11:11:32Z</time>
      </trkpt>
      <trkpt lat="46.545708" lon="10.241612">
        <ele>2144.888</ele>
        <time>2022-07-10T11:11:50Z</time>
      </trkpt>
      <trkpt lat="46.545685" lon="10.241430">
        <ele>2146.248</ele>
        <time>2022-07-10T11:12:03Z</time>
      </trkpt>
      <trkpt lat="46.545650" lon="10.241167">
        <ele>2148.661</ele>
        <time>2022-07-10T11:12:20Z</time>
      </trkpt>
      <trkpt lat="46.545625" lon="10.240861">
        <ele>2150.617</ele>
        <time>2022-07-10T11:12:40Z</time>
      </trkpt>
      <trkpt lat="46.545648" lon="10.240690">
        <ele>2152.009</ele>
        <time>2022-07-10T11:12:53Z</time>
      </trkpt>
      <trkpt lat="46.545704" lon="10.240421">
        <ele>2154.425</ele>
        <time>2022-07-10T11:13:12Z</time>
      </trkpt>
      <trkpt lat="46.545714" lon="10.240261">
        <ele>2154.944</ele>
        <time>2022-07-10T11:13:22Z</time>
      </trkpt>
      <trkpt lat="46.545713" lon="10.240245">
        <ele>2155.422</ele>
        <time>2022-07-10T11:13:23Z</time>
      </trkpt>
      <trkpt lat="46.545714" lon="10.240228">
        <ele>2155.424</ele>
        <time>2022-07-10T11:13:24Z</time>
      </trkpt>
      <trkpt lat="46.545711" lon="10.240214">
        <ele>2155.840</ele>
        <time>2022-07-10T11:13:25Z</time>
      </trkpt>
      <trkpt lat="46.545712" lon="10.240200">
        <ele>2155.854</ele>
        <time>2022-07-10T11:13:26Z</time>
      </trkpt>
      <trkpt lat="46.545717" lon="10.240167">
        <ele>2156.335</ele>
        <time>2022-07-10T11:13:28Z</time>
      </trkpt>
      <trkpt lat="46.545721" lon="10.240144">
        <ele>2156.393</ele>
        <time>2022-07-10T11:13:30Z</time>
      </trkpt>
      <trkpt lat="46.545723" lon="10.240129">
        <ele>2156.347</ele>
        <time>2022-07-10T11:13:31Z</time>
      </trkpt>
      <trkpt lat="46.545722" lon="10.240112">
        <ele>2156.311</ele>
        <time>2022-07-10T11:13:32Z</time>
      </trkpt>
      <trkpt lat="46.545727" lon="10.240068">
        <ele>2157.321</ele>
        <time>2022-07-10T11:13:35Z</time>
      </trkpt>
      <trkpt lat="46.545731" lon="10.239878">
        <ele>2158.303</ele>
        <time>2022-07-10T11:13:47Z</time>
      </trkpt>
      <trkpt lat="46.545733" lon="10.239863">
        <ele>2158.309</ele>
        <time>2022-07-10T11:13:48Z</time>
      </trkpt>
      <trkpt lat="46.545760" lon="10.239601">
        <ele>2160.272</ele>
        <time>2022-07-10T11:14:06Z</time>
      </trkpt>
      <trkpt lat="46.545767" lon="10.239497">
        <ele>2161.141</ele>
        <time>2022-07-10T11:14:13Z</time>
      </trkpt>
      <trkpt lat="46.545828" lon="10.239347">
        <ele>2162.689</ele>
        <time>2022-07-10T11:14:25Z</time>
      </trkpt>
      <trkpt lat="46.545827" lon="10.239330">
        <ele>2162.621</ele>
        <time>2022-07-10T11:14:26Z</time>
      </trkpt>
      <trkpt lat="46.545852" lon="10.239203">
        <ele>2163.527</ele>
        <time>2022-07-10T11:14:35Z</time>
      </trkpt>
      <trkpt lat="46.545877" lon="10.239066">
        <ele>2164.561</ele>
        <time>2022-07-10T11:14:45Z</time>
      </trkpt>
      <trkpt lat="46.545906" lon="10.238840">
        <ele>2165.922</ele>
        <time>2022-07-10T11:15:01Z</time>
      </trkpt>
      <trkpt lat="46.546028" lon="10.238626">
        <ele>2168.350</ele>
        <time>2022-07-10T11:15:20Z</time>
      </trkpt>
      <trkpt lat="46.546115" lon="10.238457">
        <ele>2169.854</ele>
        <time>2022-07-10T11:15:34Z</time>
      </trkpt>
      <trkpt lat="46.546122" lon="10.238422">
        <ele>2170.325</ele>
        <time>2022-07-10T11:15:36Z</time>
      </trkpt>
      <trkpt lat="46.546128" lon="10.238413">
        <ele>2170.326</ele>
        <time>2022-07-10T11:15:37Z</time>
      </trkpt>
      <trkpt lat="46.546135" lon="10.238400">
        <ele>2170.308</ele>
        <time>2022-07-10T11:15:38Z</time>
      </trkpt>
      <trkpt lat="46.546139" lon="10.238384">
        <ele>2170.309</ele>
        <time>2022-07-10T11:15:39Z</time>
      </trkpt>
      <trkpt lat="46.546217" lon="10.238207">
        <ele>2171.253</ele>
        <time>2022-07-10T11:15:54Z</time>
      </trkpt>
      <trkpt lat="46.546311" lon="10.238062">
        <ele>2173.662</ele>
        <time>2022-07-10T11:16:09Z</time>
      </trkpt>
      <trkpt lat="46.546317" lon="10.238050">
        <ele>2173.610</ele>
        <time>2022-07-10T11:16:10Z</time>
      </trkpt>
      <trkpt lat="46.546401" lon="10.237876">
        <ele>2175.612</ele>
        <time>2022-07-10T11:16:25Z</time>
      </trkpt>
      <trkpt lat="46.546402" lon="10.237865">
        <ele>2175.628</ele>
        <time>2022-07-10T11:16:26Z</time>
      </trkpt>
      <trkpt lat="46.546401" lon="10.237649">
        <ele>2177.572</ele>
        <time>2022-07-10T11:16:42Z</time>
      </trkpt>
      <trkpt lat="46.546412" lon="10.237620">
        <ele>2177.583</ele>
        <time>2022-07-10T11:16:45Z</time>
      </trkpt>
      <trkpt lat="46.546418" lon="10.237606">
        <ele>2178.051</ele>
        <time>2022-07-10T11:16:46Z</time>
      </trkpt>
      <trkpt lat="46.546421" lon="10.237590">
        <ele>2178.015</ele>
        <time>2022-07-10T11:16:47Z</time>
      </trkpt>
      <trkpt lat="46.546445" lon="10.237381">
        <ele>2179.471</ele>
        <time>2022-07-10T11:17:02Z</time>
      </trkpt>
      <trkpt lat="46.546478" lon="10.237381">
        <ele>2179.941</ele>
        <time>2022-07-10T11:17:13Z</time>
      </trkpt>
      <trkpt lat="46.546458" lon="10.237367">
        <ele>2179.915</ele>
        <time>2022-07-10T11:17:45Z</time>
      </trkpt>
      <trkpt lat="46.546431" lon="10.237363">
        <ele>2178.409</ele>
        <time>2022-07-10T11:18:15Z</time>
      </trkpt>
      <trkpt lat="46.546449" lon="10.237365">
        <ele>2179.468</ele>
        <time>2022-07-10T11:18:46Z</time>
      </trkpt>
      <trkpt lat="46.546455" lon="10.237247">
        <ele>2179.447</ele>
        <time>2022-07-10T11:18:59Z</time>
      </trkpt>
      <trkpt lat="46.546426" lon="10.236974">
        <ele>2180.875</ele>
        <time>2022-07-10T11:19:14Z</time>
      </trkpt>
      <trkpt lat="46.546419" lon="10.236651">
        <ele>2182.827</ele>
        <time>2022-07-10T11:19:32Z</time>
      </trkpt>
      <trkpt lat="46.546426" lon="10.236583">
        <ele>2183.733</ele>
        <time>2022-07-10T11:19:36Z</time>
      </trkpt>
      <trkpt lat="46.546425" lon="10.236566">
        <ele>2183.747</ele>
        <time>2022-07-10T11:19:37Z</time>
      </trkpt>
      <trkpt lat="46.546425" lon="10.236551">
        <ele>2183.778</ele>
        <time>2022-07-10T11:19:38Z</time>
      </trkpt>
      <trkpt lat="46.546434" lon="10.236529">
        <ele>2184.286</ele>
        <time>2022-07-10T11:19:40Z</time>
      </trkpt>
      <trkpt lat="46.546450" lon="10.236323">
        <ele>2185.620</ele>
        <time>2022-07-10T11:19:54Z</time>
      </trkpt>
      <trkpt lat="46.546470" lon="10.236099">
        <ele>2186.686</ele>
        <time>2022-07-10T11:20:11Z</time>
      </trkpt>
      <trkpt lat="46.546455" lon="10.235910">
        <ele>2188.560</ele>
        <time>2022-07-10T11:20:25Z</time>
      </trkpt>
      <trkpt lat="46.546438" lon="10.235654">
        <ele>2190.026</ele>
        <time>2022-07-10T11:20:43Z</time>
      </trkpt>
      <trkpt lat="46.546431" lon="10.235411">
        <ele>2191.409</ele>
        <time>2022-07-10T11:21:01Z</time>
      </trkpt>
      <trkpt lat="46.546405" lon="10.235255">
        <ele>2192.999</ele>
        <time>2022-07-10T11:21:12Z</time>
      </trkpt>
      <trkpt lat="46.546400" lon="10.235057">
        <ele>2193.358</ele>
        <time>2022-07-10T11:21:24Z</time>
      </trkpt>
      <trkpt lat="46.546409" lon="10.235030">
        <ele>2193.366</ele>
        <time>2022-07-10T11:21:26Z</time>
      </trkpt>
      <trkpt lat="46.546413" lon="10.235016">
        <ele>2193.398</ele>
        <time>2022-07-10T11:21:27Z</time>
      </trkpt>
      <trkpt lat="46.546413" lon="10.235002">
        <ele>2193.374</ele>
        <time>2022-07-10T11:21:28Z</time>
      </trkpt>
      <trkpt lat="46.546414" lon="10.234987">
        <ele>2193.338</ele>
        <time>2022-07-10T11:21:29Z</time>
      </trkpt>
      <trkpt lat="46.546416" lon="10.234971">
        <ele>2193.389</ele>
        <time>2022-07-10T11:21:30Z</time>
      </trkpt>
      <trkpt lat="46.546418" lon="10.234957">
        <ele>2193.337</ele>
        <time>2022-07-10T11:21:31Z</time>
      </trkpt>
      <trkpt lat="46.546425" lon="10.234942">
        <ele>2193.351</ele>
        <time>2022-07-10T11:21:32Z</time>
      </trkpt>
      <trkpt lat="46.546429" lon="10.234927">
        <ele>2193.871</ele>
        <time>2022-07-10T11:21:33Z</time>
      </trkpt>
      <trkpt lat="46.546432" lon="10.234910">
        <ele>2193.841</ele>
        <time>2022-07-10T11:21:34Z</time>
      </trkpt>
      <trkpt lat="46.546436" lon="10.234891">
        <ele>2193.815</ele>
        <time>2022-07-10T11:21:35Z</time>
      </trkpt>
      <trkpt lat="46.546486" lon="10.234714">
        <ele>2195.309</ele>
        <time>2022-07-10T11:21:47Z</time>
      </trkpt>
      <trkpt lat="46.546489" lon="10.234695">
        <ele>2195.378</ele>
        <time>2022-07-10T11:21:48Z</time>
      </trkpt>
      <trkpt lat="46.546493" lon="10.234678">
        <ele>2195.387</ele>
        <time>2022-07-10T11:21:49Z</time>
      </trkpt>
      <trkpt lat="46.546494" lon="10.234664">
        <ele>2195.345</ele>
        <time>2022-07-10T11:21:50Z</time>
      </trkpt>
      <trkpt lat="46.546496" lon="10.234650">
        <ele>2195.377</ele>
        <time>2022-07-10T11:21:51Z</time>
      </trkpt>
      <trkpt lat="46.546499" lon="10.234634">
        <ele>2195.333</ele>
        <time>2022-07-10T11:21:52Z</time>
      </trkpt>
      <trkpt lat="46.546504" lon="10.234616">
        <ele>2195.727</ele>
        <time>2022-07-10T11:21:53Z</time>
      </trkpt>
      <trkpt lat="46.546513" lon="10.234550">
        <ele>2196.238</ele>
        <time>2022-07-10T11:21:57Z</time>
      </trkpt>
      <trkpt lat="46.546514" lon="10.234532">
        <ele>2196.286</ele>
        <time>2022-07-10T11:21:58Z</time>
      </trkpt>
      <trkpt lat="46.546513" lon="10.234516">
        <ele>2196.280</ele>
        <time>2022-07-10T11:21:59Z</time>
      </trkpt>
      <trkpt lat="46.546510" lon="10.234497">
        <ele>2196.246</ele>
        <time>2022-07-10T11:22:00Z</time>
      </trkpt>
      <trkpt lat="46.546511" lon="10.234481">
        <ele>2196.288</ele>
        <time>2022-07-10T11:22:01Z</time>
      </trkpt>
      <trkpt lat="46.546512" lon="10.234463">
        <ele>2196.716</ele>
        <time>2022-07-10T11:22:02Z</time>
      </trkpt>
      <trkpt lat="46.546512" lon="10.234446">
        <ele>2196.709</ele>
        <time>2022-07-10T11:22:03Z</time>
      </trkpt>
      <trkpt lat="46.546511" lon="10.234432">
        <ele>2196.725</ele>
        <time>2022-07-10T11:22:04Z</time>
      </trkpt>
      <trkpt lat="46.546471" lon="10.234166">
        <ele>2197.714</ele>
        <time>2022-07-10T11:22:21Z</time>
      </trkpt>
      <trkpt lat="46.546439" lon="10.233904">
        <ele>2197.752</ele>
        <time>2022-07-10T11:22:38Z</time>
      </trkpt>
      <trkpt lat="46.546417" lon="10.233680">
        <ele>2200.154</ele>
        <time>2022-07-10T11:22:53Z</time>
      </trkpt>
      <trkpt lat="46.546415" lon="10.233635">
        <ele>2200.130</ele>
        <time>2022-07-10T11:22:56Z</time>
      </trkpt>
      <trkpt lat="46.546416" lon="10.233620">
        <ele>2200.124</ele>
        <time>2022-07-10T11:22:57Z</time>
      </trkpt>
      <trkpt lat="46.546415" lon="10.233603">
        <ele>2200.125</ele>
        <time>2022-07-10T11:22:58Z</time>
      </trkpt>
      <trkpt lat="46.546416" lon="10.233588">
        <ele>2200.593</ele>
        <time>2022-07-10T11:22:59Z</time>
      </trkpt>
      <trkpt lat="46.546418" lon="10.233572">
        <ele>2200.557</ele>
        <time>2022-07-10T11:23:00Z</time>
      </trkpt>
      <trkpt lat="46.546421" lon="10.233554">
        <ele>2200.568</ele>
        <time>2022-07-10T11:23:01Z</time>
      </trkpt>
      <trkpt lat="46.546427" lon="10.233535">
        <ele>2200.542</ele>
        <time>2022-07-10T11:23:02Z</time>
      </trkpt>
      <trkpt lat="46.546492" lon="10.233291">
        <ele>2202.526</ele>
        <time>2022-07-10T11:23:20Z</time>
      </trkpt>
      <trkpt lat="46.546562" lon="10.232960">
        <ele>2204.409</ele>
        <time>2022-07-10T11:23:41Z</time>
      </trkpt>
      <trkpt lat="46.546564" lon="10.232910">
        <ele>2205.447</ele>
        <time>2022-07-10T11:23:44Z</time>
      </trkpt>
      <trkpt lat="46.546573" lon="10.232833">
        <ele>2205.826</ele>
        <time>2022-07-10T11:23:49Z</time>
      </trkpt>
      <trkpt lat="46.546566" lon="10.232566">
        <ele>2207.874</ele>
        <time>2022-07-10T11:24:06Z</time>
      </trkpt>
      <trkpt lat="46.546603" lon="10.232357">
        <ele>2209.796</ele>
        <time>2022-07-10T11:24:21Z</time>
      </trkpt>
      <trkpt lat="46.546597" lon="10.232166">
        <ele>2210.642</ele>
        <time>2022-07-10T11:24:34Z</time>
      </trkpt>
      <trkpt lat="46.546601" lon="10.232155">
        <ele>2210.696</ele>
        <time>2022-07-10T11:24:35Z</time>
      </trkpt>
      <trkpt lat="46.546608" lon="10.232148">
        <ele>2211.657</ele>
        <time>2022-07-10T11:24:36Z</time>
      </trkpt>
      <trkpt lat="46.546639" lon="10.232107">
        <ele>2211.155</ele>
        <time>2022-07-10T11:24:40Z</time>
      </trkpt>
      <trkpt lat="46.546649" lon="10.232098">
        <ele>2211.169</ele>
        <time>2022-07-10T11:24:41Z</time>
      </trkpt>
      <trkpt lat="46.546658" lon="10.232090">
        <ele>2211.616</ele>
        <time>2022-07-10T11:24:42Z</time>
      </trkpt>
      <trkpt lat="46.546668" lon="10.232079">
        <ele>2211.676</ele>
        <time>2022-07-10T11:24:43Z</time>
      </trkpt>
      <trkpt lat="46.546676" lon="10.232068">
        <ele>2212.113</ele>
        <time>2022-07-10T11:24:44Z</time>
      </trkpt>
      <trkpt lat="46.546683" lon="10.232057">
        <ele>2212.109</ele>
        <time>2022-07-10T11:24:45Z</time>
      </trkpt>
      <trkpt lat="46.546712" lon="10.232018">
        <ele>2212.142</ele>
        <time>2022-07-10T11:24:49Z</time>
      </trkpt>
      <trkpt lat="46.546721" lon="10.232007">
        <ele>2212.631</ele>
        <time>2022-07-10T11:24:50Z</time>
      </trkpt>
      <trkpt lat="46.546726" lon="10.231994">
        <ele>2212.679</ele>
        <time>2022-07-10T11:24:51Z</time>
      </trkpt>
      <trkpt lat="46.546784" lon="10.231865">
        <ele>2213.541</ele>
        <time>2022-07-10T11:25:01Z</time>
      </trkpt>
      <trkpt lat="46.546789" lon="10.231851">
        <ele>2214.567</ele>
        <time>2022-07-10T11:25:02Z</time>
      </trkpt>
      <trkpt lat="46.546850" lon="10.231733">
        <ele>2215.081</ele>
        <time>2022-07-10T11:25:12Z</time>
      </trkpt>
      <trkpt lat="46.546858" lon="10.231721">
        <ele>2215.082</ele>
        <time>2022-07-10T11:25:13Z</time>
      </trkpt>
      <trkpt lat="46.546864" lon="10.231707">
        <ele>2215.020</ele>
        <time>2022-07-10T11:25:14Z</time>
      </trkpt>
      <trkpt lat="46.546871" lon="10.231692">
        <ele>2215.074</ele>
        <time>2022-07-10T11:25:15Z</time>
      </trkpt>
      <trkpt lat="46.546879" lon="10.231678">
        <ele>2215.962</ele>
        <time>2022-07-10T11:25:16Z</time>
      </trkpt>
      <trkpt lat="46.546887" lon="10.231666">
        <ele>2215.983</ele>
        <time>2022-07-10T11:25:17Z</time>
      </trkpt>
      <trkpt lat="46.546893" lon="10.231653">
        <ele>2215.511</ele>
        <time>2022-07-10T11:25:18Z</time>
      </trkpt>
      <trkpt lat="46.546970" lon="10.231376">
        <ele>2218.309</ele>
        <time>2022-07-10T11:25:37Z</time>
      </trkpt>
      <trkpt lat="46.547007" lon="10.231205">
        <ele>2219.367</ele>
        <time>2022-07-10T11:25:50Z</time>
      </trkpt>
      <trkpt lat="46.547008" lon="10.231186">
        <ele>2219.336</ele>
        <time>2022-07-10T11:25:51Z</time>
      </trkpt>
      <trkpt lat="46.547021" lon="10.231112">
        <ele>2219.344</ele>
        <time>2022-07-10T11:25:56Z</time>
      </trkpt>
      <trkpt lat="46.547050" lon="10.230899">
        <ele>2220.746</ele>
        <time>2022-07-10T11:26:11Z</time>
      </trkpt>
      <trkpt lat="46.547042" lon="10.230883">
        <ele>2220.752</ele>
        <time>2022-07-10T11:26:12Z</time>
      </trkpt>
      <trkpt lat="46.547030" lon="10.230599">
        <ele>2223.156</ele>
        <time>2022-07-10T11:26:29Z</time>
      </trkpt>
      <trkpt lat="46.547019" lon="10.230359">
        <ele>2223.197</ele>
        <time>2022-07-10T11:26:43Z</time>
      </trkpt>
      <trkpt lat="46.547018" lon="10.230340">
        <ele>2223.175</ele>
        <time>2022-07-10T11:26:44Z</time>
      </trkpt>
      <trkpt lat="46.547019" lon="10.230311">
        <ele>2223.119</ele>
        <time>2022-07-10T11:26:46Z</time>
      </trkpt>
      <trkpt lat="46.547022" lon="10.230295">
        <ele>2223.158</ele>
        <time>2022-07-10T11:26:47Z</time>
      </trkpt>
      <trkpt lat="46.547028" lon="10.230283">
        <ele>2224.152</ele>
        <time>2022-07-10T11:26:48Z</time>
      </trkpt>
      <trkpt lat="46.547029" lon="10.230265">
        <ele>2224.117</ele>
        <time>2022-07-10T11:26:49Z</time>
      </trkpt>
      <trkpt lat="46.547031" lon="10.230249">
        <ele>2224.109</ele>
        <time>2022-07-10T11:26:50Z</time>
      </trkpt>
      <trkpt lat="46.547032" lon="10.230230">
        <ele>2224.156</ele>
        <time>2022-07-10T11:26:51Z</time>
      </trkpt>
      <trkpt lat="46.547032" lon="10.230207">
        <ele>2224.645</ele>
        <time>2022-07-10T11:26:52Z</time>
      </trkpt>
      <trkpt lat="46.547031" lon="10.230187">
        <ele>2224.613</ele>
        <time>2022-07-10T11:26:53Z</time>
      </trkpt>
      <trkpt lat="46.547165" lon="10.230002">
        <ele>2225.555</ele>
        <time>2022-07-10T11:27:09Z</time>
      </trkpt>
      <trkpt lat="46.547321" lon="10.229900">
        <ele>2227.031</ele>
        <time>2022-07-10T11:27:24Z</time>
      </trkpt>
      <trkpt lat="46.547420" lon="10.229711">
        <ele>2228.455</ele>
        <time>2022-07-10T11:27:39Z</time>
      </trkpt>
      <trkpt lat="46.547477" lon="10.229590">
        <ele>2229.456</ele>
        <time>2022-07-10T11:27:49Z</time>
      </trkpt>
      <trkpt lat="46.547487" lon="10.229577">
        <ele>2229.424</ele>
        <time>2022-07-10T11:27:50Z</time>
      </trkpt>
      <trkpt lat="46.547497" lon="10.229563">
        <ele>2229.498</ele>
        <time>2022-07-10T11:27:51Z</time>
      </trkpt>
      <trkpt lat="46.547499" lon="10.229547">
        <ele>2229.479</ele>
        <time>2022-07-10T11:27:52Z</time>
      </trkpt>
      <trkpt lat="46.547506" lon="10.229531">
        <ele>2229.405</ele>
        <time>2022-07-10T11:27:53Z</time>
      </trkpt>
      <trkpt lat="46.547513" lon="10.229515">
        <ele>2229.425</ele>
        <time>2022-07-10T11:27:54Z</time>
      </trkpt>
      <trkpt lat="46.547523" lon="10.229499">
        <ele>2229.409</ele>
        <time>2022-07-10T11:27:55Z</time>
      </trkpt>
      <trkpt lat="46.547528" lon="10.229479">
        <ele>2229.438</ele>
        <time>2022-07-10T11:27:56Z</time>
      </trkpt>
      <trkpt lat="46.547531" lon="10.229458">
        <ele>2229.437</ele>
        <time>2022-07-10T11:27:57Z</time>
      </trkpt>
      <trkpt lat="46.547623" lon="10.229252">
        <ele>2231.875</ele>
        <time>2022-07-10T11:28:14Z</time>
      </trkpt>
      <trkpt lat="46.547671" lon="10.229007">
        <ele>2232.877</ele>
        <time>2022-07-10T11:28:30Z</time>
      </trkpt>
      <trkpt lat="46.547682" lon="10.228938">
        <ele>2232.823</ele>
        <time>2022-07-10T11:28:35Z</time>
      </trkpt>
      <trkpt lat="46.547679" lon="10.228916">
        <ele>2233.737</ele>
        <time>2022-07-10T11:28:48Z</time>
      </trkpt>
      <trkpt lat="46.547702" lon="10.228944">
        <ele>2233.738</ele>
        <time>2022-07-10T11:29:14Z</time>
      </trkpt>
      <trkpt lat="46.547701" lon="10.228911">
        <ele>2233.776</ele>
        <time>2022-07-10T11:29:20Z</time>
      </trkpt>
      <trkpt lat="46.547699" lon="10.228894">
        <ele>2233.750</ele>
        <time>2022-07-10T11:29:21Z</time>
      </trkpt>
      <trkpt lat="46.547690" lon="10.228849">
        <ele>2233.718</ele>
        <time>2022-07-10T11:29:24Z</time>
      </trkpt>
      <trkpt lat="46.547689" lon="10.228825">
        <ele>2233.798</ele>
        <time>2022-07-10T11:29:25Z</time>
      </trkpt>
      <trkpt lat="46.547689" lon="10.228795">
        <ele>2233.717</ele>
        <time>2022-07-10T11:29:26Z</time>
      </trkpt>
      <trkpt lat="46.547686" lon="10.228778">
        <ele>2233.709</ele>
        <time>2022-07-10T11:29:27Z</time>
      </trkpt>
      <trkpt lat="46.547679" lon="10.228750">
        <ele>2233.732</ele>
        <time>2022-07-10T11:29:28Z</time>
      </trkpt>
      <trkpt lat="46.547667" lon="10.228728">
        <ele>2233.761</ele>
        <time>2022-07-10T11:29:29Z</time>
      </trkpt>
      <trkpt lat="46.547663" lon="10.228709">
        <ele>2233.719</ele>
        <time>2022-07-10T11:29:30Z</time>
      </trkpt>
      <trkpt lat="46.547657" lon="10.228686">
        <ele>2233.711</ele>
        <time>2022-07-10T11:29:31Z</time>
      </trkpt>
      <trkpt lat="46.547625" lon="10.228337">
        <ele>2234.297</ele>
        <time>2022-07-10T11:29:44Z</time>
      </trkpt>
      <trkpt lat="46.547643" lon="10.227950">
        <ele>2236.141</ele>
        <time>2022-07-10T11:30:00Z</time>
      </trkpt>
      <trkpt lat="46.547704" lon="10.227530">
        <ele>2236.622</ele>
        <time>2022-07-10T11:30:16Z</time>
      </trkpt>
      <trkpt lat="46.547806" lon="10.227047">
        <ele>2233.760</ele>
        <time>2022-07-10T11:30:24Z</time>
      </trkpt>
      <trkpt lat="46.547898" lon="10.226581">
        <ele>2234.274</ele>
        <time>2022-07-10T11:30:35Z</time>
      </trkpt>
      <trkpt lat="46.547945" lon="10.226164">
        <ele>2235.661</ele>
        <time>2022-07-10T11:30:51Z</time>
      </trkpt>
      <trkpt lat="46.547898" lon="10.225807">
        <ele>2235.621</ele>
        <time>2022-07-10T11:31:04Z</time>
      </trkpt>
      <trkpt lat="46.547894" lon="10.225398">
        <ele>2237.113</ele>
        <time>2022-07-10T11:31:20Z</time>
      </trkpt>
      <trkpt lat="46.547854" lon="10.224955">
        <ele>2238.009</ele>
        <time>2022-07-10T11:31:36Z</time>
      </trkpt>
      <trkpt lat="46.547812" lon="10.224587">
        <ele>2239.037</ele>
        <time>2022-07-10T11:31:50Z</time>
      </trkpt>
      <trkpt lat="46.547840" lon="10.224010">
        <ele>2237.176</ele>
        <time>2022-07-10T11:32:03Z</time>
      </trkpt>
      <trkpt lat="46.547808" lon="10.223432">
        <ele>2236.694</ele>
        <time>2022-07-10T11:32:17Z</time>
      </trkpt>
      <trkpt lat="46.547848" lon="10.223086">
        <ele>2238.036</ele>
        <time>2022-07-10T11:32:28Z</time>
      </trkpt>
      <trkpt lat="46.547913" lon="10.222709">
        <ele>2239.062</ele>
        <time>2022-07-10T11:32:42Z</time>
      </trkpt>
      <trkpt lat="46.548016" lon="10.222263">
        <ele>2239.016</ele>
        <time>2022-07-10T11:32:56Z</time>
      </trkpt>
      <trkpt lat="46.548092" lon="10.221878">
        <ele>2240.457</ele>
        <time>2022-07-10T11:33:08Z</time>
      </trkpt>
      <trkpt lat="46.548173" lon="10.221586">
        <ele>2240.445</ele>
        <time>2022-07-10T11:33:19Z</time>
      </trkpt>
      <trkpt lat="46.548135" lon="10.221580">
        <ele>2240.439</ele>
        <time>2022-07-10T11:33:47Z</time>
      </trkpt>
      <trkpt lat="46.548176" lon="10.221600">
        <ele>2240.449</ele>
        <time>2022-07-10T11:34:19Z</time>
      </trkpt>
      <trkpt lat="46.548274" lon="10.221383">
        <ele>2239.002</ele>
        <time>2022-07-10T11:34:32Z</time>
      </trkpt>
      <trkpt lat="46.548492" lon="10.220885">
        <ele>2238.022</ele>
        <time>2022-07-10T11:34:45Z</time>
      </trkpt>
      <trkpt lat="46.548578" lon="10.220402">
        <ele>2238.009</ele>
        <time>2022-07-10T11:34:57Z</time>
      </trkpt>
      <trkpt lat="46.548688" lon="10.219867">
        <ele>2238.085</ele>
        <time>2022-07-10T11:35:11Z</time>
      </trkpt>
      <trkpt lat="46.548836" lon="10.219346">
        <ele>2239.074</ele>
        <time>2022-07-10T11:35:28Z</time>
      </trkpt>
      <trkpt lat="46.548782" lon="10.218964">
        <ele>2240.972</ele>
        <time>2022-07-10T11:35:43Z</time>
      </trkpt>
      <trkpt lat="46.548765" lon="10.218893">
        <ele>2240.944</ele>
        <time>2022-07-10T11:35:46Z</time>
      </trkpt>
      <trkpt lat="46.548757" lon="10.218881">
        <ele>2240.970</ele>
        <time>2022-07-10T11:35:47Z</time>
      </trkpt>
      <trkpt lat="46.548752" lon="10.218863">
        <ele>2241.414</ele>
        <time>2022-07-10T11:35:48Z</time>
      </trkpt>
      <trkpt lat="46.548748" lon="10.218845">
        <ele>2241.435</ele>
        <time>2022-07-10T11:35:49Z</time>
      </trkpt>
      <trkpt lat="46.548742" lon="10.218819">
        <ele>2241.413</ele>
        <time>2022-07-10T11:35:50Z</time>
      </trkpt>
      <trkpt lat="46.548732" lon="10.218803">
        <ele>2241.997</ele>
        <time>2022-07-10T11:35:51Z</time>
      </trkpt>
      <trkpt lat="46.548676" lon="10.218387">
        <ele>2242.431</ele>
        <time>2022-07-10T11:36:07Z</time>
      </trkpt>
      <trkpt lat="46.548618" lon="10.218074">
        <ele>2244.361</ele>
        <time>2022-07-10T11:36:23Z</time>
      </trkpt>
      <trkpt lat="46.548620" lon="10.218056">
        <ele>2244.807</ele>
        <time>2022-07-10T11:36:24Z</time>
      </trkpt>
      <trkpt lat="46.548623" lon="10.218038">
        <ele>2244.809</ele>
        <time>2022-07-10T11:36:25Z</time>
      </trkpt>
      <trkpt lat="46.548633" lon="10.218025">
        <ele>2244.874</ele>
        <time>2022-07-10T11:36:26Z</time>
      </trkpt>
      <trkpt lat="46.548642" lon="10.218007">
        <ele>2244.323</ele>
        <time>2022-07-10T11:36:27Z</time>
      </trkpt>
      <trkpt lat="46.548655" lon="10.217994">
        <ele>2244.831</ele>
        <time>2022-07-10T11:36:28Z</time>
      </trkpt>
      <trkpt lat="46.548662" lon="10.217978">
        <ele>2244.883</ele>
        <time>2022-07-10T11:36:29Z</time>
      </trkpt>
      <trkpt lat="46.548661" lon="10.217956">
        <ele>2244.829</ele>
        <time>2022-07-10T11:36:30Z</time>
      </trkpt>
      <trkpt lat="46.548664" lon="10.217940">
        <ele>2244.823</ele>
        <time>2022-07-10T11:36:31Z</time>
      </trkpt>
      <trkpt lat="46.548667" lon="10.217683">
        <ele>2245.374</ele>
        <time>2022-07-10T11:36:44Z</time>
      </trkpt>
      <trkpt lat="46.548668" lon="10.217665">
        <ele>2245.792</ele>
        <time>2022-07-10T11:36:45Z</time>
      </trkpt>
      <trkpt lat="46.548670" lon="10.217649">
        <ele>2245.726</ele>
        <time>2022-07-10T11:36:46Z</time>
      </trkpt>
      <trkpt lat="46.548670" lon="10.217632">
        <ele>2245.791</ele>
        <time>2022-07-10T11:36:47Z</time>
      </trkpt>
      <trkpt lat="46.548671" lon="10.217615">
        <ele>2245.781</ele>
        <time>2022-07-10T11:36:48Z</time>
      </trkpt>
      <trkpt lat="46.548736" lon="10.217274">
        <ele>2246.719</ele>
        <time>2022-07-10T11:37:05Z</time>
      </trkpt>
      <trkpt lat="46.548772" lon="10.216864">
        <ele>2248.609</ele>
        <time>2022-07-10T11:37:24Z</time>
      </trkpt>
      <trkpt lat="46.548807" lon="10.216501">
        <ele>2249.650</ele>
        <time>2022-07-10T11:37:41Z</time>
      </trkpt>
      <trkpt lat="46.548769" lon="10.216149">
        <ele>2250.139</ele>
        <time>2022-07-10T11:37:55Z</time>
      </trkpt>
      <trkpt lat="46.548771" lon="10.215679">
        <ele>2250.127</ele>
        <time>2022-07-10T11:38:09Z</time>
      </trkpt>
      <trkpt lat="46.548889" lon="10.215342">
        <ele>2251.019</ele>
        <time>2022-07-10T11:38:23Z</time>
      </trkpt>
      <trkpt lat="46.548937" lon="10.214927">
        <ele>2252.055</ele>
        <time>2022-07-10T11:38:37Z</time>
      </trkpt>
      <trkpt lat="46.549108" lon="10.214735">
        <ele>2252.529</ele>
        <time>2022-07-10T11:38:49Z</time>
      </trkpt>
      <trkpt lat="46.549238" lon="10.214412">
        <ele>2253.920</ele>
        <time>2022-07-10T11:39:06Z</time>
      </trkpt>
      <trkpt lat="46.549410" lon="10.214221">
        <ele>2255.318</ele>
        <time>2022-07-10T11:39:21Z</time>
      </trkpt>
      <trkpt lat="46.549532" lon="10.214178">
        <ele>2256.352</ele>
        <time>2022-07-10T11:39:30Z</time>
      </trkpt>
      <trkpt lat="46.549673" lon="10.213878">
        <ele>2257.747</ele>
        <time>2022-07-10T11:39:46Z</time>
      </trkpt>
      <trkpt lat="46.549805" lon="10.213608">
        <ele>2258.729</ele>
        <time>2022-07-10T11:40:01Z</time>
      </trkpt>
      <trkpt lat="46.549859" lon="10.213267">
        <ele>2259.721</ele>
        <time>2022-07-10T11:40:18Z</time>
      </trkpt>
      <trkpt lat="46.549875" lon="10.212957">
        <ele>2260.209</ele>
        <time>2022-07-10T11:40:32Z</time>
      </trkpt>
      <trkpt lat="46.549858" lon="10.212709">
        <ele>2262.165</ele>
        <time>2022-07-10T11:40:45Z</time>
      </trkpt>
      <trkpt lat="46.549855" lon="10.212693">
        <ele>2262.654</ele>
        <time>2022-07-10T11:40:46Z</time>
      </trkpt>
      <trkpt lat="46.549811" lon="10.212348">
        <ele>2262.622</ele>
        <time>2022-07-10T11:41:02Z</time>
      </trkpt>
      <trkpt lat="46.549822" lon="10.212033">
        <ele>2264.034</ele>
        <time>2022-07-10T11:41:14Z</time>
      </trkpt>
      <trkpt lat="46.549915" lon="10.211504">
        <ele>2262.630</ele>
        <time>2022-07-10T11:41:29Z</time>
      </trkpt>
      <trkpt lat="46.549983" lon="10.211451">
        <ele>2264.054</ele>
        <time>2022-07-10T11:41:33Z</time>
      </trkpt>
      <trkpt lat="46.549994" lon="10.211436">
        <ele>2264.025</ele>
        <time>2022-07-10T11:41:34Z</time>
      </trkpt>
      <trkpt lat="46.550002" lon="10.211420">
        <ele>2264.043</ele>
        <time>2022-07-10T11:41:35Z</time>
      </trkpt>
      <trkpt lat="46.550011" lon="10.211400">
        <ele>2264.567</ele>
        <time>2022-07-10T11:41:36Z</time>
      </trkpt>
      <trkpt lat="46.550014" lon="10.211369">
        <ele>2264.559</ele>
        <time>2022-07-10T11:41:37Z</time>
      </trkpt>
      <trkpt lat="46.550018" lon="10.211337">
        <ele>2264.503</ele>
        <time>2022-07-10T11:41:38Z</time>
      </trkpt>
      <trkpt lat="46.550023" lon="10.211301">
        <ele>2264.523</ele>
        <time>2022-07-10T11:41:39Z</time>
      </trkpt>
      <trkpt lat="46.550025" lon="10.211261">
        <ele>2264.509</ele>
        <time>2022-07-10T11:41:40Z</time>
      </trkpt>
      <trkpt lat="46.550028" lon="10.211228">
        <ele>2264.596</ele>
        <time>2022-07-10T11:41:41Z</time>
      </trkpt>
      <trkpt lat="46.550052" lon="10.210680">
        <ele>2264.535</ele>
        <time>2022-07-10T11:41:56Z</time>
      </trkpt>
      <trkpt lat="46.550171" lon="10.210236">
        <ele>2264.533</ele>
        <time>2022-07-10T11:42:09Z</time>
      </trkpt>
      <trkpt lat="46.550310" lon="10.209790">
        <ele>2266.975</ele>
        <time>2022-07-10T11:42:27Z</time>
      </trkpt>
      <trkpt lat="46.550430" lon="10.209401">
        <ele>2268.371</ele>
        <time>2022-07-10T11:42:44Z</time>
      </trkpt>
      <trkpt lat="46.550532" lon="10.209012">
        <ele>2270.225</ele>
        <time>2022-07-10T11:43:03Z</time>
      </trkpt>
      <trkpt lat="46.550612" lon="10.208673">
        <ele>2271.746</ele>
        <time>2022-07-10T11:43:20Z</time>
      </trkpt>
      <trkpt lat="46.550718" lon="10.208455">
        <ele>2273.614</ele>
        <time>2022-07-10T11:43:35Z</time>
      </trkpt>
      <trkpt lat="46.550735" lon="10.208260">
        <ele>2274.178</ele>
        <time>2022-07-10T11:43:45Z</time>
      </trkpt>
      <trkpt lat="46.550735" lon="10.208241">
        <ele>2274.154</ele>
        <time>2022-07-10T11:43:46Z</time>
      </trkpt>
      <trkpt lat="46.550742" lon="10.208221">
        <ele>2274.156</ele>
        <time>2022-07-10T11:43:47Z</time>
      </trkpt>
      <trkpt lat="46.550747" lon="10.208204">
        <ele>2274.111</ele>
        <time>2022-07-10T11:43:48Z</time>
      </trkpt>
      <trkpt lat="46.550754" lon="10.208187">
        <ele>2274.609</ele>
        <time>2022-07-10T11:43:49Z</time>
      </trkpt>
      <trkpt lat="46.550766" lon="10.208171">
        <ele>2274.656</ele>
        <time>2022-07-10T11:43:50Z</time>
      </trkpt>
      <trkpt lat="46.550777" lon="10.208153">
        <ele>2274.615</ele>
        <time>2022-07-10T11:43:51Z</time>
      </trkpt>
      <trkpt lat="46.550782" lon="10.208136">
        <ele>2274.613</ele>
        <time>2022-07-10T11:43:52Z</time>
      </trkpt>
      <trkpt lat="46.550790" lon="10.208119">
        <ele>2275.155</ele>
        <time>2022-07-10T11:43:53Z</time>
      </trkpt>
      <trkpt lat="46.550841" lon="10.207954">
        <ele>2277.521</ele>
        <time>2022-07-10T11:44:04Z</time>
      </trkpt>
      <trkpt lat="46.550838" lon="10.207915">
        <ele>2277.925</ele>
        <time>2022-07-10T11:44:07Z</time>
      </trkpt>
      <trkpt lat="46.550839" lon="10.207897">
        <ele>2277.926</ele>
        <time>2022-07-10T11:44:08Z</time>
      </trkpt>
      <trkpt lat="46.550844" lon="10.207875">
        <ele>2277.984</ele>
        <time>2022-07-10T11:44:09Z</time>
      </trkpt>
      <trkpt lat="46.550846" lon="10.207850">
        <ele>2277.998</ele>
        <time>2022-07-10T11:44:10Z</time>
      </trkpt>
      <trkpt lat="46.550851" lon="10.207826">
        <ele>2277.917</ele>
        <time>2022-07-10T11:44:11Z</time>
      </trkpt>
      <trkpt lat="46.550855" lon="10.207808">
        <ele>2277.987</ele>
        <time>2022-07-10T11:44:12Z</time>
      </trkpt>
      <trkpt lat="46.550854" lon="10.207784">
        <ele>2277.915</ele>
        <time>2022-07-10T11:44:13Z</time>
      </trkpt>
      <trkpt lat="46.550849" lon="10.207768">
        <ele>2277.909</ele>
        <time>2022-07-10T11:44:14Z</time>
      </trkpt>
      <trkpt lat="46.550845" lon="10.207747">
        <ele>2277.942</ele>
        <time>2022-07-10T11:44:15Z</time>
      </trkpt>
      <trkpt lat="46.550911" lon="10.207471">
        <ele>2279.971</ele>
        <time>2022-07-10T11:44:31Z</time>
      </trkpt>
      <trkpt lat="46.550999" lon="10.207199">
        <ele>2280.879</ele>
        <time>2022-07-10T11:44:48Z</time>
      </trkpt>
      <trkpt lat="46.551109" lon="10.206940">
        <ele>2282.771</ele>
        <time>2022-07-10T11:45:06Z</time>
      </trkpt>
      <trkpt lat="46.551214" lon="10.206738">
        <ele>2284.727</ele>
        <time>2022-07-10T11:45:22Z</time>
      </trkpt>
      <trkpt lat="46.551214" lon="10.206714">
        <ele>2284.721</ele>
        <time>2022-07-10T11:45:23Z</time>
      </trkpt>
      <trkpt lat="46.551220" lon="10.206694">
        <ele>2285.132</ele>
        <time>2022-07-10T11:45:24Z</time>
      </trkpt>
      <trkpt lat="46.551228" lon="10.206677">
        <ele>2285.160</ele>
        <time>2022-07-10T11:45:25Z</time>
      </trkpt>
      <trkpt lat="46.551235" lon="10.206658">
        <ele>2285.114</ele>
        <time>2022-07-10T11:45:26Z</time>
      </trkpt>
      <trkpt lat="46.551237" lon="10.206641">
        <ele>2285.166</ele>
        <time>2022-07-10T11:45:27Z</time>
      </trkpt>
      <trkpt lat="46.551242" lon="10.206629">
        <ele>2285.629</ele>
        <time>2022-07-10T11:45:28Z</time>
      </trkpt>
      <trkpt lat="46.551249" lon="10.206618">
        <ele>2285.621</ele>
        <time>2022-07-10T11:45:29Z</time>
      </trkpt>
      <trkpt lat="46.551258" lon="10.206604">
        <ele>2285.609</ele>
        <time>2022-07-10T11:45:30Z</time>
      </trkpt>
      <trkpt lat="46.551395" lon="10.206316">
        <ele>2286.657</ele>
        <time>2022-07-10T11:45:46Z</time>
      </trkpt>
      <trkpt lat="46.551519" lon="10.206023">
        <ele>2287.576</ele>
        <time>2022-07-10T11:46:00Z</time>
      </trkpt>
      <trkpt lat="46.551662" lon="10.205687">
        <ele>2289.034</ele>
        <time>2022-07-10T11:46:18Z</time>
      </trkpt>
      <trkpt lat="46.551790" lon="10.205378">
        <ele>2289.016</ele>
        <time>2022-07-10T11:46:34Z</time>
      </trkpt>
      <trkpt lat="46.551897" lon="10.204962">
        <ele>2289.562</ele>
        <time>2022-07-10T11:46:49Z</time>
      </trkpt>
      <trkpt lat="46.551859" lon="10.204757">
        <ele>2289.586</ele>
        <time>2022-07-10T11:46:58Z</time>
      </trkpt>
      <trkpt lat="46.551849" lon="10.204681">
        <ele>2247.767</ele>
        <time>2022-07-10T11:51:27Z</time>
      </trkpt>
      <trkpt lat="46.551855" lon="10.204686">
        <ele>2249.685</ele>
        <time>2022-07-10T11:51:28Z</time>
      </trkpt>
      <trkpt lat="46.551898" lon="10.204707">
        <ele>2255.359</ele>
        <time>2022-07-10T11:51:31Z</time>
      </trkpt>
      <trkpt lat="46.551933" lon="10.204730">
        <ele>2256.886</ele>
        <time>2022-07-10T11:51:33Z</time>
      </trkpt>
      <trkpt lat="46.551951" lon="10.204723">
        <ele>2257.360</ele>
        <time>2022-07-10T11:51:34Z</time>
      </trkpt>
      <trkpt lat="46.551967" lon="10.204698">
        <ele>2258.726</ele>
        <time>2022-07-10T11:51:35Z</time>
      </trkpt>
      <trkpt lat="46.551973" lon="10.204662">
        <ele>2259.709</ele>
        <time>2022-07-10T11:51:36Z</time>
      </trkpt>
      <trkpt lat="46.551968" lon="10.204628">
        <ele>2258.719</ele>
        <time>2022-07-10T11:51:37Z</time>
      </trkpt>
      <trkpt lat="46.551954" lon="10.204586">
        <ele>2259.748</ele>
        <time>2022-07-10T11:51:38Z</time>
      </trkpt>
      <trkpt lat="46.551931" lon="10.204545">
        <ele>2261.686</ele>
        <time>2022-07-10T11:51:39Z</time>
      </trkpt>
      <trkpt lat="46.551911" lon="10.204504">
        <ele>2261.658</ele>
        <time>2022-07-10T11:51:40Z</time>
      </trkpt>
      <trkpt lat="46.551891" lon="10.204451">
        <ele>2262.144</ele>
        <time>2022-07-10T11:51:41Z</time>
      </trkpt>
      <trkpt lat="46.551877" lon="10.204401">
        <ele>2262.618</ele>
        <time>2022-07-10T11:51:42Z</time>
      </trkpt>
      <trkpt lat="46.551868" lon="10.204346">
        <ele>2262.629</ele>
        <time>2022-07-10T11:51:43Z</time>
      </trkpt>
      <trkpt lat="46.551861" lon="10.204294">
        <ele>2263.597</ele>
        <time>2022-07-10T11:51:44Z</time>
      </trkpt>
      <trkpt lat="46.551860" lon="10.204241">
        <ele>2263.521</ele>
        <time>2022-07-10T11:51:45Z</time>
      </trkpt>
      <trkpt lat="46.551865" lon="10.204183">
        <ele>2264.088</ele>
        <time>2022-07-10T11:51:46Z</time>
      </trkpt>
      <trkpt lat="46.551873" lon="10.204122">
        <ele>2264.024</ele>
        <time>2022-07-10T11:51:47Z</time>
      </trkpt>
      <trkpt lat="46.551887" lon="10.204061">
        <ele>2265.026</ele>
        <time>2022-07-10T11:51:48Z</time>
      </trkpt>
      <trkpt lat="46.551957" lon="10.203371">
        <ele>2264.509</ele>
        <time>2022-07-10T11:51:59Z</time>
      </trkpt>
      <trkpt lat="46.551953" lon="10.203228">
        <ele>2265.099</ele>
        <time>2022-07-10T11:52:01Z</time>
      </trkpt>
      <trkpt lat="46.551959" lon="10.203160">
        <ele>2265.468</ele>
        <time>2022-07-10T11:52:02Z</time>
      </trkpt>
      <trkpt lat="46.551991" lon="10.202637">
        <ele>2263.596</ele>
        <time>2022-07-10T11:52:11Z</time>
      </trkpt>
      <trkpt lat="46.552063" lon="10.201822">
        <ele>2262.128</ele>
        <time>2022-07-10T11:52:22Z</time>
      </trkpt>
      <trkpt lat="46.552048" lon="10.201502">
        <ele>2262.664</ele>
        <time>2022-07-10T11:52:33Z</time>
      </trkpt>
      <trkpt lat="46.552044" lon="10.201281">
        <ele>2261.678</ele>
        <time>2022-07-10T11:52:39Z</time>
      </trkpt>
      <trkpt lat="46.551923" lon="10.201085">
        <ele>2259.269</ele>
        <time>2022-07-10T11:52:44Z</time>
      </trkpt>
      <trkpt lat="46.551894" lon="10.201040">
        <ele>2258.717</ele>
        <time>2022-07-10T11:52:45Z</time>
      </trkpt>
      <trkpt lat="46.551869" lon="10.200991">
        <ele>2258.721</ele>
        <time>2022-07-10T11:52:46Z</time>
      </trkpt>
      <trkpt lat="46.551851" lon="10.200942">
        <ele>2258.225</ele>
        <time>2022-07-10T11:52:47Z</time>
      </trkpt>
      <trkpt lat="46.551836" lon="10.200890">
        <ele>2258.226</ele>
        <time>2022-07-10T11:52:48Z</time>
      </trkpt>
      <trkpt lat="46.551827" lon="10.200830">
        <ele>2258.208</ele>
        <time>2022-07-10T11:52:49Z</time>
      </trkpt>
      <trkpt lat="46.551822" lon="10.200759">
        <ele>2257.309</ele>
        <time>2022-07-10T11:52:50Z</time>
      </trkpt>
      <trkpt lat="46.551815" lon="10.200679">
        <ele>2255.853</ele>
        <time>2022-07-10T11:52:51Z</time>
      </trkpt>
      <trkpt lat="46.551802" lon="10.200598">
        <ele>2255.852</ele>
        <time>2022-07-10T11:52:52Z</time>
      </trkpt>
      <trkpt lat="46.551782" lon="10.200445">
        <ele>2254.440</ele>
        <time>2022-07-10T11:52:54Z</time>
      </trkpt>
      <trkpt lat="46.551794" lon="10.200373">
        <ele>2254.982</ele>
        <time>2022-07-10T11:52:55Z</time>
      </trkpt>
      <trkpt lat="46.551822" lon="10.200312">
        <ele>2254.948</ele>
        <time>2022-07-10T11:52:56Z</time>
      </trkpt>
      <trkpt lat="46.551885" lon="10.200207">
        <ele>2254.912</ele>
        <time>2022-07-10T11:52:58Z</time>
      </trkpt>
      <trkpt lat="46.552216" lon="10.199509">
        <ele>2252.913</ele>
        <time>2022-07-10T11:53:13Z</time>
      </trkpt>
      <trkpt lat="46.552163" lon="10.199268">
        <ele>2249.661</ele>
        <time>2022-07-10T11:53:21Z</time>
      </trkpt>
      <trkpt lat="46.552157" lon="10.199215">
        <ele>2249.645</ele>
        <time>2022-07-10T11:53:22Z</time>
      </trkpt>
      <trkpt lat="46.552224" lon="10.198928">
        <ele>2246.298</ele>
        <time>2022-07-10T11:53:28Z</time>
      </trkpt>
      <trkpt lat="46.552232" lon="10.198814">
        <ele>2244.815</ele>
        <time>2022-07-10T11:53:30Z</time>
      </trkpt>
      <trkpt lat="46.552230" lon="10.198756">
        <ele>2244.826</ele>
        <time>2022-07-10T11:53:31Z</time>
      </trkpt>
      <trkpt lat="46.552223" lon="10.198429">
        <ele>2241.409</ele>
        <time>2022-07-10T11:53:37Z</time>
      </trkpt>
      <trkpt lat="46.552174" lon="10.198005">
        <ele>2238.010</ele>
        <time>2022-07-10T11:53:45Z</time>
      </trkpt>
      <trkpt lat="46.552121" lon="10.197591">
        <ele>2233.779</ele>
        <time>2022-07-10T11:53:51Z</time>
      </trkpt>
      <trkpt lat="46.552102" lon="10.197467">
        <ele>2233.247</ele>
        <time>2022-07-10T11:53:53Z</time>
      </trkpt>
      <trkpt lat="46.552101" lon="10.197414">
        <ele>2232.879</ele>
        <time>2022-07-10T11:53:54Z</time>
      </trkpt>
      <trkpt lat="46.552105" lon="10.197366">
        <ele>2232.875</ele>
        <time>2022-07-10T11:53:55Z</time>
      </trkpt>
      <trkpt lat="46.552113" lon="10.197321">
        <ele>2232.389</ele>
        <time>2022-07-10T11:53:56Z</time>
      </trkpt>
      <trkpt lat="46.552121" lon="10.197274">
        <ele>2231.350</ele>
        <time>2022-07-10T11:53:57Z</time>
      </trkpt>
      <trkpt lat="46.552129" lon="10.197229">
        <ele>2230.898</ele>
        <time>2022-07-10T11:53:58Z</time>
      </trkpt>
      <trkpt lat="46.552132" lon="10.197179">
        <ele>2230.862</ele>
        <time>2022-07-10T11:53:59Z</time>
      </trkpt>
      <trkpt lat="46.552131" lon="10.197128">
        <ele>2229.943</ele>
        <time>2022-07-10T11:54:00Z</time>
      </trkpt>
      <trkpt lat="46.552127" lon="10.197078">
        <ele>2229.464</ele>
        <time>2022-07-10T11:54:01Z</time>
      </trkpt>
      <trkpt lat="46.552210" lon="10.196614">
        <ele>2226.010</ele>
        <time>2022-07-10T11:54:14Z</time>
      </trkpt>
      <trkpt lat="46.552355" lon="10.196318">
        <ele>2223.109</ele>
        <time>2022-07-10T11:54:25Z</time>
      </trkpt>
      <trkpt lat="46.552365" lon="10.196311">
        <ele>2223.195</ele>
        <time>2022-07-10T11:54:26Z</time>
      </trkpt>
      <trkpt lat="46.552453" lon="10.196073">
        <ele>2219.894</ele>
        <time>2022-07-10T11:54:34Z</time>
      </trkpt>
      <trkpt lat="46.552514" lon="10.195971">
        <ele>2218.322</ele>
        <time>2022-07-10T11:54:37Z</time>
      </trkpt>
      <trkpt lat="46.552568" lon="10.195855">
        <ele>2216.934</ele>
        <time>2022-07-10T11:54:40Z</time>
      </trkpt>
      <trkpt lat="46.552667" lon="10.195533">
        <ele>2213.540</ele>
        <time>2022-07-10T11:54:47Z</time>
      </trkpt>
      <trkpt lat="46.552698" lon="10.195356">
        <ele>2211.174</ele>
        <time>2022-07-10T11:54:51Z</time>
      </trkpt>
      <trkpt lat="46.552716" lon="10.195095">
        <ele>2208.285</ele>
        <time>2022-07-10T11:54:56Z</time>
      </trkpt>
      <trkpt lat="46.552731" lon="10.194742">
        <ele>2205.443</ele>
        <time>2022-07-10T11:55:03Z</time>
      </trkpt>
      <trkpt lat="46.552761" lon="10.194516">
        <ele>2203.427</ele>
        <time>2022-07-10T11:55:07Z</time>
      </trkpt>
      <trkpt lat="46.552823" lon="10.194178">
        <ele>2200.183</ele>
        <time>2022-07-10T11:55:13Z</time>
      </trkpt>
      <trkpt lat="46.552868" lon="10.193650">
        <ele>2196.725</ele>
        <time>2022-07-10T11:55:21Z</time>
      </trkpt>
      <trkpt lat="46.552926" lon="10.193179">
        <ele>2195.317</ele>
        <time>2022-07-10T11:55:28Z</time>
      </trkpt>
      <trkpt lat="46.552985" lon="10.192613">
        <ele>2192.409</ele>
        <time>2022-07-10T11:55:37Z</time>
      </trkpt>
      <trkpt lat="46.552977" lon="10.192552">
        <ele>2191.979</ele>
        <time>2022-07-10T11:55:38Z</time>
      </trkpt>
      <trkpt lat="46.552964" lon="10.192499">
        <ele>2191.418</ele>
        <time>2022-07-10T11:55:39Z</time>
      </trkpt>
      <trkpt lat="46.552944" lon="10.192444">
        <ele>2191.486</ele>
        <time>2022-07-10T11:55:40Z</time>
      </trkpt>
      <trkpt lat="46.552925" lon="10.192397">
        <ele>2190.578</ele>
        <time>2022-07-10T11:55:41Z</time>
      </trkpt>
      <trkpt lat="46.552886" lon="10.192298">
        <ele>2190.074</ele>
        <time>2022-07-10T11:55:43Z</time>
      </trkpt>
      <trkpt lat="46.552790" lon="10.191919">
        <ele>2186.618</ele>
        <time>2022-07-10T11:55:51Z</time>
      </trkpt>
      <trkpt lat="46.552782" lon="10.191516">
        <ele>2183.729</ele>
        <time>2022-07-10T11:56:00Z</time>
      </trkpt>
      <trkpt lat="46.552760" lon="10.191344">
        <ele>2181.327</ele>
        <time>2022-07-10T11:56:04Z</time>
      </trkpt>
      <trkpt lat="46.552768" lon="10.191304">
        <ele>2180.461</ele>
        <time>2022-07-10T11:56:05Z</time>
      </trkpt>
      <trkpt lat="46.552775" lon="10.191263">
        <ele>2180.411</ele>
        <time>2022-07-10T11:56:06Z</time>
      </trkpt>
      <trkpt lat="46.552811" lon="10.191047">
        <ele>2177.521</ele>
        <time>2022-07-10T11:56:11Z</time>
      </trkpt>
      <trkpt lat="46.552828" lon="10.190820">
        <ele>2173.603</ele>
        <time>2022-07-10T11:56:16Z</time>
      </trkpt>
      <trkpt lat="46.552875" lon="10.190606">
        <ele>2170.709</ele>
        <time>2022-07-10T11:56:21Z</time>
      </trkpt>
      <trkpt lat="46.552922" lon="10.190428">
        <ele>2167.432</ele>
        <time>2022-07-10T11:56:25Z</time>
      </trkpt>
      <trkpt lat="46.552934" lon="10.190381">
        <ele>2167.441</ele>
        <time>2022-07-10T11:56:26Z</time>
      </trkpt>
      <trkpt lat="46.552994" lon="10.190208">
        <ele>2165.089</ele>
        <time>2022-07-10T11:56:30Z</time>
      </trkpt>
      <trkpt lat="46.553063" lon="10.189955">
        <ele>2161.161</ele>
        <time>2022-07-10T11:56:36Z</time>
      </trkpt>
      <trkpt lat="46.553059" lon="10.189822">
        <ele>2159.757</ele>
        <time>2022-07-10T11:56:39Z</time>
      </trkpt>
      <trkpt lat="46.553079" lon="10.189553">
        <ele>2156.341</ele>
        <time>2022-07-10T11:56:44Z</time>
      </trkpt>
      <trkpt lat="46.553133" lon="10.189263">
        <ele>2152.542</ele>
        <time>2022-07-10T11:56:50Z</time>
      </trkpt>
      <trkpt lat="46.553154" lon="10.189109">
        <ele>2151.560</ele>
        <time>2022-07-10T11:56:53Z</time>
      </trkpt>
      <trkpt lat="46.553174" lon="10.188952">
        <ele>2149.194</ele>
        <time>2022-07-10T11:56:56Z</time>
      </trkpt>
      <trkpt lat="46.553258" lon="10.188715">
        <ele>2145.871</ele>
        <time>2022-07-10T11:57:01Z</time>
      </trkpt>
      <trkpt lat="46.553352" lon="10.188493">
        <ele>2143.441</ele>
        <time>2022-07-10T11:57:06Z</time>
      </trkpt>
      <trkpt lat="46.553454" lon="10.188260">
        <ele>2139.515</ele>
        <time>2022-07-10T11:57:11Z</time>
      </trkpt>
      <trkpt lat="46.553469" lon="10.188215">
        <ele>2139.509</ele>
        <time>2022-07-10T11:57:12Z</time>
      </trkpt>
      <trkpt lat="46.553506" lon="10.188007">
        <ele>2136.188</ele>
        <time>2022-07-10T11:57:17Z</time>
      </trkpt>
      <trkpt lat="46.553509" lon="10.187914">
        <ele>2135.217</ele>
        <time>2022-07-10T11:57:19Z</time>
      </trkpt>
      <trkpt lat="46.553496" lon="10.187874">
        <ele>2134.795</ele>
        <time>2022-07-10T11:57:20Z</time>
      </trkpt>
      <trkpt lat="46.553454" lon="10.187754">
        <ele>2133.377</ele>
        <time>2022-07-10T11:57:23Z</time>
      </trkpt>
      <trkpt lat="46.553433" lon="10.187620">
        <ele>2131.333</ele>
        <time>2022-07-10T11:57:26Z</time>
      </trkpt>
      <trkpt lat="46.553413" lon="10.187408">
        <ele>2128.087</ele>
        <time>2022-07-10T11:57:30Z</time>
      </trkpt>
      <trkpt lat="46.553412" lon="10.187305">
        <ele>2127.048</ele>
        <time>2022-07-10T11:57:32Z</time>
      </trkpt>
      <trkpt lat="46.553402" lon="10.187102">
        <ele>2124.656</ele>
        <time>2022-07-10T11:57:36Z</time>
      </trkpt>
      <trkpt lat="46.553396" lon="10.187003">
        <ele>2123.220</ele>
        <time>2022-07-10T11:57:38Z</time>
      </trkpt>
      <trkpt lat="46.553456" lon="10.186764">
        <ele>2119.314</ele>
        <time>2022-07-10T11:57:43Z</time>
      </trkpt>
      <trkpt lat="46.553492" lon="10.186678">
        <ele>2118.454</ele>
        <time>2022-07-10T11:57:45Z</time>
      </trkpt>
      <trkpt lat="46.553570" lon="10.186491">
        <ele>2115.009</ele>
        <time>2022-07-10T11:57:49Z</time>
      </trkpt>
      <trkpt lat="46.553587" lon="10.186453">
        <ele>2115.009</ele>
        <time>2022-07-10T11:57:50Z</time>
      </trkpt>
      <trkpt lat="46.553701" lon="10.186247">
        <ele>2111.162</ele>
        <time>2022-07-10T11:57:56Z</time>
      </trkpt>
      <trkpt lat="46.553778" lon="10.186118">
        <ele>2109.231</ele>
        <time>2022-07-10T11:58:00Z</time>
      </trkpt>
      <trkpt lat="46.553815" lon="10.186044">
        <ele>2107.859</ele>
        <time>2022-07-10T11:58:02Z</time>
      </trkpt>
      <trkpt lat="46.553876" lon="10.185923">
        <ele>2104.421</ele>
        <time>2022-07-10T11:58:06Z</time>
      </trkpt>
      <trkpt lat="46.553954" lon="10.185760">
        <ele>2102.027</ele>
        <time>2022-07-10T11:58:11Z</time>
      </trkpt>
      <trkpt lat="46.554050" lon="10.185563">
        <ele>2098.721</ele>
        <time>2022-07-10T11:58:17Z</time>
      </trkpt>
      <trkpt lat="46.554128" lon="10.185414">
        <ele>2095.882</ele>
        <time>2022-07-10T11:58:23Z</time>
      </trkpt>
      <trkpt lat="46.554147" lon="10.185398">
        <ele>2095.380</ele>
        <time>2022-07-10T11:58:37Z</time>
      </trkpt>
      <trkpt lat="46.554160" lon="10.185379">
        <ele>2096.254</ele>
        <time>2022-07-10T11:58:57Z</time>
      </trkpt>
      <trkpt lat="46.554158" lon="10.185376">
        <ele>2095.337</ele>
        <time>2022-07-10T11:58:59Z</time>
      </trkpt>
      <trkpt lat="46.554151" lon="10.185365">
        <ele>2095.349</ele>
        <time>2022-07-10T11:59:23Z</time>
      </trkpt>
      <trkpt lat="46.554187" lon="10.185383">
        <ele>2095.313</ele>
        <time>2022-07-10T11:59:51Z</time>
      </trkpt>
      <trkpt lat="46.554182" lon="10.185346">
        <ele>2095.309</ele>
        <time>2022-07-10T11:59:56Z</time>
      </trkpt>
      <trkpt lat="46.554181" lon="10.185316">
        <ele>2095.364</ele>
        <time>2022-07-10T11:59:57Z</time>
      </trkpt>
      <trkpt lat="46.554201" lon="10.185063">
        <ele>2091.943</ele>
        <time>2022-07-10T12:00:02Z</time>
      </trkpt>
      <trkpt lat="46.554213" lon="10.184842">
        <ele>2089.031</ele>
        <time>2022-07-10T12:00:06Z</time>
      </trkpt>
      <trkpt lat="46.554227" lon="10.184729">
        <ele>2087.643</ele>
        <time>2022-07-10T12:00:08Z</time>
      </trkpt>
      <trkpt lat="46.554272" lon="10.184522">
        <ele>2084.749</ele>
        <time>2022-07-10T12:00:12Z</time>
      </trkpt>
      <trkpt lat="46.554283" lon="10.184256">
        <ele>2080.963</ele>
        <time>2022-07-10T12:00:17Z</time>
      </trkpt>
      <trkpt lat="46.554282" lon="10.184195">
        <ele>2080.424</ele>
        <time>2022-07-10T12:00:18Z</time>
      </trkpt>
      <trkpt lat="46.554288" lon="10.184134">
        <ele>2078.922</ele>
        <time>2022-07-10T12:00:19Z</time>
      </trkpt>
      <trkpt lat="46.554305" lon="10.184077">
        <ele>2078.926</ele>
        <time>2022-07-10T12:00:20Z</time>
      </trkpt>
      <trkpt lat="46.554326" lon="10.184031">
        <ele>2078.066</ele>
        <time>2022-07-10T12:00:21Z</time>
      </trkpt>
      <trkpt lat="46.554348" lon="10.183989">
        <ele>2078.029</ele>
        <time>2022-07-10T12:00:22Z</time>
      </trkpt>
      <trkpt lat="46.554431" lon="10.183748">
        <ele>2074.621</ele>
        <time>2022-07-10T12:00:27Z</time>
      </trkpt>
      <trkpt lat="46.554476" lon="10.183668">
        <ele>2073.709</ele>
        <time>2022-07-10T12:00:29Z</time>
      </trkpt>
      <trkpt lat="46.554597" lon="10.183538">
        <ele>2070.337</ele>
        <time>2022-07-10T12:00:33Z</time>
      </trkpt>
      <trkpt lat="46.554705" lon="10.183351">
        <ele>2066.976</ele>
        <time>2022-07-10T12:00:38Z</time>
      </trkpt>
      <trkpt lat="46.554745" lon="10.183233">
        <ele>2065.514</ele>
        <time>2022-07-10T12:00:41Z</time>
      </trkpt>
      <trkpt lat="46.554764" lon="10.183153">
        <ele>2064.536</ele>
        <time>2022-07-10T12:00:43Z</time>
      </trkpt>
      <trkpt lat="46.554787" lon="10.183040">
        <ele>2062.612</ele>
        <time>2022-07-10T12:00:46Z</time>
      </trkpt>
      <trkpt lat="46.554774" lon="10.182917">
        <ele>2060.296</ele>
        <time>2022-07-10T12:00:49Z</time>
      </trkpt>
      <trkpt lat="46.554774" lon="10.182871">
        <ele>2059.257</ele>
        <time>2022-07-10T12:00:50Z</time>
      </trkpt>
      <trkpt lat="46.554771" lon="10.182661">
        <ele>2056.415</ele>
        <time>2022-07-10T12:00:54Z</time>
      </trkpt>
      <trkpt lat="46.554774" lon="10.182611">
        <ele>2056.449</ele>
        <time>2022-07-10T12:00:55Z</time>
      </trkpt>
      <trkpt lat="46.554787" lon="10.182377">
        <ele>2052.594</ele>
        <time>2022-07-10T12:01:00Z</time>
      </trkpt>
      <trkpt lat="46.554773" lon="10.182105">
        <ele>2049.157</ele>
        <time>2022-07-10T12:01:05Z</time>
      </trkpt>
      <trkpt lat="46.554825" lon="10.181847">
        <ele>2046.322</ele>
        <time>2022-07-10T12:01:08Z</time>
      </trkpt>
      <trkpt lat="46.554886" lon="10.181576">
        <ele>2041.909</ele>
        <time>2022-07-10T12:01:13Z</time>
      </trkpt>
      <trkpt lat="46.554877" lon="10.181226">
        <ele>2038.610</ele>
        <time>2022-07-10T12:01:20Z</time>
      </trkpt>
      <trkpt lat="46.554891" lon="10.181147">
        <ele>2038.129</ele>
        <time>2022-07-10T12:01:22Z</time>
      </trkpt>
      <trkpt lat="46.554905" lon="10.181130">
        <ele>2037.617</ele>
        <time>2022-07-10T12:01:23Z</time>
      </trkpt>
      <trkpt lat="46.554918" lon="10.181129">
        <ele>2037.179</ele>
        <time>2022-07-10T12:01:24Z</time>
      </trkpt>
      <trkpt lat="46.554901" lon="10.181138">
        <ele>2036.655</ele>
        <time>2022-07-10T12:01:37Z</time>
      </trkpt>
      <trkpt lat="46.554911" lon="10.181168">
        <ele>2036.289</ele>
        <time>2022-07-10T12:01:41Z</time>
      </trkpt>
      <trkpt lat="46.554913" lon="10.181197">
        <ele>2036.260</ele>
        <time>2022-07-10T12:01:42Z</time>
      </trkpt>
      <trkpt lat="46.554914" lon="10.181234">
        <ele>2036.278</ele>
        <time>2022-07-10T12:01:43Z</time>
      </trkpt>
      <trkpt lat="46.554958" lon="10.181714">
        <ele>2032.882</ele>
        <time>2022-07-10T12:01:52Z</time>
      </trkpt>
      <trkpt lat="46.554963" lon="10.181777">
        <ele>2032.874</ele>
        <time>2022-07-10T12:01:53Z</time>
      </trkpt>
      <trkpt lat="46.555078" lon="10.182655">
        <ele>2029.056</ele>
        <time>2022-07-10T12:02:04Z</time>
      </trkpt>
      <trkpt lat="46.555113" lon="10.182797">
        <ele>2029.021</ele>
        <time>2022-07-10T12:02:06Z</time>
      </trkpt>
      <trkpt lat="46.555158" lon="10.182920">
        <ele>2028.509</ele>
        <time>2022-07-10T12:02:08Z</time>
      </trkpt>
      <trkpt lat="46.555283" lon="10.183276">
        <ele>2025.678</ele>
        <time>2022-07-10T12:02:16Z</time>
      </trkpt>
      <trkpt lat="46.555295" lon="10.183287">
        <ele>2025.657</ele>
        <time>2022-07-10T12:02:17Z</time>
      </trkpt>
      <trkpt lat="46.555306" lon="10.183274">
        <ele>2025.615</ele>
        <time>2022-07-10T12:02:18Z</time>
      </trkpt>
      <trkpt lat="46.555307" lon="10.183246">
        <ele>2025.687</ele>
        <time>2022-07-10T12:02:19Z</time>
      </trkpt>
      <trkpt lat="46.555298" lon="10.183209">
        <ele>2024.693</ele>
        <time>2022-07-10T12:02:20Z</time>
      </trkpt>
      <trkpt lat="46.555285" lon="10.183159">
        <ele>2024.617</ele>
        <time>2022-07-10T12:02:21Z</time>
      </trkpt>
      <trkpt lat="46.555270" lon="10.183114">
        <ele>2024.638</ele>
        <time>2022-07-10T12:02:22Z</time>
      </trkpt>
      <trkpt lat="46.555196" lon="10.182582">
        <ele>2021.736</ele>
        <time>2022-07-10T12:02:32Z</time>
      </trkpt>
      <trkpt lat="46.555192" lon="10.182465">
        <ele>2020.370</ele>
        <time>2022-07-10T12:02:34Z</time>
      </trkpt>
      <trkpt lat="46.555191" lon="10.182400">
        <ele>2018.914</ele>
        <time>2022-07-10T12:02:35Z</time>
      </trkpt>
      <trkpt lat="46.555193" lon="10.182338">
        <ele>2018.954</ele>
        <time>2022-07-10T12:02:36Z</time>
      </trkpt>
      <trkpt lat="46.555198" lon="10.182280">
        <ele>2017.909</ele>
        <time>2022-07-10T12:02:37Z</time>
      </trkpt>
      <trkpt lat="46.555202" lon="10.182227">
        <ele>2017.909</ele>
        <time>2022-07-10T12:02:38Z</time>
      </trkpt>
      <trkpt lat="46.555205" lon="10.182177">
        <ele>2016.942</ele>
        <time>2022-07-10T12:02:39Z</time>
      </trkpt>
      <trkpt lat="46.555208" lon="10.182119">
        <ele>2016.081</ele>
        <time>2022-07-10T12:02:40Z</time>
      </trkpt>
      <trkpt lat="46.555212" lon="10.182058">
        <ele>2015.519</ele>
        <time>2022-07-10T12:02:41Z</time>
      </trkpt>
      <trkpt lat="46.555234" lon="10.181784">
        <ele>2012.661</ele>
        <time>2022-07-10T12:02:46Z</time>
      </trkpt>
      <trkpt lat="46.555255" lon="10.181555">
        <ele>2009.227</ele>
        <time>2022-07-10T12:02:50Z</time>
      </trkpt>
      <trkpt lat="46.555277" lon="10.181300">
        <ele>2006.481</ele>
        <time>2022-07-10T12:02:55Z</time>
      </trkpt>
      <trkpt lat="46.555294" lon="10.181163">
        <ele>2004.472</ele>
        <time>2022-07-10T12:02:58Z</time>
      </trkpt>
      <trkpt lat="46.555321" lon="10.180966">
        <ele>2001.110</ele>
        <time>2022-07-10T12:03:02Z</time>
      </trkpt>
      <trkpt lat="46.555361" lon="10.180733">
        <ele>1997.754</ele>
        <time>2022-07-10T12:03:07Z</time>
      </trkpt>
      <trkpt lat="46.555396" lon="10.180546">
        <ele>1996.361</ele>
        <time>2022-07-10T12:03:11Z</time>
      </trkpt>
      <trkpt lat="46.555471" lon="10.180293">
        <ele>1992.921</ele>
        <time>2022-07-10T12:03:16Z</time>
      </trkpt>
      <trkpt lat="46.555516" lon="10.180131">
        <ele>1991.513</ele>
        <time>2022-07-10T12:03:19Z</time>
      </trkpt>
      <trkpt lat="46.555546" lon="10.180009">
        <ele>1990.009</ele>
        <time>2022-07-10T12:03:21Z</time>
      </trkpt>
      <trkpt lat="46.555559" lon="10.179948">
        <ele>1990.097</ele>
        <time>2022-07-10T12:03:22Z</time>
      </trkpt>
      <trkpt lat="46.555567" lon="10.179891">
        <ele>1988.666</ele>
        <time>2022-07-10T12:03:23Z</time>
      </trkpt>
      <trkpt lat="46.555582" lon="10.179717">
        <ele>1987.114</ele>
        <time>2022-07-10T12:03:26Z</time>
      </trkpt>
      <trkpt lat="46.555593" lon="10.179655">
        <ele>1987.166</ele>
        <time>2022-07-10T12:03:27Z</time>
      </trkpt>
      <trkpt lat="46.555608" lon="10.179609">
        <ele>1986.252</ele>
        <time>2022-07-10T12:03:28Z</time>
      </trkpt>
      <trkpt lat="46.555621" lon="10.179573">
        <ele>1986.276</ele>
        <time>2022-07-10T12:03:29Z</time>
      </trkpt>
      <trkpt lat="46.555627" lon="10.179536">
        <ele>1986.257</ele>
        <time>2022-07-10T12:03:30Z</time>
      </trkpt>
      <trkpt lat="46.555628" lon="10.179498">
        <ele>1986.215</ele>
        <time>2022-07-10T12:03:31Z</time>
      </trkpt>
      <trkpt lat="46.555617" lon="10.179312">
        <ele>1984.329</ele>
        <time>2022-07-10T12:03:36Z</time>
      </trkpt>
      <trkpt lat="46.555609" lon="10.179079">
        <ele>1980.917</ele>
        <time>2022-07-10T12:03:41Z</time>
      </trkpt>
      <trkpt lat="46.555614" lon="10.178857">
        <ele>1979.087</ele>
        <time>2022-07-10T12:03:46Z</time>
      </trkpt>
      <trkpt lat="46.555656" lon="10.178560">
        <ele>1975.615</ele>
        <time>2022-07-10T12:03:54Z</time>
      </trkpt>
      <trkpt lat="46.555619" lon="10.178335">
        <ele>1971.809</ele>
        <time>2022-07-10T12:04:01Z</time>
      </trkpt>
      <trkpt lat="46.555601" lon="10.178302">
        <ele>1971.832</ele>
        <time>2022-07-10T12:04:02Z</time>
      </trkpt>
      <trkpt lat="46.555540" lon="10.178195">
        <ele>1970.351</ele>
        <time>2022-07-10T12:04:05Z</time>
      </trkpt>
      <trkpt lat="46.555438" lon="10.177981">
        <ele>1966.959</ele>
        <time>2022-07-10T12:04:11Z</time>
      </trkpt>
      <trkpt lat="46.555422" lon="10.177928">
        <ele>1966.961</ele>
        <time>2022-07-10T12:04:12Z</time>
      </trkpt>
      <trkpt lat="46.555325" lon="10.177668">
        <ele>1963.687</ele>
        <time>2022-07-10T12:04:19Z</time>
      </trkpt>
      <trkpt lat="46.555280" lon="10.177533">
        <ele>1961.711</ele>
        <time>2022-07-10T12:04:22Z</time>
      </trkpt>
      <trkpt lat="46.555173" lon="10.177372">
        <ele>1958.362</ele>
        <time>2022-07-10T12:04:26Z</time>
      </trkpt>
      <trkpt lat="46.555132" lon="10.177346">
        <ele>1958.350</ele>
        <time>2022-07-10T12:04:27Z</time>
      </trkpt>
      <trkpt lat="46.555086" lon="10.177329">
        <ele>1958.314</ele>
        <time>2022-07-10T12:04:28Z</time>
      </trkpt>
      <trkpt lat="46.555013" lon="10.177312">
        <ele>1957.321</ele>
        <time>2022-07-10T12:04:30Z</time>
      </trkpt>
      <trkpt lat="46.554941" lon="10.177295">
        <ele>1956.441</ele>
        <time>2022-07-10T12:04:33Z</time>
      </trkpt>
      <trkpt lat="46.554935" lon="10.177277">
        <ele>1955.905</ele>
        <time>2022-07-10T12:04:34Z</time>
      </trkpt>
      <trkpt lat="46.554941" lon="10.177259">
        <ele>1955.409</ele>
        <time>2022-07-10T12:04:35Z</time>
      </trkpt>
      <trkpt lat="46.554955" lon="10.177247">
        <ele>1955.453</ele>
        <time>2022-07-10T12:04:36Z</time>
      </trkpt>
      <trkpt lat="46.554980" lon="10.177237">
        <ele>1955.452</ele>
        <time>2022-07-10T12:04:37Z</time>
      </trkpt>
      <trkpt lat="46.555004" lon="10.177229">
        <ele>1954.960</ele>
        <time>2022-07-10T12:04:38Z</time>
      </trkpt>
      <trkpt lat="46.555040" lon="10.177222">
        <ele>1954.992</ele>
        <time>2022-07-10T12:04:39Z</time>
      </trkpt>
      <trkpt lat="46.555397" lon="10.177448">
        <ele>1952.538</ele>
        <time>2022-07-10T12:04:51Z</time>
      </trkpt>
      <trkpt lat="46.555567" lon="10.177672">
        <ele>1948.772</ele>
        <time>2022-07-10T12:04:57Z</time>
      </trkpt>
      <trkpt lat="46.555734" lon="10.177907">
        <ele>1945.363</ele>
        <time>2022-07-10T12:05:03Z</time>
      </trkpt>
      <trkpt lat="46.555829" lon="10.178004">
        <ele>1943.921</ele>
        <time>2022-07-10T12:05:06Z</time>
      </trkpt>
      <trkpt lat="46.555995" lon="10.178173">
        <ele>1941.065</ele>
        <time>2022-07-10T12:05:12Z</time>
      </trkpt>
      <trkpt lat="46.556070" lon="10.178286">
        <ele>1940.077</ele>
        <time>2022-07-10T12:05:15Z</time>
      </trkpt>
      <trkpt lat="46.556144" lon="10.178552">
        <ele>1936.261</ele>
        <time>2022-07-10T12:05:21Z</time>
      </trkpt>
      <trkpt lat="46.556163" lon="10.178875">
        <ele>1932.827</ele>
        <time>2022-07-10T12:05:27Z</time>
      </trkpt>
      <trkpt lat="46.556208" lon="10.179130">
        <ele>1929.909</ele>
        <time>2022-07-10T12:05:33Z</time>
      </trkpt>
      <trkpt lat="46.556272" lon="10.179436">
        <ele>1926.698</ele>
        <time>2022-07-10T12:05:40Z</time>
      </trkpt>
      <trkpt lat="46.556270" lon="10.179481">
        <ele>1926.627</ele>
        <time>2022-07-10T12:05:41Z</time>
      </trkpt>
      <trkpt lat="46.556261" lon="10.179527">
        <ele>1925.685</ele>
        <time>2022-07-10T12:05:42Z</time>
      </trkpt>
      <trkpt lat="46.556253" lon="10.179574">
        <ele>1925.637</ele>
        <time>2022-07-10T12:05:43Z</time>
      </trkpt>
      <trkpt lat="46.556249" lon="10.179619">
        <ele>1925.633</ele>
        <time>2022-07-10T12:05:44Z</time>
      </trkpt>
      <trkpt lat="46.556258" lon="10.179665">
        <ele>1924.717</ele>
        <time>2022-07-10T12:05:45Z</time>
      </trkpt>
      <trkpt lat="46.556278" lon="10.179703">
        <ele>1924.278</ele>
        <time>2022-07-10T12:05:46Z</time>
      </trkpt>
      <trkpt lat="46.556306" lon="10.179733">
        <ele>1924.226</ele>
        <time>2022-07-10T12:05:47Z</time>
      </trkpt>
      <trkpt lat="46.556330" lon="10.179757">
        <ele>1924.220</ele>
        <time>2022-07-10T12:05:48Z</time>
      </trkpt>
      <trkpt lat="46.556357" lon="10.179778">
        <ele>1924.238</ele>
        <time>2022-07-10T12:05:49Z</time>
      </trkpt>
      <trkpt lat="46.556437" lon="10.179807">
        <ele>1924.270</ele>
        <time>2022-07-10T12:05:52Z</time>
      </trkpt>
      <trkpt lat="46.556456" lon="10.179795">
        <ele>1924.217</ele>
        <time>2022-07-10T12:05:53Z</time>
      </trkpt>
      <trkpt lat="46.556470" lon="10.179776">
        <ele>1924.209</ele>
        <time>2022-07-10T12:05:54Z</time>
      </trkpt>
      <trkpt lat="46.556478" lon="10.179759">
        <ele>1924.254</ele>
        <time>2022-07-10T12:05:55Z</time>
      </trkpt>
      <trkpt lat="46.556487" lon="10.179739">
        <ele>1924.293</ele>
        <time>2022-07-10T12:05:56Z</time>
      </trkpt>
      <trkpt lat="46.556590" lon="10.179244">
        <ele>1923.741</ele>
        <time>2022-07-10T12:06:12Z</time>
      </trkpt>
      <trkpt lat="46.556620" lon="10.178976">
        <ele>1925.193</ele>
        <time>2022-07-10T12:06:20Z</time>
      </trkpt>
      <trkpt lat="46.556830" lon="10.178463">
        <ele>1925.199</ele>
        <time>2022-07-10T12:06:37Z</time>
      </trkpt>
      <trkpt lat="46.556877" lon="10.178135">
        <ele>1925.173</ele>
        <time>2022-07-10T12:06:48Z</time>
      </trkpt>
      <trkpt lat="46.556918" lon="10.177854">
        <ele>1925.674</ele>
        <time>2022-07-10T12:06:56Z</time>
      </trkpt>
      <trkpt lat="46.556901" lon="10.177840">
        <ele>1925.632</ele>
        <time>2022-07-10T12:06:57Z</time>
      </trkpt>
      <trkpt lat="46.556883" lon="10.177830">
        <ele>1925.646</ele>
        <time>2022-07-10T12:06:58Z</time>
      </trkpt>
      <trkpt lat="46.556867" lon="10.177818">
        <ele>1925.682</ele>
        <time>2022-07-10T12:06:59Z</time>
      </trkpt>
      <trkpt lat="46.556852" lon="10.177802">
        <ele>1925.643</ele>
        <time>2022-07-10T12:07:00Z</time>
      </trkpt>
      <trkpt lat="46.556670" lon="10.177413">
        <ele>1926.617</ele>
        <time>2022-07-10T12:07:15Z</time>
      </trkpt>
      <trkpt lat="46.556651" lon="10.177006">
        <ele>1927.109</ele>
        <time>2022-07-10T12:07:28Z</time>
      </trkpt>
      <trkpt lat="46.556627" lon="10.176974">
        <ele>1926.699</ele>
        <time>2022-07-10T12:07:40Z</time>
      </trkpt>
      <trkpt lat="46.556637" lon="10.176985">
        <ele>1926.628</ele>
        <time>2022-07-10T12:07:56Z</time>
      </trkpt>
      <trkpt lat="46.556637" lon="10.176971">
        <ele>1926.696</ele>
        <time>2022-07-10T12:08:27Z</time>
      </trkpt>
      <trkpt lat="46.556633" lon="10.176959">
        <ele>1926.678</ele>
        <time>2022-07-10T12:08:31Z</time>
      </trkpt>
      <trkpt lat="46.556637" lon="10.176943">
        <ele>1926.654</ele>
        <time>2022-07-10T12:08:32Z</time>
      </trkpt>
      <trkpt lat="46.556700" lon="10.176523">
        <ele>1927.158</ele>
        <time>2022-07-10T12:08:46Z</time>
      </trkpt>
      <trkpt lat="46.556804" lon="10.176076">
        <ele>1928.579</ele>
        <time>2022-07-10T12:09:00Z</time>
      </trkpt>
      <trkpt lat="46.556837" lon="10.176007">
        <ele>1928.557</ele>
        <time>2022-07-10T12:09:02Z</time>
      </trkpt>
      <trkpt lat="46.556837" lon="10.175966">
        <ele>1927.121</ele>
        <time>2022-07-10T12:09:03Z</time>
      </trkpt>
      <trkpt lat="46.556825" lon="10.175940">
        <ele>1927.144</ele>
        <time>2022-07-10T12:09:04Z</time>
      </trkpt>
      <trkpt lat="46.556783" lon="10.175874">
        <ele>1927.105</ele>
        <time>2022-07-10T12:09:08Z</time>
      </trkpt>
      <trkpt lat="46.556775" lon="10.175855">
        <ele>1927.115</ele>
        <time>2022-07-10T12:09:09Z</time>
      </trkpt>
      <trkpt lat="46.556767" lon="10.175839">
        <ele>1928.009</ele>
        <time>2022-07-10T12:09:10Z</time>
      </trkpt>
      <trkpt lat="46.556760" lon="10.175826">
        <ele>1928.035</ele>
        <time>2022-07-10T12:09:11Z</time>
      </trkpt>
      <trkpt lat="46.556632" lon="10.175580">
        <ele>1928.544</ele>
        <time>2022-07-10T12:09:24Z</time>
      </trkpt>
      <trkpt lat="46.556554" lon="10.175103">
        <ele>1928.512</ele>
        <time>2022-07-10T12:09:39Z</time>
      </trkpt>
      <trkpt lat="46.556545" lon="10.175008">
        <ele>1928.544</ele>
        <time>2022-07-10T12:09:42Z</time>
      </trkpt>
      <trkpt lat="46.556538" lon="10.174982">
        <ele>1928.590</ele>
        <time>2022-07-10T12:09:43Z</time>
      </trkpt>
      <trkpt lat="46.556533" lon="10.174957">
        <ele>1928.534</ele>
        <time>2022-07-10T12:09:44Z</time>
      </trkpt>
      <trkpt lat="46.556523" lon="10.174934">
        <ele>1928.555</ele>
        <time>2022-07-10T12:09:45Z</time>
      </trkpt>
      <trkpt lat="46.556514" lon="10.174907">
        <ele>1928.513</ele>
        <time>2022-07-10T12:09:46Z</time>
      </trkpt>
      <trkpt lat="46.556500" lon="10.174876">
        <ele>1928.597</ele>
        <time>2022-07-10T12:09:47Z</time>
      </trkpt>
      <trkpt lat="46.556484" lon="10.174848">
        <ele>1928.589</ele>
        <time>2022-07-10T12:09:48Z</time>
      </trkpt>
      <trkpt lat="46.556255" lon="10.174520">
        <ele>1929.006</ele>
        <time>2022-07-10T12:10:04Z</time>
      </trkpt>
      <trkpt lat="46.555938" lon="10.174228">
        <ele>1930.426</ele>
        <time>2022-07-10T12:10:21Z</time>
      </trkpt>
      <trkpt lat="46.555900" lon="10.174018">
        <ele>1929.909</ele>
        <time>2022-07-10T12:19:52Z</time>
      </trkpt>
      <trkpt lat="46.555905" lon="10.174028">
        <ele>1929.989</ele>
        <time>2022-07-10T12:20:08Z</time>
      </trkpt>
      <trkpt lat="46.555878" lon="10.174002">
        <ele>1929.958</ele>
        <time>2022-07-10T12:20:25Z</time>
      </trkpt>
      <trkpt lat="46.555959" lon="10.173726">
        <ele>1927.526</ele>
        <time>2022-07-10T12:20:32Z</time>
      </trkpt>
      <trkpt lat="46.556240" lon="10.173208">
        <ele>1924.218</ele>
        <time>2022-07-10T12:20:40Z</time>
      </trkpt>
      <trkpt lat="46.556269" lon="10.173130">
        <ele>1924.224</ele>
        <time>2022-07-10T12:20:41Z</time>
      </trkpt>
      <trkpt lat="46.556291" lon="10.173046">
        <ele>1923.288</ele>
        <time>2022-07-10T12:20:42Z</time>
      </trkpt>
      <trkpt lat="46.556302" lon="10.172962">
        <ele>1923.289</ele>
        <time>2022-07-10T12:20:43Z</time>
      </trkpt>
      <trkpt lat="46.556323" lon="10.172575">
        <ele>1923.237</ele>
        <time>2022-07-10T12:20:48Z</time>
      </trkpt>
      <trkpt lat="46.556347" lon="10.172515">
        <ele>1922.791</ele>
        <time>2022-07-10T12:20:49Z</time>
      </trkpt>
      <trkpt lat="46.556381" lon="10.172466">
        <ele>1921.818</ele>
        <time>2022-07-10T12:20:50Z</time>
      </trkpt>
      <trkpt lat="46.556425" lon="10.172424">
        <ele>1921.898</ele>
        <time>2022-07-10T12:20:51Z</time>
      </trkpt>
      <trkpt lat="46.556470" lon="10.172392">
        <ele>1921.317</ele>
        <time>2022-07-10T12:20:52Z</time>
      </trkpt>
      <trkpt lat="46.556522" lon="10.172355">
        <ele>1920.809</ele>
        <time>2022-07-10T12:20:53Z</time>
      </trkpt>
      <trkpt lat="46.556623" lon="10.172285">
        <ele>1919.412</ele>
        <time>2022-07-10T12:20:55Z</time>
      </trkpt>
      <trkpt lat="46.556670" lon="10.172254">
        <ele>1918.951</ele>
        <time>2022-07-10T12:20:56Z</time>
      </trkpt>
      <trkpt lat="46.556773" lon="10.172194">
        <ele>1918.429</ele>
        <time>2022-07-10T12:20:58Z</time>
      </trkpt>
      <trkpt lat="46.556822" lon="10.172152">
        <ele>1917.441</ele>
        <time>2022-07-10T12:20:59Z</time>
      </trkpt>
      <trkpt lat="46.556867" lon="10.172100">
        <ele>1917.077</ele>
        <time>2022-07-10T12:21:00Z</time>
      </trkpt>
      <trkpt lat="46.556912" lon="10.172040">
        <ele>1917.091</ele>
        <time>2022-07-10T12:21:01Z</time>
      </trkpt>
      <trkpt lat="46.556956" lon="10.171978">
        <ele>1916.062</ele>
        <time>2022-07-10T12:21:02Z</time>
      </trkpt>
      <trkpt lat="46.557209" lon="10.171629">
        <ele>1913.660</ele>
        <time>2022-07-10T12:21:09Z</time>
      </trkpt>
      <trkpt lat="46.557261" lon="10.171594">
        <ele>1913.164</ele>
        <time>2022-07-10T12:21:10Z</time>
      </trkpt>
      <trkpt lat="46.557350" lon="10.171536">
        <ele>1912.693</ele>
        <time>2022-07-10T12:21:12Z</time>
      </trkpt>
      <trkpt lat="46.557387" lon="10.171484">
        <ele>1912.665</ele>
        <time>2022-07-10T12:21:13Z</time>
      </trkpt>
      <trkpt lat="46.557409" lon="10.171418">
        <ele>1912.621</ele>
        <time>2022-07-10T12:21:14Z</time>
      </trkpt>
      <trkpt lat="46.557421" lon="10.171349">
        <ele>1912.609</ele>
        <time>2022-07-10T12:21:15Z</time>
      </trkpt>
      <trkpt lat="46.557426" lon="10.171276">
        <ele>1912.680</ele>
        <time>2022-07-10T12:21:16Z</time>
      </trkpt>
      <trkpt lat="46.557441" lon="10.171136">
        <ele>1912.679</ele>
        <time>2022-07-10T12:21:18Z</time>
      </trkpt>
      <trkpt lat="46.557481" lon="10.170936">
        <ele>1912.667</ele>
        <time>2022-07-10T12:21:21Z</time>
      </trkpt>
      <trkpt lat="46.557521" lon="10.170820">
        <ele>1912.639</ele>
        <time>2022-07-10T12:21:23Z</time>
      </trkpt>
      <trkpt lat="46.557548" lon="10.170770">
        <ele>1912.225</ele>
        <time>2022-07-10T12:21:24Z</time>
      </trkpt>
      <trkpt lat="46.557581" lon="10.170728">
        <ele>1912.299</ele>
        <time>2022-07-10T12:21:25Z</time>
      </trkpt>
      <trkpt lat="46.557651" lon="10.170655">
        <ele>1912.290</ele>
        <time>2022-07-10T12:21:27Z</time>
      </trkpt>
      <trkpt lat="46.557689" lon="10.170626">
        <ele>1912.298</ele>
        <time>2022-07-10T12:21:28Z</time>
      </trkpt>
      <trkpt lat="46.557726" lon="10.170596">
        <ele>1911.732</ele>
        <time>2022-07-10T12:21:29Z</time>
      </trkpt>
      <trkpt lat="46.557759" lon="10.170567">
        <ele>1910.777</ele>
        <time>2022-07-10T12:21:30Z</time>
      </trkpt>
      <trkpt lat="46.557795" lon="10.170545">
        <ele>1910.761</ele>
        <time>2022-07-10T12:21:31Z</time>
      </trkpt>
      <trkpt lat="46.558060" lon="10.170379">
        <ele>1907.327</ele>
        <time>2022-07-10T12:21:38Z</time>
      </trkpt>
      <trkpt lat="46.558308" lon="10.170222">
        <ele>1905.909</ele>
        <time>2022-07-10T12:21:43Z</time>
      </trkpt>
      <trkpt lat="46.558346" lon="10.170168">
        <ele>1904.948</ele>
        <time>2022-07-10T12:21:44Z</time>
      </trkpt>
      <trkpt lat="46.558377" lon="10.170109">
        <ele>1904.557</ele>
        <time>2022-07-10T12:21:45Z</time>
      </trkpt>
      <trkpt lat="46.558401" lon="10.170044">
        <ele>1904.585</ele>
        <time>2022-07-10T12:21:46Z</time>
      </trkpt>
      <trkpt lat="46.558509" lon="10.169705">
        <ele>1901.627</ele>
        <time>2022-07-10T12:21:51Z</time>
      </trkpt>
      <trkpt lat="46.558532" lon="10.169644">
        <ele>1901.633</ele>
        <time>2022-07-10T12:21:52Z</time>
      </trkpt>
      <trkpt lat="46.558592" lon="10.169528">
        <ele>1900.147</ele>
        <time>2022-07-10T12:21:54Z</time>
      </trkpt>
      <trkpt lat="46.558634" lon="10.169478">
        <ele>1899.298</ele>
        <time>2022-07-10T12:21:55Z</time>
      </trkpt>
      <trkpt lat="46.558679" lon="10.169439">
        <ele>1899.796</ele>
        <time>2022-07-10T12:21:56Z</time>
      </trkpt>
      <trkpt lat="46.558727" lon="10.169405">
        <ele>1898.240</ele>
        <time>2022-07-10T12:21:57Z</time>
      </trkpt>
      <trkpt lat="46.558777" lon="10.169373">
        <ele>1897.714</ele>
        <time>2022-07-10T12:21:58Z</time>
      </trkpt>
      <trkpt lat="46.558882" lon="10.169299">
        <ele>1896.854</ele>
        <time>2022-07-10T12:22:00Z</time>
      </trkpt>
      <trkpt lat="46.558990" lon="10.169230">
        <ele>1895.309</ele>
        <time>2022-07-10T12:22:02Z</time>
      </trkpt>
      <trkpt lat="46.559041" lon="10.169192">
        <ele>1894.909</ele>
        <time>2022-07-10T12:22:03Z</time>
      </trkpt>
      <trkpt lat="46.559229" lon="10.169006">
        <ele>1893.462</ele>
        <time>2022-07-10T12:22:07Z</time>
      </trkpt>
      <trkpt lat="46.559269" lon="10.168942">
        <ele>1892.941</ele>
        <time>2022-07-10T12:22:08Z</time>
      </trkpt>
      <trkpt lat="46.559305" lon="10.168872">
        <ele>1892.949</ele>
        <time>2022-07-10T12:22:09Z</time>
      </trkpt>
      <trkpt lat="46.559402" lon="10.168678">
        <ele>1891.581</ele>
        <time>2022-07-10T12:22:12Z</time>
      </trkpt>
      <trkpt lat="46.559434" lon="10.168631">
        <ele>1891.557</ele>
        <time>2022-07-10T12:22:13Z</time>
      </trkpt>
      <trkpt lat="46.559471" lon="10.168599">
        <ele>1891.521</ele>
        <time>2022-07-10T12:22:14Z</time>
      </trkpt>
      <trkpt lat="46.559512" lon="10.168582">
        <ele>1891.082</ele>
        <time>2022-07-10T12:22:15Z</time>
      </trkpt>
      <trkpt lat="46.559558" lon="10.168578">
        <ele>1890.560</ele>
        <time>2022-07-10T12:22:16Z</time>
      </trkpt>
      <trkpt lat="46.559600" lon="10.168595">
        <ele>1889.654</ele>
        <time>2022-07-10T12:22:17Z</time>
      </trkpt>
      <trkpt lat="46.559638" lon="10.168620">
        <ele>1889.664</ele>
        <time>2022-07-10T12:22:18Z</time>
      </trkpt>
      <trkpt lat="46.559672" lon="10.168630">
        <ele>1889.606</ele>
        <time>2022-07-10T12:22:19Z</time>
      </trkpt>
      <trkpt lat="46.559709" lon="10.168616">
        <ele>1889.616</ele>
        <time>2022-07-10T12:22:20Z</time>
      </trkpt>
      <trkpt lat="46.559732" lon="10.168588">
        <ele>1889.109</ele>
        <time>2022-07-10T12:22:21Z</time>
      </trkpt>
      <trkpt lat="46.559743" lon="10.168552">
        <ele>1889.177</ele>
        <time>2022-07-10T12:22:22Z</time>
      </trkpt>
      <trkpt lat="46.559752" lon="10.168508">
        <ele>1889.126</ele>
        <time>2022-07-10T12:22:23Z</time>
      </trkpt>
      <trkpt lat="46.559947" lon="10.168160">
        <ele>1890.524</ele>
        <time>2022-07-10T12:22:37Z</time>
      </trkpt>
      <trkpt lat="46.560079" lon="10.168112">
        <ele>1888.136</ele>
        <time>2022-07-10T12:22:40Z</time>
      </trkpt>
      <trkpt lat="46.560130" lon="10.168080">
        <ele>1888.162</ele>
        <time>2022-07-10T12:22:41Z</time>
      </trkpt>
      <trkpt lat="46.560504" lon="10.167871">
        <ele>1885.736</ele>
        <time>2022-07-10T12:22:48Z</time>
      </trkpt>
      <trkpt lat="46.560552" lon="10.167871">
        <ele>1885.717</ele>
        <time>2022-07-10T12:22:49Z</time>
      </trkpt>
      <trkpt lat="46.560581" lon="10.167877">
        <ele>1885.745</ele>
        <time>2022-07-10T12:22:50Z</time>
      </trkpt>
      <trkpt lat="46.560601" lon="10.167871">
        <ele>1885.769</ele>
        <time>2022-07-10T12:22:51Z</time>
      </trkpt>
      <trkpt lat="46.560624" lon="10.167853">
        <ele>1886.724</ele>
        <time>2022-07-10T12:22:52Z</time>
      </trkpt>
      <trkpt lat="46.560643" lon="10.167829">
        <ele>1886.704</ele>
        <time>2022-07-10T12:22:53Z</time>
      </trkpt>
      <trkpt lat="46.560655" lon="10.167810">
        <ele>1886.714</ele>
        <time>2022-07-10T12:22:54Z</time>
      </trkpt>
      <trkpt lat="46.560660" lon="10.167792">
        <ele>1886.709</ele>
        <time>2022-07-10T12:22:55Z</time>
      </trkpt>
      <trkpt lat="46.560662" lon="10.167767">
        <ele>1887.243</ele>
        <time>2022-07-10T12:22:56Z</time>
      </trkpt>
      <trkpt lat="46.560663" lon="10.167736">
        <ele>1887.292</ele>
        <time>2022-07-10T12:22:57Z</time>
      </trkpt>
      <trkpt lat="46.560789" lon="10.167279">
        <ele>1885.220</ele>
        <time>2022-07-10T12:23:11Z</time>
      </trkpt>
      <trkpt lat="46.561032" lon="10.166945">
        <ele>1882.412</ele>
        <time>2022-07-10T12:23:19Z</time>
      </trkpt>
      <trkpt lat="46.561091" lon="10.166848">
        <ele>1881.978</ele>
        <time>2022-07-10T12:23:21Z</time>
      </trkpt>
      <trkpt lat="46.561117" lon="10.166793">
        <ele>1881.942</ele>
        <time>2022-07-10T12:23:22Z</time>
      </trkpt>
      <trkpt lat="46.561141" lon="10.166736">
        <ele>1881.963</ele>
        <time>2022-07-10T12:23:23Z</time>
      </trkpt>
      <trkpt lat="46.561249" lon="10.166431">
        <ele>1879.541</ele>
        <time>2022-07-10T12:23:28Z</time>
      </trkpt>
      <trkpt lat="46.561296" lon="10.166300">
        <ele>1879.075</ele>
        <time>2022-07-10T12:23:30Z</time>
      </trkpt>
      <trkpt lat="46.561324" lon="10.166242">
        <ele>1878.018</ele>
        <time>2022-07-10T12:23:31Z</time>
      </trkpt>
      <trkpt lat="46.561355" lon="10.166190">
        <ele>1877.198</ele>
        <time>2022-07-10T12:23:32Z</time>
      </trkpt>
      <trkpt lat="46.561390" lon="10.166146">
        <ele>1877.117</ele>
        <time>2022-07-10T12:23:33Z</time>
      </trkpt>
      <trkpt lat="46.561427" lon="10.166109">
        <ele>1876.609</ele>
        <time>2022-07-10T12:23:34Z</time>
      </trkpt>
      <trkpt lat="46.561469" lon="10.166081">
        <ele>1876.642</ele>
        <time>2022-07-10T12:23:35Z</time>
      </trkpt>
      <trkpt lat="46.561510" lon="10.166062">
        <ele>1875.681</ele>
        <time>2022-07-10T12:23:36Z</time>
      </trkpt>
      <trkpt lat="46.561551" lon="10.166044">
        <ele>1876.119</ele>
        <time>2022-07-10T12:23:37Z</time>
      </trkpt>
      <trkpt lat="46.561781" lon="10.165931">
        <ele>1873.241</ele>
        <time>2022-07-10T12:23:42Z</time>
      </trkpt>
      <trkpt lat="46.561821" lon="10.165895">
        <ele>1873.297</ele>
        <time>2022-07-10T12:23:43Z</time>
      </trkpt>
      <trkpt lat="46.561899" lon="10.165831">
        <ele>1872.361</ele>
        <time>2022-07-10T12:23:45Z</time>
      </trkpt>
      <trkpt lat="46.561942" lon="10.165812">
        <ele>1871.832</ele>
        <time>2022-07-10T12:23:46Z</time>
      </trkpt>
      <trkpt lat="46.562076" lon="10.165749">
        <ele>1869.920</ele>
        <time>2022-07-10T12:23:49Z</time>
      </trkpt>
      <trkpt lat="46.562115" lon="10.165708">
        <ele>1869.454</ele>
        <time>2022-07-10T12:23:50Z</time>
      </trkpt>
      <trkpt lat="46.562148" lon="10.165656">
        <ele>1868.924</ele>
        <time>2022-07-10T12:23:51Z</time>
      </trkpt>
      <trkpt lat="46.562207" lon="10.165541">
        <ele>1868.404</ele>
        <time>2022-07-10T12:23:53Z</time>
      </trkpt>
      <trkpt lat="46.562241" lon="10.165493">
        <ele>1868.414</ele>
        <time>2022-07-10T12:23:54Z</time>
      </trkpt>
      <trkpt lat="46.562278" lon="10.165448">
        <ele>1867.509</ele>
        <time>2022-07-10T12:23:55Z</time>
      </trkpt>
      <trkpt lat="46.562314" lon="10.165402">
        <ele>1867.043</ele>
        <time>2022-07-10T12:23:56Z</time>
      </trkpt>
      <trkpt lat="46.562352" lon="10.165361">
        <ele>1866.072</ele>
        <time>2022-07-10T12:23:57Z</time>
      </trkpt>
      <trkpt lat="46.562389" lon="10.165329">
        <ele>1865.520</ele>
        <time>2022-07-10T12:23:58Z</time>
      </trkpt>
      <trkpt lat="46.562427" lon="10.165304">
        <ele>1865.052</ele>
        <time>2022-07-10T12:23:59Z</time>
      </trkpt>
      <trkpt lat="46.562471" lon="10.165282">
        <ele>1864.658</ele>
        <time>2022-07-10T12:24:00Z</time>
      </trkpt>
      <trkpt lat="46.562515" lon="10.165257">
        <ele>1863.112</ele>
        <time>2022-07-10T12:24:01Z</time>
      </trkpt>
      <trkpt lat="46.562732" lon="10.165122">
        <ele>1859.813</ele>
        <time>2022-07-10T12:24:06Z</time>
      </trkpt>
      <trkpt lat="46.562824" lon="10.165088">
        <ele>1859.381</ele>
        <time>2022-07-10T12:24:08Z</time>
      </trkpt>
      <trkpt lat="46.562869" lon="10.165080">
        <ele>1857.865</ele>
        <time>2022-07-10T12:24:09Z</time>
      </trkpt>
      <trkpt lat="46.562903" lon="10.165067">
        <ele>1857.415</ele>
        <time>2022-07-10T12:24:10Z</time>
      </trkpt>
      <trkpt lat="46.562931" lon="10.165053">
        <ele>1856.965</ele>
        <time>2022-07-10T12:24:11Z</time>
      </trkpt>
      <trkpt lat="46.562952" lon="10.165028">
        <ele>1856.911</ele>
        <time>2022-07-10T12:24:12Z</time>
      </trkpt>
      <trkpt lat="46.562955" lon="10.164994">
        <ele>1856.409</ele>
        <time>2022-07-10T12:24:13Z</time>
      </trkpt>
      <trkpt lat="46.562944" lon="10.164958">
        <ele>1856.472</ele>
        <time>2022-07-10T12:24:14Z</time>
      </trkpt>
      <trkpt lat="46.562921" lon="10.164926">
        <ele>1855.451</ele>
        <time>2022-07-10T12:24:15Z</time>
      </trkpt>
      <trkpt lat="46.562893" lon="10.164901">
        <ele>1855.419</ele>
        <time>2022-07-10T12:24:16Z</time>
      </trkpt>
      <trkpt lat="46.562861" lon="10.164882">
        <ele>1854.591</ele>
        <time>2022-07-10T12:24:17Z</time>
      </trkpt>
      <trkpt lat="46.562825" lon="10.164867">
        <ele>1854.047</ele>
        <time>2022-07-10T12:24:18Z</time>
      </trkpt>
      <trkpt lat="46.562786" lon="10.164855">
        <ele>1853.591</ele>
        <time>2022-07-10T12:24:19Z</time>
      </trkpt>
      <trkpt lat="46.562744" lon="10.164851">
        <ele>1853.062</ele>
        <time>2022-07-10T12:24:20Z</time>
      </trkpt>
      <trkpt lat="46.562705" lon="10.164848">
        <ele>1853.080</ele>
        <time>2022-07-10T12:24:21Z</time>
      </trkpt>
      <trkpt lat="46.562660" lon="10.164841">
        <ele>1851.624</ele>
        <time>2022-07-10T12:24:22Z</time>
      </trkpt>
      <trkpt lat="46.562475" lon="10.164818">
        <ele>1849.732</ele>
        <time>2022-07-10T12:24:26Z</time>
      </trkpt>
      <trkpt lat="46.562429" lon="10.164809">
        <ele>1848.792</ele>
        <time>2022-07-10T12:24:27Z</time>
      </trkpt>
      <trkpt lat="46.562203" lon="10.164773">
        <ele>1845.811</ele>
        <time>2022-07-10T12:24:33Z</time>
      </trkpt>
      <trkpt lat="46.562194" lon="10.164743">
        <ele>1845.809</ele>
        <time>2022-07-10T12:24:34Z</time>
      </trkpt>
      <trkpt lat="46.562198" lon="10.164711">
        <ele>1845.344</ele>
        <time>2022-07-10T12:24:35Z</time>
      </trkpt>
      <trkpt lat="46.562213" lon="10.164683">
        <ele>1844.993</ele>
        <time>2022-07-10T12:24:36Z</time>
      </trkpt>
      <trkpt lat="46.562238" lon="10.164661">
        <ele>1844.961</ele>
        <time>2022-07-10T12:24:37Z</time>
      </trkpt>
      <trkpt lat="46.562268" lon="10.164644">
        <ele>1844.453</ele>
        <time>2022-07-10T12:24:38Z</time>
      </trkpt>
      <trkpt lat="46.562301" lon="10.164626">
        <ele>1844.499</ele>
        <time>2022-07-10T12:24:39Z</time>
      </trkpt>
      <trkpt lat="46.562476" lon="10.164499">
        <ele>1841.083</ele>
        <time>2022-07-10T12:24:44Z</time>
      </trkpt>
      <trkpt lat="46.562662" lon="10.164345">
        <ele>1838.174</ele>
        <time>2022-07-10T12:24:49Z</time>
      </trkpt>
      <trkpt lat="46.562837" lon="10.164216">
        <ele>1835.222</ele>
        <time>2022-07-10T12:24:54Z</time>
      </trkpt>
      <trkpt lat="46.562883" lon="10.164177">
        <ele>1834.826</ele>
        <time>2022-07-10T12:24:56Z</time>
      </trkpt>
      <trkpt lat="46.562886" lon="10.164147">
        <ele>1834.389</ele>
        <time>2022-07-10T12:24:57Z</time>
      </trkpt>
      <trkpt lat="46.562877" lon="10.164114">
        <ele>1834.306</ele>
        <time>2022-07-10T12:24:58Z</time>
      </trkpt>
      <trkpt lat="46.562856" lon="10.164087">
        <ele>1833.326</ele>
        <time>2022-07-10T12:24:59Z</time>
      </trkpt>
      <trkpt lat="46.562828" lon="10.164074">
        <ele>1832.809</ele>
        <time>2022-07-10T12:25:00Z</time>
      </trkpt>
      <trkpt lat="46.562799" lon="10.164067">
        <ele>1832.429</ele>
        <time>2022-07-10T12:25:01Z</time>
      </trkpt>
      <trkpt lat="46.562733" lon="10.164043">
        <ele>1831.438</ele>
        <time>2022-07-10T12:25:03Z</time>
      </trkpt>
      <trkpt lat="46.562598" lon="10.163966">
        <ele>1828.516</ele>
        <time>2022-07-10T12:25:07Z</time>
      </trkpt>
      <trkpt lat="46.562533" lon="10.163915">
        <ele>1827.648</ele>
        <time>2022-07-10T12:25:09Z</time>
      </trkpt>
      <trkpt lat="46.562282" lon="10.163867">
        <ele>1824.284</ele>
        <time>2022-07-10T12:25:18Z</time>
      </trkpt>
      <trkpt lat="46.561987" lon="10.164322">
        <ele>1821.358</ele>
        <time>2022-07-10T12:25:32Z</time>
      </trkpt>
      <trkpt lat="46.561839" lon="10.164472">
        <ele>1817.979</ele>
        <time>2022-07-10T12:25:38Z</time>
      </trkpt>
      <trkpt lat="46.561751" lon="10.164491">
        <ele>1817.097</ele>
        <time>2022-07-10T12:25:41Z</time>
      </trkpt>
      <trkpt lat="46.561719" lon="10.164466">
        <ele>1816.031</ele>
        <time>2022-07-10T12:25:42Z</time>
      </trkpt>
      <trkpt lat="46.561691" lon="10.164430">
        <ele>1816.059</ele>
        <time>2022-07-10T12:25:43Z</time>
      </trkpt>
      <trkpt lat="46.561363" lon="10.163920">
        <ele>1816.503</ele>
        <time>2022-07-10T12:25:57Z</time>
      </trkpt>
      <trkpt lat="46.561357" lon="10.163876">
        <ele>1816.523</ele>
        <time>2022-07-10T12:25:58Z</time>
      </trkpt>
      <trkpt lat="46.561307" lon="10.163577">
        <ele>1817.909</ele>
        <time>2022-07-10T12:26:08Z</time>
      </trkpt>
      <trkpt lat="46.561245" lon="10.163209">
        <ele>1817.926</ele>
        <time>2022-07-10T12:26:20Z</time>
      </trkpt>
      <trkpt lat="46.561219" lon="10.162716">
        <ele>1817.525</ele>
        <time>2022-07-10T12:26:33Z</time>
      </trkpt>
      <trkpt lat="46.561215" lon="10.162069">
        <ele>1816.573</ele>
        <time>2022-07-10T12:26:49Z</time>
      </trkpt>
      <trkpt lat="46.561221" lon="10.161985">
        <ele>1817.965</ele>
        <time>2022-07-10T12:26:51Z</time>
      </trkpt>
      <trkpt lat="46.561240" lon="10.161687">
        <ele>1817.961</ele>
        <time>2022-07-10T12:27:03Z</time>
      </trkpt>
      <trkpt lat="46.561265" lon="10.161188">
        <ele>1817.565</ele>
        <time>2022-07-10T12:27:17Z</time>
      </trkpt>
      <trkpt lat="46.561299" lon="10.160584">
        <ele>1817.996</ele>
        <time>2022-07-10T12:27:31Z</time>
      </trkpt>
      <trkpt lat="46.561300" lon="10.159947">
        <ele>1818.434</ele>
        <time>2022-07-10T12:27:46Z</time>
      </trkpt>
      <trkpt lat="46.561367" lon="10.159244">
        <ele>1818.478</ele>
        <time>2022-07-10T12:28:01Z</time>
      </trkpt>
      <trkpt lat="46.561427" lon="10.159004">
        <ele>1819.471</ele>
        <time>2022-07-10T12:28:56Z</time>
      </trkpt>
      <trkpt lat="46.561426" lon="10.158972">
        <ele>1819.441</ele>
        <time>2022-07-10T12:28:57Z</time>
      </trkpt>
      <trkpt lat="46.561337" lon="10.158393">
        <ele>1819.915</ele>
        <time>2022-07-10T12:29:12Z</time>
      </trkpt>
      <trkpt lat="46.561205" lon="10.157762">
        <ele>1820.309</ele>
        <time>2022-07-10T12:29:28Z</time>
      </trkpt>
      <trkpt lat="46.561207" lon="10.157215">
        <ele>1820.838</ele>
        <time>2022-07-10T12:29:41Z</time>
      </trkpt>
      <trkpt lat="46.561108" lon="10.156647">
        <ele>1821.367</ele>
        <time>2022-07-10T12:29:55Z</time>
      </trkpt>
      <trkpt lat="46.561003" lon="10.156092">
        <ele>1822.375</ele>
        <time>2022-07-10T12:30:10Z</time>
      </trkpt>
      <trkpt lat="46.560861" lon="10.155490">
        <ele>1822.387</ele>
        <time>2022-07-10T12:30:24Z</time>
      </trkpt>
      <trkpt lat="46.560730" lon="10.154941">
        <ele>1822.853</ele>
        <time>2022-07-10T12:30:37Z</time>
      </trkpt>
      <trkpt lat="46.560638" lon="10.154325">
        <ele>1822.847</ele>
        <time>2022-07-10T12:30:49Z</time>
      </trkpt>
      <trkpt lat="46.560485" lon="10.153627">
        <ele>1822.868</ele>
        <time>2022-07-10T12:31:04Z</time>
      </trkpt>
      <trkpt lat="46.560111" lon="10.152989">
        <ele>1820.346</ele>
        <time>2022-07-10T12:31:18Z</time>
      </trkpt>
      <trkpt lat="46.560006" lon="10.152839">
        <ele>1819.940</ele>
        <time>2022-07-10T12:31:21Z</time>
      </trkpt>
      <trkpt lat="46.559984" lon="10.152798">
        <ele>1819.963</ele>
        <time>2022-07-10T12:31:22Z</time>
      </trkpt>
      <trkpt lat="46.559961" lon="10.152745">
        <ele>1819.444</ele>
        <time>2022-07-10T12:31:23Z</time>
      </trkpt>
      <trkpt lat="46.559912" lon="10.152638">
        <ele>1819.418</ele>
        <time>2022-07-10T12:31:25Z</time>
      </trkpt>
      <trkpt lat="46.559757" lon="10.152312">
        <ele>1818.909</ele>
        <time>2022-07-10T12:31:31Z</time>
      </trkpt>
      <trkpt lat="46.559713" lon="10.152189">
        <ele>1818.967</ele>
        <time>2022-07-10T12:31:33Z</time>
      </trkpt>
      <trkpt lat="46.559660" lon="10.151997">
        <ele>1817.976</ele>
        <time>2022-07-10T12:31:36Z</time>
      </trkpt>
      <trkpt lat="46.559636" lon="10.151931">
        <ele>1817.934</ele>
        <time>2022-07-10T12:31:37Z</time>
      </trkpt>
      <trkpt lat="46.559413" lon="10.151393">
        <ele>1817.966</ele>
        <time>2022-07-10T12:31:49Z</time>
      </trkpt>
      <trkpt lat="46.559219" lon="10.150821">
        <ele>1817.922</ele>
        <time>2022-07-10T12:32:02Z</time>
      </trkpt>
      <trkpt lat="46.558953" lon="10.150303">
        <ele>1819.466</ele>
        <time>2022-07-10T12:32:16Z</time>
      </trkpt>
      <trkpt lat="46.558634" lon="10.149862">
        <ele>1819.417</ele>
        <time>2022-07-10T12:32:30Z</time>
      </trkpt>
      <trkpt lat="46.558391" lon="10.149430">
        <ele>1820.395</ele>
        <time>2022-07-10T12:32:43Z</time>
      </trkpt>
      <trkpt lat="46.558292" lon="10.149244">
        <ele>1820.349</ele>
        <time>2022-07-10T12:32:54Z</time>
      </trkpt>
      <trkpt lat="46.558064" lon="10.148920">
        <ele>1820.319</ele>
        <time>2022-07-10T12:33:06Z</time>
      </trkpt>
      <trkpt lat="46.557829" lon="10.148627">
        <ele>1820.309</ele>
        <time>2022-07-10T12:33:18Z</time>
      </trkpt>
      <trkpt lat="46.557450" lon="10.148263">
        <ele>1820.319</ele>
        <time>2022-07-10T12:33:30Z</time>
      </trkpt>
      <trkpt lat="46.557164" lon="10.148036">
        <ele>1818.909</ele>
        <time>2022-07-10T12:33:38Z</time>
      </trkpt>
      <trkpt lat="46.556707" lon="10.147868">
        <ele>1820.342</ele>
        <time>2022-07-10T12:33:51Z</time>
      </trkpt>
      <trkpt lat="46.556668" lon="10.147858">
        <ele>1820.381</ele>
        <time>2022-07-10T12:33:52Z</time>
      </trkpt>
      <trkpt lat="46.556628" lon="10.147848">
        <ele>1820.339</ele>
        <time>2022-07-10T12:33:53Z</time>
      </trkpt>
      <trkpt lat="46.556546" lon="10.147817">
        <ele>1818.951</ele>
        <time>2022-07-10T12:33:55Z</time>
      </trkpt>
      <trkpt lat="46.556511" lon="10.147791">
        <ele>1818.977</ele>
        <time>2022-07-10T12:33:56Z</time>
      </trkpt>
      <trkpt lat="46.556478" lon="10.147767">
        <ele>1818.921</ele>
        <time>2022-07-10T12:33:57Z</time>
      </trkpt>
      <trkpt lat="46.555913" lon="10.147581">
        <ele>1818.912</ele>
        <time>2022-07-10T12:34:12Z</time>
      </trkpt>
      <trkpt lat="46.555529" lon="10.147529">
        <ele>1818.950</ele>
        <time>2022-07-10T12:34:21Z</time>
      </trkpt>
      <trkpt lat="46.555485" lon="10.147510">
        <ele>1818.954</ele>
        <time>2022-07-10T12:34:22Z</time>
      </trkpt>
      <trkpt lat="46.555445" lon="10.147480">
        <ele>1818.934</ele>
        <time>2022-07-10T12:34:23Z</time>
      </trkpt>
      <trkpt lat="46.554949" lon="10.147152">
        <ele>1818.455</ele>
        <time>2022-07-10T12:34:37Z</time>
      </trkpt>
      <trkpt lat="46.554479" lon="10.147048">
        <ele>1817.010</ele>
        <time>2022-07-10T12:34:50Z</time>
      </trkpt>
      <trkpt lat="46.554150" lon="10.146966">
        <ele>1816.009</ele>
        <time>2022-07-10T12:34:58Z</time>
      </trkpt>
      <trkpt lat="46.554097" lon="10.146944">
        <ele>1816.074</ele>
        <time>2022-07-10T12:34:59Z</time>
      </trkpt>
      <trkpt lat="46.554046" lon="10.146915">
        <ele>1815.123</ele>
        <time>2022-07-10T12:35:00Z</time>
      </trkpt>
      <trkpt lat="46.553939" lon="10.146848">
        <ele>1814.671</ele>
        <time>2022-07-10T12:35:02Z</time>
      </trkpt>
      <trkpt lat="46.553231" lon="10.146472">
        <ele>1813.113</ele>
        <time>2022-07-10T12:35:17Z</time>
      </trkpt>
      <trkpt lat="46.552691" lon="10.146231">
        <ele>1814.169</ele>
        <time>2022-07-10T12:35:33Z</time>
      </trkpt>
      <trkpt lat="46.552091" lon="10.145969">
        <ele>1814.143</ele>
        <time>2022-07-10T12:35:50Z</time>
      </trkpt>
      <trkpt lat="46.551555" lon="10.145689">
        <ele>1814.164</ele>
        <time>2022-07-10T12:36:05Z</time>
      </trkpt>
      <trkpt lat="46.551095" lon="10.145366">
        <ele>1812.732</ele>
        <time>2022-07-10T12:36:19Z</time>
      </trkpt>
      <trkpt lat="46.550415" lon="10.145009">
        <ele>1812.726</ele>
        <time>2022-07-10T12:36:38Z</time>
      </trkpt>
      <trkpt lat="46.550213" lon="10.144867">
        <ele>1812.733</ele>
        <time>2022-07-10T12:36:48Z</time>
      </trkpt>
      <trkpt lat="46.549730" lon="10.144496">
        <ele>1812.723</ele>
        <time>2022-07-10T12:37:04Z</time>
      </trkpt>
      <trkpt lat="46.548950" lon="10.143863">
        <ele>1812.715</ele>
        <time>2022-07-10T12:37:28Z</time>
      </trkpt>
      <trkpt lat="46.548481" lon="10.143439">
        <ele>1812.709</ele>
        <time>2022-07-10T12:37:45Z</time>
      </trkpt>
      <trkpt lat="46.548306" lon="10.143283">
        <ele>1814.184</ele>
        <time>2022-07-10T12:37:51Z</time>
      </trkpt>
      <trkpt lat="46.547695" lon="10.143071">
        <ele>1814.113</ele>
        <time>2022-07-10T12:38:09Z</time>
      </trkpt>
      <trkpt lat="46.546992" lon="10.143159">
        <ele>1814.641</ele>
        <time>2022-07-10T12:38:28Z</time>
      </trkpt>
      <trkpt lat="46.546484" lon="10.143078">
        <ele>1814.633</ele>
        <time>2022-07-10T12:38:43Z</time>
      </trkpt>
      <trkpt lat="46.545903" lon="10.143133">
        <ele>1815.599</ele>
        <time>2022-07-10T12:39:00Z</time>
      </trkpt>
      <trkpt lat="46.545690" lon="10.143223">
        <ele>1817.593</ele>
        <time>2022-07-10T12:39:12Z</time>
      </trkpt>
      <trkpt lat="46.545465" lon="10.143231">
        <ele>1816.014</ele>
        <time>2022-07-10T12:39:18Z</time>
      </trkpt>
      <trkpt lat="46.545020" lon="10.143387">
        <ele>1817.082</ele>
        <time>2022-07-10T12:39:34Z</time>
      </trkpt>
      <trkpt lat="46.544860" lon="10.143434">
        <ele>1817.556</ele>
        <time>2022-07-10T12:39:40Z</time>
      </trkpt>
      <trkpt lat="46.544373" lon="10.143581">
        <ele>1817.569</ele>
        <time>2022-07-10T12:39:53Z</time>
      </trkpt>
      <trkpt lat="46.543782" lon="10.143755">
        <ele>1817.504</ele>
        <time>2022-07-10T12:40:11Z</time>
      </trkpt>
      <trkpt lat="46.543071" lon="10.143846">
        <ele>1817.524</ele>
        <time>2022-07-10T12:40:32Z</time>
      </trkpt>
      <trkpt lat="46.542432" lon="10.144120">
        <ele>1818.909</ele>
        <time>2022-07-10T12:40:52Z</time>
      </trkpt>
      <trkpt lat="46.541822" lon="10.144409">
        <ele>1818.997</ele>
        <time>2022-07-10T12:41:11Z</time>
      </trkpt>
      <trkpt lat="46.541256" lon="10.144160">
        <ele>1819.986</ele>
        <time>2022-07-10T12:41:29Z</time>
      </trkpt>
      <trkpt lat="46.540713" lon="10.143764">
        <ele>1820.334</ele>
        <time>2022-07-10T12:41:47Z</time>
      </trkpt>
      <trkpt lat="46.540091" lon="10.143501">
        <ele>1821.396</ele>
        <time>2022-07-10T12:42:07Z</time>
      </trkpt>
      <trkpt lat="46.539585" lon="10.143078">
        <ele>1821.822</ele>
        <time>2022-07-10T12:42:24Z</time>
      </trkpt>
      <trkpt lat="46.539107" lon="10.142644">
        <ele>1822.856</ele>
        <time>2022-07-10T12:42:42Z</time>
      </trkpt>
      <trkpt lat="46.538564" lon="10.142481">
        <ele>1823.727</ele>
        <time>2022-07-10T12:43:01Z</time>
      </trkpt>
      <trkpt lat="46.538290" lon="10.142390">
        <ele>1824.255</ele>
        <time>2022-07-10T12:43:13Z</time>
      </trkpt>
      <trkpt lat="46.537830" lon="10.142097">
        <ele>1824.739</ele>
        <time>2022-07-10T12:43:30Z</time>
      </trkpt>
      <trkpt lat="46.537497" lon="10.141763">
        <ele>1825.295</ele>
        <time>2022-07-10T12:43:43Z</time>
      </trkpt>
      <trkpt lat="46.537310" lon="10.141537">
        <ele>1826.649</ele>
        <time>2022-07-10T12:43:55Z</time>
      </trkpt>
      <trkpt lat="46.537303" lon="10.141522">
        <ele>1826.623</ele>
        <time>2022-07-10T12:43:56Z</time>
      </trkpt>
      <trkpt lat="46.537298" lon="10.141506">
        <ele>1826.609</ele>
        <time>2022-07-10T12:43:57Z</time>
      </trkpt>
      <trkpt lat="46.537294" lon="10.141481">
        <ele>1827.170</ele>
        <time>2022-07-10T12:43:59Z</time>
      </trkpt>
      <trkpt lat="46.537294" lon="10.141464">
        <ele>1827.149</ele>
        <time>2022-07-10T12:44:00Z</time>
      </trkpt>
      <trkpt lat="46.537293" lon="10.141440">
        <ele>1827.167</ele>
        <time>2022-07-10T12:44:01Z</time>
      </trkpt>
      <trkpt lat="46.537297" lon="10.141425">
        <ele>1827.119</ele>
        <time>2022-07-10T12:44:02Z</time>
      </trkpt>
      <trkpt lat="46.537307" lon="10.141402">
        <ele>1827.145</ele>
        <time>2022-07-10T12:44:03Z</time>
      </trkpt>
      <trkpt lat="46.537323" lon="10.141375">
        <ele>1827.159</ele>
        <time>2022-07-10T12:44:04Z</time>
      </trkpt>
      <trkpt lat="46.537340" lon="10.141321">
        <ele>1827.120</ele>
        <time>2022-07-10T12:44:13Z</time>
      </trkpt>
      <trkpt lat="46.537336" lon="10.141302">
        <ele>1827.658</ele>
        <time>2022-07-10T12:44:48Z</time>
      </trkpt>
      <trkpt lat="46.537325" lon="10.141309">
        <ele>1827.662</ele>
        <time>2022-07-10T12:45:20Z</time>
      </trkpt>
      <trkpt lat="46.537344" lon="10.141305">
        <ele>1827.686</ele>
        <time>2022-07-10T12:45:51Z</time>
      </trkpt>
      <trkpt lat="46.537336" lon="10.141320">
        <ele>1827.660</ele>
        <time>2022-07-10T12:46:21Z</time>
      </trkpt>
      <trkpt lat="46.537333" lon="10.141327">
        <ele>1827.626</ele>
        <time>2022-07-10T12:46:45Z</time>
      </trkpt>
      <trkpt lat="46.537310" lon="10.141247">
        <ele>1827.609</ele>
        <time>2022-07-10T12:47:03Z</time>
      </trkpt>
      <trkpt lat="46.537295" lon="10.141231">
        <ele>1827.689</ele>
        <time>2022-07-10T12:47:04Z</time>
      </trkpt>
      <trkpt lat="46.537144" lon="10.141188">
        <ele>1827.648</ele>
        <time>2022-07-10T12:47:10Z</time>
      </trkpt>
      <trkpt lat="46.537198" lon="10.140923">
        <ele>1831.446</ele>
        <time>2022-07-11T06:02:29Z</time>
      </trkpt>
      <trkpt lat="46.537204" lon="10.140913">
        <ele>1831.498</ele>
        <time>2022-07-11T06:02:30Z</time>
      </trkpt>
      <trkpt lat="46.537210" lon="10.140901">
        <ele>1831.454</ele>
        <time>2022-07-11T06:02:31Z</time>
      </trkpt>
      <trkpt lat="46.537211" lon="10.140871">
        <ele>1831.438</ele>
        <time>2022-07-11T06:02:33Z</time>
      </trkpt>
      <trkpt lat="46.537204" lon="10.140850">
        <ele>1831.469</ele>
        <time>2022-07-11T06:02:34Z</time>
      </trkpt>
      <trkpt lat="46.537188" lon="10.140833">
        <ele>1831.457</ele>
        <time>2022-07-11T06:02:35Z</time>
      </trkpt>
      <trkpt lat="46.537170" lon="10.140826">
        <ele>1831.441</ele>
        <time>2022-07-11T06:02:36Z</time>
      </trkpt>
      <trkpt lat="46.537145" lon="10.140819">
        <ele>1831.418</ele>
        <time>2022-07-11T06:02:37Z</time>
      </trkpt>
      <trkpt lat="46.537126" lon="10.140817">
        <ele>1831.498</ele>
        <time>2022-07-11T06:02:38Z</time>
      </trkpt>
      <trkpt lat="46.536919" lon="10.140752">
        <ele>1829.017</ele>
        <time>2022-07-11T06:02:44Z</time>
      </trkpt>
      <trkpt lat="46.536879" lon="10.140732">
        <ele>1829.009</ele>
        <time>2022-07-11T06:02:45Z</time>
      </trkpt>
      <trkpt lat="46.536434" lon="10.140359">
        <ele>1829.072</ele>
        <time>2022-07-11T06:03:01Z</time>
      </trkpt>
      <trkpt lat="46.535962" lon="10.139920">
        <ele>1829.061</ele>
        <time>2022-07-11T06:03:20Z</time>
      </trkpt>
      <trkpt lat="46.535442" lon="10.139457">
        <ele>1830.919</ele>
        <time>2022-07-11T06:03:41Z</time>
      </trkpt>
      <trkpt lat="46.535078" lon="10.139057">
        <ele>1830.921</ele>
        <time>2022-07-11T06:03:57Z</time>
      </trkpt>
      <trkpt lat="46.534724" lon="10.138718">
        <ele>1831.477</ele>
        <time>2022-07-11T06:04:13Z</time>
      </trkpt>
      <trkpt lat="46.534453" lon="10.138378">
        <ele>1831.971</ele>
        <time>2022-07-11T06:04:26Z</time>
      </trkpt>
      <trkpt lat="46.534131" lon="10.137717">
        <ele>1832.442</ele>
        <time>2022-07-11T06:04:45Z</time>
      </trkpt>
      <trkpt lat="46.533870" lon="10.137238">
        <ele>1832.880</ele>
        <time>2022-07-11T06:05:01Z</time>
      </trkpt>
      <trkpt lat="46.533461" lon="10.136627">
        <ele>1833.394</ele>
        <time>2022-07-11T06:05:21Z</time>
      </trkpt>
      <trkpt lat="46.533033" lon="10.135967">
        <ele>1833.877</ele>
        <time>2022-07-11T06:05:41Z</time>
      </trkpt>
      <trkpt lat="46.532585" lon="10.135295">
        <ele>1834.861</ele>
        <time>2022-07-11T06:06:02Z</time>
      </trkpt>
      <trkpt lat="46.532131" lon="10.134677">
        <ele>1834.827</ele>
        <time>2022-07-11T06:06:22Z</time>
      </trkpt>
      <trkpt lat="46.531761" lon="10.134203">
        <ele>1835.709</ele>
        <time>2022-07-11T06:06:38Z</time>
      </trkpt>
      <trkpt lat="46.531357" lon="10.133621">
        <ele>1836.758</ele>
        <time>2022-07-11T06:06:57Z</time>
      </trkpt>
      <trkpt lat="46.531065" lon="10.133322">
        <ele>1839.167</ele>
        <time>2022-07-11T06:07:13Z</time>
      </trkpt>
      <trkpt lat="46.530884" lon="10.133280">
        <ele>1837.715</ele>
        <time>2022-07-11T06:07:18Z</time>
      </trkpt>
      <trkpt lat="46.530409" lon="10.133383">
        <ele>1837.237</ele>
        <time>2022-07-11T06:07:31Z</time>
      </trkpt>
      <trkpt lat="46.529919" lon="10.133349">
        <ele>1837.263</ele>
        <time>2022-07-11T06:07:48Z</time>
      </trkpt>
      <trkpt lat="46.529514" lon="10.132837">
        <ele>1838.667</ele>
        <time>2022-07-11T06:08:06Z</time>
      </trkpt>
      <trkpt lat="46.528978" lon="10.132128">
        <ele>1839.178</ele>
        <time>2022-07-11T06:08:30Z</time>
      </trkpt>
      <trkpt lat="46.528607" lon="10.131684">
        <ele>1839.676</ele>
        <time>2022-07-11T06:08:48Z</time>
      </trkpt>
      <trkpt lat="46.528605" lon="10.131722">
        <ele>1839.660</ele>
        <time>2022-07-11T06:09:05Z</time>
      </trkpt>
      <trkpt lat="46.528606" lon="10.131684">
        <ele>1839.676</ele>
        <time>2022-07-11T06:09:28Z</time>
      </trkpt>
      <trkpt lat="46.528374" lon="10.131404">
        <ele>1839.690</ele>
        <time>2022-07-11T06:09:40Z</time>
      </trkpt>
      <trkpt lat="46.527940" lon="10.130855">
        <ele>1840.519</ele>
        <time>2022-07-11T06:09:58Z</time>
      </trkpt>
      <trkpt lat="46.527499" lon="10.130353">
        <ele>1842.509</ele>
        <time>2022-07-11T06:10:18Z</time>
      </trkpt>
      <trkpt lat="46.527051" lon="10.130035">
        <ele>1844.968</ele>
        <time>2022-07-11T06:10:40Z</time>
      </trkpt>
      <trkpt lat="46.526564" lon="10.129833">
        <ele>1842.987</ele>
        <time>2022-07-11T06:10:52Z</time>
      </trkpt>
      <trkpt lat="46.525923" lon="10.129809">
        <ele>1842.985</ele>
        <time>2022-07-11T06:11:09Z</time>
      </trkpt>
      <trkpt lat="46.525654" lon="10.129931">
        <ele>1843.927</ele>
        <time>2022-07-11T06:11:17Z</time>
      </trkpt>
      <trkpt lat="46.525104" lon="10.130209">
        <ele>1845.383</ele>
        <time>2022-07-11T06:11:37Z</time>
      </trkpt>
      <trkpt lat="46.524606" lon="10.130116">
        <ele>1845.887</ele>
        <time>2022-07-11T06:11:54Z</time>
      </trkpt>
      <trkpt lat="46.523930" lon="10.129751">
        <ele>1845.838</ele>
        <time>2022-07-11T06:12:17Z</time>
      </trkpt>
      <trkpt lat="46.523636" lon="10.129334">
        <ele>1847.776</ele>
        <time>2022-07-11T06:12:32Z</time>
      </trkpt>
      <trkpt lat="46.523268" lon="10.128698">
        <ele>1848.290</ele>
        <time>2022-07-11T06:12:54Z</time>
      </trkpt>
      <trkpt lat="46.522935" lon="10.128204">
        <ele>1849.788</ele>
        <time>2022-07-11T06:13:12Z</time>
      </trkpt>
      <trkpt lat="46.522576" lon="10.127791">
        <ele>1850.124</ele>
        <time>2022-07-11T06:13:30Z</time>
      </trkpt>
      <trkpt lat="46.522023" lon="10.127622">
        <ele>1851.126</ele>
        <time>2022-07-11T06:13:51Z</time>
      </trkpt>
      <trkpt lat="46.521442" lon="10.127621">
        <ele>1851.609</ele>
        <time>2022-07-11T06:14:11Z</time>
      </trkpt>
      <trkpt lat="46.520889" lon="10.127508">
        <ele>1851.689</ele>
        <time>2022-07-11T06:14:29Z</time>
      </trkpt>
      <trkpt lat="46.520529" lon="10.127015">
        <ele>1853.068</ele>
        <time>2022-07-11T06:14:46Z</time>
      </trkpt>
      <trkpt lat="46.520104" lon="10.126528">
        <ele>1854.016</ele>
        <time>2022-07-11T06:15:05Z</time>
      </trkpt>
      <trkpt lat="46.519728" lon="10.126139">
        <ele>1855.088</ele>
        <time>2022-07-11T06:15:22Z</time>
      </trkpt>
      <trkpt lat="46.519434" lon="10.126186">
        <ele>1855.934</ele>
        <time>2022-07-11T06:15:34Z</time>
      </trkpt>
      <trkpt lat="46.519398" lon="10.126151">
        <ele>1855.928</ele>
        <time>2022-07-11T06:15:35Z</time>
      </trkpt>
      <trkpt lat="46.519361" lon="10.126103">
        <ele>1854.599</ele>
        <time>2022-07-11T06:15:36Z</time>
      </trkpt>
      <trkpt lat="46.519329" lon="10.126056">
        <ele>1854.557</ele>
        <time>2022-07-11T06:15:37Z</time>
      </trkpt>
      <trkpt lat="46.519298" lon="10.126013">
        <ele>1854.561</ele>
        <time>2022-07-11T06:15:38Z</time>
      </trkpt>
      <trkpt lat="46.519263" lon="10.125968">
        <ele>1854.534</ele>
        <time>2022-07-11T06:15:39Z</time>
      </trkpt>
      <trkpt lat="46.519234" lon="10.125941">
        <ele>1854.555</ele>
        <time>2022-07-11T06:15:40Z</time>
      </trkpt>
      <trkpt lat="46.519202" lon="10.125914">
        <ele>1854.510</ele>
        <time>2022-07-11T06:15:41Z</time>
      </trkpt>
      <trkpt lat="46.518723" lon="10.125832">
        <ele>1855.909</ele>
        <time>2022-07-11T06:15:56Z</time>
      </trkpt>
      <trkpt lat="46.518484" lon="10.125947">
        <ele>1855.964</ele>
        <time>2022-07-11T06:16:03Z</time>
      </trkpt>
      <trkpt lat="46.518441" lon="10.125964">
        <ele>1855.963</ele>
        <time>2022-07-11T06:16:04Z</time>
      </trkpt>
      <trkpt lat="46.518396" lon="10.125979">
        <ele>1855.991</ele>
        <time>2022-07-11T06:16:05Z</time>
      </trkpt>
      <trkpt lat="46.518109" lon="10.126003">
        <ele>1856.973</ele>
        <time>2022-07-11T06:16:14Z</time>
      </trkpt>
      <trkpt lat="46.517722" lon="10.125996">
        <ele>1857.459</ele>
        <time>2022-07-11T06:16:30Z</time>
      </trkpt>
      <trkpt lat="46.517099" lon="10.125892">
        <ele>1857.873</ele>
        <time>2022-07-11T06:16:51Z</time>
      </trkpt>
      <trkpt lat="46.516518" lon="10.125991">
        <ele>1858.844</ele>
        <time>2022-07-11T06:17:10Z</time>
      </trkpt>
      <trkpt lat="46.515917" lon="10.126060">
        <ele>1859.872</ele>
        <time>2022-07-11T06:17:31Z</time>
      </trkpt>
      <trkpt lat="46.515361" lon="10.125962">
        <ele>1860.276</ele>
        <time>2022-07-11T06:17:50Z</time>
      </trkpt>
      <trkpt lat="46.515063" lon="10.125587">
        <ele>1860.251</ele>
        <time>2022-07-11T06:18:03Z</time>
      </trkpt>
      <trkpt lat="46.514624" lon="10.125291">
        <ele>1861.201</ele>
        <time>2022-07-11T06:18:20Z</time>
      </trkpt>
      <trkpt lat="46.514120" lon="10.125117">
        <ele>1861.711</ele>
        <time>2022-07-11T06:18:40Z</time>
      </trkpt>
      <trkpt lat="46.513550" lon="10.125008">
        <ele>1862.209</ele>
        <time>2022-07-11T06:19:01Z</time>
      </trkpt>
      <trkpt lat="46.513155" lon="10.124879">
        <ele>1862.616</ele>
        <time>2022-07-11T06:19:17Z</time>
      </trkpt>
      <trkpt lat="46.512859" lon="10.124709">
        <ele>1863.625</ele>
        <time>2022-07-11T06:19:30Z</time>
      </trkpt>
      <trkpt lat="46.512414" lon="10.124505">
        <ele>1863.663</ele>
        <time>2022-07-11T06:19:49Z</time>
      </trkpt>
      <trkpt lat="46.512002" lon="10.124291">
        <ele>1864.675</ele>
        <time>2022-07-11T06:20:07Z</time>
      </trkpt>
      <trkpt lat="46.511556" lon="10.124151">
        <ele>1865.561</ele>
        <time>2022-07-11T06:20:25Z</time>
      </trkpt>
      <trkpt lat="46.511137" lon="10.123999">
        <ele>1865.515</ele>
        <time>2022-07-11T06:20:42Z</time>
      </trkpt>
      <trkpt lat="46.511000" lon="10.123614">
        <ele>1866.056</ele>
        <time>2022-07-11T06:20:54Z</time>
      </trkpt>
      <trkpt lat="46.510962" lon="10.123158">
        <ele>1866.564</ele>
        <time>2022-07-11T06:21:07Z</time>
      </trkpt>
      <trkpt lat="46.510953" lon="10.123139">
        <ele>1867.588</ele>
        <time>2022-07-11T06:21:08Z</time>
      </trkpt>
      <trkpt lat="46.510947" lon="10.123122">
        <ele>1867.524</ele>
        <time>2022-07-11T06:21:09Z</time>
      </trkpt>
      <trkpt lat="46.510940" lon="10.123104">
        <ele>1867.504</ele>
        <time>2022-07-11T06:21:10Z</time>
      </trkpt>
      <trkpt lat="46.510935" lon="10.123086">
        <ele>1867.514</ele>
        <time>2022-07-11T06:21:11Z</time>
      </trkpt>
      <trkpt lat="46.510930" lon="10.123069">
        <ele>1867.509</ele>
        <time>2022-07-11T06:21:12Z</time>
      </trkpt>
      <trkpt lat="46.510931" lon="10.123049">
        <ele>1868.473</ele>
        <time>2022-07-11T06:21:13Z</time>
      </trkpt>
      <trkpt lat="46.510933" lon="10.123027">
        <ele>1868.412</ele>
        <time>2022-07-11T06:21:14Z</time>
      </trkpt>
      <trkpt lat="46.510939" lon="10.123006">
        <ele>1868.490</ele>
        <time>2022-07-11T06:21:15Z</time>
      </trkpt>
      <trkpt lat="46.510947" lon="10.122984">
        <ele>1868.472</ele>
        <time>2022-07-11T06:21:16Z</time>
      </trkpt>
      <trkpt lat="46.510958" lon="10.122964">
        <ele>1868.448</ele>
        <time>2022-07-11T06:21:17Z</time>
      </trkpt>
      <trkpt lat="46.510973" lon="10.122943">
        <ele>1868.422</ele>
        <time>2022-07-11T06:21:18Z</time>
      </trkpt>
      <trkpt lat="46.511047" lon="10.122744">
        <ele>1867.923</ele>
        <time>2022-07-11T06:21:25Z</time>
      </trkpt>
      <trkpt lat="46.511034" lon="10.122701">
        <ele>1867.941</ele>
        <time>2022-07-11T06:21:26Z</time>
      </trkpt>
      <trkpt lat="46.511012" lon="10.122658">
        <ele>1867.945</ele>
        <time>2022-07-11T06:21:27Z</time>
      </trkpt>
      <trkpt lat="46.510984" lon="10.122615">
        <ele>1867.929</ele>
        <time>2022-07-11T06:21:28Z</time>
      </trkpt>
      <trkpt lat="46.510954" lon="10.122575">
        <ele>1867.900</ele>
        <time>2022-07-11T06:21:29Z</time>
      </trkpt>
      <trkpt lat="46.510627" lon="10.122184">
        <ele>1868.920</ele>
        <time>2022-07-11T06:21:44Z</time>
      </trkpt>
      <trkpt lat="46.510202" lon="10.121977">
        <ele>1869.909</ele>
        <time>2022-07-11T06:22:00Z</time>
      </trkpt>
      <trkpt lat="46.509723" lon="10.121911">
        <ele>1870.393</ele>
        <time>2022-07-11T06:22:16Z</time>
      </trkpt>
      <trkpt lat="46.509465" lon="10.122035">
        <ele>1868.952</ele>
        <time>2022-07-11T06:22:23Z</time>
      </trkpt>
      <trkpt lat="46.508939" lon="10.122323">
        <ele>1868.930</ele>
        <time>2022-07-11T06:22:40Z</time>
      </trkpt>
      <trkpt lat="46.508581" lon="10.122425">
        <ele>1869.982</ele>
        <time>2022-07-11T06:22:52Z</time>
      </trkpt>
      <trkpt lat="46.508215" lon="10.122153">
        <ele>1870.358</ele>
        <time>2022-07-11T06:23:06Z</time>
      </trkpt>
      <trkpt lat="46.507711" lon="10.121703">
        <ele>1872.322</ele>
        <time>2022-07-11T06:23:27Z</time>
      </trkpt>
      <trkpt lat="46.507292" lon="10.121403">
        <ele>1872.763</ele>
        <time>2022-07-11T06:23:44Z</time>
      </trkpt>
      <trkpt lat="46.506895" lon="10.121178">
        <ele>1873.291</ele>
        <time>2022-07-11T06:23:59Z</time>
      </trkpt>
      <trkpt lat="46.506441" lon="10.120875">
        <ele>1874.295</ele>
        <time>2022-07-11T06:24:16Z</time>
      </trkpt>
      <trkpt lat="46.506168" lon="10.120734">
        <ele>1874.254</ele>
        <time>2022-07-11T06:24:26Z</time>
      </trkpt>
      <trkpt lat="46.506161" lon="10.120683">
        <ele>1874.256</ele>
        <time>2022-07-11T06:24:27Z</time>
      </trkpt>
      <trkpt lat="46.506164" lon="10.120641">
        <ele>1874.211</ele>
        <time>2022-07-11T06:24:28Z</time>
      </trkpt>
      <trkpt lat="46.506014" lon="10.120272">
        <ele>1874.709</ele>
        <time>2022-07-11T06:24:39Z</time>
      </trkpt>
      <trkpt lat="46.505601" lon="10.119945">
        <ele>1875.196</ele>
        <time>2022-07-11T06:24:55Z</time>
      </trkpt>
      <trkpt lat="46.505096" lon="10.119556">
        <ele>1876.655</ele>
        <time>2022-07-11T06:25:15Z</time>
      </trkpt>
      <trkpt lat="46.504632" lon="10.119054">
        <ele>1877.533</ele>
        <time>2022-07-11T06:25:35Z</time>
      </trkpt>
      <trkpt lat="46.504129" lon="10.118542">
        <ele>1879.565</ele>
        <time>2022-07-11T06:25:57Z</time>
      </trkpt>
      <trkpt lat="46.503598" lon="10.118238">
        <ele>1880.071</ele>
        <time>2022-07-11T06:26:17Z</time>
      </trkpt>
      <trkpt lat="46.503059" lon="10.117954">
        <ele>1880.445</ele>
        <time>2022-07-11T06:26:36Z</time>
      </trkpt>
      <trkpt lat="46.502851" lon="10.117652">
        <ele>1880.966</ele>
        <time>2022-07-11T06:26:47Z</time>
      </trkpt>
      <trkpt lat="46.502625" lon="10.117190">
        <ele>1880.964</ele>
        <time>2022-07-11T06:27:00Z</time>
      </trkpt>
      <trkpt lat="46.502175" lon="10.116724">
        <ele>1881.458</ele>
        <time>2022-07-11T06:27:17Z</time>
      </trkpt>
      <trkpt lat="46.501670" lon="10.116322">
        <ele>1882.456</ele>
        <time>2022-07-11T06:27:36Z</time>
      </trkpt>
      <trkpt lat="46.501277" lon="10.116102">
        <ele>1883.359</ele>
        <time>2022-07-11T06:27:51Z</time>
      </trkpt>
      <trkpt lat="46.500748" lon="10.115914">
        <ele>1883.814</ele>
        <time>2022-07-11T06:28:09Z</time>
      </trkpt>
      <trkpt lat="46.500233" lon="10.115860">
        <ele>1884.809</ele>
        <time>2022-07-11T06:28:27Z</time>
      </trkpt>
      <trkpt lat="46.499709" lon="10.115923">
        <ele>1885.226</ele>
        <time>2022-07-11T06:28:45Z</time>
      </trkpt>
      <trkpt lat="46.499139" lon="10.116009">
        <ele>1887.235</ele>
        <time>2022-07-11T06:29:06Z</time>
      </trkpt>
      <trkpt lat="46.498789" lon="10.115962">
        <ele>1888.153</ele>
        <time>2022-07-11T06:29:21Z</time>
      </trkpt>
      <trkpt lat="46.498385" lon="10.115806">
        <ele>1889.155</ele>
        <time>2022-07-11T06:29:38Z</time>
      </trkpt>
      <trkpt lat="46.498021" lon="10.115638">
        <ele>1889.181</ele>
        <time>2022-07-11T06:29:51Z</time>
      </trkpt>
      <trkpt lat="46.497577" lon="10.115526">
        <ele>1888.695</ele>
        <time>2022-07-11T06:30:03Z</time>
      </trkpt>
      <trkpt lat="46.497118" lon="10.115351">
        <ele>1888.636</ele>
        <time>2022-07-11T06:30:18Z</time>
      </trkpt>
      <trkpt lat="46.496919" lon="10.115255">
        <ele>1889.664</ele>
        <time>2022-07-11T06:30:25Z</time>
      </trkpt>
      <trkpt lat="46.496309" lon="10.114927">
        <ele>1890.588</ele>
        <time>2022-07-11T06:30:47Z</time>
      </trkpt>
      <trkpt lat="46.495799" lon="10.114750">
        <ele>1892.027</ele>
        <time>2022-07-11T06:31:06Z</time>
      </trkpt>
      <trkpt lat="46.495398" lon="10.114491">
        <ele>1892.468</ele>
        <time>2022-07-11T06:31:21Z</time>
      </trkpt>
      <trkpt lat="46.494939" lon="10.114415">
        <ele>1892.414</ele>
        <time>2022-07-11T06:31:37Z</time>
      </trkpt>
      <trkpt lat="46.494428" lon="10.114233">
        <ele>1893.909</ele>
        <time>2022-07-11T06:31:55Z</time>
      </trkpt>
      <trkpt lat="46.493986" lon="10.113857">
        <ele>1894.443</ele>
        <time>2022-07-11T06:32:13Z</time>
      </trkpt>
      <trkpt lat="46.493477" lon="10.113683">
        <ele>1895.882</ele>
        <time>2022-07-11T06:32:31Z</time>
      </trkpt>
      <trkpt lat="46.493016" lon="10.113431">
        <ele>1896.320</ele>
        <time>2022-07-11T06:32:48Z</time>
      </trkpt>
      <trkpt lat="46.492495" lon="10.113004">
        <ele>1897.332</ele>
        <time>2022-07-11T06:33:09Z</time>
      </trkpt>
      <trkpt lat="46.491978" lon="10.112704">
        <ele>1898.728</ele>
        <time>2022-07-11T06:33:29Z</time>
      </trkpt>
      <trkpt lat="46.491428" lon="10.112458">
        <ele>1899.792</ele>
        <time>2022-07-11T06:33:49Z</time>
      </trkpt>
      <trkpt lat="46.491175" lon="10.112259">
        <ele>1901.633</ele>
        <time>2022-07-11T06:34:02Z</time>
      </trkpt>
      <trkpt lat="46.490920" lon="10.112064">
        <ele>1903.521</ele>
        <time>2022-07-11T06:34:18Z</time>
      </trkpt>
      <trkpt lat="46.490615" lon="10.111915">
        <ele>1904.535</ele>
        <time>2022-07-11T06:34:33Z</time>
      </trkpt>
      <trkpt lat="46.490494" lon="10.111879">
        <ele>1904.556</ele>
        <time>2022-07-11T06:34:36Z</time>
      </trkpt>
      <trkpt lat="46.490335" lon="10.111859">
        <ele>1902.159</ele>
        <time>2022-07-11T06:34:39Z</time>
      </trkpt>
      <trkpt lat="46.490288" lon="10.111847">
        <ele>1902.114</ele>
        <time>2022-07-11T06:34:40Z</time>
      </trkpt>
      <trkpt lat="46.490247" lon="10.111825">
        <ele>1902.109</ele>
        <time>2022-07-11T06:34:41Z</time>
      </trkpt>
      <trkpt lat="46.489745" lon="10.111481">
        <ele>1902.126</ele>
        <time>2022-07-11T06:34:54Z</time>
      </trkpt>
      <trkpt lat="46.489256" lon="10.111311">
        <ele>1904.585</ele>
        <time>2022-07-11T06:35:11Z</time>
      </trkpt>
      <trkpt lat="46.488858" lon="10.111010">
        <ele>1904.583</ele>
        <time>2022-07-11T06:35:26Z</time>
      </trkpt>
      <trkpt lat="46.488753" lon="10.110717">
        <ele>1906.975</ele>
        <time>2022-07-11T06:35:35Z</time>
      </trkpt>
      <trkpt lat="46.488587" lon="10.110222">
        <ele>1907.371</ele>
        <time>2022-07-11T06:35:51Z</time>
      </trkpt>
      <trkpt lat="46.488373" lon="10.109547">
        <ele>1907.325</ele>
        <time>2022-07-11T06:36:07Z</time>
      </trkpt>
      <trkpt lat="46.488148" lon="10.109040">
        <ele>1907.836</ele>
        <time>2022-07-11T06:36:22Z</time>
      </trkpt>
      <trkpt lat="46.487814" lon="10.108515">
        <ele>1908.374</ele>
        <time>2022-07-11T06:36:41Z</time>
      </trkpt>
      <trkpt lat="46.487469" lon="10.108228">
        <ele>1909.818</ele>
        <time>2022-07-11T06:36:57Z</time>
      </trkpt>
      <trkpt lat="46.487424" lon="10.108193">
        <ele>1908.873</ele>
        <time>2022-07-11T06:37:00Z</time>
      </trkpt>
      <trkpt lat="46.487112" lon="10.107918">
        <ele>1909.885</ele>
        <time>2022-07-11T06:37:13Z</time>
      </trkpt>
      <trkpt lat="46.486572" lon="10.107854">
        <ele>1911.213</ele>
        <time>2022-07-11T06:37:31Z</time>
      </trkpt>
      <trkpt lat="46.486210" lon="10.107398">
        <ele>1912.209</ele>
        <time>2022-07-11T06:37:49Z</time>
      </trkpt>
      <trkpt lat="46.486191" lon="10.106770">
        <ele>1913.678</ele>
        <time>2022-07-11T06:38:06Z</time>
      </trkpt>
      <trkpt lat="46.486035" lon="10.105920">
        <ele>1914.637</ele>
        <time>2022-07-11T06:38:29Z</time>
      </trkpt>
      <trkpt lat="46.485748" lon="10.105370">
        <ele>1915.075</ele>
        <time>2022-07-11T06:38:48Z</time>
      </trkpt>
      <trkpt lat="46.485462" lon="10.104793">
        <ele>1916.547</ele>
        <time>2022-07-11T06:39:08Z</time>
      </trkpt>
      <trkpt lat="46.485227" lon="10.104256">
        <ele>1917.083</ele>
        <time>2022-07-11T06:39:25Z</time>
      </trkpt>
      <trkpt lat="46.484956" lon="10.104003">
        <ele>1917.927</ele>
        <time>2022-07-11T06:39:39Z</time>
      </trkpt>
      <trkpt lat="46.484915" lon="10.103912">
        <ele>1918.448</ele>
        <time>2022-07-11T06:40:25Z</time>
      </trkpt>
      <trkpt lat="46.484902" lon="10.103894">
        <ele>1918.456</ele>
        <time>2022-07-11T06:40:26Z</time>
      </trkpt>
      <trkpt lat="46.484889" lon="10.103877">
        <ele>1918.950</ele>
        <time>2022-07-11T06:40:27Z</time>
      </trkpt>
      <trkpt lat="46.484874" lon="10.103863">
        <ele>1918.925</ele>
        <time>2022-07-11T06:40:28Z</time>
      </trkpt>
      <trkpt lat="46.484857" lon="10.103853">
        <ele>1918.926</ele>
        <time>2022-07-11T06:40:29Z</time>
      </trkpt>
      <trkpt lat="46.484632" lon="10.103563">
        <ele>1920.808</ele>
        <time>2022-07-11T06:40:47Z</time>
      </trkpt>
      <trkpt lat="46.484453" lon="10.103368">
        <ele>1923.209</ele>
        <time>2022-07-11T06:41:02Z</time>
      </trkpt>
      <trkpt lat="46.484149" lon="10.103164">
        <ele>1924.253</ele>
        <time>2022-07-11T06:41:21Z</time>
      </trkpt>
      <trkpt lat="46.483893" lon="10.103062">
        <ele>1925.672</ele>
        <time>2022-07-11T06:41:37Z</time>
      </trkpt>
      <trkpt lat="46.483639" lon="10.103007">
        <ele>1927.520</ele>
        <time>2022-07-11T06:41:52Z</time>
      </trkpt>
      <trkpt lat="46.483383" lon="10.102792">
        <ele>1927.512</ele>
        <time>2022-07-11T06:42:08Z</time>
      </trkpt>
      <trkpt lat="46.483191" lon="10.102511">
        <ele>1928.528</ele>
        <time>2022-07-11T06:42:23Z</time>
      </trkpt>
      <trkpt lat="46.483031" lon="10.102213">
        <ele>1930.962</ele>
        <time>2022-07-11T06:42:39Z</time>
      </trkpt>
      <trkpt lat="46.482974" lon="10.102093">
        <ele>1931.423</ele>
        <time>2022-07-11T06:42:46Z</time>
      </trkpt>
      <trkpt lat="46.482966" lon="10.102077">
        <ele>1931.921</ele>
        <time>2022-07-11T06:42:47Z</time>
      </trkpt>
      <trkpt lat="46.482956" lon="10.102059">
        <ele>1931.985</ele>
        <time>2022-07-11T06:42:48Z</time>
      </trkpt>
      <trkpt lat="46.482893" lon="10.101739">
        <ele>1933.821</ele>
        <time>2022-07-11T06:43:05Z</time>
      </trkpt>
      <trkpt lat="46.482882" lon="10.101491">
        <ele>1936.241</ele>
        <time>2022-07-11T06:43:23Z</time>
      </trkpt>
      <trkpt lat="46.482880" lon="10.101273">
        <ele>1938.605</ele>
        <time>2022-07-11T06:43:39Z</time>
      </trkpt>
      <trkpt lat="46.482876" lon="10.101248">
        <ele>1938.609</ele>
        <time>2022-07-11T06:43:41Z</time>
      </trkpt>
      <trkpt lat="46.482838" lon="10.100957">
        <ele>1940.553</ele>
        <time>2022-07-11T06:44:00Z</time>
      </trkpt>
      <trkpt lat="46.482670" lon="10.100617">
        <ele>1940.582</ele>
        <time>2022-07-11T06:44:16Z</time>
      </trkpt>
      <trkpt lat="46.482381" lon="10.100183">
        <ele>1937.660</ele>
        <time>2022-07-11T06:44:34Z</time>
      </trkpt>
      <trkpt lat="46.482030" lon="10.099983">
        <ele>1937.152</ele>
        <time>2022-07-11T06:44:48Z</time>
      </trkpt>
      <trkpt lat="46.481689" lon="10.099688">
        <ele>1938.668</ele>
        <time>2022-07-11T06:45:05Z</time>
      </trkpt>
      <trkpt lat="46.481678" lon="10.099670">
        <ele>1938.672</ele>
        <time>2022-07-11T06:45:06Z</time>
      </trkpt>
      <trkpt lat="46.481400" lon="10.099395">
        <ele>1941.053</ele>
        <time>2022-07-11T06:45:24Z</time>
      </trkpt>
      <trkpt lat="46.481151" lon="10.099120">
        <ele>1943.461</ele>
        <time>2022-07-11T06:45:43Z</time>
      </trkpt>
      <trkpt lat="46.480961" lon="10.098886">
        <ele>1943.995</ele>
        <time>2022-07-11T06:46:00Z</time>
      </trkpt>
      <trkpt lat="46.480985" lon="10.098933">
        <ele>1944.493</ele>
        <time>2022-07-11T06:46:13Z</time>
      </trkpt>
      <trkpt lat="46.481001" lon="10.098947">
        <ele>1944.465</ele>
        <time>2022-07-11T06:46:15Z</time>
      </trkpt>
      <trkpt lat="46.481016" lon="10.098959">
        <ele>1944.421</ele>
        <time>2022-07-11T06:46:16Z</time>
      </trkpt>
      <trkpt lat="46.481035" lon="10.098992">
        <ele>1944.409</ele>
        <time>2022-07-11T06:46:28Z</time>
      </trkpt>
      <trkpt lat="46.481006" lon="10.098989">
        <ele>1943.440</ele>
        <time>2022-07-11T06:46:31Z</time>
      </trkpt>
      <trkpt lat="46.480960" lon="10.098979">
        <ele>1942.489</ele>
        <time>2022-07-11T06:46:36Z</time>
      </trkpt>
      <trkpt lat="46.480952" lon="10.098989">
        <ele>1942.017</ele>
        <time>2022-07-11T06:46:37Z</time>
      </trkpt>
      <trkpt lat="46.480909" lon="10.099048">
        <ele>1940.029</ele>
        <time>2022-07-11T06:46:42Z</time>
      </trkpt>
      <trkpt lat="46.480849" lon="10.099123">
        <ele>1939.625</ele>
        <time>2022-07-11T06:46:52Z</time>
      </trkpt>
      <trkpt lat="46.480632" lon="10.099454">
        <ele>1939.129</ele>
        <time>2022-07-11T06:47:07Z</time>
      </trkpt>
      <trkpt lat="46.480523" lon="10.099997">
        <ele>1937.690</ele>
        <time>2022-07-11T06:47:20Z</time>
      </trkpt>
      <trkpt lat="46.480396" lon="10.100585">
        <ele>1934.368</ele>
        <time>2022-07-11T06:47:32Z</time>
      </trkpt>
      <trkpt lat="46.480288" lon="10.101086">
        <ele>1930.922</ele>
        <time>2022-07-11T06:47:43Z</time>
      </trkpt>
      <trkpt lat="46.480200" lon="10.101369">
        <ele>1928.044</ele>
        <time>2022-07-11T06:47:50Z</time>
      </trkpt>
      <trkpt lat="46.480166" lon="10.101391">
        <ele>1927.105</ele>
        <time>2022-07-11T06:47:51Z</time>
      </trkpt>
      <trkpt lat="46.480133" lon="10.101404">
        <ele>1927.115</ele>
        <time>2022-07-11T06:47:52Z</time>
      </trkpt>
      <trkpt lat="46.480101" lon="10.101408">
        <ele>1927.109</ele>
        <time>2022-07-11T06:47:53Z</time>
      </trkpt>
      <trkpt lat="46.480067" lon="10.101407">
        <ele>1927.525</ele>
        <time>2022-07-11T06:47:54Z</time>
      </trkpt>
      <trkpt lat="46.479770" lon="10.101367">
        <ele>1927.544</ele>
        <time>2022-07-11T06:48:07Z</time>
      </trkpt>
      <trkpt lat="46.479566" lon="10.101302">
        <ele>1928.572</ele>
        <time>2022-07-11T06:48:16Z</time>
      </trkpt>
      <trkpt lat="46.479298" lon="10.101100">
        <ele>1929.994</ele>
        <time>2022-07-11T06:48:31Z</time>
      </trkpt>
      <trkpt lat="46.478995" lon="10.100911">
        <ele>1931.930</ele>
        <time>2022-07-11T06:48:48Z</time>
      </trkpt>
      <trkpt lat="46.478805" lon="10.100748">
        <ele>1932.894</ele>
        <time>2022-07-11T06:49:01Z</time>
      </trkpt>
      <trkpt lat="46.478795" lon="10.100745">
        <ele>1933.315</ele>
        <time>2022-07-11T06:49:02Z</time>
      </trkpt>
      <trkpt lat="46.478784" lon="10.100743">
        <ele>1933.353</ele>
        <time>2022-07-11T06:49:03Z</time>
      </trkpt>
      <trkpt lat="46.478775" lon="10.100746">
        <ele>1933.357</ele>
        <time>2022-07-11T06:49:04Z</time>
      </trkpt>
      <trkpt lat="46.478766" lon="10.100757">
        <ele>1933.832</ele>
        <time>2022-07-11T06:49:05Z</time>
      </trkpt>
      <trkpt lat="46.478759" lon="10.100772">
        <ele>1933.892</ele>
        <time>2022-07-11T06:49:06Z</time>
      </trkpt>
      <trkpt lat="46.478747" lon="10.100809">
        <ele>1933.311</ele>
        <time>2022-07-11T06:49:09Z</time>
      </trkpt>
      <trkpt lat="46.478741" lon="10.100825">
        <ele>1933.309</ele>
        <time>2022-07-11T06:49:10Z</time>
      </trkpt>
      <trkpt lat="46.478738" lon="10.100844">
        <ele>1933.374</ele>
        <time>2022-07-11T06:49:11Z</time>
      </trkpt>
      <trkpt lat="46.478735" lon="10.100870">
        <ele>1933.353</ele>
        <time>2022-07-11T06:49:12Z</time>
      </trkpt>
      <trkpt lat="46.478733" lon="10.100898">
        <ele>1933.311</ele>
        <time>2022-07-11T06:49:13Z</time>
      </trkpt>
      <trkpt lat="46.478730" lon="10.100929">
        <ele>1933.343</ele>
        <time>2022-07-11T06:49:14Z</time>
      </trkpt>
      <trkpt lat="46.478752" lon="10.101160">
        <ele>1933.829</ele>
        <time>2022-07-11T06:49:22Z</time>
      </trkpt>
      <trkpt lat="46.478740" lon="10.101183">
        <ele>1933.863</ele>
        <time>2022-07-11T06:49:23Z</time>
      </trkpt>
      <trkpt lat="46.478727" lon="10.101199">
        <ele>1933.884</ele>
        <time>2022-07-11T06:49:24Z</time>
      </trkpt>
      <trkpt lat="46.478712" lon="10.101209">
        <ele>1933.852</ele>
        <time>2022-07-11T06:49:25Z</time>
      </trkpt>
      <trkpt lat="46.478694" lon="10.101213">
        <ele>1933.856</ele>
        <time>2022-07-11T06:49:26Z</time>
      </trkpt>
      <trkpt lat="46.478676" lon="10.101216">
        <ele>1933.865</ele>
        <time>2022-07-11T06:49:27Z</time>
      </trkpt>
      <trkpt lat="46.478657" lon="10.101221">
        <ele>1933.868</ele>
        <time>2022-07-11T06:49:28Z</time>
      </trkpt>
      <trkpt lat="46.478364" lon="10.101297">
        <ele>1934.714</ele>
        <time>2022-07-11T06:49:43Z</time>
      </trkpt>
      <trkpt lat="46.478106" lon="10.101243">
        <ele>1934.709</ele>
        <time>2022-07-11T06:49:51Z</time>
      </trkpt>
      <trkpt lat="46.477900" lon="10.101210">
        <ele>1932.867</ele>
        <time>2022-07-11T06:49:55Z</time>
      </trkpt>
      <trkpt lat="46.477663" lon="10.101089">
        <ele>1934.366</ele>
        <time>2022-07-11T06:50:03Z</time>
      </trkpt>
      <trkpt lat="46.477290" lon="10.100913">
        <ele>1934.354</ele>
        <time>2022-07-11T06:50:18Z</time>
      </trkpt>
      <trkpt lat="46.476841" lon="10.100581">
        <ele>1934.786</ele>
        <time>2022-07-11T06:50:38Z</time>
      </trkpt>
      <trkpt lat="46.476469" lon="10.100275">
        <ele>1936.272</ele>
        <time>2022-07-11T06:50:55Z</time>
      </trkpt>
      <trkpt lat="46.476128" lon="10.100039">
        <ele>1937.196</ele>
        <time>2022-07-11T06:51:10Z</time>
      </trkpt>
      <trkpt lat="46.475773" lon="10.099759">
        <ele>1939.187</ele>
        <time>2022-07-11T06:51:29Z</time>
      </trkpt>
      <trkpt lat="46.475449" lon="10.099542">
        <ele>1939.635</ele>
        <time>2022-07-11T06:51:45Z</time>
      </trkpt>
      <trkpt lat="46.475113" lon="10.099251">
        <ele>1939.619</ele>
        <time>2022-07-11T06:52:02Z</time>
      </trkpt>
      <trkpt lat="46.474816" lon="10.098882">
        <ele>1941.048</ele>
        <time>2022-07-11T06:52:20Z</time>
      </trkpt>
      <trkpt lat="46.474475" lon="10.098595">
        <ele>1942.461</ele>
        <time>2022-07-11T06:52:39Z</time>
      </trkpt>
      <trkpt lat="46.474158" lon="10.098425">
        <ele>1942.917</ele>
        <time>2022-07-11T06:52:56Z</time>
      </trkpt>
      <trkpt lat="46.473812" lon="10.098217">
        <ele>1944.809</ele>
        <time>2022-07-11T06:53:16Z</time>
      </trkpt>
      <trkpt lat="46.473538" lon="10.097921">
        <ele>1945.315</ele>
        <time>2022-07-11T06:53:34Z</time>
      </trkpt>
      <trkpt lat="46.473310" lon="10.097584">
        <ele>1947.224</ele>
        <time>2022-07-11T06:53:53Z</time>
      </trkpt>
      <trkpt lat="46.473022" lon="10.097177">
        <ele>1948.742</ele>
        <time>2022-07-11T06:54:14Z</time>
      </trkpt>
      <trkpt lat="46.472770" lon="10.096810">
        <ele>1950.114</ele>
        <time>2022-07-11T06:54:33Z</time>
      </trkpt>
      <trkpt lat="46.472515" lon="10.096540">
        <ele>1951.120</ele>
        <time>2022-07-11T06:54:50Z</time>
      </trkpt>
      <trkpt lat="46.472308" lon="10.096226">
        <ele>1952.044</ele>
        <time>2022-07-11T06:55:06Z</time>
      </trkpt>
      <trkpt lat="46.472299" lon="10.096082">
        <ele>1951.695</ele>
        <time>2022-07-11T07:01:19Z</time>
      </trkpt>
      <trkpt lat="46.472256" lon="10.096060">
        <ele>1951.663</ele>
        <time>2022-07-11T07:01:30Z</time>
      </trkpt>
      <trkpt lat="46.472225" lon="10.095989">
        <ele>1952.027</ele>
        <time>2022-07-11T07:01:35Z</time>
      </trkpt>
      <trkpt lat="46.472222" lon="10.095975">
        <ele>1952.565</ele>
        <time>2022-07-11T07:01:36Z</time>
      </trkpt>
      <trkpt lat="46.472214" lon="10.095959">
        <ele>1952.568</ele>
        <time>2022-07-11T07:01:37Z</time>
      </trkpt>
      <trkpt lat="46.472208" lon="10.095944">
        <ele>1952.514</ele>
        <time>2022-07-11T07:01:38Z</time>
      </trkpt>
      <trkpt lat="46.472199" lon="10.095929">
        <ele>1953.009</ele>
        <time>2022-07-11T07:01:39Z</time>
      </trkpt>
      <trkpt lat="46.472188" lon="10.095914">
        <ele>1953.097</ele>
        <time>2022-07-11T07:01:40Z</time>
      </trkpt>
      <trkpt lat="46.472176" lon="10.095901">
        <ele>1953.066</ele>
        <time>2022-07-11T07:01:41Z</time>
      </trkpt>
      <trkpt lat="46.472162" lon="10.095890">
        <ele>1953.064</ele>
        <time>2022-07-11T07:01:42Z</time>
      </trkpt>
      <trkpt lat="46.472150" lon="10.095879">
        <ele>1954.076</ele>
        <time>2022-07-11T07:01:43Z</time>
      </trkpt>
      <trkpt lat="46.472139" lon="10.095868">
        <ele>1954.032</ele>
        <time>2022-07-11T07:01:44Z</time>
      </trkpt>
      <trkpt lat="46.471981" lon="10.095736">
        <ele>1955.486</ele>
        <time>2022-07-11T07:01:59Z</time>
      </trkpt>
      <trkpt lat="46.471808" lon="10.095638">
        <ele>1957.887</ele>
        <time>2022-07-11T07:02:15Z</time>
      </trkpt>
      <trkpt lat="46.471685" lon="10.095618">
        <ele>1958.875</ele>
        <time>2022-07-11T07:02:26Z</time>
      </trkpt>
      <trkpt lat="46.471496" lon="10.095678">
        <ele>1961.259</ele>
        <time>2022-07-11T07:02:44Z</time>
      </trkpt>
      <trkpt lat="46.471420" lon="10.095712">
        <ele>1961.777</ele>
        <time>2022-07-11T07:02:51Z</time>
      </trkpt>
      <trkpt lat="46.471267" lon="10.095727">
        <ele>1964.161</ele>
        <time>2022-07-11T07:03:06Z</time>
      </trkpt>
      <trkpt lat="46.471019" lon="10.095718">
        <ele>1966.027</ele>
        <time>2022-07-11T07:03:24Z</time>
      </trkpt>
      <trkpt lat="46.471006" lon="10.095724">
        <ele>1966.009</ele>
        <time>2022-07-11T07:03:25Z</time>
      </trkpt>
      <trkpt lat="46.470993" lon="10.095728">
        <ele>1966.528</ele>
        <time>2022-07-11T07:03:26Z</time>
      </trkpt>
      <trkpt lat="46.470981" lon="10.095729">
        <ele>1966.577</ele>
        <time>2022-07-11T07:03:27Z</time>
      </trkpt>
      <trkpt lat="46.470968" lon="10.095727">
        <ele>1966.545</ele>
        <time>2022-07-11T07:03:28Z</time>
      </trkpt>
      <trkpt lat="46.470737" lon="10.095695">
        <ele>1968.987</ele>
        <time>2022-07-11T07:03:47Z</time>
      </trkpt>
      <trkpt lat="46.470589" lon="10.095692">
        <ele>1969.883</ele>
        <time>2022-07-11T07:03:58Z</time>
      </trkpt>
      <trkpt lat="46.470577" lon="10.095698">
        <ele>1969.817</ele>
        <time>2022-07-11T07:03:59Z</time>
      </trkpt>
      <trkpt lat="46.470562" lon="10.095702">
        <ele>1969.848</ele>
        <time>2022-07-11T07:04:00Z</time>
      </trkpt>
      <trkpt lat="46.470350" lon="10.095749">
        <ele>1971.816</ele>
        <time>2022-07-11T07:04:17Z</time>
      </trkpt>
      <trkpt lat="46.470201" lon="10.095752">
        <ele>1972.770</ele>
        <time>2022-07-11T07:04:26Z</time>
      </trkpt>
      <trkpt lat="46.470187" lon="10.095747">
        <ele>1972.762</ele>
        <time>2022-07-11T07:04:27Z</time>
      </trkpt>
      <trkpt lat="46.470172" lon="10.095741">
        <ele>1972.783</ele>
        <time>2022-07-11T07:04:28Z</time>
      </trkpt>
      <trkpt lat="46.469891" lon="10.095691">
        <ele>1974.211</ele>
        <time>2022-07-11T07:04:45Z</time>
      </trkpt>
      <trkpt lat="46.469621" lon="10.095533">
        <ele>1974.209</ele>
        <time>2022-07-11T07:05:02Z</time>
      </trkpt>
      <trkpt lat="46.469410" lon="10.095220">
        <ele>1975.617</ele>
        <time>2022-07-11T07:05:20Z</time>
      </trkpt>
      <trkpt lat="46.469392" lon="10.095198">
        <ele>1975.666</ele>
        <time>2022-07-11T07:05:21Z</time>
      </trkpt>
      <trkpt lat="46.468976" lon="10.094800">
        <ele>1976.664</ele>
        <time>2022-07-11T07:05:41Z</time>
      </trkpt>
      <trkpt lat="46.468668" lon="10.094220">
        <ele>1978.556</ele>
        <time>2022-07-11T07:06:02Z</time>
      </trkpt>
      <trkpt lat="46.468420" lon="10.093872">
        <ele>1979.422</ele>
        <time>2022-07-11T07:06:17Z</time>
      </trkpt>
      <trkpt lat="46.468272" lon="10.093406">
        <ele>1980.926</ele>
        <time>2022-07-11T07:06:33Z</time>
      </trkpt>
      <trkpt lat="46.468060" lon="10.092917">
        <ele>1982.377</ele>
        <time>2022-07-11T07:06:50Z</time>
      </trkpt>
      <trkpt lat="46.467744" lon="10.092411">
        <ele>1984.355</ele>
        <time>2022-07-11T07:07:11Z</time>
      </trkpt>
      <trkpt lat="46.467474" lon="10.092227">
        <ele>1986.789</ele>
        <time>2022-07-11T07:07:24Z</time>
      </trkpt>
      <trkpt lat="46.467432" lon="10.092196">
        <ele>1985.221</ele>
        <time>2022-07-11T07:07:26Z</time>
      </trkpt>
      <trkpt lat="46.466953" lon="10.091858">
        <ele>1987.641</ele>
        <time>2022-07-11T07:07:48Z</time>
      </trkpt>
      <trkpt lat="46.466490" lon="10.091474">
        <ele>1990.005</ele>
        <time>2022-07-11T07:08:12Z</time>
      </trkpt>
      <trkpt lat="46.466222" lon="10.091170">
        <ele>1991.909</ele>
        <time>2022-07-11T07:08:30Z</time>
      </trkpt>
      <trkpt lat="46.465929" lon="10.090657">
        <ele>1994.823</ele>
        <time>2022-07-11T07:08:54Z</time>
      </trkpt>
      <trkpt lat="46.465684" lon="10.090339">
        <ele>1997.242</ele>
        <time>2022-07-11T07:09:12Z</time>
      </trkpt>
      <trkpt lat="46.465351" lon="10.090120">
        <ele>1999.260</ele>
        <time>2022-07-11T07:09:32Z</time>
      </trkpt>
      <trkpt lat="46.465057" lon="10.089914">
        <ele>2001.152</ele>
        <time>2022-07-11T07:09:50Z</time>
      </trkpt>
      <trkpt lat="46.464750" lon="10.089680">
        <ele>2003.038</ele>
        <time>2022-07-11T07:10:09Z</time>
      </trkpt>
      <trkpt lat="46.464487" lon="10.089407">
        <ele>2005.442</ele>
        <time>2022-07-11T07:10:28Z</time>
      </trkpt>
      <trkpt lat="46.464204" lon="10.089161">
        <ele>2007.893</ele>
        <time>2022-07-11T07:10:47Z</time>
      </trkpt>
      <trkpt lat="46.463919" lon="10.088852">
        <ele>2009.711</ele>
        <time>2022-07-11T07:11:07Z</time>
      </trkpt>
      <trkpt lat="46.463688" lon="10.088568">
        <ele>2011.795</ele>
        <time>2022-07-11T07:11:25Z</time>
      </trkpt>
      <trkpt lat="46.463429" lon="10.088298">
        <ele>2013.616</ele>
        <time>2022-07-11T07:11:43Z</time>
      </trkpt>
      <trkpt lat="46.463205" lon="10.087942">
        <ele>2016.076</ele>
        <time>2022-07-11T07:12:02Z</time>
      </trkpt>
      <trkpt lat="46.463010" lon="10.087486">
        <ele>2018.913</ele>
        <time>2022-07-11T07:12:23Z</time>
      </trkpt>
      <trkpt lat="46.462862" lon="10.087134">
        <ele>2020.309</ele>
        <time>2022-07-11T07:12:39Z</time>
      </trkpt>
      <trkpt lat="46.462740" lon="10.086648">
        <ele>2022.742</ele>
        <time>2022-07-11T07:12:59Z</time>
      </trkpt>
      <trkpt lat="46.462705" lon="10.086090">
        <ele>2025.161</ele>
        <time>2022-07-11T07:13:21Z</time>
      </trkpt>
      <trkpt lat="46.462627" lon="10.085672">
        <ele>2027.529</ele>
        <time>2022-07-11T07:13:39Z</time>
      </trkpt>
      <trkpt lat="46.462455" lon="10.085225">
        <ele>2031.851</ele>
        <time>2022-07-11T07:14:00Z</time>
      </trkpt>
      <trkpt lat="46.462450" lon="10.085200">
        <ele>2031.837</ele>
        <time>2022-07-11T07:14:01Z</time>
      </trkpt>
      <trkpt lat="46.462442" lon="10.085148">
        <ele>2030.421</ele>
        <time>2022-07-11T07:14:03Z</time>
      </trkpt>
      <trkpt lat="46.462461" lon="10.084875">
        <ele>2031.812</ele>
        <time>2022-07-11T07:14:14Z</time>
      </trkpt>
      <trkpt lat="46.462575" lon="10.084410">
        <ele>2034.220</ele>
        <time>2022-07-11T07:14:34Z</time>
      </trkpt>
      <trkpt lat="46.462616" lon="10.083970">
        <ele>2037.184</ele>
        <time>2022-07-11T07:14:51Z</time>
      </trkpt>
      <trkpt lat="46.462657" lon="10.083541">
        <ele>2038.671</ele>
        <time>2022-07-11T07:15:09Z</time>
      </trkpt>
      <trkpt lat="46.462735" lon="10.083012">
        <ele>2040.541</ele>
        <time>2022-07-11T07:15:30Z</time>
      </trkpt>
      <trkpt lat="46.462701" lon="10.082609">
        <ele>2042.415</ele>
        <time>2022-07-11T07:15:45Z</time>
      </trkpt>
      <trkpt lat="46.462537" lon="10.082256">
        <ele>2043.909</ele>
        <time>2022-07-11T07:16:02Z</time>
      </trkpt>
      <trkpt lat="46.462480" lon="10.082067">
        <ele>2045.368</ele>
        <time>2022-07-11T07:16:10Z</time>
      </trkpt>
      <trkpt lat="46.462485" lon="10.082040">
        <ele>2045.327</ele>
        <time>2022-07-11T07:16:11Z</time>
      </trkpt>
      <trkpt lat="46.462486" lon="10.082010">
        <ele>2045.325</ele>
        <time>2022-07-11T07:16:12Z</time>
      </trkpt>
      <trkpt lat="46.462484" lon="10.081986">
        <ele>2045.847</ele>
        <time>2022-07-11T07:16:13Z</time>
      </trkpt>
      <trkpt lat="46.462478" lon="10.081961">
        <ele>2045.863</ele>
        <time>2022-07-11T07:16:14Z</time>
      </trkpt>
      <trkpt lat="46.462470" lon="10.081937">
        <ele>2045.887</ele>
        <time>2022-07-11T07:16:15Z</time>
      </trkpt>
      <trkpt lat="46.462338" lon="10.081468">
        <ele>2047.748</ele>
        <time>2022-07-11T07:16:34Z</time>
      </trkpt>
      <trkpt lat="46.462180" lon="10.081006">
        <ele>2050.196</ele>
        <time>2022-07-11T07:16:55Z</time>
      </trkpt>
      <trkpt lat="46.461975" lon="10.080513">
        <ele>2052.040</ele>
        <time>2022-07-11T07:17:17Z</time>
      </trkpt>
      <trkpt lat="46.461751" lon="10.080110">
        <ele>2053.998</ele>
        <time>2022-07-11T07:17:37Z</time>
      </trkpt>
      <trkpt lat="46.461662" lon="10.079853">
        <ele>2055.415</ele>
        <time>2022-07-11T07:17:49Z</time>
      </trkpt>
      <trkpt lat="46.461650" lon="10.079849">
        <ele>2054.926</ele>
        <time>2022-07-11T07:18:03Z</time>
      </trkpt>
      <trkpt lat="46.461649" lon="10.079809">
        <ele>2056.409</ele>
        <time>2022-07-11T07:18:35Z</time>
      </trkpt>
      <trkpt lat="46.461648" lon="10.079811">
        <ele>2056.490</ele>
        <time>2022-07-11T07:18:36Z</time>
      </trkpt>
      <trkpt lat="46.461671" lon="10.079797">
        <ele>2056.429</ele>
        <time>2022-07-11T07:18:38Z</time>
      </trkpt>
      <trkpt lat="46.461682" lon="10.079773">
        <ele>2056.437</ele>
        <time>2022-07-11T07:18:39Z</time>
      </trkpt>
      <trkpt lat="46.461682" lon="10.079752">
        <ele>2056.429</ele>
        <time>2022-07-11T07:18:40Z</time>
      </trkpt>
      <trkpt lat="46.461677" lon="10.079727">
        <ele>2056.435</ele>
        <time>2022-07-11T07:18:41Z</time>
      </trkpt>
      <trkpt lat="46.461669" lon="10.079698">
        <ele>2056.499</ele>
        <time>2022-07-11T07:18:42Z</time>
      </trkpt>
      <trkpt lat="46.461659" lon="10.079669">
        <ele>2056.420</ele>
        <time>2022-07-11T07:18:43Z</time>
      </trkpt>
      <trkpt lat="46.461648" lon="10.079638">
        <ele>2056.488</ele>
        <time>2022-07-11T07:18:44Z</time>
      </trkpt>
      <trkpt lat="46.461577" lon="10.079080">
        <ele>2059.722</ele>
        <time>2022-07-11T07:19:02Z</time>
      </trkpt>
      <trkpt lat="46.461592" lon="10.078603">
        <ele>2061.237</ele>
        <time>2022-07-11T07:19:18Z</time>
      </trkpt>
      <trkpt lat="46.461695" lon="10.078207">
        <ele>2063.649</ele>
        <time>2022-07-11T07:19:33Z</time>
      </trkpt>
      <trkpt lat="46.461757" lon="10.077756">
        <ele>2066.913</ele>
        <time>2022-07-11T07:19:51Z</time>
      </trkpt>
      <trkpt lat="46.461791" lon="10.077271">
        <ele>2068.409</ele>
        <time>2022-07-11T07:20:09Z</time>
      </trkpt>
      <trkpt lat="46.461692" lon="10.076926">
        <ele>2069.864</ele>
        <time>2022-07-11T07:20:23Z</time>
      </trkpt>
      <trkpt lat="46.461590" lon="10.076530">
        <ele>2071.733</ele>
        <time>2022-07-11T07:20:40Z</time>
      </trkpt>
      <trkpt lat="46.461617" lon="10.076287">
        <ele>2073.231</ele>
        <time>2022-07-11T07:20:52Z</time>
      </trkpt>
      <trkpt lat="46.461570" lon="10.075799">
        <ele>2075.693</ele>
        <time>2022-07-11T07:21:11Z</time>
      </trkpt>
      <trkpt lat="46.461530" lon="10.075347">
        <ele>2078.079</ele>
        <time>2022-07-11T07:21:29Z</time>
      </trkpt>
      <trkpt lat="46.461476" lon="10.074729">
        <ele>2080.423</ele>
        <time>2022-07-11T07:21:54Z</time>
      </trkpt>
      <trkpt lat="46.461431" lon="10.074156">
        <ele>2083.394</ele>
        <time>2022-07-11T07:22:17Z</time>
      </trkpt>
      <trkpt lat="46.461487" lon="10.073646">
        <ele>2086.262</ele>
        <time>2022-07-11T07:22:38Z</time>
      </trkpt>
      <trkpt lat="46.461654" lon="10.073153">
        <ele>2089.076</ele>
        <time>2022-07-11T07:23:00Z</time>
      </trkpt>
      <trkpt lat="46.461895" lon="10.072707">
        <ele>2091.419</ele>
        <time>2022-07-11T07:23:22Z</time>
      </trkpt>
      <trkpt lat="46.461987" lon="10.072374">
        <ele>2092.909</ele>
        <time>2022-07-11T07:23:36Z</time>
      </trkpt>
      <trkpt lat="46.462012" lon="10.071904">
        <ele>2095.319</ele>
        <time>2022-07-11T07:23:54Z</time>
      </trkpt>
      <trkpt lat="46.461948" lon="10.071387">
        <ele>2097.209</ele>
        <time>2022-07-11T07:24:14Z</time>
      </trkpt>
      <trkpt lat="46.461797" lon="10.070845">
        <ele>2100.132</ele>
        <time>2022-07-11T07:24:37Z</time>
      </trkpt>
      <trkpt lat="46.461790" lon="10.070820">
        <ele>2100.141</ele>
        <time>2022-07-11T07:24:38Z</time>
      </trkpt>
      <trkpt lat="46.461786" lon="10.070792">
        <ele>2100.689</ele>
        <time>2022-07-11T07:24:39Z</time>
      </trkpt>
      <trkpt lat="46.461682" lon="10.070298">
        <ele>2103.011</ele>
        <time>2022-07-11T07:24:59Z</time>
      </trkpt>
      <trkpt lat="46.461562" lon="10.069739">
        <ele>2104.967</ele>
        <time>2022-07-11T07:25:21Z</time>
      </trkpt>
      <trkpt lat="46.461438" lon="10.069285">
        <ele>2107.371</ele>
        <time>2022-07-11T07:25:40Z</time>
      </trkpt>
      <trkpt lat="46.461402" lon="10.069229">
        <ele>2108.742</ele>
        <time>2022-07-11T07:25:53Z</time>
      </trkpt>
      <trkpt lat="46.461405" lon="10.069227">
        <ele>2108.780</ele>
        <time>2022-07-11T07:26:09Z</time>
      </trkpt>
      <trkpt lat="46.461425" lon="10.069209">
        <ele>2108.774</ele>
        <time>2022-07-11T07:26:19Z</time>
      </trkpt>
      <trkpt lat="46.461437" lon="10.069195">
        <ele>2108.797</ele>
        <time>2022-07-11T07:26:20Z</time>
      </trkpt>
      <trkpt lat="46.461443" lon="10.069176">
        <ele>2108.723</ele>
        <time>2022-07-11T07:26:21Z</time>
      </trkpt>
      <trkpt lat="46.461445" lon="10.069155">
        <ele>2108.725</ele>
        <time>2022-07-11T07:26:22Z</time>
      </trkpt>
      <trkpt lat="46.461444" lon="10.069126">
        <ele>2108.709</ele>
        <time>2022-07-11T07:26:23Z</time>
      </trkpt>
      <trkpt lat="46.461441" lon="10.069101">
        <ele>2108.770</ele>
        <time>2022-07-11T07:26:24Z</time>
      </trkpt>
      <trkpt lat="46.461437" lon="10.069076">
        <ele>2108.739</ele>
        <time>2022-07-11T07:26:25Z</time>
      </trkpt>
      <trkpt lat="46.461434" lon="10.069049">
        <ele>2108.747</ele>
        <time>2022-07-11T07:26:26Z</time>
      </trkpt>
      <trkpt lat="46.461409" lon="10.068436">
        <ele>2111.619</ele>
        <time>2022-07-11T07:26:49Z</time>
      </trkpt>
      <trkpt lat="46.461401" lon="10.067903">
        <ele>2113.655</ele>
        <time>2022-07-11T07:27:08Z</time>
      </trkpt>
      <trkpt lat="46.461401" lon="10.067425">
        <ele>2115.539</ele>
        <time>2022-07-11T07:27:26Z</time>
      </trkpt>
      <trkpt lat="46.461402" lon="10.066892">
        <ele>2117.910</ele>
        <time>2022-07-11T07:27:46Z</time>
      </trkpt>
      <trkpt lat="46.461405" lon="10.066380">
        <ele>2119.348</ele>
        <time>2022-07-11T07:28:05Z</time>
      </trkpt>
      <trkpt lat="46.461401" lon="10.065942">
        <ele>2121.272</ele>
        <time>2022-07-11T07:28:21Z</time>
      </trkpt>
      <trkpt lat="46.461268" lon="10.065448">
        <ele>2122.739</ele>
        <time>2022-07-11T07:28:40Z</time>
      </trkpt>
      <trkpt lat="46.461071" lon="10.065028">
        <ele>2124.601</ele>
        <time>2022-07-11T07:28:59Z</time>
      </trkpt>
      <trkpt lat="46.460881" lon="10.064673">
        <ele>2127.521</ele>
        <time>2022-07-11T07:29:17Z</time>
      </trkpt>
      <trkpt lat="46.460727" lon="10.064288">
        <ele>2130.409</ele>
        <time>2022-07-11T07:29:36Z</time>
      </trkpt>
      <trkpt lat="46.460617" lon="10.063783">
        <ele>2133.364</ele>
        <time>2022-07-11T07:29:58Z</time>
      </trkpt>
      <trkpt lat="46.460557" lon="10.063397">
        <ele>2135.743</ele>
        <time>2022-07-11T07:30:16Z</time>
      </trkpt>
      <trkpt lat="46.460532" lon="10.062951">
        <ele>2138.121</ele>
        <time>2022-07-11T07:30:37Z</time>
      </trkpt>
      <trkpt lat="46.460499" lon="10.062467">
        <ele>2140.523</ele>
        <time>2022-07-11T07:30:59Z</time>
      </trkpt>
      <trkpt lat="46.460484" lon="10.062107">
        <ele>2142.449</ele>
        <time>2022-07-11T07:31:16Z</time>
      </trkpt>
      <trkpt lat="46.460453" lon="10.061671">
        <ele>2145.373</ele>
        <time>2022-07-11T07:31:36Z</time>
      </trkpt>
      <trkpt lat="46.460371" lon="10.061272">
        <ele>2146.724</ele>
        <time>2022-07-11T07:31:55Z</time>
      </trkpt>
      <trkpt lat="46.460222" lon="10.060954">
        <ele>2149.662</ele>
        <time>2022-07-11T07:32:13Z</time>
      </trkpt>
      <trkpt lat="46.460019" lon="10.060561">
        <ele>2152.066</ele>
        <time>2022-07-11T07:32:35Z</time>
      </trkpt>
      <trkpt lat="46.459889" lon="10.060299">
        <ele>2153.928</ele>
        <time>2022-07-11T07:32:50Z</time>
      </trkpt>
      <trkpt lat="46.459733" lon="10.060011">
        <ele>2155.889</ele>
        <time>2022-07-11T07:33:07Z</time>
      </trkpt>
      <trkpt lat="46.459558" lon="10.059675">
        <ele>2158.317</ele>
        <time>2022-07-11T07:33:26Z</time>
      </trkpt>
      <trkpt lat="46.459405" lon="10.059363">
        <ele>2160.709</ele>
        <time>2022-07-11T07:33:43Z</time>
      </trkpt>
      <trkpt lat="46.459273" lon="10.059086">
        <ele>2163.193</ele>
        <time>2022-07-11T07:33:59Z</time>
      </trkpt>
      <trkpt lat="46.459103" lon="10.058742">
        <ele>2165.542</ele>
        <time>2022-07-11T07:34:18Z</time>
      </trkpt>
      <trkpt lat="46.458931" lon="10.058421">
        <ele>2166.930</ele>
        <time>2022-07-11T07:34:36Z</time>
      </trkpt>
      <trkpt lat="46.458725" lon="10.058186">
        <ele>2169.342</ele>
        <time>2022-07-11T07:34:54Z</time>
      </trkpt>
      <trkpt lat="46.458488" lon="10.057964">
        <ele>2171.738</ele>
        <time>2022-07-11T07:35:13Z</time>
      </trkpt>
      <trkpt lat="46.458266" lon="10.057758">
        <ele>2174.172</ele>
        <time>2022-07-11T07:35:31Z</time>
      </trkpt>
      <trkpt lat="46.458219" lon="10.057714">
        <ele>2174.683</ele>
        <time>2022-07-11T07:35:35Z</time>
      </trkpt>
      <trkpt lat="46.458204" lon="10.057706">
        <ele>2174.691</ele>
        <time>2022-07-11T07:35:36Z</time>
      </trkpt>
      <trkpt lat="46.458181" lon="10.057684">
        <ele>2174.685</ele>
        <time>2022-07-11T07:35:38Z</time>
      </trkpt>
      <trkpt lat="46.458174" lon="10.057670">
        <ele>2174.627</ele>
        <time>2022-07-11T07:35:39Z</time>
      </trkpt>
      <trkpt lat="46.458164" lon="10.057685">
        <ele>2175.668</ele>
        <time>2022-07-11T07:35:51Z</time>
      </trkpt>
      <trkpt lat="46.458166" lon="10.057649">
        <ele>2175.614</ele>
        <time>2022-07-11T07:36:10Z</time>
      </trkpt>
      <trkpt lat="46.458158" lon="10.057641">
        <ele>2175.609</ele>
        <time>2022-07-11T07:36:11Z</time>
      </trkpt>
      <trkpt lat="46.458146" lon="10.057630">
        <ele>2175.623</ele>
        <time>2022-07-11T07:36:12Z</time>
      </trkpt>
      <trkpt lat="46.458135" lon="10.057613">
        <ele>2175.682</ele>
        <time>2022-07-11T07:36:13Z</time>
      </trkpt>
      <trkpt lat="46.457927" lon="10.057374">
        <ele>2177.570</ele>
        <time>2022-07-11T07:36:30Z</time>
      </trkpt>
      <trkpt lat="46.457493" lon="10.057131">
        <ele>2180.842</ele>
        <time>2022-07-11T07:36:55Z</time>
      </trkpt>
      <trkpt lat="46.457150" lon="10.056797">
        <ele>2183.728</ele>
        <time>2022-07-11T07:37:18Z</time>
      </trkpt>
      <trkpt lat="46.456877" lon="10.056809">
        <ele>2186.142</ele>
        <time>2022-07-11T07:37:40Z</time>
      </trkpt>
      <trkpt lat="46.456605" lon="10.057033">
        <ele>2188.553</ele>
        <time>2022-07-11T07:37:59Z</time>
      </trkpt>
      <trkpt lat="46.456349" lon="10.057240">
        <ele>2190.541</ele>
        <time>2022-07-11T07:38:17Z</time>
      </trkpt>
      <trkpt lat="46.456140" lon="10.057373">
        <ele>2192.495</ele>
        <time>2022-07-11T07:38:32Z</time>
      </trkpt>
      <trkpt lat="46.455837" lon="10.057454">
        <ele>2195.332</ele>
        <time>2022-07-11T07:38:53Z</time>
      </trkpt>
      <trkpt lat="46.455457" lon="10.057435">
        <ele>2198.692</ele>
        <time>2022-07-11T07:39:15Z</time>
      </trkpt>
      <trkpt lat="46.455212" lon="10.057360">
        <ele>2200.511</ele>
        <time>2022-07-11T07:39:33Z</time>
      </trkpt>
      <trkpt lat="46.454926" lon="10.057274">
        <ele>2202.509</ele>
        <time>2022-07-11T07:39:52Z</time>
      </trkpt>
      <trkpt lat="46.454650" lon="10.057133">
        <ele>2204.984</ele>
        <time>2022-07-11T07:40:11Z</time>
      </trkpt>
      <trkpt lat="46.454606" lon="10.057122">
        <ele>2204.933</ele>
        <time>2022-07-11T07:40:14Z</time>
      </trkpt>
      <trkpt lat="46.454592" lon="10.057118">
        <ele>2206.321</ele>
        <time>2022-07-11T07:40:15Z</time>
      </trkpt>
      <trkpt lat="46.454311" lon="10.057078">
        <ele>2207.893</ele>
        <time>2022-07-11T07:40:34Z</time>
      </trkpt>
      <trkpt lat="46.454072" lon="10.057068">
        <ele>2209.799</ele>
        <time>2022-07-11T07:40:50Z</time>
      </trkpt>
      <trkpt lat="46.453753" lon="10.057030">
        <ele>2212.173</ele>
        <time>2022-07-11T07:41:10Z</time>
      </trkpt>
      <trkpt lat="46.453460" lon="10.056954">
        <ele>2215.024</ele>
        <time>2022-07-11T07:41:29Z</time>
      </trkpt>
      <trkpt lat="46.453139" lon="10.056897">
        <ele>2217.932</ele>
        <time>2022-07-11T07:41:50Z</time>
      </trkpt>
      <trkpt lat="46.452845" lon="10.056834">
        <ele>2219.856</ele>
        <time>2022-07-11T07:42:08Z</time>
      </trkpt>
      <trkpt lat="46.452492" lon="10.056728">
        <ele>2222.748</ele>
        <time>2022-07-11T07:42:30Z</time>
      </trkpt>
      <trkpt lat="46.452264" lon="10.056652">
        <ele>2225.561</ele>
        <time>2022-07-11T07:42:48Z</time>
      </trkpt>
      <trkpt lat="46.452004" lon="10.056677">
        <ele>2227.017</ele>
        <time>2022-07-11T07:43:03Z</time>
      </trkpt>
      <trkpt lat="46.451701" lon="10.056640">
        <ele>2229.409</ele>
        <time>2022-07-11T07:43:21Z</time>
      </trkpt>
      <trkpt lat="46.451420" lon="10.056596">
        <ele>2231.395</ele>
        <time>2022-07-11T07:43:39Z</time>
      </trkpt>
      <trkpt lat="46.451163" lon="10.056571">
        <ele>2233.744</ele>
        <time>2022-07-11T07:43:55Z</time>
      </trkpt>
      <trkpt lat="46.450831" lon="10.056528">
        <ele>2236.132</ele>
        <time>2022-07-11T07:44:15Z</time>
      </trkpt>
      <trkpt lat="46.450483" lon="10.056385">
        <ele>2238.024</ele>
        <time>2022-07-11T07:44:33Z</time>
      </trkpt>
      <trkpt lat="46.450117" lon="10.056229">
        <ele>2238.530</ele>
        <time>2022-07-11T07:44:51Z</time>
      </trkpt>
      <trkpt lat="46.449731" lon="10.056053">
        <ele>2240.014</ele>
        <time>2022-07-11T07:45:10Z</time>
      </trkpt>
      <trkpt lat="46.449359" lon="10.056090">
        <ele>2241.475</ele>
        <time>2022-07-11T07:45:29Z</time>
      </trkpt>
      <trkpt lat="46.448777" lon="10.056202">
        <ele>2243.353</ele>
        <time>2022-07-11T07:45:54Z</time>
      </trkpt>
      <trkpt lat="46.448538" lon="10.056047">
        <ele>2245.357</ele>
        <time>2022-07-11T07:46:10Z</time>
      </trkpt>
      <trkpt lat="46.448246" lon="10.056120">
        <ele>2247.257</ele>
        <time>2022-07-11T07:46:28Z</time>
      </trkpt>
      <trkpt lat="46.447978" lon="10.056180">
        <ele>2249.600</ele>
        <time>2022-07-11T07:46:46Z</time>
      </trkpt>
      <trkpt lat="46.447660" lon="10.056250">
        <ele>2252.020</ele>
        <time>2022-07-11T07:47:06Z</time>
      </trkpt>
      <trkpt lat="46.447324" lon="10.056316">
        <ele>2255.309</ele>
        <time>2022-07-11T07:47:28Z</time>
      </trkpt>
      <trkpt lat="46.447046" lon="10.056369">
        <ele>2257.716</ele>
        <time>2022-07-11T07:47:47Z</time>
      </trkpt>
      <trkpt lat="46.446666" lon="10.056471">
        <ele>2260.665</ele>
        <time>2022-07-11T07:48:12Z</time>
      </trkpt>
      <trkpt lat="46.446413" lon="10.056480">
        <ele>2264.033</ele>
        <time>2022-07-11T07:48:29Z</time>
      </trkpt>
      <trkpt lat="46.446120" lon="10.056504">
        <ele>2266.425</ele>
        <time>2022-07-11T07:48:48Z</time>
      </trkpt>
      <trkpt lat="46.445774" lon="10.056546">
        <ele>2269.381</ele>
        <time>2022-07-11T07:49:11Z</time>
      </trkpt>
      <trkpt lat="46.445500" lon="10.056644">
        <ele>2271.725</ele>
        <time>2022-07-11T07:49:29Z</time>
      </trkpt>
      <trkpt lat="46.445197" lon="10.056706">
        <ele>2274.146</ele>
        <time>2022-07-11T07:49:49Z</time>
      </trkpt>
      <trkpt lat="46.445100" lon="10.056689">
        <ele>2276.094</ele>
        <time>2022-07-11T07:49:55Z</time>
      </trkpt>
      <trkpt lat="46.444897" lon="10.056579">
        <ele>2276.578</ele>
        <time>2022-07-11T07:50:10Z</time>
      </trkpt>
      <trkpt lat="46.444645" lon="10.056468">
        <ele>2278.922</ele>
        <time>2022-07-11T07:50:28Z</time>
      </trkpt>
      <trkpt lat="46.444362" lon="10.056388">
        <ele>2281.362</ele>
        <time>2022-07-11T07:50:47Z</time>
      </trkpt>
      <trkpt lat="46.444058" lon="10.056311">
        <ele>2284.708</ele>
        <time>2022-07-11T07:51:08Z</time>
      </trkpt>
      <trkpt lat="46.443738" lon="10.056234">
        <ele>2287.109</ele>
        <time>2022-07-11T07:51:30Z</time>
      </trkpt>
      <trkpt lat="46.443451" lon="10.056094">
        <ele>2289.513</ele>
        <time>2022-07-11T07:51:50Z</time>
      </trkpt>
      <trkpt lat="46.443437" lon="10.056084">
        <ele>2289.562</ele>
        <time>2022-07-11T07:51:51Z</time>
      </trkpt>
      <trkpt lat="46.443421" lon="10.056077">
        <ele>2290.090</ele>
        <time>2022-07-11T07:51:52Z</time>
      </trkpt>
      <trkpt lat="46.443408" lon="10.056068">
        <ele>2290.082</ele>
        <time>2022-07-11T07:51:53Z</time>
      </trkpt>
      <trkpt lat="46.443394" lon="10.056058">
        <ele>2290.068</ele>
        <time>2022-07-11T07:51:54Z</time>
      </trkpt>
      <trkpt lat="46.443380" lon="10.056051">
        <ele>2290.062</ele>
        <time>2022-07-11T07:51:55Z</time>
      </trkpt>
      <trkpt lat="46.443365" lon="10.056046">
        <ele>2290.073</ele>
        <time>2022-07-11T07:51:56Z</time>
      </trkpt>
      <trkpt lat="46.443314" lon="10.056018">
        <ele>2290.411</ele>
        <time>2022-07-11T07:52:00Z</time>
      </trkpt>
      <trkpt lat="46.443299" lon="10.056013">
        <ele>2290.985</ele>
        <time>2022-07-11T07:52:01Z</time>
      </trkpt>
      <trkpt lat="46.443286" lon="10.056007">
        <ele>2290.912</ele>
        <time>2022-07-11T07:52:02Z</time>
      </trkpt>
      <trkpt lat="46.442999" lon="10.055868">
        <ele>2293.832</ele>
        <time>2022-07-11T07:52:22Z</time>
      </trkpt>
      <trkpt lat="46.442743" lon="10.055728">
        <ele>2296.205</ele>
        <time>2022-07-11T07:52:41Z</time>
      </trkpt>
      <trkpt lat="46.442542" lon="10.055617">
        <ele>2298.109</ele>
        <time>2022-07-11T07:52:54Z</time>
      </trkpt>
      <trkpt lat="46.442292" lon="10.055499">
        <ele>2300.582</ele>
        <time>2022-07-11T07:53:09Z</time>
      </trkpt>
      <trkpt lat="46.441998" lon="10.055349">
        <ele>2302.951</ele>
        <time>2022-07-11T07:53:29Z</time>
      </trkpt>
      <trkpt lat="46.441706" lon="10.055334">
        <ele>2305.359</ele>
        <time>2022-07-11T07:53:48Z</time>
      </trkpt>
      <trkpt lat="46.441609" lon="10.055346">
        <ele>2306.851</ele>
        <time>2022-07-11T07:53:56Z</time>
      </trkpt>
      <trkpt lat="46.441601" lon="10.055356">
        <ele>2306.867</ele>
        <time>2022-07-11T07:53:57Z</time>
      </trkpt>
      <trkpt lat="46.441517" lon="10.055566">
        <ele>2307.781</ele>
        <time>2022-07-11T07:54:11Z</time>
      </trkpt>
      <trkpt lat="46.441467" lon="10.055786">
        <ele>2308.252</ele>
        <time>2022-07-11T07:54:21Z</time>
      </trkpt>
      <trkpt lat="46.441470" lon="10.055808">
        <ele>2308.780</ele>
        <time>2022-07-11T07:54:22Z</time>
      </trkpt>
      <trkpt lat="46.441473" lon="10.055828">
        <ele>2308.754</ele>
        <time>2022-07-11T07:54:23Z</time>
      </trkpt>
      <trkpt lat="46.441473" lon="10.055849">
        <ele>2308.737</ele>
        <time>2022-07-11T07:54:24Z</time>
      </trkpt>
      <trkpt lat="46.441475" lon="10.055871">
        <ele>2308.749</ele>
        <time>2022-07-11T07:54:25Z</time>
      </trkpt>
      <trkpt lat="46.441472" lon="10.055893">
        <ele>2309.213</ele>
        <time>2022-07-11T07:54:26Z</time>
      </trkpt>
      <trkpt lat="46.441483" lon="10.055928">
        <ele>2309.209</ele>
        <time>2022-07-11T07:54:41Z</time>
      </trkpt>
      <trkpt lat="46.441446" lon="10.055935">
        <ele>2309.254</ele>
        <time>2022-07-11T07:54:59Z</time>
      </trkpt>
      <trkpt lat="46.441431" lon="10.055942">
        <ele>2309.283</ele>
        <time>2022-07-11T07:55:00Z</time>
      </trkpt>
      <trkpt lat="46.441422" lon="10.055960">
        <ele>2309.281</ele>
        <time>2022-07-11T07:55:01Z</time>
      </trkpt>
      <trkpt lat="46.441418" lon="10.055977">
        <ele>2309.253</ele>
        <time>2022-07-11T07:55:02Z</time>
      </trkpt>
      <trkpt lat="46.441418" lon="10.055994">
        <ele>2309.249</ele>
        <time>2022-07-11T07:55:03Z</time>
      </trkpt>
      <trkpt lat="46.441419" lon="10.056011">
        <ele>2309.723</ele>
        <time>2022-07-11T07:55:04Z</time>
      </trkpt>
      <trkpt lat="46.441424" lon="10.056102">
        <ele>2310.174</ele>
        <time>2022-07-11T07:55:20Z</time>
      </trkpt>
      <trkpt lat="46.441425" lon="10.056126">
        <ele>2310.142</ele>
        <time>2022-07-11T07:55:47Z</time>
      </trkpt>
      <trkpt lat="46.441426" lon="10.056110">
        <ele>2309.216</ele>
        <time>2022-07-11T07:56:10Z</time>
      </trkpt>
      <trkpt lat="46.441431" lon="10.056123">
        <ele>2309.238</ele>
        <time>2022-07-11T07:56:33Z</time>
      </trkpt>
      <trkpt lat="46.441407" lon="10.056133">
        <ele>2309.270</ele>
        <time>2022-07-11T07:56:58Z</time>
      </trkpt>
      <trkpt lat="46.441388" lon="10.056129">
        <ele>2309.217</ele>
        <time>2022-07-11T07:57:02Z</time>
      </trkpt>
      <trkpt lat="46.441384" lon="10.056111">
        <ele>2309.209</ele>
        <time>2022-07-11T07:57:03Z</time>
      </trkpt>
      <trkpt lat="46.441384" lon="10.056084">
        <ele>2309.284</ele>
        <time>2022-07-11T07:57:04Z</time>
      </trkpt>
      <trkpt lat="46.441390" lon="10.056063">
        <ele>2309.293</ele>
        <time>2022-07-11T07:57:05Z</time>
      </trkpt>
      <trkpt lat="46.441403" lon="10.056037">
        <ele>2309.231</ele>
        <time>2022-07-11T07:57:06Z</time>
      </trkpt>
      <trkpt lat="46.441416" lon="10.056017">
        <ele>2309.793</ele>
        <time>2022-07-11T07:57:07Z</time>
      </trkpt>
      <trkpt lat="46.441432" lon="10.055992">
        <ele>2309.749</ele>
        <time>2022-07-11T07:57:08Z</time>
      </trkpt>
      <trkpt lat="46.441448" lon="10.055969">
        <ele>2309.773</ele>
        <time>2022-07-11T07:57:09Z</time>
      </trkpt>
      <trkpt lat="46.441469" lon="10.055915">
        <ele>2309.754</ele>
        <time>2022-07-11T07:57:11Z</time>
      </trkpt>
      <trkpt lat="46.441470" lon="10.055883">
        <ele>2309.752</ele>
        <time>2022-07-11T07:57:12Z</time>
      </trkpt>
      <trkpt lat="46.441448" lon="10.055823">
        <ele>2309.246</ele>
        <time>2022-07-11T07:57:25Z</time>
      </trkpt>
      <trkpt lat="46.441397" lon="10.055769">
        <ele>2308.799</ele>
        <time>2022-07-11T07:57:45Z</time>
      </trkpt>
      <trkpt lat="46.441411" lon="10.055742">
        <ele>2308.707</ele>
        <time>2022-07-11T07:57:46Z</time>
      </trkpt>
      <trkpt lat="46.441421" lon="10.055727">
        <ele>2308.727</ele>
        <time>2022-07-11T07:57:47Z</time>
      </trkpt>
      <trkpt lat="46.441434" lon="10.055696">
        <ele>2308.709</ele>
        <time>2022-07-11T07:57:48Z</time>
      </trkpt>
      <trkpt lat="46.441449" lon="10.055660">
        <ele>2308.750</ele>
        <time>2022-07-11T07:57:49Z</time>
      </trkpt>
      <trkpt lat="46.441604" lon="10.055339">
        <ele>2307.319</ele>
        <time>2022-07-11T07:58:02Z</time>
      </trkpt>
      <trkpt lat="46.441629" lon="10.055307">
        <ele>2307.347</ele>
        <time>2022-07-11T07:58:05Z</time>
      </trkpt>
      <trkpt lat="46.441637" lon="10.055291">
        <ele>2307.389</ele>
        <time>2022-07-11T07:58:06Z</time>
      </trkpt>
      <trkpt lat="46.441641" lon="10.055265">
        <ele>2307.375</ele>
        <time>2022-07-11T07:58:07Z</time>
      </trkpt>
      <trkpt lat="46.441636" lon="10.055240">
        <ele>2306.889</ele>
        <time>2022-07-11T07:58:08Z</time>
      </trkpt>
      <trkpt lat="46.441630" lon="10.055223">
        <ele>2306.820</ele>
        <time>2022-07-11T07:58:09Z</time>
      </trkpt>
      <trkpt lat="46.441579" lon="10.055200">
        <ele>2308.228</ele>
        <time>2022-07-11T07:58:19Z</time>
      </trkpt>
      <trkpt lat="46.441480" lon="10.055248">
        <ele>2310.612</ele>
        <time>2022-07-11T07:58:34Z</time>
      </trkpt>
      <trkpt lat="46.441466" lon="10.055256">
        <ele>2310.172</ele>
        <time>2022-07-11T07:58:50Z</time>
      </trkpt>
      <trkpt lat="46.441371" lon="10.055264">
        <ele>2312.113</ele>
        <time>2022-07-11T07:59:05Z</time>
      </trkpt>
      <trkpt lat="46.441251" lon="10.055175">
        <ele>2313.514</ele>
        <time>2022-07-11T07:59:21Z</time>
      </trkpt>
      <trkpt lat="46.441189" lon="10.054983">
        <ele>2316.409</ele>
        <time>2022-07-11T07:59:39Z</time>
      </trkpt>
      <trkpt lat="46.441143" lon="10.054940">
        <ele>2318.338</ele>
        <time>2022-07-11T07:59:50Z</time>
      </trkpt>
      <trkpt lat="46.441137" lon="10.054910">
        <ele>2319.327</ele>
        <time>2022-07-11T08:00:05Z</time>
      </trkpt>
      <trkpt lat="46.441092" lon="10.054839">
        <ele>2319.865</ele>
        <time>2022-07-11T08:00:21Z</time>
      </trkpt>
      <trkpt lat="46.441088" lon="10.054849">
        <ele>2319.827</ele>
        <time>2022-07-11T08:00:50Z</time>
      </trkpt>
      <trkpt lat="46.441053" lon="10.054860">
        <ele>2320.243</ele>
        <time>2022-07-11T08:01:14Z</time>
      </trkpt>
      <trkpt lat="46.441042" lon="10.054859">
        <ele>2320.277</ele>
        <time>2022-07-11T08:01:15Z</time>
      </trkpt>
      <trkpt lat="46.441029" lon="10.054859">
        <ele>2320.218</ele>
        <time>2022-07-11T08:01:16Z</time>
      </trkpt>
      <trkpt lat="46.441015" lon="10.054863">
        <ele>2320.246</ele>
        <time>2022-07-11T08:01:17Z</time>
      </trkpt>
      <trkpt lat="46.441000" lon="10.054868">
        <ele>2320.290</ele>
        <time>2022-07-11T08:01:18Z</time>
      </trkpt>
      <trkpt lat="46.440981" lon="10.054871">
        <ele>2320.263</ele>
        <time>2022-07-11T08:01:19Z</time>
      </trkpt>
      <trkpt lat="46.440958" lon="10.054873">
        <ele>2320.244</ele>
        <time>2022-07-11T08:01:20Z</time>
      </trkpt>
      <trkpt lat="46.440634" lon="10.054759">
        <ele>2320.218</ele>
        <time>2022-07-11T08:01:32Z</time>
      </trkpt>
      <trkpt lat="46.440459" lon="10.054596">
        <ele>2323.109</ele>
        <time>2022-07-11T08:01:47Z</time>
      </trkpt>
      <trkpt lat="46.440254" lon="10.054456">
        <ele>2325.047</ele>
        <time>2022-07-11T08:02:04Z</time>
      </trkpt>
      <trkpt lat="46.440195" lon="10.054351">
        <ele>2326.046</ele>
        <time>2022-07-11T08:02:18Z</time>
      </trkpt>
      <trkpt lat="46.440052" lon="10.054322">
        <ele>2325.054</ele>
        <time>2022-07-11T08:02:39Z</time>
      </trkpt>
      <trkpt lat="46.439849" lon="10.054284">
        <ele>2323.656</ele>
        <time>2022-07-11T08:02:44Z</time>
      </trkpt>
      <trkpt lat="46.439803" lon="10.054267">
        <ele>2323.642</ele>
        <time>2022-07-11T08:02:45Z</time>
      </trkpt>
      <trkpt lat="46.439489" lon="10.054113">
        <ele>2323.196</ele>
        <time>2022-07-11T08:02:56Z</time>
      </trkpt>
      <trkpt lat="46.439478" lon="10.054083">
        <ele>2323.697</ele>
        <time>2022-07-11T08:02:58Z</time>
      </trkpt>
      <trkpt lat="46.439464" lon="10.054053">
        <ele>2324.695</ele>
        <time>2022-07-11T08:03:00Z</time>
      </trkpt>
      <trkpt lat="46.439287" lon="10.053750">
        <ele>2326.029</ele>
        <time>2022-07-11T08:03:14Z</time>
      </trkpt>
      <trkpt lat="46.439058" lon="10.053419">
        <ele>2327.036</ele>
        <time>2022-07-11T08:03:29Z</time>
      </trkpt>
      <trkpt lat="46.438896" lon="10.053114">
        <ele>2328.917</ele>
        <time>2022-07-11T08:03:43Z</time>
      </trkpt>
      <trkpt lat="46.438824" lon="10.053058">
        <ele>2329.418</ele>
        <time>2022-07-11T08:03:48Z</time>
      </trkpt>
      <trkpt lat="46.438818" lon="10.053044">
        <ele>2329.409</ele>
        <time>2022-07-11T08:03:49Z</time>
      </trkpt>
      <trkpt lat="46.438829" lon="10.053003">
        <ele>2330.814</ele>
        <time>2022-07-11T08:04:01Z</time>
      </trkpt>
      <trkpt lat="46.438843" lon="10.052963">
        <ele>2330.873</ele>
        <time>2022-07-11T08:04:24Z</time>
      </trkpt>
      <trkpt lat="46.438839" lon="10.052829">
        <ele>2330.811</ele>
        <time>2022-07-11T08:04:32Z</time>
      </trkpt>
      <trkpt lat="46.438824" lon="10.052810">
        <ele>2331.393</ele>
        <time>2022-07-11T08:04:38Z</time>
      </trkpt>
      <trkpt lat="46.438815" lon="10.052801">
        <ele>2331.399</ele>
        <time>2022-07-11T08:04:39Z</time>
      </trkpt>
      <trkpt lat="46.438804" lon="10.052787">
        <ele>2331.313</ele>
        <time>2022-07-11T08:04:40Z</time>
      </trkpt>
      <trkpt lat="46.438693" lon="10.052549">
        <ele>2332.724</ele>
        <time>2022-07-11T08:04:52Z</time>
      </trkpt>
      <trkpt lat="46.438684" lon="10.052532">
        <ele>2332.722</ele>
        <time>2022-07-11T08:04:53Z</time>
      </trkpt>
      <trkpt lat="46.438636" lon="10.052425">
        <ele>2334.266</ele>
        <time>2022-07-11T08:05:00Z</time>
      </trkpt>
      <trkpt lat="46.438629" lon="10.052412">
        <ele>2334.244</ele>
        <time>2022-07-11T08:05:01Z</time>
      </trkpt>
      <trkpt lat="46.438621" lon="10.052397">
        <ele>2334.205</ele>
        <time>2022-07-11T08:05:02Z</time>
      </trkpt>
      <trkpt lat="46.438611" lon="10.052382">
        <ele>2334.715</ele>
        <time>2022-07-11T08:05:03Z</time>
      </trkpt>
      <trkpt lat="46.438600" lon="10.052371">
        <ele>2334.209</ele>
        <time>2022-07-11T08:05:04Z</time>
      </trkpt>
      <trkpt lat="46.438589" lon="10.052356">
        <ele>2334.795</ele>
        <time>2022-07-11T08:05:05Z</time>
      </trkpt>
      <trkpt lat="46.438580" lon="10.052343">
        <ele>2335.154</ele>
        <time>2022-07-11T08:05:06Z</time>
      </trkpt>
      <trkpt lat="46.438572" lon="10.052326">
        <ele>2335.162</ele>
        <time>2022-07-11T08:05:07Z</time>
      </trkpt>
      <trkpt lat="46.438565" lon="10.052308">
        <ele>2335.144</ele>
        <time>2022-07-11T08:05:08Z</time>
      </trkpt>
      <trkpt lat="46.438556" lon="10.052287">
        <ele>2335.190</ele>
        <time>2022-07-11T08:05:09Z</time>
      </trkpt>
      <trkpt lat="46.438525" lon="10.052272">
        <ele>2335.644</ele>
        <time>2022-07-11T08:05:19Z</time>
      </trkpt>
      <trkpt lat="46.438501" lon="10.052268">
        <ele>2336.165</ele>
        <time>2022-07-11T08:05:58Z</time>
      </trkpt>
      <trkpt lat="46.438498" lon="10.052250">
        <ele>2336.153</ele>
        <time>2022-07-11T08:06:03Z</time>
      </trkpt>
      <trkpt lat="46.438506" lon="10.052233">
        <ele>2336.667</ele>
        <time>2022-07-11T08:06:04Z</time>
      </trkpt>
      <trkpt lat="46.438519" lon="10.052217">
        <ele>2336.653</ele>
        <time>2022-07-11T08:06:05Z</time>
      </trkpt>
      <trkpt lat="46.438531" lon="10.052200">
        <ele>2335.104</ele>
        <time>2022-07-11T08:06:06Z</time>
      </trkpt>
      <trkpt lat="46.438541" lon="10.052178">
        <ele>2334.714</ele>
        <time>2022-07-11T08:06:07Z</time>
      </trkpt>
      <trkpt lat="46.438550" lon="10.052152">
        <ele>2334.709</ele>
        <time>2022-07-11T08:06:08Z</time>
      </trkpt>
      <trkpt lat="46.438557" lon="10.052124">
        <ele>2334.746</ele>
        <time>2022-07-11T08:06:09Z</time>
      </trkpt>
      <trkpt lat="46.438559" lon="10.052094">
        <ele>2334.725</ele>
        <time>2022-07-11T08:06:10Z</time>
      </trkpt>
      <trkpt lat="46.438559" lon="10.052068">
        <ele>2334.753</ele>
        <time>2022-07-11T08:06:11Z</time>
      </trkpt>
      <trkpt lat="46.438559" lon="10.052047">
        <ele>2334.735</ele>
        <time>2022-07-11T08:06:12Z</time>
      </trkpt>
      <trkpt lat="46.438560" lon="10.052023">
        <ele>2334.711</ele>
        <time>2022-07-11T08:06:13Z</time>
      </trkpt>
      <trkpt lat="46.438551" lon="10.051912">
        <ele>2334.765</ele>
        <time>2022-07-11T08:06:17Z</time>
      </trkpt>
      <trkpt lat="46.438539" lon="10.051895">
        <ele>2334.796</ele>
        <time>2022-07-11T08:06:18Z</time>
      </trkpt>
      <trkpt lat="46.438519" lon="10.051880">
        <ele>2334.294</ele>
        <time>2022-07-11T08:06:19Z</time>
      </trkpt>
      <trkpt lat="46.438498" lon="10.051861">
        <ele>2334.298</ele>
        <time>2022-07-11T08:06:20Z</time>
      </trkpt>
      <trkpt lat="46.438479" lon="10.051839">
        <ele>2333.713</ele>
        <time>2022-07-11T08:06:21Z</time>
      </trkpt>
      <trkpt lat="46.438457" lon="10.051823">
        <ele>2332.743</ele>
        <time>2022-07-11T08:06:22Z</time>
      </trkpt>
      <trkpt lat="46.438430" lon="10.051808">
        <ele>2332.707</ele>
        <time>2022-07-11T08:06:23Z</time>
      </trkpt>
      <trkpt lat="46.438326" lon="10.051629">
        <ele>2334.209</ele>
        <time>2022-07-11T08:06:33Z</time>
      </trkpt>
      <trkpt lat="46.438069" lon="10.051238">
        <ele>2330.812</ele>
        <time>2022-07-11T08:06:48Z</time>
      </trkpt>
      <trkpt lat="46.437904" lon="10.050994">
        <ele>2328.421</ele>
        <time>2022-07-11T08:06:56Z</time>
      </trkpt>
      <trkpt lat="46.437726" lon="10.050784">
        <ele>2325.099</ele>
        <time>2022-07-11T08:07:05Z</time>
      </trkpt>
      <trkpt lat="46.437476" lon="10.050539">
        <ele>2322.241</ele>
        <time>2022-07-11T08:07:17Z</time>
      </trkpt>
      <trkpt lat="46.437437" lon="10.050546">
        <ele>2323.617</ele>
        <time>2022-07-11T08:07:20Z</time>
      </trkpt>
      <trkpt lat="46.437248" lon="10.050524">
        <ele>2324.631</ele>
        <time>2022-07-11T08:07:31Z</time>
      </trkpt>
      <trkpt lat="46.436934" lon="10.050341">
        <ele>2324.612</ele>
        <time>2022-07-11T08:07:44Z</time>
      </trkpt>
      <trkpt lat="46.436855" lon="10.050252">
        <ele>2322.670</ele>
        <time>2022-07-11T08:07:47Z</time>
      </trkpt>
      <trkpt lat="46.436708" lon="10.049975">
        <ele>2321.294</ele>
        <time>2022-07-11T08:07:55Z</time>
      </trkpt>
      <trkpt lat="46.436476" lon="10.049475">
        <ele>2318.885</ele>
        <time>2022-07-11T08:08:10Z</time>
      </trkpt>
      <trkpt lat="46.436446" lon="10.049426">
        <ele>2318.389</ele>
        <time>2022-07-11T08:08:17Z</time>
      </trkpt>
      <trkpt lat="46.436433" lon="10.049417">
        <ele>2318.317</ele>
        <time>2022-07-11T08:08:18Z</time>
      </trkpt>
      <trkpt lat="46.436415" lon="10.049411">
        <ele>2318.309</ele>
        <time>2022-07-11T08:08:19Z</time>
      </trkpt>
      <trkpt lat="46.436178" lon="10.049278">
        <ele>2315.979</ele>
        <time>2022-07-11T08:08:33Z</time>
      </trkpt>
      <trkpt lat="46.436070" lon="10.049171">
        <ele>2315.928</ele>
        <time>2022-07-11T08:08:44Z</time>
      </trkpt>
      <trkpt lat="46.436043" lon="10.049126">
        <ele>2317.476</ele>
        <time>2022-07-11T08:08:50Z</time>
      </trkpt>
      <trkpt lat="46.436019" lon="10.049076">
        <ele>2318.378</ele>
        <time>2022-07-11T08:08:56Z</time>
      </trkpt>
      <trkpt lat="46.435888" lon="10.048880">
        <ele>2320.274</ele>
        <time>2022-07-11T08:09:17Z</time>
      </trkpt>
      <trkpt lat="46.435793" lon="10.048836">
        <ele>2320.258</ele>
        <time>2022-07-11T08:09:29Z</time>
      </trkpt>
      <trkpt lat="46.435611" lon="10.048709">
        <ele>2320.799</ele>
        <time>2022-07-11T08:09:45Z</time>
      </trkpt>
      <trkpt lat="46.435598" lon="10.048693">
        <ele>2320.797</ele>
        <time>2022-07-11T08:09:50Z</time>
      </trkpt>
      <trkpt lat="46.435525" lon="10.048562">
        <ele>2320.721</ele>
        <time>2022-07-11T08:09:56Z</time>
      </trkpt>
      <trkpt lat="46.435505" lon="10.048547">
        <ele>2320.795</ele>
        <time>2022-07-11T08:09:57Z</time>
      </trkpt>
      <trkpt lat="46.435490" lon="10.048543">
        <ele>2320.749</ele>
        <time>2022-07-11T08:09:58Z</time>
      </trkpt>
      <trkpt lat="46.435475" lon="10.048538">
        <ele>2320.723</ele>
        <time>2022-07-11T08:09:59Z</time>
      </trkpt>
      <trkpt lat="46.435463" lon="10.048532">
        <ele>2320.709</ele>
        <time>2022-07-11T08:10:00Z</time>
      </trkpt>
      <trkpt lat="46.435448" lon="10.048522">
        <ele>2320.790</ele>
        <time>2022-07-11T08:10:01Z</time>
      </trkpt>
      <trkpt lat="46.435430" lon="10.048508">
        <ele>2320.719</ele>
        <time>2022-07-11T08:10:02Z</time>
      </trkpt>
      <trkpt lat="46.435411" lon="10.048488">
        <ele>2320.737</ele>
        <time>2022-07-11T08:10:03Z</time>
      </trkpt>
      <trkpt lat="46.435392" lon="10.048460">
        <ele>2320.749</ele>
        <time>2022-07-11T08:10:04Z</time>
      </trkpt>
      <trkpt lat="46.435375" lon="10.048428">
        <ele>2320.765</ele>
        <time>2022-07-11T08:10:05Z</time>
      </trkpt>
      <trkpt lat="46.435361" lon="10.048393">
        <ele>2320.749</ele>
        <time>2022-07-11T08:10:06Z</time>
      </trkpt>
      <trkpt lat="46.435349" lon="10.048360">
        <ele>2320.740</ele>
        <time>2022-07-11T08:10:07Z</time>
      </trkpt>
      <trkpt lat="46.435334" lon="10.048333">
        <ele>2320.798</ele>
        <time>2022-07-11T08:10:08Z</time>
      </trkpt>
      <trkpt lat="46.435313" lon="10.048308">
        <ele>2320.782</ele>
        <time>2022-07-11T08:10:09Z</time>
      </trkpt>
      <trkpt lat="46.435290" lon="10.048288">
        <ele>2320.787</ele>
        <time>2022-07-11T08:10:10Z</time>
      </trkpt>
      <trkpt lat="46.435271" lon="10.048276">
        <ele>2320.742</ele>
        <time>2022-07-11T08:10:11Z</time>
      </trkpt>
      <trkpt lat="46.435251" lon="10.048270">
        <ele>2320.726</ele>
        <time>2022-07-11T08:10:12Z</time>
      </trkpt>
      <trkpt lat="46.435230" lon="10.048263">
        <ele>2320.709</ele>
        <time>2022-07-11T08:10:13Z</time>
      </trkpt>
      <trkpt lat="46.435212" lon="10.048251">
        <ele>2319.359</ele>
        <time>2022-07-11T08:10:14Z</time>
      </trkpt>
      <trkpt lat="46.435198" lon="10.048236">
        <ele>2319.318</ele>
        <time>2022-07-11T08:10:15Z</time>
      </trkpt>
      <trkpt lat="46.435186" lon="10.048223">
        <ele>2318.896</ele>
        <time>2022-07-11T08:10:16Z</time>
      </trkpt>
      <trkpt lat="46.435167" lon="10.048207">
        <ele>2318.318</ele>
        <time>2022-07-11T08:10:17Z</time>
      </trkpt>
      <trkpt lat="46.435144" lon="10.048187">
        <ele>2317.874</ele>
        <time>2022-07-11T08:10:18Z</time>
      </trkpt>
      <trkpt lat="46.435122" lon="10.048173">
        <ele>2317.818</ele>
        <time>2022-07-11T08:10:19Z</time>
      </trkpt>
      <trkpt lat="46.435106" lon="10.048163">
        <ele>2317.899</ele>
        <time>2022-07-11T08:10:20Z</time>
      </trkpt>
      <trkpt lat="46.435091" lon="10.048151">
        <ele>2317.887</ele>
        <time>2022-07-11T08:10:21Z</time>
      </trkpt>
      <trkpt lat="46.435072" lon="10.048133">
        <ele>2317.871</ele>
        <time>2022-07-11T08:10:22Z</time>
      </trkpt>
      <trkpt lat="46.435049" lon="10.048109">
        <ele>2317.856</ele>
        <time>2022-07-11T08:10:23Z</time>
      </trkpt>
      <trkpt lat="46.434819" lon="10.047809">
        <ele>2314.959</ele>
        <time>2022-07-11T08:10:35Z</time>
      </trkpt>
      <trkpt lat="46.434715" lon="10.047738">
        <ele>2314.514</ele>
        <time>2022-07-11T08:10:38Z</time>
      </trkpt>
      <trkpt lat="46.434659" lon="10.047687">
        <ele>2313.509</ele>
        <time>2022-07-11T08:10:40Z</time>
      </trkpt>
      <trkpt lat="46.434383" lon="10.047468">
        <ele>2312.146</ele>
        <time>2022-07-11T08:10:50Z</time>
      </trkpt>
      <trkpt lat="46.434258" lon="10.047310">
        <ele>2314.035</ele>
        <time>2022-07-11T08:10:59Z</time>
      </trkpt>
      <trkpt lat="46.434173" lon="10.047219">
        <ele>2314.543</ele>
        <time>2022-07-11T08:11:12Z</time>
      </trkpt>
      <trkpt lat="46.434066" lon="10.047153">
        <ele>2316.435</ele>
        <time>2022-07-11T08:11:27Z</time>
      </trkpt>
      <trkpt lat="46.433980" lon="10.047056">
        <ele>2318.361</ele>
        <time>2022-07-11T08:11:46Z</time>
      </trkpt>
      <trkpt lat="46.433896" lon="10.047018">
        <ele>2319.375</ele>
        <time>2022-07-11T08:12:03Z</time>
      </trkpt>
      <trkpt lat="46.433694" lon="10.046814">
        <ele>2320.276</ele>
        <time>2022-07-11T08:12:18Z</time>
      </trkpt>
      <trkpt lat="46.433573" lon="10.046742">
        <ele>2322.284</ele>
        <time>2022-07-11T08:12:29Z</time>
      </trkpt>
      <trkpt lat="46.433500" lon="10.046642">
        <ele>2324.198</ele>
        <time>2022-07-11T08:12:46Z</time>
      </trkpt>
      <trkpt lat="46.433484" lon="10.046625">
        <ele>2324.661</ele>
        <time>2022-07-11T08:13:03Z</time>
      </trkpt>
      <trkpt lat="46.433425" lon="10.046565">
        <ele>2325.021</ele>
        <time>2022-07-11T08:13:30Z</time>
      </trkpt>
      <trkpt lat="46.433298" lon="10.046425">
        <ele>2326.513</ele>
        <time>2022-07-11T08:13:46Z</time>
      </trkpt>
      <trkpt lat="46.433158" lon="10.046275">
        <ele>2329.409</ele>
        <time>2022-07-11T08:14:07Z</time>
      </trkpt>
      <trkpt lat="46.433038" lon="10.046169">
        <ele>2331.817</ele>
        <time>2022-07-11T08:14:25Z</time>
      </trkpt>
      <trkpt lat="46.432961" lon="10.046082">
        <ele>2333.296</ele>
        <time>2022-07-11T08:14:36Z</time>
      </trkpt>
      <trkpt lat="46.432819" lon="10.046012">
        <ele>2335.134</ele>
        <time>2022-07-11T08:14:55Z</time>
      </trkpt>
      <trkpt lat="46.432729" lon="10.045977">
        <ele>2336.676</ele>
        <time>2022-07-11T08:15:08Z</time>
      </trkpt>
      <trkpt lat="46.432622" lon="10.045924">
        <ele>2338.022</ele>
        <time>2022-07-11T08:15:25Z</time>
      </trkpt>
      <trkpt lat="46.432552" lon="10.045833">
        <ele>2339.936</ele>
        <time>2022-07-11T08:15:41Z</time>
      </trkpt>
      <trkpt lat="46.432411" lon="10.045746">
        <ele>2341.477</ele>
        <time>2022-07-11T08:15:58Z</time>
      </trkpt>
      <trkpt lat="46.432232" lon="10.045700">
        <ele>2343.395</ele>
        <time>2022-07-11T08:16:16Z</time>
      </trkpt>
      <trkpt lat="46.432140" lon="10.045588">
        <ele>2344.729</ele>
        <time>2022-07-11T08:16:32Z</time>
      </trkpt>
      <trkpt lat="46.432102" lon="10.045555">
        <ele>2344.725</ele>
        <time>2022-07-11T08:16:36Z</time>
      </trkpt>
      <trkpt lat="46.432089" lon="10.045552">
        <ele>2344.726</ele>
        <time>2022-07-11T08:16:37Z</time>
      </trkpt>
      <trkpt lat="46.431862" lon="10.045594">
        <ele>2345.708</ele>
        <time>2022-07-11T08:16:55Z</time>
      </trkpt>
      <trkpt lat="46.431819" lon="10.045484">
        <ele>2347.209</ele>
        <time>2022-07-11T08:17:11Z</time>
      </trkpt>
      <trkpt lat="46.431932" lon="10.045433">
        <ele>2349.153</ele>
        <time>2022-07-11T08:17:27Z</time>
      </trkpt>
      <trkpt lat="46.432072" lon="10.045350">
        <ele>2350.532</ele>
        <time>2022-07-11T08:17:46Z</time>
      </trkpt>
      <trkpt lat="46.432191" lon="10.045297">
        <ele>2352.470</ele>
        <time>2022-07-11T08:18:04Z</time>
      </trkpt>
      <trkpt lat="46.432324" lon="10.045302">
        <ele>2354.412</ele>
        <time>2022-07-11T08:18:22Z</time>
      </trkpt>
      <trkpt lat="46.432429" lon="10.045319">
        <ele>2355.358</ele>
        <time>2022-07-11T08:18:36Z</time>
      </trkpt>
      <trkpt lat="46.432524" lon="10.045269">
        <ele>2357.232</ele>
        <time>2022-07-11T08:18:51Z</time>
      </trkpt>
      <trkpt lat="46.432641" lon="10.045272">
        <ele>2358.723</ele>
        <time>2022-07-11T08:19:05Z</time>
      </trkpt>
      <trkpt lat="46.432729" lon="10.045249">
        <ele>2359.661</ele>
        <time>2022-07-11T08:19:18Z</time>
      </trkpt>
      <trkpt lat="46.432829" lon="10.045309">
        <ele>2362.145</ele>
        <time>2022-07-11T08:19:35Z</time>
      </trkpt>
      <trkpt lat="46.432836" lon="10.045204">
        <ele>2363.027</ele>
        <time>2022-07-11T08:19:47Z</time>
      </trkpt>
      <trkpt lat="46.432761" lon="10.045058">
        <ele>2364.968</ele>
        <time>2022-07-11T08:20:02Z</time>
      </trkpt>
      <trkpt lat="46.432666" lon="10.044964">
        <ele>2366.914</ele>
        <time>2022-07-11T08:20:19Z</time>
      </trkpt>
      <trkpt lat="46.432560" lon="10.044976">
        <ele>2367.809</ele>
        <time>2022-07-11T08:20:32Z</time>
      </trkpt>
      <trkpt lat="46.432449" lon="10.044941">
        <ele>2369.373</ele>
        <time>2022-07-11T08:20:47Z</time>
      </trkpt>
      <trkpt lat="46.432308" lon="10.044934">
        <ele>2371.282</ele>
        <time>2022-07-11T08:21:06Z</time>
      </trkpt>
      <trkpt lat="46.432371" lon="10.044858">
        <ele>2372.120</ele>
        <time>2022-07-11T08:21:19Z</time>
      </trkpt>
      <trkpt lat="46.432393" lon="10.044829">
        <ele>2373.122</ele>
        <time>2022-07-11T08:21:24Z</time>
      </trkpt>
      <trkpt lat="46.432397" lon="10.044808">
        <ele>2373.138</ele>
        <time>2022-07-11T08:21:25Z</time>
      </trkpt>
      <trkpt lat="46.432399" lon="10.044786">
        <ele>2373.122</ele>
        <time>2022-07-11T08:21:26Z</time>
      </trkpt>
      <trkpt lat="46.432399" lon="10.044767">
        <ele>2373.113</ele>
        <time>2022-07-11T08:21:27Z</time>
      </trkpt>
      <trkpt lat="46.432397" lon="10.044749">
        <ele>2373.161</ele>
        <time>2022-07-11T08:21:28Z</time>
      </trkpt>
      <trkpt lat="46.432392" lon="10.044730">
        <ele>2373.185</ele>
        <time>2022-07-11T08:21:29Z</time>
      </trkpt>
      <trkpt lat="46.432386" lon="10.044711">
        <ele>2373.174</ele>
        <time>2022-07-11T08:21:30Z</time>
      </trkpt>
      <trkpt lat="46.432382" lon="10.044692">
        <ele>2373.156</ele>
        <time>2022-07-11T08:21:31Z</time>
      </trkpt>
      <trkpt lat="46.432379" lon="10.044673">
        <ele>2373.121</ele>
        <time>2022-07-11T08:21:32Z</time>
      </trkpt>
      <trkpt lat="46.432378" lon="10.044657">
        <ele>2373.109</ele>
        <time>2022-07-11T08:21:33Z</time>
      </trkpt>
      <trkpt lat="46.432376" lon="10.044628">
        <ele>2374.148</ele>
        <time>2022-07-11T08:21:35Z</time>
      </trkpt>
      <trkpt lat="46.432359" lon="10.044602">
        <ele>2374.197</ele>
        <time>2022-07-11T08:21:37Z</time>
      </trkpt>
      <trkpt lat="46.432346" lon="10.044596">
        <ele>2374.195</ele>
        <time>2022-07-11T08:21:38Z</time>
      </trkpt>
      <trkpt lat="46.432334" lon="10.044592">
        <ele>2374.117</ele>
        <time>2022-07-11T08:21:39Z</time>
      </trkpt>
      <trkpt lat="46.432324" lon="10.044596">
        <ele>2374.123</ele>
        <time>2022-07-11T08:21:40Z</time>
      </trkpt>
      <trkpt lat="46.432312" lon="10.044621">
        <ele>2374.567</ele>
        <time>2022-07-11T08:21:42Z</time>
      </trkpt>
      <trkpt lat="46.432278" lon="10.044700">
        <ele>2376.578</ele>
        <time>2022-07-11T08:21:55Z</time>
      </trkpt>
      <trkpt lat="46.432263" lon="10.044711">
        <ele>2376.526</ele>
        <time>2022-07-11T08:22:15Z</time>
      </trkpt>
      <trkpt lat="46.432244" lon="10.044732">
        <ele>2376.570</ele>
        <time>2022-07-11T08:22:17Z</time>
      </trkpt>
      <trkpt lat="46.432228" lon="10.044735">
        <ele>2377.039</ele>
        <time>2022-07-11T08:22:18Z</time>
      </trkpt>
      <trkpt lat="46.432213" lon="10.044735">
        <ele>2377.001</ele>
        <time>2022-07-11T08:22:19Z</time>
      </trkpt>
      <trkpt lat="46.432201" lon="10.044733">
        <ele>2377.021</ele>
        <time>2022-07-11T08:22:20Z</time>
      </trkpt>
      <trkpt lat="46.432189" lon="10.044730">
        <ele>2377.009</ele>
        <time>2022-07-11T08:22:21Z</time>
      </trkpt>
      <trkpt lat="46.432177" lon="10.044723">
        <ele>2377.414</ele>
        <time>2022-07-11T08:22:22Z</time>
      </trkpt>
      <trkpt lat="46.432149" lon="10.044688">
        <ele>2377.983</ele>
        <time>2022-07-11T08:22:26Z</time>
      </trkpt>
      <trkpt lat="46.432146" lon="10.044672">
        <ele>2377.971</ele>
        <time>2022-07-11T08:22:27Z</time>
      </trkpt>
      <trkpt lat="46.432144" lon="10.044653">
        <ele>2377.993</ele>
        <time>2022-07-11T08:22:28Z</time>
      </trkpt>
      <trkpt lat="46.432141" lon="10.044634">
        <ele>2377.989</ele>
        <time>2022-07-11T08:22:29Z</time>
      </trkpt>
      <trkpt lat="46.432140" lon="10.044618">
        <ele>2378.443</ele>
        <time>2022-07-11T08:22:30Z</time>
      </trkpt>
      <trkpt lat="46.432139" lon="10.044601">
        <ele>2378.414</ele>
        <time>2022-07-11T08:22:31Z</time>
      </trkpt>
      <trkpt lat="46.432125" lon="10.044495">
        <ele>2378.942</ele>
        <time>2022-07-11T08:22:38Z</time>
      </trkpt>
      <trkpt lat="46.432122" lon="10.044476">
        <ele>2378.946</ele>
        <time>2022-07-11T08:22:39Z</time>
      </trkpt>
      <trkpt lat="46.432116" lon="10.044462">
        <ele>2379.821</ele>
        <time>2022-07-11T08:22:40Z</time>
      </trkpt>
      <trkpt lat="46.432109" lon="10.044452">
        <ele>2379.841</ele>
        <time>2022-07-11T08:22:41Z</time>
      </trkpt>
      <trkpt lat="46.432104" lon="10.044438">
        <ele>2379.805</ele>
        <time>2022-07-11T08:22:42Z</time>
      </trkpt>
      <trkpt lat="46.432098" lon="10.044424">
        <ele>2379.809</ele>
        <time>2022-07-11T08:22:43Z</time>
      </trkpt>
      <trkpt lat="46.432088" lon="10.044409">
        <ele>2380.353</ele>
        <time>2022-07-11T08:22:44Z</time>
      </trkpt>
      <trkpt lat="46.432081" lon="10.044397">
        <ele>2380.812</ele>
        <time>2022-07-11T08:22:45Z</time>
      </trkpt>
      <trkpt lat="46.432052" lon="10.044336">
        <ele>2381.870</ele>
        <time>2022-07-11T08:22:54Z</time>
      </trkpt>
      <trkpt lat="46.432019" lon="10.044245">
        <ele>2382.222</ele>
        <time>2022-07-11T08:23:04Z</time>
      </trkpt>
      <trkpt lat="46.431979" lon="10.044123">
        <ele>2384.248</ele>
        <time>2022-07-11T08:23:20Z</time>
      </trkpt>
      <trkpt lat="46.431882" lon="10.044086">
        <ele>2385.172</ele>
        <time>2022-07-11T08:23:35Z</time>
      </trkpt>
      <trkpt lat="46.431855" lon="10.043892">
        <ele>2386.623</ele>
        <time>2022-07-11T08:23:51Z</time>
      </trkpt>
      <trkpt lat="46.431890" lon="10.043739">
        <ele>2387.591</ele>
        <time>2022-07-11T08:24:07Z</time>
      </trkpt>
      <trkpt lat="46.431987" lon="10.043780">
        <ele>2389.465</ele>
        <time>2022-07-11T08:24:21Z</time>
      </trkpt>
      <trkpt lat="46.431998" lon="10.043778">
        <ele>2389.424</ele>
        <time>2022-07-11T08:24:22Z</time>
      </trkpt>
      <trkpt lat="46.432007" lon="10.043776">
        <ele>2389.404</ele>
        <time>2022-07-11T08:24:23Z</time>
      </trkpt>
      <trkpt lat="46.432019" lon="10.043776">
        <ele>2389.414</ele>
        <time>2022-07-11T08:24:24Z</time>
      </trkpt>
      <trkpt lat="46.432065" lon="10.043794">
        <ele>2389.909</ele>
        <time>2022-07-11T08:24:29Z</time>
      </trkpt>
      <trkpt lat="46.432157" lon="10.043934">
        <ele>2391.983</ele>
        <time>2022-07-11T08:24:47Z</time>
      </trkpt>
      <trkpt lat="46.432221" lon="10.043873">
        <ele>2392.352</ele>
        <time>2022-07-11T08:25:01Z</time>
      </trkpt>
      <trkpt lat="46.432209" lon="10.043826">
        <ele>2393.380</ele>
        <time>2022-07-11T08:25:16Z</time>
      </trkpt>
      <trkpt lat="46.432141" lon="10.043722">
        <ele>2394.322</ele>
        <time>2022-07-11T08:25:26Z</time>
      </trkpt>
      <trkpt lat="46.432029" lon="10.043551">
        <ele>2395.728</ele>
        <time>2022-07-11T08:25:41Z</time>
      </trkpt>
      <trkpt lat="46.431948" lon="10.043426">
        <ele>2397.652</ele>
        <time>2022-07-11T08:25:54Z</time>
      </trkpt>
      <trkpt lat="46.431859" lon="10.043307">
        <ele>2398.693</ele>
        <time>2022-07-11T08:26:06Z</time>
      </trkpt>
      <trkpt lat="46.431851" lon="10.043295">
        <ele>2399.161</ele>
        <time>2022-07-11T08:26:07Z</time>
      </trkpt>
      <trkpt lat="46.431823" lon="10.043211">
        <ele>2400.035</ele>
        <time>2022-07-11T08:26:14Z</time>
      </trkpt>
      <trkpt lat="46.431817" lon="10.043195">
        <ele>2400.059</ele>
        <time>2022-07-11T08:26:15Z</time>
      </trkpt>
      <trkpt lat="46.431811" lon="10.043179">
        <ele>2400.003</ele>
        <time>2022-07-11T08:26:16Z</time>
      </trkpt>
      <trkpt lat="46.431768" lon="10.043127">
        <ele>2401.023</ele>
        <time>2022-07-11T08:26:29Z</time>
      </trkpt>
      <trkpt lat="46.431696" lon="10.043043">
        <ele>2401.009</ele>
        <time>2022-07-11T08:26:44Z</time>
      </trkpt>
      <trkpt lat="46.431636" lon="10.042988">
        <ele>2402.486</ele>
        <time>2022-07-11T08:26:56Z</time>
      </trkpt>
      <trkpt lat="46.431608" lon="10.042916">
        <ele>2403.945</ele>
        <time>2022-07-11T08:27:10Z</time>
      </trkpt>
      <trkpt lat="46.431540" lon="10.042824">
        <ele>2403.923</ele>
        <time>2022-07-11T08:27:23Z</time>
      </trkpt>
      <trkpt lat="46.431530" lon="10.042816">
        <ele>2403.935</ele>
        <time>2022-07-11T08:27:24Z</time>
      </trkpt>
      <trkpt lat="46.431521" lon="10.042808">
        <ele>2404.821</ele>
        <time>2022-07-11T08:27:25Z</time>
      </trkpt>
      <trkpt lat="46.431407" lon="10.042707">
        <ele>2405.865</ele>
        <time>2022-07-11T08:27:37Z</time>
      </trkpt>
      <trkpt lat="46.431397" lon="10.042668">
        <ele>2406.836</ele>
        <time>2022-07-11T08:27:47Z</time>
      </trkpt>
      <trkpt lat="46.431389" lon="10.042653">
        <ele>2407.244</ele>
        <time>2022-07-11T08:28:12Z</time>
      </trkpt>
      <trkpt lat="46.431370" lon="10.042498">
        <ele>2407.768</ele>
        <time>2022-07-11T08:28:33Z</time>
      </trkpt>
      <trkpt lat="46.431319" lon="10.042412">
        <ele>2409.253</ele>
        <time>2022-07-11T08:28:47Z</time>
      </trkpt>
      <trkpt lat="46.431197" lon="10.042247">
        <ele>2409.204</ele>
        <time>2022-07-11T08:28:59Z</time>
      </trkpt>
      <trkpt lat="46.431074" lon="10.042128">
        <ele>2408.214</ele>
        <time>2022-07-11T08:29:12Z</time>
      </trkpt>
      <trkpt lat="46.431016" lon="10.042034">
        <ele>2408.209</ele>
        <time>2022-07-11T08:29:23Z</time>
      </trkpt>
      <trkpt lat="46.431000" lon="10.041994">
        <ele>2409.626</ele>
        <time>2022-07-11T08:29:27Z</time>
      </trkpt>
      <trkpt lat="46.430920" lon="10.041873">
        <ele>2411.645</ele>
        <time>2022-07-11T08:29:44Z</time>
      </trkpt>
      <trkpt lat="46.430873" lon="10.041767">
        <ele>2412.563</ele>
        <time>2022-07-11T08:29:57Z</time>
      </trkpt>
      <trkpt lat="46.430810" lon="10.041567">
        <ele>2413.545</ele>
        <time>2022-07-11T08:30:08Z</time>
      </trkpt>
      <trkpt lat="46.430783" lon="10.041343">
        <ele>2414.421</ele>
        <time>2022-07-11T08:30:21Z</time>
      </trkpt>
      <trkpt lat="46.430743" lon="10.041291">
        <ele>2414.945</ele>
        <time>2022-07-11T08:30:26Z</time>
      </trkpt>
      <trkpt lat="46.430736" lon="10.041280">
        <ele>2414.976</ele>
        <time>2022-07-11T08:30:27Z</time>
      </trkpt>
      <trkpt lat="46.430727" lon="10.041268">
        <ele>2414.914</ele>
        <time>2022-07-11T08:30:28Z</time>
      </trkpt>
      <trkpt lat="46.430720" lon="10.041255">
        <ele>2415.418</ele>
        <time>2022-07-11T08:30:29Z</time>
      </trkpt>
      <trkpt lat="46.430711" lon="10.041243">
        <ele>2415.435</ele>
        <time>2022-07-11T08:30:30Z</time>
      </trkpt>
      <trkpt lat="46.430706" lon="10.041228">
        <ele>2415.486</ele>
        <time>2022-07-11T08:30:31Z</time>
      </trkpt>
      <trkpt lat="46.430704" lon="10.041212">
        <ele>2415.414</ele>
        <time>2022-07-11T08:30:32Z</time>
      </trkpt>
      <trkpt lat="46.430702" lon="10.041149">
        <ele>2416.409</ele>
        <time>2022-07-11T08:30:36Z</time>
      </trkpt>
      <trkpt lat="46.430707" lon="10.041135">
        <ele>2416.464</ele>
        <time>2022-07-11T08:30:37Z</time>
      </trkpt>
      <trkpt lat="46.430748" lon="10.041082">
        <ele>2417.843</ele>
        <time>2022-07-11T08:30:49Z</time>
      </trkpt>
      <trkpt lat="46.430851" lon="10.041094">
        <ele>2420.291</ele>
        <time>2022-07-11T08:31:04Z</time>
      </trkpt>
      <trkpt lat="46.430877" lon="10.041104">
        <ele>2420.283</ele>
        <time>2022-07-11T08:31:07Z</time>
      </trkpt>
      <trkpt lat="46.430953" lon="10.041128">
        <ele>2421.229</ele>
        <time>2022-07-11T08:31:16Z</time>
      </trkpt>
      <trkpt lat="46.431053" lon="10.041110">
        <ele>2422.643</ele>
        <time>2022-07-11T08:31:29Z</time>
      </trkpt>
      <trkpt lat="46.431087" lon="10.041023">
        <ele>2423.674</ele>
        <time>2022-07-11T08:31:43Z</time>
      </trkpt>
      <trkpt lat="46.431107" lon="10.040901">
        <ele>2425.082</ele>
        <time>2022-07-11T08:31:57Z</time>
      </trkpt>
      <trkpt lat="46.431137" lon="10.040809">
        <ele>2425.016</ele>
        <time>2022-07-11T08:32:09Z</time>
      </trkpt>
      <trkpt lat="46.431140" lon="10.040791">
        <ele>2425.085</ele>
        <time>2022-07-11T08:32:10Z</time>
      </trkpt>
      <trkpt lat="46.431143" lon="10.040774">
        <ele>2425.089</ele>
        <time>2022-07-11T08:32:11Z</time>
      </trkpt>
      <trkpt lat="46.431147" lon="10.040764">
        <ele>2425.017</ele>
        <time>2022-07-11T08:32:12Z</time>
      </trkpt>
      <trkpt lat="46.431152" lon="10.040748">
        <ele>2426.009</ele>
        <time>2022-07-11T08:32:13Z</time>
      </trkpt>
      <trkpt lat="46.431156" lon="10.040732">
        <ele>2426.079</ele>
        <time>2022-07-11T08:32:14Z</time>
      </trkpt>
      <trkpt lat="46.431158" lon="10.040715">
        <ele>2426.098</ele>
        <time>2022-07-11T08:32:15Z</time>
      </trkpt>
      <trkpt lat="46.431156" lon="10.040699">
        <ele>2426.076</ele>
        <time>2022-07-11T08:32:16Z</time>
      </trkpt>
      <trkpt lat="46.431150" lon="10.040682">
        <ele>2426.098</ele>
        <time>2022-07-11T08:32:17Z</time>
      </trkpt>
      <trkpt lat="46.431117" lon="10.040570">
        <ele>2426.534</ele>
        <time>2022-07-11T08:32:23Z</time>
      </trkpt>
      <trkpt lat="46.431103" lon="10.040556">
        <ele>2426.568</ele>
        <time>2022-07-11T08:32:24Z</time>
      </trkpt>
      <trkpt lat="46.431085" lon="10.040547">
        <ele>2426.589</ele>
        <time>2022-07-11T08:32:25Z</time>
      </trkpt>
      <trkpt lat="46.431063" lon="10.040545">
        <ele>2426.547</ele>
        <time>2022-07-11T08:32:26Z</time>
      </trkpt>
      <trkpt lat="46.431042" lon="10.040544">
        <ele>2426.571</ele>
        <time>2022-07-11T08:32:27Z</time>
      </trkpt>
      <trkpt lat="46.431027" lon="10.040543">
        <ele>2426.514</ele>
        <time>2022-07-11T08:32:28Z</time>
      </trkpt>
      <trkpt lat="46.430933" lon="10.040526">
        <ele>2428.454</ele>
        <time>2022-07-11T08:32:35Z</time>
      </trkpt>
      <trkpt lat="46.430843" lon="10.040455">
        <ele>2428.909</ele>
        <time>2022-07-11T08:32:42Z</time>
      </trkpt>
      <trkpt lat="46.430688" lon="10.040333">
        <ele>2429.809</ele>
        <time>2022-07-11T08:32:57Z</time>
      </trkpt>
      <trkpt lat="46.430531" lon="10.040289">
        <ele>2429.832</ele>
        <time>2022-07-11T08:33:07Z</time>
      </trkpt>
      <trkpt lat="46.430465" lon="10.040261">
        <ele>2430.341</ele>
        <time>2022-07-11T08:33:12Z</time>
      </trkpt>
      <trkpt lat="46.430354" lon="10.040065">
        <ele>2430.359</ele>
        <time>2022-07-11T08:33:23Z</time>
      </trkpt>
      <trkpt lat="46.430269" lon="10.039835">
        <ele>2431.711</ele>
        <time>2022-07-11T08:33:37Z</time>
      </trkpt>
      <trkpt lat="46.430292" lon="10.039736">
        <ele>2432.777</ele>
        <time>2022-07-11T08:33:49Z</time>
      </trkpt>
      <trkpt lat="46.430304" lon="10.039577">
        <ele>2433.271</ele>
        <time>2022-07-11T08:34:01Z</time>
      </trkpt>
      <trkpt lat="46.430200" lon="10.039536">
        <ele>2435.672</ele>
        <time>2022-07-11T08:34:18Z</time>
      </trkpt>
      <trkpt lat="46.430143" lon="10.039625">
        <ele>2438.520</ele>
        <time>2022-07-11T08:34:34Z</time>
      </trkpt>
      <trkpt lat="46.430096" lon="10.039537">
        <ele>2439.474</ele>
        <time>2022-07-11T08:34:46Z</time>
      </trkpt>
      <trkpt lat="46.430083" lon="10.039437">
        <ele>2441.465</ele>
        <time>2022-07-11T08:35:01Z</time>
      </trkpt>
      <trkpt lat="46.430016" lon="10.039343">
        <ele>2442.368</ele>
        <time>2022-07-11T08:35:15Z</time>
      </trkpt>
      <trkpt lat="46.429982" lon="10.039282">
        <ele>2442.314</ele>
        <time>2022-07-11T08:35:21Z</time>
      </trkpt>
      <trkpt lat="46.429912" lon="10.039095">
        <ele>2443.309</ele>
        <time>2022-07-11T08:35:34Z</time>
      </trkpt>
      <trkpt lat="46.429898" lon="10.038984">
        <ele>2443.357</ele>
        <time>2022-07-11T08:35:38Z</time>
      </trkpt>
      <trkpt lat="46.429874" lon="10.038892">
        <ele>2443.316</ele>
        <time>2022-07-11T08:35:48Z</time>
      </trkpt>
      <trkpt lat="46.429811" lon="10.038789">
        <ele>2444.754</ele>
        <time>2022-07-11T08:36:02Z</time>
      </trkpt>
      <trkpt lat="46.429687" lon="10.038777">
        <ele>2445.716</ele>
        <time>2022-07-11T08:36:16Z</time>
      </trkpt>
      <trkpt lat="46.429502" lon="10.038568">
        <ele>2446.222</ele>
        <time>2022-07-11T08:36:35Z</time>
      </trkpt>
      <trkpt lat="46.429374" lon="10.038466">
        <ele>2446.696</ele>
        <time>2022-07-11T08:36:51Z</time>
      </trkpt>
      <trkpt lat="46.429278" lon="10.038448">
        <ele>2445.247</ele>
        <time>2022-07-11T08:36:57Z</time>
      </trkpt>
      <trkpt lat="46.429242" lon="10.038424">
        <ele>2444.215</ele>
        <time>2022-07-11T08:36:59Z</time>
      </trkpt>
      <trkpt lat="46.429079" lon="10.038202">
        <ele>2443.319</ele>
        <time>2022-07-11T08:37:10Z</time>
      </trkpt>
      <trkpt lat="46.429001" lon="10.038068">
        <ele>2443.854</ele>
        <time>2022-07-11T08:37:16Z</time>
      </trkpt>
      <trkpt lat="46.428910" lon="10.037829">
        <ele>2443.856</ele>
        <time>2022-07-11T08:37:29Z</time>
      </trkpt>
      <trkpt lat="46.428942" lon="10.037682">
        <ele>2443.311</ele>
        <time>2022-07-11T08:37:37Z</time>
      </trkpt>
      <trkpt lat="46.428990" lon="10.037648">
        <ele>2442.809</ele>
        <time>2022-07-11T08:37:46Z</time>
      </trkpt>
      <trkpt lat="46.429063" lon="10.037593">
        <ele>2441.486</ele>
        <time>2022-07-11T08:37:55Z</time>
      </trkpt>
      <trkpt lat="46.429158" lon="10.037468">
        <ele>2439.045</ele>
        <time>2022-07-11T08:38:07Z</time>
      </trkpt>
      <trkpt lat="46.429241" lon="10.037416">
        <ele>2436.163</ele>
        <time>2022-07-11T08:38:18Z</time>
      </trkpt>
      <trkpt lat="46.429232" lon="10.037313">
        <ele>2435.635</ele>
        <time>2022-07-11T08:38:24Z</time>
      </trkpt>
      <trkpt lat="46.429117" lon="10.036987">
        <ele>2433.741</ele>
        <time>2022-07-11T08:38:45Z</time>
      </trkpt>
      <trkpt lat="46.429068" lon="10.036761">
        <ele>2435.695</ele>
        <time>2022-07-11T08:39:03Z</time>
      </trkpt>
      <trkpt lat="46.429047" lon="10.036783">
        <ele>2435.636</ele>
        <time>2022-07-11T08:39:15Z</time>
      </trkpt>
      <trkpt lat="46.429039" lon="10.036761">
        <ele>2436.124</ele>
        <time>2022-07-11T08:40:01Z</time>
      </trkpt>
      <trkpt lat="46.429068" lon="10.036765">
        <ele>2436.118</ele>
        <time>2022-07-11T08:40:17Z</time>
      </trkpt>
      <trkpt lat="46.429077" lon="10.036734">
        <ele>2436.187</ele>
        <time>2022-07-11T08:40:20Z</time>
      </trkpt>
      <trkpt lat="46.429043" lon="10.036664">
        <ele>2436.642</ele>
        <time>2022-07-11T08:40:27Z</time>
      </trkpt>
      <trkpt lat="46.428931" lon="10.036537">
        <ele>2439.026</ele>
        <time>2022-07-11T08:40:45Z</time>
      </trkpt>
      <trkpt lat="46.428923" lon="10.036530">
        <ele>2439.009</ele>
        <time>2022-07-11T08:40:51Z</time>
      </trkpt>
      <trkpt lat="46.428856" lon="10.036298">
        <ele>2441.829</ele>
        <time>2022-07-11T08:41:07Z</time>
      </trkpt>
      <trkpt lat="46.428857" lon="10.036146">
        <ele>2443.368</ele>
        <time>2022-07-11T08:41:18Z</time>
      </trkpt>
      <trkpt lat="46.428724" lon="10.036025">
        <ele>2444.226</ele>
        <time>2022-07-11T08:41:35Z</time>
      </trkpt>
      <trkpt lat="46.428656" lon="10.036040">
        <ele>2444.748</ele>
        <time>2022-07-11T08:41:47Z</time>
      </trkpt>
      <trkpt lat="46.428563" lon="10.036005">
        <ele>2447.134</ele>
        <time>2022-07-11T08:42:05Z</time>
      </trkpt>
      <trkpt lat="46.428599" lon="10.035920">
        <ele>2449.128</ele>
        <time>2022-07-11T08:42:19Z</time>
      </trkpt>
      <trkpt lat="46.428606" lon="10.035901">
        <ele>2449.179</ele>
        <time>2022-07-11T08:42:22Z</time>
      </trkpt>
      <trkpt lat="46.428662" lon="10.035770">
        <ele>2451.017</ele>
        <time>2022-07-11T08:42:35Z</time>
      </trkpt>
      <trkpt lat="46.428669" lon="10.035721">
        <ele>2451.581</ele>
        <time>2022-07-11T08:42:40Z</time>
      </trkpt>
      <trkpt lat="46.428611" lon="10.035543">
        <ele>2453.424</ele>
        <time>2022-07-11T08:42:58Z</time>
      </trkpt>
      <trkpt lat="46.428602" lon="10.035537">
        <ele>2454.304</ele>
        <time>2022-07-11T08:42:59Z</time>
      </trkpt>
      <trkpt lat="46.428443" lon="10.035474">
        <ele>2455.314</ele>
        <time>2022-07-11T08:43:17Z</time>
      </trkpt>
      <trkpt lat="46.428397" lon="10.035400">
        <ele>2456.309</ele>
        <time>2022-07-11T08:43:30Z</time>
      </trkpt>
      <trkpt lat="46.428409" lon="10.035371">
        <ele>2457.783</ele>
        <time>2022-07-11T08:43:34Z</time>
      </trkpt>
      <trkpt lat="46.428488" lon="10.035278">
        <ele>2458.752</ele>
        <time>2022-07-11T08:43:51Z</time>
      </trkpt>
      <trkpt lat="46.428501" lon="10.035162">
        <ele>2461.130</ele>
        <time>2022-07-11T08:44:09Z</time>
      </trkpt>
      <trkpt lat="46.428473" lon="10.035194">
        <ele>2462.012</ele>
        <time>2022-07-11T08:44:15Z</time>
      </trkpt>
      <trkpt lat="46.428293" lon="10.035227">
        <ele>2464.068</ele>
        <time>2022-07-11T08:44:32Z</time>
      </trkpt>
      <trkpt lat="46.428285" lon="10.035172">
        <ele>2464.952</ele>
        <time>2022-07-11T08:44:45Z</time>
      </trkpt>
      <trkpt lat="46.428382" lon="10.035119">
        <ele>2466.493</ele>
        <time>2022-07-11T08:45:01Z</time>
      </trkpt>
      <trkpt lat="46.428403" lon="10.035017">
        <ele>2467.871</ele>
        <time>2022-07-11T08:45:16Z</time>
      </trkpt>
      <trkpt lat="46.428328" lon="10.035059">
        <ele>2469.795</ele>
        <time>2022-07-11T08:45:30Z</time>
      </trkpt>
      <trkpt lat="46.428238" lon="10.035027">
        <ele>2471.294</ele>
        <time>2022-07-11T08:45:43Z</time>
      </trkpt>
      <trkpt lat="46.428075" lon="10.034994">
        <ele>2471.657</ele>
        <time>2022-07-11T08:45:59Z</time>
      </trkpt>
      <trkpt lat="46.427917" lon="10.034943">
        <ele>2472.122</ele>
        <time>2022-07-11T08:46:14Z</time>
      </trkpt>
      <trkpt lat="46.427881" lon="10.034908">
        <ele>2472.609</ele>
        <time>2022-07-11T08:46:27Z</time>
      </trkpt>
      <trkpt lat="46.427785" lon="10.034747">
        <ele>2473.180</ele>
        <time>2022-07-11T08:46:38Z</time>
      </trkpt>
      <trkpt lat="46.427716" lon="10.034682">
        <ele>2473.179</ele>
        <time>2022-07-11T08:46:45Z</time>
      </trkpt>
      <trkpt lat="46.427619" lon="10.034650">
        <ele>2474.087</ele>
        <time>2022-07-11T08:46:51Z</time>
      </trkpt>
      <trkpt lat="46.427593" lon="10.034643">
        <ele>2474.049</ele>
        <time>2022-07-11T08:46:52Z</time>
      </trkpt>
      <trkpt lat="46.427517" lon="10.034626">
        <ele>2472.165</ele>
        <time>2022-07-11T08:46:54Z</time>
      </trkpt>
      <trkpt lat="46.427476" lon="10.034628">
        <ele>2472.149</ele>
        <time>2022-07-11T08:46:55Z</time>
      </trkpt>
      <trkpt lat="46.427385" lon="10.034630">
        <ele>2470.710</ele>
        <time>2022-07-11T08:46:57Z</time>
      </trkpt>
      <trkpt lat="46.427361" lon="10.034616">
        <ele>2470.758</ele>
        <time>2022-07-11T08:46:58Z</time>
      </trkpt>
      <trkpt lat="46.427341" lon="10.034602">
        <ele>2470.772</ele>
        <time>2022-07-11T08:46:59Z</time>
      </trkpt>
      <trkpt lat="46.427329" lon="10.034598">
        <ele>2470.721</ele>
        <time>2022-07-11T08:47:00Z</time>
      </trkpt>
      <trkpt lat="46.427326" lon="10.034601">
        <ele>2472.141</ele>
        <time>2022-07-11T08:47:03Z</time>
      </trkpt>
      <trkpt lat="46.427186" lon="10.034619">
        <ele>2470.705</ele>
        <time>2022-07-11T08:47:23Z</time>
      </trkpt>
      <trkpt lat="46.427010" lon="10.034619">
        <ele>2469.709</ele>
        <time>2022-07-11T08:47:27Z</time>
      </trkpt>
      <trkpt lat="46.426978" lon="10.034610">
        <ele>2469.733</ele>
        <time>2022-07-11T08:47:28Z</time>
      </trkpt>
      <trkpt lat="46.426923" lon="10.034590">
        <ele>2471.692</ele>
        <time>2022-07-11T08:47:36Z</time>
      </trkpt>
      <trkpt lat="46.426837" lon="10.034566">
        <ele>2475.050</ele>
        <time>2022-07-11T08:47:53Z</time>
      </trkpt>
      <trkpt lat="46.426796" lon="10.034524">
        <ele>2477.472</ele>
        <time>2022-07-11T08:48:09Z</time>
      </trkpt>
      <trkpt lat="46.426784" lon="10.034529">
        <ele>2478.478</ele>
        <time>2022-07-11T08:48:25Z</time>
      </trkpt>
      <trkpt lat="46.426769" lon="10.034522">
        <ele>2478.412</ele>
        <time>2022-07-11T08:48:42Z</time>
      </trkpt>
      <trkpt lat="46.426759" lon="10.034504">
        <ele>2478.973</ele>
        <time>2022-07-11T08:48:55Z</time>
      </trkpt>
      <trkpt lat="46.426730" lon="10.034499">
        <ele>2480.371</ele>
        <time>2022-07-11T08:49:08Z</time>
      </trkpt>
      <trkpt lat="46.426645" lon="10.034493">
        <ele>2479.865</ele>
        <time>2022-07-11T08:49:22Z</time>
      </trkpt>
      <trkpt lat="46.426552" lon="10.034526">
        <ele>2478.499</ele>
        <time>2022-07-11T08:49:36Z</time>
      </trkpt>
      <trkpt lat="46.426539" lon="10.034533">
        <ele>2478.407</ele>
        <time>2022-07-11T08:49:37Z</time>
      </trkpt>
      <trkpt lat="46.426528" lon="10.034541">
        <ele>2477.927</ele>
        <time>2022-07-11T08:49:38Z</time>
      </trkpt>
      <trkpt lat="46.426519" lon="10.034545">
        <ele>2477.909</ele>
        <time>2022-07-11T08:49:39Z</time>
      </trkpt>
      <trkpt lat="46.426331" lon="10.034554">
        <ele>2477.420</ele>
        <time>2022-07-11T08:49:54Z</time>
      </trkpt>
      <trkpt lat="46.426318" lon="10.034547">
        <ele>2478.959</ele>
        <time>2022-07-11T08:49:56Z</time>
      </trkpt>
      <trkpt lat="46.426191" lon="10.034512">
        <ele>2481.337</ele>
        <time>2022-07-11T08:50:12Z</time>
      </trkpt>
      <trkpt lat="46.426108" lon="10.034446">
        <ele>2481.799</ele>
        <time>2022-07-11T08:50:23Z</time>
      </trkpt>
      <trkpt lat="46.426097" lon="10.034442">
        <ele>2482.225</ele>
        <time>2022-07-11T08:50:24Z</time>
      </trkpt>
      <trkpt lat="46.426086" lon="10.034441">
        <ele>2482.249</ele>
        <time>2022-07-11T08:50:25Z</time>
      </trkpt>
      <trkpt lat="46.425942" lon="10.034433">
        <ele>2482.750</ele>
        <time>2022-07-11T08:50:39Z</time>
      </trkpt>
      <trkpt lat="46.425898" lon="10.034420">
        <ele>2483.798</ele>
        <time>2022-07-11T08:50:44Z</time>
      </trkpt>
      <trkpt lat="46.425886" lon="10.034417">
        <ele>2483.742</ele>
        <time>2022-07-11T08:50:45Z</time>
      </trkpt>
      <trkpt lat="46.425875" lon="10.034413">
        <ele>2483.765</ele>
        <time>2022-07-11T08:50:46Z</time>
      </trkpt>
      <trkpt lat="46.425863" lon="10.034417">
        <ele>2483.768</ele>
        <time>2022-07-11T08:50:47Z</time>
      </trkpt>
      <trkpt lat="46.425852" lon="10.034422">
        <ele>2483.714</ele>
        <time>2022-07-11T08:50:48Z</time>
      </trkpt>
      <trkpt lat="46.425673" lon="10.034438">
        <ele>2485.609</ele>
        <time>2022-07-11T08:51:08Z</time>
      </trkpt>
      <trkpt lat="46.425540" lon="10.034431">
        <ele>2487.587</ele>
        <time>2022-07-11T08:51:27Z</time>
      </trkpt>
      <trkpt lat="46.425529" lon="10.034438">
        <ele>2486.526</ele>
        <time>2022-07-11T08:51:28Z</time>
      </trkpt>
      <trkpt lat="46.425518" lon="10.034442">
        <ele>2486.574</ele>
        <time>2022-07-11T08:51:29Z</time>
      </trkpt>
      <trkpt lat="46.425466" lon="10.034464">
        <ele>2485.116</ele>
        <time>2022-07-11T08:51:35Z</time>
      </trkpt>
      <trkpt lat="46.425361" lon="10.034434">
        <ele>2485.672</ele>
        <time>2022-07-11T08:51:46Z</time>
      </trkpt>
      <trkpt lat="46.425137" lon="10.034509">
        <ele>2484.636</ele>
        <time>2022-07-11T08:51:54Z</time>
      </trkpt>
      <trkpt lat="46.425098" lon="10.034527">
        <ele>2484.697</ele>
        <time>2022-07-11T08:51:57Z</time>
      </trkpt>
      <trkpt lat="46.425087" lon="10.034537">
        <ele>2486.195</ele>
        <time>2022-07-11T08:51:58Z</time>
      </trkpt>
      <trkpt lat="46.425076" lon="10.034545">
        <ele>2486.179</ele>
        <time>2022-07-11T08:51:59Z</time>
      </trkpt>
      <trkpt lat="46.425061" lon="10.034547">
        <ele>2486.154</ele>
        <time>2022-07-11T08:52:00Z</time>
      </trkpt>
      <trkpt lat="46.425046" lon="10.034548">
        <ele>2486.156</ele>
        <time>2022-07-11T08:52:01Z</time>
      </trkpt>
      <trkpt lat="46.425028" lon="10.034546">
        <ele>2486.111</ele>
        <time>2022-07-11T08:52:02Z</time>
      </trkpt>
      <trkpt lat="46.424900" lon="10.034522">
        <ele>2487.009</ele>
        <time>2022-07-11T08:52:11Z</time>
      </trkpt>
      <trkpt lat="46.424887" lon="10.034531">
        <ele>2487.096</ele>
        <time>2022-07-11T08:52:12Z</time>
      </trkpt>
      <trkpt lat="46.424872" lon="10.034540">
        <ele>2487.035</ele>
        <time>2022-07-11T08:52:13Z</time>
      </trkpt>
      <trkpt lat="46.424855" lon="10.034548">
        <ele>2487.023</ele>
        <time>2022-07-11T08:52:14Z</time>
      </trkpt>
      <trkpt lat="46.424837" lon="10.034554">
        <ele>2487.095</ele>
        <time>2022-07-11T08:52:15Z</time>
      </trkpt>
      <trkpt lat="46.424820" lon="10.034553">
        <ele>2487.031</ele>
        <time>2022-07-11T08:52:16Z</time>
      </trkpt>
      <trkpt lat="46.424801" lon="10.034549">
        <ele>2487.085</ele>
        <time>2022-07-11T08:52:17Z</time>
      </trkpt>
      <trkpt lat="46.424781" lon="10.034551">
        <ele>2487.076</ele>
        <time>2022-07-11T08:52:18Z</time>
      </trkpt>
      <trkpt lat="46.424766" lon="10.034554">
        <ele>2487.584</ele>
        <time>2022-07-11T08:52:19Z</time>
      </trkpt>
      <trkpt lat="46.424755" lon="10.034558">
        <ele>2488.058</ele>
        <time>2022-07-11T08:52:20Z</time>
      </trkpt>
      <trkpt lat="46.424524" lon="10.034559">
        <ele>2486.576</ele>
        <time>2022-07-11T08:52:28Z</time>
      </trkpt>
      <trkpt lat="46.424271" lon="10.034520">
        <ele>2487.590</ele>
        <time>2022-07-11T08:52:38Z</time>
      </trkpt>
      <trkpt lat="46.424259" lon="10.034522">
        <ele>2487.519</ele>
        <time>2022-07-11T08:52:39Z</time>
      </trkpt>
      <trkpt lat="46.424060" lon="10.034476">
        <ele>2486.109</ele>
        <time>2022-07-11T08:52:49Z</time>
      </trkpt>
      <trkpt lat="46.424036" lon="10.034484">
        <ele>2486.138</ele>
        <time>2022-07-11T08:52:50Z</time>
      </trkpt>
      <trkpt lat="46.424019" lon="10.034495">
        <ele>2486.127</ele>
        <time>2022-07-11T08:52:51Z</time>
      </trkpt>
      <trkpt lat="46.424010" lon="10.034506">
        <ele>2487.575</ele>
        <time>2022-07-11T08:52:54Z</time>
      </trkpt>
      <trkpt lat="46.423941" lon="10.034572">
        <ele>2488.967</ele>
        <time>2022-07-11T08:53:10Z</time>
      </trkpt>
      <trkpt lat="46.423904" lon="10.034594">
        <ele>2489.413</ele>
        <time>2022-07-11T08:53:25Z</time>
      </trkpt>
      <trkpt lat="46.423867" lon="10.034601">
        <ele>2489.467</ele>
        <time>2022-07-11T08:53:27Z</time>
      </trkpt>
      <trkpt lat="46.423839" lon="10.034593">
        <ele>2489.448</ele>
        <time>2022-07-11T08:53:28Z</time>
      </trkpt>
      <trkpt lat="46.423808" lon="10.034587">
        <ele>2489.426</ele>
        <time>2022-07-11T08:53:29Z</time>
      </trkpt>
      <trkpt lat="46.423775" lon="10.034573">
        <ele>2489.440</ele>
        <time>2022-07-11T08:53:30Z</time>
      </trkpt>
      <trkpt lat="46.423740" lon="10.034555">
        <ele>2489.446</ele>
        <time>2022-07-11T08:53:31Z</time>
      </trkpt>
      <trkpt lat="46.423528" lon="10.034561">
        <ele>2488.088</ele>
        <time>2022-07-11T08:53:40Z</time>
      </trkpt>
      <trkpt lat="46.423436" lon="10.034516">
        <ele>2488.016</ele>
        <time>2022-07-11T08:53:45Z</time>
      </trkpt>
      <trkpt lat="46.423419" lon="10.034490">
        <ele>2488.009</ele>
        <time>2022-07-11T08:53:46Z</time>
      </trkpt>
      <trkpt lat="46.423400" lon="10.034475">
        <ele>2487.565</ele>
        <time>2022-07-11T08:53:47Z</time>
      </trkpt>
      <trkpt lat="46.423387" lon="10.034471">
        <ele>2488.044</ele>
        <time>2022-07-11T08:53:48Z</time>
      </trkpt>
      <trkpt lat="46.423375" lon="10.034471">
        <ele>2488.062</ele>
        <time>2022-07-11T08:53:49Z</time>
      </trkpt>
      <trkpt lat="46.423343" lon="10.034481">
        <ele>2486.164</ele>
        <time>2022-07-11T08:54:00Z</time>
      </trkpt>
      <trkpt lat="46.423332" lon="10.034487">
        <ele>2486.140</ele>
        <time>2022-07-11T08:54:01Z</time>
      </trkpt>
      <trkpt lat="46.423314" lon="10.034495">
        <ele>2486.154</ele>
        <time>2022-07-11T08:54:02Z</time>
      </trkpt>
      <trkpt lat="46.423297" lon="10.034497">
        <ele>2486.125</ele>
        <time>2022-07-11T08:54:03Z</time>
      </trkpt>
      <trkpt lat="46.423281" lon="10.034495">
        <ele>2486.153</ele>
        <time>2022-07-11T08:54:04Z</time>
      </trkpt>
      <trkpt lat="46.423261" lon="10.034493">
        <ele>2486.177</ele>
        <time>2022-07-11T08:54:05Z</time>
      </trkpt>
      <trkpt lat="46.423242" lon="10.034493">
        <ele>2486.137</ele>
        <time>2022-07-11T08:54:06Z</time>
      </trkpt>
      <trkpt lat="46.423222" lon="10.034495">
        <ele>2486.149</ele>
        <time>2022-07-11T08:54:07Z</time>
      </trkpt>
      <trkpt lat="46.423201" lon="10.034498">
        <ele>2486.113</ele>
        <time>2022-07-11T08:54:08Z</time>
      </trkpt>
      <trkpt lat="46.423182" lon="10.034498">
        <ele>2486.109</ele>
        <time>2022-07-11T08:54:09Z</time>
      </trkpt>
      <trkpt lat="46.423164" lon="10.034493">
        <ele>2487.544</ele>
        <time>2022-07-11T08:54:10Z</time>
      </trkpt>
      <trkpt lat="46.423146" lon="10.034486">
        <ele>2487.583</ele>
        <time>2022-07-11T08:54:11Z</time>
      </trkpt>
      <trkpt lat="46.423133" lon="10.034479">
        <ele>2487.561</ele>
        <time>2022-07-11T08:54:12Z</time>
      </trkpt>
      <trkpt lat="46.423121" lon="10.034471">
        <ele>2487.513</ele>
        <time>2022-07-11T08:54:13Z</time>
      </trkpt>
      <trkpt lat="46.423109" lon="10.034466">
        <ele>2487.589</ele>
        <time>2022-07-11T08:54:14Z</time>
      </trkpt>
      <trkpt lat="46.423097" lon="10.034462">
        <ele>2487.583</ele>
        <time>2022-07-11T08:54:15Z</time>
      </trkpt>
      <trkpt lat="46.423085" lon="10.034455">
        <ele>2487.574</ele>
        <time>2022-07-11T08:54:16Z</time>
      </trkpt>
      <trkpt lat="46.423073" lon="10.034441">
        <ele>2487.542</ele>
        <time>2022-07-11T08:54:17Z</time>
      </trkpt>
      <trkpt lat="46.423064" lon="10.034425">
        <ele>2486.166</ele>
        <time>2022-07-11T08:54:18Z</time>
      </trkpt>
      <trkpt lat="46.423055" lon="10.034410">
        <ele>2486.134</ele>
        <time>2022-07-11T08:54:19Z</time>
      </trkpt>
      <trkpt lat="46.423044" lon="10.034392">
        <ele>2485.655</ele>
        <time>2022-07-11T08:54:20Z</time>
      </trkpt>
      <trkpt lat="46.423031" lon="10.034372">
        <ele>2485.110</ele>
        <time>2022-07-11T08:54:21Z</time>
      </trkpt>
      <trkpt lat="46.422895" lon="10.034174">
        <ele>2484.609</ele>
        <time>2022-07-11T08:54:33Z</time>
      </trkpt>
      <trkpt lat="46.422891" lon="10.034158">
        <ele>2484.134</ele>
        <time>2022-07-11T08:54:34Z</time>
      </trkpt>
      <trkpt lat="46.422888" lon="10.034125">
        <ele>2485.693</ele>
        <time>2022-07-11T08:54:40Z</time>
      </trkpt>
      <trkpt lat="46.422879" lon="10.034070">
        <ele>2485.671</ele>
        <time>2022-07-11T08:55:12Z</time>
      </trkpt>
      <trkpt lat="46.422863" lon="10.034045">
        <ele>2485.183</ele>
        <time>2022-07-11T08:55:17Z</time>
      </trkpt>
      <trkpt lat="46.422852" lon="10.034036">
        <ele>2485.139</ele>
        <time>2022-07-11T08:55:18Z</time>
      </trkpt>
      <trkpt lat="46.422769" lon="10.033993">
        <ele>2482.213</ele>
        <time>2022-07-11T08:55:27Z</time>
      </trkpt>
      <trkpt lat="46.422639" lon="10.033871">
        <ele>2478.964</ele>
        <time>2022-07-11T08:55:43Z</time>
      </trkpt>
      <trkpt lat="46.422628" lon="10.033866">
        <ele>2478.992</ele>
        <time>2022-07-11T08:55:44Z</time>
      </trkpt>
      <trkpt lat="46.422616" lon="10.033863">
        <ele>2478.476</ele>
        <time>2022-07-11T08:55:45Z</time>
      </trkpt>
      <trkpt lat="46.422601" lon="10.033862">
        <ele>2477.923</ele>
        <time>2022-07-11T08:55:46Z</time>
      </trkpt>
      <trkpt lat="46.422587" lon="10.033861">
        <ele>2477.983</ele>
        <time>2022-07-11T08:55:47Z</time>
      </trkpt>
      <trkpt lat="46.422575" lon="10.033855">
        <ele>2477.411</ele>
        <time>2022-07-11T08:55:48Z</time>
      </trkpt>
      <trkpt lat="46.422456" lon="10.033694">
        <ele>2475.509</ele>
        <time>2022-07-11T08:56:04Z</time>
      </trkpt>
      <trkpt lat="46.422438" lon="10.033659">
        <ele>2475.553</ele>
        <time>2022-07-11T08:56:07Z</time>
      </trkpt>
      <trkpt lat="46.422421" lon="10.033609">
        <ele>2475.562</ele>
        <time>2022-07-11T08:56:10Z</time>
      </trkpt>
      <trkpt lat="46.422422" lon="10.033587">
        <ele>2475.530</ele>
        <time>2022-07-11T08:56:11Z</time>
      </trkpt>
      <trkpt lat="46.422422" lon="10.033568">
        <ele>2475.592</ele>
        <time>2022-07-11T08:56:12Z</time>
      </trkpt>
      <trkpt lat="46.422425" lon="10.033553">
        <ele>2475.578</ele>
        <time>2022-07-11T08:56:13Z</time>
      </trkpt>
      <trkpt lat="46.422429" lon="10.033364">
        <ele>2475.062</ele>
        <time>2022-07-11T08:56:28Z</time>
      </trkpt>
      <trkpt lat="46.422428" lon="10.033343">
        <ele>2475.043</ele>
        <time>2022-07-11T08:56:30Z</time>
      </trkpt>
      <trkpt lat="46.422423" lon="10.033324">
        <ele>2475.021</ele>
        <time>2022-07-11T08:56:31Z</time>
      </trkpt>
      <trkpt lat="46.422420" lon="10.033302">
        <ele>2475.045</ele>
        <time>2022-07-11T08:56:32Z</time>
      </trkpt>
      <trkpt lat="46.422280" lon="10.032994">
        <ele>2475.067</ele>
        <time>2022-07-11T08:56:43Z</time>
      </trkpt>
      <trkpt lat="46.422230" lon="10.032903">
        <ele>2476.481</ele>
        <time>2022-07-11T08:56:47Z</time>
      </trkpt>
      <trkpt lat="46.422063" lon="10.032686">
        <ele>2478.419</ele>
        <time>2022-07-11T08:57:00Z</time>
      </trkpt>
      <trkpt lat="46.421971" lon="10.032556">
        <ele>2477.409</ele>
        <time>2022-07-11T08:57:05Z</time>
      </trkpt>
      <trkpt lat="46.421786" lon="10.032396">
        <ele>2476.467</ele>
        <time>2022-07-11T08:57:14Z</time>
      </trkpt>
      <trkpt lat="46.421731" lon="10.032348">
        <ele>2478.486</ele>
        <time>2022-07-11T08:57:19Z</time>
      </trkpt>
      <trkpt lat="46.421626" lon="10.032211">
        <ele>2476.974</ele>
        <time>2022-07-11T08:57:27Z</time>
      </trkpt>
      <trkpt lat="46.421519" lon="10.032007">
        <ele>2473.116</ele>
        <time>2022-07-11T08:57:35Z</time>
      </trkpt>
      <trkpt lat="46.421491" lon="10.031972">
        <ele>2472.642</ele>
        <time>2022-07-11T08:57:37Z</time>
      </trkpt>
      <trkpt lat="46.421482" lon="10.031946">
        <ele>2471.666</ele>
        <time>2022-07-11T08:57:38Z</time>
      </trkpt>
      <trkpt lat="46.421476" lon="10.031918">
        <ele>2471.297</ele>
        <time>2022-07-11T08:57:39Z</time>
      </trkpt>
      <trkpt lat="46.421472" lon="10.031890">
        <ele>2471.235</ele>
        <time>2022-07-11T08:57:40Z</time>
      </trkpt>
      <trkpt lat="46.421468" lon="10.031865">
        <ele>2470.789</ele>
        <time>2022-07-11T08:57:41Z</time>
      </trkpt>
      <trkpt lat="46.421411" lon="10.031721">
        <ele>2468.373</ele>
        <time>2022-07-11T08:57:46Z</time>
      </trkpt>
      <trkpt lat="46.421281" lon="10.031347">
        <ele>2465.985</ele>
        <time>2022-07-11T08:57:56Z</time>
      </trkpt>
      <trkpt lat="46.421302" lon="10.031078">
        <ele>2464.013</ele>
        <time>2022-07-11T08:58:02Z</time>
      </trkpt>
      <trkpt lat="46.421283" lon="10.030518">
        <ele>2461.509</ele>
        <time>2022-07-11T08:58:14Z</time>
      </trkpt>
      <trkpt lat="46.421274" lon="10.030099">
        <ele>2460.618</ele>
        <time>2022-07-11T08:58:24Z</time>
      </trkpt>
      <trkpt lat="46.421282" lon="10.029953">
        <ele>2459.197</ele>
        <time>2022-07-11T08:58:30Z</time>
      </trkpt>
      <trkpt lat="46.421310" lon="10.029458">
        <ele>2456.725</ele>
        <time>2022-07-11T08:58:42Z</time>
      </trkpt>
      <trkpt lat="46.421301" lon="10.029369">
        <ele>2455.357</ele>
        <time>2022-07-11T08:58:44Z</time>
      </trkpt>
      <trkpt lat="46.421289" lon="10.029279">
        <ele>2454.843</ele>
        <time>2022-07-11T08:58:46Z</time>
      </trkpt>
      <trkpt lat="46.421291" lon="10.029235">
        <ele>2454.867</ele>
        <time>2022-07-11T08:58:47Z</time>
      </trkpt>
      <trkpt lat="46.421279" lon="10.029151">
        <ele>2454.388</ele>
        <time>2022-07-11T08:58:49Z</time>
      </trkpt>
      <trkpt lat="46.421163" lon="10.028686">
        <ele>2451.066</ele>
        <time>2022-07-11T08:59:00Z</time>
      </trkpt>
      <trkpt lat="46.421124" lon="10.028217">
        <ele>2448.120</ele>
        <time>2022-07-11T08:59:13Z</time>
      </trkpt>
      <trkpt lat="46.421141" lon="10.027793">
        <ele>2446.265</ele>
        <time>2022-07-11T08:59:23Z</time>
      </trkpt>
      <trkpt lat="46.421181" lon="10.027636">
        <ele>2445.268</ele>
        <time>2022-07-11T08:59:28Z</time>
      </trkpt>
      <trkpt lat="46.421169" lon="10.027524">
        <ele>2444.214</ele>
        <time>2022-07-11T08:59:33Z</time>
      </trkpt>
      <trkpt lat="46.421192" lon="10.027424">
        <ele>2443.309</ele>
        <time>2022-07-11T08:59:40Z</time>
      </trkpt>
      <trkpt lat="46.421228" lon="10.027339">
        <ele>2441.857</ele>
        <time>2022-07-11T08:59:54Z</time>
      </trkpt>
      <trkpt lat="46.421224" lon="10.027332">
        <ele>2441.856</ele>
        <time>2022-07-11T09:00:00Z</time>
      </trkpt>
      <trkpt lat="46.421164" lon="10.027003">
        <ele>2439.094</ele>
        <time>2022-07-11T09:00:12Z</time>
      </trkpt>
      <trkpt lat="46.421135" lon="10.026818">
        <ele>2437.556</ele>
        <time>2022-07-11T09:00:17Z</time>
      </trkpt>
      <trkpt lat="46.421116" lon="10.026760">
        <ele>2437.032</ele>
        <time>2022-07-11T09:00:19Z</time>
      </trkpt>
      <trkpt lat="46.421047" lon="10.026540">
        <ele>2435.196</ele>
        <time>2022-07-11T09:00:31Z</time>
      </trkpt>
      <trkpt lat="46.420938" lon="10.026417">
        <ele>2434.677</ele>
        <time>2022-07-11T09:00:38Z</time>
      </trkpt>
      <trkpt lat="46.420922" lon="10.026360">
        <ele>2434.645</ele>
        <time>2022-07-11T09:00:41Z</time>
      </trkpt>
      <trkpt lat="46.420897" lon="10.026278">
        <ele>2433.259</ele>
        <time>2022-07-11T09:00:44Z</time>
      </trkpt>
      <trkpt lat="46.420832" lon="10.025905">
        <ele>2430.337</ele>
        <time>2022-07-11T09:00:55Z</time>
      </trkpt>
      <trkpt lat="46.420815" lon="10.025860">
        <ele>2429.349</ele>
        <time>2022-07-11T09:00:57Z</time>
      </trkpt>
      <trkpt lat="46.420812" lon="10.025761">
        <ele>2428.413</ele>
        <time>2022-07-11T09:01:08Z</time>
      </trkpt>
      <trkpt lat="46.420861" lon="10.025607">
        <ele>2426.909</ele>
        <time>2022-07-11T09:01:18Z</time>
      </trkpt>
      <trkpt lat="46.420847" lon="10.025549">
        <ele>2425.524</ele>
        <time>2022-07-11T09:01:21Z</time>
      </trkpt>
      <trkpt lat="46.420825" lon="10.025490">
        <ele>2424.173</ele>
        <time>2022-07-11T09:01:31Z</time>
      </trkpt>
      <trkpt lat="46.420830" lon="10.025402">
        <ele>2421.221</ele>
        <time>2022-07-11T09:01:45Z</time>
      </trkpt>
      <trkpt lat="46.420833" lon="10.025358">
        <ele>2419.743</ele>
        <time>2022-07-11T09:01:54Z</time>
      </trkpt>
      <trkpt lat="46.420841" lon="10.025303">
        <ele>2418.339</ele>
        <time>2022-07-11T09:01:58Z</time>
      </trkpt>
      <trkpt lat="46.420848" lon="10.025325">
        <ele>2418.853</ele>
        <time>2022-07-11T09:02:23Z</time>
      </trkpt>
      <trkpt lat="46.420845" lon="10.025294">
        <ele>2418.874</ele>
        <time>2022-07-11T09:02:32Z</time>
      </trkpt>
      <trkpt lat="46.420804" lon="10.025252">
        <ele>2417.882</ele>
        <time>2022-07-11T09:02:35Z</time>
      </trkpt>
      <trkpt lat="46.420786" lon="10.025226">
        <ele>2417.386</ele>
        <time>2022-07-11T09:02:36Z</time>
      </trkpt>
      <trkpt lat="46.420769" lon="10.025199">
        <ele>2416.863</ele>
        <time>2022-07-11T09:02:37Z</time>
      </trkpt>
      <trkpt lat="46.420751" lon="10.025180">
        <ele>2416.844</ele>
        <time>2022-07-11T09:02:38Z</time>
      </trkpt>
      <trkpt lat="46.420733" lon="10.025171">
        <ele>2415.918</ele>
        <time>2022-07-11T09:02:39Z</time>
      </trkpt>
      <trkpt lat="46.420718" lon="10.025171">
        <ele>2415.909</ele>
        <time>2022-07-11T09:02:40Z</time>
      </trkpt>
      <trkpt lat="46.420703" lon="10.025168">
        <ele>2415.997</ele>
        <time>2022-07-11T09:02:41Z</time>
      </trkpt>
      <trkpt lat="46.420690" lon="10.025164">
        <ele>2415.956</ele>
        <time>2022-07-11T09:02:42Z</time>
      </trkpt>
      <trkpt lat="46.420674" lon="10.025154">
        <ele>2415.924</ele>
        <time>2022-07-11T09:02:43Z</time>
      </trkpt>
      <trkpt lat="46.420448" lon="10.024932">
        <ele>2415.416</ele>
        <time>2022-07-11T09:02:55Z</time>
      </trkpt>
      <trkpt lat="46.420218" lon="10.024785">
        <ele>2414.082</ele>
        <time>2022-07-11T09:03:07Z</time>
      </trkpt>
      <trkpt lat="46.420231" lon="10.024800">
        <ele>2413.036</ele>
        <time>2022-07-11T09:03:37Z</time>
      </trkpt>
      <trkpt lat="46.420211" lon="10.024780">
        <ele>2413.057</ele>
        <time>2022-07-11T09:03:41Z</time>
      </trkpt>
      <trkpt lat="46.419929" lon="10.024679">
        <ele>2410.645</ele>
        <time>2022-07-11T09:03:56Z</time>
      </trkpt>
      <trkpt lat="46.419641" lon="10.024562">
        <ele>2408.789</ele>
        <time>2022-07-11T09:04:08Z</time>
      </trkpt>
      <trkpt lat="46.419460" lon="10.024493">
        <ele>2405.377</ele>
        <time>2022-07-11T09:04:15Z</time>
      </trkpt>
      <trkpt lat="46.419381" lon="10.024454">
        <ele>2403.961</ele>
        <time>2022-07-11T09:04:18Z</time>
      </trkpt>
      <trkpt lat="46.419252" lon="10.024411">
        <ele>2402.427</ele>
        <time>2022-07-11T09:04:22Z</time>
      </trkpt>
      <trkpt lat="46.418948" lon="10.024286">
        <ele>2399.109</ele>
        <time>2022-07-11T09:04:34Z</time>
      </trkpt>
      <trkpt lat="46.418681" lon="10.024171">
        <ele>2398.148</ele>
        <time>2022-07-11T09:04:44Z</time>
      </trkpt>
      <trkpt lat="46.418432" lon="10.024086">
        <ele>2396.227</ele>
        <time>2022-07-11T09:04:55Z</time>
      </trkpt>
      <trkpt lat="46.418160" lon="10.024163">
        <ele>2392.885</ele>
        <time>2022-07-11T09:05:06Z</time>
      </trkpt>
      <trkpt lat="46.417773" lon="10.024179">
        <ele>2391.957</ele>
        <time>2022-07-11T09:05:16Z</time>
      </trkpt>
      <trkpt lat="46.417731" lon="10.024197">
        <ele>2391.973</ele>
        <time>2022-07-11T09:05:17Z</time>
      </trkpt>
      <trkpt lat="46.417692" lon="10.024223">
        <ele>2391.977</ele>
        <time>2022-07-11T09:05:18Z</time>
      </trkpt>
      <trkpt lat="46.417652" lon="10.024245">
        <ele>2391.978</ele>
        <time>2022-07-11T09:05:19Z</time>
      </trkpt>
      <trkpt lat="46.417610" lon="10.024262">
        <ele>2391.916</ele>
        <time>2022-07-11T09:05:20Z</time>
      </trkpt>
      <trkpt lat="46.417386" lon="10.024431">
        <ele>2391.430</ele>
        <time>2022-07-11T09:05:30Z</time>
      </trkpt>
      <trkpt lat="46.417149" lon="10.024705">
        <ele>2389.089</ele>
        <time>2022-07-11T09:05:40Z</time>
      </trkpt>
      <trkpt lat="46.417067" lon="10.024851">
        <ele>2387.006</ele>
        <time>2022-07-11T09:05:45Z</time>
      </trkpt>
      <trkpt lat="46.417002" lon="10.024873">
        <ele>2386.626</ele>
        <time>2022-07-11T09:05:48Z</time>
      </trkpt>
      <trkpt lat="46.416987" lon="10.024866">
        <ele>2387.009</ele>
        <time>2022-07-11T09:05:49Z</time>
      </trkpt>
      <trkpt lat="46.416680" lon="10.024858">
        <ele>2385.649</ele>
        <time>2022-07-11T09:06:00Z</time>
      </trkpt>
      <trkpt lat="46.416278" lon="10.024525">
        <ele>2385.128</ele>
        <time>2022-07-11T09:06:15Z</time>
      </trkpt>
      <trkpt lat="46.415827" lon="10.024228">
        <ele>2384.666</ele>
        <time>2022-07-11T09:06:31Z</time>
      </trkpt>
      <trkpt lat="46.415516" lon="10.024261">
        <ele>2383.218</ele>
        <time>2022-07-11T09:06:42Z</time>
      </trkpt>
      <trkpt lat="46.415284" lon="10.024330">
        <ele>2380.344</ele>
        <time>2022-07-11T09:06:51Z</time>
      </trkpt>
      <trkpt lat="46.415053" lon="10.024446">
        <ele>2378.428</ele>
        <time>2022-07-11T09:07:03Z</time>
      </trkpt>
      <trkpt lat="46.414758" lon="10.024481">
        <ele>2375.029</ele>
        <time>2022-07-11T09:07:14Z</time>
      </trkpt>
      <trkpt lat="46.414536" lon="10.024429">
        <ele>2372.657</ele>
        <time>2022-07-11T09:07:22Z</time>
      </trkpt>
      <trkpt lat="46.414378" lon="10.024376">
        <ele>2371.211</ele>
        <time>2022-07-11T09:07:28Z</time>
      </trkpt>
      <trkpt lat="46.414198" lon="10.024386">
        <ele>2371.749</ele>
        <time>2022-07-11T09:07:36Z</time>
      </trkpt>
      <trkpt lat="46.414173" lon="10.024453">
        <ele>2372.602</ele>
        <time>2022-07-11T09:07:41Z</time>
      </trkpt>
      <trkpt lat="46.414163" lon="10.024505">
        <ele>2372.622</ele>
        <time>2022-07-11T09:07:50Z</time>
      </trkpt>
      <trkpt lat="46.414149" lon="10.024576">
        <ele>2369.309</ele>
        <time>2022-07-11T09:07:58Z</time>
      </trkpt>
      <trkpt lat="46.414115" lon="10.024659">
        <ele>2368.885</ele>
        <time>2022-07-11T09:08:08Z</time>
      </trkpt>
      <trkpt lat="46.414047" lon="10.024754">
        <ele>2365.414</ele>
        <time>2022-07-11T09:08:18Z</time>
      </trkpt>
      <trkpt lat="46.413897" lon="10.024846">
        <ele>2362.542</ele>
        <time>2022-07-11T09:08:35Z</time>
      </trkpt>
      <trkpt lat="46.413806" lon="10.024859">
        <ele>2359.634</ele>
        <time>2022-07-11T09:08:47Z</time>
      </trkpt>
      <trkpt lat="46.413805" lon="10.024833">
        <ele>2358.220</ele>
        <time>2022-07-11T09:08:50Z</time>
      </trkpt>
      <trkpt lat="46.413778" lon="10.024739">
        <ele>2356.384</ele>
        <time>2022-07-11T09:08:59Z</time>
      </trkpt>
      <trkpt lat="46.413768" lon="10.024727">
        <ele>2355.335</ele>
        <time>2022-07-11T09:09:00Z</time>
      </trkpt>
      <trkpt lat="46.413759" lon="10.024713">
        <ele>2355.383</ele>
        <time>2022-07-11T09:09:01Z</time>
      </trkpt>
      <trkpt lat="46.413750" lon="10.024700">
        <ele>2355.397</ele>
        <time>2022-07-11T09:09:02Z</time>
      </trkpt>
      <trkpt lat="46.413733" lon="10.024673">
        <ele>2356.346</ele>
        <time>2022-07-11T09:09:15Z</time>
      </trkpt>
      <trkpt lat="46.413742" lon="10.024687">
        <ele>2355.388</ele>
        <time>2022-07-11T09:09:49Z</time>
      </trkpt>
      <trkpt lat="46.413722" lon="10.024690">
        <ele>2355.316</ele>
        <time>2022-07-11T09:10:16Z</time>
      </trkpt>
      <trkpt lat="46.413658" lon="10.024541">
        <ele>2353.409</ele>
        <time>2022-07-11T09:10:35Z</time>
      </trkpt>
      <trkpt lat="46.413551" lon="10.024364">
        <ele>2351.095</ele>
        <time>2022-07-11T09:10:43Z</time>
      </trkpt>
      <trkpt lat="46.413470" lon="10.024332">
        <ele>2349.644</ele>
        <time>2022-07-11T09:10:48Z</time>
      </trkpt>
      <trkpt lat="46.413409" lon="10.024325">
        <ele>2347.262</ele>
        <time>2022-07-11T09:11:00Z</time>
      </trkpt>
      <trkpt lat="46.413326" lon="10.024285">
        <ele>2345.244</ele>
        <time>2022-07-11T09:11:11Z</time>
      </trkpt>
      <trkpt lat="46.413289" lon="10.024290">
        <ele>2343.880</ele>
        <time>2022-07-11T09:11:15Z</time>
      </trkpt>
      <trkpt lat="46.413143" lon="10.024278">
        <ele>2340.964</ele>
        <time>2022-07-11T09:11:31Z</time>
      </trkpt>
      <trkpt lat="46.413087" lon="10.024277">
        <ele>2340.425</ele>
        <time>2022-07-11T09:11:40Z</time>
      </trkpt>
      <trkpt lat="46.413076" lon="10.024267">
        <ele>2340.463</ele>
        <time>2022-07-11T09:11:41Z</time>
      </trkpt>
      <trkpt lat="46.413059" lon="10.024257">
        <ele>2340.417</ele>
        <time>2022-07-11T09:11:42Z</time>
      </trkpt>
      <trkpt lat="46.413036" lon="10.024245">
        <ele>2339.534</ele>
        <time>2022-07-11T09:11:43Z</time>
      </trkpt>
      <trkpt lat="46.413012" lon="10.024226">
        <ele>2339.055</ele>
        <time>2022-07-11T09:11:44Z</time>
      </trkpt>
      <trkpt lat="46.412989" lon="10.024206">
        <ele>2339.010</ele>
        <time>2022-07-11T09:11:45Z</time>
      </trkpt>
      <trkpt lat="46.412810" lon="10.023994">
        <ele>2335.609</ele>
        <time>2022-07-11T09:11:55Z</time>
      </trkpt>
      <trkpt lat="46.412634" lon="10.023744">
        <ele>2333.724</ele>
        <time>2022-07-11T09:12:04Z</time>
      </trkpt>
      <trkpt lat="46.412353" lon="10.023581">
        <ele>2331.873</ele>
        <time>2022-07-11T09:12:15Z</time>
      </trkpt>
      <trkpt lat="46.412196" lon="10.023470">
        <ele>2331.331</ele>
        <time>2022-07-11T09:12:23Z</time>
      </trkpt>
      <trkpt lat="46.412177" lon="10.023446">
        <ele>2331.393</ele>
        <time>2022-07-11T09:12:24Z</time>
      </trkpt>
      <trkpt lat="46.412167" lon="10.023424">
        <ele>2330.349</ele>
        <time>2022-07-11T09:12:34Z</time>
      </trkpt>
      <trkpt lat="46.412167" lon="10.023397">
        <ele>2330.363</ele>
        <time>2022-07-11T09:12:59Z</time>
      </trkpt>
      <trkpt lat="46.412119" lon="10.023201">
        <ele>2329.474</ele>
        <time>2022-07-11T09:13:06Z</time>
      </trkpt>
      <trkpt lat="46.411946" lon="10.022853">
        <ele>2326.062</ele>
        <time>2022-07-11T09:13:18Z</time>
      </trkpt>
      <trkpt lat="46.411764" lon="10.022844">
        <ele>2325.026</ele>
        <time>2022-07-11T09:13:25Z</time>
      </trkpt>
      <trkpt lat="46.411730" lon="10.022858">
        <ele>2326.513</ele>
        <time>2022-07-11T09:13:27Z</time>
      </trkpt>
      <trkpt lat="46.411716" lon="10.022856">
        <ele>2326.543</ele>
        <time>2022-07-11T09:13:28Z</time>
      </trkpt>
      <trkpt lat="46.411469" lon="10.022796">
        <ele>2324.607</ele>
        <time>2022-07-11T09:13:38Z</time>
      </trkpt>
      <trkpt lat="46.411436" lon="10.022768">
        <ele>2324.109</ele>
        <time>2022-07-11T09:13:39Z</time>
      </trkpt>
      <trkpt lat="46.411406" lon="10.022734">
        <ele>2324.152</ele>
        <time>2022-07-11T09:13:40Z</time>
      </trkpt>
      <trkpt lat="46.411194" lon="10.022526">
        <ele>2322.621</ele>
        <time>2022-07-11T09:13:51Z</time>
      </trkpt>
      <trkpt lat="46.411127" lon="10.022487">
        <ele>2320.739</ele>
        <time>2022-07-11T09:13:53Z</time>
      </trkpt>
      <trkpt lat="46.410855" lon="10.022444">
        <ele>2319.811</ele>
        <time>2022-07-11T09:14:04Z</time>
      </trkpt>
      <trkpt lat="46.410847" lon="10.022466">
        <ele>2319.837</ele>
        <time>2022-07-11T09:14:05Z</time>
      </trkpt>
      <trkpt lat="46.410838" lon="10.022498">
        <ele>2319.891</ele>
        <time>2022-07-11T09:14:06Z</time>
      </trkpt>
      <trkpt lat="46.410834" lon="10.022528">
        <ele>2319.822</ele>
        <time>2022-07-11T09:14:07Z</time>
      </trkpt>
      <trkpt lat="46.410833" lon="10.022564">
        <ele>2319.840</ele>
        <time>2022-07-11T09:14:08Z</time>
      </trkpt>
      <trkpt lat="46.410834" lon="10.022598">
        <ele>2319.824</ele>
        <time>2022-07-11T09:14:09Z</time>
      </trkpt>
      <trkpt lat="46.410825" lon="10.022667">
        <ele>2319.887</ele>
        <time>2022-07-11T09:14:11Z</time>
      </trkpt>
      <trkpt lat="46.410809" lon="10.022679">
        <ele>2319.842</ele>
        <time>2022-07-11T09:14:12Z</time>
      </trkpt>
      <trkpt lat="46.410788" lon="10.022674">
        <ele>2319.826</ele>
        <time>2022-07-11T09:14:13Z</time>
      </trkpt>
      <trkpt lat="46.410717" lon="10.022595">
        <ele>2319.809</ele>
        <time>2022-07-11T09:14:17Z</time>
      </trkpt>
      <trkpt lat="46.410710" lon="10.022553">
        <ele>2319.879</ele>
        <time>2022-07-11T09:14:18Z</time>
      </trkpt>
      <trkpt lat="46.410709" lon="10.022510">
        <ele>2319.838</ele>
        <time>2022-07-11T09:14:19Z</time>
      </trkpt>
      <trkpt lat="46.410709" lon="10.022464">
        <ele>2319.836</ele>
        <time>2022-07-11T09:14:20Z</time>
      </trkpt>
      <trkpt lat="46.410707" lon="10.022427">
        <ele>2319.848</ele>
        <time>2022-07-11T09:14:21Z</time>
      </trkpt>
      <trkpt lat="46.410704" lon="10.022387">
        <ele>2319.814</ele>
        <time>2022-07-11T09:14:22Z</time>
      </trkpt>
      <trkpt lat="46.410551" lon="10.022001">
        <ele>2319.348</ele>
        <time>2022-07-11T09:14:33Z</time>
      </trkpt>
      <trkpt lat="46.410421" lon="10.021803">
        <ele>2317.449</ele>
        <time>2022-07-11T09:14:38Z</time>
      </trkpt>
      <trkpt lat="46.410414" lon="10.021743">
        <ele>2316.927</ele>
        <time>2022-07-11T09:14:39Z</time>
      </trkpt>
      <trkpt lat="46.410413" lon="10.021684">
        <ele>2316.481</ele>
        <time>2022-07-11T09:14:40Z</time>
      </trkpt>
      <trkpt lat="46.410415" lon="10.021624">
        <ele>2315.914</ele>
        <time>2022-07-11T09:14:41Z</time>
      </trkpt>
      <trkpt lat="46.410418" lon="10.021575">
        <ele>2315.454</ele>
        <time>2022-07-11T09:14:42Z</time>
      </trkpt>
      <trkpt lat="46.410413" lon="10.021554">
        <ele>2314.509</ele>
        <time>2022-07-11T09:14:50Z</time>
      </trkpt>
      <trkpt lat="46.410417" lon="10.021429">
        <ele>2314.009</ele>
        <time>2022-07-11T09:15:15Z</time>
      </trkpt>
      <trkpt lat="46.410425" lon="10.021379">
        <ele>2314.092</ele>
        <time>2022-07-11T09:15:16Z</time>
      </trkpt>
      <trkpt lat="46.410465" lon="10.020953">
        <ele>2311.651</ele>
        <time>2022-07-11T09:15:23Z</time>
      </trkpt>
      <trkpt lat="46.410477" lon="10.020757">
        <ele>2309.219</ele>
        <time>2022-07-11T09:15:26Z</time>
      </trkpt>
      <trkpt lat="46.410487" lon="10.020700">
        <ele>2308.261</ele>
        <time>2022-07-11T09:15:27Z</time>
      </trkpt>
      <trkpt lat="46.410499" lon="10.020658">
        <ele>2308.247</ele>
        <time>2022-07-11T09:15:28Z</time>
      </trkpt>
      <trkpt lat="46.410512" lon="10.020624">
        <ele>2308.251</ele>
        <time>2022-07-11T09:15:29Z</time>
      </trkpt>
      <trkpt lat="46.410528" lon="10.020596">
        <ele>2308.292</ele>
        <time>2022-07-11T09:15:30Z</time>
      </trkpt>
      <trkpt lat="46.410542" lon="10.020573">
        <ele>2308.280</ele>
        <time>2022-07-11T09:15:31Z</time>
      </trkpt>
      <trkpt lat="46.410579" lon="10.020523">
        <ele>2306.824</ele>
        <time>2022-07-11T09:15:43Z</time>
      </trkpt>
      <trkpt lat="46.410590" lon="10.020543">
        <ele>2306.818</ele>
        <time>2022-07-11T09:15:57Z</time>
      </trkpt>
      <trkpt lat="46.410605" lon="10.020536">
        <ele>2306.898</ele>
        <time>2022-07-11T09:15:58Z</time>
      </trkpt>
      <trkpt lat="46.410624" lon="10.020528">
        <ele>2306.817</ele>
        <time>2022-07-11T09:15:59Z</time>
      </trkpt>
      <trkpt lat="46.410810" lon="10.020465">
        <ele>2304.909</ele>
        <time>2022-07-11T09:16:06Z</time>
      </trkpt>
      <trkpt lat="46.410848" lon="10.020434">
        <ele>2303.952</ele>
        <time>2022-07-11T09:16:07Z</time>
      </trkpt>
      <trkpt lat="46.410885" lon="10.020393">
        <ele>2303.971</ele>
        <time>2022-07-11T09:16:08Z</time>
      </trkpt>
      <trkpt lat="46.410917" lon="10.020346">
        <ele>2302.969</ele>
        <time>2022-07-11T09:16:09Z</time>
      </trkpt>
      <trkpt lat="46.410946" lon="10.020292">
        <ele>2302.441</ele>
        <time>2022-07-11T09:16:10Z</time>
      </trkpt>
      <trkpt lat="46.410971" lon="10.020237">
        <ele>2301.527</ele>
        <time>2022-07-11T09:16:11Z</time>
      </trkpt>
      <trkpt lat="46.410992" lon="10.020177">
        <ele>2301.051</ele>
        <time>2022-07-11T09:16:12Z</time>
      </trkpt>
      <trkpt lat="46.411009" lon="10.020116">
        <ele>2300.582</ele>
        <time>2022-07-11T09:16:13Z</time>
      </trkpt>
      <trkpt lat="46.411032" lon="10.020056">
        <ele>2300.020</ele>
        <time>2022-07-11T09:16:14Z</time>
      </trkpt>
      <trkpt lat="46.411061" lon="10.020005">
        <ele>2299.124</ele>
        <time>2022-07-11T09:16:15Z</time>
      </trkpt>
      <trkpt lat="46.411100" lon="10.019963">
        <ele>2298.653</ele>
        <time>2022-07-11T09:16:16Z</time>
      </trkpt>
      <trkpt lat="46.411138" lon="10.019935">
        <ele>2298.104</ele>
        <time>2022-07-11T09:16:17Z</time>
      </trkpt>
      <trkpt lat="46.411173" lon="10.019910">
        <ele>2297.614</ele>
        <time>2022-07-11T09:16:18Z</time>
      </trkpt>
      <trkpt lat="46.411205" lon="10.019874">
        <ele>2297.209</ele>
        <time>2022-07-11T09:16:19Z</time>
      </trkpt>
      <trkpt lat="46.411216" lon="10.019834">
        <ele>2297.256</ele>
        <time>2022-07-11T09:16:20Z</time>
      </trkpt>
      <trkpt lat="46.411206" lon="10.019792">
        <ele>2296.265</ele>
        <time>2022-07-11T09:16:21Z</time>
      </trkpt>
      <trkpt lat="46.411182" lon="10.019764">
        <ele>2296.743</ele>
        <time>2022-07-11T09:16:22Z</time>
      </trkpt>
      <trkpt lat="46.411146" lon="10.019752">
        <ele>2296.745</ele>
        <time>2022-07-11T09:16:23Z</time>
      </trkpt>
      <trkpt lat="46.411108" lon="10.019762">
        <ele>2296.731</ele>
        <time>2022-07-11T09:16:24Z</time>
      </trkpt>
      <trkpt lat="46.411073" lon="10.019794">
        <ele>2296.265</ele>
        <time>2022-07-11T09:16:25Z</time>
      </trkpt>
      <trkpt lat="46.411039" lon="10.019832">
        <ele>2296.246</ele>
        <time>2022-07-11T09:16:26Z</time>
      </trkpt>
      <trkpt lat="46.410955" lon="10.019918">
        <ele>2295.284</ele>
        <time>2022-07-11T09:16:28Z</time>
      </trkpt>
      <trkpt lat="46.410915" lon="10.019946">
        <ele>2294.358</ele>
        <time>2022-07-11T09:16:29Z</time>
      </trkpt>
      <trkpt lat="46.410860" lon="10.019971">
        <ele>2293.371</ele>
        <time>2022-07-11T09:16:30Z</time>
      </trkpt>
      <trkpt lat="46.410816" lon="10.019980">
        <ele>2292.841</ele>
        <time>2022-07-11T09:16:31Z</time>
      </trkpt>
      <trkpt lat="46.410763" lon="10.019981">
        <ele>2292.415</ele>
        <time>2022-07-11T09:16:32Z</time>
      </trkpt>
      <trkpt lat="46.410717" lon="10.019977">
        <ele>2291.909</ele>
        <time>2022-07-11T09:16:33Z</time>
      </trkpt>
      <trkpt lat="46.410664" lon="10.019963">
        <ele>2290.988</ele>
        <time>2022-07-11T09:16:34Z</time>
      </trkpt>
      <trkpt lat="46.410620" lon="10.019945">
        <ele>2290.477</ele>
        <time>2022-07-11T09:16:35Z</time>
      </trkpt>
      <trkpt lat="46.410572" lon="10.019913">
        <ele>2289.515</ele>
        <time>2022-07-11T09:16:36Z</time>
      </trkpt>
      <trkpt lat="46.410531" lon="10.019876">
        <ele>2289.037</ele>
        <time>2022-07-11T09:16:37Z</time>
      </trkpt>
      <trkpt lat="46.410492" lon="10.019836">
        <ele>2288.523</ele>
        <time>2022-07-11T09:16:38Z</time>
      </trkpt>
      <trkpt lat="46.410449" lon="10.019783">
        <ele>2288.557</ele>
        <time>2022-07-11T09:16:39Z</time>
      </trkpt>
      <trkpt lat="46.410376" lon="10.019686">
        <ele>2287.128</ele>
        <time>2022-07-11T09:16:41Z</time>
      </trkpt>
      <trkpt lat="46.410271" lon="10.019558">
        <ele>2285.626</ele>
        <time>2022-07-11T09:16:44Z</time>
      </trkpt>
      <trkpt lat="46.410064" lon="10.019365">
        <ele>2282.750</ele>
        <time>2022-07-11T09:16:51Z</time>
      </trkpt>
      <trkpt lat="46.410026" lon="10.019334">
        <ele>2282.729</ele>
        <time>2022-07-11T09:16:53Z</time>
      </trkpt>
      <trkpt lat="46.410018" lon="10.019310">
        <ele>2281.800</ele>
        <time>2022-07-11T09:16:54Z</time>
      </trkpt>
      <trkpt lat="46.410023" lon="10.019288">
        <ele>2281.820</ele>
        <time>2022-07-11T09:16:55Z</time>
      </trkpt>
      <trkpt lat="46.410040" lon="10.019273">
        <ele>2281.809</ele>
        <time>2022-07-11T09:16:56Z</time>
      </trkpt>
      <trkpt lat="46.410125" lon="10.019244">
        <ele>2281.313</ele>
        <time>2022-07-11T09:17:07Z</time>
      </trkpt>
      <trkpt lat="46.410170" lon="10.019246">
        <ele>2280.342</ele>
        <time>2022-07-11T09:17:09Z</time>
      </trkpt>
      <trkpt lat="46.410320" lon="10.019263">
        <ele>2277.540</ele>
        <time>2022-07-11T09:17:16Z</time>
      </trkpt>
      <trkpt lat="46.410680" lon="10.019274">
        <ele>2275.512</ele>
        <time>2022-07-11T09:17:26Z</time>
      </trkpt>
      <trkpt lat="46.410701" lon="10.019278">
        <ele>2275.548</ele>
        <time>2022-07-11T09:17:27Z</time>
      </trkpt>
      <trkpt lat="46.410717" lon="10.019271">
        <ele>2275.542</ele>
        <time>2022-07-11T09:17:28Z</time>
      </trkpt>
      <trkpt lat="46.410726" lon="10.019256">
        <ele>2275.543</ele>
        <time>2022-07-11T09:17:29Z</time>
      </trkpt>
      <trkpt lat="46.410733" lon="10.019238">
        <ele>2277.081</ele>
        <time>2022-07-11T09:17:30Z</time>
      </trkpt>
      <trkpt lat="46.410743" lon="10.019208">
        <ele>2277.075</ele>
        <time>2022-07-11T09:17:31Z</time>
      </trkpt>
      <trkpt lat="46.410827" lon="10.019077">
        <ele>2275.597</ele>
        <time>2022-07-11T09:17:35Z</time>
      </trkpt>
      <trkpt lat="46.411028" lon="10.018883">
        <ele>2277.523</ele>
        <time>2022-07-11T09:17:45Z</time>
      </trkpt>
      <trkpt lat="46.411122" lon="10.018808">
        <ele>2277.525</ele>
        <time>2022-07-11T09:17:51Z</time>
      </trkpt>
      <trkpt lat="46.411151" lon="10.018815">
        <ele>2277.509</ele>
        <time>2022-07-11T09:17:52Z</time>
      </trkpt>
      <trkpt lat="46.411179" lon="10.018825">
        <ele>2277.510</ele>
        <time>2022-07-11T09:17:53Z</time>
      </trkpt>
      <trkpt lat="46.411371" lon="10.018776">
        <ele>2277.589</ele>
        <time>2022-07-11T09:18:02Z</time>
      </trkpt>
      <trkpt lat="46.411386" lon="10.018787">
        <ele>2277.557</ele>
        <time>2022-07-11T09:18:03Z</time>
      </trkpt>
      <trkpt lat="46.411398" lon="10.018805">
        <ele>2277.579</ele>
        <time>2022-07-11T09:18:04Z</time>
      </trkpt>
      <trkpt lat="46.411552" lon="10.019030">
        <ele>2278.955</ele>
        <time>2022-07-11T09:18:15Z</time>
      </trkpt>
      <trkpt lat="46.411567" lon="10.019064">
        <ele>2278.939</ele>
        <time>2022-07-11T09:18:16Z</time>
      </trkpt>
      <trkpt lat="46.411583" lon="10.019085">
        <ele>2278.980</ele>
        <time>2022-07-11T09:18:17Z</time>
      </trkpt>
      <trkpt lat="46.411597" lon="10.019097">
        <ele>2278.968</ele>
        <time>2022-07-11T09:18:18Z</time>
      </trkpt>
      <trkpt lat="46.411611" lon="10.019106">
        <ele>2278.952</ele>
        <time>2022-07-11T09:18:19Z</time>
      </trkpt>
      <trkpt lat="46.411625" lon="10.019113">
        <ele>2278.923</ele>
        <time>2022-07-11T09:18:20Z</time>
      </trkpt>
      <trkpt lat="46.411731" lon="10.019131">
        <ele>2279.983</ele>
        <time>2022-07-11T09:18:28Z</time>
      </trkpt>
      <trkpt lat="46.411743" lon="10.019127">
        <ele>2279.411</ele>
        <time>2022-07-11T09:18:29Z</time>
      </trkpt>
      <trkpt lat="46.411757" lon="10.019124">
        <ele>2279.909</ele>
        <time>2022-07-11T09:18:30Z</time>
      </trkpt>
      <trkpt lat="46.411774" lon="10.019124">
        <ele>2279.453</ele>
        <time>2022-07-11T09:18:31Z</time>
      </trkpt>
      <trkpt lat="46.411789" lon="10.019133">
        <ele>2279.422</ele>
        <time>2022-07-11T09:18:32Z</time>
      </trkpt>
      <trkpt lat="46.411803" lon="10.019147">
        <ele>2279.420</ele>
        <time>2022-07-11T09:18:33Z</time>
      </trkpt>
      <trkpt lat="46.411810" lon="10.019162">
        <ele>2280.332</ele>
        <time>2022-07-11T09:18:34Z</time>
      </trkpt>
      <trkpt lat="46.411812" lon="10.019186">
        <ele>2280.338</ele>
        <time>2022-07-11T09:18:35Z</time>
      </trkpt>
      <trkpt lat="46.411818" lon="10.019206">
        <ele>2280.332</ele>
        <time>2022-07-11T09:18:36Z</time>
      </trkpt>
      <trkpt lat="46.411826" lon="10.019224">
        <ele>2280.893</ele>
        <time>2022-07-11T09:18:37Z</time>
      </trkpt>
      <trkpt lat="46.411835" lon="10.019239">
        <ele>2280.821</ele>
        <time>2022-07-11T09:18:38Z</time>
      </trkpt>
      <trkpt lat="46.411846" lon="10.019255">
        <ele>2280.895</ele>
        <time>2022-07-11T09:18:39Z</time>
      </trkpt>
      <trkpt lat="46.411861" lon="10.019277">
        <ele>2280.817</ele>
        <time>2022-07-11T09:18:40Z</time>
      </trkpt>
      <trkpt lat="46.411879" lon="10.019299">
        <ele>2280.887</ele>
        <time>2022-07-11T09:18:41Z</time>
      </trkpt>
      <trkpt lat="46.411901" lon="10.019316">
        <ele>2280.815</ele>
        <time>2022-07-11T09:18:42Z</time>
      </trkpt>
      <trkpt lat="46.411922" lon="10.019323">
        <ele>2280.809</ele>
        <time>2022-07-11T09:18:43Z</time>
      </trkpt>
      <trkpt lat="46.411943" lon="10.019323">
        <ele>2280.862</ele>
        <time>2022-07-11T09:18:44Z</time>
      </trkpt>
      <trkpt lat="46.411964" lon="10.019317">
        <ele>2280.851</ele>
        <time>2022-07-11T09:18:45Z</time>
      </trkpt>
      <trkpt lat="46.411988" lon="10.019301">
        <ele>2279.499</ele>
        <time>2022-07-11T09:18:46Z</time>
      </trkpt>
      <trkpt lat="46.412009" lon="10.019280">
        <ele>2279.451</ele>
        <time>2022-07-11T09:18:47Z</time>
      </trkpt>
      <trkpt lat="46.412030" lon="10.019254">
        <ele>2279.487</ele>
        <time>2022-07-11T09:18:48Z</time>
      </trkpt>
      <trkpt lat="46.412047" lon="10.019218">
        <ele>2278.971</ele>
        <time>2022-07-11T09:18:49Z</time>
      </trkpt>
      <trkpt lat="46.412061" lon="10.019180">
        <ele>2278.982</ele>
        <time>2022-07-11T09:18:50Z</time>
      </trkpt>
      <trkpt lat="46.412083" lon="10.019155">
        <ele>2278.980</ele>
        <time>2022-07-11T09:18:51Z</time>
      </trkpt>
      <trkpt lat="46.412108" lon="10.019152">
        <ele>2278.984</ele>
        <time>2022-07-11T09:18:52Z</time>
      </trkpt>
      <trkpt lat="46.412127" lon="10.019166">
        <ele>2278.927</ele>
        <time>2022-07-11T09:18:53Z</time>
      </trkpt>
      <trkpt lat="46.412143" lon="10.019182">
        <ele>2278.968</ele>
        <time>2022-07-11T09:18:54Z</time>
      </trkpt>
      <trkpt lat="46.412156" lon="10.019194">
        <ele>2278.414</ele>
        <time>2022-07-11T09:18:55Z</time>
      </trkpt>
      <trkpt lat="46.412171" lon="10.019206">
        <ele>2278.409</ele>
        <time>2022-07-11T09:18:56Z</time>
      </trkpt>
      <trkpt lat="46.412188" lon="10.019215">
        <ele>2278.493</ele>
        <time>2022-07-11T09:18:57Z</time>
      </trkpt>
      <trkpt lat="46.412204" lon="10.019219">
        <ele>2277.952</ele>
        <time>2022-07-11T09:18:58Z</time>
      </trkpt>
      <trkpt lat="46.412220" lon="10.019223">
        <ele>2277.910</ele>
        <time>2022-07-11T09:18:59Z</time>
      </trkpt>
      <trkpt lat="46.412235" lon="10.019236">
        <ele>2277.942</ele>
        <time>2022-07-11T09:19:00Z</time>
      </trkpt>
      <trkpt lat="46.412252" lon="10.019248">
        <ele>2277.038</ele>
        <time>2022-07-11T09:19:01Z</time>
      </trkpt>
      <trkpt lat="46.412268" lon="10.019252">
        <ele>2277.082</ele>
        <time>2022-07-11T09:19:02Z</time>
      </trkpt>
      <trkpt lat="46.412285" lon="10.019253">
        <ele>2276.583</ele>
        <time>2022-07-11T09:19:03Z</time>
      </trkpt>
      <trkpt lat="46.412301" lon="10.019253">
        <ele>2276.021</ele>
        <time>2022-07-11T09:19:04Z</time>
      </trkpt>
      <trkpt lat="46.412317" lon="10.019251">
        <ele>2276.065</ele>
        <time>2022-07-11T09:19:05Z</time>
      </trkpt>
      <trkpt lat="46.412332" lon="10.019248">
        <ele>2276.059</ele>
        <time>2022-07-11T09:19:06Z</time>
      </trkpt>
      <trkpt lat="46.412348" lon="10.019242">
        <ele>2276.003</ele>
        <time>2022-07-11T09:19:07Z</time>
      </trkpt>
      <trkpt lat="46.412365" lon="10.019241">
        <ele>2275.523</ele>
        <time>2022-07-11T09:19:08Z</time>
      </trkpt>
      <trkpt lat="46.412387" lon="10.019252">
        <ele>2275.109</ele>
        <time>2022-07-11T09:19:09Z</time>
      </trkpt>
      <trkpt lat="46.412410" lon="10.019269">
        <ele>2275.126</ele>
        <time>2022-07-11T09:19:10Z</time>
      </trkpt>
      <trkpt lat="46.412588" lon="10.019342">
        <ele>2273.145</ele>
        <time>2022-07-11T09:19:21Z</time>
      </trkpt>
      <trkpt lat="46.412729" lon="10.019488">
        <ele>2271.773</ele>
        <time>2022-07-11T09:19:32Z</time>
      </trkpt>
      <trkpt lat="46.412744" lon="10.019489">
        <ele>2271.755</ele>
        <time>2022-07-11T09:19:33Z</time>
      </trkpt>
      <trkpt lat="46.412759" lon="10.019487">
        <ele>2271.731</ele>
        <time>2022-07-11T09:19:34Z</time>
      </trkpt>
      <trkpt lat="46.412776" lon="10.019474">
        <ele>2271.785</ele>
        <time>2022-07-11T09:19:35Z</time>
      </trkpt>
      <trkpt lat="46.412804" lon="10.019462">
        <ele>2271.716</ele>
        <time>2022-07-11T09:19:42Z</time>
      </trkpt>
      <trkpt lat="46.412857" lon="10.019463">
        <ele>2273.124</ele>
        <time>2022-07-11T09:19:49Z</time>
      </trkpt>
      <trkpt lat="46.412943" lon="10.019474">
        <ele>2275.128</ele>
        <time>2022-07-11T09:20:01Z</time>
      </trkpt>
      <trkpt lat="46.412987" lon="10.019474">
        <ele>2273.649</ele>
        <time>2022-07-11T09:20:04Z</time>
      </trkpt>
      <trkpt lat="46.413097" lon="10.019496">
        <ele>2271.202</ele>
        <time>2022-07-11T09:20:09Z</time>
      </trkpt>
      <trkpt lat="46.413279" lon="10.019524">
        <ele>2267.822</ele>
        <time>2022-07-11T09:20:17Z</time>
      </trkpt>
      <trkpt lat="46.413338" lon="10.019530">
        <ele>2267.409</ele>
        <time>2022-07-11T09:20:19Z</time>
      </trkpt>
      <trkpt lat="46.413643" lon="10.019513">
        <ele>2264.065</ele>
        <time>2022-07-11T09:20:30Z</time>
      </trkpt>
      <trkpt lat="46.413694" lon="10.019488">
        <ele>2264.074</ele>
        <time>2022-07-11T09:20:32Z</time>
      </trkpt>
      <trkpt lat="46.413708" lon="10.019470">
        <ele>2264.072</ele>
        <time>2022-07-11T09:20:33Z</time>
      </trkpt>
      <trkpt lat="46.413716" lon="10.019448">
        <ele>2263.584</ele>
        <time>2022-07-11T09:20:34Z</time>
      </trkpt>
      <trkpt lat="46.413740" lon="10.019346">
        <ele>2263.040</ele>
        <time>2022-07-11T09:20:37Z</time>
      </trkpt>
      <trkpt lat="46.413763" lon="10.019309">
        <ele>2262.684</ele>
        <time>2022-07-11T09:20:38Z</time>
      </trkpt>
      <trkpt lat="46.413792" lon="10.019278">
        <ele>2262.155</ele>
        <time>2022-07-11T09:20:39Z</time>
      </trkpt>
      <trkpt lat="46.414043" lon="10.019141">
        <ele>2262.173</ele>
        <time>2022-07-11T09:20:51Z</time>
      </trkpt>
      <trkpt lat="46.414097" lon="10.019129">
        <ele>2263.587</ele>
        <time>2022-07-11T09:20:54Z</time>
      </trkpt>
      <trkpt lat="46.414352" lon="10.019068">
        <ele>2262.144</ele>
        <time>2022-07-11T09:21:07Z</time>
      </trkpt>
      <trkpt lat="46.414604" lon="10.019042">
        <ele>2259.205</ele>
        <time>2022-07-11T09:21:20Z</time>
      </trkpt>
      <trkpt lat="46.414622" lon="10.019036">
        <ele>2258.215</ele>
        <time>2022-07-11T09:21:21Z</time>
      </trkpt>
      <trkpt lat="46.414642" lon="10.019031">
        <ele>2258.209</ele>
        <time>2022-07-11T09:21:22Z</time>
      </trkpt>
      <trkpt lat="46.414661" lon="10.019024">
        <ele>2257.745</ele>
        <time>2022-07-11T09:21:23Z</time>
      </trkpt>
      <trkpt lat="46.414680" lon="10.019020">
        <ele>2257.764</ele>
        <time>2022-07-11T09:21:24Z</time>
      </trkpt>
      <trkpt lat="46.414698" lon="10.019014">
        <ele>2257.712</ele>
        <time>2022-07-11T09:21:25Z</time>
      </trkpt>
      <trkpt lat="46.414718" lon="10.019010">
        <ele>2256.824</ele>
        <time>2022-07-11T09:21:26Z</time>
      </trkpt>
      <trkpt lat="46.414735" lon="10.019009">
        <ele>2256.850</ele>
        <time>2022-07-11T09:21:27Z</time>
      </trkpt>
      <trkpt lat="46.414721" lon="10.019015">
        <ele>2256.824</ele>
        <time>2022-07-11T09:21:40Z</time>
      </trkpt>
      <trkpt lat="46.414730" lon="10.018999">
        <ele>2256.375</ele>
        <time>2022-07-11T09:22:07Z</time>
      </trkpt>
      <trkpt lat="46.414775" lon="10.019005">
        <ele>2256.383</ele>
        <time>2022-07-11T09:22:16Z</time>
      </trkpt>
      <trkpt lat="46.414799" lon="10.018986">
        <ele>2256.397</ele>
        <time>2022-07-11T09:22:18Z</time>
      </trkpt>
      <trkpt lat="46.414811" lon="10.018972">
        <ele>2255.839</ele>
        <time>2022-07-11T09:22:19Z</time>
      </trkpt>
      <trkpt lat="46.414822" lon="10.018965">
        <ele>2255.801</ele>
        <time>2022-07-11T09:22:20Z</time>
      </trkpt>
      <trkpt lat="46.414864" lon="10.018932">
        <ele>2255.321</ele>
        <time>2022-07-11T09:22:30Z</time>
      </trkpt>
      <trkpt lat="46.414952" lon="10.018793">
        <ele>2255.309</ele>
        <time>2022-07-11T09:22:41Z</time>
      </trkpt>
      <trkpt lat="46.414964" lon="10.018785">
        <ele>2255.364</ele>
        <time>2022-07-11T09:22:42Z</time>
      </trkpt>
      <trkpt lat="46.414974" lon="10.018780">
        <ele>2255.323</ele>
        <time>2022-07-11T09:22:43Z</time>
      </trkpt>
      <trkpt lat="46.415150" lon="10.018775">
        <ele>2255.321</ele>
        <time>2022-07-11T09:22:58Z</time>
      </trkpt>
      <trkpt lat="46.415287" lon="10.018894">
        <ele>2256.833</ele>
        <time>2022-07-11T09:23:13Z</time>
      </trkpt>
      <trkpt lat="46.415349" lon="10.018900">
        <ele>2256.899</ele>
        <time>2022-07-11T09:23:22Z</time>
      </trkpt>
      <trkpt lat="46.415358" lon="10.018892">
        <ele>2256.893</ele>
        <time>2022-07-11T09:23:23Z</time>
      </trkpt>
      <trkpt lat="46.415330" lon="10.018802">
        <ele>2257.314</ele>
        <time>2022-07-11T09:23:33Z</time>
      </trkpt>
      <trkpt lat="46.415322" lon="10.018791">
        <ele>2257.322</ele>
        <time>2022-07-11T09:23:34Z</time>
      </trkpt>
      <trkpt lat="46.415304" lon="10.018745">
        <ele>2257.336</ele>
        <time>2022-07-11T09:23:37Z</time>
      </trkpt>
      <trkpt lat="46.415295" lon="10.018558">
        <ele>2257.312</ele>
        <time>2022-07-11T09:23:50Z</time>
      </trkpt>
      <trkpt lat="46.415280" lon="10.018441">
        <ele>2258.732</ele>
        <time>2022-07-11T09:24:04Z</time>
      </trkpt>
      <trkpt lat="46.415286" lon="10.018340">
        <ele>2259.205</ele>
        <time>2022-07-11T09:24:20Z</time>
      </trkpt>
      <trkpt lat="46.415304" lon="10.018340">
        <ele>2259.709</ele>
        <time>2022-07-11T09:24:45Z</time>
      </trkpt>
      <trkpt lat="46.415292" lon="10.018316">
        <ele>2259.242</ele>
        <time>2022-07-11T09:25:25Z</time>
      </trkpt>
      <trkpt lat="46.415266" lon="10.018251">
        <ele>2259.731</ele>
        <time>2022-07-11T09:25:30Z</time>
      </trkpt>
      <trkpt lat="46.415168" lon="10.018061">
        <ele>2259.769</ele>
        <time>2022-07-11T09:25:45Z</time>
      </trkpt>
      <trkpt lat="46.415115" lon="10.017851">
        <ele>2261.691</ele>
        <time>2022-07-11T09:26:03Z</time>
      </trkpt>
      <trkpt lat="46.415063" lon="10.017625">
        <ele>2264.027</ele>
        <time>2022-07-11T09:26:22Z</time>
      </trkpt>
      <trkpt lat="46.415035" lon="10.017411">
        <ele>2264.521</ele>
        <time>2022-07-11T09:26:33Z</time>
      </trkpt>
      <trkpt lat="46.414937" lon="10.017116">
        <ele>2263.022</ele>
        <time>2022-07-11T09:26:43Z</time>
      </trkpt>
      <trkpt lat="46.414934" lon="10.017039">
        <ele>2264.520</ele>
        <time>2022-07-11T09:26:47Z</time>
      </trkpt>
      <trkpt lat="46.414891" lon="10.016937">
        <ele>2264.564</ele>
        <time>2022-07-11T09:26:56Z</time>
      </trkpt>
      <trkpt lat="46.414824" lon="10.016640">
        <ele>2264.036</ele>
        <time>2022-07-11T09:27:06Z</time>
      </trkpt>
      <trkpt lat="46.414749" lon="10.016347">
        <ele>2264.517</ele>
        <time>2022-07-11T09:27:16Z</time>
      </trkpt>
      <trkpt lat="46.414736" lon="10.016304">
        <ele>2264.518</ele>
        <time>2022-07-11T09:27:18Z</time>
      </trkpt>
      <trkpt lat="46.414725" lon="10.016286">
        <ele>2264.509</ele>
        <time>2022-07-11T09:27:19Z</time>
      </trkpt>
      <trkpt lat="46.414714" lon="10.016260">
        <ele>2263.014</ele>
        <time>2022-07-11T09:27:20Z</time>
      </trkpt>
      <trkpt lat="46.414703" lon="10.016238">
        <ele>2263.083</ele>
        <time>2022-07-11T09:27:21Z</time>
      </trkpt>
      <trkpt lat="46.414689" lon="10.016212">
        <ele>2263.011</ele>
        <time>2022-07-11T09:27:22Z</time>
      </trkpt>
      <trkpt lat="46.414657" lon="10.016171">
        <ele>2262.643</ele>
        <time>2022-07-11T09:27:31Z</time>
      </trkpt>
      <trkpt lat="46.414571" lon="10.016033">
        <ele>2262.679</ele>
        <time>2022-07-11T09:27:44Z</time>
      </trkpt>
      <trkpt lat="46.414478" lon="10.015807">
        <ele>2263.543</ele>
        <time>2022-07-11T09:27:56Z</time>
      </trkpt>
      <trkpt lat="46.414478" lon="10.015804">
        <ele>2263.584</ele>
        <time>2022-07-11T09:27:57Z</time>
      </trkpt>
      <trkpt lat="46.414437" lon="10.015793">
        <ele>2263.552</ele>
        <time>2022-07-11T09:28:10Z</time>
      </trkpt>
      <trkpt lat="46.414369" lon="10.015551">
        <ele>2262.186</ele>
        <time>2022-07-11T09:28:19Z</time>
      </trkpt>
      <trkpt lat="46.414424" lon="10.015280">
        <ele>2264.086</ele>
        <time>2022-07-11T09:28:30Z</time>
      </trkpt>
      <trkpt lat="46.414437" lon="10.015203">
        <ele>2264.060</ele>
        <time>2022-07-11T09:28:40Z</time>
      </trkpt>
      <trkpt lat="46.414452" lon="10.015036">
        <ele>2265.926</ele>
        <time>2022-07-11T09:28:55Z</time>
      </trkpt>
      <trkpt lat="46.414483" lon="10.014849">
        <ele>2267.809</ele>
        <time>2022-07-11T09:29:12Z</time>
      </trkpt>
      <trkpt lat="46.414490" lon="10.014821">
        <ele>2268.889</ele>
        <time>2022-07-11T09:29:26Z</time>
      </trkpt>
      <trkpt lat="46.414494" lon="10.014809">
        <ele>2268.828</ele>
        <time>2022-07-11T09:29:28Z</time>
      </trkpt>
      <trkpt lat="46.414613" lon="10.014633">
        <ele>2268.866</ele>
        <time>2022-07-11T09:29:36Z</time>
      </trkpt>
      <trkpt lat="46.414638" lon="10.014640">
        <ele>2268.848</ele>
        <time>2022-07-11T09:29:37Z</time>
      </trkpt>
      <trkpt lat="46.414803" lon="10.014680">
        <ele>2267.464</ele>
        <time>2022-07-11T09:29:45Z</time>
      </trkpt>
      <trkpt lat="46.414821" lon="10.014670">
        <ele>2266.928</ele>
        <time>2022-07-11T09:29:46Z</time>
      </trkpt>
      <trkpt lat="46.414830" lon="10.014654">
        <ele>2266.459</ele>
        <time>2022-07-11T09:29:47Z</time>
      </trkpt>
      <trkpt lat="46.414830" lon="10.014633">
        <ele>2265.927</ele>
        <time>2022-07-11T09:29:48Z</time>
      </trkpt>
      <trkpt lat="46.414831" lon="10.014613">
        <ele>2265.931</ele>
        <time>2022-07-11T09:29:49Z</time>
      </trkpt>
      <trkpt lat="46.414840" lon="10.014603">
        <ele>2265.915</ele>
        <time>2022-07-11T09:29:50Z</time>
      </trkpt>
      <trkpt lat="46.414857" lon="10.014602">
        <ele>2265.465</ele>
        <time>2022-07-11T09:29:51Z</time>
      </trkpt>
      <trkpt lat="46.414876" lon="10.014595">
        <ele>2265.411</ele>
        <time>2022-07-11T09:29:52Z</time>
      </trkpt>
      <trkpt lat="46.414890" lon="10.014576">
        <ele>2265.009</ele>
        <time>2022-07-11T09:29:53Z</time>
      </trkpt>
      <trkpt lat="46.414896" lon="10.014554">
        <ele>2265.042</ele>
        <time>2022-07-11T09:29:54Z</time>
      </trkpt>
      <trkpt lat="46.414899" lon="10.014528">
        <ele>2265.041</ele>
        <time>2022-07-11T09:29:55Z</time>
      </trkpt>
      <trkpt lat="46.414902" lon="10.014500">
        <ele>2265.089</ele>
        <time>2022-07-11T09:29:56Z</time>
      </trkpt>
      <trkpt lat="46.414906" lon="10.014478">
        <ele>2266.451</ele>
        <time>2022-07-11T09:29:57Z</time>
      </trkpt>
      <trkpt lat="46.414909" lon="10.014461">
        <ele>2266.417</ele>
        <time>2022-07-11T09:29:58Z</time>
      </trkpt>
      <trkpt lat="46.414915" lon="10.014441">
        <ele>2266.491</ele>
        <time>2022-07-11T09:29:59Z</time>
      </trkpt>
      <trkpt lat="46.414923" lon="10.014424">
        <ele>2266.412</ele>
        <time>2022-07-11T09:30:00Z</time>
      </trkpt>
      <trkpt lat="46.414934" lon="10.014400">
        <ele>2266.420</ele>
        <time>2022-07-11T09:30:01Z</time>
      </trkpt>
      <trkpt lat="46.414963" lon="10.014326">
        <ele>2266.944</ele>
        <time>2022-07-11T09:30:04Z</time>
      </trkpt>
      <trkpt lat="46.415114" lon="10.013995">
        <ele>2268.363</ele>
        <time>2022-07-11T09:30:19Z</time>
      </trkpt>
      <trkpt lat="46.415130" lon="10.013973">
        <ele>2268.344</ele>
        <time>2022-07-11T09:30:20Z</time>
      </trkpt>
      <trkpt lat="46.415140" lon="10.013941">
        <ele>2266.918</ele>
        <time>2022-07-11T09:30:21Z</time>
      </trkpt>
      <trkpt lat="46.415143" lon="10.013910">
        <ele>2266.909</ele>
        <time>2022-07-11T09:30:22Z</time>
      </trkpt>
      <trkpt lat="46.415146" lon="10.013885">
        <ele>2266.967</ele>
        <time>2022-07-11T09:30:23Z</time>
      </trkpt>
      <trkpt lat="46.415150" lon="10.013861">
        <ele>2266.436</ele>
        <time>2022-07-11T09:30:24Z</time>
      </trkpt>
      <trkpt lat="46.415156" lon="10.013834">
        <ele>2266.494</ele>
        <time>2022-07-11T09:30:25Z</time>
      </trkpt>
      <trkpt lat="46.415166" lon="10.013806">
        <ele>2266.476</ele>
        <time>2022-07-11T09:30:26Z</time>
      </trkpt>
      <trkpt lat="46.415179" lon="10.013772">
        <ele>2265.982</ele>
        <time>2022-07-11T09:30:27Z</time>
      </trkpt>
      <trkpt lat="46.415188" lon="10.013729">
        <ele>2265.476</ele>
        <time>2022-07-11T09:30:28Z</time>
      </trkpt>
      <trkpt lat="46.415194" lon="10.013679">
        <ele>2265.477</ele>
        <time>2022-07-11T09:30:29Z</time>
      </trkpt>
      <trkpt lat="46.415252" lon="10.013256">
        <ele>2264.555</ele>
        <time>2022-07-11T09:30:38Z</time>
      </trkpt>
      <trkpt lat="46.415343" lon="10.013068">
        <ele>2264.079</ele>
        <time>2022-07-11T09:30:47Z</time>
      </trkpt>
      <trkpt lat="46.415478" lon="10.012921">
        <ele>2262.646</ele>
        <time>2022-07-11T09:30:54Z</time>
      </trkpt>
      <trkpt lat="46.415497" lon="10.012909">
        <ele>2262.688</ele>
        <time>2022-07-11T09:30:55Z</time>
      </trkpt>
      <trkpt lat="46.415511" lon="10.012885">
        <ele>2262.616</ele>
        <time>2022-07-11T09:30:56Z</time>
      </trkpt>
      <trkpt lat="46.415514" lon="10.012850">
        <ele>2262.109</ele>
        <time>2022-07-11T09:30:57Z</time>
      </trkpt>
      <trkpt lat="46.415504" lon="10.012818">
        <ele>2262.135</ele>
        <time>2022-07-11T09:30:58Z</time>
      </trkpt>
      <trkpt lat="46.415482" lon="10.012799">
        <ele>2261.634</ele>
        <time>2022-07-11T09:30:59Z</time>
      </trkpt>
      <trkpt lat="46.415458" lon="10.012791">
        <ele>2261.672</ele>
        <time>2022-07-11T09:31:00Z</time>
      </trkpt>
      <trkpt lat="46.415438" lon="10.012780">
        <ele>2261.674</ele>
        <time>2022-07-11T09:31:01Z</time>
      </trkpt>
      <trkpt lat="46.415427" lon="10.012758">
        <ele>2261.690</ele>
        <time>2022-07-11T09:31:02Z</time>
      </trkpt>
      <trkpt lat="46.415426" lon="10.012730">
        <ele>2261.124</ele>
        <time>2022-07-11T09:31:03Z</time>
      </trkpt>
      <trkpt lat="46.415438" lon="10.012703">
        <ele>2261.115</ele>
        <time>2022-07-11T09:31:04Z</time>
      </trkpt>
      <trkpt lat="46.415457" lon="10.012689">
        <ele>2261.173</ele>
        <time>2022-07-11T09:31:05Z</time>
      </trkpt>
      <trkpt lat="46.415473" lon="10.012679">
        <ele>2260.667</ele>
        <time>2022-07-11T09:31:06Z</time>
      </trkpt>
      <trkpt lat="46.415484" lon="10.012662">
        <ele>2260.618</ele>
        <time>2022-07-11T09:31:07Z</time>
      </trkpt>
      <trkpt lat="46.415491" lon="10.012637">
        <ele>2260.698</ele>
        <time>2022-07-11T09:31:08Z</time>
      </trkpt>
      <trkpt lat="46.415496" lon="10.012604">
        <ele>2259.717</ele>
        <time>2022-07-11T09:31:09Z</time>
      </trkpt>
      <trkpt lat="46.415501" lon="10.012570">
        <ele>2259.709</ele>
        <time>2022-07-11T09:31:10Z</time>
      </trkpt>
      <trkpt lat="46.415502" lon="10.012499">
        <ele>2258.292</ele>
        <time>2022-07-11T09:31:12Z</time>
      </trkpt>
      <trkpt lat="46.415496" lon="10.012470">
        <ele>2258.211</ele>
        <time>2022-07-11T09:31:13Z</time>
      </trkpt>
      <trkpt lat="46.415490" lon="10.012449">
        <ele>2258.239</ele>
        <time>2022-07-11T09:31:14Z</time>
      </trkpt>
      <trkpt lat="46.415337" lon="10.012242">
        <ele>2257.731</ele>
        <time>2022-07-11T09:31:25Z</time>
      </trkpt>
      <trkpt lat="46.415313" lon="10.012141">
        <ele>2256.367</ele>
        <time>2022-07-11T09:31:27Z</time>
      </trkpt>
      <trkpt lat="46.415314" lon="10.012075">
        <ele>2254.911</ele>
        <time>2022-07-11T09:31:28Z</time>
      </trkpt>
      <trkpt lat="46.415328" lon="10.012006">
        <ele>2254.982</ele>
        <time>2022-07-11T09:31:29Z</time>
      </trkpt>
      <trkpt lat="46.415350" lon="10.011935">
        <ele>2253.970</ele>
        <time>2022-07-11T09:31:30Z</time>
      </trkpt>
      <trkpt lat="46.415373" lon="10.011862">
        <ele>2253.424</ele>
        <time>2022-07-11T09:31:31Z</time>
      </trkpt>
      <trkpt lat="46.415462" lon="10.011478">
        <ele>2252.029</ele>
        <time>2022-07-11T09:31:40Z</time>
      </trkpt>
      <trkpt lat="46.415419" lon="10.011120">
        <ele>2249.600</ele>
        <time>2022-07-11T09:31:46Z</time>
      </trkpt>
      <trkpt lat="46.415412" lon="10.011052">
        <ele>2249.620</ele>
        <time>2022-07-11T09:31:47Z</time>
      </trkpt>
      <trkpt lat="46.415409" lon="10.010988">
        <ele>2248.609</ele>
        <time>2022-07-11T09:31:48Z</time>
      </trkpt>
      <trkpt lat="46.415411" lon="10.010923">
        <ele>2248.623</ele>
        <time>2022-07-11T09:31:49Z</time>
      </trkpt>
      <trkpt lat="46.415420" lon="10.010858">
        <ele>2248.642</ele>
        <time>2022-07-11T09:31:50Z</time>
      </trkpt>
      <trkpt lat="46.415430" lon="10.010804">
        <ele>2248.170</ele>
        <time>2022-07-11T09:31:51Z</time>
      </trkpt>
      <trkpt lat="46.415440" lon="10.010744">
        <ele>2248.692</ele>
        <time>2022-07-11T09:31:52Z</time>
      </trkpt>
      <trkpt lat="46.415449" lon="10.010682">
        <ele>2247.798</ele>
        <time>2022-07-11T09:31:53Z</time>
      </trkpt>
      <trkpt lat="46.415452" lon="10.010621">
        <ele>2247.732</ele>
        <time>2022-07-11T09:31:54Z</time>
      </trkpt>
      <trkpt lat="46.415446" lon="10.010555">
        <ele>2247.793</ele>
        <time>2022-07-11T09:31:55Z</time>
      </trkpt>
      <trkpt lat="46.415433" lon="10.010498">
        <ele>2247.211</ele>
        <time>2022-07-11T09:31:56Z</time>
      </trkpt>
      <trkpt lat="46.415418" lon="10.010446">
        <ele>2246.785</ele>
        <time>2022-07-11T09:31:57Z</time>
      </trkpt>
      <trkpt lat="46.415333" lon="10.010007">
        <ele>2245.353</ele>
        <time>2022-07-11T09:32:04Z</time>
      </trkpt>
      <trkpt lat="46.415311" lon="10.009948">
        <ele>2245.304</ele>
        <time>2022-07-11T09:32:05Z</time>
      </trkpt>
      <trkpt lat="46.415280" lon="10.009897">
        <ele>2244.814</ele>
        <time>2022-07-11T09:32:06Z</time>
      </trkpt>
      <trkpt lat="46.415243" lon="10.009856">
        <ele>2244.809</ele>
        <time>2022-07-11T09:32:07Z</time>
      </trkpt>
      <trkpt lat="46.415202" lon="10.009820">
        <ele>2244.866</ele>
        <time>2022-07-11T09:32:08Z</time>
      </trkpt>
      <trkpt lat="46.415151" lon="10.009784">
        <ele>2244.385</ele>
        <time>2022-07-11T09:32:09Z</time>
      </trkpt>
      <trkpt lat="46.415099" lon="10.009746">
        <ele>2243.343</ele>
        <time>2022-07-11T09:32:10Z</time>
      </trkpt>
      <trkpt lat="46.414991" lon="10.009649">
        <ele>2242.475</ele>
        <time>2022-07-11T09:32:12Z</time>
      </trkpt>
      <trkpt lat="46.414942" lon="10.009593">
        <ele>2241.911</ele>
        <time>2022-07-11T09:32:13Z</time>
      </trkpt>
      <trkpt lat="46.414602" lon="10.008944">
        <ele>2241.995</ele>
        <time>2022-07-11T09:32:25Z</time>
      </trkpt>
      <trkpt lat="46.414178" lon="10.008519">
        <ele>2241.916</ele>
        <time>2022-07-11T09:32:39Z</time>
      </trkpt>
      <trkpt lat="46.413655" lon="10.007961">
        <ele>2244.374</ele>
        <time>2022-07-11T09:32:58Z</time>
      </trkpt>
      <trkpt lat="46.413473" lon="10.007620">
        <ele>2245.328</ele>
        <time>2022-07-11T09:33:09Z</time>
      </trkpt>
      <trkpt lat="46.413484" lon="10.007576">
        <ele>2245.343</ele>
        <time>2022-07-11T09:33:10Z</time>
      </trkpt>
      <trkpt lat="46.413508" lon="10.007538">
        <ele>2245.364</ele>
        <time>2022-07-11T09:33:11Z</time>
      </trkpt>
      <trkpt lat="46.413542" lon="10.007517">
        <ele>2245.310</ele>
        <time>2022-07-11T09:33:12Z</time>
      </trkpt>
      <trkpt lat="46.413578" lon="10.007504">
        <ele>2245.309</ele>
        <time>2022-07-11T09:33:13Z</time>
      </trkpt>
      <trkpt lat="46.413612" lon="10.007491">
        <ele>2244.385</ele>
        <time>2022-07-11T09:33:14Z</time>
      </trkpt>
      <trkpt lat="46.413644" lon="10.007472">
        <ele>2244.354</ele>
        <time>2022-07-11T09:33:15Z</time>
      </trkpt>
      <trkpt lat="46.414050" lon="10.007123">
        <ele>2241.912</ele>
        <time>2022-07-11T09:33:27Z</time>
      </trkpt>
      <trkpt lat="46.414090" lon="10.007095">
        <ele>2241.964</ele>
        <time>2022-07-11T09:33:28Z</time>
      </trkpt>
      <trkpt lat="46.414128" lon="10.007073">
        <ele>2242.440</ele>
        <time>2022-07-11T09:33:29Z</time>
      </trkpt>
      <trkpt lat="46.414160" lon="10.007056">
        <ele>2241.924</ele>
        <time>2022-07-11T09:33:30Z</time>
      </trkpt>
      <trkpt lat="46.414182" lon="10.007037">
        <ele>2241.955</ele>
        <time>2022-07-11T09:33:31Z</time>
      </trkpt>
      <trkpt lat="46.414196" lon="10.007015">
        <ele>2241.943</ele>
        <time>2022-07-11T09:33:32Z</time>
      </trkpt>
      <trkpt lat="46.414203" lon="10.006986">
        <ele>2242.487</ele>
        <time>2022-07-11T09:33:33Z</time>
      </trkpt>
      <trkpt lat="46.414204" lon="10.006951">
        <ele>2242.478</ele>
        <time>2022-07-11T09:33:34Z</time>
      </trkpt>
      <trkpt lat="46.414194" lon="10.006902">
        <ele>2241.933</ele>
        <time>2022-07-11T09:33:35Z</time>
      </trkpt>
      <trkpt lat="46.414186" lon="10.006838">
        <ele>2240.426</ele>
        <time>2022-07-11T09:33:36Z</time>
      </trkpt>
      <trkpt lat="46.414191" lon="10.006765">
        <ele>2239.509</ele>
        <time>2022-07-11T09:33:37Z</time>
      </trkpt>
      <trkpt lat="46.414207" lon="10.006693">
        <ele>2239.038</ele>
        <time>2022-07-11T09:33:38Z</time>
      </trkpt>
      <trkpt lat="46.414232" lon="10.006629">
        <ele>2239.047</ele>
        <time>2022-07-11T09:33:39Z</time>
      </trkpt>
      <trkpt lat="46.414263" lon="10.006566">
        <ele>2238.025</ele>
        <time>2022-07-11T09:33:40Z</time>
      </trkpt>
      <trkpt lat="46.414541" lon="10.005995">
        <ele>2238.017</ele>
        <time>2022-07-11T09:33:52Z</time>
      </trkpt>
      <trkpt lat="46.414676" lon="10.005640">
        <ele>2237.613</ele>
        <time>2022-07-11T09:34:02Z</time>
      </trkpt>
      <trkpt lat="46.414926" lon="10.005236">
        <ele>2237.167</ele>
        <time>2022-07-11T09:34:14Z</time>
      </trkpt>
      <trkpt lat="46.415281" lon="10.004757">
        <ele>2238.588</ele>
        <time>2022-07-11T09:34:29Z</time>
      </trkpt>
      <trkpt lat="46.415652" lon="10.004288">
        <ele>2239.586</ele>
        <time>2022-07-11T09:34:45Z</time>
      </trkpt>
      <trkpt lat="46.415949" lon="10.003799">
        <ele>2240.410</ele>
        <time>2022-07-11T09:35:03Z</time>
      </trkpt>
      <trkpt lat="46.416327" lon="10.003457">
        <ele>2240.928</ele>
        <time>2022-07-11T09:35:21Z</time>
      </trkpt>
      <trkpt lat="46.416724" lon="10.003251">
        <ele>2242.489</ele>
        <time>2022-07-11T09:35:38Z</time>
      </trkpt>
      <trkpt lat="46.417174" lon="10.003108">
        <ele>2242.817</ele>
        <time>2022-07-11T09:35:55Z</time>
      </trkpt>
      <trkpt lat="46.417215" lon="10.003086">
        <ele>2241.409</ele>
        <time>2022-07-11T09:35:56Z</time>
      </trkpt>
      <trkpt lat="46.417250" lon="10.003053">
        <ele>2241.473</ele>
        <time>2022-07-11T09:35:57Z</time>
      </trkpt>
      <trkpt lat="46.417280" lon="10.003014">
        <ele>2240.972</ele>
        <time>2022-07-11T09:35:58Z</time>
      </trkpt>
      <trkpt lat="46.417509" lon="10.002547">
        <ele>2237.190</ele>
        <time>2022-07-11T09:36:05Z</time>
      </trkpt>
      <trkpt lat="46.417588" lon="10.002374">
        <ele>2236.162</ele>
        <time>2022-07-11T09:36:07Z</time>
      </trkpt>
      <trkpt lat="46.417640" lon="10.002309">
        <ele>2236.198</ele>
        <time>2022-07-11T09:36:08Z</time>
      </trkpt>
      <trkpt lat="46.417703" lon="10.002261">
        <ele>2235.642</ele>
        <time>2022-07-11T09:36:09Z</time>
      </trkpt>
      <trkpt lat="46.417764" lon="10.002233">
        <ele>2235.673</ele>
        <time>2022-07-11T09:36:10Z</time>
      </trkpt>
      <trkpt lat="46.417821" lon="10.002211">
        <ele>2235.621</ele>
        <time>2022-07-11T09:36:11Z</time>
      </trkpt>
      <trkpt lat="46.418008" lon="10.002127">
        <ele>2237.135</ele>
        <time>2022-07-11T09:36:15Z</time>
      </trkpt>
      <trkpt lat="46.418393" lon="10.002069">
        <ele>2238.061</ele>
        <time>2022-07-11T09:36:28Z</time>
      </trkpt>
      <trkpt lat="46.418801" lon="10.002108">
        <ele>2239.021</ele>
        <time>2022-07-11T09:36:43Z</time>
      </trkpt>
      <trkpt lat="46.419128" lon="10.002147">
        <ele>2240.413</ele>
        <time>2022-07-11T09:36:58Z</time>
      </trkpt>
      <trkpt lat="46.419413" lon="10.002099">
        <ele>2239.009</ele>
        <time>2022-07-11T09:37:06Z</time>
      </trkpt>
      <trkpt lat="46.419452" lon="10.002088">
        <ele>2239.057</ele>
        <time>2022-07-11T09:37:07Z</time>
      </trkpt>
      <trkpt lat="46.419736" lon="10.001976">
        <ele>2236.636</ele>
        <time>2022-07-11T09:37:14Z</time>
      </trkpt>
      <trkpt lat="46.419778" lon="10.001961">
        <ele>2236.184</ele>
        <time>2022-07-11T09:37:15Z</time>
      </trkpt>
      <trkpt lat="46.419821" lon="10.001944">
        <ele>2235.696</ele>
        <time>2022-07-11T09:37:16Z</time>
      </trkpt>
      <trkpt lat="46.419862" lon="10.001932">
        <ele>2235.612</ele>
        <time>2022-07-11T09:37:17Z</time>
      </trkpt>
      <trkpt lat="46.419907" lon="10.001919">
        <ele>2235.266</ele>
        <time>2022-07-11T09:37:18Z</time>
      </trkpt>
      <trkpt lat="46.420001" lon="10.001884">
        <ele>2233.247</ele>
        <time>2022-07-11T09:37:20Z</time>
      </trkpt>
      <trkpt lat="46.420048" lon="10.001857">
        <ele>2232.825</ele>
        <time>2022-07-11T09:37:21Z</time>
      </trkpt>
      <trkpt lat="46.420138" lon="10.001798">
        <ele>2231.829</ele>
        <time>2022-07-11T09:37:23Z</time>
      </trkpt>
      <trkpt lat="46.420184" lon="10.001779">
        <ele>2231.313</ele>
        <time>2022-07-11T09:37:24Z</time>
      </trkpt>
      <trkpt lat="46.420225" lon="10.001770">
        <ele>2231.343</ele>
        <time>2022-07-11T09:37:25Z</time>
      </trkpt>
      <trkpt lat="46.420268" lon="10.001768">
        <ele>2230.407</ele>
        <time>2022-07-11T09:37:26Z</time>
      </trkpt>
      <trkpt lat="46.420497" lon="10.001755">
        <ele>2227.909</ele>
        <time>2022-07-11T09:37:31Z</time>
      </trkpt>
      <trkpt lat="46.420675" lon="10.001751">
        <ele>2226.592</ele>
        <time>2022-07-11T09:37:35Z</time>
      </trkpt>
      <trkpt lat="46.420716" lon="10.001759">
        <ele>2225.191</ele>
        <time>2022-07-11T09:37:36Z</time>
      </trkpt>
      <trkpt lat="46.420946" lon="10.001687">
        <ele>2221.739</ele>
        <time>2022-07-11T09:37:43Z</time>
      </trkpt>
      <trkpt lat="46.420947" lon="10.001638">
        <ele>2221.761</ele>
        <time>2022-07-11T09:37:44Z</time>
      </trkpt>
      <trkpt lat="46.420942" lon="10.001591">
        <ele>2220.737</ele>
        <time>2022-07-11T09:37:45Z</time>
      </trkpt>
      <trkpt lat="46.420888" lon="10.001196">
        <ele>2217.491</ele>
        <time>2022-07-11T09:37:52Z</time>
      </trkpt>
      <trkpt lat="46.420885" lon="10.001130">
        <ele>2216.992</ele>
        <time>2022-07-11T09:37:53Z</time>
      </trkpt>
      <trkpt lat="46.420888" lon="10.001064">
        <ele>2216.470</ele>
        <time>2022-07-11T09:37:54Z</time>
      </trkpt>
      <trkpt lat="46.420896" lon="10.000996">
        <ele>2215.574</ele>
        <time>2022-07-11T09:37:55Z</time>
      </trkpt>
      <trkpt lat="46.420911" lon="10.000926">
        <ele>2214.564</ele>
        <time>2022-07-11T09:37:56Z</time>
      </trkpt>
      <trkpt lat="46.420932" lon="10.000865">
        <ele>2214.006</ele>
        <time>2022-07-11T09:37:57Z</time>
      </trkpt>
      <trkpt lat="46.420957" lon="10.000813">
        <ele>2213.516</ele>
        <time>2022-07-11T09:37:58Z</time>
      </trkpt>
      <trkpt lat="46.421050" lon="10.000535">
        <ele>2209.209</ele>
        <time>2022-07-11T09:38:03Z</time>
      </trkpt>
      <trkpt lat="46.421097" lon="10.000402">
        <ele>2207.347</ele>
        <time>2022-07-11T09:38:05Z</time>
      </trkpt>
      <trkpt lat="46.421130" lon="10.000332">
        <ele>2206.896</ele>
        <time>2022-07-11T09:38:06Z</time>
      </trkpt>
      <trkpt lat="46.421167" lon="10.000269">
        <ele>2205.884</ele>
        <time>2022-07-11T09:38:07Z</time>
      </trkpt>
      <trkpt lat="46.421207" lon="10.000216">
        <ele>2204.476</ele>
        <time>2022-07-11T09:38:08Z</time>
      </trkpt>
      <trkpt lat="46.421250" lon="10.000169">
        <ele>2203.982</ele>
        <time>2022-07-11T09:38:09Z</time>
      </trkpt>
      <trkpt lat="46.421294" lon="10.000129">
        <ele>2203.446</ele>
        <time>2022-07-11T09:38:10Z</time>
      </trkpt>
      <trkpt lat="46.421341" lon="10.000094">
        <ele>2203.477</ele>
        <time>2022-07-11T09:38:11Z</time>
      </trkpt>
      <trkpt lat="46.421614" lon="9.999908">
        <ele>2201.545</ele>
        <time>2022-07-11T09:38:17Z</time>
      </trkpt>
      <trkpt lat="46.421694" lon="9.999827">
        <ele>2201.089</ele>
        <time>2022-07-11T09:38:19Z</time>
      </trkpt>
      <trkpt lat="46.421732" lon="9.999777">
        <ele>2201.067</ele>
        <time>2022-07-11T09:38:20Z</time>
      </trkpt>
      <trkpt lat="46.421842" lon="9.999637">
        <ele>2197.281</ele>
        <time>2022-07-11T09:38:23Z</time>
      </trkpt>
      <trkpt lat="46.421874" lon="9.999598">
        <ele>2197.219</ele>
        <time>2022-07-11T09:38:24Z</time>
      </trkpt>
      <trkpt lat="46.421897" lon="9.999555">
        <ele>2197.209</ele>
        <time>2022-07-11T09:38:25Z</time>
      </trkpt>
      <trkpt lat="46.421916" lon="9.999503">
        <ele>2196.727</ele>
        <time>2022-07-11T09:38:26Z</time>
      </trkpt>
      <trkpt lat="46.421934" lon="9.999453">
        <ele>2195.736</ele>
        <time>2022-07-11T09:38:27Z</time>
      </trkpt>
      <trkpt lat="46.421958" lon="9.999407">
        <ele>2195.374</ele>
        <time>2022-07-11T09:38:28Z</time>
      </trkpt>
      <trkpt lat="46.421995" lon="9.999378">
        <ele>2194.386</ele>
        <time>2022-07-11T09:38:29Z</time>
      </trkpt>
      <trkpt lat="46.422044" lon="9.999363">
        <ele>2193.342</ele>
        <time>2022-07-11T09:38:30Z</time>
      </trkpt>
      <trkpt lat="46.422092" lon="9.999354">
        <ele>2191.936</ele>
        <time>2022-07-11T09:38:31Z</time>
      </trkpt>
      <trkpt lat="46.422139" lon="9.999348">
        <ele>2191.477</ele>
        <time>2022-07-11T09:38:32Z</time>
      </trkpt>
      <trkpt lat="46.422191" lon="9.999339">
        <ele>2191.415</ele>
        <time>2022-07-11T09:38:33Z</time>
      </trkpt>
      <trkpt lat="46.422499" lon="9.999287">
        <ele>2188.179</ele>
        <time>2022-07-11T09:38:39Z</time>
      </trkpt>
      <trkpt lat="46.422748" lon="9.999247">
        <ele>2187.165</ele>
        <time>2022-07-11T09:38:44Z</time>
      </trkpt>
      <trkpt lat="46.422791" lon="9.999222">
        <ele>2186.168</ele>
        <time>2022-07-11T09:38:45Z</time>
      </trkpt>
      <trkpt lat="46.422830" lon="9.999189">
        <ele>2185.614</ele>
        <time>2022-07-11T09:38:46Z</time>
      </trkpt>
      <trkpt lat="46.422941" lon="9.999080">
        <ele>2184.709</ele>
        <time>2022-07-11T09:38:49Z</time>
      </trkpt>
      <trkpt lat="46.422981" lon="9.999063">
        <ele>2184.277</ele>
        <time>2022-07-11T09:38:50Z</time>
      </trkpt>
      <trkpt lat="46.423014" lon="9.999064">
        <ele>2184.276</ele>
        <time>2022-07-11T09:38:51Z</time>
      </trkpt>
      <trkpt lat="46.423041" lon="9.999070">
        <ele>2184.244</ele>
        <time>2022-07-11T09:38:52Z</time>
      </trkpt>
      <trkpt lat="46.423065" lon="9.999075">
        <ele>2184.256</ele>
        <time>2022-07-11T09:38:53Z</time>
      </trkpt>
      <trkpt lat="46.423089" lon="9.999068">
        <ele>2184.262</ele>
        <time>2022-07-11T09:38:54Z</time>
      </trkpt>
      <trkpt lat="46.423117" lon="9.999051">
        <ele>2184.266</ele>
        <time>2022-07-11T09:38:55Z</time>
      </trkpt>
      <trkpt lat="46.423147" lon="9.999018">
        <ele>2184.297</ele>
        <time>2022-07-11T09:38:56Z</time>
      </trkpt>
      <trkpt lat="46.423175" lon="9.998975">
        <ele>2183.725</ele>
        <time>2022-07-11T09:38:57Z</time>
      </trkpt>
      <trkpt lat="46.423211" lon="9.998923">
        <ele>2183.729</ele>
        <time>2022-07-11T09:38:58Z</time>
      </trkpt>
      <trkpt lat="46.423256" lon="9.998871">
        <ele>2182.376</ele>
        <time>2022-07-11T09:38:59Z</time>
      </trkpt>
      <trkpt lat="46.423303" lon="9.998816">
        <ele>2181.390</ele>
        <time>2022-07-11T09:39:00Z</time>
      </trkpt>
      <trkpt lat="46.423348" lon="9.998758">
        <ele>2181.319</ele>
        <time>2022-07-11T09:39:01Z</time>
      </trkpt>
      <trkpt lat="46.423580" lon="9.998561">
        <ele>2181.309</ele>
        <time>2022-07-11T09:39:06Z</time>
      </trkpt>
      <trkpt lat="46.423851" lon="9.998482">
        <ele>2179.938</ele>
        <time>2022-07-11T09:39:11Z</time>
      </trkpt>
      <trkpt lat="46.423904" lon="9.998485">
        <ele>2179.477</ele>
        <time>2022-07-11T09:39:12Z</time>
      </trkpt>
      <trkpt lat="46.423948" lon="9.998488">
        <ele>2179.485</ele>
        <time>2022-07-11T09:39:13Z</time>
      </trkpt>
      <trkpt lat="46.423987" lon="9.998481">
        <ele>2179.447</ele>
        <time>2022-07-11T09:39:14Z</time>
      </trkpt>
      <trkpt lat="46.424023" lon="9.998472">
        <ele>2179.473</ele>
        <time>2022-07-11T09:39:15Z</time>
      </trkpt>
      <trkpt lat="46.424052" lon="9.998483">
        <ele>2178.497</ele>
        <time>2022-07-11T09:39:16Z</time>
      </trkpt>
      <trkpt lat="46.424074" lon="9.998509">
        <ele>2178.438</ele>
        <time>2022-07-11T09:39:17Z</time>
      </trkpt>
      <trkpt lat="46.424097" lon="9.998535">
        <ele>2178.446</ele>
        <time>2022-07-11T09:39:18Z</time>
      </trkpt>
      <trkpt lat="46.424125" lon="9.998556">
        <ele>2178.020</ele>
        <time>2022-07-11T09:39:19Z</time>
      </trkpt>
      <trkpt lat="46.424156" lon="9.998565">
        <ele>2177.022</ele>
        <time>2022-07-11T09:39:20Z</time>
      </trkpt>
      <trkpt lat="46.424185" lon="9.998559">
        <ele>2176.062</ele>
        <time>2022-07-11T09:39:21Z</time>
      </trkpt>
      <trkpt lat="46.424206" lon="9.998544">
        <ele>2175.608</ele>
        <time>2022-07-11T09:39:22Z</time>
      </trkpt>
      <trkpt lat="46.424222" lon="9.998523">
        <ele>2175.109</ele>
        <time>2022-07-11T09:39:23Z</time>
      </trkpt>
      <trkpt lat="46.424233" lon="9.998504">
        <ele>2174.693</ele>
        <time>2022-07-11T09:39:24Z</time>
      </trkpt>
      <trkpt lat="46.424250" lon="9.998478">
        <ele>2174.612</ele>
        <time>2022-07-11T09:39:25Z</time>
      </trkpt>
      <trkpt lat="46.424278" lon="9.998438">
        <ele>2174.110</ele>
        <time>2022-07-11T09:39:26Z</time>
      </trkpt>
      <trkpt lat="46.424308" lon="9.998388">
        <ele>2172.712</ele>
        <time>2022-07-11T09:39:27Z</time>
      </trkpt>
      <trkpt lat="46.424342" lon="9.998328">
        <ele>2172.288</ele>
        <time>2022-07-11T09:39:28Z</time>
      </trkpt>
      <trkpt lat="46.424408" lon="9.998204">
        <ele>2170.712</ele>
        <time>2022-07-11T09:39:30Z</time>
      </trkpt>
      <trkpt lat="46.424431" lon="9.998134">
        <ele>2170.713</ele>
        <time>2022-07-11T09:39:31Z</time>
      </trkpt>
      <trkpt lat="46.424515" lon="9.997762">
        <ele>2169.811</ele>
        <time>2022-07-11T09:39:39Z</time>
      </trkpt>
      <trkpt lat="46.424546" lon="9.997720">
        <ele>2169.845</ele>
        <time>2022-07-11T09:39:40Z</time>
      </trkpt>
      <trkpt lat="46.424580" lon="9.997680">
        <ele>2168.825</ele>
        <time>2022-07-11T09:39:41Z</time>
      </trkpt>
      <trkpt lat="46.424609" lon="9.997637">
        <ele>2168.826</ele>
        <time>2022-07-11T09:39:42Z</time>
      </trkpt>
      <trkpt lat="46.424801" lon="9.997289">
        <ele>2168.808</ele>
        <time>2022-07-11T09:39:52Z</time>
      </trkpt>
      <trkpt lat="46.424863" lon="9.997156">
        <ele>2167.409</ele>
        <time>2022-07-11T09:39:55Z</time>
      </trkpt>
      <trkpt lat="46.424895" lon="9.997118">
        <ele>2167.453</ele>
        <time>2022-07-11T09:39:56Z</time>
      </trkpt>
      <trkpt lat="46.424921" lon="9.997084">
        <ele>2166.962</ele>
        <time>2022-07-11T09:39:57Z</time>
      </trkpt>
      <trkpt lat="46.424966" lon="9.997016">
        <ele>2166.940</ele>
        <time>2022-07-11T09:39:59Z</time>
      </trkpt>
      <trkpt lat="46.424997" lon="9.997006">
        <ele>2166.412</ele>
        <time>2022-07-11T09:40:00Z</time>
      </trkpt>
      <trkpt lat="46.425036" lon="9.997002">
        <ele>2165.538</ele>
        <time>2022-07-11T09:40:01Z</time>
      </trkpt>
      <trkpt lat="46.425073" lon="9.996987">
        <ele>2165.522</ele>
        <time>2022-07-11T09:40:02Z</time>
      </trkpt>
      <trkpt lat="46.425106" lon="9.996958">
        <ele>2165.553</ele>
        <time>2022-07-11T09:40:03Z</time>
      </trkpt>
      <trkpt lat="46.425130" lon="9.996924">
        <ele>2165.581</ele>
        <time>2022-07-11T09:40:04Z</time>
      </trkpt>
      <trkpt lat="46.425157" lon="9.996889">
        <ele>2165.055</ele>
        <time>2022-07-11T09:40:05Z</time>
      </trkpt>
      <trkpt lat="46.425185" lon="9.996858">
        <ele>2165.072</ele>
        <time>2022-07-11T09:40:06Z</time>
      </trkpt>
      <trkpt lat="46.425238" lon="9.996821">
        <ele>2164.513</ele>
        <time>2022-07-11T09:40:09Z</time>
      </trkpt>
      <trkpt lat="46.425258" lon="9.996813">
        <ele>2164.514</ele>
        <time>2022-07-11T09:40:10Z</time>
      </trkpt>
      <trkpt lat="46.425276" lon="9.996800">
        <ele>2164.509</ele>
        <time>2022-07-11T09:40:11Z</time>
      </trkpt>
      <trkpt lat="46.425291" lon="9.996793">
        <ele>2164.598</ele>
        <time>2022-07-11T09:40:12Z</time>
      </trkpt>
      <trkpt lat="46.425306" lon="9.996793">
        <ele>2164.547</ele>
        <time>2022-07-11T09:40:13Z</time>
      </trkpt>
      <trkpt lat="46.425324" lon="9.996795">
        <ele>2164.515</ele>
        <time>2022-07-11T09:40:14Z</time>
      </trkpt>
      <trkpt lat="46.425344" lon="9.996796">
        <ele>2164.577</ele>
        <time>2022-07-11T09:40:15Z</time>
      </trkpt>
      <trkpt lat="46.425357" lon="9.996793">
        <ele>2164.513</ele>
        <time>2022-07-11T09:40:16Z</time>
      </trkpt>
      <trkpt lat="46.425383" lon="9.996777">
        <ele>2164.077</ele>
        <time>2022-07-11T09:40:26Z</time>
      </trkpt>
      <trkpt lat="46.425398" lon="9.996778">
        <ele>2164.058</ele>
        <time>2022-07-11T09:40:29Z</time>
      </trkpt>
      <trkpt lat="46.425413" lon="9.996779">
        <ele>2164.076</ele>
        <time>2022-07-11T09:40:30Z</time>
      </trkpt>
      <trkpt lat="46.425429" lon="9.996775">
        <ele>2163.510</ele>
        <time>2022-07-11T09:40:31Z</time>
      </trkpt>
      <trkpt lat="46.425445" lon="9.996775">
        <ele>2163.518</ele>
        <time>2022-07-11T09:40:32Z</time>
      </trkpt>
      <trkpt lat="46.425467" lon="9.996774">
        <ele>2163.598</ele>
        <time>2022-07-11T09:40:33Z</time>
      </trkpt>
      <trkpt lat="46.425488" lon="9.996770">
        <ele>2163.517</ele>
        <time>2022-07-11T09:40:34Z</time>
      </trkpt>
      <trkpt lat="46.425505" lon="9.996766">
        <ele>2163.509</ele>
        <time>2022-07-11T09:40:35Z</time>
      </trkpt>
      <trkpt lat="46.425523" lon="9.996768">
        <ele>2163.522</ele>
        <time>2022-07-11T09:40:36Z</time>
      </trkpt>
      <trkpt lat="46.425544" lon="9.996767">
        <ele>2162.651</ele>
        <time>2022-07-11T09:40:37Z</time>
      </trkpt>
      <trkpt lat="46.425563" lon="9.996757">
        <ele>2162.639</ele>
        <time>2022-07-11T09:40:38Z</time>
      </trkpt>
      <trkpt lat="46.425578" lon="9.996745">
        <ele>2162.121</ele>
        <time>2022-07-11T09:40:39Z</time>
      </trkpt>
      <trkpt lat="46.425593" lon="9.996739">
        <ele>2162.157</ele>
        <time>2022-07-11T09:40:40Z</time>
      </trkpt>
      <trkpt lat="46.425610" lon="9.996737">
        <ele>2162.161</ele>
        <time>2022-07-11T09:40:41Z</time>
      </trkpt>
      <trkpt lat="46.425628" lon="9.996739">
        <ele>2161.662</ele>
        <time>2022-07-11T09:40:42Z</time>
      </trkpt>
      <trkpt lat="46.425647" lon="9.996731">
        <ele>2161.180</ele>
        <time>2022-07-11T09:40:43Z</time>
      </trkpt>
      <trkpt lat="46.425662" lon="9.996713">
        <ele>2160.714</ele>
        <time>2022-07-11T09:40:44Z</time>
      </trkpt>
      <trkpt lat="46.425669" lon="9.996691">
        <ele>2160.748</ele>
        <time>2022-07-11T09:40:45Z</time>
      </trkpt>
      <trkpt lat="46.425679" lon="9.996674">
        <ele>2160.761</ele>
        <time>2022-07-11T09:40:46Z</time>
      </trkpt>
      <trkpt lat="46.425693" lon="9.996665">
        <ele>2160.717</ele>
        <time>2022-07-11T09:40:47Z</time>
      </trkpt>
      <trkpt lat="46.425707" lon="9.996662">
        <ele>2160.209</ele>
        <time>2022-07-11T09:40:48Z</time>
      </trkpt>
      <trkpt lat="46.425726" lon="9.996697">
        <ele>2158.755</ele>
        <time>2022-07-11T09:40:59Z</time>
      </trkpt>
      <trkpt lat="46.425773" lon="9.996677">
        <ele>2157.844</ele>
        <time>2022-07-11T09:41:11Z</time>
      </trkpt>
      <trkpt lat="46.425854" lon="9.996602">
        <ele>2156.392</ele>
        <time>2022-07-11T09:41:15Z</time>
      </trkpt>
      <trkpt lat="46.425868" lon="9.996576">
        <ele>2156.374</ele>
        <time>2022-07-11T09:41:16Z</time>
      </trkpt>
      <trkpt lat="46.425890" lon="9.996563">
        <ele>2155.820</ele>
        <time>2022-07-11T09:41:17Z</time>
      </trkpt>
      <trkpt lat="46.425917" lon="9.996561">
        <ele>2155.414</ele>
        <time>2022-07-11T09:41:18Z</time>
      </trkpt>
      <trkpt lat="46.425946" lon="9.996570">
        <ele>2154.495</ele>
        <time>2022-07-11T09:41:19Z</time>
      </trkpt>
      <trkpt lat="46.425975" lon="9.996575">
        <ele>2154.473</ele>
        <time>2022-07-11T09:41:20Z</time>
      </trkpt>
      <trkpt lat="46.426001" lon="9.996568">
        <ele>2154.467</ele>
        <time>2022-07-11T09:41:21Z</time>
      </trkpt>
      <trkpt lat="46.426023" lon="9.996558">
        <ele>2154.432</ele>
        <time>2022-07-11T09:41:22Z</time>
      </trkpt>
      <trkpt lat="46.426040" lon="9.996549">
        <ele>2153.992</ele>
        <time>2022-07-11T09:41:23Z</time>
      </trkpt>
      <trkpt lat="46.426058" lon="9.996538">
        <ele>2153.911</ele>
        <time>2022-07-11T09:41:24Z</time>
      </trkpt>
      <trkpt lat="46.426074" lon="9.996529">
        <ele>2153.909</ele>
        <time>2022-07-11T09:41:25Z</time>
      </trkpt>
      <trkpt lat="46.426090" lon="9.996520">
        <ele>2153.944</ele>
        <time>2022-07-11T09:41:26Z</time>
      </trkpt>
      <trkpt lat="46.426108" lon="9.996514">
        <ele>2153.973</ele>
        <time>2022-07-11T09:41:27Z</time>
      </trkpt>
      <trkpt lat="46.426128" lon="9.996514">
        <ele>2153.911</ele>
        <time>2022-07-11T09:41:28Z</time>
      </trkpt>
      <trkpt lat="46.426150" lon="9.996506">
        <ele>2153.943</ele>
        <time>2022-07-11T09:41:29Z</time>
      </trkpt>
      <trkpt lat="46.426172" lon="9.996480">
        <ele>2153.099</ele>
        <time>2022-07-11T09:41:30Z</time>
      </trkpt>
      <trkpt lat="46.426194" lon="9.996457">
        <ele>2153.023</ele>
        <time>2022-07-11T09:41:31Z</time>
      </trkpt>
      <trkpt lat="46.426221" lon="9.996448">
        <ele>2153.074</ele>
        <time>2022-07-11T09:41:32Z</time>
      </trkpt>
      <trkpt lat="46.426244" lon="9.996463">
        <ele>2153.072</ele>
        <time>2022-07-11T09:41:33Z</time>
      </trkpt>
      <trkpt lat="46.426264" lon="9.996492">
        <ele>2153.026</ele>
        <time>2022-07-11T09:41:34Z</time>
      </trkpt>
      <trkpt lat="46.426287" lon="9.996530">
        <ele>2152.516</ele>
        <time>2022-07-11T09:41:35Z</time>
      </trkpt>
      <trkpt lat="46.426313" lon="9.996553">
        <ele>2152.576</ele>
        <time>2022-07-11T09:41:36Z</time>
      </trkpt>
      <trkpt lat="46.426337" lon="9.996556">
        <ele>2152.513</ele>
        <time>2022-07-11T09:41:37Z</time>
      </trkpt>
      <trkpt lat="46.426362" lon="9.996552">
        <ele>2151.509</ele>
        <time>2022-07-11T09:41:38Z</time>
      </trkpt>
      <trkpt lat="46.426395" lon="9.996545">
        <ele>2151.562</ele>
        <time>2022-07-11T09:41:39Z</time>
      </trkpt>
      <trkpt lat="46.426428" lon="9.996540">
        <ele>2151.021</ele>
        <time>2022-07-11T09:41:40Z</time>
      </trkpt>
      <trkpt lat="46.426461" lon="9.996535">
        <ele>2151.099</ele>
        <time>2022-07-11T09:41:41Z</time>
      </trkpt>
      <trkpt lat="46.426485" lon="9.996518">
        <ele>2151.091</ele>
        <time>2022-07-11T09:41:42Z</time>
      </trkpt>
      <trkpt lat="46.426501" lon="9.996483">
        <ele>2151.067</ele>
        <time>2022-07-11T09:41:43Z</time>
      </trkpt>
      <trkpt lat="46.426507" lon="9.996425">
        <ele>2151.031</ele>
        <time>2022-07-11T09:41:44Z</time>
      </trkpt>
      <trkpt lat="46.426506" lon="9.996374">
        <ele>2151.042</ele>
        <time>2022-07-11T09:41:45Z</time>
      </trkpt>
      <trkpt lat="46.426499" lon="9.996243">
        <ele>2151.060</ele>
        <time>2022-07-11T09:41:48Z</time>
      </trkpt>
      <trkpt lat="46.426522" lon="9.996219">
        <ele>2150.694</ele>
        <time>2022-07-11T09:41:49Z</time>
      </trkpt>
      <trkpt lat="46.426547" lon="9.996208">
        <ele>2150.614</ele>
        <time>2022-07-11T09:41:50Z</time>
      </trkpt>
      <trkpt lat="46.426564" lon="9.996208">
        <ele>2150.654</ele>
        <time>2022-07-11T09:41:51Z</time>
      </trkpt>
      <trkpt lat="46.426580" lon="9.996212">
        <ele>2149.609</ele>
        <time>2022-07-11T09:41:52Z</time>
      </trkpt>
      <trkpt lat="46.426597" lon="9.996220">
        <ele>2149.609</ele>
        <time>2022-07-11T09:41:53Z</time>
      </trkpt>
      <trkpt lat="46.426617" lon="9.996236">
        <ele>2149.122</ele>
        <time>2022-07-11T09:41:54Z</time>
      </trkpt>
      <trkpt lat="46.426639" lon="9.996259">
        <ele>2149.121</ele>
        <time>2022-07-11T09:41:55Z</time>
      </trkpt>
      <trkpt lat="46.426655" lon="9.996274">
        <ele>2148.659</ele>
        <time>2022-07-11T09:41:56Z</time>
      </trkpt>
      <trkpt lat="46.426673" lon="9.996283">
        <ele>2148.221</ele>
        <time>2022-07-11T09:41:57Z</time>
      </trkpt>
      <trkpt lat="46.426697" lon="9.996295">
        <ele>2147.777</ele>
        <time>2022-07-11T09:41:58Z</time>
      </trkpt>
      <trkpt lat="46.426866" lon="9.996357">
        <ele>2144.821</ele>
        <time>2022-07-11T09:42:06Z</time>
      </trkpt>
      <trkpt lat="46.426881" lon="9.996354">
        <ele>2144.372</ele>
        <time>2022-07-11T09:42:07Z</time>
      </trkpt>
      <trkpt lat="46.426893" lon="9.996307">
        <ele>2144.350</ele>
        <time>2022-07-11T09:42:17Z</time>
      </trkpt>
      <trkpt lat="46.427025" lon="9.996169">
        <ele>2144.374</ele>
        <time>2022-07-11T09:42:23Z</time>
      </trkpt>
      <trkpt lat="46.427038" lon="9.996139">
        <ele>2143.896</ele>
        <time>2022-07-11T09:42:24Z</time>
      </trkpt>
      <trkpt lat="46.427037" lon="9.996106">
        <ele>2143.831</ele>
        <time>2022-07-11T09:42:25Z</time>
      </trkpt>
      <trkpt lat="46.427041" lon="9.996080">
        <ele>2143.824</ele>
        <time>2022-07-11T09:42:26Z</time>
      </trkpt>
      <trkpt lat="46.427054" lon="9.996059">
        <ele>2143.809</ele>
        <time>2022-07-11T09:42:27Z</time>
      </trkpt>
      <trkpt lat="46.427066" lon="9.996047">
        <ele>2143.860</ele>
        <time>2022-07-11T09:42:28Z</time>
      </trkpt>
      <trkpt lat="46.427078" lon="9.996032">
        <ele>2143.899</ele>
        <time>2022-07-11T09:42:29Z</time>
      </trkpt>
      <trkpt lat="46.427092" lon="9.996018">
        <ele>2143.897</ele>
        <time>2022-07-11T09:42:30Z</time>
      </trkpt>
      <trkpt lat="46.427110" lon="9.996000">
        <ele>2143.429</ele>
        <time>2022-07-11T09:42:31Z</time>
      </trkpt>
      <trkpt lat="46.427121" lon="9.995980">
        <ele>2144.865</ele>
        <time>2022-07-11T09:42:32Z</time>
      </trkpt>
      <trkpt lat="46.427124" lon="9.995952">
        <ele>2144.829</ele>
        <time>2022-07-11T09:42:33Z</time>
      </trkpt>
      <trkpt lat="46.427027" lon="9.995554">
        <ele>2145.390</ele>
        <time>2022-07-11T09:42:45Z</time>
      </trkpt>
      <trkpt lat="46.427026" lon="9.995341">
        <ele>2146.248</ele>
        <time>2022-07-11T09:42:54Z</time>
      </trkpt>
      <trkpt lat="46.427036" lon="9.995339">
        <ele>2146.272</ele>
        <time>2022-07-11T09:42:55Z</time>
      </trkpt>
      <trkpt lat="46.427048" lon="9.995335">
        <ele>2146.271</ele>
        <time>2022-07-11T09:42:56Z</time>
      </trkpt>
      <trkpt lat="46.427078" lon="9.995319">
        <ele>2146.241</ele>
        <time>2022-07-11T09:43:05Z</time>
      </trkpt>
      <trkpt lat="46.427059" lon="9.995262">
        <ele>2146.215</ele>
        <time>2022-07-11T09:43:09Z</time>
      </trkpt>
      <trkpt lat="46.427049" lon="9.995245">
        <ele>2146.209</ele>
        <time>2022-07-11T09:43:10Z</time>
      </trkpt>
      <trkpt lat="46.427040" lon="9.995232">
        <ele>2146.228</ele>
        <time>2022-07-11T09:43:11Z</time>
      </trkpt>
      <trkpt lat="46.427032" lon="9.995216">
        <ele>2146.227</ele>
        <time>2022-07-11T09:43:12Z</time>
      </trkpt>
      <trkpt lat="46.427029" lon="9.995196">
        <ele>2146.265</ele>
        <time>2022-07-11T09:43:13Z</time>
      </trkpt>
      <trkpt lat="46.427029" lon="9.995174">
        <ele>2146.237</ele>
        <time>2022-07-11T09:43:14Z</time>
      </trkpt>
      <trkpt lat="46.427043" lon="9.995066">
        <ele>2146.773</ele>
        <time>2022-07-11T09:43:19Z</time>
      </trkpt>
      <trkpt lat="46.427050" lon="9.995044">
        <ele>2146.757</ele>
        <time>2022-07-11T09:43:20Z</time>
      </trkpt>
      <trkpt lat="46.427052" lon="9.995019">
        <ele>2146.788</ele>
        <time>2022-07-11T09:43:21Z</time>
      </trkpt>
      <trkpt lat="46.427055" lon="9.994997">
        <ele>2146.786</ele>
        <time>2022-07-11T09:43:22Z</time>
      </trkpt>
      <trkpt lat="46.427058" lon="9.994978">
        <ele>2146.780</ele>
        <time>2022-07-11T09:43:23Z</time>
      </trkpt>
      <trkpt lat="46.427065" lon="9.994962">
        <ele>2146.762</ele>
        <time>2022-07-11T09:43:24Z</time>
      </trkpt>
      <trkpt lat="46.427076" lon="9.994945">
        <ele>2146.783</ele>
        <time>2022-07-11T09:43:25Z</time>
      </trkpt>
      <trkpt lat="46.427094" lon="9.994940">
        <ele>2146.711</ele>
        <time>2022-07-11T09:43:26Z</time>
      </trkpt>
      <trkpt lat="46.427108" lon="9.994944">
        <ele>2146.709</ele>
        <time>2022-07-11T09:43:27Z</time>
      </trkpt>
      <trkpt lat="46.427170" lon="9.994964">
        <ele>2146.747</ele>
        <time>2022-07-11T09:43:37Z</time>
      </trkpt>
      <trkpt lat="46.427181" lon="9.994978">
        <ele>2146.726</ele>
        <time>2022-07-11T09:43:42Z</time>
      </trkpt>
      <trkpt lat="46.427412" lon="9.995211">
        <ele>2147.294</ele>
        <time>2022-07-11T09:43:55Z</time>
      </trkpt>
      <trkpt lat="46.427606" lon="9.995367">
        <ele>2146.256</ele>
        <time>2022-07-11T09:44:03Z</time>
      </trkpt>
      <trkpt lat="46.427846" lon="9.995554">
        <ele>2143.882</ele>
        <time>2022-07-11T09:44:07Z</time>
      </trkpt>
      <trkpt lat="46.427968" lon="9.995615">
        <ele>2143.426</ele>
        <time>2022-07-11T09:44:09Z</time>
      </trkpt>
      <trkpt lat="46.428026" lon="9.995650">
        <ele>2143.437</ele>
        <time>2022-07-11T09:44:10Z</time>
      </trkpt>
      <trkpt lat="46.428086" lon="9.995675">
        <ele>2142.935</ele>
        <time>2022-07-11T09:44:11Z</time>
      </trkpt>
      <trkpt lat="46.428921" lon="9.995910">
        <ele>2140.049</ele>
        <time>2022-07-11T09:44:25Z</time>
      </trkpt>
      <trkpt lat="46.429132" lon="9.995958">
        <ele>2139.031</ele>
        <time>2022-07-11T09:44:29Z</time>
      </trkpt>
      <trkpt lat="46.429623" lon="9.996093">
        <ele>2137.161</ele>
        <time>2022-07-11T09:44:40Z</time>
      </trkpt>
      <trkpt lat="46.429667" lon="9.996101">
        <ele>2137.107</ele>
        <time>2022-07-11T09:44:41Z</time>
      </trkpt>
      <trkpt lat="46.429708" lon="9.996098">
        <ele>2137.109</ele>
        <time>2022-07-11T09:44:42Z</time>
      </trkpt>
      <trkpt lat="46.430157" lon="9.996098">
        <ele>2137.164</ele>
        <time>2022-07-11T09:44:55Z</time>
      </trkpt>
      <trkpt lat="46.430339" lon="9.996118">
        <ele>2140.553</ele>
        <time>2022-07-11T09:45:07Z</time>
      </trkpt>
      <trkpt lat="46.430503" lon="9.996141">
        <ele>2141.941</ele>
        <time>2022-07-11T09:45:19Z</time>
      </trkpt>
      <trkpt lat="46.430543" lon="9.996145">
        <ele>2141.913</ele>
        <time>2022-07-11T09:45:22Z</time>
      </trkpt>
      <trkpt lat="46.430555" lon="9.996141">
        <ele>2143.479</ele>
        <time>2022-07-11T09:45:23Z</time>
      </trkpt>
      <trkpt lat="46.430570" lon="9.996140">
        <ele>2143.423</ele>
        <time>2022-07-11T09:45:24Z</time>
      </trkpt>
      <trkpt lat="46.430588" lon="9.996139">
        <ele>2143.414</ele>
        <time>2022-07-11T09:45:25Z</time>
      </trkpt>
      <trkpt lat="46.430604" lon="9.996143">
        <ele>2142.932</ele>
        <time>2022-07-11T09:45:26Z</time>
      </trkpt>
      <trkpt lat="46.430614" lon="9.996142">
        <ele>2143.446</ele>
        <time>2022-07-11T09:45:27Z</time>
      </trkpt>
      <trkpt lat="46.430628" lon="9.996142">
        <ele>2143.467</ele>
        <time>2022-07-11T09:45:28Z</time>
      </trkpt>
      <trkpt lat="46.430641" lon="9.996143">
        <ele>2143.481</ele>
        <time>2022-07-11T09:45:29Z</time>
      </trkpt>
      <trkpt lat="46.430958" lon="9.996163">
        <ele>2141.919</ele>
        <time>2022-07-11T09:45:42Z</time>
      </trkpt>
      <trkpt lat="46.431003" lon="9.996159">
        <ele>2141.909</ele>
        <time>2022-07-11T09:45:43Z</time>
      </trkpt>
      <trkpt lat="46.431055" lon="9.996148">
        <ele>2140.957</ele>
        <time>2022-07-11T09:45:44Z</time>
      </trkpt>
      <trkpt lat="46.431297" lon="9.995896">
        <ele>2139.556</ele>
        <time>2022-07-11T09:45:54Z</time>
      </trkpt>
      <trkpt lat="46.431376" lon="9.995733">
        <ele>2139.054</ele>
        <time>2022-07-11T09:45:58Z</time>
      </trkpt>
      <trkpt lat="46.431395" lon="9.995675">
        <ele>2139.056</ele>
        <time>2022-07-11T09:45:59Z</time>
      </trkpt>
      <trkpt lat="46.431435" lon="9.995551">
        <ele>2137.692</ele>
        <time>2022-07-11T09:46:01Z</time>
      </trkpt>
      <trkpt lat="46.431467" lon="9.995495">
        <ele>2136.176</ele>
        <time>2022-07-11T09:46:02Z</time>
      </trkpt>
      <trkpt lat="46.431515" lon="9.995436">
        <ele>2135.287</ele>
        <time>2022-07-11T09:46:03Z</time>
      </trkpt>
      <trkpt lat="46.431573" lon="9.995377">
        <ele>2133.775</ele>
        <time>2022-07-11T09:46:04Z</time>
      </trkpt>
      <trkpt lat="46.431628" lon="9.995331">
        <ele>2132.889</ele>
        <time>2022-07-11T09:46:05Z</time>
      </trkpt>
      <trkpt lat="46.431731" lon="9.995228">
        <ele>2131.892</ele>
        <time>2022-07-11T09:46:07Z</time>
      </trkpt>
      <trkpt lat="46.431831" lon="9.995087">
        <ele>2131.873</ele>
        <time>2022-07-11T09:46:10Z</time>
      </trkpt>
      <trkpt lat="46.431845" lon="9.995031">
        <ele>2131.820</ele>
        <time>2022-07-11T09:46:11Z</time>
      </trkpt>
      <trkpt lat="46.431861" lon="9.994970">
        <ele>2131.809</ele>
        <time>2022-07-11T09:46:12Z</time>
      </trkpt>
      <trkpt lat="46.431888" lon="9.994919">
        <ele>2131.820</ele>
        <time>2022-07-11T09:46:13Z</time>
      </trkpt>
      <trkpt lat="46.431927" lon="9.994873">
        <ele>2130.939</ele>
        <time>2022-07-11T09:46:14Z</time>
      </trkpt>
      <trkpt lat="46.431972" lon="9.994828">
        <ele>2130.417</ele>
        <time>2022-07-11T09:46:15Z</time>
      </trkpt>
      <trkpt lat="46.432014" lon="9.994789">
        <ele>2130.489</ele>
        <time>2022-07-11T09:46:16Z</time>
      </trkpt>
      <trkpt lat="46.432064" lon="9.994755">
        <ele>2129.495</ele>
        <time>2022-07-11T09:46:17Z</time>
      </trkpt>
      <trkpt lat="46.432119" lon="9.994729">
        <ele>2128.919</ele>
        <time>2022-07-11T09:46:18Z</time>
      </trkpt>
      <trkpt lat="46.432179" lon="9.994717">
        <ele>2128.570</ele>
        <time>2022-07-11T09:46:19Z</time>
      </trkpt>
      <trkpt lat="46.432244" lon="9.994711">
        <ele>2128.518</ele>
        <time>2022-07-11T09:46:20Z</time>
      </trkpt>
      <trkpt lat="46.432366" lon="9.994688">
        <ele>2127.542</ele>
        <time>2022-07-11T09:46:22Z</time>
      </trkpt>
      <trkpt lat="46.432427" lon="9.994664">
        <ele>2127.561</ele>
        <time>2022-07-11T09:46:23Z</time>
      </trkpt>
      <trkpt lat="46.432473" lon="9.994628">
        <ele>2127.521</ele>
        <time>2022-07-11T09:46:24Z</time>
      </trkpt>
      <trkpt lat="46.432507" lon="9.994579">
        <ele>2127.513</ele>
        <time>2022-07-11T09:46:25Z</time>
      </trkpt>
      <trkpt lat="46.432528" lon="9.994528">
        <ele>2127.509</ele>
        <time>2022-07-11T09:46:26Z</time>
      </trkpt>
      <trkpt lat="46.432544" lon="9.994484">
        <ele>2127.517</ele>
        <time>2022-07-11T09:46:27Z</time>
      </trkpt>
      <trkpt lat="46.432623" lon="9.994315">
        <ele>2127.546</ele>
        <time>2022-07-11T09:46:31Z</time>
      </trkpt>
      <trkpt lat="46.432659" lon="9.994279">
        <ele>2127.054</ele>
        <time>2022-07-11T09:46:32Z</time>
      </trkpt>
      <trkpt lat="46.432788" lon="9.994173">
        <ele>2125.116</ele>
        <time>2022-07-11T09:46:35Z</time>
      </trkpt>
      <trkpt lat="46.432832" lon="9.994126">
        <ele>2125.182</ele>
        <time>2022-07-11T09:46:36Z</time>
      </trkpt>
      <trkpt lat="46.432962" lon="9.993966">
        <ele>2123.616</ele>
        <time>2022-07-11T09:46:39Z</time>
      </trkpt>
      <trkpt lat="46.432994" lon="9.993903">
        <ele>2123.657</ele>
        <time>2022-07-11T09:46:40Z</time>
      </trkpt>
      <trkpt lat="46.433088" lon="9.993709">
        <ele>2123.625</ele>
        <time>2022-07-11T09:46:43Z</time>
      </trkpt>
      <trkpt lat="46.433268" lon="9.993377">
        <ele>2120.829</ele>
        <time>2022-07-11T09:46:48Z</time>
      </trkpt>
      <trkpt lat="46.433422" lon="9.992861">
        <ele>2117.419</ele>
        <time>2022-07-11T09:46:58Z</time>
      </trkpt>
      <trkpt lat="46.433605" lon="9.992323">
        <ele>2115.509</ele>
        <time>2022-07-11T09:47:08Z</time>
      </trkpt>
      <trkpt lat="46.433633" lon="9.992257">
        <ele>2114.519</ele>
        <time>2022-07-11T09:47:09Z</time>
      </trkpt>
      <trkpt lat="46.433881" lon="9.991686">
        <ele>2112.609</ele>
        <time>2022-07-11T09:47:18Z</time>
      </trkpt>
      <trkpt lat="46.433904" lon="9.991621">
        <ele>2112.682</ele>
        <time>2022-07-11T09:47:19Z</time>
      </trkpt>
      <trkpt lat="46.434315" lon="9.990791">
        <ele>2110.261</ele>
        <time>2022-07-11T09:47:35Z</time>
      </trkpt>
      <trkpt lat="46.434529" lon="9.990412">
        <ele>2109.229</ele>
        <time>2022-07-11T09:47:43Z</time>
      </trkpt>
      <trkpt lat="46.434558" lon="9.990371">
        <ele>2109.281</ele>
        <time>2022-07-11T09:47:44Z</time>
      </trkpt>
      <trkpt lat="46.434592" lon="9.990337">
        <ele>2109.217</ele>
        <time>2022-07-11T09:47:45Z</time>
      </trkpt>
      <trkpt lat="46.434627" lon="9.990308">
        <ele>2109.291</ele>
        <time>2022-07-11T09:47:46Z</time>
      </trkpt>
      <trkpt lat="46.434658" lon="9.990286">
        <ele>2109.242</ele>
        <time>2022-07-11T09:47:47Z</time>
      </trkpt>
      <trkpt lat="46.434941" lon="9.990129">
        <ele>2109.230</ele>
        <time>2022-07-11T09:47:57Z</time>
      </trkpt>
      <trkpt lat="46.435202" lon="9.989858">
        <ele>2108.794</ele>
        <time>2022-07-11T09:48:07Z</time>
      </trkpt>
      <trkpt lat="46.435303" lon="9.989739">
        <ele>2107.367</ele>
        <time>2022-07-11T09:48:10Z</time>
      </trkpt>
      <trkpt lat="46.435775" lon="9.989128">
        <ele>2105.481</ele>
        <time>2022-07-11T09:48:23Z</time>
      </trkpt>
      <trkpt lat="46.435890" lon="9.988951">
        <ele>2104.419</ele>
        <time>2022-07-11T09:48:27Z</time>
      </trkpt>
      <trkpt lat="46.435949" lon="9.988864">
        <ele>2104.409</ele>
        <time>2022-07-11T09:48:29Z</time>
      </trkpt>
      <trkpt lat="46.435973" lon="9.988819">
        <ele>2103.997</ele>
        <time>2022-07-11T09:48:30Z</time>
      </trkpt>
      <trkpt lat="46.435997" lon="9.988778">
        <ele>2103.956</ele>
        <time>2022-07-11T09:48:31Z</time>
      </trkpt>
      <trkpt lat="46.436259" lon="9.988158">
        <ele>2103.974</ele>
        <time>2022-07-11T09:48:44Z</time>
      </trkpt>
      <trkpt lat="46.436273" lon="9.988100">
        <ele>2103.996</ele>
        <time>2022-07-11T09:48:45Z</time>
      </trkpt>
      <trkpt lat="46.436284" lon="9.988041">
        <ele>2103.932</ele>
        <time>2022-07-11T09:48:46Z</time>
      </trkpt>
      <trkpt lat="46.436340" lon="9.987741">
        <ele>2103.556</ele>
        <time>2022-07-11T09:48:51Z</time>
      </trkpt>
      <trkpt lat="46.436343" lon="9.987679">
        <ele>2103.527</ele>
        <time>2022-07-11T09:48:52Z</time>
      </trkpt>
      <trkpt lat="46.436351" lon="9.987401">
        <ele>2103.595</ele>
        <time>2022-07-11T09:48:59Z</time>
      </trkpt>
      <trkpt lat="46.436580" lon="9.987041">
        <ele>2103.519</ele>
        <time>2022-07-11T09:49:11Z</time>
      </trkpt>
      <trkpt lat="46.436606" lon="9.987008">
        <ele>2103.578</ele>
        <time>2022-07-11T09:49:12Z</time>
      </trkpt>
      <trkpt lat="46.436692" lon="9.986936">
        <ele>2104.933</ele>
        <time>2022-07-11T09:49:16Z</time>
      </trkpt>
      <trkpt lat="46.436708" lon="9.986924">
        <ele>2104.926</ele>
        <time>2022-07-11T09:49:17Z</time>
      </trkpt>
      <trkpt lat="46.436721" lon="9.986912">
        <ele>2105.409</ele>
        <time>2022-07-11T09:49:18Z</time>
      </trkpt>
      <trkpt lat="46.436733" lon="9.986900">
        <ele>2105.418</ele>
        <time>2022-07-11T09:49:19Z</time>
      </trkpt>
      <trkpt lat="46.436748" lon="9.986877">
        <ele>2105.937</ele>
        <time>2022-07-11T09:49:21Z</time>
      </trkpt>
      <trkpt lat="46.436756" lon="9.986865">
        <ele>2105.995</ele>
        <time>2022-07-11T09:49:22Z</time>
      </trkpt>
      <trkpt lat="46.436767" lon="9.986859">
        <ele>2106.327</ele>
        <time>2022-07-11T09:49:23Z</time>
      </trkpt>
      <trkpt lat="46.436782" lon="9.986853">
        <ele>2106.343</ele>
        <time>2022-07-11T09:49:24Z</time>
      </trkpt>
      <trkpt lat="46.436797" lon="9.986847">
        <ele>2106.817</ele>
        <time>2022-07-11T09:49:25Z</time>
      </trkpt>
      <trkpt lat="46.436820" lon="9.986842">
        <ele>2106.818</ele>
        <time>2022-07-11T09:49:26Z</time>
      </trkpt>
      <trkpt lat="46.436848" lon="9.986833">
        <ele>2106.826</ele>
        <time>2022-07-11T09:49:27Z</time>
      </trkpt>
      <trkpt lat="46.436877" lon="9.986822">
        <ele>2106.820</ele>
        <time>2022-07-11T09:49:28Z</time>
      </trkpt>
      <trkpt lat="46.436905" lon="9.986813">
        <ele>2106.847</ele>
        <time>2022-07-11T09:49:29Z</time>
      </trkpt>
      <trkpt lat="46.436929" lon="9.986803">
        <ele>2106.829</ele>
        <time>2022-07-11T09:49:30Z</time>
      </trkpt>
      <trkpt lat="46.437122" lon="9.986678">
        <ele>2104.921</ele>
        <time>2022-07-11T09:49:37Z</time>
      </trkpt>
      <trkpt lat="46.437379" lon="9.986438">
        <ele>2104.909</ele>
        <time>2022-07-11T09:49:47Z</time>
      </trkpt>
      <trkpt lat="46.437724" lon="9.986213">
        <ele>2107.325</ele>
        <time>2022-07-11T09:50:02Z</time>
      </trkpt>
      <trkpt lat="46.438009" lon="9.986143">
        <ele>2108.394</ele>
        <time>2022-07-11T09:50:15Z</time>
      </trkpt>
      <trkpt lat="46.438340" lon="9.986078">
        <ele>2106.892</ele>
        <time>2022-07-11T09:50:24Z</time>
      </trkpt>
      <trkpt lat="46.438679" lon="9.985850">
        <ele>2105.934</ele>
        <time>2022-07-11T09:50:35Z</time>
      </trkpt>
      <trkpt lat="46.438943" lon="9.985638">
        <ele>2107.810</ele>
        <time>2022-07-11T09:50:47Z</time>
      </trkpt>
      <trkpt lat="46.439311" lon="9.985341">
        <ele>2106.324</ele>
        <time>2022-07-11T09:51:00Z</time>
      </trkpt>
      <trkpt lat="46.439458" lon="9.985152">
        <ele>2106.865</ele>
        <time>2022-07-11T09:51:07Z</time>
      </trkpt>
      <trkpt lat="46.439666" lon="9.984792">
        <ele>2108.373</ele>
        <time>2022-07-11T09:51:21Z</time>
      </trkpt>
      <trkpt lat="46.439890" lon="9.984302">
        <ele>2108.737</ele>
        <time>2022-07-11T09:51:37Z</time>
      </trkpt>
      <trkpt lat="46.440029" lon="9.983903">
        <ele>2110.236</ele>
        <time>2022-07-11T09:51:53Z</time>
      </trkpt>
      <trkpt lat="46.440217" lon="9.983537">
        <ele>2110.717</ele>
        <time>2022-07-11T09:52:08Z</time>
      </trkpt>
      <trkpt lat="46.440379" lon="9.983338">
        <ele>2109.718</ele>
        <time>2022-07-11T09:52:17Z</time>
      </trkpt>
      <trkpt lat="46.440437" lon="9.983266">
        <ele>2109.209</ele>
        <time>2022-07-11T09:52:19Z</time>
      </trkpt>
      <trkpt lat="46.440465" lon="9.983221">
        <ele>2108.754</ele>
        <time>2022-07-11T09:52:20Z</time>
      </trkpt>
      <trkpt lat="46.440491" lon="9.983173">
        <ele>2107.873</ele>
        <time>2022-07-11T09:52:21Z</time>
      </trkpt>
      <trkpt lat="46.440703" lon="9.982688">
        <ele>2105.941</ele>
        <time>2022-07-11T09:52:32Z</time>
      </trkpt>
      <trkpt lat="46.440812" lon="9.982431">
        <ele>2103.923</ele>
        <time>2022-07-11T09:52:36Z</time>
      </trkpt>
      <trkpt lat="46.440852" lon="9.982336">
        <ele>2103.019</ele>
        <time>2022-07-11T09:52:38Z</time>
      </trkpt>
      <trkpt lat="46.440849" lon="9.982289">
        <ele>2103.013</ele>
        <time>2022-07-11T09:52:39Z</time>
      </trkpt>
      <trkpt lat="46.440837" lon="9.982246">
        <ele>2103.034</ele>
        <time>2022-07-11T09:52:40Z</time>
      </trkpt>
      <trkpt lat="46.440833" lon="9.982218">
        <ele>2103.032</ele>
        <time>2022-07-11T09:52:41Z</time>
      </trkpt>
      <trkpt lat="46.440845" lon="9.982195">
        <ele>2102.586</ele>
        <time>2022-07-11T09:52:42Z</time>
      </trkpt>
      <trkpt lat="46.440862" lon="9.982179">
        <ele>2102.566</ele>
        <time>2022-07-11T09:52:43Z</time>
      </trkpt>
      <trkpt lat="46.440886" lon="9.982165">
        <ele>2102.529</ele>
        <time>2022-07-11T09:52:44Z</time>
      </trkpt>
      <trkpt lat="46.441116" lon="9.981780">
        <ele>2100.621</ele>
        <time>2022-07-11T09:52:55Z</time>
      </trkpt>
      <trkpt lat="46.441227" lon="9.981523">
        <ele>2099.609</ele>
        <time>2022-07-11T09:52:59Z</time>
      </trkpt>
      <trkpt lat="46.441258" lon="9.981459">
        <ele>2098.767</ele>
        <time>2022-07-11T09:53:00Z</time>
      </trkpt>
      <trkpt lat="46.441486" lon="9.980904">
        <ele>2096.796</ele>
        <time>2022-07-11T09:53:08Z</time>
      </trkpt>
      <trkpt lat="46.441520" lon="9.980843">
        <ele>2096.244</ele>
        <time>2022-07-11T09:53:09Z</time>
      </trkpt>
      <trkpt lat="46.441553" lon="9.980780">
        <ele>2096.216</ele>
        <time>2022-07-11T09:53:10Z</time>
      </trkpt>
      <trkpt lat="46.441906" lon="9.979949">
        <ele>2092.412</ele>
        <time>2022-07-11T09:53:22Z</time>
      </trkpt>
      <trkpt lat="46.441981" lon="9.979794">
        <ele>2091.446</ele>
        <time>2022-07-11T09:53:24Z</time>
      </trkpt>
      <trkpt lat="46.442402" lon="9.978910">
        <ele>2089.077</ele>
        <time>2022-07-11T09:53:37Z</time>
      </trkpt>
      <trkpt lat="46.442484" lon="9.978794">
        <ele>2090.525</ele>
        <time>2022-07-11T09:53:41Z</time>
      </trkpt>
      <trkpt lat="46.442648" lon="9.978293">
        <ele>2090.539</ele>
        <time>2022-07-11T09:53:55Z</time>
      </trkpt>
      <trkpt lat="46.442735" lon="9.977895">
        <ele>2088.119</ele>
        <time>2022-07-11T09:54:02Z</time>
      </trkpt>
      <trkpt lat="46.442730" lon="9.977821">
        <ele>2086.609</ele>
        <time>2022-07-11T09:54:03Z</time>
      </trkpt>
      <trkpt lat="46.442729" lon="9.977732">
        <ele>2086.219</ele>
        <time>2022-07-11T09:54:04Z</time>
      </trkpt>
      <trkpt lat="46.442729" lon="9.977648">
        <ele>2086.209</ele>
        <time>2022-07-11T09:54:05Z</time>
      </trkpt>
      <trkpt lat="46.442729" lon="9.977413">
        <ele>2085.292</ele>
        <time>2022-07-11T09:54:08Z</time>
      </trkpt>
      <trkpt lat="46.442702" lon="9.977188">
        <ele>2084.791</ele>
        <time>2022-07-11T09:54:12Z</time>
      </trkpt>
      <trkpt lat="46.442687" lon="9.977059">
        <ele>2083.799</ele>
        <time>2022-07-11T09:54:14Z</time>
      </trkpt>
      <trkpt lat="46.442671" lon="9.976983">
        <ele>2082.831</ele>
        <time>2022-07-11T09:54:15Z</time>
      </trkpt>
      <trkpt lat="46.442652" lon="9.976904">
        <ele>2082.827</ele>
        <time>2022-07-11T09:54:16Z</time>
      </trkpt>
      <trkpt lat="46.442628" lon="9.976827">
        <ele>2082.331</ele>
        <time>2022-07-11T09:54:17Z</time>
      </trkpt>
      <trkpt lat="46.442604" lon="9.976760">
        <ele>2082.372</ele>
        <time>2022-07-11T09:54:18Z</time>
      </trkpt>
      <trkpt lat="46.442577" lon="9.976694">
        <ele>2082.340</ele>
        <time>2022-07-11T09:54:19Z</time>
      </trkpt>
      <trkpt lat="46.442555" lon="9.976623">
        <ele>2081.814</ele>
        <time>2022-07-11T09:54:20Z</time>
      </trkpt>
      <trkpt lat="46.442537" lon="9.976554">
        <ele>2081.322</ele>
        <time>2022-07-11T09:54:21Z</time>
      </trkpt>
      <trkpt lat="46.442521" lon="9.976478">
        <ele>2081.362</ele>
        <time>2022-07-11T09:54:22Z</time>
      </trkpt>
      <trkpt lat="46.442487" lon="9.976262">
        <ele>2081.308</ele>
        <time>2022-07-11T09:54:25Z</time>
      </trkpt>
      <trkpt lat="46.442481" lon="9.976115">
        <ele>2080.409</ele>
        <time>2022-07-11T09:54:27Z</time>
      </trkpt>
      <trkpt lat="46.442481" lon="9.975871">
        <ele>2080.413</ele>
        <time>2022-07-11T09:54:31Z</time>
      </trkpt>
      <trkpt lat="46.442496" lon="9.975803">
        <ele>2080.472</ele>
        <time>2022-07-11T09:54:32Z</time>
      </trkpt>
      <trkpt lat="46.442519" lon="9.975739">
        <ele>2079.920</ele>
        <time>2022-07-11T09:54:33Z</time>
      </trkpt>
      <trkpt lat="46.442539" lon="9.975692">
        <ele>2079.932</ele>
        <time>2022-07-11T09:54:34Z</time>
      </trkpt>
      <trkpt lat="46.442551" lon="9.975653">
        <ele>2079.918</ele>
        <time>2022-07-11T09:54:35Z</time>
      </trkpt>
      <trkpt lat="46.442557" lon="9.975615">
        <ele>2079.992</ele>
        <time>2022-07-11T09:54:36Z</time>
      </trkpt>
      <trkpt lat="46.442559" lon="9.975570">
        <ele>2079.983</ele>
        <time>2022-07-11T09:54:37Z</time>
      </trkpt>
      <trkpt lat="46.442560" lon="9.975523">
        <ele>2079.911</ele>
        <time>2022-07-11T09:54:38Z</time>
      </trkpt>
      <trkpt lat="46.442559" lon="9.975472">
        <ele>2079.935</ele>
        <time>2022-07-11T09:54:39Z</time>
      </trkpt>
      <trkpt lat="46.442556" lon="9.975363">
        <ele>2080.952</ele>
        <time>2022-07-11T09:54:42Z</time>
      </trkpt>
      <trkpt lat="46.442501" lon="9.975142">
        <ele>2081.353</ele>
        <time>2022-07-11T09:54:49Z</time>
      </trkpt>
      <trkpt lat="46.442505" lon="9.975108">
        <ele>2081.808</ele>
        <time>2022-07-11T09:54:50Z</time>
      </trkpt>
      <trkpt lat="46.442512" lon="9.975085">
        <ele>2082.309</ele>
        <time>2022-07-11T09:54:51Z</time>
      </trkpt>
      <trkpt lat="46.442521" lon="9.975071">
        <ele>2082.356</ele>
        <time>2022-07-11T09:54:52Z</time>
      </trkpt>
      <trkpt lat="46.442527" lon="9.975056">
        <ele>2082.385</ele>
        <time>2022-07-11T09:54:53Z</time>
      </trkpt>
      <trkpt lat="46.442531" lon="9.975042">
        <ele>2082.893</ele>
        <time>2022-07-11T09:54:54Z</time>
      </trkpt>
      <trkpt lat="46.442537" lon="9.975025">
        <ele>2082.875</ele>
        <time>2022-07-11T09:54:55Z</time>
      </trkpt>
      <trkpt lat="46.442545" lon="9.975001">
        <ele>2082.841</ele>
        <time>2022-07-11T09:54:56Z</time>
      </trkpt>
      <trkpt lat="46.442554" lon="9.974974">
        <ele>2082.895</ele>
        <time>2022-07-11T09:54:57Z</time>
      </trkpt>
      <trkpt lat="46.442566" lon="9.974949">
        <ele>2082.816</ele>
        <time>2022-07-11T09:54:58Z</time>
      </trkpt>
      <trkpt lat="46.442577" lon="9.974922">
        <ele>2083.334</ele>
        <time>2022-07-11T09:54:59Z</time>
      </trkpt>
      <trkpt lat="46.442589" lon="9.974889">
        <ele>2083.328</ele>
        <time>2022-07-11T09:55:00Z</time>
      </trkpt>
      <trkpt lat="46.442663" lon="9.974695">
        <ele>2081.834</ele>
        <time>2022-07-11T09:55:05Z</time>
      </trkpt>
      <trkpt lat="46.442783" lon="9.974421">
        <ele>2081.855</ele>
        <time>2022-07-11T09:55:13Z</time>
      </trkpt>
      <trkpt lat="46.442785" lon="9.974398">
        <ele>2083.310</ele>
        <time>2022-07-11T09:55:14Z</time>
      </trkpt>
      <trkpt lat="46.442788" lon="9.974381">
        <ele>2083.309</ele>
        <time>2022-07-11T09:55:15Z</time>
      </trkpt>
      <trkpt lat="46.442793" lon="9.974364">
        <ele>2083.764</ele>
        <time>2022-07-11T09:55:16Z</time>
      </trkpt>
      <trkpt lat="46.442799" lon="9.974341">
        <ele>2083.763</ele>
        <time>2022-07-11T09:55:17Z</time>
      </trkpt>
      <trkpt lat="46.442808" lon="9.974312">
        <ele>2083.731</ele>
        <time>2022-07-11T09:55:18Z</time>
      </trkpt>
      <trkpt lat="46.442847" lon="9.974147">
        <ele>2081.853</ele>
        <time>2022-07-11T09:55:22Z</time>
      </trkpt>
      <trkpt lat="46.442862" lon="9.974106">
        <ele>2080.929</ele>
        <time>2022-07-11T09:55:23Z</time>
      </trkpt>
      <trkpt lat="46.443085" lon="9.973552">
        <ele>2078.983</ele>
        <time>2022-07-11T09:55:35Z</time>
      </trkpt>
      <trkpt lat="46.443115" lon="9.973513">
        <ele>2078.994</ele>
        <time>2022-07-11T09:55:36Z</time>
      </trkpt>
      <trkpt lat="46.443251" lon="9.973350">
        <ele>2080.462</ele>
        <time>2022-07-11T09:55:43Z</time>
      </trkpt>
      <trkpt lat="46.443312" lon="9.973280">
        <ele>2080.476</ele>
        <time>2022-07-11T09:55:46Z</time>
      </trkpt>
      <trkpt lat="46.443339" lon="9.973271">
        <ele>2080.461</ele>
        <time>2022-07-11T09:55:47Z</time>
      </trkpt>
      <trkpt lat="46.443368" lon="9.973257">
        <ele>2080.421</ele>
        <time>2022-07-11T09:55:48Z</time>
      </trkpt>
      <trkpt lat="46.443396" lon="9.973236">
        <ele>2078.913</ele>
        <time>2022-07-11T09:55:49Z</time>
      </trkpt>
      <trkpt lat="46.443426" lon="9.973211">
        <ele>2078.909</ele>
        <time>2022-07-11T09:55:50Z</time>
      </trkpt>
      <trkpt lat="46.443685" lon="9.973032">
        <ele>2076.177</ele>
        <time>2022-07-11T09:55:59Z</time>
      </trkpt>
      <trkpt lat="46.443722" lon="9.973006">
        <ele>2076.166</ele>
        <time>2022-07-11T09:56:00Z</time>
      </trkpt>
      <trkpt lat="46.443907" lon="9.972884">
        <ele>2075.664</ele>
        <time>2022-07-11T09:56:08Z</time>
      </trkpt>
      <trkpt lat="46.444215" lon="9.972456">
        <ele>2074.146</ele>
        <time>2022-07-11T09:56:19Z</time>
      </trkpt>
      <trkpt lat="46.444351" lon="9.972213">
        <ele>2072.242</ele>
        <time>2022-07-11T09:56:23Z</time>
      </trkpt>
      <trkpt lat="46.444609" lon="9.971517">
        <ele>2070.346</ele>
        <time>2022-07-11T09:56:35Z</time>
      </trkpt>
      <trkpt lat="46.444664" lon="9.971106">
        <ele>2069.397</ele>
        <time>2022-07-11T09:56:44Z</time>
      </trkpt>
      <trkpt lat="46.444696" lon="9.970630">
        <ele>2068.825</ele>
        <time>2022-07-11T09:56:54Z</time>
      </trkpt>
      <trkpt lat="46.444750" lon="9.970006">
        <ele>2068.499</ele>
        <time>2022-07-11T09:57:08Z</time>
      </trkpt>
      <trkpt lat="46.444780" lon="9.969608">
        <ele>2067.942</ele>
        <time>2022-07-11T09:57:15Z</time>
      </trkpt>
      <trkpt lat="46.444783" lon="9.969430">
        <ele>2068.822</ele>
        <time>2022-07-11T09:57:19Z</time>
      </trkpt>
      <trkpt lat="46.444849" lon="9.968870">
        <ele>2066.414</ele>
        <time>2022-07-11T09:57:27Z</time>
      </trkpt>
      <trkpt lat="46.444849" lon="9.968803">
        <ele>2066.409</ele>
        <time>2022-07-11T09:57:28Z</time>
      </trkpt>
      <trkpt lat="46.444845" lon="9.968740">
        <ele>2066.415</ele>
        <time>2022-07-11T09:57:29Z</time>
      </trkpt>
      <trkpt lat="46.444839" lon="9.968683">
        <ele>2066.464</ele>
        <time>2022-07-11T09:57:30Z</time>
      </trkpt>
      <trkpt lat="46.444839" lon="9.968624">
        <ele>2066.472</ele>
        <time>2022-07-11T09:57:31Z</time>
      </trkpt>
      <trkpt lat="46.444844" lon="9.968575">
        <ele>2066.454</ele>
        <time>2022-07-11T09:57:32Z</time>
      </trkpt>
      <trkpt lat="46.444853" lon="9.968533">
        <ele>2066.430</ele>
        <time>2022-07-11T09:57:33Z</time>
      </trkpt>
      <trkpt lat="46.445058" lon="9.967804">
        <ele>2064.054</ele>
        <time>2022-07-11T09:57:47Z</time>
      </trkpt>
      <trkpt lat="46.445103" lon="9.967699">
        <ele>2063.655</ele>
        <time>2022-07-11T09:57:49Z</time>
      </trkpt>
      <trkpt lat="46.445128" lon="9.967644">
        <ele>2063.613</ele>
        <time>2022-07-11T09:57:50Z</time>
      </trkpt>
      <trkpt lat="46.445147" lon="9.967576">
        <ele>2063.167</ele>
        <time>2022-07-11T09:57:51Z</time>
      </trkpt>
      <trkpt lat="46.445161" lon="9.967510">
        <ele>2063.179</ele>
        <time>2022-07-11T09:57:52Z</time>
      </trkpt>
      <trkpt lat="46.445184" lon="9.967447">
        <ele>2062.605</ele>
        <time>2022-07-11T09:57:53Z</time>
      </trkpt>
      <trkpt lat="46.445210" lon="9.967385">
        <ele>2062.125</ele>
        <time>2022-07-11T09:57:54Z</time>
      </trkpt>
      <trkpt lat="46.445239" lon="9.967323">
        <ele>2061.209</ele>
        <time>2022-07-11T09:57:55Z</time>
      </trkpt>
      <trkpt lat="46.445278" lon="9.967268">
        <ele>2061.298</ele>
        <time>2022-07-11T09:57:56Z</time>
      </trkpt>
      <trkpt lat="46.445318" lon="9.967228">
        <ele>2060.257</ele>
        <time>2022-07-11T09:57:57Z</time>
      </trkpt>
      <trkpt lat="46.445501" lon="9.967026">
        <ele>2059.735</ele>
        <time>2022-07-11T09:58:02Z</time>
      </trkpt>
      <trkpt lat="46.445581" lon="9.966868">
        <ele>2058.877</ele>
        <time>2022-07-11T09:58:05Z</time>
      </trkpt>
      <trkpt lat="46.445604" lon="9.966794">
        <ele>2058.823</ele>
        <time>2022-07-11T09:58:06Z</time>
      </trkpt>
      <trkpt lat="46.445734" lon="9.966352">
        <ele>2057.317</ele>
        <time>2022-07-11T09:58:13Z</time>
      </trkpt>
      <trkpt lat="46.445872" lon="9.965780">
        <ele>2056.498</ele>
        <time>2022-07-11T09:58:24Z</time>
      </trkpt>
      <trkpt lat="46.445952" lon="9.965403">
        <ele>2055.456</ele>
        <time>2022-07-11T09:58:30Z</time>
      </trkpt>
      <trkpt lat="46.446144" lon="9.964861">
        <ele>2054.470</ele>
        <time>2022-07-11T09:58:39Z</time>
      </trkpt>
      <trkpt lat="46.446360" lon="9.964005">
        <ele>2053.523</ele>
        <time>2022-07-11T09:58:54Z</time>
      </trkpt>
      <trkpt lat="46.446401" lon="9.963863">
        <ele>2053.583</ele>
        <time>2022-07-11T09:58:57Z</time>
      </trkpt>
      <trkpt lat="46.446402" lon="9.963803">
        <ele>2053.511</ele>
        <time>2022-07-11T09:58:58Z</time>
      </trkpt>
      <trkpt lat="46.446404" lon="9.963737">
        <ele>2052.509</ele>
        <time>2022-07-11T09:58:59Z</time>
      </trkpt>
      <trkpt lat="46.446413" lon="9.963668">
        <ele>2052.523</ele>
        <time>2022-07-11T09:59:00Z</time>
      </trkpt>
      <trkpt lat="46.446427" lon="9.963614">
        <ele>2052.562</ele>
        <time>2022-07-11T09:59:01Z</time>
      </trkpt>
      <trkpt lat="46.446443" lon="9.963574">
        <ele>2052.560</ele>
        <time>2022-07-11T09:59:02Z</time>
      </trkpt>
      <trkpt lat="46.446457" lon="9.963544">
        <ele>2052.582</ele>
        <time>2022-07-11T09:59:03Z</time>
      </trkpt>
      <trkpt lat="46.446487" lon="9.963476">
        <ele>2053.958</ele>
        <time>2022-07-11T09:59:05Z</time>
      </trkpt>
      <trkpt lat="46.446578" lon="9.963269">
        <ele>2053.082</ele>
        <time>2022-07-11T09:59:09Z</time>
      </trkpt>
      <trkpt lat="46.446612" lon="9.963210">
        <ele>2053.053</ele>
        <time>2022-07-11T09:59:10Z</time>
      </trkpt>
      <trkpt lat="46.446683" lon="9.963104">
        <ele>2052.581</ele>
        <time>2022-07-11T09:59:12Z</time>
      </trkpt>
      <trkpt lat="46.446711" lon="9.963047">
        <ele>2051.595</ele>
        <time>2022-07-11T09:59:13Z</time>
      </trkpt>
      <trkpt lat="46.446731" lon="9.962988">
        <ele>2051.512</ele>
        <time>2022-07-11T09:59:14Z</time>
      </trkpt>
      <trkpt lat="46.446906" lon="9.962639">
        <ele>2051.532</ele>
        <time>2022-07-11T09:59:22Z</time>
      </trkpt>
      <trkpt lat="46.446917" lon="9.962580">
        <ele>2051.505</ele>
        <time>2022-07-11T09:59:23Z</time>
      </trkpt>
      <trkpt lat="46.446933" lon="9.962520">
        <ele>2051.509</ele>
        <time>2022-07-11T09:59:24Z</time>
      </trkpt>
      <trkpt lat="46.447179" lon="9.961787">
        <ele>2051.132</ele>
        <time>2022-07-11T09:59:36Z</time>
      </trkpt>
      <trkpt lat="46.447207" lon="9.961734">
        <ele>2051.131</ele>
        <time>2022-07-11T09:59:37Z</time>
      </trkpt>
      <trkpt lat="46.447268" lon="9.961632">
        <ele>2051.169</ele>
        <time>2022-07-11T09:59:39Z</time>
      </trkpt>
      <trkpt lat="46.447289" lon="9.961571">
        <ele>2050.681</ele>
        <time>2022-07-11T09:59:40Z</time>
      </trkpt>
      <trkpt lat="46.447302" lon="9.961500">
        <ele>2050.697</ele>
        <time>2022-07-11T09:59:41Z</time>
      </trkpt>
      <trkpt lat="46.447301" lon="9.961430">
        <ele>2050.611</ele>
        <time>2022-07-11T09:59:42Z</time>
      </trkpt>
      <trkpt lat="46.447294" lon="9.961362">
        <ele>2050.142</ele>
        <time>2022-07-11T09:59:43Z</time>
      </trkpt>
      <trkpt lat="46.447288" lon="9.961297">
        <ele>2049.610</ele>
        <time>2022-07-11T09:59:44Z</time>
      </trkpt>
      <trkpt lat="46.447287" lon="9.961239">
        <ele>2049.644</ele>
        <time>2022-07-11T09:59:45Z</time>
      </trkpt>
      <trkpt lat="46.447290" lon="9.960982">
        <ele>2050.613</ele>
        <time>2022-07-11T09:59:49Z</time>
      </trkpt>
      <trkpt lat="46.447309" lon="9.960924">
        <ele>2050.643</ele>
        <time>2022-07-11T09:59:50Z</time>
      </trkpt>
      <trkpt lat="46.447336" lon="9.960878">
        <ele>2050.607</ele>
        <time>2022-07-11T09:59:51Z</time>
      </trkpt>
      <trkpt lat="46.447367" lon="9.960830">
        <ele>2050.609</ele>
        <time>2022-07-11T09:59:52Z</time>
      </trkpt>
      <trkpt lat="46.447400" lon="9.960784">
        <ele>2050.662</ele>
        <time>2022-07-11T09:59:53Z</time>
      </trkpt>
      <trkpt lat="46.447574" lon="9.960499">
        <ele>2052.081</ele>
        <time>2022-07-11T10:00:02Z</time>
      </trkpt>
      <trkpt lat="46.447578" lon="9.960478">
        <ele>2052.049</ele>
        <time>2022-07-11T10:00:03Z</time>
      </trkpt>
      <trkpt lat="46.447632" lon="9.959981">
        <ele>2052.041</ele>
        <time>2022-07-11T10:00:17Z</time>
      </trkpt>
      <trkpt lat="46.447720" lon="9.959610">
        <ele>2053.017</ele>
        <time>2022-07-11T10:00:29Z</time>
      </trkpt>
      <trkpt lat="46.447707" lon="9.959244">
        <ele>2049.671</ele>
        <time>2022-07-11T10:00:38Z</time>
      </trkpt>
      <trkpt lat="46.447681" lon="9.958879">
        <ele>2047.782</ele>
        <time>2022-07-11T10:00:42Z</time>
      </trkpt>
      <trkpt lat="46.447691" lon="9.958810">
        <ele>2047.750</ele>
        <time>2022-07-11T10:00:43Z</time>
      </trkpt>
      <trkpt lat="46.447707" lon="9.958747">
        <ele>2047.764</ele>
        <time>2022-07-11T10:00:44Z</time>
      </trkpt>
      <trkpt lat="46.447720" lon="9.958687">
        <ele>2047.762</ele>
        <time>2022-07-11T10:00:45Z</time>
      </trkpt>
      <trkpt lat="46.447734" lon="9.958621">
        <ele>2047.783</ele>
        <time>2022-07-11T10:00:46Z</time>
      </trkpt>
      <trkpt lat="46.447752" lon="9.958548">
        <ele>2047.711</ele>
        <time>2022-07-11T10:00:47Z</time>
      </trkpt>
      <trkpt lat="46.447775" lon="9.958479">
        <ele>2047.209</ele>
        <time>2022-07-11T10:00:48Z</time>
      </trkpt>
      <trkpt lat="46.447797" lon="9.958422">
        <ele>2047.277</ele>
        <time>2022-07-11T10:00:49Z</time>
      </trkpt>
      <trkpt lat="46.447854" lon="9.958268">
        <ele>2047.276</ele>
        <time>2022-07-11T10:00:52Z</time>
      </trkpt>
      <trkpt lat="46.447881" lon="9.958212">
        <ele>2046.774</ele>
        <time>2022-07-11T10:00:53Z</time>
      </trkpt>
      <trkpt lat="46.447907" lon="9.958148">
        <ele>2046.756</ele>
        <time>2022-07-11T10:00:54Z</time>
      </trkpt>
      <trkpt lat="46.447932" lon="9.958076">
        <ele>2045.362</ele>
        <time>2022-07-11T10:00:55Z</time>
      </trkpt>
      <trkpt lat="46.447954" lon="9.957991">
        <ele>2044.826</ele>
        <time>2022-07-11T10:00:56Z</time>
      </trkpt>
      <trkpt lat="46.447970" lon="9.957898">
        <ele>2044.857</ele>
        <time>2022-07-11T10:00:57Z</time>
      </trkpt>
      <trkpt lat="46.447986" lon="9.957817">
        <ele>2044.845</ele>
        <time>2022-07-11T10:00:58Z</time>
      </trkpt>
      <trkpt lat="46.448010" lon="9.957745">
        <ele>2044.859</ele>
        <time>2022-07-11T10:00:59Z</time>
      </trkpt>
      <trkpt lat="46.448039" lon="9.957680">
        <ele>2044.886</ele>
        <time>2022-07-11T10:01:00Z</time>
      </trkpt>
      <trkpt lat="46.448067" lon="9.957603">
        <ele>2044.360</ele>
        <time>2022-07-11T10:01:01Z</time>
      </trkpt>
      <trkpt lat="46.448085" lon="9.957535">
        <ele>2044.326</ele>
        <time>2022-07-11T10:01:02Z</time>
      </trkpt>
      <trkpt lat="46.448135" lon="9.957342">
        <ele>2044.309</ele>
        <time>2022-07-11T10:01:05Z</time>
      </trkpt>
      <trkpt lat="46.448159" lon="9.957283">
        <ele>2043.919</ele>
        <time>2022-07-11T10:01:06Z</time>
      </trkpt>
      <trkpt lat="46.448185" lon="9.957234">
        <ele>2043.948</ele>
        <time>2022-07-11T10:01:07Z</time>
      </trkpt>
      <trkpt lat="46.448215" lon="9.957184">
        <ele>2043.926</ele>
        <time>2022-07-11T10:01:08Z</time>
      </trkpt>
      <trkpt lat="46.448250" lon="9.957136">
        <ele>2043.988</ele>
        <time>2022-07-11T10:01:09Z</time>
      </trkpt>
      <trkpt lat="46.448357" lon="9.957003">
        <ele>2043.494</ele>
        <time>2022-07-11T10:01:12Z</time>
      </trkpt>
      <trkpt lat="46.448388" lon="9.956954">
        <ele>2042.498</ele>
        <time>2022-07-11T10:01:13Z</time>
      </trkpt>
      <trkpt lat="46.448411" lon="9.956903">
        <ele>2042.459</ele>
        <time>2022-07-11T10:01:14Z</time>
      </trkpt>
      <trkpt lat="46.448459" lon="9.956747">
        <ele>2043.937</ele>
        <time>2022-07-11T10:01:18Z</time>
      </trkpt>
      <trkpt lat="46.448595" lon="9.956250">
        <ele>2044.861</ele>
        <time>2022-07-11T10:01:30Z</time>
      </trkpt>
      <trkpt lat="46.448625" lon="9.956203">
        <ele>2044.844</ele>
        <time>2022-07-11T10:01:31Z</time>
      </trkpt>
      <trkpt lat="46.448700" lon="9.956073">
        <ele>2044.805</ele>
        <time>2022-07-11T10:01:34Z</time>
      </trkpt>
      <trkpt lat="46.448739" lon="9.955963">
        <ele>2043.415</ele>
        <time>2022-07-11T10:01:36Z</time>
      </trkpt>
      <trkpt lat="46.449038" lon="9.955320">
        <ele>2041.509</ele>
        <time>2022-07-11T10:01:49Z</time>
      </trkpt>
      <trkpt lat="46.449434" lon="9.954497">
        <ele>2041.095</ele>
        <time>2022-07-11T10:02:06Z</time>
      </trkpt>
      <trkpt lat="46.449914" lon="9.953696">
        <ele>2039.554</ele>
        <time>2022-07-11T10:02:23Z</time>
      </trkpt>
      <trkpt lat="46.449950" lon="9.953662">
        <ele>2039.552</ele>
        <time>2022-07-11T10:02:24Z</time>
      </trkpt>
      <trkpt lat="46.450604" lon="9.953086">
        <ele>2037.654</ele>
        <time>2022-07-11T10:02:41Z</time>
      </trkpt>
      <trkpt lat="46.451137" lon="9.952585">
        <ele>2037.180</ele>
        <time>2022-07-11T10:02:54Z</time>
      </trkpt>
      <trkpt lat="46.451167" lon="9.952527">
        <ele>2037.114</ele>
        <time>2022-07-11T10:02:55Z</time>
      </trkpt>
      <trkpt lat="46.451195" lon="9.952475">
        <ele>2037.185</ele>
        <time>2022-07-11T10:02:56Z</time>
      </trkpt>
      <trkpt lat="46.451220" lon="9.952449">
        <ele>2037.153</ele>
        <time>2022-07-11T10:02:57Z</time>
      </trkpt>
      <trkpt lat="46.451236" lon="9.952444">
        <ele>2037.167</ele>
        <time>2022-07-11T10:02:58Z</time>
      </trkpt>
      <trkpt lat="46.451248" lon="9.952439">
        <ele>2037.138</ele>
        <time>2022-07-11T10:02:59Z</time>
      </trkpt>
      <trkpt lat="46.451253" lon="9.952430">
        <ele>2038.670</ele>
        <time>2022-07-11T10:03:02Z</time>
      </trkpt>
      <trkpt lat="46.451277" lon="9.952427">
        <ele>2039.017</ele>
        <time>2022-07-11T10:03:15Z</time>
      </trkpt>
      <trkpt lat="46.451286" lon="9.952425">
        <ele>2039.009</ele>
        <time>2022-07-11T10:03:16Z</time>
      </trkpt>
      <trkpt lat="46.451376" lon="9.952411">
        <ele>2040.534</ele>
        <time>2022-07-11T10:03:31Z</time>
      </trkpt>
      <trkpt lat="46.451458" lon="9.952366">
        <ele>2042.923</ele>
        <time>2022-07-11T10:03:47Z</time>
      </trkpt>
      <trkpt lat="46.451520" lon="9.952283">
        <ele>2043.931</ele>
        <time>2022-07-11T10:03:59Z</time>
      </trkpt>
      <trkpt lat="46.451528" lon="9.952276">
        <ele>2043.943</ele>
        <time>2022-07-11T10:04:00Z</time>
      </trkpt>
      <trkpt lat="46.451537" lon="9.952271">
        <ele>2043.969</ele>
        <time>2022-07-11T10:04:01Z</time>
      </trkpt>
      <trkpt lat="46.451549" lon="9.952264">
        <ele>2043.953</ele>
        <time>2022-07-11T10:04:02Z</time>
      </trkpt>
      <trkpt lat="46.451600" lon="9.952237">
        <ele>2043.974</ele>
        <time>2022-07-11T10:04:17Z</time>
      </trkpt>
      <trkpt lat="46.451594" lon="9.952220">
        <ele>2043.952</ele>
        <time>2022-07-11T10:04:33Z</time>
      </trkpt>
      <trkpt lat="46.451615" lon="9.952236">
        <ele>2043.986</ele>
        <time>2022-07-11T10:04:54Z</time>
      </trkpt>
      <trkpt lat="46.451619" lon="9.952225">
        <ele>2043.928</ele>
        <time>2022-07-11T10:05:12Z</time>
      </trkpt>
      <trkpt lat="46.451620" lon="9.952220">
        <ele>2044.389</ele>
        <time>2022-07-11T10:05:44Z</time>
      </trkpt>
      <trkpt lat="46.451631" lon="9.952244">
        <ele>2044.317</ele>
        <time>2022-07-11T10:06:09Z</time>
      </trkpt>
      <trkpt lat="46.451633" lon="9.952234">
        <ele>2044.309</ele>
        <time>2022-07-11T10:06:31Z</time>
      </trkpt>
      <trkpt lat="46.451647" lon="9.952201">
        <ele>2044.373</ele>
        <time>2022-07-11T10:06:37Z</time>
      </trkpt>
      <trkpt lat="46.451652" lon="9.952176">
        <ele>2044.322</ele>
        <time>2022-07-11T10:06:38Z</time>
      </trkpt>
      <trkpt lat="46.451655" lon="9.952141">
        <ele>2044.380</ele>
        <time>2022-07-11T10:06:39Z</time>
      </trkpt>
      <trkpt lat="46.451656" lon="9.952098">
        <ele>2044.382</ele>
        <time>2022-07-11T10:06:40Z</time>
      </trkpt>
      <trkpt lat="46.451656" lon="9.952055">
        <ele>2042.918</ele>
        <time>2022-07-11T10:06:41Z</time>
      </trkpt>
      <trkpt lat="46.451660" lon="9.952011">
        <ele>2042.952</ele>
        <time>2022-07-11T10:06:42Z</time>
      </trkpt>
      <trkpt lat="46.451675" lon="9.951890">
        <ele>2044.343</ele>
        <time>2022-07-11T10:06:46Z</time>
      </trkpt>
      <trkpt lat="46.451686" lon="9.951863">
        <ele>2044.311</ele>
        <time>2022-07-11T10:06:47Z</time>
      </trkpt>
      <trkpt lat="46.451778" lon="9.951703">
        <ele>2047.795</ele>
        <time>2022-07-11T10:06:58Z</time>
      </trkpt>
      <trkpt lat="46.451805" lon="9.951648">
        <ele>2047.775</ele>
        <time>2022-07-11T10:07:02Z</time>
      </trkpt>
      <trkpt lat="46.451806" lon="9.951627">
        <ele>2047.728</ele>
        <time>2022-07-11T10:07:03Z</time>
      </trkpt>
      <trkpt lat="46.451802" lon="9.951605">
        <ele>2047.720</ele>
        <time>2022-07-11T10:07:04Z</time>
      </trkpt>
      <trkpt lat="46.451793" lon="9.951586">
        <ele>2047.709</ele>
        <time>2022-07-11T10:07:05Z</time>
      </trkpt>
      <trkpt lat="46.451780" lon="9.951565">
        <ele>2047.718</ele>
        <time>2022-07-11T10:07:06Z</time>
      </trkpt>
      <trkpt lat="46.451755" lon="9.951472">
        <ele>2048.257</ele>
        <time>2022-07-11T10:07:11Z</time>
      </trkpt>
      <trkpt lat="46.451747" lon="9.951358">
        <ele>2049.615</ele>
        <time>2022-07-11T10:07:17Z</time>
      </trkpt>
      <trkpt lat="46.451747" lon="9.951333">
        <ele>2050.197</ele>
        <time>2022-07-11T10:07:18Z</time>
      </trkpt>
      <trkpt lat="46.451753" lon="9.951315">
        <ele>2050.123</ele>
        <time>2022-07-11T10:07:19Z</time>
      </trkpt>
      <trkpt lat="46.451761" lon="9.951299">
        <ele>2050.127</ele>
        <time>2022-07-11T10:07:20Z</time>
      </trkpt>
      <trkpt lat="46.451785" lon="9.951236">
        <ele>2050.668</ele>
        <time>2022-07-11T10:07:24Z</time>
      </trkpt>
      <trkpt lat="46.451842" lon="9.950971">
        <ele>2049.676</ele>
        <time>2022-07-11T10:07:36Z</time>
      </trkpt>
      <trkpt lat="46.451884" lon="9.950747">
        <ele>2046.370</ele>
        <time>2022-07-11T10:07:44Z</time>
      </trkpt>
      <trkpt lat="46.451878" lon="9.950728">
        <ele>2046.369</ele>
        <time>2022-07-11T10:07:45Z</time>
      </trkpt>
      <trkpt lat="46.451872" lon="9.950708">
        <ele>2045.804</ele>
        <time>2022-07-11T10:07:46Z</time>
      </trkpt>
      <trkpt lat="46.451856" lon="9.950308">
        <ele>2043.424</ele>
        <time>2022-07-11T10:07:56Z</time>
      </trkpt>
      <trkpt lat="46.451824" lon="9.950127">
        <ele>2043.409</ele>
        <time>2022-07-11T10:08:01Z</time>
      </trkpt>
      <trkpt lat="46.451801" lon="9.950120">
        <ele>2042.937</ele>
        <time>2022-07-11T10:08:02Z</time>
      </trkpt>
      <trkpt lat="46.451780" lon="9.950126">
        <ele>2042.986</ele>
        <time>2022-07-11T10:08:03Z</time>
      </trkpt>
      <trkpt lat="46.451759" lon="9.950133">
        <ele>2042.934</ele>
        <time>2022-07-11T10:08:04Z</time>
      </trkpt>
      <trkpt lat="46.451743" lon="9.950132">
        <ele>2042.976</ele>
        <time>2022-07-11T10:08:05Z</time>
      </trkpt>
      <trkpt lat="46.451727" lon="9.950127">
        <ele>2042.982</ele>
        <time>2022-07-11T10:08:06Z</time>
      </trkpt>
      <trkpt lat="46.451700" lon="9.950115">
        <ele>2042.426</ele>
        <time>2022-07-11T10:08:12Z</time>
      </trkpt>
      <trkpt lat="46.451677" lon="9.950103">
        <ele>2041.947</ele>
        <time>2022-07-11T10:08:13Z</time>
      </trkpt>
      <trkpt lat="46.451557" lon="9.950026">
        <ele>2041.085</ele>
        <time>2022-07-11T10:08:18Z</time>
      </trkpt>
      <trkpt lat="46.451541" lon="9.950026">
        <ele>2041.029</ele>
        <time>2022-07-11T10:08:19Z</time>
      </trkpt>
      <trkpt lat="46.451520" lon="9.950029">
        <ele>2041.091</ele>
        <time>2022-07-11T10:08:20Z</time>
      </trkpt>
      <trkpt lat="46.451497" lon="9.950035">
        <ele>2041.081</ele>
        <time>2022-07-11T10:08:21Z</time>
      </trkpt>
      <trkpt lat="46.451475" lon="9.950041">
        <ele>2041.019</ele>
        <time>2022-07-11T10:08:22Z</time>
      </trkpt>
      <trkpt lat="46.451459" lon="9.950049">
        <ele>2041.009</ele>
        <time>2022-07-11T10:08:23Z</time>
      </trkpt>
      <trkpt lat="46.451447" lon="9.950061">
        <ele>2041.020</ele>
        <time>2022-07-11T10:08:24Z</time>
      </trkpt>
      <trkpt lat="46.451439" lon="9.950074">
        <ele>2041.049</ele>
        <time>2022-07-11T10:08:25Z</time>
      </trkpt>
      <trkpt lat="46.451429" lon="9.950083">
        <ele>2041.917</ele>
        <time>2022-07-11T10:08:40Z</time>
      </trkpt>
      <trkpt lat="46.451430" lon="9.950077">
        <ele>2041.919</ele>
        <time>2022-07-11T10:08:53Z</time>
      </trkpt>
      <trkpt lat="46.451325" lon="9.950111">
        <ele>2042.995</ele>
        <time>2022-07-11T10:09:05Z</time>
      </trkpt>
      <trkpt lat="46.451309" lon="9.950109">
        <ele>2043.449</ele>
        <time>2022-07-11T10:09:06Z</time>
      </trkpt>
      <trkpt lat="46.451226" lon="9.950097">
        <ele>2043.920</ele>
        <time>2022-07-11T10:09:18Z</time>
      </trkpt>
      <trkpt lat="46.451219" lon="9.950079">
        <ele>2043.948</ele>
        <time>2022-07-11T10:09:19Z</time>
      </trkpt>
      <trkpt lat="46.451211" lon="9.950059">
        <ele>2043.972</ele>
        <time>2022-07-11T10:09:20Z</time>
      </trkpt>
      <trkpt lat="46.451200" lon="9.950044">
        <ele>2043.955</ele>
        <time>2022-07-11T10:09:21Z</time>
      </trkpt>
      <trkpt lat="46.451186" lon="9.950026">
        <ele>2042.907</ele>
        <time>2022-07-11T10:09:22Z</time>
      </trkpt>
      <trkpt lat="46.451174" lon="9.950008">
        <ele>2042.417</ele>
        <time>2022-07-11T10:09:23Z</time>
      </trkpt>
      <trkpt lat="46.451163" lon="9.949993">
        <ele>2042.409</ele>
        <time>2022-07-11T10:09:24Z</time>
      </trkpt>
      <trkpt lat="46.451091" lon="9.949863">
        <ele>2041.016</ele>
        <time>2022-07-11T10:09:35Z</time>
      </trkpt>
      <trkpt lat="46.451027" lon="9.949747">
        <ele>2040.015</ele>
        <time>2022-07-11T10:09:41Z</time>
      </trkpt>
      <trkpt lat="46.451013" lon="9.949724">
        <ele>2040.053</ele>
        <time>2022-07-11T10:09:42Z</time>
      </trkpt>
      <trkpt lat="46.450810" lon="9.949578">
        <ele>2037.175</ele>
        <time>2022-07-11T10:09:53Z</time>
      </trkpt>
      <trkpt lat="46.450672" lon="9.949240">
        <ele>2034.221</ele>
        <time>2022-07-11T10:10:02Z</time>
      </trkpt>
      <trkpt lat="46.450566" lon="9.948904">
        <ele>2033.815</ele>
        <time>2022-07-11T10:10:09Z</time>
      </trkpt>
      <trkpt lat="46.450543" lon="9.948846">
        <ele>2032.846</ele>
        <time>2022-07-11T10:10:10Z</time>
      </trkpt>
      <trkpt lat="46.450413" lon="9.948517">
        <ele>2031.464</ele>
        <time>2022-07-11T10:10:18Z</time>
      </trkpt>
      <trkpt lat="46.450323" lon="9.948162">
        <ele>2029.418</ele>
        <time>2022-07-11T10:10:27Z</time>
      </trkpt>
      <trkpt lat="46.450314" lon="9.948118">
        <ele>2029.035</ele>
        <time>2022-07-11T10:10:28Z</time>
      </trkpt>
      <trkpt lat="46.450302" lon="9.948082">
        <ele>2028.586</ele>
        <time>2022-07-11T10:10:29Z</time>
      </trkpt>
      <trkpt lat="46.450309" lon="9.948046">
        <ele>2028.514</ele>
        <time>2022-07-11T10:10:30Z</time>
      </trkpt>
      <trkpt lat="46.450330" lon="9.948026">
        <ele>2028.009</ele>
        <time>2022-07-11T10:10:31Z</time>
      </trkpt>
      <trkpt lat="46.450359" lon="9.948024">
        <ele>2027.064</ele>
        <time>2022-07-11T10:10:32Z</time>
      </trkpt>
      <trkpt lat="46.450391" lon="9.948016">
        <ele>2027.013</ele>
        <time>2022-07-11T10:10:33Z</time>
      </trkpt>
      <trkpt lat="46.450424" lon="9.947984">
        <ele>2026.131</ele>
        <time>2022-07-11T10:10:34Z</time>
      </trkpt>
      <trkpt lat="46.450443" lon="9.947943">
        <ele>2026.173</ele>
        <time>2022-07-11T10:10:35Z</time>
      </trkpt>
      <trkpt lat="46.450453" lon="9.947907">
        <ele>2026.139</ele>
        <time>2022-07-11T10:10:36Z</time>
      </trkpt>
      <trkpt lat="46.450471" lon="9.947876">
        <ele>2026.163</ele>
        <time>2022-07-11T10:10:37Z</time>
      </trkpt>
      <trkpt lat="46.450499" lon="9.947853">
        <ele>2025.634</ele>
        <time>2022-07-11T10:10:38Z</time>
      </trkpt>
      <trkpt lat="46.450522" lon="9.947825">
        <ele>2024.622</ele>
        <time>2022-07-11T10:10:39Z</time>
      </trkpt>
      <trkpt lat="46.450530" lon="9.947778">
        <ele>2024.146</ele>
        <time>2022-07-11T10:10:40Z</time>
      </trkpt>
      <trkpt lat="46.450529" lon="9.947732">
        <ele>2024.155</ele>
        <time>2022-07-11T10:10:41Z</time>
      </trkpt>
      <trkpt lat="46.450531" lon="9.947692">
        <ele>2023.707</ele>
        <time>2022-07-11T10:10:42Z</time>
      </trkpt>
      <trkpt lat="46.450543" lon="9.947667">
        <ele>2023.717</ele>
        <time>2022-07-11T10:10:43Z</time>
      </trkpt>
      <trkpt lat="46.450571" lon="9.947668">
        <ele>2023.209</ele>
        <time>2022-07-11T10:10:44Z</time>
      </trkpt>
      <trkpt lat="46.450599" lon="9.947689">
        <ele>2022.746</ele>
        <time>2022-07-11T10:10:45Z</time>
      </trkpt>
      <trkpt lat="46.450628" lon="9.947699">
        <ele>2022.765</ele>
        <time>2022-07-11T10:10:46Z</time>
      </trkpt>
      <trkpt lat="46.450648" lon="9.947685">
        <ele>2022.733</ele>
        <time>2022-07-11T10:10:47Z</time>
      </trkpt>
      <trkpt lat="46.450651" lon="9.947654">
        <ele>2022.765</ele>
        <time>2022-07-11T10:10:48Z</time>
      </trkpt>
      <trkpt lat="46.450640" lon="9.947628">
        <ele>2022.751</ele>
        <time>2022-07-11T10:10:49Z</time>
      </trkpt>
      <trkpt lat="46.450629" lon="9.947598">
        <ele>2022.735</ele>
        <time>2022-07-11T10:10:50Z</time>
      </trkpt>
      <trkpt lat="46.450615" lon="9.947559">
        <ele>2022.226</ele>
        <time>2022-07-11T10:10:51Z</time>
      </trkpt>
      <trkpt lat="46.450598" lon="9.947517">
        <ele>2021.774</ele>
        <time>2022-07-11T10:10:52Z</time>
      </trkpt>
      <trkpt lat="46.450600" lon="9.947481">
        <ele>2021.748</ele>
        <time>2022-07-11T10:10:53Z</time>
      </trkpt>
      <trkpt lat="46.450614" lon="9.947482">
        <ele>2021.729</ele>
        <time>2022-07-11T10:10:54Z</time>
      </trkpt>
      <trkpt lat="46.450632" lon="9.947501">
        <ele>2021.700</ele>
        <time>2022-07-11T10:10:55Z</time>
      </trkpt>
      <trkpt lat="46.450650" lon="9.947520">
        <ele>2021.320</ele>
        <time>2022-07-11T10:10:56Z</time>
      </trkpt>
      <trkpt lat="46.450673" lon="9.947527">
        <ele>2021.309</ele>
        <time>2022-07-11T10:10:57Z</time>
      </trkpt>
      <trkpt lat="46.450695" lon="9.947509">
        <ele>2020.363</ele>
        <time>2022-07-11T10:10:58Z</time>
      </trkpt>
      <trkpt lat="46.450705" lon="9.947484">
        <ele>2020.332</ele>
        <time>2022-07-11T10:10:59Z</time>
      </trkpt>
      <trkpt lat="46.450715" lon="9.947456">
        <ele>2020.350</ele>
        <time>2022-07-11T10:11:00Z</time>
      </trkpt>
      <trkpt lat="46.450733" lon="9.947424">
        <ele>2020.332</ele>
        <time>2022-07-11T10:11:01Z</time>
      </trkpt>
      <trkpt lat="46.450754" lon="9.947386">
        <ele>2019.338</ele>
        <time>2022-07-11T10:11:02Z</time>
      </trkpt>
      <trkpt lat="46.450772" lon="9.947338">
        <ele>2018.462</ele>
        <time>2022-07-11T10:11:03Z</time>
      </trkpt>
      <trkpt lat="46.450788" lon="9.947296">
        <ele>2018.453</ele>
        <time>2022-07-11T10:11:04Z</time>
      </trkpt>
      <trkpt lat="46.450808" lon="9.947251">
        <ele>2017.911</ele>
        <time>2022-07-11T10:11:05Z</time>
      </trkpt>
      <trkpt lat="46.450824" lon="9.947210">
        <ele>2016.925</ele>
        <time>2022-07-11T10:11:06Z</time>
      </trkpt>
      <trkpt lat="46.451002" lon="9.947105">
        <ele>2014.543</ele>
        <time>2022-07-11T10:11:12Z</time>
      </trkpt>
      <trkpt lat="46.451028" lon="9.947117">
        <ele>2014.164</ele>
        <time>2022-07-11T10:11:13Z</time>
      </trkpt>
      <trkpt lat="46.451058" lon="9.947137">
        <ele>2013.110</ele>
        <time>2022-07-11T10:11:14Z</time>
      </trkpt>
      <trkpt lat="46.451094" lon="9.947140">
        <ele>2012.609</ele>
        <time>2022-07-11T10:11:15Z</time>
      </trkpt>
      <trkpt lat="46.451129" lon="9.947141">
        <ele>2011.745</ele>
        <time>2022-07-11T10:11:16Z</time>
      </trkpt>
      <trkpt lat="46.451165" lon="9.947139">
        <ele>2011.234</ele>
        <time>2022-07-11T10:11:17Z</time>
      </trkpt>
      <trkpt lat="46.451201" lon="9.947135">
        <ele>2011.212</ele>
        <time>2022-07-11T10:11:18Z</time>
      </trkpt>
      <trkpt lat="46.451226" lon="9.947121">
        <ele>2009.714</ele>
        <time>2022-07-11T10:11:19Z</time>
      </trkpt>
      <trkpt lat="46.451247" lon="9.947095">
        <ele>2009.260</ele>
        <time>2022-07-11T10:11:20Z</time>
      </trkpt>
      <trkpt lat="46.451265" lon="9.947062">
        <ele>2008.874</ele>
        <time>2022-07-11T10:11:21Z</time>
      </trkpt>
      <trkpt lat="46.451277" lon="9.947023">
        <ele>2008.885</ele>
        <time>2022-07-11T10:11:22Z</time>
      </trkpt>
      <trkpt lat="46.451291" lon="9.946972">
        <ele>2007.853</ele>
        <time>2022-07-11T10:11:23Z</time>
      </trkpt>
      <trkpt lat="46.451382" lon="9.946756">
        <ele>2004.937</ele>
        <time>2022-07-11T10:11:28Z</time>
      </trkpt>
      <trkpt lat="46.451383" lon="9.946720">
        <ele>2004.495</ele>
        <time>2022-07-11T10:11:29Z</time>
      </trkpt>
      <trkpt lat="46.451371" lon="9.946682">
        <ele>2004.449</ele>
        <time>2022-07-11T10:11:30Z</time>
      </trkpt>
      <trkpt lat="46.451363" lon="9.946650">
        <ele>2004.023</ele>
        <time>2022-07-11T10:11:31Z</time>
      </trkpt>
      <trkpt lat="46.451365" lon="9.946615">
        <ele>2004.009</ele>
        <time>2022-07-11T10:11:32Z</time>
      </trkpt>
      <trkpt lat="46.451388" lon="9.946589">
        <ele>2004.040</ele>
        <time>2022-07-11T10:11:33Z</time>
      </trkpt>
      <trkpt lat="46.451412" lon="9.946609">
        <ele>2003.039</ele>
        <time>2022-07-11T10:11:34Z</time>
      </trkpt>
      <trkpt lat="46.451426" lon="9.946627">
        <ele>2003.037</ele>
        <time>2022-07-11T10:11:35Z</time>
      </trkpt>
      <trkpt lat="46.451447" lon="9.946640">
        <ele>2003.079</ele>
        <time>2022-07-11T10:11:36Z</time>
      </trkpt>
      <trkpt lat="46.451462" lon="9.946633">
        <ele>2002.575</ele>
        <time>2022-07-11T10:11:37Z</time>
      </trkpt>
      <trkpt lat="46.451463" lon="9.946610">
        <ele>2002.599</ele>
        <time>2022-07-11T10:11:38Z</time>
      </trkpt>
      <trkpt lat="46.451462" lon="9.946582">
        <ele>2001.650</ele>
        <time>2022-07-11T10:11:39Z</time>
      </trkpt>
      <trkpt lat="46.451463" lon="9.946552">
        <ele>2001.638</ele>
        <time>2022-07-11T10:11:40Z</time>
      </trkpt>
      <trkpt lat="46.451462" lon="9.946513">
        <ele>2001.612</ele>
        <time>2022-07-11T10:11:41Z</time>
      </trkpt>
      <trkpt lat="46.451458" lon="9.946477">
        <ele>2001.191</ele>
        <time>2022-07-11T10:11:42Z</time>
      </trkpt>
      <trkpt lat="46.451449" lon="9.946434">
        <ele>2001.181</ele>
        <time>2022-07-11T10:11:43Z</time>
      </trkpt>
      <trkpt lat="46.451405" lon="9.946271">
        <ele>1998.219</ele>
        <time>2022-07-11T10:11:47Z</time>
      </trkpt>
      <trkpt lat="46.451411" lon="9.946234">
        <ele>1998.209</ele>
        <time>2022-07-11T10:11:48Z</time>
      </trkpt>
      <trkpt lat="46.451427" lon="9.946191">
        <ele>1997.730</ele>
        <time>2022-07-11T10:11:49Z</time>
      </trkpt>
      <trkpt lat="46.451449" lon="9.946146">
        <ele>1997.219</ele>
        <time>2022-07-11T10:11:50Z</time>
      </trkpt>
      <trkpt lat="46.451475" lon="9.946100">
        <ele>1997.287</ele>
        <time>2022-07-11T10:11:51Z</time>
      </trkpt>
      <trkpt lat="46.451502" lon="9.946063">
        <ele>1996.849</ele>
        <time>2022-07-11T10:11:52Z</time>
      </trkpt>
      <trkpt lat="46.451527" lon="9.946041">
        <ele>1996.835</ele>
        <time>2022-07-11T10:11:53Z</time>
      </trkpt>
      <trkpt lat="46.451553" lon="9.946020">
        <ele>1996.879</ele>
        <time>2022-07-11T10:11:54Z</time>
      </trkpt>
      <trkpt lat="46.451581" lon="9.946001">
        <ele>1995.830</ele>
        <time>2022-07-11T10:11:55Z</time>
      </trkpt>
      <trkpt lat="46.451611" lon="9.945987">
        <ele>1995.838</ele>
        <time>2022-07-11T10:11:56Z</time>
      </trkpt>
      <trkpt lat="46.451643" lon="9.945981">
        <ele>1995.352</ele>
        <time>2022-07-11T10:11:57Z</time>
      </trkpt>
      <trkpt lat="46.451676" lon="9.945993">
        <ele>1994.353</ele>
        <time>2022-07-11T10:11:58Z</time>
      </trkpt>
      <trkpt lat="46.451712" lon="9.946024">
        <ele>1994.304</ele>
        <time>2022-07-11T10:11:59Z</time>
      </trkpt>
      <trkpt lat="46.451737" lon="9.946056">
        <ele>1994.314</ele>
        <time>2022-07-11T10:12:00Z</time>
      </trkpt>
      <trkpt lat="46.451758" lon="9.946093">
        <ele>1993.909</ele>
        <time>2022-07-11T10:12:01Z</time>
      </trkpt>
      <trkpt lat="46.451770" lon="9.946121">
        <ele>1993.966</ele>
        <time>2022-07-11T10:12:02Z</time>
      </trkpt>
      <trkpt lat="46.451877" lon="9.946384">
        <ele>1994.395</ele>
        <time>2022-07-11T10:12:13Z</time>
      </trkpt>
      <trkpt lat="46.452039" lon="9.946543">
        <ele>1993.913</ele>
        <time>2022-07-11T10:12:25Z</time>
      </trkpt>
      <trkpt lat="46.452155" lon="9.946529">
        <ele>1993.955</ele>
        <time>2022-07-11T10:12:33Z</time>
      </trkpt>
      <trkpt lat="46.452236" lon="9.946578">
        <ele>1996.841</ele>
        <time>2022-07-11T10:12:39Z</time>
      </trkpt>
      <trkpt lat="46.452252" lon="9.946571">
        <ele>1996.885</ele>
        <time>2022-07-11T10:12:40Z</time>
      </trkpt>
      <trkpt lat="46.452382" lon="9.946434">
        <ele>1995.376</ele>
        <time>2022-07-11T10:12:45Z</time>
      </trkpt>
      <trkpt lat="46.452407" lon="9.946378">
        <ele>1994.364</ele>
        <time>2022-07-11T10:12:46Z</time>
      </trkpt>
      <trkpt lat="46.452429" lon="9.946316">
        <ele>1993.928</ele>
        <time>2022-07-11T10:12:47Z</time>
      </trkpt>
      <trkpt lat="46.452447" lon="9.946253">
        <ele>1992.947</ele>
        <time>2022-07-11T10:12:48Z</time>
      </trkpt>
      <trkpt lat="46.452463" lon="9.946186">
        <ele>1992.429</ele>
        <time>2022-07-11T10:12:49Z</time>
      </trkpt>
      <trkpt lat="46.452486" lon="9.946067">
        <ele>1991.021</ele>
        <time>2022-07-11T10:12:51Z</time>
      </trkpt>
      <trkpt lat="46.452503" lon="9.946003">
        <ele>1990.009</ele>
        <time>2022-07-11T10:12:52Z</time>
      </trkpt>
      <trkpt lat="46.452525" lon="9.945950">
        <ele>1989.195</ele>
        <time>2022-07-11T10:12:53Z</time>
      </trkpt>
      <trkpt lat="46.452622" lon="9.945777">
        <ele>1986.714</ele>
        <time>2022-07-11T10:12:56Z</time>
      </trkpt>
      <trkpt lat="46.452663" lon="9.945732">
        <ele>1986.712</ele>
        <time>2022-07-11T10:12:57Z</time>
      </trkpt>
      <trkpt lat="46.452703" lon="9.945701">
        <ele>1986.294</ele>
        <time>2022-07-11T10:12:58Z</time>
      </trkpt>
      <trkpt lat="46.452744" lon="9.945665">
        <ele>1986.270</ele>
        <time>2022-07-11T10:12:59Z</time>
      </trkpt>
      <trkpt lat="46.452779" lon="9.945619">
        <ele>1986.284</ele>
        <time>2022-07-11T10:13:00Z</time>
      </trkpt>
      <trkpt lat="46.452810" lon="9.945571">
        <ele>1985.215</ele>
        <time>2022-07-11T10:13:01Z</time>
      </trkpt>
      <trkpt lat="46.452842" lon="9.945514">
        <ele>1985.213</ele>
        <time>2022-07-11T10:13:02Z</time>
      </trkpt>
      <trkpt lat="46.452871" lon="9.945454">
        <ele>1984.367</ele>
        <time>2022-07-11T10:13:03Z</time>
      </trkpt>
      <trkpt lat="46.452958" lon="9.945086">
        <ele>1980.426</ele>
        <time>2022-07-11T10:13:10Z</time>
      </trkpt>
      <trkpt lat="46.452968" lon="9.944874">
        <ele>1977.547</ele>
        <time>2022-07-11T10:13:14Z</time>
      </trkpt>
      <trkpt lat="46.452952" lon="9.944751">
        <ele>1976.111</ele>
        <time>2022-07-11T10:13:16Z</time>
      </trkpt>
      <trkpt lat="46.452936" lon="9.944693">
        <ele>1975.609</ele>
        <time>2022-07-11T10:13:17Z</time>
      </trkpt>
      <trkpt lat="46.452900" lon="9.944568">
        <ele>1974.633</ele>
        <time>2022-07-11T10:13:19Z</time>
      </trkpt>
      <trkpt lat="46.452896" lon="9.944511">
        <ele>1973.712</ele>
        <time>2022-07-11T10:13:20Z</time>
      </trkpt>
      <trkpt lat="46.452897" lon="9.944461">
        <ele>1973.220</ele>
        <time>2022-07-11T10:13:21Z</time>
      </trkpt>
      <trkpt lat="46.452910" lon="9.944414">
        <ele>1973.272</ele>
        <time>2022-07-11T10:13:22Z</time>
      </trkpt>
      <trkpt lat="46.452934" lon="9.944371">
        <ele>1972.728</ele>
        <time>2022-07-11T10:13:23Z</time>
      </trkpt>
      <trkpt lat="46.452964" lon="9.944311">
        <ele>1972.272</ele>
        <time>2022-07-11T10:13:24Z</time>
      </trkpt>
      <trkpt lat="46.452980" lon="9.944262">
        <ele>1971.333</ele>
        <time>2022-07-11T10:13:25Z</time>
      </trkpt>
      <trkpt lat="46.452993" lon="9.944199">
        <ele>1971.321</ele>
        <time>2022-07-11T10:13:26Z</time>
      </trkpt>
      <trkpt lat="46.452996" lon="9.944134">
        <ele>1971.315</ele>
        <time>2022-07-11T10:13:27Z</time>
      </trkpt>
      <trkpt lat="46.452985" lon="9.944067">
        <ele>1970.397</ele>
        <time>2022-07-11T10:13:28Z</time>
      </trkpt>
      <trkpt lat="46.452964" lon="9.944009">
        <ele>1970.823</ele>
        <time>2022-07-11T10:13:29Z</time>
      </trkpt>
      <trkpt lat="46.452945" lon="9.943962">
        <ele>1969.825</ele>
        <time>2022-07-11T10:13:30Z</time>
      </trkpt>
      <trkpt lat="46.452925" lon="9.943918">
        <ele>1969.809</ele>
        <time>2022-07-11T10:13:31Z</time>
      </trkpt>
      <trkpt lat="46.452904" lon="9.943881">
        <ele>1968.980</ele>
        <time>2022-07-11T10:13:32Z</time>
      </trkpt>
      <trkpt lat="46.452884" lon="9.943860">
        <ele>1968.919</ele>
        <time>2022-07-11T10:13:33Z</time>
      </trkpt>
      <trkpt lat="46.452863" lon="9.943845">
        <ele>1968.477</ele>
        <time>2022-07-11T10:13:34Z</time>
      </trkpt>
      <trkpt lat="46.452845" lon="9.943835">
        <ele>1968.439</ele>
        <time>2022-07-11T10:13:35Z</time>
      </trkpt>
      <trkpt lat="46.452829" lon="9.943832">
        <ele>1968.455</ele>
        <time>2022-07-11T10:13:36Z</time>
      </trkpt>
      <trkpt lat="46.452816" lon="9.943831">
        <ele>1967.939</ele>
        <time>2022-07-11T10:13:37Z</time>
      </trkpt>
      <trkpt lat="46.452802" lon="9.943830">
        <ele>1967.980</ele>
        <time>2022-07-11T10:13:38Z</time>
      </trkpt>
      <trkpt lat="46.452789" lon="9.943829">
        <ele>1967.478</ele>
        <time>2022-07-11T10:13:39Z</time>
      </trkpt>
      <trkpt lat="46.452777" lon="9.943826">
        <ele>1966.952</ele>
        <time>2022-07-11T10:13:40Z</time>
      </trkpt>
      <trkpt lat="46.452746" lon="9.943791">
        <ele>1966.561</ele>
        <time>2022-07-11T10:13:43Z</time>
      </trkpt>
      <trkpt lat="46.452667" lon="9.943575">
        <ele>1963.621</ele>
        <time>2022-07-11T10:13:53Z</time>
      </trkpt>
      <trkpt lat="46.452656" lon="9.943467">
        <ele>1962.113</ele>
        <time>2022-07-11T10:14:05Z</time>
      </trkpt>
      <trkpt lat="46.452673" lon="9.943441">
        <ele>1962.109</ele>
        <time>2022-07-11T10:14:06Z</time>
      </trkpt>
      <trkpt lat="46.452693" lon="9.943419">
        <ele>1961.747</ele>
        <time>2022-07-11T10:14:07Z</time>
      </trkpt>
      <trkpt lat="46.452716" lon="9.943397">
        <ele>1961.296</ele>
        <time>2022-07-11T10:14:08Z</time>
      </trkpt>
      <trkpt lat="46.452741" lon="9.943366">
        <ele>1961.224</ele>
        <time>2022-07-11T10:14:09Z</time>
      </trkpt>
      <trkpt lat="46.452766" lon="9.943331">
        <ele>1960.266</ele>
        <time>2022-07-11T10:14:10Z</time>
      </trkpt>
      <trkpt lat="46.452897" lon="9.943177">
        <ele>1956.912</ele>
        <time>2022-07-11T10:14:15Z</time>
      </trkpt>
      <trkpt lat="46.452978" lon="9.943103">
        <ele>1954.916</ele>
        <time>2022-07-11T10:14:18Z</time>
      </trkpt>
      <trkpt lat="46.453088" lon="9.943004">
        <ele>1951.667</ele>
        <time>2022-07-11T10:14:24Z</time>
      </trkpt>
      <trkpt lat="46.453161" lon="9.942963">
        <ele>1950.115</ele>
        <time>2022-07-11T10:14:29Z</time>
      </trkpt>
      <trkpt lat="46.453172" lon="9.942953">
        <ele>1949.239</ele>
        <time>2022-07-11T10:14:30Z</time>
      </trkpt>
      <trkpt lat="46.453181" lon="9.942919">
        <ele>1949.249</ele>
        <time>2022-07-11T10:14:32Z</time>
      </trkpt>
      <trkpt lat="46.453178" lon="9.942896">
        <ele>1948.702</ele>
        <time>2022-07-11T10:14:33Z</time>
      </trkpt>
      <trkpt lat="46.453159" lon="9.942891">
        <ele>1948.722</ele>
        <time>2022-07-11T10:14:34Z</time>
      </trkpt>
      <trkpt lat="46.453150" lon="9.942888">
        <ele>1948.709</ele>
        <time>2022-07-11T10:14:35Z</time>
      </trkpt>
      <trkpt lat="46.453138" lon="9.942886">
        <ele>1948.715</ele>
        <time>2022-07-11T10:14:36Z</time>
      </trkpt>
      <trkpt lat="46.452883" lon="9.942848">
        <ele>1947.214</ele>
        <time>2022-07-11T10:14:47Z</time>
      </trkpt>
      <trkpt lat="46.452823" lon="9.942816">
        <ele>1946.392</ele>
        <time>2022-07-11T10:14:50Z</time>
      </trkpt>
      <trkpt lat="46.452814" lon="9.942793">
        <ele>1945.824</ele>
        <time>2022-07-11T10:14:51Z</time>
      </trkpt>
      <trkpt lat="46.452801" lon="9.942766">
        <ele>1945.840</ele>
        <time>2022-07-11T10:14:52Z</time>
      </trkpt>
      <trkpt lat="46.452785" lon="9.942747">
        <ele>1944.824</ele>
        <time>2022-07-11T10:14:53Z</time>
      </trkpt>
      <trkpt lat="46.452766" lon="9.942730">
        <ele>1944.425</ele>
        <time>2022-07-11T10:14:54Z</time>
      </trkpt>
      <trkpt lat="46.452747" lon="9.942721">
        <ele>1944.473</ele>
        <time>2022-07-11T10:14:55Z</time>
      </trkpt>
      <trkpt lat="46.452727" lon="9.942715">
        <ele>1943.967</ele>
        <time>2022-07-11T10:14:56Z</time>
      </trkpt>
      <trkpt lat="46.452708" lon="9.942709">
        <ele>1943.928</ele>
        <time>2022-07-11T10:14:57Z</time>
      </trkpt>
      <trkpt lat="46.452685" lon="9.942706">
        <ele>1943.489</ele>
        <time>2022-07-11T10:14:58Z</time>
      </trkpt>
      <trkpt lat="46.452663" lon="9.942721">
        <ele>1942.417</ele>
        <time>2022-07-11T10:14:59Z</time>
      </trkpt>
      <trkpt lat="46.452642" lon="9.942735">
        <ele>1942.409</ele>
        <time>2022-07-11T10:15:00Z</time>
      </trkpt>
      <trkpt lat="46.452624" lon="9.942750">
        <ele>1941.593</ele>
        <time>2022-07-11T10:15:01Z</time>
      </trkpt>
      <trkpt lat="46.452610" lon="9.942770">
        <ele>1941.032</ele>
        <time>2022-07-11T10:15:02Z</time>
      </trkpt>
      <trkpt lat="46.452591" lon="9.942775">
        <ele>1941.040</ele>
        <time>2022-07-11T10:15:03Z</time>
      </trkpt>
      <trkpt lat="46.452577" lon="9.942759">
        <ele>1940.592</ele>
        <time>2022-07-11T10:15:04Z</time>
      </trkpt>
      <trkpt lat="46.452571" lon="9.942733">
        <ele>1940.088</ele>
        <time>2022-07-11T10:15:05Z</time>
      </trkpt>
      <trkpt lat="46.452575" lon="9.942698">
        <ele>1940.082</ele>
        <time>2022-07-11T10:15:06Z</time>
      </trkpt>
      <trkpt lat="46.452586" lon="9.942667">
        <ele>1939.163</ele>
        <time>2022-07-11T10:15:07Z</time>
      </trkpt>
      <trkpt lat="46.452595" lon="9.942643">
        <ele>1939.121</ele>
        <time>2022-07-11T10:15:08Z</time>
      </trkpt>
      <trkpt lat="46.452602" lon="9.942622">
        <ele>1938.155</ele>
        <time>2022-07-11T10:15:09Z</time>
      </trkpt>
      <trkpt lat="46.452608" lon="9.942604">
        <ele>1937.624</ele>
        <time>2022-07-11T10:15:10Z</time>
      </trkpt>
      <trkpt lat="46.452612" lon="9.942576">
        <ele>1937.604</ele>
        <time>2022-07-11T10:15:11Z</time>
      </trkpt>
      <trkpt lat="46.452602" lon="9.942548">
        <ele>1937.114</ele>
        <time>2022-07-11T10:15:12Z</time>
      </trkpt>
      <trkpt lat="46.452580" lon="9.942535">
        <ele>1936.709</ele>
        <time>2022-07-11T10:15:13Z</time>
      </trkpt>
      <trkpt lat="46.452560" lon="9.942535">
        <ele>1936.713</ele>
        <time>2022-07-11T10:15:14Z</time>
      </trkpt>
      <trkpt lat="46.452539" lon="9.942538">
        <ele>1935.712</ele>
        <time>2022-07-11T10:15:15Z</time>
      </trkpt>
      <trkpt lat="46.452454" lon="9.942573">
        <ele>1934.790</ele>
        <time>2022-07-11T10:15:20Z</time>
      </trkpt>
      <trkpt lat="46.452337" lon="9.942515">
        <ele>1931.492</ele>
        <time>2022-07-11T10:15:26Z</time>
      </trkpt>
      <trkpt lat="46.452312" lon="9.942461">
        <ele>1930.478</ele>
        <time>2022-07-11T10:15:30Z</time>
      </trkpt>
      <trkpt lat="46.452319" lon="9.942444">
        <ele>1930.432</ele>
        <time>2022-07-11T10:15:31Z</time>
      </trkpt>
      <trkpt lat="46.452334" lon="9.942427">
        <ele>1929.983</ele>
        <time>2022-07-11T10:15:32Z</time>
      </trkpt>
      <trkpt lat="46.452349" lon="9.942412">
        <ele>1929.571</ele>
        <time>2022-07-11T10:15:33Z</time>
      </trkpt>
      <trkpt lat="46.452364" lon="9.942397">
        <ele>1929.555</ele>
        <time>2022-07-11T10:15:34Z</time>
      </trkpt>
      <trkpt lat="46.452378" lon="9.942384">
        <ele>1929.569</ele>
        <time>2022-07-11T10:15:35Z</time>
      </trkpt>
      <trkpt lat="46.452393" lon="9.942369">
        <ele>1928.504</ele>
        <time>2022-07-11T10:15:36Z</time>
      </trkpt>
      <trkpt lat="46.452465" lon="9.942297">
        <ele>1926.624</ele>
        <time>2022-07-11T10:15:42Z</time>
      </trkpt>
      <trkpt lat="46.452456" lon="9.942276">
        <ele>1926.609</ele>
        <time>2022-07-11T10:15:43Z</time>
      </trkpt>
      <trkpt lat="46.452442" lon="9.942263">
        <ele>1925.667</ele>
        <time>2022-07-11T10:15:44Z</time>
      </trkpt>
      <trkpt lat="46.452428" lon="9.942263">
        <ele>1925.616</ele>
        <time>2022-07-11T10:15:45Z</time>
      </trkpt>
      <trkpt lat="46.452414" lon="9.942270">
        <ele>1925.644</ele>
        <time>2022-07-11T10:15:46Z</time>
      </trkpt>
      <trkpt lat="46.452387" lon="9.942274">
        <ele>1925.646</ele>
        <time>2022-07-11T10:15:48Z</time>
      </trkpt>
      <trkpt lat="46.452356" lon="9.942257">
        <ele>1924.792</ele>
        <time>2022-07-11T10:15:50Z</time>
      </trkpt>
      <trkpt lat="46.452346" lon="9.942253">
        <ele>1924.726</ele>
        <time>2022-07-11T10:15:51Z</time>
      </trkpt>
      <trkpt lat="46.452337" lon="9.942242">
        <ele>1924.777</ele>
        <time>2022-07-11T10:15:52Z</time>
      </trkpt>
      <trkpt lat="46.452329" lon="9.942228">
        <ele>1924.745</ele>
        <time>2022-07-11T10:15:53Z</time>
      </trkpt>
      <trkpt lat="46.452347" lon="9.942197">
        <ele>1923.779</ele>
        <time>2022-07-11T10:16:00Z</time>
      </trkpt>
      <trkpt lat="46.452476" lon="9.942110">
        <ele>1921.838</ele>
        <time>2022-07-11T10:16:06Z</time>
      </trkpt>
      <trkpt lat="46.452506" lon="9.942099">
        <ele>1920.870</ele>
        <time>2022-07-11T10:16:07Z</time>
      </trkpt>
      <trkpt lat="46.452535" lon="9.942089">
        <ele>1920.817</ele>
        <time>2022-07-11T10:16:08Z</time>
      </trkpt>
      <trkpt lat="46.452567" lon="9.942075">
        <ele>1920.809</ele>
        <time>2022-07-11T10:16:09Z</time>
      </trkpt>
      <trkpt lat="46.452594" lon="9.942055">
        <ele>1920.864</ele>
        <time>2022-07-11T10:16:10Z</time>
      </trkpt>
      <trkpt lat="46.452624" lon="9.942027">
        <ele>1920.813</ele>
        <time>2022-07-11T10:16:11Z</time>
      </trkpt>
      <trkpt lat="46.452822" lon="9.941852">
        <ele>1917.981</ele>
        <time>2022-07-11T10:16:19Z</time>
      </trkpt>
      <trkpt lat="46.452936" lon="9.941714">
        <ele>1916.073</ele>
        <time>2022-07-11T10:16:23Z</time>
      </trkpt>
      <trkpt lat="46.453115" lon="9.941583">
        <ele>1913.149</ele>
        <time>2022-07-11T10:16:28Z</time>
      </trkpt>
      <trkpt lat="46.453155" lon="9.941559">
        <ele>1913.143</ele>
        <time>2022-07-11T10:16:29Z</time>
      </trkpt>
      <trkpt lat="46.453351" lon="9.941492">
        <ele>1909.364</ele>
        <time>2022-07-11T10:16:36Z</time>
      </trkpt>
      <trkpt lat="46.453368" lon="9.941477">
        <ele>1909.352</ele>
        <time>2022-07-11T10:16:37Z</time>
      </trkpt>
      <trkpt lat="46.453379" lon="9.941457">
        <ele>1908.886</ele>
        <time>2022-07-11T10:16:38Z</time>
      </trkpt>
      <trkpt lat="46.453381" lon="9.941438">
        <ele>1908.887</ele>
        <time>2022-07-11T10:16:39Z</time>
      </trkpt>
      <trkpt lat="46.453380" lon="9.941417">
        <ele>1908.342</ele>
        <time>2022-07-11T10:16:40Z</time>
      </trkpt>
      <trkpt lat="46.453372" lon="9.941393">
        <ele>1908.326</ele>
        <time>2022-07-11T10:16:41Z</time>
      </trkpt>
      <trkpt lat="46.453356" lon="9.941381">
        <ele>1907.809</ele>
        <time>2022-07-11T10:16:42Z</time>
      </trkpt>
      <trkpt lat="46.453337" lon="9.941379">
        <ele>1907.359</ele>
        <time>2022-07-11T10:16:43Z</time>
      </trkpt>
      <trkpt lat="46.453322" lon="9.941378">
        <ele>1907.898</ele>
        <time>2022-07-11T10:16:44Z</time>
      </trkpt>
      <trkpt lat="46.453301" lon="9.941375">
        <ele>1907.846</ele>
        <time>2022-07-11T10:16:45Z</time>
      </trkpt>
      <trkpt lat="46.452979" lon="9.941341">
        <ele>1907.368</ele>
        <time>2022-07-11T10:16:59Z</time>
      </trkpt>
      <trkpt lat="46.452634" lon="9.941377">
        <ele>1908.814</ele>
        <time>2022-07-11T10:17:15Z</time>
      </trkpt>
      <trkpt lat="46.452576" lon="9.941398">
        <ele>1909.818</ele>
        <time>2022-07-11T10:17:47Z</time>
      </trkpt>
      <trkpt lat="46.452495" lon="9.941417">
        <ele>1910.239</ele>
        <time>2022-07-11T10:19:44Z</time>
      </trkpt>
      <trkpt lat="46.452485" lon="9.941426">
        <ele>1910.287</ele>
        <time>2022-07-11T10:19:45Z</time>
      </trkpt>
      <trkpt lat="46.452459" lon="9.941445">
        <ele>1910.281</ele>
        <time>2022-07-11T10:19:47Z</time>
      </trkpt>
      <trkpt lat="46.452443" lon="9.941447">
        <ele>1910.777</ele>
        <time>2022-07-11T10:19:48Z</time>
      </trkpt>
      <trkpt lat="46.452426" lon="9.941454">
        <ele>1910.761</ele>
        <time>2022-07-11T10:19:49Z</time>
      </trkpt>
      <trkpt lat="46.452409" lon="9.941464">
        <ele>1910.727</ele>
        <time>2022-07-11T10:19:50Z</time>
      </trkpt>
      <trkpt lat="46.452394" lon="9.941473">
        <ele>1910.709</ele>
        <time>2022-07-11T10:19:51Z</time>
      </trkpt>
      <trkpt lat="46.452377" lon="9.941478">
        <ele>1910.798</ele>
        <time>2022-07-11T10:19:52Z</time>
      </trkpt>
      <trkpt lat="46.452359" lon="9.941484">
        <ele>1910.767</ele>
        <time>2022-07-11T10:19:53Z</time>
      </trkpt>
      <trkpt lat="46.452155" lon="9.941524">
        <ele>1911.225</ele>
        <time>2022-07-11T10:20:07Z</time>
      </trkpt>
      <trkpt lat="46.451790" lon="9.941518">
        <ele>1912.637</ele>
        <time>2022-07-11T10:20:21Z</time>
      </trkpt>
      <trkpt lat="46.451312" lon="9.941544">
        <ele>1914.173</ele>
        <time>2022-07-11T10:20:38Z</time>
      </trkpt>
      <trkpt lat="46.451170" lon="9.941459">
        <ele>1915.087</ele>
        <time>2022-07-11T10:20:46Z</time>
      </trkpt>
      <trkpt lat="46.451169" lon="9.941427">
        <ele>1915.038</ele>
        <time>2022-07-11T10:20:47Z</time>
      </trkpt>
      <trkpt lat="46.451171" lon="9.941390">
        <ele>1915.066</ele>
        <time>2022-07-11T10:20:48Z</time>
      </trkpt>
      <trkpt lat="46.451082" lon="9.941056">
        <ele>1915.050</ele>
        <time>2022-07-11T10:21:01Z</time>
      </trkpt>
      <trkpt lat="46.450726" lon="9.940917">
        <ele>1916.574</ele>
        <time>2022-07-11T10:21:16Z</time>
      </trkpt>
      <trkpt lat="46.450536" lon="9.940770">
        <ele>1916.556</ele>
        <time>2022-07-11T10:21:27Z</time>
      </trkpt>
      <trkpt lat="46.450533" lon="9.940756">
        <ele>1916.521</ele>
        <time>2022-07-11T10:21:28Z</time>
      </trkpt>
      <trkpt lat="46.450419" lon="9.940526">
        <ele>1915.009</ele>
        <time>2022-07-11T10:21:36Z</time>
      </trkpt>
      <trkpt lat="46.450420" lon="9.940469">
        <ele>1915.018</ele>
        <time>2022-07-11T10:21:37Z</time>
      </trkpt>
      <trkpt lat="46.450439" lon="9.940418">
        <ele>1914.627</ele>
        <time>2022-07-11T10:21:38Z</time>
      </trkpt>
      <trkpt lat="46.450466" lon="9.940378">
        <ele>1914.645</ele>
        <time>2022-07-11T10:21:39Z</time>
      </trkpt>
      <trkpt lat="46.450491" lon="9.940349">
        <ele>1914.667</ele>
        <time>2022-07-11T10:21:40Z</time>
      </trkpt>
      <trkpt lat="46.450510" lon="9.940322">
        <ele>1914.613</ele>
        <time>2022-07-11T10:21:41Z</time>
      </trkpt>
      <trkpt lat="46.450528" lon="9.940295">
        <ele>1914.677</ele>
        <time>2022-07-11T10:21:42Z</time>
      </trkpt>
      <trkpt lat="46.450575" lon="9.939998">
        <ele>1914.668</ele>
        <time>2022-07-11T10:21:53Z</time>
      </trkpt>
      <trkpt lat="46.450571" lon="9.939976">
        <ele>1915.516</ele>
        <time>2022-07-11T10:22:08Z</time>
      </trkpt>
      <trkpt lat="46.450603" lon="9.940004">
        <ele>1915.010</ele>
        <time>2022-07-11T10:22:16Z</time>
      </trkpt>
      <trkpt lat="46.450602" lon="9.940028">
        <ele>1915.074</ele>
        <time>2022-07-11T10:22:17Z</time>
      </trkpt>
      <trkpt lat="46.450603" lon="9.940055">
        <ele>1915.056</ele>
        <time>2022-07-11T10:22:18Z</time>
      </trkpt>
      <trkpt lat="46.450637" lon="9.940746">
        <ele>1915.521</ele>
        <time>2022-07-11T10:22:35Z</time>
      </trkpt>
      <trkpt lat="46.450691" lon="9.940736">
        <ele>1913.109</ele>
        <time>2022-07-11T10:28:17Z</time>
      </trkpt>
      <trkpt lat="46.450821" lon="9.941021">
        <ele>1913.168</ele>
        <time>2022-07-11T10:28:26Z</time>
      </trkpt>
      <trkpt lat="46.450851" lon="9.941032">
        <ele>1913.187</ele>
        <time>2022-07-11T10:28:27Z</time>
      </trkpt>
      <trkpt lat="46.450887" lon="9.941037">
        <ele>1913.195</ele>
        <time>2022-07-11T10:28:28Z</time>
      </trkpt>
      <trkpt lat="46.451136" lon="9.941250">
        <ele>1911.777</ele>
        <time>2022-07-11T10:28:39Z</time>
      </trkpt>
      <trkpt lat="46.451131" lon="9.941298">
        <ele>1911.743</ele>
        <time>2022-07-11T10:28:40Z</time>
      </trkpt>
      <trkpt lat="46.451126" lon="9.941358">
        <ele>1911.787</ele>
        <time>2022-07-11T10:28:41Z</time>
      </trkpt>
      <trkpt lat="46.451122" lon="9.941398">
        <ele>1911.728</ele>
        <time>2022-07-11T10:28:42Z</time>
      </trkpt>
      <trkpt lat="46.451120" lon="9.941433">
        <ele>1911.756</ele>
        <time>2022-07-11T10:28:43Z</time>
      </trkpt>
      <trkpt lat="46.451124" lon="9.941461">
        <ele>1911.710</ele>
        <time>2022-07-11T10:28:44Z</time>
      </trkpt>
      <trkpt lat="46.451134" lon="9.941489">
        <ele>1911.771</ele>
        <time>2022-07-11T10:28:45Z</time>
      </trkpt>
      <trkpt lat="46.451144" lon="9.941503">
        <ele>1911.741</ele>
        <time>2022-07-11T10:28:46Z</time>
      </trkpt>
      <trkpt lat="46.451156" lon="9.941506">
        <ele>1911.715</ele>
        <time>2022-07-11T10:28:47Z</time>
      </trkpt>
      <trkpt lat="46.451189" lon="9.941496">
        <ele>1911.709</ele>
        <time>2022-07-11T10:29:00Z</time>
      </trkpt>
      <trkpt lat="46.451370" lon="9.941500">
        <ele>1910.718</ele>
        <time>2022-07-11T10:29:12Z</time>
      </trkpt>
      <trkpt lat="46.451935" lon="9.941505">
        <ele>1909.367</ele>
        <time>2022-07-11T10:29:25Z</time>
      </trkpt>
      <trkpt lat="46.452245" lon="9.941495">
        <ele>1908.375</ele>
        <time>2022-07-11T10:29:38Z</time>
      </trkpt>
      <trkpt lat="46.452547" lon="9.941410">
        <ele>1906.937</ele>
        <time>2022-07-11T10:29:54Z</time>
      </trkpt>
      <trkpt lat="46.452986" lon="9.941317">
        <ele>1904.053</ele>
        <time>2022-07-11T10:30:09Z</time>
      </trkpt>
      <trkpt lat="46.453340" lon="9.941301">
        <ele>1904.027</ele>
        <time>2022-07-11T10:30:25Z</time>
      </trkpt>
      <trkpt lat="46.453352" lon="9.941299">
        <ele>1904.018</ele>
        <time>2022-07-11T10:30:26Z</time>
      </trkpt>
      <trkpt lat="46.453362" lon="9.941302">
        <ele>1903.586</ele>
        <time>2022-07-11T10:30:40Z</time>
      </trkpt>
      <trkpt lat="46.453360" lon="9.941280">
        <ele>1903.540</ele>
        <time>2022-07-11T10:30:57Z</time>
      </trkpt>
      <trkpt lat="46.453381" lon="9.941270">
        <ele>1903.539</ele>
        <time>2022-07-11T10:31:14Z</time>
      </trkpt>
      <trkpt lat="46.453460" lon="9.941275">
        <ele>1903.501</ele>
        <time>2022-07-11T10:31:27Z</time>
      </trkpt>
      <trkpt lat="46.453458" lon="9.941264">
        <ele>1904.921</ele>
        <time>2022-07-11T10:31:33Z</time>
      </trkpt>
      <trkpt lat="46.453468" lon="9.941257">
        <ele>1903.509</ele>
        <time>2022-07-11T10:31:56Z</time>
      </trkpt>
      <trkpt lat="46.453490" lon="9.941294">
        <ele>1903.524</ele>
        <time>2022-07-11T10:32:01Z</time>
      </trkpt>
      <trkpt lat="46.453497" lon="9.941315">
        <ele>1903.533</ele>
        <time>2022-07-11T10:32:02Z</time>
      </trkpt>
      <trkpt lat="46.453509" lon="9.941340">
        <ele>1903.581</ele>
        <time>2022-07-11T10:32:03Z</time>
      </trkpt>
      <trkpt lat="46.453525" lon="9.941359">
        <ele>1903.593</ele>
        <time>2022-07-11T10:32:04Z</time>
      </trkpt>
      <trkpt lat="46.453547" lon="9.941373">
        <ele>1903.589</ele>
        <time>2022-07-11T10:32:05Z</time>
      </trkpt>
      <trkpt lat="46.453570" lon="9.941380">
        <ele>1903.553</ele>
        <time>2022-07-11T10:32:06Z</time>
      </trkpt>
      <trkpt lat="46.453595" lon="9.941387">
        <ele>1903.544</ele>
        <time>2022-07-11T10:32:07Z</time>
      </trkpt>
      <trkpt lat="46.453616" lon="9.941393">
        <ele>1903.582</ele>
        <time>2022-07-11T10:32:08Z</time>
      </trkpt>
      <trkpt lat="46.453689" lon="9.941411">
        <ele>1904.956</ele>
        <time>2022-07-11T10:32:11Z</time>
      </trkpt>
      <trkpt lat="46.454096" lon="9.941408">
        <ele>1905.984</ele>
        <time>2022-07-11T10:32:25Z</time>
      </trkpt>
      <trkpt lat="46.454655" lon="9.941258">
        <ele>1905.907</ele>
        <time>2022-07-11T10:32:39Z</time>
      </trkpt>
      <trkpt lat="46.455089" lon="9.941237">
        <ele>1906.417</ele>
        <time>2022-07-11T10:32:50Z</time>
      </trkpt>
      <trkpt lat="46.455409" lon="9.941256">
        <ele>1906.409</ele>
        <time>2022-07-11T10:32:58Z</time>
      </trkpt>
      <trkpt lat="46.455628" lon="9.941249">
        <ele>1904.579</ele>
        <time>2022-07-11T10:33:02Z</time>
      </trkpt>
      <trkpt lat="46.455697" lon="9.941230">
        <ele>1904.568</ele>
        <time>2022-07-11T10:33:03Z</time>
      </trkpt>
      <trkpt lat="46.455763" lon="9.941200">
        <ele>1903.546</ele>
        <time>2022-07-11T10:33:04Z</time>
      </trkpt>
      <trkpt lat="46.455828" lon="9.941157">
        <ele>1902.168</ele>
        <time>2022-07-11T10:33:05Z</time>
      </trkpt>
      <trkpt lat="46.455896" lon="9.941105">
        <ele>1902.154</ele>
        <time>2022-07-11T10:33:06Z</time>
      </trkpt>
      <trkpt lat="46.456103" lon="9.940910">
        <ele>1900.188</ele>
        <time>2022-07-11T10:33:09Z</time>
      </trkpt>
      <trkpt lat="46.456802" lon="9.940215">
        <ele>1899.759</ele>
        <time>2022-07-11T10:33:20Z</time>
      </trkpt>
      <trkpt lat="46.456930" lon="9.940085">
        <ele>1900.187</ele>
        <time>2022-07-11T10:33:23Z</time>
      </trkpt>
      <trkpt lat="46.457463" lon="9.939479">
        <ele>1898.781</ele>
        <time>2022-07-11T10:33:35Z</time>
      </trkpt>
      <trkpt lat="46.457785" lon="9.939043">
        <ele>1895.869</ele>
        <time>2022-07-11T10:33:41Z</time>
      </trkpt>
      <trkpt lat="46.458092" lon="9.938545">
        <ele>1893.904</ele>
        <time>2022-07-11T10:33:47Z</time>
      </trkpt>
      <trkpt lat="46.458154" lon="9.938481">
        <ele>1893.924</ele>
        <time>2022-07-11T10:33:48Z</time>
      </trkpt>
      <trkpt lat="46.458223" lon="9.938423">
        <ele>1893.909</ele>
        <time>2022-07-11T10:33:49Z</time>
      </trkpt>
      <trkpt lat="46.458287" lon="9.938384">
        <ele>1893.467</ele>
        <time>2022-07-11T10:33:50Z</time>
      </trkpt>
      <trkpt lat="46.458355" lon="9.938348">
        <ele>1893.496</ele>
        <time>2022-07-11T10:33:51Z</time>
      </trkpt>
      <trkpt lat="46.458907" lon="9.938060">
        <ele>1892.954</ele>
        <time>2022-07-11T10:34:01Z</time>
      </trkpt>
      <trkpt lat="46.458949" lon="9.938039">
        <ele>1892.936</ele>
        <time>2022-07-11T10:34:02Z</time>
      </trkpt>
      <trkpt lat="46.458994" lon="9.938016">
        <ele>1892.992</ele>
        <time>2022-07-11T10:34:03Z</time>
      </trkpt>
      <trkpt lat="46.459087" lon="9.937949">
        <ele>1892.946</ele>
        <time>2022-07-11T10:34:05Z</time>
      </trkpt>
      <trkpt lat="46.459213" lon="9.937834">
        <ele>1892.977</ele>
        <time>2022-07-11T10:34:08Z</time>
      </trkpt>
      <trkpt lat="46.459933" lon="9.937428">
        <ele>1890.575</ele>
        <time>2022-07-11T10:34:22Z</time>
      </trkpt>
      <trkpt lat="46.460028" lon="9.937352">
        <ele>1890.049</ele>
        <time>2022-07-11T10:34:24Z</time>
      </trkpt>
      <trkpt lat="46.460421" lon="9.936882">
        <ele>1886.774</ele>
        <time>2022-07-11T10:34:34Z</time>
      </trkpt>
      <trkpt lat="46.460549" lon="9.936678">
        <ele>1886.256</ele>
        <time>2022-07-11T10:34:44Z</time>
      </trkpt>
      <trkpt lat="46.460825" lon="9.936312">
        <ele>1885.221</ele>
        <time>2022-07-11T10:34:57Z</time>
      </trkpt>
      <trkpt lat="46.461238" lon="9.935741">
        <ele>1884.809</ele>
        <time>2022-07-11T10:35:12Z</time>
      </trkpt>
      <trkpt lat="46.461703" lon="9.935025">
        <ele>1883.828</ele>
        <time>2022-07-11T10:35:29Z</time>
      </trkpt>
      <trkpt lat="46.462206" lon="9.934203">
        <ele>1882.477</ele>
        <time>2022-07-11T10:35:46Z</time>
      </trkpt>
      <trkpt lat="46.462483" lon="9.933811">
        <ele>1881.995</ele>
        <time>2022-07-11T10:35:57Z</time>
      </trkpt>
      <trkpt lat="46.462754" lon="9.933209">
        <ele>1883.347</ele>
        <time>2022-07-11T10:36:12Z</time>
      </trkpt>
      <trkpt lat="46.463019" lon="9.932905">
        <ele>1882.443</ele>
        <time>2022-07-11T10:36:21Z</time>
      </trkpt>
      <trkpt lat="46.463119" lon="9.932814">
        <ele>1880.497</ele>
        <time>2022-07-11T10:36:23Z</time>
      </trkpt>
      <trkpt lat="46.463176" lon="9.932783">
        <ele>1880.488</ele>
        <time>2022-07-11T10:36:24Z</time>
      </trkpt>
      <trkpt lat="46.463232" lon="9.932767">
        <ele>1880.056</ele>
        <time>2022-07-11T10:36:25Z</time>
      </trkpt>
      <trkpt lat="46.463389" lon="9.932734">
        <ele>1880.060</ele>
        <time>2022-07-11T10:36:28Z</time>
      </trkpt>
      <trkpt lat="46.463438" lon="9.932713">
        <ele>1880.033</ele>
        <time>2022-07-11T10:36:29Z</time>
      </trkpt>
      <trkpt lat="46.463481" lon="9.932683">
        <ele>1880.023</ele>
        <time>2022-07-11T10:36:30Z</time>
      </trkpt>
      <trkpt lat="46.463513" lon="9.932641">
        <ele>1880.015</ele>
        <time>2022-07-11T10:36:31Z</time>
      </trkpt>
      <trkpt lat="46.463542" lon="9.932597">
        <ele>1880.009</ele>
        <time>2022-07-11T10:36:32Z</time>
      </trkpt>
      <trkpt lat="46.463573" lon="9.932547">
        <ele>1880.044</ele>
        <time>2022-07-11T10:36:33Z</time>
      </trkpt>
      <trkpt lat="46.463601" lon="9.932498">
        <ele>1880.013</ele>
        <time>2022-07-11T10:36:34Z</time>
      </trkpt>
      <trkpt lat="46.463667" lon="9.932418">
        <ele>1880.091</ele>
        <time>2022-07-11T10:36:36Z</time>
      </trkpt>
      <trkpt lat="46.463709" lon="9.932400">
        <ele>1880.073</ele>
        <time>2022-07-11T10:36:37Z</time>
      </trkpt>
      <trkpt lat="46.463754" lon="9.932392">
        <ele>1880.019</ele>
        <time>2022-07-11T10:36:38Z</time>
      </trkpt>
      <trkpt lat="46.463803" lon="9.932391">
        <ele>1880.023</ele>
        <time>2022-07-11T10:36:39Z</time>
      </trkpt>
      <trkpt lat="46.463848" lon="9.932396">
        <ele>1880.014</ele>
        <time>2022-07-11T10:36:40Z</time>
      </trkpt>
      <trkpt lat="46.463890" lon="9.932401">
        <ele>1880.082</ele>
        <time>2022-07-11T10:36:41Z</time>
      </trkpt>
      <trkpt lat="46.463941" lon="9.932402">
        <ele>1880.046</ele>
        <time>2022-07-11T10:36:42Z</time>
      </trkpt>
      <trkpt lat="46.463987" lon="9.932398">
        <ele>1880.053</ele>
        <time>2022-07-11T10:36:43Z</time>
      </trkpt>
      <trkpt lat="46.464033" lon="9.932389">
        <ele>1880.004</ele>
        <time>2022-07-11T10:36:44Z</time>
      </trkpt>
      <trkpt lat="46.464086" lon="9.932373">
        <ele>1880.014</ele>
        <time>2022-07-11T10:36:45Z</time>
      </trkpt>
      <trkpt lat="46.464133" lon="9.932349">
        <ele>1880.009</ele>
        <time>2022-07-11T10:36:46Z</time>
      </trkpt>
      <trkpt lat="46.464174" lon="9.932316">
        <ele>1880.036</ele>
        <time>2022-07-11T10:36:47Z</time>
      </trkpt>
      <trkpt lat="46.464213" lon="9.932271">
        <ele>1880.025</ele>
        <time>2022-07-11T10:36:48Z</time>
      </trkpt>
      <trkpt lat="46.464254" lon="9.932217">
        <ele>1880.063</ele>
        <time>2022-07-11T10:36:49Z</time>
      </trkpt>
      <trkpt lat="46.464913" lon="9.931445">
        <ele>1877.515</ele>
        <time>2022-07-11T10:37:04Z</time>
      </trkpt>
      <trkpt lat="46.465412" lon="9.930776">
        <ele>1877.121</ele>
        <time>2022-07-11T10:37:17Z</time>
      </trkpt>
      <trkpt lat="46.465820" lon="9.930146">
        <ele>1876.165</ele>
        <time>2022-07-11T10:37:29Z</time>
      </trkpt>
      <trkpt lat="46.465841" lon="9.930101">
        <ele>1875.686</ele>
        <time>2022-07-11T10:37:30Z</time>
      </trkpt>
      <trkpt lat="46.465862" lon="9.930069">
        <ele>1875.174</ele>
        <time>2022-07-11T10:37:31Z</time>
      </trkpt>
      <trkpt lat="46.465885" lon="9.930034">
        <ele>1875.168</ele>
        <time>2022-07-11T10:37:32Z</time>
      </trkpt>
      <trkpt lat="46.465911" lon="9.929991">
        <ele>1874.778</ele>
        <time>2022-07-11T10:37:33Z</time>
      </trkpt>
      <trkpt lat="46.465946" lon="9.929946">
        <ele>1874.233</ele>
        <time>2022-07-11T10:37:34Z</time>
      </trkpt>
      <trkpt lat="46.465991" lon="9.929896">
        <ele>1873.226</ele>
        <time>2022-07-11T10:37:35Z</time>
      </trkpt>
      <trkpt lat="46.466091" lon="9.929789">
        <ele>1872.309</ele>
        <time>2022-07-11T10:37:37Z</time>
      </trkpt>
      <trkpt lat="46.466254" lon="9.929619">
        <ele>1871.818</ele>
        <time>2022-07-11T10:37:40Z</time>
      </trkpt>
      <trkpt lat="46.466303" lon="9.929568">
        <ele>1871.867</ele>
        <time>2022-07-11T10:37:41Z</time>
      </trkpt>
      <trkpt lat="46.466817" lon="9.929096">
        <ele>1869.415</ele>
        <time>2022-07-11T10:37:51Z</time>
      </trkpt>
      <trkpt lat="46.467636" lon="9.928394">
        <ele>1867.997</ele>
        <time>2022-07-11T10:38:08Z</time>
      </trkpt>
      <trkpt lat="46.467758" lon="9.928256">
        <ele>1867.943</ele>
        <time>2022-07-11T10:38:11Z</time>
      </trkpt>
      <trkpt lat="46.468103" lon="9.927931">
        <ele>1867.927</ele>
        <time>2022-07-11T10:38:19Z</time>
      </trkpt>
      <trkpt lat="46.468186" lon="9.927819">
        <ele>1867.958</ele>
        <time>2022-07-11T10:38:21Z</time>
      </trkpt>
      <trkpt lat="46.468222" lon="9.927757">
        <ele>1867.086</ele>
        <time>2022-07-11T10:38:22Z</time>
      </trkpt>
      <trkpt lat="46.468471" lon="9.927300">
        <ele>1867.020</ele>
        <time>2022-07-11T10:38:29Z</time>
      </trkpt>
      <trkpt lat="46.468678" lon="9.926850">
        <ele>1866.077</ele>
        <time>2022-07-11T10:38:36Z</time>
      </trkpt>
      <trkpt lat="46.468940" lon="9.926417">
        <ele>1865.061</ele>
        <time>2022-07-11T10:38:44Z</time>
      </trkpt>
      <trkpt lat="46.469167" lon="9.926245">
        <ele>1865.027</ele>
        <time>2022-07-11T10:38:49Z</time>
      </trkpt>
      <trkpt lat="46.469260" lon="9.926219">
        <ele>1865.009</ele>
        <time>2022-07-11T10:38:51Z</time>
      </trkpt>
      <trkpt lat="46.469304" lon="9.926215">
        <ele>1865.018</ele>
        <time>2022-07-11T10:38:52Z</time>
      </trkpt>
      <trkpt lat="46.470009" lon="9.926380">
        <ele>1866.577</ele>
        <time>2022-07-11T10:39:07Z</time>
      </trkpt>
      <trkpt lat="46.470153" lon="9.926454">
        <ele>1866.545</ele>
        <time>2022-07-11T10:39:10Z</time>
      </trkpt>
      <trkpt lat="46.470191" lon="9.926486">
        <ele>1866.587</ele>
        <time>2022-07-11T10:39:11Z</time>
      </trkpt>
      <trkpt lat="46.470418" lon="9.926815">
        <ele>1868.913</ele>
        <time>2022-07-11T10:39:23Z</time>
      </trkpt>
      <trkpt lat="46.470454" lon="9.926829">
        <ele>1868.977</ele>
        <time>2022-07-11T10:39:25Z</time>
      </trkpt>
      <trkpt lat="46.470469" lon="9.926815">
        <ele>1868.968</ele>
        <time>2022-07-11T10:39:26Z</time>
      </trkpt>
      <trkpt lat="46.470474" lon="9.926792">
        <ele>1868.946</ele>
        <time>2022-07-11T10:39:27Z</time>
      </trkpt>
      <trkpt lat="46.470698" lon="9.926456">
        <ele>1867.520</ele>
        <time>2022-07-11T10:39:36Z</time>
      </trkpt>
      <trkpt lat="46.470832" lon="9.926278">
        <ele>1866.044</ele>
        <time>2022-07-11T10:39:39Z</time>
      </trkpt>
      <trkpt lat="46.470892" lon="9.926228">
        <ele>1865.505</ele>
        <time>2022-07-11T10:39:40Z</time>
      </trkpt>
      <trkpt lat="46.471022" lon="9.926141">
        <ele>1864.615</ele>
        <time>2022-07-11T10:39:42Z</time>
      </trkpt>
      <trkpt lat="46.471323" lon="9.925990">
        <ele>1861.209</ele>
        <time>2022-07-11T10:39:46Z</time>
      </trkpt>
      <trkpt lat="46.471469" lon="9.925919">
        <ele>1860.275</ele>
        <time>2022-07-11T10:39:48Z</time>
      </trkpt>
      <trkpt lat="46.472377" lon="9.925473">
        <ele>1859.334</ele>
        <time>2022-07-11T10:40:03Z</time>
      </trkpt>
      <trkpt lat="46.473086" lon="9.924865">
        <ele>1857.842</ele>
        <time>2022-07-11T10:40:19Z</time>
      </trkpt>
      <trkpt lat="46.473782" lon="9.924262">
        <ele>1858.374</ele>
        <time>2022-07-11T10:40:36Z</time>
      </trkpt>
      <trkpt lat="46.474050" lon="9.923907">
        <ele>1859.350</ele>
        <time>2022-07-11T10:40:46Z</time>
      </trkpt>
      <trkpt lat="46.474079" lon="9.923865">
        <ele>1859.334</ele>
        <time>2022-07-11T10:40:47Z</time>
      </trkpt>
      <trkpt lat="46.474225" lon="9.923655">
        <ele>1857.425</ele>
        <time>2022-07-11T10:40:51Z</time>
      </trkpt>
      <trkpt lat="46.474536" lon="9.923305">
        <ele>1855.973</ele>
        <time>2022-07-11T10:40:58Z</time>
      </trkpt>
      <trkpt lat="46.474979" lon="9.923072">
        <ele>1854.577</ele>
        <time>2022-07-11T10:41:07Z</time>
      </trkpt>
      <trkpt lat="46.475788" lon="9.922856">
        <ele>1854.065</ele>
        <time>2022-07-11T10:41:23Z</time>
      </trkpt>
      <trkpt lat="46.476525" lon="9.922511">
        <ele>1853.068</ele>
        <time>2022-07-11T10:41:39Z</time>
      </trkpt>
      <trkpt lat="46.476890" lon="9.922245">
        <ele>1854.514</ele>
        <time>2022-07-11T10:41:48Z</time>
      </trkpt>
      <trkpt lat="46.477002" lon="9.922135">
        <ele>1854.509</ele>
        <time>2022-07-11T10:41:51Z</time>
      </trkpt>
      <trkpt lat="46.477263" lon="9.921878">
        <ele>1854.587</ele>
        <time>2022-07-11T10:42:02Z</time>
      </trkpt>
      <trkpt lat="46.477286" lon="9.921892">
        <ele>1852.686</ele>
        <time>2022-07-11T10:42:18Z</time>
      </trkpt>
      <trkpt lat="46.477301" lon="9.921895">
        <ele>1852.664</ele>
        <time>2022-07-11T10:42:19Z</time>
      </trkpt>
      <trkpt lat="46.477318" lon="9.921895">
        <ele>1852.656</ele>
        <time>2022-07-11T10:42:20Z</time>
      </trkpt>
      <trkpt lat="46.477337" lon="9.921899">
        <ele>1852.662</ele>
        <time>2022-07-11T10:42:21Z</time>
      </trkpt>
      <trkpt lat="46.477358" lon="9.921902">
        <ele>1852.616</ele>
        <time>2022-07-11T10:42:22Z</time>
      </trkpt>
      <trkpt lat="46.477381" lon="9.921902">
        <ele>1852.667</ele>
        <time>2022-07-11T10:42:23Z</time>
      </trkpt>
      <trkpt lat="46.477407" lon="9.921898">
        <ele>1852.655</ele>
        <time>2022-07-11T10:42:24Z</time>
      </trkpt>
      <trkpt lat="46.477435" lon="9.921889">
        <ele>1852.689</ele>
        <time>2022-07-11T10:42:25Z</time>
      </trkpt>
      <trkpt lat="46.477469" lon="9.921871">
        <ele>1852.625</ele>
        <time>2022-07-11T10:42:26Z</time>
      </trkpt>
      <trkpt lat="46.477499" lon="9.921851">
        <ele>1852.626</ele>
        <time>2022-07-11T10:42:27Z</time>
      </trkpt>
      <trkpt lat="46.477576" lon="9.921786">
        <ele>1852.108</ele>
        <time>2022-07-11T10:42:29Z</time>
      </trkpt>
      <trkpt lat="46.478006" lon="9.921377">
        <ele>1850.609</ele>
        <time>2022-07-11T10:42:40Z</time>
      </trkpt>
      <trkpt lat="46.478468" lon="9.920878">
        <ele>1850.143</ele>
        <time>2022-07-11T10:42:53Z</time>
      </trkpt>
      <trkpt lat="46.478946" lon="9.920482">
        <ele>1849.282</ele>
        <time>2022-07-11T10:43:06Z</time>
      </trkpt>
      <trkpt lat="46.479544" lon="9.919817">
        <ele>1848.260</ele>
        <time>2022-07-11T10:43:24Z</time>
      </trkpt>
      <trkpt lat="46.479577" lon="9.919783">
        <ele>1848.262</ele>
        <time>2022-07-11T10:43:25Z</time>
      </trkpt>
      <trkpt lat="46.480103" lon="9.919202">
        <ele>1847.388</ele>
        <time>2022-07-11T10:43:39Z</time>
      </trkpt>
      <trkpt lat="46.480135" lon="9.919144">
        <ele>1847.382</ele>
        <time>2022-07-11T10:43:40Z</time>
      </trkpt>
      <trkpt lat="46.480158" lon="9.919090">
        <ele>1846.873</ele>
        <time>2022-07-11T10:43:41Z</time>
      </trkpt>
      <trkpt lat="46.480304" lon="9.918353">
        <ele>1846.881</ele>
        <time>2022-07-11T10:43:52Z</time>
      </trkpt>
      <trkpt lat="46.480321" lon="9.918300">
        <ele>1846.835</ele>
        <time>2022-07-11T10:43:53Z</time>
      </trkpt>
      <trkpt lat="46.480345" lon="9.918250">
        <ele>1846.831</ele>
        <time>2022-07-11T10:43:54Z</time>
      </trkpt>
      <trkpt lat="46.480371" lon="9.918203">
        <ele>1846.861</ele>
        <time>2022-07-11T10:43:55Z</time>
      </trkpt>
      <trkpt lat="46.480399" lon="9.918154">
        <ele>1846.807</ele>
        <time>2022-07-11T10:43:56Z</time>
      </trkpt>
      <trkpt lat="46.480730" lon="9.917399">
        <ele>1845.809</ele>
        <time>2022-07-11T10:44:08Z</time>
      </trkpt>
      <trkpt lat="46.480817" lon="9.917132">
        <ele>1845.344</ele>
        <time>2022-07-11T10:44:12Z</time>
      </trkpt>
      <trkpt lat="46.480851" lon="9.917089">
        <ele>1845.323</ele>
        <time>2022-07-11T10:44:13Z</time>
      </trkpt>
      <trkpt lat="46.480883" lon="9.917060">
        <ele>1845.311</ele>
        <time>2022-07-11T10:44:14Z</time>
      </trkpt>
      <trkpt lat="46.480965" lon="9.917001">
        <ele>1848.283</ele>
        <time>2022-07-11T10:44:18Z</time>
      </trkpt>
      <trkpt lat="46.481100" lon="9.916991">
        <ele>1851.639</ele>
        <time>2022-07-11T10:44:32Z</time>
      </trkpt>
      <trkpt lat="46.481225" lon="9.917002">
        <ele>1853.513</ele>
        <time>2022-07-11T10:44:48Z</time>
      </trkpt>
      <trkpt lat="46.481234" lon="9.916995">
        <ele>1853.514</ele>
        <time>2022-07-11T10:44:49Z</time>
      </trkpt>
      <trkpt lat="46.481306" lon="9.916865">
        <ele>1852.662</ele>
        <time>2022-07-11T10:44:53Z</time>
      </trkpt>
      <trkpt lat="46.481505" lon="9.916473">
        <ele>1851.136</ele>
        <time>2022-07-11T10:45:00Z</time>
      </trkpt>
      <trkpt lat="46.481543" lon="9.916324">
        <ele>1850.199</ele>
        <time>2022-07-11T10:45:02Z</time>
      </trkpt>
      <trkpt lat="46.481707" lon="9.915914">
        <ele>1850.107</ele>
        <time>2022-07-11T10:45:08Z</time>
      </trkpt>
      <trkpt lat="46.481742" lon="9.915773">
        <ele>1849.727</ele>
        <time>2022-07-11T10:45:10Z</time>
      </trkpt>
      <trkpt lat="46.482011" lon="9.915223">
        <ele>1849.709</ele>
        <time>2022-07-11T10:45:20Z</time>
      </trkpt>
      <trkpt lat="46.482115" lon="9.915000">
        <ele>1847.720</ele>
        <time>2022-07-11T10:45:24Z</time>
      </trkpt>
      <trkpt lat="46.482320" lon="9.914782">
        <ele>1846.849</ele>
        <time>2022-07-11T10:45:33Z</time>
      </trkpt>
      <trkpt lat="46.482766" lon="9.914457">
        <ele>1846.897</ele>
        <time>2022-07-11T10:45:47Z</time>
      </trkpt>
      <trkpt lat="46.482808" lon="9.914422">
        <ele>1846.839</ele>
        <time>2022-07-11T10:45:48Z</time>
      </trkpt>
      <trkpt lat="46.482849" lon="9.914377">
        <ele>1846.375</ele>
        <time>2022-07-11T10:45:49Z</time>
      </trkpt>
      <trkpt lat="46.482887" lon="9.914327">
        <ele>1846.379</ele>
        <time>2022-07-11T10:45:50Z</time>
      </trkpt>
      <trkpt lat="46.483192" lon="9.913823">
        <ele>1844.410</ele>
        <time>2022-07-11T10:45:58Z</time>
      </trkpt>
      <trkpt lat="46.483217" lon="9.913739">
        <ele>1843.498</ele>
        <time>2022-07-11T10:45:59Z</time>
      </trkpt>
      <trkpt lat="46.483238" lon="9.913649">
        <ele>1843.422</ele>
        <time>2022-07-11T10:46:00Z</time>
      </trkpt>
      <trkpt lat="46.483255" lon="9.913553">
        <ele>1842.917</ele>
        <time>2022-07-11T10:46:01Z</time>
      </trkpt>
      <trkpt lat="46.483271" lon="9.913463">
        <ele>1841.087</ele>
        <time>2022-07-11T10:46:02Z</time>
      </trkpt>
      <trkpt lat="46.483288" lon="9.913365">
        <ele>1841.015</ele>
        <time>2022-07-11T10:46:03Z</time>
      </trkpt>
      <trkpt lat="46.483545" lon="9.912485">
        <ele>1841.009</ele>
        <time>2022-07-11T10:46:15Z</time>
      </trkpt>
      <trkpt lat="46.483857" lon="9.912018">
        <ele>1842.572</ele>
        <time>2022-07-11T10:46:26Z</time>
      </trkpt>
      <trkpt lat="46.483885" lon="9.911979">
        <ele>1842.571</ele>
        <time>2022-07-11T10:46:27Z</time>
      </trkpt>
      <trkpt lat="46.483907" lon="9.911938">
        <ele>1842.919</ele>
        <time>2022-07-11T10:46:28Z</time>
      </trkpt>
      <trkpt lat="46.483925" lon="9.911894">
        <ele>1842.971</ele>
        <time>2022-07-11T10:46:29Z</time>
      </trkpt>
      <trkpt lat="46.483942" lon="9.911857">
        <ele>1842.957</ele>
        <time>2022-07-11T10:46:30Z</time>
      </trkpt>
      <trkpt lat="46.484068" lon="9.911582">
        <ele>1842.021</ele>
        <time>2022-07-11T10:46:37Z</time>
      </trkpt>
      <trkpt lat="46.484084" lon="9.911535">
        <ele>1841.542</ele>
        <time>2022-07-11T10:46:38Z</time>
      </trkpt>
      <trkpt lat="46.484164" lon="9.911305">
        <ele>1839.620</ele>
        <time>2022-07-11T10:46:41Z</time>
      </trkpt>
      <trkpt lat="46.484205" lon="9.911243">
        <ele>1839.644</ele>
        <time>2022-07-11T10:46:42Z</time>
      </trkpt>
      <trkpt lat="46.484677" lon="9.910551">
        <ele>1839.122</ele>
        <time>2022-07-11T10:46:55Z</time>
      </trkpt>
      <trkpt lat="46.485229" lon="9.909577">
        <ele>1837.762</ele>
        <time>2022-07-11T10:47:13Z</time>
      </trkpt>
      <trkpt lat="46.485856" lon="9.908332">
        <ele>1834.808</ele>
        <time>2022-07-11T10:47:33Z</time>
      </trkpt>
      <trkpt lat="46.486344" lon="9.907345">
        <ele>1830.909</ele>
        <time>2022-07-11T10:47:47Z</time>
      </trkpt>
      <trkpt lat="46.486929" lon="9.906186">
        <ele>1828.043</ele>
        <time>2022-07-11T10:48:03Z</time>
      </trkpt>
      <trkpt lat="46.487180" lon="9.905696">
        <ele>1827.642</ele>
        <time>2022-07-11T10:48:13Z</time>
      </trkpt>
      <trkpt lat="46.487487" lon="9.905171">
        <ele>1825.640</ele>
        <time>2022-07-11T10:48:27Z</time>
      </trkpt>
      <trkpt lat="46.487608" lon="9.904965">
        <ele>1825.242</ele>
        <time>2022-07-11T10:48:31Z</time>
      </trkpt>
      <trkpt lat="46.488060" lon="9.904415">
        <ele>1822.388</ele>
        <time>2022-07-11T10:48:41Z</time>
      </trkpt>
      <trkpt lat="46.488486" lon="9.904017">
        <ele>1818.962</ele>
        <time>2022-07-11T10:48:48Z</time>
      </trkpt>
      <trkpt lat="46.489034" lon="9.903565">
        <ele>1815.523</ele>
        <time>2022-07-11T10:48:56Z</time>
      </trkpt>
      <trkpt lat="46.489473" lon="9.903155">
        <ele>1812.731</ele>
        <time>2022-07-11T10:49:03Z</time>
      </trkpt>
      <trkpt lat="46.489641" lon="9.902971">
        <ele>1811.235</ele>
        <time>2022-07-11T10:49:06Z</time>
      </trkpt>
      <trkpt lat="46.489954" lon="9.902581">
        <ele>1807.958</ele>
        <time>2022-07-11T10:49:12Z</time>
      </trkpt>
      <trkpt lat="46.490060" lon="9.902422">
        <ele>1806.952</ele>
        <time>2022-07-11T10:49:14Z</time>
      </trkpt>
      <trkpt lat="46.490283" lon="9.902066">
        <ele>1805.017</ele>
        <time>2022-07-11T10:49:18Z</time>
      </trkpt>
      <trkpt lat="46.490528" lon="9.901592">
        <ele>1801.609</ele>
        <time>2022-07-11T10:49:23Z</time>
      </trkpt>
      <trkpt lat="46.490803" lon="9.900989">
        <ele>1798.726</ele>
        <time>2022-07-11T10:49:29Z</time>
      </trkpt>
      <trkpt lat="46.491141" lon="9.899918">
        <ele>1795.455</ele>
        <time>2022-07-11T10:49:41Z</time>
      </trkpt>
      <trkpt lat="46.491323" lon="9.899151">
        <ele>1793.063</ele>
        <time>2022-07-11T10:49:49Z</time>
      </trkpt>
      <trkpt lat="46.491361" lon="9.899061">
        <ele>1793.035</ele>
        <time>2022-07-11T10:49:50Z</time>
      </trkpt>
      <trkpt lat="46.491402" lon="9.898981">
        <ele>1793.081</ele>
        <time>2022-07-11T10:49:51Z</time>
      </trkpt>
      <trkpt lat="46.491439" lon="9.898898">
        <ele>1792.595</ele>
        <time>2022-07-11T10:49:52Z</time>
      </trkpt>
      <trkpt lat="46.491456" lon="9.898811">
        <ele>1792.546</ele>
        <time>2022-07-11T10:49:53Z</time>
      </trkpt>
      <trkpt lat="46.491443" lon="9.898722">
        <ele>1792.064</ele>
        <time>2022-07-11T10:49:54Z</time>
      </trkpt>
      <trkpt lat="46.491402" lon="9.898652">
        <ele>1792.068</ele>
        <time>2022-07-11T10:49:55Z</time>
      </trkpt>
      <trkpt lat="46.491341" lon="9.898621">
        <ele>1792.086</ele>
        <time>2022-07-11T10:49:56Z</time>
      </trkpt>
      <trkpt lat="46.491292" lon="9.898620">
        <ele>1792.060</ele>
        <time>2022-07-11T10:49:57Z</time>
      </trkpt>
      <trkpt lat="46.491237" lon="9.898623">
        <ele>1792.026</ele>
        <time>2022-07-11T10:49:58Z</time>
      </trkpt>
      <trkpt lat="46.491190" lon="9.898610">
        <ele>1792.009</ele>
        <time>2022-07-11T10:49:59Z</time>
      </trkpt>
      <trkpt lat="46.491147" lon="9.898584">
        <ele>1792.079</ele>
        <time>2022-07-11T10:50:00Z</time>
      </trkpt>
      <trkpt lat="46.491106" lon="9.898550">
        <ele>1792.058</ele>
        <time>2022-07-11T10:50:01Z</time>
      </trkpt>
      <trkpt lat="46.491070" lon="9.898516">
        <ele>1792.016</ele>
        <time>2022-07-11T10:50:02Z</time>
      </trkpt>
      <trkpt lat="46.491037" lon="9.898481">
        <ele>1792.058</ele>
        <time>2022-07-11T10:50:03Z</time>
      </trkpt>
      <trkpt lat="46.490944" lon="9.898392">
        <ele>1793.094</ele>
        <time>2022-07-11T10:50:06Z</time>
      </trkpt>
      <trkpt lat="46.490572" lon="9.898371">
        <ele>1795.458</ele>
        <time>2022-07-11T10:50:19Z</time>
      </trkpt>
      <trkpt lat="46.490409" lon="9.898226">
        <ele>1795.849</ele>
        <time>2022-07-11T10:50:26Z</time>
      </trkpt>
      <trkpt lat="46.490396" lon="9.898171">
        <ele>1794.467</ele>
        <time>2022-07-11T10:50:27Z</time>
      </trkpt>
      <trkpt lat="46.490388" lon="9.898106">
        <ele>1794.491</ele>
        <time>2022-07-11T10:50:28Z</time>
      </trkpt>
      <trkpt lat="46.490282" lon="9.897270">
        <ele>1791.549</ele>
        <time>2022-07-11T10:50:40Z</time>
      </trkpt>
      <trkpt lat="46.490286" lon="9.897198">
        <ele>1790.502</ele>
        <time>2022-07-11T10:50:41Z</time>
      </trkpt>
      <trkpt lat="46.490293" lon="9.897130">
        <ele>1790.522</ele>
        <time>2022-07-11T10:50:42Z</time>
      </trkpt>
      <trkpt lat="46.490308" lon="9.897065">
        <ele>1790.509</ele>
        <time>2022-07-11T10:50:43Z</time>
      </trkpt>
      <trkpt lat="46.490331" lon="9.897009">
        <ele>1790.595</ele>
        <time>2022-07-11T10:50:44Z</time>
      </trkpt>
      <trkpt lat="46.490363" lon="9.896964">
        <ele>1790.594</ele>
        <time>2022-07-11T10:50:45Z</time>
      </trkpt>
      <trkpt lat="46.490398" lon="9.896927">
        <ele>1790.512</ele>
        <time>2022-07-11T10:50:46Z</time>
      </trkpt>
      <trkpt lat="46.490433" lon="9.896895">
        <ele>1790.524</ele>
        <time>2022-07-11T10:50:47Z</time>
      </trkpt>
      <trkpt lat="46.490812" lon="9.896500">
        <ele>1790.590</ele>
        <time>2022-07-11T10:50:59Z</time>
      </trkpt>
      <trkpt lat="46.491019" lon="9.896277">
        <ele>1790.584</ele>
        <time>2022-07-11T10:51:06Z</time>
      </trkpt>
      <trkpt lat="46.491029" lon="9.896236">
        <ele>1790.525</ele>
        <time>2022-07-11T10:51:07Z</time>
      </trkpt>
      <trkpt lat="46.491033" lon="9.896194">
        <ele>1790.553</ele>
        <time>2022-07-11T10:51:08Z</time>
      </trkpt>
      <trkpt lat="46.491031" lon="9.896156">
        <ele>1790.577</ele>
        <time>2022-07-11T10:51:09Z</time>
      </trkpt>
      <trkpt lat="46.491026" lon="9.896118">
        <ele>1790.542</ele>
        <time>2022-07-11T10:51:10Z</time>
      </trkpt>
      <trkpt lat="46.491012" lon="9.896063">
        <ele>1790.522</ele>
        <time>2022-07-11T10:51:19Z</time>
      </trkpt>
      <trkpt lat="46.491035" lon="9.896042">
        <ele>1790.514</ele>
        <time>2022-07-11T10:51:43Z</time>
      </trkpt>
      <trkpt lat="46.491043" lon="9.896031">
        <ele>1790.509</ele>
        <time>2022-07-11T10:52:04Z</time>
      </trkpt>
      <trkpt lat="46.491026" lon="9.896035">
        <ele>1790.155</ele>
        <time>2022-07-11T10:52:23Z</time>
      </trkpt>
      <trkpt lat="46.491010" lon="9.896068">
        <ele>1791.594</ele>
        <time>2022-07-11T10:52:40Z</time>
      </trkpt>
      <trkpt lat="46.491006" lon="9.896076">
        <ele>1787.762</ele>
        <time>2022-07-11T10:52:47Z</time>
      </trkpt>
      <trkpt lat="46.491082" lon="9.896016">
        <ele>1791.074</ele>
        <time>2022-07-11T10:53:57Z</time>
      </trkpt>
      <trkpt lat="46.491078" lon="9.896031">
        <ele>1791.080</ele>
        <time>2022-07-11T10:53:58Z</time>
      </trkpt>
      <trkpt lat="46.491034" lon="9.896213">
        <ele>1791.014</ele>
        <time>2022-07-11T10:54:13Z</time>
      </trkpt>
      <trkpt lat="46.491030" lon="9.896198">
        <ele>1791.035</ele>
        <time>2022-07-11T10:54:31Z</time>
      </trkpt>
      <trkpt lat="46.491047" lon="9.896097">
        <ele>1791.033</ele>
        <time>2022-07-11T10:54:55Z</time>
      </trkpt>
      <trkpt lat="46.491075" lon="9.896024">
        <ele>1791.027</ele>
        <time>2022-07-11T10:55:15Z</time>
      </trkpt>
      <trkpt lat="46.491064" lon="9.896051">
        <ele>1791.087</ele>
        <time>2022-07-11T10:55:29Z</time>
      </trkpt>
      <trkpt lat="46.491079" lon="9.896052">
        <ele>1791.042</ele>
        <time>2022-07-11T10:55:31Z</time>
      </trkpt>
      <trkpt lat="46.491330" lon="9.896021">
        <ele>1791.026</ele>
        <time>2022-07-11T10:55:42Z</time>
      </trkpt>
      <trkpt lat="46.491889" lon="9.895479">
        <ele>1790.509</ele>
        <time>2022-07-11T10:56:00Z</time>
      </trkpt>
      <trkpt lat="46.492373" lon="9.894863">
        <ele>1790.569</ele>
        <time>2022-07-11T10:56:17Z</time>
      </trkpt>
      <trkpt lat="46.492904" lon="9.894187">
        <ele>1789.118</ele>
        <time>2022-07-11T10:56:34Z</time>
      </trkpt>
      <trkpt lat="46.492942" lon="9.894154">
        <ele>1789.116</ele>
        <time>2022-07-11T10:56:35Z</time>
      </trkpt>
      <trkpt lat="46.493304" lon="9.893905">
        <ele>1786.228</ele>
        <time>2022-07-11T10:56:43Z</time>
      </trkpt>
      <trkpt lat="46.493453" lon="9.893649">
        <ele>1783.834</ele>
        <time>2022-07-11T10:56:51Z</time>
      </trkpt>
      <trkpt lat="46.493375" lon="9.893463">
        <ele>1783.868</ele>
        <time>2022-07-11T10:56:57Z</time>
      </trkpt>
      <trkpt lat="46.493373" lon="9.893429">
        <ele>1783.869</ele>
        <time>2022-07-11T10:56:58Z</time>
      </trkpt>
      <trkpt lat="46.493379" lon="9.893396">
        <ele>1783.877</ele>
        <time>2022-07-11T10:56:59Z</time>
      </trkpt>
      <trkpt lat="46.493391" lon="9.893372">
        <ele>1783.891</ele>
        <time>2022-07-11T10:57:00Z</time>
      </trkpt>
      <trkpt lat="46.493404" lon="9.893359">
        <ele>1784.875</ele>
        <time>2022-07-11T10:57:01Z</time>
      </trkpt>
      <trkpt lat="46.493421" lon="9.893342">
        <ele>1784.828</ele>
        <time>2022-07-11T10:57:02Z</time>
      </trkpt>
      <trkpt lat="46.493812" lon="9.892877">
        <ele>1786.220</ele>
        <time>2022-07-11T10:57:20Z</time>
      </trkpt>
      <trkpt lat="46.493971" lon="9.892681">
        <ele>1784.809</ele>
        <time>2022-07-11T10:57:25Z</time>
      </trkpt>
      <trkpt lat="46.494589" lon="9.891964">
        <ele>1782.978</ele>
        <time>2022-07-11T10:57:43Z</time>
      </trkpt>
      <trkpt lat="46.495310" lon="9.891335">
        <ele>1780.527</ele>
        <time>2022-07-11T10:57:59Z</time>
      </trkpt>
      <trkpt lat="46.495909" lon="9.890813">
        <ele>1780.545</ele>
        <time>2022-07-11T10:58:14Z</time>
      </trkpt>
      <trkpt lat="46.496108" lon="9.890606">
        <ele>1781.947</ele>
        <time>2022-07-11T10:58:21Z</time>
      </trkpt>
      <trkpt lat="46.496302" lon="9.890344">
        <ele>1783.813</ele>
        <time>2022-07-11T10:58:33Z</time>
      </trkpt>
      <trkpt lat="46.496302" lon="9.890314">
        <ele>1783.897</ele>
        <time>2022-07-11T10:58:34Z</time>
      </trkpt>
      <trkpt lat="46.496296" lon="9.890285">
        <ele>1783.868</ele>
        <time>2022-07-11T10:58:35Z</time>
      </trkpt>
      <trkpt lat="46.496286" lon="9.890259">
        <ele>1783.846</ele>
        <time>2022-07-11T10:58:36Z</time>
      </trkpt>
      <trkpt lat="46.496277" lon="9.890226">
        <ele>1784.380</ele>
        <time>2022-07-11T10:58:37Z</time>
      </trkpt>
      <trkpt lat="46.496275" lon="9.890190">
        <ele>1784.385</ele>
        <time>2022-07-11T10:58:38Z</time>
      </trkpt>
      <trkpt lat="46.496272" lon="9.890156">
        <ele>1784.389</ele>
        <time>2022-07-11T10:58:39Z</time>
      </trkpt>
      <trkpt lat="46.496273" lon="9.890130">
        <ele>1784.317</ele>
        <time>2022-07-11T10:58:40Z</time>
      </trkpt>
      <trkpt lat="46.496284" lon="9.890111">
        <ele>1784.309</ele>
        <time>2022-07-11T10:58:41Z</time>
      </trkpt>
      <trkpt lat="46.496298" lon="9.890095">
        <ele>1784.339</ele>
        <time>2022-07-11T10:58:42Z</time>
      </trkpt>
      <trkpt lat="46.496316" lon="9.890080">
        <ele>1784.398</ele>
        <time>2022-07-11T10:58:43Z</time>
      </trkpt>
      <trkpt lat="46.496338" lon="9.890065">
        <ele>1784.346</ele>
        <time>2022-07-11T10:58:44Z</time>
      </trkpt>
      <trkpt lat="46.496649" lon="9.889550">
        <ele>1781.428</ele>
        <time>2022-07-11T10:58:57Z</time>
      </trkpt>
      <trkpt lat="46.496654" lon="9.889145">
        <ele>1783.814</ele>
        <time>2022-07-11T10:59:08Z</time>
      </trkpt>
      <trkpt lat="46.496638" lon="9.888729">
        <ele>1785.358</ele>
        <time>2022-07-11T10:59:23Z</time>
      </trkpt>
      <trkpt lat="46.496624" lon="9.888375">
        <ele>1787.749</ele>
        <time>2022-07-11T10:59:38Z</time>
      </trkpt>
      <trkpt lat="46.496706" lon="9.888005">
        <ele>1788.687</ele>
        <time>2022-07-11T10:59:52Z</time>
      </trkpt>
      <trkpt lat="46.496842" lon="9.887558">
        <ele>1789.111</ele>
        <time>2022-07-11T11:00:05Z</time>
      </trkpt>
      <trkpt lat="46.496994" lon="9.887357">
        <ele>1791.067</ele>
        <time>2022-07-11T11:00:15Z</time>
      </trkpt>
      <trkpt lat="46.497293" lon="9.887130">
        <ele>1792.581</ele>
        <time>2022-07-11T11:00:30Z</time>
      </trkpt>
      <trkpt lat="46.497514" lon="9.886811">
        <ele>1792.519</ele>
        <time>2022-07-11T11:00:41Z</time>
      </trkpt>
      <trkpt lat="46.497591" lon="9.886312">
        <ele>1792.509</ele>
        <time>2022-07-11T11:00:54Z</time>
      </trkpt>
      <trkpt lat="46.497503" lon="9.885966">
        <ele>1794.437</ele>
        <time>2022-07-11T11:01:07Z</time>
      </trkpt>
      <trkpt lat="46.497406" lon="9.885520">
        <ele>1796.366</ele>
        <time>2022-07-11T11:01:23Z</time>
      </trkpt>
      <trkpt lat="46.497409" lon="9.885250">
        <ele>1797.364</ele>
        <time>2022-07-11T11:01:34Z</time>
      </trkpt>
      <trkpt lat="46.497411" lon="9.885228">
        <ele>1797.326</ele>
        <time>2022-07-11T11:01:35Z</time>
      </trkpt>
      <trkpt lat="46.497365" lon="9.884866">
        <ele>1800.682</ele>
        <time>2022-07-11T11:01:51Z</time>
      </trkpt>
      <trkpt lat="46.497324" lon="9.884677">
        <ele>1801.636</ele>
        <time>2022-07-11T11:02:00Z</time>
      </trkpt>
      <trkpt lat="46.497322" lon="9.884662">
        <ele>1801.687</ele>
        <time>2022-07-11T11:02:01Z</time>
      </trkpt>
      <trkpt lat="46.497311" lon="9.884419">
        <ele>1803.075</ele>
        <time>2022-07-11T11:02:14Z</time>
      </trkpt>
      <trkpt lat="46.497316" lon="9.884380">
        <ele>1803.039</ele>
        <time>2022-07-11T11:02:16Z</time>
      </trkpt>
      <trkpt lat="46.497321" lon="9.884357">
        <ele>1803.089</ele>
        <time>2022-07-11T11:02:17Z</time>
      </trkpt>
      <trkpt lat="46.497326" lon="9.884333">
        <ele>1803.006</ele>
        <time>2022-07-11T11:02:18Z</time>
      </trkpt>
      <trkpt lat="46.497329" lon="9.884312">
        <ele>1803.026</ele>
        <time>2022-07-11T11:02:19Z</time>
      </trkpt>
      <trkpt lat="46.497329" lon="9.884276">
        <ele>1803.009</ele>
        <time>2022-07-11T11:02:21Z</time>
      </trkpt>
      <trkpt lat="46.497344" lon="9.884211">
        <ele>1805.099</ele>
        <time>2022-07-11T11:02:24Z</time>
      </trkpt>
      <trkpt lat="46.497356" lon="9.884084">
        <ele>1805.088</ele>
        <time>2022-07-11T11:02:31Z</time>
      </trkpt>
      <trkpt lat="46.497372" lon="9.883833">
        <ele>1806.456</ele>
        <time>2022-07-11T11:02:46Z</time>
      </trkpt>
      <trkpt lat="46.497368" lon="9.883727">
        <ele>1807.448</ele>
        <time>2022-07-11T11:02:53Z</time>
      </trkpt>
      <trkpt lat="46.497381" lon="9.883509">
        <ele>1809.394</ele>
        <time>2022-07-11T11:03:05Z</time>
      </trkpt>
      <trkpt lat="46.497423" lon="9.883332">
        <ele>1810.398</ele>
        <time>2022-07-11T11:03:15Z</time>
      </trkpt>
      <trkpt lat="46.497483" lon="9.883135">
        <ele>1811.229</ele>
        <time>2022-07-11T11:03:28Z</time>
      </trkpt>
      <trkpt lat="46.497593" lon="9.882892">
        <ele>1812.727</ele>
        <time>2022-07-11T11:03:41Z</time>
      </trkpt>
      <trkpt lat="46.497643" lon="9.882784">
        <ele>1813.611</ele>
        <time>2022-07-11T11:03:49Z</time>
      </trkpt>
      <trkpt lat="46.497749" lon="9.882437">
        <ele>1816.091</ele>
        <time>2022-07-11T11:04:06Z</time>
      </trkpt>
      <trkpt lat="46.497775" lon="9.882356">
        <ele>1816.081</ele>
        <time>2022-07-11T11:04:11Z</time>
      </trkpt>
      <trkpt lat="46.497783" lon="9.882343">
        <ele>1816.519</ele>
        <time>2022-07-11T11:04:12Z</time>
      </trkpt>
      <trkpt lat="46.497892" lon="9.882053">
        <ele>1817.909</ele>
        <time>2022-07-11T11:04:27Z</time>
      </trkpt>
      <trkpt lat="46.497952" lon="9.881721">
        <ele>1820.370</ele>
        <time>2022-07-11T11:04:44Z</time>
      </trkpt>
      <trkpt lat="46.498031" lon="9.881496">
        <ele>1822.389</ele>
        <time>2022-07-11T11:04:57Z</time>
      </trkpt>
      <trkpt lat="46.498040" lon="9.881486">
        <ele>1822.317</ele>
        <time>2022-07-11T11:04:58Z</time>
      </trkpt>
      <trkpt lat="46.498048" lon="9.881477">
        <ele>1822.359</ele>
        <time>2022-07-11T11:04:59Z</time>
      </trkpt>
      <trkpt lat="46.498053" lon="9.881465">
        <ele>1822.875</ele>
        <time>2022-07-11T11:05:00Z</time>
      </trkpt>
      <trkpt lat="46.498061" lon="9.881455">
        <ele>1822.889</ele>
        <time>2022-07-11T11:05:01Z</time>
      </trkpt>
      <trkpt lat="46.498070" lon="9.881443">
        <ele>1822.830</ele>
        <time>2022-07-11T11:05:02Z</time>
      </trkpt>
      <trkpt lat="46.498085" lon="9.881436">
        <ele>1822.848</ele>
        <time>2022-07-11T11:05:03Z</time>
      </trkpt>
      <trkpt lat="46.498104" lon="9.881432">
        <ele>1822.862</ele>
        <time>2022-07-11T11:05:04Z</time>
      </trkpt>
      <trkpt lat="46.498121" lon="9.881425">
        <ele>1823.242</ele>
        <time>2022-07-11T11:05:05Z</time>
      </trkpt>
      <trkpt lat="46.498139" lon="9.881417">
        <ele>1823.222</ele>
        <time>2022-07-11T11:05:06Z</time>
      </trkpt>
      <trkpt lat="46.498156" lon="9.881409">
        <ele>1823.214</ele>
        <time>2022-07-11T11:05:07Z</time>
      </trkpt>
      <trkpt lat="46.498174" lon="9.881401">
        <ele>1823.209</ele>
        <time>2022-07-11T11:05:08Z</time>
      </trkpt>
      <trkpt lat="46.498192" lon="9.881391">
        <ele>1823.275</ele>
        <time>2022-07-11T11:05:09Z</time>
      </trkpt>
      <trkpt lat="46.498208" lon="9.881381">
        <ele>1823.244</ele>
        <time>2022-07-11T11:05:10Z</time>
      </trkpt>
      <trkpt lat="46.498225" lon="9.881369">
        <ele>1823.262</ele>
        <time>2022-07-11T11:05:11Z</time>
      </trkpt>
      <trkpt lat="46.498242" lon="9.881358">
        <ele>1823.274</ele>
        <time>2022-07-11T11:05:12Z</time>
      </trkpt>
      <trkpt lat="46.498425" lon="9.881188">
        <ele>1825.690</ele>
        <time>2022-07-11T11:05:25Z</time>
      </trkpt>
      <trkpt lat="46.498578" lon="9.880959">
        <ele>1823.714</ele>
        <time>2022-07-11T11:05:38Z</time>
      </trkpt>
      <trkpt lat="46.498657" lon="9.880884">
        <ele>1825.295</ele>
        <time>2022-07-11T11:05:43Z</time>
      </trkpt>
      <trkpt lat="46.498909" lon="9.880675">
        <ele>1826.183</ele>
        <time>2022-07-11T11:05:58Z</time>
      </trkpt>
      <trkpt lat="46.498920" lon="9.880660">
        <ele>1826.127</ele>
        <time>2022-07-11T11:05:59Z</time>
      </trkpt>
      <trkpt lat="46.499191" lon="9.880408">
        <ele>1826.648</ele>
        <time>2022-07-11T11:06:14Z</time>
      </trkpt>
      <trkpt lat="46.499441" lon="9.880164">
        <ele>1827.161</ele>
        <time>2022-07-11T11:06:27Z</time>
      </trkpt>
      <trkpt lat="46.499503" lon="9.880079">
        <ele>1828.517</ele>
        <time>2022-07-11T11:06:31Z</time>
      </trkpt>
      <trkpt lat="46.499768" lon="9.879794">
        <ele>1828.509</ele>
        <time>2022-07-11T11:06:46Z</time>
      </trkpt>
      <trkpt lat="46.500084" lon="9.879431">
        <ele>1830.085</ele>
        <time>2022-07-11T11:07:02Z</time>
      </trkpt>
      <trkpt lat="46.500177" lon="9.879341">
        <ele>1828.024</ele>
        <time>2022-07-11T11:07:06Z</time>
      </trkpt>
      <trkpt lat="46.500273" lon="9.879246">
        <ele>1827.152</ele>
        <time>2022-07-11T11:07:09Z</time>
      </trkpt>
      <trkpt lat="46.500304" lon="9.879200">
        <ele>1827.134</ele>
        <time>2022-07-11T11:07:10Z</time>
      </trkpt>
      <trkpt lat="46.500332" lon="9.879152">
        <ele>1827.170</ele>
        <time>2022-07-11T11:07:11Z</time>
      </trkpt>
      <trkpt lat="46.500410" lon="9.879023">
        <ele>1826.644</ele>
        <time>2022-07-11T11:07:14Z</time>
      </trkpt>
      <trkpt lat="46.500450" lon="9.878974">
        <ele>1826.615</ele>
        <time>2022-07-11T11:07:15Z</time>
      </trkpt>
      <trkpt lat="46.500487" lon="9.878938">
        <ele>1826.193</ele>
        <time>2022-07-11T11:07:16Z</time>
      </trkpt>
      <trkpt lat="46.500539" lon="9.878897">
        <ele>1826.147</ele>
        <time>2022-07-11T11:07:17Z</time>
      </trkpt>
      <trkpt lat="46.500587" lon="9.878868">
        <ele>1825.261</ele>
        <time>2022-07-11T11:07:18Z</time>
      </trkpt>
      <trkpt lat="46.500655" lon="9.878837">
        <ele>1825.221</ele>
        <time>2022-07-11T11:07:19Z</time>
      </trkpt>
      <trkpt lat="46.500901" lon="9.878723">
        <ele>1821.313</ele>
        <time>2022-07-11T11:07:23Z</time>
      </trkpt>
      <trkpt lat="46.501013" lon="9.878647">
        <ele>1819.909</ele>
        <time>2022-07-11T11:07:25Z</time>
      </trkpt>
      <trkpt lat="46.501072" lon="9.878576">
        <ele>1819.937</ele>
        <time>2022-07-11T11:07:26Z</time>
      </trkpt>
      <trkpt lat="46.501242" lon="9.878348">
        <ele>1817.056</ele>
        <time>2022-07-11T11:07:29Z</time>
      </trkpt>
      <trkpt lat="46.501307" lon="9.878284">
        <ele>1816.024</ele>
        <time>2022-07-11T11:07:30Z</time>
      </trkpt>
      <trkpt lat="46.501449" lon="9.878144">
        <ele>1815.126</ele>
        <time>2022-07-11T11:07:32Z</time>
      </trkpt>
      <trkpt lat="46.501566" lon="9.878008">
        <ele>1814.682</ele>
        <time>2022-07-11T11:07:34Z</time>
      </trkpt>
      <trkpt lat="46.501621" lon="9.877943">
        <ele>1814.686</ele>
        <time>2022-07-11T11:07:35Z</time>
      </trkpt>
      <trkpt lat="46.501684" lon="9.877878">
        <ele>1813.697</ele>
        <time>2022-07-11T11:07:36Z</time>
      </trkpt>
      <trkpt lat="46.501763" lon="9.877795">
        <ele>1812.775</ele>
        <time>2022-07-11T11:07:37Z</time>
      </trkpt>
      <trkpt lat="46.501820" lon="9.877723">
        <ele>1811.719</ele>
        <time>2022-07-11T11:07:38Z</time>
      </trkpt>
      <trkpt lat="46.501891" lon="9.877614">
        <ele>1811.211</ele>
        <time>2022-07-11T11:07:39Z</time>
      </trkpt>
      <trkpt lat="46.501939" lon="9.877527">
        <ele>1810.321</ele>
        <time>2022-07-11T11:07:40Z</time>
      </trkpt>
      <trkpt lat="46.502038" lon="9.877308">
        <ele>1809.303</ele>
        <time>2022-07-11T11:07:42Z</time>
      </trkpt>
      <trkpt lat="46.502074" lon="9.877190">
        <ele>1809.309</ele>
        <time>2022-07-11T11:07:43Z</time>
      </trkpt>
      <trkpt lat="46.502096" lon="9.877074">
        <ele>1808.812</ele>
        <time>2022-07-11T11:07:44Z</time>
      </trkpt>
      <trkpt lat="46.502146" lon="9.876844">
        <ele>1808.311</ele>
        <time>2022-07-11T11:07:46Z</time>
      </trkpt>
      <trkpt lat="46.502186" lon="9.876749">
        <ele>1808.399</ele>
        <time>2022-07-11T11:07:47Z</time>
      </trkpt>
      <trkpt lat="46.502241" lon="9.876652">
        <ele>1808.391</ele>
        <time>2022-07-11T11:07:48Z</time>
      </trkpt>
      <trkpt lat="46.502457" lon="9.876334">
        <ele>1808.397</ele>
        <time>2022-07-11T11:07:52Z</time>
      </trkpt>
      <trkpt lat="46.502499" lon="9.876238">
        <ele>1808.371</ele>
        <time>2022-07-11T11:07:53Z</time>
      </trkpt>
      <trkpt lat="46.502569" lon="9.876045">
        <ele>1807.422</ele>
        <time>2022-07-11T11:07:55Z</time>
      </trkpt>
      <trkpt lat="46.502606" lon="9.875981">
        <ele>1807.460</ele>
        <time>2022-07-11T11:07:56Z</time>
      </trkpt>
      <trkpt lat="46.502663" lon="9.875913">
        <ele>1806.974</ele>
        <time>2022-07-11T11:07:57Z</time>
      </trkpt>
      <trkpt lat="46.502715" lon="9.875865">
        <ele>1806.461</ele>
        <time>2022-07-11T11:07:58Z</time>
      </trkpt>
      <trkpt lat="46.502776" lon="9.875826">
        <ele>1805.021</ele>
        <time>2022-07-11T11:07:59Z</time>
      </trkpt>
      <trkpt lat="46.502828" lon="9.875799">
        <ele>1805.013</ele>
        <time>2022-07-11T11:08:00Z</time>
      </trkpt>
      <trkpt lat="46.502864" lon="9.875780">
        <ele>1804.009</ele>
        <time>2022-07-11T11:08:01Z</time>
      </trkpt>
      <trkpt lat="46.502898" lon="9.875749">
        <ele>1803.547</ele>
        <time>2022-07-11T11:08:02Z</time>
      </trkpt>
      <trkpt lat="46.502918" lon="9.875705">
        <ele>1803.526</ele>
        <time>2022-07-11T11:08:03Z</time>
      </trkpt>
      <trkpt lat="46.502917" lon="9.875651">
        <ele>1803.074</ele>
        <time>2022-07-11T11:08:04Z</time>
      </trkpt>
      <trkpt lat="46.502901" lon="9.875614">
        <ele>1803.036</ele>
        <time>2022-07-11T11:08:05Z</time>
      </trkpt>
      <trkpt lat="46.502878" lon="9.875577">
        <ele>1803.012</ele>
        <time>2022-07-11T11:08:06Z</time>
      </trkpt>
      <trkpt lat="46.502815" lon="9.875315">
        <ele>1804.026</ele>
        <time>2022-07-11T11:08:15Z</time>
      </trkpt>
      <trkpt lat="46.502925" lon="9.874989">
        <ele>1805.067</ele>
        <time>2022-07-11T11:08:30Z</time>
      </trkpt>
      <trkpt lat="46.502937" lon="9.874949">
        <ele>1805.095</ele>
        <time>2022-07-11T11:08:32Z</time>
      </trkpt>
      <trkpt lat="46.502944" lon="9.874931">
        <ele>1807.469</ele>
        <time>2022-07-11T11:08:33Z</time>
      </trkpt>
      <trkpt lat="46.502950" lon="9.874910">
        <ele>1807.457</ele>
        <time>2022-07-11T11:08:34Z</time>
      </trkpt>
      <trkpt lat="46.502965" lon="9.874863">
        <ele>1809.800</ele>
        <time>2022-07-11T11:08:37Z</time>
      </trkpt>
      <trkpt lat="46.502970" lon="9.874842">
        <ele>1808.320</ele>
        <time>2022-07-11T11:08:38Z</time>
      </trkpt>
      <trkpt lat="46.502972" lon="9.874819">
        <ele>1807.909</ele>
        <time>2022-07-11T11:08:39Z</time>
      </trkpt>
      <trkpt lat="46.502972" lon="9.874800">
        <ele>1807.946</ele>
        <time>2022-07-11T11:08:40Z</time>
      </trkpt>
      <trkpt lat="46.502969" lon="9.874780">
        <ele>1807.985</ele>
        <time>2022-07-11T11:08:41Z</time>
      </trkpt>
      <trkpt lat="46.502967" lon="9.874757">
        <ele>1807.953</ele>
        <time>2022-07-11T11:08:42Z</time>
      </trkpt>
      <trkpt lat="46.502965" lon="9.874738">
        <ele>1807.965</ele>
        <time>2022-07-11T11:08:43Z</time>
      </trkpt>
      <trkpt lat="46.502955" lon="9.874418">
        <ele>1809.881</ele>
        <time>2022-07-11T11:08:59Z</time>
      </trkpt>
      <trkpt lat="46.503022" lon="9.874142">
        <ele>1812.235</ele>
        <time>2022-07-11T11:09:15Z</time>
      </trkpt>
      <trkpt lat="46.503061" lon="9.873807">
        <ele>1814.166</ele>
        <time>2022-07-11T11:09:33Z</time>
      </trkpt>
      <trkpt lat="46.502981" lon="9.873539">
        <ele>1816.024</ele>
        <time>2022-07-11T11:09:49Z</time>
      </trkpt>
      <trkpt lat="46.502945" lon="9.873412">
        <ele>1817.078</ele>
        <time>2022-07-11T11:09:56Z</time>
      </trkpt>
      <trkpt lat="46.502931" lon="9.873381">
        <ele>1817.033</ele>
        <time>2022-07-11T11:09:58Z</time>
      </trkpt>
      <trkpt lat="46.502833" lon="9.873134">
        <ele>1820.323</ele>
        <time>2022-07-11T11:10:14Z</time>
      </trkpt>
      <trkpt lat="46.502827" lon="9.873115">
        <ele>1820.315</ele>
        <time>2022-07-11T11:10:15Z</time>
      </trkpt>
      <trkpt lat="46.502697" lon="9.872864">
        <ele>1821.309</ele>
        <time>2022-07-11T11:10:31Z</time>
      </trkpt>
      <trkpt lat="46.502518" lon="9.872753">
        <ele>1822.334</ele>
        <time>2022-07-11T11:10:46Z</time>
      </trkpt>
      <trkpt lat="46.502391" lon="9.872591">
        <ele>1824.293</ele>
        <time>2022-07-11T11:10:59Z</time>
      </trkpt>
      <trkpt lat="46.502251" lon="9.872371">
        <ele>1825.641</ele>
        <time>2022-07-11T11:11:14Z</time>
      </trkpt>
      <trkpt lat="46.502188" lon="9.872352">
        <ele>1826.183</ele>
        <time>2022-07-11T11:11:19Z</time>
      </trkpt>
      <trkpt lat="46.501983" lon="9.872364">
        <ele>1826.699</ele>
        <time>2022-07-11T11:11:35Z</time>
      </trkpt>
      <trkpt lat="46.501961" lon="9.872383">
        <ele>1827.123</ele>
        <time>2022-07-11T11:12:06Z</time>
      </trkpt>
      <trkpt lat="46.501947" lon="9.872380">
        <ele>1827.644</ele>
        <time>2022-07-11T11:12:13Z</time>
      </trkpt>
      <trkpt lat="46.501775" lon="9.872477">
        <ele>1828.562</ele>
        <time>2022-07-11T11:12:26Z</time>
      </trkpt>
      <trkpt lat="46.501524" lon="9.872565">
        <ele>1829.066</ele>
        <time>2022-07-11T11:12:41Z</time>
      </trkpt>
      <trkpt lat="46.501288" lon="9.872559">
        <ele>1830.048</ele>
        <time>2022-07-11T11:12:54Z</time>
      </trkpt>
      <trkpt lat="46.501045" lon="9.872615">
        <ele>1830.461</ele>
        <time>2022-07-11T11:13:06Z</time>
      </trkpt>
      <trkpt lat="46.500698" lon="9.872602">
        <ele>1831.417</ele>
        <time>2022-07-11T11:13:22Z</time>
      </trkpt>
      <trkpt lat="46.500479" lon="9.872281">
        <ele>1831.909</ele>
        <time>2022-07-11T11:13:35Z</time>
      </trkpt>
      <trkpt lat="46.500115" lon="9.872063">
        <ele>1832.885</ele>
        <time>2022-07-11T11:13:52Z</time>
      </trkpt>
      <trkpt lat="46.499795" lon="9.871829">
        <ele>1832.864</ele>
        <time>2022-07-11T11:14:04Z</time>
      </trkpt>
      <trkpt lat="46.499682" lon="9.871738">
        <ele>1831.992</ele>
        <time>2022-07-11T11:14:07Z</time>
      </trkpt>
      <trkpt lat="46.499196" lon="9.871144">
        <ele>1829.084</ele>
        <time>2022-07-11T11:14:18Z</time>
      </trkpt>
      <trkpt lat="46.499146" lon="9.871099">
        <ele>1829.030</ele>
        <time>2022-07-11T11:14:19Z</time>
      </trkpt>
      <trkpt lat="46.499099" lon="9.871061">
        <ele>1829.064</ele>
        <time>2022-07-11T11:14:20Z</time>
      </trkpt>
      <trkpt lat="46.498322" lon="9.870365">
        <ele>1826.195</ele>
        <time>2022-07-11T11:14:34Z</time>
      </trkpt>
      <trkpt lat="46.497893" lon="9.869667">
        <ele>1822.843</ele>
        <time>2022-07-11T11:14:44Z</time>
      </trkpt>
      <trkpt lat="46.497725" lon="9.869311">
        <ele>1822.337</ele>
        <time>2022-07-11T11:14:49Z</time>
      </trkpt>
      <trkpt lat="46.497712" lon="9.869249">
        <ele>1822.338</ele>
        <time>2022-07-11T11:14:50Z</time>
      </trkpt>
      <trkpt lat="46.497706" lon="9.869186">
        <ele>1822.370</ele>
        <time>2022-07-11T11:14:51Z</time>
      </trkpt>
      <trkpt lat="46.497706" lon="9.869129">
        <ele>1821.817</ele>
        <time>2022-07-11T11:14:52Z</time>
      </trkpt>
      <trkpt lat="46.497702" lon="9.869073">
        <ele>1821.809</ele>
        <time>2022-07-11T11:14:53Z</time>
      </trkpt>
      <trkpt lat="46.497696" lon="9.869020">
        <ele>1821.834</ele>
        <time>2022-07-11T11:14:54Z</time>
      </trkpt>
      <trkpt lat="46.497499" lon="9.868489">
        <ele>1821.833</ele>
        <time>2022-07-11T11:15:07Z</time>
      </trkpt>
      <trkpt lat="46.497157" lon="9.867822">
        <ele>1821.851</ele>
        <time>2022-07-11T11:15:22Z</time>
      </trkpt>
      <trkpt lat="46.497125" lon="9.867785">
        <ele>1821.883</ele>
        <time>2022-07-11T11:15:23Z</time>
      </trkpt>
      <trkpt lat="46.497089" lon="9.867754">
        <ele>1821.319</ele>
        <time>2022-07-11T11:15:24Z</time>
      </trkpt>
      <trkpt lat="46.496715" lon="9.867444">
        <ele>1821.333</ele>
        <time>2022-07-11T11:15:34Z</time>
      </trkpt>
      <trkpt lat="46.496344" lon="9.867038">
        <ele>1821.384</ele>
        <time>2022-07-11T11:15:45Z</time>
      </trkpt>
      <trkpt lat="46.495884" lon="9.866625">
        <ele>1821.392</ele>
        <time>2022-07-11T11:15:57Z</time>
      </trkpt>
      <trkpt lat="46.495858" lon="9.866579">
        <ele>1821.356</ele>
        <time>2022-07-11T11:15:58Z</time>
      </trkpt>
      <trkpt lat="46.495835" lon="9.866527">
        <ele>1821.375</ele>
        <time>2022-07-11T11:15:59Z</time>
      </trkpt>
      <trkpt lat="46.495814" lon="9.866472">
        <ele>1821.328</ele>
        <time>2022-07-11T11:16:00Z</time>
      </trkpt>
      <trkpt lat="46.495800" lon="9.866430">
        <ele>1821.320</ele>
        <time>2022-07-11T11:16:01Z</time>
      </trkpt>
      <trkpt lat="46.495790" lon="9.866394">
        <ele>1821.309</ele>
        <time>2022-07-11T11:16:02Z</time>
      </trkpt>
      <trkpt lat="46.495771" lon="9.866270">
        <ele>1821.318</ele>
        <time>2022-07-11T11:16:11Z</time>
      </trkpt>
      <trkpt lat="46.495770" lon="9.866261">
        <ele>1822.377</ele>
        <time>2022-07-11T11:16:15Z</time>
      </trkpt>
      <trkpt lat="46.495712" lon="9.865826">
        <ele>1821.395</ele>
        <time>2022-07-11T11:16:25Z</time>
      </trkpt>
      <trkpt lat="46.495595" lon="9.865231">
        <ele>1820.817</ele>
        <time>2022-07-11T11:16:35Z</time>
      </trkpt>
      <trkpt lat="46.495409" lon="9.864335">
        <ele>1820.893</ele>
        <time>2022-07-11T11:16:50Z</time>
      </trkpt>
      <trkpt lat="46.495170" lon="9.863445">
        <ele>1817.997</ele>
        <time>2022-07-11T11:17:03Z</time>
      </trkpt>
      <trkpt lat="46.495132" lon="9.863286">
        <ele>1817.528</ele>
        <time>2022-07-11T11:17:05Z</time>
      </trkpt>
      <trkpt lat="46.495125" lon="9.863230">
        <ele>1817.586</ele>
        <time>2022-07-11T11:17:06Z</time>
      </trkpt>
      <trkpt lat="46.495114" lon="9.863143">
        <ele>1816.550</ele>
        <time>2022-07-11T11:17:15Z</time>
      </trkpt>
      <trkpt lat="46.495096" lon="9.862841">
        <ele>1814.627</ele>
        <time>2022-07-11T11:17:20Z</time>
      </trkpt>
      <trkpt lat="46.495053" lon="9.862413">
        <ele>1811.268</ele>
        <time>2022-07-11T11:17:24Z</time>
      </trkpt>
      <trkpt lat="46.495030" lon="9.862165">
        <ele>1810.314</ele>
        <time>2022-07-11T11:17:26Z</time>
      </trkpt>
      <trkpt lat="46.495029" lon="9.862039">
        <ele>1808.809</ele>
        <time>2022-07-11T11:17:27Z</time>
      </trkpt>
      <trkpt lat="46.495088" lon="9.860880">
        <ele>1805.073</ele>
        <time>2022-07-11T11:17:37Z</time>
      </trkpt>
      <trkpt lat="46.495194" lon="9.860285">
        <ele>1805.012</ele>
        <time>2022-07-11T11:17:47Z</time>
      </trkpt>
      <trkpt lat="46.495203" lon="9.860221">
        <ele>1804.030</ele>
        <time>2022-07-11T11:17:52Z</time>
      </trkpt>
      <trkpt lat="46.495237" lon="9.860207">
        <ele>1804.052</ele>
        <time>2022-07-11T11:18:08Z</time>
      </trkpt>
      <trkpt lat="46.495238" lon="9.860191">
        <ele>1805.418</ele>
        <time>2022-07-11T11:18:18Z</time>
      </trkpt>
      <trkpt lat="46.495235" lon="9.860180">
        <ele>1804.592</ele>
        <time>2022-07-11T11:18:21Z</time>
      </trkpt>
      <trkpt lat="46.495215" lon="9.860173">
        <ele>1804.573</ele>
        <time>2022-07-11T11:18:23Z</time>
      </trkpt>
      <trkpt lat="46.495200" lon="9.860179">
        <ele>1804.541</ele>
        <time>2022-07-11T11:18:24Z</time>
      </trkpt>
      <trkpt lat="46.495181" lon="9.860201">
        <ele>1804.515</ele>
        <time>2022-07-11T11:18:25Z</time>
      </trkpt>
      <trkpt lat="46.494879" lon="9.860378">
        <ele>1805.439</ele>
        <time>2022-07-11T11:18:37Z</time>
      </trkpt>
      <trkpt lat="46.494656" lon="9.860264">
        <ele>1807.401</ele>
        <time>2022-07-11T11:18:51Z</time>
      </trkpt>
      <trkpt lat="46.494425" lon="9.859916">
        <ele>1805.421</ele>
        <time>2022-07-11T11:19:03Z</time>
      </trkpt>
      <trkpt lat="46.494030" lon="9.859895">
        <ele>1804.509</ele>
        <time>2022-07-11T11:19:15Z</time>
      </trkpt>
      <trkpt lat="46.494020" lon="9.859913">
        <ele>1804.514</ele>
        <time>2022-07-11T11:19:16Z</time>
      </trkpt>
      <trkpt lat="46.494015" lon="9.859930">
        <ele>1804.513</ele>
        <time>2022-07-11T11:19:17Z</time>
      </trkpt>
      <trkpt lat="46.494012" lon="9.859948">
        <ele>1805.421</ele>
        <time>2022-07-11T11:19:18Z</time>
      </trkpt>
      <trkpt lat="46.494012" lon="9.859965">
        <ele>1805.483</ele>
        <time>2022-07-11T11:19:19Z</time>
      </trkpt>
      <trkpt lat="46.494013" lon="9.859979">
        <ele>1805.419</ele>
        <time>2022-07-11T11:19:20Z</time>
      </trkpt>
      <trkpt lat="46.494012" lon="9.860020">
        <ele>1805.963</ele>
        <time>2022-07-11T11:19:23Z</time>
      </trkpt>
      <trkpt lat="46.494009" lon="9.860034">
        <ele>1806.474</ele>
        <time>2022-07-11T11:19:24Z</time>
      </trkpt>
      <trkpt lat="46.493987" lon="9.860128">
        <ele>1807.992</ele>
        <time>2022-07-11T11:19:30Z</time>
      </trkpt>
      <trkpt lat="46.493935" lon="9.860200">
        <ele>1808.876</ele>
        <time>2022-07-11T11:19:38Z</time>
      </trkpt>
      <trkpt lat="46.493913" lon="9.860193">
        <ele>1809.396</ele>
        <time>2022-07-11T11:19:40Z</time>
      </trkpt>
      <trkpt lat="46.493837" lon="9.860101">
        <ele>1811.231</ele>
        <time>2022-07-11T11:19:54Z</time>
      </trkpt>
      <trkpt lat="46.493730" lon="9.859984">
        <ele>1814.124</ele>
        <time>2022-07-11T11:20:09Z</time>
      </trkpt>
      <trkpt lat="46.493689" lon="9.859936">
        <ele>1814.609</ele>
        <time>2022-07-11T11:20:15Z</time>
      </trkpt>
      <trkpt lat="46.493661" lon="9.859895">
        <ele>1815.590</ele>
        <time>2022-07-11T11:20:19Z</time>
      </trkpt>
      <trkpt lat="46.493639" lon="9.859861">
        <ele>1816.519</ele>
        <time>2022-07-11T11:20:22Z</time>
      </trkpt>
      <trkpt lat="46.493492" lon="9.859652">
        <ele>1817.567</ele>
        <time>2022-07-11T11:20:41Z</time>
      </trkpt>
      <trkpt lat="46.493434" lon="9.859555">
        <ele>1817.949</ele>
        <time>2022-07-11T11:20:49Z</time>
      </trkpt>
      <trkpt lat="46.493363" lon="9.859318">
        <ele>1818.475</ele>
        <time>2022-07-11T11:21:03Z</time>
      </trkpt>
      <trkpt lat="46.493353" lon="9.859306">
        <ele>1818.959</ele>
        <time>2022-07-11T11:21:04Z</time>
      </trkpt>
      <trkpt lat="46.493343" lon="9.859292">
        <ele>1818.970</ele>
        <time>2022-07-11T11:21:05Z</time>
      </trkpt>
      <trkpt lat="46.493216" lon="9.859006">
        <ele>1820.388</ele>
        <time>2022-07-11T11:21:22Z</time>
      </trkpt>
      <trkpt lat="46.493086" lon="9.858717">
        <ele>1820.892</ele>
        <time>2022-07-11T11:21:35Z</time>
      </trkpt>
      <trkpt lat="46.493040" lon="9.858387">
        <ele>1820.863</ele>
        <time>2022-07-11T11:21:43Z</time>
      </trkpt>
      <trkpt lat="46.493022" lon="9.858325">
        <ele>1819.944</ele>
        <time>2022-07-11T11:21:44Z</time>
      </trkpt>
      <trkpt lat="46.493000" lon="9.858268">
        <ele>1819.918</ele>
        <time>2022-07-11T11:21:45Z</time>
      </trkpt>
      <trkpt lat="46.492943" lon="9.858123">
        <ele>1819.409</ele>
        <time>2022-07-11T11:21:47Z</time>
      </trkpt>
      <trkpt lat="46.492922" lon="9.858051">
        <ele>1819.497</ele>
        <time>2022-07-11T11:21:48Z</time>
      </trkpt>
      <trkpt lat="46.492906" lon="9.857980">
        <ele>1819.496</ele>
        <time>2022-07-11T11:21:49Z</time>
      </trkpt>
      <trkpt lat="46.492820" lon="9.857602">
        <ele>1818.934</ele>
        <time>2022-07-11T11:21:54Z</time>
      </trkpt>
      <trkpt lat="46.492796" lon="9.857535">
        <ele>1818.436</ele>
        <time>2022-07-11T11:21:55Z</time>
      </trkpt>
      <trkpt lat="46.492604" lon="9.857058">
        <ele>1819.972</ele>
        <time>2022-07-11T11:22:05Z</time>
      </trkpt>
      <trkpt lat="46.492445" lon="9.856740">
        <ele>1822.316</ele>
        <time>2022-07-11T11:22:19Z</time>
      </trkpt>
      <trkpt lat="46.492441" lon="9.856743">
        <ele>1823.257</ele>
        <time>2022-07-11T11:22:36Z</time>
      </trkpt>
      <trkpt lat="46.492442" lon="9.856754">
        <ele>1823.255</ele>
        <time>2022-07-11T11:22:37Z</time>
      </trkpt>
      <trkpt lat="46.492444" lon="9.856768">
        <ele>1823.219</ele>
        <time>2022-07-11T11:22:38Z</time>
      </trkpt>
      <trkpt lat="46.492442" lon="9.856783">
        <ele>1823.227</ele>
        <time>2022-07-11T11:22:39Z</time>
      </trkpt>
      <trkpt lat="46.492439" lon="9.856797">
        <ele>1823.268</ele>
        <time>2022-07-11T11:22:40Z</time>
      </trkpt>
      <trkpt lat="46.492426" lon="9.856848">
        <ele>1823.714</ele>
        <time>2022-07-11T11:22:45Z</time>
      </trkpt>
      <trkpt lat="46.492417" lon="9.856857">
        <ele>1823.709</ele>
        <time>2022-07-11T11:22:46Z</time>
      </trkpt>
      <trkpt lat="46.492406" lon="9.856919">
        <ele>1825.283</ele>
        <time>2022-07-11T11:22:51Z</time>
      </trkpt>
      <trkpt lat="46.492342" lon="9.856949">
        <ele>1826.612</ele>
        <time>2022-07-11T11:23:01Z</time>
      </trkpt>
      <trkpt lat="46.492317" lon="9.856932">
        <ele>1827.180</ele>
        <time>2022-07-11T11:23:04Z</time>
      </trkpt>
      <trkpt lat="46.492306" lon="9.856927">
        <ele>1827.642</ele>
        <time>2022-07-11T11:23:05Z</time>
      </trkpt>
      <trkpt lat="46.492208" lon="9.856861">
        <ele>1829.058</ele>
        <time>2022-07-11T11:23:18Z</time>
      </trkpt>
      <trkpt lat="46.492081" lon="9.856831">
        <ele>1832.492</ele>
        <time>2022-07-11T11:23:35Z</time>
      </trkpt>
      <trkpt lat="46.491957" lon="9.856758">
        <ele>1833.853</ele>
        <time>2022-07-11T11:23:50Z</time>
      </trkpt>
      <trkpt lat="46.491954" lon="9.856740">
        <ele>1833.871</ele>
        <time>2022-07-11T11:23:51Z</time>
      </trkpt>
      <trkpt lat="46.491950" lon="9.856719">
        <ele>1833.825</ele>
        <time>2022-07-11T11:23:52Z</time>
      </trkpt>
      <trkpt lat="46.491950" lon="9.856699">
        <ele>1833.848</ele>
        <time>2022-07-11T11:23:53Z</time>
      </trkpt>
      <trkpt lat="46.491949" lon="9.856676">
        <ele>1833.861</ele>
        <time>2022-07-11T11:23:54Z</time>
      </trkpt>
      <trkpt lat="46.491946" lon="9.856651">
        <ele>1833.817</ele>
        <time>2022-07-11T11:23:55Z</time>
      </trkpt>
      <trkpt lat="46.491940" lon="9.856626">
        <ele>1833.809</ele>
        <time>2022-07-11T11:23:56Z</time>
      </trkpt>
      <trkpt lat="46.491848" lon="9.856256">
        <ele>1834.845</ele>
        <time>2022-07-11T11:24:09Z</time>
      </trkpt>
      <trkpt lat="46.491813" lon="9.855933">
        <ele>1834.854</ele>
        <time>2022-07-11T11:24:21Z</time>
      </trkpt>
      <trkpt lat="46.491708" lon="9.855429">
        <ele>1835.222</ele>
        <time>2022-07-11T11:24:34Z</time>
      </trkpt>
      <trkpt lat="46.491517" lon="9.854913">
        <ele>1836.294</ele>
        <time>2022-07-11T11:24:48Z</time>
      </trkpt>
      <trkpt lat="46.491489" lon="9.854855">
        <ele>1834.890</ele>
        <time>2022-07-11T11:24:49Z</time>
      </trkpt>
      <trkpt lat="46.491465" lon="9.854801">
        <ele>1834.874</ele>
        <time>2022-07-11T11:24:50Z</time>
      </trkpt>
      <trkpt lat="46.491308" lon="9.854174">
        <ele>1834.855</ele>
        <time>2022-07-11T11:25:01Z</time>
      </trkpt>
      <trkpt lat="46.491277" lon="9.854128">
        <ele>1834.883</ele>
        <time>2022-07-11T11:25:02Z</time>
      </trkpt>
      <trkpt lat="46.491039" lon="9.853667">
        <ele>1834.857</ele>
        <time>2022-07-11T11:25:12Z</time>
      </trkpt>
      <trkpt lat="46.490932" lon="9.853231">
        <ele>1832.891</ele>
        <time>2022-07-11T11:25:23Z</time>
      </trkpt>
      <trkpt lat="46.490882" lon="9.852710">
        <ele>1831.981</ele>
        <time>2022-07-11T11:25:33Z</time>
      </trkpt>
      <trkpt lat="46.490786" lon="9.852230">
        <ele>1831.419</ele>
        <time>2022-07-11T11:25:41Z</time>
      </trkpt>
      <trkpt lat="46.490780" lon="9.852159">
        <ele>1830.909</ele>
        <time>2022-07-11T11:25:42Z</time>
      </trkpt>
      <trkpt lat="46.490765" lon="9.851943">
        <ele>1830.480</ele>
        <time>2022-07-11T11:25:45Z</time>
      </trkpt>
      <trkpt lat="46.490721" lon="9.851579">
        <ele>1829.039</ele>
        <time>2022-07-11T11:25:50Z</time>
      </trkpt>
      <trkpt lat="46.490735" lon="9.851512">
        <ele>1829.017</ele>
        <time>2022-07-11T11:25:51Z</time>
      </trkpt>
      <trkpt lat="46.490765" lon="9.851453">
        <ele>1828.539</ele>
        <time>2022-07-11T11:25:52Z</time>
      </trkpt>
      <trkpt lat="46.490825" lon="9.851355">
        <ele>1828.575</ele>
        <time>2022-07-11T11:25:54Z</time>
      </trkpt>
      <trkpt lat="46.490850" lon="9.851296">
        <ele>1828.579</ele>
        <time>2022-07-11T11:25:55Z</time>
      </trkpt>
      <trkpt lat="46.490869" lon="9.851234">
        <ele>1828.570</ele>
        <time>2022-07-11T11:25:56Z</time>
      </trkpt>
      <trkpt lat="46.490882" lon="9.851168">
        <ele>1828.528</ele>
        <time>2022-07-11T11:25:57Z</time>
      </trkpt>
      <trkpt lat="46.490893" lon="9.851107">
        <ele>1828.592</ele>
        <time>2022-07-11T11:25:58Z</time>
      </trkpt>
      <trkpt lat="46.490902" lon="9.851041">
        <ele>1828.544</ele>
        <time>2022-07-11T11:25:59Z</time>
      </trkpt>
      <trkpt lat="46.490907" lon="9.850800">
        <ele>1828.505</ele>
        <time>2022-07-11T11:26:03Z</time>
      </trkpt>
      <trkpt lat="46.490898" lon="9.850737">
        <ele>1828.015</ele>
        <time>2022-07-11T11:26:04Z</time>
      </trkpt>
      <trkpt lat="46.490886" lon="9.850668">
        <ele>1828.009</ele>
        <time>2022-07-11T11:26:05Z</time>
      </trkpt>
      <trkpt lat="46.490870" lon="9.850603">
        <ele>1828.015</ele>
        <time>2022-07-11T11:26:06Z</time>
      </trkpt>
      <trkpt lat="46.490847" lon="9.850527">
        <ele>1826.654</ele>
        <time>2022-07-11T11:26:07Z</time>
      </trkpt>
      <trkpt lat="46.490822" lon="9.850438">
        <ele>1826.112</ele>
        <time>2022-07-11T11:26:08Z</time>
      </trkpt>
      <trkpt lat="46.490806" lon="9.850351">
        <ele>1825.644</ele>
        <time>2022-07-11T11:26:09Z</time>
      </trkpt>
      <trkpt lat="46.490797" lon="9.850246">
        <ele>1824.740</ele>
        <time>2022-07-11T11:26:10Z</time>
      </trkpt>
      <trkpt lat="46.490798" lon="9.850135">
        <ele>1824.264</ele>
        <time>2022-07-11T11:26:11Z</time>
      </trkpt>
      <trkpt lat="46.490815" lon="9.850036">
        <ele>1823.215</ele>
        <time>2022-07-11T11:26:12Z</time>
      </trkpt>
      <trkpt lat="46.490849" lon="9.849965">
        <ele>1823.223</ele>
        <time>2022-07-11T11:26:13Z</time>
      </trkpt>
      <trkpt lat="46.490895" lon="9.849918">
        <ele>1822.867</ele>
        <time>2022-07-11T11:26:14Z</time>
      </trkpt>
      <trkpt lat="46.490947" lon="9.849881">
        <ele>1822.374</ele>
        <time>2022-07-11T11:26:15Z</time>
      </trkpt>
      <trkpt lat="46.491001" lon="9.849843">
        <ele>1821.356</ele>
        <time>2022-07-11T11:26:16Z</time>
      </trkpt>
      <trkpt lat="46.491050" lon="9.849795">
        <ele>1820.321</ele>
        <time>2022-07-11T11:26:17Z</time>
      </trkpt>
      <trkpt lat="46.491088" lon="9.849741">
        <ele>1820.309</ele>
        <time>2022-07-11T11:26:18Z</time>
      </trkpt>
      <trkpt lat="46.491114" lon="9.849686">
        <ele>1819.938</ele>
        <time>2022-07-11T11:26:19Z</time>
      </trkpt>
      <trkpt lat="46.491128" lon="9.849636">
        <ele>1819.457</ele>
        <time>2022-07-11T11:26:20Z</time>
      </trkpt>
      <trkpt lat="46.491138" lon="9.849597">
        <ele>1819.465</ele>
        <time>2022-07-11T11:26:21Z</time>
      </trkpt>
      <trkpt lat="46.491142" lon="9.849564">
        <ele>1819.427</ele>
        <time>2022-07-11T11:26:22Z</time>
      </trkpt>
      <trkpt lat="46.491128" lon="9.849459">
        <ele>1818.993</ele>
        <time>2022-07-11T11:26:25Z</time>
      </trkpt>
      <trkpt lat="46.491109" lon="9.849424">
        <ele>1818.447</ele>
        <time>2022-07-11T11:26:26Z</time>
      </trkpt>
      <trkpt lat="46.491080" lon="9.849383">
        <ele>1818.478</ele>
        <time>2022-07-11T11:26:27Z</time>
      </trkpt>
      <trkpt lat="46.491041" lon="9.849345">
        <ele>1817.996</ele>
        <time>2022-07-11T11:26:28Z</time>
      </trkpt>
      <trkpt lat="46.490999" lon="9.849323">
        <ele>1817.520</ele>
        <time>2022-07-11T11:26:29Z</time>
      </trkpt>
      <trkpt lat="46.490955" lon="9.849307">
        <ele>1817.557</ele>
        <time>2022-07-11T11:26:30Z</time>
      </trkpt>
      <trkpt lat="46.490911" lon="9.849283">
        <ele>1817.000</ele>
        <time>2022-07-11T11:26:31Z</time>
      </trkpt>
      <trkpt lat="46.490868" lon="9.849243">
        <ele>1817.020</ele>
        <time>2022-07-11T11:26:32Z</time>
      </trkpt>
      <trkpt lat="46.490829" lon="9.849189">
        <ele>1816.509</ele>
        <time>2022-07-11T11:26:33Z</time>
      </trkpt>
      <trkpt lat="46.490737" lon="9.849060">
        <ele>1815.186</ele>
        <time>2022-07-11T11:26:35Z</time>
      </trkpt>
      <trkpt lat="46.490681" lon="9.849006">
        <ele>1814.185</ele>
        <time>2022-07-11T11:26:36Z</time>
      </trkpt>
      <trkpt lat="46.490624" lon="9.848961">
        <ele>1813.123</ele>
        <time>2022-07-11T11:26:37Z</time>
      </trkpt>
      <trkpt lat="46.490571" lon="9.848910">
        <ele>1812.715</ele>
        <time>2022-07-11T11:26:38Z</time>
      </trkpt>
      <trkpt lat="46.490519" lon="9.848846">
        <ele>1811.731</ele>
        <time>2022-07-11T11:26:39Z</time>
      </trkpt>
      <trkpt lat="46.490470" lon="9.848775">
        <ele>1810.385</ele>
        <time>2022-07-11T11:26:40Z</time>
      </trkpt>
      <trkpt lat="46.490362" lon="9.848600">
        <ele>1807.996</ele>
        <time>2022-07-11T11:26:42Z</time>
      </trkpt>
      <trkpt lat="46.490319" lon="9.848503">
        <ele>1807.434</ele>
        <time>2022-07-11T11:26:43Z</time>
      </trkpt>
      <trkpt lat="46.490126" lon="9.847992">
        <ele>1804.528</ele>
        <time>2022-07-11T11:26:48Z</time>
      </trkpt>
      <trkpt lat="46.490018" lon="9.847602">
        <ele>1800.656</ele>
        <time>2022-07-11T11:26:51Z</time>
      </trkpt>
      <trkpt lat="46.489552" lon="9.846126">
        <ele>1798.759</ele>
        <time>2022-07-11T11:27:03Z</time>
      </trkpt>
      <trkpt lat="46.489233" lon="9.844593">
        <ele>1796.314</ele>
        <time>2022-07-11T11:27:17Z</time>
      </trkpt>
      <trkpt lat="46.488825" lon="9.843619">
        <ele>1792.509</ele>
        <time>2022-07-11T11:27:29Z</time>
      </trkpt>
      <trkpt lat="46.488406" lon="9.842909">
        <ele>1790.156</ele>
        <time>2022-07-11T11:27:39Z</time>
      </trkpt>
      <trkpt lat="46.487909" lon="9.841906">
        <ele>1787.755</ele>
        <time>2022-07-11T11:27:54Z</time>
      </trkpt>
      <trkpt lat="46.487087" lon="9.840880">
        <ele>1785.733</ele>
        <time>2022-07-11T11:28:11Z</time>
      </trkpt>
      <trkpt lat="46.486915" lon="9.840660">
        <ele>1785.725</ele>
        <time>2022-07-11T11:28:15Z</time>
      </trkpt>
      <trkpt lat="46.486885" lon="9.840590">
        <ele>1785.731</ele>
        <time>2022-07-11T11:28:16Z</time>
      </trkpt>
      <trkpt lat="46.486346" lon="9.839617">
        <ele>1785.345</ele>
        <time>2022-07-11T11:28:33Z</time>
      </trkpt>
      <trkpt lat="46.485812" lon="9.838841">
        <ele>1785.346</ele>
        <time>2022-07-11T11:28:48Z</time>
      </trkpt>
      <trkpt lat="46.485775" lon="9.838805">
        <ele>1785.384</ele>
        <time>2022-07-11T11:28:49Z</time>
      </trkpt>
      <trkpt lat="46.485735" lon="9.838761">
        <ele>1785.358</ele>
        <time>2022-07-11T11:28:50Z</time>
      </trkpt>
      <trkpt lat="46.485699" lon="9.838705">
        <ele>1785.324</ele>
        <time>2022-07-11T11:28:51Z</time>
      </trkpt>
      <trkpt lat="46.485666" lon="9.838651">
        <ele>1786.204</ele>
        <time>2022-07-11T11:28:52Z</time>
      </trkpt>
      <trkpt lat="46.485637" lon="9.838593">
        <ele>1786.214</ele>
        <time>2022-07-11T11:28:53Z</time>
      </trkpt>
      <trkpt lat="46.485610" lon="9.838537">
        <ele>1786.209</ele>
        <time>2022-07-11T11:28:54Z</time>
      </trkpt>
      <trkpt lat="46.485488" lon="9.838274">
        <ele>1786.713</ele>
        <time>2022-07-11T11:28:59Z</time>
      </trkpt>
      <trkpt lat="46.485194" lon="9.837628">
        <ele>1788.652</ele>
        <time>2022-07-11T11:29:15Z</time>
      </trkpt>
      <trkpt lat="46.484994" lon="9.837188">
        <ele>1790.160</ele>
        <time>2022-07-11T11:29:26Z</time>
      </trkpt>
      <trkpt lat="46.484892" lon="9.836886">
        <ele>1788.662</ele>
        <time>2022-07-11T11:29:31Z</time>
      </trkpt>
      <trkpt lat="46.484465" lon="9.835873">
        <ele>1787.268</ele>
        <time>2022-07-11T11:29:46Z</time>
      </trkpt>
      <trkpt lat="46.483966" lon="9.834497">
        <ele>1787.262</ele>
        <time>2022-07-11T11:30:04Z</time>
      </trkpt>
      <trkpt lat="46.483629" lon="9.833847">
        <ele>1786.713</ele>
        <time>2022-07-11T11:30:14Z</time>
      </trkpt>
      <trkpt lat="46.483587" lon="9.833804">
        <ele>1787.721</ele>
        <time>2022-07-11T11:30:15Z</time>
      </trkpt>
      <trkpt lat="46.483549" lon="9.833780">
        <ele>1787.715</ele>
        <time>2022-07-11T11:30:16Z</time>
      </trkpt>
      <trkpt lat="46.483496" lon="9.833760">
        <ele>1788.156</ele>
        <time>2022-07-11T11:30:18Z</time>
      </trkpt>
      <trkpt lat="46.483441" lon="9.833745">
        <ele>1788.159</ele>
        <time>2022-07-11T11:30:19Z</time>
      </trkpt>
      <trkpt lat="46.483404" lon="9.833729">
        <ele>1788.114</ele>
        <time>2022-07-11T11:30:20Z</time>
      </trkpt>
      <trkpt lat="46.483367" lon="9.833706">
        <ele>1788.109</ele>
        <time>2022-07-11T11:30:21Z</time>
      </trkpt>
      <trkpt lat="46.483330" lon="9.833674">
        <ele>1787.286</ele>
        <time>2022-07-11T11:30:22Z</time>
      </trkpt>
      <trkpt lat="46.483293" lon="9.833637">
        <ele>1787.285</ele>
        <time>2022-07-11T11:30:23Z</time>
      </trkpt>
      <trkpt lat="46.482797" lon="9.833077">
        <ele>1788.143</ele>
        <time>2022-07-11T11:30:37Z</time>
      </trkpt>
      <trkpt lat="46.482220" lon="9.832398">
        <ele>1789.135</ele>
        <time>2022-07-11T11:30:54Z</time>
      </trkpt>
      <trkpt lat="46.481751" lon="9.831861">
        <ele>1790.181</ele>
        <time>2022-07-11T11:31:09Z</time>
      </trkpt>
      <trkpt lat="46.481341" lon="9.831856">
        <ele>1790.555</ele>
        <time>2022-07-11T11:31:20Z</time>
      </trkpt>
      <trkpt lat="46.480868" lon="9.831931">
        <ele>1792.036</ele>
        <time>2022-07-11T11:31:35Z</time>
      </trkpt>
      <trkpt lat="46.480577" lon="9.831675">
        <ele>1793.944</ele>
        <time>2022-07-11T11:31:48Z</time>
      </trkpt>
      <trkpt lat="46.480281" lon="9.831502">
        <ele>1795.478</ele>
        <time>2022-07-11T11:32:01Z</time>
      </trkpt>
      <trkpt lat="46.479989" lon="9.831461">
        <ele>1797.318</ele>
        <time>2022-07-11T11:32:16Z</time>
      </trkpt>
      <trkpt lat="46.479798" lon="9.831024">
        <ele>1797.898</ele>
        <time>2022-07-11T11:32:30Z</time>
      </trkpt>
      <trkpt lat="46.479624" lon="9.830857">
        <ele>1800.217</ele>
        <time>2022-07-11T11:32:43Z</time>
      </trkpt>
      <trkpt lat="46.479593" lon="9.830800">
        <ele>1798.709</ele>
        <time>2022-07-11T11:33:05Z</time>
      </trkpt>
      <trkpt lat="46.479531" lon="9.830807">
        <ele>1799.712</ele>
        <time>2022-07-11T11:33:47Z</time>
      </trkpt>
      <trkpt lat="46.479486" lon="9.830606">
        <ele>1798.751</ele>
        <time>2022-07-11T11:34:08Z</time>
      </trkpt>
      <trkpt lat="46.479365" lon="9.830425">
        <ele>1798.299</ele>
        <time>2022-07-11T11:34:12Z</time>
      </trkpt>
      <trkpt lat="46.479261" lon="9.830290">
        <ele>1798.261</ele>
        <time>2022-07-11T11:34:15Z</time>
      </trkpt>
      <trkpt lat="46.479228" lon="9.830239">
        <ele>1798.247</ele>
        <time>2022-07-11T11:34:16Z</time>
      </trkpt>
      <trkpt lat="46.479194" lon="9.830182">
        <ele>1798.221</ele>
        <time>2022-07-11T11:34:17Z</time>
      </trkpt>
      <trkpt lat="46.479168" lon="9.830131">
        <ele>1798.222</ele>
        <time>2022-07-11T11:34:18Z</time>
      </trkpt>
      <trkpt lat="46.479149" lon="9.830084">
        <ele>1798.210</ele>
        <time>2022-07-11T11:34:19Z</time>
      </trkpt>
      <trkpt lat="46.478755" lon="9.829302">
        <ele>1797.894</ele>
        <time>2022-07-11T11:34:33Z</time>
      </trkpt>
      <trkpt lat="46.478303" lon="9.828316">
        <ele>1798.217</ele>
        <time>2022-07-11T11:34:48Z</time>
      </trkpt>
      <trkpt lat="46.478142" lon="9.827806">
        <ele>1801.187</ele>
        <time>2022-07-11T11:35:01Z</time>
      </trkpt>
      <trkpt lat="46.477926" lon="9.827258">
        <ele>1801.615</ele>
        <time>2022-07-11T11:35:15Z</time>
      </trkpt>
      <trkpt lat="46.477645" lon="9.826420">
        <ele>1799.709</ele>
        <time>2022-07-11T11:35:28Z</time>
      </trkpt>
      <trkpt lat="46.477331" lon="9.825427">
        <ele>1799.742</ele>
        <time>2022-07-11T11:35:43Z</time>
      </trkpt>
      <trkpt lat="46.477304" lon="9.825368">
        <ele>1801.161</ele>
        <time>2022-07-11T11:35:44Z</time>
      </trkpt>
      <trkpt lat="46.477276" lon="9.825323">
        <ele>1801.169</ele>
        <time>2022-07-11T11:35:45Z</time>
      </trkpt>
      <trkpt lat="46.477097" lon="9.825062">
        <ele>1804.031</ele>
        <time>2022-07-11T11:35:56Z</time>
      </trkpt>
      <trkpt lat="46.476993" lon="9.824691">
        <ele>1805.477</ele>
        <time>2022-07-11T11:36:11Z</time>
      </trkpt>
      <trkpt lat="46.476847" lon="9.824375">
        <ele>1807.451</ele>
        <time>2022-07-11T11:36:27Z</time>
      </trkpt>
      <trkpt lat="46.476716" lon="9.824190">
        <ele>1809.822</ele>
        <time>2022-07-11T11:36:41Z</time>
      </trkpt>
      <trkpt lat="46.476627" lon="9.824098">
        <ele>1811.740</ele>
        <time>2022-07-11T11:36:52Z</time>
      </trkpt>
      <trkpt lat="46.476506" lon="9.823933">
        <ele>1814.664</ele>
        <time>2022-07-11T11:37:09Z</time>
      </trkpt>
      <trkpt lat="46.476395" lon="9.823771">
        <ele>1817.031</ele>
        <time>2022-07-11T11:37:24Z</time>
      </trkpt>
      <trkpt lat="46.476299" lon="9.823554">
        <ele>1818.961</ele>
        <time>2022-07-11T11:37:40Z</time>
      </trkpt>
      <trkpt lat="46.476280" lon="9.823511">
        <ele>1819.407</ele>
        <time>2022-07-11T11:37:43Z</time>
      </trkpt>
      <trkpt lat="46.476248" lon="9.823469">
        <ele>1820.309</ele>
        <time>2022-07-11T11:37:47Z</time>
      </trkpt>
      <trkpt lat="46.476161" lon="9.823233">
        <ele>1821.344</ele>
        <time>2022-07-11T11:38:01Z</time>
      </trkpt>
      <trkpt lat="46.476154" lon="9.823210">
        <ele>1821.373</ele>
        <time>2022-07-11T11:38:02Z</time>
      </trkpt>
      <trkpt lat="46.476148" lon="9.823185">
        <ele>1821.371</ele>
        <time>2022-07-11T11:38:03Z</time>
      </trkpt>
      <trkpt lat="46.476142" lon="9.823157">
        <ele>1821.883</ele>
        <time>2022-07-11T11:38:04Z</time>
      </trkpt>
      <trkpt lat="46.476143" lon="9.823129">
        <ele>1821.889</ele>
        <time>2022-07-11T11:38:05Z</time>
      </trkpt>
      <trkpt lat="46.476141" lon="9.823106">
        <ele>1821.813</ele>
        <time>2022-07-11T11:38:06Z</time>
      </trkpt>
      <trkpt lat="46.476137" lon="9.823082">
        <ele>1821.864</ele>
        <time>2022-07-11T11:38:07Z</time>
      </trkpt>
      <trkpt lat="46.476102" lon="9.822586">
        <ele>1822.362</ele>
        <time>2022-07-11T11:38:23Z</time>
      </trkpt>
      <trkpt lat="46.475716" lon="9.822037">
        <ele>1823.266</ele>
        <time>2022-07-11T11:38:41Z</time>
      </trkpt>
      <trkpt lat="46.475548" lon="9.821500">
        <ele>1825.264</ele>
        <time>2022-07-11T11:38:55Z</time>
      </trkpt>
      <trkpt lat="46.475475" lon="9.820951">
        <ele>1825.206</ele>
        <time>2022-07-11T11:39:07Z</time>
      </trkpt>
      <trkpt lat="46.475474" lon="9.820829">
        <ele>1825.216</ele>
        <time>2022-07-11T11:39:09Z</time>
      </trkpt>
      <trkpt lat="46.475485" lon="9.820764">
        <ele>1825.209</ele>
        <time>2022-07-11T11:39:10Z</time>
      </trkpt>
      <trkpt lat="46.475517" lon="9.820621">
        <ele>1823.277</ele>
        <time>2022-07-11T11:39:12Z</time>
      </trkpt>
      <trkpt lat="46.475570" lon="9.820303">
        <ele>1822.376</ele>
        <time>2022-07-11T11:39:16Z</time>
      </trkpt>
      <trkpt lat="46.475608" lon="9.820147">
        <ele>1821.864</ele>
        <time>2022-07-11T11:39:18Z</time>
      </trkpt>
      <trkpt lat="46.475618" lon="9.820068">
        <ele>1821.876</ele>
        <time>2022-07-11T11:39:19Z</time>
      </trkpt>
      <trkpt lat="46.475621" lon="9.819993">
        <ele>1821.842</ele>
        <time>2022-07-11T11:39:20Z</time>
      </trkpt>
      <trkpt lat="46.475614" lon="9.819913">
        <ele>1821.856</ele>
        <time>2022-07-11T11:39:21Z</time>
      </trkpt>
      <trkpt lat="46.475601" lon="9.819845">
        <ele>1821.817</ele>
        <time>2022-07-11T11:39:22Z</time>
      </trkpt>
      <trkpt lat="46.475584" lon="9.819782">
        <ele>1821.835</ele>
        <time>2022-07-11T11:39:23Z</time>
      </trkpt>
      <trkpt lat="46.475559" lon="9.819721">
        <ele>1821.839</ele>
        <time>2022-07-11T11:39:24Z</time>
      </trkpt>
      <trkpt lat="46.475530" lon="9.819680">
        <ele>1821.815</ele>
        <time>2022-07-11T11:39:25Z</time>
      </trkpt>
      <trkpt lat="46.475499" lon="9.819646">
        <ele>1821.865</ele>
        <time>2022-07-11T11:39:26Z</time>
      </trkpt>
      <trkpt lat="46.475465" lon="9.819615">
        <ele>1821.811</ele>
        <time>2022-07-11T11:39:27Z</time>
      </trkpt>
      <trkpt lat="46.475434" lon="9.819591">
        <ele>1821.809</ele>
        <time>2022-07-11T11:39:28Z</time>
      </trkpt>
      <trkpt lat="46.475400" lon="9.819566">
        <ele>1821.832</ele>
        <time>2022-07-11T11:39:29Z</time>
      </trkpt>
      <trkpt lat="46.475051" lon="9.819080">
        <ele>1821.881</ele>
        <time>2022-07-11T11:39:42Z</time>
      </trkpt>
      <trkpt lat="46.474806" lon="9.818464">
        <ele>1821.819</ele>
        <time>2022-07-11T11:39:54Z</time>
      </trkpt>
      <trkpt lat="46.474634" lon="9.817959">
        <ele>1821.861</ele>
        <time>2022-07-11T11:40:06Z</time>
      </trkpt>
      <trkpt lat="46.474661" lon="9.817740">
        <ele>1820.397</ele>
        <time>2022-07-11T11:40:15Z</time>
      </trkpt>
      <trkpt lat="46.474670" lon="9.817621">
        <ele>1819.451</ele>
        <time>2022-07-11T11:40:20Z</time>
      </trkpt>
      <trkpt lat="46.474665" lon="9.817600">
        <ele>1818.912</ele>
        <time>2022-07-11T11:40:21Z</time>
      </trkpt>
      <trkpt lat="46.474651" lon="9.817587">
        <ele>1818.960</ele>
        <time>2022-07-11T11:40:22Z</time>
      </trkpt>
      <trkpt lat="46.474634" lon="9.817592">
        <ele>1818.464</ele>
        <time>2022-07-11T11:40:23Z</time>
      </trkpt>
      <trkpt lat="46.474622" lon="9.817608">
        <ele>1818.411</ele>
        <time>2022-07-11T11:40:24Z</time>
      </trkpt>
      <trkpt lat="46.474610" lon="9.817632">
        <ele>1818.421</ele>
        <time>2022-07-11T11:40:25Z</time>
      </trkpt>
      <trkpt lat="46.474598" lon="9.817662">
        <ele>1818.403</ele>
        <time>2022-07-11T11:40:26Z</time>
      </trkpt>
      <trkpt lat="46.474493" lon="9.817834">
        <ele>1817.909</ele>
        <time>2022-07-11T11:40:32Z</time>
      </trkpt>
      <trkpt lat="46.474475" lon="9.817831">
        <ele>1817.512</ele>
        <time>2022-07-11T11:40:33Z</time>
      </trkpt>
      <trkpt lat="46.474452" lon="9.817816">
        <ele>1817.031</ele>
        <time>2022-07-11T11:40:34Z</time>
      </trkpt>
      <trkpt lat="46.474435" lon="9.817801">
        <ele>1816.059</ele>
        <time>2022-07-11T11:40:35Z</time>
      </trkpt>
      <trkpt lat="46.474414" lon="9.817787">
        <ele>1815.581</ele>
        <time>2022-07-11T11:40:36Z</time>
      </trkpt>
      <trkpt lat="46.474387" lon="9.817770">
        <ele>1815.147</ele>
        <time>2022-07-11T11:40:37Z</time>
      </trkpt>
      <trkpt lat="46.474194" lon="9.817715">
        <ele>1812.291</ele>
        <time>2022-07-11T11:40:42Z</time>
      </trkpt>
      <trkpt lat="46.474141" lon="9.817700">
        <ele>1811.212</ele>
        <time>2022-07-11T11:40:43Z</time>
      </trkpt>
      <trkpt lat="46.474029" lon="9.817663">
        <ele>1810.770</ele>
        <time>2022-07-11T11:40:45Z</time>
      </trkpt>
      <trkpt lat="46.473978" lon="9.817625">
        <ele>1810.784</ele>
        <time>2022-07-11T11:40:46Z</time>
      </trkpt>
      <trkpt lat="46.473930" lon="9.817571">
        <ele>1810.722</ele>
        <time>2022-07-11T11:40:47Z</time>
      </trkpt>
      <trkpt lat="46.473818" lon="9.817408">
        <ele>1809.362</ele>
        <time>2022-07-11T11:40:50Z</time>
      </trkpt>
      <trkpt lat="46.473791" lon="9.817352">
        <ele>1809.308</ele>
        <time>2022-07-11T11:40:51Z</time>
      </trkpt>
      <trkpt lat="46.473769" lon="9.817289">
        <ele>1808.809</ele>
        <time>2022-07-11T11:40:52Z</time>
      </trkpt>
      <trkpt lat="46.473753" lon="9.817205">
        <ele>1807.923</ele>
        <time>2022-07-11T11:40:53Z</time>
      </trkpt>
      <trkpt lat="46.473733" lon="9.817114">
        <ele>1807.472</ele>
        <time>2022-07-11T11:40:54Z</time>
      </trkpt>
      <trkpt lat="46.473707" lon="9.817027">
        <ele>1806.980</ele>
        <time>2022-07-11T11:40:55Z</time>
      </trkpt>
      <trkpt lat="46.473672" lon="9.816942">
        <ele>1806.972</ele>
        <time>2022-07-11T11:40:56Z</time>
      </trkpt>
      <trkpt lat="46.473634" lon="9.816863">
        <ele>1806.978</ele>
        <time>2022-07-11T11:40:57Z</time>
      </trkpt>
      <trkpt lat="46.473590" lon="9.816782">
        <ele>1806.982</ele>
        <time>2022-07-11T11:40:58Z</time>
      </trkpt>
      <trkpt lat="46.473144" lon="9.816088">
        <ele>1805.983</ele>
        <time>2022-07-11T11:41:09Z</time>
      </trkpt>
      <trkpt lat="46.472997" lon="9.815872">
        <ele>1805.991</ele>
        <time>2022-07-11T11:41:13Z</time>
      </trkpt>
      <trkpt lat="46.472967" lon="9.815831">
        <ele>1805.915</ele>
        <time>2022-07-11T11:41:14Z</time>
      </trkpt>
      <trkpt lat="46.472944" lon="9.815795">
        <ele>1805.962</ele>
        <time>2022-07-11T11:41:15Z</time>
      </trkpt>
      <trkpt lat="46.472591" lon="9.815157">
        <ele>1805.983</ele>
        <time>2022-07-11T11:41:28Z</time>
      </trkpt>
      <trkpt lat="46.472258" lon="9.814578">
        <ele>1805.911</ele>
        <time>2022-07-11T11:41:40Z</time>
      </trkpt>
      <trkpt lat="46.472227" lon="9.814533">
        <ele>1805.909</ele>
        <time>2022-07-11T11:41:41Z</time>
      </trkpt>
      <trkpt lat="46.472031" lon="9.814244">
        <ele>1805.947</ele>
        <time>2022-07-11T11:41:50Z</time>
      </trkpt>
      <trkpt lat="46.471970" lon="9.814117">
        <ele>1805.916</ele>
        <time>2022-07-11T11:41:59Z</time>
      </trkpt>
      <trkpt lat="46.471974" lon="9.814100">
        <ele>1805.984</ele>
        <time>2022-07-11T11:42:00Z</time>
      </trkpt>
      <trkpt lat="46.472001" lon="9.814068">
        <ele>1805.996</ele>
        <time>2022-07-11T11:42:10Z</time>
      </trkpt>
      <trkpt lat="46.472010" lon="9.814063">
        <ele>1805.922</ele>
        <time>2022-07-11T11:42:11Z</time>
      </trkpt>
      <trkpt lat="46.472019" lon="9.814053">
        <ele>1805.946</ele>
        <time>2022-07-11T11:42:12Z</time>
      </trkpt>
      <trkpt lat="46.472027" lon="9.814040">
        <ele>1805.977</ele>
        <time>2022-07-11T11:42:13Z</time>
      </trkpt>
      <trkpt lat="46.472036" lon="9.814019">
        <ele>1805.985</ele>
        <time>2022-07-11T11:42:14Z</time>
      </trkpt>
      <trkpt lat="46.472181" lon="9.813819">
        <ele>1805.919</ele>
        <time>2022-07-11T11:42:24Z</time>
      </trkpt>
      <trkpt lat="46.472178" lon="9.813784">
        <ele>1805.939</ele>
        <time>2022-07-11T11:42:25Z</time>
      </trkpt>
      <trkpt lat="46.472169" lon="9.813753">
        <ele>1805.901</ele>
        <time>2022-07-11T11:42:26Z</time>
      </trkpt>
      <trkpt lat="46.472154" lon="9.813723">
        <ele>1805.921</ele>
        <time>2022-07-11T11:42:27Z</time>
      </trkpt>
      <trkpt lat="46.472135" lon="9.813690">
        <ele>1805.909</ele>
        <time>2022-07-11T11:42:28Z</time>
      </trkpt>
      <trkpt lat="46.472116" lon="9.813654">
        <ele>1805.954</ele>
        <time>2022-07-11T11:42:29Z</time>
      </trkpt>
      <trkpt lat="46.472039" lon="9.813454">
        <ele>1805.423</ele>
        <time>2022-07-11T11:42:41Z</time>
      </trkpt>
      <trkpt lat="46.471973" lon="9.813327">
        <ele>1805.021</ele>
        <time>2022-07-11T11:43:06Z</time>
      </trkpt>
      <trkpt lat="46.471901" lon="9.812711">
        <ele>1805.013</ele>
        <time>2022-07-11T11:43:19Z</time>
      </trkpt>
      <trkpt lat="46.471900" lon="9.812652">
        <ele>1805.079</ele>
        <time>2022-07-11T11:43:20Z</time>
      </trkpt>
      <trkpt lat="46.471894" lon="9.812590">
        <ele>1804.583</ele>
        <time>2022-07-11T11:43:21Z</time>
      </trkpt>
      <trkpt lat="46.471883" lon="9.812533">
        <ele>1804.534</ele>
        <time>2022-07-11T11:43:22Z</time>
      </trkpt>
      <trkpt lat="46.471869" lon="9.812477">
        <ele>1804.592</ele>
        <time>2022-07-11T11:43:23Z</time>
      </trkpt>
      <trkpt lat="46.471852" lon="9.812423">
        <ele>1804.526</ele>
        <time>2022-07-11T11:43:24Z</time>
      </trkpt>
      <trkpt lat="46.471806" lon="9.811647">
        <ele>1804.567</ele>
        <time>2022-07-11T11:43:38Z</time>
      </trkpt>
      <trkpt lat="46.472148" lon="9.810839">
        <ele>1804.581</ele>
        <time>2022-07-11T11:43:55Z</time>
      </trkpt>
      <trkpt lat="46.472347" lon="9.809982">
        <ele>1805.919</ele>
        <time>2022-07-11T11:44:11Z</time>
      </trkpt>
      <trkpt lat="46.472361" lon="9.809868">
        <ele>1805.909</ele>
        <time>2022-07-11T11:44:13Z</time>
      </trkpt>
      <trkpt lat="46.472364" lon="9.809809">
        <ele>1805.967</ele>
        <time>2022-07-11T11:44:14Z</time>
      </trkpt>
      <trkpt lat="46.472387" lon="9.808985">
        <ele>1806.476</ele>
        <time>2022-07-11T11:44:28Z</time>
      </trkpt>
      <trkpt lat="46.472380" lon="9.808923">
        <ele>1806.474</ele>
        <time>2022-07-11T11:44:29Z</time>
      </trkpt>
      <trkpt lat="46.472348" lon="9.808342">
        <ele>1806.966</ele>
        <time>2022-07-11T11:44:39Z</time>
      </trkpt>
      <trkpt lat="46.472425" lon="9.807832">
        <ele>1806.942</ele>
        <time>2022-07-11T11:44:47Z</time>
      </trkpt>
      <trkpt lat="46.472615" lon="9.807122">
        <ele>1806.976</ele>
        <time>2022-07-11T11:44:59Z</time>
      </trkpt>
      <trkpt lat="46.472673" lon="9.806843">
        <ele>1806.977</ele>
        <time>2022-07-11T11:45:04Z</time>
      </trkpt>
      <trkpt lat="46.472810" lon="9.806379">
        <ele>1806.945</ele>
        <time>2022-07-11T11:45:12Z</time>
      </trkpt>
      <trkpt lat="46.472692" lon="9.805930">
        <ele>1807.429</ele>
        <time>2022-07-11T11:45:22Z</time>
      </trkpt>
      <trkpt lat="46.472520" lon="9.805705">
        <ele>1806.469</ele>
        <time>2022-07-11T11:45:29Z</time>
      </trkpt>
      <trkpt lat="46.471954" lon="9.805093">
        <ele>1805.904</ele>
        <time>2022-07-11T11:45:48Z</time>
      </trkpt>
      <trkpt lat="46.471674" lon="9.804786">
        <ele>1808.324</ele>
        <time>2022-07-11T11:45:57Z</time>
      </trkpt>
      <trkpt lat="46.471449" lon="9.804515">
        <ele>1806.909</ele>
        <time>2022-07-11T11:46:05Z</time>
      </trkpt>
      <trkpt lat="46.471425" lon="9.804469">
        <ele>1806.417</ele>
        <time>2022-07-11T11:46:06Z</time>
      </trkpt>
      <trkpt lat="46.471018" lon="9.803581">
        <ele>1805.436</ele>
        <time>2022-07-11T11:46:23Z</time>
      </trkpt>
      <trkpt lat="46.470988" lon="9.803532">
        <ele>1805.464</ele>
        <time>2022-07-11T11:46:24Z</time>
      </trkpt>
      <trkpt lat="46.470438" lon="9.803041">
        <ele>1805.456</ele>
        <time>2022-07-11T11:46:40Z</time>
      </trkpt>
      <trkpt lat="46.469865" lon="9.802905">
        <ele>1806.962</ele>
        <time>2022-07-11T11:46:54Z</time>
      </trkpt>
      <trkpt lat="46.469484" lon="9.802553">
        <ele>1805.436</ele>
        <time>2022-07-11T11:47:04Z</time>
      </trkpt>
      <trkpt lat="46.469438" lon="9.802524">
        <ele>1805.447</ele>
        <time>2022-07-11T11:47:05Z</time>
      </trkpt>
      <trkpt lat="46.469396" lon="9.802505">
        <ele>1805.495</ele>
        <time>2022-07-11T11:47:06Z</time>
      </trkpt>
      <trkpt lat="46.468944" lon="9.802348">
        <ele>1806.429</ele>
        <time>2022-07-11T11:47:17Z</time>
      </trkpt>
      <trkpt lat="46.468729" lon="9.802277">
        <ele>1809.376</ele>
        <time>2022-07-11T11:47:28Z</time>
      </trkpt>
      <trkpt lat="46.468478" lon="9.802234">
        <ele>1808.390</ele>
        <time>2022-07-11T11:47:37Z</time>
      </trkpt>
      <trkpt lat="46.468076" lon="9.802096">
        <ele>1809.319</ele>
        <time>2022-07-11T11:47:50Z</time>
      </trkpt>
      <trkpt lat="46.467784" lon="9.801905">
        <ele>1811.209</ele>
        <time>2022-07-11T11:48:05Z</time>
      </trkpt>
      <trkpt lat="46.467332" lon="9.801628">
        <ele>1811.218</ele>
        <time>2022-07-11T11:48:21Z</time>
      </trkpt>
      <trkpt lat="46.466890" lon="9.800921">
        <ele>1809.897</ele>
        <time>2022-07-11T11:48:39Z</time>
      </trkpt>
      <trkpt lat="46.466569" lon="9.800034">
        <ele>1806.925</ele>
        <time>2022-07-11T11:48:53Z</time>
      </trkpt>
      <trkpt lat="46.466324" lon="9.799399">
        <ele>1805.987</ele>
        <time>2022-07-11T11:49:01Z</time>
      </trkpt>
      <trkpt lat="46.466288" lon="9.799331">
        <ele>1805.923</ele>
        <time>2022-07-11T11:49:02Z</time>
      </trkpt>
      <trkpt lat="46.465821" lon="9.798711">
        <ele>1805.097</ele>
        <time>2022-07-11T11:49:15Z</time>
      </trkpt>
      <trkpt lat="46.465641" lon="9.798548">
        <ele>1805.018</ele>
        <time>2022-07-11T11:49:20Z</time>
      </trkpt>
      <trkpt lat="46.465606" lon="9.798521">
        <ele>1805.476</ele>
        <time>2022-07-11T11:49:21Z</time>
      </trkpt>
      <trkpt lat="46.464938" lon="9.798143">
        <ele>1807.490</ele>
        <time>2022-07-11T11:49:40Z</time>
      </trkpt>
      <trkpt lat="46.464393" lon="9.797835">
        <ele>1808.393</ele>
        <time>2022-07-11T11:49:59Z</time>
      </trkpt>
      <trkpt lat="46.464051" lon="9.797692">
        <ele>1807.465</ele>
        <time>2022-07-11T11:50:11Z</time>
      </trkpt>
      <trkpt lat="46.463987" lon="9.797671">
        <ele>1808.821</ele>
        <time>2022-07-11T11:50:14Z</time>
      </trkpt>
      <trkpt lat="46.463949" lon="9.797654">
        <ele>1809.809</ele>
        <time>2022-07-11T11:50:16Z</time>
      </trkpt>
      <trkpt lat="46.463690" lon="9.797592">
        <ele>1807.920</ele>
        <time>2022-07-11T11:50:27Z</time>
      </trkpt>
      <trkpt lat="46.463503" lon="9.797592">
        <ele>1807.489</ele>
        <time>2022-07-11T11:50:32Z</time>
      </trkpt>
      <trkpt lat="46.463462" lon="9.797606">
        <ele>1806.987</ele>
        <time>2022-07-11T11:50:33Z</time>
      </trkpt>
      <trkpt lat="46.463419" lon="9.797646">
        <ele>1805.969</ele>
        <time>2022-07-11T11:50:34Z</time>
      </trkpt>
      <trkpt lat="46.463394" lon="9.797700">
        <ele>1805.915</ele>
        <time>2022-07-11T11:50:35Z</time>
      </trkpt>
      <trkpt lat="46.463380" lon="9.797776">
        <ele>1805.459</ele>
        <time>2022-07-11T11:50:36Z</time>
      </trkpt>
      <trkpt lat="46.463373" lon="9.797837">
        <ele>1805.430</ele>
        <time>2022-07-11T11:50:37Z</time>
      </trkpt>
      <trkpt lat="46.463237" lon="9.798689">
        <ele>1803.578</ele>
        <time>2022-07-11T11:50:49Z</time>
      </trkpt>
      <trkpt lat="46.463208" lon="9.798779">
        <ele>1803.082</ele>
        <time>2022-07-11T11:50:50Z</time>
      </trkpt>
      <trkpt lat="46.463178" lon="9.798840">
        <ele>1803.031</ele>
        <time>2022-07-11T11:50:51Z</time>
      </trkpt>
      <trkpt lat="46.463137" lon="9.798905">
        <ele>1802.661</ele>
        <time>2022-07-11T11:50:52Z</time>
      </trkpt>
      <trkpt lat="46.463098" lon="9.798962">
        <ele>1802.607</ele>
        <time>2022-07-11T11:50:53Z</time>
      </trkpt>
      <trkpt lat="46.462987" lon="9.799099">
        <ele>1802.609</ele>
        <time>2022-07-11T11:50:56Z</time>
      </trkpt>
      <trkpt lat="46.462952" lon="9.799128">
        <ele>1802.614</ele>
        <time>2022-07-11T11:50:57Z</time>
      </trkpt>
      <trkpt lat="46.462606" lon="9.799405">
        <ele>1802.633</ele>
        <time>2022-07-11T11:51:06Z</time>
      </trkpt>
      <trkpt lat="46.462574" lon="9.799454">
        <ele>1802.661</ele>
        <time>2022-07-11T11:51:07Z</time>
      </trkpt>
      <trkpt lat="46.462546" lon="9.799502">
        <ele>1802.663</ele>
        <time>2022-07-11T11:51:08Z</time>
      </trkpt>
      <trkpt lat="46.462456" lon="9.799720">
        <ele>1802.629</ele>
        <time>2022-07-11T11:51:12Z</time>
      </trkpt>
      <trkpt lat="46.462444" lon="9.799790">
        <ele>1802.613</ele>
        <time>2022-07-11T11:51:13Z</time>
      </trkpt>
      <trkpt lat="46.462437" lon="9.799853">
        <ele>1802.684</ele>
        <time>2022-07-11T11:51:14Z</time>
      </trkpt>
      <trkpt lat="46.462434" lon="9.799926">
        <ele>1802.632</ele>
        <time>2022-07-11T11:51:15Z</time>
      </trkpt>
      <trkpt lat="46.462430" lon="9.799994">
        <ele>1802.666</ele>
        <time>2022-07-11T11:51:16Z</time>
      </trkpt>
      <trkpt lat="46.462422" lon="9.800056">
        <ele>1802.687</ele>
        <time>2022-07-11T11:51:17Z</time>
      </trkpt>
      <trkpt lat="46.462407" lon="9.800114">
        <ele>1802.642</ele>
        <time>2022-07-11T11:51:18Z</time>
      </trkpt>
      <trkpt lat="46.462376" lon="9.800173">
        <ele>1802.626</ele>
        <time>2022-07-11T11:51:19Z</time>
      </trkpt>
      <trkpt lat="46.462346" lon="9.800217">
        <ele>1802.609</ele>
        <time>2022-07-11T11:51:20Z</time>
      </trkpt>
      <trkpt lat="46.462306" lon="9.800257">
        <ele>1802.699</ele>
        <time>2022-07-11T11:51:21Z</time>
      </trkpt>
      <trkpt lat="46.462265" lon="9.800288">
        <ele>1802.628</ele>
        <time>2022-07-11T11:51:22Z</time>
      </trkpt>
      <trkpt lat="46.462219" lon="9.800310">
        <ele>1802.646</ele>
        <time>2022-07-11T11:51:23Z</time>
      </trkpt>
      <trkpt lat="46.462172" lon="9.800328">
        <ele>1802.648</ele>
        <time>2022-07-11T11:51:24Z</time>
      </trkpt>
      <trkpt lat="46.461778" lon="9.800506">
        <ele>1803.584</ele>
        <time>2022-07-11T11:51:33Z</time>
      </trkpt>
      <trkpt lat="46.461676" lon="9.800573">
        <ele>1802.648</ele>
        <time>2022-07-11T11:51:36Z</time>
      </trkpt>
      <trkpt lat="46.461507" lon="9.800705">
        <ele>1804.039</ele>
        <time>2022-07-11T11:51:42Z</time>
      </trkpt>
      <trkpt lat="46.461422" lon="9.800779">
        <ele>1802.657</ele>
        <time>2022-07-11T11:51:45Z</time>
      </trkpt>
      <trkpt lat="46.461296" lon="9.800906">
        <ele>1803.581</ele>
        <time>2022-07-11T11:51:50Z</time>
      </trkpt>
      <trkpt lat="46.460960" lon="9.800960">
        <ele>1803.527</ele>
        <time>2022-07-11T11:52:01Z</time>
      </trkpt>
      <trkpt lat="46.460509" lon="9.801234">
        <ele>1803.568</ele>
        <time>2022-07-11T11:52:14Z</time>
      </trkpt>
      <trkpt lat="46.460196" lon="9.801421">
        <ele>1805.914</ele>
        <time>2022-07-11T11:52:26Z</time>
      </trkpt>
      <trkpt lat="46.460134" lon="9.801482">
        <ele>1805.909</ele>
        <time>2022-07-11T11:52:32Z</time>
      </trkpt>
      <trkpt lat="46.460101" lon="9.801544">
        <ele>1805.953</ele>
        <time>2022-07-11T11:52:34Z</time>
      </trkpt>
      <trkpt lat="46.460093" lon="9.801582">
        <ele>1805.922</ele>
        <time>2022-07-11T11:52:35Z</time>
      </trkpt>
      <trkpt lat="46.460020" lon="9.801896">
        <ele>1805.940</ele>
        <time>2022-07-11T11:52:48Z</time>
      </trkpt>
      <trkpt lat="46.460021" lon="9.801885">
        <ele>1805.932</ele>
        <time>2022-07-11T11:53:06Z</time>
      </trkpt>
      <trkpt lat="46.460020" lon="9.801917">
        <ele>1807.458</ele>
        <time>2022-07-11T11:53:41Z</time>
      </trkpt>
      <trkpt lat="46.460025" lon="9.801932">
        <ele>1805.972</ele>
        <time>2022-07-11T11:53:48Z</time>
      </trkpt>
      <trkpt lat="46.460031" lon="9.801948">
        <ele>1805.913</ele>
        <time>2022-07-11T11:54:16Z</time>
      </trkpt>
      <trkpt lat="46.460029" lon="9.801940">
        <ele>1805.491</ele>
        <time>2022-07-11T11:54:56Z</time>
      </trkpt>
      <trkpt lat="46.460030" lon="9.801935">
        <ele>1804.535</ele>
        <time>2022-07-11T11:55:06Z</time>
      </trkpt>
      <trkpt lat="46.460037" lon="9.801940">
        <ele>1806.462</ele>
        <time>2022-07-11T11:55:09Z</time>
      </trkpt>
      <trkpt lat="46.460041" lon="9.801984">
        <ele>1806.483</ele>
        <time>2022-07-11T11:55:14Z</time>
      </trkpt>
      <trkpt lat="46.460061" lon="9.802031">
        <ele>1806.411</ele>
        <time>2022-07-11T11:55:17Z</time>
      </trkpt>
      <trkpt lat="46.460059" lon="9.802052">
        <ele>1806.409</ele>
        <time>2022-07-11T11:55:18Z</time>
      </trkpt>
      <trkpt lat="46.460053" lon="9.802080">
        <ele>1806.417</ele>
        <time>2022-07-11T11:55:19Z</time>
      </trkpt>
      <trkpt lat="46.459915" lon="9.802781">
        <ele>1806.446</ele>
        <time>2022-07-11T11:55:36Z</time>
      </trkpt>
      <trkpt lat="46.459772" lon="9.803663">
        <ele>1806.484</ele>
        <time>2022-07-11T11:55:54Z</time>
      </trkpt>
      <trkpt lat="46.459630" lon="9.804669">
        <ele>1806.486</ele>
        <time>2022-07-11T11:56:11Z</time>
      </trkpt>
      <trkpt lat="46.459384" lon="9.805023">
        <ele>1806.932</ele>
        <time>2022-07-11T11:56:22Z</time>
      </trkpt>
      <trkpt lat="46.458896" lon="9.805201">
        <ele>1808.366</ele>
        <time>2022-07-11T11:56:36Z</time>
      </trkpt>
      <trkpt lat="46.458263" lon="9.805347">
        <ele>1808.817</ele>
        <time>2022-07-11T11:56:54Z</time>
      </trkpt>
      <trkpt lat="46.457785" lon="9.805672">
        <ele>1810.345</ele>
        <time>2022-07-11T11:57:11Z</time>
      </trkpt>
      <trkpt lat="46.457249" lon="9.805883">
        <ele>1810.359</ele>
        <time>2022-07-11T11:57:27Z</time>
      </trkpt>
      <trkpt lat="46.456764" lon="9.805992">
        <ele>1808.891</ele>
        <time>2022-07-11T11:57:38Z</time>
      </trkpt>
      <trkpt lat="46.456596" lon="9.806090">
        <ele>1809.381</ele>
        <time>2022-07-11T11:57:42Z</time>
      </trkpt>
      <trkpt lat="46.456557" lon="9.806113">
        <ele>1809.319</ele>
        <time>2022-07-11T11:57:43Z</time>
      </trkpt>
      <trkpt lat="46.455966" lon="9.806406">
        <ele>1809.809</ele>
        <time>2022-07-11T11:57:59Z</time>
      </trkpt>
      <trkpt lat="46.455451" lon="9.806402">
        <ele>1812.210</ele>
        <time>2022-07-11T11:58:17Z</time>
      </trkpt>
      <trkpt lat="46.454894" lon="9.806631">
        <ele>1812.749</ele>
        <time>2022-07-11T11:58:35Z</time>
      </trkpt>
      <trkpt lat="46.454262" lon="9.806888">
        <ele>1812.787</ele>
        <time>2022-07-11T11:58:51Z</time>
      </trkpt>
      <trkpt lat="46.453826" lon="9.807033">
        <ele>1810.369</ele>
        <time>2022-07-11T11:59:00Z</time>
      </trkpt>
      <trkpt lat="46.453336" lon="9.807215">
        <ele>1808.875</ele>
        <time>2022-07-11T11:59:10Z</time>
      </trkpt>
      <trkpt lat="46.452806" lon="9.807149">
        <ele>1806.949</ele>
        <time>2022-07-11T11:59:19Z</time>
      </trkpt>
      <trkpt lat="46.452040" lon="9.807017">
        <ele>1805.470</ele>
        <time>2022-07-11T11:59:32Z</time>
      </trkpt>
      <trkpt lat="46.451991" lon="9.807015">
        <ele>1805.418</ele>
        <time>2022-07-11T11:59:33Z</time>
      </trkpt>
      <trkpt lat="46.451939" lon="9.807021">
        <ele>1805.482</ele>
        <time>2022-07-11T11:59:34Z</time>
      </trkpt>
      <trkpt lat="46.451611" lon="9.807043">
        <ele>1805.488</ele>
        <time>2022-07-11T11:59:41Z</time>
      </trkpt>
      <trkpt lat="46.451565" lon="9.807024">
        <ele>1805.424</ele>
        <time>2022-07-11T11:59:42Z</time>
      </trkpt>
      <trkpt lat="46.451523" lon="9.807001">
        <ele>1805.426</ele>
        <time>2022-07-11T11:59:43Z</time>
      </trkpt>
      <trkpt lat="46.451481" lon="9.806967">
        <ele>1805.409</ele>
        <time>2022-07-11T11:59:44Z</time>
      </trkpt>
      <trkpt lat="46.451444" lon="9.806929">
        <ele>1806.439</ele>
        <time>2022-07-11T11:59:45Z</time>
      </trkpt>
      <trkpt lat="46.451401" lon="9.806884">
        <ele>1806.478</ele>
        <time>2022-07-11T11:59:46Z</time>
      </trkpt>
      <trkpt lat="46.451353" lon="9.806839">
        <ele>1806.456</ele>
        <time>2022-07-11T11:59:47Z</time>
      </trkpt>
      <trkpt lat="46.451302" lon="9.806783">
        <ele>1806.458</ele>
        <time>2022-07-11T11:59:48Z</time>
      </trkpt>
      <trkpt lat="46.451250" lon="9.806736">
        <ele>1806.414</ele>
        <time>2022-07-11T11:59:49Z</time>
      </trkpt>
      <trkpt lat="46.451194" lon="9.806697">
        <ele>1806.478</ele>
        <time>2022-07-11T11:59:50Z</time>
      </trkpt>
      <trkpt lat="46.451140" lon="9.806668">
        <ele>1806.459</ele>
        <time>2022-07-11T11:59:51Z</time>
      </trkpt>
      <trkpt lat="46.450441" lon="9.806361">
        <ele>1805.057</ele>
        <time>2022-07-11T12:00:05Z</time>
      </trkpt>
      <trkpt lat="46.450386" lon="9.806316">
        <ele>1805.011</ele>
        <time>2022-07-11T12:00:06Z</time>
      </trkpt>
      <trkpt lat="46.450335" lon="9.806262">
        <ele>1804.064</ele>
        <time>2022-07-11T12:00:07Z</time>
      </trkpt>
      <trkpt lat="46.450248" lon="9.806159">
        <ele>1804.006</ele>
        <time>2022-07-11T12:00:09Z</time>
      </trkpt>
      <trkpt lat="46.450205" lon="9.806129">
        <ele>1804.016</ele>
        <time>2022-07-11T12:00:10Z</time>
      </trkpt>
      <trkpt lat="46.450165" lon="9.806110">
        <ele>1804.009</ele>
        <time>2022-07-11T12:00:11Z</time>
      </trkpt>
      <trkpt lat="46.450130" lon="9.806094">
        <ele>1804.047</ele>
        <time>2022-07-11T12:00:12Z</time>
      </trkpt>
      <trkpt lat="46.450093" lon="9.806077">
        <ele>1804.076</ele>
        <time>2022-07-11T12:00:13Z</time>
      </trkpt>
      <trkpt lat="46.450046" lon="9.806060">
        <ele>1804.064</ele>
        <time>2022-07-11T12:00:14Z</time>
      </trkpt>
      <trkpt lat="46.449894" lon="9.805986">
        <ele>1803.026</ele>
        <time>2022-07-11T12:00:17Z</time>
      </trkpt>
      <trkpt lat="46.449842" lon="9.805943">
        <ele>1803.082</ele>
        <time>2022-07-11T12:00:18Z</time>
      </trkpt>
      <trkpt lat="46.449789" lon="9.805888">
        <ele>1802.666</ele>
        <time>2022-07-11T12:00:19Z</time>
      </trkpt>
      <trkpt lat="46.449644" lon="9.805740">
        <ele>1802.657</ele>
        <time>2022-07-11T12:00:22Z</time>
      </trkpt>
      <trkpt lat="46.449588" lon="9.805711">
        <ele>1802.645</ele>
        <time>2022-07-11T12:00:23Z</time>
      </trkpt>
      <trkpt lat="46.449069" lon="9.805494">
        <ele>1802.699</ele>
        <time>2022-07-11T12:00:34Z</time>
      </trkpt>
      <trkpt lat="46.448926" lon="9.805476">
        <ele>1802.683</ele>
        <time>2022-07-11T12:00:37Z</time>
      </trkpt>
      <trkpt lat="46.448681" lon="9.805509">
        <ele>1802.625</ele>
        <time>2022-07-11T12:00:42Z</time>
      </trkpt>
      <trkpt lat="46.448632" lon="9.805511">
        <ele>1802.617</ele>
        <time>2022-07-11T12:00:43Z</time>
      </trkpt>
      <trkpt lat="46.448388" lon="9.805460">
        <ele>1802.609</ele>
        <time>2022-07-11T12:00:48Z</time>
      </trkpt>
      <trkpt lat="46.448343" lon="9.805432">
        <ele>1802.649</ele>
        <time>2022-07-11T12:00:49Z</time>
      </trkpt>
      <trkpt lat="46.448257" lon="9.805366">
        <ele>1802.638</ele>
        <time>2022-07-11T12:00:51Z</time>
      </trkpt>
      <trkpt lat="46.447682" lon="9.804791">
        <ele>1802.656</ele>
        <time>2022-07-11T12:01:07Z</time>
      </trkpt>
      <trkpt lat="46.447191" lon="9.804557">
        <ele>1802.138</ele>
        <time>2022-07-11T12:01:20Z</time>
      </trkpt>
      <trkpt lat="46.447158" lon="9.804514">
        <ele>1802.114</ele>
        <time>2022-07-11T12:01:21Z</time>
      </trkpt>
      <trkpt lat="46.447129" lon="9.804469">
        <ele>1802.188</ele>
        <time>2022-07-11T12:01:22Z</time>
      </trkpt>
      <trkpt lat="46.447101" lon="9.804419">
        <ele>1802.149</ele>
        <time>2022-07-11T12:01:23Z</time>
      </trkpt>
      <trkpt lat="46.447077" lon="9.804366">
        <ele>1802.117</ele>
        <time>2022-07-11T12:01:24Z</time>
      </trkpt>
      <trkpt lat="46.447051" lon="9.804309">
        <ele>1802.121</ele>
        <time>2022-07-11T12:01:25Z</time>
      </trkpt>
      <trkpt lat="46.446956" lon="9.804078">
        <ele>1802.152</ele>
        <time>2022-07-11T12:01:29Z</time>
      </trkpt>
      <trkpt lat="46.446893" lon="9.803896">
        <ele>1802.153</ele>
        <time>2022-07-11T12:01:32Z</time>
      </trkpt>
      <trkpt lat="46.446868" lon="9.803843">
        <ele>1802.108</ele>
        <time>2022-07-11T12:01:33Z</time>
      </trkpt>
      <trkpt lat="46.446738" lon="9.803569">
        <ele>1802.109</ele>
        <time>2022-07-11T12:01:38Z</time>
      </trkpt>
      <trkpt lat="46.446577" lon="9.803271">
        <ele>1802.146</ele>
        <time>2022-07-11T12:01:44Z</time>
      </trkpt>
      <trkpt lat="46.446284" lon="9.802670">
        <ele>1803.575</ele>
        <time>2022-07-11T12:01:57Z</time>
      </trkpt>
      <trkpt lat="46.445931" lon="9.802308">
        <ele>1804.593</ele>
        <time>2022-07-11T12:02:09Z</time>
      </trkpt>
      <trkpt lat="46.445802" lon="9.802148">
        <ele>1803.095</ele>
        <time>2022-07-11T12:02:12Z</time>
      </trkpt>
      <trkpt lat="46.445767" lon="9.802090">
        <ele>1802.651</ele>
        <time>2022-07-11T12:02:13Z</time>
      </trkpt>
      <trkpt lat="46.445437" lon="9.801446">
        <ele>1802.165</ele>
        <time>2022-07-11T12:02:26Z</time>
      </trkpt>
      <trkpt lat="46.445420" lon="9.801391">
        <ele>1802.166</ele>
        <time>2022-07-11T12:02:27Z</time>
      </trkpt>
      <trkpt lat="46.445409" lon="9.801336">
        <ele>1802.184</ele>
        <time>2022-07-11T12:02:28Z</time>
      </trkpt>
      <trkpt lat="46.445406" lon="9.801277">
        <ele>1802.158</ele>
        <time>2022-07-11T12:02:29Z</time>
      </trkpt>
      <trkpt lat="46.445393" lon="9.801032">
        <ele>1802.167</ele>
        <time>2022-07-11T12:02:33Z</time>
      </trkpt>
      <trkpt lat="46.445311" lon="9.800547">
        <ele>1802.181</ele>
        <time>2022-07-11T12:02:41Z</time>
      </trkpt>
      <trkpt lat="46.445245" lon="9.799878">
        <ele>1802.619</ele>
        <time>2022-07-11T12:02:52Z</time>
      </trkpt>
      <trkpt lat="46.445229" lon="9.799700">
        <ele>1800.609</ele>
        <time>2022-07-11T12:02:55Z</time>
      </trkpt>
      <trkpt lat="46.445217" lon="9.799587">
        <ele>1802.667</ele>
        <time>2022-07-11T12:02:57Z</time>
      </trkpt>
      <trkpt lat="46.445070" lon="9.798785">
        <ele>1802.646</ele>
        <time>2022-07-11T12:03:11Z</time>
      </trkpt>
      <trkpt lat="46.445066" lon="9.798718">
        <ele>1802.644</ele>
        <time>2022-07-11T12:03:12Z</time>
      </trkpt>
      <trkpt lat="46.445062" lon="9.798467">
        <ele>1802.636</ele>
        <time>2022-07-11T12:03:16Z</time>
      </trkpt>
      <trkpt lat="46.444903" lon="9.797553">
        <ele>1802.132</ele>
        <time>2022-07-11T12:03:31Z</time>
      </trkpt>
      <trkpt lat="46.444704" lon="9.797132">
        <ele>1802.186</ele>
        <time>2022-07-11T12:03:39Z</time>
      </trkpt>
      <trkpt lat="46.444314" lon="9.796294">
        <ele>1802.167</ele>
        <time>2022-07-11T12:03:56Z</time>
      </trkpt>
      <trkpt lat="46.444268" lon="9.796239">
        <ele>1804.035</ele>
        <time>2022-07-11T12:03:59Z</time>
      </trkpt>
      <trkpt lat="46.444105" lon="9.796099">
        <ele>1805.979</ele>
        <time>2022-07-11T12:04:12Z</time>
      </trkpt>
      <trkpt lat="46.443897" lon="9.795957">
        <ele>1807.937</ele>
        <time>2022-07-11T12:04:29Z</time>
      </trkpt>
      <trkpt lat="46.443876" lon="9.795919">
        <ele>1808.349</ele>
        <time>2022-07-11T12:04:32Z</time>
      </trkpt>
      <trkpt lat="46.443869" lon="9.795684">
        <ele>1810.713</ele>
        <time>2022-07-11T12:04:49Z</time>
      </trkpt>
      <trkpt lat="46.443900" lon="9.795470">
        <ele>1813.109</ele>
        <time>2022-07-11T12:05:05Z</time>
      </trkpt>
      <trkpt lat="46.443937" lon="9.795276">
        <ele>1815.594</ele>
        <time>2022-07-11T12:05:21Z</time>
      </trkpt>
      <trkpt lat="46.443949" lon="9.795094">
        <ele>1817.593</ele>
        <time>2022-07-11T12:05:37Z</time>
      </trkpt>
      <trkpt lat="46.443903" lon="9.794830">
        <ele>1819.921</ele>
        <time>2022-07-11T12:05:53Z</time>
      </trkpt>
      <trkpt lat="46.443873" lon="9.794753">
        <ele>1820.333</ele>
        <time>2022-07-11T12:05:58Z</time>
      </trkpt>
      <trkpt lat="46.443870" lon="9.794713">
        <ele>1820.839</ele>
        <time>2022-07-11T12:06:00Z</time>
      </trkpt>
      <trkpt lat="46.443870" lon="9.794696">
        <ele>1820.823</ele>
        <time>2022-07-11T12:06:01Z</time>
      </trkpt>
      <trkpt lat="46.443862" lon="9.794662">
        <ele>1821.394</ele>
        <time>2022-07-11T12:06:03Z</time>
      </trkpt>
      <trkpt lat="46.443854" lon="9.794641">
        <ele>1821.332</ele>
        <time>2022-07-11T12:06:04Z</time>
      </trkpt>
      <trkpt lat="46.443848" lon="9.794619">
        <ele>1821.396</ele>
        <time>2022-07-11T12:06:05Z</time>
      </trkpt>
      <trkpt lat="46.443768" lon="9.794179">
        <ele>1821.812</ele>
        <time>2022-07-11T12:06:20Z</time>
      </trkpt>
      <trkpt lat="46.443706" lon="9.793645">
        <ele>1822.832</ele>
        <time>2022-07-11T12:06:35Z</time>
      </trkpt>
      <trkpt lat="46.443592" lon="9.792936">
        <ele>1821.305</ele>
        <time>2022-07-11T12:06:47Z</time>
      </trkpt>
      <trkpt lat="46.443567" lon="9.792814">
        <ele>1821.309</ele>
        <time>2022-07-11T12:06:49Z</time>
      </trkpt>
      <trkpt lat="46.443553" lon="9.792758">
        <ele>1821.392</ele>
        <time>2022-07-11T12:06:50Z</time>
      </trkpt>
      <trkpt lat="46.443533" lon="9.792710">
        <ele>1821.321</ele>
        <time>2022-07-11T12:06:51Z</time>
      </trkpt>
      <trkpt lat="46.443510" lon="9.792665">
        <ele>1821.359</ele>
        <time>2022-07-11T12:06:52Z</time>
      </trkpt>
      <trkpt lat="46.443484" lon="9.792619">
        <ele>1821.391</ele>
        <time>2022-07-11T12:06:53Z</time>
      </trkpt>
      <trkpt lat="46.443321" lon="9.792387">
        <ele>1820.887</ele>
        <time>2022-07-11T12:06:58Z</time>
      </trkpt>
      <trkpt lat="46.443149" lon="9.792138">
        <ele>1820.861</ele>
        <time>2022-07-11T12:07:03Z</time>
      </trkpt>
      <trkpt lat="46.443115" lon="9.792078">
        <ele>1820.832</ele>
        <time>2022-07-11T12:07:04Z</time>
      </trkpt>
      <trkpt lat="46.443087" lon="9.792016">
        <ele>1820.370</ele>
        <time>2022-07-11T12:07:05Z</time>
      </trkpt>
      <trkpt lat="46.443070" lon="9.791952">
        <ele>1820.364</ele>
        <time>2022-07-11T12:07:06Z</time>
      </trkpt>
      <trkpt lat="46.443060" lon="9.791882">
        <ele>1820.356</ele>
        <time>2022-07-11T12:07:07Z</time>
      </trkpt>
      <trkpt lat="46.443034" lon="9.791729">
        <ele>1819.959</ele>
        <time>2022-07-11T12:07:09Z</time>
      </trkpt>
      <trkpt lat="46.443009" lon="9.791643">
        <ele>1819.414</ele>
        <time>2022-07-11T12:07:10Z</time>
      </trkpt>
      <trkpt lat="46.442978" lon="9.791564">
        <ele>1819.409</ele>
        <time>2022-07-11T12:07:11Z</time>
      </trkpt>
      <trkpt lat="46.442942" lon="9.791491">
        <ele>1819.416</ele>
        <time>2022-07-11T12:07:12Z</time>
      </trkpt>
      <trkpt lat="46.442906" lon="9.791425">
        <ele>1819.415</ele>
        <time>2022-07-11T12:07:13Z</time>
      </trkpt>
      <trkpt lat="46.442864" lon="9.791359">
        <ele>1818.493</ele>
        <time>2022-07-11T12:07:14Z</time>
      </trkpt>
      <trkpt lat="46.442824" lon="9.791298">
        <ele>1817.945</ele>
        <time>2022-07-11T12:07:15Z</time>
      </trkpt>
      <trkpt lat="46.442436" lon="9.790753">
        <ele>1815.551</ele>
        <time>2022-07-11T12:07:23Z</time>
      </trkpt>
      <trkpt lat="46.442191" lon="9.790404">
        <ele>1816.545</ele>
        <time>2022-07-11T12:07:29Z</time>
      </trkpt>
      <trkpt lat="46.441735" lon="9.789908">
        <ele>1815.556</ele>
        <time>2022-07-11T12:07:41Z</time>
      </trkpt>
      <trkpt lat="46.441346" lon="9.789495">
        <ele>1812.244</ele>
        <time>2022-07-11T12:07:49Z</time>
      </trkpt>
      <trkpt lat="46.441143" lon="9.789253">
        <ele>1808.318</ele>
        <time>2022-07-11T12:07:52Z</time>
      </trkpt>
      <trkpt lat="46.440986" lon="9.789101">
        <ele>1807.487</ele>
        <time>2022-07-11T12:07:54Z</time>
      </trkpt>
      <trkpt lat="46.440919" lon="9.789010">
        <ele>1807.442</ele>
        <time>2022-07-11T12:07:55Z</time>
      </trkpt>
      <trkpt lat="46.440862" lon="9.788907">
        <ele>1807.426</ele>
        <time>2022-07-11T12:07:56Z</time>
      </trkpt>
      <trkpt lat="46.440813" lon="9.788801">
        <ele>1807.409</ele>
        <time>2022-07-11T12:07:57Z</time>
      </trkpt>
      <trkpt lat="46.440770" lon="9.788696">
        <ele>1807.459</ele>
        <time>2022-07-11T12:07:58Z</time>
      </trkpt>
      <trkpt lat="46.440735" lon="9.788589">
        <ele>1807.428</ele>
        <time>2022-07-11T12:07:59Z</time>
      </trkpt>
      <trkpt lat="46.440715" lon="9.788489">
        <ele>1807.446</ele>
        <time>2022-07-11T12:08:00Z</time>
      </trkpt>
      <trkpt lat="46.440705" lon="9.788382">
        <ele>1807.498</ele>
        <time>2022-07-11T12:08:01Z</time>
      </trkpt>
      <trkpt lat="46.440697" lon="9.788293">
        <ele>1807.454</ele>
        <time>2022-07-11T12:08:02Z</time>
      </trkpt>
      <trkpt lat="46.440687" lon="9.788205">
        <ele>1808.388</ele>
        <time>2022-07-11T12:08:03Z</time>
      </trkpt>
      <trkpt lat="46.440678" lon="9.788141">
        <ele>1809.339</ele>
        <time>2022-07-11T12:08:04Z</time>
      </trkpt>
      <trkpt lat="46.440663" lon="9.788086">
        <ele>1809.317</ele>
        <time>2022-07-11T12:08:05Z</time>
      </trkpt>
      <trkpt lat="46.440541" lon="9.787467">
        <ele>1811.291</ele>
        <time>2022-07-11T12:08:17Z</time>
      </trkpt>
      <trkpt lat="46.440524" lon="9.787396">
        <ele>1811.225</ele>
        <time>2022-07-11T12:08:18Z</time>
      </trkpt>
      <trkpt lat="46.440503" lon="9.787330">
        <ele>1811.226</ele>
        <time>2022-07-11T12:08:19Z</time>
      </trkpt>
      <trkpt lat="46.440478" lon="9.787271">
        <ele>1811.208</ele>
        <time>2022-07-11T12:08:20Z</time>
      </trkpt>
      <trkpt lat="46.440450" lon="9.787219">
        <ele>1811.209</ele>
        <time>2022-07-11T12:08:21Z</time>
      </trkpt>
      <trkpt lat="46.440422" lon="9.787175">
        <ele>1811.273</ele>
        <time>2022-07-11T12:08:22Z</time>
      </trkpt>
      <trkpt lat="46.440392" lon="9.787135">
        <ele>1811.272</ele>
        <time>2022-07-11T12:08:23Z</time>
      </trkpt>
      <trkpt lat="46.440357" lon="9.787096">
        <ele>1811.290</ele>
        <time>2022-07-11T12:08:24Z</time>
      </trkpt>
      <trkpt lat="46.440318" lon="9.787057">
        <ele>1811.272</ele>
        <time>2022-07-11T12:08:25Z</time>
      </trkpt>
      <trkpt lat="46.440186" lon="9.786953">
        <ele>1811.278</ele>
        <time>2022-07-11T12:08:28Z</time>
      </trkpt>
      <trkpt lat="46.439945" lon="9.786479">
        <ele>1812.242</ele>
        <time>2022-07-11T12:08:39Z</time>
      </trkpt>
      <trkpt lat="46.439713" lon="9.785895">
        <ele>1808.833</ele>
        <time>2022-07-11T12:08:48Z</time>
      </trkpt>
      <trkpt lat="46.439679" lon="9.785820">
        <ele>1808.831</ele>
        <time>2022-07-11T12:08:49Z</time>
      </trkpt>
      <trkpt lat="46.439640" lon="9.785745">
        <ele>1808.855</ele>
        <time>2022-07-11T12:08:50Z</time>
      </trkpt>
      <trkpt lat="46.439597" lon="9.785678">
        <ele>1807.946</ele>
        <time>2022-07-11T12:08:51Z</time>
      </trkpt>
      <trkpt lat="46.439545" lon="9.785608">
        <ele>1807.988</ele>
        <time>2022-07-11T12:08:52Z</time>
      </trkpt>
      <trkpt lat="46.439489" lon="9.785550">
        <ele>1807.416</ele>
        <time>2022-07-11T12:08:53Z</time>
      </trkpt>
      <trkpt lat="46.439427" lon="9.785503">
        <ele>1806.909</ele>
        <time>2022-07-11T12:08:54Z</time>
      </trkpt>
      <trkpt lat="46.439362" lon="9.785457">
        <ele>1806.945</ele>
        <time>2022-07-11T12:08:55Z</time>
      </trkpt>
      <trkpt lat="46.439297" lon="9.785406">
        <ele>1805.974</ele>
        <time>2022-07-11T12:08:56Z</time>
      </trkpt>
      <trkpt lat="46.439236" lon="9.785349">
        <ele>1805.032</ele>
        <time>2022-07-11T12:08:57Z</time>
      </trkpt>
      <trkpt lat="46.438693" lon="9.784759">
        <ele>1803.084</ele>
        <time>2022-07-11T12:09:06Z</time>
      </trkpt>
      <trkpt lat="46.438639" lon="9.784714">
        <ele>1803.080</ele>
        <time>2022-07-11T12:09:07Z</time>
      </trkpt>
      <trkpt lat="46.438436" lon="9.784588">
        <ele>1803.034</ele>
        <time>2022-07-11T12:09:11Z</time>
      </trkpt>
      <trkpt lat="46.438389" lon="9.784569">
        <ele>1803.025</ele>
        <time>2022-07-11T12:09:12Z</time>
      </trkpt>
      <trkpt lat="46.438340" lon="9.784552">
        <ele>1803.093</ele>
        <time>2022-07-11T12:09:13Z</time>
      </trkpt>
      <trkpt lat="46.438054" lon="9.784472">
        <ele>1802.137</ele>
        <time>2022-07-11T12:09:19Z</time>
      </trkpt>
      <trkpt lat="46.438011" lon="9.784445">
        <ele>1802.155</ele>
        <time>2022-07-11T12:09:20Z</time>
      </trkpt>
      <trkpt lat="46.437769" lon="9.784250">
        <ele>1803.507</ele>
        <time>2022-07-11T12:09:26Z</time>
      </trkpt>
      <trkpt lat="46.437735" lon="9.784205">
        <ele>1803.517</ele>
        <time>2022-07-11T12:09:27Z</time>
      </trkpt>
      <trkpt lat="46.437705" lon="9.784156">
        <ele>1803.509</ele>
        <time>2022-07-11T12:09:28Z</time>
      </trkpt>
      <trkpt lat="46.437624" lon="9.783998">
        <ele>1804.056</ele>
        <time>2022-07-11T12:09:31Z</time>
      </trkpt>
      <trkpt lat="46.437468" lon="9.783601">
        <ele>1804.585</ele>
        <time>2022-07-11T12:09:38Z</time>
      </trkpt>
      <trkpt lat="46.437343" lon="9.783197">
        <ele>1804.533</ele>
        <time>2022-07-11T12:09:45Z</time>
      </trkpt>
      <trkpt lat="46.437331" lon="9.783140">
        <ele>1804.575</ele>
        <time>2022-07-11T12:09:46Z</time>
      </trkpt>
      <trkpt lat="46.437325" lon="9.783082">
        <ele>1804.571</ele>
        <time>2022-07-11T12:09:47Z</time>
      </trkpt>
      <trkpt lat="46.437320" lon="9.782962">
        <ele>1804.545</ele>
        <time>2022-07-11T12:09:49Z</time>
      </trkpt>
      <trkpt lat="46.437310" lon="9.782902">
        <ele>1804.596</ele>
        <time>2022-07-11T12:09:50Z</time>
      </trkpt>
      <trkpt lat="46.437285" lon="9.782783">
        <ele>1804.514</ele>
        <time>2022-07-11T12:09:52Z</time>
      </trkpt>
      <trkpt lat="46.436918" lon="9.782230">
        <ele>1803.538</ele>
        <time>2022-07-11T12:10:06Z</time>
      </trkpt>
      <trkpt lat="46.436893" lon="9.782209">
        <ele>1803.592</ele>
        <time>2022-07-11T12:10:07Z</time>
      </trkpt>
      <trkpt lat="46.436655" lon="9.781658">
        <ele>1803.573</ele>
        <time>2022-07-11T12:10:19Z</time>
      </trkpt>
      <trkpt lat="46.436603" lon="9.781399">
        <ele>1805.020</ele>
        <time>2022-07-11T12:10:25Z</time>
      </trkpt>
      <trkpt lat="46.436477" lon="9.781034">
        <ele>1805.009</ele>
        <time>2022-07-11T12:10:33Z</time>
      </trkpt>
      <trkpt lat="46.436463" lon="9.780969">
        <ele>1805.060</ele>
        <time>2022-07-11T12:10:34Z</time>
      </trkpt>
      <trkpt lat="46.436429" lon="9.780845">
        <ele>1804.559</ele>
        <time>2022-07-11T12:10:36Z</time>
      </trkpt>
      <trkpt lat="46.436420" lon="9.780784">
        <ele>1804.527</ele>
        <time>2022-07-11T12:10:37Z</time>
      </trkpt>
      <trkpt lat="46.436417" lon="9.780725">
        <ele>1803.559</ele>
        <time>2022-07-11T12:10:38Z</time>
      </trkpt>
      <trkpt lat="46.436428" lon="9.780670">
        <ele>1803.575</ele>
        <time>2022-07-11T12:10:39Z</time>
      </trkpt>
      <trkpt lat="46.436439" lon="9.780613">
        <ele>1803.539</ele>
        <time>2022-07-11T12:10:40Z</time>
      </trkpt>
      <trkpt lat="46.436451" lon="9.780557">
        <ele>1803.550</ele>
        <time>2022-07-11T12:10:41Z</time>
      </trkpt>
      <trkpt lat="46.436471" lon="9.780503">
        <ele>1803.558</ele>
        <time>2022-07-11T12:10:42Z</time>
      </trkpt>
      <trkpt lat="46.436492" lon="9.780456">
        <ele>1803.542</ele>
        <time>2022-07-11T12:10:43Z</time>
      </trkpt>
      <trkpt lat="46.436581" lon="9.779768">
        <ele>1803.085</ele>
        <time>2022-07-11T12:10:57Z</time>
      </trkpt>
      <trkpt lat="46.436336" lon="9.779120">
        <ele>1804.089</ele>
        <time>2022-07-11T12:11:12Z</time>
      </trkpt>
      <trkpt lat="46.436104" lon="9.778328">
        <ele>1804.017</ele>
        <time>2022-07-11T12:11:30Z</time>
      </trkpt>
      <trkpt lat="46.435892" lon="9.777724">
        <ele>1803.509</ele>
        <time>2022-07-11T12:11:44Z</time>
      </trkpt>
      <trkpt lat="46.435608" lon="9.777024">
        <ele>1805.099</ele>
        <time>2022-07-11T12:12:00Z</time>
      </trkpt>
      <trkpt lat="46.435244" lon="9.776241">
        <ele>1805.058</ele>
        <time>2022-07-11T12:12:18Z</time>
      </trkpt>
      <trkpt lat="46.434723" lon="9.775386">
        <ele>1805.036</ele>
        <time>2022-07-11T12:12:40Z</time>
      </trkpt>
      <trkpt lat="46.434310" lon="9.774727">
        <ele>1805.068</ele>
        <time>2022-07-11T12:12:57Z</time>
      </trkpt>
      <trkpt lat="46.433847" lon="9.773990">
        <ele>1805.414</ele>
        <time>2022-07-11T12:13:17Z</time>
      </trkpt>
      <trkpt lat="46.433418" lon="9.773318">
        <ele>1806.438</ele>
        <time>2022-07-11T12:13:36Z</time>
      </trkpt>
      <trkpt lat="46.433069" lon="9.772746">
        <ele>1807.489</ele>
        <time>2022-07-11T12:13:52Z</time>
      </trkpt>
      <trkpt lat="46.432637" lon="9.772020">
        <ele>1807.947</ele>
        <time>2022-07-11T12:14:12Z</time>
      </trkpt>
      <trkpt lat="46.432427" lon="9.771347">
        <ele>1807.941</ele>
        <time>2022-07-11T12:14:28Z</time>
      </trkpt>
      <trkpt lat="46.432375" lon="9.770300">
        <ele>1808.353</ele>
        <time>2022-07-11T12:14:46Z</time>
      </trkpt>
      <trkpt lat="46.432360" lon="9.769645">
        <ele>1807.404</ele>
        <time>2022-07-11T12:14:58Z</time>
      </trkpt>
      <trkpt lat="46.432371" lon="9.769332">
        <ele>1808.814</ele>
        <time>2022-07-11T12:15:04Z</time>
      </trkpt>
      <trkpt lat="46.432419" lon="9.768287">
        <ele>1809.809</ele>
        <time>2022-07-11T12:15:22Z</time>
      </trkpt>
      <trkpt lat="46.432479" lon="9.767587">
        <ele>1810.776</ele>
        <time>2022-07-11T12:15:38Z</time>
      </trkpt>
      <trkpt lat="46.432497" lon="9.766817">
        <ele>1811.715</ele>
        <time>2022-07-11T12:15:55Z</time>
      </trkpt>
      <trkpt lat="46.432362" lon="9.766173">
        <ele>1812.293</ele>
        <time>2022-07-11T12:16:10Z</time>
      </trkpt>
      <trkpt lat="46.432190" lon="9.765753">
        <ele>1813.655</ele>
        <time>2022-07-11T12:16:23Z</time>
      </trkpt>
      <trkpt lat="46.432191" lon="9.765728">
        <ele>1814.681</ele>
        <time>2022-07-11T12:16:24Z</time>
      </trkpt>
      <trkpt lat="46.432196" lon="9.765703">
        <ele>1814.675</ele>
        <time>2022-07-11T12:16:25Z</time>
      </trkpt>
      <trkpt lat="46.432263" lon="9.765339">
        <ele>1814.696</ele>
        <time>2022-07-11T12:16:36Z</time>
      </trkpt>
      <trkpt lat="46.432311" lon="9.764739">
        <ele>1813.154</ele>
        <time>2022-07-11T12:16:46Z</time>
      </trkpt>
      <trkpt lat="46.432343" lon="9.764004">
        <ele>1812.268</ele>
        <time>2022-07-11T12:16:57Z</time>
      </trkpt>
      <trkpt lat="46.432361" lon="9.763710">
        <ele>1811.283</ele>
        <time>2022-07-11T12:17:06Z</time>
      </trkpt>
      <trkpt lat="46.432368" lon="9.763603">
        <ele>1813.625</ele>
        <time>2022-07-11T12:17:10Z</time>
      </trkpt>
      <trkpt lat="46.432400" lon="9.763090">
        <ele>1813.117</ele>
        <time>2022-07-11T12:17:24Z</time>
      </trkpt>
      <trkpt lat="46.432404" lon="9.762996">
        <ele>1813.109</ele>
        <time>2022-07-11T12:17:27Z</time>
      </trkpt>
      <trkpt lat="46.432392" lon="9.762987">
        <ele>1813.119</ele>
        <time>2022-07-11T12:17:28Z</time>
      </trkpt>
      <trkpt lat="46.432380" lon="9.763000">
        <ele>1813.188</ele>
        <time>2022-07-11T12:17:29Z</time>
      </trkpt>
      <trkpt lat="46.432378" lon="9.763030">
        <ele>1813.156</ele>
        <time>2022-07-11T12:17:30Z</time>
      </trkpt>
      <trkpt lat="46.432382" lon="9.763059">
        <ele>1813.158</ele>
        <time>2022-07-11T12:17:31Z</time>
      </trkpt>
      <trkpt lat="46.432389" lon="9.763091">
        <ele>1813.134</ele>
        <time>2022-07-11T12:17:32Z</time>
      </trkpt>
      <trkpt lat="46.432357" lon="9.763705">
        <ele>1811.728</ele>
        <time>2022-07-11T12:17:44Z</time>
      </trkpt>
      <trkpt lat="46.432328" lon="9.763970">
        <ele>1811.769</ele>
        <time>2022-07-11T12:17:49Z</time>
      </trkpt>
      <trkpt lat="46.432301" lon="9.763989">
        <ele>1811.747</ele>
        <time>2022-07-11T12:17:50Z</time>
      </trkpt>
      <trkpt lat="46.432360" lon="9.763912">
        <ele>1811.731</ele>
        <time>2022-07-11T12:19:29Z</time>
      </trkpt>
      <trkpt lat="46.432364" lon="9.763872">
        <ele>1811.722</ele>
        <time>2022-07-11T12:19:30Z</time>
      </trkpt>
      <trkpt lat="46.432365" lon="9.763832">
        <ele>1811.762</ele>
        <time>2022-07-11T12:19:31Z</time>
      </trkpt>
      <trkpt lat="46.432409" lon="9.762925">
        <ele>1813.108</ele>
        <time>2022-07-11T12:19:50Z</time>
      </trkpt>
      <trkpt lat="46.432465" lon="9.761917">
        <ele>1813.109</ele>
        <time>2022-07-11T12:20:09Z</time>
      </trkpt>
      <trkpt lat="46.432539" lon="9.760726">
        <ele>1812.753</ele>
        <time>2022-07-11T12:20:29Z</time>
      </trkpt>
      <trkpt lat="46.432575" lon="9.760288">
        <ele>1811.742</ele>
        <time>2022-07-11T12:20:36Z</time>
      </trkpt>
      <trkpt lat="46.432594" lon="9.759803">
        <ele>1811.720</ele>
        <time>2022-07-11T12:20:49Z</time>
      </trkpt>
      <trkpt lat="46.432649" lon="9.759229">
        <ele>1810.712</ele>
        <time>2022-07-11T12:21:01Z</time>
      </trkpt>
      <trkpt lat="46.432535" lon="9.758630">
        <ele>1810.738</ele>
        <time>2022-07-11T12:21:13Z</time>
      </trkpt>
      <trkpt lat="46.432308" lon="9.758199">
        <ele>1810.762</ele>
        <time>2022-07-11T12:21:24Z</time>
      </trkpt>
      <trkpt lat="46.432325" lon="9.758154">
        <ele>1810.733</ele>
        <time>2022-07-11T12:21:25Z</time>
      </trkpt>
      <trkpt lat="46.432350" lon="9.758113">
        <ele>1810.771</ele>
        <time>2022-07-11T12:21:26Z</time>
      </trkpt>
      <trkpt lat="46.432826" lon="9.757332">
        <ele>1811.225</ele>
        <time>2022-07-11T12:21:42Z</time>
      </trkpt>
      <trkpt lat="46.432952" lon="9.757123">
        <ele>1810.399</ele>
        <time>2022-07-11T12:21:46Z</time>
      </trkpt>
      <trkpt lat="46.432981" lon="9.757070">
        <ele>1810.307</ele>
        <time>2022-07-11T12:21:47Z</time>
      </trkpt>
      <trkpt lat="46.433274" lon="9.756416">
        <ele>1809.327</ele>
        <time>2022-07-11T12:21:58Z</time>
      </trkpt>
      <trkpt lat="46.433301" lon="9.756359">
        <ele>1809.309</ele>
        <time>2022-07-11T12:21:59Z</time>
      </trkpt>
      <trkpt lat="46.433467" lon="9.755824">
        <ele>1809.320</ele>
        <time>2022-07-11T12:22:07Z</time>
      </trkpt>
      <trkpt lat="46.433488" lon="9.755756">
        <ele>1808.849</ele>
        <time>2022-07-11T12:22:08Z</time>
      </trkpt>
      <trkpt lat="46.433505" lon="9.755691">
        <ele>1808.867</ele>
        <time>2022-07-11T12:22:09Z</time>
      </trkpt>
      <trkpt lat="46.433524" lon="9.755622">
        <ele>1808.329</ele>
        <time>2022-07-11T12:22:10Z</time>
      </trkpt>
      <trkpt lat="46.433545" lon="9.755565">
        <ele>1808.365</ele>
        <time>2022-07-11T12:22:11Z</time>
      </trkpt>
      <trkpt lat="46.433576" lon="9.755504">
        <ele>1808.319</ele>
        <time>2022-07-11T12:22:12Z</time>
      </trkpt>
      <trkpt lat="46.433607" lon="9.755464">
        <ele>1808.370</ele>
        <time>2022-07-11T12:22:13Z</time>
      </trkpt>
      <trkpt lat="46.433646" lon="9.755424">
        <ele>1808.358</ele>
        <time>2022-07-11T12:22:14Z</time>
      </trkpt>
      <trkpt lat="46.433690" lon="9.755384">
        <ele>1808.362</ele>
        <time>2022-07-11T12:22:15Z</time>
      </trkpt>
      <trkpt lat="46.434404" lon="9.754910">
        <ele>1807.979</ele>
        <time>2022-07-11T12:22:31Z</time>
      </trkpt>
      <trkpt lat="46.434515" lon="9.754820">
        <ele>1807.905</ele>
        <time>2022-07-11T12:22:42Z</time>
      </trkpt>
      <trkpt lat="46.434578" lon="9.754803">
        <ele>1807.925</ele>
        <time>2022-07-11T12:22:55Z</time>
      </trkpt>
      <trkpt lat="46.434582" lon="9.754764">
        <ele>1807.909</ele>
        <time>2022-07-11T12:23:16Z</time>
      </trkpt>
      <trkpt lat="46.434586" lon="9.754710">
        <ele>1807.958</ele>
        <time>2022-07-11T12:23:19Z</time>
      </trkpt>
      <trkpt lat="46.434601" lon="9.754694">
        <ele>1807.927</ele>
        <time>2022-07-11T12:23:20Z</time>
      </trkpt>
      <trkpt lat="46.434623" lon="9.754683">
        <ele>1807.985</ele>
        <time>2022-07-11T12:23:21Z</time>
      </trkpt>
      <trkpt lat="46.434651" lon="9.754675">
        <ele>1807.997</ele>
        <time>2022-07-11T12:23:22Z</time>
      </trkpt>
      <trkpt lat="46.434679" lon="9.754666">
        <ele>1807.953</ele>
        <time>2022-07-11T12:23:23Z</time>
      </trkpt>
      <trkpt lat="46.434705" lon="9.754652">
        <ele>1807.967</ele>
        <time>2022-07-11T12:23:24Z</time>
      </trkpt>
      <trkpt lat="46.434732" lon="9.754633">
        <ele>1807.948</ele>
        <time>2022-07-11T12:23:25Z</time>
      </trkpt>
      <trkpt lat="46.434758" lon="9.754615">
        <ele>1807.966</ele>
        <time>2022-07-11T12:23:26Z</time>
      </trkpt>
      <trkpt lat="46.434845" lon="9.754531">
        <ele>1807.960</ele>
        <time>2022-07-11T12:23:31Z</time>
      </trkpt>
      <trkpt lat="46.434853" lon="9.754498">
        <ele>1807.915</ele>
        <time>2022-07-11T12:23:32Z</time>
      </trkpt>
      <trkpt lat="46.434860" lon="9.754472">
        <ele>1807.965</ele>
        <time>2022-07-11T12:23:33Z</time>
      </trkpt>
      <trkpt lat="46.434869" lon="9.754425">
        <ele>1807.911</ele>
        <time>2022-07-11T12:23:34Z</time>
      </trkpt>
      <trkpt lat="46.434871" lon="9.754385">
        <ele>1807.909</ele>
        <time>2022-07-11T12:23:35Z</time>
      </trkpt>
      <trkpt lat="46.434867" lon="9.754338">
        <ele>1806.952</ele>
        <time>2022-07-11T12:23:36Z</time>
      </trkpt>
      <trkpt lat="46.434855" lon="9.754287">
        <ele>1806.991</ele>
        <time>2022-07-11T12:23:37Z</time>
      </trkpt>
      <trkpt lat="46.434839" lon="9.754237">
        <ele>1806.989</ele>
        <time>2022-07-11T12:23:38Z</time>
      </trkpt>
      <trkpt lat="46.434821" lon="9.754183">
        <ele>1806.921</ele>
        <time>2022-07-11T12:23:39Z</time>
      </trkpt>
      <trkpt lat="46.434500" lon="9.753075">
        <ele>1806.967</ele>
        <time>2022-07-11T12:24:00Z</time>
      </trkpt>
      <trkpt lat="46.434189" lon="9.752021">
        <ele>1807.941</ele>
        <time>2022-07-11T12:24:21Z</time>
      </trkpt>
      <trkpt lat="46.433713" lon="9.751085">
        <ele>1809.372</ele>
        <time>2022-07-11T12:24:42Z</time>
      </trkpt>
      <trkpt lat="46.433255" lon="9.750113">
        <ele>1809.390</ele>
        <time>2022-07-11T12:25:05Z</time>
      </trkpt>
      <trkpt lat="46.432920" lon="9.749144">
        <ele>1809.354</ele>
        <time>2022-07-11T12:25:25Z</time>
      </trkpt>
      <trkpt lat="46.432705" lon="9.748102">
        <ele>1809.398</ele>
        <time>2022-07-11T12:25:43Z</time>
      </trkpt>
      <trkpt lat="46.432733" lon="9.747018">
        <ele>1807.915</ele>
        <time>2022-07-11T12:26:01Z</time>
      </trkpt>
      <trkpt lat="46.432829" lon="9.745893">
        <ele>1807.926</ele>
        <time>2022-07-11T12:26:19Z</time>
      </trkpt>
      <trkpt lat="46.432640" lon="9.744721">
        <ele>1808.309</ele>
        <time>2022-07-11T12:26:38Z</time>
      </trkpt>
      <trkpt lat="46.432153" lon="9.743777">
        <ele>1809.390</ele>
        <time>2022-07-11T12:26:56Z</time>
      </trkpt>
      <trkpt lat="46.431600" lon="9.742991">
        <ele>1809.359</ele>
        <time>2022-07-11T12:27:13Z</time>
      </trkpt>
      <trkpt lat="46.431369" lon="9.742264">
        <ele>1809.377</ele>
        <time>2022-07-11T12:27:28Z</time>
      </trkpt>
      <trkpt lat="46.431199" lon="9.741372">
        <ele>1809.359</ele>
        <time>2022-07-11T12:27:46Z</time>
      </trkpt>
      <trkpt lat="46.430902" lon="9.740437">
        <ele>1809.375</ele>
        <time>2022-07-11T12:28:05Z</time>
      </trkpt>
      <trkpt lat="46.430551" lon="9.739592">
        <ele>1808.369</ele>
        <time>2022-07-11T12:28:21Z</time>
      </trkpt>
      <trkpt lat="46.430017" lon="9.738759">
        <ele>1808.850</ele>
        <time>2022-07-11T12:28:39Z</time>
      </trkpt>
      <trkpt lat="46.429512" lon="9.738176">
        <ele>1808.858</ele>
        <time>2022-07-11T12:28:55Z</time>
      </trkpt>
      <trkpt lat="46.429092" lon="9.737427">
        <ele>1808.882</ele>
        <time>2022-07-11T12:29:14Z</time>
      </trkpt>
      <trkpt lat="46.428780" lon="9.736751">
        <ele>1809.883</ele>
        <time>2022-07-11T12:29:31Z</time>
      </trkpt>
      <trkpt lat="46.428712" lon="9.736109">
        <ele>1811.725</ele>
        <time>2022-07-11T12:29:48Z</time>
      </trkpt>
      <trkpt lat="46.428758" lon="9.735511">
        <ele>1814.117</ele>
        <time>2022-07-11T12:30:04Z</time>
      </trkpt>
      <trkpt lat="46.428804" lon="9.734944">
        <ele>1816.009</ele>
        <time>2022-07-11T12:30:24Z</time>
      </trkpt>
      <trkpt lat="46.428581" lon="9.734434">
        <ele>1818.949</ele>
        <time>2022-07-11T12:30:42Z</time>
      </trkpt>
      <trkpt lat="46.428200" lon="9.734070">
        <ele>1820.828</ele>
        <time>2022-07-11T12:31:01Z</time>
      </trkpt>
      <trkpt lat="46.427867" lon="9.733724">
        <ele>1821.346</ele>
        <time>2022-07-11T12:31:17Z</time>
      </trkpt>
      <trkpt lat="46.427472" lon="9.733217">
        <ele>1823.268</ele>
        <time>2022-07-11T12:31:35Z</time>
      </trkpt>
      <trkpt lat="46.427326" lon="9.733020">
        <ele>1823.264</ele>
        <time>2022-07-11T12:31:40Z</time>
      </trkpt>
      <trkpt lat="46.427115" lon="9.732588">
        <ele>1821.818</ele>
        <time>2022-07-11T12:31:47Z</time>
      </trkpt>
      <trkpt lat="46.426536" lon="9.731579">
        <ele>1818.429</ele>
        <time>2022-07-11T12:32:03Z</time>
      </trkpt>
      <trkpt lat="46.426178" lon="9.731000">
        <ele>1816.547</ele>
        <time>2022-07-11T12:32:12Z</time>
      </trkpt>
      <trkpt lat="46.425540" lon="9.729652">
        <ele>1815.131</ele>
        <time>2022-07-11T12:32:29Z</time>
      </trkpt>
      <trkpt lat="46.424928" lon="9.728440">
        <ele>1814.193</ele>
        <time>2022-07-11T12:32:45Z</time>
      </trkpt>
      <trkpt lat="46.424199" lon="9.727432">
        <ele>1813.165</ele>
        <time>2022-07-11T12:33:03Z</time>
      </trkpt>
      <trkpt lat="46.424124" lon="9.727323">
        <ele>1811.721</ele>
        <time>2022-07-11T12:33:05Z</time>
      </trkpt>
      <trkpt lat="46.423345" lon="9.726575">
        <ele>1811.709</ele>
        <time>2022-07-11T12:33:23Z</time>
      </trkpt>
      <trkpt lat="46.422404" lon="9.726344">
        <ele>1810.740</ele>
        <time>2022-07-11T12:33:41Z</time>
      </trkpt>
      <trkpt lat="46.421543" lon="9.726367">
        <ele>1809.359</ele>
        <time>2022-07-11T12:33:58Z</time>
      </trkpt>
      <trkpt lat="46.420515" lon="9.726450">
        <ele>1808.877</ele>
        <time>2022-07-11T12:34:17Z</time>
      </trkpt>
      <trkpt lat="46.419874" lon="9.726823">
        <ele>1809.899</ele>
        <time>2022-07-11T12:34:33Z</time>
      </trkpt>
      <trkpt lat="46.419374" lon="9.727402">
        <ele>1812.295</ele>
        <time>2022-07-11T12:34:52Z</time>
      </trkpt>
      <trkpt lat="46.418956" lon="9.727444">
        <ele>1814.649</ele>
        <time>2022-07-11T12:35:07Z</time>
      </trkpt>
      <trkpt lat="46.418641" lon="9.727078">
        <ele>1815.570</ele>
        <time>2022-07-11T12:35:22Z</time>
      </trkpt>
      <trkpt lat="46.418342" lon="9.726446">
        <ele>1817.058</ele>
        <time>2022-07-11T12:35:40Z</time>
      </trkpt>
      <trkpt lat="46.418000" lon="9.725643">
        <ele>1817.092</ele>
        <time>2022-07-11T12:35:58Z</time>
      </trkpt>
      <trkpt lat="46.417694" lon="9.724491">
        <ele>1815.153</ele>
        <time>2022-07-11T12:36:16Z</time>
      </trkpt>
      <trkpt lat="46.417276" lon="9.723227">
        <ele>1811.704</ele>
        <time>2022-07-11T12:36:36Z</time>
      </trkpt>
      <trkpt lat="46.417004" lon="9.722276">
        <ele>1811.714</ele>
        <time>2022-07-11T12:36:49Z</time>
      </trkpt>
      <trkpt lat="46.416608" lon="9.720983">
        <ele>1809.809</ele>
        <time>2022-07-11T12:37:08Z</time>
      </trkpt>
      <trkpt lat="46.416166" lon="9.719787">
        <ele>1809.356</ele>
        <time>2022-07-11T12:37:27Z</time>
      </trkpt>
      <trkpt lat="46.415862" lon="9.718801">
        <ele>1810.715</ele>
        <time>2022-07-11T12:37:46Z</time>
      </trkpt>
      <trkpt lat="46.415348" lon="9.717951">
        <ele>1812.793</ele>
        <time>2022-07-11T12:38:05Z</time>
      </trkpt>
      <trkpt lat="46.415240" lon="9.717740">
        <ele>1812.775</ele>
        <time>2022-07-11T12:38:09Z</time>
      </trkpt>
      <trkpt lat="46.415144" lon="9.717455">
        <ele>1812.781</ele>
        <time>2022-07-11T12:38:14Z</time>
      </trkpt>
      <trkpt lat="46.415101" lon="9.717273">
        <ele>1811.215</ele>
        <time>2022-07-11T12:38:17Z</time>
      </trkpt>
      <trkpt lat="46.414794" lon="9.716036">
        <ele>1809.386</ele>
        <time>2022-07-11T12:38:36Z</time>
      </trkpt>
      <trkpt lat="46.414300" lon="9.714898">
        <ele>1809.314</ele>
        <time>2022-07-11T12:38:56Z</time>
      </trkpt>
      <trkpt lat="46.413903" lon="9.713887">
        <ele>1811.778</ele>
        <time>2022-07-11T12:39:17Z</time>
      </trkpt>
      <trkpt lat="46.413423" lon="9.713172">
        <ele>1812.756</ele>
        <time>2022-07-11T12:39:36Z</time>
      </trkpt>
      <trkpt lat="46.412922" lon="9.712606">
        <ele>1812.759</ele>
        <time>2022-07-11T12:39:53Z</time>
      </trkpt>
      <trkpt lat="46.412436" lon="9.711939">
        <ele>1811.714</ele>
        <time>2022-07-11T12:40:08Z</time>
      </trkpt>
      <trkpt lat="46.412412" lon="9.711882">
        <ele>1811.709</ele>
        <time>2022-07-11T12:40:09Z</time>
      </trkpt>
      <trkpt lat="46.411987" lon="9.711109">
        <ele>1811.276</ele>
        <time>2022-07-11T12:40:24Z</time>
      </trkpt>
      <trkpt lat="46.411575" lon="9.709977">
        <ele>1811.245</ele>
        <time>2022-07-11T12:40:44Z</time>
      </trkpt>
      <trkpt lat="46.411548" lon="9.709902">
        <ele>1810.793</ele>
        <time>2022-07-11T12:40:45Z</time>
      </trkpt>
      <trkpt lat="46.411008" lon="9.709037">
        <ele>1809.385</ele>
        <time>2022-07-11T12:41:01Z</time>
      </trkpt>
      <trkpt lat="46.410733" lon="9.707983">
        <ele>1806.951</ele>
        <time>2022-07-11T12:41:15Z</time>
      </trkpt>
      <trkpt lat="46.410533" lon="9.706675">
        <ele>1806.925</ele>
        <time>2022-07-11T12:41:34Z</time>
      </trkpt>
      <trkpt lat="46.410243" lon="9.705231">
        <ele>1806.916</ele>
        <time>2022-07-11T12:41:55Z</time>
      </trkpt>
      <trkpt lat="46.410034" lon="9.704690">
        <ele>1806.984</ele>
        <time>2022-07-11T12:42:04Z</time>
      </trkpt>
      <trkpt lat="46.409890" lon="9.704457">
        <ele>1806.978</ele>
        <time>2022-07-11T12:42:09Z</time>
      </trkpt>
      <trkpt lat="46.409854" lon="9.704411">
        <ele>1806.969</ele>
        <time>2022-07-11T12:42:10Z</time>
      </trkpt>
      <trkpt lat="46.409459" lon="9.704047">
        <ele>1806.904</ele>
        <time>2022-07-11T12:42:24Z</time>
      </trkpt>
      <trkpt lat="46.409449" lon="9.704041">
        <ele>1808.824</ele>
        <time>2022-07-11T12:42:48Z</time>
      </trkpt>
      <trkpt lat="46.409436" lon="9.704055">
        <ele>1807.409</ele>
        <time>2022-07-11T12:42:52Z</time>
      </trkpt>
      <trkpt lat="46.409422" lon="9.704068">
        <ele>1807.467</ele>
        <time>2022-07-11T12:42:53Z</time>
      </trkpt>
      <trkpt lat="46.409287" lon="9.704242">
        <ele>1806.436</ele>
        <time>2022-07-11T12:42:59Z</time>
      </trkpt>
      <trkpt lat="46.409252" lon="9.704271">
        <ele>1805.934</ele>
        <time>2022-07-11T12:43:00Z</time>
      </trkpt>
      <trkpt lat="46.409152" lon="9.704329">
        <ele>1806.426</ele>
        <time>2022-07-11T12:43:02Z</time>
      </trkpt>
      <trkpt lat="46.409108" lon="9.704346">
        <ele>1806.412</ele>
        <time>2022-07-11T12:43:03Z</time>
      </trkpt>
      <trkpt lat="46.408784" lon="9.704435">
        <ele>1806.426</ele>
        <time>2022-07-11T12:43:10Z</time>
      </trkpt>
      <trkpt lat="46.408368" lon="9.704509">
        <ele>1805.937</ele>
        <time>2022-07-11T12:43:19Z</time>
      </trkpt>
      <trkpt lat="46.408320" lon="9.704503">
        <ele>1805.975</ele>
        <time>2022-07-11T12:43:20Z</time>
      </trkpt>
      <trkpt lat="46.408270" lon="9.704481">
        <ele>1805.949</ele>
        <time>2022-07-11T12:43:21Z</time>
      </trkpt>
      <trkpt lat="46.408226" lon="9.704450">
        <ele>1805.973</ele>
        <time>2022-07-11T12:43:22Z</time>
      </trkpt>
      <trkpt lat="46.408186" lon="9.704416">
        <ele>1805.985</ele>
        <time>2022-07-11T12:43:23Z</time>
      </trkpt>
      <trkpt lat="46.408144" lon="9.704377">
        <ele>1805.913</ele>
        <time>2022-07-11T12:43:24Z</time>
      </trkpt>
      <trkpt lat="46.407896" lon="9.704167">
        <ele>1805.909</ele>
        <time>2022-07-11T12:43:30Z</time>
      </trkpt>
      <trkpt lat="46.407854" lon="9.704124">
        <ele>1805.928</ele>
        <time>2022-07-11T12:43:31Z</time>
      </trkpt>
      <trkpt lat="46.407818" lon="9.704082">
        <ele>1805.947</ele>
        <time>2022-07-11T12:43:32Z</time>
      </trkpt>
      <trkpt lat="46.407784" lon="9.704035">
        <ele>1805.975</ele>
        <time>2022-07-11T12:43:33Z</time>
      </trkpt>
      <trkpt lat="46.407751" lon="9.703988">
        <ele>1805.927</ele>
        <time>2022-07-11T12:43:34Z</time>
      </trkpt>
      <trkpt lat="46.407597" lon="9.703833">
        <ele>1805.983</ele>
        <time>2022-07-11T12:43:38Z</time>
      </trkpt>
      <trkpt lat="46.407552" lon="9.703807">
        <ele>1805.947</ele>
        <time>2022-07-11T12:43:39Z</time>
      </trkpt>
      <trkpt lat="46.407329" lon="9.703754">
        <ele>1805.958</ele>
        <time>2022-07-11T12:43:44Z</time>
      </trkpt>
      <trkpt lat="46.406669" lon="9.703847">
        <ele>1805.926</ele>
        <time>2022-07-11T12:44:01Z</time>
      </trkpt>
      <trkpt lat="46.406395" lon="9.704235">
        <ele>1807.450</ele>
        <time>2022-07-11T12:44:12Z</time>
      </trkpt>
      <trkpt lat="46.406328" lon="9.704616">
        <ele>1809.329</ele>
        <time>2022-07-11T12:44:25Z</time>
      </trkpt>
      <trkpt lat="46.406290" lon="9.704995">
        <ele>1811.200</ele>
        <time>2022-07-11T12:44:39Z</time>
      </trkpt>
      <trkpt lat="46.406280" lon="9.705017">
        <ele>1811.720</ele>
        <time>2022-07-11T12:44:40Z</time>
      </trkpt>
      <trkpt lat="46.406274" lon="9.705040">
        <ele>1811.709</ele>
        <time>2022-07-11T12:44:41Z</time>
      </trkpt>
      <trkpt lat="46.406271" lon="9.705063">
        <ele>1811.753</ele>
        <time>2022-07-11T12:44:42Z</time>
      </trkpt>
      <trkpt lat="46.406268" lon="9.705080">
        <ele>1811.772</ele>
        <time>2022-07-11T12:44:43Z</time>
      </trkpt>
      <trkpt lat="46.406263" lon="9.705095">
        <ele>1811.750</ele>
        <time>2022-07-11T12:44:44Z</time>
      </trkpt>
      <trkpt lat="46.406254" lon="9.705109">
        <ele>1812.762</ele>
        <time>2022-07-11T12:44:45Z</time>
      </trkpt>
      <trkpt lat="46.406238" lon="9.705116">
        <ele>1812.738</ele>
        <time>2022-07-11T12:44:47Z</time>
      </trkpt>
      <trkpt lat="46.406109" lon="9.704880">
        <ele>1814.612</ele>
        <time>2022-07-11T12:45:01Z</time>
      </trkpt>
      <trkpt lat="46.406038" lon="9.704687">
        <ele>1811.753</ele>
        <time>2022-07-11T12:45:09Z</time>
      </trkpt>
      <trkpt lat="46.406032" lon="9.704659">
        <ele>1816.011</ele>
        <time>2022-07-11T12:45:10Z</time>
      </trkpt>
      <trkpt lat="46.406025" lon="9.704629">
        <ele>1816.045</ele>
        <time>2022-07-11T12:45:11Z</time>
      </trkpt>
      <trkpt lat="46.405999" lon="9.704537">
        <ele>1814.614</ele>
        <time>2022-07-11T12:45:14Z</time>
      </trkpt>
      <trkpt lat="46.405911" lon="9.704081">
        <ele>1815.554</ele>
        <time>2022-07-11T12:45:29Z</time>
      </trkpt>
      <trkpt lat="46.405868" lon="9.703938">
        <ele>1813.609</ele>
        <time>2022-07-11T12:45:32Z</time>
      </trkpt>
      <trkpt lat="46.405703" lon="9.703602">
        <ele>1811.709</ele>
        <time>2022-07-11T12:45:37Z</time>
      </trkpt>
      <trkpt lat="46.405665" lon="9.703550">
        <ele>1810.712</ele>
        <time>2022-07-11T12:45:38Z</time>
      </trkpt>
      <trkpt lat="46.405593" lon="9.703477">
        <ele>1810.331</ele>
        <time>2022-07-11T12:45:39Z</time>
      </trkpt>
      <trkpt lat="46.405543" lon="9.703435">
        <ele>1809.369</ele>
        <time>2022-07-11T12:45:40Z</time>
      </trkpt>
      <trkpt lat="46.405466" lon="9.703375">
        <ele>1808.311</ele>
        <time>2022-07-11T12:45:41Z</time>
      </trkpt>
      <trkpt lat="46.405413" lon="9.703330">
        <ele>1808.377</ele>
        <time>2022-07-11T12:45:42Z</time>
      </trkpt>
      <trkpt lat="46.405366" lon="9.703277">
        <ele>1808.351</ele>
        <time>2022-07-11T12:45:43Z</time>
      </trkpt>
      <trkpt lat="46.405333" lon="9.703217">
        <ele>1808.312</ele>
        <time>2022-07-11T12:45:44Z</time>
      </trkpt>
      <trkpt lat="46.405310" lon="9.703153">
        <ele>1810.390</ele>
        <time>2022-07-11T12:45:45Z</time>
      </trkpt>
      <trkpt lat="46.405231" lon="9.702884">
        <ele>1812.744</ele>
        <time>2022-07-11T12:45:55Z</time>
      </trkpt>
      <trkpt lat="46.405034" lon="9.702705">
        <ele>1814.646</ele>
        <time>2022-07-11T12:46:09Z</time>
      </trkpt>
      <trkpt lat="46.404822" lon="9.702429">
        <ele>1815.188</ele>
        <time>2022-07-11T12:46:22Z</time>
      </trkpt>
      <trkpt lat="46.404638" lon="9.702100">
        <ele>1815.116</ele>
        <time>2022-07-11T12:46:31Z</time>
      </trkpt>
      <trkpt lat="46.404610" lon="9.701980">
        <ele>1815.109</ele>
        <time>2022-07-11T12:46:33Z</time>
      </trkpt>
      <trkpt lat="46.404600" lon="9.701918">
        <ele>1815.175</ele>
        <time>2022-07-11T12:46:34Z</time>
      </trkpt>
      <trkpt lat="46.404578" lon="9.701796">
        <ele>1815.194</ele>
        <time>2022-07-11T12:46:36Z</time>
      </trkpt>
      <trkpt lat="46.404557" lon="9.701732">
        <ele>1814.152</ele>
        <time>2022-07-11T12:46:37Z</time>
      </trkpt>
      <trkpt lat="46.404524" lon="9.701662">
        <ele>1814.174</ele>
        <time>2022-07-11T12:46:38Z</time>
      </trkpt>
      <trkpt lat="46.404504" lon="9.701634">
        <ele>1814.130</ele>
        <time>2022-07-11T12:46:39Z</time>
      </trkpt>
      <trkpt lat="46.404469" lon="9.701589">
        <ele>1814.164</ele>
        <time>2022-07-11T12:46:40Z</time>
      </trkpt>
      <trkpt lat="46.404430" lon="9.701547">
        <ele>1813.145</ele>
        <time>2022-07-11T12:46:41Z</time>
      </trkpt>
      <trkpt lat="46.404248" lon="9.701372">
        <ele>1811.783</ele>
        <time>2022-07-11T12:46:45Z</time>
      </trkpt>
      <trkpt lat="46.404199" lon="9.701344">
        <ele>1811.227</ele>
        <time>2022-07-11T12:46:46Z</time>
      </trkpt>
      <trkpt lat="46.404152" lon="9.701318">
        <ele>1811.258</ele>
        <time>2022-07-11T12:46:47Z</time>
      </trkpt>
      <trkpt lat="46.404051" lon="9.701266">
        <ele>1810.352</ele>
        <time>2022-07-11T12:46:49Z</time>
      </trkpt>
      <trkpt lat="46.403990" lon="9.701265">
        <ele>1810.317</ele>
        <time>2022-07-11T12:46:50Z</time>
      </trkpt>
      <trkpt lat="46.403932" lon="9.701279">
        <ele>1810.309</ele>
        <time>2022-07-11T12:46:51Z</time>
      </trkpt>
      <trkpt lat="46.403763" lon="9.701320">
        <ele>1809.846</ele>
        <time>2022-07-11T12:46:54Z</time>
      </trkpt>
      <trkpt lat="46.403716" lon="9.701313">
        <ele>1809.825</ele>
        <time>2022-07-11T12:46:55Z</time>
      </trkpt>
      <trkpt lat="46.403674" lon="9.701299">
        <ele>1809.833</ele>
        <time>2022-07-11T12:46:56Z</time>
      </trkpt>
      <trkpt lat="46.403639" lon="9.701278">
        <ele>1809.825</ele>
        <time>2022-07-11T12:46:57Z</time>
      </trkpt>
      <trkpt lat="46.403612" lon="9.701253">
        <ele>1809.881</ele>
        <time>2022-07-11T12:46:58Z</time>
      </trkpt>
      <trkpt lat="46.403592" lon="9.701229">
        <ele>1811.275</ele>
        <time>2022-07-11T12:46:59Z</time>
      </trkpt>
      <trkpt lat="46.403578" lon="9.701206">
        <ele>1811.216</ele>
        <time>2022-07-11T12:47:00Z</time>
      </trkpt>
      <trkpt lat="46.403567" lon="9.701179">
        <ele>1811.764</ele>
        <time>2022-07-11T12:47:01Z</time>
      </trkpt>
      <trkpt lat="46.403557" lon="9.701152">
        <ele>1811.758</ele>
        <time>2022-07-11T12:47:02Z</time>
      </trkpt>
      <trkpt lat="46.403546" lon="9.701124">
        <ele>1812.719</ele>
        <time>2022-07-11T12:47:03Z</time>
      </trkpt>
      <trkpt lat="46.403536" lon="9.701098">
        <ele>1812.709</ele>
        <time>2022-07-11T12:47:04Z</time>
      </trkpt>
      <trkpt lat="46.403529" lon="9.701073">
        <ele>1813.119</ele>
        <time>2022-07-11T12:47:05Z</time>
      </trkpt>
      <trkpt lat="46.403522" lon="9.701049">
        <ele>1813.109</ele>
        <time>2022-07-11T12:47:06Z</time>
      </trkpt>
      <trkpt lat="46.403515" lon="9.701023">
        <ele>1813.162</ele>
        <time>2022-07-11T12:47:07Z</time>
      </trkpt>
      <trkpt lat="46.403408" lon="9.700814">
        <ele>1814.141</ele>
        <time>2022-07-11T12:47:17Z</time>
      </trkpt>
      <trkpt lat="46.403392" lon="9.700801">
        <ele>1814.179</ele>
        <time>2022-07-11T12:47:18Z</time>
      </trkpt>
      <trkpt lat="46.403190" lon="9.700463">
        <ele>1816.051</ele>
        <time>2022-07-11T12:47:33Z</time>
      </trkpt>
      <trkpt lat="46.403161" lon="9.700408">
        <ele>1816.077</ele>
        <time>2022-07-11T12:47:48Z</time>
      </trkpt>
      <trkpt lat="46.403111" lon="9.700350">
        <ele>1816.081</ele>
        <time>2022-07-11T12:48:12Z</time>
      </trkpt>
      <trkpt lat="46.402856" lon="9.700029">
        <ele>1814.162</ele>
        <time>2022-07-11T12:48:23Z</time>
      </trkpt>
      <trkpt lat="46.402819" lon="9.699992">
        <ele>1813.110</ele>
        <time>2022-07-11T12:48:24Z</time>
      </trkpt>
      <trkpt lat="46.402777" lon="9.699966">
        <ele>1812.724</ele>
        <time>2022-07-11T12:48:25Z</time>
      </trkpt>
      <trkpt lat="46.402728" lon="9.699947">
        <ele>1812.747</ele>
        <time>2022-07-11T12:48:26Z</time>
      </trkpt>
      <trkpt lat="46.402676" lon="9.699941">
        <ele>1812.729</ele>
        <time>2022-07-11T12:48:27Z</time>
      </trkpt>
      <trkpt lat="46.402631" lon="9.699935">
        <ele>1812.221</ele>
        <time>2022-07-11T12:48:28Z</time>
      </trkpt>
      <trkpt lat="46.402578" lon="9.699921">
        <ele>1812.209</ele>
        <time>2022-07-11T12:48:29Z</time>
      </trkpt>
      <trkpt lat="46.402521" lon="9.699894">
        <ele>1811.775</ele>
        <time>2022-07-11T12:48:30Z</time>
      </trkpt>
      <trkpt lat="46.402468" lon="9.699854">
        <ele>1810.744</ele>
        <time>2022-07-11T12:48:31Z</time>
      </trkpt>
      <trkpt lat="46.402413" lon="9.699782">
        <ele>1810.372</ele>
        <time>2022-07-11T12:48:32Z</time>
      </trkpt>
      <trkpt lat="46.402386" lon="9.699716">
        <ele>1809.834</ele>
        <time>2022-07-11T12:48:33Z</time>
      </trkpt>
      <trkpt lat="46.402364" lon="9.699606">
        <ele>1809.810</ele>
        <time>2022-07-11T12:48:34Z</time>
      </trkpt>
      <trkpt lat="46.402366" lon="9.699534">
        <ele>1809.874</ele>
        <time>2022-07-11T12:48:35Z</time>
      </trkpt>
      <trkpt lat="46.402378" lon="9.699445">
        <ele>1809.885</ele>
        <time>2022-07-11T12:48:36Z</time>
      </trkpt>
      <trkpt lat="46.402397" lon="9.699359">
        <ele>1808.883</ele>
        <time>2022-07-11T12:48:37Z</time>
      </trkpt>
      <trkpt lat="46.402417" lon="9.699280">
        <ele>1808.837</ele>
        <time>2022-07-11T12:48:38Z</time>
      </trkpt>
      <trkpt lat="46.402440" lon="9.699206">
        <ele>1808.837</ele>
        <time>2022-07-11T12:48:39Z</time>
      </trkpt>
      <trkpt lat="46.402465" lon="9.699134">
        <ele>1808.849</ele>
        <time>2022-07-11T12:48:40Z</time>
      </trkpt>
      <trkpt lat="46.402592" lon="9.698876">
        <ele>1810.313</ele>
        <time>2022-07-11T12:48:45Z</time>
      </trkpt>
      <trkpt lat="46.402888" lon="9.698294">
        <ele>1812.709</ele>
        <time>2022-07-11T12:49:01Z</time>
      </trkpt>
      <trkpt lat="46.402939" lon="9.697719">
        <ele>1814.674</ele>
        <time>2022-07-11T12:49:16Z</time>
      </trkpt>
      <trkpt lat="46.402857" lon="9.697365">
        <ele>1815.563</ele>
        <time>2022-07-11T12:49:28Z</time>
      </trkpt>
      <trkpt lat="46.402548" lon="9.696741">
        <ele>1814.681</ele>
        <time>2022-07-11T12:49:44Z</time>
      </trkpt>
      <trkpt lat="46.402473" lon="9.696032">
        <ele>1814.643</ele>
        <time>2022-07-11T12:49:57Z</time>
      </trkpt>
      <trkpt lat="46.402471" lon="9.695835">
        <ele>1816.069</ele>
        <time>2022-07-11T12:50:02Z</time>
      </trkpt>
      <trkpt lat="46.402335" lon="9.695596">
        <ele>1817.943</ele>
        <time>2022-07-11T12:50:14Z</time>
      </trkpt>
      <trkpt lat="46.401837" lon="9.695545">
        <ele>1819.484</ele>
        <time>2022-07-11T12:50:34Z</time>
      </trkpt>
      <trkpt lat="46.401506" lon="9.695396">
        <ele>1819.442</ele>
        <time>2022-07-11T12:50:46Z</time>
      </trkpt>
      <trkpt lat="46.401308" lon="9.695280">
        <ele>1819.426</ele>
        <time>2022-07-11T12:50:53Z</time>
      </trkpt>
      <trkpt lat="46.401303" lon="9.695253">
        <ele>1819.984</ele>
        <time>2022-07-11T12:50:54Z</time>
      </trkpt>
      <trkpt lat="46.401301" lon="9.695223">
        <ele>1819.907</ele>
        <time>2022-07-11T12:50:55Z</time>
      </trkpt>
      <trkpt lat="46.401272" lon="9.695191">
        <ele>1818.917</ele>
        <time>2022-07-11T12:57:26Z</time>
      </trkpt>
      <trkpt lat="46.401258" lon="9.695194">
        <ele>1818.909</ele>
        <time>2022-07-11T12:57:27Z</time>
      </trkpt>
      <trkpt lat="46.401243" lon="9.695194">
        <ele>1818.919</ele>
        <time>2022-07-11T12:57:28Z</time>
      </trkpt>
      <trkpt lat="46.400868" lon="9.695276">
        <ele>1819.958</ele>
        <time>2022-07-11T12:57:44Z</time>
      </trkpt>
      <trkpt lat="46.400218" lon="9.695692">
        <ele>1821.356</ele>
        <time>2022-07-11T12:58:07Z</time>
      </trkpt>
      <trkpt lat="46.399777" lon="9.695603">
        <ele>1820.838</ele>
        <time>2022-07-11T12:58:20Z</time>
      </trkpt>
      <trkpt lat="46.399300" lon="9.695188">
        <ele>1818.434</ele>
        <time>2022-07-11T12:58:30Z</time>
      </trkpt>
      <trkpt lat="46.398794" lon="9.694769">
        <ele>1817.538</ele>
        <time>2022-07-11T12:58:39Z</time>
      </trkpt>
      <trkpt lat="46.398741" lon="9.694740">
        <ele>1817.049</ele>
        <time>2022-07-11T12:58:40Z</time>
      </trkpt>
      <trkpt lat="46.398540" lon="9.694682">
        <ele>1816.547</ele>
        <time>2022-07-11T12:58:48Z</time>
      </trkpt>
      <trkpt lat="46.398519" lon="9.694659">
        <ele>1816.511</ele>
        <time>2022-07-11T12:59:08Z</time>
      </trkpt>
      <trkpt lat="46.398504" lon="9.694683">
        <ele>1816.549</ele>
        <time>2022-07-11T12:59:17Z</time>
      </trkpt>
      <trkpt lat="46.398487" lon="9.694691">
        <ele>1816.502</ele>
        <time>2022-07-11T12:59:18Z</time>
      </trkpt>
      <trkpt lat="46.398465" lon="9.694696">
        <ele>1816.522</ele>
        <time>2022-07-11T12:59:19Z</time>
      </trkpt>
      <trkpt lat="46.398040" lon="9.694817">
        <ele>1816.009</ele>
        <time>2022-07-11T12:59:32Z</time>
      </trkpt>
      <trkpt lat="46.397614" lon="9.694807">
        <ele>1814.685</ele>
        <time>2022-07-11T12:59:43Z</time>
      </trkpt>
      <trkpt lat="46.397561" lon="9.694796">
        <ele>1814.644</ele>
        <time>2022-07-11T12:59:44Z</time>
      </trkpt>
      <trkpt lat="46.397355" lon="9.694736">
        <ele>1812.212</ele>
        <time>2022-07-11T12:59:49Z</time>
      </trkpt>
      <trkpt lat="46.397296" lon="9.694687">
        <ele>1811.234</ele>
        <time>2022-07-11T13:00:04Z</time>
      </trkpt>
      <trkpt lat="46.397262" lon="9.694699">
        <ele>1811.260</ele>
        <time>2022-07-11T13:00:05Z</time>
      </trkpt>
      <trkpt lat="46.397216" lon="9.694698">
        <ele>1811.224</ele>
        <time>2022-07-11T13:00:06Z</time>
      </trkpt>
      <trkpt lat="46.397170" lon="9.694690">
        <ele>1811.245</ele>
        <time>2022-07-11T13:00:07Z</time>
      </trkpt>
      <trkpt lat="46.397119" lon="9.694678">
        <ele>1811.293</ele>
        <time>2022-07-11T13:00:08Z</time>
      </trkpt>
      <trkpt lat="46.396798" lon="9.694613">
        <ele>1807.967</ele>
        <time>2022-07-11T13:00:13Z</time>
      </trkpt>
      <trkpt lat="46.396639" lon="9.694630">
        <ele>1807.494</ele>
        <time>2022-07-11T13:00:15Z</time>
      </trkpt>
      <trkpt lat="46.396549" lon="9.694659">
        <ele>1805.457</ele>
        <time>2022-07-11T13:00:16Z</time>
      </trkpt>
      <trkpt lat="46.396206" lon="9.694799">
        <ele>1802.122</ele>
        <time>2022-07-11T13:00:20Z</time>
      </trkpt>
      <trkpt lat="46.396137" lon="9.694817">
        <ele>1801.109</ele>
        <time>2022-07-11T13:00:21Z</time>
      </trkpt>
      <trkpt lat="46.396069" lon="9.694811">
        <ele>1800.630</ele>
        <time>2022-07-11T13:00:22Z</time>
      </trkpt>
      <trkpt lat="46.396012" lon="9.694772">
        <ele>1800.689</ele>
        <time>2022-07-11T13:00:23Z</time>
      </trkpt>
      <trkpt lat="46.395974" lon="9.694690">
        <ele>1800.247</ele>
        <time>2022-07-11T13:00:24Z</time>
      </trkpt>
      <trkpt lat="46.395971" lon="9.694596">
        <ele>1798.789</ele>
        <time>2022-07-11T13:00:25Z</time>
      </trkpt>
      <trkpt lat="46.396000" lon="9.694486">
        <ele>1798.265</ele>
        <time>2022-07-11T13:00:26Z</time>
      </trkpt>
      <trkpt lat="46.396036" lon="9.694394">
        <ele>1797.349</ele>
        <time>2022-07-11T13:00:27Z</time>
      </trkpt>
      <trkpt lat="46.396081" lon="9.694290">
        <ele>1796.310</ele>
        <time>2022-07-11T13:00:28Z</time>
      </trkpt>
      <trkpt lat="46.396196" lon="9.693970">
        <ele>1794.458</ele>
        <time>2022-07-11T13:00:31Z</time>
      </trkpt>
      <trkpt lat="46.396198" lon="9.693861">
        <ele>1794.472</ele>
        <time>2022-07-11T13:00:32Z</time>
      </trkpt>
      <trkpt lat="46.396169" lon="9.693764">
        <ele>1793.072</ele>
        <time>2022-07-11T13:00:33Z</time>
      </trkpt>
      <trkpt lat="46.396111" lon="9.693693">
        <ele>1793.013</ele>
        <time>2022-07-11T13:00:34Z</time>
      </trkpt>
      <trkpt lat="46.396032" lon="9.693651">
        <ele>1792.014</ele>
        <time>2022-07-11T13:00:35Z</time>
      </trkpt>
      <trkpt lat="46.395951" lon="9.693637">
        <ele>1790.509</ele>
        <time>2022-07-11T13:00:36Z</time>
      </trkpt>
      <trkpt lat="46.395879" lon="9.693629">
        <ele>1790.168</ele>
        <time>2022-07-11T13:00:37Z</time>
      </trkpt>
      <trkpt lat="46.395819" lon="9.693606">
        <ele>1789.187</ele>
        <time>2022-07-11T13:00:38Z</time>
      </trkpt>
      <trkpt lat="46.395778" lon="9.693557">
        <ele>1788.635</ele>
        <time>2022-07-11T13:00:39Z</time>
      </trkpt>
      <trkpt lat="46.395779" lon="9.693496">
        <ele>1788.697</ele>
        <time>2022-07-11T13:00:40Z</time>
      </trkpt>
      <trkpt lat="46.395815" lon="9.693454">
        <ele>1787.753</ele>
        <time>2022-07-11T13:00:41Z</time>
      </trkpt>
      <trkpt lat="46.395871" lon="9.693449">
        <ele>1787.227</ele>
        <time>2022-07-11T13:00:42Z</time>
      </trkpt>
      <trkpt lat="46.395935" lon="9.693477">
        <ele>1786.728</ele>
        <time>2022-07-11T13:00:43Z</time>
      </trkpt>
      <trkpt lat="46.395999" lon="9.693515">
        <ele>1786.276</ele>
        <time>2022-07-11T13:00:44Z</time>
      </trkpt>
      <trkpt lat="46.396067" lon="9.693547">
        <ele>1785.320</ele>
        <time>2022-07-11T13:00:45Z</time>
      </trkpt>
      <trkpt lat="46.396133" lon="9.693559">
        <ele>1784.869</ele>
        <time>2022-07-11T13:00:46Z</time>
      </trkpt>
      <trkpt lat="46.396195" lon="9.693538">
        <ele>1784.304</ele>
        <time>2022-07-11T13:00:47Z</time>
      </trkpt>
      <trkpt lat="46.396231" lon="9.693480">
        <ele>1784.324</ele>
        <time>2022-07-11T13:00:48Z</time>
      </trkpt>
      <trkpt lat="46.396234" lon="9.693402">
        <ele>1784.309</ele>
        <time>2022-07-11T13:00:49Z</time>
      </trkpt>
      <trkpt lat="46.396196" lon="9.693336">
        <ele>1783.867</ele>
        <time>2022-07-11T13:00:50Z</time>
      </trkpt>
      <trkpt lat="46.396137" lon="9.693303">
        <ele>1783.896</ele>
        <time>2022-07-11T13:00:51Z</time>
      </trkpt>
      <trkpt lat="46.396069" lon="9.693286">
        <ele>1783.314</ele>
        <time>2022-07-11T13:00:52Z</time>
      </trkpt>
      <trkpt lat="46.395995" lon="9.693271">
        <ele>1782.436</ele>
        <time>2022-07-11T13:00:53Z</time>
      </trkpt>
      <trkpt lat="46.395924" lon="9.693235">
        <ele>1781.422</ele>
        <time>2022-07-11T13:00:54Z</time>
      </trkpt>
      <trkpt lat="46.395867" lon="9.693162">
        <ele>1780.526</ele>
        <time>2022-07-11T13:00:55Z</time>
      </trkpt>
      <trkpt lat="46.395838" lon="9.693050">
        <ele>1780.087</ele>
        <time>2022-07-11T13:00:56Z</time>
      </trkpt>
      <trkpt lat="46.395821" lon="9.692935">
        <ele>1779.085</ele>
        <time>2022-07-11T13:00:57Z</time>
      </trkpt>
      <trkpt lat="46.395786" lon="9.692833">
        <ele>1778.149</ele>
        <time>2022-07-11T13:00:58Z</time>
      </trkpt>
      <trkpt lat="46.395726" lon="9.692760">
        <ele>1778.153</ele>
        <time>2022-07-11T13:00:59Z</time>
      </trkpt>
      <trkpt lat="46.395648" lon="9.692719">
        <ele>1776.604</ele>
        <time>2022-07-11T13:01:00Z</time>
      </trkpt>
      <trkpt lat="46.395558" lon="9.692696">
        <ele>1775.614</ele>
        <time>2022-07-11T13:01:01Z</time>
      </trkpt>
      <trkpt lat="46.395465" lon="9.692680">
        <ele>1774.209</ele>
        <time>2022-07-11T13:01:02Z</time>
      </trkpt>
      <trkpt lat="46.395152" lon="9.692575">
        <ele>1770.836</ele>
        <time>2022-07-11T13:01:05Z</time>
      </trkpt>
      <trkpt lat="46.395045" lon="9.692510">
        <ele>1768.495</ele>
        <time>2022-07-11T13:01:06Z</time>
      </trkpt>
      <trkpt lat="46.394949" lon="9.692422">
        <ele>1767.583</ele>
        <time>2022-07-11T13:01:07Z</time>
      </trkpt>
      <trkpt lat="46.394864" lon="9.692320">
        <ele>1765.655</ele>
        <time>2022-07-11T13:01:08Z</time>
      </trkpt>
      <trkpt lat="46.394801" lon="9.692235">
        <ele>1765.621</ele>
        <time>2022-07-11T13:01:09Z</time>
      </trkpt>
      <trkpt lat="46.394758" lon="9.692160">
        <ele>1764.625</ele>
        <time>2022-07-11T13:01:10Z</time>
      </trkpt>
      <trkpt lat="46.394742" lon="9.692094">
        <ele>1764.116</ele>
        <time>2022-07-11T13:01:11Z</time>
      </trkpt>
      <trkpt lat="46.394759" lon="9.692043">
        <ele>1763.694</ele>
        <time>2022-07-11T13:01:12Z</time>
      </trkpt>
      <trkpt lat="46.394804" lon="9.692027">
        <ele>1763.298</ele>
        <time>2022-07-11T13:01:13Z</time>
      </trkpt>
      <trkpt lat="46.394853" lon="9.692055">
        <ele>1762.711</ele>
        <time>2022-07-11T13:01:14Z</time>
      </trkpt>
      <trkpt lat="46.394900" lon="9.692113">
        <ele>1761.721</ele>
        <time>2022-07-11T13:01:15Z</time>
      </trkpt>
      <trkpt lat="46.394949" lon="9.692177">
        <ele>1761.203</ele>
        <time>2022-07-11T13:01:16Z</time>
      </trkpt>
      <trkpt lat="46.395002" lon="9.692224">
        <ele>1760.309</ele>
        <time>2022-07-11T13:01:17Z</time>
      </trkpt>
      <trkpt lat="46.395060" lon="9.692231">
        <ele>1760.372</ele>
        <time>2022-07-11T13:01:18Z</time>
      </trkpt>
      <trkpt lat="46.395104" lon="9.692189">
        <ele>1760.381</ele>
        <time>2022-07-11T13:01:19Z</time>
      </trkpt>
      <trkpt lat="46.395120" lon="9.692112">
        <ele>1759.889</ele>
        <time>2022-07-11T13:01:20Z</time>
      </trkpt>
      <trkpt lat="46.395100" lon="9.692030">
        <ele>1759.871</ele>
        <time>2022-07-11T13:01:21Z</time>
      </trkpt>
      <trkpt lat="46.395052" lon="9.691967">
        <ele>1759.357</ele>
        <time>2022-07-11T13:01:22Z</time>
      </trkpt>
      <trkpt lat="46.394988" lon="9.691919">
        <ele>1758.311</ele>
        <time>2022-07-11T13:01:23Z</time>
      </trkpt>
      <trkpt lat="46.394914" lon="9.691880">
        <ele>1757.942</ele>
        <time>2022-07-11T13:01:24Z</time>
      </trkpt>
      <trkpt lat="46.394837" lon="9.691840">
        <ele>1756.480</ele>
        <time>2022-07-11T13:01:25Z</time>
      </trkpt>
      <trkpt lat="46.394754" lon="9.691787">
        <ele>1755.574</ele>
        <time>2022-07-11T13:01:26Z</time>
      </trkpt>
      <trkpt lat="46.394677" lon="9.691720">
        <ele>1754.027</ele>
        <time>2022-07-11T13:01:27Z</time>
      </trkpt>
      <trkpt lat="46.394604" lon="9.691634">
        <ele>1754.068</ele>
        <time>2022-07-11T13:01:28Z</time>
      </trkpt>
      <trkpt lat="46.394541" lon="9.691527">
        <ele>1752.614</ele>
        <time>2022-07-11T13:01:29Z</time>
      </trkpt>
      <trkpt lat="46.394492" lon="9.691403">
        <ele>1752.109</ele>
        <time>2022-07-11T13:01:30Z</time>
      </trkpt>
      <trkpt lat="46.394456" lon="9.691271">
        <ele>1751.173</ele>
        <time>2022-07-11T13:01:31Z</time>
      </trkpt>
      <trkpt lat="46.394432" lon="9.691136">
        <ele>1750.712</ele>
        <time>2022-07-11T13:01:32Z</time>
      </trkpt>
      <trkpt lat="46.394420" lon="9.690983">
        <ele>1749.230</ele>
        <time>2022-07-11T13:01:33Z</time>
      </trkpt>
      <trkpt lat="46.394431" lon="9.690846">
        <ele>1748.252</ele>
        <time>2022-07-11T13:01:34Z</time>
      </trkpt>
      <trkpt lat="46.394459" lon="9.690722">
        <ele>1747.378</ele>
        <time>2022-07-11T13:01:35Z</time>
      </trkpt>
      <trkpt lat="46.394485" lon="9.690601">
        <ele>1746.372</ele>
        <time>2022-07-11T13:01:36Z</time>
      </trkpt>
      <trkpt lat="46.394499" lon="9.690497">
        <ele>1744.943</ele>
        <time>2022-07-11T13:01:37Z</time>
      </trkpt>
      <trkpt lat="46.394495" lon="9.690402">
        <ele>1744.411</ele>
        <time>2022-07-11T13:01:38Z</time>
      </trkpt>
      <trkpt lat="46.394480" lon="9.690322">
        <ele>1743.975</ele>
        <time>2022-07-11T13:01:39Z</time>
      </trkpt>
      <trkpt lat="46.394468" lon="9.690253">
        <ele>1743.956</ele>
        <time>2022-07-11T13:01:40Z</time>
      </trkpt>
      <trkpt lat="46.394475" lon="9.690190">
        <ele>1743.059</ele>
        <time>2022-07-11T13:01:41Z</time>
      </trkpt>
      <trkpt lat="46.394511" lon="9.690156">
        <ele>1743.014</ele>
        <time>2022-07-11T13:01:42Z</time>
      </trkpt>
      <trkpt lat="46.394556" lon="9.690177">
        <ele>1742.009</ele>
        <time>2022-07-11T13:01:43Z</time>
      </trkpt>
      <trkpt lat="46.394590" lon="9.690244">
        <ele>1741.056</ele>
        <time>2022-07-11T13:01:44Z</time>
      </trkpt>
      <trkpt lat="46.394609" lon="9.690331">
        <ele>1740.675</ele>
        <time>2022-07-11T13:01:45Z</time>
      </trkpt>
      <trkpt lat="46.394613" lon="9.690445">
        <ele>1739.193</ele>
        <time>2022-07-11T13:01:46Z</time>
      </trkpt>
      <trkpt lat="46.394603" lon="9.690558">
        <ele>1738.275</ele>
        <time>2022-07-11T13:01:47Z</time>
      </trkpt>
      <trkpt lat="46.394584" lon="9.690678">
        <ele>1737.231</ele>
        <time>2022-07-11T13:01:48Z</time>
      </trkpt>
      <trkpt lat="46.394575" lon="9.690801">
        <ele>1736.235</ele>
        <time>2022-07-11T13:01:49Z</time>
      </trkpt>
      <trkpt lat="46.394586" lon="9.690920">
        <ele>1735.386</ele>
        <time>2022-07-11T13:01:50Z</time>
      </trkpt>
      <trkpt lat="46.394616" lon="9.691039">
        <ele>1734.854</ele>
        <time>2022-07-11T13:01:51Z</time>
      </trkpt>
      <trkpt lat="46.394744" lon="9.691409">
        <ele>1732.478</ele>
        <time>2022-07-11T13:01:55Z</time>
      </trkpt>
      <trkpt lat="46.394785" lon="9.691442">
        <ele>1731.493</ele>
        <time>2022-07-11T13:01:56Z</time>
      </trkpt>
      <trkpt lat="46.394823" lon="9.691448">
        <ele>1731.465</ele>
        <time>2022-07-11T13:01:57Z</time>
      </trkpt>
      <trkpt lat="46.394862" lon="9.691423">
        <ele>1731.421</ele>
        <time>2022-07-11T13:01:58Z</time>
      </trkpt>
      <trkpt lat="46.394882" lon="9.691369">
        <ele>1731.409</ele>
        <time>2022-07-11T13:01:59Z</time>
      </trkpt>
      <trkpt lat="46.394884" lon="9.691303">
        <ele>1731.410</ele>
        <time>2022-07-11T13:02:00Z</time>
      </trkpt>
      <trkpt lat="46.394866" lon="9.691238">
        <ele>1731.499</ele>
        <time>2022-07-11T13:02:01Z</time>
      </trkpt>
      <trkpt lat="46.394830" lon="9.691173">
        <ele>1730.517</ele>
        <time>2022-07-11T13:02:02Z</time>
      </trkpt>
      <trkpt lat="46.394795" lon="9.691113">
        <ele>1730.529</ele>
        <time>2022-07-11T13:02:03Z</time>
      </trkpt>
      <trkpt lat="46.394762" lon="9.691043">
        <ele>1729.535</ele>
        <time>2022-07-11T13:02:04Z</time>
      </trkpt>
      <trkpt lat="46.394735" lon="9.690946">
        <ele>1728.579</ele>
        <time>2022-07-11T13:02:05Z</time>
      </trkpt>
      <trkpt lat="46.394724" lon="9.690843">
        <ele>1728.130</ele>
        <time>2022-07-11T13:02:06Z</time>
      </trkpt>
      <trkpt lat="46.394733" lon="9.690735">
        <ele>1728.128</ele>
        <time>2022-07-11T13:02:07Z</time>
      </trkpt>
      <trkpt lat="46.394752" lon="9.690629">
        <ele>1726.652</ele>
        <time>2022-07-11T13:02:08Z</time>
      </trkpt>
      <trkpt lat="46.394770" lon="9.690537">
        <ele>1726.682</ele>
        <time>2022-07-11T13:02:09Z</time>
      </trkpt>
      <trkpt lat="46.394814" lon="9.690272">
        <ele>1724.743</ele>
        <time>2022-07-11T13:02:12Z</time>
      </trkpt>
      <trkpt lat="46.394842" lon="9.690222">
        <ele>1724.717</ele>
        <time>2022-07-11T13:02:13Z</time>
      </trkpt>
      <trkpt lat="46.394879" lon="9.690212">
        <ele>1723.709</ele>
        <time>2022-07-11T13:02:14Z</time>
      </trkpt>
      <trkpt lat="46.394906" lon="9.690247">
        <ele>1723.339</ele>
        <time>2022-07-11T13:02:15Z</time>
      </trkpt>
      <trkpt lat="46.394910" lon="9.690301">
        <ele>1723.778</ele>
        <time>2022-07-11T13:02:16Z</time>
      </trkpt>
      <trkpt lat="46.394896" lon="9.690375">
        <ele>1721.886</ele>
        <time>2022-07-11T13:02:17Z</time>
      </trkpt>
      <trkpt lat="46.394878" lon="9.690449">
        <ele>1721.388</ele>
        <time>2022-07-11T13:02:18Z</time>
      </trkpt>
      <trkpt lat="46.394861" lon="9.690535">
        <ele>1720.934</ele>
        <time>2022-07-11T13:02:19Z</time>
      </trkpt>
      <trkpt lat="46.394849" lon="9.690632">
        <ele>1719.978</ele>
        <time>2022-07-11T13:02:20Z</time>
      </trkpt>
      <trkpt lat="46.394844" lon="9.690743">
        <ele>1719.449</ele>
        <time>2022-07-11T13:02:21Z</time>
      </trkpt>
      <trkpt lat="46.394856" lon="9.690845">
        <ele>1719.477</ele>
        <time>2022-07-11T13:02:22Z</time>
      </trkpt>
      <trkpt lat="46.394887" lon="9.690940">
        <ele>1718.051</ele>
        <time>2022-07-11T13:02:23Z</time>
      </trkpt>
      <trkpt lat="46.394934" lon="9.691020">
        <ele>1717.535</ele>
        <time>2022-07-11T13:02:24Z</time>
      </trkpt>
      <trkpt lat="46.394996" lon="9.691090">
        <ele>1718.086</ele>
        <time>2022-07-11T13:02:25Z</time>
      </trkpt>
      <trkpt lat="46.395073" lon="9.691152">
        <ele>1716.514</ele>
        <time>2022-07-11T13:02:26Z</time>
      </trkpt>
      <trkpt lat="46.395149" lon="9.691205">
        <ele>1716.009</ele>
        <time>2022-07-11T13:02:27Z</time>
      </trkpt>
      <trkpt lat="46.395464" lon="9.691434">
        <ele>1712.734</ele>
        <time>2022-07-11T13:02:31Z</time>
      </trkpt>
      <trkpt lat="46.395692" lon="9.691620">
        <ele>1710.353</ele>
        <time>2022-07-11T13:02:34Z</time>
      </trkpt>
      <trkpt lat="46.395751" lon="9.691693">
        <ele>1709.821</ele>
        <time>2022-07-11T13:02:35Z</time>
      </trkpt>
      <trkpt lat="46.395801" lon="9.691762">
        <ele>1708.843</ele>
        <time>2022-07-11T13:02:36Z</time>
      </trkpt>
      <trkpt lat="46.395851" lon="9.691811">
        <ele>1708.819</ele>
        <time>2022-07-11T13:02:37Z</time>
      </trkpt>
      <trkpt lat="46.395906" lon="9.691824">
        <ele>1708.833</ele>
        <time>2022-07-11T13:02:38Z</time>
      </trkpt>
      <trkpt lat="46.395954" lon="9.691790">
        <ele>1707.934</ele>
        <time>2022-07-11T13:02:39Z</time>
      </trkpt>
      <trkpt lat="46.395977" lon="9.691721">
        <ele>1707.472</ele>
        <time>2022-07-11T13:02:40Z</time>
      </trkpt>
      <trkpt lat="46.395966" lon="9.691643">
        <ele>1706.426</ele>
        <time>2022-07-11T13:02:41Z</time>
      </trkpt>
      <trkpt lat="46.395925" lon="9.691570">
        <ele>1706.052</ele>
        <time>2022-07-11T13:02:42Z</time>
      </trkpt>
      <trkpt lat="46.395866" lon="9.691505">
        <ele>1705.053</ele>
        <time>2022-07-11T13:02:43Z</time>
      </trkpt>
      <trkpt lat="46.395796" lon="9.691435">
        <ele>1703.508</ele>
        <time>2022-07-11T13:02:44Z</time>
      </trkpt>
      <trkpt lat="46.395723" lon="9.691363">
        <ele>1702.609</ele>
        <time>2022-07-11T13:02:45Z</time>
      </trkpt>
      <trkpt lat="46.395649" lon="9.691275">
        <ele>1701.626</ele>
        <time>2022-07-11T13:02:46Z</time>
      </trkpt>
      <trkpt lat="46.395576" lon="9.691166">
        <ele>1700.785</ele>
        <time>2022-07-11T13:02:47Z</time>
      </trkpt>
      <trkpt lat="46.395508" lon="9.691037">
        <ele>1698.763</ele>
        <time>2022-07-11T13:02:48Z</time>
      </trkpt>
      <trkpt lat="46.395450" lon="9.690896">
        <ele>1697.835</ele>
        <time>2022-07-11T13:02:49Z</time>
      </trkpt>
      <trkpt lat="46.395401" lon="9.690745">
        <ele>1695.921</ele>
        <time>2022-07-11T13:02:50Z</time>
      </trkpt>
      <trkpt lat="46.395358" lon="9.690586">
        <ele>1694.475</ele>
        <time>2022-07-11T13:02:51Z</time>
      </trkpt>
      <trkpt lat="46.395331" lon="9.690410">
        <ele>1692.586</ele>
        <time>2022-07-11T13:02:52Z</time>
      </trkpt>
      <trkpt lat="46.395323" lon="9.690236">
        <ele>1691.174</ele>
        <time>2022-07-11T13:02:53Z</time>
      </trkpt>
      <trkpt lat="46.395323" lon="9.690070">
        <ele>1689.648</ele>
        <time>2022-07-11T13:02:54Z</time>
      </trkpt>
      <trkpt lat="46.395307" lon="9.689663">
        <ele>1686.295</ele>
        <time>2022-07-11T13:02:57Z</time>
      </trkpt>
      <trkpt lat="46.395303" lon="9.689501">
        <ele>1684.849</ele>
        <time>2022-07-11T13:02:59Z</time>
      </trkpt>
      <trkpt lat="46.395321" lon="9.689460">
        <ele>1684.823</ele>
        <time>2022-07-11T13:03:00Z</time>
      </trkpt>
      <trkpt lat="46.395354" lon="9.689464">
        <ele>1684.309</ele>
        <time>2022-07-11T13:03:01Z</time>
      </trkpt>
      <trkpt lat="46.395382" lon="9.689512">
        <ele>1684.330</ele>
        <time>2022-07-11T13:03:02Z</time>
      </trkpt>
      <trkpt lat="46.395393" lon="9.689586">
        <ele>1682.949</ele>
        <time>2022-07-11T13:03:03Z</time>
      </trkpt>
      <trkpt lat="46.395395" lon="9.689667">
        <ele>1682.997</ele>
        <time>2022-07-11T13:03:04Z</time>
      </trkpt>
      <trkpt lat="46.395393" lon="9.689760">
        <ele>1681.949</ele>
        <time>2022-07-11T13:03:05Z</time>
      </trkpt>
      <trkpt lat="46.395398" lon="9.689949">
        <ele>1681.455</ele>
        <time>2022-07-11T13:03:07Z</time>
      </trkpt>
      <trkpt lat="46.395425" lon="9.690160">
        <ele>1680.079</ele>
        <time>2022-07-11T13:03:09Z</time>
      </trkpt>
      <trkpt lat="46.395479" lon="9.690376">
        <ele>1679.560</ele>
        <time>2022-07-11T13:03:11Z</time>
      </trkpt>
      <trkpt lat="46.395518" lon="9.690476">
        <ele>1678.638</ele>
        <time>2022-07-11T13:03:12Z</time>
      </trkpt>
      <trkpt lat="46.395567" lon="9.690571">
        <ele>1678.122</ele>
        <time>2022-07-11T13:03:13Z</time>
      </trkpt>
      <trkpt lat="46.395625" lon="9.690658">
        <ele>1677.121</ele>
        <time>2022-07-11T13:03:14Z</time>
      </trkpt>
      <trkpt lat="46.395693" lon="9.690742">
        <ele>1676.641</ele>
        <time>2022-07-11T13:03:15Z</time>
      </trkpt>
      <trkpt lat="46.395763" lon="9.690818">
        <ele>1676.605</ele>
        <time>2022-07-11T13:03:16Z</time>
      </trkpt>
      <trkpt lat="46.395997" lon="9.691041">
        <ele>1672.809</ele>
        <time>2022-07-11T13:03:19Z</time>
      </trkpt>
      <trkpt lat="46.396274" lon="9.691263">
        <ele>1670.443</ele>
        <time>2022-07-11T13:03:22Z</time>
      </trkpt>
      <trkpt lat="46.396379" lon="9.691302">
        <ele>1669.432</ele>
        <time>2022-07-11T13:03:23Z</time>
      </trkpt>
      <trkpt lat="46.396495" lon="9.691319">
        <ele>1668.520</ele>
        <time>2022-07-11T13:03:24Z</time>
      </trkpt>
      <trkpt lat="46.396811" lon="9.691350">
        <ele>1665.132</ele>
        <time>2022-07-11T13:03:27Z</time>
      </trkpt>
      <trkpt lat="46.397029" lon="9.691393">
        <ele>1665.198</ele>
        <time>2022-07-11T13:03:30Z</time>
      </trkpt>
      <trkpt lat="46.397082" lon="9.691365">
        <ele>1664.122</ele>
        <time>2022-07-11T13:03:31Z</time>
      </trkpt>
      <trkpt lat="46.397106" lon="9.691307">
        <ele>1663.773</ele>
        <time>2022-07-11T13:03:32Z</time>
      </trkpt>
      <trkpt lat="46.397096" lon="9.691235">
        <ele>1663.781</ele>
        <time>2022-07-11T13:03:33Z</time>
      </trkpt>
      <trkpt lat="46.397055" lon="9.691176">
        <ele>1663.715</ele>
        <time>2022-07-11T13:03:34Z</time>
      </trkpt>
      <trkpt lat="46.396995" lon="9.691157">
        <ele>1663.261</ele>
        <time>2022-07-11T13:03:35Z</time>
      </trkpt>
      <trkpt lat="46.396928" lon="9.691167">
        <ele>1662.221</ele>
        <time>2022-07-11T13:03:36Z</time>
      </trkpt>
      <trkpt lat="46.396857" lon="9.691182">
        <ele>1660.813</ele>
        <time>2022-07-11T13:03:37Z</time>
      </trkpt>
      <trkpt lat="46.396780" lon="9.691186">
        <ele>1660.309</ele>
        <time>2022-07-11T13:03:38Z</time>
      </trkpt>
      <trkpt lat="46.396696" lon="9.691176">
        <ele>1659.357</ele>
        <time>2022-07-11T13:03:39Z</time>
      </trkpt>
      <trkpt lat="46.396612" lon="9.691152">
        <ele>1659.316</ele>
        <time>2022-07-11T13:03:40Z</time>
      </trkpt>
      <trkpt lat="46.396528" lon="9.691112">
        <ele>1658.424</ele>
        <time>2022-07-11T13:03:41Z</time>
      </trkpt>
      <trkpt lat="46.396444" lon="9.691050">
        <ele>1657.966</ele>
        <time>2022-07-11T13:03:42Z</time>
      </trkpt>
      <trkpt lat="46.396364" lon="9.690970">
        <ele>1656.492</ele>
        <time>2022-07-11T13:03:43Z</time>
      </trkpt>
      <trkpt lat="46.396289" lon="9.690882">
        <ele>1656.086</ele>
        <time>2022-07-11T13:03:44Z</time>
      </trkpt>
      <trkpt lat="46.395994" lon="9.690482">
        <ele>1652.177</ele>
        <time>2022-07-11T13:03:48Z</time>
      </trkpt>
      <trkpt lat="46.395943" lon="9.690400">
        <ele>1652.185</ele>
        <time>2022-07-11T13:03:49Z</time>
      </trkpt>
      <trkpt lat="46.395908" lon="9.690322">
        <ele>1651.299</ele>
        <time>2022-07-11T13:03:50Z</time>
      </trkpt>
      <trkpt lat="46.395900" lon="9.690252">
        <ele>1651.213</ele>
        <time>2022-07-11T13:03:51Z</time>
      </trkpt>
      <trkpt lat="46.395919" lon="9.690211">
        <ele>1650.743</ele>
        <time>2022-07-11T13:03:52Z</time>
      </trkpt>
      <trkpt lat="46.395956" lon="9.690212">
        <ele>1650.207</ele>
        <time>2022-07-11T13:03:53Z</time>
      </trkpt>
      <trkpt lat="46.395995" lon="9.690254">
        <ele>1648.809</ele>
        <time>2022-07-11T13:03:54Z</time>
      </trkpt>
      <trkpt lat="46.396023" lon="9.690321">
        <ele>1648.872</ele>
        <time>2022-07-11T13:03:55Z</time>
      </trkpt>
      <trkpt lat="46.396058" lon="9.690390">
        <ele>1647.861</ele>
        <time>2022-07-11T13:03:56Z</time>
      </trkpt>
      <trkpt lat="46.396103" lon="9.690454">
        <ele>1647.379</ele>
        <time>2022-07-11T13:03:57Z</time>
      </trkpt>
      <trkpt lat="46.396159" lon="9.690508">
        <ele>1647.341</ele>
        <time>2022-07-11T13:03:58Z</time>
      </trkpt>
      <trkpt lat="46.396222" lon="9.690560">
        <ele>1646.477</ele>
        <time>2022-07-11T13:03:59Z</time>
      </trkpt>
      <trkpt lat="46.396297" lon="9.690606">
        <ele>1645.941</ele>
        <time>2022-07-11T13:04:00Z</time>
      </trkpt>
      <trkpt lat="46.396375" lon="9.690645">
        <ele>1644.982</ele>
        <time>2022-07-11T13:04:01Z</time>
      </trkpt>
      <trkpt lat="46.396720" lon="9.690764">
        <ele>1641.580</ele>
        <time>2022-07-11T13:04:05Z</time>
      </trkpt>
      <trkpt lat="46.396812" lon="9.690771">
        <ele>1640.614</ele>
        <time>2022-07-11T13:04:06Z</time>
      </trkpt>
      <trkpt lat="46.396897" lon="9.690743">
        <ele>1639.688</ele>
        <time>2022-07-11T13:04:07Z</time>
      </trkpt>
      <trkpt lat="46.396974" lon="9.690677">
        <ele>1639.124</ele>
        <time>2022-07-11T13:04:08Z</time>
      </trkpt>
      <trkpt lat="46.397041" lon="9.690585">
        <ele>1637.726</ele>
        <time>2022-07-11T13:04:09Z</time>
      </trkpt>
      <trkpt lat="46.397103" lon="9.690463">
        <ele>1636.309</ele>
        <time>2022-07-11T13:04:10Z</time>
      </trkpt>
      <trkpt lat="46.397162" lon="9.690315">
        <ele>1634.899</ele>
        <time>2022-07-11T13:04:11Z</time>
      </trkpt>
      <trkpt lat="46.397210" lon="9.690164">
        <ele>1633.418</ele>
        <time>2022-07-11T13:04:12Z</time>
      </trkpt>
      <trkpt lat="46.397253" lon="9.690009">
        <ele>1631.416</ele>
        <time>2022-07-11T13:04:13Z</time>
      </trkpt>
      <trkpt lat="46.397299" lon="9.689864">
        <ele>1630.038</ele>
        <time>2022-07-11T13:04:14Z</time>
      </trkpt>
      <trkpt lat="46.397360" lon="9.689725">
        <ele>1628.654</ele>
        <time>2022-07-11T13:04:15Z</time>
      </trkpt>
      <trkpt lat="46.397429" lon="9.689602">
        <ele>1627.678</ele>
        <time>2022-07-11T13:04:16Z</time>
      </trkpt>
      <trkpt lat="46.397587" lon="9.689349">
        <ele>1624.259</ele>
        <time>2022-07-11T13:04:18Z</time>
      </trkpt>
      <trkpt lat="46.397747" lon="9.689108">
        <ele>1621.437</ele>
        <time>2022-07-11T13:04:20Z</time>
      </trkpt>
      <trkpt lat="46.397808" lon="9.688993">
        <ele>1620.441</ele>
        <time>2022-07-11T13:04:21Z</time>
      </trkpt>
      <trkpt lat="46.397860" lon="9.688853">
        <ele>1619.039</ele>
        <time>2022-07-11T13:04:22Z</time>
      </trkpt>
      <trkpt lat="46.397892" lon="9.688730">
        <ele>1618.001</ele>
        <time>2022-07-11T13:04:23Z</time>
      </trkpt>
      <trkpt lat="46.398008" lon="9.688306">
        <ele>1613.721</ele>
        <time>2022-07-11T13:04:26Z</time>
      </trkpt>
      <trkpt lat="46.398119" lon="9.688024">
        <ele>1610.809</ele>
        <time>2022-07-11T13:04:28Z</time>
      </trkpt>
      <trkpt lat="46.398191" lon="9.687882">
        <ele>1608.974</ele>
        <time>2022-07-11T13:04:29Z</time>
      </trkpt>
      <trkpt lat="46.398270" lon="9.687760">
        <ele>1608.413</ele>
        <time>2022-07-11T13:04:30Z</time>
      </trkpt>
      <trkpt lat="46.398356" lon="9.687644">
        <ele>1607.481</ele>
        <time>2022-07-11T13:04:31Z</time>
      </trkpt>
      <trkpt lat="46.398731" lon="9.687265">
        <ele>1604.133</ele>
        <time>2022-07-11T13:04:35Z</time>
      </trkpt>
      <trkpt lat="46.398801" lon="9.687183">
        <ele>1603.639</ele>
        <time>2022-07-11T13:04:36Z</time>
      </trkpt>
      <trkpt lat="46.398857" lon="9.687085">
        <ele>1603.663</ele>
        <time>2022-07-11T13:04:37Z</time>
      </trkpt>
      <trkpt lat="46.398888" lon="9.686975">
        <ele>1603.144</ele>
        <time>2022-07-11T13:04:38Z</time>
      </trkpt>
      <trkpt lat="46.398888" lon="9.686861">
        <ele>1602.622</ele>
        <time>2022-07-11T13:04:39Z</time>
      </trkpt>
      <trkpt lat="46.398854" lon="9.686752">
        <ele>1602.616</ele>
        <time>2022-07-11T13:04:40Z</time>
      </trkpt>
      <trkpt lat="46.398798" lon="9.686681">
        <ele>1602.634</ele>
        <time>2022-07-11T13:04:41Z</time>
      </trkpt>
      <trkpt lat="46.398721" lon="9.686643">
        <ele>1602.655</ele>
        <time>2022-07-11T13:04:42Z</time>
      </trkpt>
      <trkpt lat="46.398639" lon="9.686645">
        <ele>1601.210</ele>
        <time>2022-07-11T13:04:43Z</time>
      </trkpt>
      <trkpt lat="46.398560" lon="9.686688">
        <ele>1601.209</ele>
        <time>2022-07-11T13:04:44Z</time>
      </trkpt>
      <trkpt lat="46.398491" lon="9.686762">
        <ele>1600.724</ele>
        <time>2022-07-11T13:04:45Z</time>
      </trkpt>
      <trkpt lat="46.398427" lon="9.686854">
        <ele>1600.713</ele>
        <time>2022-07-11T13:04:46Z</time>
      </trkpt>
      <trkpt lat="46.398066" lon="9.687315">
        <ele>1597.351</ele>
        <time>2022-07-11T13:04:51Z</time>
      </trkpt>
      <trkpt lat="46.397986" lon="9.687405">
        <ele>1597.323</ele>
        <time>2022-07-11T13:04:52Z</time>
      </trkpt>
      <trkpt lat="46.397653" lon="9.687799">
        <ele>1594.029</ele>
        <time>2022-07-11T13:04:56Z</time>
      </trkpt>
      <trkpt lat="46.397428" lon="9.688077">
        <ele>1591.193</ele>
        <time>2022-07-11T13:04:59Z</time>
      </trkpt>
      <trkpt lat="46.397350" lon="9.688137">
        <ele>1591.144</ele>
        <time>2022-07-11T13:05:00Z</time>
      </trkpt>
      <trkpt lat="46.397270" lon="9.688156">
        <ele>1590.142</ele>
        <time>2022-07-11T13:05:01Z</time>
      </trkpt>
      <trkpt lat="46.397192" lon="9.688127">
        <ele>1590.166</ele>
        <time>2022-07-11T13:05:02Z</time>
      </trkpt>
      <trkpt lat="46.397133" lon="9.688051">
        <ele>1589.681</ele>
        <time>2022-07-11T13:05:03Z</time>
      </trkpt>
      <trkpt lat="46.397109" lon="9.687935">
        <ele>1589.261</ele>
        <time>2022-07-11T13:05:04Z</time>
      </trkpt>
      <trkpt lat="46.397121" lon="9.687813">
        <ele>1588.717</ele>
        <time>2022-07-11T13:05:05Z</time>
      </trkpt>
      <trkpt lat="46.397156" lon="9.687704">
        <ele>1588.709</ele>
        <time>2022-07-11T13:05:06Z</time>
      </trkpt>
      <trkpt lat="46.397212" lon="9.687608">
        <ele>1587.229</ele>
        <time>2022-07-11T13:05:07Z</time>
      </trkpt>
      <trkpt lat="46.397280" lon="9.687520">
        <ele>1586.788</ele>
        <time>2022-07-11T13:05:08Z</time>
      </trkpt>
      <trkpt lat="46.397353" lon="9.687429">
        <ele>1585.866</ele>
        <time>2022-07-11T13:05:09Z</time>
      </trkpt>
      <trkpt lat="46.397479" lon="9.687243">
        <ele>1584.838</ele>
        <time>2022-07-11T13:05:11Z</time>
      </trkpt>
      <trkpt lat="46.397530" lon="9.687142">
        <ele>1584.884</ele>
        <time>2022-07-11T13:05:12Z</time>
      </trkpt>
      <trkpt lat="46.397750" lon="9.686478">
        <ele>1580.558</ele>
        <time>2022-07-11T13:05:17Z</time>
      </trkpt>
      <trkpt lat="46.397922" lon="9.685935">
        <ele>1576.719</ele>
        <time>2022-07-11T13:05:21Z</time>
      </trkpt>
      <trkpt lat="46.397975" lon="9.685831">
        <ele>1576.287</ele>
        <time>2022-07-11T13:05:22Z</time>
      </trkpt>
      <trkpt lat="46.398537" lon="9.684630">
        <ele>1574.781</ele>
        <time>2022-07-11T13:05:34Z</time>
      </trkpt>
      <trkpt lat="46.398693" lon="9.683394">
        <ele>1572.881</ele>
        <time>2022-07-11T13:05:48Z</time>
      </trkpt>
      <trkpt lat="46.398700" lon="9.683267">
        <ele>1572.861</ele>
        <time>2022-07-11T13:05:50Z</time>
      </trkpt>
      <trkpt lat="46.398692" lon="9.682709">
        <ele>1571.817</ele>
        <time>2022-07-11T13:06:02Z</time>
      </trkpt>
      <trkpt lat="46.398681" lon="9.682582">
        <ele>1570.909</ele>
        <time>2022-07-11T13:06:15Z</time>
      </trkpt>
      <trkpt lat="46.398685" lon="9.682548">
        <ele>1570.979</ele>
        <time>2022-07-11T13:06:29Z</time>
      </trkpt>
      <trkpt lat="46.398691" lon="9.682567">
        <ele>1570.958</ele>
        <time>2022-07-11T13:06:52Z</time>
      </trkpt>
      <trkpt lat="46.398684" lon="9.682520">
        <ele>1569.976</ele>
        <time>2022-07-11T13:07:33Z</time>
      </trkpt>
      <trkpt lat="46.398535" lon="9.681966">
        <ele>1569.078</ele>
        <time>2022-07-11T13:07:44Z</time>
      </trkpt>
      <trkpt lat="46.398076" lon="9.680906">
        <ele>1567.554</ele>
        <time>2022-07-11T13:08:02Z</time>
      </trkpt>
      <trkpt lat="46.397621" lon="9.679559">
        <ele>1565.638</ele>
        <time>2022-07-11T13:08:21Z</time>
      </trkpt>
      <trkpt lat="46.396972" lon="9.678614">
        <ele>1563.219</ele>
        <time>2022-07-11T13:08:37Z</time>
      </trkpt>
      <trkpt lat="46.396098" lon="9.677775">
        <ele>1561.897</ele>
        <time>2022-07-11T13:08:54Z</time>
      </trkpt>
      <trkpt lat="46.395969" lon="9.677601">
        <ele>1561.841</ele>
        <time>2022-07-11T13:08:57Z</time>
      </trkpt>
      <trkpt lat="46.395939" lon="9.677548">
        <ele>1561.856</ele>
        <time>2022-07-11T13:08:58Z</time>
      </trkpt>
      <trkpt lat="46.395917" lon="9.677495">
        <ele>1561.859</ele>
        <time>2022-07-11T13:08:59Z</time>
      </trkpt>
      <trkpt lat="46.395901" lon="9.677441">
        <ele>1561.814</ele>
        <time>2022-07-11T13:09:00Z</time>
      </trkpt>
      <trkpt lat="46.395832" lon="9.677382">
        <ele>1560.809</ele>
        <time>2022-07-11T13:09:30Z</time>
      </trkpt>
      <trkpt lat="46.395801" lon="9.677390">
        <ele>1560.866</ele>
        <time>2022-07-11T13:09:31Z</time>
      </trkpt>
      <trkpt lat="46.395776" lon="9.677378">
        <ele>1560.875</ele>
        <time>2022-07-11T13:09:32Z</time>
      </trkpt>
      <trkpt lat="46.395750" lon="9.677353">
        <ele>1560.853</ele>
        <time>2022-07-11T13:09:33Z</time>
      </trkpt>
      <trkpt lat="46.395723" lon="9.677325">
        <ele>1560.885</ele>
        <time>2022-07-11T13:09:34Z</time>
      </trkpt>
      <trkpt lat="46.395135" lon="9.677053">
        <ele>1559.421</ele>
        <time>2022-07-11T13:09:48Z</time>
      </trkpt>
      <trkpt lat="46.395026" lon="9.677009">
        <ele>1557.915</ele>
        <time>2022-07-11T13:09:50Z</time>
      </trkpt>
      <trkpt lat="46.394969" lon="9.676973">
        <ele>1557.996</ele>
        <time>2022-07-11T13:09:51Z</time>
      </trkpt>
      <trkpt lat="46.394919" lon="9.676922">
        <ele>1557.434</ele>
        <time>2022-07-11T13:09:52Z</time>
      </trkpt>
      <trkpt lat="46.394872" lon="9.676859">
        <ele>1557.438</ele>
        <time>2022-07-11T13:09:53Z</time>
      </trkpt>
      <trkpt lat="46.394829" lon="9.676781">
        <ele>1556.518</ele>
        <time>2022-07-11T13:09:54Z</time>
      </trkpt>
      <trkpt lat="46.394795" lon="9.676700">
        <ele>1556.098</ele>
        <time>2022-07-11T13:09:55Z</time>
      </trkpt>
      <trkpt lat="46.394766" lon="9.676615">
        <ele>1556.017</ele>
        <time>2022-07-11T13:09:56Z</time>
      </trkpt>
      <trkpt lat="46.394741" lon="9.676524">
        <ele>1555.509</ele>
        <time>2022-07-11T13:09:57Z</time>
      </trkpt>
      <trkpt lat="46.394720" lon="9.676429">
        <ele>1555.592</ele>
        <time>2022-07-11T13:09:58Z</time>
      </trkpt>
      <trkpt lat="46.394601" lon="9.675912">
        <ele>1552.161</ele>
        <time>2022-07-11T13:10:03Z</time>
      </trkpt>
      <trkpt lat="46.394452" lon="9.675467">
        <ele>1548.339</ele>
        <time>2022-07-11T13:10:07Z</time>
      </trkpt>
      <trkpt lat="46.394433" lon="9.675344">
        <ele>1547.891</ele>
        <time>2022-07-11T13:10:08Z</time>
      </trkpt>
      <trkpt lat="46.394432" lon="9.675219">
        <ele>1547.387</ele>
        <time>2022-07-11T13:10:09Z</time>
      </trkpt>
      <trkpt lat="46.394444" lon="9.675086">
        <ele>1547.381</ele>
        <time>2022-07-11T13:10:10Z</time>
      </trkpt>
      <trkpt lat="46.394463" lon="9.674951">
        <ele>1546.412</ele>
        <time>2022-07-11T13:10:11Z</time>
      </trkpt>
      <trkpt lat="46.394492" lon="9.674691">
        <ele>1545.460</ele>
        <time>2022-07-11T13:10:13Z</time>
      </trkpt>
      <trkpt lat="46.394492" lon="9.674566">
        <ele>1545.454</ele>
        <time>2022-07-11T13:10:14Z</time>
      </trkpt>
      <trkpt lat="46.394480" lon="9.674441">
        <ele>1544.951</ele>
        <time>2022-07-11T13:10:15Z</time>
      </trkpt>
      <trkpt lat="46.394458" lon="9.674323">
        <ele>1544.901</ele>
        <time>2022-07-11T13:10:16Z</time>
      </trkpt>
      <trkpt lat="46.394431" lon="9.674202">
        <ele>1544.011</ele>
        <time>2022-07-11T13:10:17Z</time>
      </trkpt>
      <trkpt lat="46.394375" lon="9.673835">
        <ele>1542.509</ele>
        <time>2022-07-11T13:10:20Z</time>
      </trkpt>
      <trkpt lat="46.394373" lon="9.673709">
        <ele>1542.026</ele>
        <time>2022-07-11T13:10:21Z</time>
      </trkpt>
      <trkpt lat="46.394382" lon="9.673577">
        <ele>1541.615</ele>
        <time>2022-07-11T13:10:22Z</time>
      </trkpt>
      <trkpt lat="46.394401" lon="9.673192">
        <ele>1540.163</ele>
        <time>2022-07-11T13:10:25Z</time>
      </trkpt>
      <trkpt lat="46.394388" lon="9.673066">
        <ele>1539.245</ele>
        <time>2022-07-11T13:10:26Z</time>
      </trkpt>
      <trkpt lat="46.394361" lon="9.672939">
        <ele>1538.791</ele>
        <time>2022-07-11T13:10:27Z</time>
      </trkpt>
      <trkpt lat="46.394330" lon="9.672826">
        <ele>1537.735</ele>
        <time>2022-07-11T13:10:28Z</time>
      </trkpt>
      <trkpt lat="46.394293" lon="9.672708">
        <ele>1537.226</ele>
        <time>2022-07-11T13:10:29Z</time>
      </trkpt>
      <trkpt lat="46.394258" lon="9.672600">
        <ele>1536.884</ele>
        <time>2022-07-11T13:10:30Z</time>
      </trkpt>
      <trkpt lat="46.394231" lon="9.672492">
        <ele>1535.848</ele>
        <time>2022-07-11T13:10:31Z</time>
      </trkpt>
      <trkpt lat="46.394218" lon="9.672389">
        <ele>1534.832</ele>
        <time>2022-07-11T13:10:32Z</time>
      </trkpt>
      <trkpt lat="46.394220" lon="9.672257">
        <ele>1534.492</ele>
        <time>2022-07-11T13:10:33Z</time>
      </trkpt>
      <trkpt lat="46.394246" lon="9.672109">
        <ele>1533.911</ele>
        <time>2022-07-11T13:10:34Z</time>
      </trkpt>
      <trkpt lat="46.394276" lon="9.672012">
        <ele>1532.909</ele>
        <time>2022-07-11T13:10:35Z</time>
      </trkpt>
      <trkpt lat="46.394337" lon="9.671868">
        <ele>1531.084</ele>
        <time>2022-07-11T13:10:36Z</time>
      </trkpt>
      <trkpt lat="46.394386" lon="9.671763">
        <ele>1530.563</ele>
        <time>2022-07-11T13:10:37Z</time>
      </trkpt>
      <trkpt lat="46.394578" lon="9.671313">
        <ele>1527.161</ele>
        <time>2022-07-11T13:10:41Z</time>
      </trkpt>
      <trkpt lat="46.394607" lon="9.671201">
        <ele>1526.253</ele>
        <time>2022-07-11T13:10:42Z</time>
      </trkpt>
      <trkpt lat="46.394613" lon="9.671097">
        <ele>1526.299</ele>
        <time>2022-07-11T13:10:43Z</time>
      </trkpt>
      <trkpt lat="46.394591" lon="9.670998">
        <ele>1525.733</ele>
        <time>2022-07-11T13:10:44Z</time>
      </trkpt>
      <trkpt lat="46.394535" lon="9.670916">
        <ele>1525.764</ele>
        <time>2022-07-11T13:10:45Z</time>
      </trkpt>
      <trkpt lat="46.394466" lon="9.670878">
        <ele>1525.262</ele>
        <time>2022-07-11T13:10:46Z</time>
      </trkpt>
      <trkpt lat="46.394395" lon="9.670882">
        <ele>1524.726</ele>
        <time>2022-07-11T13:10:47Z</time>
      </trkpt>
      <trkpt lat="46.394325" lon="9.670928">
        <ele>1524.317</ele>
        <time>2022-07-11T13:10:48Z</time>
      </trkpt>
      <trkpt lat="46.394264" lon="9.671017">
        <ele>1524.387</ele>
        <time>2022-07-11T13:10:49Z</time>
      </trkpt>
      <trkpt lat="46.394224" lon="9.671119">
        <ele>1523.315</ele>
        <time>2022-07-11T13:10:50Z</time>
      </trkpt>
      <trkpt lat="46.394194" lon="9.671225">
        <ele>1522.809</ele>
        <time>2022-07-11T13:10:51Z</time>
      </trkpt>
      <trkpt lat="46.394118" lon="9.671428">
        <ele>1520.922</ele>
        <time>2022-07-11T13:10:53Z</time>
      </trkpt>
      <trkpt lat="46.394059" lon="9.671497">
        <ele>1520.451</ele>
        <time>2022-07-11T13:10:54Z</time>
      </trkpt>
      <trkpt lat="46.393997" lon="9.671512">
        <ele>1519.939</ele>
        <time>2022-07-11T13:10:55Z</time>
      </trkpt>
      <trkpt lat="46.393943" lon="9.671470">
        <ele>1519.571</ele>
        <time>2022-07-11T13:10:56Z</time>
      </trkpt>
      <trkpt lat="46.393917" lon="9.671370">
        <ele>1518.517</ele>
        <time>2022-07-11T13:10:57Z</time>
      </trkpt>
      <trkpt lat="46.393919" lon="9.671268">
        <ele>1517.511</ele>
        <time>2022-07-11T13:10:58Z</time>
      </trkpt>
      <trkpt lat="46.393931" lon="9.671159">
        <ele>1516.692</ele>
        <time>2022-07-11T13:10:59Z</time>
      </trkpt>
      <trkpt lat="46.393953" lon="9.670921">
        <ele>1515.630</ele>
        <time>2022-07-11T13:11:01Z</time>
      </trkpt>
      <trkpt lat="46.393954" lon="9.670792">
        <ele>1514.214</ele>
        <time>2022-07-11T13:11:02Z</time>
      </trkpt>
      <trkpt lat="46.393946" lon="9.670658">
        <ele>1513.279</ele>
        <time>2022-07-11T13:11:03Z</time>
      </trkpt>
      <trkpt lat="46.393929" lon="9.670517">
        <ele>1512.205</ele>
        <time>2022-07-11T13:11:04Z</time>
      </trkpt>
      <trkpt lat="46.393866" lon="9.670072">
        <ele>1508.425</ele>
        <time>2022-07-11T13:11:07Z</time>
      </trkpt>
      <trkpt lat="46.393789" lon="9.669597">
        <ele>1505.009</ele>
        <time>2022-07-11T13:11:10Z</time>
      </trkpt>
      <trkpt lat="46.393645" lon="9.669116">
        <ele>1501.798</ele>
        <time>2022-07-11T13:11:13Z</time>
      </trkpt>
      <trkpt lat="46.393590" lon="9.668988">
        <ele>1499.797</ele>
        <time>2022-07-11T13:11:14Z</time>
      </trkpt>
      <trkpt lat="46.393515" lon="9.668845">
        <ele>1499.385</ele>
        <time>2022-07-11T13:11:15Z</time>
      </trkpt>
      <trkpt lat="46.393443" lon="9.668735">
        <ele>1497.877</ele>
        <time>2022-07-11T13:11:16Z</time>
      </trkpt>
      <trkpt lat="46.393359" lon="9.668625">
        <ele>1496.473</ele>
        <time>2022-07-11T13:11:17Z</time>
      </trkpt>
      <trkpt lat="46.393268" lon="9.668518">
        <ele>1494.987</ele>
        <time>2022-07-11T13:11:18Z</time>
      </trkpt>
      <trkpt lat="46.393166" lon="9.668407">
        <ele>1493.588</ele>
        <time>2022-07-11T13:11:19Z</time>
      </trkpt>
      <trkpt lat="46.392870" lon="9.668079">
        <ele>1488.776</ele>
        <time>2022-07-11T13:11:22Z</time>
      </trkpt>
      <trkpt lat="46.392484" lon="9.667640">
        <ele>1484.810</ele>
        <time>2022-07-11T13:11:26Z</time>
      </trkpt>
      <trkpt lat="46.391748" lon="9.666851">
        <ele>1481.533</ele>
        <time>2022-07-11T13:11:35Z</time>
      </trkpt>
      <trkpt lat="46.391580" lon="9.666704">
        <ele>1480.523</ele>
        <time>2022-07-11T13:11:37Z</time>
      </trkpt>
      <trkpt lat="46.390977" lon="9.666210">
        <ele>1477.615</ele>
        <time>2022-07-11T13:11:44Z</time>
      </trkpt>
      <trkpt lat="46.390829" lon="9.666094">
        <ele>1477.609</ele>
        <time>2022-07-11T13:11:46Z</time>
      </trkpt>
      <trkpt lat="46.390762" lon="9.666013">
        <ele>1477.634</ele>
        <time>2022-07-11T13:11:47Z</time>
      </trkpt>
      <trkpt lat="46.390699" lon="9.665932">
        <ele>1476.773</ele>
        <time>2022-07-11T13:11:48Z</time>
      </trkpt>
      <trkpt lat="46.389949" lon="9.665315">
        <ele>1475.711</ele>
        <time>2022-07-11T13:12:00Z</time>
      </trkpt>
      <trkpt lat="46.389080" lon="9.664848">
        <ele>1474.343</ele>
        <time>2022-07-11T13:12:18Z</time>
      </trkpt>
      <trkpt lat="46.388176" lon="9.664386">
        <ele>1473.329</ele>
        <time>2022-07-11T13:12:39Z</time>
      </trkpt>
      <trkpt lat="46.387231" lon="9.663891">
        <ele>1471.423</ele>
        <time>2022-07-11T13:13:01Z</time>
      </trkpt>
      <trkpt lat="46.387144" lon="9.663848">
        <ele>1469.944</ele>
        <time>2022-07-11T13:13:03Z</time>
      </trkpt>
      <trkpt lat="46.387053" lon="9.663800">
        <ele>1471.962</ele>
        <time>2022-07-11T13:13:05Z</time>
      </trkpt>
      <trkpt lat="46.386053" lon="9.663286">
        <ele>1468.516</ele>
        <time>2022-07-11T13:13:26Z</time>
      </trkpt>
      <trkpt lat="46.385003" lon="9.662722">
        <ele>1465.181</ele>
        <time>2022-07-11T13:13:45Z</time>
      </trkpt>
      <trkpt lat="46.384222" lon="9.662329">
        <ele>1463.761</ele>
        <time>2022-07-11T13:14:00Z</time>
      </trkpt>
      <trkpt lat="46.384185" lon="9.662285">
        <ele>1463.217</ele>
        <time>2022-07-11T13:14:01Z</time>
      </trkpt>
      <trkpt lat="46.384167" lon="9.662210">
        <ele>1463.209</ele>
        <time>2022-07-11T13:14:02Z</time>
      </trkpt>
      <trkpt lat="46.384172" lon="9.662139">
        <ele>1463.269</ele>
        <time>2022-07-11T13:14:03Z</time>
      </trkpt>
      <trkpt lat="46.384178" lon="9.662088">
        <ele>1463.238</ele>
        <time>2022-07-11T13:14:04Z</time>
      </trkpt>
      <trkpt lat="46.384253" lon="9.661488">
        <ele>1463.266</ele>
        <time>2022-07-11T13:14:13Z</time>
      </trkpt>
      <trkpt lat="46.384264" lon="9.661351">
        <ele>1463.278</ele>
        <time>2022-07-11T13:14:15Z</time>
      </trkpt>
      <trkpt lat="46.384287" lon="9.661151">
        <ele>1463.224</ele>
        <time>2022-07-11T13:14:18Z</time>
      </trkpt>
      <trkpt lat="46.384394" lon="9.660007">
        <ele>1463.238</ele>
        <time>2022-07-11T13:14:34Z</time>
      </trkpt>
      <trkpt lat="46.384377" lon="9.659624">
        <ele>1463.259</ele>
        <time>2022-07-11T13:14:40Z</time>
      </trkpt>
      <trkpt lat="46.384362" lon="9.659568">
        <ele>1463.227</ele>
        <time>2022-07-11T13:14:41Z</time>
      </trkpt>
      <trkpt lat="46.384333" lon="9.659493">
        <ele>1462.751</ele>
        <time>2022-07-11T13:14:42Z</time>
      </trkpt>
      <trkpt lat="46.384309" lon="9.659448">
        <ele>1462.768</ele>
        <time>2022-07-11T13:14:43Z</time>
      </trkpt>
      <trkpt lat="46.384276" lon="9.659399">
        <ele>1462.742</ele>
        <time>2022-07-11T13:14:44Z</time>
      </trkpt>
      <trkpt lat="46.384241" lon="9.659350">
        <ele>1462.326</ele>
        <time>2022-07-11T13:14:45Z</time>
      </trkpt>
      <trkpt lat="46.383991" lon="9.659022">
        <ele>1462.309</ele>
        <time>2022-07-11T13:14:52Z</time>
      </trkpt>
      <trkpt lat="46.383952" lon="9.658986">
        <ele>1462.327</ele>
        <time>2022-07-11T13:14:53Z</time>
      </trkpt>
      <trkpt lat="46.383905" lon="9.658954">
        <ele>1462.376</ele>
        <time>2022-07-11T13:14:54Z</time>
      </trkpt>
      <trkpt lat="46.383861" lon="9.658927">
        <ele>1462.374</ele>
        <time>2022-07-11T13:14:55Z</time>
      </trkpt>
      <trkpt lat="46.383811" lon="9.658902">
        <ele>1462.396</ele>
        <time>2022-07-11T13:14:56Z</time>
      </trkpt>
      <trkpt lat="46.383697" lon="9.658852">
        <ele>1461.892</ele>
        <time>2022-07-11T13:14:58Z</time>
      </trkpt>
      <trkpt lat="46.383636" lon="9.658839">
        <ele>1461.856</ele>
        <time>2022-07-11T13:14:59Z</time>
      </trkpt>
      <trkpt lat="46.383577" lon="9.658839">
        <ele>1461.347</ele>
        <time>2022-07-11T13:15:00Z</time>
      </trkpt>
      <trkpt lat="46.382738" lon="9.658855">
        <ele>1460.355</ele>
        <time>2022-07-11T13:15:15Z</time>
      </trkpt>
      <trkpt lat="46.382285" lon="9.658757">
        <ele>1459.469</ele>
        <time>2022-07-11T13:15:24Z</time>
      </trkpt>
      <trkpt lat="46.382239" lon="9.658740">
        <ele>1459.455</ele>
        <time>2022-07-11T13:15:25Z</time>
      </trkpt>
      <trkpt lat="46.382195" lon="9.658720">
        <ele>1459.407</ele>
        <time>2022-07-11T13:15:26Z</time>
      </trkpt>
      <trkpt lat="46.382152" lon="9.658701">
        <ele>1459.417</ele>
        <time>2022-07-11T13:15:27Z</time>
      </trkpt>
      <trkpt lat="46.382108" lon="9.658681">
        <ele>1458.909</ele>
        <time>2022-07-11T13:15:28Z</time>
      </trkpt>
      <trkpt lat="46.381888" lon="9.658581">
        <ele>1458.976</ele>
        <time>2022-07-11T13:15:33Z</time>
      </trkpt>
      <trkpt lat="46.381841" lon="9.658568">
        <ele>1458.935</ele>
        <time>2022-07-11T13:15:34Z</time>
      </trkpt>
      <trkpt lat="46.381749" lon="9.658544">
        <ele>1458.993</ele>
        <time>2022-07-11T13:15:36Z</time>
      </trkpt>
      <trkpt lat="46.381619" lon="9.658513">
        <ele>1458.955</ele>
        <time>2022-07-11T13:15:39Z</time>
      </trkpt>
      <trkpt lat="46.381353" lon="9.658368">
        <ele>1458.931</ele>
        <time>2022-07-11T13:15:45Z</time>
      </trkpt>
      <trkpt lat="46.381017" lon="9.658068">
        <ele>1455.575</ele>
        <time>2022-07-11T13:15:51Z</time>
      </trkpt>
      <trkpt lat="46.380865" lon="9.657966">
        <ele>1454.116</ele>
        <time>2022-07-11T13:15:53Z</time>
      </trkpt>
      <trkpt lat="46.380786" lon="9.657930">
        <ele>1453.624</ele>
        <time>2022-07-11T13:15:54Z</time>
      </trkpt>
      <trkpt lat="46.380549" lon="9.657861">
        <ele>1452.658</ele>
        <time>2022-07-11T13:15:57Z</time>
      </trkpt>
      <trkpt lat="46.380477" lon="9.657867">
        <ele>1452.683</ele>
        <time>2022-07-11T13:15:58Z</time>
      </trkpt>
      <trkpt lat="46.380415" lon="9.657883">
        <ele>1452.625</ele>
        <time>2022-07-11T13:15:59Z</time>
      </trkpt>
      <trkpt lat="46.380360" lon="9.657905">
        <ele>1452.617</ele>
        <time>2022-07-11T13:16:00Z</time>
      </trkpt>
      <trkpt lat="46.380312" lon="9.657929">
        <ele>1452.609</ele>
        <time>2022-07-11T13:16:01Z</time>
      </trkpt>
      <trkpt lat="46.380232" lon="9.657973">
        <ele>1454.149</ele>
        <time>2022-07-11T13:16:03Z</time>
      </trkpt>
      <trkpt lat="46.380129" lon="9.658046">
        <ele>1455.048</ele>
        <time>2022-07-11T13:16:06Z</time>
      </trkpt>
      <trkpt lat="46.380085" lon="9.658059">
        <ele>1453.156</ele>
        <time>2022-07-11T13:16:07Z</time>
      </trkpt>
      <trkpt lat="46.380034" lon="9.658057">
        <ele>1453.178</ele>
        <time>2022-07-11T13:16:08Z</time>
      </trkpt>
      <trkpt lat="46.379986" lon="9.658046">
        <ele>1452.624</ele>
        <time>2022-07-11T13:16:09Z</time>
      </trkpt>
      <trkpt lat="46.379939" lon="9.658027">
        <ele>1452.278</ele>
        <time>2022-07-11T13:16:10Z</time>
      </trkpt>
      <trkpt lat="46.379893" lon="9.658005">
        <ele>1452.219</ele>
        <time>2022-07-11T13:16:11Z</time>
      </trkpt>
      <trkpt lat="46.379492" lon="9.657710">
        <ele>1453.677</ele>
        <time>2022-07-11T13:16:24Z</time>
      </trkpt>
      <trkpt lat="46.379160" lon="9.657583">
        <ele>1453.611</ele>
        <time>2022-07-11T13:16:33Z</time>
      </trkpt>
      <trkpt lat="46.379060" lon="9.657537">
        <ele>1452.299</ele>
        <time>2022-07-11T13:16:35Z</time>
      </trkpt>
      <trkpt lat="46.379004" lon="9.657529">
        <ele>1451.707</ele>
        <time>2022-07-11T13:16:36Z</time>
      </trkpt>
      <trkpt lat="46.378948" lon="9.657533">
        <ele>1450.727</ele>
        <time>2022-07-11T13:16:37Z</time>
      </trkpt>
      <trkpt lat="46.378893" lon="9.657543">
        <ele>1450.709</ele>
        <time>2022-07-11T13:16:38Z</time>
      </trkpt>
      <trkpt lat="46.378545" lon="9.657635">
        <ele>1447.420</ele>
        <time>2022-07-11T13:16:47Z</time>
      </trkpt>
      <trkpt lat="46.378442" lon="9.657648">
        <ele>1445.929</ele>
        <time>2022-07-11T13:16:52Z</time>
      </trkpt>
      <trkpt lat="46.378410" lon="9.657636">
        <ele>1445.467</ele>
        <time>2022-07-11T13:16:53Z</time>
      </trkpt>
      <trkpt lat="46.378380" lon="9.657617">
        <ele>1445.499</ele>
        <time>2022-07-11T13:16:54Z</time>
      </trkpt>
      <trkpt lat="46.378346" lon="9.657586">
        <ele>1445.495</ele>
        <time>2022-07-11T13:16:55Z</time>
      </trkpt>
      <trkpt lat="46.378314" lon="9.657552">
        <ele>1444.599</ele>
        <time>2022-07-11T13:16:56Z</time>
      </trkpt>
      <trkpt lat="46.378277" lon="9.657520">
        <ele>1444.560</ele>
        <time>2022-07-11T13:16:57Z</time>
      </trkpt>
      <trkpt lat="46.378239" lon="9.657494">
        <ele>1444.598</ele>
        <time>2022-07-11T13:16:58Z</time>
      </trkpt>
      <trkpt lat="46.378206" lon="9.657479">
        <ele>1444.572</ele>
        <time>2022-07-11T13:16:59Z</time>
      </trkpt>
      <trkpt lat="46.378176" lon="9.657479">
        <ele>1444.511</ele>
        <time>2022-07-11T13:17:00Z</time>
      </trkpt>
      <trkpt lat="46.378150" lon="9.657489">
        <ele>1444.521</ele>
        <time>2022-07-11T13:17:01Z</time>
      </trkpt>
      <trkpt lat="46.378127" lon="9.657501">
        <ele>1444.503</ele>
        <time>2022-07-11T13:17:02Z</time>
      </trkpt>
      <trkpt lat="46.377839" lon="9.657712">
        <ele>1441.609</ele>
        <time>2022-07-11T13:17:11Z</time>
      </trkpt>
      <trkpt lat="46.377792" lon="9.657731">
        <ele>1441.142</ele>
        <time>2022-07-11T13:17:12Z</time>
      </trkpt>
      <trkpt lat="46.377748" lon="9.657751">
        <ele>1441.131</ele>
        <time>2022-07-11T13:17:13Z</time>
      </trkpt>
      <trkpt lat="46.377703" lon="9.657765">
        <ele>1441.159</ele>
        <time>2022-07-11T13:17:14Z</time>
      </trkpt>
      <trkpt lat="46.377658" lon="9.657769">
        <ele>1441.161</ele>
        <time>2022-07-11T13:17:15Z</time>
      </trkpt>
      <trkpt lat="46.377617" lon="9.657768">
        <ele>1441.127</ele>
        <time>2022-07-11T13:17:16Z</time>
      </trkpt>
      <trkpt lat="46.377576" lon="9.657768">
        <ele>1441.191</ele>
        <time>2022-07-11T13:17:17Z</time>
      </trkpt>
      <trkpt lat="46.377539" lon="9.657772">
        <ele>1441.112</ele>
        <time>2022-07-11T13:17:18Z</time>
      </trkpt>
      <trkpt lat="46.377222" lon="9.657721">
        <ele>1440.670</ele>
        <time>2022-07-11T13:17:29Z</time>
      </trkpt>
      <trkpt lat="46.376888" lon="9.657569">
        <ele>1440.184</ele>
        <time>2022-07-11T13:17:40Z</time>
      </trkpt>
      <trkpt lat="46.376503" lon="9.657479">
        <ele>1439.798</ele>
        <time>2022-07-11T13:17:50Z</time>
      </trkpt>
      <trkpt lat="46.376166" lon="9.657619">
        <ele>1439.715</ele>
        <time>2022-07-11T13:18:01Z</time>
      </trkpt>
      <trkpt lat="46.375862" lon="9.657731">
        <ele>1439.726</ele>
        <time>2022-07-11T13:18:11Z</time>
      </trkpt>
      <trkpt lat="46.375770" lon="9.657737">
        <ele>1441.109</ele>
        <time>2022-07-11T13:18:19Z</time>
      </trkpt>
      <trkpt lat="46.375658" lon="9.657732">
        <ele>1442.180</ele>
        <time>2022-07-11T13:18:34Z</time>
      </trkpt>
      <trkpt lat="46.375514" lon="9.657736">
        <ele>1443.029</ele>
        <time>2022-07-11T13:18:49Z</time>
      </trkpt>
      <trkpt lat="46.375449" lon="9.657733">
        <ele>1443.097</ele>
        <time>2022-07-11T13:19:00Z</time>
      </trkpt>
      <trkpt lat="46.375387" lon="9.657724">
        <ele>1445.059</ele>
        <time>2022-07-11T13:19:14Z</time>
      </trkpt>
      <trkpt lat="46.375314" lon="9.657691">
        <ele>1447.465</ele>
        <time>2022-07-11T13:19:30Z</time>
      </trkpt>
      <trkpt lat="46.375241" lon="9.657633">
        <ele>1446.939</ele>
        <time>2022-07-11T13:19:47Z</time>
      </trkpt>
      <trkpt lat="46.375226" lon="9.657632">
        <ele>1446.980</ele>
        <time>2022-07-11T13:19:48Z</time>
      </trkpt>
      <trkpt lat="46.375187" lon="9.657628">
        <ele>1445.438</ele>
        <time>2022-07-11T13:19:51Z</time>
      </trkpt>
      <trkpt lat="46.375128" lon="9.657599">
        <ele>1446.922</ele>
        <time>2022-07-11T13:19:58Z</time>
      </trkpt>
      <trkpt lat="46.375050" lon="9.657595">
        <ele>1447.444</ele>
        <time>2022-07-11T13:20:12Z</time>
      </trkpt>
      <trkpt lat="46.374947" lon="9.657562">
        <ele>1445.905</ele>
        <time>2022-07-11T13:20:24Z</time>
      </trkpt>
      <trkpt lat="46.374872" lon="9.657595">
        <ele>1443.015</ele>
        <time>2022-07-11T13:20:37Z</time>
      </trkpt>
      <trkpt lat="46.374722" lon="9.657636">
        <ele>1440.109</ele>
        <time>2022-07-11T13:20:52Z</time>
      </trkpt>
      <trkpt lat="46.374713" lon="9.657719">
        <ele>1440.175</ele>
        <time>2022-07-11T13:21:02Z</time>
      </trkpt>
      <trkpt lat="46.374711" lon="9.657740">
        <ele>1440.124</ele>
        <time>2022-07-11T13:21:03Z</time>
      </trkpt>
      <trkpt lat="46.374706" lon="9.657757">
        <ele>1440.112</ele>
        <time>2022-07-11T13:21:04Z</time>
      </trkpt>
      <trkpt lat="46.374703" lon="9.657789">
        <ele>1440.144</ele>
        <time>2022-07-11T13:21:05Z</time>
      </trkpt>
      <trkpt lat="46.374700" lon="9.657821">
        <ele>1440.180</ele>
        <time>2022-07-11T13:21:06Z</time>
      </trkpt>
      <trkpt lat="46.374694" lon="9.657856">
        <ele>1440.134</ele>
        <time>2022-07-11T13:21:07Z</time>
      </trkpt>
      <trkpt lat="46.374673" lon="9.658591">
        <ele>1439.715</ele>
        <time>2022-07-11T13:21:23Z</time>
      </trkpt>
      <trkpt lat="46.374607" lon="9.658727">
        <ele>1438.733</ele>
        <time>2022-07-11T13:21:27Z</time>
      </trkpt>
      <trkpt lat="46.374583" lon="9.658729">
        <ele>1438.787</ele>
        <time>2022-07-11T13:21:28Z</time>
      </trkpt>
      <trkpt lat="46.374557" lon="9.658720">
        <ele>1438.732</ele>
        <time>2022-07-11T13:21:29Z</time>
      </trkpt>
      <trkpt lat="46.374534" lon="9.658713">
        <ele>1438.792</ele>
        <time>2022-07-11T13:21:30Z</time>
      </trkpt>
      <trkpt lat="46.374510" lon="9.658709">
        <ele>1438.711</ele>
        <time>2022-07-11T13:21:31Z</time>
      </trkpt>
      <trkpt lat="46.374489" lon="9.658707">
        <ele>1438.709</ele>
        <time>2022-07-11T13:21:32Z</time>
      </trkpt>
      <trkpt lat="46.374470" lon="9.658703">
        <ele>1440.684</ele>
        <time>2022-07-11T13:21:33Z</time>
      </trkpt>
      <trkpt lat="46.374453" lon="9.658701">
        <ele>1440.663</ele>
        <time>2022-07-11T13:21:34Z</time>
      </trkpt>
      <trkpt lat="46.374270" lon="9.658697">
        <ele>1443.021</ele>
        <time>2022-07-11T13:21:46Z</time>
      </trkpt>
      <trkpt lat="46.374258" lon="9.658703">
        <ele>1443.553</ele>
        <time>2022-07-11T13:21:47Z</time>
      </trkpt>
      <trkpt lat="46.374244" lon="9.658708">
        <ele>1443.589</ele>
        <time>2022-07-11T13:21:48Z</time>
      </trkpt>
      <trkpt lat="46.374232" lon="9.658716">
        <ele>1443.533</ele>
        <time>2022-07-11T13:21:49Z</time>
      </trkpt>
      <trkpt lat="46.374220" lon="9.658724">
        <ele>1443.584</ele>
        <time>2022-07-11T13:21:50Z</time>
      </trkpt>
      <trkpt lat="46.374045" lon="9.658868">
        <ele>1445.012</ele>
        <time>2022-07-11T13:22:07Z</time>
      </trkpt>
      <trkpt lat="46.373917" lon="9.659099">
        <ele>1447.466</ele>
        <time>2022-07-11T13:22:23Z</time>
      </trkpt>
      <trkpt lat="46.373810" lon="9.659283">
        <ele>1448.863</ele>
        <time>2022-07-11T13:22:36Z</time>
      </trkpt>
      <trkpt lat="46.373801" lon="9.659293">
        <ele>1448.844</ele>
        <time>2022-07-11T13:22:37Z</time>
      </trkpt>
      <trkpt lat="46.373793" lon="9.659308">
        <ele>1449.318</ele>
        <time>2022-07-11T13:22:38Z</time>
      </trkpt>
      <trkpt lat="46.373785" lon="9.659325">
        <ele>1449.309</ele>
        <time>2022-07-11T13:22:39Z</time>
      </trkpt>
      <trkpt lat="46.373773" lon="9.659341">
        <ele>1449.367</ele>
        <time>2022-07-11T13:22:40Z</time>
      </trkpt>
      <trkpt lat="46.373756" lon="9.659355">
        <ele>1449.366</ele>
        <time>2022-07-11T13:22:41Z</time>
      </trkpt>
      <trkpt lat="46.373736" lon="9.659366">
        <ele>1449.324</ele>
        <time>2022-07-11T13:22:42Z</time>
      </trkpt>
      <trkpt lat="46.373713" lon="9.659376">
        <ele>1449.376</ele>
        <time>2022-07-11T13:22:43Z</time>
      </trkpt>
      <trkpt lat="46.373690" lon="9.659385">
        <ele>1449.342</ele>
        <time>2022-07-11T13:22:44Z</time>
      </trkpt>
      <trkpt lat="46.373301" lon="9.659567">
        <ele>1447.426</ele>
        <time>2022-07-11T13:22:57Z</time>
      </trkpt>
      <trkpt lat="46.372639" lon="9.659715">
        <ele>1446.447</ele>
        <time>2022-07-11T13:23:12Z</time>
      </trkpt>
      <trkpt lat="46.372588" lon="9.659707">
        <ele>1445.455</ele>
        <time>2022-07-11T13:23:13Z</time>
      </trkpt>
      <trkpt lat="46.372059" lon="9.659626">
        <ele>1442.169</ele>
        <time>2022-07-11T13:23:21Z</time>
      </trkpt>
      <trkpt lat="46.371660" lon="9.659689">
        <ele>1438.729</ele>
        <time>2022-07-11T13:23:26Z</time>
      </trkpt>
      <trkpt lat="46.371574" lon="9.659685">
        <ele>1437.300</ele>
        <time>2022-07-11T13:23:27Z</time>
      </trkpt>
      <trkpt lat="46.371488" lon="9.659657">
        <ele>1436.820</ele>
        <time>2022-07-11T13:23:28Z</time>
      </trkpt>
      <trkpt lat="46.371404" lon="9.659598">
        <ele>1435.809</ele>
        <time>2022-07-11T13:23:29Z</time>
      </trkpt>
      <trkpt lat="46.371323" lon="9.659511">
        <ele>1434.953</ele>
        <time>2022-07-11T13:23:30Z</time>
      </trkpt>
      <trkpt lat="46.371250" lon="9.659419">
        <ele>1434.412</ele>
        <time>2022-07-11T13:23:31Z</time>
      </trkpt>
      <trkpt lat="46.370935" lon="9.659054">
        <ele>1430.570</ele>
        <time>2022-07-11T13:23:35Z</time>
      </trkpt>
      <trkpt lat="46.370603" lon="9.658682">
        <ele>1427.282</ele>
        <time>2022-07-11T13:23:39Z</time>
      </trkpt>
      <trkpt lat="46.370232" lon="9.658336">
        <ele>1423.348</ele>
        <time>2022-07-11T13:23:43Z</time>
      </trkpt>
      <trkpt lat="46.369826" lon="9.658053">
        <ele>1419.512</ele>
        <time>2022-07-11T13:23:47Z</time>
      </trkpt>
      <trkpt lat="46.369614" lon="9.657935">
        <ele>1417.673</ele>
        <time>2022-07-11T13:23:49Z</time>
      </trkpt>
      <trkpt lat="46.369504" lon="9.657897">
        <ele>1416.621</ele>
        <time>2022-07-11T13:23:50Z</time>
      </trkpt>
      <trkpt lat="46.369396" lon="9.657874">
        <ele>1415.245</ele>
        <time>2022-07-11T13:23:51Z</time>
      </trkpt>
      <trkpt lat="46.369052" lon="9.657830">
        <ele>1412.772</ele>
        <time>2022-07-11T13:23:54Z</time>
      </trkpt>
      <trkpt lat="46.368945" lon="9.657796">
        <ele>1411.313</ele>
        <time>2022-07-11T13:23:55Z</time>
      </trkpt>
      <trkpt lat="46.368830" lon="9.657736">
        <ele>1410.314</ele>
        <time>2022-07-11T13:23:56Z</time>
      </trkpt>
      <trkpt lat="46.368429" lon="9.657473">
        <ele>1406.509</ele>
        <time>2022-07-11T13:24:00Z</time>
      </trkpt>
      <trkpt lat="46.368002" lon="9.657277">
        <ele>1402.718</ele>
        <time>2022-07-11T13:24:04Z</time>
      </trkpt>
      <trkpt lat="46.367675" lon="9.657204">
        <ele>1399.317</ele>
        <time>2022-07-11T13:24:07Z</time>
      </trkpt>
      <trkpt lat="46.367216" lon="9.657210">
        <ele>1395.415</ele>
        <time>2022-07-11T13:24:11Z</time>
      </trkpt>
      <trkpt lat="46.366866" lon="9.657245">
        <ele>1391.687</ele>
        <time>2022-07-11T13:24:14Z</time>
      </trkpt>
      <trkpt lat="46.366739" lon="9.657230">
        <ele>1390.613</ele>
        <time>2022-07-11T13:24:15Z</time>
      </trkpt>
      <trkpt lat="46.366622" lon="9.657197">
        <ele>1389.797</ele>
        <time>2022-07-11T13:24:16Z</time>
      </trkpt>
      <trkpt lat="46.366504" lon="9.657150">
        <ele>1389.278</ele>
        <time>2022-07-11T13:24:17Z</time>
      </trkpt>
      <trkpt lat="46.366161" lon="9.656989">
        <ele>1385.446</ele>
        <time>2022-07-11T13:24:20Z</time>
      </trkpt>
      <trkpt lat="46.365660" lon="9.656750">
        <ele>1380.550</ele>
        <time>2022-07-11T13:24:25Z</time>
      </trkpt>
      <trkpt lat="46.365569" lon="9.656705">
        <ele>1380.589</ele>
        <time>2022-07-11T13:24:26Z</time>
      </trkpt>
      <trkpt lat="46.365416" lon="9.656614">
        <ele>1379.106</ele>
        <time>2022-07-11T13:24:28Z</time>
      </trkpt>
      <trkpt lat="46.365359" lon="9.656530">
        <ele>1379.126</ele>
        <time>2022-07-11T13:24:29Z</time>
      </trkpt>
      <trkpt lat="46.365340" lon="9.656425">
        <ele>1378.109</ele>
        <time>2022-07-11T13:24:30Z</time>
      </trkpt>
      <trkpt lat="46.365362" lon="9.656317">
        <ele>1377.289</ele>
        <time>2022-07-11T13:24:31Z</time>
      </trkpt>
      <trkpt lat="46.365414" lon="9.656231">
        <ele>1376.718</ele>
        <time>2022-07-11T13:24:32Z</time>
      </trkpt>
      <trkpt lat="46.365493" lon="9.656160">
        <ele>1375.786</ele>
        <time>2022-07-11T13:24:33Z</time>
      </trkpt>
      <trkpt lat="46.365571" lon="9.656098">
        <ele>1375.398</ele>
        <time>2022-07-11T13:24:34Z</time>
      </trkpt>
      <trkpt lat="46.365897" lon="9.655807">
        <ele>1372.454</ele>
        <time>2022-07-11T13:24:38Z</time>
      </trkpt>
      <trkpt lat="46.366244" lon="9.655472">
        <ele>1368.578</ele>
        <time>2022-07-11T13:24:42Z</time>
      </trkpt>
      <trkpt lat="46.366335" lon="9.655366">
        <ele>1367.619</ele>
        <time>2022-07-11T13:24:43Z</time>
      </trkpt>
      <trkpt lat="46.366409" lon="9.655255">
        <ele>1367.647</ele>
        <time>2022-07-11T13:24:44Z</time>
      </trkpt>
      <trkpt lat="46.366480" lon="9.655134">
        <ele>1366.621</ele>
        <time>2022-07-11T13:24:45Z</time>
      </trkpt>
      <trkpt lat="46.366669" lon="9.654728">
        <ele>1363.219</ele>
        <time>2022-07-11T13:24:48Z</time>
      </trkpt>
      <trkpt lat="46.366769" lon="9.654488">
        <ele>1361.309</ele>
        <time>2022-07-11T13:24:50Z</time>
      </trkpt>
      <trkpt lat="46.366795" lon="9.654369">
        <ele>1360.419</ele>
        <time>2022-07-11T13:24:51Z</time>
      </trkpt>
      <trkpt lat="46.366799" lon="9.654228">
        <ele>1359.909</ele>
        <time>2022-07-11T13:24:52Z</time>
      </trkpt>
      <trkpt lat="46.366774" lon="9.654106">
        <ele>1359.482</ele>
        <time>2022-07-11T13:24:53Z</time>
      </trkpt>
      <trkpt lat="46.366725" lon="9.654006">
        <ele>1358.911</ele>
        <time>2022-07-11T13:24:54Z</time>
      </trkpt>
      <trkpt lat="46.366646" lon="9.653922">
        <ele>1358.019</ele>
        <time>2022-07-11T13:24:55Z</time>
      </trkpt>
      <trkpt lat="46.366557" lon="9.653869">
        <ele>1357.571</ele>
        <time>2022-07-11T13:24:56Z</time>
      </trkpt>
      <trkpt lat="46.366464" lon="9.653832">
        <ele>1356.537</ele>
        <time>2022-07-11T13:24:57Z</time>
      </trkpt>
      <trkpt lat="46.366372" lon="9.653808">
        <ele>1356.021</ele>
        <time>2022-07-11T13:24:58Z</time>
      </trkpt>
      <trkpt lat="46.366273" lon="9.653788">
        <ele>1354.672</ele>
        <time>2022-07-11T13:24:59Z</time>
      </trkpt>
      <trkpt lat="46.365858" lon="9.653693">
        <ele>1351.240</ele>
        <time>2022-07-11T13:25:03Z</time>
      </trkpt>
      <trkpt lat="46.365329" lon="9.653570">
        <ele>1347.934</ele>
        <time>2022-07-11T13:25:08Z</time>
      </trkpt>
      <trkpt lat="46.364971" lon="9.653486">
        <ele>1344.051</ele>
        <time>2022-07-11T13:25:11Z</time>
      </trkpt>
      <trkpt lat="46.364611" lon="9.653395">
        <ele>1340.701</ele>
        <time>2022-07-11T13:25:14Z</time>
      </trkpt>
      <trkpt lat="46.364237" lon="9.653256">
        <ele>1336.811</ele>
        <time>2022-07-11T13:25:17Z</time>
      </trkpt>
      <trkpt lat="46.363993" lon="9.653098">
        <ele>1333.909</ele>
        <time>2022-07-11T13:25:19Z</time>
      </trkpt>
      <trkpt lat="46.363880" lon="9.652995">
        <ele>1333.036</ele>
        <time>2022-07-11T13:25:20Z</time>
      </trkpt>
      <trkpt lat="46.363771" lon="9.652876">
        <ele>1331.535</ele>
        <time>2022-07-11T13:25:21Z</time>
      </trkpt>
      <trkpt lat="46.363670" lon="9.652745">
        <ele>1330.133</ele>
        <time>2022-07-11T13:25:22Z</time>
      </trkpt>
      <trkpt lat="46.363576" lon="9.652597">
        <ele>1328.285</ele>
        <time>2022-07-11T13:25:23Z</time>
      </trkpt>
      <trkpt lat="46.363492" lon="9.652443">
        <ele>1326.721</ele>
        <time>2022-07-11T13:25:24Z</time>
      </trkpt>
      <trkpt lat="46.363414" lon="9.652287">
        <ele>1325.385</ele>
        <time>2022-07-11T13:25:25Z</time>
      </trkpt>
      <trkpt lat="46.363249" lon="9.652017">
        <ele>1323.856</ele>
        <time>2022-07-11T13:25:27Z</time>
      </trkpt>
      <trkpt lat="46.363144" lon="9.651903">
        <ele>1322.414</ele>
        <time>2022-07-11T13:25:28Z</time>
      </trkpt>
      <trkpt lat="46.363044" lon="9.651825">
        <ele>1321.988</ele>
        <time>2022-07-11T13:25:29Z</time>
      </trkpt>
      <trkpt lat="46.362952" lon="9.651774">
        <ele>1321.992</ele>
        <time>2022-07-11T13:25:30Z</time>
      </trkpt>
      <trkpt lat="46.362863" lon="9.651740">
        <ele>1321.473</ele>
        <time>2022-07-11T13:25:31Z</time>
      </trkpt>
      <trkpt lat="46.362787" lon="9.651713">
        <ele>1320.520</ele>
        <time>2022-07-11T13:25:32Z</time>
      </trkpt>
      <trkpt lat="46.362722" lon="9.651677">
        <ele>1320.509</ele>
        <time>2022-07-11T13:25:33Z</time>
      </trkpt>
      <trkpt lat="46.362666" lon="9.651605">
        <ele>1319.540</ele>
        <time>2022-07-11T13:25:34Z</time>
      </trkpt>
      <trkpt lat="46.362651" lon="9.651529">
        <ele>1319.099</ele>
        <time>2022-07-11T13:25:35Z</time>
      </trkpt>
      <trkpt lat="46.362671" lon="9.651448">
        <ele>1318.147</ele>
        <time>2022-07-11T13:25:36Z</time>
      </trkpt>
      <trkpt lat="46.362727" lon="9.651391">
        <ele>1317.669</ele>
        <time>2022-07-11T13:25:37Z</time>
      </trkpt>
      <trkpt lat="46.362793" lon="9.651371">
        <ele>1317.185</ele>
        <time>2022-07-11T13:25:38Z</time>
      </trkpt>
      <trkpt lat="46.362867" lon="9.651384">
        <ele>1316.679</ele>
        <time>2022-07-11T13:25:39Z</time>
      </trkpt>
      <trkpt lat="46.362950" lon="9.651400">
        <ele>1316.630</ele>
        <time>2022-07-11T13:25:40Z</time>
      </trkpt>
      <trkpt lat="46.363034" lon="9.651410">
        <ele>1316.648</ele>
        <time>2022-07-11T13:25:41Z</time>
      </trkpt>
      <trkpt lat="46.363378" lon="9.651456">
        <ele>1312.882</ele>
        <time>2022-07-11T13:25:45Z</time>
      </trkpt>
      <trkpt lat="46.363560" lon="9.651448">
        <ele>1311.352</ele>
        <time>2022-07-11T13:25:47Z</time>
      </trkpt>
      <trkpt lat="46.363649" lon="9.651408">
        <ele>1310.953</ele>
        <time>2022-07-11T13:25:48Z</time>
      </trkpt>
      <trkpt lat="46.363731" lon="9.651325">
        <ele>1310.408</ele>
        <time>2022-07-11T13:25:49Z</time>
      </trkpt>
      <trkpt lat="46.363787" lon="9.651213">
        <ele>1309.409</ele>
        <time>2022-07-11T13:25:50Z</time>
      </trkpt>
      <trkpt lat="46.363825" lon="9.651082">
        <ele>1308.436</ele>
        <time>2022-07-11T13:25:51Z</time>
      </trkpt>
      <trkpt lat="46.363856" lon="9.650940">
        <ele>1308.035</ele>
        <time>2022-07-11T13:25:52Z</time>
      </trkpt>
      <trkpt lat="46.363890" lon="9.650815">
        <ele>1306.523</ele>
        <time>2022-07-11T13:25:53Z</time>
      </trkpt>
      <trkpt lat="46.363938" lon="9.650705">
        <ele>1305.675</ele>
        <time>2022-07-11T13:25:54Z</time>
      </trkpt>
      <trkpt lat="46.364001" lon="9.650604">
        <ele>1304.671</ele>
        <time>2022-07-11T13:25:55Z</time>
      </trkpt>
      <trkpt lat="46.364057" lon="9.650519">
        <ele>1303.675</ele>
        <time>2022-07-11T13:25:56Z</time>
      </trkpt>
      <trkpt lat="46.364091" lon="9.650430">
        <ele>1303.636</ele>
        <time>2022-07-11T13:25:57Z</time>
      </trkpt>
      <trkpt lat="46.364093" lon="9.650332">
        <ele>1303.664</ele>
        <time>2022-07-11T13:25:58Z</time>
      </trkpt>
      <trkpt lat="46.364062" lon="9.650239">
        <ele>1303.648</ele>
        <time>2022-07-11T13:25:59Z</time>
      </trkpt>
      <trkpt lat="46.364004" lon="9.650184">
        <ele>1302.747</ele>
        <time>2022-07-11T13:26:00Z</time>
      </trkpt>
      <trkpt lat="46.363934" lon="9.650163">
        <ele>1302.729</ele>
        <time>2022-07-11T13:26:01Z</time>
      </trkpt>
      <trkpt lat="46.363860" lon="9.650147">
        <ele>1301.721</ele>
        <time>2022-07-11T13:26:02Z</time>
      </trkpt>
      <trkpt lat="46.363528" lon="9.650033">
        <ele>1298.809</ele>
        <time>2022-07-11T13:26:06Z</time>
      </trkpt>
      <trkpt lat="46.363427" lon="9.649971">
        <ele>1297.985</ele>
        <time>2022-07-11T13:26:07Z</time>
      </trkpt>
      <trkpt lat="46.363342" lon="9.649899">
        <ele>1296.984</ele>
        <time>2022-07-11T13:26:08Z</time>
      </trkpt>
      <trkpt lat="46.363270" lon="9.649825">
        <ele>1295.992</ele>
        <time>2022-07-11T13:26:09Z</time>
      </trkpt>
      <trkpt lat="46.362931" lon="9.649458">
        <ele>1292.194</ele>
        <time>2022-07-11T13:26:13Z</time>
      </trkpt>
      <trkpt lat="46.362765" lon="9.649235">
        <ele>1290.220</ele>
        <time>2022-07-11T13:26:15Z</time>
      </trkpt>
      <trkpt lat="46.362614" lon="9.649013">
        <ele>1288.344</ele>
        <time>2022-07-11T13:26:17Z</time>
      </trkpt>
      <trkpt lat="46.362519" lon="9.648927">
        <ele>1287.875</ele>
        <time>2022-07-11T13:26:18Z</time>
      </trkpt>
      <trkpt lat="46.362418" lon="9.648883">
        <ele>1286.843</ele>
        <time>2022-07-11T13:26:19Z</time>
      </trkpt>
      <trkpt lat="46.362308" lon="9.648874">
        <ele>1285.977</ele>
        <time>2022-07-11T13:26:20Z</time>
      </trkpt>
      <trkpt lat="46.362195" lon="9.648883">
        <ele>1284.972</ele>
        <time>2022-07-11T13:26:21Z</time>
      </trkpt>
      <trkpt lat="46.362073" lon="9.648887">
        <ele>1283.513</ele>
        <time>2022-07-11T13:26:22Z</time>
      </trkpt>
      <trkpt lat="46.361955" lon="9.648865">
        <ele>1282.014</ele>
        <time>2022-07-11T13:26:23Z</time>
      </trkpt>
      <trkpt lat="46.361840" lon="9.648817">
        <ele>1280.609</ele>
        <time>2022-07-11T13:26:24Z</time>
      </trkpt>
      <trkpt lat="46.361730" lon="9.648754">
        <ele>1279.688</ele>
        <time>2022-07-11T13:26:25Z</time>
      </trkpt>
      <trkpt lat="46.361606" lon="9.648674">
        <ele>1278.617</ele>
        <time>2022-07-11T13:26:26Z</time>
      </trkpt>
      <trkpt lat="46.361495" lon="9.648586">
        <ele>1277.275</ele>
        <time>2022-07-11T13:26:27Z</time>
      </trkpt>
      <trkpt lat="46.361178" lon="9.648270">
        <ele>1273.877</ele>
        <time>2022-07-11T13:26:30Z</time>
      </trkpt>
      <trkpt lat="46.360939" lon="9.647989">
        <ele>1271.413</ele>
        <time>2022-07-11T13:26:33Z</time>
      </trkpt>
      <trkpt lat="46.360886" lon="9.647889">
        <ele>1271.057</ele>
        <time>2022-07-11T13:26:34Z</time>
      </trkpt>
      <trkpt lat="46.360871" lon="9.647788">
        <ele>1270.088</ele>
        <time>2022-07-11T13:26:35Z</time>
      </trkpt>
      <trkpt lat="46.360898" lon="9.647697">
        <ele>1269.566</ele>
        <time>2022-07-11T13:26:36Z</time>
      </trkpt>
      <trkpt lat="46.360955" lon="9.647632">
        <ele>1269.560</ele>
        <time>2022-07-11T13:26:37Z</time>
      </trkpt>
      <trkpt lat="46.361033" lon="9.647596">
        <ele>1268.151</ele>
        <time>2022-07-11T13:26:38Z</time>
      </trkpt>
      <trkpt lat="46.361110" lon="9.647587">
        <ele>1267.601</ele>
        <time>2022-07-11T13:26:39Z</time>
      </trkpt>
      <trkpt lat="46.361191" lon="9.647589">
        <ele>1267.111</ele>
        <time>2022-07-11T13:26:40Z</time>
      </trkpt>
      <trkpt lat="46.361286" lon="9.647579">
        <ele>1267.109</ele>
        <time>2022-07-11T13:26:41Z</time>
      </trkpt>
      <trkpt lat="46.361374" lon="9.647552">
        <ele>1265.756</ele>
        <time>2022-07-11T13:26:42Z</time>
      </trkpt>
      <trkpt lat="46.361461" lon="9.647505">
        <ele>1265.235</ele>
        <time>2022-07-11T13:26:43Z</time>
      </trkpt>
      <trkpt lat="46.361545" lon="9.647440">
        <ele>1264.783</ele>
        <time>2022-07-11T13:26:44Z</time>
      </trkpt>
      <trkpt lat="46.361623" lon="9.647363">
        <ele>1263.725</ele>
        <time>2022-07-11T13:26:45Z</time>
      </trkpt>
      <trkpt lat="46.361711" lon="9.647264">
        <ele>1262.311</ele>
        <time>2022-07-11T13:26:46Z</time>
      </trkpt>
      <trkpt lat="46.361973" lon="9.646991">
        <ele>1258.915</ele>
        <time>2022-07-11T13:26:49Z</time>
      </trkpt>
      <trkpt lat="46.362143" lon="9.646803">
        <ele>1257.516</ele>
        <time>2022-07-11T13:26:51Z</time>
      </trkpt>
      <trkpt lat="46.362200" lon="9.646710">
        <ele>1257.084</ele>
        <time>2022-07-11T13:26:52Z</time>
      </trkpt>
      <trkpt lat="46.362225" lon="9.646618">
        <ele>1257.078</ele>
        <time>2022-07-11T13:26:53Z</time>
      </trkpt>
      <trkpt lat="46.362216" lon="9.646517">
        <ele>1256.527</ele>
        <time>2022-07-11T13:26:54Z</time>
      </trkpt>
      <trkpt lat="46.362170" lon="9.646436">
        <ele>1255.668</ele>
        <time>2022-07-11T13:26:55Z</time>
      </trkpt>
      <trkpt lat="46.362104" lon="9.646386">
        <ele>1255.114</ele>
        <time>2022-07-11T13:26:56Z</time>
      </trkpt>
      <trkpt lat="46.362028" lon="9.646355">
        <ele>1254.609</ele>
        <time>2022-07-11T13:26:57Z</time>
      </trkpt>
      <trkpt lat="46.361950" lon="9.646329">
        <ele>1253.723</ele>
        <time>2022-07-11T13:26:58Z</time>
      </trkpt>
      <trkpt lat="46.361867" lon="9.646298">
        <ele>1253.742</ele>
        <time>2022-07-11T13:26:59Z</time>
      </trkpt>
      <trkpt lat="46.361501" lon="9.646147">
        <ele>1249.860</ele>
        <time>2022-07-11T13:27:03Z</time>
      </trkpt>
      <trkpt lat="46.361221" lon="9.645977">
        <ele>1246.982</ele>
        <time>2022-07-11T13:27:06Z</time>
      </trkpt>
      <trkpt lat="46.361134" lon="9.645886">
        <ele>1246.018</ele>
        <time>2022-07-11T13:27:07Z</time>
      </trkpt>
      <trkpt lat="46.360872" lon="9.645605">
        <ele>1242.632</ele>
        <time>2022-07-11T13:27:10Z</time>
      </trkpt>
      <trkpt lat="46.360773" lon="9.645535">
        <ele>1241.673</ele>
        <time>2022-07-11T13:27:11Z</time>
      </trkpt>
      <trkpt lat="46.360344" lon="9.645303">
        <ele>1238.321</ele>
        <time>2022-07-11T13:27:15Z</time>
      </trkpt>
      <trkpt lat="46.360005" lon="9.645184">
        <ele>1234.955</ele>
        <time>2022-07-11T13:27:18Z</time>
      </trkpt>
      <trkpt lat="46.359908" lon="9.645125">
        <ele>1233.993</ele>
        <time>2022-07-11T13:27:19Z</time>
      </trkpt>
      <trkpt lat="46.359823" lon="9.645051">
        <ele>1233.065</ele>
        <time>2022-07-11T13:27:20Z</time>
      </trkpt>
      <trkpt lat="46.359746" lon="9.644967">
        <ele>1233.021</ele>
        <time>2022-07-11T13:27:21Z</time>
      </trkpt>
      <trkpt lat="46.359477" lon="9.644661">
        <ele>1230.609</ele>
        <time>2022-07-11T13:27:25Z</time>
      </trkpt>
      <trkpt lat="46.359320" lon="9.644545">
        <ele>1229.170</ele>
        <time>2022-07-11T13:27:28Z</time>
      </trkpt>
      <trkpt lat="46.359288" lon="9.644517">
        <ele>1228.719</ele>
        <time>2022-07-11T13:27:29Z</time>
      </trkpt>
      <trkpt lat="46.359082" lon="9.644410">
        <ele>1226.767</ele>
        <time>2022-07-11T13:27:35Z</time>
      </trkpt>
      <trkpt lat="46.358718" lon="9.644247">
        <ele>1223.429</ele>
        <time>2022-07-11T13:27:41Z</time>
      </trkpt>
      <trkpt lat="46.358402" lon="9.644128">
        <ele>1220.535</ele>
        <time>2022-07-11T13:27:45Z</time>
      </trkpt>
      <trkpt lat="46.358344" lon="9.644089">
        <ele>1220.599</ele>
        <time>2022-07-11T13:27:46Z</time>
      </trkpt>
      <trkpt lat="46.358296" lon="9.644021">
        <ele>1219.540</ele>
        <time>2022-07-11T13:27:47Z</time>
      </trkpt>
      <trkpt lat="46.358279" lon="9.643933">
        <ele>1218.618</ele>
        <time>2022-07-11T13:27:48Z</time>
      </trkpt>
      <trkpt lat="46.358297" lon="9.643842">
        <ele>1218.132</ele>
        <time>2022-07-11T13:27:49Z</time>
      </trkpt>
      <trkpt lat="46.358348" lon="9.643767">
        <ele>1218.173</ele>
        <time>2022-07-11T13:27:50Z</time>
      </trkpt>
      <trkpt lat="46.358412" lon="9.643715">
        <ele>1217.185</ele>
        <time>2022-07-11T13:27:51Z</time>
      </trkpt>
      <trkpt lat="46.358490" lon="9.643670">
        <ele>1217.113</ele>
        <time>2022-07-11T13:27:52Z</time>
      </trkpt>
      <trkpt lat="46.358566" lon="9.643623">
        <ele>1215.709</ele>
        <time>2022-07-11T13:27:53Z</time>
      </trkpt>
      <trkpt lat="46.358631" lon="9.643576">
        <ele>1216.258</ele>
        <time>2022-07-11T13:27:54Z</time>
      </trkpt>
      <trkpt lat="46.358856" lon="9.643407">
        <ele>1214.217</ele>
        <time>2022-07-11T13:27:57Z</time>
      </trkpt>
      <trkpt lat="46.359097" lon="9.643220">
        <ele>1211.435</ele>
        <time>2022-07-11T13:28:00Z</time>
      </trkpt>
      <trkpt lat="46.359451" lon="9.642966">
        <ele>1208.557</ele>
        <time>2022-07-11T13:28:04Z</time>
      </trkpt>
      <trkpt lat="46.359581" lon="9.642868">
        <ele>1207.583</ele>
        <time>2022-07-11T13:28:06Z</time>
      </trkpt>
      <trkpt lat="46.359614" lon="9.642741">
        <ele>1207.577</ele>
        <time>2022-07-11T13:28:07Z</time>
      </trkpt>
      <trkpt lat="46.359614" lon="9.642632">
        <ele>1207.588</ele>
        <time>2022-07-11T13:28:08Z</time>
      </trkpt>
      <trkpt lat="46.359592" lon="9.642525">
        <ele>1206.116</ele>
        <time>2022-07-11T13:28:09Z</time>
      </trkpt>
      <trkpt lat="46.359552" lon="9.642418">
        <ele>1204.150</ele>
        <time>2022-07-11T13:28:10Z</time>
      </trkpt>
      <trkpt lat="46.359411" lon="9.642102">
        <ele>1203.298</ele>
        <time>2022-07-11T13:28:13Z</time>
      </trkpt>
      <trkpt lat="46.359194" lon="9.641640">
        <ele>1199.315</ele>
        <time>2022-07-11T13:28:17Z</time>
      </trkpt>
      <trkpt lat="46.359046" lon="9.641404">
        <ele>1197.426</ele>
        <time>2022-07-11T13:28:19Z</time>
      </trkpt>
      <trkpt lat="46.358963" lon="9.641326">
        <ele>1196.509</ele>
        <time>2022-07-11T13:28:20Z</time>
      </trkpt>
      <trkpt lat="46.358736" lon="9.641216">
        <ele>1195.090</ele>
        <time>2022-07-11T13:28:22Z</time>
      </trkpt>
      <trkpt lat="46.358637" lon="9.641200">
        <ele>1193.699</ele>
        <time>2022-07-11T13:28:23Z</time>
      </trkpt>
      <trkpt lat="46.358533" lon="9.641189">
        <ele>1193.137</ele>
        <time>2022-07-11T13:28:24Z</time>
      </trkpt>
      <trkpt lat="46.358307" lon="9.641086">
        <ele>1189.279</ele>
        <time>2022-07-11T13:28:26Z</time>
      </trkpt>
      <trkpt lat="46.358225" lon="9.640998">
        <ele>1189.255</ele>
        <time>2022-07-11T13:28:27Z</time>
      </trkpt>
      <trkpt lat="46.358141" lon="9.640879">
        <ele>1188.359</ele>
        <time>2022-07-11T13:28:28Z</time>
      </trkpt>
      <trkpt lat="46.357896" lon="9.640506">
        <ele>1184.970</ele>
        <time>2022-07-11T13:28:31Z</time>
      </trkpt>
      <trkpt lat="46.357619" lon="9.640107">
        <ele>1181.668</ele>
        <time>2022-07-11T13:28:34Z</time>
      </trkpt>
      <trkpt lat="46.357372" lon="9.639741">
        <ele>1180.672</ele>
        <time>2022-07-11T13:28:37Z</time>
      </trkpt>
      <trkpt lat="46.357283" lon="9.639609">
        <ele>1177.295</ele>
        <time>2022-07-11T13:28:38Z</time>
      </trkpt>
      <trkpt lat="46.357011" lon="9.639213">
        <ele>1173.949</ele>
        <time>2022-07-11T13:28:41Z</time>
      </trkpt>
      <trkpt lat="46.356646" lon="9.638686">
        <ele>1170.523</ele>
        <time>2022-07-11T13:28:45Z</time>
      </trkpt>
      <trkpt lat="46.356398" lon="9.638307">
        <ele>1167.109</ele>
        <time>2022-07-11T13:28:48Z</time>
      </trkpt>
      <trkpt lat="46.356077" lon="9.637713">
        <ele>1163.360</ele>
        <time>2022-07-11T13:28:52Z</time>
      </trkpt>
      <trkpt lat="46.355888" lon="9.637255">
        <ele>1159.099</ele>
        <time>2022-07-11T13:28:55Z</time>
      </trkpt>
      <trkpt lat="46.355654" lon="9.636557">
        <ele>1155.137</ele>
        <time>2022-07-11T13:28:59Z</time>
      </trkpt>
      <trkpt lat="46.355479" lon="9.635990">
        <ele>1151.859</ele>
        <time>2022-07-11T13:29:03Z</time>
      </trkpt>
      <trkpt lat="46.355333" lon="9.635519">
        <ele>1149.355</ele>
        <time>2022-07-11T13:29:06Z</time>
      </trkpt>
      <trkpt lat="46.355105" lon="9.634831">
        <ele>1146.079</ele>
        <time>2022-07-11T13:29:11Z</time>
      </trkpt>
      <trkpt lat="46.354812" lon="9.634155">
        <ele>1143.150</ele>
        <time>2022-07-11T13:29:16Z</time>
      </trkpt>
      <trkpt lat="46.354539" lon="9.633653">
        <ele>1139.728</ele>
        <time>2022-07-11T13:29:20Z</time>
      </trkpt>
      <trkpt lat="46.354331" lon="9.633306">
        <ele>1137.882</ele>
        <time>2022-07-11T13:29:23Z</time>
      </trkpt>
      <trkpt lat="46.354063" lon="9.632876">
        <ele>1135.486</ele>
        <time>2022-07-11T13:29:27Z</time>
      </trkpt>
      <trkpt lat="46.353794" lon="9.632434">
        <ele>1132.060</ele>
        <time>2022-07-11T13:29:31Z</time>
      </trkpt>
      <trkpt lat="46.353731" lon="9.632332">
        <ele>1132.026</ele>
        <time>2022-07-11T13:29:32Z</time>
      </trkpt>
      <trkpt lat="46.353421" lon="9.631836">
        <ele>1129.609</ele>
        <time>2022-07-11T13:29:37Z</time>
      </trkpt>
      <trkpt lat="46.352910" lon="9.631017">
        <ele>1124.839</ele>
        <time>2022-07-11T13:29:46Z</time>
      </trkpt>
      <trkpt lat="46.352536" lon="9.630424">
        <ele>1121.078</ele>
        <time>2022-07-11T13:29:53Z</time>
      </trkpt>
      <trkpt lat="46.351748" lon="9.629122">
        <ele>1118.156</ele>
        <time>2022-07-11T13:30:09Z</time>
      </trkpt>
      <trkpt lat="46.351704" lon="9.629034">
        <ele>1118.158</ele>
        <time>2022-07-11T13:30:10Z</time>
      </trkpt>
      <trkpt lat="46.351297" lon="9.628082">
        <ele>1114.774</ele>
        <time>2022-07-11T13:30:21Z</time>
      </trkpt>
      <trkpt lat="46.350914" lon="9.626799">
        <ele>1110.978</ele>
        <time>2022-07-11T13:30:36Z</time>
      </trkpt>
      <trkpt lat="46.350502" lon="9.625290">
        <ele>1107.589</ele>
        <time>2022-07-11T13:30:54Z</time>
      </trkpt>
      <trkpt lat="46.350235" lon="9.624297">
        <ele>1104.637</ele>
        <time>2022-07-11T13:31:05Z</time>
      </trkpt>
      <trkpt lat="46.350047" lon="9.622987">
        <ele>1101.311</ele>
        <time>2022-07-11T13:31:18Z</time>
      </trkpt>
      <trkpt lat="46.350070" lon="9.621855">
        <ele>1098.446</ele>
        <time>2022-07-11T13:31:29Z</time>
      </trkpt>
      <trkpt lat="46.350093" lon="9.620220">
        <ele>1095.588</ele>
        <time>2022-07-11T13:31:47Z</time>
      </trkpt>
      <trkpt lat="46.349972" lon="9.619109">
        <ele>1092.216</ele>
        <time>2022-07-11T13:32:01Z</time>
      </trkpt>
      <trkpt lat="46.349926" lon="9.618693">
        <ele>1091.209</ele>
        <time>2022-07-11T13:32:14Z</time>
      </trkpt>
      <trkpt lat="46.349873" lon="9.618315">
        <ele>1089.775</ele>
        <time>2022-07-11T13:32:27Z</time>
      </trkpt>
      <trkpt lat="46.349882" lon="9.618065">
        <ele>1088.834</ele>
        <time>2022-07-11T13:32:41Z</time>
      </trkpt>
      <trkpt lat="46.349870" lon="9.618060">
        <ele>1088.842</ele>
        <time>2022-07-11T13:32:51Z</time>
      </trkpt>
      <trkpt lat="46.349865" lon="9.618069">
        <ele>1088.854</ele>
        <time>2022-07-11T13:32:52Z</time>
      </trkpt>
      <trkpt lat="46.349891" lon="9.618330">
        <ele>1088.810</ele>
        <time>2022-07-11T13:33:04Z</time>
      </trkpt>
      <trkpt lat="46.349940" lon="9.618725">
        <ele>1089.744</ele>
        <time>2022-07-11T13:33:18Z</time>
      </trkpt>
      <trkpt lat="46.349984" lon="9.619106">
        <ele>1090.775</ele>
        <time>2022-07-11T13:33:32Z</time>
      </trkpt>
      <trkpt lat="46.350016" lon="9.619152">
        <ele>1091.293</ele>
        <time>2022-07-11T13:33:47Z</time>
      </trkpt>
      <trkpt lat="46.350022" lon="9.619118">
        <ele>1091.297</ele>
        <time>2022-07-11T13:34:06Z</time>
      </trkpt>
      <trkpt lat="46.350020" lon="9.619123">
        <ele>1090.747</ele>
        <time>2022-07-11T13:34:29Z</time>
      </trkpt>
      <trkpt lat="46.350031" lon="9.619129">
        <ele>1090.229</ele>
        <time>2022-07-11T13:34:55Z</time>
      </trkpt>
      <trkpt lat="46.350018" lon="9.619179">
        <ele>1089.721</ele>
        <time>2022-07-11T13:35:17Z</time>
      </trkpt>
      <trkpt lat="46.350004" lon="9.619152">
        <ele>1089.709</ele>
        <time>2022-07-11T13:35:36Z</time>
      </trkpt>
      <trkpt lat="46.350023" lon="9.619159">
        <ele>1089.745</ele>
        <time>2022-07-11T13:36:04Z</time>
      </trkpt>
      <trkpt lat="46.350003" lon="9.619169">
        <ele>1089.344</ele>
        <time>2022-07-11T13:36:08Z</time>
      </trkpt>
      <trkpt lat="46.349995" lon="9.619149">
        <ele>1089.362</ele>
        <time>2022-07-11T13:36:09Z</time>
      </trkpt>
      <trkpt lat="46.349960" lon="9.618981">
        <ele>1087.884</ele>
        <time>2022-07-11T13:36:14Z</time>
      </trkpt>
      <trkpt lat="46.349843" lon="9.617968">
        <ele>1086.420</ele>
        <time>2022-07-11T13:36:30Z</time>
      </trkpt>
      <trkpt lat="46.349673" lon="9.616602">
        <ele>1083.034</ele>
        <time>2022-07-11T13:36:47Z</time>
      </trkpt>
      <trkpt lat="46.349666" lon="9.616364">
        <ele>1083.055</ele>
        <time>2022-07-11T13:36:51Z</time>
      </trkpt>
      <trkpt lat="46.349680" lon="9.616344">
        <ele>1083.023</ele>
        <time>2022-07-11T13:36:52Z</time>
      </trkpt>
      <trkpt lat="46.349684" lon="9.616224">
        <ele>1074.427</ele>
        <time>2022-07-11T14:01:17Z</time>
      </trkpt>
      <trkpt lat="46.349672" lon="9.616201">
        <ele>1073.476</ele>
        <time>2022-07-11T14:01:18Z</time>
      </trkpt>
      <trkpt lat="46.349662" lon="9.616164">
        <ele>1073.490</ele>
        <time>2022-07-11T14:01:19Z</time>
      </trkpt>
      <trkpt lat="46.349557" lon="9.615358">
        <ele>1072.919</ele>
        <time>2022-07-11T14:01:32Z</time>
      </trkpt>
      <trkpt lat="46.349391" lon="9.613887">
        <ele>1070.509</ele>
        <time>2022-07-11T14:01:51Z</time>
      </trkpt>
      <trkpt lat="46.349251" lon="9.612728">
        <ele>1069.138</ele>
        <time>2022-07-11T14:02:05Z</time>
      </trkpt>
      <trkpt lat="46.349045" lon="9.610868">
        <ele>1066.767</ele>
        <time>2022-07-11T14:02:27Z</time>
      </trkpt>
      <trkpt lat="46.348873" lon="9.609229">
        <ele>1064.395</ele>
        <time>2022-07-11T14:02:46Z</time>
      </trkpt>
      <trkpt lat="46.348837" lon="9.608233">
        <ele>1060.947</ele>
        <time>2022-07-11T14:02:56Z</time>
      </trkpt>
      <trkpt lat="46.348849" lon="9.608020">
        <ele>1059.993</ele>
        <time>2022-07-11T14:02:58Z</time>
      </trkpt>
      <trkpt lat="46.348983" lon="9.606472">
        <ele>1056.627</ele>
        <time>2022-07-11T14:03:13Z</time>
      </trkpt>
      <trkpt lat="46.348978" lon="9.605299">
        <ele>1053.288</ele>
        <time>2022-07-11T14:03:24Z</time>
      </trkpt>
      <trkpt lat="46.348764" lon="9.604283">
        <ele>1050.356</ele>
        <time>2022-07-11T14:03:34Z</time>
      </trkpt>
      <trkpt lat="46.348294" lon="9.603362">
        <ele>1047.060</ele>
        <time>2022-07-11T14:03:45Z</time>
      </trkpt>
      <trkpt lat="46.347790" lon="9.602804">
        <ele>1045.037</ele>
        <time>2022-07-11T14:03:54Z</time>
      </trkpt>
      <trkpt lat="46.347069" lon="9.601858">
        <ele>1041.749</ele>
        <time>2022-07-11T14:04:07Z</time>
      </trkpt>
      <trkpt lat="46.346702" lon="9.600711">
        <ele>1041.713</ele>
        <time>2022-07-11T14:04:21Z</time>
      </trkpt>
      <trkpt lat="46.346638" lon="9.599441">
        <ele>1041.709</ele>
        <time>2022-07-11T14:04:39Z</time>
      </trkpt>
      <trkpt lat="46.346593" lon="9.598268">
        <ele>1043.154</ele>
        <time>2022-07-11T14:05:00Z</time>
      </trkpt>
      <trkpt lat="46.346302" lon="9.597325">
        <ele>1043.163</ele>
        <time>2022-07-11T14:05:19Z</time>
      </trkpt>
      <trkpt lat="46.345756" lon="9.596522">
        <ele>1041.281</ele>
        <time>2022-07-11T14:05:37Z</time>
      </trkpt>
      <trkpt lat="46.345102" lon="9.595593">
        <ele>1038.843</ele>
        <time>2022-07-11T14:05:56Z</time>
      </trkpt>
      <trkpt lat="46.344684" lon="9.595003">
        <ele>1035.439</ele>
        <time>2022-07-11T14:06:05Z</time>
      </trkpt>
      <trkpt lat="46.344291" lon="9.594413">
        <ele>1032.523</ele>
        <time>2022-07-11T14:06:13Z</time>
      </trkpt>
      <trkpt lat="46.344249" lon="9.594315">
        <ele>1032.564</ele>
        <time>2022-07-11T14:06:14Z</time>
      </trkpt>
      <trkpt lat="46.344038" lon="9.593744">
        <ele>1029.752</ele>
        <time>2022-07-11T14:06:20Z</time>
      </trkpt>
      <trkpt lat="46.344010" lon="9.593627">
        <ele>1029.796</ele>
        <time>2022-07-11T14:06:21Z</time>
      </trkpt>
      <trkpt lat="46.343987" lon="9.593514">
        <ele>1028.769</ele>
        <time>2022-07-11T14:06:22Z</time>
      </trkpt>
      <trkpt lat="46.343830" lon="9.592782">
        <ele>1024.904</ele>
        <time>2022-07-11T14:06:28Z</time>
      </trkpt>
      <trkpt lat="46.343725" lon="9.592251">
        <ele>1021.524</ele>
        <time>2022-07-11T14:06:32Z</time>
      </trkpt>
      <trkpt lat="46.343624" lon="9.591679">
        <ele>1018.609</ele>
        <time>2022-07-11T14:06:36Z</time>
      </trkpt>
      <trkpt lat="46.343579" lon="9.591229">
        <ele>1016.787</ele>
        <time>2022-07-11T14:06:39Z</time>
      </trkpt>
      <trkpt lat="46.343482" lon="9.590770">
        <ele>1012.426</ele>
        <time>2022-07-11T14:06:42Z</time>
      </trkpt>
      <trkpt lat="46.343438" lon="9.590613">
        <ele>1012.484</ele>
        <time>2022-07-11T14:06:43Z</time>
      </trkpt>
      <trkpt lat="46.343387" lon="9.590465">
        <ele>1010.946</ele>
        <time>2022-07-11T14:06:44Z</time>
      </trkpt>
      <trkpt lat="46.343323" lon="9.590327">
        <ele>1010.032</ele>
        <time>2022-07-11T14:06:45Z</time>
      </trkpt>
      <trkpt lat="46.343102" lon="9.589956">
        <ele>1008.096</ele>
        <time>2022-07-11T14:06:48Z</time>
      </trkpt>
      <trkpt lat="46.342290" lon="9.588778">
        <ele>1005.647</ele>
        <time>2022-07-11T14:07:00Z</time>
      </trkpt>
      <trkpt lat="46.342020" lon="9.588313">
        <ele>1005.295</ele>
        <time>2022-07-11T14:07:06Z</time>
      </trkpt>
      <trkpt lat="46.341993" lon="9.588231">
        <ele>1005.249</ele>
        <time>2022-07-11T14:07:07Z</time>
      </trkpt>
      <trkpt lat="46.341968" lon="9.588139">
        <ele>1005.226</ele>
        <time>2022-07-11T14:07:08Z</time>
      </trkpt>
      <trkpt lat="46.341949" lon="9.588054">
        <ele>1005.247</ele>
        <time>2022-07-11T14:07:09Z</time>
      </trkpt>
      <trkpt lat="46.341933" lon="9.587971">
        <ele>1005.211</ele>
        <time>2022-07-11T14:07:10Z</time>
      </trkpt>
      <trkpt lat="46.341536" lon="9.586168">
        <ele>1002.309</ele>
        <time>2022-07-11T14:07:31Z</time>
      </trkpt>
      <trkpt lat="46.341245" lon="9.584731">
        <ele>998.953</ele>
        <time>2022-07-11T14:07:47Z</time>
      </trkpt>
      <trkpt lat="46.341044" lon="9.583247">
        <ele>995.552</ele>
        <time>2022-07-11T14:08:03Z</time>
      </trkpt>
      <trkpt lat="46.340816" lon="9.581697">
        <ele>994.170</ele>
        <time>2022-07-11T14:08:21Z</time>
      </trkpt>
      <trkpt lat="46.340791" lon="9.581615">
        <ele>993.182</ele>
        <time>2022-07-11T14:08:22Z</time>
      </trkpt>
      <trkpt lat="46.340761" lon="9.581534">
        <ele>993.158</ele>
        <time>2022-07-11T14:08:23Z</time>
      </trkpt>
      <trkpt lat="46.340501" lon="9.580872">
        <ele>989.352</ele>
        <time>2022-07-11T14:08:30Z</time>
      </trkpt>
      <trkpt lat="46.340465" lon="9.580760">
        <ele>989.313</ele>
        <time>2022-07-11T14:08:31Z</time>
      </trkpt>
      <trkpt lat="46.340354" lon="9.580412">
        <ele>986.491</ele>
        <time>2022-07-11T14:08:34Z</time>
      </trkpt>
      <trkpt lat="46.340328" lon="9.580290">
        <ele>985.435</ele>
        <time>2022-07-11T14:08:35Z</time>
      </trkpt>
      <trkpt lat="46.340278" lon="9.580037">
        <ele>984.066</ele>
        <time>2022-07-11T14:08:37Z</time>
      </trkpt>
      <trkpt lat="46.340217" lon="9.579799">
        <ele>983.529</ele>
        <time>2022-07-11T14:08:39Z</time>
      </trkpt>
      <trkpt lat="46.339962" lon="9.578813">
        <ele>980.221</ele>
        <time>2022-07-11T14:08:47Z</time>
      </trkpt>
      <trkpt lat="46.339930" lon="9.578553">
        <ele>979.209</ele>
        <time>2022-07-11T14:08:49Z</time>
      </trkpt>
      <trkpt lat="46.339928" lon="9.578406">
        <ele>978.227</ele>
        <time>2022-07-11T14:08:50Z</time>
      </trkpt>
      <trkpt lat="46.339937" lon="9.578267">
        <ele>977.836</ele>
        <time>2022-07-11T14:08:51Z</time>
      </trkpt>
      <trkpt lat="46.339961" lon="9.578130">
        <ele>977.864</ele>
        <time>2022-07-11T14:08:52Z</time>
      </trkpt>
      <trkpt lat="46.339995" lon="9.577994">
        <ele>976.316</ele>
        <time>2022-07-11T14:08:53Z</time>
      </trkpt>
      <trkpt lat="46.340039" lon="9.577866">
        <ele>976.372</ele>
        <time>2022-07-11T14:08:54Z</time>
      </trkpt>
      <trkpt lat="46.340096" lon="9.577738">
        <ele>975.386</ele>
        <time>2022-07-11T14:08:55Z</time>
      </trkpt>
      <trkpt lat="46.340156" lon="9.577620">
        <ele>975.317</ele>
        <time>2022-07-11T14:08:56Z</time>
      </trkpt>
      <trkpt lat="46.340211" lon="9.577496">
        <ele>973.985</ele>
        <time>2022-07-11T14:08:57Z</time>
      </trkpt>
      <trkpt lat="46.340252" lon="9.577360">
        <ele>972.989</ele>
        <time>2022-07-11T14:08:58Z</time>
      </trkpt>
      <trkpt lat="46.340275" lon="9.577214">
        <ele>972.034</ele>
        <time>2022-07-11T14:08:59Z</time>
      </trkpt>
      <trkpt lat="46.340280" lon="9.577064">
        <ele>971.555</ele>
        <time>2022-07-11T14:09:00Z</time>
      </trkpt>
      <trkpt lat="46.340265" lon="9.576915">
        <ele>971.010</ele>
        <time>2022-07-11T14:09:01Z</time>
      </trkpt>
      <trkpt lat="46.340229" lon="9.576765">
        <ele>970.109</ele>
        <time>2022-07-11T14:09:02Z</time>
      </trkpt>
      <trkpt lat="46.340178" lon="9.576616">
        <ele>969.144</ele>
        <time>2022-07-11T14:09:03Z</time>
      </trkpt>
      <trkpt lat="46.340118" lon="9.576479">
        <ele>968.153</ele>
        <time>2022-07-11T14:09:04Z</time>
      </trkpt>
      <trkpt lat="46.340054" lon="9.576339">
        <ele>967.251</ele>
        <time>2022-07-11T14:09:05Z</time>
      </trkpt>
      <trkpt lat="46.339998" lon="9.576188">
        <ele>965.793</ele>
        <time>2022-07-11T14:09:06Z</time>
      </trkpt>
      <trkpt lat="46.339960" lon="9.576027">
        <ele>964.379</ele>
        <time>2022-07-11T14:09:07Z</time>
      </trkpt>
      <trkpt lat="46.339946" lon="9.575844">
        <ele>963.353</ele>
        <time>2022-07-11T14:09:08Z</time>
      </trkpt>
      <trkpt lat="46.339955" lon="9.575667">
        <ele>962.414</ele>
        <time>2022-07-11T14:09:09Z</time>
      </trkpt>
      <trkpt lat="46.339977" lon="9.575492">
        <ele>960.932</ele>
        <time>2022-07-11T14:09:10Z</time>
      </trkpt>
      <trkpt lat="46.340002" lon="9.575320">
        <ele>959.546</ele>
        <time>2022-07-11T14:09:11Z</time>
      </trkpt>
      <trkpt lat="46.340020" lon="9.575153">
        <ele>959.032</ele>
        <time>2022-07-11T14:09:12Z</time>
      </trkpt>
      <trkpt lat="46.340026" lon="9.574980">
        <ele>957.692</ele>
        <time>2022-07-11T14:09:13Z</time>
      </trkpt>
      <trkpt lat="46.340019" lon="9.574801">
        <ele>956.611</ele>
        <time>2022-07-11T14:09:14Z</time>
      </trkpt>
      <trkpt lat="46.339968" lon="9.574273">
        <ele>953.709</ele>
        <time>2022-07-11T14:09:17Z</time>
      </trkpt>
      <trkpt lat="46.339937" lon="9.573744">
        <ele>950.434</ele>
        <time>2022-07-11T14:09:20Z</time>
      </trkpt>
      <trkpt lat="46.339913" lon="9.573221">
        <ele>947.513</ele>
        <time>2022-07-11T14:09:23Z</time>
      </trkpt>
      <trkpt lat="46.339871" lon="9.572518">
        <ele>943.171</ele>
        <time>2022-07-11T14:09:27Z</time>
      </trkpt>
      <trkpt lat="46.339756" lon="9.571813">
        <ele>939.343</ele>
        <time>2022-07-11T14:09:31Z</time>
      </trkpt>
      <trkpt lat="46.339607" lon="9.571328">
        <ele>935.939</ele>
        <time>2022-07-11T14:09:34Z</time>
      </trkpt>
      <trkpt lat="46.339310" lon="9.570548">
        <ele>932.133</ele>
        <time>2022-07-11T14:09:39Z</time>
      </trkpt>
      <trkpt lat="46.339126" lon="9.569731">
        <ele>928.734</ele>
        <time>2022-07-11T14:09:44Z</time>
      </trkpt>
      <trkpt lat="46.339098" lon="9.568891">
        <ele>925.872</ele>
        <time>2022-07-11T14:09:49Z</time>
      </trkpt>
      <trkpt lat="46.339132" lon="9.568217">
        <ele>922.556</ele>
        <time>2022-07-11T14:09:53Z</time>
      </trkpt>
      <trkpt lat="46.339175" lon="9.567553">
        <ele>919.167</ele>
        <time>2022-07-11T14:09:57Z</time>
      </trkpt>
      <trkpt lat="46.339248" lon="9.566812">
        <ele>914.881</ele>
        <time>2022-07-11T14:10:02Z</time>
      </trkpt>
      <trkpt lat="46.339354" lon="9.566250">
        <ele>911.919</ele>
        <time>2022-07-11T14:10:06Z</time>
      </trkpt>
      <trkpt lat="46.339488" lon="9.565548">
        <ele>908.509</ele>
        <time>2022-07-11T14:10:11Z</time>
      </trkpt>
      <trkpt lat="46.339594" lon="9.565057">
        <ele>905.257</ele>
        <time>2022-07-11T14:10:15Z</time>
      </trkpt>
      <trkpt lat="46.339638" lon="9.564950">
        <ele>904.296</ele>
        <time>2022-07-11T14:10:16Z</time>
      </trkpt>
      <trkpt lat="46.339685" lon="9.564872">
        <ele>903.724</ele>
        <time>2022-07-11T14:10:17Z</time>
      </trkpt>
      <trkpt lat="46.339736" lon="9.564822">
        <ele>902.856</ele>
        <time>2022-07-11T14:10:18Z</time>
      </trkpt>
      <trkpt lat="46.339793" lon="9.564795">
        <ele>902.392</ele>
        <time>2022-07-11T14:10:19Z</time>
      </trkpt>
      <trkpt lat="46.339843" lon="9.564790">
        <ele>901.316</ele>
        <time>2022-07-11T14:10:20Z</time>
      </trkpt>
      <trkpt lat="46.339886" lon="9.564799">
        <ele>901.337</ele>
        <time>2022-07-11T14:10:21Z</time>
      </trkpt>
      <trkpt lat="46.339920" lon="9.564810">
        <ele>901.395</ele>
        <time>2022-07-11T14:10:22Z</time>
      </trkpt>
      <trkpt lat="46.339945" lon="9.564815">
        <ele>901.399</ele>
        <time>2022-07-11T14:10:23Z</time>
      </trkpt>
      <trkpt lat="46.339963" lon="9.564818">
        <ele>900.857</ele>
        <time>2022-07-11T14:10:24Z</time>
      </trkpt>
      <trkpt lat="46.339972" lon="9.564812">
        <ele>900.800</ele>
        <time>2022-07-11T14:10:25Z</time>
      </trkpt>
      <trkpt lat="46.339957" lon="9.564808">
        <ele>900.820</ele>
        <time>2022-07-11T14:10:37Z</time>
      </trkpt>
      <trkpt lat="46.339954" lon="9.564800">
        <ele>902.309</ele>
        <time>2022-07-11T14:10:48Z</time>
      </trkpt>
      <trkpt lat="46.339964" lon="9.564811">
        <ele>901.826</ele>
        <time>2022-07-11T14:10:52Z</time>
      </trkpt>
      <trkpt lat="46.339976" lon="9.564821">
        <ele>901.875</ele>
        <time>2022-07-11T14:10:53Z</time>
      </trkpt>
      <trkpt lat="46.339994" lon="9.564836">
        <ele>901.843</ele>
        <time>2022-07-11T14:10:54Z</time>
      </trkpt>
      <trkpt lat="46.340154" lon="9.564976">
        <ele>899.495</ele>
        <time>2022-07-11T14:10:59Z</time>
      </trkpt>
      <trkpt lat="46.340197" lon="9.564996">
        <ele>898.951</ele>
        <time>2022-07-11T14:11:00Z</time>
      </trkpt>
      <trkpt lat="46.340245" lon="9.565007">
        <ele>898.975</ele>
        <time>2022-07-11T14:11:01Z</time>
      </trkpt>
      <trkpt lat="46.340300" lon="9.565008">
        <ele>898.096</ele>
        <time>2022-07-11T14:11:02Z</time>
      </trkpt>
      <trkpt lat="46.340352" lon="9.564989">
        <ele>897.064</ele>
        <time>2022-07-11T14:11:03Z</time>
      </trkpt>
      <trkpt lat="46.340399" lon="9.564949">
        <ele>896.558</ele>
        <time>2022-07-11T14:11:04Z</time>
      </trkpt>
      <trkpt lat="46.340438" lon="9.564885">
        <ele>896.083</ele>
        <time>2022-07-11T14:11:05Z</time>
      </trkpt>
      <trkpt lat="46.340467" lon="9.564804">
        <ele>895.125</ele>
        <time>2022-07-11T14:11:06Z</time>
      </trkpt>
      <trkpt lat="46.340489" lon="9.564709">
        <ele>894.617</ele>
        <time>2022-07-11T14:11:07Z</time>
      </trkpt>
      <trkpt lat="46.340507" lon="9.564612">
        <ele>894.109</ele>
        <time>2022-07-11T14:11:08Z</time>
      </trkpt>
      <trkpt lat="46.340523" lon="9.564512">
        <ele>893.699</ele>
        <time>2022-07-11T14:11:09Z</time>
      </trkpt>
      <trkpt lat="46.340568" lon="9.564190">
        <ele>891.718</ele>
        <time>2022-07-11T14:11:12Z</time>
      </trkpt>
      <trkpt lat="46.340642" lon="9.563605">
        <ele>888.426</ele>
        <time>2022-07-11T14:11:17Z</time>
      </trkpt>
      <trkpt lat="46.340679" lon="9.563353">
        <ele>887.968</ele>
        <time>2022-07-11T14:11:19Z</time>
      </trkpt>
      <trkpt lat="46.340756" lon="9.562836">
        <ele>885.924</ele>
        <time>2022-07-11T14:11:23Z</time>
      </trkpt>
      <trkpt lat="46.340787" lon="9.562705">
        <ele>885.098</ele>
        <time>2022-07-11T14:11:24Z</time>
      </trkpt>
      <trkpt lat="46.340832" lon="9.562579">
        <ele>884.559</ele>
        <time>2022-07-11T14:11:25Z</time>
      </trkpt>
      <trkpt lat="46.340885" lon="9.562461">
        <ele>884.097</ele>
        <time>2022-07-11T14:11:26Z</time>
      </trkpt>
      <trkpt lat="46.340948" lon="9.562345">
        <ele>884.041</ele>
        <time>2022-07-11T14:11:27Z</time>
      </trkpt>
      <trkpt lat="46.341012" lon="9.562240">
        <ele>882.655</ele>
        <time>2022-07-11T14:11:28Z</time>
      </trkpt>
      <trkpt lat="46.341076" lon="9.562138">
        <ele>882.607</ele>
        <time>2022-07-11T14:11:29Z</time>
      </trkpt>
      <trkpt lat="46.341197" lon="9.561925">
        <ele>881.617</ele>
        <time>2022-07-11T14:11:31Z</time>
      </trkpt>
      <trkpt lat="46.341248" lon="9.561810">
        <ele>881.609</ele>
        <time>2022-07-11T14:11:32Z</time>
      </trkpt>
      <trkpt lat="46.341292" lon="9.561690">
        <ele>880.746</ele>
        <time>2022-07-11T14:11:33Z</time>
      </trkpt>
      <trkpt lat="46.341328" lon="9.561559">
        <ele>879.725</ele>
        <time>2022-07-11T14:11:34Z</time>
      </trkpt>
      <trkpt lat="46.341355" lon="9.561431">
        <ele>879.763</ele>
        <time>2022-07-11T14:11:35Z</time>
      </trkpt>
      <trkpt lat="46.341460" lon="9.560945">
        <ele>877.885</ele>
        <time>2022-07-11T14:11:39Z</time>
      </trkpt>
      <trkpt lat="46.341615" lon="9.560038">
        <ele>876.891</ele>
        <time>2022-07-11T14:11:47Z</time>
      </trkpt>
      <trkpt lat="46.341618" lon="9.559932">
        <ele>876.895</ele>
        <time>2022-07-11T14:11:48Z</time>
      </trkpt>
      <trkpt lat="46.341611" lon="9.559826">
        <ele>876.386</ele>
        <time>2022-07-11T14:11:49Z</time>
      </trkpt>
      <trkpt lat="46.341597" lon="9.559723">
        <ele>876.394</ele>
        <time>2022-07-11T14:11:50Z</time>
      </trkpt>
      <trkpt lat="46.341579" lon="9.559595">
        <ele>875.988</ele>
        <time>2022-07-11T14:11:51Z</time>
      </trkpt>
      <trkpt lat="46.341422" lon="9.558720">
        <ele>874.448</ele>
        <time>2022-07-11T14:12:00Z</time>
      </trkpt>
      <trkpt lat="46.341387" lon="9.558648">
        <ele>874.461</ele>
        <time>2022-07-11T14:12:01Z</time>
      </trkpt>
      <trkpt lat="46.341338" lon="9.558590">
        <ele>873.917</ele>
        <time>2022-07-11T14:12:02Z</time>
      </trkpt>
      <trkpt lat="46.341279" lon="9.558551">
        <ele>873.509</ele>
        <time>2022-07-11T14:12:03Z</time>
      </trkpt>
      <trkpt lat="46.341210" lon="9.558527">
        <ele>873.025</ele>
        <time>2022-07-11T14:12:04Z</time>
      </trkpt>
      <trkpt lat="46.341135" lon="9.558515">
        <ele>873.044</ele>
        <time>2022-07-11T14:12:05Z</time>
      </trkpt>
      <trkpt lat="46.341056" lon="9.558506">
        <ele>872.042</ele>
        <time>2022-07-11T14:12:06Z</time>
      </trkpt>
      <trkpt lat="46.340504" lon="9.558459">
        <ele>868.694</ele>
        <time>2022-07-11T14:12:13Z</time>
      </trkpt>
      <trkpt lat="46.340324" lon="9.558430">
        <ele>867.750</ele>
        <time>2022-07-11T14:12:15Z</time>
      </trkpt>
      <trkpt lat="46.339943" lon="9.558352">
        <ele>863.814</ele>
        <time>2022-07-11T14:12:21Z</time>
      </trkpt>
      <trkpt lat="46.339887" lon="9.558341">
        <ele>863.865</ele>
        <time>2022-07-11T14:12:22Z</time>
      </trkpt>
      <trkpt lat="46.339832" lon="9.558338">
        <ele>863.873</ele>
        <time>2022-07-11T14:12:23Z</time>
      </trkpt>
      <trkpt lat="46.339767" lon="9.558333">
        <ele>863.847</ele>
        <time>2022-07-11T14:12:24Z</time>
      </trkpt>
      <trkpt lat="46.339729" lon="9.558321">
        <ele>862.974</ele>
        <time>2022-07-11T14:12:25Z</time>
      </trkpt>
      <trkpt lat="46.339674" lon="9.558294">
        <ele>862.956</ele>
        <time>2022-07-11T14:12:26Z</time>
      </trkpt>
      <trkpt lat="46.339620" lon="9.558252">
        <ele>861.921</ele>
        <time>2022-07-11T14:12:27Z</time>
      </trkpt>
      <trkpt lat="46.339575" lon="9.558204">
        <ele>861.409</ele>
        <time>2022-07-11T14:12:28Z</time>
      </trkpt>
      <trkpt lat="46.339521" lon="9.558135">
        <ele>861.488</ele>
        <time>2022-07-11T14:12:29Z</time>
      </trkpt>
      <trkpt lat="46.339342" lon="9.557852">
        <ele>860.027</ele>
        <time>2022-07-11T14:12:34Z</time>
      </trkpt>
      <trkpt lat="46.339275" lon="9.557736">
        <ele>859.565</ele>
        <time>2022-07-11T14:12:36Z</time>
      </trkpt>
      <trkpt lat="46.339234" lon="9.557694">
        <ele>860.057</ele>
        <time>2022-07-11T14:12:37Z</time>
      </trkpt>
      <trkpt lat="46.339192" lon="9.557660">
        <ele>859.563</ele>
        <time>2022-07-11T14:12:38Z</time>
      </trkpt>
      <trkpt lat="46.339112" lon="9.557583">
        <ele>858.597</ele>
        <time>2022-07-11T14:12:40Z</time>
      </trkpt>
      <trkpt lat="46.339001" lon="9.557438">
        <ele>857.128</ele>
        <time>2022-07-11T14:12:43Z</time>
      </trkpt>
      <trkpt lat="46.338728" lon="9.557143">
        <ele>853.716</ele>
        <time>2022-07-11T14:12:49Z</time>
      </trkpt>
      <trkpt lat="46.338683" lon="9.557089">
        <ele>853.710</ele>
        <time>2022-07-11T14:12:50Z</time>
      </trkpt>
      <trkpt lat="46.338595" lon="9.556986">
        <ele>852.352</ele>
        <time>2022-07-11T14:12:52Z</time>
      </trkpt>
      <trkpt lat="46.338563" lon="9.556926">
        <ele>852.353</ele>
        <time>2022-07-11T14:12:53Z</time>
      </trkpt>
      <trkpt lat="46.338549" lon="9.556854">
        <ele>852.308</ele>
        <time>2022-07-11T14:12:54Z</time>
      </trkpt>
      <trkpt lat="46.338553" lon="9.556786">
        <ele>851.309</ele>
        <time>2022-07-11T14:12:55Z</time>
      </trkpt>
      <trkpt lat="46.338577" lon="9.556713">
        <ele>851.366</ele>
        <time>2022-07-11T14:12:56Z</time>
      </trkpt>
      <trkpt lat="46.338596" lon="9.556664">
        <ele>850.975</ele>
        <time>2022-07-11T14:12:57Z</time>
      </trkpt>
      <trkpt lat="46.338621" lon="9.556608">
        <ele>850.443</ele>
        <time>2022-07-11T14:12:58Z</time>
      </trkpt>
      <trkpt lat="46.338719" lon="9.556392">
        <ele>848.585</ele>
        <time>2022-07-11T14:13:07Z</time>
      </trkpt>
      <trkpt lat="46.338798" lon="9.556169">
        <ele>847.521</ele>
        <time>2022-07-11T14:13:17Z</time>
      </trkpt>
      <trkpt lat="46.338849" lon="9.556063">
        <ele>847.095</ele>
        <time>2022-07-11T14:13:19Z</time>
      </trkpt>
      <trkpt lat="46.338940" lon="9.555892">
        <ele>847.016</ele>
        <time>2022-07-11T14:13:22Z</time>
      </trkpt>
      <trkpt lat="46.338961" lon="9.555825">
        <ele>846.194</ele>
        <time>2022-07-11T14:13:23Z</time>
      </trkpt>
      <trkpt lat="46.338972" lon="9.555746">
        <ele>845.188</ele>
        <time>2022-07-11T14:13:24Z</time>
      </trkpt>
      <trkpt lat="46.338969" lon="9.555667">
        <ele>845.182</ele>
        <time>2022-07-11T14:13:25Z</time>
      </trkpt>
      <trkpt lat="46.338946" lon="9.555593">
        <ele>844.643</ele>
        <time>2022-07-11T14:13:26Z</time>
      </trkpt>
      <trkpt lat="46.338911" lon="9.555526">
        <ele>844.117</ele>
        <time>2022-07-11T14:13:27Z</time>
      </trkpt>
      <trkpt lat="46.338864" lon="9.555456">
        <ele>843.609</ele>
        <time>2022-07-11T14:13:28Z</time>
      </trkpt>
      <trkpt lat="46.338822" lon="9.555396">
        <ele>842.759</ele>
        <time>2022-07-11T14:13:29Z</time>
      </trkpt>
      <trkpt lat="46.338564" lon="9.555023">
        <ele>840.348</ele>
        <time>2022-07-11T14:13:34Z</time>
      </trkpt>
      <trkpt lat="46.338458" lon="9.554848">
        <ele>838.836</ele>
        <time>2022-07-11T14:13:36Z</time>
      </trkpt>
      <trkpt lat="46.338206" lon="9.554317">
        <ele>836.088</ele>
        <time>2022-07-11T14:13:41Z</time>
      </trkpt>
      <trkpt lat="46.338159" lon="9.554208">
        <ele>835.574</ele>
        <time>2022-07-11T14:13:42Z</time>
      </trkpt>
      <trkpt lat="46.337935" lon="9.553659">
        <ele>832.618</ele>
        <time>2022-07-11T14:13:47Z</time>
      </trkpt>
      <trkpt lat="46.337715" lon="9.552828">
        <ele>829.759</ele>
        <time>2022-07-11T14:13:55Z</time>
      </trkpt>
      <trkpt lat="46.337589" lon="9.552401">
        <ele>828.767</ele>
        <time>2022-07-11T14:14:04Z</time>
      </trkpt>
      <trkpt lat="46.337315" lon="9.552428">
        <ele>827.331</ele>
        <time>2022-07-11T14:14:14Z</time>
      </trkpt>
      <trkpt lat="46.337236" lon="9.552444">
        <ele>826.849</ele>
        <time>2022-07-11T14:14:16Z</time>
      </trkpt>
      <trkpt lat="46.337195" lon="9.552429">
        <ele>826.802</ele>
        <time>2022-07-11T14:14:17Z</time>
      </trkpt>
      <trkpt lat="46.337153" lon="9.552387">
        <ele>826.322</ele>
        <time>2022-07-11T14:14:18Z</time>
      </trkpt>
      <trkpt lat="46.337115" lon="9.552327">
        <ele>826.309</ele>
        <time>2022-07-11T14:14:19Z</time>
      </trkpt>
      <trkpt lat="46.337093" lon="9.552273">
        <ele>826.375</ele>
        <time>2022-07-11T14:14:20Z</time>
      </trkpt>
      <trkpt lat="46.337068" lon="9.552198">
        <ele>825.434</ele>
        <time>2022-07-11T14:14:21Z</time>
      </trkpt>
      <trkpt lat="46.336721" lon="9.551226">
        <ele>822.592</ele>
        <time>2022-07-11T14:14:34Z</time>
      </trkpt>
      <trkpt lat="46.336307" lon="9.550094">
        <ele>818.724</ele>
        <time>2022-07-11T14:14:48Z</time>
      </trkpt>
      <trkpt lat="46.336115" lon="9.548823">
        <ele>817.770</ele>
        <time>2022-07-11T14:15:03Z</time>
      </trkpt>
      <trkpt lat="46.336178" lon="9.547569">
        <ele>816.794</ele>
        <time>2022-07-11T14:15:19Z</time>
      </trkpt>
      <trkpt lat="46.336463" lon="9.546049">
        <ele>814.835</ele>
        <time>2022-07-11T14:15:38Z</time>
      </trkpt>
      <trkpt lat="46.336595" lon="9.544499">
        <ele>812.443</ele>
        <time>2022-07-11T14:15:56Z</time>
      </trkpt>
      <trkpt lat="46.336299" lon="9.543228">
        <ele>810.077</ele>
        <time>2022-07-11T14:16:10Z</time>
      </trkpt>
      <trkpt lat="46.335773" lon="9.541919">
        <ele>807.654</ele>
        <time>2022-07-11T14:16:27Z</time>
      </trkpt>
      <trkpt lat="46.335372" lon="9.540556">
        <ele>805.256</ele>
        <time>2022-07-11T14:16:44Z</time>
      </trkpt>
      <trkpt lat="46.334931" lon="9.539410">
        <ele>802.311</ele>
        <time>2022-07-11T14:16:59Z</time>
      </trkpt>
      <trkpt lat="46.334785" lon="9.538922">
        <ele>801.409</ele>
        <time>2022-07-11T14:17:05Z</time>
      </trkpt>
      <trkpt lat="46.334542" lon="9.538108">
        <ele>798.016</ele>
        <time>2022-07-11T14:17:15Z</time>
      </trkpt>
      <trkpt lat="46.334503" lon="9.537938">
        <ele>797.525</ele>
        <time>2022-07-11T14:17:17Z</time>
      </trkpt>
      <trkpt lat="46.334408" lon="9.536697">
        <ele>794.143</ele>
        <time>2022-07-11T14:17:30Z</time>
      </trkpt>
      <trkpt lat="46.334483" lon="9.535487">
        <ele>791.395</ele>
        <time>2022-07-11T14:17:41Z</time>
      </trkpt>
      <trkpt lat="46.334672" lon="9.533820">
        <ele>790.311</ele>
        <time>2022-07-11T14:17:58Z</time>
      </trkpt>
      <trkpt lat="46.334520" lon="9.532660">
        <ele>789.345</ele>
        <time>2022-07-11T14:18:11Z</time>
      </trkpt>
      <trkpt lat="46.334030" lon="9.531820">
        <ele>788.976</ele>
        <time>2022-07-11T14:18:24Z</time>
      </trkpt>
      <trkpt lat="46.333655" lon="9.531261">
        <ele>787.424</ele>
        <time>2022-07-11T14:18:34Z</time>
      </trkpt>
      <trkpt lat="46.333628" lon="9.531191">
        <ele>786.998</ele>
        <time>2022-07-11T14:18:35Z</time>
      </trkpt>
      <trkpt lat="46.333605" lon="9.531109">
        <ele>786.984</ele>
        <time>2022-07-11T14:18:36Z</time>
      </trkpt>
      <trkpt lat="46.333568" lon="9.530954">
        <ele>786.907</ele>
        <time>2022-07-11T14:18:38Z</time>
      </trkpt>
      <trkpt lat="46.333503" lon="9.530291">
        <ele>785.517</ele>
        <time>2022-07-11T14:18:46Z</time>
      </trkpt>
      <trkpt lat="46.333517" lon="9.529034">
        <ele>782.109</ele>
        <time>2022-07-11T14:19:00Z</time>
      </trkpt>
      <trkpt lat="46.333346" lon="9.527882">
        <ele>778.369</ele>
        <time>2022-07-11T14:19:10Z</time>
      </trkpt>
      <trkpt lat="46.333315" lon="9.527625">
        <ele>777.328</ele>
        <time>2022-07-11T14:19:12Z</time>
      </trkpt>
      <trkpt lat="46.333259" lon="9.526985">
        <ele>774.086</ele>
        <time>2022-07-11T14:19:17Z</time>
      </trkpt>
      <trkpt lat="46.333272" lon="9.526853">
        <ele>774.078</ele>
        <time>2022-07-11T14:19:18Z</time>
      </trkpt>
      <trkpt lat="46.333298" lon="9.526734">
        <ele>773.084</ele>
        <time>2022-07-11T14:19:19Z</time>
      </trkpt>
      <trkpt lat="46.333335" lon="9.526621">
        <ele>772.578</ele>
        <time>2022-07-11T14:19:20Z</time>
      </trkpt>
      <trkpt lat="46.333381" lon="9.526513">
        <ele>772.579</ele>
        <time>2022-07-11T14:19:21Z</time>
      </trkpt>
      <trkpt lat="46.333428" lon="9.526408">
        <ele>771.617</ele>
        <time>2022-07-11T14:19:22Z</time>
      </trkpt>
      <trkpt lat="46.333774" lon="9.525668">
        <ele>767.711</ele>
        <time>2022-07-11T14:19:29Z</time>
      </trkpt>
      <trkpt lat="46.333813" lon="9.525550">
        <ele>767.757</ele>
        <time>2022-07-11T14:19:30Z</time>
      </trkpt>
      <trkpt lat="46.333845" lon="9.525427">
        <ele>766.300</ele>
        <time>2022-07-11T14:19:31Z</time>
      </trkpt>
      <trkpt lat="46.333869" lon="9.525296">
        <ele>766.320</ele>
        <time>2022-07-11T14:19:32Z</time>
      </trkpt>
      <trkpt lat="46.333883" lon="9.525160">
        <ele>764.809</ele>
        <time>2022-07-11T14:19:33Z</time>
      </trkpt>
      <trkpt lat="46.333888" lon="9.525019">
        <ele>764.356</ele>
        <time>2022-07-11T14:19:34Z</time>
      </trkpt>
      <trkpt lat="46.333885" lon="9.524869">
        <ele>762.985</ele>
        <time>2022-07-11T14:19:35Z</time>
      </trkpt>
      <trkpt lat="46.333864" lon="9.524264">
        <ele>759.153</ele>
        <time>2022-07-11T14:19:39Z</time>
      </trkpt>
      <trkpt lat="46.333873" lon="9.523774">
        <ele>755.755</ele>
        <time>2022-07-11T14:19:42Z</time>
      </trkpt>
      <trkpt lat="46.333956" lon="9.523269">
        <ele>751.811</ele>
        <time>2022-07-11T14:19:45Z</time>
      </trkpt>
      <trkpt lat="46.334088" lon="9.522779">
        <ele>747.595</ele>
        <time>2022-07-11T14:19:48Z</time>
      </trkpt>
      <trkpt lat="46.334248" lon="9.522126">
        <ele>743.236</ele>
        <time>2022-07-11T14:19:52Z</time>
      </trkpt>
      <trkpt lat="46.334321" lon="9.521623">
        <ele>739.364</ele>
        <time>2022-07-11T14:19:55Z</time>
      </trkpt>
      <trkpt lat="46.334350" lon="9.521085">
        <ele>735.578</ele>
        <time>2022-07-11T14:19:58Z</time>
      </trkpt>
      <trkpt lat="46.334320" lon="9.520507">
        <ele>732.123</ele>
        <time>2022-07-11T14:20:01Z</time>
      </trkpt>
      <trkpt lat="46.334232" lon="9.519947">
        <ele>727.883</ele>
        <time>2022-07-11T14:20:04Z</time>
      </trkpt>
      <trkpt lat="46.334108" lon="9.519366">
        <ele>724.411</ele>
        <time>2022-07-11T14:20:07Z</time>
      </trkpt>
      <trkpt lat="46.333957" lon="9.518821">
        <ele>720.609</ele>
        <time>2022-07-11T14:20:10Z</time>
      </trkpt>
      <trkpt lat="46.333831" lon="9.518441">
        <ele>716.843</ele>
        <time>2022-07-11T14:20:12Z</time>
      </trkpt>
      <trkpt lat="46.333631" lon="9.517939">
        <ele>713.412</ele>
        <time>2022-07-11T14:20:15Z</time>
      </trkpt>
      <trkpt lat="46.333369" lon="9.517391">
        <ele>711.910</ele>
        <time>2022-07-11T14:20:18Z</time>
      </trkpt>
      <trkpt lat="46.332896" lon="9.516658">
        <ele>710.512</ele>
        <time>2022-07-11T14:20:23Z</time>
      </trkpt>
      <trkpt lat="46.332973" lon="9.516402">
        <ele>709.118</ele>
        <time>2022-07-11T14:20:25Z</time>
      </trkpt>
      <trkpt lat="46.332994" lon="9.515752">
        <ele>707.192</ele>
        <time>2022-07-11T14:20:30Z</time>
      </trkpt>
      <trkpt lat="46.333017" lon="9.515635">
        <ele>706.783</ele>
        <time>2022-07-11T14:20:31Z</time>
      </trkpt>
      <trkpt lat="46.333055" lon="9.515444">
        <ele>706.291</ele>
        <time>2022-07-11T14:20:33Z</time>
      </trkpt>
      <trkpt lat="46.333055" lon="9.515360">
        <ele>706.265</ele>
        <time>2022-07-11T14:20:34Z</time>
      </trkpt>
      <trkpt lat="46.333045" lon="9.515276">
        <ele>705.756</ele>
        <time>2022-07-11T14:20:35Z</time>
      </trkpt>
      <trkpt lat="46.333039" lon="9.515203">
        <ele>705.759</ele>
        <time>2022-07-11T14:20:36Z</time>
      </trkpt>
      <trkpt lat="46.333036" lon="9.515143">
        <ele>705.714</ele>
        <time>2022-07-11T14:20:37Z</time>
      </trkpt>
      <trkpt lat="46.333036" lon="9.515072">
        <ele>704.709</ele>
        <time>2022-07-11T14:20:38Z</time>
      </trkpt>
      <trkpt lat="46.332960" lon="9.514436">
        <ele>703.316</ele>
        <time>2022-07-11T14:20:50Z</time>
      </trkpt>
      <trkpt lat="46.332838" lon="9.513927">
        <ele>702.355</ele>
        <time>2022-07-11T14:20:59Z</time>
      </trkpt>
      <trkpt lat="46.332638" lon="9.513114">
        <ele>700.923</ele>
        <time>2022-07-11T14:21:12Z</time>
      </trkpt>
      <trkpt lat="46.332431" lon="9.512423">
        <ele>699.095</ele>
        <time>2022-07-11T14:21:21Z</time>
      </trkpt>
      <trkpt lat="46.332414" lon="9.512336">
        <ele>699.061</ele>
        <time>2022-07-11T14:21:22Z</time>
      </trkpt>
      <trkpt lat="46.332401" lon="9.512243">
        <ele>699.065</ele>
        <time>2022-07-11T14:21:23Z</time>
      </trkpt>
      <trkpt lat="46.332317" lon="9.510911">
        <ele>695.646</ele>
        <time>2022-07-11T14:21:36Z</time>
      </trkpt>
      <trkpt lat="46.332470" lon="9.509900">
        <ele>695.644</ele>
        <time>2022-07-11T14:21:48Z</time>
      </trkpt>
      <trkpt lat="46.332499" lon="9.509841">
        <ele>695.668</ele>
        <time>2022-07-11T14:21:49Z</time>
      </trkpt>
      <trkpt lat="46.332584" lon="9.509676">
        <ele>695.654</ele>
        <time>2022-07-11T14:21:52Z</time>
      </trkpt>
      <trkpt lat="46.332601" lon="9.509605">
        <ele>695.156</ele>
        <time>2022-07-11T14:21:53Z</time>
      </trkpt>
      <trkpt lat="46.332607" lon="9.509542">
        <ele>695.111</ele>
        <time>2022-07-11T14:21:54Z</time>
      </trkpt>
      <trkpt lat="46.332609" lon="9.509468">
        <ele>695.109</ele>
        <time>2022-07-11T14:21:55Z</time>
      </trkpt>
      <trkpt lat="46.332606" lon="9.509394">
        <ele>695.186</ele>
        <time>2022-07-11T14:21:56Z</time>
      </trkpt>
      <trkpt lat="46.332600" lon="9.509312">
        <ele>694.295</ele>
        <time>2022-07-11T14:21:57Z</time>
      </trkpt>
      <trkpt lat="46.332594" lon="9.509250">
        <ele>694.253</ele>
        <time>2022-07-11T14:21:58Z</time>
      </trkpt>
      <trkpt lat="46.332345" lon="9.508307">
        <ele>690.355</ele>
        <time>2022-07-11T14:22:08Z</time>
      </trkpt>
      <trkpt lat="46.332143" lon="9.507863">
        <ele>687.011</ele>
        <time>2022-07-11T14:22:12Z</time>
      </trkpt>
      <trkpt lat="46.332001" lon="9.507486">
        <ele>685.055</ele>
        <time>2022-07-11T14:22:15Z</time>
      </trkpt>
      <trkpt lat="46.331844" lon="9.506413">
        <ele>681.726</ele>
        <time>2022-07-11T14:22:23Z</time>
      </trkpt>
      <trkpt lat="46.331781" lon="9.505771">
        <ele>679.714</ele>
        <time>2022-07-11T14:22:28Z</time>
      </trkpt>
      <trkpt lat="46.331628" lon="9.504045">
        <ele>677.318</ele>
        <time>2022-07-11T14:22:43Z</time>
      </trkpt>
      <trkpt lat="46.331729" lon="9.503113">
        <ele>675.962</ele>
        <time>2022-07-11T14:22:52Z</time>
      </trkpt>
      <trkpt lat="46.331619" lon="9.501758">
        <ele>672.583</ele>
        <time>2022-07-11T14:23:06Z</time>
      </trkpt>
      <trkpt lat="46.331463" lon="9.500377">
        <ele>670.611</ele>
        <time>2022-07-11T14:23:22Z</time>
      </trkpt>
      <trkpt lat="46.331216" lon="9.498970">
        <ele>667.209</ele>
        <time>2022-07-11T14:23:37Z</time>
      </trkpt>
      <trkpt lat="46.331146" lon="9.497171">
        <ele>665.867</ele>
        <time>2022-07-11T14:23:57Z</time>
      </trkpt>
      <trkpt lat="46.331160" lon="9.497011">
        <ele>665.896</ele>
        <time>2022-07-11T14:23:59Z</time>
      </trkpt>
      <trkpt lat="46.331372" lon="9.495914">
        <ele>664.864</ele>
        <time>2022-07-11T14:24:16Z</time>
      </trkpt>
      <trkpt lat="46.331360" lon="9.494781">
        <ele>665.356</ele>
        <time>2022-07-11T14:24:34Z</time>
      </trkpt>
      <trkpt lat="46.331187" lon="9.493558">
        <ele>665.382</ele>
        <time>2022-07-11T14:24:54Z</time>
      </trkpt>
      <trkpt lat="46.331176" lon="9.493283">
        <ele>665.376</ele>
        <time>2022-07-11T14:24:58Z</time>
      </trkpt>
      <trkpt lat="46.331180" lon="9.493217">
        <ele>665.387</ele>
        <time>2022-07-11T14:24:59Z</time>
      </trkpt>
      <trkpt lat="46.331384" lon="9.492153">
        <ele>663.955</ele>
        <time>2022-07-11T14:25:15Z</time>
      </trkpt>
      <trkpt lat="46.331405" lon="9.491953">
        <ele>663.999</ele>
        <time>2022-07-11T14:25:18Z</time>
      </trkpt>
      <trkpt lat="46.331405" lon="9.491892">
        <ele>663.921</ele>
        <time>2022-07-11T14:25:19Z</time>
      </trkpt>
      <trkpt lat="46.331402" lon="9.491827">
        <ele>663.941</ele>
        <time>2022-07-11T14:25:20Z</time>
      </trkpt>
      <trkpt lat="46.331395" lon="9.491763">
        <ele>663.905</ele>
        <time>2022-07-11T14:25:21Z</time>
      </trkpt>
      <trkpt lat="46.331380" lon="9.491695">
        <ele>663.909</ele>
        <time>2022-07-11T14:25:22Z</time>
      </trkpt>
      <trkpt lat="46.331362" lon="9.491639">
        <ele>663.963</ele>
        <time>2022-07-11T14:25:23Z</time>
      </trkpt>
      <trkpt lat="46.331338" lon="9.491582">
        <ele>663.932</ele>
        <time>2022-07-11T14:25:24Z</time>
      </trkpt>
      <trkpt lat="46.331306" lon="9.491522">
        <ele>663.960</ele>
        <time>2022-07-11T14:25:25Z</time>
      </trkpt>
      <trkpt lat="46.331274" lon="9.491477">
        <ele>664.882</ele>
        <time>2022-07-11T14:25:26Z</time>
      </trkpt>
      <trkpt lat="46.331239" lon="9.491432">
        <ele>664.858</ele>
        <time>2022-07-11T14:25:27Z</time>
      </trkpt>
      <trkpt lat="46.331201" lon="9.491391">
        <ele>664.852</ele>
        <time>2022-07-11T14:25:28Z</time>
      </trkpt>
      <trkpt lat="46.331160" lon="9.491354">
        <ele>664.873</ele>
        <time>2022-07-11T14:25:29Z</time>
      </trkpt>
      <trkpt lat="46.331114" lon="9.491326">
        <ele>664.831</ele>
        <time>2022-07-11T14:25:30Z</time>
      </trkpt>
      <trkpt lat="46.331063" lon="9.491299">
        <ele>664.845</ele>
        <time>2022-07-11T14:25:31Z</time>
      </trkpt>
      <trkpt lat="46.330637" lon="9.491077">
        <ele>664.847</ele>
        <time>2022-07-11T14:25:41Z</time>
      </trkpt>
      <trkpt lat="46.330562" lon="9.491016">
        <ele>664.829</ele>
        <time>2022-07-11T14:25:43Z</time>
      </trkpt>
      <trkpt lat="46.330494" lon="9.490944">
        <ele>664.821</ele>
        <time>2022-07-11T14:25:45Z</time>
      </trkpt>
      <trkpt lat="46.330462" lon="9.490906">
        <ele>664.809</ele>
        <time>2022-07-11T14:25:46Z</time>
      </trkpt>
      <trkpt lat="46.330434" lon="9.490860">
        <ele>664.865</ele>
        <time>2022-07-11T14:25:47Z</time>
      </trkpt>
      <trkpt lat="46.330410" lon="9.490808">
        <ele>664.824</ele>
        <time>2022-07-11T14:25:48Z</time>
      </trkpt>
      <trkpt lat="46.330382" lon="9.490740">
        <ele>664.432</ele>
        <time>2022-07-11T14:25:49Z</time>
      </trkpt>
      <trkpt lat="46.330367" lon="9.490697">
        <ele>664.414</ele>
        <time>2022-07-11T14:25:50Z</time>
      </trkpt>
      <trkpt lat="46.330353" lon="9.490642">
        <ele>664.490</ele>
        <time>2022-07-11T14:25:51Z</time>
      </trkpt>
      <trkpt lat="46.330323" lon="9.490456">
        <ele>664.444</ele>
        <time>2022-07-11T14:25:54Z</time>
      </trkpt>
      <trkpt lat="46.330303" lon="9.490203">
        <ele>664.495</ele>
        <time>2022-07-11T14:25:58Z</time>
      </trkpt>
      <trkpt lat="46.330302" lon="9.489747">
        <ele>664.423</ele>
        <time>2022-07-11T14:26:05Z</time>
      </trkpt>
      <trkpt lat="46.330557" lon="9.488836">
        <ele>662.937</ele>
        <time>2022-07-11T14:26:19Z</time>
      </trkpt>
      <trkpt lat="46.330853" lon="9.487976">
        <ele>659.183</ele>
        <time>2022-07-11T14:26:29Z</time>
      </trkpt>
      <trkpt lat="46.330926" lon="9.487765">
        <ele>658.625</ele>
        <time>2022-07-11T14:26:31Z</time>
      </trkpt>
      <trkpt lat="46.331040" lon="9.487426">
        <ele>657.617</ele>
        <time>2022-07-11T14:26:34Z</time>
      </trkpt>
      <trkpt lat="46.331051" lon="9.487317">
        <ele>657.209</ele>
        <time>2022-07-11T14:26:35Z</time>
      </trkpt>
      <trkpt lat="46.331048" lon="9.487197">
        <ele>657.219</ele>
        <time>2022-07-11T14:26:36Z</time>
      </trkpt>
      <trkpt lat="46.331027" lon="9.487086">
        <ele>657.268</ele>
        <time>2022-07-11T14:26:37Z</time>
      </trkpt>
      <trkpt lat="46.330987" lon="9.486985">
        <ele>656.756</ele>
        <time>2022-07-11T14:26:38Z</time>
      </trkpt>
      <trkpt lat="46.330933" lon="9.486877">
        <ele>656.768</ele>
        <time>2022-07-11T14:26:39Z</time>
      </trkpt>
      <trkpt lat="46.330872" lon="9.486790">
        <ele>656.274</ele>
        <time>2022-07-11T14:26:40Z</time>
      </trkpt>
      <trkpt lat="46.330396" lon="9.485999">
        <ele>652.348</ele>
        <time>2022-07-11T14:26:49Z</time>
      </trkpt>
      <trkpt lat="46.330225" lon="9.485464">
        <ele>650.929</ele>
        <time>2022-07-11T14:26:54Z</time>
      </trkpt>
      <trkpt lat="46.330208" lon="9.485347">
        <ele>650.927</ele>
        <time>2022-07-11T14:26:55Z</time>
      </trkpt>
      <trkpt lat="46.330169" lon="9.484861">
        <ele>649.541</ele>
        <time>2022-07-11T14:26:59Z</time>
      </trkpt>
      <trkpt lat="46.330144" lon="9.484744">
        <ele>648.598</ele>
        <time>2022-07-11T14:27:00Z</time>
      </trkpt>
      <trkpt lat="46.330099" lon="9.484636">
        <ele>648.515</ele>
        <time>2022-07-11T14:27:01Z</time>
      </trkpt>
      <trkpt lat="46.330048" lon="9.484549">
        <ele>648.526</ele>
        <time>2022-07-11T14:27:02Z</time>
      </trkpt>
      <trkpt lat="46.329990" lon="9.484471">
        <ele>648.009</ele>
        <time>2022-07-11T14:27:03Z</time>
      </trkpt>
      <trkpt lat="46.329928" lon="9.484400">
        <ele>648.020</ele>
        <time>2022-07-11T14:27:04Z</time>
      </trkpt>
      <trkpt lat="46.329634" lon="9.484063">
        <ele>646.189</ele>
        <time>2022-07-11T14:27:09Z</time>
      </trkpt>
      <trkpt lat="46.329607" lon="9.483962">
        <ele>646.157</ele>
        <time>2022-07-11T14:27:10Z</time>
      </trkpt>
      <trkpt lat="46.329608" lon="9.483861">
        <ele>646.129</ele>
        <time>2022-07-11T14:27:11Z</time>
      </trkpt>
      <trkpt lat="46.329631" lon="9.483756">
        <ele>645.165</ele>
        <time>2022-07-11T14:27:12Z</time>
      </trkpt>
      <trkpt lat="46.329673" lon="9.483659">
        <ele>645.129</ele>
        <time>2022-07-11T14:27:13Z</time>
      </trkpt>
      <trkpt lat="46.329724" lon="9.483586">
        <ele>645.160</ele>
        <time>2022-07-11T14:27:14Z</time>
      </trkpt>
      <trkpt lat="46.329781" lon="9.483531">
        <ele>645.188</ele>
        <time>2022-07-11T14:27:15Z</time>
      </trkpt>
      <trkpt lat="46.329849" lon="9.483500">
        <ele>644.742</ele>
        <time>2022-07-11T14:27:16Z</time>
      </trkpt>
      <trkpt lat="46.329918" lon="9.483482">
        <ele>644.737</ele>
        <time>2022-07-11T14:27:17Z</time>
      </trkpt>
      <trkpt lat="46.329986" lon="9.483472">
        <ele>644.749</ele>
        <time>2022-07-11T14:27:18Z</time>
      </trkpt>
      <trkpt lat="46.330366" lon="9.483382">
        <ele>644.213</ele>
        <time>2022-07-11T14:27:24Z</time>
      </trkpt>
      <trkpt lat="46.330420" lon="9.483348">
        <ele>643.709</ele>
        <time>2022-07-11T14:27:25Z</time>
      </trkpt>
      <trkpt lat="46.330469" lon="9.483303">
        <ele>643.794</ele>
        <time>2022-07-11T14:27:26Z</time>
      </trkpt>
      <trkpt lat="46.330513" lon="9.483248">
        <ele>643.713</ele>
        <time>2022-07-11T14:27:27Z</time>
      </trkpt>
      <trkpt lat="46.330554" lon="9.483186">
        <ele>643.731</ele>
        <time>2022-07-11T14:27:28Z</time>
      </trkpt>
      <trkpt lat="46.330593" lon="9.483123">
        <ele>643.283</ele>
        <time>2022-07-11T14:27:29Z</time>
      </trkpt>
      <trkpt lat="46.331037" lon="9.482437">
        <ele>641.889</ele>
        <time>2022-07-11T14:27:40Z</time>
      </trkpt>
      <trkpt lat="46.331065" lon="9.482357">
        <ele>641.843</ele>
        <time>2022-07-11T14:27:41Z</time>
      </trkpt>
      <trkpt lat="46.331084" lon="9.482271">
        <ele>641.894</ele>
        <time>2022-07-11T14:27:42Z</time>
      </trkpt>
      <trkpt lat="46.331092" lon="9.482181">
        <ele>641.872</ele>
        <time>2022-07-11T14:27:43Z</time>
      </trkpt>
      <trkpt lat="46.331089" lon="9.482084">
        <ele>641.826</ele>
        <time>2022-07-11T14:27:44Z</time>
      </trkpt>
      <trkpt lat="46.331074" lon="9.481981">
        <ele>641.377</ele>
        <time>2022-07-11T14:27:45Z</time>
      </trkpt>
      <trkpt lat="46.331054" lon="9.481902">
        <ele>640.861</ele>
        <time>2022-07-11T14:27:46Z</time>
      </trkpt>
      <trkpt lat="46.331023" lon="9.481811">
        <ele>640.827</ele>
        <time>2022-07-11T14:27:47Z</time>
      </trkpt>
      <trkpt lat="46.330995" lon="9.481737">
        <ele>640.809</ele>
        <time>2022-07-11T14:27:48Z</time>
      </trkpt>
      <trkpt lat="46.330594" lon="9.480715">
        <ele>637.968</ele>
        <time>2022-07-11T14:28:00Z</time>
      </trkpt>
      <trkpt lat="46.330109" lon="9.479420">
        <ele>635.057</ele>
        <time>2022-07-11T14:28:16Z</time>
      </trkpt>
      <trkpt lat="46.329689" lon="9.478417">
        <ele>633.635</ele>
        <time>2022-07-11T14:28:29Z</time>
      </trkpt>
      <trkpt lat="46.329482" lon="9.478126">
        <ele>631.727</ele>
        <time>2022-07-11T14:28:33Z</time>
      </trkpt>
      <trkpt lat="46.329211" lon="9.477737">
        <ele>628.823</ele>
        <time>2022-07-11T14:28:38Z</time>
      </trkpt>
      <trkpt lat="46.328964" lon="9.477268">
        <ele>626.947</ele>
        <time>2022-07-11T14:28:45Z</time>
      </trkpt>
      <trkpt lat="46.328932" lon="9.477234">
        <ele>626.938</ele>
        <time>2022-07-11T14:28:46Z</time>
      </trkpt>
      <trkpt lat="46.328891" lon="9.477201">
        <ele>626.966</ele>
        <time>2022-07-11T14:28:47Z</time>
      </trkpt>
      <trkpt lat="46.328855" lon="9.477179">
        <ele>626.470</ele>
        <time>2022-07-11T14:28:48Z</time>
      </trkpt>
      <trkpt lat="46.328817" lon="9.477163">
        <ele>626.486</ele>
        <time>2022-07-11T14:28:49Z</time>
      </trkpt>
      <trkpt lat="46.328778" lon="9.477143">
        <ele>625.960</ele>
        <time>2022-07-11T14:28:50Z</time>
      </trkpt>
      <trkpt lat="46.328748" lon="9.477115">
        <ele>626.426</ele>
        <time>2022-07-11T14:28:51Z</time>
      </trkpt>
      <trkpt lat="46.328727" lon="9.477063">
        <ele>625.909</ele>
        <time>2022-07-11T14:28:52Z</time>
      </trkpt>
      <trkpt lat="46.328723" lon="9.477019">
        <ele>626.489</ele>
        <time>2022-07-11T14:28:53Z</time>
      </trkpt>
      <trkpt lat="46.328721" lon="9.476954">
        <ele>625.948</ele>
        <time>2022-07-11T14:28:54Z</time>
      </trkpt>
      <trkpt lat="46.328714" lon="9.476889">
        <ele>624.986</ele>
        <time>2022-07-11T14:28:55Z</time>
      </trkpt>
      <trkpt lat="46.328641" lon="9.476450">
        <ele>622.548</ele>
        <time>2022-07-11T14:29:00Z</time>
      </trkpt>
      <trkpt lat="46.328555" lon="9.475996">
        <ele>620.694</ele>
        <time>2022-07-11T14:29:04Z</time>
      </trkpt>
      <trkpt lat="46.328471" lon="9.475641">
        <ele>617.368</ele>
        <time>2022-07-11T14:31:26Z</time>
      </trkpt>
      <trkpt lat="46.328483" lon="9.475637">
        <ele>617.329</ele>
        <time>2022-07-11T14:31:27Z</time>
      </trkpt>
      <trkpt lat="46.328475" lon="9.475554">
        <ele>616.847</ele>
        <time>2022-07-11T14:31:36Z</time>
      </trkpt>
      <trkpt lat="46.328501" lon="9.475533">
        <ele>616.841</ele>
        <time>2022-07-11T14:31:45Z</time>
      </trkpt>
      <trkpt lat="46.328531" lon="9.475483">
        <ele>616.877</ele>
        <time>2022-07-11T14:31:53Z</time>
      </trkpt>
      <trkpt lat="46.328472" lon="9.475164">
        <ele>614.961</ele>
        <time>2022-07-11T14:32:01Z</time>
      </trkpt>
      <trkpt lat="46.328465" lon="9.475091">
        <ele>614.427</ele>
        <time>2022-07-11T14:32:02Z</time>
      </trkpt>
      <trkpt lat="46.328459" lon="9.475014">
        <ele>614.409</ele>
        <time>2022-07-11T14:32:03Z</time>
      </trkpt>
      <trkpt lat="46.328457" lon="9.474927">
        <ele>613.978</ele>
        <time>2022-07-11T14:32:04Z</time>
      </trkpt>
      <trkpt lat="46.328459" lon="9.474831">
        <ele>612.957</ele>
        <time>2022-07-11T14:32:05Z</time>
      </trkpt>
      <trkpt lat="46.328479" lon="9.474617">
        <ele>612.025</ele>
        <time>2022-07-11T14:32:07Z</time>
      </trkpt>
      <trkpt lat="46.328501" lon="9.474508">
        <ele>611.037</ele>
        <time>2022-07-11T14:32:08Z</time>
      </trkpt>
      <trkpt lat="46.328576" lon="9.474004">
        <ele>608.183</ele>
        <time>2022-07-11T14:32:12Z</time>
      </trkpt>
      <trkpt lat="46.328562" lon="9.473281">
        <ele>603.347</ele>
        <time>2022-07-11T14:32:17Z</time>
      </trkpt>
      <trkpt lat="46.328540" lon="9.472673">
        <ele>600.418</ele>
        <time>2022-07-11T14:32:21Z</time>
      </trkpt>
      <trkpt lat="46.328533" lon="9.472533">
        <ele>600.446</ele>
        <time>2022-07-11T14:32:22Z</time>
      </trkpt>
      <trkpt lat="46.328500" lon="9.472227">
        <ele>599.010</ele>
        <time>2022-07-11T14:32:24Z</time>
      </trkpt>
      <trkpt lat="46.328474" lon="9.472124">
        <ele>599.525</ele>
        <time>2022-07-11T14:32:25Z</time>
      </trkpt>
      <trkpt lat="46.328430" lon="9.471998">
        <ele>598.026</ele>
        <time>2022-07-11T14:32:26Z</time>
      </trkpt>
      <trkpt lat="46.328283" lon="9.471627">
        <ele>594.708</ele>
        <time>2022-07-11T14:32:29Z</time>
      </trkpt>
      <trkpt lat="46.327989" lon="9.470880">
        <ele>591.309</ele>
        <time>2022-07-11T14:32:35Z</time>
      </trkpt>
      <trkpt lat="46.327843" lon="9.470481">
        <ele>587.963</ele>
        <time>2022-07-11T14:32:38Z</time>
      </trkpt>
      <trkpt lat="46.327767" lon="9.470216">
        <ele>587.062</ele>
        <time>2022-07-11T14:32:40Z</time>
      </trkpt>
      <trkpt lat="46.327746" lon="9.470062">
        <ele>586.020</ele>
        <time>2022-07-11T14:32:41Z</time>
      </trkpt>
      <trkpt lat="46.327741" lon="9.469915">
        <ele>585.522</ele>
        <time>2022-07-11T14:32:42Z</time>
      </trkpt>
      <trkpt lat="46.327746" lon="9.469762">
        <ele>584.668</ele>
        <time>2022-07-11T14:32:43Z</time>
      </trkpt>
      <trkpt lat="46.327762" lon="9.469609">
        <ele>583.612</ele>
        <time>2022-07-11T14:32:44Z</time>
      </trkpt>
      <trkpt lat="46.327787" lon="9.469465">
        <ele>582.233</ele>
        <time>2022-07-11T14:32:45Z</time>
      </trkpt>
      <trkpt lat="46.327822" lon="9.469318">
        <ele>581.771</ele>
        <time>2022-07-11T14:32:46Z</time>
      </trkpt>
      <trkpt lat="46.327861" lon="9.469171">
        <ele>580.735</ele>
        <time>2022-07-11T14:32:47Z</time>
      </trkpt>
      <trkpt lat="46.327899" lon="9.469013">
        <ele>580.729</ele>
        <time>2022-07-11T14:32:48Z</time>
      </trkpt>
      <trkpt lat="46.327920" lon="9.468859">
        <ele>579.800</ele>
        <time>2022-07-11T14:32:49Z</time>
      </trkpt>
      <trkpt lat="46.327918" lon="9.468706">
        <ele>578.320</ele>
        <time>2022-07-11T14:32:50Z</time>
      </trkpt>
      <trkpt lat="46.327894" lon="9.468550">
        <ele>577.409</ele>
        <time>2022-07-11T14:32:51Z</time>
      </trkpt>
      <trkpt lat="46.327787" lon="9.468086">
        <ele>574.533</ele>
        <time>2022-07-11T14:32:54Z</time>
      </trkpt>
      <trkpt lat="46.327752" lon="9.467759">
        <ele>573.072</ele>
        <time>2022-07-11T14:32:56Z</time>
      </trkpt>
      <trkpt lat="46.327758" lon="9.467586">
        <ele>571.670</ele>
        <time>2022-07-11T14:32:57Z</time>
      </trkpt>
      <trkpt lat="46.327775" lon="9.467424">
        <ele>570.622</ele>
        <time>2022-07-11T14:32:58Z</time>
      </trkpt>
      <trkpt lat="46.327825" lon="9.466757">
        <ele>567.338</ele>
        <time>2022-07-11T14:33:02Z</time>
      </trkpt>
      <trkpt lat="46.327787" lon="9.466284">
        <ele>564.412</ele>
        <time>2022-07-11T14:33:05Z</time>
      </trkpt>
      <trkpt lat="46.327722" lon="9.465976">
        <ele>563.933</ele>
        <time>2022-07-11T14:33:07Z</time>
      </trkpt>
      <trkpt lat="46.327630" lon="9.465685">
        <ele>562.541</ele>
        <time>2022-07-11T14:33:09Z</time>
      </trkpt>
      <trkpt lat="46.327521" lon="9.465419">
        <ele>561.525</ele>
        <time>2022-07-11T14:33:11Z</time>
      </trkpt>
      <trkpt lat="46.327300" lon="9.464941">
        <ele>560.528</ele>
        <time>2022-07-11T14:33:15Z</time>
      </trkpt>
      <trkpt lat="46.327237" lon="9.464842">
        <ele>560.589</ele>
        <time>2022-07-11T14:33:16Z</time>
      </trkpt>
      <trkpt lat="46.327166" lon="9.464754">
        <ele>560.517</ele>
        <time>2022-07-11T14:33:17Z</time>
      </trkpt>
      <trkpt lat="46.327094" lon="9.464679">
        <ele>560.509</ele>
        <time>2022-07-11T14:33:18Z</time>
      </trkpt>
      <trkpt lat="46.327019" lon="9.464608">
        <ele>560.193</ele>
        <time>2022-07-11T14:33:19Z</time>
      </trkpt>
      <trkpt lat="46.326805" lon="9.464382">
        <ele>559.172</ele>
        <time>2022-07-11T14:33:22Z</time>
      </trkpt>
      <trkpt lat="46.326746" lon="9.464293">
        <ele>558.670</ele>
        <time>2022-07-11T14:33:23Z</time>
      </trkpt>
      <trkpt lat="46.326695" lon="9.464193">
        <ele>558.632</ele>
        <time>2022-07-11T14:33:24Z</time>
      </trkpt>
      <trkpt lat="46.326651" lon="9.464086">
        <ele>558.668</ele>
        <time>2022-07-11T14:33:25Z</time>
      </trkpt>
      <trkpt lat="46.326616" lon="9.463972">
        <ele>557.762</ele>
        <time>2022-07-11T14:33:26Z</time>
      </trkpt>
      <trkpt lat="46.326589" lon="9.463852">
        <ele>558.163</ele>
        <time>2022-07-11T14:33:27Z</time>
      </trkpt>
      <trkpt lat="46.326573" lon="9.463732">
        <ele>557.231</ele>
        <time>2022-07-11T14:33:28Z</time>
      </trkpt>
      <trkpt lat="46.326566" lon="9.463613">
        <ele>557.285</ele>
        <time>2022-07-11T14:33:29Z</time>
      </trkpt>
      <trkpt lat="46.326568" lon="9.463494">
        <ele>556.263</ele>
        <time>2022-07-11T14:33:30Z</time>
      </trkpt>
      <trkpt lat="46.326576" lon="9.463375">
        <ele>556.244</ele>
        <time>2022-07-11T14:33:31Z</time>
      </trkpt>
      <trkpt lat="46.326592" lon="9.463255">
        <ele>555.718</ele>
        <time>2022-07-11T14:33:32Z</time>
      </trkpt>
      <trkpt lat="46.326615" lon="9.463145">
        <ele>555.709</ele>
        <time>2022-07-11T14:33:33Z</time>
      </trkpt>
      <trkpt lat="46.326840" lon="9.462141">
        <ele>553.877</ele>
        <time>2022-07-11T14:33:43Z</time>
      </trkpt>
      <trkpt lat="46.326844" lon="9.462033">
        <ele>552.976</ele>
        <time>2022-07-11T14:33:44Z</time>
      </trkpt>
      <trkpt lat="46.326839" lon="9.461923">
        <ele>552.924</ele>
        <time>2022-07-11T14:33:45Z</time>
      </trkpt>
      <trkpt lat="46.326825" lon="9.461811">
        <ele>551.966</ele>
        <time>2022-07-11T14:33:46Z</time>
      </trkpt>
      <trkpt lat="46.326803" lon="9.461697">
        <ele>551.992</ele>
        <time>2022-07-11T14:33:47Z</time>
      </trkpt>
      <trkpt lat="46.326563" lon="9.460958">
        <ele>548.546</ele>
        <time>2022-07-11T14:33:54Z</time>
      </trkpt>
      <trkpt lat="46.326402" lon="9.460531">
        <ele>547.197</ele>
        <time>2022-07-11T14:33:59Z</time>
      </trkpt>
      <trkpt lat="46.326316" lon="9.460370">
        <ele>546.695</ele>
        <time>2022-07-11T14:34:02Z</time>
      </trkpt>
      <trkpt lat="46.326296" lon="9.460312">
        <ele>546.629</ele>
        <time>2022-07-11T14:34:03Z</time>
      </trkpt>
      <trkpt lat="46.326280" lon="9.460245">
        <ele>546.649</ele>
        <time>2022-07-11T14:34:04Z</time>
      </trkpt>
      <trkpt lat="46.326271" lon="9.460176">
        <ele>545.602</ele>
        <time>2022-07-11T14:34:05Z</time>
      </trkpt>
      <trkpt lat="46.326271" lon="9.460104">
        <ele>545.622</ele>
        <time>2022-07-11T14:34:06Z</time>
      </trkpt>
      <trkpt lat="46.326278" lon="9.460031">
        <ele>545.609</ele>
        <time>2022-07-11T14:34:07Z</time>
      </trkpt>
      <trkpt lat="46.326291" lon="9.459956">
        <ele>545.245</ele>
        <time>2022-07-11T14:34:08Z</time>
      </trkpt>
      <trkpt lat="46.326303" lon="9.459874">
        <ele>545.244</ele>
        <time>2022-07-11T14:34:09Z</time>
      </trkpt>
      <trkpt lat="46.326311" lon="9.459790">
        <ele>544.792</ele>
        <time>2022-07-11T14:34:10Z</time>
      </trkpt>
      <trkpt lat="46.326315" lon="9.459704">
        <ele>544.734</ele>
        <time>2022-07-11T14:34:11Z</time>
      </trkpt>
      <trkpt lat="46.326316" lon="9.459610">
        <ele>544.250</ele>
        <time>2022-07-11T14:34:12Z</time>
      </trkpt>
      <trkpt lat="46.326314" lon="9.459521">
        <ele>543.764</ele>
        <time>2022-07-11T14:34:13Z</time>
      </trkpt>
      <trkpt lat="46.326270" lon="9.458941">
        <ele>542.375</ele>
        <time>2022-07-11T14:34:19Z</time>
      </trkpt>
      <trkpt lat="46.326242" lon="9.458848">
        <ele>542.343</ele>
        <time>2022-07-11T14:34:20Z</time>
      </trkpt>
      <trkpt lat="46.326205" lon="9.458758">
        <ele>541.837</ele>
        <time>2022-07-11T14:34:21Z</time>
      </trkpt>
      <trkpt lat="46.326160" lon="9.458668">
        <ele>541.885</ele>
        <time>2022-07-11T14:34:22Z</time>
      </trkpt>
      <trkpt lat="46.326112" lon="9.458589">
        <ele>540.889</ele>
        <time>2022-07-11T14:34:23Z</time>
      </trkpt>
      <trkpt lat="46.326050" lon="9.458510">
        <ele>540.817</ele>
        <time>2022-07-11T14:34:24Z</time>
      </trkpt>
      <trkpt lat="46.325994" lon="9.458450">
        <ele>540.409</ele>
        <time>2022-07-11T14:34:25Z</time>
      </trkpt>
      <trkpt lat="46.325926" lon="9.458382">
        <ele>539.949</ele>
        <time>2022-07-11T14:34:26Z</time>
      </trkpt>
      <trkpt lat="46.325676" lon="9.458028">
        <ele>539.438</ele>
        <time>2022-07-11T14:34:31Z</time>
      </trkpt>
      <trkpt lat="46.325566" lon="9.457805">
        <ele>538.936</ele>
        <time>2022-07-11T14:34:35Z</time>
      </trkpt>
      <trkpt lat="46.325543" lon="9.457812">
        <ele>538.988</ele>
        <time>2022-07-11T14:34:36Z</time>
      </trkpt>
      <trkpt lat="46.325529" lon="9.457840">
        <ele>538.984</ele>
        <time>2022-07-11T14:34:37Z</time>
      </trkpt>
      <trkpt lat="46.325529" lon="9.457866">
        <ele>538.928</ele>
        <time>2022-07-11T14:34:38Z</time>
      </trkpt>
      <trkpt lat="46.325525" lon="9.457904">
        <ele>538.459</ele>
        <time>2022-07-11T14:34:39Z</time>
      </trkpt>
      <trkpt lat="46.325511" lon="9.457931">
        <ele>538.427</ele>
        <time>2022-07-11T14:34:40Z</time>
      </trkpt>
      <trkpt lat="46.325489" lon="9.457952">
        <ele>538.441</ele>
        <time>2022-07-11T14:34:41Z</time>
      </trkpt>
      <trkpt lat="46.325456" lon="9.457973">
        <ele>537.932</ele>
        <time>2022-07-11T14:34:42Z</time>
      </trkpt>
      <trkpt lat="46.325416" lon="9.457995">
        <ele>537.592</ele>
        <time>2022-07-11T14:34:43Z</time>
      </trkpt>
      <trkpt lat="46.325366" lon="9.458017">
        <ele>537.511</ele>
        <time>2022-07-11T14:34:44Z</time>
      </trkpt>
      <trkpt lat="46.325125" lon="9.458078">
        <ele>534.109</ele>
        <time>2022-07-11T14:34:48Z</time>
      </trkpt>
      <trkpt lat="46.325076" lon="9.458092">
        <ele>534.194</ele>
        <time>2022-07-11T14:34:49Z</time>
      </trkpt>
      <trkpt lat="46.324994" lon="9.458081">
        <ele>533.143</ele>
        <time>2022-07-11T14:34:51Z</time>
      </trkpt>
      <trkpt lat="46.324961" lon="9.458044">
        <ele>533.161</ele>
        <time>2022-07-11T14:34:52Z</time>
      </trkpt>
      <trkpt lat="46.324922" lon="9.457967">
        <ele>533.143</ele>
        <time>2022-07-11T14:34:53Z</time>
      </trkpt>
      <trkpt lat="46.324906" lon="9.457911">
        <ele>532.759</ele>
        <time>2022-07-11T14:34:54Z</time>
      </trkpt>
      <trkpt lat="46.324886" lon="9.457829">
        <ele>532.753</ele>
        <time>2022-07-11T14:34:55Z</time>
      </trkpt>
      <trkpt lat="46.324783" lon="9.457366">
        <ele>531.224</ele>
        <time>2022-07-11T14:35:01Z</time>
      </trkpt>
      <trkpt lat="46.324739" lon="9.456990">
        <ele>531.732</ele>
        <time>2022-07-11T14:35:06Z</time>
      </trkpt>
      <trkpt lat="46.324620" lon="9.455766">
        <ele>530.796</ele>
        <time>2022-07-11T14:35:23Z</time>
      </trkpt>
      <trkpt lat="46.324608" lon="9.455632">
        <ele>530.775</ele>
        <time>2022-07-11T14:35:25Z</time>
      </trkpt>
      <trkpt lat="46.324611" lon="9.455558">
        <ele>530.728</ele>
        <time>2022-07-11T14:35:26Z</time>
      </trkpt>
      <trkpt lat="46.324619" lon="9.455471">
        <ele>530.720</ele>
        <time>2022-07-11T14:35:27Z</time>
      </trkpt>
      <trkpt lat="46.324628" lon="9.455418">
        <ele>530.709</ele>
        <time>2022-07-11T14:35:28Z</time>
      </trkpt>
      <trkpt lat="46.324640" lon="9.455356">
        <ele>530.728</ele>
        <time>2022-07-11T14:35:29Z</time>
      </trkpt>
      <trkpt lat="46.324657" lon="9.455288">
        <ele>530.737</ele>
        <time>2022-07-11T14:35:30Z</time>
      </trkpt>
      <trkpt lat="46.324675" lon="9.455237">
        <ele>530.775</ele>
        <time>2022-07-11T14:35:31Z</time>
      </trkpt>
      <trkpt lat="46.324693" lon="9.455199">
        <ele>531.757</ele>
        <time>2022-07-11T14:35:32Z</time>
      </trkpt>
      <trkpt lat="46.324712" lon="9.455166">
        <ele>532.263</ele>
        <time>2022-07-11T14:35:33Z</time>
      </trkpt>
      <trkpt lat="46.324732" lon="9.455140">
        <ele>532.287</ele>
        <time>2022-07-11T14:35:34Z</time>
      </trkpt>
      <trkpt lat="46.324751" lon="9.455118">
        <ele>532.218</ele>
        <time>2022-07-11T14:35:35Z</time>
      </trkpt>
      <trkpt lat="46.324767" lon="9.455094">
        <ele>532.796</ele>
        <time>2022-07-11T14:35:36Z</time>
      </trkpt>
      <trkpt lat="46.324780" lon="9.455071">
        <ele>532.720</ele>
        <time>2022-07-11T14:35:37Z</time>
      </trkpt>
      <trkpt lat="46.324792" lon="9.455045">
        <ele>532.765</ele>
        <time>2022-07-11T14:35:38Z</time>
      </trkpt>
      <trkpt lat="46.324803" lon="9.455015">
        <ele>532.768</ele>
        <time>2022-07-11T14:35:39Z</time>
      </trkpt>
      <trkpt lat="46.324818" lon="9.454671">
        <ele>535.514</ele>
        <time>2022-07-11T14:35:52Z</time>
      </trkpt>
      <trkpt lat="46.324800" lon="9.454311">
        <ele>536.509</ele>
        <time>2022-07-11T14:36:06Z</time>
      </trkpt>
      <trkpt lat="46.324888" lon="9.453926">
        <ele>536.027</ele>
        <time>2022-07-11T14:36:19Z</time>
      </trkpt>
      <trkpt lat="46.324804" lon="9.453518">
        <ele>536.026</ele>
        <time>2022-07-11T14:36:34Z</time>
      </trkpt>
      <trkpt lat="46.324797" lon="9.453200">
        <ele>534.624</ele>
        <time>2022-07-11T14:36:46Z</time>
      </trkpt>
      <trkpt lat="46.324804" lon="9.452984">
        <ele>532.786</ele>
        <time>2022-07-11T14:37:01Z</time>
      </trkpt>
      <trkpt lat="46.324844" lon="9.452738">
        <ele>530.752</ele>
        <time>2022-07-11T14:37:18Z</time>
      </trkpt>
      <trkpt lat="46.324835" lon="9.452648">
        <ele>530.356</ele>
        <time>2022-07-11T14:37:33Z</time>
      </trkpt>
      <trkpt lat="46.324823" lon="9.452421">
        <ele>529.387</ele>
        <time>2022-07-11T14:37:47Z</time>
      </trkpt>
      <trkpt lat="46.324793" lon="9.451953">
        <ele>529.365</ele>
        <time>2022-07-11T14:37:59Z</time>
      </trkpt>
      <trkpt lat="46.324794" lon="9.451901">
        <ele>528.879</ele>
        <time>2022-07-11T14:38:00Z</time>
      </trkpt>
      <trkpt lat="46.324801" lon="9.451832">
        <ele>528.395</ele>
        <time>2022-07-11T14:38:01Z</time>
      </trkpt>
      <trkpt lat="46.324806" lon="9.451767">
        <ele>528.349</ele>
        <time>2022-07-11T14:38:02Z</time>
      </trkpt>
      <trkpt lat="46.324809" lon="9.451697">
        <ele>528.323</ele>
        <time>2022-07-11T14:38:03Z</time>
      </trkpt>
      <trkpt lat="46.324808" lon="9.451642">
        <ele>528.309</ele>
        <time>2022-07-11T14:38:04Z</time>
      </trkpt>
      <trkpt lat="46.324800" lon="9.451572">
        <ele>527.970</ele>
        <time>2022-07-11T14:38:05Z</time>
      </trkpt>
      <trkpt lat="46.324790" lon="9.451508">
        <ele>527.989</ele>
        <time>2022-07-11T14:38:06Z</time>
      </trkpt>
      <trkpt lat="46.324777" lon="9.451436">
        <ele>527.947</ele>
        <time>2022-07-11T14:38:07Z</time>
      </trkpt>
      <trkpt lat="46.324763" lon="9.451358">
        <ele>526.919</ele>
        <time>2022-07-11T14:38:08Z</time>
      </trkpt>
      <trkpt lat="46.324736" lon="9.451171">
        <ele>525.035</ele>
        <time>2022-07-11T14:38:10Z</time>
      </trkpt>
      <trkpt lat="46.324707" lon="9.451053">
        <ele>524.599</ele>
        <time>2022-07-11T14:38:11Z</time>
      </trkpt>
      <trkpt lat="46.324676" lon="9.450955">
        <ele>523.550</ele>
        <time>2022-07-11T14:38:12Z</time>
      </trkpt>
      <trkpt lat="46.324545" lon="9.450638">
        <ele>519.718</ele>
        <time>2022-07-11T14:38:15Z</time>
      </trkpt>
      <trkpt lat="46.324400" lon="9.450362">
        <ele>516.822</ele>
        <time>2022-07-11T14:38:18Z</time>
      </trkpt>
      <trkpt lat="46.324176" lon="9.449972">
        <ele>513.981</ele>
        <time>2022-07-11T14:38:22Z</time>
      </trkpt>
      <trkpt lat="46.324088" lon="9.449794">
        <ele>512.561</ele>
        <time>2022-07-11T14:38:24Z</time>
      </trkpt>
      <trkpt lat="46.324005" lon="9.449650">
        <ele>511.017</ele>
        <time>2022-07-11T14:38:26Z</time>
      </trkpt>
      <trkpt lat="46.323959" lon="9.449585">
        <ele>510.609</ele>
        <time>2022-07-11T14:38:27Z</time>
      </trkpt>
      <trkpt lat="46.323914" lon="9.449530">
        <ele>510.179</ele>
        <time>2022-07-11T14:38:28Z</time>
      </trkpt>
      <trkpt lat="46.323765" lon="9.449322">
        <ele>507.738</ele>
        <time>2022-07-11T14:38:31Z</time>
      </trkpt>
      <trkpt lat="46.323727" lon="9.449224">
        <ele>506.736</ele>
        <time>2022-07-11T14:38:32Z</time>
      </trkpt>
      <trkpt lat="46.323689" lon="9.449147">
        <ele>506.298</ele>
        <time>2022-07-11T14:38:33Z</time>
      </trkpt>
      <trkpt lat="46.323646" lon="9.449099">
        <ele>505.324</ele>
        <time>2022-07-11T14:38:34Z</time>
      </trkpt>
      <trkpt lat="46.323576" lon="9.449066">
        <ele>504.338</ele>
        <time>2022-07-11T14:38:35Z</time>
      </trkpt>
      <trkpt lat="46.323509" lon="9.449055">
        <ele>503.899</ele>
        <time>2022-07-11T14:38:36Z</time>
      </trkpt>
      <trkpt lat="46.323427" lon="9.449055">
        <ele>502.957</ele>
        <time>2022-07-11T14:38:37Z</time>
      </trkpt>
      <trkpt lat="46.323355" lon="9.449047">
        <ele>502.461</ele>
        <time>2022-07-11T14:38:38Z</time>
      </trkpt>
      <trkpt lat="46.323302" lon="9.449021">
        <ele>501.943</ele>
        <time>2022-07-11T14:38:39Z</time>
      </trkpt>
      <trkpt lat="46.323254" lon="9.448966">
        <ele>501.464</ele>
        <time>2022-07-11T14:38:40Z</time>
      </trkpt>
      <trkpt lat="46.323227" lon="9.448895">
        <ele>500.910</ele>
        <time>2022-07-11T14:38:41Z</time>
      </trkpt>
      <trkpt lat="46.323201" lon="9.448797">
        <ele>500.009</ele>
        <time>2022-07-11T14:38:42Z</time>
      </trkpt>
      <trkpt lat="46.323171" lon="9.448704">
        <ele>499.015</ele>
        <time>2022-07-11T14:38:43Z</time>
      </trkpt>
      <trkpt lat="46.323138" lon="9.448626">
        <ele>498.554</ele>
        <time>2022-07-11T14:38:44Z</time>
      </trkpt>
      <trkpt lat="46.323088" lon="9.448539">
        <ele>497.692</ele>
        <time>2022-07-11T14:38:45Z</time>
      </trkpt>
      <trkpt lat="46.323046" lon="9.448472">
        <ele>497.134</ele>
        <time>2022-07-11T14:38:46Z</time>
      </trkpt>
      <trkpt lat="46.323027" lon="9.448414">
        <ele>496.650</ele>
        <time>2022-07-11T14:38:47Z</time>
      </trkpt>
      <trkpt lat="46.323031" lon="9.448357">
        <ele>496.694</ele>
        <time>2022-07-11T14:38:48Z</time>
      </trkpt>
      <trkpt lat="46.323054" lon="9.448332">
        <ele>496.615</ele>
        <time>2022-07-11T14:38:49Z</time>
      </trkpt>
      <trkpt lat="46.323083" lon="9.448328">
        <ele>495.783</ele>
        <time>2022-07-11T14:38:50Z</time>
      </trkpt>
      <trkpt lat="46.323117" lon="9.448339">
        <ele>495.277</ele>
        <time>2022-07-11T14:38:51Z</time>
      </trkpt>
      <trkpt lat="46.323172" lon="9.448370">
        <ele>494.226</ele>
        <time>2022-07-11T14:38:52Z</time>
      </trkpt>
      <trkpt lat="46.323230" lon="9.448400">
        <ele>493.247</ele>
        <time>2022-07-11T14:38:53Z</time>
      </trkpt>
      <trkpt lat="46.323292" lon="9.448426">
        <ele>492.311</ele>
        <time>2022-07-11T14:38:54Z</time>
      </trkpt>
      <trkpt lat="46.323353" lon="9.448440">
        <ele>491.309</ele>
        <time>2022-07-11T14:38:55Z</time>
      </trkpt>
      <trkpt lat="46.323435" lon="9.448432">
        <ele>489.973</ele>
        <time>2022-07-11T14:38:56Z</time>
      </trkpt>
      <trkpt lat="46.323506" lon="9.448406">
        <ele>489.412</ele>
        <time>2022-07-11T14:38:57Z</time>
      </trkpt>
      <trkpt lat="46.323605" lon="9.448365">
        <ele>487.540</ele>
        <time>2022-07-11T14:38:58Z</time>
      </trkpt>
      <trkpt lat="46.323871" lon="9.448273">
        <ele>484.142</ele>
        <time>2022-07-11T14:39:01Z</time>
      </trkpt>
      <trkpt lat="46.324218" lon="9.448160">
        <ele>480.858</ele>
        <time>2022-07-11T14:39:05Z</time>
      </trkpt>
      <trkpt lat="46.324294" lon="9.448109">
        <ele>479.842</ele>
        <time>2022-07-11T14:39:06Z</time>
      </trkpt>
      <trkpt lat="46.324344" lon="9.448057">
        <ele>479.393</ele>
        <time>2022-07-11T14:39:07Z</time>
      </trkpt>
      <trkpt lat="46.324385" lon="9.447990">
        <ele>478.311</ele>
        <time>2022-07-11T14:39:08Z</time>
      </trkpt>
      <trkpt lat="46.324395" lon="9.447935">
        <ele>478.355</ele>
        <time>2022-07-11T14:39:09Z</time>
      </trkpt>
      <trkpt lat="46.324391" lon="9.447861">
        <ele>477.989</ele>
        <time>2022-07-11T14:39:10Z</time>
      </trkpt>
      <trkpt lat="46.324383" lon="9.447802">
        <ele>477.406</ele>
        <time>2022-07-11T14:39:11Z</time>
      </trkpt>
      <trkpt lat="46.324369" lon="9.447730">
        <ele>477.426</ele>
        <time>2022-07-11T14:39:12Z</time>
      </trkpt>
      <trkpt lat="46.324357" lon="9.447657">
        <ele>476.909</ele>
        <time>2022-07-11T14:39:13Z</time>
      </trkpt>
      <trkpt lat="46.324357" lon="9.447595">
        <ele>476.919</ele>
        <time>2022-07-11T14:39:14Z</time>
      </trkpt>
      <trkpt lat="46.324372" lon="9.447506">
        <ele>476.468</ele>
        <time>2022-07-11T14:39:15Z</time>
      </trkpt>
      <trkpt lat="46.324394" lon="9.447443">
        <ele>476.416</ele>
        <time>2022-07-11T14:39:16Z</time>
      </trkpt>
      <trkpt lat="46.324425" lon="9.447381">
        <ele>475.548</ele>
        <time>2022-07-11T14:39:17Z</time>
      </trkpt>
      <trkpt lat="46.324447" lon="9.447344">
        <ele>475.924</ele>
        <time>2022-07-11T14:39:18Z</time>
      </trkpt>
      <trkpt lat="46.324523" lon="9.447143">
        <ele>475.018</ele>
        <time>2022-07-11T14:39:27Z</time>
      </trkpt>
      <trkpt lat="46.324686" lon="9.446603">
        <ele>472.139</ele>
        <time>2022-07-11T14:39:40Z</time>
      </trkpt>
      <trkpt lat="46.324872" lon="9.445967">
        <ele>468.317</ele>
        <time>2022-07-11T14:39:50Z</time>
      </trkpt>
      <trkpt lat="46.324904" lon="9.445868">
        <ele>468.331</ele>
        <time>2022-07-11T14:39:51Z</time>
      </trkpt>
      <trkpt lat="46.324984" lon="9.445585">
        <ele>465.923</ele>
        <time>2022-07-11T14:39:54Z</time>
      </trkpt>
      <trkpt lat="46.325054" lon="9.445133">
        <ele>462.583</ele>
        <time>2022-07-11T14:39:58Z</time>
      </trkpt>
      <trkpt lat="46.325100" lon="9.444899">
        <ele>460.611</ele>
        <time>2022-07-11T14:40:00Z</time>
      </trkpt>
      <trkpt lat="46.325126" lon="9.444813">
        <ele>460.109</ele>
        <time>2022-07-11T14:40:01Z</time>
      </trkpt>
      <trkpt lat="46.325168" lon="9.444707">
        <ele>460.143</ele>
        <time>2022-07-11T14:40:02Z</time>
      </trkpt>
      <trkpt lat="46.325209" lon="9.444624">
        <ele>460.192</ele>
        <time>2022-07-11T14:40:03Z</time>
      </trkpt>
      <trkpt lat="46.325264" lon="9.444537">
        <ele>459.140</ele>
        <time>2022-07-11T14:40:04Z</time>
      </trkpt>
      <trkpt lat="46.325313" lon="9.444469">
        <ele>458.642</ele>
        <time>2022-07-11T14:40:05Z</time>
      </trkpt>
      <trkpt lat="46.325370" lon="9.444395">
        <ele>458.638</ele>
        <time>2022-07-11T14:40:06Z</time>
      </trkpt>
      <trkpt lat="46.325584" lon="9.444066">
        <ele>457.242</ele>
        <time>2022-07-11T14:40:10Z</time>
      </trkpt>
      <trkpt lat="46.325732" lon="9.443794">
        <ele>455.823</ele>
        <time>2022-07-11T14:40:13Z</time>
      </trkpt>
      <trkpt lat="46.325770" lon="9.443696">
        <ele>455.881</ele>
        <time>2022-07-11T14:40:14Z</time>
      </trkpt>
      <trkpt lat="46.325801" lon="9.443593">
        <ele>455.395</ele>
        <time>2022-07-11T14:40:15Z</time>
      </trkpt>
      <trkpt lat="46.325918" lon="9.442907">
        <ele>454.825</ele>
        <time>2022-07-11T14:40:25Z</time>
      </trkpt>
      <trkpt lat="46.325915" lon="9.442919">
        <ele>454.826</ele>
        <time>2022-07-11T14:40:43Z</time>
      </trkpt>
      <trkpt lat="46.325887" lon="9.442678">
        <ele>454.308</ele>
        <time>2022-07-11T14:40:59Z</time>
      </trkpt>
      <trkpt lat="46.325768" lon="9.441904">
        <ele>453.409</ele>
        <time>2022-07-11T14:41:15Z</time>
      </trkpt>
      <trkpt lat="46.325718" lon="9.441729">
        <ele>453.433</ele>
        <time>2022-07-11T14:41:18Z</time>
      </trkpt>
      <trkpt lat="46.325698" lon="9.441682">
        <ele>453.432</ele>
        <time>2022-07-11T14:41:19Z</time>
      </trkpt>
      <trkpt lat="46.325674" lon="9.441633">
        <ele>453.450</ele>
        <time>2022-07-11T14:41:20Z</time>
      </trkpt>
      <trkpt lat="46.325652" lon="9.441588">
        <ele>453.492</ele>
        <time>2022-07-11T14:41:21Z</time>
      </trkpt>
      <trkpt lat="46.325627" lon="9.441544">
        <ele>453.488</ele>
        <time>2022-07-11T14:41:22Z</time>
      </trkpt>
      <trkpt lat="46.325599" lon="9.441502">
        <ele>453.452</ele>
        <time>2022-07-11T14:41:23Z</time>
      </trkpt>
      <trkpt lat="46.325564" lon="9.441455">
        <ele>453.463</ele>
        <time>2022-07-11T14:41:24Z</time>
      </trkpt>
      <trkpt lat="46.325530" lon="9.441414">
        <ele>453.471</ele>
        <time>2022-07-11T14:41:25Z</time>
      </trkpt>
      <trkpt lat="46.325494" lon="9.441371">
        <ele>453.435</ele>
        <time>2022-07-11T14:41:26Z</time>
      </trkpt>
      <trkpt lat="46.325466" lon="9.441333">
        <ele>453.435</ele>
        <time>2022-07-11T14:41:27Z</time>
      </trkpt>
      <trkpt lat="46.325376" lon="9.441182">
        <ele>452.986</ele>
        <time>2022-07-11T14:41:30Z</time>
      </trkpt>
      <trkpt lat="46.325097" lon="9.440511">
        <ele>451.914</ele>
        <time>2022-07-11T14:41:41Z</time>
      </trkpt>
      <trkpt lat="46.325067" lon="9.440459">
        <ele>451.909</ele>
        <time>2022-07-11T14:41:42Z</time>
      </trkpt>
      <trkpt lat="46.325034" lon="9.440408">
        <ele>451.934</ele>
        <time>2022-07-11T14:41:43Z</time>
      </trkpt>
      <trkpt lat="46.324958" lon="9.440315">
        <ele>451.933</ele>
        <time>2022-07-11T14:41:45Z</time>
      </trkpt>
      <trkpt lat="46.324919" lon="9.440276">
        <ele>451.981</ele>
        <time>2022-07-11T14:41:46Z</time>
      </trkpt>
      <trkpt lat="46.324874" lon="9.440240">
        <ele>451.463</ele>
        <time>2022-07-11T14:41:47Z</time>
      </trkpt>
      <trkpt lat="46.324830" lon="9.440205">
        <ele>451.479</ele>
        <time>2022-07-11T14:41:48Z</time>
      </trkpt>
      <trkpt lat="46.324791" lon="9.440175">
        <ele>451.423</ele>
        <time>2022-07-11T14:41:49Z</time>
      </trkpt>
      <trkpt lat="46.324755" lon="9.440147">
        <ele>451.474</ele>
        <time>2022-07-11T14:41:50Z</time>
      </trkpt>
      <trkpt lat="46.324384" lon="9.439730">
        <ele>452.432</ele>
        <time>2022-07-11T14:42:02Z</time>
      </trkpt>
      <trkpt lat="46.324131" lon="9.439199">
        <ele>453.456</ele>
        <time>2022-07-11T14:42:14Z</time>
      </trkpt>
      <trkpt lat="46.323925" lon="9.438646">
        <ele>453.478</ele>
        <time>2022-07-11T14:42:24Z</time>
      </trkpt>
      <trkpt lat="46.323906" lon="9.438577">
        <ele>453.433</ele>
        <time>2022-07-11T14:42:25Z</time>
      </trkpt>
      <trkpt lat="46.323827" lon="9.438211">
        <ele>450.026</ele>
        <time>2022-07-11T14:42:29Z</time>
      </trkpt>
      <trkpt lat="46.323816" lon="9.438101">
        <ele>449.009</ele>
        <time>2022-07-11T14:42:30Z</time>
      </trkpt>
      <trkpt lat="46.323812" lon="9.437984">
        <ele>448.148</ele>
        <time>2022-07-11T14:42:31Z</time>
      </trkpt>
      <trkpt lat="46.323816" lon="9.437872">
        <ele>447.637</ele>
        <time>2022-07-11T14:42:32Z</time>
      </trkpt>
      <trkpt lat="46.323827" lon="9.437778">
        <ele>447.145</ele>
        <time>2022-07-11T14:42:33Z</time>
      </trkpt>
      <trkpt lat="46.323844" lon="9.437695">
        <ele>446.687</ele>
        <time>2022-07-11T14:42:34Z</time>
      </trkpt>
      <trkpt lat="46.323864" lon="9.437614">
        <ele>446.193</ele>
        <time>2022-07-11T14:42:35Z</time>
      </trkpt>
      <trkpt lat="46.324017" lon="9.437147">
        <ele>442.847</ele>
        <time>2022-07-11T14:42:40Z</time>
      </trkpt>
      <trkpt lat="46.324119" lon="9.436815">
        <ele>440.448</ele>
        <time>2022-07-11T14:42:43Z</time>
      </trkpt>
      <trkpt lat="46.324163" lon="9.436736">
        <ele>440.446</ele>
        <time>2022-07-11T14:42:44Z</time>
      </trkpt>
      <trkpt lat="46.324205" lon="9.436692">
        <ele>439.480</ele>
        <time>2022-07-11T14:42:45Z</time>
      </trkpt>
      <trkpt lat="46.324236" lon="9.436675">
        <ele>439.449</ele>
        <time>2022-07-11T14:42:46Z</time>
      </trkpt>
      <trkpt lat="46.324255" lon="9.436678">
        <ele>439.402</ele>
        <time>2022-07-11T14:42:47Z</time>
      </trkpt>
      <trkpt lat="46.324268" lon="9.436688">
        <ele>439.922</ele>
        <time>2022-07-11T14:42:48Z</time>
      </trkpt>
      <trkpt lat="46.324276" lon="9.436697">
        <ele>439.409</ele>
        <time>2022-07-11T14:42:49Z</time>
      </trkpt>
      <trkpt lat="46.324262" lon="9.436707">
        <ele>439.425</ele>
        <time>2022-07-11T14:42:59Z</time>
      </trkpt>
      <trkpt lat="46.324261" lon="9.436661">
        <ele>438.944</ele>
        <time>2022-07-11T14:43:16Z</time>
      </trkpt>
      <trkpt lat="46.324272" lon="9.436645">
        <ele>438.912</ele>
        <time>2022-07-11T14:43:33Z</time>
      </trkpt>
      <trkpt lat="46.324276" lon="9.436623">
        <ele>438.954</ele>
        <time>2022-07-11T14:43:34Z</time>
      </trkpt>
      <trkpt lat="46.324282" lon="9.436601">
        <ele>438.940</ele>
        <time>2022-07-11T14:43:35Z</time>
      </trkpt>
      <trkpt lat="46.324295" lon="9.436567">
        <ele>438.914</ele>
        <time>2022-07-11T14:43:36Z</time>
      </trkpt>
      <trkpt lat="46.324311" lon="9.436536">
        <ele>438.995</ele>
        <time>2022-07-11T14:43:37Z</time>
      </trkpt>
      <trkpt lat="46.324424" lon="9.436232">
        <ele>437.023</ele>
        <time>2022-07-11T14:43:42Z</time>
      </trkpt>
      <trkpt lat="46.324440" lon="9.436157">
        <ele>436.537</ele>
        <time>2022-07-11T14:43:43Z</time>
      </trkpt>
      <trkpt lat="46.324454" lon="9.436054">
        <ele>436.187</ele>
        <time>2022-07-11T14:43:44Z</time>
      </trkpt>
      <trkpt lat="46.324518" lon="9.435663">
        <ele>433.642</ele>
        <time>2022-07-11T14:43:48Z</time>
      </trkpt>
      <trkpt lat="46.324583" lon="9.435440">
        <ele>432.726</ele>
        <time>2022-07-11T14:43:50Z</time>
      </trkpt>
      <trkpt lat="46.324809" lon="9.434900">
        <ele>429.309</ele>
        <time>2022-07-11T14:43:55Z</time>
      </trkpt>
      <trkpt lat="46.324972" lon="9.434603">
        <ele>427.449</ele>
        <time>2022-07-11T14:43:58Z</time>
      </trkpt>
      <trkpt lat="46.325012" lon="9.434478">
        <ele>426.418</ele>
        <time>2022-07-11T14:43:59Z</time>
      </trkpt>
      <trkpt lat="46.325030" lon="9.434364">
        <ele>426.496</ele>
        <time>2022-07-11T14:44:00Z</time>
      </trkpt>
      <trkpt lat="46.325051" lon="9.434118">
        <ele>425.028</ele>
        <time>2022-07-11T14:44:02Z</time>
      </trkpt>
      <trkpt lat="46.325076" lon="9.433759">
        <ele>424.024</ele>
        <time>2022-07-11T14:44:05Z</time>
      </trkpt>
      <trkpt lat="46.325066" lon="9.433638">
        <ele>423.178</ele>
        <time>2022-07-11T14:44:06Z</time>
      </trkpt>
      <trkpt lat="46.325043" lon="9.433519">
        <ele>423.119</ele>
        <time>2022-07-11T14:44:07Z</time>
      </trkpt>
      <trkpt lat="46.325006" lon="9.433404">
        <ele>422.637</ele>
        <time>2022-07-11T14:44:08Z</time>
      </trkpt>
      <trkpt lat="46.324962" lon="9.433295">
        <ele>422.131</ele>
        <time>2022-07-11T14:44:09Z</time>
      </trkpt>
      <trkpt lat="46.324913" lon="9.433192">
        <ele>421.691</ele>
        <time>2022-07-11T14:44:10Z</time>
      </trkpt>
      <trkpt lat="46.324873" lon="9.433094">
        <ele>421.181</ele>
        <time>2022-07-11T14:44:11Z</time>
      </trkpt>
      <trkpt lat="46.324771" lon="9.432779">
        <ele>419.719</ele>
        <time>2022-07-11T14:44:14Z</time>
      </trkpt>
      <trkpt lat="46.324761" lon="9.432664">
        <ele>419.709</ele>
        <time>2022-07-11T14:44:15Z</time>
      </trkpt>
      <trkpt lat="46.324775" lon="9.432551">
        <ele>419.760</ele>
        <time>2022-07-11T14:44:16Z</time>
      </trkpt>
      <trkpt lat="46.324835" lon="9.432181">
        <ele>417.859</ele>
        <time>2022-07-11T14:44:19Z</time>
      </trkpt>
      <trkpt lat="46.324830" lon="9.432047">
        <ele>417.817</ele>
        <time>2022-07-11T14:44:20Z</time>
      </trkpt>
      <trkpt lat="46.324817" lon="9.431917">
        <ele>417.399</ele>
        <time>2022-07-11T14:44:21Z</time>
      </trkpt>
      <trkpt lat="46.324786" lon="9.431185">
        <ele>415.985</ele>
        <time>2022-07-11T14:44:27Z</time>
      </trkpt>
      <trkpt lat="46.324996" lon="9.429617">
        <ele>412.529</ele>
        <time>2022-07-11T14:44:41Z</time>
      </trkpt>
      <trkpt lat="46.325087" lon="9.428570">
        <ele>412.090</ele>
        <time>2022-07-11T14:44:54Z</time>
      </trkpt>
      <trkpt lat="46.325080" lon="9.428500">
        <ele>412.018</ele>
        <time>2022-07-11T14:44:55Z</time>
      </trkpt>
      <trkpt lat="46.325075" lon="9.428431">
        <ele>411.572</ele>
        <time>2022-07-11T14:44:56Z</time>
      </trkpt>
      <trkpt lat="46.325063" lon="9.427632">
        <ele>408.296</ele>
        <time>2022-07-11T14:45:06Z</time>
      </trkpt>
      <trkpt lat="46.325017" lon="9.426222">
        <ele>406.731</ele>
        <time>2022-07-11T14:45:21Z</time>
      </trkpt>
      <trkpt lat="46.325004" lon="9.425493">
        <ele>405.824</ele>
        <time>2022-07-11T14:45:29Z</time>
      </trkpt>
      <trkpt lat="46.324985" lon="9.425409">
        <ele>405.809</ele>
        <time>2022-07-11T14:45:30Z</time>
      </trkpt>
      <trkpt lat="46.324957" lon="9.425331">
        <ele>405.390</ele>
        <time>2022-07-11T14:45:31Z</time>
      </trkpt>
      <trkpt lat="46.324931" lon="9.425255">
        <ele>404.869</ele>
        <time>2022-07-11T14:45:32Z</time>
      </trkpt>
      <trkpt lat="46.324914" lon="9.425168">
        <ele>404.887</ele>
        <time>2022-07-11T14:45:33Z</time>
      </trkpt>
      <trkpt lat="46.324909" lon="9.425085">
        <ele>404.819</ele>
        <time>2022-07-11T14:45:34Z</time>
      </trkpt>
      <trkpt lat="46.324905" lon="9.425000">
        <ele>404.875</ele>
        <time>2022-07-11T14:45:35Z</time>
      </trkpt>
      <trkpt lat="46.324924" lon="9.424294">
        <ele>404.319</ele>
        <time>2022-07-11T14:45:44Z</time>
      </trkpt>
      <trkpt lat="46.324940" lon="9.424220">
        <ele>404.340</ele>
        <time>2022-07-11T14:45:45Z</time>
      </trkpt>
      <trkpt lat="46.324983" lon="9.424080">
        <ele>404.368</ele>
        <time>2022-07-11T14:45:47Z</time>
      </trkpt>
      <trkpt lat="46.325011" lon="9.424028">
        <ele>404.312</ele>
        <time>2022-07-11T14:45:48Z</time>
      </trkpt>
      <trkpt lat="46.325045" lon="9.423996">
        <ele>404.355</ele>
        <time>2022-07-11T14:45:49Z</time>
      </trkpt>
      <trkpt lat="46.325083" lon="9.423989">
        <ele>404.307</ele>
        <time>2022-07-11T14:45:50Z</time>
      </trkpt>
      <trkpt lat="46.325117" lon="9.423999">
        <ele>404.317</ele>
        <time>2022-07-11T14:45:51Z</time>
      </trkpt>
      <trkpt lat="46.325141" lon="9.424013">
        <ele>404.309</ele>
        <time>2022-07-11T14:45:52Z</time>
      </trkpt>
      <trkpt lat="46.325210" lon="9.424048">
        <ele>405.886</ele>
        <time>2022-07-11T14:45:55Z</time>
      </trkpt>
      <trkpt lat="46.325570" lon="9.424104">
        <ele>405.885</ele>
        <time>2022-07-11T14:46:07Z</time>
      </trkpt>
      <trkpt lat="46.325910" lon="9.423656">
        <ele>406.793</ele>
        <time>2022-07-11T14:46:21Z</time>
      </trkpt>
      <trkpt lat="46.326103" lon="9.423245">
        <ele>404.885</ele>
        <time>2022-07-11T14:46:28Z</time>
      </trkpt>
      <trkpt lat="46.326140" lon="9.423176">
        <ele>404.831</ele>
        <time>2022-07-11T14:46:29Z</time>
      </trkpt>
      <trkpt lat="46.326462" lon="9.422395">
        <ele>401.075</ele>
        <time>2022-07-11T14:46:38Z</time>
      </trkpt>
      <trkpt lat="46.326648" lon="9.421097">
        <ele>398.646</ele>
        <time>2022-07-11T14:46:52Z</time>
      </trkpt>
      <trkpt lat="46.326623" lon="9.420136">
        <ele>396.664</ele>
        <time>2022-07-11T14:47:03Z</time>
      </trkpt>
      <trkpt lat="46.326608" lon="9.420077">
        <ele>396.628</ele>
        <time>2022-07-11T14:47:04Z</time>
      </trkpt>
      <trkpt lat="46.326579" lon="9.420026">
        <ele>396.695</ele>
        <time>2022-07-11T14:47:05Z</time>
      </trkpt>
      <trkpt lat="46.326554" lon="9.420003">
        <ele>396.649</ele>
        <time>2022-07-11T14:47:06Z</time>
      </trkpt>
      <trkpt lat="46.326516" lon="9.419990">
        <ele>397.623</ele>
        <time>2022-07-11T14:47:07Z</time>
      </trkpt>
      <trkpt lat="46.326489" lon="9.419996">
        <ele>397.609</ele>
        <time>2022-07-11T14:47:08Z</time>
      </trkpt>
      <trkpt lat="46.326463" lon="9.420002">
        <ele>398.660</ele>
        <time>2022-07-11T14:47:09Z</time>
      </trkpt>
      <trkpt lat="46.326410" lon="9.419987">
        <ele>399.039</ele>
        <time>2022-07-11T14:47:11Z</time>
      </trkpt>
      <trkpt lat="46.326379" lon="9.419950">
        <ele>399.027</ele>
        <time>2022-07-11T14:47:12Z</time>
      </trkpt>
      <trkpt lat="46.326343" lon="9.419874">
        <ele>396.689</ele>
        <time>2022-07-11T14:47:13Z</time>
      </trkpt>
      <trkpt lat="46.326328" lon="9.419823">
        <ele>396.625</ele>
        <time>2022-07-11T14:47:14Z</time>
      </trkpt>
      <trkpt lat="46.326315" lon="9.419752">
        <ele>396.619</ele>
        <time>2022-07-11T14:47:15Z</time>
      </trkpt>
      <trkpt lat="46.326308" lon="9.419680">
        <ele>396.640</ele>
        <time>2022-07-11T14:47:16Z</time>
      </trkpt>
      <trkpt lat="46.326304" lon="9.419602">
        <ele>396.648</ele>
        <time>2022-07-11T14:47:17Z</time>
      </trkpt>
      <trkpt lat="46.326272" lon="9.418986">
        <ele>393.322</ele>
        <time>2022-07-11T14:47:24Z</time>
      </trkpt>
      <trkpt lat="46.326327" lon="9.417646">
        <ele>392.346</ele>
        <time>2022-07-11T14:47:39Z</time>
      </trkpt>
      <trkpt lat="46.326388" lon="9.417296">
        <ele>391.888</ele>
        <time>2022-07-11T14:47:44Z</time>
      </trkpt>
      <trkpt lat="46.326446" lon="9.416903">
        <ele>389.916</ele>
        <time>2022-07-11T14:47:49Z</time>
      </trkpt>
      <trkpt lat="46.326466" lon="9.416812">
        <ele>389.909</ele>
        <time>2022-07-11T14:47:50Z</time>
      </trkpt>
      <trkpt lat="46.326480" lon="9.416719">
        <ele>389.435</ele>
        <time>2022-07-11T14:47:51Z</time>
      </trkpt>
      <trkpt lat="46.326485" lon="9.416618">
        <ele>389.454</ele>
        <time>2022-07-11T14:47:52Z</time>
      </trkpt>
      <trkpt lat="46.326485" lon="9.416520">
        <ele>388.592</ele>
        <time>2022-07-11T14:47:53Z</time>
      </trkpt>
      <trkpt lat="46.326488" lon="9.416425">
        <ele>388.564</ele>
        <time>2022-07-11T14:47:54Z</time>
      </trkpt>
      <trkpt lat="46.326496" lon="9.416329">
        <ele>388.590</ele>
        <time>2022-07-11T14:47:55Z</time>
      </trkpt>
      <trkpt lat="46.326508" lon="9.416233">
        <ele>388.514</ele>
        <time>2022-07-11T14:47:56Z</time>
      </trkpt>
      <trkpt lat="46.326725" lon="9.414812">
        <ele>386.585</ele>
        <time>2022-07-11T14:48:12Z</time>
      </trkpt>
      <trkpt lat="46.326733" lon="9.414288">
        <ele>385.623</ele>
        <time>2022-07-11T14:48:19Z</time>
      </trkpt>
      <trkpt lat="46.326724" lon="9.414212">
        <ele>385.627</ele>
        <time>2022-07-11T14:48:20Z</time>
      </trkpt>
      <trkpt lat="46.326655" lon="9.413767">
        <ele>384.618</ele>
        <time>2022-07-11T14:48:26Z</time>
      </trkpt>
      <trkpt lat="46.326560" lon="9.412946">
        <ele>384.698</ele>
        <time>2022-07-11T14:48:37Z</time>
      </trkpt>
      <trkpt lat="46.326503" lon="9.412340">
        <ele>381.317</ele>
        <time>2022-07-11T14:48:44Z</time>
      </trkpt>
      <trkpt lat="46.326472" lon="9.411888">
        <ele>383.209</ele>
        <time>2022-07-11T14:48:50Z</time>
      </trkpt>
      <trkpt lat="46.326479" lon="9.411825">
        <ele>383.262</ele>
        <time>2022-07-11T14:48:51Z</time>
      </trkpt>
      <trkpt lat="46.326576" lon="9.411299">
        <ele>385.641</ele>
        <time>2022-07-11T14:49:04Z</time>
      </trkpt>
      <trkpt lat="46.326585" lon="9.410730">
        <ele>386.149</ele>
        <time>2022-07-11T14:49:18Z</time>
      </trkpt>
      <trkpt lat="46.326591" lon="9.410676">
        <ele>386.111</ele>
        <time>2022-07-11T14:49:19Z</time>
      </trkpt>
      <trkpt lat="46.326609" lon="9.410609">
        <ele>386.137</ele>
        <time>2022-07-11T14:49:20Z</time>
      </trkpt>
      <trkpt lat="46.326627" lon="9.410545">
        <ele>384.161</ele>
        <time>2022-07-11T14:49:21Z</time>
      </trkpt>
      <trkpt lat="46.326645" lon="9.410467">
        <ele>383.782</ele>
        <time>2022-07-11T14:49:22Z</time>
      </trkpt>
      <trkpt lat="46.326653" lon="9.410392">
        <ele>383.750</ele>
        <time>2022-07-11T14:49:23Z</time>
      </trkpt>
      <trkpt lat="46.326654" lon="9.410326">
        <ele>383.294</ele>
        <time>2022-07-11T14:49:24Z</time>
      </trkpt>
      <trkpt lat="46.326648" lon="9.410243">
        <ele>383.242</ele>
        <time>2022-07-11T14:49:25Z</time>
      </trkpt>
      <trkpt lat="46.326638" lon="9.410161">
        <ele>382.222</ele>
        <time>2022-07-11T14:49:26Z</time>
      </trkpt>
      <trkpt lat="46.326626" lon="9.410104">
        <ele>382.214</ele>
        <time>2022-07-11T14:49:27Z</time>
      </trkpt>
      <trkpt lat="46.326603" lon="9.410026">
        <ele>381.309</ele>
        <time>2022-07-11T14:49:28Z</time>
      </trkpt>
      <trkpt lat="46.326578" lon="9.409958">
        <ele>380.825</ele>
        <time>2022-07-11T14:49:29Z</time>
      </trkpt>
      <trkpt lat="46.326554" lon="9.409903">
        <ele>380.314</ele>
        <time>2022-07-11T14:49:30Z</time>
      </trkpt>
      <trkpt lat="46.326524" lon="9.409839">
        <ele>379.362</ele>
        <time>2022-07-11T14:49:31Z</time>
      </trkpt>
      <trkpt lat="46.326507" lon="9.409782">
        <ele>379.314</ele>
        <time>2022-07-11T14:49:32Z</time>
      </trkpt>
      <trkpt lat="46.326490" lon="9.409730">
        <ele>378.920</ele>
        <time>2022-07-11T14:49:33Z</time>
      </trkpt>
      <trkpt lat="46.326470" lon="9.409700">
        <ele>378.924</ele>
        <time>2022-07-11T14:49:34Z</time>
      </trkpt>
      <trkpt lat="46.326436" lon="9.409689">
        <ele>378.465</ele>
        <time>2022-07-11T14:49:35Z</time>
      </trkpt>
      <trkpt lat="46.326403" lon="9.409707">
        <ele>377.973</ele>
        <time>2022-07-11T14:49:36Z</time>
      </trkpt>
      <trkpt lat="46.326371" lon="9.409739">
        <ele>376.957</ele>
        <time>2022-07-11T14:49:37Z</time>
      </trkpt>
      <trkpt lat="46.326331" lon="9.409773">
        <ele>376.461</ele>
        <time>2022-07-11T14:49:38Z</time>
      </trkpt>
      <trkpt lat="46.326293" lon="9.409786">
        <ele>376.021</ele>
        <time>2022-07-11T14:49:39Z</time>
      </trkpt>
      <trkpt lat="46.326254" lon="9.409793">
        <ele>375.513</ele>
        <time>2022-07-11T14:49:40Z</time>
      </trkpt>
      <trkpt lat="46.326216" lon="9.409818">
        <ele>375.009</ele>
        <time>2022-07-11T14:49:41Z</time>
      </trkpt>
      <trkpt lat="46.326182" lon="9.409862">
        <ele>374.017</ele>
        <time>2022-07-11T14:49:42Z</time>
      </trkpt>
      <trkpt lat="46.326154" lon="9.409908">
        <ele>374.016</ele>
        <time>2022-07-11T14:49:43Z</time>
      </trkpt>
      <trkpt lat="46.326129" lon="9.409954">
        <ele>373.634</ele>
        <time>2022-07-11T14:49:44Z</time>
      </trkpt>
      <trkpt lat="46.326082" lon="9.410060">
        <ele>372.636</ele>
        <time>2022-07-11T14:49:46Z</time>
      </trkpt>
      <trkpt lat="46.326061" lon="9.410119">
        <ele>372.622</ele>
        <time>2022-07-11T14:49:47Z</time>
      </trkpt>
      <trkpt lat="46.326034" lon="9.410173">
        <ele>372.176</ele>
        <time>2022-07-11T14:49:48Z</time>
      </trkpt>
      <trkpt lat="46.326000" lon="9.410215">
        <ele>372.147</ele>
        <time>2022-07-11T14:49:49Z</time>
      </trkpt>
      <trkpt lat="46.325965" lon="9.410243">
        <ele>371.275</ele>
        <time>2022-07-11T14:49:50Z</time>
      </trkpt>
      <trkpt lat="46.325931" lon="9.410249">
        <ele>371.269</ele>
        <time>2022-07-11T14:49:51Z</time>
      </trkpt>
      <trkpt lat="46.325905" lon="9.410235">
        <ele>371.255</ele>
        <time>2022-07-11T14:49:52Z</time>
      </trkpt>
      <trkpt lat="46.325885" lon="9.410208">
        <ele>370.707</ele>
        <time>2022-07-11T14:49:53Z</time>
      </trkpt>
      <trkpt lat="46.325865" lon="9.410175">
        <ele>370.717</ele>
        <time>2022-07-11T14:49:54Z</time>
      </trkpt>
      <trkpt lat="46.325839" lon="9.410146">
        <ele>370.709</ele>
        <time>2022-07-11T14:49:55Z</time>
      </trkpt>
      <trkpt lat="46.325806" lon="9.410121">
        <ele>370.256</ele>
        <time>2022-07-11T14:49:56Z</time>
      </trkpt>
      <trkpt lat="46.325772" lon="9.410097">
        <ele>370.255</ele>
        <time>2022-07-11T14:49:57Z</time>
      </trkpt>
      <trkpt lat="46.325706" lon="9.410029">
        <ele>369.763</ele>
        <time>2022-07-11T14:49:59Z</time>
      </trkpt>
      <trkpt lat="46.325634" lon="9.409933">
        <ele>368.875</ele>
        <time>2022-07-11T14:50:01Z</time>
      </trkpt>
      <trkpt lat="46.325593" lon="9.409883">
        <ele>368.861</ele>
        <time>2022-07-11T14:50:02Z</time>
      </trkpt>
      <trkpt lat="46.325545" lon="9.409838">
        <ele>368.845</ele>
        <time>2022-07-11T14:50:03Z</time>
      </trkpt>
      <trkpt lat="46.325399" lon="9.409697">
        <ele>368.366</ele>
        <time>2022-07-11T14:50:06Z</time>
      </trkpt>
      <trkpt lat="46.325325" lon="9.409612">
        <ele>368.314</ele>
        <time>2022-07-11T14:50:08Z</time>
      </trkpt>
      <trkpt lat="46.325293" lon="9.409563">
        <ele>368.368</ele>
        <time>2022-07-11T14:50:09Z</time>
      </trkpt>
      <trkpt lat="46.325261" lon="9.409516">
        <ele>368.322</ele>
        <time>2022-07-11T14:50:10Z</time>
      </trkpt>
      <trkpt lat="46.325223" lon="9.409478">
        <ele>368.362</ele>
        <time>2022-07-11T14:50:11Z</time>
      </trkpt>
      <trkpt lat="46.325188" lon="9.409463">
        <ele>368.308</ele>
        <time>2022-07-11T14:50:12Z</time>
      </trkpt>
      <trkpt lat="46.325151" lon="9.409460">
        <ele>367.809</ele>
        <time>2022-07-11T14:50:13Z</time>
      </trkpt>
      <trkpt lat="46.325113" lon="9.409452">
        <ele>367.853</ele>
        <time>2022-07-11T14:50:14Z</time>
      </trkpt>
      <trkpt lat="46.325078" lon="9.409441">
        <ele>367.872</ele>
        <time>2022-07-11T14:50:15Z</time>
      </trkpt>
      <trkpt lat="46.325028" lon="9.409397">
        <ele>367.890</ele>
        <time>2022-07-11T14:50:17Z</time>
      </trkpt>
      <trkpt lat="46.324919" lon="9.409154">
        <ele>366.492</ele>
        <time>2022-07-11T14:50:22Z</time>
      </trkpt>
      <trkpt lat="46.324908" lon="9.409095">
        <ele>366.498</ele>
        <time>2022-07-11T14:50:23Z</time>
      </trkpt>
      <trkpt lat="46.324904" lon="9.409028">
        <ele>366.472</ele>
        <time>2022-07-11T14:50:24Z</time>
      </trkpt>
      <trkpt lat="46.324899" lon="9.408965">
        <ele>366.473</ele>
        <time>2022-07-11T14:50:25Z</time>
      </trkpt>
      <trkpt lat="46.324897" lon="9.408907">
        <ele>366.461</ele>
        <time>2022-07-11T14:50:26Z</time>
      </trkpt>
      <trkpt lat="46.324756" lon="9.408155">
        <ele>365.495</ele>
        <time>2022-07-11T14:50:40Z</time>
      </trkpt>
      <trkpt lat="46.324581" lon="9.407503">
        <ele>364.069</ele>
        <time>2022-07-11T14:50:54Z</time>
      </trkpt>
      <trkpt lat="46.324562" lon="9.407447">
        <ele>364.004</ele>
        <time>2022-07-11T14:50:55Z</time>
      </trkpt>
      <trkpt lat="46.324360" lon="9.406741">
        <ele>362.024</ele>
        <time>2022-07-11T14:51:05Z</time>
      </trkpt>
      <trkpt lat="46.324329" lon="9.406675">
        <ele>362.009</ele>
        <time>2022-07-11T14:51:06Z</time>
      </trkpt>
      <trkpt lat="46.324292" lon="9.406613">
        <ele>362.077</ele>
        <time>2022-07-11T14:51:07Z</time>
      </trkpt>
      <trkpt lat="46.324002" lon="9.406283">
        <ele>360.656</ele>
        <time>2022-07-11T14:51:17Z</time>
      </trkpt>
      <trkpt lat="46.323787" lon="9.406160">
        <ele>360.644</ele>
        <time>2022-07-11T14:51:26Z</time>
      </trkpt>
      <trkpt lat="46.323705" lon="9.405980">
        <ele>359.196</ele>
        <time>2022-07-11T14:51:30Z</time>
      </trkpt>
      <trkpt lat="46.323660" lon="9.405932">
        <ele>359.162</ele>
        <time>2022-07-11T14:51:31Z</time>
      </trkpt>
      <trkpt lat="46.323615" lon="9.405901">
        <ele>358.786</ele>
        <time>2022-07-11T14:51:32Z</time>
      </trkpt>
      <trkpt lat="46.323570" lon="9.405880">
        <ele>358.747</ele>
        <time>2022-07-11T14:51:33Z</time>
      </trkpt>
      <trkpt lat="46.323526" lon="9.405858">
        <ele>358.725</ele>
        <time>2022-07-11T14:51:34Z</time>
      </trkpt>
      <trkpt lat="46.323482" lon="9.405832">
        <ele>358.799</ele>
        <time>2022-07-11T14:51:35Z</time>
      </trkpt>
      <trkpt lat="46.322996" lon="9.405565">
        <ele>358.212</ele>
        <time>2022-07-11T14:51:50Z</time>
      </trkpt>
      <trkpt lat="46.322907" lon="9.405503">
        <ele>358.232</ele>
        <time>2022-07-11T14:52:10Z</time>
      </trkpt>
      <trkpt lat="46.322909" lon="9.405494">
        <ele>358.205</ele>
        <time>2022-07-11T14:52:25Z</time>
      </trkpt>
      <trkpt lat="46.322914" lon="9.405505">
        <ele>357.709</ele>
        <time>2022-07-11T14:52:51Z</time>
      </trkpt>
      <trkpt lat="46.322905" lon="9.405521">
        <ele>357.292</ele>
        <time>2022-07-11T14:53:19Z</time>
      </trkpt>
      <trkpt lat="46.322907" lon="9.405519">
        <ele>357.211</ele>
        <time>2022-07-11T14:53:38Z</time>
      </trkpt>
      <trkpt lat="46.322834" lon="9.405458">
        <ele>357.259</ele>
        <time>2022-07-11T14:53:53Z</time>
      </trkpt>
      <trkpt lat="46.322722" lon="9.405379">
        <ele>356.791</ele>
        <time>2022-07-11T14:53:58Z</time>
      </trkpt>
      <trkpt lat="46.322489" lon="9.405149">
        <ele>355.817</ele>
        <time>2022-07-11T14:54:08Z</time>
      </trkpt>
      <trkpt lat="46.322029" lon="9.404659">
        <ele>354.311</ele>
        <time>2022-07-11T14:54:23Z</time>
      </trkpt>
      <trkpt lat="46.321940" lon="9.404577">
        <ele>353.992</ele>
        <time>2022-07-11T14:54:26Z</time>
      </trkpt>
      <trkpt lat="46.321672" lon="9.404305">
        <ele>352.940</ele>
        <time>2022-07-11T14:54:34Z</time>
      </trkpt>
      <trkpt lat="46.321604" lon="9.404228">
        <ele>352.444</ele>
        <time>2022-07-11T14:54:36Z</time>
      </trkpt>
      <trkpt lat="46.321402" lon="9.403903">
        <ele>351.517</ele>
        <time>2022-07-11T14:54:43Z</time>
      </trkpt>
      <trkpt lat="46.321371" lon="9.403857">
        <ele>351.587</ele>
        <time>2022-07-11T14:54:44Z</time>
      </trkpt>
      <trkpt lat="46.321343" lon="9.403804">
        <ele>351.515</ele>
        <time>2022-07-11T14:54:45Z</time>
      </trkpt>
      <trkpt lat="46.321319" lon="9.403750">
        <ele>351.509</ele>
        <time>2022-07-11T14:54:46Z</time>
      </trkpt>
      <trkpt lat="46.321294" lon="9.403701">
        <ele>351.522</ele>
        <time>2022-07-11T14:54:47Z</time>
      </trkpt>
      <trkpt lat="46.321270" lon="9.403660">
        <ele>351.011</ele>
        <time>2022-07-11T14:54:48Z</time>
      </trkpt>
      <trkpt lat="46.321127" lon="9.403357">
        <ele>350.559</ele>
        <time>2022-07-11T14:55:00Z</time>
      </trkpt>
      <trkpt lat="46.321078" lon="9.403269">
        <ele>350.041</ele>
        <time>2022-07-11T14:55:10Z</time>
      </trkpt>
      <trkpt lat="46.321069" lon="9.403247">
        <ele>350.097</ele>
        <time>2022-07-11T14:55:11Z</time>
      </trkpt>
      <trkpt lat="46.321061" lon="9.403219">
        <ele>350.051</ele>
        <time>2022-07-11T14:55:12Z</time>
      </trkpt>
      <trkpt lat="46.320950" lon="9.402835">
        <ele>349.512</ele>
        <time>2022-07-11T14:55:27Z</time>
      </trkpt>
      <trkpt lat="46.320749" lon="9.402321">
        <ele>348.690</ele>
        <time>2022-07-11T14:55:42Z</time>
      </trkpt>
      <trkpt lat="46.320489" lon="9.401688">
        <ele>347.164</ele>
        <time>2022-07-11T14:56:00Z</time>
      </trkpt>
      <trkpt lat="46.320355" lon="9.401390">
        <ele>346.614</ele>
        <time>2022-07-11T14:56:16Z</time>
      </trkpt>
      <trkpt lat="46.320203" lon="9.401138">
        <ele>345.754</ele>
        <time>2022-07-11T14:56:30Z</time>
      </trkpt>
      <trkpt lat="46.320114" lon="9.400877">
        <ele>345.709</ele>
        <time>2022-07-11T14:56:39Z</time>
      </trkpt>
      <trkpt lat="46.320132" lon="9.400850">
        <ele>345.709</ele>
        <time>2022-07-11T14:56:40Z</time>
      </trkpt>
      <trkpt lat="46.320145" lon="9.400824">
        <ele>345.742</ele>
        <time>2022-07-11T14:56:41Z</time>
      </trkpt>
      <trkpt lat="46.320163" lon="9.400792">
        <ele>345.761</ele>
        <time>2022-07-11T14:56:42Z</time>
      </trkpt>
      <trkpt lat="46.320180" lon="9.400752">
        <ele>345.299</ele>
        <time>2022-07-11T14:56:43Z</time>
      </trkpt>
      <trkpt lat="46.320194" lon="9.400710">
        <ele>345.231</ele>
        <time>2022-07-11T14:56:44Z</time>
      </trkpt>
      <trkpt lat="46.320204" lon="9.400671">
        <ele>345.257</ele>
        <time>2022-07-11T14:56:45Z</time>
      </trkpt>
      <trkpt lat="46.320252" lon="9.400380">
        <ele>344.711</ele>
        <time>2022-07-11T14:56:56Z</time>
      </trkpt>
      <trkpt lat="46.320234" lon="9.400270">
        <ele>344.792</ele>
        <time>2022-07-11T14:57:07Z</time>
      </trkpt>
      <trkpt lat="46.320250" lon="9.400261">
        <ele>344.280</ele>
        <time>2022-07-11T14:57:12Z</time>
      </trkpt>
      <trkpt lat="46.320257" lon="9.400246">
        <ele>344.234</ele>
        <time>2022-07-11T14:57:13Z</time>
      </trkpt>
      <trkpt lat="46.320259" lon="9.400231">
        <ele>344.272</ele>
        <time>2022-07-11T14:57:14Z</time>
      </trkpt>
      <trkpt lat="46.320258" lon="9.400215">
        <ele>344.213</ele>
        <time>2022-07-11T14:57:15Z</time>
      </trkpt>
      <trkpt lat="46.320255" lon="9.400199">
        <ele>344.214</ele>
        <time>2022-07-11T14:57:16Z</time>
      </trkpt>
      <trkpt lat="46.320255" lon="9.400181">
        <ele>344.209</ele>
        <time>2022-07-11T14:57:17Z</time>
      </trkpt>
      <trkpt lat="46.320259" lon="9.400157">
        <ele>344.288</ele>
        <time>2022-07-11T14:57:18Z</time>
      </trkpt>
      <trkpt lat="46.320266" lon="9.400131">
        <ele>344.277</ele>
        <time>2022-07-11T14:57:19Z</time>
      </trkpt>
      <trkpt lat="46.320274" lon="9.400103">
        <ele>344.255</ele>
        <time>2022-07-11T14:57:20Z</time>
      </trkpt>
      <trkpt lat="46.320285" lon="9.400068">
        <ele>344.257</ele>
        <time>2022-07-11T14:57:21Z</time>
      </trkpt>
      <trkpt lat="46.320429" lon="9.399796">
        <ele>344.243</ele>
        <time>2022-07-11T14:57:34Z</time>
      </trkpt>
      <trkpt lat="46.320411" lon="9.399764">
        <ele>344.237</ele>
        <time>2022-07-11T14:59:21Z</time>
      </trkpt>
      <trkpt lat="46.320391" lon="9.399762">
        <ele>344.218</ele>
        <time>2022-07-11T14:59:22Z</time>
      </trkpt>
      <trkpt lat="46.320376" lon="9.399752">
        <ele>344.226</ele>
        <time>2022-07-11T14:59:23Z</time>
      </trkpt>
      <trkpt lat="46.320362" lon="9.399731">
        <ele>344.280</ele>
        <time>2022-07-11T14:59:24Z</time>
      </trkpt>
      <trkpt lat="46.320353" lon="9.399716">
        <ele>344.282</ele>
        <time>2022-07-11T14:59:25Z</time>
      </trkpt>
      <trkpt lat="46.320273" lon="9.399602">
        <ele>345.743</ele>
        <time>2022-07-11T14:59:31Z</time>
      </trkpt>
      <trkpt lat="46.320090" lon="9.399220">
        <ele>347.617</ele>
        <time>2022-07-11T14:59:48Z</time>
      </trkpt>
      <trkpt lat="46.319863" lon="9.398771">
        <ele>346.209</ele>
        <time>2022-07-11T15:00:01Z</time>
      </trkpt>
      <trkpt lat="46.319844" lon="9.398727">
        <ele>346.249</ele>
        <time>2022-07-11T15:00:03Z</time>
      </trkpt>
      <trkpt lat="46.319836" lon="9.398703">
        <ele>346.298</ele>
        <time>2022-07-11T15:00:04Z</time>
      </trkpt>
      <trkpt lat="46.319823" lon="9.398671">
        <ele>346.266</ele>
        <time>2022-07-11T15:00:05Z</time>
      </trkpt>
      <trkpt lat="46.319801" lon="9.398635">
        <ele>345.788</ele>
        <time>2022-07-11T15:00:06Z</time>
      </trkpt>
      <trkpt lat="46.319774" lon="9.398596">
        <ele>345.724</ele>
        <time>2022-07-11T15:00:07Z</time>
      </trkpt>
      <trkpt lat="46.319572" lon="9.398273">
        <ele>344.728</ele>
        <time>2022-07-11T15:00:15Z</time>
      </trkpt>
      <trkpt lat="46.319455" lon="9.398043">
        <ele>343.879</ele>
        <time>2022-07-11T15:00:19Z</time>
      </trkpt>
      <trkpt lat="46.319432" lon="9.397990">
        <ele>343.397</ele>
        <time>2022-07-11T15:00:20Z</time>
      </trkpt>
      <trkpt lat="46.319403" lon="9.397930">
        <ele>343.321</ele>
        <time>2022-07-11T15:00:21Z</time>
      </trkpt>
      <trkpt lat="46.319346" lon="9.397816">
        <ele>342.893</ele>
        <time>2022-07-11T15:00:23Z</time>
      </trkpt>
      <trkpt lat="46.319135" lon="9.397380">
        <ele>341.465</ele>
        <time>2022-07-11T15:00:30Z</time>
      </trkpt>
      <trkpt lat="46.319040" lon="9.397170">
        <ele>340.921</ele>
        <time>2022-07-11T15:00:33Z</time>
      </trkpt>
      <trkpt lat="46.318982" lon="9.397102">
        <ele>340.909</ele>
        <time>2022-07-11T15:00:34Z</time>
      </trkpt>
      <trkpt lat="46.318930" lon="9.397063">
        <ele>340.910</ele>
        <time>2022-07-11T15:00:35Z</time>
      </trkpt>
      <trkpt lat="46.318879" lon="9.397024">
        <ele>340.499</ele>
        <time>2022-07-11T15:00:36Z</time>
      </trkpt>
      <trkpt lat="46.318823" lon="9.396977">
        <ele>339.947</ele>
        <time>2022-07-11T15:00:37Z</time>
      </trkpt>
      <trkpt lat="46.318764" lon="9.396921">
        <ele>339.059</ele>
        <time>2022-07-11T15:00:38Z</time>
      </trkpt>
      <trkpt lat="46.318020" lon="9.396220">
        <ele>337.055</ele>
        <time>2022-07-11T15:00:51Z</time>
      </trkpt>
      <trkpt lat="46.317463" lon="9.395753">
        <ele>335.149</ele>
        <time>2022-07-11T15:01:02Z</time>
      </trkpt>
      <trkpt lat="46.317175" lon="9.395382">
        <ele>333.720</ele>
        <time>2022-07-11T15:01:09Z</time>
      </trkpt>
      <trkpt lat="46.317114" lon="9.395272">
        <ele>333.728</ele>
        <time>2022-07-11T15:01:11Z</time>
      </trkpt>
      <trkpt lat="46.317080" lon="9.395230">
        <ele>333.792</ele>
        <time>2022-07-11T15:01:12Z</time>
      </trkpt>
      <trkpt lat="46.317033" lon="9.395190">
        <ele>333.769</ele>
        <time>2022-07-11T15:01:13Z</time>
      </trkpt>
      <trkpt lat="46.316878" lon="9.395072">
        <ele>332.704</ele>
        <time>2022-07-11T15:01:16Z</time>
      </trkpt>
      <trkpt lat="46.316042" lon="9.394319">
        <ele>330.324</ele>
        <time>2022-07-11T15:01:33Z</time>
      </trkpt>
      <trkpt lat="46.315746" lon="9.394035">
        <ele>331.309</ele>
        <time>2022-07-11T15:01:41Z</time>
      </trkpt>
      <trkpt lat="46.315709" lon="9.394002">
        <ele>331.347</ele>
        <time>2022-07-11T15:01:42Z</time>
      </trkpt>
      <trkpt lat="46.315677" lon="9.393967">
        <ele>331.356</ele>
        <time>2022-07-11T15:01:43Z</time>
      </trkpt>
      <trkpt lat="46.315025" lon="9.393272">
        <ele>328.974</ele>
        <time>2022-07-11T15:02:01Z</time>
      </trkpt>
      <trkpt lat="46.314950" lon="9.393188">
        <ele>328.956</ele>
        <time>2022-07-11T15:02:03Z</time>
      </trkpt>
      <trkpt lat="46.314389" lon="9.392536">
        <ele>327.932</ele>
        <time>2022-07-11T15:02:17Z</time>
      </trkpt>
      <trkpt lat="46.313846" lon="9.391869">
        <ele>326.976</ele>
        <time>2022-07-11T15:02:31Z</time>
      </trkpt>
      <trkpt lat="46.313176" lon="9.391024">
        <ele>324.547</ele>
        <time>2022-07-11T15:02:46Z</time>
      </trkpt>
      <trkpt lat="46.312828" lon="9.390427">
        <ele>324.585</ele>
        <time>2022-07-11T15:02:58Z</time>
      </trkpt>
      <trkpt lat="46.312691" lon="9.390304">
        <ele>326.939</ele>
        <time>2022-07-11T15:03:04Z</time>
      </trkpt>
      <trkpt lat="46.312674" lon="9.390262">
        <ele>324.551</ele>
        <time>2022-07-11T15:07:23Z</time>
      </trkpt>
      <trkpt lat="46.312661" lon="9.390235">
        <ele>324.501</ele>
        <time>2022-07-11T15:07:24Z</time>
      </trkpt>
      <trkpt lat="46.312653" lon="9.390204">
        <ele>324.511</ele>
        <time>2022-07-11T15:07:25Z</time>
      </trkpt>
      <trkpt lat="46.312644" lon="9.390170">
        <ele>325.009</ele>
        <time>2022-07-11T15:07:26Z</time>
      </trkpt>
      <trkpt lat="46.312402" lon="9.389524">
        <ele>325.046</ele>
        <time>2022-07-11T15:07:42Z</time>
      </trkpt>
      <trkpt lat="46.312375" lon="9.389530">
        <ele>325.045</ele>
        <time>2022-07-11T15:07:43Z</time>
      </trkpt>
      <trkpt lat="46.312347" lon="9.389567">
        <ele>325.083</ele>
        <time>2022-07-11T15:07:44Z</time>
      </trkpt>
      <trkpt lat="46.312336" lon="9.389584">
        <ele>325.095</ele>
        <time>2022-07-11T15:07:45Z</time>
      </trkpt>
      <trkpt lat="46.312312" lon="9.389616">
        <ele>325.081</ele>
        <time>2022-07-11T15:07:46Z</time>
      </trkpt>
      <trkpt lat="46.312282" lon="9.389647">
        <ele>325.095</ele>
        <time>2022-07-11T15:07:47Z</time>
      </trkpt>
      <trkpt lat="46.312243" lon="9.389680">
        <ele>325.096</ele>
        <time>2022-07-11T15:07:48Z</time>
      </trkpt>
      <trkpt lat="46.312206" lon="9.389708">
        <ele>325.054</ele>
        <time>2022-07-11T15:07:49Z</time>
      </trkpt>
      <trkpt lat="46.312116" lon="9.389776">
        <ele>323.628</ele>
        <time>2022-07-11T15:07:51Z</time>
      </trkpt>
      <trkpt lat="46.311661" lon="9.390123">
        <ele>320.273</ele>
        <time>2022-07-11T15:07:59Z</time>
      </trkpt>
      <trkpt lat="46.311222" lon="9.390421">
        <ele>317.385</ele>
        <time>2022-07-11T15:08:05Z</time>
      </trkpt>
      <trkpt lat="46.310993" lon="9.390530">
        <ele>316.813</ele>
        <time>2022-07-11T15:08:08Z</time>
      </trkpt>
      <trkpt lat="46.310913" lon="9.390554">
        <ele>316.409</ele>
        <time>2022-07-11T15:08:09Z</time>
      </trkpt>
      <trkpt lat="46.310830" lon="9.390565">
        <ele>315.458</ele>
        <time>2022-07-11T15:08:10Z</time>
      </trkpt>
      <trkpt lat="46.310740" lon="9.390562">
        <ele>314.997</ele>
        <time>2022-07-11T15:08:11Z</time>
      </trkpt>
      <trkpt lat="46.310655" lon="9.390549">
        <ele>314.495</ele>
        <time>2022-07-11T15:08:12Z</time>
      </trkpt>
      <trkpt lat="46.310569" lon="9.390538">
        <ele>314.047</ele>
        <time>2022-07-11T15:08:13Z</time>
      </trkpt>
      <trkpt lat="46.310478" lon="9.390542">
        <ele>313.543</ele>
        <time>2022-07-11T15:08:14Z</time>
      </trkpt>
      <trkpt lat="46.310393" lon="9.390544">
        <ele>313.077</ele>
        <time>2022-07-11T15:08:15Z</time>
      </trkpt>
      <trkpt lat="46.310310" lon="9.390523">
        <ele>313.068</ele>
        <time>2022-07-11T15:08:16Z</time>
      </trkpt>
      <trkpt lat="46.310229" lon="9.390479">
        <ele>313.056</ele>
        <time>2022-07-11T15:08:17Z</time>
      </trkpt>
      <trkpt lat="46.310152" lon="9.390427">
        <ele>312.070</ele>
        <time>2022-07-11T15:08:18Z</time>
      </trkpt>
      <trkpt lat="46.309386" lon="9.390108">
        <ele>309.243</ele>
        <time>2022-07-11T15:08:28Z</time>
      </trkpt>
      <trkpt lat="46.308663" lon="9.389996">
        <ele>308.264</ele>
        <time>2022-07-11T15:08:38Z</time>
      </trkpt>
      <trkpt lat="46.308588" lon="9.390003">
        <ele>307.710</ele>
        <time>2022-07-11T15:08:39Z</time>
      </trkpt>
      <trkpt lat="46.307841" lon="9.390301">
        <ele>305.309</ele>
        <time>2022-07-11T15:08:49Z</time>
      </trkpt>
      <trkpt lat="46.307781" lon="9.390369">
        <ele>305.335</ele>
        <time>2022-07-11T15:08:50Z</time>
      </trkpt>
      <trkpt lat="46.307724" lon="9.390427">
        <ele>304.334</ele>
        <time>2022-07-11T15:08:51Z</time>
      </trkpt>
      <trkpt lat="46.307661" lon="9.390452">
        <ele>304.352</ele>
        <time>2022-07-11T15:08:52Z</time>
      </trkpt>
      <trkpt lat="46.307612" lon="9.390426">
        <ele>304.384</ele>
        <time>2022-07-11T15:08:53Z</time>
      </trkpt>
      <trkpt lat="46.307576" lon="9.390364">
        <ele>304.350</ele>
        <time>2022-07-11T15:08:54Z</time>
      </trkpt>
      <trkpt lat="46.307552" lon="9.390296">
        <ele>304.324</ele>
        <time>2022-07-11T15:08:55Z</time>
      </trkpt>
      <trkpt lat="46.307530" lon="9.390228">
        <ele>304.345</ele>
        <time>2022-07-11T15:08:56Z</time>
      </trkpt>
      <trkpt lat="46.307424" lon="9.389957">
        <ele>304.333</ele>
        <time>2022-07-11T15:09:00Z</time>
      </trkpt>
      <trkpt lat="46.306794" lon="9.389102">
        <ele>302.477</ele>
        <time>2022-07-11T15:09:15Z</time>
      </trkpt>
      <trkpt lat="46.306551" lon="9.388797">
        <ele>301.587</ele>
        <time>2022-07-11T15:09:21Z</time>
      </trkpt>
      <trkpt lat="46.306500" lon="9.388759">
        <ele>301.542</ele>
        <time>2022-07-11T15:09:22Z</time>
      </trkpt>
      <trkpt lat="46.306436" lon="9.388739">
        <ele>301.026</ele>
        <time>2022-07-11T15:09:23Z</time>
      </trkpt>
      <trkpt lat="46.306377" lon="9.388739">
        <ele>300.509</ele>
        <time>2022-07-11T15:09:24Z</time>
      </trkpt>
      <trkpt lat="46.306312" lon="9.388744">
        <ele>300.539</ele>
        <time>2022-07-11T15:09:25Z</time>
      </trkpt>
      <trkpt lat="46.305474" lon="9.388632">
        <ele>298.688</ele>
        <time>2022-07-11T15:09:38Z</time>
      </trkpt>
      <trkpt lat="46.305407" lon="9.388603">
        <ele>298.636</ele>
        <time>2022-07-11T15:09:39Z</time>
      </trkpt>
      <trkpt lat="46.304555" lon="9.388074">
        <ele>296.258</ele>
        <time>2022-07-11T15:09:53Z</time>
      </trkpt>
      <trkpt lat="46.304506" lon="9.388012">
        <ele>296.244</ele>
        <time>2022-07-11T15:09:54Z</time>
      </trkpt>
      <trkpt lat="46.304465" lon="9.387944">
        <ele>296.218</ele>
        <time>2022-07-11T15:09:55Z</time>
      </trkpt>
      <trkpt lat="46.304435" lon="9.387870">
        <ele>296.229</ele>
        <time>2022-07-11T15:09:56Z</time>
      </trkpt>
      <trkpt lat="46.304415" lon="9.387793">
        <ele>296.267</ele>
        <time>2022-07-11T15:09:57Z</time>
      </trkpt>
      <trkpt lat="46.304403" lon="9.387715">
        <ele>296.261</ele>
        <time>2022-07-11T15:09:58Z</time>
      </trkpt>
      <trkpt lat="46.304395" lon="9.387638">
        <ele>296.295</ele>
        <time>2022-07-11T15:09:59Z</time>
      </trkpt>
      <trkpt lat="46.304384" lon="9.387564">
        <ele>295.749</ele>
        <time>2022-07-11T15:10:00Z</time>
      </trkpt>
      <trkpt lat="46.304362" lon="9.387495">
        <ele>295.723</ele>
        <time>2022-07-11T15:10:01Z</time>
      </trkpt>
      <trkpt lat="46.304326" lon="9.387427">
        <ele>295.709</ele>
        <time>2022-07-11T15:10:02Z</time>
      </trkpt>
      <trkpt lat="46.304026" lon="9.386930">
        <ele>294.330</ele>
        <time>2022-07-11T15:10:10Z</time>
      </trkpt>
      <trkpt lat="46.303979" lon="9.386873">
        <ele>294.379</ele>
        <time>2022-07-11T15:10:11Z</time>
      </trkpt>
      <trkpt lat="46.303881" lon="9.386782">
        <ele>293.827</ele>
        <time>2022-07-11T15:10:13Z</time>
      </trkpt>
      <trkpt lat="46.303816" lon="9.386752">
        <ele>293.319</ele>
        <time>2022-07-11T15:10:14Z</time>
      </trkpt>
      <trkpt lat="46.303771" lon="9.386743">
        <ele>293.325</ele>
        <time>2022-07-11T15:10:15Z</time>
      </trkpt>
      <trkpt lat="46.302962" lon="9.386558">
        <ele>293.319</ele>
        <time>2022-07-11T15:10:30Z</time>
      </trkpt>
      <trkpt lat="46.302788" lon="9.386492">
        <ele>292.820</ele>
        <time>2022-07-11T15:10:33Z</time>
      </trkpt>
      <trkpt lat="46.302730" lon="9.386452">
        <ele>292.858</ele>
        <time>2022-07-11T15:10:34Z</time>
      </trkpt>
      <trkpt lat="46.302684" lon="9.386396">
        <ele>291.992</ele>
        <time>2022-07-11T15:10:35Z</time>
      </trkpt>
      <trkpt lat="46.302653" lon="9.386327">
        <ele>291.972</ele>
        <time>2022-07-11T15:10:36Z</time>
      </trkpt>
      <trkpt lat="46.302633" lon="9.386252">
        <ele>291.913</ele>
        <time>2022-07-11T15:10:37Z</time>
      </trkpt>
      <trkpt lat="46.302618" lon="9.386178">
        <ele>291.914</ele>
        <time>2022-07-11T15:10:38Z</time>
      </trkpt>
      <trkpt lat="46.302553" lon="9.385866">
        <ele>291.909</ele>
        <time>2022-07-11T15:10:42Z</time>
      </trkpt>
      <trkpt lat="46.302525" lon="9.385786">
        <ele>291.918</ele>
        <time>2022-07-11T15:10:43Z</time>
      </trkpt>
      <trkpt lat="46.302493" lon="9.385711">
        <ele>291.987</ele>
        <time>2022-07-11T15:10:44Z</time>
      </trkpt>
      <trkpt lat="46.302144" lon="9.385040">
        <ele>289.975</ele>
        <time>2022-07-11T15:10:53Z</time>
      </trkpt>
      <trkpt lat="46.302092" lon="9.385005">
        <ele>289.957</ele>
        <time>2022-07-11T15:10:54Z</time>
      </trkpt>
      <trkpt lat="46.302033" lon="9.385004">
        <ele>289.913</ele>
        <time>2022-07-11T15:10:55Z</time>
      </trkpt>
      <trkpt lat="46.301980" lon="9.385028">
        <ele>289.977</ele>
        <time>2022-07-11T15:10:56Z</time>
      </trkpt>
      <trkpt lat="46.301930" lon="9.385062">
        <ele>289.988</ele>
        <time>2022-07-11T15:10:57Z</time>
      </trkpt>
      <trkpt lat="46.301877" lon="9.385094">
        <ele>289.966</ele>
        <time>2022-07-11T15:10:58Z</time>
      </trkpt>
      <trkpt lat="46.301714" lon="9.385179">
        <ele>289.490</ele>
        <time>2022-07-11T15:11:01Z</time>
      </trkpt>
      <trkpt lat="46.301663" lon="9.385210">
        <ele>289.473</ele>
        <time>2022-07-11T15:11:02Z</time>
      </trkpt>
      <trkpt lat="46.301606" lon="9.385228">
        <ele>289.485</ele>
        <time>2022-07-11T15:11:03Z</time>
      </trkpt>
      <trkpt lat="46.301556" lon="9.385214">
        <ele>289.413</ele>
        <time>2022-07-11T15:11:04Z</time>
      </trkpt>
      <trkpt lat="46.301514" lon="9.385167">
        <ele>289.409</ele>
        <time>2022-07-11T15:11:05Z</time>
      </trkpt>
      <trkpt lat="46.301481" lon="9.385107">
        <ele>289.498</ele>
        <time>2022-07-11T15:11:06Z</time>
      </trkpt>
      <trkpt lat="46.301451" lon="9.385041">
        <ele>289.457</ele>
        <time>2022-07-11T15:11:07Z</time>
      </trkpt>
      <trkpt lat="46.301275" lon="9.384690">
        <ele>289.045</ele>
        <time>2022-07-11T15:11:12Z</time>
      </trkpt>
      <trkpt lat="46.301228" lon="9.384632">
        <ele>288.547</ele>
        <time>2022-07-11T15:11:13Z</time>
      </trkpt>
      <trkpt lat="46.301170" lon="9.384583">
        <ele>288.553</ele>
        <time>2022-07-11T15:11:14Z</time>
      </trkpt>
      <trkpt lat="46.301119" lon="9.384536">
        <ele>287.557</ele>
        <time>2022-07-11T15:11:15Z</time>
      </trkpt>
      <trkpt lat="46.301075" lon="9.384470">
        <ele>287.528</ele>
        <time>2022-07-11T15:11:16Z</time>
      </trkpt>
      <trkpt lat="46.301044" lon="9.384384">
        <ele>287.536</ele>
        <time>2022-07-11T15:11:17Z</time>
      </trkpt>
      <trkpt lat="46.301024" lon="9.384291">
        <ele>287.570</ele>
        <time>2022-07-11T15:11:18Z</time>
      </trkpt>
      <trkpt lat="46.301006" lon="9.384199">
        <ele>286.656</ele>
        <time>2022-07-11T15:11:19Z</time>
      </trkpt>
      <trkpt lat="46.300820" lon="9.383462">
        <ele>286.159</ele>
        <time>2022-07-11T15:11:27Z</time>
      </trkpt>
      <trkpt lat="46.300788" lon="9.383394">
        <ele>286.114</ele>
        <time>2022-07-11T15:11:28Z</time>
      </trkpt>
      <trkpt lat="46.300748" lon="9.383332">
        <ele>285.609</ele>
        <time>2022-07-11T15:11:29Z</time>
      </trkpt>
      <trkpt lat="46.300699" lon="9.383278">
        <ele>285.626</ele>
        <time>2022-07-11T15:11:30Z</time>
      </trkpt>
      <trkpt lat="46.300655" lon="9.383233">
        <ele>285.615</ele>
        <time>2022-07-11T15:11:31Z</time>
      </trkpt>
      <trkpt lat="46.300204" lon="9.382339">
        <ele>284.623</ele>
        <time>2022-07-11T15:11:44Z</time>
      </trkpt>
      <trkpt lat="46.300041" lon="9.381728">
        <ele>286.125</ele>
        <time>2022-07-11T15:11:54Z</time>
      </trkpt>
      <trkpt lat="46.299831" lon="9.381482">
        <ele>284.691</ele>
        <time>2022-07-11T15:12:00Z</time>
      </trkpt>
      <trkpt lat="46.299101" lon="9.380732">
        <ele>282.795</ele>
        <time>2022-07-11T15:12:18Z</time>
      </trkpt>
      <trkpt lat="46.299041" lon="9.380682">
        <ele>282.226</ele>
        <time>2022-07-11T15:12:19Z</time>
      </trkpt>
      <trkpt lat="46.298976" lon="9.380639">
        <ele>282.254</ele>
        <time>2022-07-11T15:12:20Z</time>
      </trkpt>
      <trkpt lat="46.298905" lon="9.380603">
        <ele>281.888</ele>
        <time>2022-07-11T15:12:21Z</time>
      </trkpt>
      <trkpt lat="46.298830" lon="9.380575">
        <ele>281.336</ele>
        <time>2022-07-11T15:12:22Z</time>
      </trkpt>
      <trkpt lat="46.298767" lon="9.380555">
        <ele>281.317</ele>
        <time>2022-07-11T15:12:23Z</time>
      </trkpt>
      <trkpt lat="46.298447" lon="9.380479">
        <ele>280.818</ele>
        <time>2022-07-11T15:12:28Z</time>
      </trkpt>
      <trkpt lat="46.298202" lon="9.380453">
        <ele>280.809</ele>
        <time>2022-07-11T15:12:32Z</time>
      </trkpt>
      <trkpt lat="46.298164" lon="9.380401">
        <ele>280.814</ele>
        <time>2022-07-11T15:12:33Z</time>
      </trkpt>
      <trkpt lat="46.298136" lon="9.380331">
        <ele>280.833</ele>
        <time>2022-07-11T15:12:34Z</time>
      </trkpt>
      <trkpt lat="46.298106" lon="9.380271">
        <ele>280.861</ele>
        <time>2022-07-11T15:12:35Z</time>
      </trkpt>
      <trkpt lat="46.298072" lon="9.380218">
        <ele>280.823</ele>
        <time>2022-07-11T15:12:36Z</time>
      </trkpt>
      <trkpt lat="46.298036" lon="9.380174">
        <ele>280.829</ele>
        <time>2022-07-11T15:12:37Z</time>
      </trkpt>
      <trkpt lat="46.297994" lon="9.380134">
        <ele>280.813</ele>
        <time>2022-07-11T15:12:38Z</time>
      </trkpt>
      <trkpt lat="46.297946" lon="9.380099">
        <ele>280.844</ele>
        <time>2022-07-11T15:12:39Z</time>
      </trkpt>
      <trkpt lat="46.297897" lon="9.380067">
        <ele>280.862</ele>
        <time>2022-07-11T15:12:40Z</time>
      </trkpt>
      <trkpt lat="46.297850" lon="9.380028">
        <ele>280.886</ele>
        <time>2022-07-11T15:12:41Z</time>
      </trkpt>
      <trkpt lat="46.297801" lon="9.379979">
        <ele>280.313</ele>
        <time>2022-07-11T15:12:42Z</time>
      </trkpt>
      <trkpt lat="46.297758" lon="9.379925">
        <ele>280.343</ele>
        <time>2022-07-11T15:12:43Z</time>
      </trkpt>
      <trkpt lat="46.297147" lon="9.379079">
        <ele>277.907</ele>
        <time>2022-07-11T15:12:57Z</time>
      </trkpt>
      <trkpt lat="46.296814" lon="9.378671">
        <ele>277.909</ele>
        <time>2022-07-11T15:13:05Z</time>
      </trkpt>
      <trkpt lat="46.296176" lon="9.378057">
        <ele>276.562</ele>
        <time>2022-07-11T15:13:18Z</time>
      </trkpt>
      <trkpt lat="46.295818" lon="9.377738">
        <ele>276.531</ele>
        <time>2022-07-11T15:13:26Z</time>
      </trkpt>
      <trkpt lat="46.295769" lon="9.377716">
        <ele>276.569</ele>
        <time>2022-07-11T15:13:27Z</time>
      </trkpt>
      <trkpt lat="46.295363" lon="9.377580">
        <ele>275.511</ele>
        <time>2022-07-11T15:13:34Z</time>
      </trkpt>
      <trkpt lat="46.295305" lon="9.377547">
        <ele>275.587</ele>
        <time>2022-07-11T15:13:35Z</time>
      </trkpt>
      <trkpt lat="46.295196" lon="9.377476">
        <ele>275.011</ele>
        <time>2022-07-11T15:13:37Z</time>
      </trkpt>
      <trkpt lat="46.295036" lon="9.377379">
        <ele>275.012</ele>
        <time>2022-07-11T15:13:40Z</time>
      </trkpt>
      <trkpt lat="46.294984" lon="9.377324">
        <ele>274.520</ele>
        <time>2022-07-11T15:13:41Z</time>
      </trkpt>
      <trkpt lat="46.294893" lon="9.377236">
        <ele>274.524</ele>
        <time>2022-07-11T15:13:43Z</time>
      </trkpt>
      <trkpt lat="46.294839" lon="9.377227">
        <ele>274.533</ele>
        <time>2022-07-11T15:13:44Z</time>
      </trkpt>
      <trkpt lat="46.294784" lon="9.377246">
        <ele>274.523</ele>
        <time>2022-07-11T15:13:45Z</time>
      </trkpt>
      <trkpt lat="46.294731" lon="9.377286">
        <ele>274.115</ele>
        <time>2022-07-11T15:13:46Z</time>
      </trkpt>
      <trkpt lat="46.294689" lon="9.377331">
        <ele>274.109</ele>
        <time>2022-07-11T15:13:47Z</time>
      </trkpt>
      <trkpt lat="46.294641" lon="9.377380">
        <ele>274.174</ele>
        <time>2022-07-11T15:13:48Z</time>
      </trkpt>
      <trkpt lat="46.294594" lon="9.377420">
        <ele>274.173</ele>
        <time>2022-07-11T15:13:49Z</time>
      </trkpt>
      <trkpt lat="46.294546" lon="9.377452">
        <ele>274.121</ele>
        <time>2022-07-11T15:13:50Z</time>
      </trkpt>
      <trkpt lat="46.294494" lon="9.377485">
        <ele>274.163</ele>
        <time>2022-07-11T15:13:51Z</time>
      </trkpt>
      <trkpt lat="46.294296" lon="9.377651">
        <ele>273.639</ele>
        <time>2022-07-11T15:13:55Z</time>
      </trkpt>
      <trkpt lat="46.294243" lon="9.377682">
        <ele>273.623</ele>
        <time>2022-07-11T15:13:56Z</time>
      </trkpt>
      <trkpt lat="46.294187" lon="9.377699">
        <ele>273.124</ele>
        <time>2022-07-11T15:13:57Z</time>
      </trkpt>
      <trkpt lat="46.294128" lon="9.377706">
        <ele>273.172</ele>
        <time>2022-07-11T15:13:58Z</time>
      </trkpt>
      <trkpt lat="46.294068" lon="9.377699">
        <ele>273.116</ele>
        <time>2022-07-11T15:13:59Z</time>
      </trkpt>
      <trkpt lat="46.294008" lon="9.377677">
        <ele>273.195</ele>
        <time>2022-07-11T15:14:00Z</time>
      </trkpt>
      <trkpt lat="46.293948" lon="9.377649">
        <ele>273.149</ele>
        <time>2022-07-11T15:14:01Z</time>
      </trkpt>
      <trkpt lat="46.293890" lon="9.377616">
        <ele>272.623</ele>
        <time>2022-07-11T15:14:02Z</time>
      </trkpt>
      <trkpt lat="46.293576" lon="9.377403">
        <ele>272.609</ele>
        <time>2022-07-11T15:14:08Z</time>
      </trkpt>
      <trkpt lat="46.293524" lon="9.377381">
        <ele>272.690</ele>
        <time>2022-07-11T15:14:09Z</time>
      </trkpt>
      <trkpt lat="46.292597" lon="9.377121">
        <ele>271.769</ele>
        <time>2022-07-11T15:14:26Z</time>
      </trkpt>
      <trkpt lat="46.292541" lon="9.377091">
        <ele>271.767</ele>
        <time>2022-07-11T15:14:27Z</time>
      </trkpt>
      <trkpt lat="46.292143" lon="9.376898">
        <ele>270.259</ele>
        <time>2022-07-11T15:14:34Z</time>
      </trkpt>
      <trkpt lat="46.292085" lon="9.376907">
        <ele>270.275</ele>
        <time>2022-07-11T15:14:35Z</time>
      </trkpt>
      <trkpt lat="46.292032" lon="9.376946">
        <ele>270.269</ele>
        <time>2022-07-11T15:14:36Z</time>
      </trkpt>
      <trkpt lat="46.291990" lon="9.377002">
        <ele>270.270</ele>
        <time>2022-07-11T15:14:37Z</time>
      </trkpt>
      <trkpt lat="46.291949" lon="9.377067">
        <ele>270.268</ele>
        <time>2022-07-11T15:14:38Z</time>
      </trkpt>
      <trkpt lat="46.291869" lon="9.377184">
        <ele>270.272</ele>
        <time>2022-07-11T15:14:40Z</time>
      </trkpt>
      <trkpt lat="46.291824" lon="9.377234">
        <ele>270.257</ele>
        <time>2022-07-11T15:14:41Z</time>
      </trkpt>
      <trkpt lat="46.291777" lon="9.377280">
        <ele>270.200</ele>
        <time>2022-07-11T15:14:42Z</time>
      </trkpt>
      <trkpt lat="46.291728" lon="9.377315">
        <ele>269.720</ele>
        <time>2022-07-11T15:14:43Z</time>
      </trkpt>
      <trkpt lat="46.291675" lon="9.377341">
        <ele>269.709</ele>
        <time>2022-07-11T15:14:44Z</time>
      </trkpt>
      <trkpt lat="46.291626" lon="9.377360">
        <ele>269.796</ele>
        <time>2022-07-11T15:14:45Z</time>
      </trkpt>
      <trkpt lat="46.291578" lon="9.377376">
        <ele>269.775</ele>
        <time>2022-07-11T15:14:46Z</time>
      </trkpt>
      <trkpt lat="46.290896" lon="9.377512">
        <ele>270.743</ele>
        <time>2022-07-11T15:15:00Z</time>
      </trkpt>
      <trkpt lat="46.289843" lon="9.377513">
        <ele>268.375</ele>
        <time>2022-07-11T15:15:18Z</time>
      </trkpt>
      <trkpt lat="46.288798" lon="9.377250">
        <ele>266.911</ele>
        <time>2022-07-11T15:15:36Z</time>
      </trkpt>
      <trkpt lat="46.287567" lon="9.376894">
        <ele>265.935</ele>
        <time>2022-07-11T15:15:57Z</time>
      </trkpt>
      <trkpt lat="46.286606" lon="9.376610">
        <ele>264.596</ele>
        <time>2022-07-11T15:16:17Z</time>
      </trkpt>
      <trkpt lat="46.286559" lon="9.376643">
        <ele>265.934</ele>
        <time>2022-07-11T15:16:19Z</time>
      </trkpt>
      <trkpt lat="46.286547" lon="9.376662">
        <ele>265.928</ele>
        <time>2022-07-11T15:16:20Z</time>
      </trkpt>
      <trkpt lat="46.286537" lon="9.376686">
        <ele>266.454</ele>
        <time>2022-07-11T15:16:21Z</time>
      </trkpt>
      <trkpt lat="46.286439" lon="9.377326">
        <ele>266.456</ele>
        <time>2022-07-11T15:16:35Z</time>
      </trkpt>
      <trkpt lat="46.286335" lon="9.378147">
        <ele>266.411</ele>
        <time>2022-07-11T15:16:50Z</time>
      </trkpt>
      <trkpt lat="46.286342" lon="9.378172">
        <ele>266.409</ele>
        <time>2022-07-11T15:16:51Z</time>
      </trkpt>
      <trkpt lat="46.286350" lon="9.378205">
        <ele>266.496</ele>
        <time>2022-07-11T15:16:52Z</time>
      </trkpt>
      <trkpt lat="46.286346" lon="9.378218">
        <ele>266.425</ele>
        <time>2022-07-11T15:16:53Z</time>
      </trkpt>
      <trkpt lat="46.286339" lon="9.378230">
        <ele>266.473</ele>
        <time>2022-07-11T15:16:54Z</time>
      </trkpt>
      <trkpt lat="46.286330" lon="9.378236">
        <ele>266.425</ele>
        <time>2022-07-11T15:16:55Z</time>
      </trkpt>
      <trkpt lat="46.286305" lon="9.378232">
        <ele>266.441</ele>
        <time>2022-07-11T15:17:01Z</time>
      </trkpt>
      <trkpt lat="46.286288" lon="9.378225">
        <ele>266.475</ele>
        <time>2022-07-11T15:17:02Z</time>
      </trkpt>
      <trkpt lat="46.286275" lon="9.378222">
        <ele>265.986</ele>
        <time>2022-07-11T15:17:03Z</time>
      </trkpt>
      <trkpt lat="46.286256" lon="9.378220">
        <ele>265.974</ele>
        <time>2022-07-11T15:17:04Z</time>
      </trkpt>
      <trkpt lat="46.286235" lon="9.378213">
        <ele>265.968</ele>
        <time>2022-07-11T15:17:05Z</time>
      </trkpt>
      <trkpt lat="46.286210" lon="9.378199">
        <ele>265.946</ele>
        <time>2022-07-11T15:17:06Z</time>
      </trkpt>
      <trkpt lat="46.286178" lon="9.378178">
        <ele>265.988</ele>
        <time>2022-07-11T15:17:07Z</time>
      </trkpt>
      <trkpt lat="46.285994" lon="9.378094">
        <ele>264.916</ele>
        <time>2022-07-11T15:17:11Z</time>
      </trkpt>
      <trkpt lat="46.285817" lon="9.378022">
        <ele>263.509</ele>
        <time>2022-07-11T15:17:14Z</time>
      </trkpt>
      <trkpt lat="46.284663" lon="9.377705">
        <ele>261.675</ele>
        <time>2022-07-11T15:17:33Z</time>
      </trkpt>
      <trkpt lat="46.283476" lon="9.377373">
        <ele>260.124</ele>
        <time>2022-07-11T15:17:53Z</time>
      </trkpt>
      <trkpt lat="46.282012" lon="9.376960">
        <ele>258.712</ele>
        <time>2022-07-11T15:18:19Z</time>
      </trkpt>
      <trkpt lat="46.280978" lon="9.376661">
        <ele>257.744</ele>
        <time>2022-07-11T15:18:38Z</time>
      </trkpt>
      <trkpt lat="46.279701" lon="9.376301">
        <ele>255.880</ele>
        <time>2022-07-11T15:19:01Z</time>
      </trkpt>
      <trkpt lat="46.278682" lon="9.376016">
        <ele>254.814</ele>
        <time>2022-07-11T15:19:20Z</time>
      </trkpt>
      <trkpt lat="46.277518" lon="9.375920">
        <ele>253.975</ele>
        <time>2022-07-11T15:19:41Z</time>
      </trkpt>
      <trkpt lat="46.276585" lon="9.376113">
        <ele>252.433</ele>
        <time>2022-07-11T15:19:58Z</time>
      </trkpt>
      <trkpt lat="46.275660" lon="9.376561">
        <ele>251.517</ele>
        <time>2022-07-11T15:20:15Z</time>
      </trkpt>
      <trkpt lat="46.274635" lon="9.377389">
        <ele>250.531</ele>
        <time>2022-07-11T15:20:35Z</time>
      </trkpt>
      <trkpt lat="46.273958" lon="9.378214">
        <ele>247.661</ele>
        <time>2022-07-11T15:20:50Z</time>
      </trkpt>
      <trkpt lat="46.273082" lon="9.379393">
        <ele>247.607</ele>
        <time>2022-07-11T15:21:13Z</time>
      </trkpt>
      <trkpt lat="46.273045" lon="9.379446">
        <ele>247.609</ele>
        <time>2022-07-11T15:21:14Z</time>
      </trkpt>
      <trkpt lat="46.272116" lon="9.380702">
        <ele>246.794</ele>
        <time>2022-07-11T15:21:37Z</time>
      </trkpt>
      <trkpt lat="46.271167" lon="9.381974">
        <ele>244.733</ele>
        <time>2022-07-11T15:22:01Z</time>
      </trkpt>
      <trkpt lat="46.270414" lon="9.382985">
        <ele>243.851</ele>
        <time>2022-07-11T15:22:21Z</time>
      </trkpt>
      <trkpt lat="46.269756" lon="9.383886">
        <ele>242.823</ele>
        <time>2022-07-11T15:22:40Z</time>
      </trkpt>
      <trkpt lat="46.269145" lon="9.384718">
        <ele>242.369</ele>
        <time>2022-07-11T15:22:58Z</time>
      </trkpt>
      <trkpt lat="46.268418" lon="9.385705">
        <ele>241.983</ele>
        <time>2022-07-11T15:23:20Z</time>
      </trkpt>
      <trkpt lat="46.267800" lon="9.386526">
        <ele>240.974</ele>
        <time>2022-07-11T15:23:38Z</time>
      </trkpt>
      <trkpt lat="46.267152" lon="9.387304">
        <ele>240.462</ele>
        <time>2022-07-11T15:23:58Z</time>
      </trkpt>
      <trkpt lat="46.266330" lon="9.388087">
        <ele>239.916</ele>
        <time>2022-07-11T15:24:20Z</time>
      </trkpt>
      <trkpt lat="46.265422" lon="9.388812">
        <ele>239.044</ele>
        <time>2022-07-11T15:24:42Z</time>
      </trkpt>
      <trkpt lat="46.264516" lon="9.389526">
        <ele>237.505</ele>
        <time>2022-07-11T15:25:04Z</time>
      </trkpt>
      <trkpt lat="46.263678" lon="9.390198">
        <ele>237.515</ele>
        <time>2022-07-11T15:25:26Z</time>
      </trkpt>
      <trkpt lat="46.262844" lon="9.390846">
        <ele>236.609</ele>
        <time>2022-07-11T15:25:48Z</time>
      </trkpt>
      <trkpt lat="46.262638" lon="9.391040">
        <ele>236.645</ele>
        <time>2022-07-11T15:25:59Z</time>
      </trkpt>
      <trkpt lat="46.262618" lon="9.391050">
        <ele>238.044</ele>
        <time>2022-07-11T15:26:07Z</time>
      </trkpt>
      <trkpt lat="46.262400" lon="9.391307">
        <ele>235.162</ele>
        <time>2022-07-11T15:26:18Z</time>
      </trkpt>
      <trkpt lat="46.262224" lon="9.391507">
        <ele>233.254</ele>
        <time>2022-07-11T15:26:22Z</time>
      </trkpt>
      <trkpt lat="46.262076" lon="9.391647">
        <ele>231.880</ele>
        <time>2022-07-11T15:26:25Z</time>
      </trkpt>
      <trkpt lat="46.261445" lon="9.392148">
        <ele>231.824</ele>
        <time>2022-07-11T15:26:39Z</time>
      </trkpt>
      <trkpt lat="46.260451" lon="9.392925">
        <ele>231.895</ele>
        <time>2022-07-11T15:27:02Z</time>
      </trkpt>
      <trkpt lat="46.259708" lon="9.393508">
        <ele>230.853</ele>
        <time>2022-07-11T15:27:21Z</time>
      </trkpt>
      <trkpt lat="46.259009" lon="9.394060">
        <ele>230.347</ele>
        <time>2022-07-11T15:27:39Z</time>
      </trkpt>
      <trkpt lat="46.258228" lon="9.394686">
        <ele>229.819</ele>
        <time>2022-07-11T15:28:00Z</time>
      </trkpt>
      <trkpt lat="46.257462" lon="9.395282">
        <ele>229.409</ele>
        <time>2022-07-11T15:28:19Z</time>
      </trkpt>
      <trkpt lat="46.256749" lon="9.395842">
        <ele>228.919</ele>
        <time>2022-07-11T15:28:38Z</time>
      </trkpt>
      <trkpt lat="46.256051" lon="9.396395">
        <ele>227.909</ele>
        <time>2022-07-11T15:28:57Z</time>
      </trkpt>
      <trkpt lat="46.255331" lon="9.396971">
        <ele>227.952</ele>
        <time>2022-07-11T15:29:17Z</time>
      </trkpt>
      <trkpt lat="46.254659" lon="9.397507">
        <ele>227.041</ele>
        <time>2022-07-11T15:29:36Z</time>
      </trkpt>
      <trkpt lat="46.253984" lon="9.398043">
        <ele>226.079</ele>
        <time>2022-07-11T15:29:54Z</time>
      </trkpt>
      <trkpt lat="46.253266" lon="9.398607">
        <ele>226.021</ele>
        <time>2022-07-11T15:30:13Z</time>
      </trkpt>
      <trkpt lat="46.252496" lon="9.399207">
        <ele>226.087</ele>
        <time>2022-07-11T15:30:32Z</time>
      </trkpt>
      <trkpt lat="46.251664" lon="9.399868">
        <ele>225.511</ele>
        <time>2022-07-11T15:30:52Z</time>
      </trkpt>
      <trkpt lat="46.250810" lon="9.400547">
        <ele>225.022</ele>
        <time>2022-07-11T15:31:12Z</time>
      </trkpt>
      <trkpt lat="46.249872" lon="9.401304">
        <ele>224.630</ele>
        <time>2022-07-11T15:31:33Z</time>
      </trkpt>
      <trkpt lat="46.249787" lon="9.401360">
        <ele>224.674</ele>
        <time>2022-07-11T15:31:35Z</time>
      </trkpt>
      <trkpt lat="46.248927" lon="9.402026">
        <ele>223.693</ele>
        <time>2022-07-11T15:31:56Z</time>
      </trkpt>
      <trkpt lat="46.248718" lon="9.402197">
        <ele>223.665</ele>
        <time>2022-07-11T15:32:01Z</time>
      </trkpt>
      <trkpt lat="46.248145" lon="9.402645">
        <ele>223.621</ele>
        <time>2022-07-11T15:32:15Z</time>
      </trkpt>
      <trkpt lat="46.247388" lon="9.403234">
        <ele>223.109</ele>
        <time>2022-07-11T15:32:34Z</time>
      </trkpt>
      <trkpt lat="46.246744" lon="9.403753">
        <ele>222.210</ele>
        <time>2022-07-11T15:32:51Z</time>
      </trkpt>
      <trkpt lat="46.245935" lon="9.404384">
        <ele>222.219</ele>
        <time>2022-07-11T15:33:11Z</time>
      </trkpt>
      <trkpt lat="46.245258" lon="9.404914">
        <ele>221.797</ele>
        <time>2022-07-11T15:33:28Z</time>
      </trkpt>
      <trkpt lat="46.244739" lon="9.405326">
        <ele>220.739</ele>
        <time>2022-07-11T15:33:42Z</time>
      </trkpt>
      <trkpt lat="46.244530" lon="9.405489">
        <ele>222.295</ele>
        <time>2022-07-11T15:33:48Z</time>
      </trkpt>
      <trkpt lat="46.244260" lon="9.405708">
        <ele>222.699</ele>
        <time>2022-07-11T15:33:55Z</time>
      </trkpt>
      <trkpt lat="46.244064" lon="9.405862">
        <ele>221.280</ele>
        <time>2022-07-11T15:34:00Z</time>
      </trkpt>
      <trkpt lat="46.243452" lon="9.406334">
        <ele>222.648</ele>
        <time>2022-07-11T15:34:16Z</time>
      </trkpt>
      <trkpt lat="46.243261" lon="9.406471">
        <ele>221.792</ele>
        <time>2022-07-11T15:34:21Z</time>
      </trkpt>
      <trkpt lat="46.242841" lon="9.406825">
        <ele>222.692</ele>
        <time>2022-07-11T15:34:35Z</time>
      </trkpt>
      <trkpt lat="46.242636" lon="9.406963">
        <ele>223.173</ele>
        <time>2022-07-11T15:34:49Z</time>
      </trkpt>
      <trkpt lat="46.242630" lon="9.406960">
        <ele>223.120</ele>
        <time>2022-07-11T15:35:19Z</time>
      </trkpt>
      <trkpt lat="46.242634" lon="9.406957">
        <ele>222.609</ele>
        <time>2022-07-11T15:35:52Z</time>
      </trkpt>
      <trkpt lat="46.242643" lon="9.406970">
        <ele>222.670</ele>
        <time>2022-07-11T15:36:28Z</time>
      </trkpt>
      <trkpt lat="46.242585" lon="9.407012">
        <ele>222.269</ele>
        <time>2022-07-11T15:36:50Z</time>
      </trkpt>
      <trkpt lat="46.242199" lon="9.407311">
        <ele>221.217</ele>
        <time>2022-07-11T15:37:01Z</time>
      </trkpt>
      <trkpt lat="46.241533" lon="9.407839">
        <ele>220.729</ele>
        <time>2022-07-11T15:37:18Z</time>
      </trkpt>
      <trkpt lat="46.240847" lon="9.408295">
        <ele>220.795</ele>
        <time>2022-07-11T15:37:36Z</time>
      </trkpt>
      <trkpt lat="46.240653" lon="9.408334">
        <ele>223.199</ele>
        <time>2022-07-11T15:37:46Z</time>
      </trkpt>
      <trkpt lat="46.240571" lon="9.408348">
        <ele>223.180</ele>
        <time>2022-07-11T15:37:48Z</time>
      </trkpt>
      <trkpt lat="46.240520" lon="9.408370">
        <ele>223.168</ele>
        <time>2022-07-11T15:37:49Z</time>
      </trkpt>
      <trkpt lat="46.240461" lon="9.408408">
        <ele>221.212</ele>
        <time>2022-07-11T15:37:50Z</time>
      </trkpt>
      <trkpt lat="46.240362" lon="9.408480">
        <ele>220.771</ele>
        <time>2022-07-11T15:37:52Z</time>
      </trkpt>
      <trkpt lat="46.240313" lon="9.408525">
        <ele>220.741</ele>
        <time>2022-07-11T15:37:53Z</time>
      </trkpt>
      <trkpt lat="46.240276" lon="9.408579">
        <ele>220.715</ele>
        <time>2022-07-11T15:37:54Z</time>
      </trkpt>
      <trkpt lat="46.240250" lon="9.408638">
        <ele>220.709</ele>
        <time>2022-07-11T15:37:55Z</time>
      </trkpt>
      <trkpt lat="46.240234" lon="9.408681">
        <ele>221.728</ele>
        <time>2022-07-11T15:37:56Z</time>
      </trkpt>
      <trkpt lat="46.240216" lon="9.408716">
        <ele>221.747</ele>
        <time>2022-07-11T15:37:57Z</time>
      </trkpt>
      <trkpt lat="46.240197" lon="9.408747">
        <ele>222.615</ele>
        <time>2022-07-11T15:37:58Z</time>
      </trkpt>
      <trkpt lat="46.240178" lon="9.408775">
        <ele>222.647</ele>
        <time>2022-07-11T15:37:59Z</time>
      </trkpt>
      <trkpt lat="46.240157" lon="9.408808">
        <ele>222.613</ele>
        <time>2022-07-11T15:38:00Z</time>
      </trkpt>
      <trkpt lat="46.239995" lon="9.409064">
        <ele>222.627</ele>
        <time>2022-07-11T15:38:06Z</time>
      </trkpt>
      <trkpt lat="46.239969" lon="9.409125">
        <ele>222.668</ele>
        <time>2022-07-11T15:38:07Z</time>
      </trkpt>
      <trkpt lat="46.239949" lon="9.409187">
        <ele>222.696</ele>
        <time>2022-07-11T15:38:08Z</time>
      </trkpt>
      <trkpt lat="46.239927" lon="9.409263">
        <ele>221.250</ele>
        <time>2022-07-11T15:38:09Z</time>
      </trkpt>
      <trkpt lat="46.239898" lon="9.409341">
        <ele>220.221</ele>
        <time>2022-07-11T15:38:10Z</time>
      </trkpt>
      <trkpt lat="46.239861" lon="9.409413">
        <ele>220.241</ele>
        <time>2022-07-11T15:38:11Z</time>
      </trkpt>
      <trkpt lat="46.239818" lon="9.409477">
        <ele>219.805</ele>
        <time>2022-07-11T15:38:12Z</time>
      </trkpt>
      <trkpt lat="46.239778" lon="9.409537">
        <ele>219.809</ele>
        <time>2022-07-11T15:38:13Z</time>
      </trkpt>
      <trkpt lat="46.239742" lon="9.409598">
        <ele>219.813</ele>
        <time>2022-07-11T15:38:14Z</time>
      </trkpt>
      <trkpt lat="46.239094" lon="9.410697">
        <ele>219.812</ele>
        <time>2022-07-11T15:38:34Z</time>
      </trkpt>
      <trkpt lat="46.238497" lon="9.411720">
        <ele>219.350</ele>
        <time>2022-07-11T15:38:54Z</time>
      </trkpt>
      <trkpt lat="46.237832" lon="9.412698">
        <ele>218.312</ele>
        <time>2022-07-11T15:39:14Z</time>
      </trkpt>
      <trkpt lat="46.237021" lon="9.413642">
        <ele>218.338</ele>
        <time>2022-07-11T15:39:37Z</time>
      </trkpt>
      <trkpt lat="46.236695" lon="9.413949">
        <ele>218.382</ele>
        <time>2022-07-11T15:39:47Z</time>
      </trkpt>
      <trkpt lat="46.235940" lon="9.414668">
        <ele>217.813</ele>
        <time>2022-07-11T15:40:07Z</time>
      </trkpt>
      <trkpt lat="46.235058" lon="9.415501">
        <ele>217.811</ele>
        <time>2022-07-11T15:40:30Z</time>
      </trkpt>
      <trkpt lat="46.234240" lon="9.416278">
        <ele>217.835</ele>
        <time>2022-07-11T15:40:51Z</time>
      </trkpt>
      <trkpt lat="46.233353" lon="9.417129">
        <ele>217.442</ele>
        <time>2022-07-11T15:41:14Z</time>
      </trkpt>
      <trkpt lat="46.232602" lon="9.417849">
        <ele>216.922</ele>
        <time>2022-07-11T15:41:35Z</time>
      </trkpt>
      <trkpt lat="46.231968" lon="9.418456">
        <ele>216.914</ele>
        <time>2022-07-11T15:41:53Z</time>
      </trkpt>
      <trkpt lat="46.231372" lon="9.418972">
        <ele>216.909</ele>
        <time>2022-07-11T15:42:09Z</time>
      </trkpt>
      <trkpt lat="46.231333" lon="9.418988">
        <ele>216.965</ele>
        <time>2022-07-11T15:42:10Z</time>
      </trkpt>
      <trkpt lat="46.230751" lon="9.419311">
        <ele>216.484</ele>
        <time>2022-07-11T15:42:27Z</time>
      </trkpt>
      <trkpt lat="46.230705" lon="9.419337">
        <ele>216.422</ele>
        <time>2022-07-11T15:42:30Z</time>
      </trkpt>
      <trkpt lat="46.230690" lon="9.419347">
        <ele>216.424</ele>
        <time>2022-07-11T15:42:31Z</time>
      </trkpt>
      <trkpt lat="46.230597" lon="9.419433">
        <ele>216.960</ele>
        <time>2022-07-11T15:44:42Z</time>
      </trkpt>
      <trkpt lat="46.230151" lon="9.419467">
        <ele>216.984</ele>
        <time>2022-07-11T15:44:57Z</time>
      </trkpt>
      <trkpt lat="46.229356" lon="9.419582">
        <ele>216.995</ele>
        <time>2022-07-11T15:45:17Z</time>
      </trkpt>
      <trkpt lat="46.228486" lon="9.419685">
        <ele>216.953</ele>
        <time>2022-07-11T15:45:37Z</time>
      </trkpt>
      <trkpt lat="46.227480" lon="9.419825">
        <ele>216.927</ele>
        <time>2022-07-11T15:46:00Z</time>
      </trkpt>
      <trkpt lat="46.227010" lon="9.419906">
        <ele>215.944</ele>
        <time>2022-07-11T15:46:11Z</time>
      </trkpt>
      <trkpt lat="46.226285" lon="9.420302">
        <ele>214.905</ele>
        <time>2022-07-11T15:46:27Z</time>
      </trkpt>
      <trkpt lat="46.225576" lon="9.421074">
        <ele>214.515</ele>
        <time>2022-07-11T15:46:44Z</time>
      </trkpt>
      <trkpt lat="46.225019" lon="9.421915">
        <ele>215.409</ele>
        <time>2022-07-11T15:47:02Z</time>
      </trkpt>
      <trkpt lat="46.224988" lon="9.421963">
        <ele>215.465</ele>
        <time>2022-07-11T15:47:03Z</time>
      </trkpt>
      <trkpt lat="46.224865" lon="9.422150">
        <ele>215.434</ele>
        <time>2022-07-11T15:47:07Z</time>
      </trkpt>
      <trkpt lat="46.224774" lon="9.422305">
        <ele>215.492</ele>
        <time>2022-07-11T15:47:10Z</time>
      </trkpt>
      <trkpt lat="46.224202" lon="9.423176">
        <ele>215.924</ele>
        <time>2022-07-11T15:47:28Z</time>
      </trkpt>
      <trkpt lat="46.223622" lon="9.423973">
        <ele>215.430</ele>
        <time>2022-07-11T15:47:46Z</time>
      </trkpt>
      <trkpt lat="46.222859" lon="9.424882">
        <ele>215.454</ele>
        <time>2022-07-11T15:48:07Z</time>
      </trkpt>
      <trkpt lat="46.222569" lon="9.425215">
        <ele>215.475</ele>
        <time>2022-07-11T15:48:15Z</time>
      </trkpt>
      <trkpt lat="46.221940" lon="9.425954">
        <ele>215.463</ele>
        <time>2022-07-11T15:48:33Z</time>
      </trkpt>
      <trkpt lat="46.221686" lon="9.426298">
        <ele>214.037</ele>
        <time>2022-07-11T15:48:41Z</time>
      </trkpt>
      <trkpt lat="46.221640" lon="9.426367">
        <ele>215.989</ele>
        <time>2022-07-11T15:48:42Z</time>
      </trkpt>
      <trkpt lat="46.221491" lon="9.426579">
        <ele>214.506</ele>
        <time>2022-07-11T15:48:47Z</time>
      </trkpt>
      <trkpt lat="46.221307" lon="9.426887">
        <ele>214.526</ele>
        <time>2022-07-11T15:48:53Z</time>
      </trkpt>
      <trkpt lat="46.221266" lon="9.426914">
        <ele>214.509</ele>
        <time>2022-07-11T15:48:54Z</time>
      </trkpt>
      <trkpt lat="46.221225" lon="9.426907">
        <ele>214.539</ele>
        <time>2022-07-11T15:48:55Z</time>
      </trkpt>
      <trkpt lat="46.221188" lon="9.426873">
        <ele>214.538</ele>
        <time>2022-07-11T15:48:56Z</time>
      </trkpt>
      <trkpt lat="46.221156" lon="9.426822">
        <ele>214.576</ele>
        <time>2022-07-11T15:48:57Z</time>
      </trkpt>
      <trkpt lat="46.221122" lon="9.426774">
        <ele>214.528</ele>
        <time>2022-07-11T15:48:58Z</time>
      </trkpt>
      <trkpt lat="46.221081" lon="9.426740">
        <ele>214.564</ele>
        <time>2022-07-11T15:48:59Z</time>
      </trkpt>
      <trkpt lat="46.221031" lon="9.426728">
        <ele>214.068</ele>
        <time>2022-07-11T15:49:00Z</time>
      </trkpt>
      <trkpt lat="46.220984" lon="9.426737">
        <ele>214.079</ele>
        <time>2022-07-11T15:49:01Z</time>
      </trkpt>
      <trkpt lat="46.220942" lon="9.426766">
        <ele>214.027</ele>
        <time>2022-07-11T15:49:02Z</time>
      </trkpt>
      <trkpt lat="46.220902" lon="9.426807">
        <ele>214.091</ele>
        <time>2022-07-11T15:49:03Z</time>
      </trkpt>
      <trkpt lat="46.220865" lon="9.426847">
        <ele>214.043</ele>
        <time>2022-07-11T15:49:04Z</time>
      </trkpt>
      <trkpt lat="46.220523" lon="9.427305">
        <ele>214.064</ele>
        <time>2022-07-11T15:49:14Z</time>
      </trkpt>
      <trkpt lat="46.220210" lon="9.428270">
        <ele>214.010</ele>
        <time>2022-07-11T15:49:30Z</time>
      </trkpt>
      <trkpt lat="46.220146" lon="9.428728">
        <ele>214.009</ele>
        <time>2022-07-11T15:49:37Z</time>
      </trkpt>
      <trkpt lat="46.220152" lon="9.428788">
        <ele>214.075</ele>
        <time>2022-07-11T15:49:38Z</time>
      </trkpt>
      <trkpt lat="46.220169" lon="9.428843">
        <ele>214.034</ele>
        <time>2022-07-11T15:49:39Z</time>
      </trkpt>
      <trkpt lat="46.220198" lon="9.428896">
        <ele>214.092</ele>
        <time>2022-07-11T15:49:40Z</time>
      </trkpt>
      <trkpt lat="46.220231" lon="9.428940">
        <ele>214.024</ele>
        <time>2022-07-11T15:49:41Z</time>
      </trkpt>
      <trkpt lat="46.220270" lon="9.428987">
        <ele>214.030</ele>
        <time>2022-07-11T15:49:42Z</time>
      </trkpt>
      <trkpt lat="46.220670" lon="9.429524">
        <ele>213.514</ele>
        <time>2022-07-11T15:49:53Z</time>
      </trkpt>
      <trkpt lat="46.220693" lon="9.429591">
        <ele>213.585</ele>
        <time>2022-07-11T15:49:54Z</time>
      </trkpt>
      <trkpt lat="46.220693" lon="9.429664">
        <ele>213.573</ele>
        <time>2022-07-11T15:49:55Z</time>
      </trkpt>
      <trkpt lat="46.220675" lon="9.429724">
        <ele>213.517</ele>
        <time>2022-07-11T15:49:56Z</time>
      </trkpt>
      <trkpt lat="46.220646" lon="9.429784">
        <ele>213.514</ele>
        <time>2022-07-11T15:49:57Z</time>
      </trkpt>
      <trkpt lat="46.220615" lon="9.429840">
        <ele>213.554</ele>
        <time>2022-07-11T15:49:58Z</time>
      </trkpt>
      <trkpt lat="46.220059" lon="9.430710">
        <ele>212.509</ele>
        <time>2022-07-11T15:50:15Z</time>
      </trkpt>
      <trkpt lat="46.219420" lon="9.431603">
        <ele>212.509</ele>
        <time>2022-07-11T15:50:34Z</time>
      </trkpt>
      <trkpt lat="46.219254" lon="9.431830">
        <ele>212.552</ele>
        <time>2022-07-11T15:50:39Z</time>
      </trkpt>
      <trkpt lat="46.219231" lon="9.431879">
        <ele>212.551</ele>
        <time>2022-07-11T15:50:40Z</time>
      </trkpt>
      <trkpt lat="46.219141" lon="9.432211">
        <ele>212.579</ele>
        <time>2022-07-11T15:50:46Z</time>
      </trkpt>
      <trkpt lat="46.218931" lon="9.433078">
        <ele>212.511</ele>
        <time>2022-07-11T15:51:02Z</time>
      </trkpt>
      <trkpt lat="46.219102" lon="9.433720">
        <ele>213.547</ele>
        <time>2022-07-11T15:51:14Z</time>
      </trkpt>
      <trkpt lat="46.219440" lon="9.434948">
        <ele>213.531</ele>
        <time>2022-07-11T15:51:33Z</time>
      </trkpt>
      <trkpt lat="46.219518" lon="9.435208">
        <ele>212.112</ele>
        <time>2022-07-11T15:51:37Z</time>
      </trkpt>
      <trkpt lat="46.219849" lon="9.436471">
        <ele>211.690</ele>
        <time>2022-07-11T15:51:56Z</time>
      </trkpt>
      <trkpt lat="46.219878" lon="9.437793">
        <ele>212.594</ele>
        <time>2022-07-11T15:52:15Z</time>
      </trkpt>
      <trkpt lat="46.219814" lon="9.438540">
        <ele>211.143</ele>
        <time>2022-07-11T15:52:26Z</time>
      </trkpt>
      <trkpt lat="46.219594" lon="9.439317">
        <ele>211.164</ele>
        <time>2022-07-11T15:52:39Z</time>
      </trkpt>
      <trkpt lat="46.219581" lon="9.439376">
        <ele>211.110</ele>
        <time>2022-07-11T15:52:40Z</time>
      </trkpt>
      <trkpt lat="46.219570" lon="9.439440">
        <ele>211.109</ele>
        <time>2022-07-11T15:52:41Z</time>
      </trkpt>
      <trkpt lat="46.219562" lon="9.439550">
        <ele>211.135</ele>
        <time>2022-07-11T15:52:43Z</time>
      </trkpt>
      <trkpt lat="46.219559" lon="9.439674">
        <ele>211.134</ele>
        <time>2022-07-11T15:52:45Z</time>
      </trkpt>
      <trkpt lat="46.219551" lon="9.439735">
        <ele>211.192</ele>
        <time>2022-07-11T15:52:46Z</time>
      </trkpt>
      <trkpt lat="46.219443" lon="9.440456">
        <ele>210.194</ele>
        <time>2022-07-11T15:52:57Z</time>
      </trkpt>
      <trkpt lat="46.219409" lon="9.441001">
        <ele>210.140</ele>
        <time>2022-07-11T15:53:06Z</time>
      </trkpt>
      <trkpt lat="46.219577" lon="9.442157">
        <ele>209.794</ele>
        <time>2022-07-11T15:53:24Z</time>
      </trkpt>
      <trkpt lat="46.219620" lon="9.442395">
        <ele>210.145</ele>
        <time>2022-07-11T15:53:28Z</time>
      </trkpt>
      <trkpt lat="46.219853" lon="9.443615">
        <ele>210.143</ele>
        <time>2022-07-11T15:53:48Z</time>
      </trkpt>
      <trkpt lat="46.219931" lon="9.444050">
        <ele>210.137</ele>
        <time>2022-07-11T15:53:55Z</time>
      </trkpt>
      <trkpt lat="46.219999" lon="9.444408">
        <ele>210.154</ele>
        <time>2022-07-11T15:54:01Z</time>
      </trkpt>
      <trkpt lat="46.220003" lon="9.444469">
        <ele>210.156</ele>
        <time>2022-07-11T15:54:02Z</time>
      </trkpt>
      <trkpt lat="46.220008" lon="9.444534">
        <ele>210.111</ele>
        <time>2022-07-11T15:54:03Z</time>
      </trkpt>
      <trkpt lat="46.220021" lon="9.445115">
        <ele>211.109</ele>
        <time>2022-07-11T15:54:16Z</time>
      </trkpt>
      <trkpt lat="46.219777" lon="9.445314">
        <ele>211.116</ele>
        <time>2022-07-11T15:54:25Z</time>
      </trkpt>
      <trkpt lat="46.219429" lon="9.445333">
        <ele>210.155</ele>
        <time>2022-07-11T15:54:38Z</time>
      </trkpt>
      <trkpt lat="46.219205" lon="9.445281">
        <ele>210.113</ele>
        <time>2022-07-11T15:54:45Z</time>
      </trkpt>
      <trkpt lat="46.219167" lon="9.445279">
        <ele>210.135</ele>
        <time>2022-07-11T15:54:46Z</time>
      </trkpt>
      <trkpt lat="46.219126" lon="9.445284">
        <ele>210.141</ele>
        <time>2022-07-11T15:54:47Z</time>
      </trkpt>
      <trkpt lat="46.219082" lon="9.445302">
        <ele>210.115</ele>
        <time>2022-07-11T15:54:48Z</time>
      </trkpt>
      <trkpt lat="46.219039" lon="9.445321">
        <ele>209.786</ele>
        <time>2022-07-11T15:54:49Z</time>
      </trkpt>
      <trkpt lat="46.218999" lon="9.445328">
        <ele>209.784</ele>
        <time>2022-07-11T15:54:50Z</time>
      </trkpt>
      <trkpt lat="46.218961" lon="9.445324">
        <ele>209.718</ele>
        <time>2022-07-11T15:54:51Z</time>
      </trkpt>
      <trkpt lat="46.218916" lon="9.445308">
        <ele>209.791</ele>
        <time>2022-07-11T15:54:52Z</time>
      </trkpt>
      <trkpt lat="46.218872" lon="9.445289">
        <ele>209.781</ele>
        <time>2022-07-11T15:54:53Z</time>
      </trkpt>
      <trkpt lat="46.218267" lon="9.445022">
        <ele>209.219</ele>
        <time>2022-07-11T15:55:08Z</time>
      </trkpt>
      <trkpt lat="46.218150" lon="9.444968">
        <ele>209.209</ele>
        <time>2022-07-11T15:55:11Z</time>
      </trkpt>
      <trkpt lat="46.217424" lon="9.444640">
        <ele>208.730</ele>
        <time>2022-07-11T15:55:28Z</time>
      </trkpt>
      <trkpt lat="46.217174" lon="9.444553">
        <ele>208.769</ele>
        <time>2022-07-11T15:55:34Z</time>
      </trkpt>
      <trkpt lat="46.216562" lon="9.444466">
        <ele>208.757</ele>
        <time>2022-07-11T15:55:48Z</time>
      </trkpt>
      <trkpt lat="46.216423" lon="9.444463">
        <ele>208.779</ele>
        <time>2022-07-11T15:55:51Z</time>
      </trkpt>
      <trkpt lat="46.215834" lon="9.444527">
        <ele>208.785</ele>
        <time>2022-07-11T15:56:05Z</time>
      </trkpt>
      <trkpt lat="46.215437" lon="9.444616">
        <ele>210.199</ele>
        <time>2022-07-11T15:56:14Z</time>
      </trkpt>
      <trkpt lat="46.214953" lon="9.444810">
        <ele>208.790</ele>
        <time>2022-07-11T15:56:25Z</time>
      </trkpt>
      <trkpt lat="46.214174" lon="9.445140">
        <ele>208.798</ele>
        <time>2022-07-11T15:56:42Z</time>
      </trkpt>
      <trkpt lat="46.214126" lon="9.445148">
        <ele>208.792</ele>
        <time>2022-07-11T15:56:43Z</time>
      </trkpt>
      <trkpt lat="46.214083" lon="9.445157">
        <ele>208.733</ele>
        <time>2022-07-11T15:56:44Z</time>
      </trkpt>
      <trkpt lat="46.214040" lon="9.445172">
        <ele>208.723</ele>
        <time>2022-07-11T15:56:45Z</time>
      </trkpt>
      <trkpt lat="46.214002" lon="9.445197">
        <ele>208.715</ele>
        <time>2022-07-11T15:56:46Z</time>
      </trkpt>
      <trkpt lat="46.213967" lon="9.445229">
        <ele>208.709</ele>
        <time>2022-07-11T15:56:47Z</time>
      </trkpt>
      <trkpt lat="46.213933" lon="9.445266">
        <ele>208.764</ele>
        <time>2022-07-11T15:56:48Z</time>
      </trkpt>
      <trkpt lat="46.213866" lon="9.445334">
        <ele>208.753</ele>
        <time>2022-07-11T15:56:50Z</time>
      </trkpt>
      <trkpt lat="46.213828" lon="9.445359">
        <ele>208.741</ele>
        <time>2022-07-11T15:56:51Z</time>
      </trkpt>
      <trkpt lat="46.213634" lon="9.445490">
        <ele>208.793</ele>
        <time>2022-07-11T15:56:56Z</time>
      </trkpt>
      <trkpt lat="46.213599" lon="9.445535">
        <ele>208.759</ele>
        <time>2022-07-11T15:56:57Z</time>
      </trkpt>
      <trkpt lat="46.213572" lon="9.445584">
        <ele>208.743</ele>
        <time>2022-07-11T15:56:58Z</time>
      </trkpt>
      <trkpt lat="46.213542" lon="9.445638">
        <ele>208.714</ele>
        <time>2022-07-11T15:56:59Z</time>
      </trkpt>
      <trkpt lat="46.213507" lon="9.445675">
        <ele>208.792</ele>
        <time>2022-07-11T15:57:00Z</time>
      </trkpt>
      <trkpt lat="46.213476" lon="9.445691">
        <ele>208.766</ele>
        <time>2022-07-11T15:57:01Z</time>
      </trkpt>
      <trkpt lat="46.213434" lon="9.445700">
        <ele>208.777</ele>
        <time>2022-07-11T15:57:02Z</time>
      </trkpt>
      <trkpt lat="46.213385" lon="9.445710">
        <ele>208.761</ele>
        <time>2022-07-11T15:57:03Z</time>
      </trkpt>
      <trkpt lat="46.213257" lon="9.445745">
        <ele>208.727</ele>
        <time>2022-07-11T15:57:06Z</time>
      </trkpt>
      <trkpt lat="46.212904" lon="9.445899">
        <ele>210.609</ele>
        <time>2022-07-11T15:57:15Z</time>
      </trkpt>
      <trkpt lat="46.212444" lon="9.446058">
        <ele>210.678</ele>
        <time>2022-07-11T15:57:27Z</time>
      </trkpt>
      <trkpt lat="46.212147" lon="9.446232">
        <ele>209.787</ele>
        <time>2022-07-11T15:57:39Z</time>
      </trkpt>
      <trkpt lat="46.212135" lon="9.446244">
        <ele>209.245</ele>
        <time>2022-07-11T15:57:40Z</time>
      </trkpt>
      <trkpt lat="46.212122" lon="9.446263">
        <ele>209.267</ele>
        <time>2022-07-11T15:57:41Z</time>
      </trkpt>
      <trkpt lat="46.212107" lon="9.446286">
        <ele>209.293</ele>
        <time>2022-07-11T15:57:42Z</time>
      </trkpt>
      <trkpt lat="46.212091" lon="9.446313">
        <ele>209.257</ele>
        <time>2022-07-11T15:57:43Z</time>
      </trkpt>
      <trkpt lat="46.212074" lon="9.446345">
        <ele>209.258</ele>
        <time>2022-07-11T15:57:44Z</time>
      </trkpt>
      <trkpt lat="46.212058" lon="9.446379">
        <ele>208.796</ele>
        <time>2022-07-11T15:57:45Z</time>
      </trkpt>
      <trkpt lat="46.212040" lon="9.446417">
        <ele>208.750</ele>
        <time>2022-07-11T15:57:46Z</time>
      </trkpt>
      <trkpt lat="46.211871" lon="9.447052">
        <ele>208.756</ele>
        <time>2022-07-11T15:57:59Z</time>
      </trkpt>
      <trkpt lat="46.211846" lon="9.447102">
        <ele>208.759</ele>
        <time>2022-07-11T15:58:00Z</time>
      </trkpt>
      <trkpt lat="46.211812" lon="9.447147">
        <ele>208.714</ele>
        <time>2022-07-11T15:58:01Z</time>
      </trkpt>
      <trkpt lat="46.211397" lon="9.447588">
        <ele>208.709</ele>
        <time>2022-07-11T15:58:12Z</time>
      </trkpt>
      <trkpt lat="46.210992" lon="9.448363">
        <ele>208.266</ele>
        <time>2022-07-11T15:58:27Z</time>
      </trkpt>
      <trkpt lat="46.210958" lon="9.448406">
        <ele>208.215</ele>
        <time>2022-07-11T15:58:28Z</time>
      </trkpt>
      <trkpt lat="46.210843" lon="9.448554">
        <ele>206.893</ele>
        <time>2022-07-11T15:58:32Z</time>
      </trkpt>
      <trkpt lat="46.210526" lon="9.449060">
        <ele>206.365</ele>
        <time>2022-07-11T15:58:45Z</time>
      </trkpt>
      <trkpt lat="46.210328" lon="9.449312">
        <ele>207.391</ele>
        <time>2022-07-11T15:58:57Z</time>
      </trkpt>
      <trkpt lat="46.210351" lon="9.449305">
        <ele>207.795</ele>
        <time>2022-07-11T15:59:27Z</time>
      </trkpt>
      <trkpt lat="46.210175" lon="9.449486">
        <ele>206.336</ele>
        <time>2022-07-11T15:59:37Z</time>
      </trkpt>
      <trkpt lat="46.210152" lon="9.449542">
        <ele>206.324</ele>
        <time>2022-07-11T15:59:39Z</time>
      </trkpt>
      <trkpt lat="46.210151" lon="9.449580">
        <ele>206.358</ele>
        <time>2022-07-11T15:59:40Z</time>
      </trkpt>
      <trkpt lat="46.210159" lon="9.449613">
        <ele>207.714</ele>
        <time>2022-07-11T15:59:41Z</time>
      </trkpt>
      <trkpt lat="46.210177" lon="9.449641">
        <ele>207.754</ele>
        <time>2022-07-11T15:59:42Z</time>
      </trkpt>
      <trkpt lat="46.210200" lon="9.449666">
        <ele>207.709</ele>
        <time>2022-07-11T15:59:43Z</time>
      </trkpt>
      <trkpt lat="46.210585" lon="9.449947">
        <ele>210.109</ele>
        <time>2022-07-11T15:59:59Z</time>
      </trkpt>
      <trkpt lat="46.210790" lon="9.450188">
        <ele>210.172</ele>
        <time>2022-07-11T16:00:07Z</time>
      </trkpt>
      <trkpt lat="46.210786" lon="9.450230">
        <ele>210.161</ele>
        <time>2022-07-11T16:00:08Z</time>
      </trkpt>
      <trkpt lat="46.210777" lon="9.450266">
        <ele>210.189</ele>
        <time>2022-07-11T16:00:09Z</time>
      </trkpt>
      <trkpt lat="46.210764" lon="9.450308">
        <ele>210.161</ele>
        <time>2022-07-11T16:00:10Z</time>
      </trkpt>
      <trkpt lat="46.210745" lon="9.450351">
        <ele>210.167</ele>
        <time>2022-07-11T16:00:11Z</time>
      </trkpt>
      <trkpt lat="46.210488" lon="9.451078">
        <ele>210.621</ele>
        <time>2022-07-11T16:00:27Z</time>
      </trkpt>
      <trkpt lat="46.210336" lon="9.451509">
        <ele>213.062</ele>
        <time>2022-07-11T16:00:39Z</time>
      </trkpt>
      <trkpt lat="46.210143" lon="9.452013">
        <ele>214.050</ele>
        <time>2022-07-11T16:00:53Z</time>
      </trkpt>
      <trkpt lat="46.210014" lon="9.452612">
        <ele>215.414</ele>
        <time>2022-07-11T16:01:08Z</time>
      </trkpt>
      <trkpt lat="46.209860" lon="9.453375">
        <ele>213.567</ele>
        <time>2022-07-11T16:01:22Z</time>
      </trkpt>
      <trkpt lat="46.209751" lon="9.454282">
        <ele>210.681</ele>
        <time>2022-07-11T16:01:33Z</time>
      </trkpt>
      <trkpt lat="46.209750" lon="9.454373">
        <ele>210.619</ele>
        <time>2022-07-11T16:01:34Z</time>
      </trkpt>
      <trkpt lat="46.209752" lon="9.454525">
        <ele>210.609</ele>
        <time>2022-07-11T16:01:36Z</time>
      </trkpt>
      <trkpt lat="46.209695" lon="9.455185">
        <ele>210.667</ele>
        <time>2022-07-11T16:01:49Z</time>
      </trkpt>
      <trkpt lat="46.209619" lon="9.455949">
        <ele>210.166</ele>
        <time>2022-07-11T16:02:04Z</time>
      </trkpt>
      <trkpt lat="46.209518" lon="9.456954">
        <ele>210.184</ele>
        <time>2022-07-11T16:02:20Z</time>
      </trkpt>
      <trkpt lat="46.209291" lon="9.458166">
        <ele>208.776</ele>
        <time>2022-07-11T16:02:37Z</time>
      </trkpt>
      <trkpt lat="46.208708" lon="9.459301">
        <ele>207.772</ele>
        <time>2022-07-11T16:02:56Z</time>
      </trkpt>
      <trkpt lat="46.208483" lon="9.459600">
        <ele>207.796</ele>
        <time>2022-07-11T16:03:03Z</time>
      </trkpt>
      <trkpt lat="46.208472" lon="9.459639">
        <ele>207.797</ele>
        <time>2022-07-11T16:03:04Z</time>
      </trkpt>
      <trkpt lat="46.208478" lon="9.459684">
        <ele>207.745</ele>
        <time>2022-07-11T16:03:05Z</time>
      </trkpt>
      <trkpt lat="46.208489" lon="9.459719">
        <ele>207.739</ele>
        <time>2022-07-11T16:03:06Z</time>
      </trkpt>
      <trkpt lat="46.208501" lon="9.459752">
        <ele>207.738</ele>
        <time>2022-07-11T16:03:07Z</time>
      </trkpt>
      <trkpt lat="46.208519" lon="9.459786">
        <ele>207.770</ele>
        <time>2022-07-11T16:03:08Z</time>
      </trkpt>
      <trkpt lat="46.208532" lon="9.459820">
        <ele>209.217</ele>
        <time>2022-07-11T16:03:09Z</time>
      </trkpt>
      <trkpt lat="46.208539" lon="9.459842">
        <ele>209.209</ele>
        <time>2022-07-11T16:03:10Z</time>
      </trkpt>
      <trkpt lat="46.208539" lon="9.459858">
        <ele>209.214</ele>
        <time>2022-07-11T16:03:11Z</time>
      </trkpt>
      <trkpt lat="46.208533" lon="9.459874">
        <ele>209.763</ele>
        <time>2022-07-11T16:03:12Z</time>
      </trkpt>
      <trkpt lat="46.208524" lon="9.459888">
        <ele>209.741</ele>
        <time>2022-07-11T16:03:13Z</time>
      </trkpt>
      <trkpt lat="46.208510" lon="9.459895">
        <ele>209.783</ele>
        <time>2022-07-11T16:03:14Z</time>
      </trkpt>
      <trkpt lat="46.208492" lon="9.459902">
        <ele>209.769</ele>
        <time>2022-07-11T16:03:15Z</time>
      </trkpt>
      <trkpt lat="46.208082" lon="9.460230">
        <ele>209.743</ele>
        <time>2022-07-11T16:03:28Z</time>
      </trkpt>
      <trkpt lat="46.207719" lon="9.460448">
        <ele>210.134</ele>
        <time>2022-07-11T16:03:38Z</time>
      </trkpt>
      <trkpt lat="46.207693" lon="9.460421">
        <ele>210.192</ele>
        <time>2022-07-11T16:03:39Z</time>
      </trkpt>
      <trkpt lat="46.207671" lon="9.460380">
        <ele>210.176</ele>
        <time>2022-07-11T16:03:40Z</time>
      </trkpt>
      <trkpt lat="46.207649" lon="9.460334">
        <ele>208.778</ele>
        <time>2022-07-11T16:03:41Z</time>
      </trkpt>
      <trkpt lat="46.207617" lon="9.460284">
        <ele>207.733</ele>
        <time>2022-07-11T16:03:42Z</time>
      </trkpt>
      <trkpt lat="46.207570" lon="9.460258">
        <ele>207.326</ele>
        <time>2022-07-11T16:03:43Z</time>
      </trkpt>
      <trkpt lat="46.207524" lon="9.460267">
        <ele>207.309</ele>
        <time>2022-07-11T16:03:44Z</time>
      </trkpt>
      <trkpt lat="46.207487" lon="9.460294">
        <ele>207.318</ele>
        <time>2022-07-11T16:03:45Z</time>
      </trkpt>
      <trkpt lat="46.207461" lon="9.460322">
        <ele>208.767</ele>
        <time>2022-07-11T16:03:46Z</time>
      </trkpt>
      <trkpt lat="46.207436" lon="9.460343">
        <ele>209.255</ele>
        <time>2022-07-11T16:03:47Z</time>
      </trkpt>
      <trkpt lat="46.207415" lon="9.460361">
        <ele>210.197</ele>
        <time>2022-07-11T16:03:48Z</time>
      </trkpt>
      <trkpt lat="46.207395" lon="9.460375">
        <ele>210.143</ele>
        <time>2022-07-11T16:03:49Z</time>
      </trkpt>
      <trkpt lat="46.207323" lon="9.460422">
        <ele>212.157</ele>
        <time>2022-07-11T16:03:54Z</time>
      </trkpt>
      <trkpt lat="46.207307" lon="9.460426">
        <ele>212.178</ele>
        <time>2022-07-11T16:03:55Z</time>
      </trkpt>
      <trkpt lat="46.207293" lon="9.460428">
        <ele>212.176</ele>
        <time>2022-07-11T16:03:56Z</time>
      </trkpt>
      <trkpt lat="46.206994" lon="9.460341">
        <ele>213.070</ele>
        <time>2022-07-11T16:04:10Z</time>
      </trkpt>
      <trkpt lat="46.206427" lon="9.460041">
        <ele>213.014</ele>
        <time>2022-07-11T16:04:26Z</time>
      </trkpt>
      <trkpt lat="46.205798" lon="9.459611">
        <ele>213.054</ele>
        <time>2022-07-11T16:04:43Z</time>
      </trkpt>
      <trkpt lat="46.205083" lon="9.459363">
        <ele>212.109</ele>
        <time>2022-07-11T16:05:00Z</time>
      </trkpt>
      <trkpt lat="46.204733" lon="9.459265">
        <ele>212.109</ele>
        <time>2022-07-11T16:05:08Z</time>
      </trkpt>
      <trkpt lat="46.204690" lon="9.459241">
        <ele>212.192</ele>
        <time>2022-07-11T16:05:09Z</time>
      </trkpt>
      <trkpt lat="46.204532" lon="9.459141">
        <ele>211.651</ele>
        <time>2022-07-11T16:05:13Z</time>
      </trkpt>
      <trkpt lat="46.204287" lon="9.459048">
        <ele>212.549</ele>
        <time>2022-07-11T16:05:19Z</time>
      </trkpt>
      <trkpt lat="46.203496" lon="9.459023">
        <ele>211.141</ele>
        <time>2022-07-11T16:05:37Z</time>
      </trkpt>
      <trkpt lat="46.203445" lon="9.459025">
        <ele>211.147</ele>
        <time>2022-07-11T16:05:38Z</time>
      </trkpt>
      <trkpt lat="46.203254" lon="9.459002">
        <ele>211.181</ele>
        <time>2022-07-11T16:05:42Z</time>
      </trkpt>
      <trkpt lat="46.203203" lon="9.458972">
        <ele>211.132</ele>
        <time>2022-07-11T16:05:43Z</time>
      </trkpt>
      <trkpt lat="46.203167" lon="9.458940">
        <ele>211.140</ele>
        <time>2022-07-11T16:05:44Z</time>
      </trkpt>
      <trkpt lat="46.203094" lon="9.458863">
        <ele>211.174</ele>
        <time>2022-07-11T16:05:46Z</time>
      </trkpt>
      <trkpt lat="46.202528" lon="9.457940">
        <ele>211.129</ele>
        <time>2022-07-11T16:06:02Z</time>
      </trkpt>
      <trkpt lat="46.202502" lon="9.457874">
        <ele>211.100</ele>
        <time>2022-07-11T16:06:03Z</time>
      </trkpt>
      <trkpt lat="46.202347" lon="9.457350">
        <ele>207.720</ele>
        <time>2022-07-11T16:06:09Z</time>
      </trkpt>
      <trkpt lat="46.202083" lon="9.456223">
        <ele>207.709</ele>
        <time>2022-07-11T16:06:23Z</time>
      </trkpt>
      <trkpt lat="46.201977" lon="9.455634">
        <ele>207.723</ele>
        <time>2022-07-11T16:06:34Z</time>
      </trkpt>
      <trkpt lat="46.201965" lon="9.455577">
        <ele>207.782</ele>
        <time>2022-07-11T16:06:35Z</time>
      </trkpt>
      <trkpt lat="46.201951" lon="9.455517">
        <ele>207.760</ele>
        <time>2022-07-11T16:06:36Z</time>
      </trkpt>
      <trkpt lat="46.201740" lon="9.454507">
        <ele>207.772</ele>
        <time>2022-07-11T16:06:53Z</time>
      </trkpt>
      <trkpt lat="46.201605" lon="9.454010">
        <ele>210.628</ele>
        <time>2022-07-11T16:07:03Z</time>
      </trkpt>
      <trkpt lat="46.201615" lon="9.453991">
        <ele>210.622</ele>
        <time>2022-07-11T16:07:04Z</time>
      </trkpt>
      <trkpt lat="46.201632" lon="9.453975">
        <ele>211.123</ele>
        <time>2022-07-11T16:07:05Z</time>
      </trkpt>
      <trkpt lat="46.201654" lon="9.453958">
        <ele>211.121</ele>
        <time>2022-07-11T16:07:06Z</time>
      </trkpt>
      <trkpt lat="46.201681" lon="9.453940">
        <ele>211.165</ele>
        <time>2022-07-11T16:07:07Z</time>
      </trkpt>
      <trkpt lat="46.201707" lon="9.453926">
        <ele>211.116</ele>
        <time>2022-07-11T16:07:08Z</time>
      </trkpt>
      <trkpt lat="46.201729" lon="9.453912">
        <ele>211.176</ele>
        <time>2022-07-11T16:07:09Z</time>
      </trkpt>
      <trkpt lat="46.201749" lon="9.453900">
        <ele>211.113</ele>
        <time>2022-07-11T16:07:10Z</time>
      </trkpt>
      <trkpt lat="46.201771" lon="9.453887">
        <ele>211.109</ele>
        <time>2022-07-11T16:07:11Z</time>
      </trkpt>
      <trkpt lat="46.201794" lon="9.453871">
        <ele>211.132</ele>
        <time>2022-07-11T16:07:12Z</time>
      </trkpt>
      <trkpt lat="46.201814" lon="9.453846">
        <ele>211.111</ele>
        <time>2022-07-11T16:07:13Z</time>
      </trkpt>
      <trkpt lat="46.201822" lon="9.453809">
        <ele>211.179</ele>
        <time>2022-07-11T16:07:14Z</time>
      </trkpt>
      <trkpt lat="46.201817" lon="9.453768">
        <ele>211.181</ele>
        <time>2022-07-11T16:07:15Z</time>
      </trkpt>
      <trkpt lat="46.201801" lon="9.453739">
        <ele>211.147</ele>
        <time>2022-07-11T16:07:16Z</time>
      </trkpt>
      <trkpt lat="46.201784" lon="9.453728">
        <ele>211.161</ele>
        <time>2022-07-11T16:07:17Z</time>
      </trkpt>
      <trkpt lat="46.201767" lon="9.453735">
        <ele>211.112</ele>
        <time>2022-07-11T16:07:18Z</time>
      </trkpt>
      <trkpt lat="46.201755" lon="9.453751">
        <ele>211.110</ele>
        <time>2022-07-11T16:07:19Z</time>
      </trkpt>
      <trkpt lat="46.201745" lon="9.453765">
        <ele>211.164</ele>
        <time>2022-07-11T16:07:20Z</time>
      </trkpt>
      <trkpt lat="46.201733" lon="9.453777">
        <ele>211.127</ele>
        <time>2022-07-11T16:07:21Z</time>
      </trkpt>
      <trkpt lat="46.201721" lon="9.453788">
        <ele>211.168</ele>
        <time>2022-07-11T16:07:22Z</time>
      </trkpt>
      <trkpt lat="46.201536" lon="9.453953">
        <ele>213.514</ele>
        <time>2022-07-11T16:07:36Z</time>
      </trkpt>
      <trkpt lat="46.201524" lon="9.453962">
        <ele>214.009</ele>
        <time>2022-07-11T16:07:37Z</time>
      </trkpt>
      <trkpt lat="46.201515" lon="9.453976">
        <ele>214.083</ele>
        <time>2022-07-11T16:07:38Z</time>
      </trkpt>
      <trkpt lat="46.201491" lon="9.453995">
        <ele>214.962</ele>
        <time>2022-07-11T16:07:41Z</time>
      </trkpt>
      <trkpt lat="46.201480" lon="9.453983">
        <ele>214.910</ele>
        <time>2022-07-11T16:07:42Z</time>
      </trkpt>
      <trkpt lat="46.201469" lon="9.453964">
        <ele>214.922</ele>
        <time>2022-07-11T16:07:43Z</time>
      </trkpt>
      <trkpt lat="46.201458" lon="9.453936">
        <ele>214.958</ele>
        <time>2022-07-11T16:07:44Z</time>
      </trkpt>
      <trkpt lat="46.201445" lon="9.453899">
        <ele>214.982</ele>
        <time>2022-07-11T16:07:45Z</time>
      </trkpt>
      <trkpt lat="46.201432" lon="9.453855">
        <ele>214.993</ele>
        <time>2022-07-11T16:07:46Z</time>
      </trkpt>
      <trkpt lat="46.201290" lon="9.453477">
        <ele>214.591</ele>
        <time>2022-07-11T16:07:56Z</time>
      </trkpt>
      <trkpt lat="46.201175" lon="9.453184">
        <ele>211.675</ele>
        <time>2022-07-11T16:08:00Z</time>
      </trkpt>
      <trkpt lat="46.200869" lon="9.452725">
        <ele>210.158</ele>
        <time>2022-07-11T16:08:07Z</time>
      </trkpt>
      <trkpt lat="46.200792" lon="9.452584">
        <ele>209.252</ele>
        <time>2022-07-11T16:08:09Z</time>
      </trkpt>
      <trkpt lat="46.200746" lon="9.452528">
        <ele>209.217</ele>
        <time>2022-07-11T16:08:10Z</time>
      </trkpt>
      <trkpt lat="46.200224" lon="9.452018">
        <ele>208.709</ele>
        <time>2022-07-11T16:08:22Z</time>
      </trkpt>
      <trkpt lat="46.199559" lon="9.451625">
        <ele>207.746</ele>
        <time>2022-07-11T16:08:36Z</time>
      </trkpt>
      <trkpt lat="46.199455" lon="9.451580">
        <ele>209.235</ele>
        <time>2022-07-11T16:08:39Z</time>
      </trkpt>
      <trkpt lat="46.198749" lon="9.451359">
        <ele>210.113</ele>
        <time>2022-07-11T16:08:58Z</time>
      </trkpt>
      <trkpt lat="46.198242" lon="9.451313">
        <ele>210.625</ele>
        <time>2022-07-11T16:09:11Z</time>
      </trkpt>
      <trkpt lat="46.197838" lon="9.451335">
        <ele>210.681</ele>
        <time>2022-07-11T16:09:21Z</time>
      </trkpt>
      <trkpt lat="46.197279" lon="9.451339">
        <ele>209.765</ele>
        <time>2022-07-11T16:09:36Z</time>
      </trkpt>
      <trkpt lat="46.197265" lon="9.451309">
        <ele>209.716</ele>
        <time>2022-07-11T16:09:37Z</time>
      </trkpt>
      <trkpt lat="46.197255" lon="9.451268">
        <ele>209.744</ele>
        <time>2022-07-11T16:09:38Z</time>
      </trkpt>
      <trkpt lat="46.197248" lon="9.451218">
        <ele>209.788</ele>
        <time>2022-07-11T16:09:39Z</time>
      </trkpt>
      <trkpt lat="46.197236" lon="9.451147">
        <ele>209.271</ele>
        <time>2022-07-11T16:09:40Z</time>
      </trkpt>
      <trkpt lat="46.197224" lon="9.451086">
        <ele>209.241</ele>
        <time>2022-07-11T16:09:41Z</time>
      </trkpt>
      <trkpt lat="46.197198" lon="9.451008">
        <ele>209.215</ele>
        <time>2022-07-11T16:09:42Z</time>
      </trkpt>
      <trkpt lat="46.197173" lon="9.450954">
        <ele>208.209</ele>
        <time>2022-07-11T16:09:43Z</time>
      </trkpt>
      <trkpt lat="46.197139" lon="9.450901">
        <ele>208.288</ele>
        <time>2022-07-11T16:09:44Z</time>
      </trkpt>
      <trkpt lat="46.197096" lon="9.450861">
        <ele>208.217</ele>
        <time>2022-07-11T16:09:45Z</time>
      </trkpt>
      <trkpt lat="46.197052" lon="9.450841">
        <ele>207.765</ele>
        <time>2022-07-11T16:09:46Z</time>
      </trkpt>
      <trkpt lat="46.197003" lon="9.450832">
        <ele>207.747</ele>
        <time>2022-07-11T16:09:47Z</time>
      </trkpt>
      <trkpt lat="46.196962" lon="9.450833">
        <ele>207.733</ele>
        <time>2022-07-11T16:09:48Z</time>
      </trkpt>
      <trkpt lat="46.196910" lon="9.450838">
        <ele>207.717</ele>
        <time>2022-07-11T16:09:49Z</time>
      </trkpt>
      <trkpt lat="46.196497" lon="9.450950">
        <ele>207.348</ele>
        <time>2022-07-11T16:10:01Z</time>
      </trkpt>
      <trkpt lat="46.196283" lon="9.451219">
        <ele>207.356</ele>
        <time>2022-07-11T16:10:09Z</time>
      </trkpt>
      <trkpt lat="46.196241" lon="9.451217">
        <ele>207.350</ele>
        <time>2022-07-11T16:10:10Z</time>
      </trkpt>
      <trkpt lat="46.196197" lon="9.451206">
        <ele>207.371</ele>
        <time>2022-07-11T16:10:11Z</time>
      </trkpt>
      <trkpt lat="46.195966" lon="9.451098">
        <ele>206.841</ele>
        <time>2022-07-11T16:10:17Z</time>
      </trkpt>
      <trkpt lat="46.195818" lon="9.451004">
        <ele>206.815</ele>
        <time>2022-07-11T16:10:21Z</time>
      </trkpt>
      <trkpt lat="46.195175" lon="9.450653">
        <ele>206.809</ele>
        <time>2022-07-11T16:10:38Z</time>
      </trkpt>
      <trkpt lat="46.195010" lon="9.450554">
        <ele>208.258</ele>
        <time>2022-07-11T16:10:45Z</time>
      </trkpt>
      <trkpt lat="46.194888" lon="9.450471">
        <ele>210.647</ele>
        <time>2022-07-11T16:10:51Z</time>
      </trkpt>
      <trkpt lat="46.194724" lon="9.450378">
        <ele>212.155</ele>
        <time>2022-07-11T16:11:02Z</time>
      </trkpt>
      <trkpt lat="46.194715" lon="9.450357">
        <ele>212.137</ele>
        <time>2022-07-11T16:11:03Z</time>
      </trkpt>
      <trkpt lat="46.194706" lon="9.450338">
        <ele>212.553</ele>
        <time>2022-07-11T16:11:04Z</time>
      </trkpt>
      <trkpt lat="46.194695" lon="9.450315">
        <ele>212.537</ele>
        <time>2022-07-11T16:11:05Z</time>
      </trkpt>
      <trkpt lat="46.194688" lon="9.450293">
        <ele>213.078</ele>
        <time>2022-07-11T16:11:06Z</time>
      </trkpt>
      <trkpt lat="46.194684" lon="9.450270">
        <ele>213.036</ele>
        <time>2022-07-11T16:11:07Z</time>
      </trkpt>
      <trkpt lat="46.194681" lon="9.450237">
        <ele>213.010</ele>
        <time>2022-07-11T16:11:08Z</time>
      </trkpt>
      <trkpt lat="46.194544" lon="9.449722">
        <ele>214.035</ele>
        <time>2022-07-11T16:11:24Z</time>
      </trkpt>
      <trkpt lat="46.194182" lon="9.449636">
        <ele>214.086</ele>
        <time>2022-07-11T16:11:37Z</time>
      </trkpt>
      <trkpt lat="46.193542" lon="9.449548">
        <ele>213.514</ele>
        <time>2022-07-11T16:11:55Z</time>
      </trkpt>
      <trkpt lat="46.192993" lon="9.449414">
        <ele>213.509</ele>
        <time>2022-07-11T16:12:09Z</time>
      </trkpt>
      <trkpt lat="46.192230" lon="9.449256">
        <ele>212.524</ele>
        <time>2022-07-11T16:12:24Z</time>
      </trkpt>
      <trkpt lat="46.192182" lon="9.449255">
        <ele>212.523</ele>
        <time>2022-07-11T16:12:25Z</time>
      </trkpt>
      <trkpt lat="46.192083" lon="9.449256">
        <ele>212.511</ele>
        <time>2022-07-11T16:12:27Z</time>
      </trkpt>
      <trkpt lat="46.192030" lon="9.449239">
        <ele>212.583</ele>
        <time>2022-07-11T16:12:28Z</time>
      </trkpt>
      <trkpt lat="46.191981" lon="9.449208">
        <ele>212.139</ele>
        <time>2022-07-11T16:12:29Z</time>
      </trkpt>
      <trkpt lat="46.191938" lon="9.449173">
        <ele>212.163</ele>
        <time>2022-07-11T16:12:30Z</time>
      </trkpt>
      <trkpt lat="46.191893" lon="9.449127">
        <ele>212.134</ele>
        <time>2022-07-11T16:12:31Z</time>
      </trkpt>
      <trkpt lat="46.191207" lon="9.448567">
        <ele>211.642</ele>
        <time>2022-07-11T16:12:49Z</time>
      </trkpt>
      <trkpt lat="46.190841" lon="9.448328">
        <ele>212.586</ele>
        <time>2022-07-11T16:12:58Z</time>
      </trkpt>
      <trkpt lat="46.190126" lon="9.447761">
        <ele>213.537</ele>
        <time>2022-07-11T16:13:16Z</time>
      </trkpt>
      <trkpt lat="46.189438" lon="9.447215">
        <ele>213.049</ele>
        <time>2022-07-11T16:13:33Z</time>
      </trkpt>
      <trkpt lat="46.188955" lon="9.446723">
        <ele>213.013</ele>
        <time>2022-07-11T16:13:47Z</time>
      </trkpt>
      <trkpt lat="46.188837" lon="9.446584">
        <ele>211.609</ele>
        <time>2022-07-11T16:13:50Z</time>
      </trkpt>
      <trkpt lat="46.188764" lon="9.446480">
        <ele>209.794</ele>
        <time>2022-07-11T16:13:52Z</time>
      </trkpt>
      <trkpt lat="46.188734" lon="9.446429">
        <ele>209.743</ele>
        <time>2022-07-11T16:13:53Z</time>
      </trkpt>
      <trkpt lat="46.188672" lon="9.446324">
        <ele>207.731</ele>
        <time>2022-07-11T16:13:55Z</time>
      </trkpt>
      <trkpt lat="46.188652" lon="9.446242">
        <ele>207.353</ele>
        <time>2022-07-11T16:13:56Z</time>
      </trkpt>
      <trkpt lat="46.188644" lon="9.446152">
        <ele>207.389</ele>
        <time>2022-07-11T16:13:57Z</time>
      </trkpt>
      <trkpt lat="46.188621" lon="9.446084">
        <ele>207.383</ele>
        <time>2022-07-11T16:13:58Z</time>
      </trkpt>
      <trkpt lat="46.188581" lon="9.446018">
        <ele>207.344</ele>
        <time>2022-07-11T16:13:59Z</time>
      </trkpt>
      <trkpt lat="46.188538" lon="9.445960">
        <ele>207.322</ele>
        <time>2022-07-11T16:14:00Z</time>
      </trkpt>
      <trkpt lat="46.188060" lon="9.445207">
        <ele>207.376</ele>
        <time>2022-07-11T16:14:14Z</time>
      </trkpt>
      <trkpt lat="46.187988" lon="9.445037">
        <ele>207.355</ele>
        <time>2022-07-11T16:14:17Z</time>
      </trkpt>
      <trkpt lat="46.187932" lon="9.444926">
        <ele>207.307</ele>
        <time>2022-07-11T16:14:19Z</time>
      </trkpt>
      <trkpt lat="46.187830" lon="9.444788">
        <ele>207.317</ele>
        <time>2022-07-11T16:14:22Z</time>
      </trkpt>
      <trkpt lat="46.187791" lon="9.444751">
        <ele>207.309</ele>
        <time>2022-07-11T16:14:23Z</time>
      </trkpt>
      <trkpt lat="46.187750" lon="9.444718">
        <ele>207.316</ele>
        <time>2022-07-11T16:14:24Z</time>
      </trkpt>
      <trkpt lat="46.187708" lon="9.444691">
        <ele>207.315</ele>
        <time>2022-07-11T16:14:25Z</time>
      </trkpt>
      <trkpt lat="46.187666" lon="9.444672">
        <ele>207.363</ele>
        <time>2022-07-11T16:14:26Z</time>
      </trkpt>
      <trkpt lat="46.187622" lon="9.444656">
        <ele>207.395</ele>
        <time>2022-07-11T16:14:27Z</time>
      </trkpt>
      <trkpt lat="46.187587" lon="9.444641">
        <ele>207.391</ele>
        <time>2022-07-11T16:14:34Z</time>
      </trkpt>
      <trkpt lat="46.187593" lon="9.444639">
        <ele>207.355</ele>
        <time>2022-07-11T16:14:55Z</time>
      </trkpt>
      <trkpt lat="46.187584" lon="9.444622">
        <ele>207.366</ele>
        <time>2022-07-11T16:15:18Z</time>
      </trkpt>
      <trkpt lat="46.187574" lon="9.444612">
        <ele>207.364</ele>
        <time>2022-07-11T16:15:19Z</time>
      </trkpt>
      <trkpt lat="46.187251" lon="9.444474">
        <ele>206.848</ele>
        <time>2022-07-11T16:15:30Z</time>
      </trkpt>
      <trkpt lat="46.186483" lon="9.444106">
        <ele>207.378</ele>
        <time>2022-07-11T16:15:48Z</time>
      </trkpt>
      <trkpt lat="46.185852" lon="9.443831">
        <ele>207.333</ele>
        <time>2022-07-11T16:16:02Z</time>
      </trkpt>
      <trkpt lat="46.185171" lon="9.443520">
        <ele>207.326</ele>
        <time>2022-07-11T16:16:17Z</time>
      </trkpt>
      <trkpt lat="46.184649" lon="9.443201">
        <ele>206.309</ele>
        <time>2022-07-11T16:16:29Z</time>
      </trkpt>
      <trkpt lat="46.183823" lon="9.442610">
        <ele>206.338</ele>
        <time>2022-07-11T16:16:48Z</time>
      </trkpt>
      <trkpt lat="46.183647" lon="9.442436">
        <ele>208.217</ele>
        <time>2022-07-11T16:16:54Z</time>
      </trkpt>
      <trkpt lat="46.183483" lon="9.441673">
        <ele>208.235</ele>
        <time>2022-07-11T16:17:07Z</time>
      </trkpt>
      <trkpt lat="46.183236" lon="9.440421">
        <ele>208.217</ele>
        <time>2022-07-11T16:17:26Z</time>
      </trkpt>
      <trkpt lat="46.183119" lon="9.439867">
        <ele>208.273</ele>
        <time>2022-07-11T16:17:34Z</time>
      </trkpt>
      <trkpt lat="46.182818" lon="9.438359">
        <ele>208.237</ele>
        <time>2022-07-11T16:17:55Z</time>
      </trkpt>
      <trkpt lat="46.182746" lon="9.438007">
        <ele>208.298</ele>
        <time>2022-07-11T16:18:00Z</time>
      </trkpt>
      <trkpt lat="46.182612" lon="9.437625">
        <ele>208.266</ele>
        <time>2022-07-11T16:18:06Z</time>
      </trkpt>
      <trkpt lat="46.182522" lon="9.437462">
        <ele>208.210</ele>
        <time>2022-07-11T16:18:09Z</time>
      </trkpt>
      <trkpt lat="46.182489" lon="9.437415">
        <ele>208.281</ele>
        <time>2022-07-11T16:18:10Z</time>
      </trkpt>
      <trkpt lat="46.182336" lon="9.437249">
        <ele>208.261</ele>
        <time>2022-07-11T16:18:14Z</time>
      </trkpt>
      <trkpt lat="46.182292" lon="9.437222">
        <ele>208.217</ele>
        <time>2022-07-11T16:18:15Z</time>
      </trkpt>
      <trkpt lat="46.182010" lon="9.437103">
        <ele>208.209</ele>
        <time>2022-07-11T16:18:21Z</time>
      </trkpt>
      <trkpt lat="46.181173" lon="9.436901">
        <ele>207.749</ele>
        <time>2022-07-11T16:18:38Z</time>
      </trkpt>
      <trkpt lat="46.180344" lon="9.436685">
        <ele>207.748</ele>
        <time>2022-07-11T16:18:55Z</time>
      </trkpt>
      <trkpt lat="46.179459" lon="9.436439">
        <ele>207.796</ele>
        <time>2022-07-11T16:19:13Z</time>
      </trkpt>
      <trkpt lat="46.178502" lon="9.436054">
        <ele>207.758</ele>
        <time>2022-07-11T16:19:34Z</time>
      </trkpt>
      <trkpt lat="46.177785" lon="9.435721">
        <ele>207.724</ele>
        <time>2022-07-11T16:19:51Z</time>
      </trkpt>
      <trkpt lat="46.176852" lon="9.435315">
        <ele>207.758</ele>
        <time>2022-07-11T16:20:11Z</time>
      </trkpt>
      <trkpt lat="46.175945" lon="9.434910">
        <ele>207.779</ele>
        <time>2022-07-11T16:20:31Z</time>
      </trkpt>
      <trkpt lat="46.175190" lon="9.434356">
        <ele>207.747</ele>
        <time>2022-07-11T16:20:49Z</time>
      </trkpt>
      <trkpt lat="46.174591" lon="9.433777">
        <ele>206.381</ele>
        <time>2022-07-11T16:21:04Z</time>
      </trkpt>
      <trkpt lat="46.174235" lon="9.433439">
        <ele>206.317</ele>
        <time>2022-07-11T16:21:16Z</time>
      </trkpt>
      <trkpt lat="46.173684" lon="9.432894">
        <ele>206.387</ele>
        <time>2022-07-11T16:21:33Z</time>
      </trkpt>
      <trkpt lat="46.173076" lon="9.432286">
        <ele>205.815</ele>
        <time>2022-07-11T16:21:52Z</time>
      </trkpt>
      <trkpt lat="46.172538" lon="9.431783">
        <ele>206.809</ele>
        <time>2022-07-11T16:22:09Z</time>
      </trkpt>
      <trkpt lat="46.172099" lon="9.431331">
        <ele>207.342</ele>
        <time>2022-07-11T16:22:22Z</time>
      </trkpt>
      <trkpt lat="46.172072" lon="9.431287">
        <ele>207.331</ele>
        <time>2022-07-11T16:22:23Z</time>
      </trkpt>
      <trkpt lat="46.172048" lon="9.431239">
        <ele>207.349</ele>
        <time>2022-07-11T16:22:24Z</time>
      </trkpt>
      <trkpt lat="46.171674" lon="9.430571">
        <ele>207.751</ele>
        <time>2022-07-11T16:22:40Z</time>
      </trkpt>
      <trkpt lat="46.171615" lon="9.430548">
        <ele>207.797</ele>
        <time>2022-07-11T16:22:42Z</time>
      </trkpt>
      <trkpt lat="46.171588" lon="9.430554">
        <ele>207.771</ele>
        <time>2022-07-11T16:22:43Z</time>
      </trkpt>
      <trkpt lat="46.171561" lon="9.430580">
        <ele>207.762</ele>
        <time>2022-07-11T16:22:44Z</time>
      </trkpt>
      <trkpt lat="46.171545" lon="9.430608">
        <ele>207.730</ele>
        <time>2022-07-11T16:22:45Z</time>
      </trkpt>
      <trkpt lat="46.171530" lon="9.430649">
        <ele>207.724</ele>
        <time>2022-07-11T16:22:46Z</time>
      </trkpt>
      <trkpt lat="46.171517" lon="9.430693">
        <ele>207.733</ele>
        <time>2022-07-11T16:22:47Z</time>
      </trkpt>
      <trkpt lat="46.171502" lon="9.430780">
        <ele>207.723</ele>
        <time>2022-07-11T16:22:49Z</time>
      </trkpt>
      <trkpt lat="46.171522" lon="9.431285">
        <ele>207.715</ele>
        <time>2022-07-11T16:23:00Z</time>
      </trkpt>
      <trkpt lat="46.171492" lon="9.432044">
        <ele>207.709</ele>
        <time>2022-07-11T16:23:12Z</time>
      </trkpt>
      <trkpt lat="46.171482" lon="9.432105">
        <ele>207.774</ele>
        <time>2022-07-11T16:23:13Z</time>
      </trkpt>
      <trkpt lat="46.171465" lon="9.432158">
        <ele>207.713</ele>
        <time>2022-07-11T16:23:14Z</time>
      </trkpt>
      <trkpt lat="46.171441" lon="9.432205">
        <ele>206.831</ele>
        <time>2022-07-11T16:23:15Z</time>
      </trkpt>
      <trkpt lat="46.171412" lon="9.432249">
        <ele>206.843</ele>
        <time>2022-07-11T16:23:16Z</time>
      </trkpt>
      <trkpt lat="46.171374" lon="9.432283">
        <ele>206.849</ele>
        <time>2022-07-11T16:23:17Z</time>
      </trkpt>
      <trkpt lat="46.171340" lon="9.432289">
        <ele>206.893</ele>
        <time>2022-07-11T16:23:18Z</time>
      </trkpt>
      <trkpt lat="46.171307" lon="9.432268">
        <ele>206.894</ele>
        <time>2022-07-11T16:23:19Z</time>
      </trkpt>
      <trkpt lat="46.171277" lon="9.432232">
        <ele>206.882</ele>
        <time>2022-07-11T16:23:20Z</time>
      </trkpt>
      <trkpt lat="46.171258" lon="9.432201">
        <ele>206.896</ele>
        <time>2022-07-11T16:23:21Z</time>
      </trkpt>
      <trkpt lat="46.171243" lon="9.432175">
        <ele>206.838</ele>
        <time>2022-07-11T16:23:22Z</time>
      </trkpt>
      <trkpt lat="46.171230" lon="9.432154">
        <ele>206.870</ele>
        <time>2022-07-11T16:23:23Z</time>
      </trkpt>
      <trkpt lat="46.171218" lon="9.432136">
        <ele>206.817</ele>
        <time>2022-07-11T16:23:24Z</time>
      </trkpt>
      <trkpt lat="46.171205" lon="9.432116">
        <ele>206.809</ele>
        <time>2022-07-11T16:23:25Z</time>
      </trkpt>
      <trkpt lat="46.171197" lon="9.432099">
        <ele>206.894</ele>
        <time>2022-07-11T16:23:26Z</time>
      </trkpt>
      <trkpt lat="46.171188" lon="9.432084">
        <ele>206.823</ele>
        <time>2022-07-11T16:23:27Z</time>
      </trkpt>
      <trkpt lat="46.171181" lon="9.432064">
        <ele>202.491</ele>
        <time>2022-07-11T16:23:36Z</time>
      </trkpt>
      <trkpt lat="46.171181" lon="9.432062">
        <ele>206.823</ele>
        <time>2022-07-11T16:23:37Z</time>
      </trkpt>
      <trkpt lat="46.171183" lon="9.432063">
        <ele>209.249</ele>
        <time>2022-07-11T16:23:40Z</time>
      </trkpt>
      <trkpt lat="46.171180" lon="9.432058">
        <ele>206.853</ele>
        <time>2022-07-11T16:23:44Z</time>
      </trkpt>
      <trkpt lat="46.171142" lon="9.432076">
        <ele>206.874</ele>
        <time>2022-07-11T16:24:14Z</time>
      </trkpt>
      <trkpt lat="46.171127" lon="9.431992">
        <ele>206.852</ele>
        <time>2022-07-11T16:24:43Z</time>
      </trkpt>
      <trkpt lat="46.170794" lon="9.431455">
        <ele>206.886</ele>
        <time>2022-07-11T16:24:57Z</time>
      </trkpt>
      <trkpt lat="46.170525" lon="9.430981">
        <ele>208.233</ele>
        <time>2022-07-11T16:25:09Z</time>
      </trkpt>
      <trkpt lat="46.170332" lon="9.430693">
        <ele>208.223</ele>
        <time>2022-07-11T16:25:21Z</time>
      </trkpt>
      <trkpt lat="46.170262" lon="9.430595">
        <ele>208.215</ele>
        <time>2022-07-11T16:25:32Z</time>
      </trkpt>
      <trkpt lat="46.170155" lon="9.430465">
        <ele>208.209</ele>
        <time>2022-07-11T16:25:53Z</time>
      </trkpt>
      <trkpt lat="46.170012" lon="9.430275">
        <ele>208.714</ele>
        <time>2022-07-11T16:25:58Z</time>
      </trkpt>
      <trkpt lat="46.169319" lon="9.429450">
        <ele>208.753</ele>
        <time>2022-07-11T16:26:18Z</time>
      </trkpt>
      <trkpt lat="46.168400" lon="9.428899">
        <ele>209.241</ele>
        <time>2022-07-11T16:26:38Z</time>
      </trkpt>
      <trkpt lat="46.167640" lon="9.428437">
        <ele>209.243</ele>
        <time>2022-07-11T16:26:54Z</time>
      </trkpt>
      <trkpt lat="46.167002" lon="9.428046">
        <ele>209.259</ele>
        <time>2022-07-11T16:27:09Z</time>
      </trkpt>
      <trkpt lat="46.166884" lon="9.427989">
        <ele>209.273</ele>
        <time>2022-07-11T16:27:12Z</time>
      </trkpt>
      <trkpt lat="46.166840" lon="9.427970">
        <ele>209.264</ele>
        <time>2022-07-11T16:27:13Z</time>
      </trkpt>
      <trkpt lat="46.166505" lon="9.427765">
        <ele>209.212</ele>
        <time>2022-07-11T16:27:20Z</time>
      </trkpt>
      <trkpt lat="46.166423" lon="9.427702">
        <ele>209.246</ele>
        <time>2022-07-11T16:27:22Z</time>
      </trkpt>
      <trkpt lat="46.166256" lon="9.427586">
        <ele>209.278</ele>
        <time>2022-07-11T16:27:26Z</time>
      </trkpt>
      <trkpt lat="46.165979" lon="9.427342">
        <ele>207.733</ele>
        <time>2022-07-11T16:27:33Z</time>
      </trkpt>
      <trkpt lat="46.165736" lon="9.427118">
        <ele>207.726</ele>
        <time>2022-07-11T16:27:39Z</time>
      </trkpt>
      <trkpt lat="46.165693" lon="9.427091">
        <ele>207.709</ele>
        <time>2022-07-11T16:27:40Z</time>
      </trkpt>
      <trkpt lat="46.165649" lon="9.427076">
        <ele>207.728</ele>
        <time>2022-07-11T16:27:41Z</time>
      </trkpt>
      <trkpt lat="46.165603" lon="9.427068">
        <ele>207.727</ele>
        <time>2022-07-11T16:27:42Z</time>
      </trkpt>
      <trkpt lat="46.165557" lon="9.427057">
        <ele>209.245</ele>
        <time>2022-07-11T16:27:43Z</time>
      </trkpt>
      <trkpt lat="46.165510" lon="9.427033">
        <ele>209.237</ele>
        <time>2022-07-11T16:27:44Z</time>
      </trkpt>
      <trkpt lat="46.165470" lon="9.426997">
        <ele>209.283</ele>
        <time>2022-07-11T16:27:45Z</time>
      </trkpt>
      <trkpt lat="46.165431" lon="9.426952">
        <ele>209.277</ele>
        <time>2022-07-11T16:27:46Z</time>
      </trkpt>
      <trkpt lat="46.164677" lon="9.426198">
        <ele>209.268</ele>
        <time>2022-07-11T16:28:04Z</time>
      </trkpt>
      <trkpt lat="46.164117" lon="9.425647">
        <ele>208.726</ele>
        <time>2022-07-11T16:28:18Z</time>
      </trkpt>
      <trkpt lat="46.164091" lon="9.425611">
        <ele>208.750</ele>
        <time>2022-07-11T16:28:19Z</time>
      </trkpt>
      <trkpt lat="46.164063" lon="9.425586">
        <ele>208.726</ele>
        <time>2022-07-11T16:28:20Z</time>
      </trkpt>
      <trkpt lat="46.164024" lon="9.425565">
        <ele>208.747</ele>
        <time>2022-07-11T16:28:21Z</time>
      </trkpt>
      <trkpt lat="46.163991" lon="9.425553">
        <ele>208.711</ele>
        <time>2022-07-11T16:28:22Z</time>
      </trkpt>
      <trkpt lat="46.163912" lon="9.425512">
        <ele>208.709</ele>
        <time>2022-07-11T16:28:24Z</time>
      </trkpt>
      <trkpt lat="46.163872" lon="9.425475">
        <ele>208.783</ele>
        <time>2022-07-11T16:28:25Z</time>
      </trkpt>
      <trkpt lat="46.163841" lon="9.425432">
        <ele>208.742</ele>
        <time>2022-07-11T16:28:26Z</time>
      </trkpt>
      <trkpt lat="46.163811" lon="9.425378">
        <ele>208.770</ele>
        <time>2022-07-11T16:28:27Z</time>
      </trkpt>
      <trkpt lat="46.163784" lon="9.425329">
        <ele>208.712</ele>
        <time>2022-07-11T16:28:28Z</time>
      </trkpt>
      <trkpt lat="46.163751" lon="9.425282">
        <ele>208.788</ele>
        <time>2022-07-11T16:28:29Z</time>
      </trkpt>
      <trkpt lat="46.163720" lon="9.425243">
        <ele>208.732</ele>
        <time>2022-07-11T16:28:30Z</time>
      </trkpt>
      <trkpt lat="46.163682" lon="9.425205">
        <ele>208.733</ele>
        <time>2022-07-11T16:28:31Z</time>
      </trkpt>
      <trkpt lat="46.162920" lon="9.424466">
        <ele>208.751</ele>
        <time>2022-07-11T16:28:51Z</time>
      </trkpt>
      <trkpt lat="46.162258" lon="9.423816">
        <ele>208.755</ele>
        <time>2022-07-11T16:29:09Z</time>
      </trkpt>
      <trkpt lat="46.161836" lon="9.423313">
        <ele>208.789</ele>
        <time>2022-07-11T16:29:25Z</time>
      </trkpt>
      <trkpt lat="46.161458" lon="9.422900">
        <ele>208.706</ele>
        <time>2022-07-11T16:29:36Z</time>
      </trkpt>
      <trkpt lat="46.160536" lon="9.421994">
        <ele>208.726</ele>
        <time>2022-07-11T16:29:59Z</time>
      </trkpt>
      <trkpt lat="46.159595" lon="9.421077">
        <ele>208.209</ele>
        <time>2022-07-11T16:30:22Z</time>
      </trkpt>
      <trkpt lat="46.158563" lon="9.420062">
        <ele>208.229</ele>
        <time>2022-07-11T16:30:47Z</time>
      </trkpt>
      <trkpt lat="46.157704" lon="9.419220">
        <ele>208.798</ele>
        <time>2022-07-11T16:31:08Z</time>
      </trkpt>
      <trkpt lat="46.157312" lon="9.418804">
        <ele>208.756</ele>
        <time>2022-07-11T16:31:18Z</time>
      </trkpt>
      <trkpt lat="46.157284" lon="9.418745">
        <ele>208.728</ele>
        <time>2022-07-11T16:31:19Z</time>
      </trkpt>
      <trkpt lat="46.157262" lon="9.418684">
        <ele>208.714</ele>
        <time>2022-07-11T16:31:20Z</time>
      </trkpt>
      <trkpt lat="46.157237" lon="9.418626">
        <ele>208.748</ele>
        <time>2022-07-11T16:31:21Z</time>
      </trkpt>
      <trkpt lat="46.157203" lon="9.418567">
        <ele>208.779</ele>
        <time>2022-07-11T16:31:22Z</time>
      </trkpt>
      <trkpt lat="46.157164" lon="9.418523">
        <ele>208.797</ele>
        <time>2022-07-11T16:31:23Z</time>
      </trkpt>
      <trkpt lat="46.157121" lon="9.418490">
        <ele>208.731</ele>
        <time>2022-07-11T16:31:24Z</time>
      </trkpt>
      <trkpt lat="46.157071" lon="9.418466">
        <ele>208.722</ele>
        <time>2022-07-11T16:31:25Z</time>
      </trkpt>
      <trkpt lat="46.157019" lon="9.418449">
        <ele>208.762</ele>
        <time>2022-07-11T16:31:26Z</time>
      </trkpt>
      <trkpt lat="46.156961" lon="9.418428">
        <ele>208.708</ele>
        <time>2022-07-11T16:31:27Z</time>
      </trkpt>
      <trkpt lat="46.156923" lon="9.418411">
        <ele>208.709</ele>
        <time>2022-07-11T16:31:28Z</time>
      </trkpt>
      <trkpt lat="46.156872" lon="9.418379">
        <ele>208.793</ele>
        <time>2022-07-11T16:31:29Z</time>
      </trkpt>
      <trkpt lat="46.156827" lon="9.418347">
        <ele>208.732</ele>
        <time>2022-07-11T16:31:30Z</time>
      </trkpt>
      <trkpt lat="46.156648" lon="9.418196">
        <ele>208.730</ele>
        <time>2022-07-11T16:31:34Z</time>
      </trkpt>
      <trkpt lat="46.156606" lon="9.418154">
        <ele>208.712</ele>
        <time>2022-07-11T16:31:35Z</time>
      </trkpt>
      <trkpt lat="46.155609" lon="9.417178">
        <ele>208.728</ele>
        <time>2022-07-11T16:31:59Z</time>
      </trkpt>
      <trkpt lat="46.154801" lon="9.416393">
        <ele>208.232</ele>
        <time>2022-07-11T16:32:18Z</time>
      </trkpt>
      <trkpt lat="46.153888" lon="9.415507">
        <ele>208.293</ele>
        <time>2022-07-11T16:32:39Z</time>
      </trkpt>
      <trkpt lat="46.152853" lon="9.414480">
        <ele>208.291</ele>
        <time>2022-07-11T16:33:03Z</time>
      </trkpt>
      <trkpt lat="46.151836" lon="9.413484">
        <ele>209.235</ele>
        <time>2022-07-11T16:33:29Z</time>
      </trkpt>
      <trkpt lat="46.151082" lon="9.412709">
        <ele>211.124</ele>
        <time>2022-07-11T16:33:51Z</time>
      </trkpt>
      <trkpt lat="46.150499" lon="9.412465">
        <ele>211.104</ele>
        <time>2022-07-11T16:34:06Z</time>
      </trkpt>
      <trkpt lat="46.149481" lon="9.412369">
        <ele>211.614</ele>
        <time>2022-07-11T16:34:28Z</time>
      </trkpt>
      <trkpt lat="46.148440" lon="9.412287">
        <ele>211.609</ele>
        <time>2022-07-11T16:34:48Z</time>
      </trkpt>
      <trkpt lat="46.147940" lon="9.412341">
        <ele>211.663</ele>
        <time>2022-07-11T16:34:59Z</time>
      </trkpt>
      <trkpt lat="46.147891" lon="9.412327">
        <ele>211.682</ele>
        <time>2022-07-11T16:35:00Z</time>
      </trkpt>
      <trkpt lat="46.147852" lon="9.412305">
        <ele>211.630</ele>
        <time>2022-07-11T16:35:01Z</time>
      </trkpt>
      <trkpt lat="46.147809" lon="9.412270">
        <ele>211.682</ele>
        <time>2022-07-11T16:35:02Z</time>
      </trkpt>
      <trkpt lat="46.147775" lon="9.412234">
        <ele>211.688</ele>
        <time>2022-07-11T16:35:03Z</time>
      </trkpt>
      <trkpt lat="46.147735" lon="9.412194">
        <ele>211.692</ele>
        <time>2022-07-11T16:35:04Z</time>
      </trkpt>
      <trkpt lat="46.147699" lon="9.412168">
        <ele>211.693</ele>
        <time>2022-07-11T16:35:05Z</time>
      </trkpt>
      <trkpt lat="46.147656" lon="9.412139">
        <ele>211.631</ele>
        <time>2022-07-11T16:35:06Z</time>
      </trkpt>
      <trkpt lat="46.147504" lon="9.411919">
        <ele>211.695</ele>
        <time>2022-07-11T16:35:16Z</time>
      </trkpt>
      <trkpt lat="46.147504" lon="9.411933">
        <ele>211.612</ele>
        <time>2022-07-11T16:35:43Z</time>
      </trkpt>
      <trkpt lat="46.147476" lon="9.411917">
        <ele>211.632</ele>
        <time>2022-07-11T16:36:13Z</time>
      </trkpt>
      <trkpt lat="46.147462" lon="9.411929">
        <ele>211.605</ele>
        <time>2022-07-11T16:36:14Z</time>
      </trkpt>
      <trkpt lat="46.147453" lon="9.411958">
        <ele>211.609</ele>
        <time>2022-07-11T16:36:15Z</time>
      </trkpt>
      <trkpt lat="46.147453" lon="9.411987">
        <ele>211.632</ele>
        <time>2022-07-11T16:36:16Z</time>
      </trkpt>
      <trkpt lat="46.147455" lon="9.412023">
        <ele>211.641</ele>
        <time>2022-07-11T16:36:17Z</time>
      </trkpt>
      <trkpt lat="46.147433" lon="9.412199">
        <ele>211.189</ele>
        <time>2022-07-11T16:36:21Z</time>
      </trkpt>
      <trkpt lat="46.147406" lon="9.412230">
        <ele>212.131</ele>
        <time>2022-07-11T16:36:22Z</time>
      </trkpt>
      <trkpt lat="46.147373" lon="9.412249">
        <ele>212.177</ele>
        <time>2022-07-11T16:36:23Z</time>
      </trkpt>
      <trkpt lat="46.147334" lon="9.412258">
        <ele>211.671</ele>
        <time>2022-07-11T16:36:24Z</time>
      </trkpt>
      <trkpt lat="46.147292" lon="9.412256">
        <ele>212.182</ele>
        <time>2022-07-11T16:36:25Z</time>
      </trkpt>
      <trkpt lat="46.147258" lon="9.412249">
        <ele>211.680</ele>
        <time>2022-07-11T16:36:26Z</time>
      </trkpt>
      <trkpt lat="46.147218" lon="9.412235">
        <ele>212.114</ele>
        <time>2022-07-11T16:36:27Z</time>
      </trkpt>
      <trkpt lat="46.147178" lon="9.412217">
        <ele>211.671</ele>
        <time>2022-07-11T16:36:28Z</time>
      </trkpt>
      <trkpt lat="46.146368" lon="9.412066">
        <ele>213.041</ele>
        <time>2022-07-11T16:36:47Z</time>
      </trkpt>
      <trkpt lat="46.145749" lon="9.411992">
        <ele>216.415</ele>
        <time>2022-07-11T16:37:03Z</time>
      </trkpt>
      <trkpt lat="46.144842" lon="9.411909">
        <ele>215.409</ele>
        <time>2022-07-11T16:37:23Z</time>
      </trkpt>
      <trkpt lat="46.144517" lon="9.411828">
        <ele>214.928</ele>
        <time>2022-07-11T16:37:29Z</time>
      </trkpt>
      <trkpt lat="46.144187" lon="9.411537">
        <ele>214.057</ele>
        <time>2022-07-11T16:37:36Z</time>
      </trkpt>
      <trkpt lat="46.144145" lon="9.411475">
        <ele>214.085</ele>
        <time>2022-07-11T16:37:37Z</time>
      </trkpt>
      <trkpt lat="46.144106" lon="9.411405">
        <ele>214.097</ele>
        <time>2022-07-11T16:37:38Z</time>
      </trkpt>
      <trkpt lat="46.144071" lon="9.411334">
        <ele>213.083</ele>
        <time>2022-07-11T16:37:39Z</time>
      </trkpt>
      <trkpt lat="46.144037" lon="9.411256">
        <ele>212.527</ele>
        <time>2022-07-11T16:37:40Z</time>
      </trkpt>
      <trkpt lat="46.143704" lon="9.410150">
        <ele>209.238</ele>
        <time>2022-07-11T16:37:52Z</time>
      </trkpt>
      <trkpt lat="46.143675" lon="9.410051">
        <ele>209.216</ele>
        <time>2022-07-11T16:37:53Z</time>
      </trkpt>
      <trkpt lat="46.143508" lon="9.409155">
        <ele>207.710</ele>
        <time>2022-07-11T16:38:02Z</time>
      </trkpt>
      <trkpt lat="46.143512" lon="9.409077">
        <ele>207.757</ele>
        <time>2022-07-11T16:38:03Z</time>
      </trkpt>
      <trkpt lat="46.143518" lon="9.408999">
        <ele>207.700</ele>
        <time>2022-07-11T16:38:04Z</time>
      </trkpt>
      <trkpt lat="46.143530" lon="9.408912">
        <ele>207.720</ele>
        <time>2022-07-11T16:38:05Z</time>
      </trkpt>
      <trkpt lat="46.143543" lon="9.408837">
        <ele>207.709</ele>
        <time>2022-07-11T16:38:06Z</time>
      </trkpt>
      <trkpt lat="46.143767" lon="9.407852">
        <ele>207.716</ele>
        <time>2022-07-11T16:38:22Z</time>
      </trkpt>
      <trkpt lat="46.143789" lon="9.407807">
        <ele>207.785</ele>
        <time>2022-07-11T16:38:23Z</time>
      </trkpt>
      <trkpt lat="46.143817" lon="9.407759">
        <ele>207.733</ele>
        <time>2022-07-11T16:38:24Z</time>
      </trkpt>
      <trkpt lat="46.143847" lon="9.407721">
        <ele>207.745</ele>
        <time>2022-07-11T16:38:25Z</time>
      </trkpt>
      <trkpt lat="46.143885" lon="9.407685">
        <ele>207.721</ele>
        <time>2022-07-11T16:38:26Z</time>
      </trkpt>
      <trkpt lat="46.143921" lon="9.407653">
        <ele>207.755</ele>
        <time>2022-07-11T16:38:27Z</time>
      </trkpt>
      <trkpt lat="46.143988" lon="9.407578">
        <ele>207.726</ele>
        <time>2022-07-11T16:38:29Z</time>
      </trkpt>
      <trkpt lat="46.144015" lon="9.407535">
        <ele>207.774</ele>
        <time>2022-07-11T16:38:30Z</time>
      </trkpt>
      <trkpt lat="46.144039" lon="9.407483">
        <ele>207.738</ele>
        <time>2022-07-11T16:38:31Z</time>
      </trkpt>
      <trkpt lat="46.144052" lon="9.407430">
        <ele>207.784</ele>
        <time>2022-07-11T16:38:32Z</time>
      </trkpt>
      <trkpt lat="46.144057" lon="9.407363">
        <ele>207.707</ele>
        <time>2022-07-11T16:38:33Z</time>
      </trkpt>
      <trkpt lat="46.144054" lon="9.407305">
        <ele>207.717</ele>
        <time>2022-07-11T16:38:34Z</time>
      </trkpt>
      <trkpt lat="46.144040" lon="9.407239">
        <ele>207.709</ele>
        <time>2022-07-11T16:38:35Z</time>
      </trkpt>
      <trkpt lat="46.144023" lon="9.407185">
        <ele>207.729</ele>
        <time>2022-07-11T16:38:36Z</time>
      </trkpt>
      <trkpt lat="46.143995" lon="9.407127">
        <ele>207.758</ele>
        <time>2022-07-11T16:38:37Z</time>
      </trkpt>
      <trkpt lat="46.143964" lon="9.407087">
        <ele>207.736</ele>
        <time>2022-07-11T16:38:38Z</time>
      </trkpt>
      <trkpt lat="46.143925" lon="9.407050">
        <ele>207.718</ele>
        <time>2022-07-11T16:38:39Z</time>
      </trkpt>
      <trkpt lat="46.143888" lon="9.407027">
        <ele>207.714</ele>
        <time>2022-07-11T16:38:40Z</time>
      </trkpt>
      <trkpt lat="46.143844" lon="9.407006">
        <ele>207.728</ele>
        <time>2022-07-11T16:38:41Z</time>
      </trkpt>
      <trkpt lat="46.143801" lon="9.406988">
        <ele>207.779</ele>
        <time>2022-07-11T16:38:42Z</time>
      </trkpt>
      <trkpt lat="46.143758" lon="9.406960">
        <ele>207.777</ele>
        <time>2022-07-11T16:38:43Z</time>
      </trkpt>
      <trkpt lat="46.143725" lon="9.406925">
        <ele>207.791</ele>
        <time>2022-07-11T16:38:44Z</time>
      </trkpt>
      <trkpt lat="46.143698" lon="9.406875">
        <ele>207.729</ele>
        <time>2022-07-11T16:38:45Z</time>
      </trkpt>
      <trkpt lat="46.143679" lon="9.406820">
        <ele>207.700</ele>
        <time>2022-07-11T16:38:46Z</time>
      </trkpt>
      <trkpt lat="46.143664" lon="9.406753">
        <ele>207.720</ele>
        <time>2022-07-11T16:38:47Z</time>
      </trkpt>
      <trkpt lat="46.143656" lon="9.406692">
        <ele>207.709</ele>
        <time>2022-07-11T16:38:48Z</time>
      </trkpt>
      <trkpt lat="46.143653" lon="9.406620">
        <ele>207.713</ele>
        <time>2022-07-11T16:38:49Z</time>
      </trkpt>
      <trkpt lat="46.143623" lon="9.405842">
        <ele>209.222</ele>
        <time>2022-07-11T16:39:01Z</time>
      </trkpt>
      <trkpt lat="46.143540" lon="9.404515">
        <ele>209.250</ele>
        <time>2022-07-11T16:39:21Z</time>
      </trkpt>
      <trkpt lat="46.143398" lon="9.403350">
        <ele>209.272</ele>
        <time>2022-07-11T16:39:40Z</time>
      </trkpt>
      <trkpt lat="46.143114" lon="9.402118">
        <ele>209.268</ele>
        <time>2022-07-11T16:40:01Z</time>
      </trkpt>
      <trkpt lat="46.142890" lon="9.401296">
        <ele>210.192</ele>
        <time>2022-07-11T16:40:17Z</time>
      </trkpt>
      <trkpt lat="46.142543" lon="9.400444">
        <ele>210.153</ele>
        <time>2022-07-11T16:40:37Z</time>
      </trkpt>
      <trkpt lat="46.142174" lon="9.399555">
        <ele>211.111</ele>
        <time>2022-07-11T16:40:58Z</time>
      </trkpt>
      <trkpt lat="46.141831" lon="9.398705">
        <ele>212.195</ele>
        <time>2022-07-11T16:41:18Z</time>
      </trkpt>
      <trkpt lat="46.141625" lon="9.398182">
        <ele>212.576</ele>
        <time>2022-07-11T16:41:31Z</time>
      </trkpt>
      <trkpt lat="46.141362" lon="9.397520">
        <ele>213.590</ele>
        <time>2022-07-11T16:41:49Z</time>
      </trkpt>
      <trkpt lat="46.141109" lon="9.396854">
        <ele>214.519</ele>
        <time>2022-07-11T16:42:07Z</time>
      </trkpt>
      <trkpt lat="46.140822" lon="9.396170">
        <ele>215.409</ele>
        <time>2022-07-11T16:42:25Z</time>
      </trkpt>
      <trkpt lat="46.140656" lon="9.395736">
        <ele>216.918</ele>
        <time>2022-07-11T16:42:36Z</time>
      </trkpt>
      <trkpt lat="46.140343" lon="9.394950">
        <ele>217.417</ele>
        <time>2022-07-11T16:42:56Z</time>
      </trkpt>
      <trkpt lat="46.140149" lon="9.394188">
        <ele>219.375</ele>
        <time>2022-07-11T16:43:14Z</time>
      </trkpt>
      <trkpt lat="46.140093" lon="9.393222">
        <ele>220.717</ele>
        <time>2022-07-11T16:43:34Z</time>
      </trkpt>
      <trkpt lat="46.140076" lon="9.392237">
        <ele>221.283</ele>
        <time>2022-07-11T16:43:53Z</time>
      </trkpt>
      <trkpt lat="46.140032" lon="9.391163">
        <ele>221.737</ele>
        <time>2022-07-11T16:44:13Z</time>
      </trkpt>
      <trkpt lat="46.139964" lon="9.389922">
        <ele>221.718</ele>
        <time>2022-07-11T16:44:34Z</time>
      </trkpt>
      <trkpt lat="46.139914" lon="9.388955">
        <ele>221.736</ele>
        <time>2022-07-11T16:44:52Z</time>
      </trkpt>
      <trkpt lat="46.139845" lon="9.387991">
        <ele>222.290</ele>
        <time>2022-07-11T16:45:11Z</time>
      </trkpt>
      <trkpt lat="46.139769" lon="9.386683">
        <ele>222.233</ele>
        <time>2022-07-11T16:45:34Z</time>
      </trkpt>
      <trkpt lat="46.139684" lon="9.385551">
        <ele>222.223</ele>
        <time>2022-07-11T16:45:53Z</time>
      </trkpt>
      <trkpt lat="46.139606" lon="9.384556">
        <ele>223.115</ele>
        <time>2022-07-11T16:46:10Z</time>
      </trkpt>
      <trkpt lat="46.139604" lon="9.384384">
        <ele>221.709</ele>
        <time>2022-07-11T16:46:13Z</time>
      </trkpt>
      <trkpt lat="46.139617" lon="9.384318">
        <ele>221.784</ele>
        <time>2022-07-11T16:46:14Z</time>
      </trkpt>
      <trkpt lat="46.139628" lon="9.384259">
        <ele>221.253</ele>
        <time>2022-07-11T16:46:15Z</time>
      </trkpt>
      <trkpt lat="46.139633" lon="9.384195">
        <ele>221.261</ele>
        <time>2022-07-11T16:46:16Z</time>
      </trkpt>
      <trkpt lat="46.139632" lon="9.384115">
        <ele>221.713</ele>
        <time>2022-07-11T16:46:17Z</time>
      </trkpt>
      <trkpt lat="46.139622" lon="9.384053">
        <ele>221.719</ele>
        <time>2022-07-11T16:46:18Z</time>
      </trkpt>
      <trkpt lat="46.139606" lon="9.383996">
        <ele>221.753</ele>
        <time>2022-07-11T16:46:19Z</time>
      </trkpt>
      <trkpt lat="46.139588" lon="9.383944">
        <ele>221.254</ele>
        <time>2022-07-11T16:46:20Z</time>
      </trkpt>
      <trkpt lat="46.139568" lon="9.383874">
        <ele>221.712</ele>
        <time>2022-07-11T16:46:21Z</time>
      </trkpt>
      <trkpt lat="46.139560" lon="9.383821">
        <ele>221.276</ele>
        <time>2022-07-11T16:46:22Z</time>
      </trkpt>
      <trkpt lat="46.139554" lon="9.383736">
        <ele>221.217</ele>
        <time>2022-07-11T16:46:23Z</time>
      </trkpt>
      <trkpt lat="46.139488" lon="9.382524">
        <ele>220.287</ele>
        <time>2022-07-11T16:46:40Z</time>
      </trkpt>
      <trkpt lat="46.139385" lon="9.381268">
        <ele>218.815</ele>
        <time>2022-07-11T16:46:58Z</time>
      </trkpt>
      <trkpt lat="46.139370" lon="9.381145">
        <ele>218.309</ele>
        <time>2022-07-11T16:47:00Z</time>
      </trkpt>
      <trkpt lat="46.139371" lon="9.381085">
        <ele>218.372</ele>
        <time>2022-07-11T16:47:01Z</time>
      </trkpt>
      <trkpt lat="46.139376" lon="9.381029">
        <ele>218.321</ele>
        <time>2022-07-11T16:47:02Z</time>
      </trkpt>
      <trkpt lat="46.139373" lon="9.380973">
        <ele>218.329</ele>
        <time>2022-07-11T16:47:03Z</time>
      </trkpt>
      <trkpt lat="46.139367" lon="9.380922">
        <ele>218.321</ele>
        <time>2022-07-11T16:47:04Z</time>
      </trkpt>
      <trkpt lat="46.139310" lon="9.380009">
        <ele>217.867</ele>
        <time>2022-07-11T16:47:18Z</time>
      </trkpt>
      <trkpt lat="46.139215" lon="9.379441">
        <ele>216.991</ele>
        <time>2022-07-11T16:47:27Z</time>
      </trkpt>
      <trkpt lat="46.138888" lon="9.378346">
        <ele>215.982</ele>
        <time>2022-07-11T16:47:44Z</time>
      </trkpt>
      <trkpt lat="46.138783" lon="9.378099">
        <ele>215.930</ele>
        <time>2022-07-11T16:47:48Z</time>
      </trkpt>
      <trkpt lat="46.138661" lon="9.377823">
        <ele>214.924</ele>
        <time>2022-07-11T16:47:53Z</time>
      </trkpt>
      <trkpt lat="46.138634" lon="9.377766">
        <ele>214.924</ele>
        <time>2022-07-11T16:47:54Z</time>
      </trkpt>
      <trkpt lat="46.138610" lon="9.377713">
        <ele>214.904</ele>
        <time>2022-07-11T16:47:55Z</time>
      </trkpt>
      <trkpt lat="46.138511" lon="9.377472">
        <ele>214.914</ele>
        <time>2022-07-11T16:47:59Z</time>
      </trkpt>
      <trkpt lat="46.138199" lon="9.376745">
        <ele>214.509</ele>
        <time>2022-07-11T16:48:11Z</time>
      </trkpt>
      <trkpt lat="46.138190" lon="9.376681">
        <ele>214.023</ele>
        <time>2022-07-11T16:48:12Z</time>
      </trkpt>
      <trkpt lat="46.138185" lon="9.376558">
        <ele>214.092</ele>
        <time>2022-07-11T16:48:14Z</time>
      </trkpt>
      <trkpt lat="46.138175" lon="9.376504">
        <ele>214.020</ele>
        <time>2022-07-11T16:48:15Z</time>
      </trkpt>
      <trkpt lat="46.137973" lon="9.375883">
        <ele>214.022</ele>
        <time>2022-07-11T16:48:30Z</time>
      </trkpt>
      <trkpt lat="46.137892" lon="9.375689">
        <ele>214.098</ele>
        <time>2022-07-11T16:48:40Z</time>
      </trkpt>
      <trkpt lat="46.137920" lon="9.375607">
        <ele>213.562</ele>
        <time>2022-07-11T16:48:51Z</time>
      </trkpt>
      <trkpt lat="46.137916" lon="9.375596">
        <ele>213.513</ele>
        <time>2022-07-11T16:48:52Z</time>
      </trkpt>
      <trkpt lat="46.137861" lon="9.375429">
        <ele>213.561</ele>
        <time>2022-07-11T16:49:04Z</time>
      </trkpt>
      <trkpt lat="46.137865" lon="9.375368">
        <ele>213.535</ele>
        <time>2022-07-11T16:49:18Z</time>
      </trkpt>
      <trkpt lat="46.137828" lon="9.375408">
        <ele>213.596</ele>
        <time>2022-07-11T16:49:51Z</time>
      </trkpt>
      <trkpt lat="46.137780" lon="9.375435">
        <ele>213.531</ele>
        <time>2022-07-11T16:50:34Z</time>
      </trkpt>
      <trkpt lat="46.137780" lon="9.375397">
        <ele>208.724</ele>
        <time>2022-07-11T16:50:53Z</time>
      </trkpt>
      <trkpt lat="46.137702" lon="9.375759">
        <ele>221.216</ele>
        <time>2020-08-21T07:56:00Z</time>
      </trkpt>
      <trkpt lat="46.137719" lon="9.375802">
        <ele>221.276</ele>
        <time>2020-08-21T07:56:18Z</time>
      </trkpt>
      <trkpt lat="46.137912" lon="9.376170">
        <ele>221.213</ele>
        <time>2020-08-21T07:56:30Z</time>
      </trkpt>
      <trkpt lat="46.138220" lon="9.376836">
        <ele>221.708</ele>
        <time>2020-08-21T07:56:47Z</time>
      </trkpt>
      <trkpt lat="46.138570" lon="9.377617">
        <ele>222.646</ele>
        <time>2020-08-21T07:57:06Z</time>
      </trkpt>
      <trkpt lat="46.138866" lon="9.378287">
        <ele>223.646</ele>
        <time>2020-08-21T07:57:22Z</time>
      </trkpt>
      <trkpt lat="46.139160" lon="9.379238">
        <ele>224.185</ele>
        <time>2020-08-21T07:57:43Z</time>
      </trkpt>
      <trkpt lat="46.139297" lon="9.380246">
        <ele>225.085</ele>
        <time>2020-08-21T07:58:03Z</time>
      </trkpt>
      <trkpt lat="46.139350" lon="9.381059">
        <ele>225.572</ele>
        <time>2020-08-21T07:58:19Z</time>
      </trkpt>
      <trkpt lat="46.139403" lon="9.381830">
        <ele>226.594</ele>
        <time>2020-08-21T07:58:37Z</time>
      </trkpt>
      <trkpt lat="46.139404" lon="9.381840">
        <ele>226.522</ele>
        <time>2020-08-21T07:58:38Z</time>
      </trkpt>
      <trkpt lat="46.139405" lon="9.381860">
        <ele>226.569</ele>
        <time>2020-08-21T07:58:39Z</time>
      </trkpt>
      <trkpt lat="46.139442" lon="9.382379">
        <ele>227.031</ele>
        <time>2020-08-21T07:58:51Z</time>
      </trkpt>
      <trkpt lat="46.139504" lon="9.383197">
        <ele>227.961</ele>
        <time>2020-08-21T07:59:07Z</time>
      </trkpt>
      <trkpt lat="46.139470" lon="9.384114">
        <ele>228.907</ele>
        <time>2020-08-21T07:59:25Z</time>
      </trkpt>
      <trkpt lat="46.139585" lon="9.384608">
        <ele>228.908</ele>
        <time>2020-08-21T07:59:35Z</time>
      </trkpt>
      <trkpt lat="46.139595" lon="9.385248">
        <ele>228.918</ele>
        <time>2020-08-21T07:59:47Z</time>
      </trkpt>
      <trkpt lat="46.139672" lon="9.386278">
        <ele>229.458</ele>
        <time>2020-08-21T08:00:06Z</time>
      </trkpt>
      <trkpt lat="46.139716" lon="9.386932">
        <ele>229.497</ele>
        <time>2020-08-21T08:00:19Z</time>
      </trkpt>
      <trkpt lat="46.139760" lon="9.387726">
        <ele>229.497</ele>
        <time>2020-08-21T08:00:33Z</time>
      </trkpt>
      <trkpt lat="46.139815" lon="9.388579">
        <ele>229.464</ele>
        <time>2020-08-21T08:00:49Z</time>
      </trkpt>
      <trkpt lat="46.139890" lon="9.389630">
        <ele>229.486</ele>
        <time>2020-08-21T08:01:09Z</time>
      </trkpt>
      <trkpt lat="46.139945" lon="9.390398">
        <ele>229.414</ele>
        <time>2020-08-21T08:01:23Z</time>
      </trkpt>
      <trkpt lat="46.139990" lon="9.391366">
        <ele>227.931</ele>
        <time>2020-08-21T08:01:40Z</time>
      </trkpt>
      <trkpt lat="46.140014" lon="9.391903">
        <ele>227.473</ele>
        <time>2020-08-21T08:01:50Z</time>
      </trkpt>
      <trkpt lat="46.140001" lon="9.391938">
        <ele>227.485</ele>
        <time>2020-08-21T08:01:51Z</time>
      </trkpt>
      <trkpt lat="46.139983" lon="9.391963">
        <ele>227.413</ele>
        <time>2020-08-21T08:01:52Z</time>
      </trkpt>
      <trkpt lat="46.139961" lon="9.391983">
        <ele>227.408</ele>
        <time>2020-08-21T08:01:53Z</time>
      </trkpt>
      <trkpt lat="46.139938" lon="9.392010">
        <ele>227.432</ele>
        <time>2020-08-21T08:01:54Z</time>
      </trkpt>
      <trkpt lat="46.139926" lon="9.392046">
        <ele>227.472</ele>
        <time>2020-08-21T08:01:55Z</time>
      </trkpt>
      <trkpt lat="46.139929" lon="9.392098">
        <ele>227.461</ele>
        <time>2020-08-21T08:01:56Z</time>
      </trkpt>
      <trkpt lat="46.139941" lon="9.392131">
        <ele>227.491</ele>
        <time>2020-08-21T08:01:57Z</time>
      </trkpt>
      <trkpt lat="46.139962" lon="9.392169">
        <ele>227.428</ele>
        <time>2020-08-21T08:01:58Z</time>
      </trkpt>
      <trkpt lat="46.139986" lon="9.392206">
        <ele>227.450</ele>
        <time>2020-08-21T08:01:59Z</time>
      </trkpt>
      <trkpt lat="46.140013" lon="9.392245">
        <ele>227.468</ele>
        <time>2020-08-21T08:02:00Z</time>
      </trkpt>
      <trkpt lat="46.140050" lon="9.392347">
        <ele>227.095</ele>
        <time>2020-08-21T08:02:04Z</time>
      </trkpt>
      <trkpt lat="46.140067" lon="9.392989">
        <ele>226.526</ele>
        <time>2020-08-21T08:02:17Z</time>
      </trkpt>
      <trkpt lat="46.140105" lon="9.394073">
        <ele>225.547</ele>
        <time>2020-08-21T08:02:33Z</time>
      </trkpt>
      <trkpt lat="46.140425" lon="9.395234">
        <ele>224.111</ele>
        <time>2020-08-21T08:02:48Z</time>
      </trkpt>
      <trkpt lat="46.141135" lon="9.397002">
        <ele>221.208</ele>
        <time>2020-08-21T08:03:09Z</time>
      </trkpt>
      <trkpt lat="46.141594" lon="9.398467">
        <ele>218.347</ele>
        <time>2020-08-21T08:03:26Z</time>
      </trkpt>
      <trkpt lat="46.141599" lon="9.398560">
        <ele>217.847</ele>
        <time>2020-08-21T08:03:27Z</time>
      </trkpt>
      <trkpt lat="46.141601" lon="9.398650">
        <ele>217.846</ele>
        <time>2020-08-21T08:03:28Z</time>
      </trkpt>
      <trkpt lat="46.141608" lon="9.398826">
        <ele>217.456</ele>
        <time>2020-08-21T08:03:30Z</time>
      </trkpt>
      <trkpt lat="46.141635" lon="9.398899">
        <ele>217.493</ele>
        <time>2020-08-21T08:03:31Z</time>
      </trkpt>
      <trkpt lat="46.141683" lon="9.398951">
        <ele>217.415</ele>
        <time>2020-08-21T08:03:32Z</time>
      </trkpt>
      <trkpt lat="46.141737" lon="9.398979">
        <ele>217.483</ele>
        <time>2020-08-21T08:03:33Z</time>
      </trkpt>
      <trkpt lat="46.141798" lon="9.399003">
        <ele>216.970</ele>
        <time>2020-08-21T08:03:34Z</time>
      </trkpt>
      <trkpt lat="46.141845" lon="9.399029">
        <ele>216.992</ele>
        <time>2020-08-21T08:03:35Z</time>
      </trkpt>
      <trkpt lat="46.141894" lon="9.399074">
        <ele>216.973</ele>
        <time>2020-08-21T08:03:36Z</time>
      </trkpt>
      <trkpt lat="46.141932" lon="9.399137">
        <ele>216.920</ele>
        <time>2020-08-21T08:03:37Z</time>
      </trkpt>
      <trkpt lat="46.141964" lon="9.399216">
        <ele>216.908</ele>
        <time>2020-08-21T08:03:38Z</time>
      </trkpt>
      <trkpt lat="46.141988" lon="9.399285">
        <ele>216.954</ele>
        <time>2020-08-21T08:03:39Z</time>
      </trkpt>
      <trkpt lat="46.142455" lon="9.400542">
        <ele>215.424</ele>
        <time>2020-08-21T08:03:56Z</time>
      </trkpt>
      <trkpt lat="46.143030" lon="9.402257">
        <ele>213.563</ele>
        <time>2020-08-21T08:04:17Z</time>
      </trkpt>
      <trkpt lat="46.143356" lon="9.403888">
        <ele>213.053</ele>
        <time>2020-08-21T08:04:37Z</time>
      </trkpt>
      <trkpt lat="46.143509" lon="9.405674">
        <ele>212.510</ele>
        <time>2020-08-21T08:05:00Z</time>
      </trkpt>
      <trkpt lat="46.143554" lon="9.406722">
        <ele>212.542</ele>
        <time>2020-08-21T08:05:14Z</time>
      </trkpt>
      <trkpt lat="46.143569" lon="9.406796">
        <ele>212.570</ele>
        <time>2020-08-21T08:05:15Z</time>
      </trkpt>
      <trkpt lat="46.143623" lon="9.407038">
        <ele>212.527</ele>
        <time>2020-08-21T08:05:19Z</time>
      </trkpt>
      <trkpt lat="46.143630" lon="9.407100">
        <ele>212.527</ele>
        <time>2020-08-21T08:05:20Z</time>
      </trkpt>
      <trkpt lat="46.143638" lon="9.407309">
        <ele>212.568</ele>
        <time>2020-08-21T08:06:13Z</time>
      </trkpt>
      <trkpt lat="46.143633" lon="9.407378">
        <ele>212.514</ele>
        <time>2020-08-21T08:06:14Z</time>
      </trkpt>
      <trkpt lat="46.143424" lon="9.408567">
        <ele>212.508</ele>
        <time>2020-08-21T08:06:31Z</time>
      </trkpt>
      <trkpt lat="46.143263" lon="9.409257">
        <ele>212.547</ele>
        <time>2020-08-21T08:06:41Z</time>
      </trkpt>
      <trkpt lat="46.143238" lon="9.409321">
        <ele>212.577</ele>
        <time>2020-08-21T08:06:42Z</time>
      </trkpt>
      <trkpt lat="46.143170" lon="9.409564">
        <ele>210.656</ele>
        <time>2020-08-21T08:08:17Z</time>
      </trkpt>
      <trkpt lat="46.143177" lon="9.409563">
        <ele>210.636</ele>
        <time>2020-08-21T08:08:43Z</time>
      </trkpt>
      <trkpt lat="46.143174" lon="9.409597">
        <ele>210.673</ele>
        <time>2020-08-21T08:09:09Z</time>
      </trkpt>
      <trkpt lat="46.143148" lon="9.409654">
        <ele>210.645</ele>
        <time>2020-08-21T08:09:12Z</time>
      </trkpt>
      <trkpt lat="46.143134" lon="9.409686">
        <ele>210.613</ele>
        <time>2020-08-21T08:09:13Z</time>
      </trkpt>
      <trkpt lat="46.143120" lon="9.409715">
        <ele>210.680</ele>
        <time>2020-08-21T08:09:14Z</time>
      </trkpt>
      <trkpt lat="46.143100" lon="9.409752">
        <ele>210.687</ele>
        <time>2020-08-21T08:09:15Z</time>
      </trkpt>
      <trkpt lat="46.143078" lon="9.409789">
        <ele>210.642</ele>
        <time>2020-08-21T08:09:16Z</time>
      </trkpt>
      <trkpt lat="46.142519" lon="9.410315">
        <ele>210.126</ele>
        <time>2020-08-21T08:09:31Z</time>
      </trkpt>
      <trkpt lat="46.142203" lon="9.410394">
        <ele>210.108</ele>
        <time>2020-08-21T08:09:38Z</time>
      </trkpt>
      <trkpt lat="46.142161" lon="9.410408">
        <ele>210.143</ele>
        <time>2020-08-21T08:09:39Z</time>
      </trkpt>
      <trkpt lat="46.142116" lon="9.410429">
        <ele>210.143</ele>
        <time>2020-08-21T08:09:40Z</time>
      </trkpt>
      <trkpt lat="46.141593" lon="9.410938">
        <ele>210.122</ele>
        <time>2020-08-21T08:09:52Z</time>
      </trkpt>
      <trkpt lat="46.141457" lon="9.411283">
        <ele>210.162</ele>
        <time>2020-08-21T08:09:57Z</time>
      </trkpt>
      <trkpt lat="46.141397" lon="9.411563">
        <ele>210.159</ele>
        <time>2020-08-21T08:10:01Z</time>
      </trkpt>
      <trkpt lat="46.141401" lon="9.411749">
        <ele>210.161</ele>
        <time>2020-08-21T08:10:03Z</time>
      </trkpt>
      <trkpt lat="46.141445" lon="9.412169">
        <ele>210.159</ele>
        <time>2020-08-21T08:10:08Z</time>
      </trkpt>
      <trkpt lat="46.141465" lon="9.412252">
        <ele>210.166</ele>
        <time>2020-08-21T08:10:09Z</time>
      </trkpt>
      <trkpt lat="46.141892" lon="9.412985">
        <ele>210.172</ele>
        <time>2020-08-21T08:10:21Z</time>
      </trkpt>
      <trkpt lat="46.142047" lon="9.413091">
        <ele>210.113</ele>
        <time>2020-08-21T08:10:24Z</time>
      </trkpt>
      <trkpt lat="46.142105" lon="9.413116">
        <ele>210.114</ele>
        <time>2020-08-21T08:10:25Z</time>
      </trkpt>
      <trkpt lat="46.142584" lon="9.413168">
        <ele>210.108</ele>
        <time>2020-08-21T08:10:36Z</time>
      </trkpt>
      <trkpt lat="46.142617" lon="9.413150">
        <ele>209.742</ele>
        <time>2020-08-21T08:10:54Z</time>
      </trkpt>
      <trkpt lat="46.142742" lon="9.413051">
        <ele>209.712</ele>
        <time>2020-08-21T08:11:06Z</time>
      </trkpt>
      <trkpt lat="46.142813" lon="9.412986">
        <ele>209.751</ele>
        <time>2020-08-21T08:11:08Z</time>
      </trkpt>
      <trkpt lat="46.142861" lon="9.412957">
        <ele>209.781</ele>
        <time>2020-08-21T08:11:09Z</time>
      </trkpt>
      <trkpt lat="46.143321" lon="9.412316">
        <ele>209.248</ele>
        <time>2020-08-21T08:11:21Z</time>
      </trkpt>
      <trkpt lat="46.143363" lon="9.412266">
        <ele>209.280</ele>
        <time>2020-08-21T08:11:22Z</time>
      </trkpt>
      <trkpt lat="46.143411" lon="9.412220">
        <ele>209.298</ele>
        <time>2020-08-21T08:11:23Z</time>
      </trkpt>
      <trkpt lat="46.143459" lon="9.412188">
        <ele>209.275</ele>
        <time>2020-08-21T08:11:24Z</time>
      </trkpt>
      <trkpt lat="46.143508" lon="9.412166">
        <ele>209.217</ele>
        <time>2020-08-21T08:11:25Z</time>
      </trkpt>
      <trkpt lat="46.143553" lon="9.412152">
        <ele>210.687</ele>
        <time>2020-08-21T08:11:26Z</time>
      </trkpt>
      <trkpt lat="46.143595" lon="9.412144">
        <ele>210.615</ele>
        <time>2020-08-21T08:11:27Z</time>
      </trkpt>
      <trkpt lat="46.144104" lon="9.412101">
        <ele>214.008</ele>
        <time>2020-08-21T08:11:41Z</time>
      </trkpt>
      <trkpt lat="46.144581" lon="9.412104">
        <ele>216.466</ele>
        <time>2020-08-21T08:11:56Z</time>
      </trkpt>
      <trkpt lat="46.144623" lon="9.412104">
        <ele>216.966</ele>
        <time>2020-08-21T08:11:57Z</time>
      </trkpt>
      <trkpt lat="46.144835" lon="9.412100">
        <ele>216.955</ele>
        <time>2020-08-21T08:12:02Z</time>
      </trkpt>
      <trkpt lat="46.145683" lon="9.412150">
        <ele>217.835</ele>
        <time>2020-08-21T08:12:21Z</time>
      </trkpt>
      <trkpt lat="46.145732" lon="9.412152">
        <ele>217.872</ele>
        <time>2020-08-21T08:12:22Z</time>
      </trkpt>
      <trkpt lat="46.146731" lon="9.412242">
        <ele>215.984</ele>
        <time>2020-08-21T08:12:39Z</time>
      </trkpt>
      <trkpt lat="46.147342" lon="9.412489">
        <ele>214.572</ele>
        <time>2020-08-21T08:12:49Z</time>
      </trkpt>
      <trkpt lat="46.147378" lon="9.412562">
        <ele>214.569</ele>
        <time>2020-08-21T08:12:50Z</time>
      </trkpt>
      <trkpt lat="46.147444" lon="9.412711">
        <ele>214.079</ele>
        <time>2020-08-21T08:12:52Z</time>
      </trkpt>
      <trkpt lat="46.147488" lon="9.412770">
        <ele>214.005</ele>
        <time>2020-08-21T08:12:53Z</time>
      </trkpt>
      <trkpt lat="46.147540" lon="9.412811">
        <ele>214.025</ele>
        <time>2020-08-21T08:12:54Z</time>
      </trkpt>
      <trkpt lat="46.147600" lon="9.412830">
        <ele>214.008</ele>
        <time>2020-08-21T08:12:55Z</time>
      </trkpt>
      <trkpt lat="46.147663" lon="9.412823">
        <ele>213.552</ele>
        <time>2020-08-21T08:12:56Z</time>
      </trkpt>
      <trkpt lat="46.147719" lon="9.412795">
        <ele>213.512</ele>
        <time>2020-08-21T08:12:57Z</time>
      </trkpt>
      <trkpt lat="46.147771" lon="9.412748">
        <ele>213.591</ele>
        <time>2020-08-21T08:12:58Z</time>
      </trkpt>
      <trkpt lat="46.147818" lon="9.412687">
        <ele>213.561</ele>
        <time>2020-08-21T08:12:59Z</time>
      </trkpt>
      <trkpt lat="46.147862" lon="9.412613">
        <ele>213.548</ele>
        <time>2020-08-21T08:13:00Z</time>
      </trkpt>
      <trkpt lat="46.147902" lon="9.412547">
        <ele>213.520</ele>
        <time>2020-08-21T08:13:01Z</time>
      </trkpt>
      <trkpt lat="46.147952" lon="9.412483">
        <ele>213.058</ele>
        <time>2020-08-21T08:13:02Z</time>
      </trkpt>
      <trkpt lat="46.147997" lon="9.412443">
        <ele>213.075</ele>
        <time>2020-08-21T08:13:03Z</time>
      </trkpt>
      <trkpt lat="46.148060" lon="9.412405">
        <ele>213.068</ele>
        <time>2020-08-21T08:13:04Z</time>
      </trkpt>
      <trkpt lat="46.148114" lon="9.412385">
        <ele>212.542</ele>
        <time>2020-08-21T08:13:05Z</time>
      </trkpt>
      <trkpt lat="46.148197" lon="9.412371">
        <ele>212.526</ele>
        <time>2020-08-21T08:13:06Z</time>
      </trkpt>
      <trkpt lat="46.148248" lon="9.412363">
        <ele>212.508</ele>
        <time>2020-08-21T08:13:07Z</time>
      </trkpt>
      <trkpt lat="46.148432" lon="9.412348">
        <ele>212.541</ele>
        <time>2020-08-21T08:13:10Z</time>
      </trkpt>
      <trkpt lat="46.149671" lon="9.412436">
        <ele>212.531</ele>
        <time>2020-08-21T08:13:30Z</time>
      </trkpt>
      <trkpt lat="46.150774" lon="9.412619">
        <ele>212.510</ele>
        <time>2020-08-21T08:13:48Z</time>
      </trkpt>
      <trkpt lat="46.151551" lon="9.413274">
        <ele>211.150</ele>
        <time>2020-08-21T08:14:02Z</time>
      </trkpt>
      <trkpt lat="46.152543" lon="9.414215">
        <ele>210.177</ele>
        <time>2020-08-21T08:14:21Z</time>
      </trkpt>
      <trkpt lat="46.153607" lon="9.415258">
        <ele>209.249</ele>
        <time>2020-08-21T08:14:41Z</time>
      </trkpt>
      <trkpt lat="46.154472" lon="9.416101">
        <ele>209.297</ele>
        <time>2020-08-21T08:14:58Z</time>
      </trkpt>
      <trkpt lat="46.155552" lon="9.417164">
        <ele>209.274</ele>
        <time>2020-08-21T08:15:19Z</time>
      </trkpt>
      <trkpt lat="46.156563" lon="9.418151">
        <ele>209.261</ele>
        <time>2020-08-21T08:15:39Z</time>
      </trkpt>
      <trkpt lat="46.156914" lon="9.418526">
        <ele>209.221</ele>
        <time>2020-08-21T08:15:48Z</time>
      </trkpt>
      <trkpt lat="46.156982" lon="9.418687">
        <ele>209.213</ele>
        <time>2020-08-21T08:15:51Z</time>
      </trkpt>
      <trkpt lat="46.157016" lon="9.418745">
        <ele>209.208</ele>
        <time>2020-08-21T08:15:52Z</time>
      </trkpt>
      <trkpt lat="46.157045" lon="9.418781">
        <ele>209.281</ele>
        <time>2020-08-21T08:15:53Z</time>
      </trkpt>
      <trkpt lat="46.157082" lon="9.418804">
        <ele>209.281</ele>
        <time>2020-08-21T08:15:54Z</time>
      </trkpt>
      <trkpt lat="46.157123" lon="9.418807">
        <ele>209.260</ele>
        <time>2020-08-21T08:15:55Z</time>
      </trkpt>
      <trkpt lat="46.157169" lon="9.418787">
        <ele>209.270</ele>
        <time>2020-08-21T08:15:56Z</time>
      </trkpt>
      <trkpt lat="46.157201" lon="9.418753">
        <ele>209.257</ele>
        <time>2020-08-21T08:15:57Z</time>
      </trkpt>
      <trkpt lat="46.157228" lon="9.418696">
        <ele>209.299</ele>
        <time>2020-08-21T08:15:58Z</time>
      </trkpt>
      <trkpt lat="46.157243" lon="9.418640">
        <ele>209.297</ele>
        <time>2020-08-21T08:15:59Z</time>
      </trkpt>
      <trkpt lat="46.157255" lon="9.418574">
        <ele>209.214</ele>
        <time>2020-08-21T08:16:00Z</time>
      </trkpt>
      <trkpt lat="46.157262" lon="9.418507">
        <ele>209.289</ele>
        <time>2020-08-21T08:16:01Z</time>
      </trkpt>
      <trkpt lat="46.157267" lon="9.418453">
        <ele>209.206</ele>
        <time>2020-08-21T08:16:02Z</time>
      </trkpt>
      <trkpt lat="46.157267" lon="9.417899">
        <ele>208.726</ele>
        <time>2020-08-21T08:16:13Z</time>
      </trkpt>
      <trkpt lat="46.157243" lon="9.417854">
        <ele>208.708</ele>
        <time>2020-08-21T08:16:14Z</time>
      </trkpt>
      <trkpt lat="46.157211" lon="9.417815">
        <ele>208.723</ele>
        <time>2020-08-21T08:16:15Z</time>
      </trkpt>
      <trkpt lat="46.157176" lon="9.417782">
        <ele>208.753</ele>
        <time>2020-08-21T08:16:16Z</time>
      </trkpt>
      <trkpt lat="46.157096" lon="9.417720">
        <ele>208.762</ele>
        <time>2020-08-21T08:16:18Z</time>
      </trkpt>
      <trkpt lat="46.157047" lon="9.417693">
        <ele>208.712</ele>
        <time>2020-08-21T08:16:19Z</time>
      </trkpt>
      <trkpt lat="46.156758" lon="9.417586">
        <ele>206.839</ele>
        <time>2020-08-21T08:16:24Z</time>
      </trkpt>
      <trkpt lat="46.156646" lon="9.417541">
        <ele>207.371</ele>
        <time>2020-08-21T08:16:26Z</time>
      </trkpt>
      <trkpt lat="46.156586" lon="9.417504">
        <ele>207.379</ele>
        <time>2020-08-21T08:16:27Z</time>
      </trkpt>
      <trkpt lat="46.156527" lon="9.417457">
        <ele>207.356</ele>
        <time>2020-08-21T08:16:28Z</time>
      </trkpt>
      <trkpt lat="46.156468" lon="9.417397">
        <ele>206.325</ele>
        <time>2020-08-21T08:16:29Z</time>
      </trkpt>
      <trkpt lat="46.156410" lon="9.417318">
        <ele>206.326</ele>
        <time>2020-08-21T08:16:30Z</time>
      </trkpt>
      <trkpt lat="46.156362" lon="9.417227">
        <ele>205.808</ele>
        <time>2020-08-21T08:16:31Z</time>
      </trkpt>
      <trkpt lat="46.156319" lon="9.417108">
        <ele>205.808</ele>
        <time>2020-08-21T08:16:32Z</time>
      </trkpt>
      <trkpt lat="46.156295" lon="9.417001">
        <ele>204.937</ele>
        <time>2020-08-21T08:16:33Z</time>
      </trkpt>
      <trkpt lat="46.156282" lon="9.416862">
        <ele>203.997</ele>
        <time>2020-08-21T08:16:34Z</time>
      </trkpt>
      <trkpt lat="46.156285" lon="9.416744">
        <ele>203.446</ele>
        <time>2020-08-21T08:16:35Z</time>
      </trkpt>
      <trkpt lat="46.156305" lon="9.416595">
        <ele>203.446</ele>
        <time>2020-08-21T08:16:36Z</time>
      </trkpt>
      <trkpt lat="46.156329" lon="9.416490">
        <ele>203.423</ele>
        <time>2020-08-21T08:16:37Z</time>
      </trkpt>
      <trkpt lat="46.156363" lon="9.416372">
        <ele>203.465</ele>
        <time>2020-08-21T08:16:38Z</time>
      </trkpt>
      <trkpt lat="46.156593" lon="9.415481">
        <ele>205.383</ele>
        <time>2020-08-21T08:16:48Z</time>
      </trkpt>
      <trkpt lat="46.156818" lon="9.414641">
        <ele>208.230</ele>
        <time>2020-08-21T08:17:03Z</time>
      </trkpt>
      <trkpt lat="46.156835" lon="9.414584">
        <ele>208.247</ele>
        <time>2020-08-21T08:17:04Z</time>
      </trkpt>
      <trkpt lat="46.157018" lon="9.414211">
        <ele>208.229</ele>
        <time>2020-08-21T08:17:11Z</time>
      </trkpt>
      <trkpt lat="46.157207" lon="9.413996">
        <ele>208.721</ele>
        <time>2020-08-21T08:17:16Z</time>
      </trkpt>
      <trkpt lat="46.158193" lon="9.413361">
        <ele>209.208</ele>
        <time>2020-08-21T08:17:37Z</time>
      </trkpt>
      <trkpt lat="46.158243" lon="9.413336">
        <ele>209.299</ele>
        <time>2020-08-21T08:17:38Z</time>
      </trkpt>
      <trkpt lat="46.158299" lon="9.413310">
        <ele>209.229</ele>
        <time>2020-08-21T08:17:39Z</time>
      </trkpt>
      <trkpt lat="46.158349" lon="9.413280">
        <ele>209.218</ele>
        <time>2020-08-21T08:17:40Z</time>
      </trkpt>
      <trkpt lat="46.159372" lon="9.412623">
        <ele>209.248</ele>
        <time>2020-08-21T08:18:01Z</time>
      </trkpt>
      <trkpt lat="46.160603" lon="9.411827">
        <ele>209.275</ele>
        <time>2020-08-21T08:18:26Z</time>
      </trkpt>
      <trkpt lat="46.161679" lon="9.411125">
        <ele>209.297</ele>
        <time>2020-08-21T08:18:48Z</time>
      </trkpt>
      <trkpt lat="46.161728" lon="9.411097">
        <ele>209.285</ele>
        <time>2020-08-21T08:18:49Z</time>
      </trkpt>
      <trkpt lat="46.162168" lon="9.410814">
        <ele>209.282</ele>
        <time>2020-08-21T08:18:58Z</time>
      </trkpt>
      <trkpt lat="46.162219" lon="9.410786">
        <ele>209.293</ele>
        <time>2020-08-21T08:18:59Z</time>
      </trkpt>
      <trkpt lat="46.163114" lon="9.410213">
        <ele>209.265</ele>
        <time>2020-08-21T08:19:17Z</time>
      </trkpt>
      <trkpt lat="46.164305" lon="9.409452">
        <ele>208.221</ele>
        <time>2020-08-21T08:19:41Z</time>
      </trkpt>
      <trkpt lat="46.165438" lon="9.408727">
        <ele>207.708</ele>
        <time>2020-08-21T08:20:04Z</time>
      </trkpt>
      <trkpt lat="46.165739" lon="9.408522">
        <ele>207.744</ele>
        <time>2020-08-21T08:20:10Z</time>
      </trkpt>
      <trkpt lat="46.166747" lon="9.407883">
        <ele>207.744</ele>
        <time>2020-08-21T08:20:30Z</time>
      </trkpt>
      <trkpt lat="46.167842" lon="9.407176">
        <ele>207.753</ele>
        <time>2020-08-21T08:20:52Z</time>
      </trkpt>
      <trkpt lat="46.168340" lon="9.406860">
        <ele>207.733</ele>
        <time>2020-08-21T08:21:02Z</time>
      </trkpt>
      <trkpt lat="46.169041" lon="9.406423">
        <ele>207.750</ele>
        <time>2020-08-21T08:21:17Z</time>
      </trkpt>
      <trkpt lat="46.170023" lon="9.405792">
        <ele>207.772</ele>
        <time>2020-08-21T08:21:37Z</time>
      </trkpt>
      <trkpt lat="46.170873" lon="9.405250">
        <ele>207.730</ele>
        <time>2020-08-21T08:21:55Z</time>
      </trkpt>
      <trkpt lat="46.171498" lon="9.404932">
        <ele>207.757</ele>
        <time>2020-08-21T08:22:09Z</time>
      </trkpt>
      <trkpt lat="46.171523" lon="9.404915">
        <ele>207.767</ele>
        <time>2020-08-21T08:22:10Z</time>
      </trkpt>
      <trkpt lat="46.171556" lon="9.404909">
        <ele>207.781</ele>
        <time>2020-08-21T08:22:11Z</time>
      </trkpt>
      <trkpt lat="46.171590" lon="9.404924">
        <ele>207.719</ele>
        <time>2020-08-21T08:22:12Z</time>
      </trkpt>
      <trkpt lat="46.171630" lon="9.404945">
        <ele>207.708</ele>
        <time>2020-08-21T08:22:13Z</time>
      </trkpt>
      <trkpt lat="46.171667" lon="9.404961">
        <ele>207.771</ele>
        <time>2020-08-21T08:22:14Z</time>
      </trkpt>
      <trkpt lat="46.171709" lon="9.404973">
        <ele>207.781</ele>
        <time>2020-08-21T08:22:15Z</time>
      </trkpt>
      <trkpt lat="46.171754" lon="9.404982">
        <ele>207.750</ele>
        <time>2020-08-21T08:22:16Z</time>
      </trkpt>
      <trkpt lat="46.171894" lon="9.404925">
        <ele>208.730</ele>
        <time>2020-08-21T08:22:20Z</time>
      </trkpt>
      <trkpt lat="46.171897" lon="9.404879">
        <ele>208.757</ele>
        <time>2020-08-21T08:22:21Z</time>
      </trkpt>
      <trkpt lat="46.171897" lon="9.404717">
        <ele>208.779</ele>
        <time>2020-08-21T08:22:24Z</time>
      </trkpt>
      <trkpt lat="46.171901" lon="9.404653">
        <ele>208.797</ele>
        <time>2020-08-21T08:22:25Z</time>
      </trkpt>
      <trkpt lat="46.171911" lon="9.404604">
        <ele>208.794</ele>
        <time>2020-08-21T08:22:26Z</time>
      </trkpt>
      <trkpt lat="46.171937" lon="9.404553">
        <ele>208.788</ele>
        <time>2020-08-21T08:22:27Z</time>
      </trkpt>
      <trkpt lat="46.171970" lon="9.404519">
        <ele>209.224</ele>
        <time>2020-08-21T08:22:28Z</time>
      </trkpt>
      <trkpt lat="46.171989" lon="9.404503">
        <ele>209.226</ele>
        <time>2020-08-21T08:22:29Z</time>
      </trkpt>
      <trkpt lat="46.172515" lon="9.404154">
        <ele>211.108</ele>
        <time>2020-08-21T08:22:43Z</time>
      </trkpt>
      <trkpt lat="46.173122" lon="9.403758">
        <ele>211.173</ele>
        <time>2020-08-21T08:22:56Z</time>
      </trkpt>
      <trkpt lat="46.173155" lon="9.403722">
        <ele>211.183</ele>
        <time>2020-08-21T08:22:57Z</time>
      </trkpt>
      <trkpt lat="46.173202" lon="9.403664">
        <ele>211.162</ele>
        <time>2020-08-21T08:22:58Z</time>
      </trkpt>
      <trkpt lat="46.173230" lon="9.403619">
        <ele>211.122</ele>
        <time>2020-08-21T08:22:59Z</time>
      </trkpt>
      <trkpt lat="46.173258" lon="9.403560">
        <ele>211.159</ele>
        <time>2020-08-21T08:23:00Z</time>
      </trkpt>
      <trkpt lat="46.173284" lon="9.403491">
        <ele>211.141</ele>
        <time>2020-08-21T08:23:01Z</time>
      </trkpt>
      <trkpt lat="46.173301" lon="9.403432">
        <ele>211.119</ele>
        <time>2020-08-21T08:23:02Z</time>
      </trkpt>
      <trkpt lat="46.173314" lon="9.403365">
        <ele>211.156</ele>
        <time>2020-08-21T08:23:03Z</time>
      </trkpt>
      <trkpt lat="46.173322" lon="9.403297">
        <ele>211.125</ele>
        <time>2020-08-21T08:23:04Z</time>
      </trkpt>
      <trkpt lat="46.173325" lon="9.403226">
        <ele>211.126</ele>
        <time>2020-08-21T08:23:05Z</time>
      </trkpt>
      <trkpt lat="46.173322" lon="9.403152">
        <ele>211.108</ele>
        <time>2020-08-21T08:23:06Z</time>
      </trkpt>
      <trkpt lat="46.173312" lon="9.403081">
        <ele>211.108</ele>
        <time>2020-08-21T08:23:07Z</time>
      </trkpt>
      <trkpt lat="46.173297" lon="9.403013">
        <ele>211.187</ele>
        <time>2020-08-21T08:23:08Z</time>
      </trkpt>
      <trkpt lat="46.173278" lon="9.402948">
        <ele>209.727</ele>
        <time>2020-08-21T08:23:09Z</time>
      </trkpt>
      <trkpt lat="46.173255" lon="9.402884">
        <ele>209.756</ele>
        <time>2020-08-21T08:23:10Z</time>
      </trkpt>
      <trkpt lat="46.173230" lon="9.402820">
        <ele>209.756</ele>
        <time>2020-08-21T08:23:11Z</time>
      </trkpt>
      <trkpt lat="46.172970" lon="9.402171">
        <ele>208.273</ele>
        <time>2020-08-21T08:23:20Z</time>
      </trkpt>
      <trkpt lat="46.172931" lon="9.402115">
        <ele>208.225</ele>
        <time>2020-08-21T08:23:21Z</time>
      </trkpt>
      <trkpt lat="46.172889" lon="9.402068">
        <ele>208.253</ele>
        <time>2020-08-21T08:23:22Z</time>
      </trkpt>
      <trkpt lat="46.172844" lon="9.402026">
        <ele>208.230</ele>
        <time>2020-08-21T08:23:23Z</time>
      </trkpt>
      <trkpt lat="46.172795" lon="9.401983">
        <ele>208.275</ele>
        <time>2020-08-21T08:23:24Z</time>
      </trkpt>
      <trkpt lat="46.172722" lon="9.401907">
        <ele>208.228</ele>
        <time>2020-08-21T08:23:26Z</time>
      </trkpt>
      <trkpt lat="46.172696" lon="9.401855">
        <ele>208.220</ele>
        <time>2020-08-21T08:23:27Z</time>
      </trkpt>
      <trkpt lat="46.172283" lon="9.401109">
        <ele>208.208</ele>
        <time>2020-08-21T08:23:42Z</time>
      </trkpt>
      <trkpt lat="46.172255" lon="9.401050">
        <ele>208.282</ele>
        <time>2020-08-21T08:23:43Z</time>
      </trkpt>
      <trkpt lat="46.172233" lon="9.400989">
        <ele>208.292</ele>
        <time>2020-08-21T08:23:44Z</time>
      </trkpt>
      <trkpt lat="46.172218" lon="9.400912">
        <ele>208.211</ele>
        <time>2020-08-21T08:23:45Z</time>
      </trkpt>
      <trkpt lat="46.172187" lon="9.400565">
        <ele>208.211</ele>
        <time>2020-08-21T08:23:50Z</time>
      </trkpt>
      <trkpt lat="46.172236" lon="9.399780">
        <ele>206.888</ele>
        <time>2020-08-21T08:24:04Z</time>
      </trkpt>
      <trkpt lat="46.172218" lon="9.399208">
        <ele>206.860</ele>
        <time>2020-08-21T08:24:17Z</time>
      </trkpt>
      <trkpt lat="46.172253" lon="9.398764">
        <ele>208.268</ele>
        <time>2020-08-21T08:24:25Z</time>
      </trkpt>
      <trkpt lat="46.172195" lon="9.398093">
        <ele>208.215</ele>
        <time>2020-08-21T08:24:36Z</time>
      </trkpt>
      <trkpt lat="46.172088" lon="9.397667">
        <ele>208.233</ele>
        <time>2020-08-21T08:24:43Z</time>
      </trkpt>
      <trkpt lat="46.171961" lon="9.397180">
        <ele>208.223</ele>
        <time>2020-08-21T08:24:54Z</time>
      </trkpt>
      <trkpt lat="46.171941" lon="9.397175">
        <ele>208.215</ele>
        <time>2020-08-21T08:24:55Z</time>
      </trkpt>
      <trkpt lat="46.171916" lon="9.397184">
        <ele>208.208</ele>
        <time>2020-08-21T08:24:56Z</time>
      </trkpt>
      <trkpt lat="46.171897" lon="9.397195">
        <ele>208.248</ele>
        <time>2020-08-21T08:24:57Z</time>
      </trkpt>
      <trkpt lat="46.171871" lon="9.397214">
        <ele>206.828</ele>
        <time>2020-08-21T08:24:58Z</time>
      </trkpt>
      <trkpt lat="46.171837" lon="9.397234">
        <ele>206.867</ele>
        <time>2020-08-21T08:24:59Z</time>
      </trkpt>
      <trkpt lat="46.171668" lon="9.397329">
        <ele>206.397</ele>
        <time>2020-08-21T08:25:04Z</time>
      </trkpt>
      <trkpt lat="46.171619" lon="9.397356">
        <ele>206.364</ele>
        <time>2020-08-21T08:25:05Z</time>
      </trkpt>
      <trkpt lat="46.171500" lon="9.397391">
        <ele>206.316</ele>
        <time>2020-08-21T08:25:08Z</time>
      </trkpt>
      <trkpt lat="46.171480" lon="9.397372">
        <ele>206.354</ele>
        <time>2020-08-21T08:25:09Z</time>
      </trkpt>
      <trkpt lat="46.171461" lon="9.397334">
        <ele>205.841</ele>
        <time>2020-08-21T08:25:10Z</time>
      </trkpt>
      <trkpt lat="46.171447" lon="9.397296">
        <ele>205.841</ele>
        <time>2020-08-21T08:25:11Z</time>
      </trkpt>
      <trkpt lat="46.171434" lon="9.397262">
        <ele>205.881</ele>
        <time>2020-08-21T08:25:12Z</time>
      </trkpt>
      <trkpt lat="46.171178" lon="9.396636">
        <ele>205.809</ele>
        <time>2020-08-21T08:25:25Z</time>
      </trkpt>
      <trkpt lat="46.171110" lon="9.396492">
        <ele>205.808</ele>
        <time>2020-08-21T08:25:28Z</time>
      </trkpt>
      <trkpt lat="46.171002" lon="9.396298">
        <ele>205.859</ele>
        <time>2020-08-21T08:25:32Z</time>
      </trkpt>
      <trkpt lat="46.170977" lon="9.396254">
        <ele>205.859</ele>
        <time>2020-08-21T08:25:33Z</time>
      </trkpt>
      <trkpt lat="46.170901" lon="9.396112">
        <ele>205.878</ele>
        <time>2020-08-21T08:25:36Z</time>
      </trkpt>
      <trkpt lat="46.170764" lon="9.395805">
        <ele>205.828</ele>
        <time>2020-08-21T08:25:43Z</time>
      </trkpt>
      <trkpt lat="46.170764" lon="9.395756">
        <ele>205.835</ele>
        <time>2020-08-21T08:25:44Z</time>
      </trkpt>
      <trkpt lat="46.170779" lon="9.395705">
        <ele>205.827</ele>
        <time>2020-08-21T08:25:45Z</time>
      </trkpt>
      <trkpt lat="46.170795" lon="9.395650">
        <ele>205.835</ele>
        <time>2020-08-21T08:25:46Z</time>
      </trkpt>
      <trkpt lat="46.170807" lon="9.395594">
        <ele>205.872</ele>
        <time>2020-08-21T08:25:47Z</time>
      </trkpt>
      <trkpt lat="46.170809" lon="9.395536">
        <ele>205.822</ele>
        <time>2020-08-21T08:25:48Z</time>
      </trkpt>
      <trkpt lat="46.170800" lon="9.395477">
        <ele>205.862</ele>
        <time>2020-08-21T08:25:49Z</time>
      </trkpt>
      <trkpt lat="46.170782" lon="9.395426">
        <ele>205.808</ele>
        <time>2020-08-21T08:25:50Z</time>
      </trkpt>
      <trkpt lat="46.170757" lon="9.395385">
        <ele>205.808</ele>
        <time>2020-08-21T08:25:51Z</time>
      </trkpt>
      <trkpt lat="46.170731" lon="9.395344">
        <ele>205.857</ele>
        <time>2020-08-21T08:25:52Z</time>
      </trkpt>
      <trkpt lat="46.170442" lon="9.394765">
        <ele>205.897</ele>
        <time>2020-08-21T08:26:04Z</time>
      </trkpt>
      <trkpt lat="46.170398" lon="9.394656">
        <ele>205.866</ele>
        <time>2020-08-21T08:26:06Z</time>
      </trkpt>
      <trkpt lat="46.170381" lon="9.394601">
        <ele>205.876</ele>
        <time>2020-08-21T08:26:07Z</time>
      </trkpt>
      <trkpt lat="46.170371" lon="9.394546">
        <ele>205.893</ele>
        <time>2020-08-21T08:26:08Z</time>
      </trkpt>
      <trkpt lat="46.170293" lon="9.393805">
        <ele>206.825</ele>
        <time>2020-08-21T08:26:22Z</time>
      </trkpt>
      <trkpt lat="46.170210" lon="9.392864">
        <ele>206.813</ele>
        <time>2020-08-21T08:26:38Z</time>
      </trkpt>
      <trkpt lat="46.170185" lon="9.392457">
        <ele>206.810</ele>
        <time>2020-08-21T08:26:45Z</time>
      </trkpt>
      <trkpt lat="46.170093" lon="9.391654">
        <ele>206.879</ele>
        <time>2020-08-21T08:26:58Z</time>
      </trkpt>
      <trkpt lat="46.170095" lon="9.391470">
        <ele>206.805</ele>
        <time>2020-08-21T08:27:01Z</time>
      </trkpt>
      <trkpt lat="46.170103" lon="9.391334">
        <ele>206.825</ele>
        <time>2020-08-21T08:27:03Z</time>
      </trkpt>
      <trkpt lat="46.170094" lon="9.391271">
        <ele>206.808</ele>
        <time>2020-08-21T08:27:04Z</time>
      </trkpt>
      <trkpt lat="46.170073" lon="9.391134">
        <ele>206.872</ele>
        <time>2020-08-21T08:27:06Z</time>
      </trkpt>
      <trkpt lat="46.170033" lon="9.390839">
        <ele>206.822</ele>
        <time>2020-08-21T08:27:11Z</time>
      </trkpt>
      <trkpt lat="46.170079" lon="9.389786">
        <ele>206.881</ele>
        <time>2020-08-21T08:27:27Z</time>
      </trkpt>
      <trkpt lat="46.170148" lon="9.389358">
        <ele>206.841</ele>
        <time>2020-08-21T08:27:34Z</time>
      </trkpt>
      <trkpt lat="46.170183" lon="9.389326">
        <ele>206.868</ele>
        <time>2020-08-21T08:27:35Z</time>
      </trkpt>
      <trkpt lat="46.170217" lon="9.389320">
        <ele>206.850</ele>
        <time>2020-08-21T08:27:36Z</time>
      </trkpt>
      <trkpt lat="46.170261" lon="9.389316">
        <ele>206.868</ele>
        <time>2020-08-21T08:27:37Z</time>
      </trkpt>
      <trkpt lat="46.170291" lon="9.389311">
        <ele>206.835</ele>
        <time>2020-08-21T08:27:38Z</time>
      </trkpt>
      <trkpt lat="46.170337" lon="9.389302">
        <ele>206.869</ele>
        <time>2020-08-21T08:27:39Z</time>
      </trkpt>
      <trkpt lat="46.170396" lon="9.389276">
        <ele>206.804</ele>
        <time>2020-08-21T08:27:41Z</time>
      </trkpt>
      <trkpt lat="46.170410" lon="9.389243">
        <ele>206.824</ele>
        <time>2020-08-21T08:27:42Z</time>
      </trkpt>
      <trkpt lat="46.170412" lon="9.389203">
        <ele>206.808</ele>
        <time>2020-08-21T08:27:43Z</time>
      </trkpt>
      <trkpt lat="46.170409" lon="9.389158">
        <ele>206.891</ele>
        <time>2020-08-21T08:27:44Z</time>
      </trkpt>
      <trkpt lat="46.170403" lon="9.389111">
        <ele>206.881</ele>
        <time>2020-08-21T08:27:45Z</time>
      </trkpt>
      <trkpt lat="46.170393" lon="9.389063">
        <ele>206.870</ele>
        <time>2020-08-21T08:27:46Z</time>
      </trkpt>
      <trkpt lat="46.170371" lon="9.389004">
        <ele>206.890</ele>
        <time>2020-08-21T08:27:47Z</time>
      </trkpt>
      <trkpt lat="46.170355" lon="9.388969">
        <ele>206.857</ele>
        <time>2020-08-21T08:27:48Z</time>
      </trkpt>
      <trkpt lat="46.170276" lon="9.388731">
        <ele>206.859</ele>
        <time>2020-08-21T08:27:53Z</time>
      </trkpt>
      <trkpt lat="46.170249" lon="9.388670">
        <ele>206.817</ele>
        <time>2020-08-21T08:27:54Z</time>
      </trkpt>
      <trkpt lat="46.170235" lon="9.388614">
        <ele>206.824</ele>
        <time>2020-08-21T08:27:55Z</time>
      </trkpt>
      <trkpt lat="46.170231" lon="9.388548">
        <ele>206.841</ele>
        <time>2020-08-21T08:27:56Z</time>
      </trkpt>
      <trkpt lat="46.170236" lon="9.388475">
        <ele>206.881</ele>
        <time>2020-08-21T08:27:57Z</time>
      </trkpt>
      <trkpt lat="46.170241" lon="9.388418">
        <ele>206.809</ele>
        <time>2020-08-21T08:27:58Z</time>
      </trkpt>
      <trkpt lat="46.170277" lon="9.388160">
        <ele>206.808</ele>
        <time>2020-08-21T08:28:02Z</time>
      </trkpt>
      <trkpt lat="46.170290" lon="9.388091">
        <ele>206.829</ele>
        <time>2020-08-21T08:28:03Z</time>
      </trkpt>
      <trkpt lat="46.170353" lon="9.387800">
        <ele>206.859</ele>
        <time>2020-08-21T08:28:08Z</time>
      </trkpt>
      <trkpt lat="46.170373" lon="9.387744">
        <ele>206.858</ele>
        <time>2020-08-21T08:28:09Z</time>
      </trkpt>
      <trkpt lat="46.170400" lon="9.387685">
        <ele>206.838</ele>
        <time>2020-08-21T08:28:10Z</time>
      </trkpt>
      <trkpt lat="46.170523" lon="9.387427">
        <ele>206.865</ele>
        <time>2020-08-21T08:28:15Z</time>
      </trkpt>
      <trkpt lat="46.170677" lon="9.387093">
        <ele>205.337</ele>
        <time>2020-08-21T08:28:22Z</time>
      </trkpt>
      <trkpt lat="46.170878" lon="9.386410">
        <ele>206.815</ele>
        <time>2020-08-21T08:28:36Z</time>
      </trkpt>
      <trkpt lat="46.170903" lon="9.385562">
        <ele>206.892</ele>
        <time>2020-08-21T08:28:52Z</time>
      </trkpt>
      <trkpt lat="46.170792" lon="9.384745">
        <ele>206.831</ele>
        <time>2020-08-21T08:29:08Z</time>
      </trkpt>
      <trkpt lat="46.170819" lon="9.384355">
        <ele>206.361</ele>
        <time>2020-08-21T08:29:16Z</time>
      </trkpt>
      <trkpt lat="46.170849" lon="9.384326">
        <ele>206.807</ele>
        <time>2020-08-21T08:29:17Z</time>
      </trkpt>
      <trkpt lat="46.170881" lon="9.384312">
        <ele>206.308</ele>
        <time>2020-08-21T08:29:18Z</time>
      </trkpt>
      <trkpt lat="46.171305" lon="9.384233">
        <ele>206.328</ele>
        <time>2020-08-21T08:29:31Z</time>
      </trkpt>
      <trkpt lat="46.171643" lon="9.384413">
        <ele>207.398</ele>
        <time>2020-08-21T08:29:42Z</time>
      </trkpt>
      <trkpt lat="46.172014" lon="9.384456">
        <ele>208.287</ele>
        <time>2020-08-21T08:29:52Z</time>
      </trkpt>
      <trkpt lat="46.172380" lon="9.384260">
        <ele>209.267</ele>
        <time>2020-08-21T08:30:03Z</time>
      </trkpt>
      <trkpt lat="46.172813" lon="9.384075">
        <ele>211.644</ele>
        <time>2020-08-21T08:30:17Z</time>
      </trkpt>
      <trkpt lat="46.172815" lon="9.384029">
        <ele>211.676</ele>
        <time>2020-08-21T08:30:18Z</time>
      </trkpt>
      <trkpt lat="46.172809" lon="9.384001">
        <ele>212.144</ele>
        <time>2020-08-21T08:30:19Z</time>
      </trkpt>
      <trkpt lat="46.172799" lon="9.383955">
        <ele>212.151</ele>
        <time>2020-08-21T08:30:20Z</time>
      </trkpt>
      <trkpt lat="46.172792" lon="9.383915">
        <ele>212.151</ele>
        <time>2020-08-21T08:30:21Z</time>
      </trkpt>
      <trkpt lat="46.172786" lon="9.383878">
        <ele>212.501</ele>
        <time>2020-08-21T08:30:22Z</time>
      </trkpt>
      <trkpt lat="46.172673" lon="9.383252">
        <ele>214.511</ele>
        <time>2020-08-21T08:30:37Z</time>
      </trkpt>
      <trkpt lat="46.172587" lon="9.382781">
        <ele>213.008</ele>
        <time>2020-08-21T08:30:43Z</time>
      </trkpt>
      <trkpt lat="46.172463" lon="9.382171">
        <ele>210.140</ele>
        <time>2020-08-21T08:30:51Z</time>
      </trkpt>
      <trkpt lat="46.172438" lon="9.382128">
        <ele>210.690</ele>
        <time>2020-08-21T08:30:52Z</time>
      </trkpt>
      <trkpt lat="46.172395" lon="9.382101">
        <ele>209.799</ele>
        <time>2020-08-21T08:30:53Z</time>
      </trkpt>
      <trkpt lat="46.172354" lon="9.382099">
        <ele>209.799</ele>
        <time>2020-08-21T08:30:54Z</time>
      </trkpt>
      <trkpt lat="46.172320" lon="9.382105">
        <ele>209.716</ele>
        <time>2020-08-21T08:30:55Z</time>
      </trkpt>
      <trkpt lat="46.172269" lon="9.382116">
        <ele>209.768</ele>
        <time>2020-08-21T08:30:56Z</time>
      </trkpt>
      <trkpt lat="46.172216" lon="9.382124">
        <ele>209.736</ele>
        <time>2020-08-21T08:30:57Z</time>
      </trkpt>
      <trkpt lat="46.172166" lon="9.382119">
        <ele>209.253</ele>
        <time>2020-08-21T08:30:58Z</time>
      </trkpt>
      <trkpt lat="46.172127" lon="9.382109">
        <ele>209.293</ele>
        <time>2020-08-21T08:30:59Z</time>
      </trkpt>
      <trkpt lat="46.172074" lon="9.382090">
        <ele>208.265</ele>
        <time>2020-08-21T08:31:00Z</time>
      </trkpt>
      <trkpt lat="46.171628" lon="9.381895">
        <ele>207.321</ele>
        <time>2020-08-21T08:31:12Z</time>
      </trkpt>
      <trkpt lat="46.171606" lon="9.381845">
        <ele>206.808</ele>
        <time>2020-08-21T08:31:13Z</time>
      </trkpt>
      <trkpt lat="46.171592" lon="9.381792">
        <ele>206.864</ele>
        <time>2020-08-21T08:31:14Z</time>
      </trkpt>
      <trkpt lat="46.171574" lon="9.381730">
        <ele>206.874</ele>
        <time>2020-08-21T08:31:15Z</time>
      </trkpt>
      <trkpt lat="46.171557" lon="9.381680">
        <ele>206.833</ele>
        <time>2020-08-21T08:31:16Z</time>
      </trkpt>
      <trkpt lat="46.171465" lon="9.381419">
        <ele>206.363</ele>
        <time>2020-08-21T08:31:21Z</time>
      </trkpt>
      <trkpt lat="46.171452" lon="9.381361">
        <ele>206.320</ele>
        <time>2020-08-21T08:31:22Z</time>
      </trkpt>
      <trkpt lat="46.171409" lon="9.381119">
        <ele>206.362</ele>
        <time>2020-08-21T08:31:26Z</time>
      </trkpt>
      <trkpt lat="46.171390" lon="9.381055">
        <ele>206.370</ele>
        <time>2020-08-21T08:31:27Z</time>
      </trkpt>
      <trkpt lat="46.171373" lon="9.380998">
        <ele>206.357</ele>
        <time>2020-08-21T08:31:28Z</time>
      </trkpt>
      <trkpt lat="46.171263" lon="9.380498">
        <ele>206.346</ele>
        <time>2020-08-21T08:31:36Z</time>
      </trkpt>
      <trkpt lat="46.171239" lon="9.380272">
        <ele>206.388</ele>
        <time>2020-08-21T08:31:40Z</time>
      </trkpt>
      <trkpt lat="46.171222" lon="9.380212">
        <ele>206.316</ele>
        <time>2020-08-21T08:31:41Z</time>
      </trkpt>
      <trkpt lat="46.171196" lon="9.380158">
        <ele>206.308</ele>
        <time>2020-08-21T08:31:42Z</time>
      </trkpt>
      <trkpt lat="46.171160" lon="9.380108">
        <ele>206.379</ele>
        <time>2020-08-21T08:31:43Z</time>
      </trkpt>
      <trkpt lat="46.171131" lon="9.380066">
        <ele>206.319</ele>
        <time>2020-08-21T08:31:44Z</time>
      </trkpt>
      <trkpt lat="46.170761" lon="9.379589">
        <ele>206.378</ele>
        <time>2020-08-21T08:31:56Z</time>
      </trkpt>
      <trkpt lat="46.170731" lon="9.379595">
        <ele>206.328</ele>
        <time>2020-08-21T08:31:57Z</time>
      </trkpt>
      <trkpt lat="46.170709" lon="9.379615">
        <ele>206.335</ele>
        <time>2020-08-21T08:31:58Z</time>
      </trkpt>
      <trkpt lat="46.170686" lon="9.379651">
        <ele>206.317</ele>
        <time>2020-08-21T08:31:59Z</time>
      </trkpt>
      <trkpt lat="46.170664" lon="9.379694">
        <ele>206.345</ele>
        <time>2020-08-21T08:32:00Z</time>
      </trkpt>
      <trkpt lat="46.170283" lon="9.380252">
        <ele>205.892</ele>
        <time>2020-08-21T08:32:14Z</time>
      </trkpt>
      <trkpt lat="46.170250" lon="9.380243">
        <ele>205.831</ele>
        <time>2020-08-21T08:32:15Z</time>
      </trkpt>
      <trkpt lat="46.170225" lon="9.380213">
        <ele>205.361</ele>
        <time>2020-08-21T08:32:16Z</time>
      </trkpt>
      <trkpt lat="46.170211" lon="9.380172">
        <ele>205.307</ele>
        <time>2020-08-21T08:32:17Z</time>
      </trkpt>
      <trkpt lat="46.170205" lon="9.380124">
        <ele>205.308</ele>
        <time>2020-08-21T08:32:18Z</time>
      </trkpt>
      <trkpt lat="46.170201" lon="9.380071">
        <ele>205.398</ele>
        <time>2020-08-21T08:32:19Z</time>
      </trkpt>
      <trkpt lat="46.170171" lon="9.379618">
        <ele>205.348</ele>
        <time>2020-08-21T08:32:31Z</time>
      </trkpt>
      <trkpt lat="46.170164" lon="9.379508">
        <ele>204.957</ele>
        <time>2020-08-21T08:32:44Z</time>
      </trkpt>
      <trkpt lat="46.170183" lon="9.379537">
        <ele>204.997</ele>
        <time>2020-08-21T08:33:10Z</time>
      </trkpt>
      <trkpt lat="46.170171" lon="9.379504">
        <ele>204.994</ele>
        <time>2020-08-21T08:33:32Z</time>
      </trkpt>
      <trkpt lat="46.170148" lon="9.379473">
        <ele>204.976</ele>
        <time>2020-08-21T08:33:59Z</time>
      </trkpt>
      <trkpt lat="46.170135" lon="9.379076">
        <ele>204.464</ele>
        <time>2020-08-21T08:34:09Z</time>
      </trkpt>
      <trkpt lat="46.170108" lon="9.378292">
        <ele>205.821</ele>
        <time>2020-08-21T08:34:23Z</time>
      </trkpt>
      <trkpt lat="46.170111" lon="9.377983">
        <ele>205.814</ele>
        <time>2020-08-21T08:34:29Z</time>
      </trkpt>
      <trkpt lat="46.170135" lon="9.377935">
        <ele>205.854</ele>
        <time>2020-08-21T08:34:30Z</time>
      </trkpt>
      <trkpt lat="46.170159" lon="9.377897">
        <ele>205.809</ele>
        <time>2020-08-21T08:34:31Z</time>
      </trkpt>
      <trkpt lat="46.170273" lon="9.377770">
        <ele>205.808</ele>
        <time>2020-08-21T08:34:35Z</time>
      </trkpt>
      <trkpt lat="46.170310" lon="9.377773">
        <ele>205.866</ele>
        <time>2020-08-21T08:34:36Z</time>
      </trkpt>
      <trkpt lat="46.170330" lon="9.377776">
        <ele>205.886</ele>
        <time>2020-08-21T08:34:37Z</time>
      </trkpt>
      <trkpt lat="46.170370" lon="9.377770">
        <ele>205.815</ele>
        <time>2020-08-21T08:34:38Z</time>
      </trkpt>
      <trkpt lat="46.170395" lon="9.377762">
        <ele>205.855</ele>
        <time>2020-08-21T08:34:39Z</time>
      </trkpt>
      <trkpt lat="46.170429" lon="9.377746">
        <ele>205.892</ele>
        <time>2020-08-21T08:34:40Z</time>
      </trkpt>
      <trkpt lat="46.170462" lon="9.377722">
        <ele>205.874</ele>
        <time>2020-08-21T08:34:41Z</time>
      </trkpt>
      <trkpt lat="46.170492" lon="9.377689">
        <ele>205.832</ele>
        <time>2020-08-21T08:34:42Z</time>
      </trkpt>
      <trkpt lat="46.170522" lon="9.377651">
        <ele>205.839</ele>
        <time>2020-08-21T08:34:43Z</time>
      </trkpt>
      <trkpt lat="46.170541" lon="9.377616">
        <ele>205.897</ele>
        <time>2020-08-21T08:34:44Z</time>
      </trkpt>
      <trkpt lat="46.170554" lon="9.377568">
        <ele>205.823</ele>
        <time>2020-08-21T08:34:45Z</time>
      </trkpt>
      <trkpt lat="46.170559" lon="9.377512">
        <ele>205.825</ele>
        <time>2020-08-21T08:34:46Z</time>
      </trkpt>
      <trkpt lat="46.170558" lon="9.377458">
        <ele>205.808</ele>
        <time>2020-08-21T08:34:47Z</time>
      </trkpt>
      <trkpt lat="46.170552" lon="9.377405">
        <ele>205.864</ele>
        <time>2020-08-21T08:34:48Z</time>
      </trkpt>
      <trkpt lat="46.170541" lon="9.377351">
        <ele>205.384</ele>
        <time>2020-08-21T08:34:49Z</time>
      </trkpt>
      <trkpt lat="46.170525" lon="9.377294">
        <ele>205.373</ele>
        <time>2020-08-21T08:34:50Z</time>
      </trkpt>
      <trkpt lat="46.170516" lon="9.377246">
        <ele>205.353</ele>
        <time>2020-08-21T08:34:51Z</time>
      </trkpt>
      <trkpt lat="46.170503" lon="9.377124">
        <ele>205.320</ele>
        <time>2020-08-21T08:34:53Z</time>
      </trkpt>
      <trkpt lat="46.170496" lon="9.376998">
        <ele>205.812</ele>
        <time>2020-08-21T08:34:55Z</time>
      </trkpt>
      <trkpt lat="46.170372" lon="9.376209">
        <ele>205.330</ele>
        <time>2020-08-21T08:35:09Z</time>
      </trkpt>
      <trkpt lat="46.170348" lon="9.376162">
        <ele>205.347</ele>
        <time>2020-08-21T08:35:10Z</time>
      </trkpt>
      <trkpt lat="46.170314" lon="9.376118">
        <ele>205.388</ele>
        <time>2020-08-21T08:35:11Z</time>
      </trkpt>
      <trkpt lat="46.170283" lon="9.376093">
        <ele>205.324</ele>
        <time>2020-08-21T08:35:12Z</time>
      </trkpt>
      <trkpt lat="46.170242" lon="9.376073">
        <ele>205.326</ele>
        <time>2020-08-21T08:35:13Z</time>
      </trkpt>
      <trkpt lat="46.170213" lon="9.376057">
        <ele>205.308</ele>
        <time>2020-08-21T08:35:14Z</time>
      </trkpt>
      <trkpt lat="46.170175" lon="9.376033">
        <ele>205.333</ele>
        <time>2020-08-21T08:35:15Z</time>
      </trkpt>
      <trkpt lat="46.170154" lon="9.376012">
        <ele>205.333</ele>
        <time>2020-08-21T08:35:16Z</time>
      </trkpt>
      <trkpt lat="46.170128" lon="9.375980">
        <ele>205.342</ele>
        <time>2020-08-21T08:35:17Z</time>
      </trkpt>
      <trkpt lat="46.169828" lon="9.375375">
        <ele>205.362</ele>
        <time>2020-08-21T08:35:30Z</time>
      </trkpt>
      <trkpt lat="46.169334" lon="9.374747">
        <ele>205.389</ele>
        <time>2020-08-21T08:35:46Z</time>
      </trkpt>
      <trkpt lat="46.168696" lon="9.374338">
        <ele>205.371</ele>
        <time>2020-08-21T08:36:04Z</time>
      </trkpt>
      <trkpt lat="46.168459" lon="9.373977">
        <ele>205.389</ele>
        <time>2020-08-21T08:36:18Z</time>
      </trkpt>
      <trkpt lat="46.168445" lon="9.373884">
        <ele>205.366</ele>
        <time>2020-08-21T08:36:28Z</time>
      </trkpt>
      <trkpt lat="46.168473" lon="9.373860">
        <ele>205.322</ele>
        <time>2020-08-21T08:36:41Z</time>
      </trkpt>
      <trkpt lat="46.168480" lon="9.373845">
        <ele>205.862</ele>
        <time>2020-08-21T08:37:06Z</time>
      </trkpt>
      <trkpt lat="46.168478" lon="9.373831">
        <ele>204.908</ele>
        <time>2020-08-21T08:37:26Z</time>
      </trkpt>
      <trkpt lat="46.168505" lon="9.373836">
        <ele>204.908</ele>
        <time>2020-08-21T08:37:39Z</time>
      </trkpt>
      <trkpt lat="46.168629" lon="9.373756">
        <ele>204.937</ele>
        <time>2020-08-21T08:37:46Z</time>
      </trkpt>
      <trkpt lat="46.168632" lon="9.373734">
        <ele>204.987</ele>
        <time>2020-08-21T08:37:47Z</time>
      </trkpt>
      <trkpt lat="46.168627" lon="9.373713">
        <ele>204.986</ele>
        <time>2020-08-21T08:37:48Z</time>
      </trkpt>
      <trkpt lat="46.168620" lon="9.373691">
        <ele>204.936</ele>
        <time>2020-08-21T08:37:49Z</time>
      </trkpt>
      <trkpt lat="46.168614" lon="9.373664">
        <ele>204.963</ele>
        <time>2020-08-21T08:37:50Z</time>
      </trkpt>
      <trkpt lat="46.168608" lon="9.373644">
        <ele>204.935</ele>
        <time>2020-08-21T08:37:51Z</time>
      </trkpt>
      <trkpt lat="46.168603" lon="9.373621">
        <ele>204.983</ele>
        <time>2020-08-21T08:37:52Z</time>
      </trkpt>
      <trkpt lat="46.168598" lon="9.373597">
        <ele>204.940</ele>
        <time>2020-08-21T08:37:53Z</time>
      </trkpt>
      <trkpt lat="46.168595" lon="9.373581">
        <ele>204.957</ele>
        <time>2020-08-21T08:37:54Z</time>
      </trkpt>
      <trkpt lat="46.168591" lon="9.373562">
        <ele>204.900</ele>
        <time>2020-08-21T08:37:55Z</time>
      </trkpt>
      <trkpt lat="46.168588" lon="9.373542">
        <ele>204.920</ele>
        <time>2020-08-21T08:37:56Z</time>
      </trkpt>
      <trkpt lat="46.168583" lon="9.373517">
        <ele>204.908</ele>
        <time>2020-08-21T08:37:57Z</time>
      </trkpt>
      <trkpt lat="46.168578" lon="9.373484">
        <ele>204.990</ele>
        <time>2020-08-21T08:37:58Z</time>
      </trkpt>
      <trkpt lat="46.168571" lon="9.373449">
        <ele>204.920</ele>
        <time>2020-08-21T08:37:59Z</time>
      </trkpt>
      <trkpt lat="46.168546" lon="9.373295">
        <ele>204.919</ele>
        <time>2020-08-21T08:38:03Z</time>
      </trkpt>
      <trkpt lat="46.168558" lon="9.373262">
        <ele>204.929</ele>
        <time>2020-08-21T08:38:04Z</time>
      </trkpt>
      <trkpt lat="46.168568" lon="9.373226">
        <ele>204.976</ele>
        <time>2020-08-21T08:38:05Z</time>
      </trkpt>
      <trkpt lat="46.168563" lon="9.373180">
        <ele>204.918</ele>
        <time>2020-08-21T08:38:06Z</time>
      </trkpt>
      <trkpt lat="46.168550" lon="9.373144">
        <ele>204.936</ele>
        <time>2020-08-21T08:38:07Z</time>
      </trkpt>
      <trkpt lat="46.168521" lon="9.373111">
        <ele>204.923</ele>
        <time>2020-08-21T08:38:08Z</time>
      </trkpt>
      <trkpt lat="46.168500" lon="9.373091">
        <ele>204.948</ele>
        <time>2020-08-21T08:38:09Z</time>
      </trkpt>
      <trkpt lat="46.168478" lon="9.373051">
        <ele>204.961</ele>
        <time>2020-08-21T08:38:10Z</time>
      </trkpt>
      <trkpt lat="46.168468" lon="9.373018">
        <ele>204.917</ele>
        <time>2020-08-21T08:38:11Z</time>
      </trkpt>
      <trkpt lat="46.168459" lon="9.372967">
        <ele>204.908</ele>
        <time>2020-08-21T08:38:12Z</time>
      </trkpt>
      <trkpt lat="46.168451" lon="9.372922">
        <ele>204.999</ele>
        <time>2020-08-21T08:38:13Z</time>
      </trkpt>
      <trkpt lat="46.168441" lon="9.372872">
        <ele>204.949</ele>
        <time>2020-08-21T08:38:14Z</time>
      </trkpt>
      <trkpt lat="46.168531" lon="9.372292">
        <ele>204.978</ele>
        <time>2020-08-21T08:38:26Z</time>
      </trkpt>
      <trkpt lat="46.168973" lon="9.371982">
        <ele>204.978</ele>
        <time>2020-08-21T08:38:40Z</time>
      </trkpt>
      <trkpt lat="46.168959" lon="9.371943">
        <ele>204.955</ele>
        <time>2020-08-21T08:38:41Z</time>
      </trkpt>
      <trkpt lat="46.168931" lon="9.371919">
        <ele>204.987</ele>
        <time>2020-08-21T08:38:42Z</time>
      </trkpt>
      <trkpt lat="46.168846" lon="9.371844">
        <ele>204.925</ele>
        <time>2020-08-21T08:38:45Z</time>
      </trkpt>
      <trkpt lat="46.168832" lon="9.371794">
        <ele>204.972</ele>
        <time>2020-08-21T08:38:46Z</time>
      </trkpt>
      <trkpt lat="46.168782" lon="9.371544">
        <ele>204.957</ele>
        <time>2020-08-21T08:38:52Z</time>
      </trkpt>
      <trkpt lat="46.168792" lon="9.371515">
        <ele>204.900</ele>
        <time>2020-08-21T08:38:53Z</time>
      </trkpt>
      <trkpt lat="46.168797" lon="9.371497">
        <ele>204.920</ele>
        <time>2020-08-21T08:38:54Z</time>
      </trkpt>
      <trkpt lat="46.168795" lon="9.371482">
        <ele>204.908</ele>
        <time>2020-08-21T08:38:55Z</time>
      </trkpt>
      <trkpt lat="46.168770" lon="9.371458">
        <ele>204.920</ele>
        <time>2020-08-21T08:38:58Z</time>
      </trkpt>
      <trkpt lat="46.168762" lon="9.371446">
        <ele>204.990</ele>
        <time>2020-08-21T08:38:59Z</time>
      </trkpt>
      <trkpt lat="46.168752" lon="9.371421">
        <ele>204.919</ele>
        <time>2020-08-21T08:39:00Z</time>
      </trkpt>
      <trkpt lat="46.168742" lon="9.371393">
        <ele>204.989</ele>
        <time>2020-08-21T08:39:01Z</time>
      </trkpt>
      <trkpt lat="46.168727" lon="9.371358">
        <ele>204.936</ele>
        <time>2020-08-21T08:39:02Z</time>
      </trkpt>
      <trkpt lat="46.168708" lon="9.371328">
        <ele>204.918</ele>
        <time>2020-08-21T08:39:03Z</time>
      </trkpt>
      <trkpt lat="46.168692" lon="9.371305">
        <ele>204.926</ele>
        <time>2020-08-21T08:39:04Z</time>
      </trkpt>
      <trkpt lat="46.168676" lon="9.371270">
        <ele>204.933</ele>
        <time>2020-08-21T08:39:05Z</time>
      </trkpt>
      <trkpt lat="46.168516" lon="9.370659">
        <ele>204.962</ele>
        <time>2020-08-21T08:39:18Z</time>
      </trkpt>
      <trkpt lat="46.168519" lon="9.370615">
        <ele>204.983</ele>
        <time>2020-08-21T08:39:19Z</time>
      </trkpt>
      <trkpt lat="46.168509" lon="9.370578">
        <ele>204.911</ele>
        <time>2020-08-21T08:39:20Z</time>
      </trkpt>
      <trkpt lat="46.168485" lon="9.370538">
        <ele>204.908</ele>
        <time>2020-08-21T08:39:21Z</time>
      </trkpt>
      <trkpt lat="46.168456" lon="9.370502">
        <ele>204.941</ele>
        <time>2020-08-21T08:39:22Z</time>
      </trkpt>
      <trkpt lat="46.168435" lon="9.370469">
        <ele>205.851</ele>
        <time>2020-08-21T08:39:23Z</time>
      </trkpt>
      <trkpt lat="46.168410" lon="9.370417">
        <ele>205.880</ele>
        <time>2020-08-21T08:39:24Z</time>
      </trkpt>
      <trkpt lat="46.168397" lon="9.370378">
        <ele>205.820</ele>
        <time>2020-08-21T08:39:25Z</time>
      </trkpt>
      <trkpt lat="46.168378" lon="9.370321">
        <ele>205.817</ele>
        <time>2020-08-21T08:39:26Z</time>
      </trkpt>
      <trkpt lat="46.168194" lon="9.369726">
        <ele>205.819</ele>
        <time>2020-08-21T08:39:39Z</time>
      </trkpt>
      <trkpt lat="46.168171" lon="9.369696">
        <ele>205.897</ele>
        <time>2020-08-21T08:39:42Z</time>
      </trkpt>
      <trkpt lat="46.168167" lon="9.369713">
        <ele>205.874</ele>
        <time>2020-08-21T08:39:43Z</time>
      </trkpt>
      <trkpt lat="46.168172" lon="9.369727">
        <ele>205.866</ele>
        <time>2020-08-21T08:39:44Z</time>
      </trkpt>
      <trkpt lat="46.168291" lon="9.370050">
        <ele>205.829</ele>
        <time>2020-08-21T08:39:54Z</time>
      </trkpt>
      <trkpt lat="46.168290" lon="9.370084">
        <ele>205.821</ele>
        <time>2020-08-21T08:39:55Z</time>
      </trkpt>
      <trkpt lat="46.168289" lon="9.370110">
        <ele>205.808</ele>
        <time>2020-08-21T08:39:56Z</time>
      </trkpt>
      <trkpt lat="46.168308" lon="9.370180">
        <ele>205.891</ele>
        <time>2020-08-21T08:40:07Z</time>
      </trkpt>
      <trkpt lat="46.168322" lon="9.370190">
        <ele>205.821</ele>
        <time>2020-08-21T08:40:29Z</time>
      </trkpt>
      <trkpt lat="46.168334" lon="9.370186">
        <ele>205.850</ele>
        <time>2020-08-21T08:40:30Z</time>
      </trkpt>
      <trkpt lat="46.168341" lon="9.370165">
        <ele>205.810</ele>
        <time>2020-08-21T08:40:31Z</time>
      </trkpt>
      <trkpt lat="46.168337" lon="9.370140">
        <ele>205.897</ele>
        <time>2020-08-21T08:40:32Z</time>
      </trkpt>
      <trkpt lat="46.168332" lon="9.370122">
        <ele>205.819</ele>
        <time>2020-08-21T08:40:33Z</time>
      </trkpt>
      <trkpt lat="46.168215" lon="9.369725">
        <ele>205.847</ele>
        <time>2020-08-21T08:40:44Z</time>
      </trkpt>
      <trkpt lat="46.168329" lon="9.369662">
        <ele>205.844</ele>
        <time>2020-08-21T08:40:50Z</time>
      </trkpt>
      <trkpt lat="46.168324" lon="9.369618">
        <ele>205.814</ele>
        <time>2020-08-21T08:40:51Z</time>
      </trkpt>
      <trkpt lat="46.168317" lon="9.369591">
        <ele>205.854</ele>
        <time>2020-08-21T08:40:52Z</time>
      </trkpt>
      <trkpt lat="46.168171" lon="9.369024">
        <ele>206.309</ele>
        <time>2020-08-21T08:41:04Z</time>
      </trkpt>
      <trkpt lat="46.168045" lon="9.368405">
        <ele>206.808</ele>
        <time>2020-08-21T08:41:16Z</time>
      </trkpt>
      <trkpt lat="46.168025" lon="9.367749">
        <ele>206.396</ele>
        <time>2020-08-21T08:41:27Z</time>
      </trkpt>
      <trkpt lat="46.168065" lon="9.366939">
        <ele>206.396</ele>
        <time>2020-08-21T08:41:42Z</time>
      </trkpt>
      <trkpt lat="46.168203" lon="9.366352">
        <ele>207.765</ele>
        <time>2020-08-21T08:41:54Z</time>
      </trkpt>
      <trkpt lat="46.168226" lon="9.366341">
        <ele>208.245</ele>
        <time>2020-08-21T08:41:55Z</time>
      </trkpt>
      <trkpt lat="46.168244" lon="9.366346">
        <ele>208.222</ele>
        <time>2020-08-21T08:41:56Z</time>
      </trkpt>
      <trkpt lat="46.168269" lon="9.366358">
        <ele>208.284</ele>
        <time>2020-08-21T08:41:57Z</time>
      </trkpt>
      <trkpt lat="46.168288" lon="9.366370">
        <ele>208.242</ele>
        <time>2020-08-21T08:41:58Z</time>
      </trkpt>
      <trkpt lat="46.168537" lon="9.366479">
        <ele>211.679</ele>
        <time>2020-08-21T08:42:09Z</time>
      </trkpt>
      <trkpt lat="46.168814" lon="9.366599">
        <ele>214.573</ele>
        <time>2020-08-21T08:42:21Z</time>
      </trkpt>
      <trkpt lat="46.169094" lon="9.366748">
        <ele>217.885</ele>
        <time>2020-08-21T08:42:35Z</time>
      </trkpt>
      <trkpt lat="46.169159" lon="9.366778">
        <ele>218.813</ele>
        <time>2020-08-21T08:42:39Z</time>
      </trkpt>
      <trkpt lat="46.169170" lon="9.366765">
        <ele>219.308</ele>
        <time>2020-08-21T08:42:40Z</time>
      </trkpt>
      <trkpt lat="46.169177" lon="9.366738">
        <ele>219.342</ele>
        <time>2020-08-21T08:42:41Z</time>
      </trkpt>
      <trkpt lat="46.169181" lon="9.366715">
        <ele>219.322</ele>
        <time>2020-08-21T08:42:42Z</time>
      </trkpt>
      <trkpt lat="46.169189" lon="9.366673">
        <ele>219.331</ele>
        <time>2020-08-21T08:42:43Z</time>
      </trkpt>
      <trkpt lat="46.169194" lon="9.366647">
        <ele>219.351</ele>
        <time>2020-08-21T08:42:44Z</time>
      </trkpt>
      <trkpt lat="46.169225" lon="9.366394">
        <ele>219.898</ele>
        <time>2020-08-21T08:42:51Z</time>
      </trkpt>
      <trkpt lat="46.169209" lon="9.366356">
        <ele>219.890</ele>
        <time>2020-08-21T08:42:52Z</time>
      </trkpt>
      <trkpt lat="46.169191" lon="9.366336">
        <ele>218.388</ele>
        <time>2020-08-21T08:42:53Z</time>
      </trkpt>
      <trkpt lat="46.169160" lon="9.366311">
        <ele>217.835</ele>
        <time>2020-08-21T08:42:54Z</time>
      </trkpt>
      <trkpt lat="46.169115" lon="9.366279">
        <ele>216.946</ele>
        <time>2020-08-21T08:42:55Z</time>
      </trkpt>
      <trkpt lat="46.168877" lon="9.366101">
        <ele>214.088</ele>
        <time>2020-08-21T08:42:59Z</time>
      </trkpt>
      <trkpt lat="46.168584" lon="9.365909">
        <ele>210.616</ele>
        <time>2020-08-21T08:43:04Z</time>
      </trkpt>
      <trkpt lat="46.168532" lon="9.365865">
        <ele>210.608</ele>
        <time>2020-08-21T08:43:05Z</time>
      </trkpt>
      <trkpt lat="46.168344" lon="9.365717">
        <ele>207.759</ele>
        <time>2020-08-21T08:43:09Z</time>
      </trkpt>
      <trkpt lat="46.168324" lon="9.365678">
        <ele>207.359</ele>
        <time>2020-08-21T08:43:10Z</time>
      </trkpt>
      <trkpt lat="46.168328" lon="9.365633">
        <ele>206.388</ele>
        <time>2020-08-21T08:43:11Z</time>
      </trkpt>
      <trkpt lat="46.168352" lon="9.365585">
        <ele>206.378</ele>
        <time>2020-08-21T08:43:12Z</time>
      </trkpt>
      <trkpt lat="46.168373" lon="9.365553">
        <ele>206.335</ele>
        <time>2020-08-21T08:43:13Z</time>
      </trkpt>
      <trkpt lat="46.168409" lon="9.365496">
        <ele>205.857</ele>
        <time>2020-08-21T08:43:14Z</time>
      </trkpt>
      <trkpt lat="46.168618" lon="9.365234">
        <ele>204.465</ele>
        <time>2020-08-21T08:43:19Z</time>
      </trkpt>
      <trkpt lat="46.168655" lon="9.365176">
        <ele>203.932</ele>
        <time>2020-08-21T08:43:20Z</time>
      </trkpt>
      <trkpt lat="46.168684" lon="9.365121">
        <ele>203.983</ele>
        <time>2020-08-21T08:43:21Z</time>
      </trkpt>
      <trkpt lat="46.168972" lon="9.364433">
        <ele>204.425</ele>
        <time>2020-08-21T08:43:34Z</time>
      </trkpt>
      <trkpt lat="46.169138" lon="9.363974">
        <ele>204.417</ele>
        <time>2020-08-21T08:43:44Z</time>
      </trkpt>
      <trkpt lat="46.169380" lon="9.363429">
        <ele>204.408</ele>
        <time>2020-08-21T08:43:56Z</time>
      </trkpt>
      <trkpt lat="46.169462" lon="9.363212">
        <ele>204.433</ele>
        <time>2020-08-21T08:44:00Z</time>
      </trkpt>
      <trkpt lat="46.169481" lon="9.363164">
        <ele>204.453</ele>
        <time>2020-08-21T08:44:01Z</time>
      </trkpt>
      <trkpt lat="46.169497" lon="9.363128">
        <ele>204.462</ele>
        <time>2020-08-21T08:44:02Z</time>
      </trkpt>
      <trkpt lat="46.169517" lon="9.363082">
        <ele>204.472</ele>
        <time>2020-08-21T08:44:03Z</time>
      </trkpt>
      <trkpt lat="46.169536" lon="9.363031">
        <ele>204.419</ele>
        <time>2020-08-21T08:44:04Z</time>
      </trkpt>
      <trkpt lat="46.169628" lon="9.362580">
        <ele>204.471</ele>
        <time>2020-08-21T08:44:13Z</time>
      </trkpt>
      <trkpt lat="46.169610" lon="9.362544">
        <ele>204.459</ele>
        <time>2020-08-21T08:44:14Z</time>
      </trkpt>
      <trkpt lat="46.169599" lon="9.362516">
        <ele>204.496</ele>
        <time>2020-08-21T08:44:15Z</time>
      </trkpt>
      <trkpt lat="46.169595" lon="9.362495">
        <ele>204.472</ele>
        <time>2020-08-21T08:44:16Z</time>
      </trkpt>
      <trkpt lat="46.169593" lon="9.362475">
        <ele>204.413</ele>
        <time>2020-08-21T08:44:17Z</time>
      </trkpt>
      <trkpt lat="46.169599" lon="9.362450">
        <ele>204.414</ele>
        <time>2020-08-21T08:44:18Z</time>
      </trkpt>
      <trkpt lat="46.169611" lon="9.362421">
        <ele>204.408</ele>
        <time>2020-08-21T08:44:19Z</time>
      </trkpt>
      <trkpt lat="46.169630" lon="9.362338">
        <ele>204.472</ele>
        <time>2020-08-21T08:44:21Z</time>
      </trkpt>
      <trkpt lat="46.169624" lon="9.362295">
        <ele>204.432</ele>
        <time>2020-08-21T08:44:22Z</time>
      </trkpt>
      <trkpt lat="46.169605" lon="9.362248">
        <ele>204.491</ele>
        <time>2020-08-21T08:44:23Z</time>
      </trkpt>
      <trkpt lat="46.169587" lon="9.362196">
        <ele>204.431</ele>
        <time>2020-08-21T08:44:24Z</time>
      </trkpt>
      <trkpt lat="46.169587" lon="9.362160">
        <ele>204.488</ele>
        <time>2020-08-21T08:44:25Z</time>
      </trkpt>
      <trkpt lat="46.169590" lon="9.362111">
        <ele>204.480</ele>
        <time>2020-08-21T08:44:26Z</time>
      </trkpt>
      <trkpt lat="46.169582" lon="9.361783">
        <ele>204.478</ele>
        <time>2020-08-21T08:44:32Z</time>
      </trkpt>
      <trkpt lat="46.169461" lon="9.361329">
        <ele>204.435</ele>
        <time>2020-08-21T08:44:40Z</time>
      </trkpt>
      <trkpt lat="46.169442" lon="9.361272">
        <ele>204.427</ele>
        <time>2020-08-21T08:44:41Z</time>
      </trkpt>
      <trkpt lat="46.169165" lon="9.360298">
        <ele>204.468</ele>
        <time>2020-08-21T08:45:00Z</time>
      </trkpt>
      <trkpt lat="46.169001" lon="9.359607">
        <ele>204.414</ele>
        <time>2020-08-21T08:45:14Z</time>
      </trkpt>
      <trkpt lat="46.168921" lon="9.358988">
        <ele>204.408</ele>
        <time>2020-08-21T08:45:26Z</time>
      </trkpt>
      <trkpt lat="46.168582" lon="9.358531">
        <ele>204.497</ele>
        <time>2020-08-21T08:45:38Z</time>
      </trkpt>
      <trkpt lat="46.168386" lon="9.357866">
        <ele>204.447</ele>
        <time>2020-08-21T08:45:52Z</time>
      </trkpt>
      <trkpt lat="46.168254" lon="9.357386">
        <ele>203.926</ele>
        <time>2020-08-21T08:46:02Z</time>
      </trkpt>
      <trkpt lat="46.168230" lon="9.357350">
        <ele>203.916</ele>
        <time>2020-08-21T08:46:03Z</time>
      </trkpt>
      <trkpt lat="46.167989" lon="9.357019">
        <ele>203.943</ele>
        <time>2020-08-21T08:46:13Z</time>
      </trkpt>
      <trkpt lat="46.167957" lon="9.356965">
        <ele>205.355</ele>
        <time>2020-08-21T08:46:15Z</time>
      </trkpt>
      <trkpt lat="46.167641" lon="9.356591">
        <ele>205.383</ele>
        <time>2020-08-21T08:46:26Z</time>
      </trkpt>
      <trkpt lat="46.167546" lon="9.356440">
        <ele>205.380</ele>
        <time>2020-08-21T08:46:30Z</time>
      </trkpt>
      <trkpt lat="46.167542" lon="9.356398">
        <ele>205.358</ele>
        <time>2020-08-21T08:46:31Z</time>
      </trkpt>
      <trkpt lat="46.167541" lon="9.356352">
        <ele>205.352</ele>
        <time>2020-08-21T08:46:32Z</time>
      </trkpt>
      <trkpt lat="46.167544" lon="9.356315">
        <ele>205.317</ele>
        <time>2020-08-21T08:46:33Z</time>
      </trkpt>
      <trkpt lat="46.167550" lon="9.356257">
        <ele>205.308</ele>
        <time>2020-08-21T08:46:34Z</time>
      </trkpt>
      <trkpt lat="46.167556" lon="9.355557">
        <ele>205.380</ele>
        <time>2020-08-21T08:46:48Z</time>
      </trkpt>
      <trkpt lat="46.167522" lon="9.355317">
        <ele>205.320</ele>
        <time>2020-08-21T08:46:52Z</time>
      </trkpt>
      <trkpt lat="46.167505" lon="9.355265">
        <ele>204.449</ele>
        <time>2020-08-21T08:46:53Z</time>
      </trkpt>
      <trkpt lat="46.167484" lon="9.355217">
        <ele>204.469</ele>
        <time>2020-08-21T08:46:54Z</time>
      </trkpt>
      <trkpt lat="46.167355" lon="9.354989">
        <ele>204.476</ele>
        <time>2020-08-21T08:46:59Z</time>
      </trkpt>
      <trkpt lat="46.167311" lon="9.354946">
        <ele>204.458</ele>
        <time>2020-08-21T08:47:00Z</time>
      </trkpt>
      <trkpt lat="46.167289" lon="9.354922">
        <ele>204.496</ele>
        <time>2020-08-21T08:47:01Z</time>
      </trkpt>
      <trkpt lat="46.167251" lon="9.354875">
        <ele>204.473</ele>
        <time>2020-08-21T08:47:02Z</time>
      </trkpt>
      <trkpt lat="46.167226" lon="9.354842">
        <ele>204.456</ele>
        <time>2020-08-21T08:47:03Z</time>
      </trkpt>
      <trkpt lat="46.167199" lon="9.354798">
        <ele>204.459</ele>
        <time>2020-08-21T08:47:04Z</time>
      </trkpt>
      <trkpt lat="46.167145" lon="9.354710">
        <ele>204.414</ele>
        <time>2020-08-21T08:47:06Z</time>
      </trkpt>
      <trkpt lat="46.167108" lon="9.354672">
        <ele>204.408</ele>
        <time>2020-08-21T08:47:07Z</time>
      </trkpt>
      <trkpt lat="46.166825" lon="9.354444">
        <ele>204.450</ele>
        <time>2020-08-21T08:47:16Z</time>
      </trkpt>
      <trkpt lat="46.166817" lon="9.354401">
        <ele>204.440</ele>
        <time>2020-08-21T08:47:17Z</time>
      </trkpt>
      <trkpt lat="46.166812" lon="9.354352">
        <ele>204.419</ele>
        <time>2020-08-21T08:47:18Z</time>
      </trkpt>
      <trkpt lat="46.166789" lon="9.353979">
        <ele>204.469</ele>
        <time>2020-08-21T08:47:24Z</time>
      </trkpt>
      <trkpt lat="46.166770" lon="9.353904">
        <ele>204.416</ele>
        <time>2020-08-21T08:47:25Z</time>
      </trkpt>
      <trkpt lat="46.166743" lon="9.353845">
        <ele>204.438</ele>
        <time>2020-08-21T08:47:26Z</time>
      </trkpt>
      <trkpt lat="46.166715" lon="9.353797">
        <ele>203.916</ele>
        <time>2020-08-21T08:47:27Z</time>
      </trkpt>
      <trkpt lat="46.166682" lon="9.353747">
        <ele>204.413</ele>
        <time>2020-08-21T08:47:28Z</time>
      </trkpt>
      <trkpt lat="46.166131" lon="9.353197">
        <ele>203.942</ele>
        <time>2020-08-21T08:47:42Z</time>
      </trkpt>
      <trkpt lat="46.165709" lon="9.352891">
        <ele>205.322</ele>
        <time>2020-08-21T08:47:55Z</time>
      </trkpt>
      <trkpt lat="46.165568" lon="9.352576">
        <ele>204.414</ele>
        <time>2020-08-21T08:48:07Z</time>
      </trkpt>
      <trkpt lat="46.165549" lon="9.352538">
        <ele>204.408</ele>
        <time>2020-08-21T08:48:08Z</time>
      </trkpt>
      <trkpt lat="46.165406" lon="9.351967">
        <ele>203.949</ele>
        <time>2020-08-21T08:48:21Z</time>
      </trkpt>
      <trkpt lat="46.165360" lon="9.351197">
        <ele>203.969</ele>
        <time>2020-08-21T08:48:34Z</time>
      </trkpt>
      <trkpt lat="46.165324" lon="9.350942">
        <ele>203.958</ele>
        <time>2020-08-21T08:48:38Z</time>
      </trkpt>
      <trkpt lat="46.165309" lon="9.350892">
        <ele>203.968</ele>
        <time>2020-08-21T08:48:39Z</time>
      </trkpt>
      <trkpt lat="46.165286" lon="9.350839">
        <ele>203.925</ele>
        <time>2020-08-21T08:48:40Z</time>
      </trkpt>
      <trkpt lat="46.165120" lon="9.350508">
        <ele>203.997</ele>
        <time>2020-08-21T08:48:47Z</time>
      </trkpt>
      <trkpt lat="46.165088" lon="9.350476">
        <ele>203.965</ele>
        <time>2020-08-21T08:48:48Z</time>
      </trkpt>
      <trkpt lat="46.165053" lon="9.350452">
        <ele>203.912</ele>
        <time>2020-08-21T08:48:49Z</time>
      </trkpt>
      <trkpt lat="46.165021" lon="9.350421">
        <ele>203.928</ele>
        <time>2020-08-21T08:48:50Z</time>
      </trkpt>
      <trkpt lat="46.164995" lon="9.350382">
        <ele>203.989</ele>
        <time>2020-08-21T08:48:51Z</time>
      </trkpt>
      <trkpt lat="46.164976" lon="9.350338">
        <ele>203.917</ele>
        <time>2020-08-21T08:48:52Z</time>
      </trkpt>
      <trkpt lat="46.164959" lon="9.350287">
        <ele>203.908</ele>
        <time>2020-08-21T08:48:53Z</time>
      </trkpt>
      <trkpt lat="46.164943" lon="9.350240">
        <ele>203.927</ele>
        <time>2020-08-21T08:48:54Z</time>
      </trkpt>
      <trkpt lat="46.164928" lon="9.350199">
        <ele>203.977</ele>
        <time>2020-08-21T08:48:55Z</time>
      </trkpt>
      <trkpt lat="46.164810" lon="9.349840">
        <ele>203.946</ele>
        <time>2020-08-21T08:49:03Z</time>
      </trkpt>
      <trkpt lat="46.164457" lon="9.349098">
        <ele>203.916</ele>
        <time>2020-08-21T08:49:18Z</time>
      </trkpt>
      <trkpt lat="46.164158" lon="9.348562">
        <ele>203.953</ele>
        <time>2020-08-21T08:49:29Z</time>
      </trkpt>
      <trkpt lat="46.164144" lon="9.348497">
        <ele>203.945</ele>
        <time>2020-08-21T08:49:30Z</time>
      </trkpt>
      <trkpt lat="46.164118" lon="9.348375">
        <ele>203.993</ele>
        <time>2020-08-21T08:49:32Z</time>
      </trkpt>
      <trkpt lat="46.164064" lon="9.348200">
        <ele>203.970</ele>
        <time>2020-08-21T08:49:35Z</time>
      </trkpt>
      <trkpt lat="46.163813" lon="9.347504">
        <ele>205.388</ele>
        <time>2020-08-21T08:49:49Z</time>
      </trkpt>
      <trkpt lat="46.163459" lon="9.346809">
        <ele>207.324</ele>
        <time>2020-08-21T08:50:06Z</time>
      </trkpt>
      <trkpt lat="46.163390" lon="9.346704">
        <ele>205.826</ele>
        <time>2020-08-21T08:50:08Z</time>
      </trkpt>
      <trkpt lat="46.163016" lon="9.346185">
        <ele>204.408</ele>
        <time>2020-08-21T08:50:19Z</time>
      </trkpt>
      <trkpt lat="46.162987" lon="9.346141">
        <ele>204.413</ele>
        <time>2020-08-21T08:50:20Z</time>
      </trkpt>
      <trkpt lat="46.162957" lon="9.346106">
        <ele>204.413</ele>
        <time>2020-08-21T08:50:21Z</time>
      </trkpt>
      <trkpt lat="46.162529" lon="9.345587">
        <ele>204.432</ele>
        <time>2020-08-21T08:50:34Z</time>
      </trkpt>
      <trkpt lat="46.161879" lon="9.344722">
        <ele>203.922</ele>
        <time>2020-08-21T08:50:53Z</time>
      </trkpt>
      <trkpt lat="46.161636" lon="9.344473">
        <ele>205.389</ele>
        <time>2020-08-21T08:51:01Z</time>
      </trkpt>
      <trkpt lat="46.161235" lon="9.344114">
        <ele>208.211</ele>
        <time>2020-08-21T08:51:16Z</time>
      </trkpt>
      <trkpt lat="46.160753" lon="9.343683">
        <ele>208.219</ele>
        <time>2020-08-21T08:51:30Z</time>
      </trkpt>
      <trkpt lat="46.160113" lon="9.343128">
        <ele>208.226</ele>
        <time>2020-08-21T08:51:48Z</time>
      </trkpt>
      <trkpt lat="46.159920" lon="9.342918">
        <ele>205.371</ele>
        <time>2020-08-21T08:51:54Z</time>
      </trkpt>
      <trkpt lat="46.159890" lon="9.342915">
        <ele>205.341</ele>
        <time>2020-08-21T08:51:55Z</time>
      </trkpt>
      <trkpt lat="46.159863" lon="9.342923">
        <ele>205.315</ele>
        <time>2020-08-21T08:51:56Z</time>
      </trkpt>
      <trkpt lat="46.159836" lon="9.342925">
        <ele>205.308</ele>
        <time>2020-08-21T08:51:57Z</time>
      </trkpt>
      <trkpt lat="46.159807" lon="9.342913">
        <ele>205.322</ele>
        <time>2020-08-21T08:51:58Z</time>
      </trkpt>
      <trkpt lat="46.159780" lon="9.342883">
        <ele>204.992</ele>
        <time>2020-08-21T08:51:59Z</time>
      </trkpt>
      <trkpt lat="46.159754" lon="9.342846">
        <ele>204.991</ele>
        <time>2020-08-21T08:52:00Z</time>
      </trkpt>
      <trkpt lat="46.159727" lon="9.342808">
        <ele>204.971</ele>
        <time>2020-08-21T08:52:01Z</time>
      </trkpt>
      <trkpt lat="46.159305" lon="9.342163">
        <ele>204.928</ele>
        <time>2020-08-21T08:52:16Z</time>
      </trkpt>
      <trkpt lat="46.159261" lon="9.342029">
        <ele>204.910</ele>
        <time>2020-08-21T08:52:19Z</time>
      </trkpt>
      <trkpt lat="46.159269" lon="9.341981">
        <ele>204.968</ele>
        <time>2020-08-21T08:52:20Z</time>
      </trkpt>
      <trkpt lat="46.159275" lon="9.341932">
        <ele>204.925</ele>
        <time>2020-08-21T08:52:21Z</time>
      </trkpt>
      <trkpt lat="46.159271" lon="9.341895">
        <ele>206.336</ele>
        <time>2020-08-21T08:52:22Z</time>
      </trkpt>
      <trkpt lat="46.159258" lon="9.341862">
        <ele>206.317</ele>
        <time>2020-08-21T08:52:23Z</time>
      </trkpt>
      <trkpt lat="46.159243" lon="9.341837">
        <ele>206.318</ele>
        <time>2020-08-21T08:52:24Z</time>
      </trkpt>
      <trkpt lat="46.159225" lon="9.341817">
        <ele>206.808</ele>
        <time>2020-08-21T08:52:25Z</time>
      </trkpt>
      <trkpt lat="46.159205" lon="9.341797">
        <ele>206.868</ele>
        <time>2020-08-21T08:52:26Z</time>
      </trkpt>
      <trkpt lat="46.159186" lon="9.341771">
        <ele>206.888</ele>
        <time>2020-08-21T08:52:27Z</time>
      </trkpt>
      <trkpt lat="46.159166" lon="9.341738">
        <ele>206.857</ele>
        <time>2020-08-21T08:52:28Z</time>
      </trkpt>
      <trkpt lat="46.158926" lon="9.341260">
        <ele>205.357</ele>
        <time>2020-08-21T08:52:39Z</time>
      </trkpt>
      <trkpt lat="46.158894" lon="9.341206">
        <ele>205.394</ele>
        <time>2020-08-21T08:52:40Z</time>
      </trkpt>
      <trkpt lat="46.158719" lon="9.340774">
        <ele>205.366</ele>
        <time>2020-08-21T08:52:50Z</time>
      </trkpt>
      <trkpt lat="46.158473" lon="9.340326">
        <ele>205.324</ele>
        <time>2020-08-21T08:53:03Z</time>
      </trkpt>
      <trkpt lat="46.157874" lon="9.339517">
        <ele>205.361</ele>
        <time>2020-08-21T08:53:22Z</time>
      </trkpt>
      <trkpt lat="46.157409" lon="9.338849">
        <ele>205.312</ele>
        <time>2020-08-21T08:53:37Z</time>
      </trkpt>
      <trkpt lat="46.157369" lon="9.338819">
        <ele>205.332</ele>
        <time>2020-08-21T08:53:38Z</time>
      </trkpt>
      <trkpt lat="46.157349" lon="9.338783">
        <ele>205.305</ele>
        <time>2020-08-21T08:53:39Z</time>
      </trkpt>
      <trkpt lat="46.157342" lon="9.338714">
        <ele>205.308</ele>
        <time>2020-08-21T08:53:40Z</time>
      </trkpt>
      <trkpt lat="46.157351" lon="9.338668">
        <ele>205.376</ele>
        <time>2020-08-21T08:53:41Z</time>
      </trkpt>
      <trkpt lat="46.157361" lon="9.338599">
        <ele>205.356</ele>
        <time>2020-08-21T08:53:42Z</time>
      </trkpt>
      <trkpt lat="46.157350" lon="9.338537">
        <ele>204.455</ele>
        <time>2020-08-21T08:53:43Z</time>
      </trkpt>
      <trkpt lat="46.157321" lon="9.338485">
        <ele>203.925</ele>
        <time>2020-08-21T08:53:44Z</time>
      </trkpt>
      <trkpt lat="46.157288" lon="9.338440">
        <ele>203.932</ele>
        <time>2020-08-21T08:53:45Z</time>
      </trkpt>
      <trkpt lat="46.157256" lon="9.338397">
        <ele>203.924</ele>
        <time>2020-08-21T08:53:46Z</time>
      </trkpt>
      <trkpt lat="46.157219" lon="9.338358">
        <ele>203.942</ele>
        <time>2020-08-21T08:53:47Z</time>
      </trkpt>
      <trkpt lat="46.157180" lon="9.338332">
        <ele>203.939</ele>
        <time>2020-08-21T08:53:48Z</time>
      </trkpt>
      <trkpt lat="46.157130" lon="9.338319">
        <ele>203.942</ele>
        <time>2020-08-21T08:53:49Z</time>
      </trkpt>
      <trkpt lat="46.157081" lon="9.338334">
        <ele>203.922</ele>
        <time>2020-08-21T08:53:50Z</time>
      </trkpt>
      <trkpt lat="46.157044" lon="9.338345">
        <ele>203.914</ele>
        <time>2020-08-21T08:53:51Z</time>
      </trkpt>
      <trkpt lat="46.157000" lon="9.338347">
        <ele>203.908</ele>
        <time>2020-08-21T08:53:52Z</time>
      </trkpt>
      <trkpt lat="46.156970" lon="9.338342">
        <ele>203.959</ele>
        <time>2020-08-21T08:53:53Z</time>
      </trkpt>
      <trkpt lat="46.156851" lon="9.338338">
        <ele>203.949</ele>
        <time>2020-08-21T08:53:56Z</time>
      </trkpt>
      <trkpt lat="46.156121" lon="9.338389">
        <ele>203.948</ele>
        <time>2020-08-21T08:54:14Z</time>
      </trkpt>
      <trkpt lat="46.156088" lon="9.338363">
        <ele>203.938</ele>
        <time>2020-08-21T08:54:16Z</time>
      </trkpt>
      <trkpt lat="46.156084" lon="9.338338">
        <ele>203.945</ele>
        <time>2020-08-21T08:54:17Z</time>
      </trkpt>
      <trkpt lat="46.156082" lon="9.338304">
        <ele>203.957</ele>
        <time>2020-08-21T08:54:18Z</time>
      </trkpt>
      <trkpt lat="46.156069" lon="9.338272">
        <ele>203.985</ele>
        <time>2020-08-21T08:54:19Z</time>
      </trkpt>
      <trkpt lat="46.156038" lon="9.338258">
        <ele>203.972</ele>
        <time>2020-08-21T08:54:20Z</time>
      </trkpt>
      <trkpt lat="46.156004" lon="9.338259">
        <ele>203.926</ele>
        <time>2020-08-21T08:54:21Z</time>
      </trkpt>
      <trkpt lat="46.155987" lon="9.338271">
        <ele>203.947</ele>
        <time>2020-08-21T08:54:22Z</time>
      </trkpt>
      <trkpt lat="46.155954" lon="9.338295">
        <ele>203.911</ele>
        <time>2020-08-21T08:54:23Z</time>
      </trkpt>
      <trkpt lat="46.155398" lon="9.338522">
        <ele>203.908</ele>
        <time>2020-08-21T08:54:39Z</time>
      </trkpt>
      <trkpt lat="46.155034" lon="9.338647">
        <ele>203.947</ele>
        <time>2020-08-21T08:54:53Z</time>
      </trkpt>
      <trkpt lat="46.154827" lon="9.338729">
        <ele>203.977</ele>
        <time>2020-08-21T08:55:07Z</time>
      </trkpt>
      <trkpt lat="46.154430" lon="9.338892">
        <ele>203.936</ele>
        <time>2020-08-21T08:55:21Z</time>
      </trkpt>
      <trkpt lat="46.154015" lon="9.338917">
        <ele>203.996</ele>
        <time>2020-08-21T08:55:35Z</time>
      </trkpt>
      <trkpt lat="46.153560" lon="9.338906">
        <ele>204.953</ele>
        <time>2020-08-21T08:55:49Z</time>
      </trkpt>
      <trkpt lat="46.153094" lon="9.338894">
        <ele>204.945</ele>
        <time>2020-08-21T08:56:02Z</time>
      </trkpt>
      <trkpt lat="46.152720" lon="9.338993">
        <ele>204.933</ele>
        <time>2020-08-21T08:56:13Z</time>
      </trkpt>
      <trkpt lat="46.152214" lon="9.338906">
        <ele>204.920</ele>
        <time>2020-08-21T08:56:26Z</time>
      </trkpt>
      <trkpt lat="46.151798" lon="9.338658">
        <ele>204.939</ele>
        <time>2020-08-21T08:56:38Z</time>
      </trkpt>
      <trkpt lat="46.151258" lon="9.338182">
        <ele>204.901</ele>
        <time>2020-08-21T08:56:55Z</time>
      </trkpt>
      <trkpt lat="46.150877" lon="9.337805">
        <ele>204.921</ele>
        <time>2020-08-21T08:57:09Z</time>
      </trkpt>
      <trkpt lat="46.150496" lon="9.337349">
        <ele>205.308</ele>
        <time>2020-08-21T08:57:23Z</time>
      </trkpt>
      <trkpt lat="46.150197" lon="9.336650">
        <ele>205.338</ele>
        <time>2020-08-21T08:57:38Z</time>
      </trkpt>
      <trkpt lat="46.149948" lon="9.335996">
        <ele>205.348</ele>
        <time>2020-08-21T08:57:52Z</time>
      </trkpt>
      <trkpt lat="46.149795" lon="9.335666">
        <ele>205.347</ele>
        <time>2020-08-21T08:57:59Z</time>
      </trkpt>
      <trkpt lat="46.149777" lon="9.335608">
        <ele>205.397</ele>
        <time>2020-08-21T08:58:00Z</time>
      </trkpt>
      <trkpt lat="46.149723" lon="9.335087">
        <ele>205.364</ele>
        <time>2020-08-21T08:58:11Z</time>
      </trkpt>
      <trkpt lat="46.149610" lon="9.334518">
        <ele>205.336</ele>
        <time>2020-08-21T08:58:25Z</time>
      </trkpt>
      <trkpt lat="46.149570" lon="9.334405">
        <ele>203.914</ele>
        <time>2020-08-21T08:58:29Z</time>
      </trkpt>
      <trkpt lat="46.149386" lon="9.333842">
        <ele>203.941</ele>
        <time>2020-08-21T08:58:42Z</time>
      </trkpt>
      <trkpt lat="46.149267" lon="9.333415">
        <ele>203.928</ele>
        <time>2020-08-21T08:58:50Z</time>
      </trkpt>
      <trkpt lat="46.149175" lon="9.333150">
        <ele>203.989</ele>
        <time>2020-08-21T08:58:55Z</time>
      </trkpt>
      <trkpt lat="46.148996" lon="9.332537">
        <ele>203.417</ele>
        <time>2020-08-21T08:59:08Z</time>
      </trkpt>
      <trkpt lat="46.148989" lon="9.332509">
        <ele>203.408</ele>
        <time>2020-08-21T08:59:09Z</time>
      </trkpt>
      <trkpt lat="46.148982" lon="9.332467">
        <ele>203.437</ele>
        <time>2020-08-21T08:59:10Z</time>
      </trkpt>
      <trkpt lat="46.148937" lon="9.331732">
        <ele>203.477</ele>
        <time>2020-08-21T08:59:25Z</time>
      </trkpt>
      <trkpt lat="46.148868" lon="9.331381">
        <ele>204.926</ele>
        <time>2020-08-21T08:59:33Z</time>
      </trkpt>
      <trkpt lat="46.148782" lon="9.331049">
        <ele>205.376</ele>
        <time>2020-08-21T08:59:45Z</time>
      </trkpt>
      <trkpt lat="46.148796" lon="9.331112">
        <ele>204.913</ele>
        <time>2020-08-21T09:00:07Z</time>
      </trkpt>
      <trkpt lat="46.148815" lon="9.331117">
        <ele>205.395</ele>
        <time>2020-08-21T09:00:08Z</time>
      </trkpt>
      <trkpt lat="46.148830" lon="9.331108">
        <ele>205.373</ele>
        <time>2020-08-21T09:00:09Z</time>
      </trkpt>
      <trkpt lat="46.148844" lon="9.331095">
        <ele>205.310</ele>
        <time>2020-08-21T09:00:10Z</time>
      </trkpt>
      <trkpt lat="46.148860" lon="9.331073">
        <ele>205.361</ele>
        <time>2020-08-21T09:00:11Z</time>
      </trkpt>
      <trkpt lat="46.148877" lon="9.331053">
        <ele>205.321</ele>
        <time>2020-08-21T09:00:12Z</time>
      </trkpt>
      <trkpt lat="46.148890" lon="9.331043">
        <ele>205.313</ele>
        <time>2020-08-21T09:00:13Z</time>
      </trkpt>
      <trkpt lat="46.148952" lon="9.331027">
        <ele>205.308</ele>
        <time>2020-08-21T09:00:26Z</time>
      </trkpt>
      <trkpt lat="46.148972" lon="9.331018">
        <ele>205.311</ele>
        <time>2020-08-21T09:00:29Z</time>
      </trkpt>
      <trkpt lat="46.148990" lon="9.331019">
        <ele>205.331</ele>
        <time>2020-08-21T09:00:30Z</time>
      </trkpt>
      <trkpt lat="46.149013" lon="9.331019">
        <ele>205.390</ele>
        <time>2020-08-21T09:00:31Z</time>
      </trkpt>
      <trkpt lat="46.149039" lon="9.331013">
        <ele>205.320</ele>
        <time>2020-08-21T09:00:32Z</time>
      </trkpt>
      <trkpt lat="46.149066" lon="9.330998">
        <ele>205.377</ele>
        <time>2020-08-21T09:00:33Z</time>
      </trkpt>
      <trkpt lat="46.149092" lon="9.330982">
        <ele>205.329</ele>
        <time>2020-08-21T09:00:34Z</time>
      </trkpt>
      <trkpt lat="46.149120" lon="9.330960">
        <ele>205.377</ele>
        <time>2020-08-21T09:00:35Z</time>
      </trkpt>
      <trkpt lat="46.149499" lon="9.330834">
        <ele>205.344</ele>
        <time>2020-08-21T09:00:47Z</time>
      </trkpt>
      <trkpt lat="46.149888" lon="9.330794">
        <ele>205.827</ele>
        <time>2020-08-21T09:00:59Z</time>
      </trkpt>
      <trkpt lat="46.150298" lon="9.330770">
        <ele>206.368</ele>
        <time>2020-08-21T09:01:10Z</time>
      </trkpt>
      <trkpt lat="46.150533" lon="9.330706">
        <ele>207.314</ele>
        <time>2020-08-21T09:01:17Z</time>
      </trkpt>
      <trkpt lat="46.150545" lon="9.330670">
        <ele>207.308</ele>
        <time>2020-08-21T09:01:18Z</time>
      </trkpt>
      <trkpt lat="46.150550" lon="9.330639">
        <ele>207.787</ele>
        <time>2020-08-21T09:01:19Z</time>
      </trkpt>
      <trkpt lat="46.150552" lon="9.330609">
        <ele>207.777</ele>
        <time>2020-08-21T09:01:20Z</time>
      </trkpt>
      <trkpt lat="46.150428" lon="9.330142">
        <ele>208.276</ele>
        <time>2020-08-21T09:01:35Z</time>
      </trkpt>
      <trkpt lat="46.150197" lon="9.329804">
        <ele>208.296</ele>
        <time>2020-08-21T09:01:46Z</time>
      </trkpt>
      <trkpt lat="46.149869" lon="9.329567">
        <ele>208.283</ele>
        <time>2020-08-21T09:01:57Z</time>
      </trkpt>
      <trkpt lat="46.149656" lon="9.328992">
        <ele>206.855</ele>
        <time>2020-08-21T09:02:10Z</time>
      </trkpt>
      <trkpt lat="46.149656" lon="9.328902">
        <ele>206.853</ele>
        <time>2020-08-21T09:02:12Z</time>
      </trkpt>
      <trkpt lat="46.149794" lon="9.328466">
        <ele>205.880</ele>
        <time>2020-08-21T09:02:23Z</time>
      </trkpt>
      <trkpt lat="46.149834" lon="9.328422">
        <ele>205.864</ele>
        <time>2020-08-21T09:02:35Z</time>
      </trkpt>
      <trkpt lat="46.149859" lon="9.328415">
        <ele>205.806</ele>
        <time>2020-08-21T09:03:04Z</time>
      </trkpt>
      <trkpt lat="46.149875" lon="9.328412">
        <ele>205.816</ele>
        <time>2020-08-21T09:03:05Z</time>
      </trkpt>
      <trkpt lat="46.149897" lon="9.328399">
        <ele>205.808</ele>
        <time>2020-08-21T09:03:06Z</time>
      </trkpt>
      <trkpt lat="46.149922" lon="9.328370">
        <ele>205.851</ele>
        <time>2020-08-21T09:03:07Z</time>
      </trkpt>
      <trkpt lat="46.149937" lon="9.328335">
        <ele>205.831</ele>
        <time>2020-08-21T09:03:08Z</time>
      </trkpt>
      <trkpt lat="46.149953" lon="9.328292">
        <ele>205.830</ele>
        <time>2020-08-21T09:03:09Z</time>
      </trkpt>
      <trkpt lat="46.149969" lon="9.328243">
        <ele>205.880</ele>
        <time>2020-08-21T09:03:10Z</time>
      </trkpt>
      <trkpt lat="46.150297" lon="9.327245">
        <ele>205.887</ele>
        <time>2020-08-21T09:03:27Z</time>
      </trkpt>
      <trkpt lat="46.150674" lon="9.326054">
        <ele>205.889</ele>
        <time>2020-08-21T09:03:45Z</time>
      </trkpt>
      <trkpt lat="46.150787" lon="9.325450">
        <ele>205.897</ele>
        <time>2020-08-21T09:03:55Z</time>
      </trkpt>
      <trkpt lat="46.150783" lon="9.325383">
        <ele>205.844</ele>
        <time>2020-08-21T09:03:56Z</time>
      </trkpt>
      <trkpt lat="46.150774" lon="9.325306">
        <ele>205.876</ele>
        <time>2020-08-21T09:03:57Z</time>
      </trkpt>
      <trkpt lat="46.150748" lon="9.325101">
        <ele>205.890</ele>
        <time>2020-08-21T09:04:00Z</time>
      </trkpt>
      <trkpt lat="46.150728" lon="9.325022">
        <ele>205.819</ele>
        <time>2020-08-21T09:04:01Z</time>
      </trkpt>
      <trkpt lat="46.150640" lon="9.324775">
        <ele>205.808</ele>
        <time>2020-08-21T09:04:05Z</time>
      </trkpt>
      <trkpt lat="46.150095" lon="9.323776">
        <ele>205.812</ele>
        <time>2020-08-21T09:04:22Z</time>
      </trkpt>
      <trkpt lat="46.149888" lon="9.323370">
        <ele>205.882</ele>
        <time>2020-08-21T09:04:29Z</time>
      </trkpt>
      <trkpt lat="46.149869" lon="9.323300">
        <ele>205.851</ele>
        <time>2020-08-21T09:04:30Z</time>
      </trkpt>
      <trkpt lat="46.149856" lon="9.323232">
        <ele>205.811</ele>
        <time>2020-08-21T09:04:31Z</time>
      </trkpt>
      <trkpt lat="46.149713" lon="9.322135">
        <ele>205.358</ele>
        <time>2020-08-21T09:04:46Z</time>
      </trkpt>
      <trkpt lat="46.149314" lon="9.321176">
        <ele>205.330</ele>
        <time>2020-08-21T09:05:01Z</time>
      </trkpt>
      <trkpt lat="46.149217" lon="9.320907">
        <ele>205.398</ele>
        <time>2020-08-21T09:05:05Z</time>
      </trkpt>
      <trkpt lat="46.149111" lon="9.319859">
        <ele>207.375</ele>
        <time>2020-08-21T09:05:20Z</time>
      </trkpt>
      <trkpt lat="46.149108" lon="9.319653">
        <ele>207.386</ele>
        <time>2020-08-21T09:05:23Z</time>
      </trkpt>
      <trkpt lat="46.149187" lon="9.318507">
        <ele>209.260</ele>
        <time>2020-08-21T09:05:42Z</time>
      </trkpt>
      <trkpt lat="46.149339" lon="9.317390">
        <ele>212.126</ele>
        <time>2020-08-21T09:06:02Z</time>
      </trkpt>
      <trkpt lat="46.149433" lon="9.316656">
        <ele>214.508</ele>
        <time>2020-08-21T09:06:17Z</time>
      </trkpt>
      <trkpt lat="46.149417" lon="9.315728">
        <ele>216.983</ele>
        <time>2020-08-21T09:06:36Z</time>
      </trkpt>
      <trkpt lat="46.149270" lon="9.314813">
        <ele>219.363</ele>
        <time>2020-08-21T09:06:55Z</time>
      </trkpt>
      <trkpt lat="46.149227" lon="9.313833">
        <ele>220.752</ele>
        <time>2020-08-21T09:07:13Z</time>
      </trkpt>
      <trkpt lat="46.149180" lon="9.312818">
        <ele>221.222</ele>
        <time>2020-08-21T09:07:28Z</time>
      </trkpt>
      <trkpt lat="46.149054" lon="9.311758">
        <ele>217.859</ele>
        <time>2020-08-21T09:07:40Z</time>
      </trkpt>
      <trkpt lat="46.148872" lon="9.310253">
        <ele>216.921</ele>
        <time>2020-08-21T09:07:57Z</time>
      </trkpt>
      <trkpt lat="46.148834" lon="9.309948">
        <ele>218.359</ele>
        <time>2020-08-21T09:08:02Z</time>
      </trkpt>
      <trkpt lat="46.148722" lon="9.309205">
        <ele>219.836</ele>
        <time>2020-08-21T09:08:16Z</time>
      </trkpt>
      <trkpt lat="46.148713" lon="9.309047">
        <ele>220.759</ele>
        <time>2020-08-21T09:08:29Z</time>
      </trkpt>
      <trkpt lat="46.148723" lon="9.309047">
        <ele>221.703</ele>
        <time>2020-08-21T09:08:52Z</time>
      </trkpt>
      <trkpt lat="46.148733" lon="9.308899">
        <ele>221.723</ele>
        <time>2020-08-21T09:09:14Z</time>
      </trkpt>
      <trkpt lat="46.148726" lon="9.308884">
        <ele>221.708</ele>
        <time>2020-08-21T09:09:15Z</time>
      </trkpt>
      <trkpt lat="46.148680" lon="9.308773">
        <ele>222.220</ele>
        <time>2020-08-21T09:09:27Z</time>
      </trkpt>
      <trkpt lat="46.148642" lon="9.308174">
        <ele>225.570</ele>
        <time>2020-08-21T09:09:39Z</time>
      </trkpt>
      <trkpt lat="46.148655" lon="9.307838">
        <ele>226.049</ele>
        <time>2020-08-21T09:09:47Z</time>
      </trkpt>
      <trkpt lat="46.148632" lon="9.307699">
        <ele>226.039</ele>
        <time>2020-08-21T09:09:49Z</time>
      </trkpt>
      <trkpt lat="46.148509" lon="9.307001">
        <ele>227.076</ele>
        <time>2020-08-21T09:10:01Z</time>
      </trkpt>
      <trkpt lat="46.148467" lon="9.306711">
        <ele>228.458</ele>
        <time>2020-08-21T09:10:07Z</time>
      </trkpt>
      <trkpt lat="46.148420" lon="9.306409">
        <ele>228.996</ele>
        <time>2020-08-21T09:10:13Z</time>
      </trkpt>
      <trkpt lat="46.148334" lon="9.305915">
        <ele>227.443</ele>
        <time>2020-08-21T09:10:20Z</time>
      </trkpt>
      <trkpt lat="46.148329" lon="9.305834">
        <ele>227.463</ele>
        <time>2020-08-21T09:10:21Z</time>
      </trkpt>
      <trkpt lat="46.148332" lon="9.305751">
        <ele>227.444</ele>
        <time>2020-08-21T09:10:22Z</time>
      </trkpt>
      <trkpt lat="46.148351" lon="9.305659">
        <ele>227.418</ele>
        <time>2020-08-21T09:10:23Z</time>
      </trkpt>
      <trkpt lat="46.148378" lon="9.305572">
        <ele>227.408</ele>
        <time>2020-08-21T09:10:24Z</time>
      </trkpt>
      <trkpt lat="46.148399" lon="9.305507">
        <ele>227.421</ele>
        <time>2020-08-21T09:10:25Z</time>
      </trkpt>
      <trkpt lat="46.148426" lon="9.305429">
        <ele>227.461</ele>
        <time>2020-08-21T09:10:26Z</time>
      </trkpt>
      <trkpt lat="46.148623" lon="9.304749">
        <ele>227.420</ele>
        <time>2020-08-21T09:10:36Z</time>
      </trkpt>
      <trkpt lat="46.148626" lon="9.304676">
        <ele>227.430</ele>
        <time>2020-08-21T09:10:37Z</time>
      </trkpt>
      <trkpt lat="46.148622" lon="9.304601">
        <ele>227.437</ele>
        <time>2020-08-21T09:10:38Z</time>
      </trkpt>
      <trkpt lat="46.148614" lon="9.304527">
        <ele>228.999</ele>
        <time>2020-08-21T09:10:39Z</time>
      </trkpt>
      <trkpt lat="46.148602" lon="9.304457">
        <ele>228.987</ele>
        <time>2020-08-21T09:10:40Z</time>
      </trkpt>
      <trkpt lat="46.148582" lon="9.304385">
        <ele>228.954</ele>
        <time>2020-08-21T09:10:41Z</time>
      </trkpt>
      <trkpt lat="46.148562" lon="9.304334">
        <ele>228.942</ele>
        <time>2020-08-21T09:10:42Z</time>
      </trkpt>
      <trkpt lat="46.148532" lon="9.304279">
        <ele>229.422</ele>
        <time>2020-08-21T09:10:43Z</time>
      </trkpt>
      <trkpt lat="46.148508" lon="9.304239">
        <ele>229.414</ele>
        <time>2020-08-21T09:10:44Z</time>
      </trkpt>
      <trkpt lat="46.148057" lon="9.303530">
        <ele>232.308</ele>
        <time>2020-08-21T09:11:01Z</time>
      </trkpt>
      <trkpt lat="46.147892" lon="9.303291">
        <ele>232.719</ele>
        <time>2020-08-21T09:11:08Z</time>
      </trkpt>
      <trkpt lat="46.147860" lon="9.303301">
        <ele>232.749</ele>
        <time>2020-08-21T09:11:09Z</time>
      </trkpt>
      <trkpt lat="46.147831" lon="9.303335">
        <ele>232.778</ele>
        <time>2020-08-21T09:11:10Z</time>
      </trkpt>
      <trkpt lat="46.147631" lon="9.303578">
        <ele>229.898</ele>
        <time>2020-08-21T09:11:16Z</time>
      </trkpt>
      <trkpt lat="46.147588" lon="9.303600">
        <ele>228.935</ele>
        <time>2020-08-21T09:11:17Z</time>
      </trkpt>
      <trkpt lat="46.147538" lon="9.303601">
        <ele>227.457</ele>
        <time>2020-08-21T09:11:18Z</time>
      </trkpt>
      <trkpt lat="46.147479" lon="9.303575">
        <ele>227.065</ele>
        <time>2020-08-21T09:11:19Z</time>
      </trkpt>
      <trkpt lat="46.147428" lon="9.303532">
        <ele>226.522</ele>
        <time>2020-08-21T09:11:20Z</time>
      </trkpt>
      <trkpt lat="46.147360" lon="9.303461">
        <ele>225.528</ele>
        <time>2020-08-21T09:11:21Z</time>
      </trkpt>
      <trkpt lat="46.147322" lon="9.303422">
        <ele>225.089</ele>
        <time>2020-08-21T09:11:22Z</time>
      </trkpt>
      <trkpt lat="46.147263" lon="9.303369">
        <ele>225.017</ele>
        <time>2020-08-21T09:11:23Z</time>
      </trkpt>
      <trkpt lat="46.147203" lon="9.303330">
        <ele>224.108</ele>
        <time>2020-08-21T09:11:24Z</time>
      </trkpt>
      <trkpt lat="46.147141" lon="9.303313">
        <ele>224.197</ele>
        <time>2020-08-21T09:11:25Z</time>
      </trkpt>
      <trkpt lat="46.147077" lon="9.303329">
        <ele>223.677</ele>
        <time>2020-08-21T09:11:26Z</time>
      </trkpt>
      <trkpt lat="46.147012" lon="9.303370">
        <ele>223.676</ele>
        <time>2020-08-21T09:11:27Z</time>
      </trkpt>
      <trkpt lat="46.146950" lon="9.303419">
        <ele>223.176</ele>
        <time>2020-08-21T09:11:28Z</time>
      </trkpt>
      <trkpt lat="46.146815" lon="9.303507">
        <ele>221.763</ele>
        <time>2020-08-21T09:11:30Z</time>
      </trkpt>
      <trkpt lat="46.146741" lon="9.303534">
        <ele>221.755</ele>
        <time>2020-08-21T09:11:31Z</time>
      </trkpt>
      <trkpt lat="46.146668" lon="9.303554">
        <ele>221.733</ele>
        <time>2020-08-21T09:11:32Z</time>
      </trkpt>
      <trkpt lat="46.146151" lon="9.303754">
        <ele>221.790</ele>
        <time>2020-08-21T09:11:42Z</time>
      </trkpt>
      <trkpt lat="46.145823" lon="9.303933">
        <ele>222.664</ele>
        <time>2020-08-21T09:11:50Z</time>
      </trkpt>
      <trkpt lat="46.145776" lon="9.303969">
        <ele>222.606</ele>
        <time>2020-08-21T09:11:51Z</time>
      </trkpt>
      <trkpt lat="46.145734" lon="9.303994">
        <ele>221.216</ele>
        <time>2020-08-21T09:11:52Z</time>
      </trkpt>
      <trkpt lat="46.145669" lon="9.304017">
        <ele>220.208</ele>
        <time>2020-08-21T09:11:53Z</time>
      </trkpt>
      <trkpt lat="46.145616" lon="9.304027">
        <ele>219.871</ele>
        <time>2020-08-21T09:11:54Z</time>
      </trkpt>
      <trkpt lat="46.145557" lon="9.304033">
        <ele>218.881</ele>
        <time>2020-08-21T09:11:55Z</time>
      </trkpt>
      <trkpt lat="46.145445" lon="9.304046">
        <ele>217.890</ele>
        <time>2020-08-21T09:11:57Z</time>
      </trkpt>
      <trkpt lat="46.145399" lon="9.304074">
        <ele>216.920</ele>
        <time>2020-08-21T09:11:58Z</time>
      </trkpt>
      <trkpt lat="46.145372" lon="9.304124">
        <ele>216.457</ele>
        <time>2020-08-21T09:11:59Z</time>
      </trkpt>
      <trkpt lat="46.145373" lon="9.304198">
        <ele>215.449</ele>
        <time>2020-08-21T09:12:00Z</time>
      </trkpt>
      <trkpt lat="46.145398" lon="9.304246">
        <ele>214.957</ele>
        <time>2020-08-21T09:12:01Z</time>
      </trkpt>
      <trkpt lat="46.145455" lon="9.304276">
        <ele>214.554</ele>
        <time>2020-08-21T09:12:02Z</time>
      </trkpt>
      <trkpt lat="46.145495" lon="9.304268">
        <ele>214.047</ele>
        <time>2020-08-21T09:12:03Z</time>
      </trkpt>
      <trkpt lat="46.145543" lon="9.304248">
        <ele>213.029</ele>
        <time>2020-08-21T09:12:04Z</time>
      </trkpt>
      <trkpt lat="46.145593" lon="9.304245">
        <ele>212.521</ele>
        <time>2020-08-21T09:12:05Z</time>
      </trkpt>
      <trkpt lat="46.145635" lon="9.304273">
        <ele>211.608</ele>
        <time>2020-08-21T09:12:06Z</time>
      </trkpt>
      <trkpt lat="46.145658" lon="9.304330">
        <ele>211.619</ele>
        <time>2020-08-21T09:12:07Z</time>
      </trkpt>
      <trkpt lat="46.145657" lon="9.304400">
        <ele>211.179</ele>
        <time>2020-08-21T09:12:08Z</time>
      </trkpt>
      <trkpt lat="46.145650" lon="9.304480">
        <ele>210.178</ele>
        <time>2020-08-21T09:12:09Z</time>
      </trkpt>
      <trkpt lat="46.145614" lon="9.304658">
        <ele>209.238</ele>
        <time>2020-08-21T09:12:11Z</time>
      </trkpt>
      <trkpt lat="46.145563" lon="9.304801">
        <ele>207.775</ele>
        <time>2020-08-21T09:12:13Z</time>
      </trkpt>
      <trkpt lat="46.145541" lon="9.304858">
        <ele>207.717</ele>
        <time>2020-08-21T09:12:14Z</time>
      </trkpt>
      <trkpt lat="46.145522" lon="9.304912">
        <ele>207.315</ele>
        <time>2020-08-21T09:12:15Z</time>
      </trkpt>
      <trkpt lat="46.145501" lon="9.304955">
        <ele>207.392</ele>
        <time>2020-08-21T09:12:16Z</time>
      </trkpt>
      <trkpt lat="46.145479" lon="9.304997">
        <ele>206.847</ele>
        <time>2020-08-21T09:12:17Z</time>
      </trkpt>
      <trkpt lat="46.145458" lon="9.305044">
        <ele>206.329</ele>
        <time>2020-08-21T09:12:18Z</time>
      </trkpt>
      <trkpt lat="46.145375" lon="9.305118">
        <ele>205.821</ele>
        <time>2020-08-21T09:12:21Z</time>
      </trkpt>
      <trkpt lat="46.145344" lon="9.305104">
        <ele>205.808</ele>
        <time>2020-08-21T09:12:22Z</time>
      </trkpt>
      <trkpt lat="46.145313" lon="9.305084">
        <ele>205.849</ele>
        <time>2020-08-21T09:12:23Z</time>
      </trkpt>
      <trkpt lat="46.144921" lon="9.304957">
        <ele>205.859</ele>
        <time>2020-08-21T09:12:35Z</time>
      </trkpt>
      <trkpt lat="46.144504" lon="9.304835">
        <ele>205.868</ele>
        <time>2020-08-21T09:12:47Z</time>
      </trkpt>
      <trkpt lat="46.143858" lon="9.304804">
        <ele>206.818</ele>
        <time>2020-08-21T09:13:03Z</time>
      </trkpt>
      <trkpt lat="46.143507" lon="9.304800">
        <ele>207.365</ele>
        <time>2020-08-21T09:13:12Z</time>
      </trkpt>
      <trkpt lat="46.143273" lon="9.304794">
        <ele>207.317</ele>
        <time>2020-08-21T09:13:18Z</time>
      </trkpt>
      <trkpt lat="46.143230" lon="9.304784">
        <ele>207.395</ele>
        <time>2020-08-21T09:13:19Z</time>
      </trkpt>
      <trkpt lat="46.143192" lon="9.304771">
        <ele>207.362</ele>
        <time>2020-08-21T09:13:20Z</time>
      </trkpt>
      <trkpt lat="46.143036" lon="9.304731">
        <ele>207.375</ele>
        <time>2020-08-21T09:13:24Z</time>
      </trkpt>
      <trkpt lat="46.142318" lon="9.304889">
        <ele>207.728</ele>
        <time>2020-08-21T09:13:41Z</time>
      </trkpt>
      <trkpt lat="46.142183" lon="9.304906">
        <ele>207.720</ele>
        <time>2020-08-21T09:13:44Z</time>
      </trkpt>
      <trkpt lat="46.141967" lon="9.304922">
        <ele>207.708</ele>
        <time>2020-08-21T09:13:49Z</time>
      </trkpt>
      <trkpt lat="46.141741" lon="9.304921">
        <ele>207.712</ele>
        <time>2020-08-21T09:13:54Z</time>
      </trkpt>
      <trkpt lat="46.141456" lon="9.304809">
        <ele>207.762</ele>
        <time>2020-08-21T09:14:05Z</time>
      </trkpt>
      <trkpt lat="46.141470" lon="9.304817">
        <ele>207.771</ele>
        <time>2020-08-21T09:14:31Z</time>
      </trkpt>
      <trkpt lat="46.141461" lon="9.304808">
        <ele>207.721</ele>
        <time>2020-08-21T09:14:49Z</time>
      </trkpt>
      <trkpt lat="46.141442" lon="9.304811">
        <ele>207.798</ele>
        <time>2020-08-21T09:14:50Z</time>
      </trkpt>
      <trkpt lat="46.141426" lon="9.304816">
        <ele>207.760</ele>
        <time>2020-08-21T09:14:51Z</time>
      </trkpt>
      <trkpt lat="46.141410" lon="9.304810">
        <ele>207.798</ele>
        <time>2020-08-21T09:14:52Z</time>
      </trkpt>
      <trkpt lat="46.141395" lon="9.304795">
        <ele>207.725</ele>
        <time>2020-08-21T09:14:53Z</time>
      </trkpt>
      <trkpt lat="46.141380" lon="9.304780">
        <ele>207.761</ele>
        <time>2020-08-21T09:14:54Z</time>
      </trkpt>
      <trkpt lat="46.141365" lon="9.304766">
        <ele>207.721</ele>
        <time>2020-08-21T09:14:55Z</time>
      </trkpt>
      <trkpt lat="46.141020" lon="9.304544">
        <ele>209.213</ele>
        <time>2020-08-21T09:15:08Z</time>
      </trkpt>
      <trkpt lat="46.140995" lon="9.304519">
        <ele>209.208</ele>
        <time>2020-08-21T09:15:09Z</time>
      </trkpt>
      <trkpt lat="46.140564" lon="9.304020">
        <ele>207.741</ele>
        <time>2020-08-21T09:15:23Z</time>
      </trkpt>
      <trkpt lat="46.140538" lon="9.303972">
        <ele>207.741</ele>
        <time>2020-08-21T09:15:24Z</time>
      </trkpt>
      <trkpt lat="46.140407" lon="9.303701">
        <ele>207.740</ele>
        <time>2020-08-21T09:15:29Z</time>
      </trkpt>
      <trkpt lat="46.140268" lon="9.303484">
        <ele>207.750</ele>
        <time>2020-08-21T09:15:34Z</time>
      </trkpt>
      <trkpt lat="46.140214" lon="9.303394">
        <ele>207.727</ele>
        <time>2020-08-21T09:15:36Z</time>
      </trkpt>
      <trkpt lat="46.139799" lon="9.302837">
        <ele>211.199</ele>
        <time>2020-08-21T09:15:51Z</time>
      </trkpt>
      <trkpt lat="46.139474" lon="9.302165">
        <ele>214.067</ele>
        <time>2020-08-21T09:16:08Z</time>
      </trkpt>
      <trkpt lat="46.139089" lon="9.301422">
        <ele>211.114</ele>
        <time>2020-08-21T09:16:20Z</time>
      </trkpt>
      <trkpt lat="46.138643" lon="9.300673">
        <ele>211.154</ele>
        <time>2020-08-21T09:16:33Z</time>
      </trkpt>
      <trkpt lat="46.138553" lon="9.300490">
        <ele>211.156</ele>
        <time>2020-08-21T09:16:36Z</time>
      </trkpt>
      <trkpt lat="46.138534" lon="9.300430">
        <ele>211.111</ele>
        <time>2020-08-21T09:16:37Z</time>
      </trkpt>
      <trkpt lat="46.138520" lon="9.300360">
        <ele>211.108</ele>
        <time>2020-08-21T09:16:38Z</time>
      </trkpt>
      <trkpt lat="46.138511" lon="9.300284">
        <ele>211.160</ele>
        <time>2020-08-21T09:16:39Z</time>
      </trkpt>
      <trkpt lat="46.138501" lon="9.300210">
        <ele>211.170</ele>
        <time>2020-08-21T09:16:40Z</time>
      </trkpt>
      <trkpt lat="46.138485" lon="9.300138">
        <ele>211.129</ele>
        <time>2020-08-21T09:16:41Z</time>
      </trkpt>
      <trkpt lat="46.138462" lon="9.300070">
        <ele>211.199</ele>
        <time>2020-08-21T09:16:42Z</time>
      </trkpt>
      <trkpt lat="46.138439" lon="9.300001">
        <ele>211.136</ele>
        <time>2020-08-21T09:16:43Z</time>
      </trkpt>
      <trkpt lat="46.138121" lon="9.299123">
        <ele>210.198</ele>
        <time>2020-08-21T09:16:56Z</time>
      </trkpt>
      <trkpt lat="46.137996" lon="9.298774">
        <ele>210.166</ele>
        <time>2020-08-21T09:17:03Z</time>
      </trkpt>
      <trkpt lat="46.137968" lon="9.298756">
        <ele>210.133</ele>
        <time>2020-08-21T09:17:04Z</time>
      </trkpt>
      <trkpt lat="46.137949" lon="9.298751">
        <ele>210.142</ele>
        <time>2020-08-21T09:17:05Z</time>
      </trkpt>
      <trkpt lat="46.137925" lon="9.298749">
        <ele>210.122</ele>
        <time>2020-08-21T09:17:06Z</time>
      </trkpt>
      <trkpt lat="46.137892" lon="9.298751">
        <ele>210.114</ele>
        <time>2020-08-21T09:17:07Z</time>
      </trkpt>
      <trkpt lat="46.137852" lon="9.298763">
        <ele>210.108</ele>
        <time>2020-08-21T09:17:08Z</time>
      </trkpt>
      <trkpt lat="46.137815" lon="9.298778">
        <ele>210.139</ele>
        <time>2020-08-21T09:17:09Z</time>
      </trkpt>
      <trkpt lat="46.137775" lon="9.298797">
        <ele>210.159</ele>
        <time>2020-08-21T09:17:10Z</time>
      </trkpt>
      <trkpt lat="46.137733" lon="9.298811">
        <ele>210.128</ele>
        <time>2020-08-21T09:17:11Z</time>
      </trkpt>
      <trkpt lat="46.137690" lon="9.298816">
        <ele>210.198</ele>
        <time>2020-08-21T09:17:12Z</time>
      </trkpt>
      <trkpt lat="46.137642" lon="9.298811">
        <ele>210.195</ele>
        <time>2020-08-21T09:17:13Z</time>
      </trkpt>
      <trkpt lat="46.137585" lon="9.298795">
        <ele>210.147</ele>
        <time>2020-08-21T09:17:14Z</time>
      </trkpt>
      <trkpt lat="46.137544" lon="9.298776">
        <ele>210.175</ele>
        <time>2020-08-21T09:17:15Z</time>
      </trkpt>
      <trkpt lat="46.137360" lon="9.298679">
        <ele>210.122</ele>
        <time>2020-08-21T09:17:19Z</time>
      </trkpt>
      <trkpt lat="46.137322" lon="9.298640">
        <ele>210.194</ele>
        <time>2020-08-21T09:17:20Z</time>
      </trkpt>
      <trkpt lat="46.137295" lon="9.298590">
        <ele>210.157</ele>
        <time>2020-08-21T09:17:21Z</time>
      </trkpt>
      <trkpt lat="46.137281" lon="9.298534">
        <ele>210.122</ele>
        <time>2020-08-21T09:17:22Z</time>
      </trkpt>
      <trkpt lat="46.137278" lon="9.298475">
        <ele>210.108</ele>
        <time>2020-08-21T09:17:23Z</time>
      </trkpt>
      <trkpt lat="46.137278" lon="9.298420">
        <ele>210.184</ele>
        <time>2020-08-21T09:17:24Z</time>
      </trkpt>
      <trkpt lat="46.137279" lon="9.298239">
        <ele>209.744</ele>
        <time>2020-08-21T09:17:27Z</time>
      </trkpt>
      <trkpt lat="46.137272" lon="9.298172">
        <ele>209.773</ele>
        <time>2020-08-21T09:17:28Z</time>
      </trkpt>
      <trkpt lat="46.137247" lon="9.298045">
        <ele>209.773</ele>
        <time>2020-08-21T09:17:30Z</time>
      </trkpt>
      <trkpt lat="46.137219" lon="9.297920">
        <ele>209.740</ele>
        <time>2020-08-21T09:17:32Z</time>
      </trkpt>
      <trkpt lat="46.137206" lon="9.297787">
        <ele>209.782</ele>
        <time>2020-08-21T09:17:34Z</time>
      </trkpt>
      <trkpt lat="46.137220" lon="9.297710">
        <ele>209.770</ele>
        <time>2020-08-21T09:17:35Z</time>
      </trkpt>
      <trkpt lat="46.137243" lon="9.297650">
        <ele>209.757</ele>
        <time>2020-08-21T09:17:36Z</time>
      </trkpt>
      <trkpt lat="46.137274" lon="9.297590">
        <ele>209.737</ele>
        <time>2020-08-21T09:17:37Z</time>
      </trkpt>
      <trkpt lat="46.137306" lon="9.297534">
        <ele>209.749</ele>
        <time>2020-08-21T09:17:38Z</time>
      </trkpt>
      <trkpt lat="46.137376" lon="9.297422">
        <ele>209.713</ele>
        <time>2020-08-21T09:17:40Z</time>
      </trkpt>
      <trkpt lat="46.137397" lon="9.297359">
        <ele>209.708</ele>
        <time>2020-08-21T09:17:41Z</time>
      </trkpt>
      <trkpt lat="46.137404" lon="9.297295">
        <ele>209.718</ele>
        <time>2020-08-21T09:17:42Z</time>
      </trkpt>
      <trkpt lat="46.137387" lon="9.296788">
        <ele>209.718</ele>
        <time>2020-08-21T09:17:50Z</time>
      </trkpt>
      <trkpt lat="46.137339" lon="9.296523">
        <ele>209.757</ele>
        <time>2020-08-21T09:17:54Z</time>
      </trkpt>
      <trkpt lat="46.137337" lon="9.296456">
        <ele>209.747</ele>
        <time>2020-08-21T09:17:55Z</time>
      </trkpt>
      <trkpt lat="46.137345" lon="9.296381">
        <ele>209.714</ele>
        <time>2020-08-21T09:17:56Z</time>
      </trkpt>
      <trkpt lat="46.137358" lon="9.296305">
        <ele>209.756</ele>
        <time>2020-08-21T09:17:57Z</time>
      </trkpt>
      <trkpt lat="46.137369" lon="9.296241">
        <ele>209.794</ele>
        <time>2020-08-21T09:17:58Z</time>
      </trkpt>
      <trkpt lat="46.137375" lon="9.296163">
        <ele>209.771</ele>
        <time>2020-08-21T09:17:59Z</time>
      </trkpt>
      <trkpt lat="46.137375" lon="9.296096">
        <ele>209.796</ele>
        <time>2020-08-21T09:18:00Z</time>
      </trkpt>
      <trkpt lat="46.137365" lon="9.296016">
        <ele>209.731</ele>
        <time>2020-08-21T09:18:01Z</time>
      </trkpt>
      <trkpt lat="46.137347" lon="9.295957">
        <ele>209.724</ele>
        <time>2020-08-21T09:18:02Z</time>
      </trkpt>
      <trkpt lat="46.137316" lon="9.295884">
        <ele>209.708</ele>
        <time>2020-08-21T09:18:03Z</time>
      </trkpt>
      <trkpt lat="46.137223" lon="9.295651">
        <ele>209.734</ele>
        <time>2020-08-21T09:18:07Z</time>
      </trkpt>
      <trkpt lat="46.137214" lon="9.295605">
        <ele>209.744</ele>
        <time>2020-08-21T09:18:08Z</time>
      </trkpt>
      <trkpt lat="46.137208" lon="9.295571">
        <ele>209.763</ele>
        <time>2020-08-21T09:18:09Z</time>
      </trkpt>
      <trkpt lat="46.137211" lon="9.295055">
        <ele>209.243</ele>
        <time>2020-08-21T09:18:21Z</time>
      </trkpt>
      <trkpt lat="46.137090" lon="9.294526">
        <ele>210.620</ele>
        <time>2020-08-21T09:18:31Z</time>
      </trkpt>
      <trkpt lat="46.137069" lon="9.293720">
        <ele>208.772</ele>
        <time>2020-08-21T09:18:46Z</time>
      </trkpt>
      <trkpt lat="46.137090" lon="9.293690">
        <ele>208.720</ele>
        <time>2020-08-21T09:18:47Z</time>
      </trkpt>
      <trkpt lat="46.137122" lon="9.293675">
        <ele>208.747</ele>
        <time>2020-08-21T09:18:48Z</time>
      </trkpt>
      <trkpt lat="46.137155" lon="9.293669">
        <ele>208.777</ele>
        <time>2020-08-21T09:18:49Z</time>
      </trkpt>
      <trkpt lat="46.137472" lon="9.293664">
        <ele>208.761</ele>
        <time>2020-08-21T09:18:58Z</time>
      </trkpt>
      <trkpt lat="46.137502" lon="9.293642">
        <ele>208.727</ele>
        <time>2020-08-21T09:18:59Z</time>
      </trkpt>
      <trkpt lat="46.137521" lon="9.293603">
        <ele>208.708</ele>
        <time>2020-08-21T09:19:00Z</time>
      </trkpt>
      <trkpt lat="46.137520" lon="9.293556">
        <ele>210.112</ele>
        <time>2020-08-21T09:19:01Z</time>
      </trkpt>
      <trkpt lat="46.137505" lon="9.293510">
        <ele>210.132</ele>
        <time>2020-08-21T09:19:02Z</time>
      </trkpt>
      <trkpt lat="46.137480" lon="9.293460">
        <ele>210.131</ele>
        <time>2020-08-21T09:19:03Z</time>
      </trkpt>
      <trkpt lat="46.137456" lon="9.293420">
        <ele>210.131</ele>
        <time>2020-08-21T09:19:04Z</time>
      </trkpt>
      <trkpt lat="46.137044" lon="9.292682">
        <ele>209.758</ele>
        <time>2020-08-21T09:19:19Z</time>
      </trkpt>
      <trkpt lat="46.136990" lon="9.292575">
        <ele>208.720</ele>
        <time>2020-08-21T09:19:21Z</time>
      </trkpt>
      <trkpt lat="46.136839" lon="9.292228">
        <ele>208.748</ele>
        <time>2020-08-21T09:19:27Z</time>
      </trkpt>
      <trkpt lat="46.136824" lon="9.292162">
        <ele>208.235</ele>
        <time>2020-08-21T09:19:28Z</time>
      </trkpt>
      <trkpt lat="46.136722" lon="9.291850">
        <ele>207.769</ele>
        <time>2020-08-21T09:19:34Z</time>
      </trkpt>
      <trkpt lat="46.136701" lon="9.291801">
        <ele>207.704</ele>
        <time>2020-08-21T09:19:35Z</time>
      </trkpt>
      <trkpt lat="46.136679" lon="9.291754">
        <ele>207.724</ele>
        <time>2020-08-21T09:19:36Z</time>
      </trkpt>
      <trkpt lat="46.136597" lon="9.291611">
        <ele>207.708</ele>
        <time>2020-08-21T09:19:39Z</time>
      </trkpt>
      <trkpt lat="46.136219" lon="9.290982">
        <ele>206.831</ele>
        <time>2020-08-21T09:19:51Z</time>
      </trkpt>
      <trkpt lat="46.136084" lon="9.290799">
        <ele>206.831</ele>
        <time>2020-08-21T09:19:55Z</time>
      </trkpt>
      <trkpt lat="46.136041" lon="9.290779">
        <ele>206.890</ele>
        <time>2020-08-21T09:19:56Z</time>
      </trkpt>
      <trkpt lat="46.135991" lon="9.290781">
        <ele>206.870</ele>
        <time>2020-08-21T09:19:57Z</time>
      </trkpt>
      <trkpt lat="46.135953" lon="9.290798">
        <ele>206.817</ele>
        <time>2020-08-21T09:19:58Z</time>
      </trkpt>
      <trkpt lat="46.135906" lon="9.290843">
        <ele>206.869</ele>
        <time>2020-08-21T09:19:59Z</time>
      </trkpt>
      <trkpt lat="46.135876" lon="9.290878">
        <ele>206.897</ele>
        <time>2020-08-21T09:20:00Z</time>
      </trkpt>
      <trkpt lat="46.135557" lon="9.291223">
        <ele>206.844</ele>
        <time>2020-08-21T09:20:08Z</time>
      </trkpt>
      <trkpt lat="46.135509" lon="9.291252">
        <ele>206.891</ele>
        <time>2020-08-21T09:20:09Z</time>
      </trkpt>
      <trkpt lat="46.135466" lon="9.291271">
        <ele>206.881</ele>
        <time>2020-08-21T09:20:10Z</time>
      </trkpt>
      <trkpt lat="46.135423" lon="9.291282">
        <ele>206.819</ele>
        <time>2020-08-21T09:20:11Z</time>
      </trkpt>
      <trkpt lat="46.135383" lon="9.291292">
        <ele>206.808</ele>
        <time>2020-08-21T09:20:12Z</time>
      </trkpt>
      <trkpt lat="46.135344" lon="9.291311">
        <ele>206.844</ele>
        <time>2020-08-21T09:20:13Z</time>
      </trkpt>
      <trkpt lat="46.135305" lon="9.291342">
        <ele>206.854</ele>
        <time>2020-08-21T09:20:14Z</time>
      </trkpt>
      <trkpt lat="46.135270" lon="9.291374">
        <ele>206.873</ele>
        <time>2020-08-21T09:20:15Z</time>
      </trkpt>
      <trkpt lat="46.135233" lon="9.291408">
        <ele>206.863</ele>
        <time>2020-08-21T09:20:16Z</time>
      </trkpt>
      <trkpt lat="46.135156" lon="9.291470">
        <ele>206.810</ele>
        <time>2020-08-21T09:20:18Z</time>
      </trkpt>
      <trkpt lat="46.135120" lon="9.291492">
        <ele>206.322</ele>
        <time>2020-08-21T09:20:19Z</time>
      </trkpt>
      <trkpt lat="46.135095" lon="9.291500">
        <ele>206.390</ele>
        <time>2020-08-21T09:20:20Z</time>
      </trkpt>
      <trkpt lat="46.135046" lon="9.291485">
        <ele>206.337</ele>
        <time>2020-08-21T09:20:22Z</time>
      </trkpt>
      <trkpt lat="46.135009" lon="9.291461">
        <ele>206.389</ele>
        <time>2020-08-21T09:20:29Z</time>
      </trkpt>
      <trkpt lat="46.135042" lon="9.291504">
        <ele>206.306</ele>
        <time>2020-08-21T09:20:31Z</time>
      </trkpt>
      <trkpt lat="46.135070" lon="9.291524">
        <ele>206.326</ele>
        <time>2020-08-21T09:20:32Z</time>
      </trkpt>
      <trkpt lat="46.135088" lon="9.291542">
        <ele>206.308</ele>
        <time>2020-08-21T09:20:33Z</time>
      </trkpt>
      <trkpt lat="46.135103" lon="9.291575">
        <ele>206.373</ele>
        <time>2020-08-21T09:20:34Z</time>
      </trkpt>
      <trkpt lat="46.135109" lon="9.291619">
        <ele>206.313</ele>
        <time>2020-08-21T09:20:35Z</time>
      </trkpt>
      <trkpt lat="46.135105" lon="9.291672">
        <ele>206.382</ele>
        <time>2020-08-21T09:20:36Z</time>
      </trkpt>
      <trkpt lat="46.135091" lon="9.291805">
        <ele>205.842</ele>
        <time>2020-08-21T09:20:39Z</time>
      </trkpt>
      <trkpt lat="46.135060" lon="9.291841">
        <ele>205.839</ele>
        <time>2020-08-21T09:20:40Z</time>
      </trkpt>
      <trkpt lat="46.135033" lon="9.291851">
        <ele>205.881</ele>
        <time>2020-08-21T09:20:41Z</time>
      </trkpt>
      <trkpt lat="46.134770" lon="9.291903">
        <ele>205.389</ele>
        <time>2020-08-21T09:20:50Z</time>
      </trkpt>
      <trkpt lat="46.134749" lon="9.291888">
        <ele>205.316</ele>
        <time>2020-08-21T09:20:51Z</time>
      </trkpt>
      <trkpt lat="46.134726" lon="9.291860">
        <ele>205.367</ele>
        <time>2020-08-21T09:20:52Z</time>
      </trkpt>
      <trkpt lat="46.134708" lon="9.291830">
        <ele>205.381</ele>
        <time>2020-08-21T09:20:53Z</time>
      </trkpt>
      <trkpt lat="46.134689" lon="9.291790">
        <ele>205.319</ele>
        <time>2020-08-21T09:20:54Z</time>
      </trkpt>
      <trkpt lat="46.134670" lon="9.291744">
        <ele>205.308</ele>
        <time>2020-08-21T09:20:55Z</time>
      </trkpt>
      <trkpt lat="46.134650" lon="9.291689">
        <ele>205.311</ele>
        <time>2020-08-21T09:20:56Z</time>
      </trkpt>
      <trkpt lat="46.134483" lon="9.290979">
        <ele>205.341</ele>
        <time>2020-08-21T09:21:10Z</time>
      </trkpt>
      <trkpt lat="46.134428" lon="9.290902">
        <ele>205.360</ele>
        <time>2020-08-21T09:21:13Z</time>
      </trkpt>
      <trkpt lat="46.134423" lon="9.290876">
        <ele>205.310</ele>
        <time>2020-08-21T09:21:14Z</time>
      </trkpt>
      <trkpt lat="46.134424" lon="9.290854">
        <ele>205.357</ele>
        <time>2020-08-21T09:21:15Z</time>
      </trkpt>
      <trkpt lat="46.134425" lon="9.290846">
        <ele>205.389</ele>
        <time>2020-08-21T09:21:29Z</time>
      </trkpt>
      <trkpt lat="46.134434" lon="9.290826">
        <ele>205.317</ele>
        <time>2020-08-21T09:21:30Z</time>
      </trkpt>
      <trkpt lat="46.134452" lon="9.290774">
        <ele>205.374</ele>
        <time>2020-08-21T09:21:32Z</time>
      </trkpt>
      <trkpt lat="46.134577" lon="9.290228">
        <ele>205.376</ele>
        <time>2020-08-21T09:21:44Z</time>
      </trkpt>
      <trkpt lat="46.134615" lon="9.289600">
        <ele>206.890</ele>
        <time>2020-08-21T09:21:55Z</time>
      </trkpt>
      <trkpt lat="46.134573" lon="9.288682">
        <ele>208.219</ele>
        <time>2020-08-21T09:22:11Z</time>
      </trkpt>
      <trkpt lat="46.134557" lon="9.288627">
        <ele>208.208</ele>
        <time>2020-08-21T09:22:12Z</time>
      </trkpt>
      <trkpt lat="46.134537" lon="9.288574">
        <ele>208.232</ele>
        <time>2020-08-21T09:22:13Z</time>
      </trkpt>
      <trkpt lat="46.134440" lon="9.288277">
        <ele>208.292</ele>
        <time>2020-08-21T09:22:19Z</time>
      </trkpt>
      <trkpt lat="46.134451" lon="9.288238">
        <ele>208.211</ele>
        <time>2020-08-21T09:22:20Z</time>
      </trkpt>
      <trkpt lat="46.134560" lon="9.288208">
        <ele>208.761</ele>
        <time>2020-08-21T09:22:24Z</time>
      </trkpt>
      <trkpt lat="46.135040" lon="9.288138">
        <ele>208.758</ele>
        <time>2020-08-21T09:22:36Z</time>
      </trkpt>
      <trkpt lat="46.135060" lon="9.288100">
        <ele>208.760</ele>
        <time>2020-08-21T09:22:37Z</time>
      </trkpt>
      <trkpt lat="46.135076" lon="9.288047">
        <ele>208.768</ele>
        <time>2020-08-21T09:22:38Z</time>
      </trkpt>
      <trkpt lat="46.135085" lon="9.287997">
        <ele>208.785</ele>
        <time>2020-08-21T09:22:39Z</time>
      </trkpt>
      <trkpt lat="46.135093" lon="9.287949">
        <ele>208.738</ele>
        <time>2020-08-21T09:22:40Z</time>
      </trkpt>
      <trkpt lat="46.135100" lon="9.287902">
        <ele>209.270</ele>
        <time>2020-08-21T09:22:41Z</time>
      </trkpt>
      <trkpt lat="46.135106" lon="9.287845">
        <ele>209.217</ele>
        <time>2020-08-21T09:22:42Z</time>
      </trkpt>
      <trkpt lat="46.135158" lon="9.287393">
        <ele>211.108</ele>
        <time>2020-08-21T09:22:55Z</time>
      </trkpt>
      <trkpt lat="46.135171" lon="9.287370">
        <ele>211.198</ele>
        <time>2020-08-21T09:23:03Z</time>
      </trkpt>
      <trkpt lat="46.135182" lon="9.287345">
        <ele>211.118</ele>
        <time>2020-08-21T09:23:04Z</time>
      </trkpt>
      <trkpt lat="46.135186" lon="9.287321">
        <ele>211.197</ele>
        <time>2020-08-21T09:23:05Z</time>
      </trkpt>
      <trkpt lat="46.135179" lon="9.287288">
        <ele>211.127</ele>
        <time>2020-08-21T09:23:06Z</time>
      </trkpt>
      <trkpt lat="46.135157" lon="9.287261">
        <ele>211.124</ele>
        <time>2020-08-21T09:23:07Z</time>
      </trkpt>
      <trkpt lat="46.135131" lon="9.287242">
        <ele>211.136</ele>
        <time>2020-08-21T09:23:08Z</time>
      </trkpt>
      <trkpt lat="46.135099" lon="9.287222">
        <ele>211.174</ele>
        <time>2020-08-21T09:23:09Z</time>
      </trkpt>
      <trkpt lat="46.135060" lon="9.287198">
        <ele>211.111</ele>
        <time>2020-08-21T09:23:10Z</time>
      </trkpt>
      <trkpt lat="46.134318" lon="9.286823">
        <ele>212.569</ele>
        <time>2020-08-21T09:23:29Z</time>
      </trkpt>
      <trkpt lat="46.133456" lon="9.286662">
        <ele>212.504</ele>
        <time>2020-08-21T09:23:47Z</time>
      </trkpt>
      <trkpt lat="46.132377" lon="9.286527">
        <ele>213.524</ele>
        <time>2020-08-21T09:24:07Z</time>
      </trkpt>
      <trkpt lat="46.131453" lon="9.286412">
        <ele>214.008</ele>
        <time>2020-08-21T09:24:25Z</time>
      </trkpt>
      <trkpt lat="46.130606" lon="9.286197">
        <ele>213.511</ele>
        <time>2020-08-21T09:24:41Z</time>
      </trkpt>
      <trkpt lat="46.129660" lon="9.285723">
        <ele>210.671</ele>
        <time>2020-08-21T09:24:55Z</time>
      </trkpt>
      <trkpt lat="46.128474" lon="9.284702">
        <ele>209.780</ele>
        <time>2020-08-21T09:25:16Z</time>
      </trkpt>
      <trkpt lat="46.127541" lon="9.283847">
        <ele>211.640</ele>
        <time>2020-08-21T09:25:35Z</time>
      </trkpt>
      <trkpt lat="46.127435" lon="9.283669">
        <ele>212.127</ele>
        <time>2020-08-21T09:25:38Z</time>
      </trkpt>
      <trkpt lat="46.127384" lon="9.283549">
        <ele>212.139</ele>
        <time>2020-08-21T09:25:40Z</time>
      </trkpt>
      <trkpt lat="46.127361" lon="9.283480">
        <ele>212.157</ele>
        <time>2020-08-21T09:25:41Z</time>
      </trkpt>
      <trkpt lat="46.127168" lon="9.282561">
        <ele>214.094</ele>
        <time>2020-08-21T09:25:57Z</time>
      </trkpt>
      <trkpt lat="46.127146" lon="9.282520">
        <ele>214.575</ele>
        <time>2020-08-21T09:25:58Z</time>
      </trkpt>
      <trkpt lat="46.127120" lon="9.282483">
        <ele>214.928</ele>
        <time>2020-08-21T09:25:59Z</time>
      </trkpt>
      <trkpt lat="46.127086" lon="9.282436">
        <ele>214.920</ele>
        <time>2020-08-21T09:26:00Z</time>
      </trkpt>
      <trkpt lat="46.126919" lon="9.282218">
        <ele>214.908</ele>
        <time>2020-08-21T09:26:05Z</time>
      </trkpt>
      <trkpt lat="46.126878" lon="9.282179">
        <ele>214.932</ele>
        <time>2020-08-21T09:26:06Z</time>
      </trkpt>
      <trkpt lat="46.126836" lon="9.282144">
        <ele>214.922</ele>
        <time>2020-08-21T09:26:07Z</time>
      </trkpt>
      <trkpt lat="46.126084" lon="9.281607">
        <ele>215.991</ele>
        <time>2020-08-21T09:26:23Z</time>
      </trkpt>
      <trkpt lat="46.125591" lon="9.281259">
        <ele>215.961</ele>
        <time>2020-08-21T09:26:33Z</time>
      </trkpt>
      <trkpt lat="46.125542" lon="9.281242">
        <ele>215.958</ele>
        <time>2020-08-21T09:26:34Z</time>
      </trkpt>
      <trkpt lat="46.125487" lon="9.281233">
        <ele>215.990</ele>
        <time>2020-08-21T09:26:35Z</time>
      </trkpt>
      <trkpt lat="46.125426" lon="9.281240">
        <ele>215.928</ele>
        <time>2020-08-21T09:26:36Z</time>
      </trkpt>
      <trkpt lat="46.125364" lon="9.281258">
        <ele>215.925</ele>
        <time>2020-08-21T09:26:37Z</time>
      </trkpt>
      <trkpt lat="46.125289" lon="9.281291">
        <ele>214.573</ele>
        <time>2020-08-21T09:26:38Z</time>
      </trkpt>
      <trkpt lat="46.125238" lon="9.281315">
        <ele>214.585</ele>
        <time>2020-08-21T09:26:39Z</time>
      </trkpt>
      <trkpt lat="46.124372" lon="9.281777">
        <ele>211.113</ele>
        <time>2020-08-21T09:26:52Z</time>
      </trkpt>
      <trkpt lat="46.123656" lon="9.282151">
        <ele>208.708</ele>
        <time>2020-08-21T09:27:02Z</time>
      </trkpt>
      <trkpt lat="46.123583" lon="9.282148">
        <ele>207.732</ele>
        <time>2020-08-21T09:27:03Z</time>
      </trkpt>
      <trkpt lat="46.123514" lon="9.282113">
        <ele>208.212</ele>
        <time>2020-08-21T09:27:04Z</time>
      </trkpt>
      <trkpt lat="46.123443" lon="9.282035">
        <ele>207.761</ele>
        <time>2020-08-21T09:27:05Z</time>
      </trkpt>
      <trkpt lat="46.123408" lon="9.281970">
        <ele>207.731</ele>
        <time>2020-08-21T09:27:06Z</time>
      </trkpt>
      <trkpt lat="46.123372" lon="9.281881">
        <ele>207.758</ele>
        <time>2020-08-21T09:27:07Z</time>
      </trkpt>
      <trkpt lat="46.123341" lon="9.281794">
        <ele>207.330</ele>
        <time>2020-08-21T09:27:08Z</time>
      </trkpt>
      <trkpt lat="46.123011" lon="9.280974">
        <ele>207.358</ele>
        <time>2020-08-21T09:27:19Z</time>
      </trkpt>
      <trkpt lat="46.122951" lon="9.280828">
        <ele>207.395</ele>
        <time>2020-08-21T09:27:21Z</time>
      </trkpt>
      <trkpt lat="46.122684" lon="9.280091">
        <ele>207.321</ele>
        <time>2020-08-21T09:27:30Z</time>
      </trkpt>
      <trkpt lat="46.122662" lon="9.280006">
        <ele>206.841</ele>
        <time>2020-08-21T09:27:31Z</time>
      </trkpt>
      <trkpt lat="46.122638" lon="9.279921">
        <ele>206.805</ele>
        <time>2020-08-21T09:27:32Z</time>
      </trkpt>
      <trkpt lat="46.122611" lon="9.279833">
        <ele>206.808</ele>
        <time>2020-08-21T09:27:33Z</time>
      </trkpt>
      <trkpt lat="46.122584" lon="9.279757">
        <ele>206.837</ele>
        <time>2020-08-21T09:27:34Z</time>
      </trkpt>
      <trkpt lat="46.122198" lon="9.279127">
        <ele>206.817</ele>
        <time>2020-08-21T09:27:44Z</time>
      </trkpt>
      <trkpt lat="46.122143" lon="9.279092">
        <ele>206.826</ele>
        <time>2020-08-21T09:27:45Z</time>
      </trkpt>
      <trkpt lat="46.122077" lon="9.279062">
        <ele>206.876</ele>
        <time>2020-08-21T09:27:46Z</time>
      </trkpt>
      <trkpt lat="46.122027" lon="9.279048">
        <ele>206.863</ele>
        <time>2020-08-21T09:27:47Z</time>
      </trkpt>
      <trkpt lat="46.121967" lon="9.279039">
        <ele>206.825</ele>
        <time>2020-08-21T09:27:48Z</time>
      </trkpt>
      <trkpt lat="46.121847" lon="9.279035">
        <ele>206.813</ele>
        <time>2020-08-21T09:27:50Z</time>
      </trkpt>
      <trkpt lat="46.121785" lon="9.279045">
        <ele>206.860</ele>
        <time>2020-08-21T09:27:51Z</time>
      </trkpt>
      <trkpt lat="46.121728" lon="9.279059">
        <ele>206.846</ele>
        <time>2020-08-21T09:27:52Z</time>
      </trkpt>
      <trkpt lat="46.121675" lon="9.279079">
        <ele>206.888</ele>
        <time>2020-08-21T09:27:53Z</time>
      </trkpt>
      <trkpt lat="46.121620" lon="9.279109">
        <ele>206.816</ele>
        <time>2020-08-21T09:27:54Z</time>
      </trkpt>
      <trkpt lat="46.121572" lon="9.279140">
        <ele>206.808</ele>
        <time>2020-08-21T09:27:55Z</time>
      </trkpt>
      <trkpt lat="46.121527" lon="9.279178">
        <ele>206.819</ele>
        <time>2020-08-21T09:27:56Z</time>
      </trkpt>
      <trkpt lat="46.121484" lon="9.279222">
        <ele>206.829</ele>
        <time>2020-08-21T09:27:57Z</time>
      </trkpt>
      <trkpt lat="46.121439" lon="9.279271">
        <ele>206.888</ele>
        <time>2020-08-21T09:27:58Z</time>
      </trkpt>
      <trkpt lat="46.121407" lon="9.279313">
        <ele>206.898</ele>
        <time>2020-08-21T09:27:59Z</time>
      </trkpt>
      <trkpt lat="46.121231" lon="9.279549">
        <ele>208.215</ele>
        <time>2020-08-21T09:28:04Z</time>
      </trkpt>
      <trkpt lat="46.121188" lon="9.279584">
        <ele>209.277</ele>
        <time>2020-08-21T09:28:05Z</time>
      </trkpt>
      <trkpt lat="46.121102" lon="9.279626">
        <ele>209.245</ele>
        <time>2020-08-21T09:28:07Z</time>
      </trkpt>
      <trkpt lat="46.121061" lon="9.279633">
        <ele>209.212</ele>
        <time>2020-08-21T09:28:08Z</time>
      </trkpt>
      <trkpt lat="46.121019" lon="9.279636">
        <ele>209.786</ele>
        <time>2020-08-21T09:28:09Z</time>
      </trkpt>
      <trkpt lat="46.120938" lon="9.279629">
        <ele>210.660</ele>
        <time>2020-08-21T09:28:11Z</time>
      </trkpt>
      <trkpt lat="46.120516" lon="9.279669">
        <ele>211.626</ele>
        <time>2020-08-21T09:28:24Z</time>
      </trkpt>
      <trkpt lat="46.120524" lon="9.279663">
        <ele>212.508</ele>
        <time>2020-08-21T09:28:37Z</time>
      </trkpt>
      <trkpt lat="46.120519" lon="9.279673">
        <ele>212.123</ele>
        <time>2020-08-21T09:28:57Z</time>
      </trkpt>
      <trkpt lat="46.120517" lon="9.279684">
        <ele>212.133</ele>
        <time>2020-08-21T09:29:14Z</time>
      </trkpt>
      <trkpt lat="46.120530" lon="9.279675">
        <ele>212.162</ele>
        <time>2020-08-21T09:29:33Z</time>
      </trkpt>
      <trkpt lat="46.120523" lon="9.279697">
        <ele>212.132</ele>
        <time>2020-08-21T09:29:36Z</time>
      </trkpt>
      <trkpt lat="46.120524" lon="9.279719">
        <ele>212.119</ele>
        <time>2020-08-21T09:29:37Z</time>
      </trkpt>
      <trkpt lat="46.120539" lon="9.279752">
        <ele>212.521</ele>
        <time>2020-08-21T09:29:38Z</time>
      </trkpt>
      <trkpt lat="46.120562" lon="9.279772">
        <ele>212.539</ele>
        <time>2020-08-21T09:29:39Z</time>
      </trkpt>
      <trkpt lat="46.120581" lon="9.279792">
        <ele>212.586</ele>
        <time>2020-08-21T09:29:40Z</time>
      </trkpt>
      <trkpt lat="46.120590" lon="9.279819">
        <ele>212.555</ele>
        <time>2020-08-21T09:29:41Z</time>
      </trkpt>
      <trkpt lat="46.120576" lon="9.279850">
        <ele>212.507</ele>
        <time>2020-08-21T09:29:42Z</time>
      </trkpt>
      <trkpt lat="46.120553" lon="9.279874">
        <ele>212.517</ele>
        <time>2020-08-21T09:29:43Z</time>
      </trkpt>
      <trkpt lat="46.120524" lon="9.279894">
        <ele>212.508</ele>
        <time>2020-08-21T09:29:44Z</time>
      </trkpt>
      <trkpt lat="46.120490" lon="9.279917">
        <ele>212.530</ele>
        <time>2020-08-21T09:29:45Z</time>
      </trkpt>
      <trkpt lat="46.120324" lon="9.280000">
        <ele>213.030</ele>
        <time>2020-08-21T09:29:50Z</time>
      </trkpt>
      <trkpt lat="46.119950" lon="9.280006">
        <ele>214.959</ele>
        <time>2020-08-21T09:30:03Z</time>
      </trkpt>
      <trkpt lat="46.119805" lon="9.280417">
        <ele>216.479</ele>
        <time>2020-08-21T09:30:14Z</time>
      </trkpt>
      <trkpt lat="46.119465" lon="9.280689">
        <ele>218.386</ele>
        <time>2020-08-21T09:30:28Z</time>
      </trkpt>
      <trkpt lat="46.119123" lon="9.280460">
        <ele>219.818</ele>
        <time>2020-08-21T09:30:42Z</time>
      </trkpt>
      <trkpt lat="46.118728" lon="9.280133">
        <ele>221.246</ele>
        <time>2020-08-21T09:30:57Z</time>
      </trkpt>
      <trkpt lat="46.118227" lon="9.280176">
        <ele>222.263</ele>
        <time>2020-08-21T09:31:12Z</time>
      </trkpt>
      <trkpt lat="46.118165" lon="9.280143">
        <ele>222.211</ele>
        <time>2020-08-21T09:31:14Z</time>
      </trkpt>
      <trkpt lat="46.117864" lon="9.279895">
        <ele>222.221</ele>
        <time>2020-08-21T09:31:23Z</time>
      </trkpt>
      <trkpt lat="46.117482" lon="9.279343">
        <ele>223.603</ele>
        <time>2020-08-21T09:31:38Z</time>
      </trkpt>
      <trkpt lat="46.117043" lon="9.278831">
        <ele>225.008</ele>
        <time>2020-08-21T09:31:54Z</time>
      </trkpt>
      <trkpt lat="46.116874" lon="9.278613">
        <ele>225.526</ele>
        <time>2020-08-21T09:32:00Z</time>
      </trkpt>
      <trkpt lat="46.116701" lon="9.278466">
        <ele>226.066</ele>
        <time>2020-08-21T09:32:05Z</time>
      </trkpt>
      <trkpt lat="46.116656" lon="9.278429">
        <ele>226.025</ele>
        <time>2020-08-21T09:32:06Z</time>
      </trkpt>
      <trkpt lat="46.116611" lon="9.278375">
        <ele>226.025</ele>
        <time>2020-08-21T09:32:07Z</time>
      </trkpt>
      <trkpt lat="46.116572" lon="9.278329">
        <ele>226.052</ele>
        <time>2020-08-21T09:32:08Z</time>
      </trkpt>
      <trkpt lat="46.116533" lon="9.278289">
        <ele>226.064</ele>
        <time>2020-08-21T09:32:09Z</time>
      </trkpt>
      <trkpt lat="46.116487" lon="9.278247">
        <ele>226.082</ele>
        <time>2020-08-21T09:32:10Z</time>
      </trkpt>
      <trkpt lat="46.116340" lon="9.278135">
        <ele>225.049</ele>
        <time>2020-08-21T09:32:13Z</time>
      </trkpt>
      <trkpt lat="46.115876" lon="9.277803">
        <ele>223.662</ele>
        <time>2020-08-21T09:32:22Z</time>
      </trkpt>
      <trkpt lat="46.115816" lon="9.277776">
        <ele>223.183</ele>
        <time>2020-08-21T09:32:23Z</time>
      </trkpt>
      <trkpt lat="46.115750" lon="9.277759">
        <ele>223.111</ele>
        <time>2020-08-21T09:32:24Z</time>
      </trkpt>
      <trkpt lat="46.115672" lon="9.277753">
        <ele>222.608</ele>
        <time>2020-08-21T09:32:25Z</time>
      </trkpt>
      <trkpt lat="46.115606" lon="9.277757">
        <ele>222.611</ele>
        <time>2020-08-21T09:32:26Z</time>
      </trkpt>
      <trkpt lat="46.115374" lon="9.277752">
        <ele>221.281</ele>
        <time>2020-08-21T09:32:29Z</time>
      </trkpt>
      <trkpt lat="46.115296" lon="9.277715">
        <ele>220.730</ele>
        <time>2020-08-21T09:32:30Z</time>
      </trkpt>
      <trkpt lat="46.115223" lon="9.277655">
        <ele>220.730</ele>
        <time>2020-08-21T09:32:31Z</time>
      </trkpt>
      <trkpt lat="46.115006" lon="9.277444">
        <ele>218.887</ele>
        <time>2020-08-21T09:32:34Z</time>
      </trkpt>
      <trkpt lat="46.114947" lon="9.277363">
        <ele>218.879</ele>
        <time>2020-08-21T09:32:35Z</time>
      </trkpt>
      <trkpt lat="46.114897" lon="9.277263">
        <ele>217.857</ele>
        <time>2020-08-21T09:32:36Z</time>
      </trkpt>
      <trkpt lat="46.114752" lon="9.276960">
        <ele>215.484</ele>
        <time>2020-08-21T09:32:39Z</time>
      </trkpt>
      <trkpt lat="46.114690" lon="9.276884">
        <ele>214.916</ele>
        <time>2020-08-21T09:32:40Z</time>
      </trkpt>
      <trkpt lat="46.114615" lon="9.276813">
        <ele>214.576</ele>
        <time>2020-08-21T09:32:41Z</time>
      </trkpt>
      <trkpt lat="46.114476" lon="9.276702">
        <ele>213.513</ele>
        <time>2020-08-21T09:32:43Z</time>
      </trkpt>
      <trkpt lat="46.114400" lon="9.276661">
        <ele>213.508</ele>
        <time>2020-08-21T09:32:44Z</time>
      </trkpt>
      <trkpt lat="46.114324" lon="9.276632">
        <ele>212.526</ele>
        <time>2020-08-21T09:32:45Z</time>
      </trkpt>
      <trkpt lat="46.114180" lon="9.276597">
        <ele>212.586</ele>
        <time>2020-08-21T09:32:47Z</time>
      </trkpt>
      <trkpt lat="46.114039" lon="9.276587">
        <ele>212.515</ele>
        <time>2020-08-21T09:32:49Z</time>
      </trkpt>
      <trkpt lat="46.113242" lon="9.276583">
        <ele>214.575</ele>
        <time>2020-08-21T09:33:03Z</time>
      </trkpt>
      <trkpt lat="46.112464" lon="9.276538">
        <ele>216.942</ele>
        <time>2020-08-21T09:33:20Z</time>
      </trkpt>
      <trkpt lat="46.111745" lon="9.276526">
        <ele>218.824</ele>
        <time>2020-08-21T09:33:36Z</time>
      </trkpt>
      <trkpt lat="46.111020" lon="9.276752">
        <ele>219.862</ele>
        <time>2020-08-21T09:33:51Z</time>
      </trkpt>
      <trkpt lat="46.110341" lon="9.276963">
        <ele>220.739</ele>
        <time>2020-08-21T09:34:07Z</time>
      </trkpt>
      <trkpt lat="46.110137" lon="9.277016">
        <ele>220.726</ele>
        <time>2020-08-21T09:34:17Z</time>
      </trkpt>
      <trkpt lat="46.109862" lon="9.277076">
        <ele>221.247</ele>
        <time>2020-08-21T09:34:24Z</time>
      </trkpt>
      <trkpt lat="46.109507" lon="9.277099">
        <ele>221.711</ele>
        <time>2020-08-21T09:34:31Z</time>
      </trkpt>
      <trkpt lat="46.108613" lon="9.276973">
        <ele>220.208</ele>
        <time>2020-08-21T09:34:48Z</time>
      </trkpt>
      <trkpt lat="46.107949" lon="9.276772">
        <ele>219.377</ele>
        <time>2020-08-21T09:35:02Z</time>
      </trkpt>
      <trkpt lat="46.106780" lon="9.276370">
        <ele>218.887</ele>
        <time>2020-08-21T09:35:22Z</time>
      </trkpt>
      <trkpt lat="46.106464" lon="9.276318">
        <ele>218.856</ele>
        <time>2020-08-21T09:35:28Z</time>
      </trkpt>
      <trkpt lat="46.106364" lon="9.276340">
        <ele>220.216</ele>
        <time>2020-08-21T09:35:30Z</time>
      </trkpt>
      <trkpt lat="46.106306" lon="9.276364">
        <ele>220.223</ele>
        <time>2020-08-21T09:35:31Z</time>
      </trkpt>
      <trkpt lat="46.106250" lon="9.276396">
        <ele>220.295</ele>
        <time>2020-08-21T09:35:32Z</time>
      </trkpt>
      <trkpt lat="46.106188" lon="9.276439">
        <ele>220.283</ele>
        <time>2020-08-21T09:35:33Z</time>
      </trkpt>
      <trkpt lat="46.106138" lon="9.276477">
        <ele>220.220</ele>
        <time>2020-08-21T09:35:34Z</time>
      </trkpt>
      <trkpt lat="46.105255" lon="9.277148">
        <ele>218.825</ele>
        <time>2020-08-21T09:35:51Z</time>
      </trkpt>
      <trkpt lat="46.104278" lon="9.277597">
        <ele>217.826</ele>
        <time>2020-08-21T09:36:08Z</time>
      </trkpt>
      <trkpt lat="46.104166" lon="9.277594">
        <ele>217.808</ele>
        <time>2020-08-21T09:36:10Z</time>
      </trkpt>
      <trkpt lat="46.104109" lon="9.277585">
        <ele>217.808</ele>
        <time>2020-08-21T09:36:11Z</time>
      </trkpt>
      <trkpt lat="46.104050" lon="9.277567">
        <ele>217.877</ele>
        <time>2020-08-21T09:36:12Z</time>
      </trkpt>
      <trkpt lat="46.103995" lon="9.277545">
        <ele>217.857</ele>
        <time>2020-08-21T09:36:13Z</time>
      </trkpt>
      <trkpt lat="46.103943" lon="9.277516">
        <ele>217.876</ele>
        <time>2020-08-21T09:36:14Z</time>
      </trkpt>
      <trkpt lat="46.103883" lon="9.277471">
        <ele>217.896</ele>
        <time>2020-08-21T09:36:15Z</time>
      </trkpt>
      <trkpt lat="46.103845" lon="9.277436">
        <ele>217.863</ele>
        <time>2020-08-21T09:36:16Z</time>
      </trkpt>
      <trkpt lat="46.102989" lon="9.276760">
        <ele>219.835</ele>
        <time>2020-08-21T09:36:33Z</time>
      </trkpt>
      <trkpt lat="46.102132" lon="9.276732">
        <ele>220.243</ele>
        <time>2020-08-21T09:36:48Z</time>
      </trkpt>
      <trkpt lat="46.102023" lon="9.276711">
        <ele>220.240</ele>
        <time>2020-08-21T09:36:50Z</time>
      </trkpt>
      <trkpt lat="46.101969" lon="9.276691">
        <ele>220.234</ele>
        <time>2020-08-21T09:36:51Z</time>
      </trkpt>
      <trkpt lat="46.101805" lon="9.276600">
        <ele>220.255</ele>
        <time>2020-08-21T09:36:54Z</time>
      </trkpt>
      <trkpt lat="46.101009" lon="9.275872">
        <ele>220.210</ele>
        <time>2020-08-21T09:37:10Z</time>
      </trkpt>
      <trkpt lat="46.100946" lon="9.275848">
        <ele>220.208</ele>
        <time>2020-08-21T09:37:11Z</time>
      </trkpt>
      <trkpt lat="46.100851" lon="9.275827">
        <ele>220.298</ele>
        <time>2020-08-21T09:37:13Z</time>
      </trkpt>
      <trkpt lat="46.099902" lon="9.275802">
        <ele>221.768</ele>
        <time>2020-08-21T09:37:30Z</time>
      </trkpt>
      <trkpt lat="46.099847" lon="9.275819">
        <ele>221.797</ele>
        <time>2020-08-21T09:37:31Z</time>
      </trkpt>
      <trkpt lat="46.099107" lon="9.276180">
        <ele>222.267</ele>
        <time>2020-08-21T09:37:45Z</time>
      </trkpt>
      <trkpt lat="46.098853" lon="9.276327">
        <ele>222.244</ele>
        <time>2020-08-21T09:37:50Z</time>
      </trkpt>
      <trkpt lat="46.098801" lon="9.276378">
        <ele>222.216</ele>
        <time>2020-08-21T09:37:51Z</time>
      </trkpt>
      <trkpt lat="46.098763" lon="9.276423">
        <ele>222.634</ele>
        <time>2020-08-21T09:37:52Z</time>
      </trkpt>
      <trkpt lat="46.098724" lon="9.276475">
        <ele>222.681</ele>
        <time>2020-08-21T09:37:53Z</time>
      </trkpt>
      <trkpt lat="46.098684" lon="9.276536">
        <ele>222.627</ele>
        <time>2020-08-21T09:37:54Z</time>
      </trkpt>
      <trkpt lat="46.098230" lon="9.277328">
        <ele>223.668</ele>
        <time>2020-08-21T09:38:08Z</time>
      </trkpt>
      <trkpt lat="46.097895" lon="9.277900">
        <ele>224.614</ele>
        <time>2020-08-21T09:38:18Z</time>
      </trkpt>
      <trkpt lat="46.097860" lon="9.277944">
        <ele>224.608</ele>
        <time>2020-08-21T09:38:19Z</time>
      </trkpt>
      <trkpt lat="46.097736" lon="9.278046">
        <ele>224.697</ele>
        <time>2020-08-21T09:38:22Z</time>
      </trkpt>
      <trkpt lat="46.097687" lon="9.278066">
        <ele>224.637</ele>
        <time>2020-08-21T09:38:23Z</time>
      </trkpt>
      <trkpt lat="46.097643" lon="9.278076">
        <ele>224.676</ele>
        <time>2020-08-21T09:38:24Z</time>
      </trkpt>
      <trkpt lat="46.097397" lon="9.278101">
        <ele>225.566</ele>
        <time>2020-08-21T09:38:29Z</time>
      </trkpt>
      <trkpt lat="46.097350" lon="9.278118">
        <ele>225.593</ele>
        <time>2020-08-21T09:38:30Z</time>
      </trkpt>
      <trkpt lat="46.097305" lon="9.278144">
        <ele>225.575</ele>
        <time>2020-08-21T09:38:31Z</time>
      </trkpt>
      <trkpt lat="46.097265" lon="9.278179">
        <ele>225.533</ele>
        <time>2020-08-21T09:38:32Z</time>
      </trkpt>
      <trkpt lat="46.097217" lon="9.278230">
        <ele>226.030</ele>
        <time>2020-08-21T09:38:33Z</time>
      </trkpt>
      <trkpt lat="46.097110" lon="9.278350">
        <ele>226.093</ele>
        <time>2020-08-21T09:38:36Z</time>
      </trkpt>
      <trkpt lat="46.097073" lon="9.278395">
        <ele>226.065</ele>
        <time>2020-08-21T09:38:37Z</time>
      </trkpt>
      <trkpt lat="46.096806" lon="9.278643">
        <ele>226.521</ele>
        <time>2020-08-21T09:38:43Z</time>
      </trkpt>
      <trkpt lat="46.096755" lon="9.278671">
        <ele>226.508</ele>
        <time>2020-08-21T09:38:44Z</time>
      </trkpt>
      <trkpt lat="46.096699" lon="9.278690">
        <ele>226.554</ele>
        <time>2020-08-21T09:38:45Z</time>
      </trkpt>
      <trkpt lat="46.096640" lon="9.278699">
        <ele>226.544</ele>
        <time>2020-08-21T09:38:46Z</time>
      </trkpt>
      <trkpt lat="46.096585" lon="9.278698">
        <ele>226.523</ele>
        <time>2020-08-21T09:38:47Z</time>
      </trkpt>
      <trkpt lat="46.096528" lon="9.278688">
        <ele>226.533</ele>
        <time>2020-08-21T09:38:48Z</time>
      </trkpt>
      <trkpt lat="46.096471" lon="9.278672">
        <ele>226.580</ele>
        <time>2020-08-21T09:38:49Z</time>
      </trkpt>
      <trkpt lat="46.096417" lon="9.278646">
        <ele>226.512</ele>
        <time>2020-08-21T09:38:50Z</time>
      </trkpt>
      <trkpt lat="46.096364" lon="9.278612">
        <ele>226.560</ele>
        <time>2020-08-21T09:38:51Z</time>
      </trkpt>
      <trkpt lat="46.096308" lon="9.278570">
        <ele>226.597</ele>
        <time>2020-08-21T09:38:52Z</time>
      </trkpt>
      <trkpt lat="46.095915" lon="9.278198">
        <ele>226.517</ele>
        <time>2020-08-21T09:39:00Z</time>
      </trkpt>
      <trkpt lat="46.095865" lon="9.278161">
        <ele>225.087</ele>
        <time>2020-08-21T09:39:01Z</time>
      </trkpt>
      <trkpt lat="46.095814" lon="9.278132">
        <ele>225.015</ele>
        <time>2020-08-21T09:39:02Z</time>
      </trkpt>
      <trkpt lat="46.095763" lon="9.278116">
        <ele>225.008</ele>
        <time>2020-08-21T09:39:03Z</time>
      </trkpt>
      <trkpt lat="46.095710" lon="9.278111">
        <ele>225.066</ele>
        <time>2020-08-21T09:39:04Z</time>
      </trkpt>
      <trkpt lat="46.095659" lon="9.278121">
        <ele>225.016</ele>
        <time>2020-08-21T09:39:05Z</time>
      </trkpt>
      <trkpt lat="46.095609" lon="9.278146">
        <ele>225.075</ele>
        <time>2020-08-21T09:39:06Z</time>
      </trkpt>
      <trkpt lat="46.095565" lon="9.278188">
        <ele>226.575</ele>
        <time>2020-08-21T09:39:07Z</time>
      </trkpt>
      <trkpt lat="46.095526" lon="9.278238">
        <ele>226.552</ele>
        <time>2020-08-21T09:39:08Z</time>
      </trkpt>
      <trkpt lat="46.095489" lon="9.278300">
        <ele>226.534</ele>
        <time>2020-08-21T09:39:09Z</time>
      </trkpt>
      <trkpt lat="46.095462" lon="9.278354">
        <ele>226.552</ele>
        <time>2020-08-21T09:39:10Z</time>
      </trkpt>
      <trkpt lat="46.095429" lon="9.278420">
        <ele>226.519</ele>
        <time>2020-08-21T09:39:11Z</time>
      </trkpt>
      <trkpt lat="46.095401" lon="9.278467">
        <ele>227.041</ele>
        <time>2020-08-21T09:39:12Z</time>
      </trkpt>
      <trkpt lat="46.095339" lon="9.278577">
        <ele>227.981</ele>
        <time>2020-08-21T09:39:14Z</time>
      </trkpt>
      <trkpt lat="46.095319" lon="9.278637">
        <ele>227.909</ele>
        <time>2020-08-21T09:39:15Z</time>
      </trkpt>
      <trkpt lat="46.095304" lon="9.278701">
        <ele>227.908</ele>
        <time>2020-08-21T09:39:16Z</time>
      </trkpt>
      <trkpt lat="46.095294" lon="9.278767">
        <ele>227.959</ele>
        <time>2020-08-21T09:39:17Z</time>
      </trkpt>
      <trkpt lat="46.095290" lon="9.278835">
        <ele>227.969</ele>
        <time>2020-08-21T09:39:18Z</time>
      </trkpt>
      <trkpt lat="46.095267" lon="9.279038">
        <ele>228.428</ele>
        <time>2020-08-21T09:39:21Z</time>
      </trkpt>
      <trkpt lat="46.095251" lon="9.279099">
        <ele>228.488</ele>
        <time>2020-08-21T09:39:22Z</time>
      </trkpt>
      <trkpt lat="46.095233" lon="9.279158">
        <ele>228.455</ele>
        <time>2020-08-21T09:39:23Z</time>
      </trkpt>
      <trkpt lat="46.095211" lon="9.279216">
        <ele>228.467</ele>
        <time>2020-08-21T09:39:24Z</time>
      </trkpt>
      <trkpt lat="46.095183" lon="9.279267">
        <ele>228.995</ele>
        <time>2020-08-21T09:39:25Z</time>
      </trkpt>
      <trkpt lat="46.095144" lon="9.279316">
        <ele>228.912</ele>
        <time>2020-08-21T09:39:26Z</time>
      </trkpt>
      <trkpt lat="46.095111" lon="9.279352">
        <ele>228.925</ele>
        <time>2020-08-21T09:39:27Z</time>
      </trkpt>
      <trkpt lat="46.094882" lon="9.279564">
        <ele>230.326</ele>
        <time>2020-08-21T09:39:33Z</time>
      </trkpt>
      <trkpt lat="46.094631" lon="9.279675">
        <ele>228.908</ele>
        <time>2020-08-21T09:39:38Z</time>
      </trkpt>
      <trkpt lat="46.094577" lon="9.279682">
        <ele>228.908</ele>
        <time>2020-08-21T09:39:39Z</time>
      </trkpt>
      <trkpt lat="46.094522" lon="9.279677">
        <ele>228.917</ele>
        <time>2020-08-21T09:39:40Z</time>
      </trkpt>
      <trkpt lat="46.094462" lon="9.279659">
        <ele>228.437</ele>
        <time>2020-08-21T09:39:41Z</time>
      </trkpt>
      <trkpt lat="46.094399" lon="9.279628">
        <ele>228.436</ele>
        <time>2020-08-21T09:39:42Z</time>
      </trkpt>
      <trkpt lat="46.094350" lon="9.279594">
        <ele>228.416</ele>
        <time>2020-08-21T09:39:43Z</time>
      </trkpt>
      <trkpt lat="46.094297" lon="9.279549">
        <ele>228.413</ele>
        <time>2020-08-21T09:39:44Z</time>
      </trkpt>
      <trkpt lat="46.094246" lon="9.279501">
        <ele>227.975</ele>
        <time>2020-08-21T09:39:45Z</time>
      </trkpt>
      <trkpt lat="46.094187" lon="9.279462">
        <ele>227.063</ele>
        <time>2020-08-21T09:39:46Z</time>
      </trkpt>
      <trkpt lat="46.094119" lon="9.279443">
        <ele>227.020</ele>
        <time>2020-08-21T09:39:47Z</time>
      </trkpt>
      <trkpt lat="46.094054" lon="9.279447">
        <ele>227.026</ele>
        <time>2020-08-21T09:39:48Z</time>
      </trkpt>
      <trkpt lat="46.093989" lon="9.279466">
        <ele>226.547</ele>
        <time>2020-08-21T09:39:49Z</time>
      </trkpt>
      <trkpt lat="46.093926" lon="9.279493">
        <ele>226.511</ele>
        <time>2020-08-21T09:39:50Z</time>
      </trkpt>
      <trkpt lat="46.093864" lon="9.279526">
        <ele>226.008</ele>
        <time>2020-08-21T09:39:51Z</time>
      </trkpt>
      <trkpt lat="46.093665" lon="9.279623">
        <ele>225.587</ele>
        <time>2020-08-21T09:39:54Z</time>
      </trkpt>
      <trkpt lat="46.093594" lon="9.279636">
        <ele>225.517</ele>
        <time>2020-08-21T09:39:55Z</time>
      </trkpt>
      <trkpt lat="46.093514" lon="9.279628">
        <ele>225.566</ele>
        <time>2020-08-21T09:39:56Z</time>
      </trkpt>
      <trkpt lat="46.093455" lon="9.279609">
        <ele>225.086</ele>
        <time>2020-08-21T09:39:57Z</time>
      </trkpt>
      <trkpt lat="46.093386" lon="9.279575">
        <ele>225.043</ele>
        <time>2020-08-21T09:39:58Z</time>
      </trkpt>
      <trkpt lat="46.093333" lon="9.279542">
        <ele>224.665</ele>
        <time>2020-08-21T09:39:59Z</time>
      </trkpt>
      <trkpt lat="46.093092" lon="9.279398">
        <ele>224.143</ele>
        <time>2020-08-21T09:40:03Z</time>
      </trkpt>
      <trkpt lat="46.092827" lon="9.279167">
        <ele>223.690</ele>
        <time>2020-08-21T09:40:08Z</time>
      </trkpt>
      <trkpt lat="46.092768" lon="9.279126">
        <ele>223.616</ele>
        <time>2020-08-21T09:40:09Z</time>
      </trkpt>
      <trkpt lat="46.092417" lon="9.278952">
        <ele>224.676</ele>
        <time>2020-08-21T09:40:17Z</time>
      </trkpt>
      <trkpt lat="46.092103" lon="9.279007">
        <ele>227.413</ele>
        <time>2020-08-21T09:40:29Z</time>
      </trkpt>
      <trkpt lat="46.092102" lon="9.279017">
        <ele>227.408</ele>
        <time>2020-08-21T09:40:44Z</time>
      </trkpt>
      <trkpt lat="46.092088" lon="9.278998">
        <ele>227.466</ele>
        <time>2020-08-21T09:40:52Z</time>
      </trkpt>
      <trkpt lat="46.092074" lon="9.278988">
        <ele>227.446</ele>
        <time>2020-08-21T09:40:53Z</time>
      </trkpt>
      <trkpt lat="46.092059" lon="9.278977">
        <ele>227.435</ele>
        <time>2020-08-21T09:40:54Z</time>
      </trkpt>
      <trkpt lat="46.091781" lon="9.278800">
        <ele>227.965</ele>
        <time>2020-08-21T09:41:03Z</time>
      </trkpt>
      <trkpt lat="46.091688" lon="9.278778">
        <ele>227.922</ele>
        <time>2020-08-21T09:41:05Z</time>
      </trkpt>
      <trkpt lat="46.091636" lon="9.278778">
        <ele>227.914</ele>
        <time>2020-08-21T09:41:06Z</time>
      </trkpt>
      <trkpt lat="46.091578" lon="9.278784">
        <ele>227.992</ele>
        <time>2020-08-21T09:41:07Z</time>
      </trkpt>
      <trkpt lat="46.091524" lon="9.278799">
        <ele>227.999</ele>
        <time>2020-08-21T09:41:08Z</time>
      </trkpt>
      <trkpt lat="46.091464" lon="9.278819">
        <ele>227.922</ele>
        <time>2020-08-21T09:41:09Z</time>
      </trkpt>
      <trkpt lat="46.091318" lon="9.278861">
        <ele>226.562</ele>
        <time>2020-08-21T09:41:11Z</time>
      </trkpt>
      <trkpt lat="46.090981" lon="9.278946">
        <ele>224.108</ele>
        <time>2020-08-21T09:41:15Z</time>
      </trkpt>
      <trkpt lat="46.090614" lon="9.279056">
        <ele>222.208</ele>
        <time>2020-08-21T09:41:20Z</time>
      </trkpt>
      <trkpt lat="46.090537" lon="9.279057">
        <ele>222.257</ele>
        <time>2020-08-21T09:41:21Z</time>
      </trkpt>
      <trkpt lat="46.090474" lon="9.279050">
        <ele>222.217</ele>
        <time>2020-08-21T09:41:22Z</time>
      </trkpt>
      <trkpt lat="46.090352" lon="9.279019">
        <ele>222.276</ele>
        <time>2020-08-21T09:41:24Z</time>
      </trkpt>
      <trkpt lat="46.089547" lon="9.278536">
        <ele>221.236</ele>
        <time>2020-08-21T09:41:38Z</time>
      </trkpt>
      <trkpt lat="46.089180" lon="9.278352">
        <ele>221.223</ele>
        <time>2020-08-21T09:41:44Z</time>
      </trkpt>
      <trkpt lat="46.088632" lon="9.277703">
        <ele>222.245</ele>
        <time>2020-08-21T09:41:57Z</time>
      </trkpt>
      <trkpt lat="46.088354" lon="9.277368">
        <ele>222.623</ele>
        <time>2020-08-21T09:42:04Z</time>
      </trkpt>
      <trkpt lat="46.088309" lon="9.277337">
        <ele>222.680</ele>
        <time>2020-08-21T09:42:05Z</time>
      </trkpt>
      <trkpt lat="46.088261" lon="9.277314">
        <ele>222.625</ele>
        <time>2020-08-21T09:42:06Z</time>
      </trkpt>
      <trkpt lat="46.088205" lon="9.277295">
        <ele>223.126</ele>
        <time>2020-08-21T09:42:07Z</time>
      </trkpt>
      <trkpt lat="46.088160" lon="9.277285">
        <ele>223.108</ele>
        <time>2020-08-21T09:42:08Z</time>
      </trkpt>
      <trkpt lat="46.087386" lon="9.277101">
        <ele>224.108</ele>
        <time>2020-08-21T09:42:23Z</time>
      </trkpt>
      <trkpt lat="46.086730" lon="9.276986">
        <ele>224.167</ele>
        <time>2020-08-21T09:42:35Z</time>
      </trkpt>
      <trkpt lat="46.086672" lon="9.276995">
        <ele>224.167</ele>
        <time>2020-08-21T09:42:36Z</time>
      </trkpt>
      <trkpt lat="46.086615" lon="9.277007">
        <ele>224.116</ele>
        <time>2020-08-21T09:42:37Z</time>
      </trkpt>
      <trkpt lat="46.085927" lon="9.277400">
        <ele>224.186</ele>
        <time>2020-08-21T09:42:50Z</time>
      </trkpt>
      <trkpt lat="46.085095" lon="9.277747">
        <ele>224.133</ele>
        <time>2020-08-21T09:43:05Z</time>
      </trkpt>
      <trkpt lat="46.084322" lon="9.277788">
        <ele>223.115</ele>
        <time>2020-08-21T09:43:18Z</time>
      </trkpt>
      <trkpt lat="46.084262" lon="9.277758">
        <ele>222.623</ele>
        <time>2020-08-21T09:43:19Z</time>
      </trkpt>
      <trkpt lat="46.083481" lon="9.277025">
        <ele>220.780</ele>
        <time>2020-08-21T09:43:33Z</time>
      </trkpt>
      <trkpt lat="46.083270" lon="9.276857">
        <ele>221.218</ele>
        <time>2020-08-21T09:43:37Z</time>
      </trkpt>
      <trkpt lat="46.082232" lon="9.276512">
        <ele>220.298</ele>
        <time>2020-08-21T09:43:53Z</time>
      </trkpt>
      <trkpt lat="46.081913" lon="9.276391">
        <ele>220.217</ele>
        <time>2020-08-21T09:43:59Z</time>
      </trkpt>
      <trkpt lat="46.081393" lon="9.276333">
        <ele>221.208</ele>
        <time>2020-08-21T09:44:09Z</time>
      </trkpt>
      <trkpt lat="46.081353" lon="9.276345">
        <ele>221.276</ele>
        <time>2020-08-21T09:44:10Z</time>
      </trkpt>
      <trkpt lat="46.080960" lon="9.276638">
        <ele>221.766</ele>
        <time>2020-08-21T09:44:22Z</time>
      </trkpt>
      <trkpt lat="46.080805" lon="9.276835">
        <ele>221.735</ele>
        <time>2020-08-21T09:44:27Z</time>
      </trkpt>
      <trkpt lat="46.080613" lon="9.276984">
        <ele>222.245</ele>
        <time>2020-08-21T09:44:32Z</time>
      </trkpt>
      <trkpt lat="46.080565" lon="9.277010">
        <ele>222.222</ele>
        <time>2020-08-21T09:44:33Z</time>
      </trkpt>
      <trkpt lat="46.080255" lon="9.277099">
        <ele>223.184</ele>
        <time>2020-08-21T09:44:40Z</time>
      </trkpt>
      <trkpt lat="46.080168" lon="9.277093">
        <ele>223.122</ele>
        <time>2020-08-21T09:44:42Z</time>
      </trkpt>
      <trkpt lat="46.079957" lon="9.276991">
        <ele>223.669</ele>
        <time>2020-08-21T09:44:47Z</time>
      </trkpt>
      <trkpt lat="46.079919" lon="9.276958">
        <ele>223.641</ele>
        <time>2020-08-21T09:44:48Z</time>
      </trkpt>
      <trkpt lat="46.079702" lon="9.276731">
        <ele>224.181</ele>
        <time>2020-08-21T09:44:54Z</time>
      </trkpt>
      <trkpt lat="46.079666" lon="9.276689">
        <ele>224.109</ele>
        <time>2020-08-21T09:44:55Z</time>
      </trkpt>
      <trkpt lat="46.079472" lon="9.276515">
        <ele>224.108</ele>
        <time>2020-08-21T09:45:00Z</time>
      </trkpt>
      <trkpt lat="46.079421" lon="9.276494">
        <ele>224.119</ele>
        <time>2020-08-21T09:45:01Z</time>
      </trkpt>
      <trkpt lat="46.079374" lon="9.276489">
        <ele>224.129</ele>
        <time>2020-08-21T09:45:02Z</time>
      </trkpt>
      <trkpt lat="46.079323" lon="9.276499">
        <ele>224.178</ele>
        <time>2020-08-21T09:45:03Z</time>
      </trkpt>
      <trkpt lat="46.079274" lon="9.276521">
        <ele>224.128</ele>
        <time>2020-08-21T09:45:04Z</time>
      </trkpt>
      <trkpt lat="46.079228" lon="9.276554">
        <ele>224.185</ele>
        <time>2020-08-21T09:45:05Z</time>
      </trkpt>
      <trkpt lat="46.079187" lon="9.276592">
        <ele>224.157</ele>
        <time>2020-08-21T09:45:06Z</time>
      </trkpt>
      <trkpt lat="46.079149" lon="9.276635">
        <ele>224.155</ele>
        <time>2020-08-21T09:45:07Z</time>
      </trkpt>
      <trkpt lat="46.078821" lon="9.276991">
        <ele>224.172</ele>
        <time>2020-08-21T09:45:15Z</time>
      </trkpt>
      <trkpt lat="46.078768" lon="9.277017">
        <ele>224.182</ele>
        <time>2020-08-21T09:45:16Z</time>
      </trkpt>
      <trkpt lat="46.078664" lon="9.277049">
        <ele>224.143</ele>
        <time>2020-08-21T09:45:18Z</time>
      </trkpt>
      <trkpt lat="46.078464" lon="9.277083">
        <ele>224.117</ele>
        <time>2020-08-21T09:45:22Z</time>
      </trkpt>
      <trkpt lat="46.077776" lon="9.277413">
        <ele>224.108</ele>
        <time>2020-08-21T09:45:35Z</time>
      </trkpt>
      <trkpt lat="46.077627" lon="9.277516">
        <ele>224.133</ele>
        <time>2020-08-21T09:45:38Z</time>
      </trkpt>
      <trkpt lat="46.077529" lon="9.277549">
        <ele>224.183</ele>
        <time>2020-08-21T09:45:40Z</time>
      </trkpt>
      <trkpt lat="46.077479" lon="9.277556">
        <ele>224.142</ele>
        <time>2020-08-21T09:45:41Z</time>
      </trkpt>
      <trkpt lat="46.077425" lon="9.277553">
        <ele>224.132</ele>
        <time>2020-08-21T09:45:42Z</time>
      </trkpt>
      <trkpt lat="46.077379" lon="9.277547">
        <ele>224.189</ele>
        <time>2020-08-21T09:45:43Z</time>
      </trkpt>
      <trkpt lat="46.077330" lon="9.277536">
        <ele>224.131</ele>
        <time>2020-08-21T09:45:44Z</time>
      </trkpt>
      <trkpt lat="46.077022" lon="9.277477">
        <ele>224.189</ele>
        <time>2020-08-21T09:45:50Z</time>
      </trkpt>
      <trkpt lat="46.076966" lon="9.277494">
        <ele>224.186</ele>
        <time>2020-08-21T09:45:51Z</time>
      </trkpt>
      <trkpt lat="46.076916" lon="9.277528">
        <ele>224.195</ele>
        <time>2020-08-21T09:45:52Z</time>
      </trkpt>
      <trkpt lat="46.076693" lon="9.277751">
        <ele>224.149</ele>
        <time>2020-08-21T09:45:57Z</time>
      </trkpt>
      <trkpt lat="46.076645" lon="9.277776">
        <ele>224.123</ele>
        <time>2020-08-21T09:45:58Z</time>
      </trkpt>
      <trkpt lat="46.076597" lon="9.277790">
        <ele>224.108</ele>
        <time>2020-08-21T09:45:59Z</time>
      </trkpt>
      <trkpt lat="46.076543" lon="9.277804">
        <ele>224.184</ele>
        <time>2020-08-21T09:46:00Z</time>
      </trkpt>
      <trkpt lat="46.076497" lon="9.277825">
        <ele>224.174</ele>
        <time>2020-08-21T09:46:01Z</time>
      </trkpt>
      <trkpt lat="46.076446" lon="9.277857">
        <ele>224.113</ele>
        <time>2020-08-21T09:46:02Z</time>
      </trkpt>
      <trkpt lat="46.076395" lon="9.277892">
        <ele>224.193</ele>
        <time>2020-08-21T09:46:03Z</time>
      </trkpt>
      <trkpt lat="46.076200" lon="9.278020">
        <ele>224.130</ele>
        <time>2020-08-21T09:46:07Z</time>
      </trkpt>
      <trkpt lat="46.076155" lon="9.278035">
        <ele>224.132</ele>
        <time>2020-08-21T09:46:08Z</time>
      </trkpt>
      <trkpt lat="46.076108" lon="9.278040">
        <ele>224.140</ele>
        <time>2020-08-21T09:46:09Z</time>
      </trkpt>
      <trkpt lat="46.075305" lon="9.277971">
        <ele>224.127</ele>
        <time>2020-08-21T09:46:24Z</time>
      </trkpt>
      <trkpt lat="46.075140" lon="9.277983">
        <ele>223.195</ele>
        <time>2020-08-21T09:46:27Z</time>
      </trkpt>
      <trkpt lat="46.075085" lon="9.278008">
        <ele>223.149</ele>
        <time>2020-08-21T09:46:28Z</time>
      </trkpt>
      <trkpt lat="46.075033" lon="9.278041">
        <ele>222.623</ele>
        <time>2020-08-21T09:46:29Z</time>
      </trkpt>
      <trkpt lat="46.074985" lon="9.278082">
        <ele>222.608</ele>
        <time>2020-08-21T09:46:30Z</time>
      </trkpt>
      <trkpt lat="46.074937" lon="9.278133">
        <ele>222.624</ele>
        <time>2020-08-21T09:46:31Z</time>
      </trkpt>
      <trkpt lat="46.074888" lon="9.278189">
        <ele>222.654</ele>
        <time>2020-08-21T09:46:32Z</time>
      </trkpt>
      <trkpt lat="46.074850" lon="9.278236">
        <ele>222.683</ele>
        <time>2020-08-21T09:46:33Z</time>
      </trkpt>
      <trkpt lat="46.074810" lon="9.278299">
        <ele>222.683</ele>
        <time>2020-08-21T09:46:34Z</time>
      </trkpt>
      <trkpt lat="46.074774" lon="9.278359">
        <ele>222.630</ele>
        <time>2020-08-21T09:46:35Z</time>
      </trkpt>
      <trkpt lat="46.074735" lon="9.278415">
        <ele>222.642</ele>
        <time>2020-08-21T09:46:36Z</time>
      </trkpt>
      <trkpt lat="46.074687" lon="9.278473">
        <ele>222.650</ele>
        <time>2020-08-21T09:46:37Z</time>
      </trkpt>
      <trkpt lat="46.074654" lon="9.278511">
        <ele>222.657</ele>
        <time>2020-08-21T09:46:38Z</time>
      </trkpt>
      <trkpt lat="46.074610" lon="9.278554">
        <ele>222.656</ele>
        <time>2020-08-21T09:46:39Z</time>
      </trkpt>
      <trkpt lat="46.074571" lon="9.278585">
        <ele>222.659</ele>
        <time>2020-08-21T09:46:40Z</time>
      </trkpt>
      <trkpt lat="46.074527" lon="9.278613">
        <ele>223.614</ele>
        <time>2020-08-21T09:46:41Z</time>
      </trkpt>
      <trkpt lat="46.074485" lon="9.278639">
        <ele>223.608</ele>
        <time>2020-08-21T09:46:42Z</time>
      </trkpt>
      <trkpt lat="46.074210" lon="9.278835">
        <ele>225.020</ele>
        <time>2020-08-21T09:46:49Z</time>
      </trkpt>
      <trkpt lat="46.074177" lon="9.278876">
        <ele>225.050</ele>
        <time>2020-08-21T09:46:50Z</time>
      </trkpt>
      <trkpt lat="46.074145" lon="9.278921">
        <ele>225.089</ele>
        <time>2020-08-21T09:46:51Z</time>
      </trkpt>
      <trkpt lat="46.073905" lon="9.279224">
        <ele>226.579</ele>
        <time>2020-08-21T09:46:58Z</time>
      </trkpt>
      <trkpt lat="46.073868" lon="9.279263">
        <ele>226.546</ele>
        <time>2020-08-21T09:46:59Z</time>
      </trkpt>
      <trkpt lat="46.073831" lon="9.279304">
        <ele>226.528</ele>
        <time>2020-08-21T09:47:00Z</time>
      </trkpt>
      <trkpt lat="46.073791" lon="9.279339">
        <ele>226.516</ele>
        <time>2020-08-21T09:47:01Z</time>
      </trkpt>
      <trkpt lat="46.073755" lon="9.279359">
        <ele>226.593</ele>
        <time>2020-08-21T09:47:02Z</time>
      </trkpt>
      <trkpt lat="46.073704" lon="9.279378">
        <ele>227.059</ele>
        <time>2020-08-21T09:47:03Z</time>
      </trkpt>
      <trkpt lat="46.073670" lon="9.279385">
        <ele>227.003</ele>
        <time>2020-08-21T09:47:04Z</time>
      </trkpt>
      <trkpt lat="46.073624" lon="9.279388">
        <ele>227.023</ele>
        <time>2020-08-21T09:47:05Z</time>
      </trkpt>
      <trkpt lat="46.073581" lon="9.279382">
        <ele>227.008</ele>
        <time>2020-08-21T09:47:06Z</time>
      </trkpt>
      <trkpt lat="46.073533" lon="9.279370">
        <ele>227.040</ele>
        <time>2020-08-21T09:47:07Z</time>
      </trkpt>
      <trkpt lat="46.073483" lon="9.279361">
        <ele>227.010</ele>
        <time>2020-08-21T09:47:08Z</time>
      </trkpt>
      <trkpt lat="46.073437" lon="9.279347">
        <ele>227.019</ele>
        <time>2020-08-21T09:47:09Z</time>
      </trkpt>
      <trkpt lat="46.073396" lon="9.279328">
        <ele>227.019</ele>
        <time>2020-08-21T09:47:10Z</time>
      </trkpt>
      <trkpt lat="46.073353" lon="9.279304">
        <ele>227.076</ele>
        <time>2020-08-21T09:47:11Z</time>
      </trkpt>
      <trkpt lat="46.073315" lon="9.279275">
        <ele>227.038</ele>
        <time>2020-08-21T09:47:12Z</time>
      </trkpt>
      <trkpt lat="46.073277" lon="9.279244">
        <ele>227.036</ele>
        <time>2020-08-21T09:47:13Z</time>
      </trkpt>
      <trkpt lat="46.073240" lon="9.279218">
        <ele>227.023</ele>
        <time>2020-08-21T09:47:14Z</time>
      </trkpt>
      <trkpt lat="46.072719" lon="9.278805">
        <ele>227.019</ele>
        <time>2020-08-21T09:47:29Z</time>
      </trkpt>
      <trkpt lat="46.072417" lon="9.278350">
        <ele>227.009</ele>
        <time>2020-08-21T09:47:43Z</time>
      </trkpt>
      <trkpt lat="46.072405" lon="9.278340">
        <ele>225.519</ele>
        <time>2020-08-21T09:47:45Z</time>
      </trkpt>
      <trkpt lat="46.072395" lon="9.278368">
        <ele>225.008</ele>
        <time>2020-08-21T09:47:59Z</time>
      </trkpt>
      <trkpt lat="46.072383" lon="9.278315">
        <ele>225.046</ele>
        <time>2020-08-21T09:48:26Z</time>
      </trkpt>
      <trkpt lat="46.072350" lon="9.278081">
        <ele>224.696</ele>
        <time>2020-08-21T09:48:40Z</time>
      </trkpt>
      <trkpt lat="46.072334" lon="9.278081">
        <ele>224.145</ele>
        <time>2020-08-21T09:48:58Z</time>
      </trkpt>
      <trkpt lat="46.072338" lon="9.278061">
        <ele>224.115</ele>
        <time>2020-08-21T09:49:17Z</time>
      </trkpt>
      <trkpt lat="46.072345" lon="9.277839">
        <ele>224.682</ele>
        <time>2020-08-21T09:49:29Z</time>
      </trkpt>
      <trkpt lat="46.072274" lon="9.277248">
        <ele>224.154</ele>
        <time>2020-08-21T09:49:43Z</time>
      </trkpt>
      <trkpt lat="46.072239" lon="9.277116">
        <ele>223.192</ele>
        <time>2020-08-21T09:49:46Z</time>
      </trkpt>
      <trkpt lat="46.071948" lon="9.276692">
        <ele>224.189</ele>
        <time>2020-08-21T09:49:59Z</time>
      </trkpt>
      <trkpt lat="46.071560" lon="9.276466">
        <ele>224.615</ele>
        <time>2020-08-21T09:50:12Z</time>
      </trkpt>
      <trkpt lat="46.071113" lon="9.276562">
        <ele>227.065</ele>
        <time>2020-08-21T09:50:27Z</time>
      </trkpt>
      <trkpt lat="46.070915" lon="9.276611">
        <ele>227.011</ele>
        <time>2020-08-21T09:50:36Z</time>
      </trkpt>
      <trkpt lat="46.070899" lon="9.276636">
        <ele>227.008</ele>
        <time>2020-08-21T09:50:37Z</time>
      </trkpt>
      <trkpt lat="46.070890" lon="9.276662">
        <ele>227.056</ele>
        <time>2020-08-21T09:50:38Z</time>
      </trkpt>
      <trkpt lat="46.070886" lon="9.276696">
        <ele>227.096</ele>
        <time>2020-08-21T09:50:39Z</time>
      </trkpt>
      <trkpt lat="46.070875" lon="9.276730">
        <ele>227.075</ele>
        <time>2020-08-21T09:50:40Z</time>
      </trkpt>
      <trkpt lat="46.070844" lon="9.276839">
        <ele>227.085</ele>
        <time>2020-08-21T09:50:44Z</time>
      </trkpt>
      <trkpt lat="46.070828" lon="9.276849">
        <ele>227.082</ele>
        <time>2020-08-21T09:50:45Z</time>
      </trkpt>
      <trkpt lat="46.070817" lon="9.276849">
        <ele>227.044</ele>
        <time>2020-08-21T09:50:46Z</time>
      </trkpt>
      <trkpt lat="46.070802" lon="9.276845">
        <ele>227.482</ele>
        <time>2020-08-21T09:50:47Z</time>
      </trkpt>
      <trkpt lat="46.070756" lon="9.276830">
        <ele>227.499</ele>
        <time>2020-08-21T09:50:51Z</time>
      </trkpt>
      <trkpt lat="46.070748" lon="9.276846">
        <ele>227.999</ele>
        <time>2020-08-21T09:50:52Z</time>
      </trkpt>
      <trkpt lat="46.070746" lon="9.276877">
        <ele>227.907</ele>
        <time>2020-08-21T09:50:53Z</time>
      </trkpt>
      <trkpt lat="46.070749" lon="9.276911">
        <ele>227.927</ele>
        <time>2020-08-21T09:50:54Z</time>
      </trkpt>
      <trkpt lat="46.070761" lon="9.276955">
        <ele>227.908</ele>
        <time>2020-08-21T09:50:55Z</time>
      </trkpt>
      <trkpt lat="46.070774" lon="9.277009">
        <ele>227.934</ele>
        <time>2020-08-21T09:50:56Z</time>
      </trkpt>
      <trkpt lat="46.070770" lon="9.277062">
        <ele>227.994</ele>
        <time>2020-08-21T09:50:57Z</time>
      </trkpt>
      <trkpt lat="46.070752" lon="9.277101">
        <ele>227.983</ele>
        <time>2020-08-21T09:50:58Z</time>
      </trkpt>
      <trkpt lat="46.070722" lon="9.277138">
        <ele>227.933</ele>
        <time>2020-08-21T09:50:59Z</time>
      </trkpt>
      <trkpt lat="46.070695" lon="9.277161">
        <ele>227.980</ele>
        <time>2020-08-21T09:51:00Z</time>
      </trkpt>
      <trkpt lat="46.070650" lon="9.277186">
        <ele>227.922</ele>
        <time>2020-08-21T09:51:01Z</time>
      </trkpt>
      <trkpt lat="46.070620" lon="9.277195">
        <ele>227.980</ele>
        <time>2020-08-21T09:51:02Z</time>
      </trkpt>
      <trkpt lat="46.070585" lon="9.277201">
        <ele>227.987</ele>
        <time>2020-08-21T09:51:03Z</time>
      </trkpt>
      <trkpt lat="46.070551" lon="9.277204">
        <ele>227.968</ele>
        <time>2020-08-21T09:51:04Z</time>
      </trkpt>
      <trkpt lat="46.070375" lon="9.277077">
        <ele>226.542</ele>
        <time>2020-08-21T09:51:10Z</time>
      </trkpt>
      <trkpt lat="46.070324" lon="9.276996">
        <ele>226.526</ele>
        <time>2020-08-21T09:51:12Z</time>
      </trkpt>
      <trkpt lat="46.070299" lon="9.276937">
        <ele>226.508</ele>
        <time>2020-08-21T09:51:13Z</time>
      </trkpt>
      <trkpt lat="46.070286" lon="9.276886">
        <ele>226.531</ele>
        <time>2020-08-21T09:51:14Z</time>
      </trkpt>
      <trkpt lat="46.070269" lon="9.276824">
        <ele>226.071</ele>
        <time>2020-08-21T09:51:15Z</time>
      </trkpt>
      <trkpt lat="46.070248" lon="9.276761">
        <ele>226.010</ele>
        <time>2020-08-21T09:51:16Z</time>
      </trkpt>
      <trkpt lat="46.069835" lon="9.275835">
        <ele>223.140</ele>
        <time>2020-08-21T09:51:29Z</time>
      </trkpt>
      <trkpt lat="46.069705" lon="9.275580">
        <ele>221.797</ele>
        <time>2020-08-21T09:51:33Z</time>
      </trkpt>
      <trkpt lat="46.069659" lon="9.275531">
        <ele>221.759</ele>
        <time>2020-08-21T09:51:34Z</time>
      </trkpt>
      <trkpt lat="46.069624" lon="9.275502">
        <ele>221.737</ele>
        <time>2020-08-21T09:51:35Z</time>
      </trkpt>
      <trkpt lat="46.069453" lon="9.275377">
        <ele>220.754</ele>
        <time>2020-08-21T09:51:39Z</time>
      </trkpt>
      <trkpt lat="46.069417" lon="9.275331">
        <ele>220.772</ele>
        <time>2020-08-21T09:51:40Z</time>
      </trkpt>
      <trkpt lat="46.069386" lon="9.275282">
        <ele>220.713</ele>
        <time>2020-08-21T09:51:41Z</time>
      </trkpt>
      <trkpt lat="46.069352" lon="9.275221">
        <ele>219.814</ele>
        <time>2020-08-21T09:51:42Z</time>
      </trkpt>
      <trkpt lat="46.069327" lon="9.275171">
        <ele>219.808</ele>
        <time>2020-08-21T09:51:43Z</time>
      </trkpt>
      <trkpt lat="46.069239" lon="9.274998">
        <ele>218.812</ele>
        <time>2020-08-21T09:51:46Z</time>
      </trkpt>
      <trkpt lat="46.069201" lon="9.274944">
        <ele>218.842</ele>
        <time>2020-08-21T09:51:47Z</time>
      </trkpt>
      <trkpt lat="46.069157" lon="9.274896">
        <ele>218.861</ele>
        <time>2020-08-21T09:51:48Z</time>
      </trkpt>
      <trkpt lat="46.069023" lon="9.274774">
        <ele>217.411</ele>
        <time>2020-08-21T09:51:51Z</time>
      </trkpt>
      <trkpt lat="46.068897" lon="9.274662">
        <ele>216.928</ele>
        <time>2020-08-21T09:51:54Z</time>
      </trkpt>
      <trkpt lat="46.068826" lon="9.274560">
        <ele>216.460</ele>
        <time>2020-08-21T09:51:56Z</time>
      </trkpt>
      <trkpt lat="46.068791" lon="9.274495">
        <ele>215.958</ele>
        <time>2020-08-21T09:51:57Z</time>
      </trkpt>
      <trkpt lat="46.068764" lon="9.274437">
        <ele>215.975</ele>
        <time>2020-08-21T09:51:58Z</time>
      </trkpt>
      <trkpt lat="46.068434" lon="9.273607">
        <ele>212.194</ele>
        <time>2020-08-21T09:52:09Z</time>
      </trkpt>
      <trkpt lat="46.068303" lon="9.273279">
        <ele>211.157</ele>
        <time>2020-08-21T09:52:13Z</time>
      </trkpt>
      <trkpt lat="46.068261" lon="9.273163">
        <ele>210.122</ele>
        <time>2020-08-21T09:52:15Z</time>
      </trkpt>
      <trkpt lat="46.068236" lon="9.273113">
        <ele>210.108</ele>
        <time>2020-08-21T09:52:16Z</time>
      </trkpt>
      <trkpt lat="46.068210" lon="9.273061">
        <ele>209.784</ele>
        <time>2020-08-21T09:52:17Z</time>
      </trkpt>
      <trkpt lat="46.068050" lon="9.272689">
        <ele>209.254</ele>
        <time>2020-08-21T09:52:27Z</time>
      </trkpt>
      <trkpt lat="46.068042" lon="9.272683">
        <ele>208.743</ele>
        <time>2020-08-21T09:52:38Z</time>
      </trkpt>
      <trkpt lat="46.068021" lon="9.272676">
        <ele>208.783</ele>
        <time>2020-08-21T09:52:39Z</time>
      </trkpt>
      <trkpt lat="46.068005" lon="9.272669">
        <ele>208.740</ele>
        <time>2020-08-21T09:52:40Z</time>
      </trkpt>
      <trkpt lat="46.067581" lon="9.272504">
        <ele>208.222</ele>
        <time>2020-08-21T09:52:53Z</time>
      </trkpt>
      <trkpt lat="46.067510" lon="9.272476">
        <ele>208.280</ele>
        <time>2020-08-21T09:52:59Z</time>
      </trkpt>
      <trkpt lat="46.067490" lon="9.272410">
        <ele>208.287</ele>
        <time>2020-08-21T09:53:02Z</time>
      </trkpt>
      <trkpt lat="46.067462" lon="9.272376">
        <ele>208.218</ele>
        <time>2020-08-21T09:53:03Z</time>
      </trkpt>
      <trkpt lat="46.067434" lon="9.272358">
        <ele>208.298</ele>
        <time>2020-08-21T09:53:04Z</time>
      </trkpt>
      <trkpt lat="46.067394" lon="9.272339">
        <ele>208.217</ele>
        <time>2020-08-21T09:53:05Z</time>
      </trkpt>
      <trkpt lat="46.067355" lon="9.272325">
        <ele>208.208</ele>
        <time>2020-08-21T09:53:06Z</time>
      </trkpt>
      <trkpt lat="46.067301" lon="9.272306">
        <ele>208.236</ele>
        <time>2020-08-21T09:53:07Z</time>
      </trkpt>
      <trkpt lat="46.066618" lon="9.271790">
        <ele>207.736</ele>
        <time>2020-08-21T09:53:23Z</time>
      </trkpt>
      <trkpt lat="46.066146" lon="9.270851">
        <ele>207.755</ele>
        <time>2020-08-21T09:53:38Z</time>
      </trkpt>
      <trkpt lat="46.065539" lon="9.269625">
        <ele>207.765</ele>
        <time>2020-08-21T09:53:57Z</time>
      </trkpt>
      <trkpt lat="46.064794" lon="9.269257">
        <ele>207.732</ele>
        <time>2020-08-21T09:54:11Z</time>
      </trkpt>
      <trkpt lat="46.064432" lon="9.269194">
        <ele>208.724</ele>
        <time>2020-08-21T09:54:17Z</time>
      </trkpt>
      <trkpt lat="46.063575" lon="9.269045">
        <ele>207.792</ele>
        <time>2020-08-21T09:54:33Z</time>
      </trkpt>
      <trkpt lat="46.063068" lon="9.268942">
        <ele>207.369</ele>
        <time>2020-08-21T09:54:48Z</time>
      </trkpt>
      <trkpt lat="46.062936" lon="9.268891">
        <ele>208.255</ele>
        <time>2020-08-21T09:54:51Z</time>
      </trkpt>
      <trkpt lat="46.062890" lon="9.268871">
        <ele>207.307</ele>
        <time>2020-08-21T09:54:52Z</time>
      </trkpt>
      <trkpt lat="46.062845" lon="9.268844">
        <ele>207.317</ele>
        <time>2020-08-21T09:54:53Z</time>
      </trkpt>
      <trkpt lat="46.062412" lon="9.268329">
        <ele>207.308</ele>
        <time>2020-08-21T09:55:04Z</time>
      </trkpt>
      <trkpt lat="46.062033" lon="9.267232">
        <ele>207.360</ele>
        <time>2020-08-21T09:55:20Z</time>
      </trkpt>
      <trkpt lat="46.061901" lon="9.266980">
        <ele>207.340</ele>
        <time>2020-08-21T09:55:24Z</time>
      </trkpt>
      <trkpt lat="46.061602" lon="9.266609">
        <ele>207.339</ele>
        <time>2020-08-21T09:55:31Z</time>
      </trkpt>
      <trkpt lat="46.061563" lon="9.266533">
        <ele>207.369</ele>
        <time>2020-08-21T09:55:32Z</time>
      </trkpt>
      <trkpt lat="46.061542" lon="9.266479">
        <ele>207.336</ele>
        <time>2020-08-21T09:55:33Z</time>
      </trkpt>
      <trkpt lat="46.061493" lon="9.266318">
        <ele>207.318</ele>
        <time>2020-08-21T09:55:35Z</time>
      </trkpt>
      <trkpt lat="46.061475" lon="9.266226">
        <ele>207.326</ele>
        <time>2020-08-21T09:55:36Z</time>
      </trkpt>
      <trkpt lat="46.061158" lon="9.265318">
        <ele>207.363</ele>
        <time>2020-08-21T09:55:49Z</time>
      </trkpt>
      <trkpt lat="46.060520" lon="9.264426">
        <ele>207.387</ele>
        <time>2020-08-21T09:56:05Z</time>
      </trkpt>
      <trkpt lat="46.060414" lon="9.264253">
        <ele>207.342</ele>
        <time>2020-08-21T09:56:08Z</time>
      </trkpt>
      <trkpt lat="46.060383" lon="9.264184">
        <ele>207.326</ele>
        <time>2020-08-21T09:56:09Z</time>
      </trkpt>
      <trkpt lat="46.060305" lon="9.263976">
        <ele>207.308</ele>
        <time>2020-08-21T09:56:12Z</time>
      </trkpt>
      <trkpt lat="46.060284" lon="9.263911">
        <ele>208.253</ele>
        <time>2020-08-21T09:56:13Z</time>
      </trkpt>
      <trkpt lat="46.060245" lon="9.263781">
        <ele>208.263</ele>
        <time>2020-08-21T09:56:15Z</time>
      </trkpt>
      <trkpt lat="46.059754" lon="9.262946">
        <ele>209.792</ele>
        <time>2020-08-21T09:56:31Z</time>
      </trkpt>
      <trkpt lat="46.059196" lon="9.262079">
        <ele>211.142</ele>
        <time>2020-08-21T09:56:48Z</time>
      </trkpt>
      <trkpt lat="46.058703" lon="9.261290">
        <ele>212.529</ele>
        <time>2020-08-21T09:57:04Z</time>
      </trkpt>
      <trkpt lat="46.058108" lon="9.260873">
        <ele>213.581</ele>
        <time>2020-08-21T09:57:18Z</time>
      </trkpt>
      <trkpt lat="46.057943" lon="9.260728">
        <ele>214.539</ele>
        <time>2020-08-21T09:57:22Z</time>
      </trkpt>
      <trkpt lat="46.057654" lon="9.260317">
        <ele>214.946</ele>
        <time>2020-08-21T09:57:31Z</time>
      </trkpt>
      <trkpt lat="46.057616" lon="9.260276">
        <ele>214.912</ele>
        <time>2020-08-21T09:57:32Z</time>
      </trkpt>
      <trkpt lat="46.057144" lon="9.259941">
        <ele>215.432</ele>
        <time>2020-08-21T09:57:43Z</time>
      </trkpt>
      <trkpt lat="46.057098" lon="9.259902">
        <ele>215.905</ele>
        <time>2020-08-21T09:57:44Z</time>
      </trkpt>
      <trkpt lat="46.056469" lon="9.259183">
        <ele>216.908</ele>
        <time>2020-08-21T09:58:00Z</time>
      </trkpt>
      <trkpt lat="46.056437" lon="9.259155">
        <ele>216.966</ele>
        <time>2020-08-21T09:58:01Z</time>
      </trkpt>
      <trkpt lat="46.055889" lon="9.258691">
        <ele>218.396</ele>
        <time>2020-08-21T09:58:14Z</time>
      </trkpt>
      <trkpt lat="46.055753" lon="9.258664">
        <ele>218.815</ele>
        <time>2020-08-21T09:58:17Z</time>
      </trkpt>
      <trkpt lat="46.055708" lon="9.258665">
        <ele>218.875</ele>
        <time>2020-08-21T09:58:18Z</time>
      </trkpt>
      <trkpt lat="46.054987" lon="9.258848">
        <ele>221.292</ele>
        <time>2020-08-21T09:58:35Z</time>
      </trkpt>
      <trkpt lat="46.054363" lon="9.258966">
        <ele>223.694</ele>
        <time>2020-08-21T09:58:50Z</time>
      </trkpt>
      <trkpt lat="46.053727" lon="9.258915">
        <ele>225.082</ele>
        <time>2020-08-21T09:59:07Z</time>
      </trkpt>
      <trkpt lat="46.053748" lon="9.258873">
        <ele>225.059</ele>
        <time>2020-08-21T09:59:13Z</time>
      </trkpt>
      <trkpt lat="46.053759" lon="9.258862">
        <ele>225.042</ele>
        <time>2020-08-21T09:59:14Z</time>
      </trkpt>
      <trkpt lat="46.053768" lon="9.258849">
        <ele>225.022</ele>
        <time>2020-08-21T09:59:15Z</time>
      </trkpt>
      <trkpt lat="46.053754" lon="9.258804">
        <ele>225.014</ele>
        <time>2020-08-21T09:59:29Z</time>
      </trkpt>
      <trkpt lat="46.053728" lon="9.258897">
        <ele>225.008</ele>
        <time>2020-08-21T09:59:49Z</time>
      </trkpt>
      <trkpt lat="46.053715" lon="9.258903">
        <ele>225.029</ele>
        <time>2020-08-21T09:59:50Z</time>
      </trkpt>
      <trkpt lat="46.053704" lon="9.258905">
        <ele>225.079</ele>
        <time>2020-08-21T09:59:51Z</time>
      </trkpt>
      <trkpt lat="46.053687" lon="9.258901">
        <ele>225.038</ele>
        <time>2020-08-21T09:59:52Z</time>
      </trkpt>
      <trkpt lat="46.053261" lon="9.258922">
        <ele>226.028</ele>
        <time>2020-08-21T10:00:05Z</time>
      </trkpt>
      <trkpt lat="46.052858" lon="9.258930">
        <ele>226.525</ele>
        <time>2020-08-21T10:00:14Z</time>
      </trkpt>
      <trkpt lat="46.052583" lon="9.258863">
        <ele>226.027</ele>
        <time>2020-08-21T10:00:20Z</time>
      </trkpt>
      <trkpt lat="46.052541" lon="9.258844">
        <ele>226.055</ele>
        <time>2020-08-21T10:00:21Z</time>
      </trkpt>
      <trkpt lat="46.052496" lon="9.258823">
        <ele>226.032</ele>
        <time>2020-08-21T10:00:22Z</time>
      </trkpt>
      <trkpt lat="46.052210" lon="9.258640">
        <ele>226.041</ele>
        <time>2020-08-21T10:00:29Z</time>
      </trkpt>
      <trkpt lat="46.051664" lon="9.257946">
        <ele>222.681</ele>
        <time>2020-08-21T10:00:41Z</time>
      </trkpt>
      <trkpt lat="46.050917" lon="9.257425">
        <ele>219.809</ele>
        <time>2020-08-21T10:00:52Z</time>
      </trkpt>
      <trkpt lat="46.050069" lon="9.256817">
        <ele>216.908</ele>
        <time>2020-08-21T10:01:04Z</time>
      </trkpt>
      <trkpt lat="46.049849" lon="9.256454">
        <ele>215.499</ele>
        <time>2020-08-21T10:01:12Z</time>
      </trkpt>
      <trkpt lat="46.049849" lon="9.256458">
        <ele>215.429</ele>
        <time>2020-08-21T10:01:33Z</time>
      </trkpt>
      <trkpt lat="46.049833" lon="9.256456">
        <ele>215.468</ele>
        <time>2020-08-21T10:01:34Z</time>
      </trkpt>
      <trkpt lat="46.049650" lon="9.256284">
        <ele>216.498</ele>
        <time>2020-08-21T10:01:43Z</time>
      </trkpt>
      <trkpt lat="46.049244" lon="9.255823">
        <ele>218.345</ele>
        <time>2020-08-21T10:01:57Z</time>
      </trkpt>
      <trkpt lat="46.048756" lon="9.255701">
        <ele>219.367</ele>
        <time>2020-08-21T10:02:08Z</time>
      </trkpt>
      <trkpt lat="46.047978" lon="9.255345">
        <ele>218.385</ele>
        <time>2020-08-21T10:02:22Z</time>
      </trkpt>
      <trkpt lat="46.047306" lon="9.254777">
        <ele>216.992</ele>
        <time>2020-08-21T10:02:34Z</time>
      </trkpt>
      <trkpt lat="46.046794" lon="9.254175">
        <ele>214.976</ele>
        <time>2020-08-21T10:02:47Z</time>
      </trkpt>
      <trkpt lat="46.046768" lon="9.254165">
        <ele>214.090</ele>
        <time>2020-08-21T10:02:58Z</time>
      </trkpt>
      <trkpt lat="46.046609" lon="9.254110">
        <ele>214.019</ele>
        <time>2020-08-21T10:03:12Z</time>
      </trkpt>
      <trkpt lat="46.046080" lon="9.253875">
        <ele>214.008</ele>
        <time>2020-08-21T10:03:24Z</time>
      </trkpt>
      <trkpt lat="46.045952" lon="9.253798">
        <ele>214.032</ele>
        <time>2020-08-21T10:03:27Z</time>
      </trkpt>
      <trkpt lat="46.045821" lon="9.253706">
        <ele>214.062</ele>
        <time>2020-08-21T10:03:30Z</time>
      </trkpt>
      <trkpt lat="46.045768" lon="9.253701">
        <ele>214.071</ele>
        <time>2020-08-21T10:03:31Z</time>
      </trkpt>
      <trkpt lat="46.045716" lon="9.253716">
        <ele>214.021</ele>
        <time>2020-08-21T10:03:32Z</time>
      </trkpt>
      <trkpt lat="46.045671" lon="9.253737">
        <ele>214.018</ele>
        <time>2020-08-21T10:03:33Z</time>
      </trkpt>
      <trkpt lat="46.045622" lon="9.253756">
        <ele>214.090</ele>
        <time>2020-08-21T10:03:34Z</time>
      </trkpt>
      <trkpt lat="46.045564" lon="9.253769">
        <ele>214.028</ele>
        <time>2020-08-21T10:03:35Z</time>
      </trkpt>
      <trkpt lat="46.045515" lon="9.253774">
        <ele>214.055</ele>
        <time>2020-08-21T10:03:36Z</time>
      </trkpt>
      <trkpt lat="46.045412" lon="9.253777">
        <ele>214.079</ele>
        <time>2020-08-21T10:03:38Z</time>
      </trkpt>
      <trkpt lat="46.045361" lon="9.253764">
        <ele>214.005</ele>
        <time>2020-08-21T10:03:39Z</time>
      </trkpt>
      <trkpt lat="46.044810" lon="9.253432">
        <ele>216.925</ele>
        <time>2020-08-21T10:03:53Z</time>
      </trkpt>
      <trkpt lat="46.044744" lon="9.253372">
        <ele>217.408</ele>
        <time>2020-08-21T10:03:55Z</time>
      </trkpt>
      <trkpt lat="46.044549" lon="9.253158">
        <ele>218.322</ele>
        <time>2020-08-21T10:04:01Z</time>
      </trkpt>
      <trkpt lat="46.044475" lon="9.253104">
        <ele>218.832</ele>
        <time>2020-08-21T10:04:03Z</time>
      </trkpt>
      <trkpt lat="46.044436" lon="9.253087">
        <ele>218.841</ele>
        <time>2020-08-21T10:04:04Z</time>
      </trkpt>
      <trkpt lat="46.043800" lon="9.252900">
        <ele>218.811</ele>
        <time>2020-08-21T10:04:18Z</time>
      </trkpt>
      <trkpt lat="46.043351" lon="9.252876">
        <ele>218.898</ele>
        <time>2020-08-21T10:04:26Z</time>
      </trkpt>
      <trkpt lat="46.043072" lon="9.252813">
        <ele>218.820</ele>
        <time>2020-08-21T10:04:31Z</time>
      </trkpt>
      <trkpt lat="46.042709" lon="9.252612">
        <ele>218.898</ele>
        <time>2020-08-21T10:04:38Z</time>
      </trkpt>
      <trkpt lat="46.042385" lon="9.252278">
        <ele>218.825</ele>
        <time>2020-08-21T10:04:45Z</time>
      </trkpt>
      <trkpt lat="46.042336" lon="9.252215">
        <ele>218.844</ele>
        <time>2020-08-21T10:04:46Z</time>
      </trkpt>
      <trkpt lat="46.042302" lon="9.252150">
        <ele>217.805</ele>
        <time>2020-08-21T10:04:47Z</time>
      </trkpt>
      <trkpt lat="46.042272" lon="9.252069">
        <ele>217.815</ele>
        <time>2020-08-21T10:04:48Z</time>
      </trkpt>
      <trkpt lat="46.042252" lon="9.252005">
        <ele>217.808</ele>
        <time>2020-08-21T10:04:49Z</time>
      </trkpt>
      <trkpt lat="46.042203" lon="9.251859">
        <ele>217.449</ele>
        <time>2020-08-21T10:04:51Z</time>
      </trkpt>
      <trkpt lat="46.042169" lon="9.251798">
        <ele>217.469</ele>
        <time>2020-08-21T10:04:52Z</time>
      </trkpt>
      <trkpt lat="46.042127" lon="9.251748">
        <ele>217.428</ele>
        <time>2020-08-21T10:04:53Z</time>
      </trkpt>
      <trkpt lat="46.042071" lon="9.251703">
        <ele>217.468</ele>
        <time>2020-08-21T10:04:54Z</time>
      </trkpt>
      <trkpt lat="46.042025" lon="9.251677">
        <ele>217.445</ele>
        <time>2020-08-21T10:04:55Z</time>
      </trkpt>
      <trkpt lat="46.041960" lon="9.251645">
        <ele>217.447</ele>
        <time>2020-08-21T10:04:56Z</time>
      </trkpt>
      <trkpt lat="46.041868" lon="9.251587">
        <ele>217.495</ele>
        <time>2020-08-21T10:04:58Z</time>
      </trkpt>
      <trkpt lat="46.041786" lon="9.251508">
        <ele>217.422</ele>
        <time>2020-08-21T10:05:00Z</time>
      </trkpt>
      <trkpt lat="46.041755" lon="9.251466">
        <ele>217.499</ele>
        <time>2020-08-21T10:05:01Z</time>
      </trkpt>
      <trkpt lat="46.041737" lon="9.251440">
        <ele>217.407</ele>
        <time>2020-08-21T10:05:02Z</time>
      </trkpt>
      <trkpt lat="46.041726" lon="9.251440">
        <ele>217.427</ele>
        <time>2020-08-21T10:05:03Z</time>
      </trkpt>
      <trkpt lat="46.041723" lon="9.251538">
        <ele>217.408</ele>
        <time>2020-08-21T10:05:13Z</time>
      </trkpt>
      <trkpt lat="46.041720" lon="9.251577">
        <ele>217.474</ele>
        <time>2020-08-21T10:05:23Z</time>
      </trkpt>
      <trkpt lat="46.041732" lon="9.251545">
        <ele>217.494</ele>
        <time>2020-08-21T10:05:57Z</time>
      </trkpt>
      <trkpt lat="46.041730" lon="9.251542">
        <ele>217.433</ele>
        <time>2020-08-21T10:06:29Z</time>
      </trkpt>
      <trkpt lat="46.041738" lon="9.251501">
        <ele>217.433</ele>
        <time>2020-08-21T10:06:51Z</time>
      </trkpt>
      <trkpt lat="46.041742" lon="9.251494">
        <ele>217.430</ele>
        <time>2020-08-21T10:06:52Z</time>
      </trkpt>
      <trkpt lat="46.041709" lon="9.251406">
        <ele>217.462</ele>
        <time>2020-08-21T10:06:57Z</time>
      </trkpt>
      <trkpt lat="46.041691" lon="9.251384">
        <ele>217.490</ele>
        <time>2020-08-21T10:06:58Z</time>
      </trkpt>
      <trkpt lat="46.041444" lon="9.251228">
        <ele>218.327</ele>
        <time>2020-08-21T10:07:06Z</time>
      </trkpt>
      <trkpt lat="46.041405" lon="9.251225">
        <ele>218.362</ele>
        <time>2020-08-21T10:07:07Z</time>
      </trkpt>
      <trkpt lat="46.041018" lon="9.251207">
        <ele>218.383</ele>
        <time>2020-08-21T10:07:15Z</time>
      </trkpt>
      <trkpt lat="46.040911" lon="9.251187">
        <ele>218.311</ele>
        <time>2020-08-21T10:07:17Z</time>
      </trkpt>
      <trkpt lat="46.040858" lon="9.251164">
        <ele>218.308</ele>
        <time>2020-08-21T10:07:18Z</time>
      </trkpt>
      <trkpt lat="46.040804" lon="9.251129">
        <ele>218.381</ele>
        <time>2020-08-21T10:07:19Z</time>
      </trkpt>
      <trkpt lat="46.040759" lon="9.251093">
        <ele>218.321</ele>
        <time>2020-08-21T10:07:20Z</time>
      </trkpt>
      <trkpt lat="46.040713" lon="9.251044">
        <ele>218.380</ele>
        <time>2020-08-21T10:07:21Z</time>
      </trkpt>
      <trkpt lat="46.040673" lon="9.250991">
        <ele>218.350</ele>
        <time>2020-08-21T10:07:22Z</time>
      </trkpt>
      <trkpt lat="46.040637" lon="9.250937">
        <ele>218.327</ele>
        <time>2020-08-21T10:07:23Z</time>
      </trkpt>
      <trkpt lat="46.040603" lon="9.250878">
        <ele>218.379</ele>
        <time>2020-08-21T10:07:24Z</time>
      </trkpt>
      <trkpt lat="46.040454" lon="9.250533">
        <ele>216.427</ele>
        <time>2020-08-21T10:07:29Z</time>
      </trkpt>
      <trkpt lat="46.040347" lon="9.250075">
        <ele>214.984</ele>
        <time>2020-08-21T10:07:37Z</time>
      </trkpt>
      <trkpt lat="46.040338" lon="9.250050">
        <ele>214.917</ele>
        <time>2020-08-21T10:07:38Z</time>
      </trkpt>
      <trkpt lat="46.040329" lon="9.250028">
        <ele>215.487</ele>
        <time>2020-08-21T10:07:39Z</time>
      </trkpt>
      <trkpt lat="46.040322" lon="9.250003">
        <ele>214.915</ele>
        <time>2020-08-21T10:07:40Z</time>
      </trkpt>
      <trkpt lat="46.040316" lon="9.249974">
        <ele>214.908</ele>
        <time>2020-08-21T10:07:41Z</time>
      </trkpt>
      <trkpt lat="46.040315" lon="9.249909">
        <ele>214.946</ele>
        <time>2020-08-21T10:07:50Z</time>
      </trkpt>
      <trkpt lat="46.040315" lon="9.249878">
        <ele>214.926</ele>
        <time>2020-08-21T10:07:51Z</time>
      </trkpt>
      <trkpt lat="46.040310" lon="9.249850">
        <ele>214.925</ele>
        <time>2020-08-21T10:07:52Z</time>
      </trkpt>
      <trkpt lat="46.040311" lon="9.249820">
        <ele>214.945</ele>
        <time>2020-08-21T10:07:53Z</time>
      </trkpt>
      <trkpt lat="46.040300" lon="9.249793">
        <ele>214.952</ele>
        <time>2020-08-21T10:07:54Z</time>
      </trkpt>
      <trkpt lat="46.040281" lon="9.249771">
        <ele>214.924</ele>
        <time>2020-08-21T10:07:55Z</time>
      </trkpt>
      <trkpt lat="46.040264" lon="9.249740">
        <ele>214.912</ele>
        <time>2020-08-21T10:07:56Z</time>
      </trkpt>
      <trkpt lat="46.040246" lon="9.249693">
        <ele>214.979</ele>
        <time>2020-08-21T10:07:57Z</time>
      </trkpt>
      <trkpt lat="46.040228" lon="9.249590">
        <ele>214.572</ele>
        <time>2020-08-21T10:07:58Z</time>
      </trkpt>
      <trkpt lat="46.040204" lon="9.249465">
        <ele>214.513</ele>
        <time>2020-08-21T10:07:59Z</time>
      </trkpt>
      <trkpt lat="46.040041" lon="9.248349">
        <ele>213.014</ele>
        <time>2020-08-21T10:08:10Z</time>
      </trkpt>
      <trkpt lat="46.039814" lon="9.247667">
        <ele>213.008</ele>
        <time>2020-08-21T10:08:20Z</time>
      </trkpt>
      <trkpt lat="46.039803" lon="9.247614">
        <ele>214.512</ele>
        <time>2020-08-21T10:08:21Z</time>
      </trkpt>
      <trkpt lat="46.039749" lon="9.247255">
        <ele>214.992</ele>
        <time>2020-08-21T10:08:27Z</time>
      </trkpt>
      <trkpt lat="46.039794" lon="9.245466">
        <ele>216.411</ele>
        <time>2020-08-21T10:08:51Z</time>
      </trkpt>
      <trkpt lat="46.039724" lon="9.244981">
        <ele>216.441</ele>
        <time>2020-08-21T10:08:58Z</time>
      </trkpt>
      <trkpt lat="46.039714" lon="9.244910">
        <ele>216.488</ele>
        <time>2020-08-21T10:08:59Z</time>
      </trkpt>
      <trkpt lat="46.039680" lon="9.244513">
        <ele>216.960</ele>
        <time>2020-08-21T10:09:05Z</time>
      </trkpt>
      <trkpt lat="46.039663" lon="9.244448">
        <ele>216.988</ele>
        <time>2020-08-21T10:09:06Z</time>
      </trkpt>
      <trkpt lat="46.039643" lon="9.244393">
        <ele>216.915</ele>
        <time>2020-08-21T10:09:07Z</time>
      </trkpt>
      <trkpt lat="46.039615" lon="9.244334">
        <ele>216.948</ele>
        <time>2020-08-21T10:09:08Z</time>
      </trkpt>
      <trkpt lat="46.039585" lon="9.244279">
        <ele>216.961</ele>
        <time>2020-08-21T10:09:09Z</time>
      </trkpt>
      <trkpt lat="46.039553" lon="9.244215">
        <ele>216.917</ele>
        <time>2020-08-21T10:09:10Z</time>
      </trkpt>
      <trkpt lat="46.038290" lon="9.242476">
        <ele>217.408</ele>
        <time>2020-08-21T10:09:44Z</time>
      </trkpt>
      <trkpt lat="46.038272" lon="9.242354">
        <ele>217.419</ele>
        <time>2020-08-21T10:09:45Z</time>
      </trkpt>
      <trkpt lat="46.038281" lon="9.242253">
        <ele>216.499</ele>
        <time>2020-08-21T10:09:46Z</time>
      </trkpt>
      <trkpt lat="46.038289" lon="9.242161">
        <ele>215.988</ele>
        <time>2020-08-21T10:09:47Z</time>
      </trkpt>
      <trkpt lat="46.038295" lon="9.242054">
        <ele>215.968</ele>
        <time>2020-08-21T10:09:48Z</time>
      </trkpt>
      <trkpt lat="46.038357" lon="9.241413">
        <ele>214.045</ele>
        <time>2020-08-21T10:09:54Z</time>
      </trkpt>
      <trkpt lat="46.038391" lon="9.241314">
        <ele>213.087</ele>
        <time>2020-08-21T10:09:55Z</time>
      </trkpt>
      <trkpt lat="46.038415" lon="9.241231">
        <ele>213.075</ele>
        <time>2020-08-21T10:09:56Z</time>
      </trkpt>
      <trkpt lat="46.038436" lon="9.241061">
        <ele>211.632</ele>
        <time>2020-08-21T10:09:59Z</time>
      </trkpt>
      <trkpt lat="46.038423" lon="9.240863">
        <ele>211.611</ele>
        <time>2020-08-21T10:10:05Z</time>
      </trkpt>
      <trkpt lat="46.038406" lon="9.240812">
        <ele>211.621</ele>
        <time>2020-08-21T10:10:06Z</time>
      </trkpt>
      <trkpt lat="46.038383" lon="9.240765">
        <ele>211.603</ele>
        <time>2020-08-21T10:10:07Z</time>
      </trkpt>
      <trkpt lat="46.038355" lon="9.240715">
        <ele>211.608</ele>
        <time>2020-08-21T10:10:08Z</time>
      </trkpt>
      <trkpt lat="46.038332" lon="9.240676">
        <ele>211.686</ele>
        <time>2020-08-21T10:10:09Z</time>
      </trkpt>
      <trkpt lat="46.038251" lon="9.240403">
        <ele>211.146</ele>
        <time>2020-08-21T10:10:15Z</time>
      </trkpt>
      <trkpt lat="46.038210" lon="9.240051">
        <ele>210.125</ele>
        <time>2020-08-21T10:10:20Z</time>
      </trkpt>
      <trkpt lat="46.038190" lon="9.239990">
        <ele>210.165</ele>
        <time>2020-08-21T10:10:21Z</time>
      </trkpt>
      <trkpt lat="46.038153" lon="9.239922">
        <ele>210.152</ele>
        <time>2020-08-21T10:10:22Z</time>
      </trkpt>
      <trkpt lat="46.038109" lon="9.239871">
        <ele>209.744</ele>
        <time>2020-08-21T10:10:23Z</time>
      </trkpt>
      <trkpt lat="46.038056" lon="9.239835">
        <ele>209.792</ele>
        <time>2020-08-21T10:10:24Z</time>
      </trkpt>
      <trkpt lat="46.038000" lon="9.239815">
        <ele>209.789</ele>
        <time>2020-08-21T10:10:25Z</time>
      </trkpt>
      <trkpt lat="46.037947" lon="9.239811">
        <ele>209.761</ele>
        <time>2020-08-21T10:10:26Z</time>
      </trkpt>
      <trkpt lat="46.037901" lon="9.239824">
        <ele>209.721</ele>
        <time>2020-08-21T10:10:27Z</time>
      </trkpt>
      <trkpt lat="46.037852" lon="9.239842">
        <ele>209.713</ele>
        <time>2020-08-21T10:10:28Z</time>
      </trkpt>
      <trkpt lat="46.037803" lon="9.239856">
        <ele>209.708</ele>
        <time>2020-08-21T10:10:29Z</time>
      </trkpt>
      <trkpt lat="46.037749" lon="9.239862">
        <ele>209.761</ele>
        <time>2020-08-21T10:10:30Z</time>
      </trkpt>
      <trkpt lat="46.037702" lon="9.239864">
        <ele>209.741</ele>
        <time>2020-08-21T10:10:31Z</time>
      </trkpt>
      <trkpt lat="46.037647" lon="9.239856">
        <ele>209.770</ele>
        <time>2020-08-21T10:10:32Z</time>
      </trkpt>
      <trkpt lat="46.037603" lon="9.239838">
        <ele>209.710</ele>
        <time>2020-08-21T10:10:33Z</time>
      </trkpt>
      <trkpt lat="46.037555" lon="9.239805">
        <ele>209.797</ele>
        <time>2020-08-21T10:10:34Z</time>
      </trkpt>
      <trkpt lat="46.037505" lon="9.239758">
        <ele>209.729</ele>
        <time>2020-08-21T10:10:35Z</time>
      </trkpt>
      <trkpt lat="46.037466" lon="9.239714">
        <ele>209.757</ele>
        <time>2020-08-21T10:10:36Z</time>
      </trkpt>
      <trkpt lat="46.037413" lon="9.239650">
        <ele>209.244</ele>
        <time>2020-08-21T10:10:37Z</time>
      </trkpt>
      <trkpt lat="46.036696" lon="9.238725">
        <ele>208.256</ele>
        <time>2020-08-21T10:10:53Z</time>
      </trkpt>
      <trkpt lat="46.036148" lon="9.238077">
        <ele>207.759</ele>
        <time>2020-08-21T10:11:05Z</time>
      </trkpt>
      <trkpt lat="46.035369" lon="9.237680">
        <ele>207.714</ele>
        <time>2020-08-21T10:11:17Z</time>
      </trkpt>
      <trkpt lat="46.034623" lon="9.237360">
        <ele>207.708</ele>
        <time>2020-08-21T10:11:27Z</time>
      </trkpt>
      <trkpt lat="46.033606" lon="9.237283">
        <ele>207.320</ele>
        <time>2020-08-21T10:11:42Z</time>
      </trkpt>
      <trkpt lat="46.033554" lon="9.237263">
        <ele>207.360</ele>
        <time>2020-08-21T10:11:43Z</time>
      </trkpt>
      <trkpt lat="46.033019" lon="9.236965">
        <ele>207.389</ele>
        <time>2020-08-21T10:11:57Z</time>
      </trkpt>
      <trkpt lat="46.032996" lon="9.236953">
        <ele>209.289</ele>
        <time>2020-08-21T10:54:13Z</time>
      </trkpt>
      <trkpt lat="46.032657" lon="9.236785">
        <ele>210.676</ele>
        <time>2020-08-21T10:54:30Z</time>
      </trkpt>
      <trkpt lat="46.032301" lon="9.236631">
        <ele>213.548</ele>
        <time>2020-08-21T10:54:46Z</time>
      </trkpt>
      <trkpt lat="46.031810" lon="9.236627">
        <ele>215.466</ele>
        <time>2020-08-21T10:55:06Z</time>
      </trkpt>
      <trkpt lat="46.031273" lon="9.236699">
        <ele>217.423</ele>
        <time>2020-08-21T10:55:27Z</time>
      </trkpt>
      <trkpt lat="46.030795" lon="9.236852">
        <ele>217.822</ele>
        <time>2020-08-21T10:55:41Z</time>
      </trkpt>
      <trkpt lat="46.030092" lon="9.237001">
        <ele>217.862</ele>
        <time>2020-08-21T10:55:58Z</time>
      </trkpt>
      <trkpt lat="46.029018" lon="9.236984">
        <ele>217.808</ele>
        <time>2020-08-21T10:56:22Z</time>
      </trkpt>
      <trkpt lat="46.028932" lon="9.236984">
        <ele>217.408</ele>
        <time>2020-08-21T10:56:24Z</time>
      </trkpt>
      <trkpt lat="46.028890" lon="9.236986">
        <ele>217.437</ele>
        <time>2020-08-21T10:56:25Z</time>
      </trkpt>
      <trkpt lat="46.028427" lon="9.237193">
        <ele>216.497</ele>
        <time>2020-08-21T10:56:38Z</time>
      </trkpt>
      <trkpt lat="46.028041" lon="9.237419">
        <ele>216.446</ele>
        <time>2020-08-21T10:56:48Z</time>
      </trkpt>
      <trkpt lat="46.027836" lon="9.237545">
        <ele>215.916</ele>
        <time>2020-08-21T10:58:17Z</time>
      </trkpt>
      <trkpt lat="46.027824" lon="9.237540">
        <ele>215.913</ele>
        <time>2020-08-21T10:58:18Z</time>
      </trkpt>
      <trkpt lat="46.027811" lon="9.237544">
        <ele>215.945</ele>
        <time>2020-08-21T10:58:19Z</time>
      </trkpt>
      <trkpt lat="46.027800" lon="9.237552">
        <ele>215.953</ele>
        <time>2020-08-21T10:58:20Z</time>
      </trkpt>
      <trkpt lat="46.027784" lon="9.237561">
        <ele>215.960</ele>
        <time>2020-08-21T10:58:21Z</time>
      </trkpt>
      <trkpt lat="46.027764" lon="9.237566">
        <ele>215.919</ele>
        <time>2020-08-21T10:58:22Z</time>
      </trkpt>
      <trkpt lat="46.027739" lon="9.237571">
        <ele>215.909</ele>
        <time>2020-08-21T10:58:23Z</time>
      </trkpt>
      <trkpt lat="46.027291" lon="9.237567">
        <ele>215.919</ele>
        <time>2020-08-21T10:58:36Z</time>
      </trkpt>
      <trkpt lat="46.026765" lon="9.237559">
        <ele>215.408</ele>
        <time>2020-08-21T10:58:50Z</time>
      </trkpt>
      <trkpt lat="46.026331" lon="9.237707">
        <ele>215.426</ele>
        <time>2020-08-21T10:59:02Z</time>
      </trkpt>
      <trkpt lat="46.026286" lon="9.237754">
        <ele>214.916</ele>
        <time>2020-08-21T10:59:12Z</time>
      </trkpt>
      <trkpt lat="46.026266" lon="9.237747">
        <ele>214.915</ele>
        <time>2020-08-21T10:59:28Z</time>
      </trkpt>
      <trkpt lat="46.026252" lon="9.237748">
        <ele>214.975</ele>
        <time>2020-08-21T10:59:29Z</time>
      </trkpt>
      <trkpt lat="46.026234" lon="9.237747">
        <ele>214.992</ele>
        <time>2020-08-21T10:59:30Z</time>
      </trkpt>
      <trkpt lat="46.025945" lon="9.237764">
        <ele>214.564</ele>
        <time>2020-08-21T10:59:41Z</time>
      </trkpt>
      <trkpt lat="46.025907" lon="9.237793">
        <ele>214.522</ele>
        <time>2020-08-21T10:59:42Z</time>
      </trkpt>
      <trkpt lat="46.025836" lon="9.237866">
        <ele>214.599</ele>
        <time>2020-08-21T10:59:44Z</time>
      </trkpt>
      <trkpt lat="46.025804" lon="9.237906">
        <ele>214.558</ele>
        <time>2020-08-21T10:59:45Z</time>
      </trkpt>
      <trkpt lat="46.025086" lon="9.238559">
        <ele>214.052</ele>
        <time>2020-08-21T11:00:03Z</time>
      </trkpt>
      <trkpt lat="46.024325" lon="9.238880">
        <ele>213.517</ele>
        <time>2020-08-21T11:00:19Z</time>
      </trkpt>
      <trkpt lat="46.023887" lon="9.239028">
        <ele>213.508</ele>
        <time>2020-08-21T11:00:29Z</time>
      </trkpt>
      <trkpt lat="46.023135" lon="9.238982">
        <ele>214.930</ele>
        <time>2020-08-21T11:00:45Z</time>
      </trkpt>
      <trkpt lat="46.022939" lon="9.238971">
        <ele>213.550</ele>
        <time>2020-08-21T11:00:49Z</time>
      </trkpt>
      <trkpt lat="46.022162" lon="9.238901">
        <ele>213.029</ele>
        <time>2020-08-21T11:01:04Z</time>
      </trkpt>
      <trkpt lat="46.021298" lon="9.238776">
        <ele>212.119</ele>
        <time>2020-08-21T11:01:21Z</time>
      </trkpt>
      <trkpt lat="46.020930" lon="9.238555">
        <ele>212.576</ele>
        <time>2020-08-21T11:01:29Z</time>
      </trkpt>
      <trkpt lat="46.020618" lon="9.238356">
        <ele>212.578</ele>
        <time>2020-08-21T11:01:36Z</time>
      </trkpt>
      <trkpt lat="46.020576" lon="9.238328">
        <ele>211.686</ele>
        <time>2020-08-21T11:01:37Z</time>
      </trkpt>
      <trkpt lat="46.020264" lon="9.238102">
        <ele>210.663</ele>
        <time>2020-08-21T11:01:43Z</time>
      </trkpt>
      <trkpt lat="46.020153" lon="9.238045">
        <ele>210.176</ele>
        <time>2020-08-21T11:01:45Z</time>
      </trkpt>
      <trkpt lat="46.020053" lon="9.237982">
        <ele>209.790</ele>
        <time>2020-08-21T11:01:47Z</time>
      </trkpt>
      <trkpt lat="46.019889" lon="9.237904">
        <ele>209.219</ele>
        <time>2020-08-21T11:01:50Z</time>
      </trkpt>
      <trkpt lat="46.019377" lon="9.237605">
        <ele>207.308</ele>
        <time>2020-08-21T11:01:59Z</time>
      </trkpt>
      <trkpt lat="46.019327" lon="9.237555">
        <ele>207.352</ele>
        <time>2020-08-21T11:02:00Z</time>
      </trkpt>
      <trkpt lat="46.019097" lon="9.237191">
        <ele>207.342</ele>
        <time>2020-08-21T11:02:10Z</time>
      </trkpt>
      <trkpt lat="46.018962" lon="9.236918">
        <ele>209.221</ele>
        <time>2020-08-21T11:02:24Z</time>
      </trkpt>
      <trkpt lat="46.018879" lon="9.236703">
        <ele>209.771</ele>
        <time>2020-08-21T11:02:31Z</time>
      </trkpt>
      <trkpt lat="46.018891" lon="9.236679">
        <ele>210.178</ele>
        <time>2020-08-21T11:02:32Z</time>
      </trkpt>
      <trkpt lat="46.018909" lon="9.236671">
        <ele>210.150</ele>
        <time>2020-08-21T11:02:33Z</time>
      </trkpt>
      <trkpt lat="46.018925" lon="9.236672">
        <ele>210.148</ele>
        <time>2020-08-21T11:02:34Z</time>
      </trkpt>
      <trkpt lat="46.018946" lon="9.236679">
        <ele>210.165</ele>
        <time>2020-08-21T11:02:35Z</time>
      </trkpt>
      <trkpt lat="46.018967" lon="9.236686">
        <ele>211.195</ele>
        <time>2020-08-21T11:02:36Z</time>
      </trkpt>
      <trkpt lat="46.018989" lon="9.236692">
        <ele>211.149</ele>
        <time>2020-08-21T11:02:37Z</time>
      </trkpt>
      <trkpt lat="46.019222" lon="9.236766">
        <ele>211.623</ele>
        <time>2020-08-21T11:02:46Z</time>
      </trkpt>
      <trkpt lat="46.019546" lon="9.236930">
        <ele>213.008</ele>
        <time>2020-08-21T11:02:57Z</time>
      </trkpt>
      <trkpt lat="46.019837" lon="9.237143">
        <ele>214.954</ele>
        <time>2020-08-21T11:03:09Z</time>
      </trkpt>
      <trkpt lat="46.019932" lon="9.237025">
        <ele>215.414</ele>
        <time>2020-08-21T11:03:14Z</time>
      </trkpt>
      <trkpt lat="46.019928" lon="9.236987">
        <ele>215.483</ele>
        <time>2020-08-21T11:03:15Z</time>
      </trkpt>
      <trkpt lat="46.019916" lon="9.236953">
        <ele>215.473</ele>
        <time>2020-08-21T11:03:16Z</time>
      </trkpt>
      <trkpt lat="46.019899" lon="9.236925">
        <ele>215.970</ele>
        <time>2020-08-21T11:03:17Z</time>
      </trkpt>
      <trkpt lat="46.019878" lon="9.236898">
        <ele>215.982</ele>
        <time>2020-08-21T11:03:18Z</time>
      </trkpt>
      <trkpt lat="46.019859" lon="9.236880">
        <ele>215.930</ele>
        <time>2020-08-21T11:03:19Z</time>
      </trkpt>
      <trkpt lat="46.019834" lon="9.236859">
        <ele>216.447</ele>
        <time>2020-08-21T11:03:20Z</time>
      </trkpt>
      <trkpt lat="46.019817" lon="9.236848">
        <ele>216.477</ele>
        <time>2020-08-21T11:03:21Z</time>
      </trkpt>
      <trkpt lat="46.019525" lon="9.236492">
        <ele>219.361</ele>
        <time>2020-08-21T11:03:38Z</time>
      </trkpt>
      <trkpt lat="46.019267" lon="9.236137">
        <ele>221.727</ele>
        <time>2020-08-21T11:03:54Z</time>
      </trkpt>
      <trkpt lat="46.019059" lon="9.235835">
        <ele>224.608</ele>
        <time>2020-08-21T11:04:08Z</time>
      </trkpt>
      <trkpt lat="46.018832" lon="9.235613">
        <ele>226.532</ele>
        <time>2020-08-21T11:04:23Z</time>
      </trkpt>
      <trkpt lat="46.018507" lon="9.235451">
        <ele>229.412</ele>
        <time>2020-08-21T11:04:41Z</time>
      </trkpt>
      <trkpt lat="46.018154" lon="9.235295">
        <ele>232.771</ele>
        <time>2020-08-21T11:05:00Z</time>
      </trkpt>
      <trkpt lat="46.018075" lon="9.235222">
        <ele>233.211</ele>
        <time>2020-08-21T11:05:05Z</time>
      </trkpt>
      <trkpt lat="46.018077" lon="9.235198">
        <ele>233.778</ele>
        <time>2020-08-21T11:05:06Z</time>
      </trkpt>
      <trkpt lat="46.018091" lon="9.235177">
        <ele>233.730</ele>
        <time>2020-08-21T11:05:07Z</time>
      </trkpt>
      <trkpt lat="46.018113" lon="9.235167">
        <ele>233.718</ele>
        <time>2020-08-21T11:05:08Z</time>
      </trkpt>
      <trkpt lat="46.018133" lon="9.235165">
        <ele>233.785</ele>
        <time>2020-08-21T11:05:09Z</time>
      </trkpt>
      <trkpt lat="46.018158" lon="9.235168">
        <ele>233.781</ele>
        <time>2020-08-21T11:05:10Z</time>
      </trkpt>
      <trkpt lat="46.018466" lon="9.235257">
        <ele>235.661</ele>
        <time>2020-08-21T11:05:25Z</time>
      </trkpt>
      <trkpt lat="46.018809" lon="9.235297">
        <ele>239.017</ele>
        <time>2020-08-21T11:05:42Z</time>
      </trkpt>
      <trkpt lat="46.019148" lon="9.235444">
        <ele>240.408</ele>
        <time>2020-08-21T11:05:59Z</time>
      </trkpt>
      <trkpt lat="46.019534" lon="9.235648">
        <ele>243.373</ele>
        <time>2020-08-21T11:06:19Z</time>
      </trkpt>
      <trkpt lat="46.019960" lon="9.235840">
        <ele>246.243</ele>
        <time>2020-08-21T11:06:40Z</time>
      </trkpt>
      <trkpt lat="46.020346" lon="9.235991">
        <ele>249.692</ele>
        <time>2020-08-21T11:06:59Z</time>
      </trkpt>
      <trkpt lat="46.020732" lon="9.236138">
        <ele>252.452</ele>
        <time>2020-08-21T11:07:18Z</time>
      </trkpt>
      <trkpt lat="46.021065" lon="9.236125">
        <ele>255.369</ele>
        <time>2020-08-21T11:07:35Z</time>
      </trkpt>
      <trkpt lat="46.021114" lon="9.235719">
        <ele>256.371</ele>
        <time>2020-08-21T11:07:50Z</time>
      </trkpt>
      <trkpt lat="46.021009" lon="9.235361">
        <ele>258.719</ele>
        <time>2020-08-21T11:08:04Z</time>
      </trkpt>
      <trkpt lat="46.020991" lon="9.235220">
        <ele>259.246</ele>
        <time>2020-08-21T11:08:09Z</time>
      </trkpt>
      <trkpt lat="46.021006" lon="9.235202">
        <ele>259.289</ele>
        <time>2020-08-21T11:08:10Z</time>
      </trkpt>
      <trkpt lat="46.021029" lon="9.235196">
        <ele>259.206</ele>
        <time>2020-08-21T11:08:11Z</time>
      </trkpt>
      <trkpt lat="46.021045" lon="9.235202">
        <ele>259.226</ele>
        <time>2020-08-21T11:08:12Z</time>
      </trkpt>
      <trkpt lat="46.021067" lon="9.235216">
        <ele>259.208</ele>
        <time>2020-08-21T11:08:13Z</time>
      </trkpt>
      <trkpt lat="46.021555" lon="9.235202">
        <ele>258.753</ele>
        <time>2020-08-21T11:08:28Z</time>
      </trkpt>
      <trkpt lat="46.021711" lon="9.235083">
        <ele>258.733</ele>
        <time>2020-08-21T11:08:32Z</time>
      </trkpt>
      <trkpt lat="46.021740" lon="9.235070">
        <ele>258.732</ele>
        <time>2020-08-21T11:08:33Z</time>
      </trkpt>
      <trkpt lat="46.021787" lon="9.235060">
        <ele>258.772</ele>
        <time>2020-08-21T11:08:34Z</time>
      </trkpt>
      <trkpt lat="46.021839" lon="9.235065">
        <ele>257.759</ele>
        <time>2020-08-21T11:08:35Z</time>
      </trkpt>
      <trkpt lat="46.021888" lon="9.235086">
        <ele>256.851</ele>
        <time>2020-08-21T11:08:36Z</time>
      </trkpt>
      <trkpt lat="46.021935" lon="9.235125">
        <ele>256.829</ele>
        <time>2020-08-21T11:08:37Z</time>
      </trkpt>
      <trkpt lat="46.021979" lon="9.235182">
        <ele>256.886</ele>
        <time>2020-08-21T11:08:38Z</time>
      </trkpt>
      <trkpt lat="46.022026" lon="9.235252">
        <ele>256.818</ele>
        <time>2020-08-21T11:08:39Z</time>
      </trkpt>
      <trkpt lat="46.022070" lon="9.235302">
        <ele>256.898</ele>
        <time>2020-08-21T11:08:40Z</time>
      </trkpt>
      <trkpt lat="46.022143" lon="9.235341">
        <ele>256.317</ele>
        <time>2020-08-21T11:08:41Z</time>
      </trkpt>
      <trkpt lat="46.022196" lon="9.235335">
        <ele>256.308</ele>
        <time>2020-08-21T11:08:42Z</time>
      </trkpt>
      <trkpt lat="46.022282" lon="9.235274">
        <ele>255.896</ele>
        <time>2020-08-21T11:08:43Z</time>
      </trkpt>
      <trkpt lat="46.022322" lon="9.235227">
        <ele>255.826</ele>
        <time>2020-08-21T11:08:44Z</time>
      </trkpt>
      <trkpt lat="46.022372" lon="9.235157">
        <ele>255.895</ele>
        <time>2020-08-21T11:08:45Z</time>
      </trkpt>
      <trkpt lat="46.022422" lon="9.235090">
        <ele>255.885</ele>
        <time>2020-08-21T11:08:46Z</time>
      </trkpt>
      <trkpt lat="46.022475" lon="9.235025">
        <ele>255.342</ele>
        <time>2020-08-21T11:08:47Z</time>
      </trkpt>
      <trkpt lat="46.022587" lon="9.234922">
        <ele>255.334</ele>
        <time>2020-08-21T11:08:49Z</time>
      </trkpt>
      <trkpt lat="46.022652" lon="9.234915">
        <ele>255.392</ele>
        <time>2020-08-21T11:08:50Z</time>
      </trkpt>
      <trkpt lat="46.022707" lon="9.234946">
        <ele>255.319</ele>
        <time>2020-08-21T11:08:51Z</time>
      </trkpt>
      <trkpt lat="46.022751" lon="9.234998">
        <ele>255.345</ele>
        <time>2020-08-21T11:08:52Z</time>
      </trkpt>
      <trkpt lat="46.022787" lon="9.235063">
        <ele>255.347</ele>
        <time>2020-08-21T11:08:53Z</time>
      </trkpt>
      <trkpt lat="46.022820" lon="9.235129">
        <ele>255.311</ele>
        <time>2020-08-21T11:08:54Z</time>
      </trkpt>
      <trkpt lat="46.023095" lon="9.235659">
        <ele>256.308</ele>
        <time>2020-08-21T11:09:08Z</time>
      </trkpt>
      <trkpt lat="46.023396" lon="9.235938">
        <ele>259.219</ele>
        <time>2020-08-21T11:09:24Z</time>
      </trkpt>
      <trkpt lat="46.023690" lon="9.235942">
        <ele>262.129</ele>
        <time>2020-08-21T11:09:39Z</time>
      </trkpt>
      <trkpt lat="46.023943" lon="9.235716">
        <ele>264.538</ele>
        <time>2020-08-21T11:09:56Z</time>
      </trkpt>
      <trkpt lat="46.024193" lon="9.235657">
        <ele>267.828</ele>
        <time>2020-08-21T11:10:11Z</time>
      </trkpt>
      <trkpt lat="46.024466" lon="9.235722">
        <ele>270.795</ele>
        <time>2020-08-21T11:10:29Z</time>
      </trkpt>
      <trkpt lat="46.024743" lon="9.235821">
        <ele>273.637</ele>
        <time>2020-08-21T11:10:48Z</time>
      </trkpt>
      <trkpt lat="46.024948" lon="9.235884">
        <ele>276.025</ele>
        <time>2020-08-21T11:11:02Z</time>
      </trkpt>
      <trkpt lat="46.025128" lon="9.235665">
        <ele>278.932</ele>
        <time>2020-08-21T11:11:19Z</time>
      </trkpt>
      <trkpt lat="46.024968" lon="9.235378">
        <ele>280.384</ele>
        <time>2020-08-21T11:11:34Z</time>
      </trkpt>
      <trkpt lat="46.024772" lon="9.235217">
        <ele>282.207</ele>
        <time>2020-08-21T11:11:46Z</time>
      </trkpt>
      <trkpt lat="46.024762" lon="9.235194">
        <ele>281.817</ele>
        <time>2020-08-21T11:11:47Z</time>
      </trkpt>
      <trkpt lat="46.024754" lon="9.235167">
        <ele>282.208</ele>
        <time>2020-08-21T11:11:48Z</time>
      </trkpt>
      <trkpt lat="46.024752" lon="9.235148">
        <ele>281.853</ele>
        <time>2020-08-21T11:11:49Z</time>
      </trkpt>
      <trkpt lat="46.024752" lon="9.235123">
        <ele>282.283</ele>
        <time>2020-08-21T11:11:50Z</time>
      </trkpt>
      <trkpt lat="46.024754" lon="9.235093">
        <ele>281.832</ele>
        <time>2020-08-21T11:11:51Z</time>
      </trkpt>
      <trkpt lat="46.024757" lon="9.235065">
        <ele>282.252</ele>
        <time>2020-08-21T11:11:52Z</time>
      </trkpt>
      <trkpt lat="46.024762" lon="9.235034">
        <ele>282.299</ele>
        <time>2020-08-21T11:11:53Z</time>
      </trkpt>
      <trkpt lat="46.024766" lon="9.235005">
        <ele>282.231</ele>
        <time>2020-08-21T11:11:54Z</time>
      </trkpt>
      <trkpt lat="46.024903" lon="9.234533">
        <ele>285.629</ele>
        <time>2020-08-21T11:12:13Z</time>
      </trkpt>
      <trkpt lat="46.025043" lon="9.234181">
        <ele>288.036</ele>
        <time>2020-08-21T11:12:29Z</time>
      </trkpt>
      <trkpt lat="46.025230" lon="9.233892">
        <ele>290.939</ele>
        <time>2020-08-21T11:12:45Z</time>
      </trkpt>
      <trkpt lat="46.025269" lon="9.233866">
        <ele>291.401</ele>
        <time>2020-08-21T11:12:49Z</time>
      </trkpt>
      <trkpt lat="46.025287" lon="9.233862">
        <ele>291.421</ele>
        <time>2020-08-21T11:12:50Z</time>
      </trkpt>
      <trkpt lat="46.025299" lon="9.233839">
        <ele>291.408</ele>
        <time>2020-08-21T11:12:51Z</time>
      </trkpt>
      <trkpt lat="46.025304" lon="9.233810">
        <ele>291.458</ele>
        <time>2020-08-21T11:12:52Z</time>
      </trkpt>
      <trkpt lat="46.025304" lon="9.233773">
        <ele>291.418</ele>
        <time>2020-08-21T11:12:53Z</time>
      </trkpt>
      <trkpt lat="46.025301" lon="9.233750">
        <ele>291.447</ele>
        <time>2020-08-21T11:12:54Z</time>
      </trkpt>
      <trkpt lat="46.025299" lon="9.233720">
        <ele>291.917</ele>
        <time>2020-08-21T11:12:55Z</time>
      </trkpt>
      <trkpt lat="46.025286" lon="9.233186">
        <ele>293.374</ele>
        <time>2020-08-21T11:13:13Z</time>
      </trkpt>
      <trkpt lat="46.025376" lon="9.232715">
        <ele>295.256</ele>
        <time>2020-08-21T11:13:29Z</time>
      </trkpt>
      <trkpt lat="46.025372" lon="9.232698">
        <ele>295.224</ele>
        <time>2020-08-21T11:13:30Z</time>
      </trkpt>
      <trkpt lat="46.025304" lon="9.232318">
        <ele>296.761</ele>
        <time>2020-08-21T11:13:43Z</time>
      </trkpt>
      <trkpt lat="46.025318" lon="9.232299">
        <ele>296.774</ele>
        <time>2020-08-21T11:13:44Z</time>
      </trkpt>
      <trkpt lat="46.025333" lon="9.232286">
        <ele>296.756</ele>
        <time>2020-08-21T11:13:45Z</time>
      </trkpt>
      <trkpt lat="46.025612" lon="9.232144">
        <ele>300.021</ele>
        <time>2020-08-21T11:14:02Z</time>
      </trkpt>
      <trkpt lat="46.025808" lon="9.232012">
        <ele>301.508</ele>
        <time>2020-08-21T11:14:14Z</time>
      </trkpt>
      <trkpt lat="46.025884" lon="9.231902">
        <ele>302.922</ele>
        <time>2020-08-21T11:14:20Z</time>
      </trkpt>
      <trkpt lat="46.025914" lon="9.231907">
        <ele>303.472</ele>
        <time>2020-08-21T11:14:33Z</time>
      </trkpt>
      <trkpt lat="46.025911" lon="9.231863">
        <ele>303.471</ele>
        <time>2020-08-21T11:15:00Z</time>
      </trkpt>
      <trkpt lat="46.025932" lon="9.231816">
        <ele>303.481</ele>
        <time>2020-08-21T11:15:15Z</time>
      </trkpt>
      <trkpt lat="46.025968" lon="9.231784">
        <ele>303.498</ele>
        <time>2020-08-21T11:15:29Z</time>
      </trkpt>
      <trkpt lat="46.025958" lon="9.231772">
        <ele>303.460</ele>
        <time>2020-08-21T11:15:30Z</time>
      </trkpt>
      <trkpt lat="46.025950" lon="9.231764">
        <ele>303.498</ele>
        <time>2020-08-21T11:15:31Z</time>
      </trkpt>
      <trkpt lat="46.025941" lon="9.231751">
        <ele>303.925</ele>
        <time>2020-08-21T11:15:32Z</time>
      </trkpt>
      <trkpt lat="46.025937" lon="9.231738">
        <ele>303.964</ele>
        <time>2020-08-21T11:15:33Z</time>
      </trkpt>
      <trkpt lat="46.025932" lon="9.231725">
        <ele>303.906</ele>
        <time>2020-08-21T11:15:34Z</time>
      </trkpt>
      <trkpt lat="46.025926" lon="9.231675">
        <ele>303.916</ele>
        <time>2020-08-21T11:15:37Z</time>
      </trkpt>
      <trkpt lat="46.025921" lon="9.231661">
        <ele>303.908</ele>
        <time>2020-08-21T11:15:38Z</time>
      </trkpt>
      <trkpt lat="46.025916" lon="9.231646">
        <ele>303.911</ele>
        <time>2020-08-21T11:15:39Z</time>
      </trkpt>
      <trkpt lat="46.025913" lon="9.231632">
        <ele>303.951</ele>
        <time>2020-08-21T11:15:40Z</time>
      </trkpt>
      <trkpt lat="46.025908" lon="9.231617">
        <ele>304.350</ele>
        <time>2020-08-21T11:15:41Z</time>
      </trkpt>
      <trkpt lat="46.025906" lon="9.231602">
        <ele>304.340</ele>
        <time>2020-08-21T11:15:42Z</time>
      </trkpt>
      <trkpt lat="46.025908" lon="9.231585">
        <ele>304.317</ele>
        <time>2020-08-21T11:15:43Z</time>
      </trkpt>
      <trkpt lat="46.025913" lon="9.231567">
        <ele>304.369</ele>
        <time>2020-08-21T11:15:44Z</time>
      </trkpt>
      <trkpt lat="46.025935" lon="9.231211">
        <ele>305.377</ele>
        <time>2020-08-21T11:16:02Z</time>
      </trkpt>
      <trkpt lat="46.025949" lon="9.230841">
        <ele>306.874</ele>
        <time>2020-08-21T11:16:18Z</time>
      </trkpt>
      <trkpt lat="46.026038" lon="9.230415">
        <ele>308.728</ele>
        <time>2020-08-21T11:16:33Z</time>
      </trkpt>
      <trkpt lat="46.026321" lon="9.229967">
        <ele>310.689</ele>
        <time>2020-08-21T11:16:53Z</time>
      </trkpt>
      <trkpt lat="46.026591" lon="9.229813">
        <ele>313.017</ele>
        <time>2020-08-21T11:17:08Z</time>
      </trkpt>
      <trkpt lat="46.026771" lon="9.229793">
        <ele>314.908</ele>
        <time>2020-08-21T11:17:20Z</time>
      </trkpt>
      <trkpt lat="46.026784" lon="9.229806">
        <ele>315.427</ele>
        <time>2020-08-21T11:17:21Z</time>
      </trkpt>
      <trkpt lat="46.026794" lon="9.229813">
        <ele>315.447</ele>
        <time>2020-08-21T11:17:22Z</time>
      </trkpt>
      <trkpt lat="46.026807" lon="9.229823">
        <ele>315.416</ele>
        <time>2020-08-21T11:17:23Z</time>
      </trkpt>
      <trkpt lat="46.026820" lon="9.229830">
        <ele>315.436</ele>
        <time>2020-08-21T11:17:24Z</time>
      </trkpt>
      <trkpt lat="46.026833" lon="9.229836">
        <ele>316.443</ele>
        <time>2020-08-21T11:17:25Z</time>
      </trkpt>
      <trkpt lat="46.027021" lon="9.229829">
        <ele>318.845</ele>
        <time>2020-08-21T11:17:39Z</time>
      </trkpt>
      <trkpt lat="46.027126" lon="9.229611">
        <ele>320.233</ele>
        <time>2020-08-21T11:17:52Z</time>
      </trkpt>
      <trkpt lat="46.026957" lon="9.229246">
        <ele>321.710</ele>
        <time>2020-08-21T11:18:10Z</time>
      </trkpt>
      <trkpt lat="46.026698" lon="9.228898">
        <ele>324.179</ele>
        <time>2020-08-21T11:18:29Z</time>
      </trkpt>
      <trkpt lat="46.026769" lon="9.228598">
        <ele>326.505</ele>
        <time>2020-08-21T11:18:44Z</time>
      </trkpt>
      <trkpt lat="46.026875" lon="9.228389">
        <ele>329.825</ele>
        <time>2020-08-21T11:18:58Z</time>
      </trkpt>
      <trkpt lat="46.026928" lon="9.228111">
        <ele>332.708</ele>
        <time>2020-08-21T11:19:15Z</time>
      </trkpt>
      <trkpt lat="46.027049" lon="9.227865">
        <ele>335.642</ele>
        <time>2020-08-21T11:19:33Z</time>
      </trkpt>
      <trkpt lat="46.027207" lon="9.227602">
        <ele>339.432</ele>
        <time>2020-08-21T11:19:53Z</time>
      </trkpt>
      <trkpt lat="46.027269" lon="9.227309">
        <ele>341.871</ele>
        <time>2020-08-21T11:20:11Z</time>
      </trkpt>
      <trkpt lat="46.027258" lon="9.227137">
        <ele>344.291</ele>
        <time>2020-08-21T11:20:22Z</time>
      </trkpt>
      <trkpt lat="46.027260" lon="9.227120">
        <ele>344.748</ele>
        <time>2020-08-21T11:20:23Z</time>
      </trkpt>
      <trkpt lat="46.027298" lon="9.227021">
        <ele>346.280</ele>
        <time>2020-08-21T11:20:31Z</time>
      </trkpt>
      <trkpt lat="46.027396" lon="9.226805">
        <ele>349.168</ele>
        <time>2020-08-21T11:20:46Z</time>
      </trkpt>
      <trkpt lat="46.027437" lon="9.226712">
        <ele>350.555</ele>
        <time>2020-08-21T11:20:53Z</time>
      </trkpt>
      <trkpt lat="46.027441" lon="9.226697">
        <ele>350.547</ele>
        <time>2020-08-21T11:20:54Z</time>
      </trkpt>
      <trkpt lat="46.027447" lon="9.226685">
        <ele>350.529</ele>
        <time>2020-08-21T11:20:55Z</time>
      </trkpt>
      <trkpt lat="46.027454" lon="9.226669">
        <ele>350.521</ele>
        <time>2020-08-21T11:20:56Z</time>
      </trkpt>
      <trkpt lat="46.027461" lon="9.226654">
        <ele>351.008</ele>
        <time>2020-08-21T11:20:57Z</time>
      </trkpt>
      <trkpt lat="46.027465" lon="9.226638">
        <ele>351.059</ele>
        <time>2020-08-21T11:20:58Z</time>
      </trkpt>
      <trkpt lat="46.027468" lon="9.226622">
        <ele>351.559</ele>
        <time>2020-08-21T11:20:59Z</time>
      </trkpt>
      <trkpt lat="46.027472" lon="9.226605">
        <ele>351.568</ele>
        <time>2020-08-21T11:21:00Z</time>
      </trkpt>
      <trkpt lat="46.027478" lon="9.226589">
        <ele>351.518</ele>
        <time>2020-08-21T11:21:01Z</time>
      </trkpt>
      <trkpt lat="46.027493" lon="9.226507">
        <ele>352.425</ele>
        <time>2020-08-21T11:21:06Z</time>
      </trkpt>
      <trkpt lat="46.027492" lon="9.226489">
        <ele>352.487</ele>
        <time>2020-08-21T11:21:07Z</time>
      </trkpt>
      <trkpt lat="46.027495" lon="9.226474">
        <ele>352.495</ele>
        <time>2020-08-21T11:21:08Z</time>
      </trkpt>
      <trkpt lat="46.027498" lon="9.226458">
        <ele>352.962</ele>
        <time>2020-08-21T11:21:09Z</time>
      </trkpt>
      <trkpt lat="46.027500" lon="9.226441">
        <ele>352.944</ele>
        <time>2020-08-21T11:21:10Z</time>
      </trkpt>
      <trkpt lat="46.027534" lon="9.226195">
        <ele>356.305</ele>
        <time>2020-08-21T11:21:26Z</time>
      </trkpt>
      <trkpt lat="46.027569" lon="9.226100">
        <ele>357.715</ele>
        <time>2020-08-21T11:21:33Z</time>
      </trkpt>
      <trkpt lat="46.027653" lon="9.225888">
        <ele>360.608</ele>
        <time>2020-08-21T11:21:48Z</time>
      </trkpt>
      <trkpt lat="46.027661" lon="9.225874">
        <ele>360.679</ele>
        <time>2020-08-21T11:21:49Z</time>
      </trkpt>
      <trkpt lat="46.027666" lon="9.225861">
        <ele>360.649</ele>
        <time>2020-08-21T11:21:50Z</time>
      </trkpt>
      <trkpt lat="46.027673" lon="9.225849">
        <ele>360.648</ele>
        <time>2020-08-21T11:21:51Z</time>
      </trkpt>
      <trkpt lat="46.027773" lon="9.225725">
        <ele>363.048</ele>
        <time>2020-08-21T11:22:05Z</time>
      </trkpt>
      <trkpt lat="46.027875" lon="9.225620">
        <ele>365.465</ele>
        <time>2020-08-21T11:22:16Z</time>
      </trkpt>
      <trkpt lat="46.027899" lon="9.225579">
        <ele>365.467</ele>
        <time>2020-08-21T11:22:19Z</time>
      </trkpt>
      <trkpt lat="46.027929" lon="9.225532">
        <ele>366.475</ele>
        <time>2020-08-21T11:22:23Z</time>
      </trkpt>
      <trkpt lat="46.028004" lon="9.225326">
        <ele>369.252</ele>
        <time>2020-08-21T11:22:38Z</time>
      </trkpt>
      <trkpt lat="46.028099" lon="9.225120">
        <ele>371.644</ele>
        <time>2020-08-21T11:22:53Z</time>
      </trkpt>
      <trkpt lat="46.028186" lon="9.224908">
        <ele>374.005</ele>
        <time>2020-08-21T11:23:07Z</time>
      </trkpt>
      <trkpt lat="46.028236" lon="9.224643">
        <ele>376.015</ele>
        <time>2020-08-21T11:23:23Z</time>
      </trkpt>
      <trkpt lat="46.028274" lon="9.224511">
        <ele>376.408</ele>
        <time>2020-08-21T11:23:30Z</time>
      </trkpt>
      <trkpt lat="46.028299" lon="9.224428">
        <ele>377.459</ele>
        <time>2020-08-21T11:23:34Z</time>
      </trkpt>
      <trkpt lat="46.028306" lon="9.224414">
        <ele>377.429</ele>
        <time>2020-08-21T11:23:35Z</time>
      </trkpt>
      <trkpt lat="46.028331" lon="9.224062">
        <ele>378.418</ele>
        <time>2020-08-21T11:23:50Z</time>
      </trkpt>
      <trkpt lat="46.028296" lon="9.223648">
        <ele>378.458</ele>
        <time>2020-08-21T11:24:03Z</time>
      </trkpt>
      <trkpt lat="46.028189" lon="9.223062">
        <ele>378.985</ele>
        <time>2020-08-21T11:24:18Z</time>
      </trkpt>
      <trkpt lat="46.028118" lon="9.222462">
        <ele>378.927</ele>
        <time>2020-08-21T11:24:32Z</time>
      </trkpt>
      <trkpt lat="46.028031" lon="9.221823">
        <ele>379.365</ele>
        <time>2020-08-21T11:24:47Z</time>
      </trkpt>
      <trkpt lat="46.027948" lon="9.221243">
        <ele>379.812</ele>
        <time>2020-08-21T11:25:01Z</time>
      </trkpt>
      <trkpt lat="46.027852" lon="9.220639">
        <ele>380.318</ele>
        <time>2020-08-21T11:25:16Z</time>
      </trkpt>
      <trkpt lat="46.027792" lon="9.220169">
        <ele>381.398</ele>
        <time>2020-08-21T11:25:29Z</time>
      </trkpt>
      <trkpt lat="46.027768" lon="9.219853">
        <ele>382.217</ele>
        <time>2020-08-21T11:25:41Z</time>
      </trkpt>
      <trkpt lat="46.027761" lon="9.219801">
        <ele>382.708</ele>
        <time>2020-08-21T11:25:43Z</time>
      </trkpt>
      <trkpt lat="46.027740" lon="9.219628">
        <ele>383.216</ele>
        <time>2020-08-21T11:25:50Z</time>
      </trkpt>
      <trkpt lat="46.027731" lon="9.219612">
        <ele>383.256</ele>
        <time>2020-08-21T11:25:51Z</time>
      </trkpt>
      <trkpt lat="46.027718" lon="9.219542">
        <ele>384.175</ele>
        <time>2020-08-21T11:25:54Z</time>
      </trkpt>
      <trkpt lat="46.027711" lon="9.219462">
        <ele>384.195</ele>
        <time>2020-08-21T11:25:57Z</time>
      </trkpt>
      <trkpt lat="46.027702" lon="9.219429">
        <ele>384.182</ele>
        <time>2020-08-21T11:25:58Z</time>
      </trkpt>
      <trkpt lat="46.027653" lon="9.219118">
        <ele>385.674</ele>
        <time>2020-08-21T11:26:10Z</time>
      </trkpt>
      <trkpt lat="46.027660" lon="9.218819">
        <ele>386.582</ele>
        <time>2020-08-21T11:26:21Z</time>
      </trkpt>
      <trkpt lat="46.027668" lon="9.218792">
        <ele>386.579</ele>
        <time>2020-08-21T11:26:22Z</time>
      </trkpt>
      <trkpt lat="46.027714" lon="9.218277">
        <ele>386.579</ele>
        <time>2020-08-21T11:26:35Z</time>
      </trkpt>
      <trkpt lat="46.027763" lon="9.218113">
        <ele>387.005</ele>
        <time>2020-08-21T11:26:40Z</time>
      </trkpt>
      <trkpt lat="46.027773" lon="9.218076">
        <ele>387.025</ele>
        <time>2020-08-21T11:26:41Z</time>
      </trkpt>
      <trkpt lat="46.027923" lon="9.217554">
        <ele>387.508</ele>
        <time>2020-08-21T11:26:56Z</time>
      </trkpt>
      <trkpt lat="46.028040" lon="9.217317">
        <ele>388.082</ele>
        <time>2020-08-21T11:27:06Z</time>
      </trkpt>
      <trkpt lat="46.028054" lon="9.217288">
        <ele>388.032</ele>
        <time>2020-08-21T11:27:07Z</time>
      </trkpt>
      <trkpt lat="46.028170" lon="9.216923">
        <ele>388.981</ele>
        <time>2020-08-21T11:27:19Z</time>
      </trkpt>
      <trkpt lat="46.028304" lon="9.216575">
        <ele>389.971</ele>
        <time>2020-08-21T11:27:34Z</time>
      </trkpt>
      <trkpt lat="46.028426" lon="9.216170">
        <ele>391.328</ele>
        <time>2020-08-21T11:27:48Z</time>
      </trkpt>
      <trkpt lat="46.028559" lon="9.215829">
        <ele>392.370</ele>
        <time>2020-08-21T11:28:04Z</time>
      </trkpt>
      <trkpt lat="46.028707" lon="9.215622">
        <ele>395.728</ele>
        <time>2020-08-21T11:28:21Z</time>
      </trkpt>
      <trkpt lat="46.028854" lon="9.215464">
        <ele>397.635</ele>
        <time>2020-08-21T11:28:38Z</time>
      </trkpt>
      <trkpt lat="46.028943" lon="9.215339">
        <ele>400.092</ele>
        <time>2020-08-21T11:28:51Z</time>
      </trkpt>
      <trkpt lat="46.029057" lon="9.215229">
        <ele>401.973</ele>
        <time>2020-08-21T11:29:04Z</time>
      </trkpt>
      <trkpt lat="46.029208" lon="9.215128">
        <ele>405.320</ele>
        <time>2020-08-21T11:29:20Z</time>
      </trkpt>
      <trkpt lat="46.029356" lon="9.215015">
        <ele>407.708</ele>
        <time>2020-08-21T11:29:37Z</time>
      </trkpt>
      <trkpt lat="46.029395" lon="9.214973">
        <ele>409.134</ele>
        <time>2020-08-21T11:29:42Z</time>
      </trkpt>
      <trkpt lat="46.029508" lon="9.214794">
        <ele>411.144</ele>
        <time>2020-08-21T11:29:58Z</time>
      </trkpt>
      <trkpt lat="46.029516" lon="9.214781">
        <ele>411.553</ele>
        <time>2020-08-21T11:29:59Z</time>
      </trkpt>
      <trkpt lat="46.029527" lon="9.214771">
        <ele>412.043</ele>
        <time>2020-08-21T11:30:00Z</time>
      </trkpt>
      <trkpt lat="46.029661" lon="9.214548">
        <ele>413.030</ele>
        <time>2020-08-21T11:30:15Z</time>
      </trkpt>
      <trkpt lat="46.029804" lon="9.214290">
        <ele>411.552</ele>
        <time>2020-08-21T11:30:28Z</time>
      </trkpt>
      <trkpt lat="46.029923" lon="9.214218">
        <ele>408.790</ele>
        <time>2020-08-21T11:30:34Z</time>
      </trkpt>
      <trkpt lat="46.029972" lon="9.214191">
        <ele>408.287</ele>
        <time>2020-08-21T11:30:36Z</time>
      </trkpt>
      <trkpt lat="46.030049" lon="9.214147">
        <ele>406.724</ele>
        <time>2020-08-21T11:30:39Z</time>
      </trkpt>
      <trkpt lat="46.030224" lon="9.213980">
        <ele>402.904</ele>
        <time>2020-08-21T11:30:46Z</time>
      </trkpt>
      <trkpt lat="46.030459" lon="9.213730">
        <ele>400.514</ele>
        <time>2020-08-21T11:30:56Z</time>
      </trkpt>
      <trkpt lat="46.030485" lon="9.213707">
        <ele>400.508</ele>
        <time>2020-08-21T11:30:57Z</time>
      </trkpt>
      <trkpt lat="46.030808" lon="9.213307">
        <ele>396.637</ele>
        <time>2020-08-21T11:31:12Z</time>
      </trkpt>
      <trkpt lat="46.030850" lon="9.213101">
        <ele>395.277</ele>
        <time>2020-08-21T11:31:17Z</time>
      </trkpt>
      <trkpt lat="46.030845" lon="9.212821">
        <ele>392.326</ele>
        <time>2020-08-21T11:31:23Z</time>
      </trkpt>
      <trkpt lat="46.030841" lon="9.212782">
        <ele>391.856</ele>
        <time>2020-08-21T11:31:24Z</time>
      </trkpt>
      <trkpt lat="46.030830" lon="9.212637">
        <ele>390.923</ele>
        <time>2020-08-21T11:31:28Z</time>
      </trkpt>
      <trkpt lat="46.030833" lon="9.212613">
        <ele>390.445</ele>
        <time>2020-08-21T11:31:29Z</time>
      </trkpt>
      <trkpt lat="46.030834" lon="9.212595">
        <ele>390.463</ele>
        <time>2020-08-21T11:31:30Z</time>
      </trkpt>
      <trkpt lat="46.030835" lon="9.212577">
        <ele>390.450</ele>
        <time>2020-08-21T11:31:31Z</time>
      </trkpt>
      <trkpt lat="46.030835" lon="9.212558">
        <ele>390.478</ele>
        <time>2020-08-21T11:31:32Z</time>
      </trkpt>
      <trkpt lat="46.030835" lon="9.212538">
        <ele>390.433</ele>
        <time>2020-08-21T11:31:33Z</time>
      </trkpt>
      <trkpt lat="46.030835" lon="9.212523">
        <ele>390.426</ele>
        <time>2020-08-21T11:31:34Z</time>
      </trkpt>
      <trkpt lat="46.030831" lon="9.212506">
        <ele>390.408</ele>
        <time>2020-08-21T11:31:35Z</time>
      </trkpt>
      <trkpt lat="46.030827" lon="9.212478">
        <ele>390.442</ele>
        <time>2020-08-21T11:31:36Z</time>
      </trkpt>
      <trkpt lat="46.030827" lon="9.212455">
        <ele>390.432</ele>
        <time>2020-08-21T11:31:37Z</time>
      </trkpt>
      <trkpt lat="46.030829" lon="9.212420">
        <ele>390.411</ele>
        <time>2020-08-21T11:31:38Z</time>
      </trkpt>
      <trkpt lat="46.030835" lon="9.212385">
        <ele>390.441</ele>
        <time>2020-08-21T11:31:39Z</time>
      </trkpt>
      <trkpt lat="46.030844" lon="9.212349">
        <ele>390.458</ele>
        <time>2020-08-21T11:31:40Z</time>
      </trkpt>
      <trkpt lat="46.030851" lon="9.212326">
        <ele>390.410</ele>
        <time>2020-08-21T11:31:41Z</time>
      </trkpt>
      <trkpt lat="46.030929" lon="9.212071">
        <ele>390.448</ele>
        <time>2020-08-21T11:31:54Z</time>
      </trkpt>
      <trkpt lat="46.030873" lon="9.211993">
        <ele>393.315</ele>
        <time>2020-08-21T11:32:06Z</time>
      </trkpt>
      <trkpt lat="46.030836" lon="9.211979">
        <ele>393.874</ele>
        <time>2020-08-21T11:32:11Z</time>
      </trkpt>
      <trkpt lat="46.030742" lon="9.212001">
        <ele>396.256</ele>
        <time>2020-08-21T11:32:27Z</time>
      </trkpt>
      <trkpt lat="46.030687" lon="9.212050">
        <ele>398.121</ele>
        <time>2020-08-21T11:32:43Z</time>
      </trkpt>
      <trkpt lat="46.030717" lon="9.211965">
        <ele>400.008</ele>
        <time>2020-08-21T11:32:55Z</time>
      </trkpt>
      <trkpt lat="46.030781" lon="9.211881">
        <ele>402.472</ele>
        <time>2020-08-21T11:33:11Z</time>
      </trkpt>
      <trkpt lat="46.030830" lon="9.211811">
        <ele>404.832</ele>
        <time>2020-08-21T11:33:26Z</time>
      </trkpt>
      <trkpt lat="46.030882" lon="9.211728">
        <ele>407.231</ele>
        <time>2020-08-21T11:33:40Z</time>
      </trkpt>
      <trkpt lat="46.030896" lon="9.211621">
        <ele>408.751</ele>
        <time>2020-08-21T11:33:53Z</time>
      </trkpt>
      <trkpt lat="46.030908" lon="9.211525">
        <ele>410.638</ele>
        <time>2020-08-21T11:34:08Z</time>
      </trkpt>
      <trkpt lat="46.030937" lon="9.211424">
        <ele>412.590</ele>
        <time>2020-08-21T11:34:22Z</time>
      </trkpt>
      <trkpt lat="46.030913" lon="9.211422">
        <ele>414.978</ele>
        <time>2020-08-21T11:34:37Z</time>
      </trkpt>
      <trkpt lat="46.030815" lon="9.211425">
        <ele>416.395</ele>
        <time>2020-08-21T11:34:53Z</time>
      </trkpt>
      <trkpt lat="46.030725" lon="9.211478">
        <ele>418.728</ele>
        <time>2020-08-21T11:35:11Z</time>
      </trkpt>
      <trkpt lat="46.030624" lon="9.211492">
        <ele>421.189</ele>
        <time>2020-08-21T11:35:28Z</time>
      </trkpt>
      <trkpt lat="46.030520" lon="9.211554">
        <ele>423.117</ele>
        <time>2020-08-21T11:35:45Z</time>
      </trkpt>
      <trkpt lat="46.030409" lon="9.211621">
        <ele>425.508</ele>
        <time>2020-08-21T11:36:02Z</time>
      </trkpt>
      <trkpt lat="46.030311" lon="9.211660">
        <ele>427.447</ele>
        <time>2020-08-21T11:36:18Z</time>
      </trkpt>
      <trkpt lat="46.030207" lon="9.211677">
        <ele>429.877</ele>
        <time>2020-08-21T11:36:35Z</time>
      </trkpt>
      <trkpt lat="46.030126" lon="9.211666">
        <ele>432.216</ele>
        <time>2020-08-21T11:36:52Z</time>
      </trkpt>
      <trkpt lat="46.030157" lon="9.211613">
        <ele>434.126</ele>
        <time>2020-08-21T11:37:06Z</time>
      </trkpt>
      <trkpt lat="46.030219" lon="9.211565">
        <ele>436.123</ele>
        <time>2020-08-21T11:37:22Z</time>
      </trkpt>
      <trkpt lat="46.030333" lon="9.211451">
        <ele>438.965</ele>
        <time>2020-08-21T11:37:41Z</time>
      </trkpt>
      <trkpt lat="46.030337" lon="9.211446">
        <ele>439.473</ele>
        <time>2020-08-21T11:37:42Z</time>
      </trkpt>
      <trkpt lat="46.030372" lon="9.211426">
        <ele>439.430</ele>
        <time>2020-08-21T11:37:48Z</time>
      </trkpt>
      <trkpt lat="46.030466" lon="9.211270">
        <ele>440.978</ele>
        <time>2020-08-21T11:38:02Z</time>
      </trkpt>
      <trkpt lat="46.030495" lon="9.211166">
        <ele>442.833</ele>
        <time>2020-08-21T11:38:11Z</time>
      </trkpt>
      <trkpt lat="46.030436" lon="9.210953">
        <ele>445.726</ele>
        <time>2020-08-21T11:38:25Z</time>
      </trkpt>
      <trkpt lat="46.030421" lon="9.210913">
        <ele>446.108</ele>
        <time>2020-08-21T11:38:28Z</time>
      </trkpt>
      <trkpt lat="46.030402" lon="9.210638">
        <ele>447.132</ele>
        <time>2020-08-21T11:38:44Z</time>
      </trkpt>
      <trkpt lat="46.030447" lon="9.210368">
        <ele>447.682</ele>
        <time>2020-08-21T11:38:57Z</time>
      </trkpt>
      <trkpt lat="46.030448" lon="9.210304">
        <ele>447.661</ele>
        <time>2020-08-21T11:39:21Z</time>
      </trkpt>
      <trkpt lat="46.030453" lon="9.210287">
        <ele>447.621</ele>
        <time>2020-08-21T11:39:22Z</time>
      </trkpt>
      <trkpt lat="46.030460" lon="9.210265">
        <ele>447.658</ele>
        <time>2020-08-21T11:39:23Z</time>
      </trkpt>
      <trkpt lat="46.030595" lon="9.209907">
        <ele>446.190</ele>
        <time>2020-08-21T11:39:35Z</time>
      </trkpt>
      <trkpt lat="46.030598" lon="9.209870">
        <ele>446.188</ele>
        <time>2020-08-21T11:39:36Z</time>
      </trkpt>
      <trkpt lat="46.030730" lon="9.209479">
        <ele>443.385</ele>
        <time>2020-08-21T11:39:47Z</time>
      </trkpt>
      <trkpt lat="46.030838" lon="9.208933">
        <ele>441.871</ele>
        <time>2020-08-21T11:40:02Z</time>
      </trkpt>
      <trkpt lat="46.030852" lon="9.208911">
        <ele>441.341</ele>
        <time>2020-08-21T11:40:03Z</time>
      </trkpt>
      <trkpt lat="46.030916" lon="9.208790">
        <ele>441.815</ele>
        <time>2020-08-21T11:40:12Z</time>
      </trkpt>
      <trkpt lat="46.030924" lon="9.208770">
        <ele>442.808</ele>
        <time>2020-08-21T11:40:13Z</time>
      </trkpt>
      <trkpt lat="46.030934" lon="9.208754">
        <ele>442.842</ele>
        <time>2020-08-21T11:40:14Z</time>
      </trkpt>
      <trkpt lat="46.031100" lon="9.208553">
        <ele>445.222</ele>
        <time>2020-08-21T11:40:31Z</time>
      </trkpt>
      <trkpt lat="46.031128" lon="9.208516">
        <ele>445.721</ele>
        <time>2020-08-21T11:40:34Z</time>
      </trkpt>
      <trkpt lat="46.031134" lon="9.208505">
        <ele>445.721</ele>
        <time>2020-08-21T11:40:35Z</time>
      </trkpt>
      <trkpt lat="46.031143" lon="9.208489">
        <ele>446.188</ele>
        <time>2020-08-21T11:40:36Z</time>
      </trkpt>
      <trkpt lat="46.031151" lon="9.208480">
        <ele>446.170</ele>
        <time>2020-08-21T11:40:37Z</time>
      </trkpt>
      <trkpt lat="46.031159" lon="9.208468">
        <ele>446.168</ele>
        <time>2020-08-21T11:40:38Z</time>
      </trkpt>
      <trkpt lat="46.031168" lon="9.208460">
        <ele>446.185</ele>
        <time>2020-08-21T11:40:39Z</time>
      </trkpt>
      <trkpt lat="46.031177" lon="9.208451">
        <ele>446.188</ele>
        <time>2020-08-21T11:40:40Z</time>
      </trkpt>
      <trkpt lat="46.031185" lon="9.208438">
        <ele>446.124</ele>
        <time>2020-08-21T11:40:41Z</time>
      </trkpt>
      <trkpt lat="46.031195" lon="9.208427">
        <ele>446.626</ele>
        <time>2020-08-21T11:40:42Z</time>
      </trkpt>
      <trkpt lat="46.031200" lon="9.208414">
        <ele>447.108</ele>
        <time>2020-08-21T11:40:43Z</time>
      </trkpt>
      <trkpt lat="46.031205" lon="9.208399">
        <ele>447.143</ele>
        <time>2020-08-21T11:40:44Z</time>
      </trkpt>
      <trkpt lat="46.031212" lon="9.208382">
        <ele>447.183</ele>
        <time>2020-08-21T11:40:45Z</time>
      </trkpt>
      <trkpt lat="46.031218" lon="9.208367">
        <ele>447.162</ele>
        <time>2020-08-21T11:40:46Z</time>
      </trkpt>
      <trkpt lat="46.031226" lon="9.208355">
        <ele>447.662</ele>
        <time>2020-08-21T11:40:47Z</time>
      </trkpt>
      <trkpt lat="46.031235" lon="9.208343">
        <ele>447.689</ele>
        <time>2020-08-21T11:40:48Z</time>
      </trkpt>
      <trkpt lat="46.031244" lon="9.208328">
        <ele>447.641</ele>
        <time>2020-08-21T11:40:49Z</time>
      </trkpt>
      <trkpt lat="46.031251" lon="9.208314">
        <ele>447.699</ele>
        <time>2020-08-21T11:40:50Z</time>
      </trkpt>
      <trkpt lat="46.031275" lon="9.208278">
        <ele>448.186</ele>
        <time>2020-08-21T11:40:53Z</time>
      </trkpt>
      <trkpt lat="46.031281" lon="9.208262">
        <ele>449.082</ele>
        <time>2020-08-21T11:40:54Z</time>
      </trkpt>
      <trkpt lat="46.031289" lon="9.208250">
        <ele>448.543</ele>
        <time>2020-08-21T11:40:55Z</time>
      </trkpt>
      <trkpt lat="46.031297" lon="9.208238">
        <ele>448.517</ele>
        <time>2020-08-21T11:40:56Z</time>
      </trkpt>
      <trkpt lat="46.031305" lon="9.208226">
        <ele>448.508</ele>
        <time>2020-08-21T11:40:57Z</time>
      </trkpt>
      <trkpt lat="46.031314" lon="9.208216">
        <ele>449.543</ele>
        <time>2020-08-21T11:40:58Z</time>
      </trkpt>
      <trkpt lat="46.031322" lon="9.208206">
        <ele>449.533</ele>
        <time>2020-08-21T11:40:59Z</time>
      </trkpt>
      <trkpt lat="46.031472" lon="9.208002">
        <ele>451.422</ele>
        <time>2020-08-21T11:41:16Z</time>
      </trkpt>
      <trkpt lat="46.031554" lon="9.207936">
        <ele>453.482</ele>
        <time>2020-08-21T11:41:29Z</time>
      </trkpt>
      <trkpt lat="46.031544" lon="9.207967">
        <ele>453.469</ele>
        <time>2020-08-21T11:41:43Z</time>
      </trkpt>
      <trkpt lat="46.031530" lon="9.207959">
        <ele>453.431</ele>
        <time>2020-08-21T11:42:09Z</time>
      </trkpt>
      <trkpt lat="46.031547" lon="9.207941">
        <ele>453.499</ele>
        <time>2020-08-21T11:42:42Z</time>
      </trkpt>
      <trkpt lat="46.031551" lon="9.207929">
        <ele>453.426</ele>
        <time>2020-08-21T11:43:04Z</time>
      </trkpt>
      <trkpt lat="46.031608" lon="9.207883">
        <ele>453.831</ele>
        <time>2020-08-21T11:43:11Z</time>
      </trkpt>
      <trkpt lat="46.031727" lon="9.207825">
        <ele>455.361</ele>
        <time>2020-08-21T11:43:21Z</time>
      </trkpt>
      <trkpt lat="46.031739" lon="9.207822">
        <ele>455.307</ele>
        <time>2020-08-21T11:43:22Z</time>
      </trkpt>
      <trkpt lat="46.031750" lon="9.207816">
        <ele>455.808</ele>
        <time>2020-08-21T11:43:23Z</time>
      </trkpt>
      <trkpt lat="46.031779" lon="9.207796">
        <ele>456.238</ele>
        <time>2020-08-21T11:43:26Z</time>
      </trkpt>
      <trkpt lat="46.031792" lon="9.207800">
        <ele>456.218</ele>
        <time>2020-08-21T11:43:27Z</time>
      </trkpt>
      <trkpt lat="46.031805" lon="9.207803">
        <ele>456.247</ele>
        <time>2020-08-21T11:43:28Z</time>
      </trkpt>
      <trkpt lat="46.031920" lon="9.207850">
        <ele>458.647</ele>
        <time>2020-08-21T11:43:38Z</time>
      </trkpt>
      <trkpt lat="46.031928" lon="9.207861">
        <ele>458.654</ele>
        <time>2020-08-21T11:43:39Z</time>
      </trkpt>
      <trkpt lat="46.031936" lon="9.207871">
        <ele>458.686</ele>
        <time>2020-08-21T11:43:40Z</time>
      </trkpt>
      <trkpt lat="46.032080" lon="9.208168">
        <ele>461.044</ele>
        <time>2020-08-21T11:44:00Z</time>
      </trkpt>
      <trkpt lat="46.032124" lon="9.208457">
        <ele>463.451</ele>
        <time>2020-08-21T11:44:16Z</time>
      </trkpt>
      <trkpt lat="46.032153" lon="9.208569">
        <ele>463.962</ele>
        <time>2020-08-21T11:44:23Z</time>
      </trkpt>
      <trkpt lat="46.032165" lon="9.208574">
        <ele>464.483</ele>
        <time>2020-08-21T11:44:24Z</time>
      </trkpt>
      <trkpt lat="46.032181" lon="9.208574">
        <ele>464.411</ele>
        <time>2020-08-21T11:44:25Z</time>
      </trkpt>
      <trkpt lat="46.032201" lon="9.208567">
        <ele>465.408</ele>
        <time>2020-08-21T11:44:26Z</time>
      </trkpt>
      <trkpt lat="46.032213" lon="9.208555">
        <ele>465.461</ele>
        <time>2020-08-21T11:44:27Z</time>
      </trkpt>
      <trkpt lat="46.032229" lon="9.208539">
        <ele>465.421</ele>
        <time>2020-08-21T11:44:28Z</time>
      </trkpt>
      <trkpt lat="46.032240" lon="9.208521">
        <ele>465.460</ele>
        <time>2020-08-21T11:44:29Z</time>
      </trkpt>
      <trkpt lat="46.032247" lon="9.208498">
        <ele>465.450</ele>
        <time>2020-08-21T11:44:30Z</time>
      </trkpt>
      <trkpt lat="46.032251" lon="9.208476">
        <ele>465.477</ele>
        <time>2020-08-21T11:44:31Z</time>
      </trkpt>
      <trkpt lat="46.032254" lon="9.208455">
        <ele>465.429</ele>
        <time>2020-08-21T11:44:32Z</time>
      </trkpt>
      <trkpt lat="46.032259" lon="9.208433">
        <ele>465.987</ele>
        <time>2020-08-21T11:44:33Z</time>
      </trkpt>
      <trkpt lat="46.032266" lon="9.208413">
        <ele>465.914</ele>
        <time>2020-08-21T11:44:34Z</time>
      </trkpt>
      <trkpt lat="46.032272" lon="9.208393">
        <ele>465.965</ele>
        <time>2020-08-21T11:44:35Z</time>
      </trkpt>
      <trkpt lat="46.032275" lon="9.208371">
        <ele>465.968</ele>
        <time>2020-08-21T11:44:36Z</time>
      </trkpt>
      <trkpt lat="46.032275" lon="9.208347">
        <ele>466.314</ele>
        <time>2020-08-21T11:44:37Z</time>
      </trkpt>
      <trkpt lat="46.032274" lon="9.208327">
        <ele>466.308</ele>
        <time>2020-08-21T11:44:38Z</time>
      </trkpt>
      <trkpt lat="46.032269" lon="9.207959">
        <ele>468.741</ele>
        <time>2020-08-21T11:44:55Z</time>
      </trkpt>
      <trkpt lat="46.032214" lon="9.207522">
        <ele>472.191</ele>
        <time>2020-08-21T11:45:15Z</time>
      </trkpt>
      <trkpt lat="46.032028" lon="9.207193">
        <ele>474.530</ele>
        <time>2020-08-21T11:45:33Z</time>
      </trkpt>
      <trkpt lat="46.032063" lon="9.207081">
        <ele>476.450</ele>
        <time>2020-08-21T11:45:39Z</time>
      </trkpt>
      <trkpt lat="46.032087" lon="9.207086">
        <ele>476.427</ele>
        <time>2020-08-21T11:45:40Z</time>
      </trkpt>
      <trkpt lat="46.032104" lon="9.207093">
        <ele>476.459</ele>
        <time>2020-08-21T11:45:41Z</time>
      </trkpt>
      <trkpt lat="46.032120" lon="9.207105">
        <ele>476.457</ele>
        <time>2020-08-21T11:45:42Z</time>
      </trkpt>
      <trkpt lat="46.032134" lon="9.207114">
        <ele>476.474</ele>
        <time>2020-08-21T11:45:43Z</time>
      </trkpt>
      <trkpt lat="46.032150" lon="9.207125">
        <ele>476.477</ele>
        <time>2020-08-21T11:45:44Z</time>
      </trkpt>
      <trkpt lat="46.032168" lon="9.207139">
        <ele>476.961</ele>
        <time>2020-08-21T11:45:45Z</time>
      </trkpt>
      <trkpt lat="46.032184" lon="9.207151">
        <ele>476.927</ele>
        <time>2020-08-21T11:45:46Z</time>
      </trkpt>
      <trkpt lat="46.032199" lon="9.207164">
        <ele>476.908</ele>
        <time>2020-08-21T11:45:47Z</time>
      </trkpt>
      <trkpt lat="46.032392" lon="9.207122">
        <ele>479.372</ele>
        <time>2020-08-21T11:46:03Z</time>
      </trkpt>
      <trkpt lat="46.032308" lon="9.206746">
        <ele>482.772</ele>
        <time>2020-08-21T11:46:20Z</time>
      </trkpt>
      <trkpt lat="46.032250" lon="9.206407">
        <ele>483.691</ele>
        <time>2020-08-21T11:46:35Z</time>
      </trkpt>
      <trkpt lat="46.032137" lon="9.206060">
        <ele>486.011</ele>
        <time>2020-08-21T11:46:51Z</time>
      </trkpt>
      <trkpt lat="46.032046" lon="9.205925">
        <ele>487.518</ele>
        <time>2020-08-21T11:46:59Z</time>
      </trkpt>
      <trkpt lat="46.031831" lon="9.205844">
        <ele>488.910</ele>
        <time>2020-08-21T11:47:13Z</time>
      </trkpt>
      <trkpt lat="46.031827" lon="9.205820">
        <ele>489.918</ele>
        <time>2020-08-21T11:47:14Z</time>
      </trkpt>
      <trkpt lat="46.031830" lon="9.205798">
        <ele>489.965</ele>
        <time>2020-08-21T11:47:15Z</time>
      </trkpt>
      <trkpt lat="46.031839" lon="9.205775">
        <ele>489.954</ele>
        <time>2020-08-21T11:47:16Z</time>
      </trkpt>
      <trkpt lat="46.031853" lon="9.205757">
        <ele>490.456</ele>
        <time>2020-08-21T11:47:17Z</time>
      </trkpt>
      <trkpt lat="46.031866" lon="9.205745">
        <ele>490.411</ele>
        <time>2020-08-21T11:47:18Z</time>
      </trkpt>
      <trkpt lat="46.031877" lon="9.205727">
        <ele>490.408</ele>
        <time>2020-08-21T11:47:19Z</time>
      </trkpt>
      <trkpt lat="46.032094" lon="9.205530">
        <ele>493.720</ele>
        <time>2020-08-21T11:47:35Z</time>
      </trkpt>
      <trkpt lat="46.032239" lon="9.205174">
        <ele>496.130</ele>
        <time>2020-08-21T11:47:53Z</time>
      </trkpt>
      <trkpt lat="46.032447" lon="9.204784">
        <ele>498.569</ele>
        <time>2020-08-21T11:48:12Z</time>
      </trkpt>
      <trkpt lat="46.032781" lon="9.204275">
        <ele>498.559</ele>
        <time>2020-08-21T11:48:29Z</time>
      </trkpt>
      <trkpt lat="46.032964" lon="9.203914">
        <ele>499.046</ele>
        <time>2020-08-21T11:48:43Z</time>
      </trkpt>
      <trkpt lat="46.032969" lon="9.203865">
        <ele>499.068</ele>
        <time>2020-08-21T11:48:53Z</time>
      </trkpt>
      <trkpt lat="46.032970" lon="9.203832">
        <ele>499.056</ele>
        <time>2020-08-21T11:49:08Z</time>
      </trkpt>
      <trkpt lat="46.032973" lon="9.203809">
        <ele>499.023</ele>
        <time>2020-08-21T11:49:14Z</time>
      </trkpt>
      <trkpt lat="46.032972" lon="9.203788">
        <ele>499.087</ele>
        <time>2020-08-21T11:49:15Z</time>
      </trkpt>
      <trkpt lat="46.032973" lon="9.203764">
        <ele>499.042</ele>
        <time>2020-08-21T11:49:16Z</time>
      </trkpt>
      <trkpt lat="46.032972" lon="9.203735">
        <ele>499.026</ele>
        <time>2020-08-21T11:49:17Z</time>
      </trkpt>
      <trkpt lat="46.032975" lon="9.203699">
        <ele>499.008</ele>
        <time>2020-08-21T11:49:18Z</time>
      </trkpt>
      <trkpt lat="46.032977" lon="9.203666">
        <ele>499.073</ele>
        <time>2020-08-21T11:49:19Z</time>
      </trkpt>
      <trkpt lat="46.032976" lon="9.203630">
        <ele>499.063</ele>
        <time>2020-08-21T11:49:20Z</time>
      </trkpt>
      <trkpt lat="46.032976" lon="9.203592">
        <ele>499.092</ele>
        <time>2020-08-21T11:49:21Z</time>
      </trkpt>
      <trkpt lat="46.032978" lon="9.203552">
        <ele>499.082</ele>
        <time>2020-08-21T11:49:22Z</time>
      </trkpt>
      <trkpt lat="46.032985" lon="9.203512">
        <ele>499.029</ele>
        <time>2020-08-21T11:49:23Z</time>
      </trkpt>
      <trkpt lat="46.032998" lon="9.203471">
        <ele>499.091</ele>
        <time>2020-08-21T11:49:24Z</time>
      </trkpt>
      <trkpt lat="46.033017" lon="9.203432">
        <ele>499.039</ele>
        <time>2020-08-21T11:49:25Z</time>
      </trkpt>
      <trkpt lat="46.033037" lon="9.203402">
        <ele>499.026</ele>
        <time>2020-08-21T11:49:26Z</time>
      </trkpt>
      <trkpt lat="46.033060" lon="9.203375">
        <ele>499.068</ele>
        <time>2020-08-21T11:49:27Z</time>
      </trkpt>
      <trkpt lat="46.033086" lon="9.203354">
        <ele>499.042</ele>
        <time>2020-08-21T11:49:28Z</time>
      </trkpt>
      <trkpt lat="46.033109" lon="9.203341">
        <ele>499.026</ele>
        <time>2020-08-21T11:49:29Z</time>
      </trkpt>
      <trkpt lat="46.033142" lon="9.203328">
        <ele>499.008</ele>
        <time>2020-08-21T11:49:30Z</time>
      </trkpt>
      <trkpt lat="46.033402" lon="9.203468">
        <ele>501.411</ele>
        <time>2020-08-21T11:49:44Z</time>
      </trkpt>
      <trkpt lat="46.033502" lon="9.203844">
        <ele>503.881</ele>
        <time>2020-08-21T11:50:00Z</time>
      </trkpt>
      <trkpt lat="46.033538" lon="9.204188">
        <ele>505.390</ele>
        <time>2020-08-21T11:50:14Z</time>
      </trkpt>
      <trkpt lat="46.033596" lon="9.204611">
        <ele>507.720</ele>
        <time>2020-08-21T11:50:32Z</time>
      </trkpt>
      <trkpt lat="46.033671" lon="9.204659">
        <ele>508.667</ele>
        <time>2020-08-21T11:50:37Z</time>
      </trkpt>
      <trkpt lat="46.033686" lon="9.204644">
        <ele>508.669</ele>
        <time>2020-08-21T11:50:38Z</time>
      </trkpt>
      <trkpt lat="46.033700" lon="9.204626">
        <ele>508.647</ele>
        <time>2020-08-21T11:50:39Z</time>
      </trkpt>
      <trkpt lat="46.033709" lon="9.204604">
        <ele>508.684</ele>
        <time>2020-08-21T11:50:40Z</time>
      </trkpt>
      <trkpt lat="46.033714" lon="9.204579">
        <ele>508.639</ele>
        <time>2020-08-21T11:50:41Z</time>
      </trkpt>
      <trkpt lat="46.033717" lon="9.204554">
        <ele>508.601</ele>
        <time>2020-08-21T11:50:42Z</time>
      </trkpt>
      <trkpt lat="46.033728" lon="9.204356">
        <ele>510.121</ele>
        <time>2020-08-21T11:50:51Z</time>
      </trkpt>
      <trkpt lat="46.033735" lon="9.204334">
        <ele>510.108</ele>
        <time>2020-08-21T11:50:52Z</time>
      </trkpt>
      <trkpt lat="46.033739" lon="9.204308">
        <ele>510.698</ele>
        <time>2020-08-21T11:50:53Z</time>
      </trkpt>
      <trkpt lat="46.033739" lon="9.204285">
        <ele>510.688</ele>
        <time>2020-08-21T11:50:54Z</time>
      </trkpt>
      <trkpt lat="46.033742" lon="9.204263">
        <ele>510.667</ele>
        <time>2020-08-21T11:50:55Z</time>
      </trkpt>
      <trkpt lat="46.033747" lon="9.204237">
        <ele>510.687</ele>
        <time>2020-08-21T11:50:56Z</time>
      </trkpt>
      <trkpt lat="46.033753" lon="9.204212">
        <ele>511.584</ele>
        <time>2020-08-21T11:50:57Z</time>
      </trkpt>
      <trkpt lat="46.033780" lon="9.203939">
        <ele>513.456</ele>
        <time>2020-08-21T11:51:11Z</time>
      </trkpt>
      <trkpt lat="46.033791" lon="9.203927">
        <ele>513.414</ele>
        <time>2020-08-21T11:51:12Z</time>
      </trkpt>
      <trkpt lat="46.033805" lon="9.203917">
        <ele>513.471</ele>
        <time>2020-08-21T11:51:13Z</time>
      </trkpt>
      <trkpt lat="46.033817" lon="9.203916">
        <ele>513.943</ele>
        <time>2020-08-21T11:51:14Z</time>
      </trkpt>
      <trkpt lat="46.033830" lon="9.203922">
        <ele>514.464</ele>
        <time>2020-08-21T11:51:15Z</time>
      </trkpt>
      <trkpt lat="46.033842" lon="9.203934">
        <ele>514.410</ele>
        <time>2020-08-21T11:51:16Z</time>
      </trkpt>
      <trkpt lat="46.033852" lon="9.203949">
        <ele>514.908</ele>
        <time>2020-08-21T11:51:17Z</time>
      </trkpt>
      <trkpt lat="46.033861" lon="9.203965">
        <ele>514.929</ele>
        <time>2020-08-21T11:51:18Z</time>
      </trkpt>
      <trkpt lat="46.033869" lon="9.203983">
        <ele>514.929</ele>
        <time>2020-08-21T11:51:19Z</time>
      </trkpt>
      <trkpt lat="46.033875" lon="9.204003">
        <ele>515.488</ele>
        <time>2020-08-21T11:51:20Z</time>
      </trkpt>
      <trkpt lat="46.033880" lon="9.204026">
        <ele>515.498</ele>
        <time>2020-08-21T11:51:21Z</time>
      </trkpt>
      <trkpt lat="46.033885" lon="9.204048">
        <ele>515.485</ele>
        <time>2020-08-21T11:51:22Z</time>
      </trkpt>
      <trkpt lat="46.033893" lon="9.204077">
        <ele>515.447</ele>
        <time>2020-08-21T11:51:23Z</time>
      </trkpt>
      <trkpt lat="46.033896" lon="9.204091">
        <ele>515.465</ele>
        <time>2020-08-21T11:51:24Z</time>
      </trkpt>
      <trkpt lat="46.033935" lon="9.204523">
        <ele>517.812</ele>
        <time>2020-08-21T11:51:44Z</time>
      </trkpt>
      <trkpt lat="46.033914" lon="9.204886">
        <ele>520.652</ele>
        <time>2020-08-21T11:52:01Z</time>
      </trkpt>
      <trkpt lat="46.033833" lon="9.205130">
        <ele>522.653</ele>
        <time>2020-08-21T11:52:13Z</time>
      </trkpt>
      <trkpt lat="46.033830" lon="9.205144">
        <ele>522.608</ele>
        <time>2020-08-21T11:52:14Z</time>
      </trkpt>
      <trkpt lat="46.033826" lon="9.205168">
        <ele>523.008</ele>
        <time>2020-08-21T11:52:15Z</time>
      </trkpt>
      <trkpt lat="46.033824" lon="9.205184">
        <ele>523.060</ele>
        <time>2020-08-21T11:52:16Z</time>
      </trkpt>
      <trkpt lat="46.033820" lon="9.205206">
        <ele>523.080</ele>
        <time>2020-08-21T11:52:17Z</time>
      </trkpt>
      <trkpt lat="46.033806" lon="9.205584">
        <ele>525.019</ele>
        <time>2020-08-21T11:52:33Z</time>
      </trkpt>
      <trkpt lat="46.033982" lon="9.205795">
        <ele>527.479</ele>
        <time>2020-08-21T11:52:48Z</time>
      </trkpt>
      <trkpt lat="46.034311" lon="9.205624">
        <ele>529.866</ele>
        <time>2020-08-21T11:53:08Z</time>
      </trkpt>
      <trkpt lat="46.034596" lon="9.205456">
        <ele>532.228</ele>
        <time>2020-08-21T11:53:26Z</time>
      </trkpt>
      <trkpt lat="46.034863" lon="9.205494">
        <ele>535.576</ele>
        <time>2020-08-21T11:53:43Z</time>
      </trkpt>
      <trkpt lat="46.035006" lon="9.205853">
        <ele>537.513</ele>
        <time>2020-08-21T11:54:01Z</time>
      </trkpt>
      <trkpt lat="46.035122" lon="9.206024">
        <ele>538.945</ele>
        <time>2020-08-21T11:54:12Z</time>
      </trkpt>
      <trkpt lat="46.035137" lon="9.206010">
        <ele>539.947</ele>
        <time>2020-08-21T11:54:13Z</time>
      </trkpt>
      <trkpt lat="46.035180" lon="9.205934">
        <ele>539.911</ele>
        <time>2020-08-21T11:54:17Z</time>
      </trkpt>
      <trkpt lat="46.035181" lon="9.205911">
        <ele>540.408</ele>
        <time>2020-08-21T11:54:18Z</time>
      </trkpt>
      <trkpt lat="46.035181" lon="9.205884">
        <ele>540.419</ele>
        <time>2020-08-21T11:54:19Z</time>
      </trkpt>
      <trkpt lat="46.035181" lon="9.205859">
        <ele>540.839</ele>
        <time>2020-08-21T11:54:20Z</time>
      </trkpt>
      <trkpt lat="46.035181" lon="9.205831">
        <ele>540.818</ele>
        <time>2020-08-21T11:54:21Z</time>
      </trkpt>
      <trkpt lat="46.035202" lon="9.205303">
        <ele>543.288</ele>
        <time>2020-08-21T11:54:41Z</time>
      </trkpt>
      <trkpt lat="46.035318" lon="9.205141">
        <ele>544.255</ele>
        <time>2020-08-21T11:54:50Z</time>
      </trkpt>
      <trkpt lat="46.035338" lon="9.205142">
        <ele>545.217</ele>
        <time>2020-08-21T11:54:51Z</time>
      </trkpt>
      <trkpt lat="46.035505" lon="9.205419">
        <ele>547.115</ele>
        <time>2020-08-21T11:55:06Z</time>
      </trkpt>
      <trkpt lat="46.035591" lon="9.205909">
        <ele>548.072</ele>
        <time>2020-08-21T11:55:23Z</time>
      </trkpt>
      <trkpt lat="46.035840" lon="9.206246">
        <ele>550.944</ele>
        <time>2020-08-21T11:55:42Z</time>
      </trkpt>
      <trkpt lat="46.036094" lon="9.206407">
        <ele>553.805</ele>
        <time>2020-08-21T11:56:00Z</time>
      </trkpt>
      <trkpt lat="46.036353" lon="9.206497">
        <ele>557.215</ele>
        <time>2020-08-21T11:56:17Z</time>
      </trkpt>
      <trkpt lat="46.036527" lon="9.206424">
        <ele>559.608</ele>
        <time>2020-08-21T11:56:30Z</time>
      </trkpt>
      <trkpt lat="46.036525" lon="9.206401">
        <ele>559.159</ele>
        <time>2020-08-21T11:56:31Z</time>
      </trkpt>
      <trkpt lat="46.036518" lon="9.206378">
        <ele>559.689</ele>
        <time>2020-08-21T11:56:32Z</time>
      </trkpt>
      <trkpt lat="46.036504" lon="9.206357">
        <ele>559.668</ele>
        <time>2020-08-21T11:56:33Z</time>
      </trkpt>
      <trkpt lat="46.036493" lon="9.206345">
        <ele>560.178</ele>
        <time>2020-08-21T11:56:34Z</time>
      </trkpt>
      <trkpt lat="46.036474" lon="9.206332">
        <ele>559.635</ele>
        <time>2020-08-21T11:56:35Z</time>
      </trkpt>
      <trkpt lat="46.036260" lon="9.206146">
        <ele>562.587</ele>
        <time>2020-08-21T11:56:52Z</time>
      </trkpt>
      <trkpt lat="46.036173" lon="9.206034">
        <ele>563.965</ele>
        <time>2020-08-21T11:57:00Z</time>
      </trkpt>
      <trkpt lat="46.036170" lon="9.206016">
        <ele>564.432</ele>
        <time>2020-08-21T11:57:01Z</time>
      </trkpt>
      <trkpt lat="46.036170" lon="9.205994">
        <ele>564.464</ele>
        <time>2020-08-21T11:57:02Z</time>
      </trkpt>
      <trkpt lat="46.036175" lon="9.205971">
        <ele>564.406</ele>
        <time>2020-08-21T11:57:03Z</time>
      </trkpt>
      <trkpt lat="46.036187" lon="9.205953">
        <ele>564.416</ele>
        <time>2020-08-21T11:57:04Z</time>
      </trkpt>
      <trkpt lat="46.036202" lon="9.205943">
        <ele>564.408</ele>
        <time>2020-08-21T11:57:05Z</time>
      </trkpt>
      <trkpt lat="46.036217" lon="9.205941">
        <ele>564.411</ele>
        <time>2020-08-21T11:57:06Z</time>
      </trkpt>
      <trkpt lat="46.036233" lon="9.205945">
        <ele>564.921</ele>
        <time>2020-08-21T11:57:07Z</time>
      </trkpt>
      <trkpt lat="46.036418" lon="9.206094">
        <ele>566.830</ele>
        <time>2020-08-21T11:57:22Z</time>
      </trkpt>
      <trkpt lat="46.036479" lon="9.206080">
        <ele>567.330</ele>
        <time>2020-08-21T11:57:26Z</time>
      </trkpt>
      <trkpt lat="46.036492" lon="9.206062">
        <ele>567.337</ele>
        <time>2020-08-21T11:57:27Z</time>
      </trkpt>
      <trkpt lat="46.036501" lon="9.206044">
        <ele>567.319</ele>
        <time>2020-08-21T11:57:28Z</time>
      </trkpt>
      <trkpt lat="46.036507" lon="9.206027">
        <ele>567.837</ele>
        <time>2020-08-21T11:57:29Z</time>
      </trkpt>
      <trkpt lat="46.036511" lon="9.206005">
        <ele>567.874</ele>
        <time>2020-08-21T11:57:30Z</time>
      </trkpt>
      <trkpt lat="46.036510" lon="9.205983">
        <ele>568.252</ele>
        <time>2020-08-21T11:57:31Z</time>
      </trkpt>
      <trkpt lat="46.036503" lon="9.205963">
        <ele>568.253</ele>
        <time>2020-08-21T11:57:32Z</time>
      </trkpt>
      <trkpt lat="46.036492" lon="9.205945">
        <ele>568.208</ele>
        <time>2020-08-21T11:57:33Z</time>
      </trkpt>
      <trkpt lat="46.036479" lon="9.205927">
        <ele>568.208</ele>
        <time>2020-08-21T11:57:34Z</time>
      </trkpt>
      <trkpt lat="46.036464" lon="9.205912">
        <ele>569.210</ele>
        <time>2020-08-21T11:57:35Z</time>
      </trkpt>
      <trkpt lat="46.036449" lon="9.205898">
        <ele>569.210</ele>
        <time>2020-08-21T11:57:36Z</time>
      </trkpt>
      <trkpt lat="46.036436" lon="9.205889">
        <ele>569.229</ele>
        <time>2020-08-21T11:57:37Z</time>
      </trkpt>
      <trkpt lat="46.036359" lon="9.205649">
        <ele>571.629</ele>
        <time>2020-08-21T11:57:49Z</time>
      </trkpt>
      <trkpt lat="46.036333" lon="9.205491">
        <ele>573.056</ele>
        <time>2020-08-21T11:57:56Z</time>
      </trkpt>
      <trkpt lat="46.036349" lon="9.205140">
        <ele>575.458</ele>
        <time>2020-08-21T11:58:13Z</time>
      </trkpt>
      <trkpt lat="46.036369" lon="9.205074">
        <ele>575.936</ele>
        <time>2020-08-21T11:58:16Z</time>
      </trkpt>
      <trkpt lat="46.036380" lon="9.205063">
        <ele>575.933</ele>
        <time>2020-08-21T11:58:17Z</time>
      </trkpt>
      <trkpt lat="46.036398" lon="9.205062">
        <ele>575.915</ele>
        <time>2020-08-21T11:58:18Z</time>
      </trkpt>
      <trkpt lat="46.036413" lon="9.205069">
        <ele>575.965</ele>
        <time>2020-08-21T11:58:19Z</time>
      </trkpt>
      <trkpt lat="46.036423" lon="9.205083">
        <ele>576.911</ele>
        <time>2020-08-21T11:58:20Z</time>
      </trkpt>
      <trkpt lat="46.036429" lon="9.205104">
        <ele>576.908</ele>
        <time>2020-08-21T11:58:21Z</time>
      </trkpt>
      <trkpt lat="46.036431" lon="9.205126">
        <ele>576.926</ele>
        <time>2020-08-21T11:58:22Z</time>
      </trkpt>
      <trkpt lat="46.036433" lon="9.205147">
        <ele>576.996</ele>
        <time>2020-08-21T11:58:23Z</time>
      </trkpt>
      <trkpt lat="46.036436" lon="9.205168">
        <ele>577.435</ele>
        <time>2020-08-21T11:58:24Z</time>
      </trkpt>
      <trkpt lat="46.036439" lon="9.205188">
        <ele>577.415</ele>
        <time>2020-08-21T11:58:25Z</time>
      </trkpt>
      <trkpt lat="46.036441" lon="9.205206">
        <ele>577.872</ele>
        <time>2020-08-21T11:58:26Z</time>
      </trkpt>
      <trkpt lat="46.036443" lon="9.205232">
        <ele>577.854</ele>
        <time>2020-08-21T11:58:27Z</time>
      </trkpt>
      <trkpt lat="46.036445" lon="9.205247">
        <ele>578.382</ele>
        <time>2020-08-21T11:58:28Z</time>
      </trkpt>
      <trkpt lat="46.036445" lon="9.205269">
        <ele>578.349</ele>
        <time>2020-08-21T11:58:29Z</time>
      </trkpt>
      <trkpt lat="46.036444" lon="9.205288">
        <ele>578.338</ele>
        <time>2020-08-21T11:58:30Z</time>
      </trkpt>
      <trkpt lat="46.036444" lon="9.205310">
        <ele>578.370</ele>
        <time>2020-08-21T11:58:31Z</time>
      </trkpt>
      <trkpt lat="46.036447" lon="9.205334">
        <ele>578.817</ele>
        <time>2020-08-21T11:58:32Z</time>
      </trkpt>
      <trkpt lat="46.036558" lon="9.205640">
        <ele>581.708</ele>
        <time>2020-08-21T11:58:48Z</time>
      </trkpt>
      <trkpt lat="46.036574" lon="9.205639">
        <ele>581.788</ele>
        <time>2020-08-21T11:58:49Z</time>
      </trkpt>
      <trkpt lat="46.036603" lon="9.205618">
        <ele>581.248</ele>
        <time>2020-08-21T11:58:51Z</time>
      </trkpt>
      <trkpt lat="46.036552" lon="9.205397">
        <ele>581.797</ele>
        <time>2020-08-21T11:59:01Z</time>
      </trkpt>
      <trkpt lat="46.036498" lon="9.205052">
        <ele>584.677</ele>
        <time>2020-08-21T11:59:15Z</time>
      </trkpt>
      <trkpt lat="46.036504" lon="9.204678">
        <ele>587.534</ele>
        <time>2020-08-21T11:59:30Z</time>
      </trkpt>
      <trkpt lat="46.036529" lon="9.204281">
        <ele>589.936</ele>
        <time>2020-08-21T11:59:46Z</time>
      </trkpt>
      <trkpt lat="46.036547" lon="9.204089">
        <ele>591.334</ele>
        <time>2020-08-21T11:59:54Z</time>
      </trkpt>
      <trkpt lat="46.036649" lon="9.204095">
        <ele>592.711</ele>
        <time>2020-08-21T12:00:02Z</time>
      </trkpt>
      <trkpt lat="46.036611" lon="9.204544">
        <ele>595.672</ele>
        <time>2020-08-21T12:00:22Z</time>
      </trkpt>
      <trkpt lat="46.036676" lon="9.204878">
        <ele>598.013</ele>
        <time>2020-08-21T12:00:37Z</time>
      </trkpt>
      <trkpt lat="46.036681" lon="9.204922">
        <ele>598.014</ele>
        <time>2020-08-21T12:00:39Z</time>
      </trkpt>
      <trkpt lat="46.036838" lon="9.205132">
        <ele>600.408</ele>
        <time>2020-08-21T12:00:53Z</time>
      </trkpt>
      <trkpt lat="46.037113" lon="9.205175">
        <ele>603.352</ele>
        <time>2020-08-21T12:01:10Z</time>
      </trkpt>
      <trkpt lat="46.037325" lon="9.205082">
        <ele>605.772</ele>
        <time>2020-08-21T12:01:25Z</time>
      </trkpt>
      <trkpt lat="46.037540" lon="9.204946">
        <ele>608.651</ele>
        <time>2020-08-21T12:01:41Z</time>
      </trkpt>
      <trkpt lat="46.037714" lon="9.204788">
        <ele>610.051</ele>
        <time>2020-08-21T12:01:55Z</time>
      </trkpt>
      <trkpt lat="46.037965" lon="9.204742">
        <ele>612.098</ele>
        <time>2020-08-21T12:02:12Z</time>
      </trkpt>
      <trkpt lat="46.038135" lon="9.204962">
        <ele>613.920</ele>
        <time>2020-08-21T12:02:26Z</time>
      </trkpt>
      <trkpt lat="46.038387" lon="9.204881">
        <ele>616.348</ele>
        <time>2020-08-21T12:02:42Z</time>
      </trkpt>
      <trkpt lat="46.038595" lon="9.204815">
        <ele>617.775</ele>
        <time>2020-08-21T12:02:53Z</time>
      </trkpt>
      <trkpt lat="46.038802" lon="9.204887">
        <ele>619.273</ele>
        <time>2020-08-21T12:03:05Z</time>
      </trkpt>
      <trkpt lat="46.039025" lon="9.204604">
        <ele>621.685</ele>
        <time>2020-08-21T12:03:22Z</time>
      </trkpt>
      <trkpt lat="46.039137" lon="9.204166">
        <ele>624.513</ele>
        <time>2020-08-21T12:03:43Z</time>
      </trkpt>
      <trkpt lat="46.039232" lon="9.203800">
        <ele>626.408</ele>
        <time>2020-08-21T12:04:00Z</time>
      </trkpt>
      <trkpt lat="46.039317" lon="9.203568">
        <ele>627.882</ele>
        <time>2020-08-21T12:04:11Z</time>
      </trkpt>
      <trkpt lat="46.039189" lon="9.203499">
        <ele>629.312</ele>
        <time>2020-08-21T12:04:23Z</time>
      </trkpt>
      <trkpt lat="46.039174" lon="9.203507">
        <ele>629.341</ele>
        <time>2020-08-21T12:04:24Z</time>
      </trkpt>
      <trkpt lat="46.039129" lon="9.203518">
        <ele>630.291</ele>
        <time>2020-08-21T12:04:27Z</time>
      </trkpt>
      <trkpt lat="46.039090" lon="9.203403">
        <ele>632.258</ele>
        <time>2020-08-21T12:04:34Z</time>
      </trkpt>
      <trkpt lat="46.039138" lon="9.202993">
        <ele>635.560</ele>
        <time>2020-08-21T12:04:51Z</time>
      </trkpt>
      <trkpt lat="46.039214" lon="9.202683">
        <ele>637.488</ele>
        <time>2020-08-21T12:05:07Z</time>
      </trkpt>
      <trkpt lat="46.039389" lon="9.202461">
        <ele>639.885</ele>
        <time>2020-08-21T12:05:23Z</time>
      </trkpt>
      <trkpt lat="46.039520" lon="9.202133">
        <ele>641.834</ele>
        <time>2020-08-21T12:05:40Z</time>
      </trkpt>
      <trkpt lat="46.039637" lon="9.201792">
        <ele>644.755</ele>
        <time>2020-08-21T12:05:57Z</time>
      </trkpt>
      <trkpt lat="46.039710" lon="9.201545">
        <ele>647.510</ele>
        <time>2020-08-21T12:06:10Z</time>
      </trkpt>
      <trkpt lat="46.039825" lon="9.201245">
        <ele>648.008</ele>
        <time>2020-08-21T12:06:24Z</time>
      </trkpt>
      <trkpt lat="46.040015" lon="9.200963">
        <ele>649.518</ele>
        <time>2020-08-21T12:06:40Z</time>
      </trkpt>
      <trkpt lat="46.040075" lon="9.200915">
        <ele>650.428</ele>
        <time>2020-08-21T12:06:44Z</time>
      </trkpt>
      <trkpt lat="46.040324" lon="9.201014">
        <ele>652.897</ele>
        <time>2020-08-21T12:06:59Z</time>
      </trkpt>
      <trkpt lat="46.040465" lon="9.201165">
        <ele>654.897</ele>
        <time>2020-08-21T12:07:12Z</time>
      </trkpt>
      <trkpt lat="46.040545" lon="9.201271">
        <ele>655.234</ele>
        <time>2020-08-21T12:07:19Z</time>
      </trkpt>
      <trkpt lat="46.040623" lon="9.201178">
        <ele>656.266</ele>
        <time>2020-08-21T12:07:26Z</time>
      </trkpt>
      <trkpt lat="46.040729" lon="9.200779">
        <ele>657.244</ele>
        <time>2020-08-21T12:07:42Z</time>
      </trkpt>
      <trkpt lat="46.040712" lon="9.200298">
        <ele>657.691</ele>
        <time>2020-08-21T12:07:58Z</time>
      </trkpt>
      <trkpt lat="46.040797" lon="9.199800">
        <ele>657.641</ele>
        <time>2020-08-21T12:08:13Z</time>
      </trkpt>
      <trkpt lat="46.040933" lon="9.199396">
        <ele>657.681</ele>
        <time>2020-08-21T12:08:25Z</time>
      </trkpt>
      <trkpt lat="46.040947" lon="9.199358">
        <ele>656.709</ele>
        <time>2020-08-21T12:08:36Z</time>
      </trkpt>
      <trkpt lat="46.040939" lon="9.199343">
        <ele>656.708</ele>
        <time>2020-08-21T12:09:05Z</time>
      </trkpt>
      <trkpt lat="46.040918" lon="9.199346">
        <ele>657.249</ele>
        <time>2020-08-21T12:09:33Z</time>
      </trkpt>
      <trkpt lat="46.040946" lon="9.199331">
        <ele>657.299</ele>
        <time>2020-08-21T12:09:56Z</time>
      </trkpt>
      <trkpt lat="46.040949" lon="9.199342">
        <ele>657.668</ele>
        <time>2020-08-21T12:10:25Z</time>
      </trkpt>
      <trkpt lat="46.040954" lon="9.199356">
        <ele>657.658</ele>
        <time>2020-08-21T12:10:47Z</time>
      </trkpt>
      <trkpt lat="46.040959" lon="9.199368">
        <ele>657.685</ele>
        <time>2020-08-21T12:11:08Z</time>
      </trkpt>
      <trkpt lat="46.040966" lon="9.199372">
        <ele>658.147</ele>
        <time>2020-08-21T12:11:32Z</time>
      </trkpt>
      <trkpt lat="46.040936" lon="9.199338">
        <ele>658.195</ele>
        <time>2020-08-21T12:11:56Z</time>
      </trkpt>
      <trkpt lat="46.040932" lon="9.199336">
        <ele>658.162</ele>
        <time>2020-08-21T12:12:10Z</time>
      </trkpt>
      <trkpt lat="46.040927" lon="9.199314">
        <ele>658.183</ele>
        <time>2020-08-21T12:12:11Z</time>
      </trkpt>
      <trkpt lat="46.040920" lon="9.199298">
        <ele>658.125</ele>
        <time>2020-08-21T12:12:12Z</time>
      </trkpt>
      <trkpt lat="46.040914" lon="9.199279">
        <ele>658.117</ele>
        <time>2020-08-21T12:12:13Z</time>
      </trkpt>
      <trkpt lat="46.040915" lon="9.199260">
        <ele>658.108</ele>
        <time>2020-08-21T12:12:14Z</time>
      </trkpt>
      <trkpt lat="46.040921" lon="9.199234">
        <ele>658.163</ele>
        <time>2020-08-21T12:12:15Z</time>
      </trkpt>
      <trkpt lat="46.040927" lon="9.199209">
        <ele>658.133</ele>
        <time>2020-08-21T12:12:16Z</time>
      </trkpt>
      <trkpt lat="46.040930" lon="9.199180">
        <ele>658.192</ele>
        <time>2020-08-21T12:12:17Z</time>
      </trkpt>
      <trkpt lat="46.040932" lon="9.199155">
        <ele>658.122</ele>
        <time>2020-08-21T12:12:18Z</time>
      </trkpt>
      <trkpt lat="46.040934" lon="9.199125">
        <ele>658.169</ele>
        <time>2020-08-21T12:12:19Z</time>
      </trkpt>
      <trkpt lat="46.040968" lon="9.198602">
        <ele>660.011</ele>
        <time>2020-08-21T12:12:36Z</time>
      </trkpt>
      <trkpt lat="46.040930" lon="9.198278">
        <ele>660.029</ele>
        <time>2020-08-21T12:12:44Z</time>
      </trkpt>
      <trkpt lat="46.040912" lon="9.198211">
        <ele>658.626</ele>
        <time>2020-08-21T12:12:45Z</time>
      </trkpt>
      <trkpt lat="46.040884" lon="9.198151">
        <ele>658.133</ele>
        <time>2020-08-21T12:12:46Z</time>
      </trkpt>
      <trkpt lat="46.040843" lon="9.198087">
        <ele>657.223</ele>
        <time>2020-08-21T12:12:47Z</time>
      </trkpt>
      <trkpt lat="46.040796" lon="9.198023">
        <ele>657.215</ele>
        <time>2020-08-21T12:12:48Z</time>
      </trkpt>
      <trkpt lat="46.040641" lon="9.197804">
        <ele>654.808</ele>
        <time>2020-08-21T12:12:51Z</time>
      </trkpt>
      <trkpt lat="46.040601" lon="9.197718">
        <ele>654.378</ele>
        <time>2020-08-21T12:12:52Z</time>
      </trkpt>
      <trkpt lat="46.040581" lon="9.197619">
        <ele>653.338</ele>
        <time>2020-08-21T12:12:53Z</time>
      </trkpt>
      <trkpt lat="46.040578" lon="9.197509">
        <ele>652.347</ele>
        <time>2020-08-21T12:12:54Z</time>
      </trkpt>
      <trkpt lat="46.040581" lon="9.197386">
        <ele>652.397</ele>
        <time>2020-08-21T12:12:55Z</time>
      </trkpt>
      <trkpt lat="46.040584" lon="9.197028">
        <ele>650.974</ele>
        <time>2020-08-21T12:12:58Z</time>
      </trkpt>
      <trkpt lat="46.040579" lon="9.196807">
        <ele>649.086</ele>
        <time>2020-08-21T12:13:00Z</time>
      </trkpt>
      <trkpt lat="46.040560" lon="9.196692">
        <ele>648.524</ele>
        <time>2020-08-21T12:13:01Z</time>
      </trkpt>
      <trkpt lat="46.040529" lon="9.196588">
        <ele>648.541</ele>
        <time>2020-08-21T12:13:02Z</time>
      </trkpt>
      <trkpt lat="46.040485" lon="9.196494">
        <ele>647.512</ele>
        <time>2020-08-21T12:13:03Z</time>
      </trkpt>
      <trkpt lat="46.040428" lon="9.196395">
        <ele>646.632</ele>
        <time>2020-08-21T12:13:04Z</time>
      </trkpt>
      <trkpt lat="46.040383" lon="9.196316">
        <ele>645.605</ele>
        <time>2020-08-21T12:13:05Z</time>
      </trkpt>
      <trkpt lat="46.040344" lon="9.196221">
        <ele>644.708</ele>
        <time>2020-08-21T12:13:06Z</time>
      </trkpt>
      <trkpt lat="46.040323" lon="9.196115">
        <ele>644.726</ele>
        <time>2020-08-21T12:13:07Z</time>
      </trkpt>
      <trkpt lat="46.040315" lon="9.195997">
        <ele>642.716</ele>
        <time>2020-08-21T12:13:08Z</time>
      </trkpt>
      <trkpt lat="46.040321" lon="9.195889">
        <ele>642.335</ele>
        <time>2020-08-21T12:13:09Z</time>
      </trkpt>
      <trkpt lat="46.040338" lon="9.195785">
        <ele>641.315</ele>
        <time>2020-08-21T12:13:10Z</time>
      </trkpt>
      <trkpt lat="46.040358" lon="9.195689">
        <ele>640.352</ele>
        <time>2020-08-21T12:13:11Z</time>
      </trkpt>
      <trkpt lat="46.040384" lon="9.195539">
        <ele>638.414</ele>
        <time>2020-08-21T12:13:13Z</time>
      </trkpt>
      <trkpt lat="46.040392" lon="9.195425">
        <ele>637.042</ele>
        <time>2020-08-21T12:13:15Z</time>
      </trkpt>
      <trkpt lat="46.040423" lon="9.195136">
        <ele>635.089</ele>
        <time>2020-08-21T12:13:20Z</time>
      </trkpt>
      <trkpt lat="46.040439" lon="9.195076">
        <ele>634.137</ele>
        <time>2020-08-21T12:13:21Z</time>
      </trkpt>
      <trkpt lat="46.040506" lon="9.194795">
        <ele>632.249</ele>
        <time>2020-08-21T12:13:25Z</time>
      </trkpt>
      <trkpt lat="46.040605" lon="9.194325">
        <ele>628.313</ele>
        <time>2020-08-21T12:13:31Z</time>
      </trkpt>
      <trkpt lat="46.040726" lon="9.193903">
        <ele>625.408</ele>
        <time>2020-08-21T12:13:37Z</time>
      </trkpt>
      <trkpt lat="46.040765" lon="9.193763">
        <ele>624.558</ele>
        <time>2020-08-21T12:13:39Z</time>
      </trkpt>
      <trkpt lat="46.040899" lon="9.193313">
        <ele>621.158</ele>
        <time>2020-08-21T12:13:45Z</time>
      </trkpt>
      <trkpt lat="46.040951" lon="9.193169">
        <ele>620.637</ele>
        <time>2020-08-21T12:13:47Z</time>
      </trkpt>
      <trkpt lat="46.040975" lon="9.193108">
        <ele>619.767</ele>
        <time>2020-08-21T12:13:48Z</time>
      </trkpt>
      <trkpt lat="46.040991" lon="9.193043">
        <ele>619.274</ele>
        <time>2020-08-21T12:13:49Z</time>
      </trkpt>
      <trkpt lat="46.040997" lon="9.192978">
        <ele>618.716</ele>
        <time>2020-08-21T12:13:50Z</time>
      </trkpt>
      <trkpt lat="46.040999" lon="9.192910">
        <ele>618.224</ele>
        <time>2020-08-21T12:13:51Z</time>
      </trkpt>
      <trkpt lat="46.041003" lon="9.192791">
        <ele>618.251</ele>
        <time>2020-08-21T12:13:53Z</time>
      </trkpt>
      <trkpt lat="46.041029" lon="9.192550">
        <ele>616.818</ele>
        <time>2020-08-21T12:13:56Z</time>
      </trkpt>
      <trkpt lat="46.041107" lon="9.192071">
        <ele>613.998</ele>
        <time>2020-08-21T12:14:03Z</time>
      </trkpt>
      <trkpt lat="46.041234" lon="9.191480">
        <ele>611.017</ele>
        <time>2020-08-21T12:14:11Z</time>
      </trkpt>
      <trkpt lat="46.041247" lon="9.191325">
        <ele>610.008</ele>
        <time>2020-08-21T12:14:13Z</time>
      </trkpt>
      <trkpt lat="46.041272" lon="9.191068">
        <ele>607.216</ele>
        <time>2020-08-21T12:14:19Z</time>
      </trkpt>
      <trkpt lat="46.041266" lon="9.191032">
        <ele>606.276</ele>
        <time>2020-08-21T12:14:30Z</time>
      </trkpt>
      <trkpt lat="46.041252" lon="9.191022">
        <ele>605.755</ele>
        <time>2020-08-21T12:15:06Z</time>
      </trkpt>
      <trkpt lat="46.041261" lon="9.191040">
        <ele>605.775</ele>
        <time>2020-08-21T12:15:37Z</time>
      </trkpt>
      <trkpt lat="46.041251" lon="9.191045">
        <ele>605.772</ele>
        <time>2020-08-21T12:16:06Z</time>
      </trkpt>
      <trkpt lat="46.041247" lon="9.191018">
        <ele>605.744</ele>
        <time>2020-08-21T12:16:41Z</time>
      </trkpt>
      <trkpt lat="46.041304" lon="9.190923">
        <ele>605.792</ele>
        <time>2020-08-21T12:16:57Z</time>
      </trkpt>
      <trkpt lat="46.041433" lon="9.190333">
        <ele>602.449</ele>
        <time>2020-08-21T12:17:07Z</time>
      </trkpt>
      <trkpt lat="46.041451" lon="9.190272">
        <ele>602.492</ele>
        <time>2020-08-21T12:17:08Z</time>
      </trkpt>
      <trkpt lat="46.041479" lon="9.190210">
        <ele>601.473</ele>
        <time>2020-08-21T12:17:09Z</time>
      </trkpt>
      <trkpt lat="46.041494" lon="9.190165">
        <ele>600.920</ele>
        <time>2020-08-21T12:17:10Z</time>
      </trkpt>
      <trkpt lat="46.041508" lon="9.190109">
        <ele>600.408</ele>
        <time>2020-08-21T12:17:11Z</time>
      </trkpt>
      <trkpt lat="46.041518" lon="9.190041">
        <ele>600.484</ele>
        <time>2020-08-21T12:17:12Z</time>
      </trkpt>
      <trkpt lat="46.041522" lon="9.189970">
        <ele>599.594</ele>
        <time>2020-08-21T12:17:13Z</time>
      </trkpt>
      <trkpt lat="46.041522" lon="9.189887">
        <ele>599.543</ele>
        <time>2020-08-21T12:17:14Z</time>
      </trkpt>
      <trkpt lat="46.041518" lon="9.189794">
        <ele>599.013</ele>
        <time>2020-08-21T12:17:15Z</time>
      </trkpt>
      <trkpt lat="46.041460" lon="9.189279">
        <ele>595.640</ele>
        <time>2020-08-21T12:17:20Z</time>
      </trkpt>
      <trkpt lat="46.041450" lon="9.189079">
        <ele>593.752</ele>
        <time>2020-08-21T12:17:22Z</time>
      </trkpt>
      <trkpt lat="46.041461" lon="9.188994">
        <ele>593.210</ele>
        <time>2020-08-21T12:17:23Z</time>
      </trkpt>
      <trkpt lat="46.041488" lon="9.188906">
        <ele>592.777</ele>
        <time>2020-08-21T12:17:24Z</time>
      </trkpt>
      <trkpt lat="46.041637" lon="9.188525">
        <ele>589.967</ele>
        <time>2020-08-21T12:17:28Z</time>
      </trkpt>
      <trkpt lat="46.041713" lon="9.188329">
        <ele>588.981</ele>
        <time>2020-08-21T12:17:30Z</time>
      </trkpt>
      <trkpt lat="46.041834" lon="9.188014">
        <ele>585.519</ele>
        <time>2020-08-21T12:17:33Z</time>
      </trkpt>
      <trkpt lat="46.042037" lon="9.187460">
        <ele>581.708</ele>
        <time>2020-08-21T12:17:38Z</time>
      </trkpt>
      <trkpt lat="46.042180" lon="9.187036">
        <ele>579.361</ele>
        <time>2020-08-21T12:17:42Z</time>
      </trkpt>
      <trkpt lat="46.042202" lon="9.186921">
        <ele>578.851</ele>
        <time>2020-08-21T12:17:43Z</time>
      </trkpt>
      <trkpt lat="46.042236" lon="9.186682">
        <ele>577.830</ele>
        <time>2020-08-21T12:17:45Z</time>
      </trkpt>
      <trkpt lat="46.042344" lon="9.186073">
        <ele>574.580</ele>
        <time>2020-08-21T12:17:50Z</time>
      </trkpt>
      <trkpt lat="46.042458" lon="9.185579">
        <ele>571.617</ele>
        <time>2020-08-21T12:17:54Z</time>
      </trkpt>
      <trkpt lat="46.042597" lon="9.185103">
        <ele>567.389</ele>
        <time>2020-08-21T12:17:58Z</time>
      </trkpt>
      <trkpt lat="46.042722" lon="9.184734">
        <ele>563.997</ele>
        <time>2020-08-21T12:18:01Z</time>
      </trkpt>
      <trkpt lat="46.042850" lon="9.184348">
        <ele>562.544</ele>
        <time>2020-08-21T12:18:04Z</time>
      </trkpt>
      <trkpt lat="46.042999" lon="9.183993">
        <ele>561.047</ele>
        <time>2020-08-21T12:18:07Z</time>
      </trkpt>
      <trkpt lat="46.043067" lon="9.183893">
        <ele>560.529</ele>
        <time>2020-08-21T12:18:08Z</time>
      </trkpt>
      <trkpt lat="46.043276" lon="9.183645">
        <ele>560.121</ele>
        <time>2020-08-21T12:18:11Z</time>
      </trkpt>
      <trkpt lat="46.043337" lon="9.183552">
        <ele>560.108</ele>
        <time>2020-08-21T12:18:12Z</time>
      </trkpt>
      <trkpt lat="46.043480" lon="9.183267">
        <ele>559.669</ele>
        <time>2020-08-21T12:18:15Z</time>
      </trkpt>
      <trkpt lat="46.043510" lon="9.183175">
        <ele>560.149</ele>
        <time>2020-08-21T12:18:16Z</time>
      </trkpt>
      <trkpt lat="46.043529" lon="9.183088">
        <ele>559.688</ele>
        <time>2020-08-21T12:18:17Z</time>
      </trkpt>
      <trkpt lat="46.043624" lon="9.182650">
        <ele>562.518</ele>
        <time>2020-08-21T12:18:26Z</time>
      </trkpt>
      <trkpt lat="46.043685" lon="9.182164">
        <ele>563.915</ele>
        <time>2020-08-21T12:18:39Z</time>
      </trkpt>
      <trkpt lat="46.043691" lon="9.182106">
        <ele>563.937</ele>
        <time>2020-08-21T12:18:40Z</time>
      </trkpt>
      <trkpt lat="46.043734" lon="9.181852">
        <ele>563.935</ele>
        <time>2020-08-21T12:18:44Z</time>
      </trkpt>
      <trkpt lat="46.043838" lon="9.181368">
        <ele>562.562</ele>
        <time>2020-08-21T12:18:51Z</time>
      </trkpt>
      <trkpt lat="46.043845" lon="9.181297">
        <ele>562.584</ele>
        <time>2020-08-21T12:18:52Z</time>
      </trkpt>
      <trkpt lat="46.043853" lon="9.181228">
        <ele>562.507</ele>
        <time>2020-08-21T12:18:53Z</time>
      </trkpt>
      <trkpt lat="46.043865" lon="9.181168">
        <ele>562.517</ele>
        <time>2020-08-21T12:18:54Z</time>
      </trkpt>
      <trkpt lat="46.044062" lon="9.180148">
        <ele>561.508</ele>
        <time>2020-08-21T12:19:10Z</time>
      </trkpt>
      <trkpt lat="46.044217" lon="9.179557">
        <ele>561.543</ele>
        <time>2020-08-21T12:19:22Z</time>
      </trkpt>
      <trkpt lat="46.044243" lon="9.179454">
        <ele>561.093</ele>
        <time>2020-08-21T12:19:25Z</time>
      </trkpt>
      <trkpt lat="46.044256" lon="9.179442">
        <ele>560.522</ele>
        <time>2020-08-21T12:19:26Z</time>
      </trkpt>
      <trkpt lat="46.044273" lon="9.179434">
        <ele>560.522</ele>
        <time>2020-08-21T12:19:27Z</time>
      </trkpt>
      <trkpt lat="46.044294" lon="9.179423">
        <ele>560.559</ele>
        <time>2020-08-21T12:19:28Z</time>
      </trkpt>
      <trkpt lat="46.044316" lon="9.179412">
        <ele>560.551</ele>
        <time>2020-08-21T12:19:29Z</time>
      </trkpt>
      <trkpt lat="46.044340" lon="9.179393">
        <ele>560.199</ele>
        <time>2020-08-21T12:19:30Z</time>
      </trkpt>
      <trkpt lat="46.044358" lon="9.179370">
        <ele>560.126</ele>
        <time>2020-08-21T12:19:31Z</time>
      </trkpt>
      <trkpt lat="46.044370" lon="9.179352">
        <ele>560.166</ele>
        <time>2020-08-21T12:19:32Z</time>
      </trkpt>
      <trkpt lat="46.044380" lon="9.179335">
        <ele>560.129</ele>
        <time>2020-08-21T12:19:33Z</time>
      </trkpt>
      <trkpt lat="46.044377" lon="9.179329">
        <ele>559.621</ele>
        <time>2020-08-21T12:19:46Z</time>
      </trkpt>
      <trkpt lat="46.044371" lon="9.179324">
        <ele>559.108</ele>
        <time>2020-08-21T12:20:13Z</time>
      </trkpt>
      <trkpt lat="46.044382" lon="9.179306">
        <ele>559.161</ele>
        <time>2020-08-21T12:20:39Z</time>
      </trkpt>
      <trkpt lat="46.044379" lon="9.179314">
        <ele>559.171</ele>
        <time>2020-08-21T12:21:09Z</time>
      </trkpt>
      <trkpt lat="46.044375" lon="9.179316">
        <ele>559.190</ele>
        <time>2020-08-21T12:21:35Z</time>
      </trkpt>
      <trkpt lat="46.044408" lon="9.179283">
        <ele>558.620</ele>
        <time>2020-08-21T12:21:53Z</time>
      </trkpt>
      <trkpt lat="46.044454" lon="9.179220">
        <ele>558.647</ele>
        <time>2020-08-21T12:22:07Z</time>
      </trkpt>
      <trkpt lat="46.044458" lon="9.179228">
        <ele>558.619</ele>
        <time>2020-08-21T12:22:24Z</time>
      </trkpt>
      <trkpt lat="46.044458" lon="9.179247">
        <ele>558.617</ele>
        <time>2020-08-21T12:22:49Z</time>
      </trkpt>
      <trkpt lat="46.044436" lon="9.179244">
        <ele>558.664</ele>
        <time>2020-08-21T12:23:12Z</time>
      </trkpt>
      <trkpt lat="46.044423" lon="9.179244">
        <ele>558.683</ele>
        <time>2020-08-21T12:23:34Z</time>
      </trkpt>
      <trkpt lat="46.044425" lon="9.179245">
        <ele>559.125</ele>
        <time>2020-08-21T12:24:05Z</time>
      </trkpt>
      <trkpt lat="46.044426" lon="9.179246">
        <ele>559.117</ele>
        <time>2020-08-21T12:24:31Z</time>
      </trkpt>
      <trkpt lat="46.044421" lon="9.179256">
        <ele>559.108</ele>
        <time>2020-08-21T12:24:55Z</time>
      </trkpt>
      <trkpt lat="46.044449" lon="9.179239">
        <ele>560.163</ele>
        <time>2020-08-21T12:25:11Z</time>
      </trkpt>
      <trkpt lat="46.044518" lon="9.179139">
        <ele>560.173</ele>
        <time>2020-08-21T12:25:21Z</time>
      </trkpt>
      <trkpt lat="46.044538" lon="9.179119">
        <ele>560.122</ele>
        <time>2020-08-21T12:25:22Z</time>
      </trkpt>
      <trkpt lat="46.044555" lon="9.179094">
        <ele>560.172</ele>
        <time>2020-08-21T12:25:23Z</time>
      </trkpt>
      <trkpt lat="46.044574" lon="9.179065">
        <ele>560.179</ele>
        <time>2020-08-21T12:25:24Z</time>
      </trkpt>
      <trkpt lat="46.044595" lon="9.179036">
        <ele>560.181</ele>
        <time>2020-08-21T12:25:25Z</time>
      </trkpt>
      <trkpt lat="46.045005" lon="9.178572">
        <ele>560.169</ele>
        <time>2020-08-21T12:25:39Z</time>
      </trkpt>
      <trkpt lat="46.045027" lon="9.178519">
        <ele>560.196</ele>
        <time>2020-08-21T12:25:40Z</time>
      </trkpt>
      <trkpt lat="46.045047" lon="9.178460">
        <ele>560.169</ele>
        <time>2020-08-21T12:25:41Z</time>
      </trkpt>
      <trkpt lat="46.045063" lon="9.178395">
        <ele>560.104</ele>
        <time>2020-08-21T12:25:42Z</time>
      </trkpt>
      <trkpt lat="46.045077" lon="9.178323">
        <ele>560.124</ele>
        <time>2020-08-21T12:25:43Z</time>
      </trkpt>
      <trkpt lat="46.045088" lon="9.178253">
        <ele>560.108</ele>
        <time>2020-08-21T12:25:44Z</time>
      </trkpt>
      <trkpt lat="46.045103" lon="9.178183">
        <ele>560.121</ele>
        <time>2020-08-21T12:25:45Z</time>
      </trkpt>
      <trkpt lat="46.045119" lon="9.178110">
        <ele>558.631</ele>
        <time>2020-08-21T12:25:46Z</time>
      </trkpt>
      <trkpt lat="46.045134" lon="9.178036">
        <ele>558.610</ele>
        <time>2020-08-21T12:25:47Z</time>
      </trkpt>
      <trkpt lat="46.045175" lon="9.177876">
        <ele>558.180</ele>
        <time>2020-08-21T12:25:49Z</time>
      </trkpt>
      <trkpt lat="46.045201" lon="9.177809">
        <ele>558.137</ele>
        <time>2020-08-21T12:25:50Z</time>
      </trkpt>
      <trkpt lat="46.045235" lon="9.177737">
        <ele>556.759</ele>
        <time>2020-08-21T12:25:51Z</time>
      </trkpt>
      <trkpt lat="46.045274" lon="9.177667">
        <ele>556.737</ele>
        <time>2020-08-21T12:25:52Z</time>
      </trkpt>
      <trkpt lat="46.045318" lon="9.177598">
        <ele>556.254</ele>
        <time>2020-08-21T12:25:53Z</time>
      </trkpt>
      <trkpt lat="46.045739" lon="9.176957">
        <ele>553.812</ele>
        <time>2020-08-21T12:26:02Z</time>
      </trkpt>
      <trkpt lat="46.045779" lon="9.176873">
        <ele>553.832</ele>
        <time>2020-08-21T12:26:03Z</time>
      </trkpt>
      <trkpt lat="46.045813" lon="9.176791">
        <ele>553.305</ele>
        <time>2020-08-21T12:26:04Z</time>
      </trkpt>
      <trkpt lat="46.045843" lon="9.176701">
        <ele>552.908</ele>
        <time>2020-08-21T12:26:05Z</time>
      </trkpt>
      <trkpt lat="46.045864" lon="9.176605">
        <ele>551.946</ele>
        <time>2020-08-21T12:26:06Z</time>
      </trkpt>
      <trkpt lat="46.045876" lon="9.176509">
        <ele>551.446</ele>
        <time>2020-08-21T12:26:07Z</time>
      </trkpt>
      <trkpt lat="46.045888" lon="9.176412">
        <ele>551.435</ele>
        <time>2020-08-21T12:26:08Z</time>
      </trkpt>
      <trkpt lat="46.045902" lon="9.176302">
        <ele>550.425</ele>
        <time>2020-08-21T12:26:09Z</time>
      </trkpt>
      <trkpt lat="46.046108" lon="9.174633">
        <ele>548.532</ele>
        <time>2020-08-21T12:26:26Z</time>
      </trkpt>
      <trkpt lat="46.046333" lon="9.173225">
        <ele>546.624</ele>
        <time>2020-08-21T12:26:43Z</time>
      </trkpt>
      <trkpt lat="46.046479" lon="9.172872">
        <ele>546.112</ele>
        <time>2020-08-21T12:26:48Z</time>
      </trkpt>
      <trkpt lat="46.046500" lon="9.172787">
        <ele>546.199</ele>
        <time>2020-08-21T12:26:49Z</time>
      </trkpt>
      <trkpt lat="46.046513" lon="9.172708">
        <ele>546.112</ele>
        <time>2020-08-21T12:26:50Z</time>
      </trkpt>
      <trkpt lat="46.046675" lon="9.171871">
        <ele>542.832</ele>
        <time>2020-08-21T12:26:59Z</time>
      </trkpt>
      <trkpt lat="46.046708" lon="9.171803">
        <ele>542.805</ele>
        <time>2020-08-21T12:27:00Z</time>
      </trkpt>
      <trkpt lat="46.046757" lon="9.171724">
        <ele>542.308</ele>
        <time>2020-08-21T12:27:01Z</time>
      </trkpt>
      <trkpt lat="46.047063" lon="9.171184">
        <ele>540.816</ele>
        <time>2020-08-21T12:27:08Z</time>
      </trkpt>
      <trkpt lat="46.047093" lon="9.171097">
        <ele>540.816</ele>
        <time>2020-08-21T12:27:09Z</time>
      </trkpt>
      <trkpt lat="46.047304" lon="9.170208">
        <ele>540.485</ele>
        <time>2020-08-21T12:27:21Z</time>
      </trkpt>
      <trkpt lat="46.047428" lon="9.169714">
        <ele>540.425</ele>
        <time>2020-08-21T12:27:29Z</time>
      </trkpt>
      <trkpt lat="46.047482" lon="9.169527">
        <ele>540.422</ele>
        <time>2020-08-21T12:27:32Z</time>
      </trkpt>
      <trkpt lat="46.047739" lon="9.168456">
        <ele>540.494</ele>
        <time>2020-08-21T12:27:49Z</time>
      </trkpt>
      <trkpt lat="46.047760" lon="9.168392">
        <ele>540.422</ele>
        <time>2020-08-21T12:27:50Z</time>
      </trkpt>
      <trkpt lat="46.048041" lon="9.167409">
        <ele>539.489</ele>
        <time>2020-08-21T12:28:05Z</time>
      </trkpt>
      <trkpt lat="46.048144" lon="9.167046">
        <ele>540.854</ele>
        <time>2020-08-21T12:28:12Z</time>
      </trkpt>
      <trkpt lat="46.048173" lon="9.166421">
        <ele>542.356</ele>
        <time>2020-08-21T12:28:24Z</time>
      </trkpt>
      <trkpt lat="46.048184" lon="9.166345">
        <ele>542.311</ele>
        <time>2020-08-21T12:28:25Z</time>
      </trkpt>
      <trkpt lat="46.048202" lon="9.166266">
        <ele>540.808</ele>
        <time>2020-08-21T12:28:26Z</time>
      </trkpt>
      <trkpt lat="46.048226" lon="9.166185">
        <ele>540.890</ele>
        <time>2020-08-21T12:28:27Z</time>
      </trkpt>
      <trkpt lat="46.048274" lon="9.165997">
        <ele>539.470</ele>
        <time>2020-08-21T12:28:29Z</time>
      </trkpt>
      <trkpt lat="46.048282" lon="9.165908">
        <ele>539.419</ele>
        <time>2020-08-21T12:28:30Z</time>
      </trkpt>
      <trkpt lat="46.048278" lon="9.165787">
        <ele>538.469</ele>
        <time>2020-08-21T12:28:31Z</time>
      </trkpt>
      <trkpt lat="46.048266" lon="9.165710">
        <ele>537.536</ele>
        <time>2020-08-21T12:28:32Z</time>
      </trkpt>
      <trkpt lat="46.048244" lon="9.165618">
        <ele>536.558</ele>
        <time>2020-08-21T12:28:33Z</time>
      </trkpt>
      <trkpt lat="46.048218" lon="9.165531">
        <ele>536.096</ele>
        <time>2020-08-21T12:28:34Z</time>
      </trkpt>
      <trkpt lat="46.048190" lon="9.165447">
        <ele>535.533</ele>
        <time>2020-08-21T12:28:35Z</time>
      </trkpt>
      <trkpt lat="46.048107" lon="9.165121">
        <ele>533.684</ele>
        <time>2020-08-21T12:28:39Z</time>
      </trkpt>
      <trkpt lat="46.048062" lon="9.164765">
        <ele>530.307</ele>
        <time>2020-08-21T12:28:44Z</time>
      </trkpt>
      <trkpt lat="46.048048" lon="9.164439">
        <ele>526.417</ele>
        <time>2020-08-21T12:28:53Z</time>
      </trkpt>
      <trkpt lat="46.048041" lon="9.164440">
        <ele>526.908</ele>
        <time>2020-08-21T12:29:18Z</time>
      </trkpt>
      <trkpt lat="46.048031" lon="9.164438">
        <ele>526.423</ele>
        <time>2020-08-21T12:29:52Z</time>
      </trkpt>
      <trkpt lat="46.048084" lon="9.164185">
        <ele>525.573</ele>
        <time>2020-08-21T12:30:03Z</time>
      </trkpt>
      <trkpt lat="46.048101" lon="9.164121">
        <ele>525.092</ele>
        <time>2020-08-21T12:30:04Z</time>
      </trkpt>
      <trkpt lat="46.048350" lon="9.163404">
        <ele>522.192</ele>
        <time>2020-08-21T12:30:12Z</time>
      </trkpt>
      <trkpt lat="46.048551" lon="9.162892">
        <ele>519.759</ele>
        <time>2020-08-21T12:30:17Z</time>
      </trkpt>
      <trkpt lat="46.048602" lon="9.162798">
        <ele>518.791</ele>
        <time>2020-08-21T12:30:18Z</time>
      </trkpt>
      <trkpt lat="46.048655" lon="9.162702">
        <ele>518.779</ele>
        <time>2020-08-21T12:30:19Z</time>
      </trkpt>
      <trkpt lat="46.048703" lon="9.162598">
        <ele>517.886</ele>
        <time>2020-08-21T12:30:20Z</time>
      </trkpt>
      <trkpt lat="46.048740" lon="9.162485">
        <ele>517.818</ele>
        <time>2020-08-21T12:30:21Z</time>
      </trkpt>
      <trkpt lat="46.048768" lon="9.162359">
        <ele>517.398</ele>
        <time>2020-08-21T12:30:22Z</time>
      </trkpt>
      <trkpt lat="46.048785" lon="9.162247">
        <ele>517.317</ele>
        <time>2020-08-21T12:30:23Z</time>
      </trkpt>
      <trkpt lat="46.048995" lon="9.160766">
        <ele>514.908</ele>
        <time>2020-08-21T12:30:36Z</time>
      </trkpt>
      <trkpt lat="46.049037" lon="9.159656">
        <ele>511.076</ele>
        <time>2020-08-21T12:30:46Z</time>
      </trkpt>
      <trkpt lat="46.049011" lon="9.159081">
        <ele>507.716</ele>
        <time>2020-08-21T12:30:51Z</time>
      </trkpt>
      <trkpt lat="46.049023" lon="9.158965">
        <ele>507.215</ele>
        <time>2020-08-21T12:30:52Z</time>
      </trkpt>
      <trkpt lat="46.049046" lon="9.158851">
        <ele>506.245</ele>
        <time>2020-08-21T12:30:53Z</time>
      </trkpt>
      <trkpt lat="46.049085" lon="9.158730">
        <ele>505.312</ele>
        <time>2020-08-21T12:30:54Z</time>
      </trkpt>
      <trkpt lat="46.049126" lon="9.158637">
        <ele>505.394</ele>
        <time>2020-08-21T12:30:55Z</time>
      </trkpt>
      <trkpt lat="46.049193" lon="9.158511">
        <ele>503.812</ele>
        <time>2020-08-21T12:30:56Z</time>
      </trkpt>
      <trkpt lat="46.049230" lon="9.158441">
        <ele>503.389</ele>
        <time>2020-08-21T12:30:57Z</time>
      </trkpt>
      <trkpt lat="46.049279" lon="9.158335">
        <ele>502.461</ele>
        <time>2020-08-21T12:30:58Z</time>
      </trkpt>
      <trkpt lat="46.049320" lon="9.158227">
        <ele>502.421</ele>
        <time>2020-08-21T12:30:59Z</time>
      </trkpt>
      <trkpt lat="46.049352" lon="9.158115">
        <ele>501.413</ele>
        <time>2020-08-21T12:31:00Z</time>
      </trkpt>
      <trkpt lat="46.049377" lon="9.158003">
        <ele>501.408</ele>
        <time>2020-08-21T12:31:01Z</time>
      </trkpt>
      <trkpt lat="46.049399" lon="9.157879">
        <ele>500.571</ele>
        <time>2020-08-21T12:31:02Z</time>
      </trkpt>
      <trkpt lat="46.049445" lon="9.157416">
        <ele>497.621</ele>
        <time>2020-08-21T12:31:06Z</time>
      </trkpt>
      <trkpt lat="46.049474" lon="9.156956">
        <ele>494.290</ele>
        <time>2020-08-21T12:31:10Z</time>
      </trkpt>
      <trkpt lat="46.049484" lon="9.156745">
        <ele>492.880</ele>
        <time>2020-08-21T12:31:12Z</time>
      </trkpt>
      <trkpt lat="46.049467" lon="9.156443">
        <ele>490.427</ele>
        <time>2020-08-21T12:31:15Z</time>
      </trkpt>
      <trkpt lat="46.049448" lon="9.156281">
        <ele>488.469</ele>
        <time>2020-08-21T12:31:17Z</time>
      </trkpt>
      <trkpt lat="46.049446" lon="9.156211">
        <ele>488.017</ele>
        <time>2020-08-21T12:31:18Z</time>
      </trkpt>
      <trkpt lat="46.049450" lon="9.156144">
        <ele>487.514</ele>
        <time>2020-08-21T12:31:19Z</time>
      </trkpt>
      <trkpt lat="46.049459" lon="9.156076">
        <ele>486.558</ele>
        <time>2020-08-21T12:31:20Z</time>
      </trkpt>
      <trkpt lat="46.049474" lon="9.156001">
        <ele>486.052</ele>
        <time>2020-08-21T12:31:21Z</time>
      </trkpt>
      <trkpt lat="46.049495" lon="9.155932">
        <ele>486.017</ele>
        <time>2020-08-21T12:31:22Z</time>
      </trkpt>
      <trkpt lat="46.049518" lon="9.155866">
        <ele>485.108</ele>
        <time>2020-08-21T12:31:23Z</time>
      </trkpt>
      <trkpt lat="46.049555" lon="9.155778">
        <ele>485.140</ele>
        <time>2020-08-21T12:31:24Z</time>
      </trkpt>
      <trkpt lat="46.049791" lon="9.155246">
        <ele>483.290</ele>
        <time>2020-08-21T12:31:31Z</time>
      </trkpt>
      <trkpt lat="46.049808" lon="9.155182">
        <ele>483.229</ele>
        <time>2020-08-21T12:31:32Z</time>
      </trkpt>
      <trkpt lat="46.049819" lon="9.154938">
        <ele>480.839</ele>
        <time>2020-08-21T12:33:07Z</time>
      </trkpt>
      <trkpt lat="46.049833" lon="9.154948">
        <ele>480.846</ele>
        <time>2020-08-21T12:33:08Z</time>
      </trkpt>
      <trkpt lat="46.049849" lon="9.154960">
        <ele>480.868</ele>
        <time>2020-08-21T12:33:09Z</time>
      </trkpt>
      <trkpt lat="46.049868" lon="9.154970">
        <ele>482.266</ele>
        <time>2020-08-21T12:33:10Z</time>
      </trkpt>
      <trkpt lat="46.049888" lon="9.154971">
        <ele>482.293</ele>
        <time>2020-08-21T12:33:11Z</time>
      </trkpt>
      <trkpt lat="46.049909" lon="9.154963">
        <ele>482.241</ele>
        <time>2020-08-21T12:33:12Z</time>
      </trkpt>
      <trkpt lat="46.049929" lon="9.154950">
        <ele>482.281</ele>
        <time>2020-08-21T12:33:13Z</time>
      </trkpt>
      <trkpt lat="46.049947" lon="9.154933">
        <ele>482.209</ele>
        <time>2020-08-21T12:33:14Z</time>
      </trkpt>
      <trkpt lat="46.049966" lon="9.154912">
        <ele>482.208</ele>
        <time>2020-08-21T12:33:15Z</time>
      </trkpt>
      <trkpt lat="46.050264" lon="9.154412">
        <ele>483.289</ele>
        <time>2020-08-21T12:33:31Z</time>
      </trkpt>
      <trkpt lat="46.050525" lon="9.153940">
        <ele>484.699</ele>
        <time>2020-08-21T12:33:45Z</time>
      </trkpt>
      <trkpt lat="46.050824" lon="9.153255">
        <ele>486.038</ele>
        <time>2020-08-21T12:34:03Z</time>
      </trkpt>
      <trkpt lat="46.050905" lon="9.153066">
        <ele>486.018</ele>
        <time>2020-08-21T12:34:07Z</time>
      </trkpt>
      <trkpt lat="46.051117" lon="9.152569">
        <ele>484.625</ele>
        <time>2020-08-21T12:34:16Z</time>
      </trkpt>
      <trkpt lat="46.051422" lon="9.151807">
        <ele>483.237</ele>
        <time>2020-08-21T12:34:28Z</time>
      </trkpt>
      <trkpt lat="46.051433" lon="9.151743">
        <ele>482.745</ele>
        <time>2020-08-21T12:34:29Z</time>
      </trkpt>
      <trkpt lat="46.051452" lon="9.151602">
        <ele>482.272</ele>
        <time>2020-08-21T12:34:31Z</time>
      </trkpt>
      <trkpt lat="46.051470" lon="9.151533">
        <ele>482.273</ele>
        <time>2020-08-21T12:34:32Z</time>
      </trkpt>
      <trkpt lat="46.051495" lon="9.151473">
        <ele>481.785</ele>
        <time>2020-08-21T12:34:33Z</time>
      </trkpt>
      <trkpt lat="46.051536" lon="9.151397">
        <ele>477.413</ele>
        <time>2020-08-21T12:34:34Z</time>
      </trkpt>
      <trkpt lat="46.051571" lon="9.151336">
        <ele>484.108</ele>
        <time>2020-08-21T12:34:35Z</time>
      </trkpt>
      <trkpt lat="46.051644" lon="9.151229">
        <ele>481.782</ele>
        <time>2020-08-21T12:34:37Z</time>
      </trkpt>
      <trkpt lat="46.052103" lon="9.150658">
        <ele>480.362</ele>
        <time>2020-08-21T12:34:50Z</time>
      </trkpt>
      <trkpt lat="46.052388" lon="9.150275">
        <ele>482.291</ele>
        <time>2020-08-21T12:35:04Z</time>
      </trkpt>
      <trkpt lat="46.052506" lon="9.149785">
        <ele>482.731</ele>
        <time>2020-08-21T12:35:17Z</time>
      </trkpt>
      <trkpt lat="46.052641" lon="9.149293">
        <ele>483.698</ele>
        <time>2020-08-21T12:35:30Z</time>
      </trkpt>
      <trkpt lat="46.052869" lon="9.148884">
        <ele>486.080</ele>
        <time>2020-08-21T12:35:45Z</time>
      </trkpt>
      <trkpt lat="46.053224" lon="9.148584">
        <ele>487.558</ele>
        <time>2020-08-21T12:36:01Z</time>
      </trkpt>
      <trkpt lat="46.053546" lon="9.148317">
        <ele>490.445</ele>
        <time>2020-08-21T12:36:18Z</time>
      </trkpt>
      <trkpt lat="46.053802" lon="9.148081">
        <ele>491.365</ele>
        <time>2020-08-21T12:36:30Z</time>
      </trkpt>
      <trkpt lat="46.054028" lon="9.147839">
        <ele>491.868</ele>
        <time>2020-08-21T12:36:40Z</time>
      </trkpt>
      <trkpt lat="46.054363" lon="9.147583">
        <ele>493.214</ele>
        <time>2020-08-21T12:36:57Z</time>
      </trkpt>
      <trkpt lat="46.054756" lon="9.147423">
        <ele>493.208</ele>
        <time>2020-08-21T12:37:11Z</time>
      </trkpt>
      <trkpt lat="46.055005" lon="9.147306">
        <ele>491.831</ele>
        <time>2020-08-21T12:37:18Z</time>
      </trkpt>
      <trkpt lat="46.055041" lon="9.147296">
        <ele>491.871</ele>
        <time>2020-08-21T12:37:19Z</time>
      </trkpt>
      <trkpt lat="46.055082" lon="9.147291">
        <ele>491.890</ele>
        <time>2020-08-21T12:37:20Z</time>
      </trkpt>
      <trkpt lat="46.055355" lon="9.147259">
        <ele>488.940</ele>
        <time>2020-08-21T12:37:27Z</time>
      </trkpt>
      <trkpt lat="46.055510" lon="9.147188">
        <ele>487.537</ele>
        <time>2020-08-21T12:37:31Z</time>
      </trkpt>
      <trkpt lat="46.055931" lon="9.147041">
        <ele>484.699</ele>
        <time>2020-08-21T12:37:42Z</time>
      </trkpt>
      <trkpt lat="46.056202" lon="9.146968">
        <ele>484.687</ele>
        <time>2020-08-21T12:37:54Z</time>
      </trkpt>
      <trkpt lat="46.056446" lon="9.146806">
        <ele>486.014</ele>
        <time>2020-08-21T12:38:07Z</time>
      </trkpt>
      <trkpt lat="46.056689" lon="9.146524">
        <ele>488.085</ele>
        <time>2020-08-21T12:38:22Z</time>
      </trkpt>
      <trkpt lat="46.056825" lon="9.146360">
        <ele>488.489</ele>
        <time>2020-08-21T12:38:30Z</time>
      </trkpt>
      <trkpt lat="46.056826" lon="9.146330">
        <ele>488.417</ele>
        <time>2020-08-21T12:38:31Z</time>
      </trkpt>
      <trkpt lat="46.056824" lon="9.146300">
        <ele>488.908</ele>
        <time>2020-08-21T12:38:32Z</time>
      </trkpt>
      <trkpt lat="46.056822" lon="9.146152">
        <ele>489.933</ele>
        <time>2020-08-21T12:38:38Z</time>
      </trkpt>
      <trkpt lat="46.056901" lon="9.146025">
        <ele>491.813</ele>
        <time>2020-08-21T12:38:49Z</time>
      </trkpt>
      <trkpt lat="46.057005" lon="9.145815">
        <ele>493.722</ele>
        <time>2020-08-21T12:39:04Z</time>
      </trkpt>
      <trkpt lat="46.057083" lon="9.145636">
        <ele>496.692</ele>
        <time>2020-08-21T12:39:20Z</time>
      </trkpt>
      <trkpt lat="46.057218" lon="9.145615">
        <ele>499.519</ele>
        <time>2020-08-21T12:39:37Z</time>
      </trkpt>
      <trkpt lat="46.057367" lon="9.145719">
        <ele>502.951</ele>
        <time>2020-08-21T12:39:53Z</time>
      </trkpt>
      <trkpt lat="46.057481" lon="9.145765">
        <ele>504.889</ele>
        <time>2020-08-21T12:40:07Z</time>
      </trkpt>
      <trkpt lat="46.057609" lon="9.145708">
        <ele>508.176</ele>
        <time>2020-08-21T12:40:21Z</time>
      </trkpt>
      <trkpt lat="46.057659" lon="9.145667">
        <ele>509.145</ele>
        <time>2020-08-21T12:40:28Z</time>
      </trkpt>
      <trkpt lat="46.057715" lon="9.145652">
        <ele>510.647</ele>
        <time>2020-08-21T12:40:35Z</time>
      </trkpt>
      <trkpt lat="46.057783" lon="9.145630">
        <ele>512.011</ele>
        <time>2020-08-21T12:40:43Z</time>
      </trkpt>
      <trkpt lat="46.057796" lon="9.145632">
        <ele>512.508</ele>
        <time>2020-08-21T12:40:44Z</time>
      </trkpt>
      <trkpt lat="46.057851" lon="9.145629">
        <ele>513.989</ele>
        <time>2020-08-21T12:40:50Z</time>
      </trkpt>
      <trkpt lat="46.057957" lon="9.145613">
        <ele>515.879</ele>
        <time>2020-08-21T12:41:02Z</time>
      </trkpt>
      <trkpt lat="46.058063" lon="9.145586">
        <ele>518.798</ele>
        <time>2020-08-21T12:41:17Z</time>
      </trkpt>
      <trkpt lat="46.058178" lon="9.145571">
        <ele>521.138</ele>
        <time>2020-08-21T12:41:31Z</time>
      </trkpt>
      <trkpt lat="46.058308" lon="9.145551">
        <ele>524.075</ele>
        <time>2020-08-21T12:41:45Z</time>
      </trkpt>
      <trkpt lat="46.058442" lon="9.145519">
        <ele>526.917</ele>
        <time>2020-08-21T12:42:00Z</time>
      </trkpt>
      <trkpt lat="46.058494" lon="9.145451">
        <ele>528.375</ele>
        <time>2020-08-21T12:42:09Z</time>
      </trkpt>
      <trkpt lat="46.058553" lon="9.145320">
        <ele>530.762</ele>
        <time>2020-08-21T12:42:23Z</time>
      </trkpt>
      <trkpt lat="46.058594" lon="9.145152">
        <ele>533.662</ele>
        <time>2020-08-21T12:42:37Z</time>
      </trkpt>
      <trkpt lat="46.058652" lon="9.144993">
        <ele>536.083</ele>
        <time>2020-08-21T12:42:51Z</time>
      </trkpt>
      <trkpt lat="46.058726" lon="9.144826">
        <ele>538.911</ele>
        <time>2020-08-21T12:43:06Z</time>
      </trkpt>
      <trkpt lat="46.058800" lon="9.144761">
        <ele>539.908</ele>
        <time>2020-08-21T12:43:14Z</time>
      </trkpt>
      <trkpt lat="46.058926" lon="9.144644">
        <ele>542.311</ele>
        <time>2020-08-21T12:43:29Z</time>
      </trkpt>
      <trkpt lat="46.059018" lon="9.144663">
        <ele>544.741</ele>
        <time>2020-08-21T12:43:41Z</time>
      </trkpt>
      <trkpt lat="46.059149" lon="9.144656">
        <ele>547.610</ele>
        <time>2020-08-21T12:43:55Z</time>
      </trkpt>
      <trkpt lat="46.059220" lon="9.144569">
        <ele>550.420</ele>
        <time>2020-08-21T12:44:08Z</time>
      </trkpt>
      <trkpt lat="46.059284" lon="9.144534">
        <ele>551.927</ele>
        <time>2020-08-21T12:44:21Z</time>
      </trkpt>
      <trkpt lat="46.059377" lon="9.144593">
        <ele>554.349</ele>
        <time>2020-08-21T12:44:36Z</time>
      </trkpt>
      <trkpt lat="46.059469" lon="9.144643">
        <ele>555.747</ele>
        <time>2020-08-21T12:44:50Z</time>
      </trkpt>
      <trkpt lat="46.059572" lon="9.144763">
        <ele>558.634</ele>
        <time>2020-08-21T12:45:06Z</time>
      </trkpt>
      <trkpt lat="46.059659" lon="9.144889">
        <ele>560.575</ele>
        <time>2020-08-21T12:45:23Z</time>
      </trkpt>
      <trkpt lat="46.059711" lon="9.144950">
        <ele>562.028</ele>
        <time>2020-08-21T12:45:32Z</time>
      </trkpt>
      <trkpt lat="46.059825" lon="9.145048">
        <ele>564.420</ele>
        <time>2020-08-21T12:45:51Z</time>
      </trkpt>
      <trkpt lat="46.059890" lon="9.145069">
        <ele>566.308</ele>
        <time>2020-08-21T12:46:05Z</time>
      </trkpt>
      <trkpt lat="46.059924" lon="9.145069">
        <ele>566.372</ele>
        <time>2020-08-21T12:46:10Z</time>
      </trkpt>
      <trkpt lat="46.059935" lon="9.145067">
        <ele>566.362</ele>
        <time>2020-08-21T12:46:11Z</time>
      </trkpt>
      <trkpt lat="46.060075" lon="9.145095">
        <ele>568.771</ele>
        <time>2020-08-21T12:46:24Z</time>
      </trkpt>
      <trkpt lat="46.060205" lon="9.145130">
        <ele>571.141</ele>
        <time>2020-08-21T12:46:38Z</time>
      </trkpt>
      <trkpt lat="46.060285" lon="9.145134">
        <ele>574.028</ele>
        <time>2020-08-21T12:46:50Z</time>
      </trkpt>
      <trkpt lat="46.060400" lon="9.145135">
        <ele>576.450</ele>
        <time>2020-08-21T12:47:03Z</time>
      </trkpt>
      <trkpt lat="46.060515" lon="9.145133">
        <ele>578.338</ele>
        <time>2020-08-21T12:47:15Z</time>
      </trkpt>
      <trkpt lat="46.060611" lon="9.145091">
        <ele>580.715</ele>
        <time>2020-08-21T12:47:28Z</time>
      </trkpt>
      <trkpt lat="46.060752" lon="9.145013">
        <ele>583.134</ele>
        <time>2020-08-21T12:47:43Z</time>
      </trkpt>
      <trkpt lat="46.060831" lon="9.144900">
        <ele>585.555</ele>
        <time>2020-08-21T12:47:57Z</time>
      </trkpt>
      <trkpt lat="46.060891" lon="9.144792">
        <ele>587.910</ele>
        <time>2020-08-21T12:48:10Z</time>
      </trkpt>
      <trkpt lat="46.060986" lon="9.144733">
        <ele>590.308</ele>
        <time>2020-08-21T12:48:21Z</time>
      </trkpt>
      <trkpt lat="46.061072" lon="9.144690">
        <ele>591.818</ele>
        <time>2020-08-21T12:48:31Z</time>
      </trkpt>
      <trkpt lat="46.061135" lon="9.144641">
        <ele>592.758</ele>
        <time>2020-08-21T12:48:37Z</time>
      </trkpt>
      <trkpt lat="46.061205" lon="9.144525">
        <ele>595.137</ele>
        <time>2020-08-21T12:48:50Z</time>
      </trkpt>
      <trkpt lat="46.061329" lon="9.144481">
        <ele>598.087</ele>
        <time>2020-08-21T12:49:05Z</time>
      </trkpt>
      <trkpt lat="46.061373" lon="9.144476">
        <ele>598.544</ele>
        <time>2020-08-21T12:49:10Z</time>
      </trkpt>
      <trkpt lat="46.061418" lon="9.144476">
        <ele>599.016</ele>
        <time>2020-08-21T12:49:14Z</time>
      </trkpt>
      <trkpt lat="46.061431" lon="9.144487">
        <ele>599.024</ele>
        <time>2020-08-21T12:49:15Z</time>
      </trkpt>
      <trkpt lat="46.061475" lon="9.144524">
        <ele>600.081</ele>
        <time>2020-08-21T12:49:20Z</time>
      </trkpt>
      <trkpt lat="46.061568" lon="9.144657">
        <ele>602.482</ele>
        <time>2020-08-21T12:49:34Z</time>
      </trkpt>
      <trkpt lat="46.061612" lon="9.144700">
        <ele>603.343</ele>
        <time>2020-08-21T12:49:40Z</time>
      </trkpt>
      <trkpt lat="46.061731" lon="9.144750">
        <ele>605.217</ele>
        <time>2020-08-21T12:49:54Z</time>
      </trkpt>
      <trkpt lat="46.061868" lon="9.144786">
        <ele>608.108</ele>
        <time>2020-08-21T12:50:09Z</time>
      </trkpt>
      <trkpt lat="46.062018" lon="9.144842">
        <ele>610.013</ele>
        <time>2020-08-21T12:50:27Z</time>
      </trkpt>
      <trkpt lat="46.062121" lon="9.144876">
        <ele>612.973</ele>
        <time>2020-08-21T12:50:42Z</time>
      </trkpt>
      <trkpt lat="46.062218" lon="9.145059">
        <ele>615.312</ele>
        <time>2020-08-21T12:50:59Z</time>
      </trkpt>
      <trkpt lat="46.062260" lon="9.145158">
        <ele>617.372</ele>
        <time>2020-08-21T12:51:07Z</time>
      </trkpt>
      <trkpt lat="46.062342" lon="9.145257">
        <ele>619.729</ele>
        <time>2020-08-21T12:51:20Z</time>
      </trkpt>
      <trkpt lat="46.062444" lon="9.145270">
        <ele>621.151</ele>
        <time>2020-08-21T12:51:33Z</time>
      </trkpt>
      <trkpt lat="46.062531" lon="9.145294">
        <ele>622.549</ele>
        <time>2020-08-21T12:51:41Z</time>
      </trkpt>
      <trkpt lat="46.062587" lon="9.145303">
        <ele>623.016</ele>
        <time>2020-08-21T12:51:47Z</time>
      </trkpt>
      <trkpt lat="46.062708" lon="9.145296">
        <ele>625.975</ele>
        <time>2020-08-21T12:52:01Z</time>
      </trkpt>
      <trkpt lat="46.062820" lon="9.145238">
        <ele>628.328</ele>
        <time>2020-08-21T12:52:16Z</time>
      </trkpt>
      <trkpt lat="46.062918" lon="9.145136">
        <ele>629.820</ele>
        <time>2020-08-21T12:52:31Z</time>
      </trkpt>
      <trkpt lat="46.063016" lon="9.145098">
        <ele>632.208</ele>
        <time>2020-08-21T12:52:43Z</time>
      </trkpt>
      <trkpt lat="46.063123" lon="9.145103">
        <ele>634.122</ele>
        <time>2020-08-21T12:52:56Z</time>
      </trkpt>
      <trkpt lat="46.063183" lon="9.145110">
        <ele>635.082</ele>
        <time>2020-08-21T12:53:07Z</time>
      </trkpt>
      <trkpt lat="46.063241" lon="9.145117">
        <ele>636.541</ele>
        <time>2020-08-21T12:53:21Z</time>
      </trkpt>
      <trkpt lat="46.063297" lon="9.145190">
        <ele>637.481</ele>
        <time>2020-08-21T12:53:34Z</time>
      </trkpt>
      <trkpt lat="46.063369" lon="9.145326">
        <ele>640.368</ele>
        <time>2020-08-21T12:53:47Z</time>
      </trkpt>
      <trkpt lat="46.063442" lon="9.145454">
        <ele>641.870</ele>
        <time>2020-08-21T12:53:59Z</time>
      </trkpt>
      <trkpt lat="46.063525" lon="9.145613">
        <ele>643.798</ele>
        <time>2020-08-21T12:54:12Z</time>
      </trkpt>
      <trkpt lat="46.063660" lon="9.145681">
        <ele>647.135</ele>
        <time>2020-08-21T12:54:27Z</time>
      </trkpt>
      <trkpt lat="46.063790" lon="9.145609">
        <ele>649.089</ele>
        <time>2020-08-21T12:54:41Z</time>
      </trkpt>
      <trkpt lat="46.063916" lon="9.145514">
        <ele>650.406</ele>
        <time>2020-08-21T12:54:54Z</time>
      </trkpt>
      <trkpt lat="46.063966" lon="9.145494">
        <ele>650.926</ele>
        <time>2020-08-21T12:55:00Z</time>
      </trkpt>
      <trkpt lat="46.064047" lon="9.145481">
        <ele>652.308</ele>
        <time>2020-08-21T12:55:08Z</time>
      </trkpt>
      <trkpt lat="46.064130" lon="9.145535">
        <ele>652.333</ele>
        <time>2020-08-21T12:55:15Z</time>
      </trkpt>
      <trkpt lat="46.064145" lon="9.145544">
        <ele>652.313</ele>
        <time>2020-08-21T12:55:16Z</time>
      </trkpt>
      <trkpt lat="46.064301" lon="9.145697">
        <ele>652.362</ele>
        <time>2020-08-21T12:55:27Z</time>
      </trkpt>
      <trkpt lat="46.064505" lon="9.145730">
        <ele>652.352</ele>
        <time>2020-08-21T12:55:38Z</time>
      </trkpt>
      <trkpt lat="46.064628" lon="9.145594">
        <ele>652.319</ele>
        <time>2020-08-21T12:55:46Z</time>
      </trkpt>
      <trkpt lat="46.064646" lon="9.145591">
        <ele>652.311</ele>
        <time>2020-08-21T12:55:47Z</time>
      </trkpt>
      <trkpt lat="46.064670" lon="9.145595">
        <ele>652.339</ele>
        <time>2020-08-21T12:55:48Z</time>
      </trkpt>
      <trkpt lat="46.064691" lon="9.145603">
        <ele>652.346</ele>
        <time>2020-08-21T12:55:49Z</time>
      </trkpt>
      <trkpt lat="46.064848" lon="9.145633">
        <ele>652.365</ele>
        <time>2020-08-21T12:55:55Z</time>
      </trkpt>
      <trkpt lat="46.064890" lon="9.145712">
        <ele>652.368</ele>
        <time>2020-08-21T12:55:58Z</time>
      </trkpt>
      <trkpt lat="46.064908" lon="9.145744">
        <ele>652.814</ele>
        <time>2020-08-21T12:55:59Z</time>
      </trkpt>
      <trkpt lat="46.064921" lon="9.145772">
        <ele>652.808</ele>
        <time>2020-08-21T12:56:00Z</time>
      </trkpt>
      <trkpt lat="46.064937" lon="9.145802">
        <ele>651.431</ele>
        <time>2020-08-21T12:56:01Z</time>
      </trkpt>
      <trkpt lat="46.064952" lon="9.145828">
        <ele>651.441</ele>
        <time>2020-08-21T12:56:02Z</time>
      </trkpt>
      <trkpt lat="46.064963" lon="9.145849">
        <ele>651.420</ele>
        <time>2020-08-21T12:56:03Z</time>
      </trkpt>
      <trkpt lat="46.065095" lon="9.146182">
        <ele>650.920</ele>
        <time>2020-08-21T12:56:11Z</time>
      </trkpt>
      <trkpt lat="46.065355" lon="9.146305">
        <ele>649.987</ele>
        <time>2020-08-21T12:56:19Z</time>
      </trkpt>
      <trkpt lat="46.065607" lon="9.146281">
        <ele>649.049</ele>
        <time>2020-08-21T12:56:26Z</time>
      </trkpt>
      <trkpt lat="46.065640" lon="9.146287">
        <ele>649.027</ele>
        <time>2020-08-21T12:56:27Z</time>
      </trkpt>
      <trkpt lat="46.065800" lon="9.146361">
        <ele>647.524</ele>
        <time>2020-08-21T12:56:31Z</time>
      </trkpt>
      <trkpt lat="46.066191" lon="9.146301">
        <ele>645.652</ele>
        <time>2020-08-21T12:56:41Z</time>
      </trkpt>
      <trkpt lat="46.066371" lon="9.146133">
        <ele>644.753</ele>
        <time>2020-08-21T12:56:46Z</time>
      </trkpt>
      <trkpt lat="46.066632" lon="9.145768">
        <ele>644.208</ele>
        <time>2020-08-21T12:56:57Z</time>
      </trkpt>
      <trkpt lat="46.066695" lon="9.145674">
        <ele>645.108</ele>
        <time>2020-08-21T12:57:03Z</time>
      </trkpt>
      <trkpt lat="46.066768" lon="9.145475">
        <ele>646.640</ele>
        <time>2020-08-21T12:57:15Z</time>
      </trkpt>
      <trkpt lat="46.066782" lon="9.145469">
        <ele>646.650</ele>
        <time>2020-08-21T12:57:16Z</time>
      </trkpt>
      <trkpt lat="46.066871" lon="9.145466">
        <ele>646.679</ele>
        <time>2020-08-21T12:57:20Z</time>
      </trkpt>
      <trkpt lat="46.066898" lon="9.145442">
        <ele>646.679</ele>
        <time>2020-08-21T12:57:21Z</time>
      </trkpt>
      <trkpt lat="46.066922" lon="9.145410">
        <ele>645.196</ele>
        <time>2020-08-21T12:57:22Z</time>
      </trkpt>
      <trkpt lat="46.066938" lon="9.145383">
        <ele>645.198</ele>
        <time>2020-08-21T12:57:23Z</time>
      </trkpt>
      <trkpt lat="46.066953" lon="9.145351">
        <ele>644.746</ele>
        <time>2020-08-21T12:57:24Z</time>
      </trkpt>
      <trkpt lat="46.067154" lon="9.145189">
        <ele>642.383</ele>
        <time>2020-08-21T12:57:34Z</time>
      </trkpt>
      <trkpt lat="46.067208" lon="9.145144">
        <ele>642.357</ele>
        <time>2020-08-21T12:57:35Z</time>
      </trkpt>
      <trkpt lat="46.067241" lon="9.145105">
        <ele>642.300</ele>
        <time>2020-08-21T12:57:36Z</time>
      </trkpt>
      <trkpt lat="46.067265" lon="9.145072">
        <ele>642.320</ele>
        <time>2020-08-21T12:57:37Z</time>
      </trkpt>
      <trkpt lat="46.067289" lon="9.145032">
        <ele>642.308</ele>
        <time>2020-08-21T12:57:38Z</time>
      </trkpt>
      <trkpt lat="46.067304" lon="9.145002">
        <ele>642.360</ele>
        <time>2020-08-21T12:57:39Z</time>
      </trkpt>
      <trkpt lat="46.067313" lon="9.144974">
        <ele>642.370</ele>
        <time>2020-08-21T12:57:40Z</time>
      </trkpt>
      <trkpt lat="46.067337" lon="9.144906">
        <ele>642.349</ele>
        <time>2020-08-21T12:57:43Z</time>
      </trkpt>
      <trkpt lat="46.067369" lon="9.144861">
        <ele>642.329</ele>
        <time>2020-08-21T12:57:46Z</time>
      </trkpt>
      <trkpt lat="46.067399" lon="9.144839">
        <ele>643.256</ele>
        <time>2020-08-21T12:57:49Z</time>
      </trkpt>
      <trkpt lat="46.067588" lon="9.144716">
        <ele>643.738</ele>
        <time>2020-08-21T12:58:00Z</time>
      </trkpt>
      <trkpt lat="46.067600" lon="9.144717">
        <ele>643.746</ele>
        <time>2020-08-21T12:58:01Z</time>
      </trkpt>
      <trkpt lat="46.067668" lon="9.144748">
        <ele>643.723</ele>
        <time>2020-08-21T12:58:08Z</time>
      </trkpt>
      <trkpt lat="46.067672" lon="9.144762">
        <ele>643.782</ele>
        <time>2020-08-21T12:58:09Z</time>
      </trkpt>
      <trkpt lat="46.067681" lon="9.144787">
        <ele>638.943</ele>
        <time>2020-08-21T12:58:10Z</time>
      </trkpt>
      <trkpt lat="46.067687" lon="9.144806">
        <ele>646.617</ele>
        <time>2020-08-21T12:58:11Z</time>
      </trkpt>
      <trkpt lat="46.067691" lon="9.144820">
        <ele>643.708</ele>
        <time>2020-08-21T12:58:12Z</time>
      </trkpt>
      <trkpt lat="46.067699" lon="9.144855">
        <ele>643.713</ele>
        <time>2020-08-21T12:58:14Z</time>
      </trkpt>
      <trkpt lat="46.067746" lon="9.145008">
        <ele>643.273</ele>
        <time>2020-08-21T12:58:26Z</time>
      </trkpt>
      <trkpt lat="46.067770" lon="9.145065">
        <ele>642.762</ele>
        <time>2020-08-21T12:58:53Z</time>
      </trkpt>
      <trkpt lat="46.067799" lon="9.145120">
        <ele>645.672</ele>
        <time>2020-08-21T13:01:48Z</time>
      </trkpt>
      <trkpt lat="46.067817" lon="9.145328">
        <ele>644.279</ele>
        <time>2020-08-21T13:01:57Z</time>
      </trkpt>
      <trkpt lat="46.067899" lon="9.145473">
        <ele>643.251</ele>
        <time>2020-08-21T13:02:02Z</time>
      </trkpt>
      <trkpt lat="46.067955" lon="9.145573">
        <ele>642.389</ele>
        <time>2020-08-21T13:02:05Z</time>
      </trkpt>
      <trkpt lat="46.068044" lon="9.145667">
        <ele>641.336</ele>
        <time>2020-08-21T13:02:09Z</time>
      </trkpt>
      <trkpt lat="46.068069" lon="9.145663">
        <ele>640.315</ele>
        <time>2020-08-21T13:02:10Z</time>
      </trkpt>
      <trkpt lat="46.068093" lon="9.145647">
        <ele>640.365</ele>
        <time>2020-08-21T13:02:11Z</time>
      </trkpt>
      <trkpt lat="46.068112" lon="9.145624">
        <ele>639.811</ele>
        <time>2020-08-21T13:02:12Z</time>
      </trkpt>
      <trkpt lat="46.068127" lon="9.145603">
        <ele>639.808</ele>
        <time>2020-08-21T13:02:13Z</time>
      </trkpt>
      <trkpt lat="46.068137" lon="9.145586">
        <ele>639.426</ele>
        <time>2020-08-21T13:02:14Z</time>
      </trkpt>
      <trkpt lat="46.068147" lon="9.145570">
        <ele>639.426</ele>
        <time>2020-08-21T13:02:15Z</time>
      </trkpt>
      <trkpt lat="46.068170" lon="9.145555">
        <ele>638.975</ele>
        <time>2020-08-21T13:02:16Z</time>
      </trkpt>
      <trkpt lat="46.068198" lon="9.145548">
        <ele>638.975</ele>
        <time>2020-08-21T13:02:17Z</time>
      </trkpt>
      <trkpt lat="46.068225" lon="9.145554">
        <ele>638.442</ele>
        <time>2020-08-21T13:02:18Z</time>
      </trkpt>
      <trkpt lat="46.068253" lon="9.145568">
        <ele>638.424</ele>
        <time>2020-08-21T13:02:19Z</time>
      </trkpt>
      <trkpt lat="46.068281" lon="9.145584">
        <ele>638.422</ele>
        <time>2020-08-21T13:02:20Z</time>
      </trkpt>
      <trkpt lat="46.068306" lon="9.145599">
        <ele>638.439</ele>
        <time>2020-08-21T13:02:21Z</time>
      </trkpt>
      <trkpt lat="46.068323" lon="9.145616">
        <ele>638.487</ele>
        <time>2020-08-21T13:02:22Z</time>
      </trkpt>
      <trkpt lat="46.068395" lon="9.145702">
        <ele>639.842</ele>
        <time>2020-08-21T13:02:29Z</time>
      </trkpt>
      <trkpt lat="46.068420" lon="9.145757">
        <ele>640.326</ele>
        <time>2020-08-21T13:02:32Z</time>
      </trkpt>
      <trkpt lat="46.068427" lon="9.145777">
        <ele>640.308</ele>
        <time>2020-08-21T13:02:33Z</time>
      </trkpt>
      <trkpt lat="46.068501" lon="9.145970">
        <ele>641.853</ele>
        <time>2020-08-21T13:02:43Z</time>
      </trkpt>
      <trkpt lat="46.068530" lon="9.146097">
        <ele>642.383</ele>
        <time>2020-08-21T13:02:49Z</time>
      </trkpt>
      <trkpt lat="46.068540" lon="9.146117">
        <ele>642.382</ele>
        <time>2020-08-21T13:02:50Z</time>
      </trkpt>
      <trkpt lat="46.068687" lon="9.146299">
        <ele>640.812</ele>
        <time>2020-08-21T13:02:57Z</time>
      </trkpt>
      <trkpt lat="46.068981" lon="9.146518">
        <ele>637.099</ele>
        <time>2020-08-21T13:03:08Z</time>
      </trkpt>
      <trkpt lat="46.069001" lon="9.146526">
        <ele>637.091</ele>
        <time>2020-08-21T13:03:09Z</time>
      </trkpt>
      <trkpt lat="46.069223" lon="9.146437">
        <ele>634.159</ele>
        <time>2020-08-21T13:03:18Z</time>
      </trkpt>
      <trkpt lat="46.069483" lon="9.146240">
        <ele>630.766</ele>
        <time>2020-08-21T13:03:29Z</time>
      </trkpt>
      <trkpt lat="46.069772" lon="9.146101">
        <ele>627.843</ele>
        <time>2020-08-21T13:03:40Z</time>
      </trkpt>
      <trkpt lat="46.070062" lon="9.146049">
        <ele>625.464</ele>
        <time>2020-08-21T13:03:50Z</time>
      </trkpt>
      <trkpt lat="46.070082" lon="9.146033">
        <ele>625.410</ele>
        <time>2020-08-21T13:03:51Z</time>
      </trkpt>
      <trkpt lat="46.070253" lon="9.145729">
        <ele>622.108</ele>
        <time>2020-08-21T13:04:01Z</time>
      </trkpt>
      <trkpt lat="46.070383" lon="9.145471">
        <ele>618.769</ele>
        <time>2020-08-21T13:04:10Z</time>
      </trkpt>
      <trkpt lat="46.070593" lon="9.145218">
        <ele>615.319</ele>
        <time>2020-08-21T13:04:19Z</time>
      </trkpt>
      <trkpt lat="46.070607" lon="9.145202">
        <ele>615.388</ele>
        <time>2020-08-21T13:04:20Z</time>
      </trkpt>
      <trkpt lat="46.070799" lon="9.144941">
        <ele>612.978</ele>
        <time>2020-08-21T13:04:29Z</time>
      </trkpt>
      <trkpt lat="46.070954" lon="9.144708">
        <ele>609.125</ele>
        <time>2020-08-21T13:04:39Z</time>
      </trkpt>
      <trkpt lat="46.070963" lon="9.144727">
        <ele>609.137</ele>
        <time>2020-08-21T13:04:40Z</time>
      </trkpt>
      <trkpt lat="46.070965" lon="9.144762">
        <ele>608.625</ele>
        <time>2020-08-21T13:04:41Z</time>
      </trkpt>
      <trkpt lat="46.071097" lon="9.145000">
        <ele>604.852</ele>
        <time>2020-08-21T13:04:50Z</time>
      </trkpt>
      <trkpt lat="46.071272" lon="9.145105">
        <ele>601.414</ele>
        <time>2020-08-21T13:04:59Z</time>
      </trkpt>
      <trkpt lat="46.071399" lon="9.145158">
        <ele>599.554</ele>
        <time>2020-08-21T13:05:05Z</time>
      </trkpt>
      <trkpt lat="46.071430" lon="9.145147">
        <ele>598.509</ele>
        <time>2020-08-21T13:05:06Z</time>
      </trkpt>
      <trkpt lat="46.071455" lon="9.145130">
        <ele>599.008</ele>
        <time>2020-08-21T13:05:07Z</time>
      </trkpt>
      <trkpt lat="46.071612" lon="9.145008">
        <ele>595.156</ele>
        <time>2020-08-21T13:05:13Z</time>
      </trkpt>
      <trkpt lat="46.071852" lon="9.144908">
        <ele>592.376</ele>
        <time>2020-08-21T13:05:21Z</time>
      </trkpt>
      <trkpt lat="46.072020" lon="9.144793">
        <ele>590.335</ele>
        <time>2020-08-21T13:05:26Z</time>
      </trkpt>
      <trkpt lat="46.072110" lon="9.144774">
        <ele>588.985</ele>
        <time>2020-08-21T13:05:29Z</time>
      </trkpt>
      <trkpt lat="46.072043" lon="9.144864">
        <ele>588.912</ele>
        <time>2020-08-21T13:05:30Z</time>
      </trkpt>
      <trkpt lat="46.072011" lon="9.144919">
        <ele>588.984</ele>
        <time>2020-08-21T13:05:31Z</time>
      </trkpt>
      <trkpt lat="46.071996" lon="9.144955">
        <ele>587.932</ele>
        <time>2020-08-21T13:05:32Z</time>
      </trkpt>
      <trkpt lat="46.071989" lon="9.144992">
        <ele>587.949</ele>
        <time>2020-08-21T13:05:33Z</time>
      </trkpt>
      <trkpt lat="46.071988" lon="9.145202">
        <ele>586.546</ele>
        <time>2020-08-21T13:05:39Z</time>
      </trkpt>
      <trkpt lat="46.072007" lon="9.145228">
        <ele>586.588</ele>
        <time>2020-08-21T13:05:40Z</time>
      </trkpt>
      <trkpt lat="46.072243" lon="9.145419">
        <ele>586.016</ele>
        <time>2020-08-21T13:05:54Z</time>
      </trkpt>
      <trkpt lat="46.072237" lon="9.145324">
        <ele>586.508</ele>
        <time>2020-08-21T13:06:17Z</time>
      </trkpt>
      <trkpt lat="46.072226" lon="9.145280">
        <ele>586.539</ele>
        <time>2020-08-21T13:06:42Z</time>
      </trkpt>
      <trkpt lat="46.072258" lon="9.145286">
        <ele>586.519</ele>
        <time>2020-08-21T13:06:54Z</time>
      </trkpt>
      <trkpt lat="46.072242" lon="9.145266">
        <ele>586.028</ele>
        <time>2020-08-21T13:07:26Z</time>
      </trkpt>
      <trkpt lat="46.072281" lon="9.145272">
        <ele>585.568</ele>
        <time>2020-08-21T13:07:48Z</time>
      </trkpt>
      <trkpt lat="46.072255" lon="9.145291">
        <ele>586.525</ele>
        <time>2020-08-21T13:08:06Z</time>
      </trkpt>
      <trkpt lat="46.072237" lon="9.145297">
        <ele>586.567</ele>
        <time>2020-08-21T13:08:23Z</time>
      </trkpt>
      <trkpt lat="46.072247" lon="9.145299">
        <ele>586.595</ele>
        <time>2020-08-21T13:08:51Z</time>
      </trkpt>
      <trkpt lat="46.072253" lon="9.145307">
        <ele>586.552</ele>
        <time>2020-08-21T13:08:53Z</time>
      </trkpt>
      <trkpt lat="46.072273" lon="9.145321">
        <ele>586.596</ele>
        <time>2020-08-21T13:08:55Z</time>
      </trkpt>
      <trkpt lat="46.072288" lon="9.145335">
        <ele>586.531</ele>
        <time>2020-08-21T13:08:56Z</time>
      </trkpt>
      <trkpt lat="46.072301" lon="9.145349">
        <ele>586.524</ele>
        <time>2020-08-21T13:08:57Z</time>
      </trkpt>
      <trkpt lat="46.072592" lon="9.145570">
        <ele>587.508</ele>
        <time>2020-08-21T13:09:14Z</time>
      </trkpt>
      <trkpt lat="46.072904" lon="9.145676">
        <ele>587.964</ele>
        <time>2020-08-21T13:09:30Z</time>
      </trkpt>
      <trkpt lat="46.073152" lon="9.145522">
        <ele>588.454</ele>
        <time>2020-08-21T13:09:43Z</time>
      </trkpt>
      <trkpt lat="46.073421" lon="9.145662">
        <ele>588.413</ele>
        <time>2020-08-21T13:09:54Z</time>
      </trkpt>
      <trkpt lat="46.073575" lon="9.145833">
        <ele>589.943</ele>
        <time>2020-08-21T13:10:07Z</time>
      </trkpt>
      <trkpt lat="46.073891" lon="9.145957">
        <ele>589.930</ele>
        <time>2020-08-21T13:10:19Z</time>
      </trkpt>
      <trkpt lat="46.074008" lon="9.145942">
        <ele>590.342</ele>
        <time>2020-08-21T13:10:27Z</time>
      </trkpt>
      <trkpt lat="46.074028" lon="9.145937">
        <ele>590.310</ele>
        <time>2020-08-21T13:10:29Z</time>
      </trkpt>
      <trkpt lat="46.074158" lon="9.145951">
        <ele>593.297</ele>
        <time>2020-08-21T13:10:43Z</time>
      </trkpt>
      <trkpt lat="46.074268" lon="9.145968">
        <ele>596.663</ele>
        <time>2020-08-21T13:10:58Z</time>
      </trkpt>
      <trkpt lat="46.074342" lon="9.145991">
        <ele>599.544</ele>
        <time>2020-08-21T13:11:15Z</time>
      </trkpt>
      <trkpt lat="46.074463" lon="9.146019">
        <ele>602.418</ele>
        <time>2020-08-21T13:11:35Z</time>
      </trkpt>
      <trkpt lat="46.074535" lon="9.146072">
        <ele>604.808</ele>
        <time>2020-08-21T13:11:53Z</time>
      </trkpt>
      <trkpt lat="46.074594" lon="9.146141">
        <ele>607.621</ele>
        <time>2020-08-21T13:12:12Z</time>
      </trkpt>
      <trkpt lat="46.074646" lon="9.146264">
        <ele>610.571</ele>
        <time>2020-08-21T13:12:32Z</time>
      </trkpt>
      <trkpt lat="46.074736" lon="9.146356">
        <ele>613.450</ele>
        <time>2020-08-21T13:12:51Z</time>
      </trkpt>
      <trkpt lat="46.074836" lon="9.146422">
        <ele>616.320</ele>
        <time>2020-08-21T13:13:09Z</time>
      </trkpt>
      <trkpt lat="46.074924" lon="9.146489">
        <ele>617.747</ele>
        <time>2020-08-21T13:13:25Z</time>
      </trkpt>
      <trkpt lat="46.074993" lon="9.146611">
        <ele>621.119</ele>
        <time>2020-08-21T13:13:42Z</time>
      </trkpt>
      <trkpt lat="46.075034" lon="9.146517">
        <ele>623.067</ele>
        <time>2020-08-21T13:13:55Z</time>
      </trkpt>
      <trkpt lat="46.075101" lon="9.146522">
        <ele>624.534</ele>
        <time>2020-08-21T13:14:13Z</time>
      </trkpt>
      <trkpt lat="46.075162" lon="9.146662">
        <ele>627.479</ele>
        <time>2020-08-21T13:14:30Z</time>
      </trkpt>
      <trkpt lat="46.075226" lon="9.146794">
        <ele>630.205</ele>
        <time>2020-08-21T13:14:46Z</time>
      </trkpt>
      <trkpt lat="46.075276" lon="9.146919">
        <ele>632.225</ele>
        <time>2020-08-21T13:15:02Z</time>
      </trkpt>
      <trkpt lat="46.075328" lon="9.147040">
        <ele>634.608</ele>
        <time>2020-08-21T13:15:20Z</time>
      </trkpt>
      <trkpt lat="46.075394" lon="9.147125">
        <ele>637.452</ele>
        <time>2020-08-21T13:15:37Z</time>
      </trkpt>
      <trkpt lat="46.075413" lon="9.147160">
        <ele>639.482</ele>
        <time>2020-08-21T13:15:52Z</time>
      </trkpt>
      <trkpt lat="46.075437" lon="9.147261">
        <ele>642.391</ele>
        <time>2020-08-21T13:16:10Z</time>
      </trkpt>
      <trkpt lat="46.075478" lon="9.147216">
        <ele>644.271</ele>
        <time>2020-08-21T13:16:26Z</time>
      </trkpt>
      <trkpt lat="46.075543" lon="9.147137">
        <ele>646.678</ele>
        <time>2020-08-21T13:16:44Z</time>
      </trkpt>
      <trkpt lat="46.075590" lon="9.147032">
        <ele>649.060</ele>
        <time>2020-08-21T13:17:00Z</time>
      </trkpt>
      <trkpt lat="46.075627" lon="9.146866">
        <ele>651.438</ele>
        <time>2020-08-21T13:17:17Z</time>
      </trkpt>
      <trkpt lat="46.075686" lon="9.146732">
        <ele>653.395</ele>
        <time>2020-08-21T13:17:35Z</time>
      </trkpt>
      <trkpt lat="46.075730" lon="9.146621">
        <ele>655.295</ele>
        <time>2020-08-21T13:17:51Z</time>
      </trkpt>
      <trkpt lat="46.075860" lon="9.146540">
        <ele>658.649</ele>
        <time>2020-08-21T13:18:09Z</time>
      </trkpt>
      <trkpt lat="46.075930" lon="9.146601">
        <ele>661.023</ele>
        <time>2020-08-21T13:18:27Z</time>
      </trkpt>
      <trkpt lat="46.075991" lon="9.146697">
        <ele>663.408</ele>
        <time>2020-08-21T13:18:42Z</time>
      </trkpt>
      <trkpt lat="46.076077" lon="9.146648">
        <ele>665.894</ele>
        <time>2020-08-21T13:18:59Z</time>
      </trkpt>
      <trkpt lat="46.076165" lon="9.146573">
        <ele>668.264</ele>
        <time>2020-08-21T13:19:17Z</time>
      </trkpt>
      <trkpt lat="46.076226" lon="9.146490">
        <ele>670.173</ele>
        <time>2020-08-21T13:19:30Z</time>
      </trkpt>
      <trkpt lat="46.076312" lon="9.146380">
        <ele>671.663</ele>
        <time>2020-08-21T13:19:46Z</time>
      </trkpt>
      <trkpt lat="46.076391" lon="9.146294">
        <ele>672.570</ele>
        <time>2020-08-21T13:20:01Z</time>
      </trkpt>
      <trkpt lat="46.076434" lon="9.146163">
        <ele>674.582</ele>
        <time>2020-08-21T13:20:18Z</time>
      </trkpt>
      <trkpt lat="46.076446" lon="9.146118">
        <ele>674.980</ele>
        <time>2020-08-21T13:20:21Z</time>
      </trkpt>
      <trkpt lat="46.076486" lon="9.146017">
        <ele>675.487</ele>
        <time>2020-08-21T13:20:35Z</time>
      </trkpt>
      <trkpt lat="46.076495" lon="9.146009">
        <ele>675.437</ele>
        <time>2020-08-21T13:20:36Z</time>
      </trkpt>
      <trkpt lat="46.076554" lon="9.145935">
        <ele>675.949</ele>
        <time>2020-08-21T13:20:42Z</time>
      </trkpt>
      <trkpt lat="46.076642" lon="9.145850">
        <ele>676.913</ele>
        <time>2020-08-21T13:20:51Z</time>
      </trkpt>
      <trkpt lat="46.076820" lon="9.145722">
        <ele>678.808</ele>
        <time>2020-08-21T13:21:07Z</time>
      </trkpt>
      <trkpt lat="46.076833" lon="9.145714">
        <ele>678.818</ele>
        <time>2020-08-21T13:21:08Z</time>
      </trkpt>
      <trkpt lat="46.076842" lon="9.145704">
        <ele>678.828</ele>
        <time>2020-08-21T13:21:09Z</time>
      </trkpt>
      <trkpt lat="46.076853" lon="9.145694">
        <ele>678.817</ele>
        <time>2020-08-21T13:21:10Z</time>
      </trkpt>
      <trkpt lat="46.076862" lon="9.145686">
        <ele>679.367</ele>
        <time>2020-08-21T13:21:11Z</time>
      </trkpt>
      <trkpt lat="46.076872" lon="9.145676">
        <ele>679.334</ele>
        <time>2020-08-21T13:21:12Z</time>
      </trkpt>
      <trkpt lat="46.076881" lon="9.145668">
        <ele>679.356</ele>
        <time>2020-08-21T13:21:13Z</time>
      </trkpt>
      <trkpt lat="46.076891" lon="9.145661">
        <ele>679.314</ele>
        <time>2020-08-21T13:21:14Z</time>
      </trkpt>
      <trkpt lat="46.076901" lon="9.145657">
        <ele>680.231</ele>
        <time>2020-08-21T13:21:15Z</time>
      </trkpt>
      <trkpt lat="46.077064" lon="9.145539">
        <ele>682.185</ele>
        <time>2020-08-21T13:21:31Z</time>
      </trkpt>
      <trkpt lat="46.077180" lon="9.145492">
        <ele>685.089</ele>
        <time>2020-08-21T13:21:43Z</time>
      </trkpt>
      <trkpt lat="46.077299" lon="9.145403">
        <ele>688.417</ele>
        <time>2020-08-21T13:21:58Z</time>
      </trkpt>
      <trkpt lat="46.077426" lon="9.145324">
        <ele>691.308</ele>
        <time>2020-08-21T13:22:14Z</time>
      </trkpt>
      <trkpt lat="46.077552" lon="9.145280">
        <ele>694.283</ele>
        <time>2020-08-21T13:22:28Z</time>
      </trkpt>
      <trkpt lat="46.077592" lon="9.145272">
        <ele>694.613</ele>
        <time>2020-08-21T13:22:33Z</time>
      </trkpt>
      <trkpt lat="46.077686" lon="9.145194">
        <ele>697.572</ele>
        <time>2020-08-21T13:22:47Z</time>
      </trkpt>
      <trkpt lat="46.077664" lon="9.145141">
        <ele>698.022</ele>
        <time>2020-08-21T13:22:52Z</time>
      </trkpt>
      <trkpt lat="46.077646" lon="9.145016">
        <ele>700.939</ele>
        <time>2020-08-21T13:23:05Z</time>
      </trkpt>
      <trkpt lat="46.077715" lon="9.144990">
        <ele>701.971</ele>
        <time>2020-08-21T13:23:13Z</time>
      </trkpt>
      <trkpt lat="46.077868" lon="9.145048">
        <ele>704.769</ele>
        <time>2020-08-21T13:23:30Z</time>
      </trkpt>
      <trkpt lat="46.077943" lon="9.144994">
        <ele>706.236</ele>
        <time>2020-08-21T13:23:40Z</time>
      </trkpt>
      <trkpt lat="46.077922" lon="9.144935">
        <ele>707.697</ele>
        <time>2020-08-21T13:23:45Z</time>
      </trkpt>
      <trkpt lat="46.077911" lon="9.144780">
        <ele>711.023</ele>
        <time>2020-08-21T13:24:00Z</time>
      </trkpt>
      <trkpt lat="46.077909" lon="9.144705">
        <ele>712.425</ele>
        <time>2020-08-21T13:24:12Z</time>
      </trkpt>
      <trkpt lat="46.077908" lon="9.144694">
        <ele>713.408</ele>
        <time>2020-08-21T13:28:02Z</time>
      </trkpt>
      <trkpt lat="46.077927" lon="9.144710">
        <ele>713.464</ele>
        <time>2020-08-21T13:28:03Z</time>
      </trkpt>
      <trkpt lat="46.077942" lon="9.144718">
        <ele>713.434</ele>
        <time>2020-08-21T13:28:04Z</time>
      </trkpt>
      <trkpt lat="46.077961" lon="9.144729">
        <ele>713.473</ele>
        <time>2020-08-21T13:28:05Z</time>
      </trkpt>
      <trkpt lat="46.077977" lon="9.144742">
        <ele>713.453</ele>
        <time>2020-08-21T13:28:06Z</time>
      </trkpt>
      <trkpt lat="46.078197" lon="9.144836">
        <ele>715.810</ele>
        <time>2020-08-21T13:28:22Z</time>
      </trkpt>
      <trkpt lat="46.078367" lon="9.144861">
        <ele>718.252</ele>
        <time>2020-08-21T13:28:37Z</time>
      </trkpt>
      <trkpt lat="46.078379" lon="9.144861">
        <ele>718.210</ele>
        <time>2020-08-21T13:28:38Z</time>
      </trkpt>
      <trkpt lat="46.078390" lon="9.144866">
        <ele>718.727</ele>
        <time>2020-08-21T13:28:39Z</time>
      </trkpt>
      <trkpt lat="46.078401" lon="9.144869">
        <ele>718.744</ele>
        <time>2020-08-21T13:28:40Z</time>
      </trkpt>
      <trkpt lat="46.078412" lon="9.144867">
        <ele>719.205</ele>
        <time>2020-08-21T13:28:41Z</time>
      </trkpt>
      <trkpt lat="46.078424" lon="9.144869">
        <ele>719.215</ele>
        <time>2020-08-21T13:28:42Z</time>
      </trkpt>
      <trkpt lat="46.078436" lon="9.144869">
        <ele>719.208</ele>
        <time>2020-08-21T13:28:43Z</time>
      </trkpt>
      <trkpt lat="46.078586" lon="9.144905">
        <ele>721.679</ele>
        <time>2020-08-21T13:28:57Z</time>
      </trkpt>
      <trkpt lat="46.078596" lon="9.144902">
        <ele>721.619</ele>
        <time>2020-08-21T13:28:58Z</time>
      </trkpt>
      <trkpt lat="46.078769" lon="9.144896">
        <ele>724.468</ele>
        <time>2020-08-21T13:29:14Z</time>
      </trkpt>
      <trkpt lat="46.078965" lon="9.144845">
        <ele>726.818</ele>
        <time>2020-08-21T13:29:32Z</time>
      </trkpt>
      <trkpt lat="46.079117" lon="9.144811">
        <ele>729.395</ele>
        <time>2020-08-21T13:29:46Z</time>
      </trkpt>
      <trkpt lat="46.079276" lon="9.144781">
        <ele>731.787</ele>
        <time>2020-08-21T13:30:02Z</time>
      </trkpt>
      <trkpt lat="46.079297" lon="9.144786">
        <ele>731.725</ele>
        <time>2020-08-21T13:30:04Z</time>
      </trkpt>
      <trkpt lat="46.079306" lon="9.144791">
        <ele>732.142</ele>
        <time>2020-08-21T13:30:05Z</time>
      </trkpt>
      <trkpt lat="46.079315" lon="9.144797">
        <ele>732.114</ele>
        <time>2020-08-21T13:30:06Z</time>
      </trkpt>
      <trkpt lat="46.079411" lon="9.144868">
        <ele>734.154</ele>
        <time>2020-08-21T13:30:16Z</time>
      </trkpt>
      <trkpt lat="46.079545" lon="9.144922">
        <ele>736.009</ele>
        <time>2020-08-21T13:30:31Z</time>
      </trkpt>
      <trkpt lat="46.079610" lon="9.144935">
        <ele>736.908</ele>
        <time>2020-08-21T13:30:37Z</time>
      </trkpt>
      <trkpt lat="46.079650" lon="9.144901">
        <ele>737.416</ele>
        <time>2020-08-21T13:30:41Z</time>
      </trkpt>
      <trkpt lat="46.079652" lon="9.144884">
        <ele>737.426</ele>
        <time>2020-08-21T13:30:42Z</time>
      </trkpt>
      <trkpt lat="46.079652" lon="9.144863">
        <ele>737.415</ele>
        <time>2020-08-21T13:30:43Z</time>
      </trkpt>
      <trkpt lat="46.079648" lon="9.144847">
        <ele>738.465</ele>
        <time>2020-08-21T13:30:44Z</time>
      </trkpt>
      <trkpt lat="46.079640" lon="9.144830">
        <ele>738.442</ele>
        <time>2020-08-21T13:30:45Z</time>
      </trkpt>
      <trkpt lat="46.079635" lon="9.144820">
        <ele>738.494</ele>
        <time>2020-08-21T13:30:46Z</time>
      </trkpt>
      <trkpt lat="46.079627" lon="9.144801">
        <ele>738.482</ele>
        <time>2020-08-21T13:30:47Z</time>
      </trkpt>
      <trkpt lat="46.079619" lon="9.144785">
        <ele>738.499</ele>
        <time>2020-08-21T13:30:48Z</time>
      </trkpt>
      <trkpt lat="46.079515" lon="9.144558">
        <ele>741.378</ele>
        <time>2020-08-21T13:31:05Z</time>
      </trkpt>
      <trkpt lat="46.079398" lon="9.144351">
        <ele>743.733</ele>
        <time>2020-08-21T13:31:21Z</time>
      </trkpt>
      <trkpt lat="46.079347" lon="9.144169">
        <ele>746.126</ele>
        <time>2020-08-21T13:31:34Z</time>
      </trkpt>
      <trkpt lat="46.079348" lon="9.144151">
        <ele>746.608</ele>
        <time>2020-08-21T13:31:35Z</time>
      </trkpt>
      <trkpt lat="46.079348" lon="9.144132">
        <ele>747.052</ele>
        <time>2020-08-21T13:31:36Z</time>
      </trkpt>
      <trkpt lat="46.079350" lon="9.144114">
        <ele>747.082</ele>
        <time>2020-08-21T13:31:37Z</time>
      </trkpt>
      <trkpt lat="46.079352" lon="9.144094">
        <ele>747.081</ele>
        <time>2020-08-21T13:31:38Z</time>
      </trkpt>
      <trkpt lat="46.079454" lon="9.143850">
        <ele>749.431</ele>
        <time>2020-08-21T13:31:55Z</time>
      </trkpt>
      <trkpt lat="46.079547" lon="9.143607">
        <ele>751.438</ele>
        <time>2020-08-21T13:32:11Z</time>
      </trkpt>
      <trkpt lat="46.079690" lon="9.143319">
        <ele>754.280</ele>
        <time>2020-08-21T13:32:31Z</time>
      </trkpt>
      <trkpt lat="46.079885" lon="9.143137">
        <ele>757.118</ele>
        <time>2020-08-21T13:32:50Z</time>
      </trkpt>
      <trkpt lat="46.080088" lon="9.143104">
        <ele>759.125</ele>
        <time>2020-08-21T13:33:05Z</time>
      </trkpt>
      <trkpt lat="46.080252" lon="9.143099">
        <ele>760.525</ele>
        <time>2020-08-21T13:33:17Z</time>
      </trkpt>
      <trkpt lat="46.080261" lon="9.143115">
        <ele>761.026</ele>
        <time>2020-08-21T13:33:18Z</time>
      </trkpt>
      <trkpt lat="46.080262" lon="9.143134">
        <ele>761.008</ele>
        <time>2020-08-21T13:33:19Z</time>
      </trkpt>
      <trkpt lat="46.080254" lon="9.143152">
        <ele>761.008</ele>
        <time>2020-08-21T13:33:20Z</time>
      </trkpt>
      <trkpt lat="46.080243" lon="9.143165">
        <ele>761.057</ele>
        <time>2020-08-21T13:33:21Z</time>
      </trkpt>
      <trkpt lat="46.080229" lon="9.143175">
        <ele>761.557</ele>
        <time>2020-08-21T13:33:22Z</time>
      </trkpt>
      <trkpt lat="46.080221" lon="9.143180">
        <ele>761.566</ele>
        <time>2020-08-21T13:33:23Z</time>
      </trkpt>
      <trkpt lat="46.080208" lon="9.143185">
        <ele>761.926</ele>
        <time>2020-08-21T13:33:24Z</time>
      </trkpt>
      <trkpt lat="46.080196" lon="9.143189">
        <ele>761.983</ele>
        <time>2020-08-21T13:33:25Z</time>
      </trkpt>
      <trkpt lat="46.080177" lon="9.143190">
        <ele>761.995</ele>
        <time>2020-08-21T13:33:26Z</time>
      </trkpt>
      <trkpt lat="46.080103" lon="9.143195">
        <ele>763.433</ele>
        <time>2020-08-21T13:33:31Z</time>
      </trkpt>
      <trkpt lat="46.079874" lon="9.143314">
        <ele>765.340</ele>
        <time>2020-08-21T13:33:48Z</time>
      </trkpt>
      <trkpt lat="46.079776" lon="9.143597">
        <ele>766.747</ele>
        <time>2020-08-21T13:34:03Z</time>
      </trkpt>
      <trkpt lat="46.079723" lon="9.143788">
        <ele>768.229</ele>
        <time>2020-08-21T13:34:13Z</time>
      </trkpt>
      <trkpt lat="46.079720" lon="9.143809">
        <ele>768.221</ele>
        <time>2020-08-21T13:34:14Z</time>
      </trkpt>
      <trkpt lat="46.079714" lon="9.143831">
        <ele>768.208</ele>
        <time>2020-08-21T13:34:15Z</time>
      </trkpt>
      <trkpt lat="46.079710" lon="9.143848">
        <ele>769.179</ele>
        <time>2020-08-21T13:34:16Z</time>
      </trkpt>
      <trkpt lat="46.079710" lon="9.143866">
        <ele>769.139</ele>
        <time>2020-08-21T13:34:17Z</time>
      </trkpt>
      <trkpt lat="46.079711" lon="9.143887">
        <ele>769.168</ele>
        <time>2020-08-21T13:34:18Z</time>
      </trkpt>
      <trkpt lat="46.079746" lon="9.143945">
        <ele>769.638</ele>
        <time>2020-08-21T13:34:22Z</time>
      </trkpt>
      <trkpt lat="46.079758" lon="9.143948">
        <ele>769.695</ele>
        <time>2020-08-21T13:34:23Z</time>
      </trkpt>
      <trkpt lat="46.079773" lon="9.143949">
        <ele>769.637</ele>
        <time>2020-08-21T13:34:24Z</time>
      </trkpt>
      <trkpt lat="46.079788" lon="9.143948">
        <ele>769.655</ele>
        <time>2020-08-21T13:34:25Z</time>
      </trkpt>
      <trkpt lat="46.079802" lon="9.143941">
        <ele>769.622</ele>
        <time>2020-08-21T13:34:26Z</time>
      </trkpt>
      <trkpt lat="46.079811" lon="9.143924">
        <ele>769.686</ele>
        <time>2020-08-21T13:34:27Z</time>
      </trkpt>
      <trkpt lat="46.079820" lon="9.143904">
        <ele>769.660</ele>
        <time>2020-08-21T13:34:28Z</time>
      </trkpt>
      <trkpt lat="46.079830" lon="9.143885">
        <ele>769.626</ele>
        <time>2020-08-21T13:34:29Z</time>
      </trkpt>
      <trkpt lat="46.079934" lon="9.143607">
        <ele>773.008</ele>
        <time>2020-08-21T13:34:45Z</time>
      </trkpt>
      <trkpt lat="46.080110" lon="9.143473">
        <ele>775.963</ele>
        <time>2020-08-21T13:35:02Z</time>
      </trkpt>
      <trkpt lat="46.080134" lon="9.143470">
        <ele>775.993</ele>
        <time>2020-08-21T13:35:04Z</time>
      </trkpt>
      <trkpt lat="46.080147" lon="9.143466">
        <ele>776.442</ele>
        <time>2020-08-21T13:35:05Z</time>
      </trkpt>
      <trkpt lat="46.080160" lon="9.143465">
        <ele>775.932</ele>
        <time>2020-08-21T13:35:06Z</time>
      </trkpt>
      <trkpt lat="46.080332" lon="9.143459">
        <ele>778.399</ele>
        <time>2020-08-21T13:35:19Z</time>
      </trkpt>
      <trkpt lat="46.080512" lon="9.143367">
        <ele>780.281</ele>
        <time>2020-08-21T13:35:33Z</time>
      </trkpt>
      <trkpt lat="46.080628" lon="9.143190">
        <ele>781.699</ele>
        <time>2020-08-21T13:35:46Z</time>
      </trkpt>
      <trkpt lat="46.080633" lon="9.143171">
        <ele>781.676</ele>
        <time>2020-08-21T13:35:47Z</time>
      </trkpt>
      <trkpt lat="46.080638" lon="9.143154">
        <ele>781.696</ele>
        <time>2020-08-21T13:35:48Z</time>
      </trkpt>
      <trkpt lat="46.080658" lon="9.143117">
        <ele>782.631</ele>
        <time>2020-08-21T13:35:51Z</time>
      </trkpt>
      <trkpt lat="46.080682" lon="9.143090">
        <ele>783.124</ele>
        <time>2020-08-21T13:35:53Z</time>
      </trkpt>
      <trkpt lat="46.080701" lon="9.143075">
        <ele>783.108</ele>
        <time>2020-08-21T13:35:54Z</time>
      </trkpt>
      <trkpt lat="46.080709" lon="9.143071">
        <ele>783.194</ele>
        <time>2020-08-21T13:35:55Z</time>
      </trkpt>
      <trkpt lat="46.080721" lon="9.143065">
        <ele>783.664</ele>
        <time>2020-08-21T13:35:56Z</time>
      </trkpt>
      <trkpt lat="46.080733" lon="9.143058">
        <ele>783.683</ele>
        <time>2020-08-21T13:35:57Z</time>
      </trkpt>
      <trkpt lat="46.080940" lon="9.142948">
        <ele>785.023</ele>
        <time>2020-08-21T13:36:13Z</time>
      </trkpt>
      <trkpt lat="46.081007" lon="9.142907">
        <ele>784.080</ele>
        <time>2020-08-21T13:36:19Z</time>
      </trkpt>
      <trkpt lat="46.081019" lon="9.142900">
        <ele>787.412</ele>
        <time>2020-08-21T13:36:20Z</time>
      </trkpt>
      <trkpt lat="46.081032" lon="9.142891">
        <ele>787.410</ele>
        <time>2020-08-21T13:36:21Z</time>
      </trkpt>
      <trkpt lat="46.081043" lon="9.142882">
        <ele>787.447</ele>
        <time>2020-08-21T13:36:22Z</time>
      </trkpt>
      <trkpt lat="46.081053" lon="9.142870">
        <ele>787.446</ele>
        <time>2020-08-21T13:36:23Z</time>
      </trkpt>
      <trkpt lat="46.081062" lon="9.142854">
        <ele>787.488</ele>
        <time>2020-08-21T13:36:24Z</time>
      </trkpt>
      <trkpt lat="46.081069" lon="9.142838">
        <ele>786.916</ele>
        <time>2020-08-21T13:36:25Z</time>
      </trkpt>
      <trkpt lat="46.081169" lon="9.142600">
        <ele>788.908</ele>
        <time>2020-08-21T13:36:39Z</time>
      </trkpt>
      <trkpt lat="46.081173" lon="9.142577">
        <ele>789.319</ele>
        <time>2020-08-21T13:36:40Z</time>
      </trkpt>
      <trkpt lat="46.081174" lon="9.142558">
        <ele>789.339</ele>
        <time>2020-08-21T13:36:41Z</time>
      </trkpt>
      <trkpt lat="46.081163" lon="9.142240">
        <ele>790.898</ele>
        <time>2020-08-21T13:36:55Z</time>
      </trkpt>
      <trkpt lat="46.081182" lon="9.142128">
        <ele>791.318</ele>
        <time>2020-08-21T13:37:00Z</time>
      </trkpt>
      <trkpt lat="46.081193" lon="9.142113">
        <ele>791.385</ele>
        <time>2020-08-21T13:37:01Z</time>
      </trkpt>
      <trkpt lat="46.081208" lon="9.142104">
        <ele>791.757</ele>
        <time>2020-08-21T13:37:02Z</time>
      </trkpt>
      <trkpt lat="46.081220" lon="9.142104">
        <ele>791.725</ele>
        <time>2020-08-21T13:37:03Z</time>
      </trkpt>
      <trkpt lat="46.081232" lon="9.142108">
        <ele>791.792</ele>
        <time>2020-08-21T13:37:04Z</time>
      </trkpt>
      <trkpt lat="46.081244" lon="9.142118">
        <ele>792.276</ele>
        <time>2020-08-21T13:37:05Z</time>
      </trkpt>
      <trkpt lat="46.081252" lon="9.142135">
        <ele>792.290</ele>
        <time>2020-08-21T13:37:06Z</time>
      </trkpt>
      <trkpt lat="46.081259" lon="9.142153">
        <ele>792.219</ele>
        <time>2020-08-21T13:37:07Z</time>
      </trkpt>
      <trkpt lat="46.081262" lon="9.142176">
        <ele>792.208</ele>
        <time>2020-08-21T13:37:08Z</time>
      </trkpt>
      <trkpt lat="46.081264" lon="9.142201">
        <ele>792.762</ele>
        <time>2020-08-21T13:37:09Z</time>
      </trkpt>
      <trkpt lat="46.081267" lon="9.142226">
        <ele>792.722</ele>
        <time>2020-08-21T13:37:10Z</time>
      </trkpt>
      <trkpt lat="46.081268" lon="9.142250">
        <ele>792.731</ele>
        <time>2020-08-21T13:37:11Z</time>
      </trkpt>
      <trkpt lat="46.081266" lon="9.142268">
        <ele>792.731</ele>
        <time>2020-08-21T13:37:12Z</time>
      </trkpt>
      <trkpt lat="46.081233" lon="9.142596">
        <ele>794.698</ele>
        <time>2020-08-21T13:37:27Z</time>
      </trkpt>
      <trkpt lat="46.081211" lon="9.142711">
        <ele>795.180</ele>
        <time>2020-08-21T13:37:33Z</time>
      </trkpt>
      <trkpt lat="46.081205" lon="9.142727">
        <ele>795.188</ele>
        <time>2020-08-21T13:37:34Z</time>
      </trkpt>
      <trkpt lat="46.081201" lon="9.142748">
        <ele>795.685</ele>
        <time>2020-08-21T13:37:35Z</time>
      </trkpt>
      <trkpt lat="46.081200" lon="9.142771">
        <ele>795.635</ele>
        <time>2020-08-21T13:37:36Z</time>
      </trkpt>
      <trkpt lat="46.081198" lon="9.142793">
        <ele>796.186</ele>
        <time>2020-08-21T13:37:37Z</time>
      </trkpt>
      <trkpt lat="46.081196" lon="9.142815">
        <ele>796.114</ele>
        <time>2020-08-21T13:37:38Z</time>
      </trkpt>
      <trkpt lat="46.081159" lon="9.143081">
        <ele>797.508</ele>
        <time>2020-08-21T13:37:52Z</time>
      </trkpt>
      <trkpt lat="46.081147" lon="9.143091">
        <ele>798.058</ele>
        <time>2020-08-21T13:37:53Z</time>
      </trkpt>
      <trkpt lat="46.081130" lon="9.143106">
        <ele>798.088</ele>
        <time>2020-08-21T13:37:54Z</time>
      </trkpt>
      <trkpt lat="46.081115" lon="9.143122">
        <ele>798.567</ele>
        <time>2020-08-21T13:37:55Z</time>
      </trkpt>
      <trkpt lat="46.081106" lon="9.143134">
        <ele>798.537</ele>
        <time>2020-08-21T13:37:56Z</time>
      </trkpt>
      <trkpt lat="46.080913" lon="9.143307">
        <ele>799.934</ele>
        <time>2020-08-21T13:38:09Z</time>
      </trkpt>
      <trkpt lat="46.080921" lon="9.143389">
        <ele>799.966</ele>
        <time>2020-08-21T13:38:13Z</time>
      </trkpt>
      <trkpt lat="46.080935" lon="9.143403">
        <ele>799.984</ele>
        <time>2020-08-21T13:38:14Z</time>
      </trkpt>
      <trkpt lat="46.080953" lon="9.143413">
        <ele>799.961</ele>
        <time>2020-08-21T13:38:15Z</time>
      </trkpt>
      <trkpt lat="46.080977" lon="9.143418">
        <ele>799.957</ele>
        <time>2020-08-21T13:38:16Z</time>
      </trkpt>
      <trkpt lat="46.080999" lon="9.143415">
        <ele>799.900</ele>
        <time>2020-08-21T13:38:17Z</time>
      </trkpt>
      <trkpt lat="46.081185" lon="9.143257">
        <ele>801.420</ele>
        <time>2020-08-21T13:38:30Z</time>
      </trkpt>
      <trkpt lat="46.081360" lon="9.142955">
        <ele>803.808</ele>
        <time>2020-08-21T13:38:48Z</time>
      </trkpt>
      <trkpt lat="46.081412" lon="9.142642">
        <ele>805.770</ele>
        <time>2020-08-21T13:39:05Z</time>
      </trkpt>
      <trkpt lat="46.081491" lon="9.142274">
        <ele>807.130</ele>
        <time>2020-08-21T13:39:23Z</time>
      </trkpt>
      <trkpt lat="46.081549" lon="9.142102">
        <ele>808.189</ele>
        <time>2020-08-21T13:39:32Z</time>
      </trkpt>
      <trkpt lat="46.081559" lon="9.142097">
        <ele>808.679</ele>
        <time>2020-08-21T13:39:33Z</time>
      </trkpt>
      <trkpt lat="46.081572" lon="9.142100">
        <ele>808.636</ele>
        <time>2020-08-21T13:39:34Z</time>
      </trkpt>
      <trkpt lat="46.081583" lon="9.142109">
        <ele>809.078</ele>
        <time>2020-08-21T13:39:35Z</time>
      </trkpt>
      <trkpt lat="46.081590" lon="9.142128">
        <ele>809.026</ele>
        <time>2020-08-21T13:39:36Z</time>
      </trkpt>
      <trkpt lat="46.081593" lon="9.142144">
        <ele>809.083</ele>
        <time>2020-08-21T13:39:37Z</time>
      </trkpt>
      <trkpt lat="46.081591" lon="9.142171">
        <ele>809.023</ele>
        <time>2020-08-21T13:39:38Z</time>
      </trkpt>
      <trkpt lat="46.081482" lon="9.142475">
        <ele>810.583</ele>
        <time>2020-08-21T13:39:53Z</time>
      </trkpt>
      <trkpt lat="46.081468" lon="9.142908">
        <ele>813.411</ele>
        <time>2020-08-21T13:40:13Z</time>
      </trkpt>
      <trkpt lat="46.081486" lon="9.143034">
        <ele>814.308</ele>
        <time>2020-08-21T13:40:19Z</time>
      </trkpt>
      <trkpt lat="46.081500" lon="9.143043">
        <ele>814.317</ele>
        <time>2020-08-21T13:40:20Z</time>
      </trkpt>
      <trkpt lat="46.081514" lon="9.143047">
        <ele>814.377</ele>
        <time>2020-08-21T13:40:21Z</time>
      </trkpt>
      <trkpt lat="46.081528" lon="9.143048">
        <ele>814.336</ele>
        <time>2020-08-21T13:40:22Z</time>
      </trkpt>
      <trkpt lat="46.081542" lon="9.143043">
        <ele>814.326</ele>
        <time>2020-08-21T13:40:23Z</time>
      </trkpt>
      <trkpt lat="46.081556" lon="9.143028">
        <ele>814.343</ele>
        <time>2020-08-21T13:40:24Z</time>
      </trkpt>
      <trkpt lat="46.081565" lon="9.143008">
        <ele>814.325</ele>
        <time>2020-08-21T13:40:25Z</time>
      </trkpt>
      <trkpt lat="46.081567" lon="9.142987">
        <ele>814.853</ele>
        <time>2020-08-21T13:40:26Z</time>
      </trkpt>
      <trkpt lat="46.081569" lon="9.142963">
        <ele>814.880</ele>
        <time>2020-08-21T13:40:27Z</time>
      </trkpt>
      <trkpt lat="46.081586" lon="9.142536">
        <ele>817.271</ele>
        <time>2020-08-21T13:40:44Z</time>
      </trkpt>
      <trkpt lat="46.081804" lon="9.142335">
        <ele>820.141</ele>
        <time>2020-08-21T13:41:01Z</time>
      </trkpt>
      <trkpt lat="46.081834" lon="9.142341">
        <ele>820.615</ele>
        <time>2020-08-21T13:41:03Z</time>
      </trkpt>
      <trkpt lat="46.081889" lon="9.142379">
        <ele>821.508</ele>
        <time>2020-08-21T13:41:07Z</time>
      </trkpt>
      <trkpt lat="46.081900" lon="9.142396">
        <ele>821.542</ele>
        <time>2020-08-21T13:41:08Z</time>
      </trkpt>
      <trkpt lat="46.081891" lon="9.142718">
        <ele>823.582</ele>
        <time>2020-08-21T13:41:25Z</time>
      </trkpt>
      <trkpt lat="46.081891" lon="9.142777">
        <ele>824.411</ele>
        <time>2020-08-21T13:41:28Z</time>
      </trkpt>
      <trkpt lat="46.081890" lon="9.142796">
        <ele>824.461</ele>
        <time>2020-08-21T13:41:29Z</time>
      </trkpt>
      <trkpt lat="46.081892" lon="9.142821">
        <ele>824.438</ele>
        <time>2020-08-21T13:41:30Z</time>
      </trkpt>
      <trkpt lat="46.081898" lon="9.142850">
        <ele>824.420</ele>
        <time>2020-08-21T13:41:31Z</time>
      </trkpt>
      <trkpt lat="46.081905" lon="9.142887">
        <ele>824.468</ele>
        <time>2020-08-21T13:41:32Z</time>
      </trkpt>
      <trkpt lat="46.082000" lon="9.143312">
        <ele>823.095</ele>
        <time>2020-08-21T13:41:41Z</time>
      </trkpt>
      <trkpt lat="46.082017" lon="9.143361">
        <ele>822.536</ele>
        <time>2020-08-21T13:41:42Z</time>
      </trkpt>
      <trkpt lat="46.082049" lon="9.143432">
        <ele>822.517</ele>
        <time>2020-08-21T13:41:43Z</time>
      </trkpt>
      <trkpt lat="46.082165" lon="9.143729">
        <ele>823.918</ele>
        <time>2020-08-21T13:41:51Z</time>
      </trkpt>
      <trkpt lat="46.082275" lon="9.144017">
        <ele>825.408</ele>
        <time>2020-08-21T13:42:05Z</time>
      </trkpt>
      <trkpt lat="46.082271" lon="9.144075">
        <ele>825.988</ele>
        <time>2020-08-21T13:42:08Z</time>
      </trkpt>
      <trkpt lat="46.082275" lon="9.144096">
        <ele>826.848</ele>
        <time>2020-08-21T13:42:09Z</time>
      </trkpt>
      <trkpt lat="46.082277" lon="9.144117">
        <ele>826.877</ele>
        <time>2020-08-21T13:42:10Z</time>
      </trkpt>
      <trkpt lat="46.082296" lon="9.144365">
        <ele>829.747</ele>
        <time>2020-08-21T13:42:23Z</time>
      </trkpt>
      <trkpt lat="46.082274" lon="9.144583">
        <ele>831.214</ele>
        <time>2020-08-21T13:42:34Z</time>
      </trkpt>
      <trkpt lat="46.082232" lon="9.144894">
        <ele>833.696</ele>
        <time>2020-08-21T13:42:50Z</time>
      </trkpt>
      <trkpt lat="46.082231" lon="9.145050">
        <ele>834.554</ele>
        <time>2020-08-21T13:42:57Z</time>
      </trkpt>
      <trkpt lat="46.082231" lon="9.145071">
        <ele>834.591</ele>
        <time>2020-08-21T13:42:58Z</time>
      </trkpt>
      <trkpt lat="46.082234" lon="9.145094">
        <ele>834.531</ele>
        <time>2020-08-21T13:42:59Z</time>
      </trkpt>
      <trkpt lat="46.082236" lon="9.145110">
        <ele>834.561</ele>
        <time>2020-08-21T13:43:00Z</time>
      </trkpt>
      <trkpt lat="46.082241" lon="9.145131">
        <ele>834.507</ele>
        <time>2020-08-21T13:43:01Z</time>
      </trkpt>
      <trkpt lat="46.082219" lon="9.145498">
        <ele>836.908</ele>
        <time>2020-08-21T13:43:17Z</time>
      </trkpt>
      <trkpt lat="46.082197" lon="9.145905">
        <ele>838.478</ele>
        <time>2020-08-21T13:43:33Z</time>
      </trkpt>
      <trkpt lat="46.082319" lon="9.146255">
        <ele>840.898</ele>
        <time>2020-08-21T13:43:50Z</time>
      </trkpt>
      <trkpt lat="46.082371" lon="9.146357">
        <ele>842.287</ele>
        <time>2020-08-21T13:43:57Z</time>
      </trkpt>
      <trkpt lat="46.082370" lon="9.146373">
        <ele>842.217</ele>
        <time>2020-08-21T13:43:58Z</time>
      </trkpt>
      <trkpt lat="46.082369" lon="9.146391">
        <ele>842.234</ele>
        <time>2020-08-21T13:43:59Z</time>
      </trkpt>
      <trkpt lat="46.082370" lon="9.146408">
        <ele>842.796</ele>
        <time>2020-08-21T13:44:00Z</time>
      </trkpt>
      <trkpt lat="46.082372" lon="9.146426">
        <ele>842.754</ele>
        <time>2020-08-21T13:44:01Z</time>
      </trkpt>
      <trkpt lat="46.082374" lon="9.146444">
        <ele>842.771</ele>
        <time>2020-08-21T13:44:02Z</time>
      </trkpt>
      <trkpt lat="46.082381" lon="9.146460">
        <ele>843.257</ele>
        <time>2020-08-21T13:44:03Z</time>
      </trkpt>
      <trkpt lat="46.082392" lon="9.146470">
        <ele>842.700</ele>
        <time>2020-08-21T13:44:04Z</time>
      </trkpt>
      <trkpt lat="46.082398" lon="9.146474">
        <ele>842.720</ele>
        <time>2020-08-21T13:44:05Z</time>
      </trkpt>
      <trkpt lat="46.082442" lon="9.146663">
        <ele>844.608</ele>
        <time>2020-08-21T13:44:15Z</time>
      </trkpt>
      <trkpt lat="46.082441" lon="9.146735">
        <ele>845.650</ele>
        <time>2020-08-21T13:44:19Z</time>
      </trkpt>
      <trkpt lat="46.082445" lon="9.146751">
        <ele>845.660</ele>
        <time>2020-08-21T13:44:20Z</time>
      </trkpt>
      <trkpt lat="46.082444" lon="9.146767">
        <ele>846.159</ele>
        <time>2020-08-21T13:44:21Z</time>
      </trkpt>
      <trkpt lat="46.082444" lon="9.146788">
        <ele>846.139</ele>
        <time>2020-08-21T13:44:22Z</time>
      </trkpt>
      <trkpt lat="46.082442" lon="9.146805">
        <ele>846.126</ele>
        <time>2020-08-21T13:44:23Z</time>
      </trkpt>
      <trkpt lat="46.082441" lon="9.146822">
        <ele>846.168</ele>
        <time>2020-08-21T13:44:24Z</time>
      </trkpt>
      <trkpt lat="46.082440" lon="9.146838">
        <ele>847.086</ele>
        <time>2020-08-21T13:44:25Z</time>
      </trkpt>
      <trkpt lat="46.082441" lon="9.146855">
        <ele>847.023</ele>
        <time>2020-08-21T13:44:26Z</time>
      </trkpt>
      <trkpt lat="46.082455" lon="9.146976">
        <ele>848.518</ele>
        <time>2020-08-21T13:44:35Z</time>
      </trkpt>
      <trkpt lat="46.082456" lon="9.146994">
        <ele>848.598</ele>
        <time>2020-08-21T13:44:36Z</time>
      </trkpt>
      <trkpt lat="46.082460" lon="9.147009">
        <ele>848.917</ele>
        <time>2020-08-21T13:44:37Z</time>
      </trkpt>
      <trkpt lat="46.082456" lon="9.147025">
        <ele>849.408</ele>
        <time>2020-08-21T13:44:38Z</time>
      </trkpt>
      <trkpt lat="46.082454" lon="9.147044">
        <ele>849.496</ele>
        <time>2020-08-21T13:44:39Z</time>
      </trkpt>
      <trkpt lat="46.082458" lon="9.147064">
        <ele>849.426</ele>
        <time>2020-08-21T13:44:40Z</time>
      </trkpt>
      <trkpt lat="46.082465" lon="9.147075">
        <ele>849.485</ele>
        <time>2020-08-21T13:44:41Z</time>
      </trkpt>
      <trkpt lat="46.082474" lon="9.147085">
        <ele>849.495</ele>
        <time>2020-08-21T13:44:42Z</time>
      </trkpt>
      <trkpt lat="46.082487" lon="9.147088">
        <ele>849.412</ele>
        <time>2020-08-21T13:44:43Z</time>
      </trkpt>
      <trkpt lat="46.082500" lon="9.147084">
        <ele>849.454</ele>
        <time>2020-08-21T13:44:44Z</time>
      </trkpt>
      <trkpt lat="46.082508" lon="9.147076">
        <ele>849.432</ele>
        <time>2020-08-21T13:44:45Z</time>
      </trkpt>
      <trkpt lat="46.082517" lon="9.147064">
        <ele>849.499</ele>
        <time>2020-08-21T13:44:46Z</time>
      </trkpt>
      <trkpt lat="46.082527" lon="9.147050">
        <ele>849.958</ele>
        <time>2020-08-21T13:44:47Z</time>
      </trkpt>
      <trkpt lat="46.082534" lon="9.147031">
        <ele>849.952</ele>
        <time>2020-08-21T13:44:48Z</time>
      </trkpt>
      <trkpt lat="46.082538" lon="9.147011">
        <ele>849.917</ele>
        <time>2020-08-21T13:44:49Z</time>
      </trkpt>
      <trkpt lat="46.082542" lon="9.146988">
        <ele>850.408</ele>
        <time>2020-08-21T13:44:50Z</time>
      </trkpt>
      <trkpt lat="46.082544" lon="9.146967">
        <ele>850.490</ele>
        <time>2020-08-21T13:44:51Z</time>
      </trkpt>
      <trkpt lat="46.082649" lon="9.146595">
        <ele>852.350</ele>
        <time>2020-08-21T13:45:10Z</time>
      </trkpt>
      <trkpt lat="46.082669" lon="9.146150">
        <ele>854.279</ele>
        <time>2020-08-21T13:45:29Z</time>
      </trkpt>
      <trkpt lat="46.082738" lon="9.145737">
        <ele>856.199</ele>
        <time>2020-08-21T13:45:45Z</time>
      </trkpt>
      <trkpt lat="46.082862" lon="9.145349">
        <ele>859.516</ele>
        <time>2020-08-21T13:46:02Z</time>
      </trkpt>
      <trkpt lat="46.083016" lon="9.144867">
        <ele>862.428</ele>
        <time>2020-08-21T13:46:22Z</time>
      </trkpt>
      <trkpt lat="46.083148" lon="9.144477">
        <ele>864.326</ele>
        <time>2020-08-21T13:46:38Z</time>
      </trkpt>
      <trkpt lat="46.083326" lon="9.144129">
        <ele>866.723</ele>
        <time>2020-08-21T13:46:52Z</time>
      </trkpt>
      <trkpt lat="46.083534" lon="9.143707">
        <ele>869.624</ele>
        <time>2020-08-21T13:47:09Z</time>
      </trkpt>
      <trkpt lat="46.083667" lon="9.143364">
        <ele>871.504</ele>
        <time>2020-08-21T13:47:24Z</time>
      </trkpt>
      <trkpt lat="46.083840" lon="9.143069">
        <ele>873.914</ele>
        <time>2020-08-21T13:47:41Z</time>
      </trkpt>
      <trkpt lat="46.083867" lon="9.143068">
        <ele>874.408</ele>
        <time>2020-08-21T13:47:43Z</time>
      </trkpt>
      <trkpt lat="46.083878" lon="9.143083">
        <ele>874.957</ele>
        <time>2020-08-21T13:47:44Z</time>
      </trkpt>
      <trkpt lat="46.083883" lon="9.143105">
        <ele>874.947</ele>
        <time>2020-08-21T13:47:45Z</time>
      </trkpt>
      <trkpt lat="46.083759" lon="9.143476">
        <ele>876.876</ele>
        <time>2020-08-21T13:48:02Z</time>
      </trkpt>
      <trkpt lat="46.083605" lon="9.143956">
        <ele>878.776</ele>
        <time>2020-08-21T13:48:20Z</time>
      </trkpt>
      <trkpt lat="46.083512" lon="9.144364">
        <ele>880.783</ele>
        <time>2020-08-21T13:48:34Z</time>
      </trkpt>
      <trkpt lat="46.083577" lon="9.144644">
        <ele>881.665</ele>
        <time>2020-08-21T13:48:45Z</time>
      </trkpt>
      <trkpt lat="46.083598" lon="9.144644">
        <ele>881.633</ele>
        <time>2020-08-21T13:48:46Z</time>
      </trkpt>
      <trkpt lat="46.083688" lon="9.144364">
        <ele>883.120</ele>
        <time>2020-08-21T13:48:57Z</time>
      </trkpt>
      <trkpt lat="46.083839" lon="9.143789">
        <ele>884.552</ele>
        <time>2020-08-21T13:49:15Z</time>
      </trkpt>
      <trkpt lat="46.084013" lon="9.143369">
        <ele>886.953</ele>
        <time>2020-08-21T13:49:30Z</time>
      </trkpt>
      <trkpt lat="46.084244" lon="9.143041">
        <ele>888.808</ele>
        <time>2020-08-21T13:49:47Z</time>
      </trkpt>
      <trkpt lat="46.084470" lon="9.142743">
        <ele>892.208</ele>
        <time>2020-08-21T13:50:04Z</time>
      </trkpt>
      <trkpt lat="46.084540" lon="9.142352">
        <ele>894.120</ele>
        <time>2020-08-21T13:50:21Z</time>
      </trkpt>
      <trkpt lat="46.084679" lon="9.141982">
        <ele>897.090</ele>
        <time>2020-08-21T13:50:38Z</time>
      </trkpt>
      <trkpt lat="46.084862" lon="9.141647">
        <ele>899.939</ele>
        <time>2020-08-21T13:50:56Z</time>
      </trkpt>
      <trkpt lat="46.084986" lon="9.141405">
        <ele>900.839</ele>
        <time>2020-08-21T13:51:08Z</time>
      </trkpt>
      <trkpt lat="46.085132" lon="9.141276">
        <ele>902.346</ele>
        <time>2020-08-21T13:51:18Z</time>
      </trkpt>
      <trkpt lat="46.085310" lon="9.141211">
        <ele>903.758</ele>
        <time>2020-08-21T13:51:31Z</time>
      </trkpt>
      <trkpt lat="46.085528" lon="9.141081">
        <ele>905.256</ele>
        <time>2020-08-21T13:51:43Z</time>
      </trkpt>
      <trkpt lat="46.085764" lon="9.140770">
        <ele>907.173</ele>
        <time>2020-08-21T13:51:58Z</time>
      </trkpt>
      <trkpt lat="46.085834" lon="9.140401">
        <ele>908.555</ele>
        <time>2020-08-21T13:52:13Z</time>
      </trkpt>
      <trkpt lat="46.085813" lon="9.140073">
        <ele>910.007</ele>
        <time>2020-08-21T13:52:26Z</time>
      </trkpt>
      <trkpt lat="46.085723" lon="9.139815">
        <ele>912.417</ele>
        <time>2020-08-21T13:52:38Z</time>
      </trkpt>
      <trkpt lat="46.085708" lon="9.139809">
        <ele>912.408</ele>
        <time>2020-08-21T13:52:39Z</time>
      </trkpt>
      <trkpt lat="46.085692" lon="9.139804">
        <ele>912.480</ele>
        <time>2020-08-21T13:52:40Z</time>
      </trkpt>
      <trkpt lat="46.085677" lon="9.139796">
        <ele>912.470</ele>
        <time>2020-08-21T13:52:41Z</time>
      </trkpt>
      <trkpt lat="46.085659" lon="9.139790">
        <ele>912.449</ele>
        <time>2020-08-21T13:52:42Z</time>
      </trkpt>
      <trkpt lat="46.085642" lon="9.139788">
        <ele>912.939</ele>
        <time>2020-08-21T13:52:43Z</time>
      </trkpt>
      <trkpt lat="46.085325" lon="9.139727">
        <ele>914.336</ele>
        <time>2020-08-21T13:52:59Z</time>
      </trkpt>
      <trkpt lat="46.085187" lon="9.139670">
        <ele>915.398</ele>
        <time>2020-08-21T13:53:07Z</time>
      </trkpt>
      <trkpt lat="46.085171" lon="9.139658">
        <ele>915.796</ele>
        <time>2020-08-21T13:53:08Z</time>
      </trkpt>
      <trkpt lat="46.084918" lon="9.139257">
        <ele>917.243</ele>
        <time>2020-08-21T13:53:28Z</time>
      </trkpt>
      <trkpt lat="46.084732" lon="9.138933">
        <ele>920.122</ele>
        <time>2020-08-21T13:53:46Z</time>
      </trkpt>
      <trkpt lat="46.084602" lon="9.138603">
        <ele>923.062</ele>
        <time>2020-08-21T13:54:04Z</time>
      </trkpt>
      <trkpt lat="46.084619" lon="9.138214">
        <ele>924.408</ele>
        <time>2020-08-21T13:54:19Z</time>
      </trkpt>
      <trkpt lat="46.084730" lon="9.137935">
        <ele>926.308</ele>
        <time>2020-08-21T13:54:32Z</time>
      </trkpt>
      <trkpt lat="46.084928" lon="9.137615">
        <ele>928.787</ele>
        <time>2020-08-21T13:54:51Z</time>
      </trkpt>
      <trkpt lat="46.085083" lon="9.137320">
        <ele>930.217</ele>
        <time>2020-08-21T13:55:07Z</time>
      </trkpt>
      <trkpt lat="46.085139" lon="9.136931">
        <ele>933.156</ele>
        <time>2020-08-21T13:55:24Z</time>
      </trkpt>
      <trkpt lat="46.085356" lon="9.136609">
        <ele>935.586</ele>
        <time>2020-08-21T13:55:42Z</time>
      </trkpt>
      <trkpt lat="46.085624" lon="9.136382">
        <ele>937.993</ele>
        <time>2020-08-21T13:56:00Z</time>
      </trkpt>
      <trkpt lat="46.085860" lon="9.136181">
        <ele>939.895</ele>
        <time>2020-08-21T13:56:15Z</time>
      </trkpt>
      <trkpt lat="46.086090" lon="9.135899">
        <ele>941.773</ele>
        <time>2020-08-21T13:56:31Z</time>
      </trkpt>
      <trkpt lat="46.086347" lon="9.135810">
        <ele>944.130</ele>
        <time>2020-08-21T13:56:46Z</time>
      </trkpt>
      <trkpt lat="46.086364" lon="9.135800">
        <ele>945.189</ele>
        <time>2020-08-21T13:56:47Z</time>
      </trkpt>
      <trkpt lat="46.086641" lon="9.135607">
        <ele>946.506</ele>
        <time>2020-08-21T13:57:03Z</time>
      </trkpt>
      <trkpt lat="46.086904" lon="9.135224">
        <ele>948.026</ele>
        <time>2020-08-21T13:57:21Z</time>
      </trkpt>
      <trkpt lat="46.087115" lon="9.134822">
        <ele>950.408</ele>
        <time>2020-08-21T13:57:37Z</time>
      </trkpt>
      <trkpt lat="46.087334" lon="9.134307">
        <ele>952.373</ele>
        <time>2020-08-21T13:57:53Z</time>
      </trkpt>
      <trkpt lat="46.087413" lon="9.134135">
        <ele>946.043</ele>
        <time>2020-08-21T13:58:00Z</time>
      </trkpt>
      <trkpt lat="46.087422" lon="9.134110">
        <ele>958.042</ele>
        <time>2020-08-21T13:58:01Z</time>
      </trkpt>
      <trkpt lat="46.087434" lon="9.134087">
        <ele>954.222</ele>
        <time>2020-08-21T13:58:02Z</time>
      </trkpt>
      <trkpt lat="46.087627" lon="9.133771">
        <ele>955.669</ele>
        <time>2020-08-21T13:58:17Z</time>
      </trkpt>
      <trkpt lat="46.087800" lon="9.133368">
        <ele>958.071</ele>
        <time>2020-08-21T13:58:35Z</time>
      </trkpt>
      <trkpt lat="46.087947" lon="9.132961">
        <ele>960.479</ele>
        <time>2020-08-21T13:58:53Z</time>
      </trkpt>
      <trkpt lat="46.088122" lon="9.132629">
        <ele>961.946</ele>
        <time>2020-08-21T13:59:08Z</time>
      </trkpt>
      <trkpt lat="46.088262" lon="9.132223">
        <ele>963.334</ele>
        <time>2020-08-21T13:59:23Z</time>
      </trkpt>
      <trkpt lat="46.088467" lon="9.131858">
        <ele>965.355</ele>
        <time>2020-08-21T13:59:38Z</time>
      </trkpt>
      <trkpt lat="46.088658" lon="9.131455">
        <ele>967.210</ele>
        <time>2020-08-21T13:59:54Z</time>
      </trkpt>
      <trkpt lat="46.089023" lon="9.131336">
        <ele>968.108</ele>
        <time>2020-08-21T14:00:09Z</time>
      </trkpt>
      <trkpt lat="46.089099" lon="9.130981">
        <ele>968.128</ele>
        <time>2020-08-21T14:00:19Z</time>
      </trkpt>
      <trkpt lat="46.089053" lon="9.130882">
        <ele>968.138</ele>
        <time>2020-08-21T14:00:21Z</time>
      </trkpt>
      <trkpt lat="46.089041" lon="9.130838">
        <ele>968.147</ele>
        <time>2020-08-21T14:00:22Z</time>
      </trkpt>
      <trkpt lat="46.089029" lon="9.130767">
        <ele>967.277</ele>
        <time>2020-08-21T14:00:23Z</time>
      </trkpt>
      <trkpt lat="46.089025" lon="9.130698">
        <ele>967.254</ele>
        <time>2020-08-21T14:00:24Z</time>
      </trkpt>
      <trkpt lat="46.089028" lon="9.130612">
        <ele>966.216</ele>
        <time>2020-08-21T14:00:25Z</time>
      </trkpt>
      <trkpt lat="46.089038" lon="9.130531">
        <ele>966.284</ele>
        <time>2020-08-21T14:00:26Z</time>
      </trkpt>
      <trkpt lat="46.089054" lon="9.130436">
        <ele>965.351</ele>
        <time>2020-08-21T14:00:27Z</time>
      </trkpt>
      <trkpt lat="46.089077" lon="9.130347">
        <ele>964.842</ele>
        <time>2020-08-21T14:00:28Z</time>
      </trkpt>
      <trkpt lat="46.089111" lon="9.130256">
        <ele>964.822</ele>
        <time>2020-08-21T14:00:29Z</time>
      </trkpt>
      <trkpt lat="46.089151" lon="9.130167">
        <ele>963.814</ele>
        <time>2020-08-21T14:00:30Z</time>
      </trkpt>
      <trkpt lat="46.089187" lon="9.130073">
        <ele>963.308</ele>
        <time>2020-08-21T14:00:31Z</time>
      </trkpt>
      <trkpt lat="46.089216" lon="9.129970">
        <ele>963.349</ele>
        <time>2020-08-21T14:00:32Z</time>
      </trkpt>
      <trkpt lat="46.089233" lon="9.129872">
        <ele>962.449</ele>
        <time>2020-08-21T14:00:33Z</time>
      </trkpt>
      <trkpt lat="46.089241" lon="9.129753">
        <ele>961.418</ele>
        <time>2020-08-21T14:00:34Z</time>
      </trkpt>
      <trkpt lat="46.089245" lon="9.129646">
        <ele>960.448</ele>
        <time>2020-08-21T14:00:35Z</time>
      </trkpt>
      <trkpt lat="46.089249" lon="9.129389">
        <ele>959.015</ele>
        <time>2020-08-21T14:00:37Z</time>
      </trkpt>
      <trkpt lat="46.089241" lon="9.129288">
        <ele>957.697</ele>
        <time>2020-08-21T14:00:38Z</time>
      </trkpt>
      <trkpt lat="46.089199" lon="9.128896">
        <ele>955.275</ele>
        <time>2020-08-21T14:00:41Z</time>
      </trkpt>
      <trkpt lat="46.089197" lon="9.128746">
        <ele>954.242</ele>
        <time>2020-08-21T14:00:42Z</time>
      </trkpt>
      <trkpt lat="46.089205" lon="9.128628">
        <ele>953.249</ele>
        <time>2020-08-21T14:00:43Z</time>
      </trkpt>
      <trkpt lat="46.089229" lon="9.128305">
        <ele>949.902</ele>
        <time>2020-08-21T14:00:46Z</time>
      </trkpt>
      <trkpt lat="46.089239" lon="9.128189">
        <ele>949.922</ele>
        <time>2020-08-21T14:00:47Z</time>
      </trkpt>
      <trkpt lat="46.089354" lon="9.127509">
        <ele>946.508</ele>
        <time>2020-08-21T14:00:53Z</time>
      </trkpt>
      <trkpt lat="46.089373" lon="9.127394">
        <ele>946.519</ele>
        <time>2020-08-21T14:00:54Z</time>
      </trkpt>
      <trkpt lat="46.089422" lon="9.126767">
        <ele>943.199</ele>
        <time>2020-08-21T14:00:59Z</time>
      </trkpt>
      <trkpt lat="46.089417" lon="9.126123">
        <ele>939.868</ele>
        <time>2020-08-21T14:01:04Z</time>
      </trkpt>
      <trkpt lat="46.089331" lon="9.125274">
        <ele>936.438</ele>
        <time>2020-08-21T14:01:10Z</time>
      </trkpt>
      <trkpt lat="46.089317" lon="9.125128">
        <ele>936.425</ele>
        <time>2020-08-21T14:01:11Z</time>
      </trkpt>
      <trkpt lat="46.089289" lon="9.124834">
        <ele>935.567</ele>
        <time>2020-08-21T14:01:13Z</time>
      </trkpt>
      <trkpt lat="46.089276" lon="9.124565">
        <ele>935.055</ele>
        <time>2020-08-21T14:01:15Z</time>
      </trkpt>
      <trkpt lat="46.089339" lon="9.123760">
        <ele>933.542</ele>
        <time>2020-08-21T14:01:21Z</time>
      </trkpt>
      <trkpt lat="46.089378" lon="9.123647">
        <ele>933.594</ele>
        <time>2020-08-21T14:01:22Z</time>
      </trkpt>
      <trkpt lat="46.089424" lon="9.123551">
        <ele>934.057</ele>
        <time>2020-08-21T14:01:23Z</time>
      </trkpt>
      <trkpt lat="46.089480" lon="9.123450">
        <ele>933.122</ele>
        <time>2020-08-21T14:01:24Z</time>
      </trkpt>
      <trkpt lat="46.089542" lon="9.123349">
        <ele>932.608</ele>
        <time>2020-08-21T14:01:25Z</time>
      </trkpt>
      <trkpt lat="46.089671" lon="9.123157">
        <ele>931.614</ele>
        <time>2020-08-21T14:01:27Z</time>
      </trkpt>
      <trkpt lat="46.089742" lon="9.123080">
        <ele>931.184</ele>
        <time>2020-08-21T14:01:28Z</time>
      </trkpt>
      <trkpt lat="46.089822" lon="9.123011">
        <ele>930.283</ele>
        <time>2020-08-21T14:01:29Z</time>
      </trkpt>
      <trkpt lat="46.089885" lon="9.122958">
        <ele>930.233</ele>
        <time>2020-08-21T14:01:30Z</time>
      </trkpt>
      <trkpt lat="46.090084" lon="9.122817">
        <ele>928.230</ele>
        <time>2020-08-21T14:01:33Z</time>
      </trkpt>
      <trkpt lat="46.090150" lon="9.122814">
        <ele>926.892</ele>
        <time>2020-08-21T14:01:34Z</time>
      </trkpt>
      <trkpt lat="46.090228" lon="9.122866">
        <ele>926.890</ele>
        <time>2020-08-21T14:01:35Z</time>
      </trkpt>
      <trkpt lat="46.090471" lon="9.123126">
        <ele>924.417</ele>
        <time>2020-08-21T14:01:39Z</time>
      </trkpt>
      <trkpt lat="46.090529" lon="9.123210">
        <ele>923.999</ele>
        <time>2020-08-21T14:01:40Z</time>
      </trkpt>
      <trkpt lat="46.090590" lon="9.123278">
        <ele>923.007</ele>
        <time>2020-08-21T14:01:41Z</time>
      </trkpt>
      <trkpt lat="46.090655" lon="9.123328">
        <ele>923.027</ele>
        <time>2020-08-21T14:01:42Z</time>
      </trkpt>
      <trkpt lat="46.090719" lon="9.123340">
        <ele>922.508</ele>
        <time>2020-08-21T14:01:43Z</time>
      </trkpt>
      <trkpt lat="46.090781" lon="9.123314">
        <ele>922.044</ele>
        <time>2020-08-21T14:01:44Z</time>
      </trkpt>
      <trkpt lat="46.090835" lon="9.123247">
        <ele>922.014</ele>
        <time>2020-08-21T14:01:45Z</time>
      </trkpt>
      <trkpt lat="46.090883" lon="9.123153">
        <ele>920.683</ele>
        <time>2020-08-21T14:01:46Z</time>
      </trkpt>
      <trkpt lat="46.090928" lon="9.123068">
        <ele>919.643</ele>
        <time>2020-08-21T14:01:47Z</time>
      </trkpt>
      <trkpt lat="46.090985" lon="9.122992">
        <ele>919.680</ele>
        <time>2020-08-21T14:01:48Z</time>
      </trkpt>
      <trkpt lat="46.091041" lon="9.122941">
        <ele>918.662</ele>
        <time>2020-08-21T14:01:49Z</time>
      </trkpt>
      <trkpt lat="46.091111" lon="9.122890">
        <ele>918.260</ele>
        <time>2020-08-21T14:01:50Z</time>
      </trkpt>
      <trkpt lat="46.091183" lon="9.122840">
        <ele>917.257</ele>
        <time>2020-08-21T14:01:51Z</time>
      </trkpt>
      <trkpt lat="46.091420" lon="9.122698">
        <ele>915.334</ele>
        <time>2020-08-21T14:01:54Z</time>
      </trkpt>
      <trkpt lat="46.091503" lon="9.122673">
        <ele>914.855</ele>
        <time>2020-08-21T14:01:55Z</time>
      </trkpt>
      <trkpt lat="46.091582" lon="9.122676">
        <ele>913.810</ele>
        <time>2020-08-21T14:01:56Z</time>
      </trkpt>
      <trkpt lat="46.091659" lon="9.122715">
        <ele>912.908</ele>
        <time>2020-08-21T14:01:57Z</time>
      </trkpt>
      <trkpt lat="46.091736" lon="9.122749">
        <ele>911.958</ele>
        <time>2020-08-21T14:01:58Z</time>
      </trkpt>
      <trkpt lat="46.091819" lon="9.122762">
        <ele>910.928</ele>
        <time>2020-08-21T14:01:59Z</time>
      </trkpt>
      <trkpt lat="46.091904" lon="9.122760">
        <ele>910.047</ele>
        <time>2020-08-21T14:02:00Z</time>
      </trkpt>
      <trkpt lat="46.092059" lon="9.122732">
        <ele>908.547</ele>
        <time>2020-08-21T14:02:02Z</time>
      </trkpt>
      <trkpt lat="46.092147" lon="9.122695">
        <ele>907.664</ele>
        <time>2020-08-21T14:02:03Z</time>
      </trkpt>
      <trkpt lat="46.092295" lon="9.122627">
        <ele>905.766</ele>
        <time>2020-08-21T14:02:05Z</time>
      </trkpt>
      <trkpt lat="46.092447" lon="9.122571">
        <ele>904.284</ele>
        <time>2020-08-21T14:02:07Z</time>
      </trkpt>
      <trkpt lat="46.092529" lon="9.122538">
        <ele>903.391</ele>
        <time>2020-08-21T14:02:08Z</time>
      </trkpt>
      <trkpt lat="46.092610" lon="9.122530">
        <ele>902.397</ele>
        <time>2020-08-21T14:02:09Z</time>
      </trkpt>
      <trkpt lat="46.092693" lon="9.122550">
        <ele>901.323</ele>
        <time>2020-08-21T14:02:10Z</time>
      </trkpt>
      <trkpt lat="46.092774" lon="9.122588">
        <ele>899.925</ele>
        <time>2020-08-21T14:02:11Z</time>
      </trkpt>
      <trkpt lat="46.092853" lon="9.122646">
        <ele>899.908</ele>
        <time>2020-08-21T14:02:12Z</time>
      </trkpt>
      <trkpt lat="46.092924" lon="9.122717">
        <ele>898.484</ele>
        <time>2020-08-21T14:02:13Z</time>
      </trkpt>
      <trkpt lat="46.092984" lon="9.122799">
        <ele>898.034</ele>
        <time>2020-08-21T14:02:14Z</time>
      </trkpt>
      <trkpt lat="46.093032" lon="9.122883">
        <ele>897.063</ele>
        <time>2020-08-21T14:02:15Z</time>
      </trkpt>
      <trkpt lat="46.093072" lon="9.122971">
        <ele>895.643</ele>
        <time>2020-08-21T14:02:16Z</time>
      </trkpt>
      <trkpt lat="46.093124" lon="9.123070">
        <ele>894.650</ele>
        <time>2020-08-21T14:02:17Z</time>
      </trkpt>
      <trkpt lat="46.093160" lon="9.123100">
        <ele>894.172</ele>
        <time>2020-08-21T14:02:18Z</time>
      </trkpt>
      <trkpt lat="46.093214" lon="9.123113">
        <ele>893.220</ele>
        <time>2020-08-21T14:02:19Z</time>
      </trkpt>
      <trkpt lat="46.093283" lon="9.123106">
        <ele>892.277</ele>
        <time>2020-08-21T14:02:20Z</time>
      </trkpt>
      <trkpt lat="46.093347" lon="9.123104">
        <ele>891.229</ele>
        <time>2020-08-21T14:02:21Z</time>
      </trkpt>
      <trkpt lat="46.093423" lon="9.123108">
        <ele>890.800</ele>
        <time>2020-08-21T14:02:22Z</time>
      </trkpt>
      <trkpt lat="46.093494" lon="9.123117">
        <ele>889.320</ele>
        <time>2020-08-21T14:02:23Z</time>
      </trkpt>
      <trkpt lat="46.093578" lon="9.123168">
        <ele>888.408</ele>
        <time>2020-08-21T14:02:24Z</time>
      </trkpt>
      <trkpt lat="46.093643" lon="9.123244">
        <ele>887.947</ele>
        <time>2020-08-21T14:02:25Z</time>
      </trkpt>
      <trkpt lat="46.093697" lon="9.123350">
        <ele>886.997</ele>
        <time>2020-08-21T14:02:26Z</time>
      </trkpt>
      <trkpt lat="46.093733" lon="9.123454">
        <ele>885.996</ele>
        <time>2020-08-21T14:02:27Z</time>
      </trkpt>
      <trkpt lat="46.093775" lon="9.123562">
        <ele>885.046</ele>
        <time>2020-08-21T14:02:28Z</time>
      </trkpt>
      <trkpt lat="46.093814" lon="9.123606">
        <ele>885.073</ele>
        <time>2020-08-21T14:02:29Z</time>
      </trkpt>
      <trkpt lat="46.093871" lon="9.123629">
        <ele>884.095</ele>
        <time>2020-08-21T14:02:30Z</time>
      </trkpt>
      <trkpt lat="46.093941" lon="9.123625">
        <ele>884.093</ele>
        <time>2020-08-21T14:02:31Z</time>
      </trkpt>
      <trkpt lat="46.094001" lon="9.123612">
        <ele>884.070</ele>
        <time>2020-08-21T14:02:32Z</time>
      </trkpt>
      <trkpt lat="46.094067" lon="9.123574">
        <ele>883.589</ele>
        <time>2020-08-21T14:02:33Z</time>
      </trkpt>
      <trkpt lat="46.094117" lon="9.123504">
        <ele>883.106</ele>
        <time>2020-08-21T14:02:34Z</time>
      </trkpt>
      <trkpt lat="46.094157" lon="9.123419">
        <ele>882.126</ele>
        <time>2020-08-21T14:02:35Z</time>
      </trkpt>
      <trkpt lat="46.094182" lon="9.123322">
        <ele>882.608</ele>
        <time>2020-08-21T14:02:36Z</time>
      </trkpt>
      <trkpt lat="46.094195" lon="9.123218">
        <ele>881.643</ele>
        <time>2020-08-21T14:02:37Z</time>
      </trkpt>
      <trkpt lat="46.094209" lon="9.123102">
        <ele>881.633</ele>
        <time>2020-08-21T14:02:38Z</time>
      </trkpt>
      <trkpt lat="46.094258" lon="9.122651">
        <ele>880.242</ele>
        <time>2020-08-21T14:02:42Z</time>
      </trkpt>
      <trkpt lat="46.094241" lon="9.122530">
        <ele>879.772</ele>
        <time>2020-08-21T14:02:43Z</time>
      </trkpt>
      <trkpt lat="46.094216" lon="9.122417">
        <ele>879.299</ele>
        <time>2020-08-21T14:02:44Z</time>
      </trkpt>
      <trkpt lat="46.094190" lon="9.122306">
        <ele>878.731</ele>
        <time>2020-08-21T14:02:45Z</time>
      </trkpt>
      <trkpt lat="46.094173" lon="9.122193">
        <ele>878.389</ele>
        <time>2020-08-21T14:02:46Z</time>
      </trkpt>
      <trkpt lat="46.094167" lon="9.122074">
        <ele>877.856</ele>
        <time>2020-08-21T14:02:47Z</time>
      </trkpt>
      <trkpt lat="46.094175" lon="9.121955">
        <ele>876.885</ele>
        <time>2020-08-21T14:02:48Z</time>
      </trkpt>
      <trkpt lat="46.094187" lon="9.121838">
        <ele>876.889</ele>
        <time>2020-08-21T14:02:49Z</time>
      </trkpt>
      <trkpt lat="46.094188" lon="9.121713">
        <ele>876.317</ele>
        <time>2020-08-21T14:02:50Z</time>
      </trkpt>
      <trkpt lat="46.094173" lon="9.121600">
        <ele>875.908</ele>
        <time>2020-08-21T14:02:51Z</time>
      </trkpt>
      <trkpt lat="46.094147" lon="9.121489">
        <ele>875.473</ele>
        <time>2020-08-21T14:02:52Z</time>
      </trkpt>
      <trkpt lat="46.094117" lon="9.121382">
        <ele>875.483</ele>
        <time>2020-08-21T14:02:53Z</time>
      </trkpt>
      <trkpt lat="46.094099" lon="9.121273">
        <ele>874.952</ele>
        <time>2020-08-21T14:02:54Z</time>
      </trkpt>
      <trkpt lat="46.094103" lon="9.121164">
        <ele>873.982</ele>
        <time>2020-08-21T14:02:55Z</time>
      </trkpt>
      <trkpt lat="46.094134" lon="9.121067">
        <ele>873.599</ele>
        <time>2020-08-21T14:02:56Z</time>
      </trkpt>
      <trkpt lat="46.094193" lon="9.120988">
        <ele>873.051</ele>
        <time>2020-08-21T14:02:57Z</time>
      </trkpt>
      <trkpt lat="46.094247" lon="9.120923">
        <ele>872.589</ele>
        <time>2020-08-21T14:02:58Z</time>
      </trkpt>
      <trkpt lat="46.094311" lon="9.120852">
        <ele>872.066</ele>
        <time>2020-08-21T14:02:59Z</time>
      </trkpt>
      <trkpt lat="46.094390" lon="9.120790">
        <ele>871.085</ele>
        <time>2020-08-21T14:03:00Z</time>
      </trkpt>
      <trkpt lat="46.094462" lon="9.120758">
        <ele>870.689</ele>
        <time>2020-08-21T14:03:01Z</time>
      </trkpt>
      <trkpt lat="46.094870" lon="9.120648">
        <ele>867.217</ele>
        <time>2020-08-21T14:03:06Z</time>
      </trkpt>
      <trkpt lat="46.094952" lon="9.120607">
        <ele>867.208</ele>
        <time>2020-08-21T14:03:07Z</time>
      </trkpt>
      <trkpt lat="46.095654" lon="9.120190">
        <ele>864.893</ele>
        <time>2020-08-21T14:03:15Z</time>
      </trkpt>
      <trkpt lat="46.095798" lon="9.120135">
        <ele>863.833</ele>
        <time>2020-08-21T14:03:17Z</time>
      </trkpt>
      <trkpt lat="46.095872" lon="9.120058">
        <ele>863.842</ele>
        <time>2020-08-21T14:03:18Z</time>
      </trkpt>
      <trkpt lat="46.095913" lon="9.119982">
        <ele>862.912</ele>
        <time>2020-08-21T14:03:19Z</time>
      </trkpt>
      <trkpt lat="46.095951" lon="9.119888">
        <ele>862.919</ele>
        <time>2020-08-21T14:03:20Z</time>
      </trkpt>
      <trkpt lat="46.095981" lon="9.119810">
        <ele>862.961</ele>
        <time>2020-08-21T14:03:21Z</time>
      </trkpt>
      <trkpt lat="46.096026" lon="9.119732">
        <ele>861.969</ele>
        <time>2020-08-21T14:03:22Z</time>
      </trkpt>
      <trkpt lat="46.096077" lon="9.119657">
        <ele>861.066</ele>
        <time>2020-08-21T14:03:23Z</time>
      </trkpt>
      <trkpt lat="46.096132" lon="9.119586">
        <ele>861.063</ele>
        <time>2020-08-21T14:03:24Z</time>
      </trkpt>
      <trkpt lat="46.096241" lon="9.119422">
        <ele>859.544</ele>
        <time>2020-08-21T14:03:26Z</time>
      </trkpt>
      <trkpt lat="46.096282" lon="9.119331">
        <ele>859.518</ele>
        <time>2020-08-21T14:03:27Z</time>
      </trkpt>
      <trkpt lat="46.096314" lon="9.119230">
        <ele>858.508</ele>
        <time>2020-08-21T14:03:28Z</time>
      </trkpt>
      <trkpt lat="46.096365" lon="9.119036">
        <ele>857.631</ele>
        <time>2020-08-21T14:03:30Z</time>
      </trkpt>
      <trkpt lat="46.096377" lon="9.118952">
        <ele>856.691</ele>
        <time>2020-08-21T14:03:31Z</time>
      </trkpt>
      <trkpt lat="46.096369" lon="9.118875">
        <ele>856.630</ele>
        <time>2020-08-21T14:03:32Z</time>
      </trkpt>
      <trkpt lat="46.096341" lon="9.118804">
        <ele>856.110</ele>
        <time>2020-08-21T14:03:33Z</time>
      </trkpt>
      <trkpt lat="46.096243" lon="9.118622">
        <ele>856.157</ele>
        <time>2020-08-21T14:03:36Z</time>
      </trkpt>
      <trkpt lat="46.096206" lon="9.118578">
        <ele>856.119</ele>
        <time>2020-08-21T14:03:37Z</time>
      </trkpt>
      <trkpt lat="46.096168" lon="9.118544">
        <ele>856.187</ele>
        <time>2020-08-21T14:03:38Z</time>
      </trkpt>
      <trkpt lat="46.096122" lon="9.118508">
        <ele>856.154</ele>
        <time>2020-08-21T14:03:39Z</time>
      </trkpt>
      <trkpt lat="46.096099" lon="9.118493">
        <ele>856.144</ele>
        <time>2020-08-21T14:03:40Z</time>
      </trkpt>
      <trkpt lat="46.095926" lon="9.118371">
        <ele>857.605</ele>
        <time>2020-08-21T14:03:49Z</time>
      </trkpt>
      <trkpt lat="46.095724" lon="9.118334">
        <ele>859.515</ele>
        <time>2020-08-21T14:04:02Z</time>
      </trkpt>
      <trkpt lat="46.095594" lon="9.118422">
        <ele>860.508</ele>
        <time>2020-08-21T14:04:14Z</time>
      </trkpt>
      <trkpt lat="46.095580" lon="9.118413">
        <ele>861.429</ele>
        <time>2020-08-21T14:04:32Z</time>
      </trkpt>
      <trkpt lat="46.095575" lon="9.118417">
        <ele>860.049</ele>
        <time>2020-08-21T14:04:41Z</time>
      </trkpt>
      <trkpt lat="46.095575" lon="9.118409">
        <ele>860.068</ele>
        <time>2020-08-21T14:05:14Z</time>
      </trkpt>
      <trkpt lat="46.095559" lon="9.118374">
        <ele>861.478</ele>
        <time>2020-08-21T14:05:25Z</time>
      </trkpt>
      <trkpt lat="46.095585" lon="9.118393">
        <ele>861.495</ele>
        <time>2020-08-21T14:05:49Z</time>
      </trkpt>
      <trkpt lat="46.095567" lon="9.118418">
        <ele>861.437</ele>
        <time>2020-08-21T14:05:54Z</time>
      </trkpt>
      <trkpt lat="46.095517" lon="9.118556">
        <ele>861.475</ele>
        <time>2020-08-21T14:06:02Z</time>
      </trkpt>
      <trkpt lat="46.095511" lon="9.118568">
        <ele>861.492</ele>
        <time>2020-08-21T14:06:03Z</time>
      </trkpt>
      <trkpt lat="46.095503" lon="9.118584">
        <ele>861.444</ele>
        <time>2020-08-21T14:06:04Z</time>
      </trkpt>
      <trkpt lat="46.095493" lon="9.118597">
        <ele>862.905</ele>
        <time>2020-08-21T14:06:05Z</time>
      </trkpt>
      <trkpt lat="46.095482" lon="9.118611">
        <ele>862.915</ele>
        <time>2020-08-21T14:06:06Z</time>
      </trkpt>
      <trkpt lat="46.095470" lon="9.118627">
        <ele>862.908</ele>
        <time>2020-08-21T14:06:07Z</time>
      </trkpt>
      <trkpt lat="46.095448" lon="9.118646">
        <ele>862.999</ele>
        <time>2020-08-21T14:06:09Z</time>
      </trkpt>
      <trkpt lat="46.095248" lon="9.118844">
        <ele>864.359</ele>
        <time>2020-08-21T14:06:25Z</time>
      </trkpt>
      <trkpt lat="46.095089" lon="9.118838">
        <ele>866.778</ele>
        <time>2020-08-21T14:06:37Z</time>
      </trkpt>
      <trkpt lat="46.094888" lon="9.118735">
        <ele>868.658</ele>
        <time>2020-08-21T14:06:52Z</time>
      </trkpt>
      <trkpt lat="46.094662" lon="9.118768">
        <ele>870.165</ele>
        <time>2020-08-21T14:07:07Z</time>
      </trkpt>
      <trkpt lat="46.094398" lon="9.118714">
        <ele>872.037</ele>
        <time>2020-08-21T14:07:24Z</time>
      </trkpt>
      <trkpt lat="46.094136" lon="9.118648">
        <ele>874.455</ele>
        <time>2020-08-21T14:07:42Z</time>
      </trkpt>
      <trkpt lat="46.093885" lon="9.118662">
        <ele>876.322</ele>
        <time>2020-08-21T14:07:58Z</time>
      </trkpt>
      <trkpt lat="46.093619" lon="9.118703">
        <ele>877.374</ele>
        <time>2020-08-21T14:08:14Z</time>
      </trkpt>
      <trkpt lat="46.093419" lon="9.118622">
        <ele>879.756</ele>
        <time>2020-08-21T14:08:28Z</time>
      </trkpt>
      <trkpt lat="46.093216" lon="9.118374">
        <ele>881.121</ele>
        <time>2020-08-21T14:08:45Z</time>
      </trkpt>
      <trkpt lat="46.092954" lon="9.118371">
        <ele>882.608</ele>
        <time>2020-08-21T14:09:01Z</time>
      </trkpt>
      <trkpt lat="46.092910" lon="9.118373">
        <ele>883.172</ele>
        <time>2020-08-21T14:09:04Z</time>
      </trkpt>
      <trkpt lat="46.092665" lon="9.118263">
        <ele>885.072</ele>
        <time>2020-08-21T14:09:21Z</time>
      </trkpt>
      <trkpt lat="46.092499" lon="9.118200">
        <ele>887.491</ele>
        <time>2020-08-21T14:09:33Z</time>
      </trkpt>
      <trkpt lat="46.092490" lon="9.118191">
        <ele>887.481</ele>
        <time>2020-08-21T14:09:34Z</time>
      </trkpt>
      <trkpt lat="46.092446" lon="9.118141">
        <ele>888.878</ele>
        <time>2020-08-21T14:09:39Z</time>
      </trkpt>
      <trkpt lat="46.092364" lon="9.117958">
        <ele>891.260</ele>
        <time>2020-08-21T14:09:54Z</time>
      </trkpt>
      <trkpt lat="46.092355" lon="9.117945">
        <ele>891.238</ele>
        <time>2020-08-21T14:09:55Z</time>
      </trkpt>
      <trkpt lat="46.092344" lon="9.117932">
        <ele>891.245</ele>
        <time>2020-08-21T14:09:56Z</time>
      </trkpt>
      <trkpt lat="46.092335" lon="9.117920">
        <ele>891.224</ele>
        <time>2020-08-21T14:09:57Z</time>
      </trkpt>
      <trkpt lat="46.092326" lon="9.117909">
        <ele>891.704</ele>
        <time>2020-08-21T14:09:58Z</time>
      </trkpt>
      <trkpt lat="46.092210" lon="9.117814">
        <ele>893.214</ele>
        <time>2020-08-21T14:10:09Z</time>
      </trkpt>
      <trkpt lat="46.092145" lon="9.117690">
        <ele>894.608</ele>
        <time>2020-08-21T14:10:19Z</time>
      </trkpt>
      <trkpt lat="46.092137" lon="9.117506">
        <ele>897.097</ele>
        <time>2020-08-21T14:10:31Z</time>
      </trkpt>
      <trkpt lat="46.092114" lon="9.117283">
        <ele>898.937</ele>
        <time>2020-08-21T14:10:45Z</time>
      </trkpt>
      <trkpt lat="46.092013" lon="9.117082">
        <ele>900.456</ele>
        <time>2020-08-21T14:10:58Z</time>
      </trkpt>
      <trkpt lat="46.091696" lon="9.117091">
        <ele>900.816</ele>
        <time>2020-08-21T14:11:13Z</time>
      </trkpt>
      <trkpt lat="46.091491" lon="9.117256">
        <ele>902.393</ele>
        <time>2020-08-21T14:11:26Z</time>
      </trkpt>
      <trkpt lat="46.091262" lon="9.117393">
        <ele>904.255</ele>
        <time>2020-08-21T14:11:40Z</time>
      </trkpt>
      <trkpt lat="46.091244" lon="9.117389">
        <ele>904.793</ele>
        <time>2020-08-21T14:11:41Z</time>
      </trkpt>
      <trkpt lat="46.091175" lon="9.117318">
        <ele>905.790</ele>
        <time>2020-08-21T14:11:48Z</time>
      </trkpt>
      <trkpt lat="46.091116" lon="9.116995">
        <ele>908.181</ele>
        <time>2020-08-21T14:12:03Z</time>
      </trkpt>
      <trkpt lat="46.091087" lon="9.116910">
        <ele>909.561</ele>
        <time>2020-08-21T14:12:07Z</time>
      </trkpt>
      <trkpt lat="46.091076" lon="9.116898">
        <ele>909.517</ele>
        <time>2020-08-21T14:12:08Z</time>
      </trkpt>
      <trkpt lat="46.090924" lon="9.116850">
        <ele>910.908</ele>
        <time>2020-08-21T14:12:18Z</time>
      </trkpt>
      <trkpt lat="46.090907" lon="9.116860">
        <ele>910.973</ele>
        <time>2020-08-21T14:12:19Z</time>
      </trkpt>
      <trkpt lat="46.090893" lon="9.116867">
        <ele>911.933</ele>
        <time>2020-08-21T14:12:20Z</time>
      </trkpt>
      <trkpt lat="46.090880" lon="9.116871">
        <ele>911.912</ele>
        <time>2020-08-21T14:12:21Z</time>
      </trkpt>
      <trkpt lat="46.090864" lon="9.116878">
        <ele>911.962</ele>
        <time>2020-08-21T14:12:22Z</time>
      </trkpt>
      <trkpt lat="46.090845" lon="9.116888">
        <ele>911.929</ele>
        <time>2020-08-21T14:12:23Z</time>
      </trkpt>
      <trkpt lat="46.090829" lon="9.116891">
        <ele>911.991</ele>
        <time>2020-08-21T14:12:24Z</time>
      </trkpt>
      <trkpt lat="46.090812" lon="9.116896">
        <ele>912.459</ele>
        <time>2020-08-21T14:12:25Z</time>
      </trkpt>
      <trkpt lat="46.090795" lon="9.116900">
        <ele>912.436</ele>
        <time>2020-08-21T14:12:26Z</time>
      </trkpt>
      <trkpt lat="46.090500" lon="9.116849">
        <ele>914.829</ele>
        <time>2020-08-21T14:12:44Z</time>
      </trkpt>
      <trkpt lat="46.090204" lon="9.116684">
        <ele>916.700</ele>
        <time>2020-08-21T14:13:02Z</time>
      </trkpt>
      <trkpt lat="46.090133" lon="9.116619">
        <ele>917.220</ele>
        <time>2020-08-21T14:13:07Z</time>
      </trkpt>
      <trkpt lat="46.090119" lon="9.116610">
        <ele>917.708</ele>
        <time>2020-08-21T14:13:08Z</time>
      </trkpt>
      <trkpt lat="46.090105" lon="9.116600">
        <ele>917.797</ele>
        <time>2020-08-21T14:13:09Z</time>
      </trkpt>
      <trkpt lat="46.090090" lon="9.116588">
        <ele>917.787</ele>
        <time>2020-08-21T14:13:10Z</time>
      </trkpt>
      <trkpt lat="46.090077" lon="9.116573">
        <ele>918.216</ele>
        <time>2020-08-21T14:13:11Z</time>
      </trkpt>
      <trkpt lat="46.089850" lon="9.116425">
        <ele>920.166</ele>
        <time>2020-08-21T14:13:26Z</time>
      </trkpt>
      <trkpt lat="46.089568" lon="9.116316">
        <ele>923.043</ele>
        <time>2020-08-21T14:13:43Z</time>
      </trkpt>
      <trkpt lat="46.089490" lon="9.116245">
        <ele>924.955</ele>
        <time>2020-08-21T14:13:50Z</time>
      </trkpt>
      <trkpt lat="46.089487" lon="9.116229">
        <ele>924.953</ele>
        <time>2020-08-21T14:13:51Z</time>
      </trkpt>
      <trkpt lat="46.089488" lon="9.116169">
        <ele>925.450</ele>
        <time>2020-08-21T14:13:55Z</time>
      </trkpt>
      <trkpt lat="46.089496" lon="9.116157">
        <ele>925.873</ele>
        <time>2020-08-21T14:13:56Z</time>
      </trkpt>
      <trkpt lat="46.089505" lon="9.116147">
        <ele>925.885</ele>
        <time>2020-08-21T14:13:57Z</time>
      </trkpt>
      <trkpt lat="46.089669" lon="9.116067">
        <ele>928.213</ele>
        <time>2020-08-21T14:14:12Z</time>
      </trkpt>
      <trkpt lat="46.089771" lon="9.116035">
        <ele>929.708</ele>
        <time>2020-08-21T14:14:20Z</time>
      </trkpt>
      <trkpt lat="46.089787" lon="9.116028">
        <ele>929.782</ele>
        <time>2020-08-21T14:14:21Z</time>
      </trkpt>
      <trkpt lat="46.089988" lon="9.115859">
        <ele>931.632</ele>
        <time>2020-08-21T14:14:37Z</time>
      </trkpt>
      <trkpt lat="46.089919" lon="9.115567">
        <ele>933.591</ele>
        <time>2020-08-21T14:14:52Z</time>
      </trkpt>
      <trkpt lat="46.089733" lon="9.115416">
        <ele>935.951</ele>
        <time>2020-08-21T14:15:09Z</time>
      </trkpt>
      <trkpt lat="46.089601" lon="9.115360">
        <ele>938.358</ele>
        <time>2020-08-21T14:15:20Z</time>
      </trkpt>
      <trkpt lat="46.089590" lon="9.115351">
        <ele>938.390</ele>
        <time>2020-08-21T14:15:21Z</time>
      </trkpt>
      <trkpt lat="46.089582" lon="9.115342">
        <ele>938.398</ele>
        <time>2020-08-21T14:15:22Z</time>
      </trkpt>
      <trkpt lat="46.089421" lon="9.115152">
        <ele>940.785</ele>
        <time>2020-08-21T14:15:40Z</time>
      </trkpt>
      <trkpt lat="46.089285" lon="9.114876">
        <ele>943.627</ele>
        <time>2020-08-21T14:15:58Z</time>
      </trkpt>
      <trkpt lat="46.089273" lon="9.114868">
        <ele>944.168</ele>
        <time>2020-08-21T14:15:59Z</time>
      </trkpt>
      <trkpt lat="46.089261" lon="9.114856">
        <ele>944.114</ele>
        <time>2020-08-21T14:16:00Z</time>
      </trkpt>
      <trkpt lat="46.089208" lon="9.114800">
        <ele>944.608</ele>
        <time>2020-08-21T14:16:05Z</time>
      </trkpt>
      <trkpt lat="46.089198" lon="9.114781">
        <ele>945.197</ele>
        <time>2020-08-21T14:16:06Z</time>
      </trkpt>
      <trkpt lat="46.089187" lon="9.114772">
        <ele>944.687</ele>
        <time>2020-08-21T14:16:07Z</time>
      </trkpt>
      <trkpt lat="46.089172" lon="9.114764">
        <ele>945.126</ele>
        <time>2020-08-21T14:16:08Z</time>
      </trkpt>
      <trkpt lat="46.089157" lon="9.114755">
        <ele>945.196</ele>
        <time>2020-08-21T14:16:09Z</time>
      </trkpt>
      <trkpt lat="46.089143" lon="9.114749">
        <ele>945.553</ele>
        <time>2020-08-21T14:16:10Z</time>
      </trkpt>
      <trkpt lat="46.088991" lon="9.114527">
        <ele>946.525</ele>
        <time>2020-08-21T14:16:26Z</time>
      </trkpt>
      <trkpt lat="46.088933" lon="9.114184">
        <ele>948.473</ele>
        <time>2020-08-21T14:16:42Z</time>
      </trkpt>
      <trkpt lat="46.088932" lon="9.114109">
        <ele>949.430</ele>
        <time>2020-08-21T14:16:46Z</time>
      </trkpt>
      <trkpt lat="46.088934" lon="9.114091">
        <ele>949.452</ele>
        <time>2020-08-21T14:16:47Z</time>
      </trkpt>
      <trkpt lat="46.088937" lon="9.114070">
        <ele>949.453</ele>
        <time>2020-08-21T14:16:48Z</time>
      </trkpt>
      <trkpt lat="46.088994" lon="9.113670">
        <ele>952.308</ele>
        <time>2020-08-21T14:17:06Z</time>
      </trkpt>
      <trkpt lat="46.088958" lon="9.113357">
        <ele>954.208</ele>
        <time>2020-08-21T14:17:19Z</time>
      </trkpt>
      <trkpt lat="46.088966" lon="9.112907">
        <ele>956.610</ele>
        <time>2020-08-21T14:17:33Z</time>
      </trkpt>
      <trkpt lat="46.089029" lon="9.112612">
        <ele>959.560</ele>
        <time>2020-08-21T14:17:48Z</time>
      </trkpt>
      <trkpt lat="46.089073" lon="9.112465">
        <ele>960.089</ele>
        <time>2020-08-21T14:17:56Z</time>
      </trkpt>
      <trkpt lat="46.089078" lon="9.112448">
        <ele>960.019</ele>
        <time>2020-08-21T14:17:57Z</time>
      </trkpt>
      <trkpt lat="46.089086" lon="9.112431">
        <ele>960.416</ele>
        <time>2020-08-21T14:17:58Z</time>
      </trkpt>
      <trkpt lat="46.089138" lon="9.112073">
        <ele>962.928</ele>
        <time>2020-08-21T14:18:16Z</time>
      </trkpt>
      <trkpt lat="46.089130" lon="9.112054">
        <ele>962.946</ele>
        <time>2020-08-21T14:18:17Z</time>
      </trkpt>
      <trkpt lat="46.089125" lon="9.112034">
        <ele>962.993</ele>
        <time>2020-08-21T14:18:18Z</time>
      </trkpt>
      <trkpt lat="46.089121" lon="9.112012">
        <ele>963.366</ele>
        <time>2020-08-21T14:18:19Z</time>
      </trkpt>
      <trkpt lat="46.089116" lon="9.111994">
        <ele>963.329</ele>
        <time>2020-08-21T14:18:20Z</time>
      </trkpt>
      <trkpt lat="46.089110" lon="9.111973">
        <ele>963.321</ele>
        <time>2020-08-21T14:18:21Z</time>
      </trkpt>
      <trkpt lat="46.089051" lon="9.111772">
        <ele>965.308</ele>
        <time>2020-08-21T14:18:31Z</time>
      </trkpt>
      <trkpt lat="46.089049" lon="9.111754">
        <ele>964.821</ele>
        <time>2020-08-21T14:18:32Z</time>
      </trkpt>
      <trkpt lat="46.089041" lon="9.111724">
        <ele>965.321</ele>
        <time>2020-08-21T14:18:34Z</time>
      </trkpt>
      <trkpt lat="46.089032" lon="9.111707">
        <ele>965.340</ele>
        <time>2020-08-21T14:18:35Z</time>
      </trkpt>
      <trkpt lat="46.089022" lon="9.111692">
        <ele>965.360</ele>
        <time>2020-08-21T14:18:36Z</time>
      </trkpt>
      <trkpt lat="46.089013" lon="9.111679">
        <ele>965.747</ele>
        <time>2020-08-21T14:18:37Z</time>
      </trkpt>
      <trkpt lat="46.089006" lon="9.111662">
        <ele>965.739</ele>
        <time>2020-08-21T14:18:38Z</time>
      </trkpt>
      <trkpt lat="46.089000" lon="9.111644">
        <ele>966.297</ele>
        <time>2020-08-21T14:18:39Z</time>
      </trkpt>
      <trkpt lat="46.088991" lon="9.111621">
        <ele>966.274</ele>
        <time>2020-08-21T14:18:40Z</time>
      </trkpt>
      <trkpt lat="46.088984" lon="9.111604">
        <ele>966.234</ele>
        <time>2020-08-21T14:18:41Z</time>
      </trkpt>
      <trkpt lat="46.088977" lon="9.111583">
        <ele>966.755</ele>
        <time>2020-08-21T14:18:42Z</time>
      </trkpt>
      <trkpt lat="46.088971" lon="9.111565">
        <ele>966.710</ele>
        <time>2020-08-21T14:18:43Z</time>
      </trkpt>
      <trkpt lat="46.088845" lon="9.111250">
        <ele>969.608</ele>
        <time>2020-08-21T14:18:59Z</time>
      </trkpt>
      <trkpt lat="46.088710" lon="9.111046">
        <ele>971.548</ele>
        <time>2020-08-21T14:19:14Z</time>
      </trkpt>
      <trkpt lat="46.088651" lon="9.110730">
        <ele>973.968</ele>
        <time>2020-08-21T14:19:29Z</time>
      </trkpt>
      <trkpt lat="46.088654" lon="9.110452">
        <ele>976.357</ele>
        <time>2020-08-21T14:19:43Z</time>
      </trkpt>
      <trkpt lat="46.088676" lon="9.110131">
        <ele>978.227</ele>
        <time>2020-08-21T14:19:57Z</time>
      </trkpt>
      <trkpt lat="46.088732" lon="9.109759">
        <ele>980.244</ele>
        <time>2020-08-21T14:20:13Z</time>
      </trkpt>
      <trkpt lat="46.088770" lon="9.109462">
        <ele>982.656</ele>
        <time>2020-08-21T14:20:27Z</time>
      </trkpt>
      <trkpt lat="46.088797" lon="9.109269">
        <ele>984.074</ele>
        <time>2020-08-21T14:20:35Z</time>
      </trkpt>
      <trkpt lat="46.088802" lon="9.109240">
        <ele>984.071</ele>
        <time>2020-08-21T14:20:36Z</time>
      </trkpt>
      <trkpt lat="46.088804" lon="9.109217">
        <ele>984.013</ele>
        <time>2020-08-21T14:20:37Z</time>
      </trkpt>
      <trkpt lat="46.088806" lon="9.109192">
        <ele>984.043</ele>
        <time>2020-08-21T14:20:38Z</time>
      </trkpt>
      <trkpt lat="46.088809" lon="9.109167">
        <ele>984.507</ele>
        <time>2020-08-21T14:20:39Z</time>
      </trkpt>
      <trkpt lat="46.088812" lon="9.109105">
        <ele>984.508</ele>
        <time>2020-08-21T14:20:42Z</time>
      </trkpt>
      <trkpt lat="46.088810" lon="9.109082">
        <ele>985.046</ele>
        <time>2020-08-21T14:20:43Z</time>
      </trkpt>
      <trkpt lat="46.088808" lon="9.109060">
        <ele>985.056</ele>
        <time>2020-08-21T14:20:44Z</time>
      </trkpt>
      <trkpt lat="46.088807" lon="9.109042">
        <ele>985.035</ele>
        <time>2020-08-21T14:20:45Z</time>
      </trkpt>
      <trkpt lat="46.088810" lon="9.109024">
        <ele>985.075</ele>
        <time>2020-08-21T14:20:46Z</time>
      </trkpt>
      <trkpt lat="46.088807" lon="9.109004">
        <ele>985.492</ele>
        <time>2020-08-21T14:20:47Z</time>
      </trkpt>
      <trkpt lat="46.088805" lon="9.108985">
        <ele>985.444</ele>
        <time>2020-08-21T14:20:48Z</time>
      </trkpt>
      <trkpt lat="46.088802" lon="9.108964">
        <ele>985.482</ele>
        <time>2020-08-21T14:20:49Z</time>
      </trkpt>
      <trkpt lat="46.088796" lon="9.108944">
        <ele>985.499</ele>
        <time>2020-08-21T14:20:50Z</time>
      </trkpt>
      <trkpt lat="46.088788" lon="9.108925">
        <ele>985.413</ele>
        <time>2020-08-21T14:20:51Z</time>
      </trkpt>
      <trkpt lat="46.088783" lon="9.108904">
        <ele>985.443</ele>
        <time>2020-08-21T14:20:52Z</time>
      </trkpt>
      <trkpt lat="46.088778" lon="9.108881">
        <ele>985.407</ele>
        <time>2020-08-21T14:20:53Z</time>
      </trkpt>
      <trkpt lat="46.088774" lon="9.108855">
        <ele>985.408</ele>
        <time>2020-08-21T14:20:54Z</time>
      </trkpt>
      <trkpt lat="46.088768" lon="9.108822">
        <ele>985.426</ele>
        <time>2020-08-21T14:20:55Z</time>
      </trkpt>
      <trkpt lat="46.088714" lon="9.108321">
        <ele>984.546</ele>
        <time>2020-08-21T14:21:05Z</time>
      </trkpt>
      <trkpt lat="46.088699" lon="9.107688">
        <ele>983.065</ele>
        <time>2020-08-21T14:21:14Z</time>
      </trkpt>
      <trkpt lat="46.088702" lon="9.107453">
        <ele>982.175</ele>
        <time>2020-08-21T14:21:17Z</time>
      </trkpt>
      <trkpt lat="46.088716" lon="9.107284">
        <ele>981.182</ele>
        <time>2020-08-21T14:21:19Z</time>
      </trkpt>
      <trkpt lat="46.088708" lon="9.107197">
        <ele>980.674</ele>
        <time>2020-08-21T14:21:20Z</time>
      </trkpt>
      <trkpt lat="46.088683" lon="9.107120">
        <ele>980.632</ele>
        <time>2020-08-21T14:21:21Z</time>
      </trkpt>
      <trkpt lat="46.088649" lon="9.107049">
        <ele>980.269</ele>
        <time>2020-08-21T14:21:22Z</time>
      </trkpt>
      <trkpt lat="46.088612" lon="9.106975">
        <ele>980.272</ele>
        <time>2020-08-21T14:21:23Z</time>
      </trkpt>
      <trkpt lat="46.088589" lon="9.106914">
        <ele>980.213</ele>
        <time>2020-08-21T14:21:24Z</time>
      </trkpt>
      <trkpt lat="46.088576" lon="9.106871">
        <ele>980.214</ele>
        <time>2020-08-21T14:21:25Z</time>
      </trkpt>
      <trkpt lat="46.088564" lon="9.106819">
        <ele>980.208</ele>
        <time>2020-08-21T14:21:26Z</time>
      </trkpt>
      <trkpt lat="46.088493" lon="9.106610">
        <ele>983.072</ele>
        <time>2020-08-21T14:21:37Z</time>
      </trkpt>
      <trkpt lat="46.088324" lon="9.106669">
        <ele>985.462</ele>
        <time>2020-08-21T14:21:51Z</time>
      </trkpt>
      <trkpt lat="46.088296" lon="9.106836">
        <ele>986.491</ele>
        <time>2020-08-21T14:21:59Z</time>
      </trkpt>
      <trkpt lat="46.088287" lon="9.106853">
        <ele>986.491</ele>
        <time>2020-08-21T14:22:00Z</time>
      </trkpt>
      <trkpt lat="46.088278" lon="9.106868">
        <ele>986.488</ele>
        <time>2020-08-21T14:22:01Z</time>
      </trkpt>
      <trkpt lat="46.088268" lon="9.106879">
        <ele>987.480</ele>
        <time>2020-08-21T14:22:02Z</time>
      </trkpt>
      <trkpt lat="46.088255" lon="9.106892">
        <ele>987.428</ele>
        <time>2020-08-21T14:22:03Z</time>
      </trkpt>
      <trkpt lat="46.088244" lon="9.106899">
        <ele>987.455</ele>
        <time>2020-08-21T14:22:04Z</time>
      </trkpt>
      <trkpt lat="46.088233" lon="9.106906">
        <ele>987.442</ele>
        <time>2020-08-21T14:22:05Z</time>
      </trkpt>
      <trkpt lat="46.088220" lon="9.106914">
        <ele>987.422</ele>
        <time>2020-08-21T14:22:06Z</time>
      </trkpt>
      <trkpt lat="46.088209" lon="9.106922">
        <ele>987.814</ele>
        <time>2020-08-21T14:22:07Z</time>
      </trkpt>
      <trkpt lat="46.088199" lon="9.106933">
        <ele>987.808</ele>
        <time>2020-08-21T14:22:08Z</time>
      </trkpt>
      <trkpt lat="46.088187" lon="9.106938">
        <ele>987.859</ele>
        <time>2020-08-21T14:22:09Z</time>
      </trkpt>
      <trkpt lat="46.088176" lon="9.106942">
        <ele>988.869</ele>
        <time>2020-08-21T14:22:10Z</time>
      </trkpt>
      <trkpt lat="46.088164" lon="9.106947">
        <ele>988.868</ele>
        <time>2020-08-21T14:22:11Z</time>
      </trkpt>
      <trkpt lat="46.088025" lon="9.107074">
        <ele>991.218</ele>
        <time>2020-08-21T14:22:26Z</time>
      </trkpt>
      <trkpt lat="46.087978" lon="9.107274">
        <ele>993.645</ele>
        <time>2020-08-21T14:22:40Z</time>
      </trkpt>
      <trkpt lat="46.087873" lon="9.107459">
        <ele>996.537</ele>
        <time>2020-08-21T14:22:54Z</time>
      </trkpt>
      <trkpt lat="46.087777" lon="9.107637">
        <ele>998.495</ele>
        <time>2020-08-21T14:23:08Z</time>
      </trkpt>
      <trkpt lat="46.087737" lon="9.107725">
        <ele>999.492</ele>
        <time>2020-08-21T14:23:14Z</time>
      </trkpt>
      <trkpt lat="46.087735" lon="9.107738">
        <ele>999.447</ele>
        <time>2020-08-21T14:23:15Z</time>
      </trkpt>
      <trkpt lat="46.087731" lon="9.107753">
        <ele>999.429</ele>
        <time>2020-08-21T14:23:16Z</time>
      </trkpt>
      <trkpt lat="46.087710" lon="9.107971">
        <ele>1002.321</ele>
        <time>2020-08-21T14:23:32Z</time>
      </trkpt>
      <trkpt lat="46.087707" lon="9.107982">
        <ele>1002.308</ele>
        <time>2020-08-21T14:23:33Z</time>
      </trkpt>
      <trkpt lat="46.087618" lon="9.108137">
        <ele>1004.729</ele>
        <time>2020-08-21T14:23:45Z</time>
      </trkpt>
      <trkpt lat="46.087611" lon="9.108155">
        <ele>1004.789</ele>
        <time>2020-08-21T14:23:46Z</time>
      </trkpt>
      <trkpt lat="46.087474" lon="9.108347">
        <ele>1007.648</ele>
        <time>2020-08-21T14:24:03Z</time>
      </trkpt>
      <trkpt lat="46.087333" lon="9.108492">
        <ele>1010.438</ele>
        <time>2020-08-21T14:24:19Z</time>
      </trkpt>
      <trkpt lat="46.087267" lon="9.108740">
        <ele>1014.375</ele>
        <time>2020-08-21T14:24:36Z</time>
      </trkpt>
      <trkpt lat="46.087269" lon="9.108754">
        <ele>1014.347</ele>
        <time>2020-08-21T14:24:37Z</time>
      </trkpt>
      <trkpt lat="46.087269" lon="9.108786">
        <ele>1014.355</ele>
        <time>2020-08-21T14:24:39Z</time>
      </trkpt>
      <trkpt lat="46.087262" lon="9.108802">
        <ele>1014.832</ele>
        <time>2020-08-21T14:24:40Z</time>
      </trkpt>
      <trkpt lat="46.087251" lon="9.108814">
        <ele>1014.832</ele>
        <time>2020-08-21T14:24:41Z</time>
      </trkpt>
      <trkpt lat="46.087241" lon="9.108827">
        <ele>1014.892</ele>
        <time>2020-08-21T14:24:42Z</time>
      </trkpt>
      <trkpt lat="46.087233" lon="9.108844">
        <ele>1014.811</ele>
        <time>2020-08-21T14:24:43Z</time>
      </trkpt>
      <trkpt lat="46.087115" lon="9.109016">
        <ele>1018.108</ele>
        <time>2020-08-21T14:24:57Z</time>
      </trkpt>
      <trkpt lat="46.087056" lon="9.109278">
        <ele>1019.658</ele>
        <time>2020-08-21T14:25:13Z</time>
      </trkpt>
      <trkpt lat="46.086920" lon="9.109529">
        <ele>1022.048</ele>
        <time>2020-08-21T14:25:30Z</time>
      </trkpt>
      <trkpt lat="46.086658" lon="9.109776">
        <ele>1024.427</ele>
        <time>2020-08-21T14:25:46Z</time>
      </trkpt>
      <trkpt lat="46.086439" lon="9.110078">
        <ele>1027.717</ele>
        <time>2020-08-21T14:26:01Z</time>
      </trkpt>
      <trkpt lat="46.086311" lon="9.110250">
        <ele>1029.284</ele>
        <time>2020-08-21T14:26:14Z</time>
      </trkpt>
      <trkpt lat="46.086138" lon="9.110411">
        <ele>1032.186</ele>
        <time>2020-08-21T14:26:30Z</time>
      </trkpt>
      <trkpt lat="46.085977" lon="9.110565">
        <ele>1034.534</ele>
        <time>2020-08-21T14:26:45Z</time>
      </trkpt>
      <trkpt lat="46.085787" lon="9.110686">
        <ele>1036.461</ele>
        <time>2020-08-21T14:27:01Z</time>
      </trkpt>
      <trkpt lat="46.085560" lon="9.110922">
        <ele>1038.823</ele>
        <time>2020-08-21T14:27:20Z</time>
      </trkpt>
      <trkpt lat="46.085419" lon="9.111286">
        <ele>1040.283</ele>
        <time>2020-08-21T14:27:38Z</time>
      </trkpt>
      <trkpt lat="46.085237" lon="9.111507">
        <ele>1042.211</ele>
        <time>2020-08-21T14:27:51Z</time>
      </trkpt>
      <trkpt lat="46.085220" lon="9.111492">
        <ele>1042.208</ele>
        <time>2020-08-21T14:27:52Z</time>
      </trkpt>
      <trkpt lat="46.085220" lon="9.111467">
        <ele>1042.617</ele>
        <time>2020-08-21T14:27:53Z</time>
      </trkpt>
      <trkpt lat="46.085231" lon="9.111444">
        <ele>1042.647</ele>
        <time>2020-08-21T14:27:54Z</time>
      </trkpt>
      <trkpt lat="46.085246" lon="9.111425">
        <ele>1043.146</ele>
        <time>2020-08-21T14:27:55Z</time>
      </trkpt>
      <trkpt lat="46.085467" lon="9.111061">
        <ele>1045.056</ele>
        <time>2020-08-21T14:28:11Z</time>
      </trkpt>
      <trkpt lat="46.085523" lon="9.110904">
        <ele>1045.593</ele>
        <time>2020-08-21T14:28:23Z</time>
      </trkpt>
      <trkpt lat="46.085530" lon="9.110845">
        <ele>1046.095</ele>
        <time>2020-08-21T14:28:36Z</time>
      </trkpt>
      <trkpt lat="46.085509" lon="9.110866">
        <ele>1046.013</ele>
        <time>2020-08-21T14:29:09Z</time>
      </trkpt>
      <trkpt lat="46.085531" lon="9.110797">
        <ele>1046.050</ele>
        <time>2020-08-21T14:29:25Z</time>
      </trkpt>
      <trkpt lat="46.085539" lon="9.110763">
        <ele>1046.558</ele>
        <time>2020-08-21T14:29:27Z</time>
      </trkpt>
      <trkpt lat="46.085540" lon="9.110747">
        <ele>1046.552</ele>
        <time>2020-08-21T14:29:28Z</time>
      </trkpt>
      <trkpt lat="46.085544" lon="9.110732">
        <ele>1046.517</ele>
        <time>2020-08-21T14:29:29Z</time>
      </trkpt>
      <trkpt lat="46.085669" lon="9.110500">
        <ele>1048.408</ele>
        <time>2020-08-21T14:29:44Z</time>
      </trkpt>
      <trkpt lat="46.085833" lon="9.110256">
        <ele>1051.320</ele>
        <time>2020-08-21T14:30:03Z</time>
      </trkpt>
      <trkpt lat="46.085894" lon="9.110036">
        <ele>1054.220</ele>
        <time>2020-08-21T14:30:17Z</time>
      </trkpt>
      <trkpt lat="46.085898" lon="9.110020">
        <ele>1054.229</ele>
        <time>2020-08-21T14:30:18Z</time>
      </trkpt>
      <trkpt lat="46.085904" lon="9.110003">
        <ele>1054.269</ele>
        <time>2020-08-21T14:30:19Z</time>
      </trkpt>
      <trkpt lat="46.085912" lon="9.109990">
        <ele>1054.296</ele>
        <time>2020-08-21T14:30:20Z</time>
      </trkpt>
      <trkpt lat="46.085920" lon="9.109980">
        <ele>1054.298</ele>
        <time>2020-08-21T14:30:21Z</time>
      </trkpt>
      <trkpt lat="46.085932" lon="9.109973">
        <ele>1054.236</ele>
        <time>2020-08-21T14:30:22Z</time>
      </trkpt>
      <trkpt lat="46.085943" lon="9.109964">
        <ele>1054.733</ele>
        <time>2020-08-21T14:30:23Z</time>
      </trkpt>
      <trkpt lat="46.085951" lon="9.109955">
        <ele>1054.753</ele>
        <time>2020-08-21T14:30:24Z</time>
      </trkpt>
      <trkpt lat="46.085961" lon="9.109947">
        <ele>1054.704</ele>
        <time>2020-08-21T14:30:25Z</time>
      </trkpt>
      <trkpt lat="46.085996" lon="9.109896">
        <ele>1056.114</ele>
        <time>2020-08-21T14:30:30Z</time>
      </trkpt>
      <trkpt lat="46.086134" lon="9.109657">
        <ele>1058.008</ele>
        <time>2020-08-21T14:30:45Z</time>
      </trkpt>
      <trkpt lat="46.086235" lon="9.109395">
        <ele>1059.920</ele>
        <time>2020-08-21T14:31:01Z</time>
      </trkpt>
      <trkpt lat="46.086364" lon="9.109120">
        <ele>1062.810</ele>
        <time>2020-08-21T14:31:20Z</time>
      </trkpt>
      <trkpt lat="46.086391" lon="9.109026">
        <ele>1063.869</ele>
        <time>2020-08-21T14:31:26Z</time>
      </trkpt>
      <trkpt lat="46.086386" lon="9.109009">
        <ele>1063.869</ele>
        <time>2020-08-21T14:31:27Z</time>
      </trkpt>
      <trkpt lat="46.086376" lon="9.108993">
        <ele>1063.866</ele>
        <time>2020-08-21T14:31:28Z</time>
      </trkpt>
      <trkpt lat="46.086363" lon="9.108986">
        <ele>1063.818</ele>
        <time>2020-08-21T14:31:29Z</time>
      </trkpt>
      <trkpt lat="46.086351" lon="9.108981">
        <ele>1063.826</ele>
        <time>2020-08-21T14:31:30Z</time>
      </trkpt>
      <trkpt lat="46.086340" lon="9.108977">
        <ele>1064.813</ele>
        <time>2020-08-21T14:31:31Z</time>
      </trkpt>
      <trkpt lat="46.086327" lon="9.108977">
        <ele>1064.875</ele>
        <time>2020-08-21T14:31:32Z</time>
      </trkpt>
      <trkpt lat="46.086313" lon="9.108982">
        <ele>1064.828</ele>
        <time>2020-08-21T14:31:33Z</time>
      </trkpt>
      <trkpt lat="46.086302" lon="9.108991">
        <ele>1064.820</ele>
        <time>2020-08-21T14:31:34Z</time>
      </trkpt>
      <trkpt lat="46.086293" lon="9.109005">
        <ele>1065.208</ele>
        <time>2020-08-21T14:31:35Z</time>
      </trkpt>
      <trkpt lat="46.086287" lon="9.109017">
        <ele>1065.232</ele>
        <time>2020-08-21T14:31:36Z</time>
      </trkpt>
      <trkpt lat="46.086280" lon="9.109033">
        <ele>1065.272</ele>
        <time>2020-08-21T14:31:37Z</time>
      </trkpt>
      <trkpt lat="46.086147" lon="9.109265">
        <ele>1067.241</ele>
        <time>2020-08-21T14:31:53Z</time>
      </trkpt>
      <trkpt lat="46.085943" lon="9.109501">
        <ele>1069.641</ele>
        <time>2020-08-21T14:32:12Z</time>
      </trkpt>
      <trkpt lat="46.085866" lon="9.109570">
        <ele>1070.568</ele>
        <time>2020-08-21T14:32:19Z</time>
      </trkpt>
      <trkpt lat="46.085681" lon="9.109758">
        <ele>1072.990</ele>
        <time>2020-08-21T14:32:37Z</time>
      </trkpt>
      <trkpt lat="46.085505" lon="9.109918">
        <ele>1074.868</ele>
        <time>2020-08-21T14:32:54Z</time>
      </trkpt>
      <trkpt lat="46.085265" lon="9.110098">
        <ele>1077.735</ele>
        <time>2020-08-21T14:33:15Z</time>
      </trkpt>
      <trkpt lat="46.085102" lon="9.110306">
        <ele>1080.153</ele>
        <time>2020-08-21T14:33:32Z</time>
      </trkpt>
      <trkpt lat="46.084979" lon="9.110407">
        <ele>1081.604</ele>
        <time>2020-08-21T14:33:43Z</time>
      </trkpt>
      <trkpt lat="46.084810" lon="9.110646">
        <ele>1084.514</ele>
        <time>2020-08-21T14:34:01Z</time>
      </trkpt>
      <trkpt lat="46.084654" lon="9.110866">
        <ele>1086.908</ele>
        <time>2020-08-21T14:34:17Z</time>
      </trkpt>
      <trkpt lat="46.084485" lon="9.111078">
        <ele>1088.840</ele>
        <time>2020-08-21T14:34:34Z</time>
      </trkpt>
      <trkpt lat="46.084399" lon="9.111206">
        <ele>1090.740</ele>
        <time>2020-08-21T14:34:45Z</time>
      </trkpt>
      <trkpt lat="46.084390" lon="9.111210">
        <ele>1090.749</ele>
        <time>2020-08-21T14:34:46Z</time>
      </trkpt>
      <trkpt lat="46.084381" lon="9.111219">
        <ele>1090.789</ele>
        <time>2020-08-21T14:34:47Z</time>
      </trkpt>
      <trkpt lat="46.084377" lon="9.111236">
        <ele>1090.796</ele>
        <time>2020-08-21T14:34:48Z</time>
      </trkpt>
      <trkpt lat="46.084369" lon="9.111246">
        <ele>1091.278</ele>
        <time>2020-08-21T14:34:49Z</time>
      </trkpt>
      <trkpt lat="46.084347" lon="9.111265">
        <ele>1091.786</ele>
        <time>2020-08-21T14:35:01Z</time>
      </trkpt>
      <trkpt lat="46.084344" lon="9.111296">
        <ele>1092.243</ele>
        <time>2020-08-21T14:35:15Z</time>
      </trkpt>
      <trkpt lat="46.084354" lon="9.111247">
        <ele>1092.263</ele>
        <time>2020-08-21T14:35:43Z</time>
      </trkpt>
      <trkpt lat="46.084352" lon="9.111271">
        <ele>1092.244</ele>
        <time>2020-08-21T14:36:19Z</time>
      </trkpt>
      <trkpt lat="46.084329" lon="9.111272">
        <ele>1092.218</ele>
        <time>2020-08-21T14:36:43Z</time>
      </trkpt>
      <trkpt lat="46.084285" lon="9.111279">
        <ele>1093.108</ele>
        <time>2020-08-21T14:36:54Z</time>
      </trkpt>
      <trkpt lat="46.084273" lon="9.111291">
        <ele>1093.121</ele>
        <time>2020-08-21T14:36:55Z</time>
      </trkpt>
      <trkpt lat="46.084261" lon="9.111296">
        <ele>1093.161</ele>
        <time>2020-08-21T14:36:56Z</time>
      </trkpt>
      <trkpt lat="46.084250" lon="9.111300">
        <ele>1093.690</ele>
        <time>2020-08-21T14:36:57Z</time>
      </trkpt>
      <trkpt lat="46.084239" lon="9.111306">
        <ele>1093.640</ele>
        <time>2020-08-21T14:36:58Z</time>
      </trkpt>
      <trkpt lat="46.084229" lon="9.111316">
        <ele>1093.697</ele>
        <time>2020-08-21T14:36:59Z</time>
      </trkpt>
      <trkpt lat="46.084186" lon="9.111350">
        <ele>1094.199</ele>
        <time>2020-08-21T14:37:03Z</time>
      </trkpt>
      <trkpt lat="46.084174" lon="9.111359">
        <ele>1094.117</ele>
        <time>2020-08-21T14:37:04Z</time>
      </trkpt>
      <trkpt lat="46.084151" lon="9.111372">
        <ele>1095.024</ele>
        <time>2020-08-21T14:37:06Z</time>
      </trkpt>
      <trkpt lat="46.084138" lon="9.111377">
        <ele>1095.074</ele>
        <time>2020-08-21T14:37:07Z</time>
      </trkpt>
      <trkpt lat="46.084129" lon="9.111381">
        <ele>1095.056</ele>
        <time>2020-08-21T14:37:08Z</time>
      </trkpt>
      <trkpt lat="46.084120" lon="9.111392">
        <ele>1095.521</ele>
        <time>2020-08-21T14:37:09Z</time>
      </trkpt>
      <trkpt lat="46.084112" lon="9.111406">
        <ele>1095.508</ele>
        <time>2020-08-21T14:37:10Z</time>
      </trkpt>
      <trkpt lat="46.084034" lon="9.111615">
        <ele>1097.962</ele>
        <time>2020-08-21T14:37:24Z</time>
      </trkpt>
      <trkpt lat="46.083962" lon="9.111837">
        <ele>1100.312</ele>
        <time>2020-08-21T14:37:38Z</time>
      </trkpt>
      <trkpt lat="46.083870" lon="9.112057">
        <ele>1102.281</ele>
        <time>2020-08-21T14:37:50Z</time>
      </trkpt>
      <trkpt lat="46.083770" lon="9.112254">
        <ele>1104.641</ele>
        <time>2020-08-21T14:38:04Z</time>
      </trkpt>
      <trkpt lat="46.083660" lon="9.112415">
        <ele>1107.578</ele>
        <time>2020-08-21T14:38:19Z</time>
      </trkpt>
      <trkpt lat="46.083587" lon="9.112532">
        <ele>1109.090</ele>
        <time>2020-08-21T14:38:29Z</time>
      </trkpt>
      <trkpt lat="46.083566" lon="9.112570">
        <ele>1109.918</ele>
        <time>2020-08-21T14:38:32Z</time>
      </trkpt>
      <trkpt lat="46.083558" lon="9.112587">
        <ele>1110.465</ele>
        <time>2020-08-21T14:38:33Z</time>
      </trkpt>
      <trkpt lat="46.083442" lon="9.112770">
        <ele>1112.347</ele>
        <time>2020-08-21T14:38:47Z</time>
      </trkpt>
      <trkpt lat="46.083418" lon="9.112810">
        <ele>1112.829</ele>
        <time>2020-08-21T14:38:50Z</time>
      </trkpt>
      <trkpt lat="46.083409" lon="9.112820">
        <ele>1113.321</ele>
        <time>2020-08-21T14:38:51Z</time>
      </trkpt>
      <trkpt lat="46.083400" lon="9.112835">
        <ele>1113.308</ele>
        <time>2020-08-21T14:38:52Z</time>
      </trkpt>
      <trkpt lat="46.083348" lon="9.113028">
        <ele>1114.769</ele>
        <time>2020-08-21T14:39:06Z</time>
      </trkpt>
      <trkpt lat="46.083346" lon="9.113243">
        <ele>1116.249</ele>
        <time>2020-08-21T14:39:20Z</time>
      </trkpt>
      <trkpt lat="46.083282" lon="9.113543">
        <ele>1118.168</ele>
        <time>2020-08-21T14:39:35Z</time>
      </trkpt>
      <trkpt lat="46.083206" lon="9.113663">
        <ele>1119.598</ele>
        <time>2020-08-21T14:39:42Z</time>
      </trkpt>
      <trkpt lat="46.083130" lon="9.113745">
        <ele>1120.595</ele>
        <time>2020-08-21T14:39:48Z</time>
      </trkpt>
      <trkpt lat="46.083090" lon="9.113849">
        <ele>1121.077</ele>
        <time>2020-08-21T14:39:56Z</time>
      </trkpt>
      <trkpt lat="46.083080" lon="9.113863">
        <ele>1121.085</ele>
        <time>2020-08-21T14:39:57Z</time>
      </trkpt>
      <trkpt lat="46.082934" lon="9.114142">
        <ele>1122.072</ele>
        <time>2020-08-21T14:40:10Z</time>
      </trkpt>
      <trkpt lat="46.082918" lon="9.114159">
        <ele>1122.055</ele>
        <time>2020-08-21T14:40:11Z</time>
      </trkpt>
      <trkpt lat="46.082903" lon="9.114176">
        <ele>1122.007</ele>
        <time>2020-08-21T14:40:12Z</time>
      </trkpt>
      <trkpt lat="46.082888" lon="9.114190">
        <ele>1122.017</ele>
        <time>2020-08-21T14:40:13Z</time>
      </trkpt>
      <trkpt lat="46.082872" lon="9.114207">
        <ele>1122.408</ele>
        <time>2020-08-21T14:40:14Z</time>
      </trkpt>
      <trkpt lat="46.082857" lon="9.114227">
        <ele>1122.440</ele>
        <time>2020-08-21T14:40:15Z</time>
      </trkpt>
      <trkpt lat="46.082650" lon="9.114532">
        <ele>1123.420</ele>
        <time>2020-08-21T14:40:29Z</time>
      </trkpt>
      <trkpt lat="46.082443" lon="9.114909">
        <ele>1124.499</ele>
        <time>2020-08-21T14:40:43Z</time>
      </trkpt>
      <trkpt lat="46.082262" lon="9.115284">
        <ele>1126.329</ele>
        <time>2020-08-21T14:40:59Z</time>
      </trkpt>
      <trkpt lat="46.082127" lon="9.115606">
        <ele>1128.286</ele>
        <time>2020-08-21T14:41:13Z</time>
      </trkpt>
      <trkpt lat="46.081932" lon="9.115816">
        <ele>1131.118</ele>
        <time>2020-08-21T14:41:28Z</time>
      </trkpt>
      <trkpt lat="46.081633" lon="9.115815">
        <ele>1134.456</ele>
        <time>2020-08-21T14:41:48Z</time>
      </trkpt>
      <trkpt lat="46.081482" lon="9.115706">
        <ele>1136.953</ele>
        <time>2020-08-21T14:42:01Z</time>
      </trkpt>
      <trkpt lat="46.081473" lon="9.115693">
        <ele>1136.911</ele>
        <time>2020-08-21T14:42:02Z</time>
      </trkpt>
      <trkpt lat="46.081464" lon="9.115681">
        <ele>1136.921</ele>
        <time>2020-08-21T14:42:03Z</time>
      </trkpt>
      <trkpt lat="46.081456" lon="9.115669">
        <ele>1137.303</ele>
        <time>2020-08-21T14:42:04Z</time>
      </trkpt>
      <trkpt lat="46.081446" lon="9.115659">
        <ele>1137.308</ele>
        <time>2020-08-21T14:42:05Z</time>
      </trkpt>
      <trkpt lat="46.081439" lon="9.115647">
        <ele>1137.346</ele>
        <time>2020-08-21T14:42:06Z</time>
      </trkpt>
      <trkpt lat="46.081430" lon="9.115632">
        <ele>1137.326</ele>
        <time>2020-08-21T14:42:07Z</time>
      </trkpt>
      <trkpt lat="46.081288" lon="9.115304">
        <ele>1139.715</ele>
        <time>2020-08-21T14:42:25Z</time>
      </trkpt>
      <trkpt lat="46.081079" lon="9.115038">
        <ele>1141.215</ele>
        <time>2020-08-21T14:42:42Z</time>
      </trkpt>
      <trkpt lat="46.081046" lon="9.115026">
        <ele>1141.292</ele>
        <time>2020-08-21T14:42:44Z</time>
      </trkpt>
      <trkpt lat="46.081031" lon="9.115025">
        <ele>1141.294</ele>
        <time>2020-08-21T14:42:45Z</time>
      </trkpt>
      <trkpt lat="46.081017" lon="9.115018">
        <ele>1141.232</ele>
        <time>2020-08-21T14:42:46Z</time>
      </trkpt>
      <trkpt lat="46.080999" lon="9.115011">
        <ele>1141.769</ele>
        <time>2020-08-21T14:42:47Z</time>
      </trkpt>
      <trkpt lat="46.080981" lon="9.115007">
        <ele>1141.748</ele>
        <time>2020-08-21T14:42:48Z</time>
      </trkpt>
      <trkpt lat="46.080962" lon="9.115005">
        <ele>1141.761</ele>
        <time>2020-08-21T14:42:49Z</time>
      </trkpt>
      <trkpt lat="46.080945" lon="9.115001">
        <ele>1141.717</ele>
        <time>2020-08-21T14:42:50Z</time>
      </trkpt>
      <trkpt lat="46.080927" lon="9.114996">
        <ele>1141.708</ele>
        <time>2020-08-21T14:42:51Z</time>
      </trkpt>
      <trkpt lat="46.080910" lon="9.114995">
        <ele>1142.139</ele>
        <time>2020-08-21T14:42:52Z</time>
      </trkpt>
      <trkpt lat="46.080647" lon="9.114946">
        <ele>1142.129</ele>
        <time>2020-08-21T14:43:06Z</time>
      </trkpt>
      <trkpt lat="46.080676" lon="9.114930">
        <ele>1142.618</ele>
        <time>2020-08-21T14:43:17Z</time>
      </trkpt>
      <trkpt lat="46.080633" lon="9.114953">
        <ele>1143.658</ele>
        <time>2020-08-21T14:45:08Z</time>
      </trkpt>
      <trkpt lat="46.080603" lon="9.114961">
        <ele>1143.625</ele>
        <time>2020-08-21T14:45:09Z</time>
      </trkpt>
      <trkpt lat="46.080556" lon="9.114962">
        <ele>1143.617</ele>
        <time>2020-08-21T14:45:10Z</time>
      </trkpt>
      <trkpt lat="46.080512" lon="9.114956">
        <ele>1143.615</ele>
        <time>2020-08-21T14:45:11Z</time>
      </trkpt>
      <trkpt lat="46.080285" lon="9.114898">
        <ele>1143.692</ele>
        <time>2020-08-21T14:45:17Z</time>
      </trkpt>
      <trkpt lat="46.080237" lon="9.114883">
        <ele>1143.679</ele>
        <time>2020-08-21T14:45:18Z</time>
      </trkpt>
      <trkpt lat="46.079572" lon="9.114842">
        <ele>1140.705</ele>
        <time>2020-08-21T14:45:29Z</time>
      </trkpt>
      <trkpt lat="46.079184" lon="9.114697">
        <ele>1142.125</ele>
        <time>2020-08-21T14:45:39Z</time>
      </trkpt>
      <trkpt lat="46.078820" lon="9.114405">
        <ele>1143.608</ele>
        <time>2020-08-21T14:45:55Z</time>
      </trkpt>
      <trkpt lat="46.078462" lon="9.114128">
        <ele>1143.132</ele>
        <time>2020-08-21T14:46:06Z</time>
      </trkpt>
      <trkpt lat="46.078418" lon="9.114101">
        <ele>1143.122</ele>
        <time>2020-08-21T14:46:07Z</time>
      </trkpt>
      <trkpt lat="46.078373" lon="9.114080">
        <ele>1143.131</ele>
        <time>2020-08-21T14:46:08Z</time>
      </trkpt>
      <trkpt lat="46.077805" lon="9.113682">
        <ele>1139.781</ele>
        <time>2020-08-21T14:46:19Z</time>
      </trkpt>
      <trkpt lat="46.077397" lon="9.113126">
        <ele>1136.418</ele>
        <time>2020-08-21T14:46:27Z</time>
      </trkpt>
      <trkpt lat="46.076912" lon="9.112416">
        <ele>1135.450</ele>
        <time>2020-08-21T14:46:37Z</time>
      </trkpt>
      <trkpt lat="46.076775" lon="9.112260">
        <ele>1134.958</ele>
        <time>2020-08-21T14:46:40Z</time>
      </trkpt>
      <trkpt lat="46.076638" lon="9.112072">
        <ele>1133.055</ele>
        <time>2020-08-21T14:46:43Z</time>
      </trkpt>
      <trkpt lat="46.076594" lon="9.112000">
        <ele>1132.039</ele>
        <time>2020-08-21T14:46:44Z</time>
      </trkpt>
      <trkpt lat="46.076541" lon="9.111934">
        <ele>1132.001</ele>
        <time>2020-08-21T14:46:45Z</time>
      </trkpt>
      <trkpt lat="46.076481" lon="9.111879">
        <ele>1131.621</ele>
        <time>2020-08-21T14:46:46Z</time>
      </trkpt>
      <trkpt lat="46.076415" lon="9.111839">
        <ele>1131.108</ele>
        <time>2020-08-21T14:46:47Z</time>
      </trkpt>
      <trkpt lat="46.076350" lon="9.111812">
        <ele>1131.188</ele>
        <time>2020-08-21T14:46:48Z</time>
      </trkpt>
      <trkpt lat="46.076145" lon="9.111761">
        <ele>1129.628</ele>
        <time>2020-08-21T14:46:51Z</time>
      </trkpt>
      <trkpt lat="46.076068" lon="9.111759">
        <ele>1128.797</ele>
        <time>2020-08-21T14:46:52Z</time>
      </trkpt>
      <trkpt lat="46.075989" lon="9.111758">
        <ele>1128.797</ele>
        <time>2020-08-21T14:46:53Z</time>
      </trkpt>
      <trkpt lat="46.075708" lon="9.111765">
        <ele>1125.384</ele>
        <time>2020-08-21T14:46:57Z</time>
      </trkpt>
      <trkpt lat="46.075414" lon="9.111779">
        <ele>1122.076</ele>
        <time>2020-08-21T14:47:01Z</time>
      </trkpt>
      <trkpt lat="46.075197" lon="9.111774">
        <ele>1118.684</ele>
        <time>2020-08-21T14:47:05Z</time>
      </trkpt>
      <trkpt lat="46.075105" lon="9.111757">
        <ele>1117.141</ele>
        <time>2020-08-21T14:47:07Z</time>
      </trkpt>
      <trkpt lat="46.075066" lon="9.111743">
        <ele>1116.794</ele>
        <time>2020-08-21T14:47:08Z</time>
      </trkpt>
      <trkpt lat="46.075033" lon="9.111723">
        <ele>1116.757</ele>
        <time>2020-08-21T14:47:09Z</time>
      </trkpt>
      <trkpt lat="46.075001" lon="9.111696">
        <ele>1116.222</ele>
        <time>2020-08-21T14:47:10Z</time>
      </trkpt>
      <trkpt lat="46.074967" lon="9.111670">
        <ele>1115.208</ele>
        <time>2020-08-21T14:47:11Z</time>
      </trkpt>
      <trkpt lat="46.074926" lon="9.111633">
        <ele>1115.224</ele>
        <time>2020-08-21T14:47:12Z</time>
      </trkpt>
      <trkpt lat="46.074901" lon="9.111599">
        <ele>1114.324</ele>
        <time>2020-08-21T14:47:13Z</time>
      </trkpt>
      <trkpt lat="46.074834" lon="9.111439">
        <ele>1113.343</ele>
        <time>2020-08-21T14:47:21Z</time>
      </trkpt>
      <trkpt lat="46.074811" lon="9.111381">
        <ele>1112.893</ele>
        <time>2020-08-21T14:47:30Z</time>
      </trkpt>
      <trkpt lat="46.074809" lon="9.111365">
        <ele>1112.840</ele>
        <time>2020-08-21T14:47:31Z</time>
      </trkpt>
      <trkpt lat="46.074821" lon="9.111053">
        <ele>1114.712</ele>
        <time>2020-08-21T14:47:46Z</time>
      </trkpt>
      <trkpt lat="46.074837" lon="9.110740">
        <ele>1117.150</ele>
        <time>2020-08-21T14:48:04Z</time>
      </trkpt>
      <trkpt lat="46.074835" lon="9.110542">
        <ele>1119.517</ele>
        <time>2020-08-21T14:48:18Z</time>
      </trkpt>
      <trkpt lat="46.074863" lon="9.110328">
        <ele>1122.926</ele>
        <time>2020-08-21T14:48:36Z</time>
      </trkpt>
      <trkpt lat="46.074908" lon="9.110156">
        <ele>1125.847</ele>
        <time>2020-08-21T14:48:51Z</time>
      </trkpt>
      <trkpt lat="46.074969" lon="9.110007">
        <ele>1128.711</ele>
        <time>2020-08-21T14:49:06Z</time>
      </trkpt>
      <trkpt lat="46.075045" lon="9.109866">
        <ele>1132.008</ele>
        <time>2020-08-21T14:49:21Z</time>
      </trkpt>
      <trkpt lat="46.075126" lon="9.109799">
        <ele>1133.537</ele>
        <time>2020-08-21T14:49:32Z</time>
      </trkpt>
      <trkpt lat="46.075217" lon="9.109778">
        <ele>1136.437</ele>
        <time>2020-08-21T14:49:44Z</time>
      </trkpt>
      <trkpt lat="46.075252" lon="9.109795">
        <ele>1136.446</ele>
        <time>2020-08-21T14:49:48Z</time>
      </trkpt>
      <trkpt lat="46.075300" lon="9.109755">
        <ele>1138.336</ele>
        <time>2020-08-21T14:49:54Z</time>
      </trkpt>
      <trkpt lat="46.075330" lon="9.109722">
        <ele>1139.753</ele>
        <time>2020-08-21T14:49:58Z</time>
      </trkpt>
      <trkpt lat="46.075435" lon="9.109535">
        <ele>1141.215</ele>
        <time>2020-08-21T14:50:16Z</time>
      </trkpt>
      <trkpt lat="46.075575" lon="9.109500">
        <ele>1143.653</ele>
        <time>2020-08-21T14:50:32Z</time>
      </trkpt>
      <trkpt lat="46.075697" lon="9.109442">
        <ele>1146.090</ele>
        <time>2020-08-21T14:50:47Z</time>
      </trkpt>
      <trkpt lat="46.075797" lon="9.109364">
        <ele>1148.444</ele>
        <time>2020-08-21T14:51:00Z</time>
      </trkpt>
      <trkpt lat="46.075891" lon="9.109326">
        <ele>1149.305</ele>
        <time>2020-08-21T14:51:12Z</time>
      </trkpt>
      <trkpt lat="46.075893" lon="9.109340">
        <ele>1149.315</ele>
        <time>2020-08-21T14:51:13Z</time>
      </trkpt>
      <trkpt lat="46.075892" lon="9.109434">
        <ele>1150.808</ele>
        <time>2020-08-21T14:51:20Z</time>
      </trkpt>
      <trkpt lat="46.075847" lon="9.109520">
        <ele>1151.369</ele>
        <time>2020-08-21T14:51:27Z</time>
      </trkpt>
      <trkpt lat="46.075841" lon="9.109536">
        <ele>1151.839</ele>
        <time>2020-08-21T14:51:28Z</time>
      </trkpt>
      <trkpt lat="46.075727" lon="9.109741">
        <ele>1153.248</ele>
        <time>2020-08-21T14:51:46Z</time>
      </trkpt>
      <trkpt lat="46.075722" lon="9.109755">
        <ele>1153.768</ele>
        <time>2020-08-21T14:51:47Z</time>
      </trkpt>
      <trkpt lat="46.075713" lon="9.109770">
        <ele>1153.745</ele>
        <time>2020-08-21T14:51:48Z</time>
      </trkpt>
      <trkpt lat="46.075703" lon="9.109782">
        <ele>1153.737</ele>
        <time>2020-08-21T14:51:49Z</time>
      </trkpt>
      <trkpt lat="46.075691" lon="9.109793">
        <ele>1154.635</ele>
        <time>2020-08-21T14:51:50Z</time>
      </trkpt>
      <trkpt lat="46.075684" lon="9.109801">
        <ele>1154.642</ele>
        <time>2020-08-21T14:51:51Z</time>
      </trkpt>
      <trkpt lat="46.075673" lon="9.109811">
        <ele>1154.632</ele>
        <time>2020-08-21T14:51:52Z</time>
      </trkpt>
      <trkpt lat="46.075665" lon="9.109822">
        <ele>1154.692</ele>
        <time>2020-08-21T14:51:53Z</time>
      </trkpt>
      <trkpt lat="46.075576" lon="9.110000">
        <ele>1156.611</ele>
        <time>2020-08-21T14:52:08Z</time>
      </trkpt>
      <trkpt lat="46.075580" lon="9.110041">
        <ele>1156.608</ele>
        <time>2020-08-21T14:52:11Z</time>
      </trkpt>
      <trkpt lat="46.075581" lon="9.110135">
        <ele>1158.058</ele>
        <time>2020-08-21T14:52:18Z</time>
      </trkpt>
      <trkpt lat="46.075561" lon="9.110173">
        <ele>1158.538</ele>
        <time>2020-08-21T14:52:21Z</time>
      </trkpt>
      <trkpt lat="46.075558" lon="9.110187">
        <ele>1159.097</ele>
        <time>2020-08-21T14:52:22Z</time>
      </trkpt>
      <trkpt lat="46.075576" lon="9.110380">
        <ele>1160.927</ele>
        <time>2020-08-21T14:52:36Z</time>
      </trkpt>
      <trkpt lat="46.075577" lon="9.110373">
        <ele>1161.474</ele>
        <time>2020-08-21T14:52:54Z</time>
      </trkpt>
      <trkpt lat="46.075565" lon="9.110370">
        <ele>1161.446</ele>
        <time>2020-08-21T14:53:19Z</time>
      </trkpt>
      <trkpt lat="46.075587" lon="9.110382">
        <ele>1161.414</ele>
        <time>2020-08-21T14:53:47Z</time>
      </trkpt>
      <trkpt lat="46.075617" lon="9.110392">
        <ele>1161.461</ele>
        <time>2020-08-21T14:53:50Z</time>
      </trkpt>
      <trkpt lat="46.075627" lon="9.110385">
        <ele>1161.435</ele>
        <time>2020-08-21T14:53:51Z</time>
      </trkpt>
      <trkpt lat="46.075635" lon="9.110369">
        <ele>1161.886</ele>
        <time>2020-08-21T14:53:52Z</time>
      </trkpt>
      <trkpt lat="46.075642" lon="9.110356">
        <ele>1161.814</ele>
        <time>2020-08-21T14:53:53Z</time>
      </trkpt>
      <trkpt lat="46.075650" lon="9.110346">
        <ele>1161.808</ele>
        <time>2020-08-21T14:53:54Z</time>
      </trkpt>
      <trkpt lat="46.075656" lon="9.110336">
        <ele>1162.818</ele>
        <time>2020-08-21T14:53:55Z</time>
      </trkpt>
      <trkpt lat="46.075664" lon="9.110327">
        <ele>1162.838</ele>
        <time>2020-08-21T14:53:56Z</time>
      </trkpt>
      <trkpt lat="46.075782" lon="9.110165">
        <ele>1165.247</ele>
        <time>2020-08-21T14:54:12Z</time>
      </trkpt>
      <trkpt lat="46.075928" lon="9.110072">
        <ele>1166.797</ele>
        <time>2020-08-21T14:54:28Z</time>
      </trkpt>
      <trkpt lat="46.075948" lon="9.110068">
        <ele>1167.164</ele>
        <time>2020-08-21T14:54:30Z</time>
      </trkpt>
      <trkpt lat="46.075960" lon="9.110071">
        <ele>1167.636</ele>
        <time>2020-08-21T14:54:31Z</time>
      </trkpt>
      <trkpt lat="46.076134" lon="9.110105">
        <ele>1169.554</ele>
        <time>2020-08-21T14:54:49Z</time>
      </trkpt>
      <trkpt lat="46.076280" lon="9.110121">
        <ele>1172.471</ele>
        <time>2020-08-21T14:55:05Z</time>
      </trkpt>
      <trkpt lat="46.076352" lon="9.110087">
        <ele>1173.958</ele>
        <time>2020-08-21T14:55:13Z</time>
      </trkpt>
      <trkpt lat="46.076362" lon="9.110082">
        <ele>1173.952</ele>
        <time>2020-08-21T14:55:14Z</time>
      </trkpt>
      <trkpt lat="46.076501" lon="9.110071">
        <ele>1175.817</ele>
        <time>2020-08-21T14:55:29Z</time>
      </trkpt>
      <trkpt lat="46.076598" lon="9.110066">
        <ele>1177.708</ele>
        <time>2020-08-21T14:55:40Z</time>
      </trkpt>
      <trkpt lat="46.076607" lon="9.110069">
        <ele>1177.740</ele>
        <time>2020-08-21T14:55:41Z</time>
      </trkpt>
      <trkpt lat="46.076709" lon="9.109994">
        <ele>1180.120</ele>
        <time>2020-08-21T14:55:55Z</time>
      </trkpt>
      <trkpt lat="46.076835" lon="9.109930">
        <ele>1182.579</ele>
        <time>2020-08-21T14:56:10Z</time>
      </trkpt>
      <trkpt lat="46.076902" lon="9.109865">
        <ele>1184.039</ele>
        <time>2020-08-21T14:56:19Z</time>
      </trkpt>
      <trkpt lat="46.077011" lon="9.109771">
        <ele>1185.956</ele>
        <time>2020-08-21T14:56:34Z</time>
      </trkpt>
      <trkpt lat="46.077122" lon="9.109667">
        <ele>1188.848</ele>
        <time>2020-08-21T14:56:49Z</time>
      </trkpt>
      <trkpt lat="46.077222" lon="9.109536">
        <ele>1190.736</ele>
        <time>2020-08-21T14:57:05Z</time>
      </trkpt>
      <trkpt lat="46.077328" lon="9.109430">
        <ele>1193.173</ele>
        <time>2020-08-21T14:57:18Z</time>
      </trkpt>
      <trkpt lat="46.077338" lon="9.109429">
        <ele>1193.197</ele>
        <time>2020-08-21T14:57:19Z</time>
      </trkpt>
      <trkpt lat="46.077412" lon="9.109361">
        <ele>1194.523</ele>
        <time>2020-08-21T14:57:29Z</time>
      </trkpt>
      <trkpt lat="46.077516" lon="9.109249">
        <ele>1197.425</ele>
        <time>2020-08-21T14:57:43Z</time>
      </trkpt>
      <trkpt lat="46.077593" lon="9.109202">
        <ele>1198.908</ele>
        <time>2020-08-21T14:57:54Z</time>
      </trkpt>
      <trkpt lat="46.077612" lon="9.109197">
        <ele>1198.944</ele>
        <time>2020-08-21T14:57:56Z</time>
      </trkpt>
      <trkpt lat="46.077644" lon="9.109116">
        <ele>1199.834</ele>
        <time>2020-08-21T14:58:03Z</time>
      </trkpt>
      <trkpt lat="46.077666" lon="9.108901">
        <ele>1202.223</ele>
        <time>2020-08-21T14:58:21Z</time>
      </trkpt>
      <trkpt lat="46.077689" lon="9.108827">
        <ele>1203.783</ele>
        <time>2020-08-21T14:58:27Z</time>
      </trkpt>
      <trkpt lat="46.077697" lon="9.108815">
        <ele>1203.790</ele>
        <time>2020-08-21T14:58:28Z</time>
      </trkpt>
      <trkpt lat="46.077746" lon="9.108676">
        <ele>1205.642</ele>
        <time>2020-08-21T14:58:41Z</time>
      </trkpt>
      <trkpt lat="46.077793" lon="9.108517">
        <ele>1207.030</ele>
        <time>2020-08-21T14:58:54Z</time>
      </trkpt>
      <trkpt lat="46.077861" lon="9.108396">
        <ele>1209.977</ele>
        <time>2020-08-21T14:59:08Z</time>
      </trkpt>
      <trkpt lat="46.077937" lon="9.108300">
        <ele>1211.498</ele>
        <time>2020-08-21T14:59:19Z</time>
      </trkpt>
      <trkpt lat="46.077995" lon="9.108221">
        <ele>1212.815</ele>
        <time>2020-08-21T14:59:31Z</time>
      </trkpt>
      <trkpt lat="46.078080" lon="9.108136">
        <ele>1215.726</ele>
        <time>2020-08-21T14:59:44Z</time>
      </trkpt>
      <trkpt lat="46.078192" lon="9.108033">
        <ele>1218.108</ele>
        <time>2020-08-21T15:00:00Z</time>
      </trkpt>
      <trkpt lat="46.078297" lon="9.107912">
        <ele>1221.454</ele>
        <time>2020-08-21T15:00:15Z</time>
      </trkpt>
      <trkpt lat="46.078394" lon="9.107807">
        <ele>1222.984</ele>
        <time>2020-08-21T15:00:29Z</time>
      </trkpt>
      <trkpt lat="46.078483" lon="9.107688">
        <ele>1225.893</ele>
        <time>2020-08-21T15:00:43Z</time>
      </trkpt>
      <trkpt lat="46.078608" lon="9.107545">
        <ele>1227.273</ele>
        <time>2020-08-21T15:01:00Z</time>
      </trkpt>
      <trkpt lat="46.078680" lon="9.107368">
        <ele>1229.660</ele>
        <time>2020-08-21T15:01:17Z</time>
      </trkpt>
      <trkpt lat="46.078656" lon="9.107176">
        <ele>1232.042</ele>
        <time>2020-08-21T15:01:34Z</time>
      </trkpt>
      <trkpt lat="46.078681" lon="9.106987">
        <ele>1234.490</ele>
        <time>2020-08-21T15:01:50Z</time>
      </trkpt>
      <trkpt lat="46.078766" lon="9.106978">
        <ele>1236.837</ele>
        <time>2020-08-21T15:02:01Z</time>
      </trkpt>
      <trkpt lat="46.078771" lon="9.106995">
        <ele>1236.853</ele>
        <time>2020-08-21T15:02:02Z</time>
      </trkpt>
      <trkpt lat="46.078774" lon="9.107008">
        <ele>1236.804</ele>
        <time>2020-08-21T15:02:03Z</time>
      </trkpt>
      <trkpt lat="46.078780" lon="9.107024">
        <ele>1236.814</ele>
        <time>2020-08-21T15:02:04Z</time>
      </trkpt>
      <trkpt lat="46.078823" lon="9.107054">
        <ele>1238.808</ele>
        <time>2020-08-21T15:02:14Z</time>
      </trkpt>
      <trkpt lat="46.078940" lon="9.106978">
        <ele>1241.260</ele>
        <time>2020-08-21T15:02:29Z</time>
      </trkpt>
      <trkpt lat="46.079014" lon="9.106811">
        <ele>1243.180</ele>
        <time>2020-08-21T15:02:43Z</time>
      </trkpt>
      <trkpt lat="46.079051" lon="9.106650">
        <ele>1246.069</ele>
        <time>2020-08-21T15:02:58Z</time>
      </trkpt>
      <trkpt lat="46.079069" lon="9.106489">
        <ele>1248.819</ele>
        <time>2020-08-21T15:03:13Z</time>
      </trkpt>
      <trkpt lat="46.079112" lon="9.106301">
        <ele>1251.766</ele>
        <time>2020-08-21T15:03:29Z</time>
      </trkpt>
      <trkpt lat="46.079172" lon="9.106091">
        <ele>1253.718</ele>
        <time>2020-08-21T15:03:46Z</time>
      </trkpt>
      <trkpt lat="46.079187" lon="9.105955">
        <ele>1255.626</ele>
        <time>2020-08-21T15:03:57Z</time>
      </trkpt>
      <trkpt lat="46.079218" lon="9.105874">
        <ele>1256.513</ele>
        <time>2020-08-21T15:04:04Z</time>
      </trkpt>
      <trkpt lat="46.079274" lon="9.105697">
        <ele>1258.525</ele>
        <time>2020-08-21T15:04:19Z</time>
      </trkpt>
      <trkpt lat="46.079304" lon="9.105499">
        <ele>1260.926</ele>
        <time>2020-08-21T15:04:35Z</time>
      </trkpt>
      <trkpt lat="46.079333" lon="9.105257">
        <ele>1262.808</ele>
        <time>2020-08-21T15:04:52Z</time>
      </trkpt>
      <trkpt lat="46.079378" lon="9.105150">
        <ele>1264.208</ele>
        <time>2020-08-21T15:05:01Z</time>
      </trkpt>
      <trkpt lat="46.079479" lon="9.104977">
        <ele>1266.647</ele>
        <time>2020-08-21T15:05:17Z</time>
      </trkpt>
      <trkpt lat="46.079581" lon="9.104786">
        <ele>1269.047</ele>
        <time>2020-08-21T15:05:35Z</time>
      </trkpt>
      <trkpt lat="46.079623" lon="9.104753">
        <ele>1270.546</ele>
        <time>2020-08-21T15:05:40Z</time>
      </trkpt>
      <trkpt lat="46.079650" lon="9.104716">
        <ele>1271.046</ele>
        <time>2020-08-21T15:05:44Z</time>
      </trkpt>
      <trkpt lat="46.079718" lon="9.104488">
        <ele>1273.433</ele>
        <time>2020-08-21T15:06:03Z</time>
      </trkpt>
      <trkpt lat="46.079742" lon="9.104268">
        <ele>1276.275</ele>
        <time>2020-08-21T15:06:21Z</time>
      </trkpt>
      <trkpt lat="46.079741" lon="9.104255">
        <ele>1276.783</ele>
        <time>2020-08-21T15:06:22Z</time>
      </trkpt>
      <trkpt lat="46.079727" lon="9.104185">
        <ele>1276.760</ele>
        <time>2020-08-21T15:06:27Z</time>
      </trkpt>
      <trkpt lat="46.079714" lon="9.104034">
        <ele>1278.675</ele>
        <time>2020-08-21T15:06:37Z</time>
      </trkpt>
      <trkpt lat="46.079738" lon="9.103858">
        <ele>1280.628</ele>
        <time>2020-08-21T15:06:50Z</time>
      </trkpt>
      <trkpt lat="46.079828" lon="9.103675">
        <ele>1283.020</ele>
        <time>2020-08-21T15:07:06Z</time>
      </trkpt>
      <trkpt lat="46.079876" lon="9.103509">
        <ele>1284.908</ele>
        <time>2020-08-21T15:07:19Z</time>
      </trkpt>
      <trkpt lat="46.079881" lon="9.103494">
        <ele>1285.452</ele>
        <time>2020-08-21T15:07:20Z</time>
      </trkpt>
      <trkpt lat="46.079886" lon="9.103481">
        <ele>1285.462</ele>
        <time>2020-08-21T15:07:21Z</time>
      </trkpt>
      <trkpt lat="46.079914" lon="9.103306">
        <ele>1287.311</ele>
        <time>2020-08-21T15:07:32Z</time>
      </trkpt>
      <trkpt lat="46.079927" lon="9.103283">
        <ele>1287.831</ele>
        <time>2020-08-21T15:07:34Z</time>
      </trkpt>
      <trkpt lat="46.079939" lon="9.103277">
        <ele>1287.838</ele>
        <time>2020-08-21T15:07:35Z</time>
      </trkpt>
      <trkpt lat="46.079950" lon="9.103281">
        <ele>1287.820</ele>
        <time>2020-08-21T15:07:36Z</time>
      </trkpt>
      <trkpt lat="46.079960" lon="9.103292">
        <ele>1288.398</ele>
        <time>2020-08-21T15:07:37Z</time>
      </trkpt>
      <trkpt lat="46.079964" lon="9.103308">
        <ele>1288.345</ele>
        <time>2020-08-21T15:07:38Z</time>
      </trkpt>
      <trkpt lat="46.079966" lon="9.103329">
        <ele>1288.793</ele>
        <time>2020-08-21T15:07:39Z</time>
      </trkpt>
      <trkpt lat="46.079971" lon="9.103344">
        <ele>1288.365</ele>
        <time>2020-08-21T15:07:40Z</time>
      </trkpt>
      <trkpt lat="46.079974" lon="9.103360">
        <ele>1288.321</ele>
        <time>2020-08-21T15:07:41Z</time>
      </trkpt>
      <trkpt lat="46.079972" lon="9.103376">
        <ele>1289.208</ele>
        <time>2020-08-21T15:07:42Z</time>
      </trkpt>
      <trkpt lat="46.079970" lon="9.103391">
        <ele>1289.284</ele>
        <time>2020-08-21T15:07:43Z</time>
      </trkpt>
      <trkpt lat="46.079968" lon="9.103408">
        <ele>1289.264</ele>
        <time>2020-08-21T15:07:44Z</time>
      </trkpt>
      <trkpt lat="46.079963" lon="9.103424">
        <ele>1289.753</ele>
        <time>2020-08-21T15:07:45Z</time>
      </trkpt>
      <trkpt lat="46.080039" lon="9.103821">
        <ele>1291.643</ele>
        <time>2020-08-21T15:08:02Z</time>
      </trkpt>
      <trkpt lat="46.080011" lon="9.104144">
        <ele>1292.190</ele>
        <time>2020-08-21T15:08:14Z</time>
      </trkpt>
      <trkpt lat="46.080022" lon="9.104225">
        <ele>1292.682</ele>
        <time>2020-08-21T15:08:18Z</time>
      </trkpt>
      <trkpt lat="46.080025" lon="9.104251">
        <ele>1293.510</ele>
        <time>2020-08-21T15:08:19Z</time>
      </trkpt>
      <trkpt lat="46.080130" lon="9.104606">
        <ele>1295.087</ele>
        <time>2020-08-21T15:08:34Z</time>
      </trkpt>
      <trkpt lat="46.080147" lon="9.104974">
        <ele>1295.912</ele>
        <time>2020-08-21T15:08:47Z</time>
      </trkpt>
      <trkpt lat="46.080154" lon="9.105363">
        <ele>1296.932</ele>
        <time>2020-08-21T15:09:02Z</time>
      </trkpt>
      <trkpt lat="46.080148" lon="9.105405">
        <ele>1296.905</ele>
        <time>2020-08-21T15:09:04Z</time>
      </trkpt>
      <trkpt lat="46.080145" lon="9.105420">
        <ele>1296.908</ele>
        <time>2020-08-21T15:09:05Z</time>
      </trkpt>
      <trkpt lat="46.080142" lon="9.105441">
        <ele>1296.986</ele>
        <time>2020-08-21T15:09:06Z</time>
      </trkpt>
      <trkpt lat="46.080142" lon="9.105462">
        <ele>1296.986</ele>
        <time>2020-08-21T15:09:07Z</time>
      </trkpt>
      <trkpt lat="46.080145" lon="9.105481">
        <ele>1297.465</ele>
        <time>2020-08-21T15:09:08Z</time>
      </trkpt>
      <trkpt lat="46.080154" lon="9.105501">
        <ele>1297.445</ele>
        <time>2020-08-21T15:09:09Z</time>
      </trkpt>
      <trkpt lat="46.080165" lon="9.105513">
        <ele>1297.442</ele>
        <time>2020-08-21T15:09:10Z</time>
      </trkpt>
      <trkpt lat="46.080181" lon="9.105520">
        <ele>1298.444</ele>
        <time>2020-08-21T15:09:11Z</time>
      </trkpt>
      <trkpt lat="46.080194" lon="9.105522">
        <ele>1298.492</ele>
        <time>2020-08-21T15:09:12Z</time>
      </trkpt>
      <trkpt lat="46.080207" lon="9.105518">
        <ele>1298.439</ele>
        <time>2020-08-21T15:09:13Z</time>
      </trkpt>
      <trkpt lat="46.080217" lon="9.105507">
        <ele>1298.436</ele>
        <time>2020-08-21T15:09:14Z</time>
      </trkpt>
      <trkpt lat="46.080227" lon="9.105492">
        <ele>1298.417</ele>
        <time>2020-08-21T15:09:15Z</time>
      </trkpt>
      <trkpt lat="46.080234" lon="9.105474">
        <ele>1298.818</ele>
        <time>2020-08-21T15:09:16Z</time>
      </trkpt>
      <trkpt lat="46.080233" lon="9.105451">
        <ele>1298.808</ele>
        <time>2020-08-21T15:09:17Z</time>
      </trkpt>
      <trkpt lat="46.080233" lon="9.105431">
        <ele>1299.348</ele>
        <time>2020-08-21T15:09:18Z</time>
      </trkpt>
      <trkpt lat="46.080242" lon="9.105234">
        <ele>1301.278</ele>
        <time>2020-08-21T15:09:31Z</time>
      </trkpt>
      <trkpt lat="46.080248" lon="9.105187">
        <ele>1302.257</ele>
        <time>2020-08-21T15:09:34Z</time>
      </trkpt>
      <trkpt lat="46.080252" lon="9.105172">
        <ele>1302.277</ele>
        <time>2020-08-21T15:09:35Z</time>
      </trkpt>
      <trkpt lat="46.080254" lon="9.105155">
        <ele>1302.234</ele>
        <time>2020-08-21T15:09:36Z</time>
      </trkpt>
      <trkpt lat="46.080257" lon="9.105140">
        <ele>1302.786</ele>
        <time>2020-08-21T15:09:37Z</time>
      </trkpt>
      <trkpt lat="46.080262" lon="9.105125">
        <ele>1302.734</ele>
        <time>2020-08-21T15:09:38Z</time>
      </trkpt>
      <trkpt lat="46.080266" lon="9.105110">
        <ele>1302.791</ele>
        <time>2020-08-21T15:09:39Z</time>
      </trkpt>
      <trkpt lat="46.080270" lon="9.105095">
        <ele>1302.779</ele>
        <time>2020-08-21T15:09:40Z</time>
      </trkpt>
      <trkpt lat="46.080275" lon="9.105079">
        <ele>1303.205</ele>
        <time>2020-08-21T15:09:41Z</time>
      </trkpt>
      <trkpt lat="46.080302" lon="9.105008">
        <ele>1303.625</ele>
        <time>2020-08-21T15:09:46Z</time>
      </trkpt>
      <trkpt lat="46.080307" lon="9.104995">
        <ele>1303.608</ele>
        <time>2020-08-21T15:09:47Z</time>
      </trkpt>
      <trkpt lat="46.080313" lon="9.104973">
        <ele>1303.622</ele>
        <time>2020-08-21T15:09:48Z</time>
      </trkpt>
      <trkpt lat="46.080318" lon="9.104958">
        <ele>1303.652</ele>
        <time>2020-08-21T15:09:49Z</time>
      </trkpt>
      <trkpt lat="46.080323" lon="9.104942">
        <ele>1303.651</ele>
        <time>2020-08-21T15:09:50Z</time>
      </trkpt>
      <trkpt lat="46.080328" lon="9.104926">
        <ele>1304.141</ele>
        <time>2020-08-21T15:09:51Z</time>
      </trkpt>
      <trkpt lat="46.080331" lon="9.104674">
        <ele>1306.578</ele>
        <time>2020-08-21T15:10:07Z</time>
      </trkpt>
      <trkpt lat="46.080329" lon="9.104659">
        <ele>1306.510</ele>
        <time>2020-08-21T15:10:08Z</time>
      </trkpt>
      <trkpt lat="46.080329" lon="9.104644">
        <ele>1306.588</ele>
        <time>2020-08-21T15:10:09Z</time>
      </trkpt>
      <trkpt lat="46.080326" lon="9.104628">
        <ele>1306.575</ele>
        <time>2020-08-21T15:10:10Z</time>
      </trkpt>
      <trkpt lat="46.080300" lon="9.104519">
        <ele>1308.063</ele>
        <time>2020-08-21T15:10:18Z</time>
      </trkpt>
      <trkpt lat="46.080292" lon="9.104428">
        <ele>1308.444</ele>
        <time>2020-08-21T15:10:24Z</time>
      </trkpt>
      <trkpt lat="46.080287" lon="9.104414">
        <ele>1308.418</ele>
        <time>2020-08-21T15:10:25Z</time>
      </trkpt>
      <trkpt lat="46.080281" lon="9.104400">
        <ele>1308.408</ele>
        <time>2020-08-21T15:10:26Z</time>
      </trkpt>
      <trkpt lat="46.080276" lon="9.104384">
        <ele>1309.491</ele>
        <time>2020-08-21T15:10:27Z</time>
      </trkpt>
      <trkpt lat="46.080303" lon="9.104258">
        <ele>1310.951</ele>
        <time>2020-08-21T15:10:37Z</time>
      </trkpt>
      <trkpt lat="46.080373" lon="9.104090">
        <ele>1311.870</ele>
        <time>2020-08-21T15:10:50Z</time>
      </trkpt>
      <trkpt lat="46.080434" lon="9.103913">
        <ele>1313.760</ele>
        <time>2020-08-21T15:11:03Z</time>
      </trkpt>
      <trkpt lat="46.080480" lon="9.103754">
        <ele>1315.247</ele>
        <time>2020-08-21T15:11:14Z</time>
      </trkpt>
      <trkpt lat="46.080482" lon="9.103738">
        <ele>1315.239</ele>
        <time>2020-08-21T15:11:15Z</time>
      </trkpt>
      <trkpt lat="46.080489" lon="9.103721">
        <ele>1315.237</ele>
        <time>2020-08-21T15:11:16Z</time>
      </trkpt>
      <trkpt lat="46.080494" lon="9.103706">
        <ele>1315.264</ele>
        <time>2020-08-21T15:11:17Z</time>
      </trkpt>
      <trkpt lat="46.080499" lon="9.103689">
        <ele>1315.711</ele>
        <time>2020-08-21T15:11:18Z</time>
      </trkpt>
      <trkpt lat="46.080522" lon="9.103443">
        <ele>1317.621</ele>
        <time>2020-08-21T15:11:34Z</time>
      </trkpt>
      <trkpt lat="46.080549" lon="9.103272">
        <ele>1320.503</ele>
        <time>2020-08-21T15:11:48Z</time>
      </trkpt>
      <trkpt lat="46.080561" lon="9.103030">
        <ele>1321.908</ele>
        <time>2020-08-21T15:12:02Z</time>
      </trkpt>
      <trkpt lat="46.080587" lon="9.102710">
        <ele>1323.856</ele>
        <time>2020-08-21T15:12:20Z</time>
      </trkpt>
      <trkpt lat="46.080582" lon="9.102581">
        <ele>1324.366</ele>
        <time>2020-08-21T15:12:27Z</time>
      </trkpt>
      <trkpt lat="46.080587" lon="9.102564">
        <ele>1324.365</ele>
        <time>2020-08-21T15:12:28Z</time>
      </trkpt>
      <trkpt lat="46.080591" lon="9.102546">
        <ele>1324.885</ele>
        <time>2020-08-21T15:12:29Z</time>
      </trkpt>
      <trkpt lat="46.080594" lon="9.102532">
        <ele>1324.812</ele>
        <time>2020-08-21T15:12:30Z</time>
      </trkpt>
      <trkpt lat="46.080597" lon="9.102519">
        <ele>1324.864</ele>
        <time>2020-08-21T15:12:31Z</time>
      </trkpt>
      <trkpt lat="46.080604" lon="9.102503">
        <ele>1324.812</ele>
        <time>2020-08-21T15:12:32Z</time>
      </trkpt>
      <trkpt lat="46.080609" lon="9.102487">
        <ele>1324.889</ele>
        <time>2020-08-21T15:12:33Z</time>
      </trkpt>
      <trkpt lat="46.080613" lon="9.102473">
        <ele>1324.863</ele>
        <time>2020-08-21T15:12:34Z</time>
      </trkpt>
      <trkpt lat="46.080614" lon="9.102457">
        <ele>1324.844</ele>
        <time>2020-08-21T15:12:35Z</time>
      </trkpt>
      <trkpt lat="46.080614" lon="9.102440">
        <ele>1325.318</ele>
        <time>2020-08-21T15:12:36Z</time>
      </trkpt>
      <trkpt lat="46.080615" lon="9.102424">
        <ele>1325.308</ele>
        <time>2020-08-21T15:12:37Z</time>
      </trkpt>
      <trkpt lat="46.080621" lon="9.102411">
        <ele>1325.351</ele>
        <time>2020-08-21T15:12:38Z</time>
      </trkpt>
      <trkpt lat="46.080626" lon="9.102393">
        <ele>1325.381</ele>
        <time>2020-08-21T15:12:39Z</time>
      </trkpt>
      <trkpt lat="46.080634" lon="9.102359">
        <ele>1325.370</ele>
        <time>2020-08-21T15:12:41Z</time>
      </trkpt>
      <trkpt lat="46.080636" lon="9.102341">
        <ele>1325.370</ele>
        <time>2020-08-21T15:12:42Z</time>
      </trkpt>
      <trkpt lat="46.080641" lon="9.102326">
        <ele>1325.347</ele>
        <time>2020-08-21T15:12:43Z</time>
      </trkpt>
      <trkpt lat="46.080664" lon="9.102300">
        <ele>1325.889</ele>
        <time>2020-08-21T15:12:57Z</time>
      </trkpt>
      <trkpt lat="46.080650" lon="9.102285">
        <ele>1325.847</ele>
        <time>2020-08-21T15:13:14Z</time>
      </trkpt>
      <trkpt lat="46.080637" lon="9.102266">
        <ele>1324.894</ele>
        <time>2020-08-21T15:13:42Z</time>
      </trkpt>
      <trkpt lat="46.080643" lon="9.102291">
        <ele>1324.854</ele>
        <time>2020-08-21T15:14:02Z</time>
      </trkpt>
      <trkpt lat="46.080653" lon="9.102290">
        <ele>1325.356</ele>
        <time>2020-08-21T15:14:25Z</time>
      </trkpt>
      <trkpt lat="46.080655" lon="9.102248">
        <ele>1325.311</ele>
        <time>2020-08-21T15:14:30Z</time>
      </trkpt>
      <trkpt lat="46.080657" lon="9.102228">
        <ele>1325.308</ele>
        <time>2020-08-21T15:14:31Z</time>
      </trkpt>
      <trkpt lat="46.080664" lon="9.102214">
        <ele>1325.330</ele>
        <time>2020-08-21T15:14:32Z</time>
      </trkpt>
      <trkpt lat="46.080674" lon="9.102204">
        <ele>1325.380</ele>
        <time>2020-08-21T15:14:33Z</time>
      </trkpt>
      <trkpt lat="46.080684" lon="9.102190">
        <ele>1325.349</ele>
        <time>2020-08-21T15:14:34Z</time>
      </trkpt>
      <trkpt lat="46.080691" lon="9.102172">
        <ele>1325.369</ele>
        <time>2020-08-21T15:14:35Z</time>
      </trkpt>
      <trkpt lat="46.080837" lon="9.101866">
        <ele>1326.716</ele>
        <time>2020-08-21T15:14:51Z</time>
      </trkpt>
      <trkpt lat="46.080933" lon="9.101493">
        <ele>1328.648</ele>
        <time>2020-08-21T15:15:10Z</time>
      </trkpt>
      <trkpt lat="46.080947" lon="9.101328">
        <ele>1330.176</ele>
        <time>2020-08-21T15:15:21Z</time>
      </trkpt>
      <trkpt lat="46.080952" lon="9.101281">
        <ele>1330.633</ele>
        <time>2020-08-21T15:15:24Z</time>
      </trkpt>
      <trkpt lat="46.080955" lon="9.101268">
        <ele>1330.611</ele>
        <time>2020-08-21T15:15:25Z</time>
      </trkpt>
      <trkpt lat="46.080950" lon="9.101146">
        <ele>1332.021</ele>
        <time>2020-08-21T15:15:33Z</time>
      </trkpt>
      <trkpt lat="46.080949" lon="9.101134">
        <ele>1332.503</ele>
        <time>2020-08-21T15:15:34Z</time>
      </trkpt>
      <trkpt lat="46.080947" lon="9.101119">
        <ele>1332.508</ele>
        <time>2020-08-21T15:15:35Z</time>
      </trkpt>
      <trkpt lat="46.080941" lon="9.100898">
        <ele>1334.996</ele>
        <time>2020-08-21T15:15:52Z</time>
      </trkpt>
      <trkpt lat="46.080968" lon="9.100710">
        <ele>1337.396</ele>
        <time>2020-08-21T15:16:07Z</time>
      </trkpt>
      <trkpt lat="46.081019" lon="9.100509">
        <ele>1341.155</ele>
        <time>2020-08-21T15:16:23Z</time>
      </trkpt>
      <trkpt lat="46.081059" lon="9.100310">
        <ele>1343.595</ele>
        <time>2020-08-21T15:16:39Z</time>
      </trkpt>
      <trkpt lat="46.081077" lon="9.100115">
        <ele>1346.442</ele>
        <time>2020-08-21T15:16:54Z</time>
      </trkpt>
      <trkpt lat="46.081113" lon="9.100030">
        <ele>1347.914</ele>
        <time>2020-08-21T15:17:01Z</time>
      </trkpt>
      <trkpt lat="46.081118" lon="9.100013">
        <ele>1347.492</ele>
        <time>2020-08-21T15:17:02Z</time>
      </trkpt>
      <trkpt lat="46.081152" lon="9.099794">
        <ele>1349.869</ele>
        <time>2020-08-21T15:17:18Z</time>
      </trkpt>
      <trkpt lat="46.081172" lon="9.099769">
        <ele>1349.849</ele>
        <time>2020-08-21T15:17:20Z</time>
      </trkpt>
      <trkpt lat="46.081285" lon="9.099596">
        <ele>1351.702</ele>
        <time>2020-08-21T15:17:35Z</time>
      </trkpt>
      <trkpt lat="46.081325" lon="9.099536">
        <ele>1352.222</ele>
        <time>2020-08-21T15:17:40Z</time>
      </trkpt>
      <trkpt lat="46.081453" lon="9.099336">
        <ele>1354.108</ele>
        <time>2020-08-21T15:17:57Z</time>
      </trkpt>
      <trkpt lat="46.081581" lon="9.099114">
        <ele>1356.039</ele>
        <time>2020-08-21T15:18:14Z</time>
      </trkpt>
      <trkpt lat="46.081716" lon="9.098917">
        <ele>1356.559</ele>
        <time>2020-08-21T15:18:26Z</time>
      </trkpt>
      <trkpt lat="46.081869" lon="9.098682">
        <ele>1357.548</ele>
        <time>2020-08-21T15:18:40Z</time>
      </trkpt>
      <trkpt lat="46.081996" lon="9.098505">
        <ele>1359.458</ele>
        <time>2020-08-21T15:18:53Z</time>
      </trkpt>
      <trkpt lat="46.082124" lon="9.098323">
        <ele>1362.315</ele>
        <time>2020-08-21T15:19:10Z</time>
      </trkpt>
      <trkpt lat="46.082150" lon="9.098274">
        <ele>1362.887</ele>
        <time>2020-08-21T15:19:14Z</time>
      </trkpt>
      <trkpt lat="46.082151" lon="9.098259">
        <ele>1362.835</ele>
        <time>2020-08-21T15:19:15Z</time>
      </trkpt>
      <trkpt lat="46.082170" lon="9.098071">
        <ele>1364.762</ele>
        <time>2020-08-21T15:19:28Z</time>
      </trkpt>
      <trkpt lat="46.082267" lon="9.097869">
        <ele>1367.145</ele>
        <time>2020-08-21T15:19:44Z</time>
      </trkpt>
      <trkpt lat="46.082424" lon="9.097664">
        <ele>1369.047</ele>
        <time>2020-08-21T15:20:00Z</time>
      </trkpt>
      <trkpt lat="46.082543" lon="9.097541">
        <ele>1370.011</ele>
        <time>2020-08-21T15:20:11Z</time>
      </trkpt>
      <trkpt lat="46.082555" lon="9.097535">
        <ele>1370.008</ele>
        <time>2020-08-21T15:20:12Z</time>
      </trkpt>
      <trkpt lat="46.082566" lon="9.097526">
        <ele>1370.069</ele>
        <time>2020-08-21T15:20:13Z</time>
      </trkpt>
      <trkpt lat="46.082575" lon="9.097515">
        <ele>1370.069</ele>
        <time>2020-08-21T15:20:14Z</time>
      </trkpt>
      <trkpt lat="46.082584" lon="9.097507">
        <ele>1370.068</ele>
        <time>2020-08-21T15:20:15Z</time>
      </trkpt>
      <trkpt lat="46.082595" lon="9.097501">
        <ele>1370.528</ele>
        <time>2020-08-21T15:20:16Z</time>
      </trkpt>
      <trkpt lat="46.082662" lon="9.097460">
        <ele>1370.925</ele>
        <time>2020-08-21T15:20:22Z</time>
      </trkpt>
      <trkpt lat="46.082674" lon="9.097454">
        <ele>1370.947</ele>
        <time>2020-08-21T15:20:23Z</time>
      </trkpt>
      <trkpt lat="46.082685" lon="9.097449">
        <ele>1370.955</ele>
        <time>2020-08-21T15:20:24Z</time>
      </trkpt>
      <trkpt lat="46.082719" lon="9.097427">
        <ele>1371.962</ele>
        <time>2020-08-21T15:20:27Z</time>
      </trkpt>
      <trkpt lat="46.082723" lon="9.097415">
        <ele>1371.955</ele>
        <time>2020-08-21T15:20:28Z</time>
      </trkpt>
      <trkpt lat="46.082728" lon="9.097386">
        <ele>1371.907</ele>
        <time>2020-08-21T15:20:30Z</time>
      </trkpt>
      <trkpt lat="46.082752" lon="9.097278">
        <ele>1371.917</ele>
        <time>2020-08-21T15:20:35Z</time>
      </trkpt>
      <trkpt lat="46.082755" lon="9.097256">
        <ele>1371.908</ele>
        <time>2020-08-21T15:20:36Z</time>
      </trkpt>
      <trkpt lat="46.082760" lon="9.097238">
        <ele>1372.410</ele>
        <time>2020-08-21T15:20:37Z</time>
      </trkpt>
      <trkpt lat="46.082767" lon="9.097222">
        <ele>1372.490</ele>
        <time>2020-08-21T15:20:38Z</time>
      </trkpt>
      <trkpt lat="46.082774" lon="9.097207">
        <ele>1372.439</ele>
        <time>2020-08-21T15:20:39Z</time>
      </trkpt>
      <trkpt lat="46.082782" lon="9.097175">
        <ele>1372.439</ele>
        <time>2020-08-21T15:20:41Z</time>
      </trkpt>
      <trkpt lat="46.082828" lon="9.096914">
        <ele>1374.356</ele>
        <time>2020-08-21T15:20:56Z</time>
      </trkpt>
      <trkpt lat="46.082803" lon="9.096629">
        <ele>1376.718</ele>
        <time>2020-08-21T15:21:12Z</time>
      </trkpt>
      <trkpt lat="46.082801" lon="9.096396">
        <ele>1378.616</ele>
        <time>2020-08-21T15:21:26Z</time>
      </trkpt>
      <trkpt lat="46.082796" lon="9.096212">
        <ele>1380.543</ele>
        <time>2020-08-21T15:21:39Z</time>
      </trkpt>
      <trkpt lat="46.082772" lon="9.096148">
        <ele>1382.026</ele>
        <time>2020-08-21T15:21:44Z</time>
      </trkpt>
      <trkpt lat="46.082764" lon="9.096139">
        <ele>1382.047</ele>
        <time>2020-08-21T15:21:45Z</time>
      </trkpt>
      <trkpt lat="46.082737" lon="9.096094">
        <ele>1382.511</ele>
        <time>2020-08-21T15:21:49Z</time>
      </trkpt>
      <trkpt lat="46.082726" lon="9.096085">
        <ele>1382.508</ele>
        <time>2020-08-21T15:21:50Z</time>
      </trkpt>
      <trkpt lat="46.082603" lon="9.096042">
        <ele>1383.927</ele>
        <time>2020-08-21T15:22:05Z</time>
      </trkpt>
      <trkpt lat="46.082491" lon="9.095955">
        <ele>1386.887</ele>
        <time>2020-08-21T15:22:21Z</time>
      </trkpt>
      <trkpt lat="46.082466" lon="9.095948">
        <ele>1386.876</ele>
        <time>2020-08-21T15:22:24Z</time>
      </trkpt>
      <trkpt lat="46.082358" lon="9.095860">
        <ele>1389.226</ele>
        <time>2020-08-21T15:22:39Z</time>
      </trkpt>
      <trkpt lat="46.082294" lon="9.095705">
        <ele>1392.193</ele>
        <time>2020-08-21T15:22:53Z</time>
      </trkpt>
      <trkpt lat="46.082324" lon="9.095562">
        <ele>1393.545</ele>
        <time>2020-08-21T15:23:06Z</time>
      </trkpt>
      <trkpt lat="46.082417" lon="9.095438">
        <ele>1395.013</ele>
        <time>2020-08-21T15:23:19Z</time>
      </trkpt>
      <trkpt lat="46.082516" lon="9.095260">
        <ele>1396.960</ele>
        <time>2020-08-21T15:23:35Z</time>
      </trkpt>
      <trkpt lat="46.082550" lon="9.095188">
        <ele>1397.876</ele>
        <time>2020-08-21T15:23:41Z</time>
      </trkpt>
      <trkpt lat="46.082551" lon="9.095174">
        <ele>1397.890</ele>
        <time>2020-08-21T15:23:42Z</time>
      </trkpt>
      <trkpt lat="46.082608" lon="9.095037">
        <ele>1399.819</ele>
        <time>2020-08-21T15:23:54Z</time>
      </trkpt>
      <trkpt lat="46.082655" lon="9.094961">
        <ele>1401.208</ele>
        <time>2020-08-21T15:24:01Z</time>
      </trkpt>
      <trkpt lat="46.082663" lon="9.094951">
        <ele>1401.242</ele>
        <time>2020-08-21T15:24:02Z</time>
      </trkpt>
      <trkpt lat="46.082672" lon="9.094937">
        <ele>1401.262</ele>
        <time>2020-08-21T15:24:03Z</time>
      </trkpt>
      <trkpt lat="46.082680" lon="9.094923">
        <ele>1401.221</ele>
        <time>2020-08-21T15:24:04Z</time>
      </trkpt>
      <trkpt lat="46.082689" lon="9.094910">
        <ele>1401.231</ele>
        <time>2020-08-21T15:24:05Z</time>
      </trkpt>
      <trkpt lat="46.082789" lon="9.094692">
        <ele>1402.738</ele>
        <time>2020-08-21T15:24:20Z</time>
      </trkpt>
      <trkpt lat="46.082853" lon="9.094482">
        <ele>1405.590</ele>
        <time>2020-08-21T15:24:35Z</time>
      </trkpt>
      <trkpt lat="46.082859" lon="9.094470">
        <ele>1405.538</ele>
        <time>2020-08-21T15:24:36Z</time>
      </trkpt>
      <trkpt lat="46.082867" lon="9.094438">
        <ele>1406.015</ele>
        <time>2020-08-21T15:24:38Z</time>
      </trkpt>
      <trkpt lat="46.082871" lon="9.094420">
        <ele>1406.043</ele>
        <time>2020-08-21T15:24:39Z</time>
      </trkpt>
      <trkpt lat="46.082887" lon="9.094171">
        <ele>1407.964</ele>
        <time>2020-08-21T15:24:55Z</time>
      </trkpt>
      <trkpt lat="46.082903" lon="9.094045">
        <ele>1408.910</ele>
        <time>2020-08-21T15:25:03Z</time>
      </trkpt>
      <trkpt lat="46.082901" lon="9.094029">
        <ele>1409.408</ele>
        <time>2020-08-21T15:25:04Z</time>
      </trkpt>
      <trkpt lat="46.082902" lon="9.094016">
        <ele>1409.499</ele>
        <time>2020-08-21T15:25:05Z</time>
      </trkpt>
      <trkpt lat="46.082903" lon="9.094001">
        <ele>1409.989</ele>
        <time>2020-08-21T15:25:06Z</time>
      </trkpt>
      <trkpt lat="46.082904" lon="9.093987">
        <ele>1409.928</ele>
        <time>2020-08-21T15:25:07Z</time>
      </trkpt>
      <trkpt lat="46.082873" lon="9.093722">
        <ele>1411.318</ele>
        <time>2020-08-21T15:25:20Z</time>
      </trkpt>
      <trkpt lat="46.082810" lon="9.093432">
        <ele>1413.265</ele>
        <time>2020-08-21T15:25:37Z</time>
      </trkpt>
      <trkpt lat="46.082792" lon="9.093327">
        <ele>1414.737</ele>
        <time>2020-08-21T15:25:44Z</time>
      </trkpt>
      <trkpt lat="46.082793" lon="9.093308">
        <ele>1414.735</ele>
        <time>2020-08-21T15:25:45Z</time>
      </trkpt>
      <trkpt lat="46.082791" lon="9.093287">
        <ele>1415.232</ele>
        <time>2020-08-21T15:25:46Z</time>
      </trkpt>
      <trkpt lat="46.082764" lon="9.092996">
        <ele>1418.062</ele>
        <time>2020-08-21T15:26:03Z</time>
      </trkpt>
      <trkpt lat="46.082766" lon="9.092804">
        <ele>1420.483</ele>
        <time>2020-08-21T15:26:16Z</time>
      </trkpt>
      <trkpt lat="46.082759" lon="9.092791">
        <ele>1420.911</ele>
        <time>2020-08-21T15:26:17Z</time>
      </trkpt>
      <trkpt lat="46.082682" lon="9.092515">
        <ele>1421.908</ele>
        <time>2020-08-21T15:26:30Z</time>
      </trkpt>
      <trkpt lat="46.082685" lon="9.092207">
        <ele>1425.211</ele>
        <time>2020-08-21T15:26:43Z</time>
      </trkpt>
      <trkpt lat="46.082711" lon="9.092040">
        <ele>1427.241</ele>
        <time>2020-08-21T15:26:52Z</time>
      </trkpt>
      <trkpt lat="46.082711" lon="9.092015">
        <ele>1427.250</ele>
        <time>2020-08-21T15:26:53Z</time>
      </trkpt>
      <trkpt lat="46.082711" lon="9.091992">
        <ele>1427.270</ele>
        <time>2020-08-21T15:26:54Z</time>
      </trkpt>
      <trkpt lat="46.082715" lon="9.091972">
        <ele>1427.767</ele>
        <time>2020-08-21T15:26:55Z</time>
      </trkpt>
      <trkpt lat="46.082719" lon="9.091954">
        <ele>1428.189</ele>
        <time>2020-08-21T15:26:56Z</time>
      </trkpt>
      <trkpt lat="46.082723" lon="9.091933">
        <ele>1428.177</ele>
        <time>2020-08-21T15:26:57Z</time>
      </trkpt>
      <trkpt lat="46.082726" lon="9.091916">
        <ele>1428.634</ele>
        <time>2020-08-21T15:26:58Z</time>
      </trkpt>
      <trkpt lat="46.082729" lon="9.091896">
        <ele>1428.626</ele>
        <time>2020-08-21T15:26:59Z</time>
      </trkpt>
      <trkpt lat="46.082732" lon="9.091877">
        <ele>1428.647</ele>
        <time>2020-08-21T15:27:00Z</time>
      </trkpt>
      <trkpt lat="46.082734" lon="9.091860">
        <ele>1428.611</ele>
        <time>2020-08-21T15:27:01Z</time>
      </trkpt>
      <trkpt lat="46.082733" lon="9.091840">
        <ele>1429.108</ele>
        <time>2020-08-21T15:27:02Z</time>
      </trkpt>
      <trkpt lat="46.082732" lon="9.091818">
        <ele>1429.167</ele>
        <time>2020-08-21T15:27:03Z</time>
      </trkpt>
      <trkpt lat="46.082750" lon="9.091463">
        <ele>1431.527</ele>
        <time>2020-08-21T15:27:21Z</time>
      </trkpt>
      <trkpt lat="46.082818" lon="9.091129">
        <ele>1433.966</ele>
        <time>2020-08-21T15:27:38Z</time>
      </trkpt>
      <trkpt lat="46.082819" lon="9.091096">
        <ele>1434.956</ele>
        <time>2020-08-21T15:27:40Z</time>
      </trkpt>
      <trkpt lat="46.082873" lon="9.090871">
        <ele>1437.393</ele>
        <time>2020-08-21T15:27:55Z</time>
      </trkpt>
      <trkpt lat="46.082910" lon="9.090665">
        <ele>1440.125</ele>
        <time>2020-08-21T15:28:09Z</time>
      </trkpt>
      <trkpt lat="46.082906" lon="9.090594">
        <ele>1441.123</ele>
        <time>2020-08-21T15:28:14Z</time>
      </trkpt>
      <trkpt lat="46.082913" lon="9.090457">
        <ele>1442.140</ele>
        <time>2020-08-21T15:28:21Z</time>
      </trkpt>
      <trkpt lat="46.082910" lon="9.090442">
        <ele>1442.191</ele>
        <time>2020-08-21T15:28:22Z</time>
      </trkpt>
      <trkpt lat="46.082888" lon="9.090243">
        <ele>1443.081</ele>
        <time>2020-08-21T15:28:33Z</time>
      </trkpt>
      <trkpt lat="46.082864" lon="9.090129">
        <ele>1445.019</ele>
        <time>2020-08-21T15:28:39Z</time>
      </trkpt>
      <trkpt lat="46.082863" lon="9.090106">
        <ele>1445.008</ele>
        <time>2020-08-21T15:28:40Z</time>
      </trkpt>
      <trkpt lat="46.082860" lon="9.090066">
        <ele>1445.454</ele>
        <time>2020-08-21T15:28:42Z</time>
      </trkpt>
      <trkpt lat="46.082837" lon="9.090007">
        <ele>1445.984</ele>
        <time>2020-08-21T15:28:45Z</time>
      </trkpt>
      <trkpt lat="46.082826" lon="9.089989">
        <ele>1445.963</ele>
        <time>2020-08-21T15:28:46Z</time>
      </trkpt>
      <trkpt lat="46.082819" lon="9.089965">
        <ele>1445.943</ele>
        <time>2020-08-21T15:28:47Z</time>
      </trkpt>
      <trkpt lat="46.082645" lon="9.089611">
        <ele>1447.810</ele>
        <time>2020-08-21T15:29:03Z</time>
      </trkpt>
      <trkpt lat="46.082459" lon="9.089328">
        <ele>1449.812</ele>
        <time>2020-08-21T15:29:16Z</time>
      </trkpt>
      <trkpt lat="46.082329" lon="9.089002">
        <ele>1451.280</ele>
        <time>2020-08-21T15:29:28Z</time>
      </trkpt>
      <trkpt lat="46.082174" lon="9.088728">
        <ele>1453.187</ele>
        <time>2020-08-21T15:29:41Z</time>
      </trkpt>
      <trkpt lat="46.082009" lon="9.088491">
        <ele>1456.565</ele>
        <time>2020-08-21T15:29:56Z</time>
      </trkpt>
      <trkpt lat="46.081934" lon="9.088385">
        <ele>1458.468</ele>
        <time>2020-08-21T15:30:03Z</time>
      </trkpt>
      <trkpt lat="46.081922" lon="9.088373">
        <ele>1458.414</ele>
        <time>2020-08-21T15:30:04Z</time>
      </trkpt>
      <trkpt lat="46.081912" lon="9.088359">
        <ele>1458.408</ele>
        <time>2020-08-21T15:30:05Z</time>
      </trkpt>
      <trkpt lat="46.081903" lon="9.088344">
        <ele>1458.491</ele>
        <time>2020-08-21T15:30:06Z</time>
      </trkpt>
      <trkpt lat="46.081896" lon="9.088328">
        <ele>1458.431</ele>
        <time>2020-08-21T15:30:07Z</time>
      </trkpt>
      <trkpt lat="46.081891" lon="9.088313">
        <ele>1458.970</ele>
        <time>2020-08-21T15:30:08Z</time>
      </trkpt>
      <trkpt lat="46.081862" lon="9.088244">
        <ele>1459.920</ele>
        <time>2020-08-21T15:30:13Z</time>
      </trkpt>
      <trkpt lat="46.081857" lon="9.088227">
        <ele>1460.347</ele>
        <time>2020-08-21T15:30:14Z</time>
      </trkpt>
      <trkpt lat="46.081860" lon="9.088211">
        <ele>1459.939</ele>
        <time>2020-08-21T15:30:15Z</time>
      </trkpt>
      <trkpt lat="46.081869" lon="9.088196">
        <ele>1459.987</ele>
        <time>2020-08-21T15:30:16Z</time>
      </trkpt>
      <trkpt lat="46.081884" lon="9.088189">
        <ele>1459.964</ele>
        <time>2020-08-21T15:30:17Z</time>
      </trkpt>
      <trkpt lat="46.081896" lon="9.088190">
        <ele>1460.325</ele>
        <time>2020-08-21T15:30:18Z</time>
      </trkpt>
      <trkpt lat="46.081911" lon="9.088194">
        <ele>1460.326</ele>
        <time>2020-08-21T15:30:19Z</time>
      </trkpt>
      <trkpt lat="46.081925" lon="9.088199">
        <ele>1460.308</ele>
        <time>2020-08-21T15:30:20Z</time>
      </trkpt>
      <trkpt lat="46.081938" lon="9.088203">
        <ele>1460.808</ele>
        <time>2020-08-21T15:30:21Z</time>
      </trkpt>
      <trkpt lat="46.081948" lon="9.088214">
        <ele>1460.877</ele>
        <time>2020-08-21T15:30:22Z</time>
      </trkpt>
      <trkpt lat="46.081956" lon="9.088225">
        <ele>1460.857</ele>
        <time>2020-08-21T15:30:23Z</time>
      </trkpt>
      <trkpt lat="46.081966" lon="9.088234">
        <ele>1460.846</ele>
        <time>2020-08-21T15:30:24Z</time>
      </trkpt>
      <trkpt lat="46.081977" lon="9.088242">
        <ele>1461.866</ele>
        <time>2020-08-21T15:30:25Z</time>
      </trkpt>
      <trkpt lat="46.082201" lon="9.088401">
        <ele>1463.233</ele>
        <time>2020-08-21T15:30:41Z</time>
      </trkpt>
      <trkpt lat="46.082274" lon="9.088452">
        <ele>1464.245</ele>
        <time>2020-08-21T15:30:47Z</time>
      </trkpt>
      <trkpt lat="46.082286" lon="9.088466">
        <ele>1464.713</ele>
        <time>2020-08-21T15:30:48Z</time>
      </trkpt>
      <trkpt lat="46.082299" lon="9.088478">
        <ele>1464.730</ele>
        <time>2020-08-21T15:30:49Z</time>
      </trkpt>
      <trkpt lat="46.082312" lon="9.088489">
        <ele>1464.751</ele>
        <time>2020-08-21T15:30:50Z</time>
      </trkpt>
      <trkpt lat="46.082323" lon="9.088501">
        <ele>1465.101</ele>
        <time>2020-08-21T15:30:51Z</time>
      </trkpt>
      <trkpt lat="46.082331" lon="9.088515">
        <ele>1465.111</ele>
        <time>2020-08-21T15:30:52Z</time>
      </trkpt>
      <trkpt lat="46.082493" lon="9.088715">
        <ele>1468.008</ele>
        <time>2020-08-21T15:31:07Z</time>
      </trkpt>
      <trkpt lat="46.082639" lon="9.088872">
        <ele>1470.460</ele>
        <time>2020-08-21T15:31:22Z</time>
      </trkpt>
      <trkpt lat="46.082696" lon="9.088892">
        <ele>1471.460</ele>
        <time>2020-08-21T15:31:27Z</time>
      </trkpt>
      <trkpt lat="46.082701" lon="9.088910">
        <ele>1472.439</ele>
        <time>2020-08-21T15:31:28Z</time>
      </trkpt>
      <trkpt lat="46.082707" lon="9.088930">
        <ele>1472.419</ele>
        <time>2020-08-21T15:31:29Z</time>
      </trkpt>
      <trkpt lat="46.082715" lon="9.088952">
        <ele>1472.426</ele>
        <time>2020-08-21T15:31:30Z</time>
      </trkpt>
      <trkpt lat="46.082726" lon="9.088969">
        <ele>1472.478</ele>
        <time>2020-08-21T15:31:31Z</time>
      </trkpt>
      <trkpt lat="46.082736" lon="9.088984">
        <ele>1472.436</ele>
        <time>2020-08-21T15:31:32Z</time>
      </trkpt>
      <trkpt lat="46.082747" lon="9.088998">
        <ele>1472.813</ele>
        <time>2020-08-21T15:31:33Z</time>
      </trkpt>
      <trkpt lat="46.082759" lon="9.089012">
        <ele>1472.837</ele>
        <time>2020-08-21T15:31:34Z</time>
      </trkpt>
      <trkpt lat="46.082771" lon="9.089025">
        <ele>1472.849</ele>
        <time>2020-08-21T15:31:35Z</time>
      </trkpt>
      <trkpt lat="46.082783" lon="9.089031">
        <ele>1473.313</ele>
        <time>2020-08-21T15:31:36Z</time>
      </trkpt>
      <trkpt lat="46.082794" lon="9.089036">
        <ele>1473.308</ele>
        <time>2020-08-21T15:31:37Z</time>
      </trkpt>
      <trkpt lat="46.082802" lon="9.089046">
        <ele>1473.348</ele>
        <time>2020-08-21T15:31:38Z</time>
      </trkpt>
      <trkpt lat="46.082809" lon="9.089060">
        <ele>1473.388</ele>
        <time>2020-08-21T15:31:39Z</time>
      </trkpt>
      <trkpt lat="46.082818" lon="9.089072">
        <ele>1473.347</ele>
        <time>2020-08-21T15:31:40Z</time>
      </trkpt>
      <trkpt lat="46.082828" lon="9.089081">
        <ele>1473.817</ele>
        <time>2020-08-21T15:31:41Z</time>
      </trkpt>
      <trkpt lat="46.082840" lon="9.089090">
        <ele>1473.884</ele>
        <time>2020-08-21T15:31:42Z</time>
      </trkpt>
      <trkpt lat="46.082939" lon="9.089136">
        <ele>1474.846</ele>
        <time>2020-08-21T15:31:51Z</time>
      </trkpt>
      <trkpt lat="46.082952" lon="9.089140">
        <ele>1475.754</ele>
        <time>2020-08-21T15:31:52Z</time>
      </trkpt>
      <trkpt lat="46.082962" lon="9.089146">
        <ele>1475.751</ele>
        <time>2020-08-21T15:31:53Z</time>
      </trkpt>
      <trkpt lat="46.083080" lon="9.089273">
        <ele>1477.617</ele>
        <time>2020-08-21T15:32:05Z</time>
      </trkpt>
      <trkpt lat="46.083087" lon="9.089291">
        <ele>1478.687</ele>
        <time>2020-08-21T15:32:06Z</time>
      </trkpt>
      <trkpt lat="46.083236" lon="9.089411">
        <ele>1480.515</ele>
        <time>2020-08-21T15:32:20Z</time>
      </trkpt>
      <trkpt lat="46.083397" lon="9.089627">
        <ele>1482.908</ele>
        <time>2020-08-21T15:32:35Z</time>
      </trkpt>
      <trkpt lat="46.083535" lon="9.089807">
        <ele>1485.836</ele>
        <time>2020-08-21T15:32:49Z</time>
      </trkpt>
      <trkpt lat="46.083599" lon="9.089859">
        <ele>1487.746</ele>
        <time>2020-08-21T15:32:57Z</time>
      </trkpt>
      <trkpt lat="46.083604" lon="9.089875">
        <ele>1487.725</ele>
        <time>2020-08-21T15:32:58Z</time>
      </trkpt>
      <trkpt lat="46.083610" lon="9.089895">
        <ele>1487.715</ele>
        <time>2020-08-21T15:32:59Z</time>
      </trkpt>
      <trkpt lat="46.083615" lon="9.089910">
        <ele>1487.722</ele>
        <time>2020-08-21T15:33:00Z</time>
      </trkpt>
      <trkpt lat="46.083623" lon="9.089925">
        <ele>1488.794</ele>
        <time>2020-08-21T15:33:01Z</time>
      </trkpt>
      <trkpt lat="46.083630" lon="9.089938">
        <ele>1488.772</ele>
        <time>2020-08-21T15:33:02Z</time>
      </trkpt>
      <trkpt lat="46.083731" lon="9.090071">
        <ele>1489.799</ele>
        <time>2020-08-21T15:33:13Z</time>
      </trkpt>
      <trkpt lat="46.083738" lon="9.090087">
        <ele>1490.133</ele>
        <time>2020-08-21T15:33:14Z</time>
      </trkpt>
      <trkpt lat="46.083744" lon="9.090101">
        <ele>1490.123</ele>
        <time>2020-08-21T15:33:15Z</time>
      </trkpt>
      <trkpt lat="46.083871" lon="9.090275">
        <ele>1493.515</ele>
        <time>2020-08-21T15:33:32Z</time>
      </trkpt>
      <trkpt lat="46.083941" lon="9.090332">
        <ele>1494.508</ele>
        <time>2020-08-21T15:33:40Z</time>
      </trkpt>
      <trkpt lat="46.083950" lon="9.090341">
        <ele>1494.538</ele>
        <time>2020-08-21T15:33:41Z</time>
      </trkpt>
      <trkpt lat="46.083959" lon="9.090350">
        <ele>1494.528</ele>
        <time>2020-08-21T15:33:42Z</time>
      </trkpt>
      <trkpt lat="46.084007" lon="9.090405">
        <ele>1495.417</ele>
        <time>2020-08-21T15:33:48Z</time>
      </trkpt>
      <trkpt lat="46.084022" lon="9.090411">
        <ele>1495.427</ele>
        <time>2020-08-21T15:33:49Z</time>
      </trkpt>
      <trkpt lat="46.084049" lon="9.090426">
        <ele>1495.944</ele>
        <time>2020-08-21T15:33:52Z</time>
      </trkpt>
      <trkpt lat="46.084059" lon="9.090433">
        <ele>1495.976</ele>
        <time>2020-08-21T15:33:53Z</time>
      </trkpt>
      <trkpt lat="46.084069" lon="9.090438">
        <ele>1495.964</ele>
        <time>2020-08-21T15:33:54Z</time>
      </trkpt>
      <trkpt lat="46.084083" lon="9.090440">
        <ele>1496.421</ele>
        <time>2020-08-21T15:33:55Z</time>
      </trkpt>
      <trkpt lat="46.084095" lon="9.090440">
        <ele>1496.476</ele>
        <time>2020-08-21T15:33:56Z</time>
      </trkpt>
      <trkpt lat="46.084107" lon="9.090440">
        <ele>1496.490</ele>
        <time>2020-08-21T15:33:57Z</time>
      </trkpt>
      <trkpt lat="46.084117" lon="9.090437">
        <ele>1496.419</ele>
        <time>2020-08-21T15:33:58Z</time>
      </trkpt>
      <trkpt lat="46.084146" lon="9.090435">
        <ele>1497.308</ele>
        <time>2020-08-21T15:34:01Z</time>
      </trkpt>
      <trkpt lat="46.084266" lon="9.090537">
        <ele>1499.342</ele>
        <time>2020-08-21T15:34:14Z</time>
      </trkpt>
      <trkpt lat="46.084417" lon="9.090618">
        <ele>1500.742</ele>
        <time>2020-08-21T15:34:29Z</time>
      </trkpt>
      <trkpt lat="46.084484" lon="9.090633">
        <ele>1502.691</ele>
        <time>2020-08-21T15:34:35Z</time>
      </trkpt>
      <trkpt lat="46.084496" lon="9.090644">
        <ele>1502.651</ele>
        <time>2020-08-21T15:34:36Z</time>
      </trkpt>
      <trkpt lat="46.084508" lon="9.090651">
        <ele>1503.198</ele>
        <time>2020-08-21T15:34:37Z</time>
      </trkpt>
      <trkpt lat="46.084519" lon="9.090662">
        <ele>1503.110</ele>
        <time>2020-08-21T15:34:38Z</time>
      </trkpt>
      <trkpt lat="46.084528" lon="9.090675">
        <ele>1503.198</ele>
        <time>2020-08-21T15:34:39Z</time>
      </trkpt>
      <trkpt lat="46.084576" lon="9.090739">
        <ele>1504.155</ele>
        <time>2020-08-21T15:34:45Z</time>
      </trkpt>
      <trkpt lat="46.084583" lon="9.090751">
        <ele>1504.189</ele>
        <time>2020-08-21T15:34:46Z</time>
      </trkpt>
      <trkpt lat="46.084591" lon="9.090764">
        <ele>1504.606</ele>
        <time>2020-08-21T15:34:47Z</time>
      </trkpt>
      <trkpt lat="46.084601" lon="9.090775">
        <ele>1504.626</ele>
        <time>2020-08-21T15:34:48Z</time>
      </trkpt>
      <trkpt lat="46.084610" lon="9.090782">
        <ele>1505.008</ele>
        <time>2020-08-21T15:34:49Z</time>
      </trkpt>
      <trkpt lat="46.084697" lon="9.090837">
        <ele>1506.073</ele>
        <time>2020-08-21T15:34:58Z</time>
      </trkpt>
      <trkpt lat="46.084708" lon="9.090840">
        <ele>1506.543</ele>
        <time>2020-08-21T15:34:59Z</time>
      </trkpt>
      <trkpt lat="46.084719" lon="9.090843">
        <ele>1506.542</ele>
        <time>2020-08-21T15:35:00Z</time>
      </trkpt>
      <trkpt lat="46.084733" lon="9.090859">
        <ele>1507.412</ele>
        <time>2020-08-21T15:35:02Z</time>
      </trkpt>
      <trkpt lat="46.084760" lon="9.090890">
        <ele>1507.459</ele>
        <time>2020-08-21T15:35:05Z</time>
      </trkpt>
      <trkpt lat="46.084772" lon="9.090902">
        <ele>1507.941</ele>
        <time>2020-08-21T15:35:06Z</time>
      </trkpt>
      <trkpt lat="46.084869" lon="9.090976">
        <ele>1509.449</ele>
        <time>2020-08-21T15:35:16Z</time>
      </trkpt>
      <trkpt lat="46.084952" lon="9.091019">
        <ele>1510.846</ele>
        <time>2020-08-21T15:35:29Z</time>
      </trkpt>
      <trkpt lat="46.084953" lon="9.091026">
        <ele>1511.394</ele>
        <time>2020-08-21T15:36:03Z</time>
      </trkpt>
      <trkpt lat="46.084981" lon="9.091034">
        <ele>1511.857</ele>
        <time>2020-08-21T15:36:14Z</time>
      </trkpt>
      <trkpt lat="46.084997" lon="9.091040">
        <ele>1511.822</ele>
        <time>2020-08-21T15:36:35Z</time>
      </trkpt>
      <trkpt lat="46.085018" lon="9.091016">
        <ele>1511.808</ele>
        <time>2020-08-21T15:36:51Z</time>
      </trkpt>
      <trkpt lat="46.085030" lon="9.091005">
        <ele>1511.834</ele>
        <time>2020-08-21T15:36:52Z</time>
      </trkpt>
      <trkpt lat="46.085041" lon="9.090997">
        <ele>1511.834</ele>
        <time>2020-08-21T15:36:53Z</time>
      </trkpt>
      <trkpt lat="46.085055" lon="9.090990">
        <ele>1511.823</ele>
        <time>2020-08-21T15:36:54Z</time>
      </trkpt>
      <trkpt lat="46.085067" lon="9.090983">
        <ele>1511.833</ele>
        <time>2020-08-21T15:36:55Z</time>
      </trkpt>
      <trkpt lat="46.085079" lon="9.090977">
        <ele>1511.840</ele>
        <time>2020-08-21T15:36:56Z</time>
      </trkpt>
      <trkpt lat="46.085228" lon="9.090783">
        <ele>1515.162</ele>
        <time>2020-08-21T15:37:14Z</time>
      </trkpt>
      <trkpt lat="46.085330" lon="9.090611">
        <ele>1516.650</ele>
        <time>2020-08-21T15:37:30Z</time>
      </trkpt>
      <trkpt lat="46.085353" lon="9.090566">
        <ele>1517.517</ele>
        <time>2020-08-21T15:37:34Z</time>
      </trkpt>
      <trkpt lat="46.085359" lon="9.090556">
        <ele>1517.586</ele>
        <time>2020-08-21T15:37:35Z</time>
      </trkpt>
      <trkpt lat="46.085367" lon="9.090545">
        <ele>1518.060</ele>
        <time>2020-08-21T15:37:36Z</time>
      </trkpt>
      <trkpt lat="46.085373" lon="9.090533">
        <ele>1518.026</ele>
        <time>2020-08-21T15:37:37Z</time>
      </trkpt>
      <trkpt lat="46.085380" lon="9.090519">
        <ele>1518.508</ele>
        <time>2020-08-21T15:37:38Z</time>
      </trkpt>
      <trkpt lat="46.085389" lon="9.090493">
        <ele>1519.563</ele>
        <time>2020-08-21T15:37:40Z</time>
      </trkpt>
      <trkpt lat="46.085394" lon="9.090480">
        <ele>1519.543</ele>
        <time>2020-08-21T15:37:41Z</time>
      </trkpt>
      <trkpt lat="46.085409" lon="9.090454">
        <ele>1519.922</ele>
        <time>2020-08-21T15:37:43Z</time>
      </trkpt>
      <trkpt lat="46.085569" lon="9.090202">
        <ele>1522.842</ele>
        <time>2020-08-21T15:38:05Z</time>
      </trkpt>
      <trkpt lat="46.085677" lon="9.090103">
        <ele>1524.389</ele>
        <time>2020-08-21T15:38:18Z</time>
      </trkpt>
      <trkpt lat="46.085686" lon="9.090093">
        <ele>1524.321</ele>
        <time>2020-08-21T15:38:19Z</time>
      </trkpt>
      <trkpt lat="46.085694" lon="9.090083">
        <ele>1524.789</ele>
        <time>2020-08-21T15:38:20Z</time>
      </trkpt>
      <trkpt lat="46.085703" lon="9.090076">
        <ele>1524.786</ele>
        <time>2020-08-21T15:38:21Z</time>
      </trkpt>
      <trkpt lat="46.085714" lon="9.090069">
        <ele>1524.777</ele>
        <time>2020-08-21T15:38:22Z</time>
      </trkpt>
      <trkpt lat="46.085721" lon="9.090058">
        <ele>1524.761</ele>
        <time>2020-08-21T15:38:23Z</time>
      </trkpt>
      <trkpt lat="46.085728" lon="9.090045">
        <ele>1524.727</ele>
        <time>2020-08-21T15:38:24Z</time>
      </trkpt>
      <trkpt lat="46.085859" lon="9.089920">
        <ele>1526.708</ele>
        <time>2020-08-21T15:38:38Z</time>
      </trkpt>
      <trkpt lat="46.085870" lon="9.089918">
        <ele>1526.732</ele>
        <time>2020-08-21T15:38:39Z</time>
      </trkpt>
      <trkpt lat="46.085881" lon="9.089920">
        <ele>1526.762</ele>
        <time>2020-08-21T15:38:40Z</time>
      </trkpt>
      <trkpt lat="46.085893" lon="9.089923">
        <ele>1526.761</ele>
        <time>2020-08-21T15:38:41Z</time>
      </trkpt>
      <trkpt lat="46.085904" lon="9.089926">
        <ele>1526.771</ele>
        <time>2020-08-21T15:38:42Z</time>
      </trkpt>
      <trkpt lat="46.085940" lon="9.089940">
        <ele>1527.178</ele>
        <time>2020-08-21T15:38:46Z</time>
      </trkpt>
      <trkpt lat="46.085952" lon="9.089941">
        <ele>1527.120</ele>
        <time>2020-08-21T15:38:47Z</time>
      </trkpt>
      <trkpt lat="46.085964" lon="9.089944">
        <ele>1527.628</ele>
        <time>2020-08-21T15:38:48Z</time>
      </trkpt>
      <trkpt lat="46.085978" lon="9.089946">
        <ele>1527.615</ele>
        <time>2020-08-21T15:38:49Z</time>
      </trkpt>
      <trkpt lat="46.085991" lon="9.089951">
        <ele>1527.614</ele>
        <time>2020-08-21T15:38:50Z</time>
      </trkpt>
      <trkpt lat="46.086129" lon="9.089938">
        <ele>1528.154</ele>
        <time>2020-08-21T15:39:00Z</time>
      </trkpt>
      <trkpt lat="46.086143" lon="9.089923">
        <ele>1528.109</ele>
        <time>2020-08-21T15:39:01Z</time>
      </trkpt>
      <trkpt lat="46.086155" lon="9.089914">
        <ele>1528.608</ele>
        <time>2020-08-21T15:39:02Z</time>
      </trkpt>
      <trkpt lat="46.086168" lon="9.089894">
        <ele>1528.146</ele>
        <time>2020-08-21T15:39:03Z</time>
      </trkpt>
      <trkpt lat="46.086173" lon="9.089885">
        <ele>1528.156</ele>
        <time>2020-08-21T15:39:04Z</time>
      </trkpt>
      <trkpt lat="46.086167" lon="9.089610">
        <ele>1530.575</ele>
        <time>2020-08-21T15:39:21Z</time>
      </trkpt>
      <trkpt lat="46.086146" lon="9.089551">
        <ele>1531.045</ele>
        <time>2020-08-21T15:39:25Z</time>
      </trkpt>
      <trkpt lat="46.086139" lon="9.089522">
        <ele>1531.042</ele>
        <time>2020-08-21T15:39:27Z</time>
      </trkpt>
      <trkpt lat="46.086130" lon="9.089496">
        <ele>1531.064</ele>
        <time>2020-08-21T15:39:29Z</time>
      </trkpt>
      <trkpt lat="46.086127" lon="9.089478">
        <ele>1531.032</ele>
        <time>2020-08-21T15:39:30Z</time>
      </trkpt>
      <trkpt lat="46.086122" lon="9.089453">
        <ele>1531.059</ele>
        <time>2020-08-21T15:39:31Z</time>
      </trkpt>
      <trkpt lat="46.086121" lon="9.089436">
        <ele>1531.018</ele>
        <time>2020-08-21T15:39:32Z</time>
      </trkpt>
      <trkpt lat="46.086121" lon="9.089415">
        <ele>1531.098</ele>
        <time>2020-08-21T15:39:33Z</time>
      </trkpt>
      <trkpt lat="46.086111" lon="9.089396">
        <ele>1531.017</ele>
        <time>2020-08-21T15:39:34Z</time>
      </trkpt>
      <trkpt lat="46.086102" lon="9.089386">
        <ele>1531.008</ele>
        <time>2020-08-21T15:39:35Z</time>
      </trkpt>
      <trkpt lat="46.086091" lon="9.089374">
        <ele>1531.076</ele>
        <time>2020-08-21T15:39:36Z</time>
      </trkpt>
      <trkpt lat="46.086080" lon="9.089367">
        <ele>1531.036</ele>
        <time>2020-08-21T15:39:37Z</time>
      </trkpt>
      <trkpt lat="46.086065" lon="9.089369">
        <ele>1531.025</ele>
        <time>2020-08-21T15:39:38Z</time>
      </trkpt>
      <trkpt lat="46.086052" lon="9.089378">
        <ele>1531.045</ele>
        <time>2020-08-21T15:39:39Z</time>
      </trkpt>
      <trkpt lat="46.086031" lon="9.089395">
        <ele>1530.052</ele>
        <time>2020-08-21T15:39:41Z</time>
      </trkpt>
      <trkpt lat="46.086018" lon="9.089428">
        <ele>1530.024</ele>
        <time>2020-08-21T15:39:53Z</time>
      </trkpt>
      <trkpt lat="46.086017" lon="9.089420">
        <ele>1529.542</ele>
        <time>2020-08-21T15:40:21Z</time>
      </trkpt>
      <trkpt lat="46.086016" lon="9.089421">
        <ele>1530.039</ele>
        <time>2020-08-21T15:41:00Z</time>
      </trkpt>
      <trkpt lat="46.086034" lon="9.089398">
        <ele>1530.039</ele>
        <time>2020-08-21T15:41:13Z</time>
      </trkpt>
      <trkpt lat="46.086062" lon="9.089400">
        <ele>1530.001</ele>
        <time>2020-08-21T15:41:16Z</time>
      </trkpt>
      <trkpt lat="46.086076" lon="9.089412">
        <ele>1530.021</ele>
        <time>2020-08-21T15:41:17Z</time>
      </trkpt>
      <trkpt lat="46.086151" lon="9.089560">
        <ele>1531.508</ele>
        <time>2020-08-21T15:41:26Z</time>
      </trkpt>
      <trkpt lat="46.086198" lon="9.089669">
        <ele>1530.598</ele>
        <time>2020-08-21T15:41:30Z</time>
      </trkpt>
      <trkpt lat="46.086229" lon="9.089679">
        <ele>1530.568</ele>
        <time>2020-08-21T15:41:31Z</time>
      </trkpt>
      <trkpt lat="46.086246" lon="9.089676">
        <ele>1530.547</ele>
        <time>2020-08-21T15:41:32Z</time>
      </trkpt>
      <trkpt lat="46.086262" lon="9.089668">
        <ele>1530.557</ele>
        <time>2020-08-21T15:41:33Z</time>
      </trkpt>
      <trkpt lat="46.086275" lon="9.089661">
        <ele>1530.544</ele>
        <time>2020-08-21T15:41:34Z</time>
      </trkpt>
      <trkpt lat="46.086363" lon="9.089678">
        <ele>1531.546</ele>
        <time>2020-08-21T15:41:42Z</time>
      </trkpt>
      <trkpt lat="46.086370" lon="9.089688">
        <ele>1531.544</ele>
        <time>2020-08-21T15:41:43Z</time>
      </trkpt>
      <trkpt lat="46.086378" lon="9.089696">
        <ele>1532.011</ele>
        <time>2020-08-21T15:41:44Z</time>
      </trkpt>
      <trkpt lat="46.086385" lon="9.089707">
        <ele>1532.078</ele>
        <time>2020-08-21T15:41:45Z</time>
      </trkpt>
      <trkpt lat="46.086425" lon="9.089746">
        <ele>1532.433</ele>
        <time>2020-08-21T15:41:50Z</time>
      </trkpt>
      <trkpt lat="46.086568" lon="9.089804">
        <ele>1534.426</ele>
        <time>2020-08-21T15:42:05Z</time>
      </trkpt>
      <trkpt lat="46.086579" lon="9.089809">
        <ele>1534.808</ele>
        <time>2020-08-21T15:42:06Z</time>
      </trkpt>
      <trkpt lat="46.086594" lon="9.089819">
        <ele>1534.892</ele>
        <time>2020-08-21T15:42:08Z</time>
      </trkpt>
      <trkpt lat="46.086696" lon="9.089801">
        <ele>1536.862</ele>
        <time>2020-08-21T15:42:20Z</time>
      </trkpt>
      <trkpt lat="46.086705" lon="9.089730">
        <ele>1538.231</ele>
        <time>2020-08-21T15:42:26Z</time>
      </trkpt>
      <trkpt lat="46.086761" lon="9.089661">
        <ele>1539.251</ele>
        <time>2020-08-21T15:42:37Z</time>
      </trkpt>
      <trkpt lat="46.086773" lon="9.089671">
        <ele>1539.248</ele>
        <time>2020-08-21T15:42:38Z</time>
      </trkpt>
      <trkpt lat="46.086781" lon="9.089677">
        <ele>1539.650</ele>
        <time>2020-08-21T15:42:39Z</time>
      </trkpt>
      <trkpt lat="46.086860" lon="9.089692">
        <ele>1541.178</ele>
        <time>2020-08-21T15:42:50Z</time>
      </trkpt>
      <trkpt lat="46.086864" lon="9.089707">
        <ele>1541.155</ele>
        <time>2020-08-21T15:42:51Z</time>
      </trkpt>
      <trkpt lat="46.086872" lon="9.089749">
        <ele>1541.651</ele>
        <time>2020-08-21T15:43:01Z</time>
      </trkpt>
      <trkpt lat="46.086861" lon="9.089746">
        <ele>1540.101</ele>
        <time>2020-08-21T15:43:14Z</time>
      </trkpt>
      <trkpt lat="46.086833" lon="9.089682">
        <ele>1507.911</ele>
        <time>2020-08-22T06:19:36Z</time>
      </trkpt>
      <trkpt lat="46.086832" lon="9.089685">
        <ele>1507.908</ele>
        <time>2020-08-22T06:19:37Z</time>
      </trkpt>
      <trkpt lat="46.086920" lon="9.089710">
        <ele>1555.510</ele>
        <time>2020-08-22T06:20:07Z</time>
      </trkpt>
      <trkpt lat="46.086921" lon="9.089710">
        <ele>1556.510</ele>
        <time>2020-08-22T06:20:10Z</time>
      </trkpt>
      <trkpt lat="46.086870" lon="9.089739">
        <ele>1555.059</ele>
        <time>2020-08-22T06:20:28Z</time>
      </trkpt>
      <trkpt lat="46.086866" lon="9.089735">
        <ele>1555.039</ele>
        <time>2020-08-22T06:20:29Z</time>
      </trkpt>
      <trkpt lat="46.086815" lon="9.089730">
        <ele>1555.046</ele>
        <time>2020-08-22T06:20:32Z</time>
      </trkpt>
      <trkpt lat="46.086776" lon="9.089710">
        <ele>1553.698</ele>
        <time>2020-08-22T06:20:34Z</time>
      </trkpt>
      <trkpt lat="46.086720" lon="9.089712">
        <ele>1552.646</ele>
        <time>2020-08-22T06:20:37Z</time>
      </trkpt>
      <trkpt lat="46.086701" lon="9.089742">
        <ele>1551.763</ele>
        <time>2020-08-22T06:20:40Z</time>
      </trkpt>
      <trkpt lat="46.086697" lon="9.089762">
        <ele>1551.785</ele>
        <time>2020-08-22T06:20:41Z</time>
      </trkpt>
      <trkpt lat="46.086697" lon="9.089790">
        <ele>1551.289</ele>
        <time>2020-08-22T06:20:43Z</time>
      </trkpt>
      <trkpt lat="46.086704" lon="9.089811">
        <ele>1551.217</ele>
        <time>2020-08-22T06:20:44Z</time>
      </trkpt>
      <trkpt lat="46.086713" lon="9.089833">
        <ele>1551.208</ele>
        <time>2020-08-22T06:20:45Z</time>
      </trkpt>
      <trkpt lat="46.086720" lon="9.089843">
        <ele>1551.263</ele>
        <time>2020-08-22T06:20:46Z</time>
      </trkpt>
      <trkpt lat="46.086730" lon="9.089852">
        <ele>1551.243</ele>
        <time>2020-08-22T06:20:47Z</time>
      </trkpt>
      <trkpt lat="46.086744" lon="9.089856">
        <ele>1551.212</ele>
        <time>2020-08-22T06:20:48Z</time>
      </trkpt>
      <trkpt lat="46.086760" lon="9.089862">
        <ele>1551.282</ele>
        <time>2020-08-22T06:20:49Z</time>
      </trkpt>
      <trkpt lat="46.086884" lon="9.089937">
        <ele>1551.299</ele>
        <time>2020-08-22T06:20:58Z</time>
      </trkpt>
      <trkpt lat="46.086898" lon="9.089941">
        <ele>1551.211</ele>
        <time>2020-08-22T06:20:59Z</time>
      </trkpt>
      <trkpt lat="46.086912" lon="9.089946">
        <ele>1551.289</ele>
        <time>2020-08-22T06:21:00Z</time>
      </trkpt>
      <trkpt lat="46.086926" lon="9.089953">
        <ele>1551.216</ele>
        <time>2020-08-22T06:21:01Z</time>
      </trkpt>
      <trkpt lat="46.086941" lon="9.089963">
        <ele>1551.232</ele>
        <time>2020-08-22T06:21:02Z</time>
      </trkpt>
      <trkpt lat="46.087148" lon="9.089986">
        <ele>1553.192</ele>
        <time>2020-08-22T06:21:18Z</time>
      </trkpt>
      <trkpt lat="46.087182" lon="9.089997">
        <ele>1553.111</ele>
        <time>2020-08-22T06:21:21Z</time>
      </trkpt>
      <trkpt lat="46.087193" lon="9.089998">
        <ele>1554.108</ele>
        <time>2020-08-22T06:21:22Z</time>
      </trkpt>
      <trkpt lat="46.087204" lon="9.089999">
        <ele>1554.118</ele>
        <time>2020-08-22T06:21:23Z</time>
      </trkpt>
      <trkpt lat="46.087216" lon="9.089998">
        <ele>1554.118</ele>
        <time>2020-08-22T06:21:24Z</time>
      </trkpt>
      <trkpt lat="46.087227" lon="9.089995">
        <ele>1554.587</ele>
        <time>2020-08-22T06:21:25Z</time>
      </trkpt>
      <trkpt lat="46.087237" lon="9.089995">
        <ele>1554.527</ele>
        <time>2020-08-22T06:21:26Z</time>
      </trkpt>
      <trkpt lat="46.087304" lon="9.089977">
        <ele>1555.594</ele>
        <time>2020-08-22T06:21:32Z</time>
      </trkpt>
      <trkpt lat="46.087324" lon="9.089940">
        <ele>1555.576</ele>
        <time>2020-08-22T06:21:35Z</time>
      </trkpt>
      <trkpt lat="46.087326" lon="9.089922">
        <ele>1555.584</ele>
        <time>2020-08-22T06:21:36Z</time>
      </trkpt>
      <trkpt lat="46.087322" lon="9.089903">
        <ele>1556.531</ele>
        <time>2020-08-22T06:21:37Z</time>
      </trkpt>
      <trkpt lat="46.087319" lon="9.089886">
        <ele>1556.512</ele>
        <time>2020-08-22T06:21:38Z</time>
      </trkpt>
      <trkpt lat="46.087334" lon="9.089842">
        <ele>1556.532</ele>
        <time>2020-08-22T06:21:42Z</time>
      </trkpt>
      <trkpt lat="46.087334" lon="9.089826">
        <ele>1556.905</ele>
        <time>2020-08-22T06:21:52Z</time>
      </trkpt>
      <trkpt lat="46.087372" lon="9.089803">
        <ele>1556.908</ele>
        <time>2020-08-22T06:22:18Z</time>
      </trkpt>
      <trkpt lat="46.087517" lon="9.089783">
        <ele>1556.926</ele>
        <time>2020-08-22T06:22:29Z</time>
      </trkpt>
      <trkpt lat="46.087541" lon="9.089740">
        <ele>1556.996</ele>
        <time>2020-08-22T06:22:40Z</time>
      </trkpt>
      <trkpt lat="46.087557" lon="9.089727">
        <ele>1556.985</ele>
        <time>2020-08-22T06:22:45Z</time>
      </trkpt>
      <trkpt lat="46.087565" lon="9.089709">
        <ele>1556.975</ele>
        <time>2020-08-22T06:22:46Z</time>
      </trkpt>
      <trkpt lat="46.087566" lon="9.089684">
        <ele>1556.922</ele>
        <time>2020-08-22T06:22:47Z</time>
      </trkpt>
      <trkpt lat="46.087560" lon="9.089662">
        <ele>1556.974</ele>
        <time>2020-08-22T06:22:48Z</time>
      </trkpt>
      <trkpt lat="46.087551" lon="9.089640">
        <ele>1556.912</ele>
        <time>2020-08-22T06:22:49Z</time>
      </trkpt>
      <trkpt lat="46.087543" lon="9.089620">
        <ele>1556.949</ele>
        <time>2020-08-22T06:22:50Z</time>
      </trkpt>
      <trkpt lat="46.087539" lon="9.089600">
        <ele>1555.547</ele>
        <time>2020-08-22T06:22:51Z</time>
      </trkpt>
      <trkpt lat="46.087533" lon="9.089581">
        <ele>1555.529</ele>
        <time>2020-08-22T06:22:52Z</time>
      </trkpt>
      <trkpt lat="46.087522" lon="9.089562">
        <ele>1555.521</ele>
        <time>2020-08-22T06:22:53Z</time>
      </trkpt>
      <trkpt lat="46.087510" lon="9.089544">
        <ele>1555.508</ele>
        <time>2020-08-22T06:22:54Z</time>
      </trkpt>
      <trkpt lat="46.087409" lon="9.089380">
        <ele>1555.039</ele>
        <time>2020-08-22T06:23:07Z</time>
      </trkpt>
      <trkpt lat="46.087409" lon="9.089362">
        <ele>1555.039</ele>
        <time>2020-08-22T06:23:08Z</time>
      </trkpt>
      <trkpt lat="46.087549" lon="9.089028">
        <ele>1554.518</ele>
        <time>2020-08-22T06:23:22Z</time>
      </trkpt>
      <trkpt lat="46.087695" lon="9.088824">
        <ele>1553.628</ele>
        <time>2020-08-22T06:23:32Z</time>
      </trkpt>
      <trkpt lat="46.087946" lon="9.088647">
        <ele>1553.635</ele>
        <time>2020-08-22T06:23:45Z</time>
      </trkpt>
      <trkpt lat="46.088197" lon="9.088480">
        <ele>1551.737</ele>
        <time>2020-08-22T06:23:59Z</time>
      </trkpt>
      <trkpt lat="46.088521" lon="9.088195">
        <ele>1549.375</ele>
        <time>2020-08-22T06:24:13Z</time>
      </trkpt>
      <trkpt lat="46.088869" lon="9.088086">
        <ele>1547.892</ele>
        <time>2020-08-22T06:24:27Z</time>
      </trkpt>
      <trkpt lat="46.089132" lon="9.088108">
        <ele>1544.598</ele>
        <time>2020-08-22T06:24:37Z</time>
      </trkpt>
      <trkpt lat="46.089176" lon="9.088097">
        <ele>1544.015</ele>
        <time>2020-08-22T06:24:39Z</time>
      </trkpt>
      <trkpt lat="46.089183" lon="9.088079">
        <ele>1544.026</ele>
        <time>2020-08-22T06:24:40Z</time>
      </trkpt>
      <trkpt lat="46.089183" lon="9.088063">
        <ele>1544.008</ele>
        <time>2020-08-22T06:24:41Z</time>
      </trkpt>
      <trkpt lat="46.089183" lon="9.088043">
        <ele>1544.014</ele>
        <time>2020-08-22T06:24:42Z</time>
      </trkpt>
      <trkpt lat="46.089185" lon="9.088021">
        <ele>1544.044</ele>
        <time>2020-08-22T06:24:43Z</time>
      </trkpt>
      <trkpt lat="46.089227" lon="9.087911">
        <ele>1544.033</ele>
        <time>2020-08-22T06:24:48Z</time>
      </trkpt>
      <trkpt lat="46.089231" lon="9.087884">
        <ele>1544.063</ele>
        <time>2020-08-22T06:24:49Z</time>
      </trkpt>
      <trkpt lat="46.089229" lon="9.087857">
        <ele>1544.010</ele>
        <time>2020-08-22T06:24:50Z</time>
      </trkpt>
      <trkpt lat="46.089233" lon="9.087768">
        <ele>1544.082</ele>
        <time>2020-08-22T06:24:58Z</time>
      </trkpt>
      <trkpt lat="46.089261" lon="9.087495">
        <ele>1543.090</ele>
        <time>2020-08-22T06:25:04Z</time>
      </trkpt>
      <trkpt lat="46.089276" lon="9.087433">
        <ele>1543.077</ele>
        <time>2020-08-22T06:25:05Z</time>
      </trkpt>
      <trkpt lat="46.089426" lon="9.087086">
        <ele>1543.078</ele>
        <time>2020-08-22T06:25:17Z</time>
      </trkpt>
      <trkpt lat="46.089457" lon="9.087020">
        <ele>1544.533</ele>
        <time>2020-08-22T06:25:22Z</time>
      </trkpt>
      <trkpt lat="46.089468" lon="9.086941">
        <ele>1544.926</ele>
        <time>2020-08-22T06:25:33Z</time>
      </trkpt>
      <trkpt lat="46.089483" lon="9.086902">
        <ele>1545.408</ele>
        <time>2020-08-22T06:25:36Z</time>
      </trkpt>
      <trkpt lat="46.089492" lon="9.086890">
        <ele>1545.432</ele>
        <time>2020-08-22T06:25:37Z</time>
      </trkpt>
      <trkpt lat="46.089518" lon="9.086872">
        <ele>1546.432</ele>
        <time>2020-08-22T06:25:52Z</time>
      </trkpt>
      <trkpt lat="46.089552" lon="9.086833">
        <ele>1546.421</ele>
        <time>2020-08-22T06:26:21Z</time>
      </trkpt>
      <trkpt lat="46.089663" lon="9.086726">
        <ele>1547.841</ele>
        <time>2020-08-22T06:26:37Z</time>
      </trkpt>
      <trkpt lat="46.089902" lon="9.086545">
        <ele>1547.888</ele>
        <time>2020-08-22T06:26:48Z</time>
      </trkpt>
      <trkpt lat="46.090022" lon="9.086446">
        <ele>1547.870</ele>
        <time>2020-08-22T06:26:56Z</time>
      </trkpt>
      <trkpt lat="46.090145" lon="9.086252">
        <ele>1546.438</ele>
        <time>2020-08-22T06:27:05Z</time>
      </trkpt>
      <trkpt lat="46.090230" lon="9.086077">
        <ele>1543.565</ele>
        <time>2020-08-22T06:27:14Z</time>
      </trkpt>
      <trkpt lat="46.090453" lon="9.085924">
        <ele>1541.669</ele>
        <time>2020-08-22T06:27:24Z</time>
      </trkpt>
      <trkpt lat="46.090774" lon="9.085676">
        <ele>1539.204</ele>
        <time>2020-08-22T06:27:39Z</time>
      </trkpt>
      <trkpt lat="46.091020" lon="9.085451">
        <ele>1537.224</ele>
        <time>2020-08-22T06:27:52Z</time>
      </trkpt>
      <trkpt lat="46.091085" lon="9.085376">
        <ele>1536.308</ele>
        <time>2020-08-22T06:27:56Z</time>
      </trkpt>
      <trkpt lat="46.091099" lon="9.085367">
        <ele>1536.381</ele>
        <time>2020-08-22T06:27:57Z</time>
      </trkpt>
      <trkpt lat="46.091113" lon="9.085355">
        <ele>1535.321</ele>
        <time>2020-08-22T06:27:58Z</time>
      </trkpt>
      <trkpt lat="46.091126" lon="9.085337">
        <ele>1535.330</ele>
        <time>2020-08-22T06:27:59Z</time>
      </trkpt>
      <trkpt lat="46.091138" lon="9.085318">
        <ele>1534.860</ele>
        <time>2020-08-22T06:28:00Z</time>
      </trkpt>
      <trkpt lat="46.091149" lon="9.085295">
        <ele>1534.857</ele>
        <time>2020-08-22T06:28:01Z</time>
      </trkpt>
      <trkpt lat="46.091159" lon="9.085271">
        <ele>1534.879</ele>
        <time>2020-08-22T06:28:02Z</time>
      </trkpt>
      <trkpt lat="46.091304" lon="9.085077">
        <ele>1535.397</ele>
        <time>2020-08-22T06:28:13Z</time>
      </trkpt>
      <trkpt lat="46.091503" lon="9.084805">
        <ele>1535.884</ele>
        <time>2020-08-22T06:28:27Z</time>
      </trkpt>
      <trkpt lat="46.091687" lon="9.084449">
        <ele>1536.816</ele>
        <time>2020-08-22T06:28:42Z</time>
      </trkpt>
      <trkpt lat="46.091876" lon="9.084102">
        <ele>1535.876</ele>
        <time>2020-08-22T06:28:56Z</time>
      </trkpt>
      <trkpt lat="46.092082" lon="9.083850">
        <ele>1533.913</ele>
        <time>2020-08-22T06:29:07Z</time>
      </trkpt>
      <trkpt lat="46.092354" lon="9.083740">
        <ele>1536.308</ele>
        <time>2020-08-22T06:29:23Z</time>
      </trkpt>
      <trkpt lat="46.092641" lon="9.083658">
        <ele>1537.266</ele>
        <time>2020-08-22T06:29:38Z</time>
      </trkpt>
      <trkpt lat="46.092926" lon="9.083620">
        <ele>1538.216</ele>
        <time>2020-08-22T06:29:54Z</time>
      </trkpt>
      <trkpt lat="46.093196" lon="9.083679">
        <ele>1538.735</ele>
        <time>2020-08-22T06:30:06Z</time>
      </trkpt>
      <trkpt lat="46.093292" lon="9.083749">
        <ele>1537.795</ele>
        <time>2020-08-22T06:30:18Z</time>
      </trkpt>
      <trkpt lat="46.093304" lon="9.083752">
        <ele>1537.742</ele>
        <time>2020-08-22T06:30:19Z</time>
      </trkpt>
      <trkpt lat="46.093450" lon="9.083678">
        <ele>1534.484</ele>
        <time>2020-08-22T06:30:33Z</time>
      </trkpt>
      <trkpt lat="46.093520" lon="9.083591">
        <ele>1535.882</ele>
        <time>2020-08-22T06:30:44Z</time>
      </trkpt>
      <trkpt lat="46.093527" lon="9.083564">
        <ele>1535.829</ele>
        <time>2020-08-22T06:30:46Z</time>
      </trkpt>
      <trkpt lat="46.093531" lon="9.083544">
        <ele>1535.864</ele>
        <time>2020-08-22T06:30:47Z</time>
      </trkpt>
      <trkpt lat="46.093555" lon="9.083475">
        <ele>1535.806</ele>
        <time>2020-08-22T06:30:51Z</time>
      </trkpt>
      <trkpt lat="46.093553" lon="9.083454">
        <ele>1535.816</ele>
        <time>2020-08-22T06:30:52Z</time>
      </trkpt>
      <trkpt lat="46.093549" lon="9.083437">
        <ele>1535.808</ele>
        <time>2020-08-22T06:30:53Z</time>
      </trkpt>
      <trkpt lat="46.093543" lon="9.083423">
        <ele>1535.871</ele>
        <time>2020-08-22T06:30:54Z</time>
      </trkpt>
      <trkpt lat="46.093478" lon="9.083181">
        <ele>1536.871</ele>
        <time>2020-08-22T06:31:12Z</time>
      </trkpt>
      <trkpt lat="46.093494" lon="9.083066">
        <ele>1538.270</ele>
        <time>2020-08-22T06:31:23Z</time>
      </trkpt>
      <trkpt lat="46.093502" lon="9.083057">
        <ele>1538.290</ele>
        <time>2020-08-22T06:31:24Z</time>
      </trkpt>
      <trkpt lat="46.093574" lon="9.082932">
        <ele>1538.787</ele>
        <time>2020-08-22T06:31:32Z</time>
      </trkpt>
      <trkpt lat="46.093600" lon="9.082914">
        <ele>1538.759</ele>
        <time>2020-08-22T06:31:33Z</time>
      </trkpt>
      <trkpt lat="46.093685" lon="9.082784">
        <ele>1537.727</ele>
        <time>2020-08-22T06:31:37Z</time>
      </trkpt>
      <trkpt lat="46.093796" lon="9.082471">
        <ele>1538.734</ele>
        <time>2020-08-22T06:31:50Z</time>
      </trkpt>
      <trkpt lat="46.093872" lon="9.082319">
        <ele>1540.184</ele>
        <time>2020-08-22T06:32:03Z</time>
      </trkpt>
      <trkpt lat="46.093876" lon="9.082305">
        <ele>1538.707</ele>
        <time>2020-08-22T06:32:04Z</time>
      </trkpt>
      <trkpt lat="46.093881" lon="9.082288">
        <ele>1538.717</ele>
        <time>2020-08-22T06:32:05Z</time>
      </trkpt>
      <trkpt lat="46.093888" lon="9.082268">
        <ele>1538.708</ele>
        <time>2020-08-22T06:32:06Z</time>
      </trkpt>
      <trkpt lat="46.093896" lon="9.082246">
        <ele>1538.253</ele>
        <time>2020-08-22T06:32:07Z</time>
      </trkpt>
      <trkpt lat="46.093911" lon="9.082222">
        <ele>1538.223</ele>
        <time>2020-08-22T06:32:08Z</time>
      </trkpt>
      <trkpt lat="46.093933" lon="9.082200">
        <ele>1537.772</ele>
        <time>2020-08-22T06:32:09Z</time>
      </trkpt>
      <trkpt lat="46.093961" lon="9.082183">
        <ele>1537.762</ele>
        <time>2020-08-22T06:32:10Z</time>
      </trkpt>
      <trkpt lat="46.093995" lon="9.082166">
        <ele>1537.779</ele>
        <time>2020-08-22T06:32:11Z</time>
      </trkpt>
      <trkpt lat="46.094048" lon="9.082114">
        <ele>1537.261</ele>
        <time>2020-08-22T06:32:13Z</time>
      </trkpt>
      <trkpt lat="46.094267" lon="9.081904">
        <ele>1538.729</ele>
        <time>2020-08-22T06:32:26Z</time>
      </trkpt>
      <trkpt lat="46.094281" lon="9.081889">
        <ele>1538.746</ele>
        <time>2020-08-22T06:32:27Z</time>
      </trkpt>
      <trkpt lat="46.094543" lon="9.081808">
        <ele>1537.789</ele>
        <time>2020-08-22T06:32:40Z</time>
      </trkpt>
      <trkpt lat="46.094561" lon="9.081783">
        <ele>1537.706</ele>
        <time>2020-08-22T06:32:41Z</time>
      </trkpt>
      <trkpt lat="46.094572" lon="9.081756">
        <ele>1537.726</ele>
        <time>2020-08-22T06:32:42Z</time>
      </trkpt>
      <trkpt lat="46.094585" lon="9.081727">
        <ele>1537.208</ele>
        <time>2020-08-22T06:32:43Z</time>
      </trkpt>
      <trkpt lat="46.094603" lon="9.081714">
        <ele>1537.283</ele>
        <time>2020-08-22T06:32:44Z</time>
      </trkpt>
      <trkpt lat="46.094620" lon="9.081706">
        <ele>1537.263</ele>
        <time>2020-08-22T06:32:45Z</time>
      </trkpt>
      <trkpt lat="46.094640" lon="9.081688">
        <ele>1537.222</ele>
        <time>2020-08-22T06:32:46Z</time>
      </trkpt>
      <trkpt lat="46.094659" lon="9.081661">
        <ele>1537.222</ele>
        <time>2020-08-22T06:32:47Z</time>
      </trkpt>
      <trkpt lat="46.094671" lon="9.081629">
        <ele>1537.219</ele>
        <time>2020-08-22T06:32:48Z</time>
      </trkpt>
      <trkpt lat="46.094676" lon="9.081592">
        <ele>1537.261</ele>
        <time>2020-08-22T06:32:49Z</time>
      </trkpt>
      <trkpt lat="46.094679" lon="9.081555">
        <ele>1536.869</ele>
        <time>2020-08-22T06:32:50Z</time>
      </trkpt>
      <trkpt lat="46.094794" lon="9.081271">
        <ele>1536.846</ele>
        <time>2020-08-22T06:33:02Z</time>
      </trkpt>
      <trkpt lat="46.094937" lon="9.080966">
        <ele>1536.884</ele>
        <time>2020-08-22T06:33:14Z</time>
      </trkpt>
      <trkpt lat="46.095174" lon="9.080727">
        <ele>1536.807</ele>
        <time>2020-08-22T06:33:28Z</time>
      </trkpt>
      <trkpt lat="46.095369" lon="9.080411">
        <ele>1539.217</ele>
        <time>2020-08-22T06:33:43Z</time>
      </trkpt>
      <trkpt lat="46.095527" lon="9.080211">
        <ele>1540.108</ele>
        <time>2020-08-22T06:33:56Z</time>
      </trkpt>
      <trkpt lat="46.095543" lon="9.080215">
        <ele>1540.183</ele>
        <time>2020-08-22T06:34:07Z</time>
      </trkpt>
      <trkpt lat="46.095556" lon="9.080210">
        <ele>1540.113</ele>
        <time>2020-08-22T06:34:08Z</time>
      </trkpt>
      <trkpt lat="46.095572" lon="9.080201">
        <ele>1540.112</ele>
        <time>2020-08-22T06:34:09Z</time>
      </trkpt>
      <trkpt lat="46.095592" lon="9.080197">
        <ele>1540.142</ele>
        <time>2020-08-22T06:34:10Z</time>
      </trkpt>
      <trkpt lat="46.095613" lon="9.080196">
        <ele>1540.119</ele>
        <time>2020-08-22T06:34:11Z</time>
      </trkpt>
      <trkpt lat="46.095634" lon="9.080197">
        <ele>1540.171</ele>
        <time>2020-08-22T06:34:12Z</time>
      </trkpt>
      <trkpt lat="46.095657" lon="9.080200">
        <ele>1540.159</ele>
        <time>2020-08-22T06:34:13Z</time>
      </trkpt>
      <trkpt lat="46.095678" lon="9.080205">
        <ele>1540.196</ele>
        <time>2020-08-22T06:34:14Z</time>
      </trkpt>
      <trkpt lat="46.095700" lon="9.080209">
        <ele>1540.161</ele>
        <time>2020-08-22T06:34:15Z</time>
      </trkpt>
      <trkpt lat="46.095718" lon="9.080214">
        <ele>1540.121</ele>
        <time>2020-08-22T06:34:16Z</time>
      </trkpt>
      <trkpt lat="46.095765" lon="9.080233">
        <ele>1540.113</ele>
        <time>2020-08-22T06:34:22Z</time>
      </trkpt>
      <trkpt lat="46.095813" lon="9.080158">
        <ele>1541.108</ele>
        <time>2020-08-22T06:34:31Z</time>
      </trkpt>
      <trkpt lat="46.095799" lon="9.080096">
        <ele>1541.691</ele>
        <time>2020-08-22T06:34:36Z</time>
      </trkpt>
      <trkpt lat="46.095774" lon="9.080018">
        <ele>1540.621</ele>
        <time>2020-08-22T06:34:42Z</time>
      </trkpt>
      <trkpt lat="46.095785" lon="9.079976">
        <ele>1540.150</ele>
        <time>2020-08-22T06:34:50Z</time>
      </trkpt>
      <trkpt lat="46.095821" lon="9.079909">
        <ele>1540.120</ele>
        <time>2020-08-22T06:35:04Z</time>
      </trkpt>
      <trkpt lat="46.095899" lon="9.079786">
        <ele>1539.277</ele>
        <time>2020-08-22T06:35:09Z</time>
      </trkpt>
      <trkpt lat="46.095924" lon="9.079776">
        <ele>1539.279</ele>
        <time>2020-08-22T06:35:10Z</time>
      </trkpt>
      <trkpt lat="46.095953" lon="9.079770">
        <ele>1538.737</ele>
        <time>2020-08-22T06:35:11Z</time>
      </trkpt>
      <trkpt lat="46.095976" lon="9.079766">
        <ele>1538.734</ele>
        <time>2020-08-22T06:35:12Z</time>
      </trkpt>
      <trkpt lat="46.095996" lon="9.079757">
        <ele>1538.275</ele>
        <time>2020-08-22T06:35:13Z</time>
      </trkpt>
      <trkpt lat="46.096015" lon="9.079736">
        <ele>1538.228</ele>
        <time>2020-08-22T06:35:14Z</time>
      </trkpt>
      <trkpt lat="46.096024" lon="9.079706">
        <ele>1537.220</ele>
        <time>2020-08-22T06:35:15Z</time>
      </trkpt>
      <trkpt lat="46.096020" lon="9.079678">
        <ele>1537.708</ele>
        <time>2020-08-22T06:35:16Z</time>
      </trkpt>
      <trkpt lat="46.096012" lon="9.079650">
        <ele>1537.732</ele>
        <time>2020-08-22T06:35:17Z</time>
      </trkpt>
      <trkpt lat="46.096008" lon="9.079616">
        <ele>1537.262</ele>
        <time>2020-08-22T06:35:18Z</time>
      </trkpt>
      <trkpt lat="46.096011" lon="9.079585">
        <ele>1537.211</ele>
        <time>2020-08-22T06:35:19Z</time>
      </trkpt>
      <trkpt lat="46.096017" lon="9.079558">
        <ele>1537.221</ele>
        <time>2020-08-22T06:35:20Z</time>
      </trkpt>
      <trkpt lat="46.096027" lon="9.079531">
        <ele>1537.718</ele>
        <time>2020-08-22T06:35:21Z</time>
      </trkpt>
      <trkpt lat="46.096032" lon="9.079510">
        <ele>1537.740</ele>
        <time>2020-08-22T06:35:22Z</time>
      </trkpt>
      <trkpt lat="46.096037" lon="9.079484">
        <ele>1537.278</ele>
        <time>2020-08-22T06:35:23Z</time>
      </trkpt>
      <trkpt lat="46.096040" lon="9.079460">
        <ele>1537.785</ele>
        <time>2020-08-22T06:35:24Z</time>
      </trkpt>
      <trkpt lat="46.096044" lon="9.079437">
        <ele>1537.799</ele>
        <time>2020-08-22T06:35:25Z</time>
      </trkpt>
      <trkpt lat="46.096086" lon="9.079356">
        <ele>1536.307</ele>
        <time>2020-08-22T06:35:34Z</time>
      </trkpt>
      <trkpt lat="46.096100" lon="9.079334">
        <ele>1536.327</ele>
        <time>2020-08-22T06:35:36Z</time>
      </trkpt>
      <trkpt lat="46.096139" lon="9.079232">
        <ele>1533.908</ele>
        <time>2020-08-22T06:35:44Z</time>
      </trkpt>
      <trkpt lat="46.096140" lon="9.079216">
        <ele>1533.984</ele>
        <time>2020-08-22T06:35:45Z</time>
      </trkpt>
      <trkpt lat="46.096140" lon="9.079198">
        <ele>1532.964</ele>
        <time>2020-08-22T06:35:46Z</time>
      </trkpt>
      <trkpt lat="46.096142" lon="9.079181">
        <ele>1532.973</ele>
        <time>2020-08-22T06:35:47Z</time>
      </trkpt>
      <trkpt lat="46.096146" lon="9.079166">
        <ele>1532.433</ele>
        <time>2020-08-22T06:35:48Z</time>
      </trkpt>
      <trkpt lat="46.096150" lon="9.079152">
        <ele>1532.460</ele>
        <time>2020-08-22T06:35:49Z</time>
      </trkpt>
      <trkpt lat="46.096154" lon="9.079138">
        <ele>1532.042</ele>
        <time>2020-08-22T06:35:50Z</time>
      </trkpt>
      <trkpt lat="46.096156" lon="9.079123">
        <ele>1532.090</ele>
        <time>2020-08-22T06:35:51Z</time>
      </trkpt>
      <trkpt lat="46.096158" lon="9.079108">
        <ele>1531.537</ele>
        <time>2020-08-22T06:35:52Z</time>
      </trkpt>
      <trkpt lat="46.096184" lon="9.078952">
        <ele>1529.156</ele>
        <time>2020-08-22T06:36:05Z</time>
      </trkpt>
      <trkpt lat="46.096281" lon="9.078644">
        <ele>1527.659</ele>
        <time>2020-08-22T06:36:14Z</time>
      </trkpt>
      <trkpt lat="46.096297" lon="9.078627">
        <ele>1527.614</ele>
        <time>2020-08-22T06:36:15Z</time>
      </trkpt>
      <trkpt lat="46.096309" lon="9.078609">
        <ele>1527.608</ele>
        <time>2020-08-22T06:36:16Z</time>
      </trkpt>
      <trkpt lat="46.096317" lon="9.078591">
        <ele>1526.770</ele>
        <time>2020-08-22T06:36:17Z</time>
      </trkpt>
      <trkpt lat="46.096323" lon="9.078572">
        <ele>1526.710</ele>
        <time>2020-08-22T06:36:18Z</time>
      </trkpt>
      <trkpt lat="46.096327" lon="9.078551">
        <ele>1526.789</ele>
        <time>2020-08-22T06:36:19Z</time>
      </trkpt>
      <trkpt lat="46.096323" lon="9.078528">
        <ele>1526.739</ele>
        <time>2020-08-22T06:36:20Z</time>
      </trkpt>
      <trkpt lat="46.096317" lon="9.078506">
        <ele>1526.776</ele>
        <time>2020-08-22T06:36:21Z</time>
      </trkpt>
      <trkpt lat="46.096330" lon="9.078258">
        <ele>1525.788</ele>
        <time>2020-08-22T06:36:30Z</time>
      </trkpt>
      <trkpt lat="46.096340" lon="9.078240">
        <ele>1525.756</ele>
        <time>2020-08-22T06:36:31Z</time>
      </trkpt>
      <trkpt lat="46.096351" lon="9.078223">
        <ele>1525.763</ele>
        <time>2020-08-22T06:36:32Z</time>
      </trkpt>
      <trkpt lat="46.096365" lon="9.078206">
        <ele>1525.761</ele>
        <time>2020-08-22T06:36:33Z</time>
      </trkpt>
      <trkpt lat="46.096382" lon="9.078192">
        <ele>1525.721</ele>
        <time>2020-08-22T06:36:34Z</time>
      </trkpt>
      <trkpt lat="46.096399" lon="9.078181">
        <ele>1527.113</ele>
        <time>2020-08-22T06:36:35Z</time>
      </trkpt>
      <trkpt lat="46.096418" lon="9.078172">
        <ele>1527.108</ele>
        <time>2020-08-22T06:36:36Z</time>
      </trkpt>
      <trkpt lat="46.096537" lon="9.078105">
        <ele>1527.151</ele>
        <time>2020-08-22T06:36:44Z</time>
      </trkpt>
      <trkpt lat="46.096541" lon="9.078086">
        <ele>1527.121</ele>
        <time>2020-08-22T06:36:45Z</time>
      </trkpt>
      <trkpt lat="46.096526" lon="9.078036">
        <ele>1525.790</ele>
        <time>2020-08-22T06:36:50Z</time>
      </trkpt>
      <trkpt lat="46.096519" lon="9.078008">
        <ele>1525.780</ele>
        <time>2020-08-22T06:36:51Z</time>
      </trkpt>
      <trkpt lat="46.096512" lon="9.077974">
        <ele>1525.287</ele>
        <time>2020-08-22T06:36:52Z</time>
      </trkpt>
      <trkpt lat="46.096505" lon="9.077941">
        <ele>1525.239</ele>
        <time>2020-08-22T06:36:53Z</time>
      </trkpt>
      <trkpt lat="46.096501" lon="9.077909">
        <ele>1525.267</ele>
        <time>2020-08-22T06:36:54Z</time>
      </trkpt>
      <trkpt lat="46.096512" lon="9.077509">
        <ele>1527.664</ele>
        <time>2020-08-22T06:37:09Z</time>
      </trkpt>
      <trkpt lat="46.096609" lon="9.077012">
        <ele>1527.699</ele>
        <time>2020-08-22T06:37:24Z</time>
      </trkpt>
      <trkpt lat="46.096603" lon="9.076831">
        <ele>1528.607</ele>
        <time>2020-08-22T06:37:33Z</time>
      </trkpt>
      <trkpt lat="46.096602" lon="9.076813">
        <ele>1528.627</ele>
        <time>2020-08-22T06:37:34Z</time>
      </trkpt>
      <trkpt lat="46.096604" lon="9.076796">
        <ele>1529.108</ele>
        <time>2020-08-22T06:37:35Z</time>
      </trkpt>
      <trkpt lat="46.096607" lon="9.076779">
        <ele>1529.134</ele>
        <time>2020-08-22T06:37:36Z</time>
      </trkpt>
      <trkpt lat="46.096610" lon="9.076764">
        <ele>1530.014</ele>
        <time>2020-08-22T06:37:37Z</time>
      </trkpt>
      <trkpt lat="46.096710" lon="9.076585">
        <ele>1532.953</ele>
        <time>2020-08-22T06:37:51Z</time>
      </trkpt>
      <trkpt lat="46.096735" lon="9.076558">
        <ele>1534.473</ele>
        <time>2020-08-22T06:37:54Z</time>
      </trkpt>
      <trkpt lat="46.096834" lon="9.076404">
        <ele>1535.360</ele>
        <time>2020-08-22T06:38:06Z</time>
      </trkpt>
      <trkpt lat="46.096965" lon="9.076145">
        <ele>1535.872</ele>
        <time>2020-08-22T06:38:19Z</time>
      </trkpt>
      <trkpt lat="46.096968" lon="9.076123">
        <ele>1535.810</ele>
        <time>2020-08-22T06:38:20Z</time>
      </trkpt>
      <trkpt lat="46.096970" lon="9.076105">
        <ele>1535.857</ele>
        <time>2020-08-22T06:38:21Z</time>
      </trkpt>
      <trkpt lat="46.096986" lon="9.076031">
        <ele>1535.867</ele>
        <time>2020-08-22T06:38:25Z</time>
      </trkpt>
      <trkpt lat="46.096995" lon="9.076015">
        <ele>1535.881</ele>
        <time>2020-08-22T06:38:26Z</time>
      </trkpt>
      <trkpt lat="46.097006" lon="9.076000">
        <ele>1535.819</ele>
        <time>2020-08-22T06:38:27Z</time>
      </trkpt>
      <trkpt lat="46.097016" lon="9.075987">
        <ele>1535.808</ele>
        <time>2020-08-22T06:38:28Z</time>
      </trkpt>
      <trkpt lat="46.097026" lon="9.075975">
        <ele>1535.871</ele>
        <time>2020-08-22T06:38:29Z</time>
      </trkpt>
      <trkpt lat="46.097104" lon="9.075884">
        <ele>1535.851</ele>
        <time>2020-08-22T06:38:38Z</time>
      </trkpt>
      <trkpt lat="46.097119" lon="9.075876">
        <ele>1535.890</ele>
        <time>2020-08-22T06:38:39Z</time>
      </trkpt>
      <trkpt lat="46.097140" lon="9.075863">
        <ele>1535.820</ele>
        <time>2020-08-22T06:38:40Z</time>
      </trkpt>
      <trkpt lat="46.097207" lon="9.075819">
        <ele>1534.497</ele>
        <time>2020-08-22T06:38:43Z</time>
      </trkpt>
      <trkpt lat="46.097399" lon="9.075655">
        <ele>1534.419</ele>
        <time>2020-08-22T06:38:54Z</time>
      </trkpt>
      <trkpt lat="46.097401" lon="9.075626">
        <ele>1534.417</ele>
        <time>2020-08-22T06:38:55Z</time>
      </trkpt>
      <trkpt lat="46.097393" lon="9.075598">
        <ele>1534.494</ele>
        <time>2020-08-22T06:38:56Z</time>
      </trkpt>
      <trkpt lat="46.097372" lon="9.075540">
        <ele>1533.433</ele>
        <time>2020-08-22T06:38:58Z</time>
      </trkpt>
      <trkpt lat="46.097372" lon="9.075502">
        <ele>1533.423</ele>
        <time>2020-08-22T06:38:59Z</time>
      </trkpt>
      <trkpt lat="46.097377" lon="9.075468">
        <ele>1533.415</ele>
        <time>2020-08-22T06:39:00Z</time>
      </trkpt>
      <trkpt lat="46.097385" lon="9.075438">
        <ele>1533.408</ele>
        <time>2020-08-22T06:39:01Z</time>
      </trkpt>
      <trkpt lat="46.097391" lon="9.075409">
        <ele>1533.418</ele>
        <time>2020-08-22T06:39:02Z</time>
      </trkpt>
      <trkpt lat="46.097398" lon="9.075378">
        <ele>1533.458</ele>
        <time>2020-08-22T06:39:03Z</time>
      </trkpt>
      <trkpt lat="46.097407" lon="9.075346">
        <ele>1533.467</ele>
        <time>2020-08-22T06:39:04Z</time>
      </trkpt>
      <trkpt lat="46.097417" lon="9.075318">
        <ele>1533.497</ele>
        <time>2020-08-22T06:39:05Z</time>
      </trkpt>
      <trkpt lat="46.097521" lon="9.075112">
        <ele>1533.434</ele>
        <time>2020-08-22T06:39:18Z</time>
      </trkpt>
      <trkpt lat="46.097532" lon="9.075100">
        <ele>1534.856</ele>
        <time>2020-08-22T06:39:20Z</time>
      </trkpt>
      <trkpt lat="46.097653" lon="9.074948">
        <ele>1537.284</ele>
        <time>2020-08-22T06:39:37Z</time>
      </trkpt>
      <trkpt lat="46.097769" lon="9.074871">
        <ele>1539.671</ele>
        <time>2020-08-22T06:39:55Z</time>
      </trkpt>
      <trkpt lat="46.097868" lon="9.074754">
        <ele>1540.186</ele>
        <time>2020-08-22T06:40:08Z</time>
      </trkpt>
      <trkpt lat="46.098008" lon="9.074644">
        <ele>1541.660</ele>
        <time>2020-08-22T06:40:16Z</time>
      </trkpt>
      <trkpt lat="46.098014" lon="9.074630">
        <ele>1541.626</ele>
        <time>2020-08-22T06:40:17Z</time>
      </trkpt>
      <trkpt lat="46.098019" lon="9.074608">
        <ele>1541.608</ele>
        <time>2020-08-22T06:40:18Z</time>
      </trkpt>
      <trkpt lat="46.098074" lon="9.074439">
        <ele>1540.163</ele>
        <time>2020-08-22T06:40:22Z</time>
      </trkpt>
      <trkpt lat="46.098133" lon="9.074361">
        <ele>1539.643</ele>
        <time>2020-08-22T06:40:25Z</time>
      </trkpt>
      <trkpt lat="46.098147" lon="9.074352">
        <ele>1539.692</ele>
        <time>2020-08-22T06:40:26Z</time>
      </trkpt>
      <trkpt lat="46.098160" lon="9.074344">
        <ele>1540.682</ele>
        <time>2020-08-22T06:40:27Z</time>
      </trkpt>
      <trkpt lat="46.098175" lon="9.074333">
        <ele>1540.699</ele>
        <time>2020-08-22T06:40:28Z</time>
      </trkpt>
      <trkpt lat="46.098196" lon="9.074319">
        <ele>1540.651</ele>
        <time>2020-08-22T06:40:29Z</time>
      </trkpt>
      <trkpt lat="46.098225" lon="9.074303">
        <ele>1540.619</ele>
        <time>2020-08-22T06:40:30Z</time>
      </trkpt>
      <trkpt lat="46.098336" lon="9.074289">
        <ele>1539.266</ele>
        <time>2020-08-22T06:40:33Z</time>
      </trkpt>
      <trkpt lat="46.098442" lon="9.074343">
        <ele>1540.162</ele>
        <time>2020-08-22T06:40:40Z</time>
      </trkpt>
      <trkpt lat="46.098455" lon="9.074334">
        <ele>1540.183</ele>
        <time>2020-08-22T06:40:41Z</time>
      </trkpt>
      <trkpt lat="46.098516" lon="9.074292">
        <ele>1538.711</ele>
        <time>2020-08-22T06:40:45Z</time>
      </trkpt>
      <trkpt lat="46.098539" lon="9.074297">
        <ele>1538.708</ele>
        <time>2020-08-22T06:40:46Z</time>
      </trkpt>
      <trkpt lat="46.098561" lon="9.074309">
        <ele>1538.781</ele>
        <time>2020-08-22T06:40:47Z</time>
      </trkpt>
      <trkpt lat="46.098580" lon="9.074319">
        <ele>1538.731</ele>
        <time>2020-08-22T06:40:48Z</time>
      </trkpt>
      <trkpt lat="46.098598" lon="9.074320">
        <ele>1538.770</ele>
        <time>2020-08-22T06:40:49Z</time>
      </trkpt>
      <trkpt lat="46.098616" lon="9.074320">
        <ele>1538.780</ele>
        <time>2020-08-22T06:40:50Z</time>
      </trkpt>
      <trkpt lat="46.098637" lon="9.074320">
        <ele>1538.767</ele>
        <time>2020-08-22T06:40:51Z</time>
      </trkpt>
      <trkpt lat="46.098659" lon="9.074315">
        <ele>1538.749</ele>
        <time>2020-08-22T06:40:52Z</time>
      </trkpt>
      <trkpt lat="46.098678" lon="9.074305">
        <ele>1538.797</ele>
        <time>2020-08-22T06:40:53Z</time>
      </trkpt>
      <trkpt lat="46.098701" lon="9.074292">
        <ele>1538.734</ele>
        <time>2020-08-22T06:40:54Z</time>
      </trkpt>
      <trkpt lat="46.098903" lon="9.074116">
        <ele>1538.767</ele>
        <time>2020-08-22T06:41:06Z</time>
      </trkpt>
      <trkpt lat="46.099067" lon="9.074027">
        <ele>1540.181</ele>
        <time>2020-08-22T06:41:17Z</time>
      </trkpt>
      <trkpt lat="46.099074" lon="9.074011">
        <ele>1540.619</ele>
        <time>2020-08-22T06:41:18Z</time>
      </trkpt>
      <trkpt lat="46.099086" lon="9.073992">
        <ele>1540.608</ele>
        <time>2020-08-22T06:41:19Z</time>
      </trkpt>
      <trkpt lat="46.099100" lon="9.073977">
        <ele>1540.661</ele>
        <time>2020-08-22T06:41:20Z</time>
      </trkpt>
      <trkpt lat="46.099114" lon="9.073966">
        <ele>1540.611</ele>
        <time>2020-08-22T06:41:21Z</time>
      </trkpt>
      <trkpt lat="46.099130" lon="9.073959">
        <ele>1540.620</ele>
        <time>2020-08-22T06:41:22Z</time>
      </trkpt>
      <trkpt lat="46.099143" lon="9.073953">
        <ele>1541.190</ele>
        <time>2020-08-22T06:41:23Z</time>
      </trkpt>
      <trkpt lat="46.099154" lon="9.073940">
        <ele>1541.177</ele>
        <time>2020-08-22T06:41:24Z</time>
      </trkpt>
      <trkpt lat="46.099160" lon="9.073922">
        <ele>1541.649</ele>
        <time>2020-08-22T06:41:25Z</time>
      </trkpt>
      <trkpt lat="46.099178" lon="9.073875">
        <ele>1541.647</ele>
        <time>2020-08-22T06:41:27Z</time>
      </trkpt>
      <trkpt lat="46.099192" lon="9.073851">
        <ele>1541.624</ele>
        <time>2020-08-22T06:41:28Z</time>
      </trkpt>
      <trkpt lat="46.099202" lon="9.073827">
        <ele>1541.695</ele>
        <time>2020-08-22T06:41:29Z</time>
      </trkpt>
      <trkpt lat="46.099210" lon="9.073804">
        <ele>1541.649</ele>
        <time>2020-08-22T06:41:30Z</time>
      </trkpt>
      <trkpt lat="46.099221" lon="9.073781">
        <ele>1541.623</ele>
        <time>2020-08-22T06:41:31Z</time>
      </trkpt>
      <trkpt lat="46.099231" lon="9.073758">
        <ele>1541.608</ele>
        <time>2020-08-22T06:41:32Z</time>
      </trkpt>
      <trkpt lat="46.099387" lon="9.073545">
        <ele>1544.034</ele>
        <time>2020-08-22T06:41:46Z</time>
      </trkpt>
      <trkpt lat="46.099456" lon="9.073469">
        <ele>1545.464</ele>
        <time>2020-08-22T06:41:58Z</time>
      </trkpt>
      <trkpt lat="46.099510" lon="9.073455">
        <ele>1544.013</ele>
        <time>2020-08-22T06:42:05Z</time>
      </trkpt>
      <trkpt lat="46.099623" lon="9.073359">
        <ele>1543.023</ele>
        <time>2020-08-22T06:42:20Z</time>
      </trkpt>
      <trkpt lat="46.099636" lon="9.073351">
        <ele>1543.080</ele>
        <time>2020-08-22T06:42:23Z</time>
      </trkpt>
      <trkpt lat="46.099649" lon="9.073347">
        <ele>1543.092</ele>
        <time>2020-08-22T06:42:24Z</time>
      </trkpt>
      <trkpt lat="46.099696" lon="9.073310">
        <ele>1544.570</ele>
        <time>2020-08-22T06:42:31Z</time>
      </trkpt>
      <trkpt lat="46.099750" lon="9.073267">
        <ele>1543.087</ele>
        <time>2020-08-22T06:42:39Z</time>
      </trkpt>
      <trkpt lat="46.099803" lon="9.073251">
        <ele>1539.621</ele>
        <time>2020-08-22T06:42:49Z</time>
      </trkpt>
      <trkpt lat="46.099865" lon="9.073169">
        <ele>1536.841</ele>
        <time>2020-08-22T06:43:01Z</time>
      </trkpt>
      <trkpt lat="46.099880" lon="9.073185">
        <ele>1536.805</ele>
        <time>2020-08-22T06:43:03Z</time>
      </trkpt>
      <trkpt lat="46.099983" lon="9.073265">
        <ele>1533.408</ele>
        <time>2020-08-22T06:43:15Z</time>
      </trkpt>
      <trkpt lat="46.100132" lon="9.073378">
        <ele>1531.067</ele>
        <time>2020-08-22T06:43:31Z</time>
      </trkpt>
      <trkpt lat="46.100268" lon="9.073272">
        <ele>1528.677</ele>
        <time>2020-08-22T06:43:47Z</time>
      </trkpt>
      <trkpt lat="46.100320" lon="9.073231">
        <ele>1531.586</ele>
        <time>2020-08-22T06:43:57Z</time>
      </trkpt>
      <trkpt lat="46.100330" lon="9.073225">
        <ele>1531.516</ele>
        <time>2020-08-22T06:43:58Z</time>
      </trkpt>
      <trkpt lat="46.100439" lon="9.073176">
        <ele>1534.423</ele>
        <time>2020-08-22T06:44:15Z</time>
      </trkpt>
      <trkpt lat="46.100534" lon="9.073117">
        <ele>1536.345</ele>
        <time>2020-08-22T06:44:32Z</time>
      </trkpt>
      <trkpt lat="46.100554" lon="9.073031">
        <ele>1538.243</ele>
        <time>2020-08-22T06:44:44Z</time>
      </trkpt>
      <trkpt lat="46.100567" lon="9.072897">
        <ele>1539.640</ele>
        <time>2020-08-22T06:44:58Z</time>
      </trkpt>
      <trkpt lat="46.100609" lon="9.072795">
        <ele>1540.181</ele>
        <time>2020-08-22T06:45:14Z</time>
      </trkpt>
      <trkpt lat="46.100677" lon="9.072568">
        <ele>1540.161</ele>
        <time>2020-08-22T06:45:25Z</time>
      </trkpt>
      <trkpt lat="46.100701" lon="9.072509">
        <ele>1538.717</ele>
        <time>2020-08-22T06:45:31Z</time>
      </trkpt>
      <trkpt lat="46.100727" lon="9.072516">
        <ele>1538.708</ele>
        <time>2020-08-22T06:45:37Z</time>
      </trkpt>
      <trkpt lat="46.100740" lon="9.072515">
        <ele>1538.293</ele>
        <time>2020-08-22T06:45:38Z</time>
      </trkpt>
      <trkpt lat="46.100753" lon="9.072518">
        <ele>1537.733</ele>
        <time>2020-08-22T06:45:39Z</time>
      </trkpt>
      <trkpt lat="46.100826" lon="9.072552">
        <ele>1534.882</ele>
        <time>2020-08-22T06:45:46Z</time>
      </trkpt>
      <trkpt lat="46.100921" lon="9.072581">
        <ele>1532.062</ele>
        <time>2020-08-22T06:46:00Z</time>
      </trkpt>
      <trkpt lat="46.100933" lon="9.072593">
        <ele>1531.589</ele>
        <time>2020-08-22T06:46:01Z</time>
      </trkpt>
      <trkpt lat="46.100951" lon="9.072609">
        <ele>1531.591</ele>
        <time>2020-08-22T06:46:02Z</time>
      </trkpt>
      <trkpt lat="46.100969" lon="9.072627">
        <ele>1531.039</ele>
        <time>2020-08-22T06:46:03Z</time>
      </trkpt>
      <trkpt lat="46.100986" lon="9.072645">
        <ele>1531.056</ele>
        <time>2020-08-22T06:46:04Z</time>
      </trkpt>
      <trkpt lat="46.101004" lon="9.072659">
        <ele>1530.083</ele>
        <time>2020-08-22T06:46:05Z</time>
      </trkpt>
      <trkpt lat="46.101024" lon="9.072673">
        <ele>1530.025</ele>
        <time>2020-08-22T06:46:06Z</time>
      </trkpt>
      <trkpt lat="46.101100" lon="9.072716">
        <ele>1528.617</ele>
        <time>2020-08-22T06:46:09Z</time>
      </trkpt>
      <trkpt lat="46.101239" lon="9.072793">
        <ele>1526.208</ele>
        <time>2020-08-22T06:46:14Z</time>
      </trkpt>
      <trkpt lat="46.101333" lon="9.072859">
        <ele>1524.333</ele>
        <time>2020-08-22T06:46:17Z</time>
      </trkpt>
      <trkpt lat="46.101352" lon="9.072900">
        <ele>1524.313</ele>
        <time>2020-08-22T06:46:18Z</time>
      </trkpt>
      <trkpt lat="46.101411" lon="9.073044">
        <ele>1524.732</ele>
        <time>2020-08-22T06:46:24Z</time>
      </trkpt>
      <trkpt lat="46.101436" lon="9.073056">
        <ele>1525.762</ele>
        <time>2020-08-22T06:46:26Z</time>
      </trkpt>
      <trkpt lat="46.101463" lon="9.073061">
        <ele>1526.229</ele>
        <time>2020-08-22T06:46:27Z</time>
      </trkpt>
      <trkpt lat="46.101636" lon="9.073050">
        <ele>1524.731</ele>
        <time>2020-08-22T06:46:33Z</time>
      </trkpt>
      <trkpt lat="46.101752" lon="9.073040">
        <ele>1526.269</ele>
        <time>2020-08-22T06:46:40Z</time>
      </trkpt>
      <trkpt lat="46.101869" lon="9.073124">
        <ele>1524.366</ele>
        <time>2020-08-22T06:46:45Z</time>
      </trkpt>
      <trkpt lat="46.101921" lon="9.073150">
        <ele>1524.396</ele>
        <time>2020-08-22T06:46:48Z</time>
      </trkpt>
      <trkpt lat="46.101934" lon="9.073143">
        <ele>1524.331</ele>
        <time>2020-08-22T06:46:49Z</time>
      </trkpt>
      <trkpt lat="46.101947" lon="9.073130">
        <ele>1524.324</ele>
        <time>2020-08-22T06:46:50Z</time>
      </trkpt>
      <trkpt lat="46.101954" lon="9.073114">
        <ele>1524.308</ele>
        <time>2020-08-22T06:46:51Z</time>
      </trkpt>
      <trkpt lat="46.101945" lon="9.073097">
        <ele>1524.354</ele>
        <time>2020-08-22T06:47:01Z</time>
      </trkpt>
      <trkpt lat="46.101948" lon="9.073111">
        <ele>1524.344</ele>
        <time>2020-08-22T06:47:15Z</time>
      </trkpt>
      <trkpt lat="46.101956" lon="9.073060">
        <ele>1525.773</ele>
        <time>2020-08-22T06:47:23Z</time>
      </trkpt>
      <trkpt lat="46.101963" lon="9.073020">
        <ele>1525.763</ele>
        <time>2020-08-22T06:47:39Z</time>
      </trkpt>
      <trkpt lat="46.101953" lon="9.073005">
        <ele>1525.750</ele>
        <time>2020-08-22T06:48:11Z</time>
      </trkpt>
      <trkpt lat="46.101936" lon="9.072999">
        <ele>1525.712</ele>
        <time>2020-08-22T06:48:34Z</time>
      </trkpt>
      <trkpt lat="46.101945" lon="9.073008">
        <ele>1525.720</ele>
        <time>2020-08-22T06:49:00Z</time>
      </trkpt>
      <trkpt lat="46.101958" lon="9.072986">
        <ele>1525.787</ele>
        <time>2020-08-22T06:49:20Z</time>
      </trkpt>
      <trkpt lat="46.101962" lon="9.072970">
        <ele>1525.776</ele>
        <time>2020-08-22T06:49:21Z</time>
      </trkpt>
      <trkpt lat="46.101969" lon="9.072956">
        <ele>1525.790</ele>
        <time>2020-08-22T06:49:22Z</time>
      </trkpt>
      <trkpt lat="46.101997" lon="9.072931">
        <ele>1524.319</ele>
        <time>2020-08-22T06:49:26Z</time>
      </trkpt>
      <trkpt lat="46.102007" lon="9.072926">
        <ele>1523.808</ele>
        <time>2020-08-22T06:49:27Z</time>
      </trkpt>
      <trkpt lat="46.102086" lon="9.072818">
        <ele>1524.332</ele>
        <time>2020-08-22T06:49:39Z</time>
      </trkpt>
      <trkpt lat="46.102128" lon="9.072714">
        <ele>1525.752</ele>
        <time>2020-08-22T06:49:53Z</time>
      </trkpt>
      <trkpt lat="46.102186" lon="9.072654">
        <ele>1526.291</ele>
        <time>2020-08-22T06:50:02Z</time>
      </trkpt>
      <trkpt lat="46.102198" lon="9.072654">
        <ele>1526.261</ele>
        <time>2020-08-22T06:50:03Z</time>
      </trkpt>
      <trkpt lat="46.102217" lon="9.072656">
        <ele>1526.278</ele>
        <time>2020-08-22T06:50:04Z</time>
      </trkpt>
      <trkpt lat="46.102245" lon="9.072648">
        <ele>1526.220</ele>
        <time>2020-08-22T06:50:05Z</time>
      </trkpt>
      <trkpt lat="46.102284" lon="9.072638">
        <ele>1524.788</ele>
        <time>2020-08-22T06:50:06Z</time>
      </trkpt>
      <trkpt lat="46.102328" lon="9.072632">
        <ele>1524.315</ele>
        <time>2020-08-22T06:50:07Z</time>
      </trkpt>
      <trkpt lat="46.102370" lon="9.072629">
        <ele>1524.393</ele>
        <time>2020-08-22T06:50:08Z</time>
      </trkpt>
      <trkpt lat="46.102611" lon="9.072632">
        <ele>1522.865</ele>
        <time>2020-08-22T06:50:17Z</time>
      </trkpt>
      <trkpt lat="46.102636" lon="9.072636">
        <ele>1522.821</ele>
        <time>2020-08-22T06:50:19Z</time>
      </trkpt>
      <trkpt lat="46.102661" lon="9.072635">
        <ele>1522.808</ele>
        <time>2020-08-22T06:50:20Z</time>
      </trkpt>
      <trkpt lat="46.102690" lon="9.072644">
        <ele>1522.364</ele>
        <time>2020-08-22T06:50:21Z</time>
      </trkpt>
      <trkpt lat="46.102727" lon="9.072659">
        <ele>1522.344</ele>
        <time>2020-08-22T06:50:22Z</time>
      </trkpt>
      <trkpt lat="46.102761" lon="9.072676">
        <ele>1521.993</ele>
        <time>2020-08-22T06:50:23Z</time>
      </trkpt>
      <trkpt lat="46.102805" lon="9.072690">
        <ele>1521.963</ele>
        <time>2020-08-22T06:50:25Z</time>
      </trkpt>
      <trkpt lat="46.102871" lon="9.072652">
        <ele>1521.480</ele>
        <time>2020-08-22T06:50:38Z</time>
      </trkpt>
      <trkpt lat="46.102876" lon="9.072628">
        <ele>1521.422</ele>
        <time>2020-08-22T06:50:41Z</time>
      </trkpt>
      <trkpt lat="46.102934" lon="9.072496">
        <ele>1519.510</ele>
        <time>2020-08-22T06:50:46Z</time>
      </trkpt>
      <trkpt lat="46.102953" lon="9.072227">
        <ele>1516.667</ele>
        <time>2020-08-22T06:50:56Z</time>
      </trkpt>
      <trkpt lat="46.102999" lon="9.071884">
        <ele>1513.232</ele>
        <time>2020-08-22T06:51:06Z</time>
      </trkpt>
      <trkpt lat="46.102999" lon="9.071787">
        <ele>1512.292</ele>
        <time>2020-08-22T06:51:10Z</time>
      </trkpt>
      <trkpt lat="46.103056" lon="9.071429">
        <ele>1508.911</ele>
        <time>2020-08-22T06:51:19Z</time>
      </trkpt>
      <trkpt lat="46.103139" lon="9.071148">
        <ele>1507.908</ele>
        <time>2020-08-22T06:51:29Z</time>
      </trkpt>
      <trkpt lat="46.103207" lon="9.071027">
        <ele>1507.918</ele>
        <time>2020-08-22T06:51:35Z</time>
      </trkpt>
      <trkpt lat="46.103214" lon="9.071007">
        <ele>1507.988</ele>
        <time>2020-08-22T06:51:36Z</time>
      </trkpt>
      <trkpt lat="46.103237" lon="9.070957">
        <ele>1508.997</ele>
        <time>2020-08-22T06:51:38Z</time>
      </trkpt>
      <trkpt lat="46.103381" lon="9.070629">
        <ele>1508.977</ele>
        <time>2020-08-22T06:51:49Z</time>
      </trkpt>
      <trkpt lat="46.103422" lon="9.070466">
        <ele>1511.884</ele>
        <time>2020-08-22T06:52:01Z</time>
      </trkpt>
      <trkpt lat="46.103444" lon="9.070451">
        <ele>1512.216</ele>
        <time>2020-08-22T06:52:08Z</time>
      </trkpt>
      <trkpt lat="46.103530" lon="9.070414">
        <ele>1513.274</ele>
        <time>2020-08-22T06:52:21Z</time>
      </trkpt>
      <trkpt lat="46.103756" lon="9.070585">
        <ele>1511.821</ele>
        <time>2020-08-22T06:52:31Z</time>
      </trkpt>
      <trkpt lat="46.103826" lon="9.070606">
        <ele>1510.349</ele>
        <time>2020-08-22T06:52:33Z</time>
      </trkpt>
      <trkpt lat="46.103867" lon="9.070625">
        <ele>1509.802</ele>
        <time>2020-08-22T06:52:34Z</time>
      </trkpt>
      <trkpt lat="46.103911" lon="9.070656">
        <ele>1509.822</ele>
        <time>2020-08-22T06:52:35Z</time>
      </trkpt>
      <trkpt lat="46.103951" lon="9.070691">
        <ele>1509.408</ele>
        <time>2020-08-22T06:52:36Z</time>
      </trkpt>
      <trkpt lat="46.103980" lon="9.070716">
        <ele>1509.489</ele>
        <time>2020-08-22T06:52:37Z</time>
      </trkpt>
      <trkpt lat="46.104005" lon="9.070733">
        <ele>1509.429</ele>
        <time>2020-08-22T06:52:38Z</time>
      </trkpt>
      <trkpt lat="46.104237" lon="9.070904">
        <ele>1506.058</ele>
        <time>2020-08-22T06:52:46Z</time>
      </trkpt>
      <trkpt lat="46.104266" lon="9.070940">
        <ele>1506.088</ele>
        <time>2020-08-22T06:52:47Z</time>
      </trkpt>
      <trkpt lat="46.104285" lon="9.070979">
        <ele>1506.025</ele>
        <time>2020-08-22T06:52:48Z</time>
      </trkpt>
      <trkpt lat="46.104296" lon="9.071020">
        <ele>1505.527</ele>
        <time>2020-08-22T06:52:49Z</time>
      </trkpt>
      <trkpt lat="46.104303" lon="9.071041">
        <ele>1505.525</ele>
        <time>2020-08-22T06:52:50Z</time>
      </trkpt>
      <trkpt lat="46.104307" lon="9.071062">
        <ele>1505.552</ele>
        <time>2020-08-22T06:52:51Z</time>
      </trkpt>
      <trkpt lat="46.104348" lon="9.071156">
        <ele>1505.526</ele>
        <time>2020-08-22T06:53:01Z</time>
      </trkpt>
      <trkpt lat="46.104358" lon="9.071183">
        <ele>1507.047</ele>
        <time>2020-08-22T06:53:04Z</time>
      </trkpt>
      <trkpt lat="46.104388" lon="9.071203">
        <ele>1507.411</ele>
        <time>2020-08-22T06:53:10Z</time>
      </trkpt>
      <trkpt lat="46.104426" lon="9.071249">
        <ele>1509.408</ele>
        <time>2020-08-22T06:53:23Z</time>
      </trkpt>
      <trkpt lat="46.104450" lon="9.071283">
        <ele>1510.837</ele>
        <time>2020-08-22T06:53:35Z</time>
      </trkpt>
      <trkpt lat="46.104457" lon="9.071235">
        <ele>1512.727</ele>
        <time>2020-08-22T06:53:51Z</time>
      </trkpt>
      <trkpt lat="46.104483" lon="9.071137">
        <ele>1514.226</ele>
        <time>2020-08-22T06:54:05Z</time>
      </trkpt>
      <trkpt lat="46.104541" lon="9.071050">
        <ele>1516.186</ele>
        <time>2020-08-22T06:54:21Z</time>
      </trkpt>
      <trkpt lat="46.104605" lon="9.070913">
        <ele>1519.563</ele>
        <time>2020-08-22T06:54:39Z</time>
      </trkpt>
      <trkpt lat="46.104632" lon="9.070815">
        <ele>1519.575</ele>
        <time>2020-08-22T06:54:48Z</time>
      </trkpt>
      <trkpt lat="46.104699" lon="9.070601">
        <ele>1521.953</ele>
        <time>2020-08-22T06:55:07Z</time>
      </trkpt>
      <trkpt lat="46.104747" lon="9.070564">
        <ele>1522.350</ele>
        <time>2020-08-22T06:55:16Z</time>
      </trkpt>
      <trkpt lat="46.104764" lon="9.070544">
        <ele>1522.396</ele>
        <time>2020-08-22T06:55:17Z</time>
      </trkpt>
      <trkpt lat="46.104784" lon="9.070518">
        <ele>1522.331</ele>
        <time>2020-08-22T06:55:18Z</time>
      </trkpt>
      <trkpt lat="46.104813" lon="9.070491">
        <ele>1520.424</ele>
        <time>2020-08-22T06:55:19Z</time>
      </trkpt>
      <trkpt lat="46.104839" lon="9.070469">
        <ele>1520.408</ele>
        <time>2020-08-22T06:55:20Z</time>
      </trkpt>
      <trkpt lat="46.105047" lon="9.070248">
        <ele>1517.154</ele>
        <time>2020-08-22T06:55:27Z</time>
      </trkpt>
      <trkpt lat="46.105136" lon="9.070166">
        <ele>1516.694</ele>
        <time>2020-08-22T06:55:31Z</time>
      </trkpt>
      <trkpt lat="46.105160" lon="9.070180">
        <ele>1516.613</ele>
        <time>2020-08-22T06:55:32Z</time>
      </trkpt>
      <trkpt lat="46.105311" lon="9.070293">
        <ele>1514.263</ele>
        <time>2020-08-22T06:55:37Z</time>
      </trkpt>
      <trkpt lat="46.105335" lon="9.070290">
        <ele>1514.210</ele>
        <time>2020-08-22T06:55:38Z</time>
      </trkpt>
      <trkpt lat="46.105354" lon="9.070278">
        <ele>1514.262</ele>
        <time>2020-08-22T06:55:39Z</time>
      </trkpt>
      <trkpt lat="46.105374" lon="9.070267">
        <ele>1514.230</ele>
        <time>2020-08-22T06:55:40Z</time>
      </trkpt>
      <trkpt lat="46.105392" lon="9.070255">
        <ele>1514.247</ele>
        <time>2020-08-22T06:55:41Z</time>
      </trkpt>
      <trkpt lat="46.105480" lon="9.070191">
        <ele>1514.252</ele>
        <time>2020-08-22T06:55:46Z</time>
      </trkpt>
      <trkpt lat="46.105537" lon="9.070219">
        <ele>1514.253</ele>
        <time>2020-08-22T06:55:55Z</time>
      </trkpt>
      <trkpt lat="46.105546" lon="9.070140">
        <ele>1514.208</ele>
        <time>2020-08-22T06:56:06Z</time>
      </trkpt>
      <trkpt lat="46.105540" lon="9.070115">
        <ele>1514.208</ele>
        <time>2020-08-22T06:56:07Z</time>
      </trkpt>
      <trkpt lat="46.105538" lon="9.070090">
        <ele>1514.260</ele>
        <time>2020-08-22T06:56:08Z</time>
      </trkpt>
      <trkpt lat="46.105536" lon="9.070062">
        <ele>1514.290</ele>
        <time>2020-08-22T06:56:09Z</time>
      </trkpt>
      <trkpt lat="46.105535" lon="9.070035">
        <ele>1514.219</ele>
        <time>2020-08-22T06:56:10Z</time>
      </trkpt>
      <trkpt lat="46.105536" lon="9.070009">
        <ele>1514.259</ele>
        <time>2020-08-22T06:56:11Z</time>
      </trkpt>
      <trkpt lat="46.105541" lon="9.069988">
        <ele>1514.256</ele>
        <time>2020-08-22T06:56:12Z</time>
      </trkpt>
      <trkpt lat="46.105552" lon="9.069970">
        <ele>1513.788</ele>
        <time>2020-08-22T06:56:13Z</time>
      </trkpt>
      <trkpt lat="46.105568" lon="9.069956">
        <ele>1513.246</ele>
        <time>2020-08-22T06:56:14Z</time>
      </trkpt>
      <trkpt lat="46.105589" lon="9.069943">
        <ele>1513.293</ele>
        <time>2020-08-22T06:56:15Z</time>
      </trkpt>
      <trkpt lat="46.105672" lon="9.069902">
        <ele>1512.753</ele>
        <time>2020-08-22T06:56:20Z</time>
      </trkpt>
      <trkpt lat="46.105711" lon="9.069937">
        <ele>1512.704</ele>
        <time>2020-08-22T06:56:22Z</time>
      </trkpt>
      <trkpt lat="46.105729" lon="9.069937">
        <ele>1512.214</ele>
        <time>2020-08-22T06:56:23Z</time>
      </trkpt>
      <trkpt lat="46.105790" lon="9.069941">
        <ele>1514.208</ele>
        <time>2020-08-22T06:56:33Z</time>
      </trkpt>
      <trkpt lat="46.105866" lon="9.069940">
        <ele>1514.630</ele>
        <time>2020-08-22T06:56:48Z</time>
      </trkpt>
      <trkpt lat="46.105866" lon="9.069902">
        <ele>1515.170</ele>
        <time>2020-08-22T06:56:51Z</time>
      </trkpt>
      <trkpt lat="46.105866" lon="9.069890">
        <ele>1515.169</ele>
        <time>2020-08-22T06:56:52Z</time>
      </trkpt>
      <trkpt lat="46.105830" lon="9.069714">
        <ele>1513.739</ele>
        <time>2020-08-22T06:57:04Z</time>
      </trkpt>
      <trkpt lat="46.105755" lon="9.069586">
        <ele>1513.226</ele>
        <time>2020-08-22T06:57:12Z</time>
      </trkpt>
      <trkpt lat="46.105581" lon="9.069270">
        <ele>1512.798</ele>
        <time>2020-08-22T06:57:23Z</time>
      </trkpt>
      <trkpt lat="46.105542" lon="9.069033">
        <ele>1514.296</ele>
        <time>2020-08-22T06:57:33Z</time>
      </trkpt>
      <trkpt lat="46.105533" lon="9.068934">
        <ele>1515.613</ele>
        <time>2020-08-22T06:57:43Z</time>
      </trkpt>
      <trkpt lat="46.105537" lon="9.068760">
        <ele>1518.581</ele>
        <time>2020-08-22T06:58:01Z</time>
      </trkpt>
      <trkpt lat="46.105577" lon="9.068681">
        <ele>1519.061</ele>
        <time>2020-08-22T06:58:12Z</time>
      </trkpt>
      <trkpt lat="46.105593" lon="9.068666">
        <ele>1519.017</ele>
        <time>2020-08-22T06:58:13Z</time>
      </trkpt>
      <trkpt lat="46.105657" lon="9.068589">
        <ele>1517.508</ele>
        <time>2020-08-22T06:58:17Z</time>
      </trkpt>
      <trkpt lat="46.105689" lon="9.068486">
        <ele>1516.183</ele>
        <time>2020-08-22T06:58:20Z</time>
      </trkpt>
      <trkpt lat="46.105802" lon="9.068241">
        <ele>1514.643</ele>
        <time>2020-08-22T06:58:28Z</time>
      </trkpt>
      <trkpt lat="46.105862" lon="9.068085">
        <ele>1516.112</ele>
        <time>2020-08-22T06:58:37Z</time>
      </trkpt>
      <trkpt lat="46.105902" lon="9.068026">
        <ele>1517.522</ele>
        <time>2020-08-22T06:58:50Z</time>
      </trkpt>
      <trkpt lat="46.105903" lon="9.067997">
        <ele>1517.579</ele>
        <time>2020-08-22T06:58:51Z</time>
      </trkpt>
      <trkpt lat="46.105907" lon="9.067960">
        <ele>1517.581</ele>
        <time>2020-08-22T06:58:52Z</time>
      </trkpt>
      <trkpt lat="46.105914" lon="9.067918">
        <ele>1517.579</ele>
        <time>2020-08-22T06:58:53Z</time>
      </trkpt>
      <trkpt lat="46.105921" lon="9.067872">
        <ele>1516.176</ele>
        <time>2020-08-22T06:58:54Z</time>
      </trkpt>
      <trkpt lat="46.105933" lon="9.067826">
        <ele>1515.681</ele>
        <time>2020-08-22T06:58:55Z</time>
      </trkpt>
      <trkpt lat="46.105951" lon="9.067780">
        <ele>1514.661</ele>
        <time>2020-08-22T06:58:56Z</time>
      </trkpt>
      <trkpt lat="46.105974" lon="9.067741">
        <ele>1514.217</ele>
        <time>2020-08-22T06:58:57Z</time>
      </trkpt>
      <trkpt lat="46.106002" lon="9.067708">
        <ele>1514.208</ele>
        <time>2020-08-22T06:58:58Z</time>
      </trkpt>
      <trkpt lat="46.106026" lon="9.067685">
        <ele>1513.713</ele>
        <time>2020-08-22T06:58:59Z</time>
      </trkpt>
      <trkpt lat="46.106115" lon="9.067613">
        <ele>1515.653</ele>
        <time>2020-08-22T06:59:06Z</time>
      </trkpt>
      <trkpt lat="46.106339" lon="9.067385">
        <ele>1516.612</ele>
        <time>2020-08-22T06:59:21Z</time>
      </trkpt>
      <trkpt lat="46.106507" lon="9.067251">
        <ele>1516.642</ele>
        <time>2020-08-22T06:59:27Z</time>
      </trkpt>
      <trkpt lat="46.106541" lon="9.067235">
        <ele>1515.169</ele>
        <time>2020-08-22T06:59:28Z</time>
      </trkpt>
      <trkpt lat="46.106589" lon="9.067212">
        <ele>1515.181</ele>
        <time>2020-08-22T06:59:29Z</time>
      </trkpt>
      <trkpt lat="46.106614" lon="9.067188">
        <ele>1515.179</ele>
        <time>2020-08-22T06:59:30Z</time>
      </trkpt>
      <trkpt lat="46.106633" lon="9.067154">
        <ele>1515.136</ele>
        <time>2020-08-22T06:59:31Z</time>
      </trkpt>
      <trkpt lat="46.106642" lon="9.067128">
        <ele>1515.112</ele>
        <time>2020-08-22T06:59:32Z</time>
      </trkpt>
      <trkpt lat="46.106645" lon="9.067106">
        <ele>1515.132</ele>
        <time>2020-08-22T06:59:33Z</time>
      </trkpt>
      <trkpt lat="46.106646" lon="9.067039">
        <ele>1516.605</ele>
        <time>2020-08-22T06:59:42Z</time>
      </trkpt>
      <trkpt lat="46.106677" lon="9.066876">
        <ele>1519.508</ele>
        <time>2020-08-22T06:59:58Z</time>
      </trkpt>
      <trkpt lat="46.106705" lon="9.066729">
        <ele>1519.996</ele>
        <time>2020-08-22T07:00:09Z</time>
      </trkpt>
      <trkpt lat="46.106746" lon="9.066341">
        <ele>1520.966</ele>
        <time>2020-08-22T07:00:23Z</time>
      </trkpt>
      <trkpt lat="46.106807" lon="9.065943">
        <ele>1522.395</ele>
        <time>2020-08-22T07:00:38Z</time>
      </trkpt>
      <trkpt lat="46.106830" lon="9.065786">
        <ele>1521.445</ele>
        <time>2020-08-22T07:00:49Z</time>
      </trkpt>
      <trkpt lat="46.106922" lon="9.065368">
        <ele>1520.432</ele>
        <time>2020-08-22T07:01:00Z</time>
      </trkpt>
      <trkpt lat="46.107206" lon="9.064940">
        <ele>1519.024</ele>
        <time>2020-08-22T07:01:13Z</time>
      </trkpt>
      <trkpt lat="46.107241" lon="9.064908">
        <ele>1518.592</ele>
        <time>2020-08-22T07:01:14Z</time>
      </trkpt>
      <trkpt lat="46.107278" lon="9.064885">
        <ele>1518.529</ele>
        <time>2020-08-22T07:01:15Z</time>
      </trkpt>
      <trkpt lat="46.107312" lon="9.064874">
        <ele>1518.516</ele>
        <time>2020-08-22T07:01:16Z</time>
      </trkpt>
      <trkpt lat="46.107576" lon="9.064924">
        <ele>1517.576</ele>
        <time>2020-08-22T07:01:26Z</time>
      </trkpt>
      <trkpt lat="46.107624" lon="9.064918">
        <ele>1517.113</ele>
        <time>2020-08-22T07:01:32Z</time>
      </trkpt>
      <trkpt lat="46.107632" lon="9.064906">
        <ele>1517.108</ele>
        <time>2020-08-22T07:01:33Z</time>
      </trkpt>
      <trkpt lat="46.107639" lon="9.064881">
        <ele>1516.676</ele>
        <time>2020-08-22T07:01:35Z</time>
      </trkpt>
      <trkpt lat="46.107633" lon="9.064866">
        <ele>1516.646</ele>
        <time>2020-08-22T07:01:36Z</time>
      </trkpt>
      <trkpt lat="46.107591" lon="9.064761">
        <ele>1516.645</ele>
        <time>2020-08-22T07:01:45Z</time>
      </trkpt>
      <trkpt lat="46.107527" lon="9.064378">
        <ele>1516.665</ele>
        <time>2020-08-22T07:01:57Z</time>
      </trkpt>
      <trkpt lat="46.107391" lon="9.064113">
        <ele>1513.252</ele>
        <time>2020-08-22T07:02:05Z</time>
      </trkpt>
      <trkpt lat="46.107159" lon="9.063628">
        <ele>1510.364</ele>
        <time>2020-08-22T07:02:16Z</time>
      </trkpt>
      <trkpt lat="46.107127" lon="9.063582">
        <ele>1510.322</ele>
        <time>2020-08-22T07:02:17Z</time>
      </trkpt>
      <trkpt lat="46.107097" lon="9.063532">
        <ele>1509.819</ele>
        <time>2020-08-22T07:02:18Z</time>
      </trkpt>
      <trkpt lat="46.106911" lon="9.063259">
        <ele>1509.866</ele>
        <time>2020-08-22T07:02:27Z</time>
      </trkpt>
      <trkpt lat="46.106905" lon="9.063227">
        <ele>1511.329</ele>
        <time>2020-08-22T07:02:32Z</time>
      </trkpt>
      <trkpt lat="46.106924" lon="9.063215">
        <ele>1511.321</ele>
        <time>2020-08-22T07:02:50Z</time>
      </trkpt>
      <trkpt lat="46.106918" lon="9.063202">
        <ele>1511.308</ele>
        <time>2020-08-22T07:03:19Z</time>
      </trkpt>
      <trkpt lat="46.106927" lon="9.063158">
        <ele>1511.331</ele>
        <time>2020-08-22T07:03:33Z</time>
      </trkpt>
      <trkpt lat="46.106938" lon="9.063139">
        <ele>1511.341</ele>
        <time>2020-08-22T07:03:34Z</time>
      </trkpt>
      <trkpt lat="46.106954" lon="9.063121">
        <ele>1511.370</ele>
        <time>2020-08-22T07:03:35Z</time>
      </trkpt>
      <trkpt lat="46.106975" lon="9.063104">
        <ele>1511.380</ele>
        <time>2020-08-22T07:03:36Z</time>
      </trkpt>
      <trkpt lat="46.107002" lon="9.063081">
        <ele>1510.327</ele>
        <time>2020-08-22T07:03:37Z</time>
      </trkpt>
      <trkpt lat="46.107031" lon="9.063057">
        <ele>1510.349</ele>
        <time>2020-08-22T07:03:38Z</time>
      </trkpt>
      <trkpt lat="46.107063" lon="9.063034">
        <ele>1509.837</ele>
        <time>2020-08-22T07:03:39Z</time>
      </trkpt>
      <trkpt lat="46.107301" lon="9.062881">
        <ele>1508.484</ele>
        <time>2020-08-22T07:03:48Z</time>
      </trkpt>
      <trkpt lat="46.107436" lon="9.062837">
        <ele>1507.972</ele>
        <time>2020-08-22T07:03:53Z</time>
      </trkpt>
      <trkpt lat="46.107459" lon="9.062820">
        <ele>1507.413</ele>
        <time>2020-08-22T07:03:54Z</time>
      </trkpt>
      <trkpt lat="46.107486" lon="9.062805">
        <ele>1507.414</ele>
        <time>2020-08-22T07:03:55Z</time>
      </trkpt>
      <trkpt lat="46.107870" lon="9.062734">
        <ele>1507.908</ele>
        <time>2020-08-22T07:04:09Z</time>
      </trkpt>
      <trkpt lat="46.107942" lon="9.062725">
        <ele>1507.462</ele>
        <time>2020-08-22T07:04:12Z</time>
      </trkpt>
      <trkpt lat="46.108006" lon="9.062701">
        <ele>1506.592</ele>
        <time>2020-08-22T07:04:14Z</time>
      </trkpt>
      <trkpt lat="46.108371" lon="9.062673">
        <ele>1504.631</ele>
        <time>2020-08-22T07:04:25Z</time>
      </trkpt>
      <trkpt lat="46.108439" lon="9.062692">
        <ele>1504.661</ele>
        <time>2020-08-22T07:04:29Z</time>
      </trkpt>
      <trkpt lat="46.108644" lon="9.062674">
        <ele>1504.658</ele>
        <time>2020-08-22T07:04:41Z</time>
      </trkpt>
      <trkpt lat="46.108872" lon="9.062753">
        <ele>1507.420</ele>
        <time>2020-08-22T07:04:56Z</time>
      </trkpt>
      <trkpt lat="46.109153" lon="9.062780">
        <ele>1509.488</ele>
        <time>2020-08-22T07:05:14Z</time>
      </trkpt>
      <trkpt lat="46.109248" lon="9.062776">
        <ele>1509.885</ele>
        <time>2020-08-22T07:05:20Z</time>
      </trkpt>
      <trkpt lat="46.109261" lon="9.062761">
        <ele>1509.871</ele>
        <time>2020-08-22T07:05:21Z</time>
      </trkpt>
      <trkpt lat="46.109273" lon="9.062744">
        <ele>1509.841</ele>
        <time>2020-08-22T07:05:22Z</time>
      </trkpt>
      <trkpt lat="46.109281" lon="9.062728">
        <ele>1509.815</ele>
        <time>2020-08-22T07:05:23Z</time>
      </trkpt>
      <trkpt lat="46.109293" lon="9.062717">
        <ele>1509.808</ele>
        <time>2020-08-22T07:05:24Z</time>
      </trkpt>
      <trkpt lat="46.109306" lon="9.062709">
        <ele>1509.872</ele>
        <time>2020-08-22T07:05:25Z</time>
      </trkpt>
      <trkpt lat="46.109319" lon="9.062703">
        <ele>1510.822</ele>
        <time>2020-08-22T07:05:26Z</time>
      </trkpt>
      <trkpt lat="46.109331" lon="9.062698">
        <ele>1510.821</ele>
        <time>2020-08-22T07:05:27Z</time>
      </trkpt>
      <trkpt lat="46.109343" lon="9.062693">
        <ele>1510.811</ele>
        <time>2020-08-22T07:05:28Z</time>
      </trkpt>
      <trkpt lat="46.109354" lon="9.062678">
        <ele>1510.818</ele>
        <time>2020-08-22T07:05:29Z</time>
      </trkpt>
      <trkpt lat="46.109361" lon="9.062659">
        <ele>1510.880</ele>
        <time>2020-08-22T07:05:30Z</time>
      </trkpt>
      <trkpt lat="46.109369" lon="9.062640">
        <ele>1510.848</ele>
        <time>2020-08-22T07:05:31Z</time>
      </trkpt>
      <trkpt lat="46.109378" lon="9.062626">
        <ele>1510.835</ele>
        <time>2020-08-22T07:05:32Z</time>
      </trkpt>
      <trkpt lat="46.109388" lon="9.062611">
        <ele>1510.836</ele>
        <time>2020-08-22T07:05:33Z</time>
      </trkpt>
      <trkpt lat="46.109563" lon="9.062374">
        <ele>1510.817</ele>
        <time>2020-08-22T07:05:44Z</time>
      </trkpt>
      <trkpt lat="46.109715" lon="9.062253">
        <ele>1507.418</ele>
        <time>2020-08-22T07:05:50Z</time>
      </trkpt>
      <trkpt lat="46.109811" lon="9.062197">
        <ele>1505.508</ele>
        <time>2020-08-22T07:05:54Z</time>
      </trkpt>
      <trkpt lat="46.109919" lon="9.062152">
        <ele>1502.238</ele>
        <time>2020-08-22T07:05:58Z</time>
      </trkpt>
      <trkpt lat="46.109950" lon="9.062151">
        <ele>1502.228</ele>
        <time>2020-08-22T07:05:59Z</time>
      </trkpt>
      <trkpt lat="46.110060" lon="9.062152">
        <ele>1500.717</ele>
        <time>2020-08-22T07:06:02Z</time>
      </trkpt>
      <trkpt lat="46.110282" lon="9.062252">
        <ele>1497.347</ele>
        <time>2020-08-22T07:06:10Z</time>
      </trkpt>
      <trkpt lat="46.110358" lon="9.062303">
        <ele>1495.924</ele>
        <time>2020-08-22T07:06:15Z</time>
      </trkpt>
      <trkpt lat="46.110372" lon="9.062321">
        <ele>1495.496</ele>
        <time>2020-08-22T07:06:16Z</time>
      </trkpt>
      <trkpt lat="46.110381" lon="9.062336">
        <ele>1494.914</ele>
        <time>2020-08-22T07:06:17Z</time>
      </trkpt>
      <trkpt lat="46.110392" lon="9.062347">
        <ele>1494.571</ele>
        <time>2020-08-22T07:06:18Z</time>
      </trkpt>
      <trkpt lat="46.110407" lon="9.062354">
        <ele>1494.554</ele>
        <time>2020-08-22T07:06:19Z</time>
      </trkpt>
      <trkpt lat="46.110427" lon="9.062356">
        <ele>1493.556</ele>
        <time>2020-08-22T07:06:20Z</time>
      </trkpt>
      <trkpt lat="46.110449" lon="9.062356">
        <ele>1493.511</ele>
        <time>2020-08-22T07:06:21Z</time>
      </trkpt>
      <trkpt lat="46.110476" lon="9.062362">
        <ele>1493.008</ele>
        <time>2020-08-22T07:06:22Z</time>
      </trkpt>
      <trkpt lat="46.110505" lon="9.062371">
        <ele>1493.070</ele>
        <time>2020-08-22T07:06:23Z</time>
      </trkpt>
      <trkpt lat="46.110590" lon="9.062403">
        <ele>1492.510</ele>
        <time>2020-08-22T07:06:31Z</time>
      </trkpt>
      <trkpt lat="46.110661" lon="9.062425">
        <ele>1494.059</ele>
        <time>2020-08-22T07:06:41Z</time>
      </trkpt>
      <trkpt lat="46.110665" lon="9.062328">
        <ele>1494.999</ele>
        <time>2020-08-22T07:06:48Z</time>
      </trkpt>
      <trkpt lat="46.110600" lon="9.062134">
        <ele>1497.826</ele>
        <time>2020-08-22T07:07:08Z</time>
      </trkpt>
      <trkpt lat="46.110530" lon="9.061923">
        <ele>1499.728</ele>
        <time>2020-08-22T07:07:24Z</time>
      </trkpt>
      <trkpt lat="46.110502" lon="9.061692">
        <ele>1501.756</ele>
        <time>2020-08-22T07:07:42Z</time>
      </trkpt>
      <trkpt lat="46.110542" lon="9.061462">
        <ele>1504.153</ele>
        <time>2020-08-22T07:07:59Z</time>
      </trkpt>
      <trkpt lat="46.110483" lon="9.061295">
        <ele>1502.667</ele>
        <time>2020-08-22T07:08:09Z</time>
      </trkpt>
      <trkpt lat="46.110450" lon="9.061043">
        <ele>1500.781</ele>
        <time>2020-08-22T07:08:13Z</time>
      </trkpt>
      <trkpt lat="46.110435" lon="9.060991">
        <ele>1500.719</ele>
        <time>2020-08-22T07:08:14Z</time>
      </trkpt>
      <trkpt lat="46.110418" lon="9.060964">
        <ele>1500.708</ele>
        <time>2020-08-22T07:08:15Z</time>
      </trkpt>
      <trkpt lat="46.110403" lon="9.060951">
        <ele>1500.731</ele>
        <time>2020-08-22T07:08:16Z</time>
      </trkpt>
      <trkpt lat="46.110391" lon="9.060942">
        <ele>1500.781</ele>
        <time>2020-08-22T07:08:17Z</time>
      </trkpt>
      <trkpt lat="46.110378" lon="9.060931">
        <ele>1500.770</ele>
        <time>2020-08-22T07:08:18Z</time>
      </trkpt>
      <trkpt lat="46.110358" lon="9.060921">
        <ele>1500.730</ele>
        <time>2020-08-22T07:08:19Z</time>
      </trkpt>
      <trkpt lat="46.110336" lon="9.060898">
        <ele>1500.767</ele>
        <time>2020-08-22T07:08:20Z</time>
      </trkpt>
      <trkpt lat="46.110319" lon="9.060869">
        <ele>1500.719</ele>
        <time>2020-08-22T07:08:21Z</time>
      </trkpt>
      <trkpt lat="46.110302" lon="9.060838">
        <ele>1500.717</ele>
        <time>2020-08-22T07:08:22Z</time>
      </trkpt>
      <trkpt lat="46.110230" lon="9.060420">
        <ele>1500.764</ele>
        <time>2020-08-22T07:08:35Z</time>
      </trkpt>
      <trkpt lat="46.110276" lon="9.060317">
        <ele>1502.293</ele>
        <time>2020-08-22T07:08:40Z</time>
      </trkpt>
      <trkpt lat="46.110376" lon="9.060158">
        <ele>1504.165</ele>
        <time>2020-08-22T07:08:54Z</time>
      </trkpt>
      <trkpt lat="46.110334" lon="9.060026">
        <ele>1505.521</ele>
        <time>2020-08-22T07:09:09Z</time>
      </trkpt>
      <trkpt lat="46.110263" lon="9.060011">
        <ele>1507.008</ele>
        <time>2020-08-22T07:09:20Z</time>
      </trkpt>
      <trkpt lat="46.110247" lon="9.059996">
        <ele>1507.084</ele>
        <time>2020-08-22T07:09:21Z</time>
      </trkpt>
      <trkpt lat="46.110048" lon="9.059797">
        <ele>1507.064</ele>
        <time>2020-08-22T07:09:31Z</time>
      </trkpt>
      <trkpt lat="46.109856" lon="9.059582">
        <ele>1507.453</ele>
        <time>2020-08-22T07:09:42Z</time>
      </trkpt>
      <trkpt lat="46.109660" lon="9.059314">
        <ele>1508.973</ele>
        <time>2020-08-22T07:09:56Z</time>
      </trkpt>
      <trkpt lat="46.109651" lon="9.058952">
        <ele>1510.880</ele>
        <time>2020-08-22T07:10:12Z</time>
      </trkpt>
      <trkpt lat="46.109705" lon="9.058455">
        <ele>1512.762</ele>
        <time>2020-08-22T07:10:31Z</time>
      </trkpt>
      <trkpt lat="46.109729" lon="9.058162">
        <ele>1515.120</ele>
        <time>2020-08-22T07:10:45Z</time>
      </trkpt>
      <trkpt lat="46.109690" lon="9.057798">
        <ele>1517.197</ele>
        <time>2020-08-22T07:11:02Z</time>
      </trkpt>
      <trkpt lat="46.109597" lon="9.057436">
        <ele>1518.514</ele>
        <time>2020-08-22T07:11:18Z</time>
      </trkpt>
      <trkpt lat="46.109508" lon="9.057137">
        <ele>1520.454</ele>
        <time>2020-08-22T07:11:32Z</time>
      </trkpt>
      <trkpt lat="46.109445" lon="9.056858">
        <ele>1523.309</ele>
        <time>2020-08-22T07:11:48Z</time>
      </trkpt>
      <trkpt lat="46.109422" lon="9.056718">
        <ele>1524.308</ele>
        <time>2020-08-22T07:11:56Z</time>
      </trkpt>
      <trkpt lat="46.109424" lon="9.056703">
        <ele>1524.326</ele>
        <time>2020-08-22T07:11:57Z</time>
      </trkpt>
      <trkpt lat="46.109422" lon="9.056686">
        <ele>1525.226</ele>
        <time>2020-08-22T07:11:58Z</time>
      </trkpt>
      <trkpt lat="46.109422" lon="9.056669">
        <ele>1525.275</ele>
        <time>2020-08-22T07:11:59Z</time>
      </trkpt>
      <trkpt lat="46.109421" lon="9.056652">
        <ele>1525.275</ele>
        <time>2020-08-22T07:12:00Z</time>
      </trkpt>
      <trkpt lat="46.109416" lon="9.056637">
        <ele>1525.222</ele>
        <time>2020-08-22T07:12:01Z</time>
      </trkpt>
      <trkpt lat="46.109412" lon="9.056622">
        <ele>1525.224</ele>
        <time>2020-08-22T07:12:02Z</time>
      </trkpt>
      <trkpt lat="46.109406" lon="9.056607">
        <ele>1525.722</ele>
        <time>2020-08-22T07:12:03Z</time>
      </trkpt>
      <trkpt lat="46.109402" lon="9.056593">
        <ele>1525.769</ele>
        <time>2020-08-22T07:12:04Z</time>
      </trkpt>
      <trkpt lat="46.109399" lon="9.056576">
        <ele>1525.718</ele>
        <time>2020-08-22T07:12:05Z</time>
      </trkpt>
      <trkpt lat="46.109399" lon="9.056558">
        <ele>1526.298</ele>
        <time>2020-08-22T07:12:06Z</time>
      </trkpt>
      <trkpt lat="46.109393" lon="9.056525">
        <ele>1526.717</ele>
        <time>2020-08-22T07:12:08Z</time>
      </trkpt>
      <trkpt lat="46.109387" lon="9.056508">
        <ele>1526.708</ele>
        <time>2020-08-22T07:12:09Z</time>
      </trkpt>
      <trkpt lat="46.109382" lon="9.056488">
        <ele>1526.756</ele>
        <time>2020-08-22T07:12:10Z</time>
      </trkpt>
      <trkpt lat="46.109380" lon="9.056468">
        <ele>1526.726</ele>
        <time>2020-08-22T07:12:11Z</time>
      </trkpt>
      <trkpt lat="46.109378" lon="9.056448">
        <ele>1526.735</ele>
        <time>2020-08-22T07:12:12Z</time>
      </trkpt>
      <trkpt lat="46.109374" lon="9.056429">
        <ele>1527.145</ele>
        <time>2020-08-22T07:12:13Z</time>
      </trkpt>
      <trkpt lat="46.109359" lon="9.056352">
        <ele>1527.182</ele>
        <time>2020-08-22T07:12:18Z</time>
      </trkpt>
      <trkpt lat="46.109357" lon="9.056335">
        <ele>1527.154</ele>
        <time>2020-08-22T07:12:19Z</time>
      </trkpt>
      <trkpt lat="46.109353" lon="9.056318">
        <ele>1527.622</ele>
        <time>2020-08-22T07:12:20Z</time>
      </trkpt>
      <trkpt lat="46.109349" lon="9.056300">
        <ele>1527.649</ele>
        <time>2020-08-22T07:12:21Z</time>
      </trkpt>
      <trkpt lat="46.109345" lon="9.056288">
        <ele>1527.678</ele>
        <time>2020-08-22T07:12:22Z</time>
      </trkpt>
      <trkpt lat="46.109276" lon="9.056057">
        <ele>1529.133</ele>
        <time>2020-08-22T07:12:35Z</time>
      </trkpt>
      <trkpt lat="46.109199" lon="9.055841">
        <ele>1531.526</ele>
        <time>2020-08-22T07:12:50Z</time>
      </trkpt>
      <trkpt lat="46.109177" lon="9.055759">
        <ele>1532.908</ele>
        <time>2020-08-22T07:12:56Z</time>
      </trkpt>
      <trkpt lat="46.109123" lon="9.055651">
        <ele>1533.992</ele>
        <time>2020-08-22T07:13:05Z</time>
      </trkpt>
      <trkpt lat="46.109119" lon="9.055637">
        <ele>1533.952</ele>
        <time>2020-08-22T07:13:06Z</time>
      </trkpt>
      <trkpt lat="46.109115" lon="9.055624">
        <ele>1534.471</ele>
        <time>2020-08-22T07:13:07Z</time>
      </trkpt>
      <trkpt lat="46.109106" lon="9.055599">
        <ele>1534.441</ele>
        <time>2020-08-22T07:13:09Z</time>
      </trkpt>
      <trkpt lat="46.109101" lon="9.055585">
        <ele>1534.848</ele>
        <time>2020-08-22T07:13:10Z</time>
      </trkpt>
      <trkpt lat="46.109095" lon="9.055570">
        <ele>1534.830</ele>
        <time>2020-08-22T07:13:11Z</time>
      </trkpt>
      <trkpt lat="46.109089" lon="9.055554">
        <ele>1535.388</ele>
        <time>2020-08-22T07:13:12Z</time>
      </trkpt>
      <trkpt lat="46.109086" lon="9.055536">
        <ele>1535.395</ele>
        <time>2020-08-22T07:13:13Z</time>
      </trkpt>
      <trkpt lat="46.109082" lon="9.055520">
        <ele>1535.312</ele>
        <time>2020-08-22T07:13:14Z</time>
      </trkpt>
      <trkpt lat="46.109077" lon="9.055506">
        <ele>1535.832</ele>
        <time>2020-08-22T07:13:15Z</time>
      </trkpt>
      <trkpt lat="46.108964" lon="9.055295">
        <ele>1537.205</ele>
        <time>2020-08-22T07:13:30Z</time>
      </trkpt>
      <trkpt lat="46.108938" lon="9.055218">
        <ele>1537.708</ele>
        <time>2020-08-22T07:13:35Z</time>
      </trkpt>
      <trkpt lat="46.108928" lon="9.055205">
        <ele>1537.776</ele>
        <time>2020-08-22T07:13:36Z</time>
      </trkpt>
      <trkpt lat="46.108922" lon="9.055193">
        <ele>1537.786</ele>
        <time>2020-08-22T07:13:37Z</time>
      </trkpt>
      <trkpt lat="46.108916" lon="9.055176">
        <ele>1538.225</ele>
        <time>2020-08-22T07:13:38Z</time>
      </trkpt>
      <trkpt lat="46.108908" lon="9.055160">
        <ele>1538.275</ele>
        <time>2020-08-22T07:13:39Z</time>
      </trkpt>
      <trkpt lat="46.108901" lon="9.055144">
        <ele>1538.252</ele>
        <time>2020-08-22T07:13:40Z</time>
      </trkpt>
      <trkpt lat="46.108892" lon="9.055127">
        <ele>1538.214</ele>
        <time>2020-08-22T07:13:41Z</time>
      </trkpt>
      <trkpt lat="46.108884" lon="9.055111">
        <ele>1538.252</ele>
        <time>2020-08-22T07:13:42Z</time>
      </trkpt>
      <trkpt lat="46.108756" lon="9.054811">
        <ele>1540.659</ele>
        <time>2020-08-22T07:14:00Z</time>
      </trkpt>
      <trkpt lat="46.108645" lon="9.054551">
        <ele>1543.098</ele>
        <time>2020-08-22T07:14:17Z</time>
      </trkpt>
      <trkpt lat="46.108564" lon="9.054223">
        <ele>1544.915</ele>
        <time>2020-08-22T07:14:34Z</time>
      </trkpt>
      <trkpt lat="46.108727" lon="9.053895">
        <ele>1545.426</ele>
        <time>2020-08-22T07:14:49Z</time>
      </trkpt>
      <trkpt lat="46.108826" lon="9.053832">
        <ele>1545.408</ele>
        <time>2020-08-22T07:14:54Z</time>
      </trkpt>
      <trkpt lat="46.109185" lon="9.053862">
        <ele>1544.974</ele>
        <time>2020-08-22T07:15:07Z</time>
      </trkpt>
      <trkpt lat="46.109351" lon="9.053552">
        <ele>1545.474</ele>
        <time>2020-08-22T07:15:17Z</time>
      </trkpt>
      <trkpt lat="46.109465" lon="9.053219">
        <ele>1545.423</ele>
        <time>2020-08-22T07:15:29Z</time>
      </trkpt>
      <trkpt lat="46.109670" lon="9.052920">
        <ele>1546.493</ele>
        <time>2020-08-22T07:15:43Z</time>
      </trkpt>
      <trkpt lat="46.109944" lon="9.052608">
        <ele>1546.490</ele>
        <time>2020-08-22T07:15:57Z</time>
      </trkpt>
      <trkpt lat="46.110290" lon="9.052165">
        <ele>1546.912</ele>
        <time>2020-08-22T07:16:13Z</time>
      </trkpt>
      <trkpt lat="46.110458" lon="9.051986">
        <ele>1546.970</ele>
        <time>2020-08-22T07:16:20Z</time>
      </trkpt>
      <trkpt lat="46.110462" lon="9.051943">
        <ele>1546.967</ele>
        <time>2020-08-22T07:16:21Z</time>
      </trkpt>
      <trkpt lat="46.110462" lon="9.051910">
        <ele>1546.918</ele>
        <time>2020-08-22T07:16:22Z</time>
      </trkpt>
      <trkpt lat="46.110579" lon="9.051516">
        <ele>1547.898</ele>
        <time>2020-08-22T07:16:36Z</time>
      </trkpt>
      <trkpt lat="46.110832" lon="9.051219">
        <ele>1549.317</ele>
        <time>2020-08-22T07:16:50Z</time>
      </trkpt>
      <trkpt lat="46.110940" lon="9.051139">
        <ele>1547.808</ele>
        <time>2020-08-22T07:16:53Z</time>
      </trkpt>
      <trkpt lat="46.111113" lon="9.050943">
        <ele>1549.726</ele>
        <time>2020-08-22T07:17:05Z</time>
      </trkpt>
      <trkpt lat="46.111207" lon="9.050886">
        <ele>1550.796</ele>
        <time>2020-08-22T07:17:19Z</time>
      </trkpt>
      <trkpt lat="46.111227" lon="9.050832">
        <ele>1550.745</ele>
        <time>2020-08-22T07:17:41Z</time>
      </trkpt>
      <trkpt lat="46.111226" lon="9.050813">
        <ele>1550.715</ele>
        <time>2020-08-22T07:17:42Z</time>
      </trkpt>
      <trkpt lat="46.111229" lon="9.050787">
        <ele>1550.762</ele>
        <time>2020-08-22T07:17:43Z</time>
      </trkpt>
      <trkpt lat="46.111230" lon="9.050756">
        <ele>1550.744</ele>
        <time>2020-08-22T07:17:44Z</time>
      </trkpt>
      <trkpt lat="46.111231" lon="9.050721">
        <ele>1550.712</ele>
        <time>2020-08-22T07:17:45Z</time>
      </trkpt>
      <trkpt lat="46.111234" lon="9.050642">
        <ele>1549.399</ele>
        <time>2020-08-22T07:17:47Z</time>
      </trkpt>
      <trkpt lat="46.111257" lon="9.050505">
        <ele>1547.819</ele>
        <time>2020-08-22T07:17:50Z</time>
      </trkpt>
      <trkpt lat="46.111560" lon="9.050172">
        <ele>1545.909</ele>
        <time>2020-08-22T07:18:01Z</time>
      </trkpt>
      <trkpt lat="46.111593" lon="9.049842">
        <ele>1547.819</ele>
        <time>2020-08-22T07:18:12Z</time>
      </trkpt>
      <trkpt lat="46.111582" lon="9.049730">
        <ele>1548.808</ele>
        <time>2020-08-22T07:18:17Z</time>
      </trkpt>
      <trkpt lat="46.111582" lon="9.049708">
        <ele>1548.846</ele>
        <time>2020-08-22T07:18:18Z</time>
      </trkpt>
      <trkpt lat="46.111581" lon="9.049682">
        <ele>1549.376</ele>
        <time>2020-08-22T07:18:19Z</time>
      </trkpt>
      <trkpt lat="46.111701" lon="9.049412">
        <ele>1550.725</ele>
        <time>2020-08-22T07:18:33Z</time>
      </trkpt>
      <trkpt lat="46.111808" lon="9.049147">
        <ele>1552.135</ele>
        <time>2020-08-22T07:18:48Z</time>
      </trkpt>
      <trkpt lat="46.111853" lon="9.048758">
        <ele>1553.172</ele>
        <time>2020-08-22T07:19:03Z</time>
      </trkpt>
      <trkpt lat="46.111874" lon="9.048686">
        <ele>1553.184</ele>
        <time>2020-08-22T07:19:07Z</time>
      </trkpt>
      <trkpt lat="46.111882" lon="9.048673">
        <ele>1553.132</ele>
        <time>2020-08-22T07:19:08Z</time>
      </trkpt>
      <trkpt lat="46.111890" lon="9.048656">
        <ele>1553.189</ele>
        <time>2020-08-22T07:19:09Z</time>
      </trkpt>
      <trkpt lat="46.111901" lon="9.048637">
        <ele>1554.164</ele>
        <time>2020-08-22T07:19:10Z</time>
      </trkpt>
      <trkpt lat="46.111914" lon="9.048617">
        <ele>1553.606</ele>
        <time>2020-08-22T07:19:11Z</time>
      </trkpt>
      <trkpt lat="46.112072" lon="9.048238">
        <ele>1555.016</ele>
        <time>2020-08-22T07:19:29Z</time>
      </trkpt>
      <trkpt lat="46.112066" lon="9.047928">
        <ele>1556.508</ele>
        <time>2020-08-22T07:19:44Z</time>
      </trkpt>
      <trkpt lat="46.112070" lon="9.047598">
        <ele>1558.411</ele>
        <time>2020-08-22T07:19:59Z</time>
      </trkpt>
      <trkpt lat="46.112076" lon="9.047452">
        <ele>1558.441</ele>
        <time>2020-08-22T07:20:06Z</time>
      </trkpt>
      <trkpt lat="46.112078" lon="9.047434">
        <ele>1558.960</ele>
        <time>2020-08-22T07:20:07Z</time>
      </trkpt>
      <trkpt lat="46.112080" lon="9.047417">
        <ele>1558.990</ele>
        <time>2020-08-22T07:20:08Z</time>
      </trkpt>
      <trkpt lat="46.112082" lon="9.047395">
        <ele>1558.957</ele>
        <time>2020-08-22T07:20:09Z</time>
      </trkpt>
      <trkpt lat="46.112083" lon="9.047372">
        <ele>1558.929</ele>
        <time>2020-08-22T07:20:10Z</time>
      </trkpt>
      <trkpt lat="46.112083" lon="9.047350">
        <ele>1559.487</ele>
        <time>2020-08-22T07:20:11Z</time>
      </trkpt>
      <trkpt lat="46.112055" lon="9.046974">
        <ele>1560.894</ele>
        <time>2020-08-22T07:20:30Z</time>
      </trkpt>
      <trkpt lat="46.112042" lon="9.046662">
        <ele>1562.242</ele>
        <time>2020-08-22T07:20:43Z</time>
      </trkpt>
      <trkpt lat="46.111973" lon="9.046215">
        <ele>1564.222</ele>
        <time>2020-08-22T07:21:03Z</time>
      </trkpt>
      <trkpt lat="46.111917" lon="9.045953">
        <ele>1566.614</ele>
        <time>2020-08-22T07:21:17Z</time>
      </trkpt>
      <trkpt lat="46.111879" lon="9.045862">
        <ele>1567.508</ele>
        <time>2020-08-22T07:21:28Z</time>
      </trkpt>
      <trkpt lat="46.111836" lon="9.045811">
        <ele>1567.579</ele>
        <time>2020-08-22T07:21:43Z</time>
      </trkpt>
      <trkpt lat="46.111717" lon="9.045480">
        <ele>1568.559</ele>
        <time>2020-08-22T07:21:59Z</time>
      </trkpt>
      <trkpt lat="46.111748" lon="9.045121">
        <ele>1569.418</ele>
        <time>2020-08-22T07:22:14Z</time>
      </trkpt>
      <trkpt lat="46.111769" lon="9.045000">
        <ele>1569.448</ele>
        <time>2020-08-22T07:22:20Z</time>
      </trkpt>
      <trkpt lat="46.111770" lon="9.044978">
        <ele>1569.465</ele>
        <time>2020-08-22T07:22:21Z</time>
      </trkpt>
      <trkpt lat="46.111807" lon="9.044638">
        <ele>1572.357</ele>
        <time>2020-08-22T07:22:38Z</time>
      </trkpt>
      <trkpt lat="46.111879" lon="9.044359">
        <ele>1574.325</ele>
        <time>2020-08-22T07:22:53Z</time>
      </trkpt>
      <trkpt lat="46.111874" lon="9.044302">
        <ele>1574.332</ele>
        <time>2020-08-22T07:22:56Z</time>
      </trkpt>
      <trkpt lat="46.111874" lon="9.044280">
        <ele>1574.719</ele>
        <time>2020-08-22T07:22:57Z</time>
      </trkpt>
      <trkpt lat="46.111866" lon="9.044201">
        <ele>1574.309</ele>
        <time>2020-08-22T07:23:01Z</time>
      </trkpt>
      <trkpt lat="46.111861" lon="9.044180">
        <ele>1574.719</ele>
        <time>2020-08-22T07:23:02Z</time>
      </trkpt>
      <trkpt lat="46.111857" lon="9.044160">
        <ele>1574.708</ele>
        <time>2020-08-22T07:23:03Z</time>
      </trkpt>
      <trkpt lat="46.111757" lon="9.043858">
        <ele>1577.156</ele>
        <time>2020-08-22T07:23:21Z</time>
      </trkpt>
      <trkpt lat="46.111712" lon="9.043520">
        <ele>1579.146</ele>
        <time>2020-08-22T07:23:39Z</time>
      </trkpt>
      <trkpt lat="46.111711" lon="9.043484">
        <ele>1579.575</ele>
        <time>2020-08-22T07:23:41Z</time>
      </trkpt>
      <trkpt lat="46.111708" lon="9.043461">
        <ele>1579.585</ele>
        <time>2020-08-22T07:23:47Z</time>
      </trkpt>
      <trkpt lat="46.111708" lon="9.043443">
        <ele>1579.592</ele>
        <time>2020-08-22T07:23:48Z</time>
      </trkpt>
      <trkpt lat="46.111709" lon="9.043424">
        <ele>1579.514</ele>
        <time>2020-08-22T07:23:49Z</time>
      </trkpt>
      <trkpt lat="46.111708" lon="9.043403">
        <ele>1579.592</ele>
        <time>2020-08-22T07:23:50Z</time>
      </trkpt>
      <trkpt lat="46.111707" lon="9.043382">
        <ele>1580.099</ele>
        <time>2020-08-22T07:23:51Z</time>
      </trkpt>
      <trkpt lat="46.111710" lon="9.043360">
        <ele>1580.026</ele>
        <time>2020-08-22T07:23:52Z</time>
      </trkpt>
      <trkpt lat="46.111766" lon="9.042970">
        <ele>1581.547</ele>
        <time>2020-08-22T07:24:08Z</time>
      </trkpt>
      <trkpt lat="46.111771" lon="9.042582">
        <ele>1583.411</ele>
        <time>2020-08-22T07:24:23Z</time>
      </trkpt>
      <trkpt lat="46.111782" lon="9.042207">
        <ele>1584.808</ele>
        <time>2020-08-22T07:24:39Z</time>
      </trkpt>
      <trkpt lat="46.111832" lon="9.041874">
        <ele>1586.797</ele>
        <time>2020-08-22T07:24:54Z</time>
      </trkpt>
      <trkpt lat="46.111841" lon="9.041795">
        <ele>1587.267</ele>
        <time>2020-08-22T07:24:58Z</time>
      </trkpt>
      <trkpt lat="46.111840" lon="9.041778">
        <ele>1587.276</ele>
        <time>2020-08-22T07:24:59Z</time>
      </trkpt>
      <trkpt lat="46.111850" lon="9.041517">
        <ele>1588.746</ele>
        <time>2020-08-22T07:25:13Z</time>
      </trkpt>
      <trkpt lat="46.111843" lon="9.041458">
        <ele>1589.623</ele>
        <time>2020-08-22T07:25:16Z</time>
      </trkpt>
      <trkpt lat="46.111840" lon="9.041439">
        <ele>1589.675</ele>
        <time>2020-08-22T07:25:17Z</time>
      </trkpt>
      <trkpt lat="46.111738" lon="9.041121">
        <ele>1590.653</ele>
        <time>2020-08-22T07:25:33Z</time>
      </trkpt>
      <trkpt lat="46.111593" lon="9.040885">
        <ele>1593.070</ele>
        <time>2020-08-22T07:25:49Z</time>
      </trkpt>
      <trkpt lat="46.111495" lon="9.040618">
        <ele>1594.451</ele>
        <time>2020-08-22T07:26:04Z</time>
      </trkpt>
      <trkpt lat="46.111299" lon="9.040291">
        <ele>1596.801</ele>
        <time>2020-08-22T07:26:24Z</time>
      </trkpt>
      <trkpt lat="46.111269" lon="9.040251">
        <ele>1596.811</ele>
        <time>2020-08-22T07:26:27Z</time>
      </trkpt>
      <trkpt lat="46.111261" lon="9.040237">
        <ele>1597.808</ele>
        <time>2020-08-22T07:26:28Z</time>
      </trkpt>
      <trkpt lat="46.111117" lon="9.040062">
        <ele>1598.850</ele>
        <time>2020-08-22T07:26:42Z</time>
      </trkpt>
      <trkpt lat="46.110972" lon="9.039856">
        <ele>1600.750</ele>
        <time>2020-08-22T07:26:57Z</time>
      </trkpt>
      <trkpt lat="46.110930" lon="9.039804">
        <ele>1601.259</ele>
        <time>2020-08-22T07:27:01Z</time>
      </trkpt>
      <trkpt lat="46.110914" lon="9.039794">
        <ele>1601.229</ele>
        <time>2020-08-22T07:27:02Z</time>
      </trkpt>
      <trkpt lat="46.110900" lon="9.039786">
        <ele>1601.286</ele>
        <time>2020-08-22T07:27:03Z</time>
      </trkpt>
      <trkpt lat="46.110884" lon="9.039776">
        <ele>1601.238</ele>
        <time>2020-08-22T07:27:04Z</time>
      </trkpt>
      <trkpt lat="46.110870" lon="9.039762">
        <ele>1601.216</ele>
        <time>2020-08-22T07:27:05Z</time>
      </trkpt>
      <trkpt lat="46.110855" lon="9.039745">
        <ele>1601.293</ele>
        <time>2020-08-22T07:27:06Z</time>
      </trkpt>
      <trkpt lat="46.110840" lon="9.039726">
        <ele>1601.233</ele>
        <time>2020-08-22T07:27:07Z</time>
      </trkpt>
      <trkpt lat="46.110826" lon="9.039704">
        <ele>1601.223</ele>
        <time>2020-08-22T07:27:08Z</time>
      </trkpt>
      <trkpt lat="46.110682" lon="9.039256">
        <ele>1601.215</ele>
        <time>2020-08-22T07:27:21Z</time>
      </trkpt>
      <trkpt lat="46.110595" lon="9.039065">
        <ele>1601.208</ele>
        <time>2020-08-22T07:27:31Z</time>
      </trkpt>
      <trkpt lat="46.110541" lon="9.038861">
        <ele>1601.248</ele>
        <time>2020-08-22T07:27:44Z</time>
      </trkpt>
      <trkpt lat="46.110477" lon="9.038582">
        <ele>1600.298</ele>
        <time>2020-08-22T07:27:53Z</time>
      </trkpt>
      <trkpt lat="46.110460" lon="9.038557">
        <ele>1600.277</ele>
        <time>2020-08-22T07:27:54Z</time>
      </trkpt>
      <trkpt lat="46.110442" lon="9.038536">
        <ele>1600.217</ele>
        <time>2020-08-22T07:27:55Z</time>
      </trkpt>
      <trkpt lat="46.110424" lon="9.038511">
        <ele>1600.244</ele>
        <time>2020-08-22T07:27:56Z</time>
      </trkpt>
      <trkpt lat="46.110401" lon="9.038482">
        <ele>1600.256</ele>
        <time>2020-08-22T07:27:57Z</time>
      </trkpt>
      <trkpt lat="46.110222" lon="9.038177">
        <ele>1600.234</ele>
        <time>2020-08-22T07:28:07Z</time>
      </trkpt>
      <trkpt lat="46.109945" lon="9.038026">
        <ele>1600.211</ele>
        <time>2020-08-22T07:28:18Z</time>
      </trkpt>
      <trkpt lat="46.109736" lon="9.038039">
        <ele>1600.297</ele>
        <time>2020-08-22T07:28:27Z</time>
      </trkpt>
      <trkpt lat="46.109479" lon="9.038147">
        <ele>1600.223</ele>
        <time>2020-08-22T07:28:37Z</time>
      </trkpt>
      <trkpt lat="46.109127" lon="9.038199">
        <ele>1600.225</ele>
        <time>2020-08-22T07:28:49Z</time>
      </trkpt>
      <trkpt lat="46.108786" lon="9.037975">
        <ele>1600.208</ele>
        <time>2020-08-22T07:29:01Z</time>
      </trkpt>
      <trkpt lat="46.108421" lon="9.037644">
        <ele>1600.294</ele>
        <time>2020-08-22T07:29:14Z</time>
      </trkpt>
      <trkpt lat="46.108053" lon="9.037231">
        <ele>1600.294</ele>
        <time>2020-08-22T07:29:28Z</time>
      </trkpt>
      <trkpt lat="46.107738" lon="9.036798">
        <ele>1600.233</ele>
        <time>2020-08-22T07:29:41Z</time>
      </trkpt>
      <trkpt lat="46.107561" lon="9.036465">
        <ele>1600.233</ele>
        <time>2020-08-22T07:29:54Z</time>
      </trkpt>
      <trkpt lat="46.107505" lon="9.036322">
        <ele>1599.750</ele>
        <time>2020-08-22T07:30:17Z</time>
      </trkpt>
      <trkpt lat="46.107348" lon="9.035972">
        <ele>1599.782</ele>
        <time>2020-08-22T07:30:28Z</time>
      </trkpt>
      <trkpt lat="46.107310" lon="9.035627">
        <ele>1599.740</ele>
        <time>2020-08-22T07:30:39Z</time>
      </trkpt>
      <trkpt lat="46.107590" lon="9.035474">
        <ele>1599.267</ele>
        <time>2020-08-22T07:30:49Z</time>
      </trkpt>
      <trkpt lat="46.107649" lon="9.035479">
        <ele>1598.341</ele>
        <time>2020-08-22T07:30:51Z</time>
      </trkpt>
      <trkpt lat="46.107680" lon="9.035449">
        <ele>1597.881</ele>
        <time>2020-08-22T07:30:52Z</time>
      </trkpt>
      <trkpt lat="46.107705" lon="9.035411">
        <ele>1597.809</ele>
        <time>2020-08-22T07:30:53Z</time>
      </trkpt>
      <trkpt lat="46.107733" lon="9.035381">
        <ele>1597.808</ele>
        <time>2020-08-22T07:30:54Z</time>
      </trkpt>
      <trkpt lat="46.107765" lon="9.035361">
        <ele>1597.899</ele>
        <time>2020-08-22T07:30:55Z</time>
      </trkpt>
      <trkpt lat="46.107799" lon="9.035351">
        <ele>1597.889</ele>
        <time>2020-08-22T07:30:56Z</time>
      </trkpt>
      <trkpt lat="46.107832" lon="9.035336">
        <ele>1597.398</ele>
        <time>2020-08-22T07:30:57Z</time>
      </trkpt>
      <trkpt lat="46.107851" lon="9.035298">
        <ele>1597.338</ele>
        <time>2020-08-22T07:30:58Z</time>
      </trkpt>
      <trkpt lat="46.107854" lon="9.035255">
        <ele>1597.315</ele>
        <time>2020-08-22T07:30:59Z</time>
      </trkpt>
      <trkpt lat="46.107856" lon="9.035207">
        <ele>1597.357</ele>
        <time>2020-08-22T07:31:00Z</time>
      </trkpt>
      <trkpt lat="46.107861" lon="9.035165">
        <ele>1597.335</ele>
        <time>2020-08-22T07:31:01Z</time>
      </trkpt>
      <trkpt lat="46.107868" lon="9.035115">
        <ele>1597.382</ele>
        <time>2020-08-22T07:31:02Z</time>
      </trkpt>
      <trkpt lat="46.107982" lon="9.034730">
        <ele>1598.879</ele>
        <time>2020-08-22T07:31:13Z</time>
      </trkpt>
      <trkpt lat="46.108217" lon="9.034392">
        <ele>1599.205</ele>
        <time>2020-08-22T07:31:25Z</time>
      </trkpt>
      <trkpt lat="46.108625" lon="9.034252">
        <ele>1599.225</ele>
        <time>2020-08-22T07:31:37Z</time>
      </trkpt>
      <trkpt lat="46.108676" lon="9.034158">
        <ele>1599.208</ele>
        <time>2020-08-22T07:31:39Z</time>
      </trkpt>
      <trkpt lat="46.108693" lon="9.034113">
        <ele>1599.272</ele>
        <time>2020-08-22T07:31:40Z</time>
      </trkpt>
      <trkpt lat="46.108910" lon="9.033706">
        <ele>1597.872</ele>
        <time>2020-08-22T07:31:52Z</time>
      </trkpt>
      <trkpt lat="46.109017" lon="9.033678">
        <ele>1597.871</ele>
        <time>2020-08-22T07:31:55Z</time>
      </trkpt>
      <trkpt lat="46.109057" lon="9.033666">
        <ele>1597.351</ele>
        <time>2020-08-22T07:31:56Z</time>
      </trkpt>
      <trkpt lat="46.109096" lon="9.033645">
        <ele>1597.338</ele>
        <time>2020-08-22T07:31:57Z</time>
      </trkpt>
      <trkpt lat="46.109140" lon="9.033622">
        <ele>1596.860</ele>
        <time>2020-08-22T07:31:58Z</time>
      </trkpt>
      <trkpt lat="46.109185" lon="9.033607">
        <ele>1596.888</ele>
        <time>2020-08-22T07:31:59Z</time>
      </trkpt>
      <trkpt lat="46.109223" lon="9.033594">
        <ele>1596.845</ele>
        <time>2020-08-22T07:32:00Z</time>
      </trkpt>
      <trkpt lat="46.109252" lon="9.033580">
        <ele>1596.843</ele>
        <time>2020-08-22T07:32:01Z</time>
      </trkpt>
      <trkpt lat="46.109285" lon="9.033554">
        <ele>1596.864</ele>
        <time>2020-08-22T07:32:02Z</time>
      </trkpt>
      <trkpt lat="46.109311" lon="9.033529">
        <ele>1596.810</ele>
        <time>2020-08-22T07:32:03Z</time>
      </trkpt>
      <trkpt lat="46.109338" lon="9.033497">
        <ele>1596.808</ele>
        <time>2020-08-22T07:32:04Z</time>
      </trkpt>
      <trkpt lat="46.109362" lon="9.033468">
        <ele>1596.879</ele>
        <time>2020-08-22T07:32:05Z</time>
      </trkpt>
      <trkpt lat="46.109631" lon="9.033298">
        <ele>1596.459</ele>
        <time>2020-08-22T07:32:14Z</time>
      </trkpt>
      <trkpt lat="46.109892" lon="9.033008">
        <ele>1596.488</ele>
        <time>2020-08-22T07:32:25Z</time>
      </trkpt>
      <trkpt lat="46.109995" lon="9.032886">
        <ele>1595.938</ele>
        <time>2020-08-22T07:32:31Z</time>
      </trkpt>
      <trkpt lat="46.109997" lon="9.032863">
        <ele>1595.935</ele>
        <time>2020-08-22T07:32:32Z</time>
      </trkpt>
      <trkpt lat="46.109995" lon="9.032839">
        <ele>1595.947</ele>
        <time>2020-08-22T07:32:33Z</time>
      </trkpt>
      <trkpt lat="46.109988" lon="9.032819">
        <ele>1597.335</ele>
        <time>2020-08-22T07:32:34Z</time>
      </trkpt>
      <trkpt lat="46.109976" lon="9.032797">
        <ele>1597.382</ele>
        <time>2020-08-22T07:32:35Z</time>
      </trkpt>
      <trkpt lat="46.109958" lon="9.032769">
        <ele>1597.395</ele>
        <time>2020-08-22T07:32:36Z</time>
      </trkpt>
      <trkpt lat="46.109941" lon="9.032733">
        <ele>1597.349</ele>
        <time>2020-08-22T07:32:37Z</time>
      </trkpt>
      <trkpt lat="46.109929" lon="9.032693">
        <ele>1597.323</ele>
        <time>2020-08-22T07:32:38Z</time>
      </trkpt>
      <trkpt lat="46.109923" lon="9.032657">
        <ele>1597.308</ele>
        <time>2020-08-22T07:32:39Z</time>
      </trkpt>
      <trkpt lat="46.109912" lon="9.032564">
        <ele>1597.374</ele>
        <time>2020-08-22T07:32:42Z</time>
      </trkpt>
      <trkpt lat="46.109913" lon="9.032536">
        <ele>1597.374</ele>
        <time>2020-08-22T07:32:43Z</time>
      </trkpt>
      <trkpt lat="46.109919" lon="9.032512">
        <ele>1597.873</ele>
        <time>2020-08-22T07:32:44Z</time>
      </trkpt>
      <trkpt lat="46.109923" lon="9.032494">
        <ele>1597.863</ele>
        <time>2020-08-22T07:32:45Z</time>
      </trkpt>
      <trkpt lat="46.109927" lon="9.032473">
        <ele>1597.890</ele>
        <time>2020-08-22T07:32:46Z</time>
      </trkpt>
      <trkpt lat="46.109930" lon="9.032454">
        <ele>1597.832</ele>
        <time>2020-08-22T07:32:47Z</time>
      </trkpt>
      <trkpt lat="46.109937" lon="9.032425">
        <ele>1597.840</ele>
        <time>2020-08-22T07:32:48Z</time>
      </trkpt>
      <trkpt lat="46.109943" lon="9.032402">
        <ele>1597.837</ele>
        <time>2020-08-22T07:32:49Z</time>
      </trkpt>
      <trkpt lat="46.109947" lon="9.032373">
        <ele>1598.373</ele>
        <time>2020-08-22T07:32:50Z</time>
      </trkpt>
      <trkpt lat="46.109965" lon="9.032253">
        <ele>1598.385</ele>
        <time>2020-08-22T07:32:54Z</time>
      </trkpt>
      <trkpt lat="46.109962" lon="9.032221">
        <ele>1598.313</ele>
        <time>2020-08-22T07:32:55Z</time>
      </trkpt>
      <trkpt lat="46.109959" lon="9.032186">
        <ele>1598.808</ele>
        <time>2020-08-22T07:32:56Z</time>
      </trkpt>
      <trkpt lat="46.109954" lon="9.032149">
        <ele>1598.852</ele>
        <time>2020-08-22T07:32:57Z</time>
      </trkpt>
      <trkpt lat="46.109947" lon="9.032110">
        <ele>1598.812</ele>
        <time>2020-08-22T07:32:58Z</time>
      </trkpt>
      <trkpt lat="46.109931" lon="9.031693">
        <ele>1599.721</ele>
        <time>2020-08-22T07:33:10Z</time>
      </trkpt>
      <trkpt lat="46.110041" lon="9.031278">
        <ele>1600.291</ele>
        <time>2020-08-22T07:33:24Z</time>
      </trkpt>
      <trkpt lat="46.110214" lon="9.030923">
        <ele>1601.658</ele>
        <time>2020-08-22T07:33:38Z</time>
      </trkpt>
      <trkpt lat="46.110189" lon="9.030436">
        <ele>1603.130</ele>
        <time>2020-08-22T07:33:52Z</time>
      </trkpt>
      <trkpt lat="46.110211" lon="9.029827">
        <ele>1604.598</ele>
        <time>2020-08-22T07:34:08Z</time>
      </trkpt>
      <trkpt lat="46.110273" lon="9.029219">
        <ele>1606.065</ele>
        <time>2020-08-22T07:34:25Z</time>
      </trkpt>
      <trkpt lat="46.110325" lon="9.028770">
        <ele>1606.514</ele>
        <time>2020-08-22T07:34:38Z</time>
      </trkpt>
      <trkpt lat="46.110432" lon="9.028369">
        <ele>1607.454</ele>
        <time>2020-08-22T07:34:50Z</time>
      </trkpt>
      <trkpt lat="46.110495" lon="9.027926">
        <ele>1607.409</ele>
        <time>2020-08-22T07:35:00Z</time>
      </trkpt>
      <trkpt lat="46.110509" lon="9.027867">
        <ele>1607.408</ele>
        <time>2020-08-22T07:35:01Z</time>
      </trkpt>
      <trkpt lat="46.110527" lon="9.027810">
        <ele>1607.456</ele>
        <time>2020-08-22T07:35:02Z</time>
      </trkpt>
      <trkpt lat="46.110543" lon="9.027746">
        <ele>1607.486</ele>
        <time>2020-08-22T07:35:03Z</time>
      </trkpt>
      <trkpt lat="46.110552" lon="9.027698">
        <ele>1607.465</ele>
        <time>2020-08-22T07:35:04Z</time>
      </trkpt>
      <trkpt lat="46.110558" lon="9.027644">
        <ele>1607.445</ele>
        <time>2020-08-22T07:35:05Z</time>
      </trkpt>
      <trkpt lat="46.110603" lon="9.027255">
        <ele>1605.042</ele>
        <time>2020-08-22T07:35:11Z</time>
      </trkpt>
      <trkpt lat="46.110610" lon="9.027195">
        <ele>1604.534</ele>
        <time>2020-08-22T07:35:12Z</time>
      </trkpt>
      <trkpt lat="46.110612" lon="9.027134">
        <ele>1604.552</ele>
        <time>2020-08-22T07:35:13Z</time>
      </trkpt>
      <trkpt lat="46.110611" lon="9.027078">
        <ele>1604.579</ele>
        <time>2020-08-22T07:35:14Z</time>
      </trkpt>
      <trkpt lat="46.110606" lon="9.027015">
        <ele>1604.516</ele>
        <time>2020-08-22T07:35:15Z</time>
      </trkpt>
      <trkpt lat="46.110506" lon="9.026403">
        <ele>1604.176</ele>
        <time>2020-08-22T07:35:27Z</time>
      </trkpt>
      <trkpt lat="46.110476" lon="9.026223">
        <ele>1604.113</ele>
        <time>2020-08-22T07:35:32Z</time>
      </trkpt>
      <trkpt lat="46.110457" lon="9.026110">
        <ele>1604.108</ele>
        <time>2020-08-22T07:35:37Z</time>
      </trkpt>
      <trkpt lat="46.110450" lon="9.026090">
        <ele>1604.196</ele>
        <time>2020-08-22T07:35:38Z</time>
      </trkpt>
      <trkpt lat="46.110439" lon="9.026068">
        <ele>1604.146</ele>
        <time>2020-08-22T07:35:39Z</time>
      </trkpt>
      <trkpt lat="46.110420" lon="9.026038">
        <ele>1604.195</ele>
        <time>2020-08-22T07:35:40Z</time>
      </trkpt>
      <trkpt lat="46.110400" lon="9.026006">
        <ele>1604.115</ele>
        <time>2020-08-22T07:35:41Z</time>
      </trkpt>
      <trkpt lat="46.110381" lon="9.025971">
        <ele>1604.152</ele>
        <time>2020-08-22T07:35:42Z</time>
      </trkpt>
      <trkpt lat="46.110371" lon="9.025937">
        <ele>1604.184</ele>
        <time>2020-08-22T07:35:43Z</time>
      </trkpt>
      <trkpt lat="46.110359" lon="9.025887">
        <ele>1604.172</ele>
        <time>2020-08-22T07:35:44Z</time>
      </trkpt>
      <trkpt lat="46.110219" lon="9.025452">
        <ele>1602.179</ele>
        <time>2020-08-22T07:35:51Z</time>
      </trkpt>
      <trkpt lat="46.110064" lon="9.025127">
        <ele>1599.738</ele>
        <time>2020-08-22T07:35:56Z</time>
      </trkpt>
      <trkpt lat="46.109965" lon="9.024947">
        <ele>1598.870</ele>
        <time>2020-08-22T07:35:59Z</time>
      </trkpt>
      <trkpt lat="46.109780" lon="9.024626">
        <ele>1596.417</ele>
        <time>2020-08-22T07:36:04Z</time>
      </trkpt>
      <trkpt lat="46.109717" lon="9.024491">
        <ele>1594.908</ele>
        <time>2020-08-22T07:36:06Z</time>
      </trkpt>
      <trkpt lat="46.109696" lon="9.024419">
        <ele>1594.038</ele>
        <time>2020-08-22T07:36:07Z</time>
      </trkpt>
      <trkpt lat="46.109671" lon="9.024342">
        <ele>1594.028</ele>
        <time>2020-08-22T07:36:08Z</time>
      </trkpt>
      <trkpt lat="46.109642" lon="9.024276">
        <ele>1594.457</ele>
        <time>2020-08-22T07:36:09Z</time>
      </trkpt>
      <trkpt lat="46.109607" lon="9.024214">
        <ele>1593.047</ele>
        <time>2020-08-22T07:36:10Z</time>
      </trkpt>
      <trkpt lat="46.109568" lon="9.024161">
        <ele>1593.074</ele>
        <time>2020-08-22T07:36:11Z</time>
      </trkpt>
      <trkpt lat="46.109521" lon="9.024108">
        <ele>1592.056</ele>
        <time>2020-08-22T07:36:12Z</time>
      </trkpt>
      <trkpt lat="46.109480" lon="9.024061">
        <ele>1591.634</ele>
        <time>2020-08-22T07:36:13Z</time>
      </trkpt>
      <trkpt lat="46.109449" lon="9.024017">
        <ele>1591.161</ele>
        <time>2020-08-22T07:36:14Z</time>
      </trkpt>
      <trkpt lat="46.109417" lon="9.023951">
        <ele>1590.614</ele>
        <time>2020-08-22T07:36:15Z</time>
      </trkpt>
      <trkpt lat="46.109392" lon="9.023873">
        <ele>1590.654</ele>
        <time>2020-08-22T07:36:16Z</time>
      </trkpt>
      <trkpt lat="46.109367" lon="9.023806">
        <ele>1589.609</ele>
        <time>2020-08-22T07:36:17Z</time>
      </trkpt>
      <trkpt lat="46.109339" lon="9.023757">
        <ele>1589.208</ele>
        <time>2020-08-22T07:36:18Z</time>
      </trkpt>
      <trkpt lat="46.109298" lon="9.023714">
        <ele>1588.716</ele>
        <time>2020-08-22T07:36:19Z</time>
      </trkpt>
      <trkpt lat="46.109253" lon="9.023687">
        <ele>1588.736</ele>
        <time>2020-08-22T07:36:20Z</time>
      </trkpt>
      <trkpt lat="46.109207" lon="9.023673">
        <ele>1587.715</ele>
        <time>2020-08-22T07:36:21Z</time>
      </trkpt>
      <trkpt lat="46.109159" lon="9.023667">
        <ele>1587.245</ele>
        <time>2020-08-22T07:36:22Z</time>
      </trkpt>
      <trkpt lat="46.109110" lon="9.023663">
        <ele>1587.242</ele>
        <time>2020-08-22T07:36:23Z</time>
      </trkpt>
      <trkpt lat="46.109010" lon="9.023646">
        <ele>1586.314</ele>
        <time>2020-08-22T07:36:25Z</time>
      </trkpt>
      <trkpt lat="46.108961" lon="9.023628">
        <ele>1586.342</ele>
        <time>2020-08-22T07:36:26Z</time>
      </trkpt>
      <trkpt lat="46.108914" lon="9.023599">
        <ele>1586.349</ele>
        <time>2020-08-22T07:36:27Z</time>
      </trkpt>
      <trkpt lat="46.108862" lon="9.023556">
        <ele>1585.376</ele>
        <time>2020-08-22T07:36:28Z</time>
      </trkpt>
      <trkpt lat="46.108826" lon="9.023521">
        <ele>1584.890</ele>
        <time>2020-08-22T07:36:29Z</time>
      </trkpt>
      <trkpt lat="46.108706" lon="9.023385">
        <ele>1583.919</ele>
        <time>2020-08-22T07:36:32Z</time>
      </trkpt>
      <trkpt lat="46.108673" lon="9.023327">
        <ele>1582.908</ele>
        <time>2020-08-22T07:36:33Z</time>
      </trkpt>
      <trkpt lat="46.108647" lon="9.023258">
        <ele>1582.962</ele>
        <time>2020-08-22T07:36:34Z</time>
      </trkpt>
      <trkpt lat="46.108629" lon="9.023184">
        <ele>1582.492</ele>
        <time>2020-08-22T07:36:35Z</time>
      </trkpt>
      <trkpt lat="46.108620" lon="9.023124">
        <ele>1581.921</ele>
        <time>2020-08-22T07:36:36Z</time>
      </trkpt>
      <trkpt lat="46.108614" lon="9.023051">
        <ele>1581.941</ele>
        <time>2020-08-22T07:36:37Z</time>
      </trkpt>
      <trkpt lat="46.108620" lon="9.022976">
        <ele>1581.088</ele>
        <time>2020-08-22T07:36:38Z</time>
      </trkpt>
      <trkpt lat="46.108635" lon="9.022905">
        <ele>1581.060</ele>
        <time>2020-08-22T07:36:39Z</time>
      </trkpt>
      <trkpt lat="46.108659" lon="9.022842">
        <ele>1580.068</ele>
        <time>2020-08-22T07:36:40Z</time>
      </trkpt>
      <trkpt lat="46.108690" lon="9.022785">
        <ele>1580.095</ele>
        <time>2020-08-22T07:36:41Z</time>
      </trkpt>
      <trkpt lat="46.108724" lon="9.022733">
        <ele>1579.515</ele>
        <time>2020-08-22T07:36:42Z</time>
      </trkpt>
      <trkpt lat="46.108762" lon="9.022683">
        <ele>1579.565</ele>
        <time>2020-08-22T07:36:43Z</time>
      </trkpt>
      <trkpt lat="46.108802" lon="9.022631">
        <ele>1578.611</ele>
        <time>2020-08-22T07:36:44Z</time>
      </trkpt>
      <trkpt lat="46.108837" lon="9.022573">
        <ele>1578.608</ele>
        <time>2020-08-22T07:36:45Z</time>
      </trkpt>
      <trkpt lat="46.108865" lon="9.022506">
        <ele>1578.186</ele>
        <time>2020-08-22T07:36:46Z</time>
      </trkpt>
      <trkpt lat="46.108878" lon="9.022432">
        <ele>1577.616</ele>
        <time>2020-08-22T07:36:47Z</time>
      </trkpt>
      <trkpt lat="46.108867" lon="9.022357">
        <ele>1577.685</ele>
        <time>2020-08-22T07:36:48Z</time>
      </trkpt>
      <trkpt lat="46.108835" lon="9.022296">
        <ele>1577.635</ele>
        <time>2020-08-22T07:36:49Z</time>
      </trkpt>
      <trkpt lat="46.108795" lon="9.022254">
        <ele>1577.682</ele>
        <time>2020-08-22T07:36:50Z</time>
      </trkpt>
      <trkpt lat="46.108754" lon="9.022218">
        <ele>1577.624</ele>
        <time>2020-08-22T07:36:51Z</time>
      </trkpt>
      <trkpt lat="46.108448" lon="9.021875">
        <ele>1580.012</ele>
        <time>2020-08-22T07:37:03Z</time>
      </trkpt>
      <trkpt lat="46.108425" lon="9.021857">
        <ele>1578.129</ele>
        <time>2020-08-22T07:37:04Z</time>
      </trkpt>
      <trkpt lat="46.108203" lon="9.021495">
        <ele>1578.167</ele>
        <time>2020-08-22T07:37:16Z</time>
      </trkpt>
      <trkpt lat="46.108237" lon="9.020931">
        <ele>1578.181</ele>
        <time>2020-08-22T07:37:26Z</time>
      </trkpt>
      <trkpt lat="46.108244" lon="9.020865">
        <ele>1578.119</ele>
        <time>2020-08-22T07:37:27Z</time>
      </trkpt>
      <trkpt lat="46.108251" lon="9.020802">
        <ele>1578.108</ele>
        <time>2020-08-22T07:37:28Z</time>
      </trkpt>
      <trkpt lat="46.108259" lon="9.020735">
        <ele>1577.181</ele>
        <time>2020-08-22T07:37:29Z</time>
      </trkpt>
      <trkpt lat="46.108269" lon="9.020667">
        <ele>1576.741</ele>
        <time>2020-08-22T07:37:30Z</time>
      </trkpt>
      <trkpt lat="46.108300" lon="9.020429">
        <ele>1576.280</ele>
        <time>2020-08-22T07:37:33Z</time>
      </trkpt>
      <trkpt lat="46.108292" lon="9.020348">
        <ele>1576.210</ele>
        <time>2020-08-22T07:37:34Z</time>
      </trkpt>
      <trkpt lat="46.108272" lon="9.020276">
        <ele>1575.757</ele>
        <time>2020-08-22T07:37:35Z</time>
      </trkpt>
      <trkpt lat="46.108239" lon="9.020216">
        <ele>1575.739</ele>
        <time>2020-08-22T07:37:36Z</time>
      </trkpt>
      <trkpt lat="46.108190" lon="9.020173">
        <ele>1575.267</ele>
        <time>2020-08-22T07:37:37Z</time>
      </trkpt>
      <trkpt lat="46.108140" lon="9.020158">
        <ele>1575.274</ele>
        <time>2020-08-22T07:37:38Z</time>
      </trkpt>
      <trkpt lat="46.108098" lon="9.020157">
        <ele>1575.259</ele>
        <time>2020-08-22T07:37:39Z</time>
      </trkpt>
      <trkpt lat="46.108062" lon="9.020163">
        <ele>1575.203</ele>
        <time>2020-08-22T07:37:40Z</time>
      </trkpt>
      <trkpt lat="46.108035" lon="9.020170">
        <ele>1575.223</ele>
        <time>2020-08-22T07:37:41Z</time>
      </trkpt>
      <trkpt lat="46.107741" lon="9.020169">
        <ele>1578.608</ele>
        <time>2020-08-22T07:37:56Z</time>
      </trkpt>
      <trkpt lat="46.107423" lon="9.020087">
        <ele>1581.590</ele>
        <time>2020-08-22T07:38:14Z</time>
      </trkpt>
      <trkpt lat="46.107134" lon="9.020072">
        <ele>1583.420</ele>
        <time>2020-08-22T07:38:32Z</time>
      </trkpt>
      <trkpt lat="46.106886" lon="9.019909">
        <ele>1585.869</ele>
        <time>2020-08-22T07:38:49Z</time>
      </trkpt>
      <trkpt lat="46.106615" lon="9.019667">
        <ele>1588.289</ele>
        <time>2020-08-22T07:39:09Z</time>
      </trkpt>
      <trkpt lat="46.106401" lon="9.019471">
        <ele>1590.176</ele>
        <time>2020-08-22T07:39:25Z</time>
      </trkpt>
      <trkpt lat="46.106162" lon="9.019425">
        <ele>1592.518</ele>
        <time>2020-08-22T07:39:41Z</time>
      </trkpt>
      <trkpt lat="46.106122" lon="9.019405">
        <ele>1593.076</ele>
        <time>2020-08-22T07:39:44Z</time>
      </trkpt>
      <trkpt lat="46.106110" lon="9.019395">
        <ele>1593.553</ele>
        <time>2020-08-22T07:39:45Z</time>
      </trkpt>
      <trkpt lat="46.106098" lon="9.019389">
        <ele>1593.578</ele>
        <time>2020-08-22T07:39:46Z</time>
      </trkpt>
      <trkpt lat="46.105900" lon="9.019241">
        <ele>1595.433</ele>
        <time>2020-08-22T07:40:02Z</time>
      </trkpt>
      <trkpt lat="46.105714" lon="9.018983">
        <ele>1596.826</ele>
        <time>2020-08-22T07:40:19Z</time>
      </trkpt>
      <trkpt lat="46.105667" lon="9.018854">
        <ele>1597.808</ele>
        <time>2020-08-22T07:40:25Z</time>
      </trkpt>
      <trkpt lat="46.105662" lon="9.018831">
        <ele>1597.892</ele>
        <time>2020-08-22T07:40:26Z</time>
      </trkpt>
      <trkpt lat="46.105446" lon="9.018641">
        <ele>1599.282</ele>
        <time>2020-08-22T07:40:43Z</time>
      </trkpt>
      <trkpt lat="46.105225" lon="9.018788">
        <ele>1600.751</ele>
        <time>2020-08-22T07:40:57Z</time>
      </trkpt>
      <trkpt lat="46.104988" lon="9.018991">
        <ele>1602.611</ele>
        <time>2020-08-22T07:41:14Z</time>
      </trkpt>
      <trkpt lat="46.104710" lon="9.019147">
        <ele>1604.168</ele>
        <time>2020-08-22T07:41:32Z</time>
      </trkpt>
      <trkpt lat="46.104458" lon="9.018997">
        <ele>1605.530</ele>
        <time>2020-08-22T07:41:47Z</time>
      </trkpt>
      <trkpt lat="46.104320" lon="9.018522">
        <ele>1607.438</ele>
        <time>2020-08-22T07:42:04Z</time>
      </trkpt>
      <trkpt lat="46.104056" lon="9.018070">
        <ele>1608.415</ele>
        <time>2020-08-22T07:42:24Z</time>
      </trkpt>
      <trkpt lat="46.103786" lon="9.017690">
        <ele>1610.369</ele>
        <time>2020-08-22T07:42:41Z</time>
      </trkpt>
      <trkpt lat="46.103642" lon="9.017207">
        <ele>1611.304</ele>
        <time>2020-08-22T07:42:57Z</time>
      </trkpt>
      <trkpt lat="46.103570" lon="9.017099">
        <ele>1612.224</ele>
        <time>2020-08-22T07:43:01Z</time>
      </trkpt>
      <trkpt lat="46.103306" lon="9.016799">
        <ele>1612.708</ele>
        <time>2020-08-22T07:43:16Z</time>
      </trkpt>
      <trkpt lat="46.102915" lon="9.016562">
        <ele>1614.111</ele>
        <time>2020-08-22T07:43:34Z</time>
      </trkpt>
      <trkpt lat="46.102426" lon="9.016396">
        <ele>1616.591</ele>
        <time>2020-08-22T07:43:56Z</time>
      </trkpt>
      <trkpt lat="46.102017" lon="9.016466">
        <ele>1618.040</ele>
        <time>2020-08-22T07:44:14Z</time>
      </trkpt>
      <trkpt lat="46.101669" lon="9.016274">
        <ele>1619.050</ele>
        <time>2020-08-22T07:44:30Z</time>
      </trkpt>
      <trkpt lat="46.101253" lon="9.016004">
        <ele>1620.457</ele>
        <time>2020-08-22T07:44:50Z</time>
      </trkpt>
      <trkpt lat="46.100831" lon="9.015875">
        <ele>1620.999</ele>
        <time>2020-08-22T07:45:05Z</time>
      </trkpt>
      <trkpt lat="46.100785" lon="9.015883">
        <ele>1619.997</ele>
        <time>2020-08-22T07:45:07Z</time>
      </trkpt>
      <trkpt lat="46.100447" lon="9.015831">
        <ele>1618.074</ele>
        <time>2020-08-22T07:45:21Z</time>
      </trkpt>
      <trkpt lat="46.100291" lon="9.015537">
        <ele>1616.182</ele>
        <time>2020-08-22T07:45:35Z</time>
      </trkpt>
      <trkpt lat="46.100206" lon="9.014887">
        <ele>1613.243</ele>
        <time>2020-08-22T07:45:52Z</time>
      </trkpt>
      <trkpt lat="46.100220" lon="9.014452">
        <ele>1610.817</ele>
        <time>2020-08-22T07:46:06Z</time>
      </trkpt>
      <trkpt lat="46.100326" lon="9.013907">
        <ele>1608.408</ele>
        <time>2020-08-22T07:46:22Z</time>
      </trkpt>
      <trkpt lat="46.100365" lon="9.013800">
        <ele>1607.473</ele>
        <time>2020-08-22T07:46:34Z</time>
      </trkpt>
      <trkpt lat="46.100367" lon="9.013792">
        <ele>1606.533</ele>
        <time>2020-08-22T07:47:01Z</time>
      </trkpt>
      <trkpt lat="46.100350" lon="9.013782">
        <ele>1606.532</ele>
        <time>2020-08-22T07:47:33Z</time>
      </trkpt>
      <trkpt lat="46.100357" lon="9.013796">
        <ele>1606.532</ele>
        <time>2020-08-22T07:48:04Z</time>
      </trkpt>
      <trkpt lat="46.100339" lon="9.013802">
        <ele>1606.599</ele>
        <time>2020-08-22T07:48:35Z</time>
      </trkpt>
      <trkpt lat="46.100344" lon="9.013805">
        <ele>1606.081</ele>
        <time>2020-08-22T07:49:10Z</time>
      </trkpt>
      <trkpt lat="46.100376" lon="9.013792">
        <ele>1606.559</ele>
        <time>2020-08-22T07:49:46Z</time>
      </trkpt>
      <trkpt lat="46.100373" lon="9.013775">
        <ele>1606.526</ele>
        <time>2020-08-22T07:50:12Z</time>
      </trkpt>
      <trkpt lat="46.100373" lon="9.013784">
        <ele>1606.596</ele>
        <time>2020-08-22T07:50:39Z</time>
      </trkpt>
      <trkpt lat="46.100378" lon="9.013787">
        <ele>1606.531</ele>
        <time>2020-08-22T07:50:59Z</time>
      </trkpt>
      <trkpt lat="46.100396" lon="9.013766">
        <ele>1606.524</ele>
        <time>2020-08-22T07:51:10Z</time>
      </trkpt>
      <trkpt lat="46.100401" lon="9.013760">
        <ele>1606.508</ele>
        <time>2020-08-22T07:51:11Z</time>
      </trkpt>
      <trkpt lat="46.100411" lon="9.013743">
        <ele>1606.524</ele>
        <time>2020-08-22T07:51:12Z</time>
      </trkpt>
      <trkpt lat="46.100424" lon="9.013721">
        <ele>1606.514</ele>
        <time>2020-08-22T07:51:13Z</time>
      </trkpt>
      <trkpt lat="46.100441" lon="9.013697">
        <ele>1606.593</ele>
        <time>2020-08-22T07:51:14Z</time>
      </trkpt>
      <trkpt lat="46.100458" lon="9.013670">
        <ele>1606.583</ele>
        <time>2020-08-22T07:51:15Z</time>
      </trkpt>
      <trkpt lat="46.100479" lon="9.013640">
        <ele>1606.550</ele>
        <time>2020-08-22T07:51:16Z</time>
      </trkpt>
      <trkpt lat="46.100782" lon="9.013231">
        <ele>1603.162</ele>
        <time>2020-08-22T07:51:27Z</time>
      </trkpt>
      <trkpt lat="46.101093" lon="9.012888">
        <ele>1599.780</ele>
        <time>2020-08-22T07:51:34Z</time>
      </trkpt>
      <trkpt lat="46.101287" lon="9.012742">
        <ele>1597.847</ele>
        <time>2020-08-22T07:51:38Z</time>
      </trkpt>
      <trkpt lat="46.101336" lon="9.012725">
        <ele>1597.388</ele>
        <time>2020-08-22T07:51:39Z</time>
      </trkpt>
      <trkpt lat="46.101438" lon="9.012717">
        <ele>1596.424</ele>
        <time>2020-08-22T07:51:41Z</time>
      </trkpt>
      <trkpt lat="46.101533" lon="9.012723">
        <ele>1595.926</ele>
        <time>2020-08-22T07:51:43Z</time>
      </trkpt>
      <trkpt lat="46.101584" lon="9.012709">
        <ele>1594.908</ele>
        <time>2020-08-22T07:51:44Z</time>
      </trkpt>
      <trkpt lat="46.101636" lon="9.012677">
        <ele>1594.493</ele>
        <time>2020-08-22T07:51:45Z</time>
      </trkpt>
      <trkpt lat="46.101677" lon="9.012619">
        <ele>1594.013</ele>
        <time>2020-08-22T07:51:46Z</time>
      </trkpt>
      <trkpt lat="46.101698" lon="9.012540">
        <ele>1594.012</ele>
        <time>2020-08-22T07:51:47Z</time>
      </trkpt>
      <trkpt lat="46.101695" lon="9.012451">
        <ele>1593.582</ele>
        <time>2020-08-22T07:51:48Z</time>
      </trkpt>
      <trkpt lat="46.101680" lon="9.012377">
        <ele>1593.599</ele>
        <time>2020-08-22T07:51:49Z</time>
      </trkpt>
      <trkpt lat="46.101661" lon="9.012293">
        <ele>1593.511</ele>
        <time>2020-08-22T07:51:50Z</time>
      </trkpt>
      <trkpt lat="46.101640" lon="9.012167">
        <ele>1593.539</ele>
        <time>2020-08-22T07:51:52Z</time>
      </trkpt>
      <trkpt lat="46.101638" lon="9.012088">
        <ele>1593.076</ele>
        <time>2020-08-22T07:51:53Z</time>
      </trkpt>
      <trkpt lat="46.101642" lon="9.012033">
        <ele>1593.543</ele>
        <time>2020-08-22T07:51:54Z</time>
      </trkpt>
      <trkpt lat="46.101651" lon="9.011969">
        <ele>1593.564</ele>
        <time>2020-08-22T07:51:55Z</time>
      </trkpt>
      <trkpt lat="46.101664" lon="9.011912">
        <ele>1593.510</ele>
        <time>2020-08-22T07:51:56Z</time>
      </trkpt>
      <trkpt lat="46.101681" lon="9.011861">
        <ele>1593.508</ele>
        <time>2020-08-22T07:51:57Z</time>
      </trkpt>
      <trkpt lat="46.101970" lon="9.011319">
        <ele>1593.579</ele>
        <time>2020-08-22T07:52:12Z</time>
      </trkpt>
      <trkpt lat="46.102061" lon="9.011188">
        <ele>1594.989</ele>
        <time>2020-08-22T07:52:16Z</time>
      </trkpt>
      <trkpt lat="46.102520" lon="9.010863">
        <ele>1595.958</ele>
        <time>2020-08-22T07:52:33Z</time>
      </trkpt>
      <trkpt lat="46.103130" lon="9.010667">
        <ele>1597.368</ele>
        <time>2020-08-22T07:52:54Z</time>
      </trkpt>
      <trkpt lat="46.103706" lon="9.010705">
        <ele>1598.375</ele>
        <time>2020-08-22T07:53:12Z</time>
      </trkpt>
      <trkpt lat="46.104067" lon="9.010782">
        <ele>1598.367</ele>
        <time>2020-08-22T07:53:23Z</time>
      </trkpt>
      <trkpt lat="46.104094" lon="9.010752">
        <ele>1598.325</ele>
        <time>2020-08-22T07:53:24Z</time>
      </trkpt>
      <trkpt lat="46.104113" lon="9.010710">
        <ele>1598.352</ele>
        <time>2020-08-22T07:53:25Z</time>
      </trkpt>
      <trkpt lat="46.104126" lon="9.010666">
        <ele>1598.343</ele>
        <time>2020-08-22T07:53:26Z</time>
      </trkpt>
      <trkpt lat="46.104135" lon="9.010619">
        <ele>1598.364</ele>
        <time>2020-08-22T07:53:27Z</time>
      </trkpt>
      <trkpt lat="46.104144" lon="9.010569">
        <ele>1598.310</ele>
        <time>2020-08-22T07:53:28Z</time>
      </trkpt>
      <trkpt lat="46.104152" lon="9.010524">
        <ele>1598.308</ele>
        <time>2020-08-22T07:53:29Z</time>
      </trkpt>
      <trkpt lat="46.104156" lon="9.010479">
        <ele>1598.379</ele>
        <time>2020-08-22T07:53:30Z</time>
      </trkpt>
      <trkpt lat="46.104234" lon="9.009954">
        <ele>1598.389</ele>
        <time>2020-08-22T07:53:41Z</time>
      </trkpt>
      <trkpt lat="46.104283" lon="9.009707">
        <ele>1598.378</ele>
        <time>2020-08-22T07:53:46Z</time>
      </trkpt>
      <trkpt lat="46.104264" lon="9.009662">
        <ele>1598.388</ele>
        <time>2020-08-22T07:53:47Z</time>
      </trkpt>
      <trkpt lat="46.104213" lon="9.009560">
        <ele>1597.325</ele>
        <time>2020-08-22T07:53:49Z</time>
      </trkpt>
      <trkpt lat="46.104192" lon="9.009503">
        <ele>1597.397</ele>
        <time>2020-08-22T07:53:50Z</time>
      </trkpt>
      <trkpt lat="46.104174" lon="9.009439">
        <ele>1597.365</ele>
        <time>2020-08-22T07:53:51Z</time>
      </trkpt>
      <trkpt lat="46.104162" lon="9.009374">
        <ele>1596.462</ele>
        <time>2020-08-22T07:53:52Z</time>
      </trkpt>
      <trkpt lat="46.104151" lon="9.009304">
        <ele>1596.454</ele>
        <time>2020-08-22T07:53:53Z</time>
      </trkpt>
      <trkpt lat="46.104026" lon="9.008603">
        <ele>1594.456</ele>
        <time>2020-08-22T07:54:02Z</time>
      </trkpt>
      <trkpt lat="46.104026" lon="9.008523">
        <ele>1594.411</ele>
        <time>2020-08-22T07:54:03Z</time>
      </trkpt>
      <trkpt lat="46.104034" lon="9.008425">
        <ele>1594.008</ele>
        <time>2020-08-22T07:54:04Z</time>
      </trkpt>
      <trkpt lat="46.104048" lon="9.008353">
        <ele>1594.090</ele>
        <time>2020-08-22T07:54:05Z</time>
      </trkpt>
      <trkpt lat="46.104069" lon="9.008270">
        <ele>1593.530</ele>
        <time>2020-08-22T07:54:06Z</time>
      </trkpt>
      <trkpt lat="46.104097" lon="9.008190">
        <ele>1593.519</ele>
        <time>2020-08-22T07:54:07Z</time>
      </trkpt>
      <trkpt lat="46.104135" lon="9.008115">
        <ele>1593.029</ele>
        <time>2020-08-22T07:54:08Z</time>
      </trkpt>
      <trkpt lat="46.104177" lon="9.008048">
        <ele>1593.036</ele>
        <time>2020-08-22T07:54:09Z</time>
      </trkpt>
      <trkpt lat="46.104222" lon="9.007983">
        <ele>1592.588</ele>
        <time>2020-08-22T07:54:10Z</time>
      </trkpt>
      <trkpt lat="46.104267" lon="9.007924">
        <ele>1592.056</ele>
        <time>2020-08-22T07:54:11Z</time>
      </trkpt>
      <trkpt lat="46.104314" lon="9.007874">
        <ele>1592.073</ele>
        <time>2020-08-22T07:54:12Z</time>
      </trkpt>
      <trkpt lat="46.104369" lon="9.007822">
        <ele>1591.676</ele>
        <time>2020-08-22T07:54:13Z</time>
      </trkpt>
      <trkpt lat="46.104419" lon="9.007783">
        <ele>1591.690</ele>
        <time>2020-08-22T07:54:14Z</time>
      </trkpt>
      <trkpt lat="46.104476" lon="9.007742">
        <ele>1591.119</ele>
        <time>2020-08-22T07:54:15Z</time>
      </trkpt>
      <trkpt lat="46.104530" lon="9.007710">
        <ele>1591.108</ele>
        <time>2020-08-22T07:54:16Z</time>
      </trkpt>
      <trkpt lat="46.104583" lon="9.007687">
        <ele>1590.642</ele>
        <time>2020-08-22T07:54:17Z</time>
      </trkpt>
      <trkpt lat="46.104633" lon="9.007660">
        <ele>1590.172</ele>
        <time>2020-08-22T07:54:18Z</time>
      </trkpt>
      <trkpt lat="46.104683" lon="9.007626">
        <ele>1590.171</ele>
        <time>2020-08-22T07:54:19Z</time>
      </trkpt>
      <trkpt lat="46.104729" lon="9.007590">
        <ele>1589.611</ele>
        <time>2020-08-22T07:54:20Z</time>
      </trkpt>
      <trkpt lat="46.104915" lon="9.007356">
        <ele>1588.268</ele>
        <time>2020-08-22T07:54:26Z</time>
      </trkpt>
      <trkpt lat="46.104923" lon="9.007293">
        <ele>1587.290</ele>
        <time>2020-08-22T07:54:27Z</time>
      </trkpt>
      <trkpt lat="46.104912" lon="9.007224">
        <ele>1586.788</ele>
        <time>2020-08-22T07:54:28Z</time>
      </trkpt>
      <trkpt lat="46.104891" lon="9.007160">
        <ele>1586.765</ele>
        <time>2020-08-22T07:54:29Z</time>
      </trkpt>
      <trkpt lat="46.104864" lon="9.007101">
        <ele>1585.813</ele>
        <time>2020-08-22T07:54:30Z</time>
      </trkpt>
      <trkpt lat="46.104830" lon="9.007034">
        <ele>1584.843</ele>
        <time>2020-08-22T07:54:31Z</time>
      </trkpt>
      <trkpt lat="46.104800" lon="9.006971">
        <ele>1584.307</ele>
        <time>2020-08-22T07:54:32Z</time>
      </trkpt>
      <trkpt lat="46.104724" lon="9.006768">
        <ele>1582.408</ele>
        <time>2020-08-22T07:54:35Z</time>
      </trkpt>
      <trkpt lat="46.104624" lon="9.006403">
        <ele>1579.586</ele>
        <time>2020-08-22T07:54:40Z</time>
      </trkpt>
      <trkpt lat="46.104606" lon="9.006328">
        <ele>1579.526</ele>
        <time>2020-08-22T07:54:41Z</time>
      </trkpt>
      <trkpt lat="46.104528" lon="9.005912">
        <ele>1576.285</ele>
        <time>2020-08-22T07:54:47Z</time>
      </trkpt>
      <trkpt lat="46.104511" lon="9.005315">
        <ele>1572.355</ele>
        <time>2020-08-22T07:54:56Z</time>
      </trkpt>
      <trkpt lat="46.104539" lon="9.005123">
        <ele>1571.472</ele>
        <time>2020-08-22T07:54:59Z</time>
      </trkpt>
      <trkpt lat="46.104562" lon="9.005071">
        <ele>1570.934</ele>
        <time>2020-08-22T07:55:00Z</time>
      </trkpt>
      <trkpt lat="46.104591" lon="9.005013">
        <ele>1570.412</ele>
        <time>2020-08-22T07:55:01Z</time>
      </trkpt>
      <trkpt lat="46.104610" lon="9.004957">
        <ele>1570.439</ele>
        <time>2020-08-22T07:55:02Z</time>
      </trkpt>
      <trkpt lat="46.104620" lon="9.004882">
        <ele>1570.433</ele>
        <time>2020-08-22T07:55:03Z</time>
      </trkpt>
      <trkpt lat="46.104615" lon="9.004820">
        <ele>1569.423</ele>
        <time>2020-08-22T07:55:04Z</time>
      </trkpt>
      <trkpt lat="46.104601" lon="9.004757">
        <ele>1569.015</ele>
        <time>2020-08-22T07:55:05Z</time>
      </trkpt>
      <trkpt lat="46.104582" lon="9.004698">
        <ele>1569.008</ele>
        <time>2020-08-22T07:55:06Z</time>
      </trkpt>
      <trkpt lat="46.104560" lon="9.004639">
        <ele>1568.598</ele>
        <time>2020-08-22T07:55:07Z</time>
      </trkpt>
      <trkpt lat="46.104382" lon="9.004193">
        <ele>1565.188</ele>
        <time>2020-08-22T07:55:14Z</time>
      </trkpt>
      <trkpt lat="46.104059" lon="9.003527">
        <ele>1561.887</ele>
        <time>2020-08-22T07:55:23Z</time>
      </trkpt>
      <trkpt lat="46.103929" lon="9.003301">
        <ele>1560.377</ele>
        <time>2020-08-22T07:55:26Z</time>
      </trkpt>
      <trkpt lat="46.103639" lon="9.002842">
        <ele>1557.484</ele>
        <time>2020-08-22T07:55:32Z</time>
      </trkpt>
      <trkpt lat="46.103558" lon="9.002690">
        <ele>1556.526</ele>
        <time>2020-08-22T07:55:34Z</time>
      </trkpt>
      <trkpt lat="46.103443" lon="9.002401">
        <ele>1555.064</ele>
        <time>2020-08-22T07:55:37Z</time>
      </trkpt>
      <trkpt lat="46.103270" lon="9.001862">
        <ele>1552.111</ele>
        <time>2020-08-22T07:55:42Z</time>
      </trkpt>
      <trkpt lat="46.103244" lon="9.001741">
        <ele>1551.264</ele>
        <time>2020-08-22T07:55:43Z</time>
      </trkpt>
      <trkpt lat="46.103222" lon="9.001613">
        <ele>1551.206</ele>
        <time>2020-08-22T07:55:44Z</time>
      </trkpt>
      <trkpt lat="46.103042" lon="9.000926">
        <ele>1547.816</ele>
        <time>2020-08-22T07:55:50Z</time>
      </trkpt>
      <trkpt lat="46.102974" lon="9.000721">
        <ele>1546.908</ele>
        <time>2020-08-22T07:55:52Z</time>
      </trkpt>
      <trkpt lat="46.102925" lon="9.000626">
        <ele>1546.411</ele>
        <time>2020-08-22T07:55:53Z</time>
      </trkpt>
      <trkpt lat="46.102483" lon="8.999746">
        <ele>1543.041</ele>
        <time>2020-08-22T07:56:02Z</time>
      </trkpt>
      <trkpt lat="46.102176" lon="8.999256">
        <ele>1539.630</ele>
        <time>2020-08-22T07:56:07Z</time>
      </trkpt>
      <trkpt lat="46.101908" lon="8.998935">
        <ele>1536.860</ele>
        <time>2020-08-22T07:56:11Z</time>
      </trkpt>
      <trkpt lat="46.101852" lon="8.998848">
        <ele>1536.377</ele>
        <time>2020-08-22T07:56:12Z</time>
      </trkpt>
      <trkpt lat="46.101595" lon="8.998412">
        <ele>1532.429</ele>
        <time>2020-08-22T07:56:17Z</time>
      </trkpt>
      <trkpt lat="46.101435" lon="8.998095">
        <ele>1531.047</ele>
        <time>2020-08-22T07:56:21Z</time>
      </trkpt>
      <trkpt lat="46.101403" lon="8.998001">
        <ele>1530.014</ele>
        <time>2020-08-22T07:56:22Z</time>
      </trkpt>
      <trkpt lat="46.101294" lon="8.997601">
        <ele>1528.677</ele>
        <time>2020-08-22T07:56:26Z</time>
      </trkpt>
      <trkpt lat="46.101281" lon="8.997494">
        <ele>1528.161</ele>
        <time>2020-08-22T07:56:27Z</time>
      </trkpt>
      <trkpt lat="46.101276" lon="8.997391">
        <ele>1528.127</ele>
        <time>2020-08-22T07:56:28Z</time>
      </trkpt>
      <trkpt lat="46.101278" lon="8.997293">
        <ele>1527.108</ele>
        <time>2020-08-22T07:56:29Z</time>
      </trkpt>
      <trkpt lat="46.101277" lon="8.997195">
        <ele>1527.162</ele>
        <time>2020-08-22T07:56:30Z</time>
      </trkpt>
      <trkpt lat="46.101264" lon="8.997095">
        <ele>1526.752</ele>
        <time>2020-08-22T07:56:31Z</time>
      </trkpt>
      <trkpt lat="46.101241" lon="8.997006">
        <ele>1526.771</ele>
        <time>2020-08-22T07:56:32Z</time>
      </trkpt>
      <trkpt lat="46.101206" lon="8.996916">
        <ele>1525.741</ele>
        <time>2020-08-22T07:56:33Z</time>
      </trkpt>
      <trkpt lat="46.101171" lon="8.996835">
        <ele>1526.258</ele>
        <time>2020-08-22T07:56:34Z</time>
      </trkpt>
      <trkpt lat="46.101049" lon="8.996599">
        <ele>1523.840</ele>
        <time>2020-08-22T07:56:37Z</time>
      </trkpt>
      <trkpt lat="46.100996" lon="8.996523">
        <ele>1523.838</ele>
        <time>2020-08-22T07:56:38Z</time>
      </trkpt>
      <trkpt lat="46.100840" lon="8.996298">
        <ele>1522.355</ele>
        <time>2020-08-22T07:56:41Z</time>
      </trkpt>
      <trkpt lat="46.100622" lon="8.995951">
        <ele>1519.983</ele>
        <time>2020-08-22T07:56:46Z</time>
      </trkpt>
      <trkpt lat="46.100595" lon="8.995875">
        <ele>1519.925</ele>
        <time>2020-08-22T07:56:47Z</time>
      </trkpt>
      <trkpt lat="46.100574" lon="8.995792">
        <ele>1519.517</ele>
        <time>2020-08-22T07:56:48Z</time>
      </trkpt>
      <trkpt lat="46.100512" lon="8.995455">
        <ele>1517.508</ele>
        <time>2020-08-22T07:56:52Z</time>
      </trkpt>
      <trkpt lat="46.100489" lon="8.995366">
        <ele>1517.163</ele>
        <time>2020-08-22T07:56:53Z</time>
      </trkpt>
      <trkpt lat="46.100345" lon="8.994974">
        <ele>1514.683</ele>
        <time>2020-08-22T07:56:59Z</time>
      </trkpt>
      <trkpt lat="46.100312" lon="8.994943">
        <ele>1514.662</ele>
        <time>2020-08-22T07:57:00Z</time>
      </trkpt>
      <trkpt lat="46.100249" lon="8.994891">
        <ele>1514.252</ele>
        <time>2020-08-22T07:57:02Z</time>
      </trkpt>
      <trkpt lat="46.100205" lon="8.994883">
        <ele>1514.249</ele>
        <time>2020-08-22T07:57:03Z</time>
      </trkpt>
      <trkpt lat="46.100161" lon="8.994894">
        <ele>1513.761</ele>
        <time>2020-08-22T07:57:04Z</time>
      </trkpt>
      <trkpt lat="46.100113" lon="8.994917">
        <ele>1513.229</ele>
        <time>2020-08-22T07:57:05Z</time>
      </trkpt>
      <trkpt lat="46.100061" lon="8.994942">
        <ele>1512.766</ele>
        <time>2020-08-22T07:57:06Z</time>
      </trkpt>
      <trkpt lat="46.100008" lon="8.994959">
        <ele>1512.775</ele>
        <time>2020-08-22T07:57:07Z</time>
      </trkpt>
      <trkpt lat="46.099949" lon="8.994958">
        <ele>1511.828</ele>
        <time>2020-08-22T07:57:08Z</time>
      </trkpt>
      <trkpt lat="46.099893" lon="8.994952">
        <ele>1510.820</ele>
        <time>2020-08-22T07:57:09Z</time>
      </trkpt>
      <trkpt lat="46.099836" lon="8.994954">
        <ele>1510.308</ele>
        <time>2020-08-22T07:57:10Z</time>
      </trkpt>
      <trkpt lat="46.099781" lon="8.994967">
        <ele>1510.352</ele>
        <time>2020-08-22T07:57:11Z</time>
      </trkpt>
      <trkpt lat="46.099726" lon="8.994993">
        <ele>1509.492</ele>
        <time>2020-08-22T07:57:12Z</time>
      </trkpt>
      <trkpt lat="46.099667" lon="8.995026">
        <ele>1508.971</ele>
        <time>2020-08-22T07:57:13Z</time>
      </trkpt>
      <trkpt lat="46.099492" lon="8.995123">
        <ele>1507.461</ele>
        <time>2020-08-22T07:57:16Z</time>
      </trkpt>
      <trkpt lat="46.099325" lon="8.995181">
        <ele>1505.528</ele>
        <time>2020-08-22T07:57:19Z</time>
      </trkpt>
      <trkpt lat="46.099200" lon="8.995200">
        <ele>1504.640</ele>
        <time>2020-08-22T07:57:21Z</time>
      </trkpt>
      <trkpt lat="46.098935" lon="8.995246">
        <ele>1501.248</ele>
        <time>2020-08-22T07:57:25Z</time>
      </trkpt>
      <trkpt lat="46.098806" lon="8.995285">
        <ele>1500.785</ele>
        <time>2020-08-22T07:57:27Z</time>
      </trkpt>
      <trkpt lat="46.098617" lon="8.995354">
        <ele>1498.333</ele>
        <time>2020-08-22T07:57:30Z</time>
      </trkpt>
      <trkpt lat="46.098385" lon="8.995444">
        <ele>1495.423</ele>
        <time>2020-08-22T07:57:34Z</time>
      </trkpt>
      <trkpt lat="46.098331" lon="8.995444">
        <ele>1495.415</ele>
        <time>2020-08-22T07:57:35Z</time>
      </trkpt>
      <trkpt lat="46.098272" lon="8.995431">
        <ele>1494.508</ele>
        <time>2020-08-22T07:57:36Z</time>
      </trkpt>
      <trkpt lat="46.098214" lon="8.995406">
        <ele>1494.088</ele>
        <time>2020-08-22T07:57:37Z</time>
      </trkpt>
      <trkpt lat="46.098153" lon="8.995375">
        <ele>1493.548</ele>
        <time>2020-08-22T07:57:38Z</time>
      </trkpt>
      <trkpt lat="46.098095" lon="8.995341">
        <ele>1493.087</ele>
        <time>2020-08-22T07:57:39Z</time>
      </trkpt>
      <trkpt lat="46.097732" lon="8.995130">
        <ele>1489.277</ele>
        <time>2020-08-22T07:57:46Z</time>
      </trkpt>
      <trkpt lat="46.097417" lon="8.994922">
        <ele>1485.824</ele>
        <time>2020-08-22T07:57:51Z</time>
      </trkpt>
      <trkpt lat="46.097355" lon="8.994879">
        <ele>1485.896</ele>
        <time>2020-08-22T07:57:52Z</time>
      </trkpt>
      <trkpt lat="46.097111" lon="8.994709">
        <ele>1482.484</ele>
        <time>2020-08-22T07:57:56Z</time>
      </trkpt>
      <trkpt lat="46.096727" lon="8.994518">
        <ele>1479.121</ele>
        <time>2020-08-22T07:58:02Z</time>
      </trkpt>
      <trkpt lat="46.096537" lon="8.994391">
        <ele>1478.157</ele>
        <time>2020-08-22T07:58:05Z</time>
      </trkpt>
      <trkpt lat="46.096258" lon="8.994107">
        <ele>1474.800</ele>
        <time>2020-08-22T07:58:10Z</time>
      </trkpt>
      <trkpt lat="46.095988" lon="8.993797">
        <ele>1471.420</ele>
        <time>2020-08-22T07:58:15Z</time>
      </trkpt>
      <trkpt lat="46.095725" lon="8.993424">
        <ele>1468.008</ele>
        <time>2020-08-22T07:58:20Z</time>
      </trkpt>
      <trkpt lat="46.095405" lon="8.992972">
        <ele>1464.230</ele>
        <time>2020-08-22T07:58:26Z</time>
      </trkpt>
      <trkpt lat="46.095125" lon="8.992602">
        <ele>1460.810</ele>
        <time>2020-08-22T07:58:31Z</time>
      </trkpt>
      <trkpt lat="46.094752" lon="8.992146">
        <ele>1457.549</ele>
        <time>2020-08-22T07:58:37Z</time>
      </trkpt>
      <trkpt lat="46.094538" lon="8.991855">
        <ele>1454.129</ele>
        <time>2020-08-22T07:58:41Z</time>
      </trkpt>
      <trkpt lat="46.094445" lon="8.991688">
        <ele>1452.286</ele>
        <time>2020-08-22T07:58:44Z</time>
      </trkpt>
      <trkpt lat="46.094072" lon="8.991067">
        <ele>1448.818</ele>
        <time>2020-08-22T07:58:52Z</time>
      </trkpt>
      <trkpt lat="46.093844" lon="8.990706">
        <ele>1445.496</ele>
        <time>2020-08-22T07:58:56Z</time>
      </trkpt>
      <trkpt lat="46.093786" lon="8.990619">
        <ele>1445.473</ele>
        <time>2020-08-22T07:58:57Z</time>
      </trkpt>
      <trkpt lat="46.093615" lon="8.990356">
        <ele>1442.618</ele>
        <time>2020-08-22T07:59:00Z</time>
      </trkpt>
      <trkpt lat="46.093432" lon="8.990030">
        <ele>1440.198</ele>
        <time>2020-08-22T07:59:04Z</time>
      </trkpt>
      <trkpt lat="46.093258" lon="8.989714">
        <ele>1436.817</ele>
        <time>2020-08-22T07:59:08Z</time>
      </trkpt>
      <trkpt lat="46.093224" lon="8.989648">
        <ele>1436.808</ele>
        <time>2020-08-22T07:59:09Z</time>
      </trkpt>
      <trkpt lat="46.093029" lon="8.989280">
        <ele>1433.496</ele>
        <time>2020-08-22T07:59:14Z</time>
      </trkpt>
      <trkpt lat="46.092924" lon="8.989078">
        <ele>1432.086</ele>
        <time>2020-08-22T07:59:17Z</time>
      </trkpt>
      <trkpt lat="46.092859" lon="8.988957">
        <ele>1431.025</ele>
        <time>2020-08-22T07:59:19Z</time>
      </trkpt>
      <trkpt lat="46.092827" lon="8.988918">
        <ele>1430.545</ele>
        <time>2020-08-22T07:59:20Z</time>
      </trkpt>
      <trkpt lat="46.092793" lon="8.988897">
        <ele>1430.132</ele>
        <time>2020-08-22T07:59:21Z</time>
      </trkpt>
      <trkpt lat="46.092762" lon="8.988890">
        <ele>1430.154</ele>
        <time>2020-08-22T07:59:22Z</time>
      </trkpt>
      <trkpt lat="46.092737" lon="8.988889">
        <ele>1429.672</ele>
        <time>2020-08-22T07:59:23Z</time>
      </trkpt>
      <trkpt lat="46.092714" lon="8.988889">
        <ele>1429.149</ele>
        <time>2020-08-22T07:59:24Z</time>
      </trkpt>
      <trkpt lat="46.092698" lon="8.988893">
        <ele>1428.649</ele>
        <time>2020-08-22T07:59:25Z</time>
      </trkpt>
      <trkpt lat="46.092696" lon="8.988899">
        <ele>1428.602</ele>
        <time>2020-08-22T07:59:39Z</time>
      </trkpt>
      <trkpt lat="46.092689" lon="8.988882">
        <ele>1428.622</ele>
        <time>2020-08-22T07:59:50Z</time>
      </trkpt>
      <trkpt lat="46.092679" lon="8.988865">
        <ele>1428.608</ele>
        <time>2020-08-22T07:59:51Z</time>
      </trkpt>
      <trkpt lat="46.092664" lon="8.988843">
        <ele>1428.649</ele>
        <time>2020-08-22T07:59:52Z</time>
      </trkpt>
      <trkpt lat="46.092647" lon="8.988820">
        <ele>1428.689</ele>
        <time>2020-08-22T07:59:53Z</time>
      </trkpt>
      <trkpt lat="46.092629" lon="8.988795">
        <ele>1428.158</ele>
        <time>2020-08-22T07:59:54Z</time>
      </trkpt>
      <trkpt lat="46.092557" lon="8.988662">
        <ele>1427.718</ele>
        <time>2020-08-22T08:00:06Z</time>
      </trkpt>
      <trkpt lat="46.092457" lon="8.988435">
        <ele>1427.785</ele>
        <time>2020-08-22T08:00:27Z</time>
      </trkpt>
      <trkpt lat="46.092279" lon="8.988119">
        <ele>1425.757</ele>
        <time>2020-08-22T08:00:39Z</time>
      </trkpt>
      <trkpt lat="46.092145" lon="8.987972">
        <ele>1422.455</ele>
        <time>2020-08-22T08:00:47Z</time>
      </trkpt>
      <trkpt lat="46.092127" lon="8.987951">
        <ele>1422.422</ele>
        <time>2020-08-22T08:00:48Z</time>
      </trkpt>
      <trkpt lat="46.092069" lon="8.987896">
        <ele>1420.424</ele>
        <time>2020-08-22T08:00:52Z</time>
      </trkpt>
      <trkpt lat="46.091950" lon="8.987855">
        <ele>1417.104</ele>
        <time>2020-08-22T08:01:01Z</time>
      </trkpt>
      <trkpt lat="46.091859" lon="8.987761">
        <ele>1413.714</ele>
        <time>2020-08-22T08:01:08Z</time>
      </trkpt>
      <trkpt lat="46.091765" lon="8.987643">
        <ele>1410.308</ele>
        <time>2020-08-22T08:01:15Z</time>
      </trkpt>
      <trkpt lat="46.091673" lon="8.987507">
        <ele>1407.567</ele>
        <time>2020-08-22T08:01:22Z</time>
      </trkpt>
      <trkpt lat="46.091607" lon="8.987460">
        <ele>1404.687</ele>
        <time>2020-08-22T08:01:33Z</time>
      </trkpt>
      <trkpt lat="46.091616" lon="8.987442">
        <ele>1404.626</ele>
        <time>2020-08-22T08:02:00Z</time>
      </trkpt>
      <trkpt lat="46.091621" lon="8.987444">
        <ele>1404.676</ele>
        <time>2020-08-22T08:02:33Z</time>
      </trkpt>
      <trkpt lat="46.091616" lon="8.987446">
        <ele>1404.643</ele>
        <time>2020-08-22T08:02:53Z</time>
      </trkpt>
      <trkpt lat="46.091627" lon="8.987442">
        <ele>1405.595</ele>
        <time>2020-08-22T08:02:57Z</time>
      </trkpt>
      <trkpt lat="46.091652" lon="8.987431">
        <ele>1405.593</ele>
        <time>2020-08-22T08:03:00Z</time>
      </trkpt>
      <trkpt lat="46.091671" lon="8.987414">
        <ele>1405.510</ele>
        <time>2020-08-22T08:03:17Z</time>
      </trkpt>
      <trkpt lat="46.091722" lon="8.987417">
        <ele>1406.067</ele>
        <time>2020-08-22T08:03:35Z</time>
      </trkpt>
      <trkpt lat="46.091929" lon="8.987428">
        <ele>1404.681</ele>
        <time>2020-08-22T08:03:43Z</time>
      </trkpt>
      <trkpt lat="46.092342" lon="8.987450">
        <ele>1402.719</ele>
        <time>2020-08-22T08:03:56Z</time>
      </trkpt>
      <trkpt lat="46.092362" lon="8.987465">
        <ele>1402.708</ele>
        <time>2020-08-22T08:03:57Z</time>
      </trkpt>
      <trkpt lat="46.092381" lon="8.987472">
        <ele>1402.711</ele>
        <time>2020-08-22T08:03:58Z</time>
      </trkpt>
      <trkpt lat="46.092406" lon="8.987481">
        <ele>1402.781</ele>
        <time>2020-08-22T08:03:59Z</time>
      </trkpt>
      <trkpt lat="46.092437" lon="8.987496">
        <ele>1402.780</ele>
        <time>2020-08-22T08:04:00Z</time>
      </trkpt>
      <trkpt lat="46.092470" lon="8.987514">
        <ele>1402.730</ele>
        <time>2020-08-22T08:04:01Z</time>
      </trkpt>
      <trkpt lat="46.092653" lon="8.987603">
        <ele>1402.257</ele>
        <time>2020-08-22T08:04:07Z</time>
      </trkpt>
      <trkpt lat="46.092700" lon="8.987612">
        <ele>1401.799</ele>
        <time>2020-08-22T08:04:08Z</time>
      </trkpt>
      <trkpt lat="46.093131" lon="8.987601">
        <ele>1399.887</ele>
        <time>2020-08-22T08:04:18Z</time>
      </trkpt>
      <trkpt lat="46.093165" lon="8.987610">
        <ele>1399.854</ele>
        <time>2020-08-22T08:04:19Z</time>
      </trkpt>
      <trkpt lat="46.093184" lon="8.987619">
        <ele>1399.885</ele>
        <time>2020-08-22T08:04:20Z</time>
      </trkpt>
      <trkpt lat="46.093213" lon="8.987649">
        <ele>1399.389</ele>
        <time>2020-08-22T08:04:29Z</time>
      </trkpt>
      <trkpt lat="46.093337" lon="8.987722">
        <ele>1397.817</ele>
        <time>2020-08-22T08:04:40Z</time>
      </trkpt>
      <trkpt lat="46.093787" lon="8.987848">
        <ele>1396.908</ele>
        <time>2020-08-22T08:04:52Z</time>
      </trkpt>
      <trkpt lat="46.094093" lon="8.987792">
        <ele>1393.073</ele>
        <time>2020-08-22T08:05:01Z</time>
      </trkpt>
      <trkpt lat="46.094279" lon="8.987721">
        <ele>1389.743</ele>
        <time>2020-08-22T08:05:07Z</time>
      </trkpt>
      <trkpt lat="46.094363" lon="8.987548">
        <ele>1387.322</ele>
        <time>2020-08-22T08:05:12Z</time>
      </trkpt>
      <trkpt lat="46.094483" lon="8.987196">
        <ele>1385.852</ele>
        <time>2020-08-22T08:05:21Z</time>
      </trkpt>
      <trkpt lat="46.094494" lon="8.987189">
        <ele>1387.319</ele>
        <time>2020-08-22T08:05:23Z</time>
      </trkpt>
      <trkpt lat="46.094675" lon="8.987005">
        <ele>1386.371</ele>
        <time>2020-08-22T08:05:34Z</time>
      </trkpt>
      <trkpt lat="46.094754" lon="8.986976">
        <ele>1384.919</ele>
        <time>2020-08-22T08:05:37Z</time>
      </trkpt>
      <trkpt lat="46.094951" lon="8.987012">
        <ele>1381.536</ele>
        <time>2020-08-22T08:05:48Z</time>
      </trkpt>
      <trkpt lat="46.095070" lon="8.987004">
        <ele>1378.136</ele>
        <time>2020-08-22T08:05:57Z</time>
      </trkpt>
      <trkpt lat="46.095202" lon="8.987020">
        <ele>1374.817</ele>
        <time>2020-08-22T08:06:05Z</time>
      </trkpt>
      <trkpt lat="46.095338" lon="8.987048">
        <ele>1372.418</ele>
        <time>2020-08-22T08:06:17Z</time>
      </trkpt>
      <trkpt lat="46.095587" lon="8.987073">
        <ele>1371.908</ele>
        <time>2020-08-22T08:06:24Z</time>
      </trkpt>
      <trkpt lat="46.095711" lon="8.987102">
        <ele>1370.528</ele>
        <time>2020-08-22T08:06:27Z</time>
      </trkpt>
      <trkpt lat="46.095747" lon="8.987123">
        <ele>1370.598</ele>
        <time>2020-08-22T08:06:28Z</time>
      </trkpt>
      <trkpt lat="46.095773" lon="8.987150">
        <ele>1370.587</ele>
        <time>2020-08-22T08:06:29Z</time>
      </trkpt>
      <trkpt lat="46.095792" lon="8.987163">
        <ele>1370.047</ele>
        <time>2020-08-22T08:06:30Z</time>
      </trkpt>
      <trkpt lat="46.095811" lon="8.987164">
        <ele>1370.094</ele>
        <time>2020-08-22T08:06:31Z</time>
      </trkpt>
      <trkpt lat="46.095834" lon="8.987158">
        <ele>1370.076</ele>
        <time>2020-08-22T08:06:32Z</time>
      </trkpt>
      <trkpt lat="46.095867" lon="8.987158">
        <ele>1369.064</ele>
        <time>2020-08-22T08:06:33Z</time>
      </trkpt>
      <trkpt lat="46.095906" lon="8.987161">
        <ele>1368.051</ele>
        <time>2020-08-22T08:06:34Z</time>
      </trkpt>
      <trkpt lat="46.095944" lon="8.987171">
        <ele>1367.619</ele>
        <time>2020-08-22T08:06:35Z</time>
      </trkpt>
      <trkpt lat="46.095977" lon="8.987187">
        <ele>1367.109</ele>
        <time>2020-08-22T08:06:36Z</time>
      </trkpt>
      <trkpt lat="46.096004" lon="8.987204">
        <ele>1366.619</ele>
        <time>2020-08-22T08:06:37Z</time>
      </trkpt>
      <trkpt lat="46.096162" lon="8.987249">
        <ele>1363.708</ele>
        <time>2020-08-22T08:06:44Z</time>
      </trkpt>
      <trkpt lat="46.096242" lon="8.987218">
        <ele>1361.896</ele>
        <time>2020-08-22T08:06:48Z</time>
      </trkpt>
      <trkpt lat="46.096353" lon="8.987176">
        <ele>1358.476</ele>
        <time>2020-08-22T08:06:55Z</time>
      </trkpt>
      <trkpt lat="46.096450" lon="8.987118">
        <ele>1355.695</ele>
        <time>2020-08-22T08:07:00Z</time>
      </trkpt>
      <trkpt lat="46.096469" lon="8.987103">
        <ele>1355.135</ele>
        <time>2020-08-22T08:07:01Z</time>
      </trkpt>
      <trkpt lat="46.096567" lon="8.987050">
        <ele>1353.672</ele>
        <time>2020-08-22T08:07:05Z</time>
      </trkpt>
      <trkpt lat="46.096765" lon="8.987032">
        <ele>1351.754</ele>
        <time>2020-08-22T08:07:12Z</time>
      </trkpt>
      <trkpt lat="46.096849" lon="8.986951">
        <ele>1349.812</ele>
        <time>2020-08-22T08:07:18Z</time>
      </trkpt>
      <trkpt lat="46.096844" lon="8.986860">
        <ele>1348.339</ele>
        <time>2020-08-22T08:07:28Z</time>
      </trkpt>
      <trkpt lat="46.096802" lon="8.986721">
        <ele>1345.528</ele>
        <time>2020-08-22T08:07:42Z</time>
      </trkpt>
      <trkpt lat="46.096774" lon="8.986518">
        <ele>1343.189</ele>
        <time>2020-08-22T08:07:54Z</time>
      </trkpt>
      <trkpt lat="46.096774" lon="8.986179">
        <ele>1339.717</ele>
        <time>2020-08-22T08:08:07Z</time>
      </trkpt>
      <trkpt lat="46.096799" lon="8.986134">
        <ele>1339.208</ele>
        <time>2020-08-22T08:08:16Z</time>
      </trkpt>
      <trkpt lat="46.096805" lon="8.986129">
        <ele>1338.227</ele>
        <time>2020-08-22T08:08:51Z</time>
      </trkpt>
      <trkpt lat="46.096800" lon="8.986134">
        <ele>1338.297</ele>
        <time>2020-08-22T08:09:25Z</time>
      </trkpt>
      <trkpt lat="46.096811" lon="8.985997">
        <ele>1336.346</ele>
        <time>2020-08-22T08:09:42Z</time>
      </trkpt>
      <trkpt lat="46.096844" lon="8.985942">
        <ele>1333.956</ele>
        <time>2020-08-22T08:09:54Z</time>
      </trkpt>
      <trkpt lat="46.096868" lon="8.985882">
        <ele>1331.593</ele>
        <time>2020-08-22T08:10:06Z</time>
      </trkpt>
      <trkpt lat="46.096874" lon="8.985871">
        <ele>1331.575</ele>
        <time>2020-08-22T08:10:07Z</time>
      </trkpt>
      <trkpt lat="46.096886" lon="8.985820">
        <ele>1330.113</ele>
        <time>2020-08-22T08:10:15Z</time>
      </trkpt>
      <trkpt lat="46.096887" lon="8.985789">
        <ele>1330.160</ele>
        <time>2020-08-22T08:10:16Z</time>
      </trkpt>
      <trkpt lat="46.096886" lon="8.985759">
        <ele>1330.185</ele>
        <time>2020-08-22T08:10:17Z</time>
      </trkpt>
      <trkpt lat="46.096883" lon="8.985724">
        <ele>1329.189</ele>
        <time>2020-08-22T08:10:18Z</time>
      </trkpt>
      <trkpt lat="46.096882" lon="8.985692">
        <ele>1329.117</ele>
        <time>2020-08-22T08:10:19Z</time>
      </trkpt>
      <trkpt lat="46.096881" lon="8.985657">
        <ele>1328.608</ele>
        <time>2020-08-22T08:10:20Z</time>
      </trkpt>
      <trkpt lat="46.096875" lon="8.985498">
        <ele>1328.243</ele>
        <time>2020-08-22T08:10:23Z</time>
      </trkpt>
      <trkpt lat="46.096878" lon="8.985452">
        <ele>1327.753</ele>
        <time>2020-08-22T08:10:24Z</time>
      </trkpt>
      <trkpt lat="46.096887" lon="8.985404">
        <ele>1327.712</ele>
        <time>2020-08-22T08:10:25Z</time>
      </trkpt>
      <trkpt lat="46.096900" lon="8.985365">
        <ele>1327.782</ele>
        <time>2020-08-22T08:10:26Z</time>
      </trkpt>
      <trkpt lat="46.096915" lon="8.985330">
        <ele>1327.759</ele>
        <time>2020-08-22T08:10:27Z</time>
      </trkpt>
      <trkpt lat="46.096930" lon="8.985291">
        <ele>1327.741</ele>
        <time>2020-08-22T08:10:28Z</time>
      </trkpt>
      <trkpt lat="46.096941" lon="8.985261">
        <ele>1326.779</ele>
        <time>2020-08-22T08:10:29Z</time>
      </trkpt>
      <trkpt lat="46.096970" lon="8.985194">
        <ele>1325.896</ele>
        <time>2020-08-22T08:10:31Z</time>
      </trkpt>
      <trkpt lat="46.097011" lon="8.985112">
        <ele>1325.363</ele>
        <time>2020-08-22T08:10:34Z</time>
      </trkpt>
      <trkpt lat="46.097029" lon="8.985096">
        <ele>1324.844</ele>
        <time>2020-08-22T08:10:35Z</time>
      </trkpt>
      <trkpt lat="46.097217" lon="8.985039">
        <ele>1321.418</ele>
        <time>2020-08-22T08:10:44Z</time>
      </trkpt>
      <trkpt lat="46.097276" lon="8.985057">
        <ele>1320.508</ele>
        <time>2020-08-22T08:10:53Z</time>
      </trkpt>
      <trkpt lat="46.097287" lon="8.985065">
        <ele>1320.531</ele>
        <time>2020-08-22T08:10:54Z</time>
      </trkpt>
      <trkpt lat="46.097331" lon="8.985081">
        <ele>1320.011</ele>
        <time>2020-08-22T08:10:59Z</time>
      </trkpt>
      <trkpt lat="46.097382" lon="8.985062">
        <ele>1319.070</ele>
        <time>2020-08-22T08:11:04Z</time>
      </trkpt>
      <trkpt lat="46.097494" lon="8.985023">
        <ele>1316.170</ele>
        <time>2020-08-22T08:11:17Z</time>
      </trkpt>
      <trkpt lat="46.097667" lon="8.985037">
        <ele>1314.787</ele>
        <time>2020-08-22T08:11:26Z</time>
      </trkpt>
      <trkpt lat="46.097698" lon="8.985032">
        <ele>1313.389</ele>
        <time>2020-08-22T08:11:31Z</time>
      </trkpt>
      <trkpt lat="46.097710" lon="8.985036">
        <ele>1313.337</ele>
        <time>2020-08-22T08:11:32Z</time>
      </trkpt>
      <trkpt lat="46.097728" lon="8.985036">
        <ele>1313.324</ele>
        <time>2020-08-22T08:11:33Z</time>
      </trkpt>
      <trkpt lat="46.097752" lon="8.985036">
        <ele>1313.342</ele>
        <time>2020-08-22T08:11:34Z</time>
      </trkpt>
      <trkpt lat="46.097783" lon="8.985037">
        <ele>1312.822</ele>
        <time>2020-08-22T08:11:35Z</time>
      </trkpt>
      <trkpt lat="46.097941" lon="8.985042">
        <ele>1311.314</ele>
        <time>2020-08-22T08:11:39Z</time>
      </trkpt>
      <trkpt lat="46.098248" lon="8.985021">
        <ele>1310.408</ele>
        <time>2020-08-22T08:11:49Z</time>
      </trkpt>
      <trkpt lat="46.098367" lon="8.985015">
        <ele>1309.459</ele>
        <time>2020-08-22T08:11:56Z</time>
      </trkpt>
      <trkpt lat="46.098393" lon="8.984998">
        <ele>1308.919</ele>
        <time>2020-08-22T08:11:59Z</time>
      </trkpt>
      <trkpt lat="46.098593" lon="8.984958">
        <ele>1306.568</ele>
        <time>2020-08-22T08:12:05Z</time>
      </trkpt>
      <trkpt lat="46.098643" lon="8.984960">
        <ele>1306.598</ele>
        <time>2020-08-22T08:12:06Z</time>
      </trkpt>
      <trkpt lat="46.098680" lon="8.984968">
        <ele>1306.565</ele>
        <time>2020-08-22T08:12:07Z</time>
      </trkpt>
      <trkpt lat="46.098938" lon="8.985030">
        <ele>1306.597</ele>
        <time>2020-08-22T08:12:17Z</time>
      </trkpt>
      <trkpt lat="46.098961" lon="8.985027">
        <ele>1306.565</ele>
        <time>2020-08-22T08:12:18Z</time>
      </trkpt>
      <trkpt lat="46.098988" lon="8.985017">
        <ele>1306.082</ele>
        <time>2020-08-22T08:12:19Z</time>
      </trkpt>
      <trkpt lat="46.099009" lon="8.985013">
        <ele>1305.651</ele>
        <time>2020-08-22T08:12:20Z</time>
      </trkpt>
      <trkpt lat="46.099029" lon="8.985019">
        <ele>1305.101</ele>
        <time>2020-08-22T08:12:21Z</time>
      </trkpt>
      <trkpt lat="46.099040" lon="8.985027">
        <ele>1305.111</ele>
        <time>2020-08-22T08:12:22Z</time>
      </trkpt>
      <trkpt lat="46.099050" lon="8.985031">
        <ele>1305.108</ele>
        <time>2020-08-22T08:12:23Z</time>
      </trkpt>
      <trkpt lat="46.099099" lon="8.985037">
        <ele>1303.630</ele>
        <time>2020-08-22T08:12:34Z</time>
      </trkpt>
      <trkpt lat="46.099193" lon="8.985003">
        <ele>1300.810</ele>
        <time>2020-08-22T08:12:46Z</time>
      </trkpt>
      <trkpt lat="46.099235" lon="8.984976">
        <ele>1299.379</ele>
        <time>2020-08-22T08:12:56Z</time>
      </trkpt>
      <trkpt lat="46.099254" lon="8.984978">
        <ele>1299.379</ele>
        <time>2020-08-22T08:12:57Z</time>
      </trkpt>
      <trkpt lat="46.099278" lon="8.984981">
        <ele>1299.386</ele>
        <time>2020-08-22T08:12:58Z</time>
      </trkpt>
      <trkpt lat="46.099304" lon="8.984984">
        <ele>1298.858</ele>
        <time>2020-08-22T08:12:59Z</time>
      </trkpt>
      <trkpt lat="46.099334" lon="8.984989">
        <ele>1298.486</ele>
        <time>2020-08-22T08:13:00Z</time>
      </trkpt>
      <trkpt lat="46.099363" lon="8.984995">
        <ele>1298.493</ele>
        <time>2020-08-22T08:13:01Z</time>
      </trkpt>
      <trkpt lat="46.099440" lon="8.985046">
        <ele>1296.437</ele>
        <time>2020-08-22T08:13:04Z</time>
      </trkpt>
      <trkpt lat="46.099471" lon="8.985049">
        <ele>1295.949</ele>
        <time>2020-08-22T08:13:05Z</time>
      </trkpt>
      <trkpt lat="46.099502" lon="8.985046">
        <ele>1295.513</ele>
        <time>2020-08-22T08:13:06Z</time>
      </trkpt>
      <trkpt lat="46.099531" lon="8.985048">
        <ele>1295.508</ele>
        <time>2020-08-22T08:13:07Z</time>
      </trkpt>
      <trkpt lat="46.099553" lon="8.985048">
        <ele>1295.098</ele>
        <time>2020-08-22T08:13:08Z</time>
      </trkpt>
      <trkpt lat="46.099571" lon="8.985038">
        <ele>1295.068</ele>
        <time>2020-08-22T08:13:09Z</time>
      </trkpt>
      <trkpt lat="46.099587" lon="8.985020">
        <ele>1294.527</ele>
        <time>2020-08-22T08:13:10Z</time>
      </trkpt>
      <trkpt lat="46.099603" lon="8.985004">
        <ele>1293.527</ele>
        <time>2020-08-22T08:13:11Z</time>
      </trkpt>
      <trkpt lat="46.099623" lon="8.984993">
        <ele>1293.194</ele>
        <time>2020-08-22T08:13:12Z</time>
      </trkpt>
      <trkpt lat="46.099650" lon="8.984985">
        <ele>1292.656</ele>
        <time>2020-08-22T08:13:13Z</time>
      </trkpt>
      <trkpt lat="46.099723" lon="8.984969">
        <ele>1291.134</ele>
        <time>2020-08-22T08:13:16Z</time>
      </trkpt>
      <trkpt lat="46.099866" lon="8.984900">
        <ele>1288.321</ele>
        <time>2020-08-22T08:13:22Z</time>
      </trkpt>
      <trkpt lat="46.099909" lon="8.984874">
        <ele>1287.381</ele>
        <time>2020-08-22T08:13:24Z</time>
      </trkpt>
      <trkpt lat="46.100040" lon="8.984822">
        <ele>1283.961</ele>
        <time>2020-08-22T08:13:31Z</time>
      </trkpt>
      <trkpt lat="46.100283" lon="8.984761">
        <ele>1280.617</ele>
        <time>2020-08-22T08:13:42Z</time>
      </trkpt>
      <trkpt lat="46.100416" lon="8.984691">
        <ele>1279.108</ele>
        <time>2020-08-22T08:13:48Z</time>
      </trkpt>
      <trkpt lat="46.100550" lon="8.984619">
        <ele>1276.793</ele>
        <time>2020-08-22T08:13:54Z</time>
      </trkpt>
      <trkpt lat="46.100829" lon="8.984495">
        <ele>1273.843</ele>
        <time>2020-08-22T08:14:04Z</time>
      </trkpt>
      <trkpt lat="46.100857" lon="8.984487">
        <ele>1273.822</ele>
        <time>2020-08-22T08:14:06Z</time>
      </trkpt>
      <trkpt lat="46.100868" lon="8.984473">
        <ele>1272.942</ele>
        <time>2020-08-22T08:14:07Z</time>
      </trkpt>
      <trkpt lat="46.100880" lon="8.984460">
        <ele>1272.969</ele>
        <time>2020-08-22T08:14:08Z</time>
      </trkpt>
      <trkpt lat="46.100895" lon="8.984450">
        <ele>1272.411</ele>
        <time>2020-08-22T08:14:09Z</time>
      </trkpt>
      <trkpt lat="46.100908" lon="8.984445">
        <ele>1272.479</ele>
        <time>2020-08-22T08:14:10Z</time>
      </trkpt>
      <trkpt lat="46.100924" lon="8.984440">
        <ele>1271.996</ele>
        <time>2020-08-22T08:14:11Z</time>
      </trkpt>
      <trkpt lat="46.100940" lon="8.984434">
        <ele>1271.979</ele>
        <time>2020-08-22T08:14:12Z</time>
      </trkpt>
      <trkpt lat="46.100976" lon="8.984424">
        <ele>1271.005</ele>
        <time>2020-08-22T08:14:14Z</time>
      </trkpt>
      <trkpt lat="46.101213" lon="8.984264">
        <ele>1267.625</ele>
        <time>2020-08-22T08:14:26Z</time>
      </trkpt>
      <trkpt lat="46.101353" lon="8.984164">
        <ele>1264.708</ele>
        <time>2020-08-22T08:14:35Z</time>
      </trkpt>
      <trkpt lat="46.101477" lon="8.984072">
        <ele>1261.382</ele>
        <time>2020-08-22T08:14:45Z</time>
      </trkpt>
      <trkpt lat="46.101612" lon="8.983971">
        <ele>1258.562</ele>
        <time>2020-08-22T08:14:56Z</time>
      </trkpt>
      <trkpt lat="46.101632" lon="8.983895">
        <ele>1257.511</ele>
        <time>2020-08-22T08:15:00Z</time>
      </trkpt>
      <trkpt lat="46.101627" lon="8.983845">
        <ele>1256.591</ele>
        <time>2020-08-22T08:15:03Z</time>
      </trkpt>
      <trkpt lat="46.101618" lon="8.983833">
        <ele>1256.118</ele>
        <time>2020-08-22T08:15:04Z</time>
      </trkpt>
      <trkpt lat="46.101604" lon="8.983825">
        <ele>1256.120</ele>
        <time>2020-08-22T08:15:05Z</time>
      </trkpt>
      <trkpt lat="46.101584" lon="8.983821">
        <ele>1255.688</ele>
        <time>2020-08-22T08:15:06Z</time>
      </trkpt>
      <trkpt lat="46.101572" lon="8.983818">
        <ele>1255.635</ele>
        <time>2020-08-22T08:15:07Z</time>
      </trkpt>
      <trkpt lat="46.101551" lon="8.983819">
        <ele>1255.688</ele>
        <time>2020-08-22T08:15:08Z</time>
      </trkpt>
      <trkpt lat="46.101430" lon="8.983800">
        <ele>1253.224</ele>
        <time>2020-08-22T08:15:15Z</time>
      </trkpt>
      <trkpt lat="46.101415" lon="8.983805">
        <ele>1253.226</ele>
        <time>2020-08-22T08:15:16Z</time>
      </trkpt>
      <trkpt lat="46.101400" lon="8.983813">
        <ele>1252.708</ele>
        <time>2020-08-22T08:15:17Z</time>
      </trkpt>
      <trkpt lat="46.101362" lon="8.983803">
        <ele>1252.773</ele>
        <time>2020-08-22T08:15:29Z</time>
      </trkpt>
      <trkpt lat="46.101348" lon="8.983799">
        <ele>1252.783</ele>
        <time>2020-08-22T08:15:31Z</time>
      </trkpt>
      <trkpt lat="46.101338" lon="8.983800">
        <ele>1252.292</ele>
        <time>2020-08-22T08:15:32Z</time>
      </trkpt>
      <trkpt lat="46.101249" lon="8.983814">
        <ele>1251.262</ele>
        <time>2020-08-22T08:15:43Z</time>
      </trkpt>
      <trkpt lat="46.101121" lon="8.983809">
        <ele>1248.829</ele>
        <time>2020-08-22T08:15:54Z</time>
      </trkpt>
      <trkpt lat="46.101009" lon="8.983791">
        <ele>1246.071</ele>
        <time>2020-08-22T08:16:08Z</time>
      </trkpt>
      <trkpt lat="46.100997" lon="8.983790">
        <ele>1245.039</ele>
        <time>2020-08-22T08:16:35Z</time>
      </trkpt>
      <trkpt lat="46.100905" lon="8.983704">
        <ele>1242.196</ele>
        <time>2020-08-22T08:16:46Z</time>
      </trkpt>
      <trkpt lat="46.100896" lon="8.983702">
        <ele>1242.138</ele>
        <time>2020-08-22T08:16:47Z</time>
      </trkpt>
      <trkpt lat="46.100826" lon="8.983690">
        <ele>1241.270</ele>
        <time>2020-08-22T08:17:01Z</time>
      </trkpt>
      <trkpt lat="46.100799" lon="8.983685">
        <ele>1240.217</ele>
        <time>2020-08-22T08:17:03Z</time>
      </trkpt>
      <trkpt lat="46.100630" lon="8.983636">
        <ele>1237.308</ele>
        <time>2020-08-22T08:17:18Z</time>
      </trkpt>
      <trkpt lat="46.100603" lon="8.983635">
        <ele>1235.938</ele>
        <time>2020-08-22T08:17:35Z</time>
      </trkpt>
      <trkpt lat="46.100579" lon="8.983649">
        <ele>1235.998</ele>
        <time>2020-08-22T08:17:39Z</time>
      </trkpt>
      <trkpt lat="46.100568" lon="8.983646">
        <ele>1235.917</ele>
        <time>2020-08-22T08:17:40Z</time>
      </trkpt>
      <trkpt lat="46.100558" lon="8.983642">
        <ele>1235.947</ele>
        <time>2020-08-22T08:17:41Z</time>
      </trkpt>
      <trkpt lat="46.100436" lon="8.983627">
        <ele>1232.524</ele>
        <time>2020-08-22T08:17:53Z</time>
      </trkpt>
      <trkpt lat="46.100406" lon="8.983619">
        <ele>1231.586</ele>
        <time>2020-08-22T08:17:56Z</time>
      </trkpt>
      <trkpt lat="46.100398" lon="8.983609">
        <ele>1231.564</ele>
        <time>2020-08-22T08:17:57Z</time>
      </trkpt>
      <trkpt lat="46.100366" lon="8.983564">
        <ele>1230.191</ele>
        <time>2020-08-22T08:18:01Z</time>
      </trkpt>
      <trkpt lat="46.100328" lon="8.983528">
        <ele>1228.724</ele>
        <time>2020-08-22T08:18:06Z</time>
      </trkpt>
      <trkpt lat="46.100238" lon="8.983455">
        <ele>1225.804</ele>
        <time>2020-08-22T08:18:16Z</time>
      </trkpt>
      <trkpt lat="46.100230" lon="8.983403">
        <ele>1223.914</ele>
        <time>2020-08-22T08:18:21Z</time>
      </trkpt>
      <trkpt lat="46.100351" lon="8.983306">
        <ele>1220.508</ele>
        <time>2020-08-22T08:18:35Z</time>
      </trkpt>
      <trkpt lat="46.100441" lon="8.983229">
        <ele>1217.687</ele>
        <time>2020-08-22T08:18:47Z</time>
      </trkpt>
      <trkpt lat="46.100528" lon="8.983165">
        <ele>1215.767</ele>
        <time>2020-08-22T08:18:59Z</time>
      </trkpt>
      <trkpt lat="46.100646" lon="8.983038">
        <ele>1213.316</ele>
        <time>2020-08-22T08:19:14Z</time>
      </trkpt>
      <trkpt lat="46.100656" lon="8.983031">
        <ele>1213.396</ele>
        <time>2020-08-22T08:19:18Z</time>
      </trkpt>
      <trkpt lat="46.100665" lon="8.983023">
        <ele>1213.383</ele>
        <time>2020-08-22T08:19:19Z</time>
      </trkpt>
      <trkpt lat="46.100675" lon="8.983014">
        <ele>1213.325</ele>
        <time>2020-08-22T08:19:20Z</time>
      </trkpt>
      <trkpt lat="46.100685" lon="8.983005">
        <ele>1213.363</ele>
        <time>2020-08-22T08:19:21Z</time>
      </trkpt>
      <trkpt lat="46.100695" lon="8.982996">
        <ele>1213.370</ele>
        <time>2020-08-22T08:19:22Z</time>
      </trkpt>
      <trkpt lat="46.100706" lon="8.982983">
        <ele>1212.869</ele>
        <time>2020-08-22T08:19:23Z</time>
      </trkpt>
      <trkpt lat="46.100714" lon="8.982970">
        <ele>1212.804</ele>
        <time>2020-08-22T08:19:24Z</time>
      </trkpt>
      <trkpt lat="46.100723" lon="8.982959">
        <ele>1212.824</ele>
        <time>2020-08-22T08:19:25Z</time>
      </trkpt>
      <trkpt lat="46.100855" lon="8.982892">
        <ele>1212.808</ele>
        <time>2020-08-22T08:19:38Z</time>
      </trkpt>
      <trkpt lat="46.101077" lon="8.982789">
        <ele>1209.911</ele>
        <time>2020-08-22T08:19:49Z</time>
      </trkpt>
      <trkpt lat="46.101194" lon="8.982541">
        <ele>1208.561</ele>
        <time>2020-08-22T08:20:00Z</time>
      </trkpt>
      <trkpt lat="46.101274" lon="8.982389">
        <ele>1208.590</ele>
        <time>2020-08-22T08:20:11Z</time>
      </trkpt>
      <trkpt lat="46.101389" lon="8.982331">
        <ele>1208.050</ele>
        <time>2020-08-22T08:20:25Z</time>
      </trkpt>
      <trkpt lat="46.101410" lon="8.982310">
        <ele>1208.087</ele>
        <time>2020-08-22T08:20:28Z</time>
      </trkpt>
      <trkpt lat="46.101419" lon="8.982290">
        <ele>1209.459</ele>
        <time>2020-08-22T08:20:29Z</time>
      </trkpt>
      <trkpt lat="46.101501" lon="8.982103">
        <ele>1210.437</ele>
        <time>2020-08-22T08:20:47Z</time>
      </trkpt>
      <trkpt lat="46.101682" lon="8.981897">
        <ele>1209.064</ele>
        <time>2020-08-22T08:20:58Z</time>
      </trkpt>
      <trkpt lat="46.101713" lon="8.981881">
        <ele>1209.064</ele>
        <time>2020-08-22T08:20:59Z</time>
      </trkpt>
      <trkpt lat="46.101892" lon="8.981801">
        <ele>1205.606</ele>
        <time>2020-08-22T08:21:04Z</time>
      </trkpt>
      <trkpt lat="46.101976" lon="8.981724">
        <ele>1203.716</ele>
        <time>2020-08-22T08:21:07Z</time>
      </trkpt>
      <trkpt lat="46.102008" lon="8.981679">
        <ele>1203.708</ele>
        <time>2020-08-22T08:21:08Z</time>
      </trkpt>
      <trkpt lat="46.102041" lon="8.981642">
        <ele>1202.771</ele>
        <time>2020-08-22T08:21:09Z</time>
      </trkpt>
      <trkpt lat="46.102079" lon="8.981620">
        <ele>1202.241</ele>
        <time>2020-08-22T08:21:10Z</time>
      </trkpt>
      <trkpt lat="46.102122" lon="8.981621">
        <ele>1201.780</ele>
        <time>2020-08-22T08:21:11Z</time>
      </trkpt>
      <trkpt lat="46.102169" lon="8.981640">
        <ele>1200.320</ele>
        <time>2020-08-22T08:21:12Z</time>
      </trkpt>
      <trkpt lat="46.102216" lon="8.981664">
        <ele>1199.337</ele>
        <time>2020-08-22T08:21:13Z</time>
      </trkpt>
      <trkpt lat="46.102440" lon="8.981783">
        <ele>1195.539</ele>
        <time>2020-08-22T08:21:17Z</time>
      </trkpt>
      <trkpt lat="46.102495" lon="8.981804">
        <ele>1194.547</ele>
        <time>2020-08-22T08:21:18Z</time>
      </trkpt>
      <trkpt lat="46.102687" lon="8.981855">
        <ele>1191.294</ele>
        <time>2020-08-22T08:21:21Z</time>
      </trkpt>
      <trkpt lat="46.102837" lon="8.981858">
        <ele>1188.361</ele>
        <time>2020-08-22T08:21:23Z</time>
      </trkpt>
      <trkpt lat="46.103036" lon="8.981830">
        <ele>1184.421</ele>
        <time>2020-08-22T08:21:26Z</time>
      </trkpt>
      <trkpt lat="46.103219" lon="8.981803">
        <ele>1180.613</ele>
        <time>2020-08-22T08:21:29Z</time>
      </trkpt>
      <trkpt lat="46.103264" lon="8.981785">
        <ele>1179.108</ele>
        <time>2020-08-22T08:21:30Z</time>
      </trkpt>
      <trkpt lat="46.103296" lon="8.981753">
        <ele>1178.211</ele>
        <time>2020-08-22T08:21:31Z</time>
      </trkpt>
      <trkpt lat="46.103311" lon="8.981712">
        <ele>1177.221</ele>
        <time>2020-08-22T08:21:32Z</time>
      </trkpt>
      <trkpt lat="46.103311" lon="8.981665">
        <ele>1177.280</ele>
        <time>2020-08-22T08:21:33Z</time>
      </trkpt>
      <trkpt lat="46.103307" lon="8.981611">
        <ele>1176.330</ele>
        <time>2020-08-22T08:21:34Z</time>
      </trkpt>
      <trkpt lat="46.103323" lon="8.981512">
        <ele>1174.317</ele>
        <time>2020-08-22T08:21:36Z</time>
      </trkpt>
      <trkpt lat="46.103354" lon="8.981473">
        <ele>1173.459</ele>
        <time>2020-08-22T08:21:37Z</time>
      </trkpt>
      <trkpt lat="46.103401" lon="8.981440">
        <ele>1172.467</ele>
        <time>2020-08-22T08:21:38Z</time>
      </trkpt>
      <trkpt lat="46.103550" lon="8.981341">
        <ele>1169.584</ele>
        <time>2020-08-22T08:21:41Z</time>
      </trkpt>
      <trkpt lat="46.103599" lon="8.981297">
        <ele>1168.669</ele>
        <time>2020-08-22T08:21:42Z</time>
      </trkpt>
      <trkpt lat="46.103762" lon="8.981169">
        <ele>1165.204</ele>
        <time>2020-08-22T08:21:45Z</time>
      </trkpt>
      <trkpt lat="46.103819" lon="8.981150">
        <ele>1164.224</ele>
        <time>2020-08-22T08:21:46Z</time>
      </trkpt>
      <trkpt lat="46.103884" lon="8.981143">
        <ele>1162.808</ele>
        <time>2020-08-22T08:21:47Z</time>
      </trkpt>
      <trkpt lat="46.104119" lon="8.981140">
        <ele>1159.971</ele>
        <time>2020-08-22T08:21:50Z</time>
      </trkpt>
      <trkpt lat="46.104358" lon="8.981132">
        <ele>1156.631</ele>
        <time>2020-08-22T08:21:53Z</time>
      </trkpt>
      <trkpt lat="46.104481" lon="8.981124">
        <ele>1154.230</ele>
        <time>2020-08-22T08:21:55Z</time>
      </trkpt>
      <trkpt lat="46.104532" lon="8.981107">
        <ele>1153.260</ele>
        <time>2020-08-22T08:21:56Z</time>
      </trkpt>
      <trkpt lat="46.104579" lon="8.981070">
        <ele>1152.247</ele>
        <time>2020-08-22T08:21:57Z</time>
      </trkpt>
      <trkpt lat="46.104614" lon="8.981022">
        <ele>1151.359</ele>
        <time>2020-08-22T08:21:58Z</time>
      </trkpt>
      <trkpt lat="46.104638" lon="8.980966">
        <ele>1151.337</ele>
        <time>2020-08-22T08:21:59Z</time>
      </trkpt>
      <trkpt lat="46.104652" lon="8.980903">
        <ele>1150.374</ele>
        <time>2020-08-22T08:22:00Z</time>
      </trkpt>
      <trkpt lat="46.104661" lon="8.980827">
        <ele>1150.395</ele>
        <time>2020-08-22T08:22:01Z</time>
      </trkpt>
      <trkpt lat="46.104655" lon="8.980745">
        <ele>1149.349</ele>
        <time>2020-08-22T08:22:02Z</time>
      </trkpt>
      <trkpt lat="46.104641" lon="8.980662">
        <ele>1147.923</ele>
        <time>2020-08-22T08:22:03Z</time>
      </trkpt>
      <trkpt lat="46.104618" lon="8.980581">
        <ele>1146.908</ele>
        <time>2020-08-22T08:22:04Z</time>
      </trkpt>
      <trkpt lat="46.104598" lon="8.980507">
        <ele>1146.074</ele>
        <time>2020-08-22T08:22:05Z</time>
      </trkpt>
      <trkpt lat="46.104579" lon="8.980441">
        <ele>1144.554</ele>
        <time>2020-08-22T08:22:06Z</time>
      </trkpt>
      <trkpt lat="46.104556" lon="8.980377">
        <ele>1144.193</ele>
        <time>2020-08-22T08:22:07Z</time>
      </trkpt>
      <trkpt lat="46.104511" lon="8.980238">
        <ele>1142.193</ele>
        <time>2020-08-22T08:22:09Z</time>
      </trkpt>
      <trkpt lat="46.104473" lon="8.979993">
        <ele>1137.870</ele>
        <time>2020-08-22T08:22:12Z</time>
      </trkpt>
      <trkpt lat="46.104480" lon="8.979924">
        <ele>1136.922</ele>
        <time>2020-08-22T08:22:13Z</time>
      </trkpt>
      <trkpt lat="46.104506" lon="8.979829">
        <ele>1135.430</ele>
        <time>2020-08-22T08:22:14Z</time>
      </trkpt>
      <trkpt lat="46.104546" lon="8.979738">
        <ele>1134.037</ele>
        <time>2020-08-22T08:22:15Z</time>
      </trkpt>
      <trkpt lat="46.104591" lon="8.979653">
        <ele>1133.079</ele>
        <time>2020-08-22T08:22:16Z</time>
      </trkpt>
      <trkpt lat="46.104655" lon="8.979546">
        <ele>1131.605</ele>
        <time>2020-08-22T08:22:17Z</time>
      </trkpt>
      <trkpt lat="46.104713" lon="8.979469">
        <ele>1131.125</ele>
        <time>2020-08-22T08:22:18Z</time>
      </trkpt>
      <trkpt lat="46.104782" lon="8.979384">
        <ele>1130.108</ele>
        <time>2020-08-22T08:22:19Z</time>
      </trkpt>
      <trkpt lat="46.104830" lon="8.979306">
        <ele>1129.232</ele>
        <time>2020-08-22T08:22:20Z</time>
      </trkpt>
      <trkpt lat="46.104866" lon="8.979216">
        <ele>1127.732</ele>
        <time>2020-08-22T08:22:21Z</time>
      </trkpt>
      <trkpt lat="46.104885" lon="8.979113">
        <ele>1127.731</ele>
        <time>2020-08-22T08:22:22Z</time>
      </trkpt>
      <trkpt lat="46.104888" lon="8.979003">
        <ele>1126.871</ele>
        <time>2020-08-22T08:22:23Z</time>
      </trkpt>
      <trkpt lat="46.104874" lon="8.978898">
        <ele>1126.378</ele>
        <time>2020-08-22T08:22:24Z</time>
      </trkpt>
      <trkpt lat="46.104845" lon="8.978800">
        <ele>1125.850</ele>
        <time>2020-08-22T08:22:25Z</time>
      </trkpt>
      <trkpt lat="46.104813" lon="8.978702">
        <ele>1126.338</ele>
        <time>2020-08-22T08:22:26Z</time>
      </trkpt>
      <trkpt lat="46.104793" lon="8.978609">
        <ele>1125.865</ele>
        <time>2020-08-22T08:22:27Z</time>
      </trkpt>
      <trkpt lat="46.104788" lon="8.978521">
        <ele>1125.353</ele>
        <time>2020-08-22T08:22:28Z</time>
      </trkpt>
      <trkpt lat="46.104797" lon="8.978441">
        <ele>1124.404</ele>
        <time>2020-08-22T08:22:29Z</time>
      </trkpt>
      <trkpt lat="46.104811" lon="8.978362">
        <ele>1123.914</ele>
        <time>2020-08-22T08:22:30Z</time>
      </trkpt>
      <trkpt lat="46.104827" lon="8.978288">
        <ele>1122.908</ele>
        <time>2020-08-22T08:22:31Z</time>
      </trkpt>
      <trkpt lat="46.104851" lon="8.978213">
        <ele>1122.010</ele>
        <time>2020-08-22T08:22:32Z</time>
      </trkpt>
      <trkpt lat="46.104883" lon="8.978163">
        <ele>1121.580</ele>
        <time>2020-08-22T08:22:33Z</time>
      </trkpt>
      <trkpt lat="46.104921" lon="8.978137">
        <ele>1121.029</ele>
        <time>2020-08-22T08:22:34Z</time>
      </trkpt>
      <trkpt lat="46.104960" lon="8.978144">
        <ele>1120.039</ele>
        <time>2020-08-22T08:22:35Z</time>
      </trkpt>
      <trkpt lat="46.105000" lon="8.978183">
        <ele>1120.056</ele>
        <time>2020-08-22T08:22:36Z</time>
      </trkpt>
      <trkpt lat="46.105039" lon="8.978228">
        <ele>1119.198</ele>
        <time>2020-08-22T08:22:37Z</time>
      </trkpt>
      <trkpt lat="46.105081" lon="8.978258">
        <ele>1118.686</ele>
        <time>2020-08-22T08:22:38Z</time>
      </trkpt>
      <trkpt lat="46.105134" lon="8.978283">
        <ele>1117.693</ele>
        <time>2020-08-22T08:22:39Z</time>
      </trkpt>
      <trkpt lat="46.105188" lon="8.978293">
        <ele>1116.711</ele>
        <time>2020-08-22T08:22:40Z</time>
      </trkpt>
      <trkpt lat="46.105237" lon="8.978276">
        <ele>1115.221</ele>
        <time>2020-08-22T08:22:41Z</time>
      </trkpt>
      <trkpt lat="46.105263" lon="8.978236">
        <ele>1114.703</ele>
        <time>2020-08-22T08:22:42Z</time>
      </trkpt>
      <trkpt lat="46.105264" lon="8.978173">
        <ele>1113.808</ele>
        <time>2020-08-22T08:22:43Z</time>
      </trkpt>
      <trkpt lat="46.105240" lon="8.978102">
        <ele>1113.376</ele>
        <time>2020-08-22T08:22:44Z</time>
      </trkpt>
      <trkpt lat="46.105205" lon="8.978024">
        <ele>1111.956</ele>
        <time>2020-08-22T08:22:45Z</time>
      </trkpt>
      <trkpt lat="46.105081" lon="8.977736">
        <ele>1109.015</ele>
        <time>2020-08-22T08:22:48Z</time>
      </trkpt>
      <trkpt lat="46.104991" lon="8.977555">
        <ele>1108.085</ele>
        <time>2020-08-22T08:22:50Z</time>
      </trkpt>
      <trkpt lat="46.104833" lon="8.977245">
        <ele>1104.622</ele>
        <time>2020-08-22T08:22:53Z</time>
      </trkpt>
      <trkpt lat="46.104649" lon="8.976901">
        <ele>1101.334</ele>
        <time>2020-08-22T08:22:56Z</time>
      </trkpt>
      <trkpt lat="46.104587" lon="8.976816">
        <ele>1100.362</ele>
        <time>2020-08-22T08:22:57Z</time>
      </trkpt>
      <trkpt lat="46.104454" lon="8.976629">
        <ele>1097.999</ele>
        <time>2020-08-22T08:22:59Z</time>
      </trkpt>
      <trkpt lat="46.104405" lon="8.976522">
        <ele>1097.052</ele>
        <time>2020-08-22T08:23:00Z</time>
      </trkpt>
      <trkpt lat="46.104375" lon="8.976440">
        <ele>1096.053</ele>
        <time>2020-08-22T08:23:01Z</time>
      </trkpt>
      <trkpt lat="46.104348" lon="8.976343">
        <ele>1095.008</ele>
        <time>2020-08-22T08:23:02Z</time>
      </trkpt>
      <trkpt lat="46.104330" lon="8.976261">
        <ele>1094.608</ele>
        <time>2020-08-22T08:23:03Z</time>
      </trkpt>
      <trkpt lat="46.104278" lon="8.976071">
        <ele>1093.150</ele>
        <time>2020-08-22T08:23:05Z</time>
      </trkpt>
      <trkpt lat="46.104111" lon="8.975671">
        <ele>1089.780</ele>
        <time>2020-08-22T08:23:09Z</time>
      </trkpt>
      <trkpt lat="46.103869" lon="8.975195">
        <ele>1085.919</ele>
        <time>2020-08-22T08:23:14Z</time>
      </trkpt>
      <trkpt lat="46.103742" lon="8.974751">
        <ele>1082.149</ele>
        <time>2020-08-22T08:23:18Z</time>
      </trkpt>
      <trkpt lat="46.103635" lon="8.974116">
        <ele>1078.766</ele>
        <time>2020-08-22T08:23:25Z</time>
      </trkpt>
      <trkpt lat="46.103648" lon="8.973996">
        <ele>1076.858</ele>
        <time>2020-08-22T08:23:27Z</time>
      </trkpt>
      <trkpt lat="46.103678" lon="8.973941">
        <ele>1075.846</ele>
        <time>2020-08-22T08:23:28Z</time>
      </trkpt>
      <trkpt lat="46.103732" lon="8.973894">
        <ele>1075.383</ele>
        <time>2020-08-22T08:23:29Z</time>
      </trkpt>
      <trkpt lat="46.103807" lon="8.973863">
        <ele>1074.421</ele>
        <time>2020-08-22T08:23:30Z</time>
      </trkpt>
      <trkpt lat="46.103862" lon="8.973863">
        <ele>1073.941</ele>
        <time>2020-08-22T08:23:31Z</time>
      </trkpt>
      <trkpt lat="46.103927" lon="8.973880">
        <ele>1073.405</ele>
        <time>2020-08-22T08:23:32Z</time>
      </trkpt>
      <trkpt lat="46.103987" lon="8.973912">
        <ele>1073.408</ele>
        <time>2020-08-22T08:23:33Z</time>
      </trkpt>
      <trkpt lat="46.104041" lon="8.973943">
        <ele>1072.917</ele>
        <time>2020-08-22T08:23:34Z</time>
      </trkpt>
      <trkpt lat="46.104092" lon="8.973971">
        <ele>1072.077</ele>
        <time>2020-08-22T08:23:35Z</time>
      </trkpt>
      <trkpt lat="46.104146" lon="8.973990">
        <ele>1071.066</ele>
        <time>2020-08-22T08:23:36Z</time>
      </trkpt>
      <trkpt lat="46.104199" lon="8.973982">
        <ele>1070.086</ele>
        <time>2020-08-22T08:23:37Z</time>
      </trkpt>
      <trkpt lat="46.104244" lon="8.973933">
        <ele>1069.183</ele>
        <time>2020-08-22T08:23:38Z</time>
      </trkpt>
      <trkpt lat="46.104266" lon="8.973861">
        <ele>1068.115</ele>
        <time>2020-08-22T08:23:39Z</time>
      </trkpt>
      <trkpt lat="46.104269" lon="8.973779">
        <ele>1066.733</ele>
        <time>2020-08-22T08:23:40Z</time>
      </trkpt>
      <trkpt lat="46.104256" lon="8.973662">
        <ele>1065.770</ele>
        <time>2020-08-22T08:23:41Z</time>
      </trkpt>
      <trkpt lat="46.104244" lon="8.973493">
        <ele>1065.286</ele>
        <time>2020-08-22T08:23:43Z</time>
      </trkpt>
      <trkpt lat="46.104239" lon="8.973156">
        <ele>1063.860</ele>
        <time>2020-08-22T08:23:46Z</time>
      </trkpt>
      <trkpt lat="46.104223" lon="8.973054">
        <ele>1063.826</ele>
        <time>2020-08-22T08:23:47Z</time>
      </trkpt>
      <trkpt lat="46.104188" lon="8.972947">
        <ele>1063.308</ele>
        <time>2020-08-22T08:23:48Z</time>
      </trkpt>
      <trkpt lat="46.104149" lon="8.972861">
        <ele>1062.343</ele>
        <time>2020-08-22T08:23:49Z</time>
      </trkpt>
      <trkpt lat="46.104096" lon="8.972757">
        <ele>1061.493</ele>
        <time>2020-08-22T08:23:50Z</time>
      </trkpt>
      <trkpt lat="46.103916" lon="8.972434">
        <ele>1059.982</ele>
        <time>2020-08-22T08:23:53Z</time>
      </trkpt>
      <trkpt lat="46.103782" lon="8.972224">
        <ele>1058.582</ele>
        <time>2020-08-22T08:23:55Z</time>
      </trkpt>
      <trkpt lat="46.103709" lon="8.972137">
        <ele>1058.099</ele>
        <time>2020-08-22T08:23:56Z</time>
      </trkpt>
      <trkpt lat="46.103627" lon="8.972056">
        <ele>1057.541</ele>
        <time>2020-08-22T08:23:57Z</time>
      </trkpt>
      <trkpt lat="46.103463" lon="8.971892">
        <ele>1057.189</ele>
        <time>2020-08-22T08:23:59Z</time>
      </trkpt>
      <trkpt lat="46.103411" lon="8.971805">
        <ele>1056.136</ele>
        <time>2020-08-22T08:24:00Z</time>
      </trkpt>
      <trkpt lat="46.103383" lon="8.971730">
        <ele>1056.171</ele>
        <time>2020-08-22T08:24:01Z</time>
      </trkpt>
      <trkpt lat="46.103368" lon="8.971683">
        <ele>1056.141</ele>
        <time>2020-08-22T08:24:02Z</time>
      </trkpt>
      <trkpt lat="46.103357" lon="8.971656">
        <ele>1055.615</ele>
        <time>2020-08-22T08:24:03Z</time>
      </trkpt>
      <trkpt lat="46.103353" lon="8.971639">
        <ele>1055.608</ele>
        <time>2020-08-22T08:24:04Z</time>
      </trkpt>
      <trkpt lat="46.103334" lon="8.971600">
        <ele>1055.182</ele>
        <time>2020-08-22T08:24:15Z</time>
      </trkpt>
      <trkpt lat="46.103303" lon="8.971594">
        <ele>1054.722</ele>
        <time>2020-08-22T08:24:33Z</time>
      </trkpt>
      <trkpt lat="46.103292" lon="8.971571">
        <ele>1054.751</ele>
        <time>2020-08-22T08:24:35Z</time>
      </trkpt>
      <trkpt lat="46.103287" lon="8.971553">
        <ele>1054.731</ele>
        <time>2020-08-22T08:24:36Z</time>
      </trkpt>
      <trkpt lat="46.103285" lon="8.971532">
        <ele>1054.728</ele>
        <time>2020-08-22T08:24:37Z</time>
      </trkpt>
      <trkpt lat="46.103281" lon="8.971508">
        <ele>1054.720</ele>
        <time>2020-08-22T08:24:38Z</time>
      </trkpt>
      <trkpt lat="46.103281" lon="8.971483">
        <ele>1054.778</ele>
        <time>2020-08-22T08:24:39Z</time>
      </trkpt>
      <trkpt lat="46.103284" lon="8.971453">
        <ele>1054.795</ele>
        <time>2020-08-22T08:24:40Z</time>
      </trkpt>
      <trkpt lat="46.103291" lon="8.971406">
        <ele>1054.778</ele>
        <time>2020-08-22T08:24:41Z</time>
      </trkpt>
      <trkpt lat="46.103325" lon="8.971335">
        <ele>1054.733</ele>
        <time>2020-08-22T08:24:43Z</time>
      </trkpt>
      <trkpt lat="46.103432" lon="8.971201">
        <ele>1053.226</ele>
        <time>2020-08-22T08:24:46Z</time>
      </trkpt>
      <trkpt lat="46.103580" lon="8.970933">
        <ele>1053.208</ele>
        <time>2020-08-22T08:24:51Z</time>
      </trkpt>
      <trkpt lat="46.103611" lon="8.970901">
        <ele>1053.292</ele>
        <time>2020-08-22T08:24:52Z</time>
      </trkpt>
      <trkpt lat="46.103661" lon="8.970866">
        <ele>1053.252</ele>
        <time>2020-08-22T08:24:54Z</time>
      </trkpt>
      <trkpt lat="46.103718" lon="8.970844">
        <ele>1053.241</ele>
        <time>2020-08-22T08:24:55Z</time>
      </trkpt>
      <trkpt lat="46.103760" lon="8.970841">
        <ele>1053.271</ele>
        <time>2020-08-22T08:24:56Z</time>
      </trkpt>
      <trkpt lat="46.103807" lon="8.970844">
        <ele>1053.258</ele>
        <time>2020-08-22T08:24:57Z</time>
      </trkpt>
      <trkpt lat="46.103859" lon="8.970852">
        <ele>1052.350</ele>
        <time>2020-08-22T08:24:58Z</time>
      </trkpt>
      <trkpt lat="46.103916" lon="8.970867">
        <ele>1052.388</ele>
        <time>2020-08-22T08:24:59Z</time>
      </trkpt>
      <trkpt lat="46.104043" lon="8.970907">
        <ele>1051.895</ele>
        <time>2020-08-22T08:25:01Z</time>
      </trkpt>
      <trkpt lat="46.104114" lon="8.970918">
        <ele>1050.829</ele>
        <time>2020-08-22T08:25:02Z</time>
      </trkpt>
      <trkpt lat="46.104184" lon="8.970911">
        <ele>1050.300</ele>
        <time>2020-08-22T08:25:03Z</time>
      </trkpt>
      <trkpt lat="46.104252" lon="8.970883">
        <ele>1049.920</ele>
        <time>2020-08-22T08:25:04Z</time>
      </trkpt>
      <trkpt lat="46.104315" lon="8.970840">
        <ele>1049.408</ele>
        <time>2020-08-22T08:25:05Z</time>
      </trkpt>
      <trkpt lat="46.104381" lon="8.970791">
        <ele>1048.427</ele>
        <time>2020-08-22T08:25:06Z</time>
      </trkpt>
      <trkpt lat="46.104456" lon="8.970753">
        <ele>1047.927</ele>
        <time>2020-08-22T08:25:07Z</time>
      </trkpt>
      <trkpt lat="46.104513" lon="8.970747">
        <ele>1047.416</ele>
        <time>2020-08-22T08:25:08Z</time>
      </trkpt>
      <trkpt lat="46.104593" lon="8.970769">
        <ele>1046.016</ele>
        <time>2020-08-22T08:25:09Z</time>
      </trkpt>
      <trkpt lat="46.104655" lon="8.970818">
        <ele>1045.533</ele>
        <time>2020-08-22T08:25:10Z</time>
      </trkpt>
      <trkpt lat="46.104708" lon="8.970900">
        <ele>1045.565</ele>
        <time>2020-08-22T08:25:11Z</time>
      </trkpt>
      <trkpt lat="46.104733" lon="8.970982">
        <ele>1044.123</ele>
        <time>2020-08-22T08:25:12Z</time>
      </trkpt>
      <trkpt lat="46.104747" lon="8.971075">
        <ele>1044.150</ele>
        <time>2020-08-22T08:25:13Z</time>
      </trkpt>
      <trkpt lat="46.104750" lon="8.971166">
        <ele>1043.615</ele>
        <time>2020-08-22T08:25:14Z</time>
      </trkpt>
      <trkpt lat="46.104749" lon="8.971249">
        <ele>1042.665</ele>
        <time>2020-08-22T08:25:15Z</time>
      </trkpt>
      <trkpt lat="46.104749" lon="8.971334">
        <ele>1042.611</ele>
        <time>2020-08-22T08:25:16Z</time>
      </trkpt>
      <trkpt lat="46.104762" lon="8.971427">
        <ele>1041.708</ele>
        <time>2020-08-22T08:25:17Z</time>
      </trkpt>
      <trkpt lat="46.104791" lon="8.971520">
        <ele>1041.266</ele>
        <time>2020-08-22T08:25:18Z</time>
      </trkpt>
      <trkpt lat="46.104834" lon="8.971608">
        <ele>1040.276</ele>
        <time>2020-08-22T08:25:19Z</time>
      </trkpt>
      <trkpt lat="46.104888" lon="8.971703">
        <ele>1039.345</ele>
        <time>2020-08-22T08:25:20Z</time>
      </trkpt>
      <trkpt lat="46.105023" lon="8.971916">
        <ele>1035.445</ele>
        <time>2020-08-22T08:25:23Z</time>
      </trkpt>
      <trkpt lat="46.105067" lon="8.971975">
        <ele>1034.542</ele>
        <time>2020-08-22T08:25:24Z</time>
      </trkpt>
      <trkpt lat="46.105115" lon="8.972017">
        <ele>1033.514</ele>
        <time>2020-08-22T08:25:25Z</time>
      </trkpt>
      <trkpt lat="46.105167" lon="8.972034">
        <ele>1033.012</ele>
        <time>2020-08-22T08:25:26Z</time>
      </trkpt>
      <trkpt lat="46.105219" lon="8.972015">
        <ele>1032.119</ele>
        <time>2020-08-22T08:25:27Z</time>
      </trkpt>
      <trkpt lat="46.105252" lon="8.971974">
        <ele>1031.638</ele>
        <time>2020-08-22T08:25:28Z</time>
      </trkpt>
      <trkpt lat="46.105280" lon="8.971918">
        <ele>1030.670</ele>
        <time>2020-08-22T08:25:29Z</time>
      </trkpt>
      <trkpt lat="46.105301" lon="8.971859">
        <ele>1030.617</ele>
        <time>2020-08-22T08:25:30Z</time>
      </trkpt>
      <trkpt lat="46.105319" lon="8.971804">
        <ele>1030.108</ele>
        <time>2020-08-22T08:25:31Z</time>
      </trkpt>
      <trkpt lat="46.105340" lon="8.971755">
        <ele>1029.738</ele>
        <time>2020-08-22T08:25:32Z</time>
      </trkpt>
      <trkpt lat="46.105365" lon="8.971705">
        <ele>1028.758</ele>
        <time>2020-08-22T08:25:33Z</time>
      </trkpt>
      <trkpt lat="46.105390" lon="8.971655">
        <ele>1028.797</ele>
        <time>2020-08-22T08:25:34Z</time>
      </trkpt>
      <trkpt lat="46.105416" lon="8.971600">
        <ele>1027.777</ele>
        <time>2020-08-22T08:25:35Z</time>
      </trkpt>
      <trkpt lat="46.105462" lon="8.971490">
        <ele>1026.814</ele>
        <time>2020-08-22T08:25:37Z</time>
      </trkpt>
      <trkpt lat="46.105478" lon="8.971429">
        <ele>1026.346</ele>
        <time>2020-08-22T08:25:38Z</time>
      </trkpt>
      <trkpt lat="46.105510" lon="8.971280">
        <ele>1025.334</ele>
        <time>2020-08-22T08:25:40Z</time>
      </trkpt>
      <trkpt lat="46.105535" lon="8.971203">
        <ele>1024.491</ele>
        <time>2020-08-22T08:25:41Z</time>
      </trkpt>
      <trkpt lat="46.105557" lon="8.971150">
        <ele>1023.983</ele>
        <time>2020-08-22T08:25:42Z</time>
      </trkpt>
      <trkpt lat="46.105616" lon="8.971009">
        <ele>1022.525</ele>
        <time>2020-08-22T08:25:44Z</time>
      </trkpt>
      <trkpt lat="46.105641" lon="8.970927">
        <ele>1021.017</ele>
        <time>2020-08-22T08:25:45Z</time>
      </trkpt>
      <trkpt lat="46.105665" lon="8.970842">
        <ele>1020.508</ele>
        <time>2020-08-22T08:25:46Z</time>
      </trkpt>
      <trkpt lat="46.105682" lon="8.970762">
        <ele>1019.153</ele>
        <time>2020-08-22T08:25:47Z</time>
      </trkpt>
      <trkpt lat="46.105700" lon="8.970680">
        <ele>1018.113</ele>
        <time>2020-08-22T08:25:48Z</time>
      </trkpt>
      <trkpt lat="46.105723" lon="8.970598">
        <ele>1017.212</ele>
        <time>2020-08-22T08:25:49Z</time>
      </trkpt>
      <trkpt lat="46.105749" lon="8.970509">
        <ele>1015.782</ele>
        <time>2020-08-22T08:25:50Z</time>
      </trkpt>
      <trkpt lat="46.105850" lon="8.970186">
        <ele>1012.449</ele>
        <time>2020-08-22T08:25:54Z</time>
      </trkpt>
      <trkpt lat="46.105871" lon="8.970104">
        <ele>1011.481</ele>
        <time>2020-08-22T08:25:55Z</time>
      </trkpt>
      <trkpt lat="46.105887" lon="8.970020">
        <ele>1010.479</ele>
        <time>2020-08-22T08:25:56Z</time>
      </trkpt>
      <trkpt lat="46.105897" lon="8.969939">
        <ele>1009.536</ele>
        <time>2020-08-22T08:25:57Z</time>
      </trkpt>
      <trkpt lat="46.105901" lon="8.969857">
        <ele>1009.055</ele>
        <time>2020-08-22T08:25:58Z</time>
      </trkpt>
      <trkpt lat="46.105901" lon="8.969771">
        <ele>1008.007</ele>
        <time>2020-08-22T08:25:59Z</time>
      </trkpt>
      <trkpt lat="46.105896" lon="8.969690">
        <ele>1007.117</ele>
        <time>2020-08-22T08:26:00Z</time>
      </trkpt>
      <trkpt lat="46.105929" lon="8.969787">
        <ele>1006.608</ele>
        <time>2020-08-22T08:27:14Z</time>
      </trkpt>
      <trkpt lat="46.105950" lon="8.969843">
        <ele>1007.160</ele>
        <time>2020-08-22T08:27:29Z</time>
      </trkpt>
      <trkpt lat="46.106001" lon="8.970071">
        <ele>1003.750</ele>
        <time>2020-08-22T08:27:34Z</time>
      </trkpt>
      <trkpt lat="46.106034" lon="8.970579">
        <ele>1001.379</ele>
        <time>2020-08-22T08:27:43Z</time>
      </trkpt>
      <trkpt lat="46.106031" lon="8.970648">
        <ele>1001.399</ele>
        <time>2020-08-22T08:27:44Z</time>
      </trkpt>
      <trkpt lat="46.106027" lon="8.970719">
        <ele>1001.346</ele>
        <time>2020-08-22T08:27:45Z</time>
      </trkpt>
      <trkpt lat="46.106002" lon="8.971137">
        <ele>1000.848</ele>
        <time>2020-08-22T08:27:51Z</time>
      </trkpt>
      <trkpt lat="46.106017" lon="8.971214">
        <ele>1000.336</ele>
        <time>2020-08-22T08:27:52Z</time>
      </trkpt>
      <trkpt lat="46.106041" lon="8.971278">
        <ele>1000.343</ele>
        <time>2020-08-22T08:27:53Z</time>
      </trkpt>
      <trkpt lat="46.106076" lon="8.971344">
        <ele>999.438</ele>
        <time>2020-08-22T08:27:54Z</time>
      </trkpt>
      <trkpt lat="46.106108" lon="8.971403">
        <ele>999.970</ele>
        <time>2020-08-22T08:27:55Z</time>
      </trkpt>
      <trkpt lat="46.106128" lon="8.971466">
        <ele>999.417</ele>
        <time>2020-08-22T08:27:56Z</time>
      </trkpt>
      <trkpt lat="46.106131" lon="8.971541">
        <ele>998.908</ele>
        <time>2020-08-22T08:27:57Z</time>
      </trkpt>
      <trkpt lat="46.106121" lon="8.971612">
        <ele>998.948</ele>
        <time>2020-08-22T08:27:58Z</time>
      </trkpt>
      <trkpt lat="46.106104" lon="8.971677">
        <ele>998.998</ele>
        <time>2020-08-22T08:27:59Z</time>
      </trkpt>
      <trkpt lat="46.106083" lon="8.971738">
        <ele>998.997</ele>
        <time>2020-08-22T08:28:00Z</time>
      </trkpt>
      <trkpt lat="46.106003" lon="8.972323">
        <ele>998.477</ele>
        <time>2020-08-22T08:28:12Z</time>
      </trkpt>
      <trkpt lat="46.106053" lon="8.972458">
        <ele>999.964</ele>
        <time>2020-08-22T08:28:17Z</time>
      </trkpt>
      <trkpt lat="46.106136" lon="8.973062">
        <ele>998.446</ele>
        <time>2020-08-22T08:28:29Z</time>
      </trkpt>
      <trkpt lat="46.106142" lon="8.973125">
        <ele>998.464</ele>
        <time>2020-08-22T08:28:30Z</time>
      </trkpt>
      <trkpt lat="46.106166" lon="8.973314">
        <ele>998.461</ele>
        <time>2020-08-22T08:28:33Z</time>
      </trkpt>
      <trkpt lat="46.106175" lon="8.973375">
        <ele>998.482</ele>
        <time>2020-08-22T08:28:34Z</time>
      </trkpt>
      <trkpt lat="46.106270" lon="8.973958">
        <ele>996.543</ele>
        <time>2020-08-22T08:28:43Z</time>
      </trkpt>
      <trkpt lat="46.106292" lon="8.974021">
        <ele>996.517</ele>
        <time>2020-08-22T08:28:44Z</time>
      </trkpt>
      <trkpt lat="46.106317" lon="8.974081">
        <ele>996.508</ele>
        <time>2020-08-22T08:28:45Z</time>
      </trkpt>
      <trkpt lat="46.106498" lon="8.974510">
        <ele>995.513</ele>
        <time>2020-08-22T08:28:57Z</time>
      </trkpt>
      <trkpt lat="46.106538" lon="8.974538">
        <ele>995.533</ele>
        <time>2020-08-22T08:29:08Z</time>
      </trkpt>
      <trkpt lat="46.106554" lon="8.974548">
        <ele>995.152</ele>
        <time>2020-08-22T08:29:09Z</time>
      </trkpt>
      <trkpt lat="46.106571" lon="8.974559">
        <ele>995.192</ele>
        <time>2020-08-22T08:29:10Z</time>
      </trkpt>
      <trkpt lat="46.106588" lon="8.974566">
        <ele>994.129</ele>
        <time>2020-08-22T08:29:11Z</time>
      </trkpt>
      <trkpt lat="46.106607" lon="8.974572">
        <ele>994.151</ele>
        <time>2020-08-22T08:29:12Z</time>
      </trkpt>
      <trkpt lat="46.106804" lon="8.974730">
        <ele>991.269</ele>
        <time>2020-08-22T08:29:19Z</time>
      </trkpt>
      <trkpt lat="46.106839" lon="8.974774">
        <ele>990.736</ele>
        <time>2020-08-22T08:29:20Z</time>
      </trkpt>
      <trkpt lat="46.107216" lon="8.975162">
        <ele>989.896</ele>
        <time>2020-08-22T08:29:33Z</time>
      </trkpt>
      <trkpt lat="46.107507" lon="8.975606">
        <ele>989.331</ele>
        <time>2020-08-22T08:29:47Z</time>
      </trkpt>
      <trkpt lat="46.107680" lon="8.975864">
        <ele>988.824</ele>
        <time>2020-08-22T08:29:58Z</time>
      </trkpt>
      <trkpt lat="46.107687" lon="8.975882">
        <ele>988.808</ele>
        <time>2020-08-22T08:29:59Z</time>
      </trkpt>
      <trkpt lat="46.107696" lon="8.975909">
        <ele>987.864</ele>
        <time>2020-08-22T08:30:00Z</time>
      </trkpt>
      <trkpt lat="46.107704" lon="8.975946">
        <ele>987.454</ele>
        <time>2020-08-22T08:30:01Z</time>
      </trkpt>
      <trkpt lat="46.107716" lon="8.975989">
        <ele>986.933</ele>
        <time>2020-08-22T08:30:02Z</time>
      </trkpt>
      <trkpt lat="46.107733" lon="8.976038">
        <ele>986.933</ele>
        <time>2020-08-22T08:30:03Z</time>
      </trkpt>
      <trkpt lat="46.107798" lon="8.976279">
        <ele>987.440</ele>
        <time>2020-08-22T08:30:12Z</time>
      </trkpt>
      <trkpt lat="46.107858" lon="8.976355">
        <ele>985.972</ele>
        <time>2020-08-22T08:30:24Z</time>
      </trkpt>
      <trkpt lat="46.107871" lon="8.976429">
        <ele>984.060</ele>
        <time>2020-08-22T08:30:37Z</time>
      </trkpt>
      <trkpt lat="46.107946" lon="8.976536">
        <ele>980.667</ele>
        <time>2020-08-22T08:30:48Z</time>
      </trkpt>
      <trkpt lat="46.107957" lon="8.976603">
        <ele>979.254</ele>
        <time>2020-08-22T08:30:54Z</time>
      </trkpt>
      <trkpt lat="46.107962" lon="8.976617">
        <ele>978.756</ele>
        <time>2020-08-22T08:30:55Z</time>
      </trkpt>
      <trkpt lat="46.108005" lon="8.976718">
        <ele>976.311</ele>
        <time>2020-08-22T08:31:04Z</time>
      </trkpt>
      <trkpt lat="46.108050" lon="8.976793">
        <ele>974.408</ele>
        <time>2020-08-22T08:31:13Z</time>
      </trkpt>
      <trkpt lat="46.108134" lon="8.976870">
        <ele>971.010</ele>
        <time>2020-08-22T08:31:26Z</time>
      </trkpt>
      <trkpt lat="46.108223" lon="8.976949">
        <ele>967.710</ele>
        <time>2020-08-22T08:31:37Z</time>
      </trkpt>
      <trkpt lat="46.108258" lon="8.976939">
        <ele>966.259</ele>
        <time>2020-08-22T08:31:46Z</time>
      </trkpt>
      <trkpt lat="46.108262" lon="8.976838">
        <ele>963.849</ele>
        <time>2020-08-22T08:31:59Z</time>
      </trkpt>
      <trkpt lat="46.108288" lon="8.976854">
        <ele>962.926</ele>
        <time>2020-08-22T08:32:03Z</time>
      </trkpt>
      <trkpt lat="46.108298" lon="8.976857">
        <ele>962.488</ele>
        <time>2020-08-22T08:32:04Z</time>
      </trkpt>
      <trkpt lat="46.108424" lon="8.976960">
        <ele>959.546</ele>
        <time>2020-08-22T08:32:19Z</time>
      </trkpt>
      <trkpt lat="46.108491" lon="8.976924">
        <ele>956.623</ele>
        <time>2020-08-22T08:32:32Z</time>
      </trkpt>
      <trkpt lat="46.108498" lon="8.976973">
        <ele>956.165</ele>
        <time>2020-08-22T08:32:36Z</time>
      </trkpt>
      <trkpt lat="46.108523" lon="8.977108">
        <ele>954.268</ele>
        <time>2020-08-22T08:32:48Z</time>
      </trkpt>
      <trkpt lat="46.108550" lon="8.977104">
        <ele>954.214</ele>
        <time>2020-08-22T08:32:51Z</time>
      </trkpt>
      <trkpt lat="46.108613" lon="8.977097">
        <ele>954.208</ele>
        <time>2020-08-22T08:32:58Z</time>
      </trkpt>
      <trkpt lat="46.108666" lon="8.977057">
        <ele>952.811</ele>
        <time>2020-08-22T08:33:11Z</time>
      </trkpt>
      <trkpt lat="46.108696" lon="8.977087">
        <ele>951.351</ele>
        <time>2020-08-22T08:33:15Z</time>
      </trkpt>
      <trkpt lat="46.108704" lon="8.977102">
        <ele>950.860</ele>
        <time>2020-08-22T08:33:16Z</time>
      </trkpt>
      <trkpt lat="46.108715" lon="8.977119">
        <ele>950.840</ele>
        <time>2020-08-22T08:33:17Z</time>
      </trkpt>
      <trkpt lat="46.108728" lon="8.977130">
        <ele>950.417</ele>
        <time>2020-08-22T08:33:18Z</time>
      </trkpt>
      <trkpt lat="46.108744" lon="8.977142">
        <ele>949.979</ele>
        <time>2020-08-22T08:33:19Z</time>
      </trkpt>
      <trkpt lat="46.108760" lon="8.977160">
        <ele>948.967</ele>
        <time>2020-08-22T08:33:20Z</time>
      </trkpt>
      <trkpt lat="46.108779" lon="8.977179">
        <ele>948.914</ele>
        <time>2020-08-22T08:33:21Z</time>
      </trkpt>
      <trkpt lat="46.108913" lon="8.977234">
        <ele>946.522</ele>
        <time>2020-08-22T08:33:34Z</time>
      </trkpt>
      <trkpt lat="46.109028" lon="8.977255">
        <ele>943.162</ele>
        <time>2020-08-22T08:33:46Z</time>
      </trkpt>
      <trkpt lat="46.109152" lon="8.977309">
        <ele>941.208</ele>
        <time>2020-08-22T08:34:02Z</time>
      </trkpt>
      <trkpt lat="46.109359" lon="8.977460">
        <ele>940.708</ele>
        <time>2020-08-22T08:34:12Z</time>
      </trkpt>
      <trkpt lat="46.109378" lon="8.977489">
        <ele>942.267</ele>
        <time>2020-08-22T08:34:13Z</time>
      </trkpt>
      <trkpt lat="46.109533" lon="8.977697">
        <ele>942.237</ele>
        <time>2020-08-22T08:34:24Z</time>
      </trkpt>
      <trkpt lat="46.109607" lon="8.977796">
        <ele>942.246</ele>
        <time>2020-08-22T08:34:28Z</time>
      </trkpt>
      <trkpt lat="46.109621" lon="8.977817">
        <ele>942.236</ele>
        <time>2020-08-22T08:34:29Z</time>
      </trkpt>
      <trkpt lat="46.109753" lon="8.977941">
        <ele>940.313</ele>
        <time>2020-08-22T08:34:38Z</time>
      </trkpt>
      <trkpt lat="46.109874" lon="8.978025">
        <ele>936.985</ele>
        <time>2020-08-22T08:34:46Z</time>
      </trkpt>
      <trkpt lat="46.109946" lon="8.978064">
        <ele>934.033</ele>
        <time>2020-08-22T08:35:00Z</time>
      </trkpt>
      <trkpt lat="46.110004" lon="8.978075">
        <ele>932.620</ele>
        <time>2020-08-22T08:35:15Z</time>
      </trkpt>
      <trkpt lat="46.110036" lon="8.978078">
        <ele>932.663</ele>
        <time>2020-08-22T08:35:27Z</time>
      </trkpt>
      <trkpt lat="46.110091" lon="8.978092">
        <ele>931.144</ele>
        <time>2020-08-22T08:35:36Z</time>
      </trkpt>
      <trkpt lat="46.110309" lon="8.978205">
        <ele>929.218</ele>
        <time>2020-08-22T08:35:48Z</time>
      </trkpt>
      <trkpt lat="46.110322" lon="8.978206">
        <ele>929.208</ele>
        <time>2020-08-22T08:35:49Z</time>
      </trkpt>
      <trkpt lat="46.110466" lon="8.978229">
        <ele>926.851</ele>
        <time>2020-08-22T08:35:58Z</time>
      </trkpt>
      <trkpt lat="46.110481" lon="8.978241">
        <ele>926.331</ele>
        <time>2020-08-22T08:35:59Z</time>
      </trkpt>
      <trkpt lat="46.110493" lon="8.978255">
        <ele>925.880</ele>
        <time>2020-08-22T08:36:00Z</time>
      </trkpt>
      <trkpt lat="46.110504" lon="8.978266">
        <ele>925.490</ele>
        <time>2020-08-22T08:36:01Z</time>
      </trkpt>
      <trkpt lat="46.110512" lon="8.978281">
        <ele>925.417</ele>
        <time>2020-08-22T08:36:02Z</time>
      </trkpt>
      <trkpt lat="46.110519" lon="8.978299">
        <ele>925.429</ele>
        <time>2020-08-22T08:36:03Z</time>
      </trkpt>
      <trkpt lat="46.110525" lon="8.978315">
        <ele>924.947</ele>
        <time>2020-08-22T08:36:04Z</time>
      </trkpt>
      <trkpt lat="46.110532" lon="8.978330">
        <ele>924.974</ele>
        <time>2020-08-22T08:36:05Z</time>
      </trkpt>
      <trkpt lat="46.110569" lon="8.978390">
        <ele>923.912</ele>
        <time>2020-08-22T08:36:10Z</time>
      </trkpt>
      <trkpt lat="46.110642" lon="8.978473">
        <ele>923.432</ele>
        <time>2020-08-22T08:36:16Z</time>
      </trkpt>
      <trkpt lat="46.110678" lon="8.978532">
        <ele>923.405</ele>
        <time>2020-08-22T08:36:26Z</time>
      </trkpt>
      <trkpt lat="46.110746" lon="8.978609">
        <ele>925.808</ele>
        <time>2020-08-22T08:36:39Z</time>
      </trkpt>
      <trkpt lat="46.110814" lon="8.978715">
        <ele>926.876</ele>
        <time>2020-08-22T08:36:52Z</time>
      </trkpt>
      <trkpt lat="46.110933" lon="8.978880">
        <ele>927.376</ele>
        <time>2020-08-22T08:37:09Z</time>
      </trkpt>
      <trkpt lat="46.110965" lon="8.978919">
        <ele>927.375</ele>
        <time>2020-08-22T08:37:17Z</time>
      </trkpt>
      <trkpt lat="46.110981" lon="8.978936">
        <ele>927.375</ele>
        <time>2020-08-22T08:37:18Z</time>
      </trkpt>
      <trkpt lat="46.110993" lon="8.978952">
        <ele>927.352</ele>
        <time>2020-08-22T08:37:19Z</time>
      </trkpt>
      <trkpt lat="46.111002" lon="8.978970">
        <ele>927.364</ele>
        <time>2020-08-22T08:37:20Z</time>
      </trkpt>
      <trkpt lat="46.111008" lon="8.978989">
        <ele>927.312</ele>
        <time>2020-08-22T08:37:21Z</time>
      </trkpt>
      <trkpt lat="46.111016" lon="8.979002">
        <ele>927.329</ele>
        <time>2020-08-22T08:37:22Z</time>
      </trkpt>
      <trkpt lat="46.111031" lon="8.979025">
        <ele>925.874</ele>
        <time>2020-08-22T08:37:24Z</time>
      </trkpt>
      <trkpt lat="46.111054" lon="8.979034">
        <ele>924.956</ele>
        <time>2020-08-22T08:37:26Z</time>
      </trkpt>
      <trkpt lat="46.111251" lon="8.979185">
        <ele>923.421</ele>
        <time>2020-08-22T08:37:35Z</time>
      </trkpt>
      <trkpt lat="46.111437" lon="8.979535">
        <ele>922.508</ele>
        <time>2020-08-22T08:37:45Z</time>
      </trkpt>
      <trkpt lat="46.111551" lon="8.979817">
        <ele>923.422</ele>
        <time>2020-08-22T08:37:56Z</time>
      </trkpt>
      <trkpt lat="46.111613" lon="8.980075">
        <ele>924.952</ele>
        <time>2020-08-22T08:38:08Z</time>
      </trkpt>
      <trkpt lat="46.111586" lon="8.980098">
        <ele>923.931</ele>
        <time>2020-08-22T08:38:36Z</time>
      </trkpt>
      <trkpt lat="46.111604" lon="8.980191">
        <ele>925.481</ele>
        <time>2020-08-22T08:38:44Z</time>
      </trkpt>
      <trkpt lat="46.111625" lon="8.980277">
        <ele>926.368</ele>
        <time>2020-08-22T08:38:51Z</time>
      </trkpt>
      <trkpt lat="46.111709" lon="8.980427">
        <ele>927.340</ele>
        <time>2020-08-22T08:39:05Z</time>
      </trkpt>
      <trkpt lat="46.111779" lon="8.980544">
        <ele>929.238</ele>
        <time>2020-08-22T08:39:20Z</time>
      </trkpt>
      <trkpt lat="46.111866" lon="8.980635">
        <ele>931.635</ele>
        <time>2020-08-22T08:39:37Z</time>
      </trkpt>
      <trkpt lat="46.111965" lon="8.980725">
        <ele>934.091</ele>
        <time>2020-08-22T08:39:53Z</time>
      </trkpt>
      <trkpt lat="46.112027" lon="8.980858">
        <ele>935.581</ele>
        <time>2020-08-22T08:40:08Z</time>
      </trkpt>
      <trkpt lat="46.112028" lon="8.980986">
        <ele>936.919</ele>
        <time>2020-08-22T08:40:22Z</time>
      </trkpt>
      <trkpt lat="46.112018" lon="8.981025">
        <ele>937.408</ele>
        <time>2020-08-22T08:40:25Z</time>
      </trkpt>
      <trkpt lat="46.111978" lon="8.981149">
        <ele>937.974</ele>
        <time>2020-08-22T08:40:37Z</time>
      </trkpt>
      <trkpt lat="46.112020" lon="8.981175">
        <ele>937.944</ele>
        <time>2020-08-22T08:40:45Z</time>
      </trkpt>
      <trkpt lat="46.112047" lon="8.981171">
        <ele>937.923</ele>
        <time>2020-08-22T08:40:48Z</time>
      </trkpt>
      <trkpt lat="46.112059" lon="8.981176">
        <ele>937.983</ele>
        <time>2020-08-22T08:40:49Z</time>
      </trkpt>
      <trkpt lat="46.112070" lon="8.981187">
        <ele>937.930</ele>
        <time>2020-08-22T08:40:50Z</time>
      </trkpt>
      <trkpt lat="46.112133" lon="8.981284">
        <ele>939.392</ele>
        <time>2020-08-22T08:41:03Z</time>
      </trkpt>
      <trkpt lat="46.112182" lon="8.981375">
        <ele>940.770</ele>
        <time>2020-08-22T08:41:12Z</time>
      </trkpt>
      <trkpt lat="46.112238" lon="8.981445">
        <ele>941.747</ele>
        <time>2020-08-22T08:41:23Z</time>
      </trkpt>
      <trkpt lat="46.112357" lon="8.981649">
        <ele>942.273</ele>
        <time>2020-08-22T08:41:38Z</time>
      </trkpt>
      <trkpt lat="46.112412" lon="8.981691">
        <ele>942.285</ele>
        <time>2020-08-22T08:41:41Z</time>
      </trkpt>
      <trkpt lat="46.112430" lon="8.981699">
        <ele>942.713</ele>
        <time>2020-08-22T08:41:42Z</time>
      </trkpt>
      <trkpt lat="46.112445" lon="8.981708">
        <ele>942.708</ele>
        <time>2020-08-22T08:41:43Z</time>
      </trkpt>
      <trkpt lat="46.112489" lon="8.981745">
        <ele>943.142</ele>
        <time>2020-08-22T08:41:47Z</time>
      </trkpt>
      <trkpt lat="46.112498" lon="8.981758">
        <ele>943.172</ele>
        <time>2020-08-22T08:41:48Z</time>
      </trkpt>
      <trkpt lat="46.112510" lon="8.981769">
        <ele>943.121</ele>
        <time>2020-08-22T08:41:49Z</time>
      </trkpt>
      <trkpt lat="46.112525" lon="8.981774">
        <ele>943.651</ele>
        <time>2020-08-22T08:41:50Z</time>
      </trkpt>
      <trkpt lat="46.112566" lon="8.981745">
        <ele>943.678</ele>
        <time>2020-08-22T08:41:54Z</time>
      </trkpt>
      <trkpt lat="46.112579" lon="8.981735">
        <ele>944.130</ele>
        <time>2020-08-22T08:41:55Z</time>
      </trkpt>
      <trkpt lat="46.112597" lon="8.981731">
        <ele>944.128</ele>
        <time>2020-08-22T08:41:56Z</time>
      </trkpt>
      <trkpt lat="46.112609" lon="8.981725">
        <ele>944.125</ele>
        <time>2020-08-22T08:41:57Z</time>
      </trkpt>
      <trkpt lat="46.112623" lon="8.981718">
        <ele>944.627</ele>
        <time>2020-08-22T08:41:58Z</time>
      </trkpt>
      <trkpt lat="46.112638" lon="8.981714">
        <ele>945.168</ele>
        <time>2020-08-22T08:41:59Z</time>
      </trkpt>
      <trkpt lat="46.112656" lon="8.981711">
        <ele>945.114</ele>
        <time>2020-08-22T08:42:00Z</time>
      </trkpt>
      <trkpt lat="46.112669" lon="8.981711">
        <ele>945.508</ele>
        <time>2020-08-22T08:42:01Z</time>
      </trkpt>
      <trkpt lat="46.112683" lon="8.981714">
        <ele>945.537</ele>
        <time>2020-08-22T08:42:02Z</time>
      </trkpt>
      <trkpt lat="46.112693" lon="8.981717">
        <ele>946.067</ele>
        <time>2020-08-22T08:42:03Z</time>
      </trkpt>
      <trkpt lat="46.112776" lon="8.981724">
        <ele>947.556</ele>
        <time>2020-08-22T08:42:14Z</time>
      </trkpt>
      <trkpt lat="46.112880" lon="8.981795">
        <ele>947.536</ele>
        <time>2020-08-22T08:42:23Z</time>
      </trkpt>
      <trkpt lat="46.113009" lon="8.981892">
        <ele>947.583</ele>
        <time>2020-08-22T08:42:29Z</time>
      </trkpt>
      <trkpt lat="46.113030" lon="8.981895">
        <ele>947.555</ele>
        <time>2020-08-22T08:42:30Z</time>
      </trkpt>
      <trkpt lat="46.113052" lon="8.981898">
        <ele>947.593</ele>
        <time>2020-08-22T08:42:31Z</time>
      </trkpt>
      <trkpt lat="46.113075" lon="8.981905">
        <ele>947.590</ele>
        <time>2020-08-22T08:42:32Z</time>
      </trkpt>
      <trkpt lat="46.113093" lon="8.981916">
        <ele>947.522</ele>
        <time>2020-08-22T08:42:33Z</time>
      </trkpt>
      <trkpt lat="46.113105" lon="8.981930">
        <ele>947.562</ele>
        <time>2020-08-22T08:42:34Z</time>
      </trkpt>
      <trkpt lat="46.113118" lon="8.981943">
        <ele>947.508</ele>
        <time>2020-08-22T08:42:35Z</time>
      </trkpt>
      <trkpt lat="46.113182" lon="8.982014">
        <ele>947.508</ele>
        <time>2020-08-22T08:42:41Z</time>
      </trkpt>
      <trkpt lat="46.113199" lon="8.982035">
        <ele>947.587</ele>
        <time>2020-08-22T08:42:42Z</time>
      </trkpt>
      <trkpt lat="46.113208" lon="8.982044">
        <ele>948.067</ele>
        <time>2020-08-22T08:42:43Z</time>
      </trkpt>
      <trkpt lat="46.113384" lon="8.982158">
        <ele>949.986</ele>
        <time>2020-08-22T08:42:57Z</time>
      </trkpt>
      <trkpt lat="46.113440" lon="8.982190">
        <ele>949.916</ele>
        <time>2020-08-22T08:43:00Z</time>
      </trkpt>
      <trkpt lat="46.113451" lon="8.982200">
        <ele>949.933</ele>
        <time>2020-08-22T08:43:01Z</time>
      </trkpt>
      <trkpt lat="46.113466" lon="8.982212">
        <ele>949.945</ele>
        <time>2020-08-22T08:43:02Z</time>
      </trkpt>
      <trkpt lat="46.113539" lon="8.982292">
        <ele>950.483</ele>
        <time>2020-08-22T08:43:08Z</time>
      </trkpt>
      <trkpt lat="46.113553" lon="8.982302">
        <ele>950.410</ele>
        <time>2020-08-22T08:43:09Z</time>
      </trkpt>
      <trkpt lat="46.113568" lon="8.982311">
        <ele>950.486</ele>
        <time>2020-08-22T08:43:10Z</time>
      </trkpt>
      <trkpt lat="46.113579" lon="8.982323">
        <ele>950.460</ele>
        <time>2020-08-22T08:43:11Z</time>
      </trkpt>
      <trkpt lat="46.113590" lon="8.982339">
        <ele>950.426</ele>
        <time>2020-08-22T08:43:12Z</time>
      </trkpt>
      <trkpt lat="46.113600" lon="8.982359">
        <ele>950.408</ele>
        <time>2020-08-22T08:43:13Z</time>
      </trkpt>
      <trkpt lat="46.113652" lon="8.982463">
        <ele>951.873</ele>
        <time>2020-08-22T08:43:19Z</time>
      </trkpt>
      <trkpt lat="46.113667" lon="8.982481">
        <ele>952.393</ele>
        <time>2020-08-22T08:43:20Z</time>
      </trkpt>
      <trkpt lat="46.113828" lon="8.982729">
        <ele>952.322</ele>
        <time>2020-08-22T08:43:32Z</time>
      </trkpt>
      <trkpt lat="46.113836" lon="8.982749">
        <ele>952.312</ele>
        <time>2020-08-22T08:43:33Z</time>
      </trkpt>
      <trkpt lat="46.113844" lon="8.982769">
        <ele>952.329</ele>
        <time>2020-08-22T08:43:34Z</time>
      </trkpt>
      <trkpt lat="46.113856" lon="8.982792">
        <ele>952.321</ele>
        <time>2020-08-22T08:43:35Z</time>
      </trkpt>
      <trkpt lat="46.113868" lon="8.982820">
        <ele>952.339</ele>
        <time>2020-08-22T08:43:36Z</time>
      </trkpt>
      <trkpt lat="46.113875" lon="8.982845">
        <ele>952.336</ele>
        <time>2020-08-22T08:43:37Z</time>
      </trkpt>
      <trkpt lat="46.113883" lon="8.982866">
        <ele>952.383</ele>
        <time>2020-08-22T08:43:38Z</time>
      </trkpt>
      <trkpt lat="46.113892" lon="8.982882">
        <ele>952.325</ele>
        <time>2020-08-22T08:43:39Z</time>
      </trkpt>
      <trkpt lat="46.113903" lon="8.982909">
        <ele>952.317</ele>
        <time>2020-08-22T08:43:40Z</time>
      </trkpt>
      <trkpt lat="46.113917" lon="8.982946">
        <ele>952.308</ele>
        <time>2020-08-22T08:43:41Z</time>
      </trkpt>
      <trkpt lat="46.114002" lon="8.983188">
        <ele>953.753</ele>
        <time>2020-08-22T08:43:52Z</time>
      </trkpt>
      <trkpt lat="46.114028" lon="8.983299">
        <ele>955.263</ele>
        <time>2020-08-22T08:44:04Z</time>
      </trkpt>
      <trkpt lat="46.114043" lon="8.983408">
        <ele>957.682</ele>
        <time>2020-08-22T08:44:20Z</time>
      </trkpt>
      <trkpt lat="46.114105" lon="8.983548">
        <ele>959.522</ele>
        <time>2020-08-22T08:44:36Z</time>
      </trkpt>
      <trkpt lat="46.114132" lon="8.983600">
        <ele>959.579</ele>
        <time>2020-08-22T08:44:43Z</time>
      </trkpt>
      <trkpt lat="46.114138" lon="8.983624">
        <ele>959.521</ele>
        <time>2020-08-22T08:44:44Z</time>
      </trkpt>
      <trkpt lat="46.114148" lon="8.983651">
        <ele>959.589</ele>
        <time>2020-08-22T08:44:45Z</time>
      </trkpt>
      <trkpt lat="46.114169" lon="8.983688">
        <ele>959.576</ele>
        <time>2020-08-22T08:44:46Z</time>
      </trkpt>
      <trkpt lat="46.114191" lon="8.983725">
        <ele>959.592</ele>
        <time>2020-08-22T08:44:47Z</time>
      </trkpt>
      <trkpt lat="46.114245" lon="8.983850">
        <ele>958.073</ele>
        <time>2020-08-22T08:44:50Z</time>
      </trkpt>
      <trkpt lat="46.114335" lon="8.984355">
        <ele>956.120</ele>
        <time>2020-08-22T08:45:00Z</time>
      </trkpt>
      <trkpt lat="46.114345" lon="8.984674">
        <ele>956.108</ele>
        <time>2020-08-22T08:45:10Z</time>
      </trkpt>
      <trkpt lat="46.114318" lon="8.984846">
        <ele>959.594</ele>
        <time>2020-08-22T08:45:20Z</time>
      </trkpt>
      <trkpt lat="46.114264" lon="8.985167">
        <ele>960.034</ele>
        <time>2020-08-22T08:45:33Z</time>
      </trkpt>
      <trkpt lat="46.114254" lon="8.985185">
        <ele>960.463</ele>
        <time>2020-08-22T08:45:34Z</time>
      </trkpt>
      <trkpt lat="46.114245" lon="8.985200">
        <ele>960.453</ele>
        <time>2020-08-22T08:45:35Z</time>
      </trkpt>
      <trkpt lat="46.114238" lon="8.985223">
        <ele>960.480</ele>
        <time>2020-08-22T08:45:36Z</time>
      </trkpt>
      <trkpt lat="46.114233" lon="8.985252">
        <ele>960.432</ele>
        <time>2020-08-22T08:45:37Z</time>
      </trkpt>
      <trkpt lat="46.114231" lon="8.985277">
        <ele>960.460</ele>
        <time>2020-08-22T08:45:38Z</time>
      </trkpt>
      <trkpt lat="46.114231" lon="8.985309">
        <ele>960.437</ele>
        <time>2020-08-22T08:45:39Z</time>
      </trkpt>
      <trkpt lat="46.114225" lon="8.985337">
        <ele>960.432</ele>
        <time>2020-08-22T08:45:40Z</time>
      </trkpt>
      <trkpt lat="46.114220" lon="8.985366">
        <ele>960.492</ele>
        <time>2020-08-22T08:45:41Z</time>
      </trkpt>
      <trkpt lat="46.114192" lon="8.985427">
        <ele>959.011</ele>
        <time>2020-08-22T08:45:44Z</time>
      </trkpt>
      <trkpt lat="46.114007" lon="8.985490">
        <ele>956.108</ele>
        <time>2020-08-22T08:45:54Z</time>
      </trkpt>
      <trkpt lat="46.113946" lon="8.985500">
        <ele>956.198</ele>
        <time>2020-08-22T08:45:56Z</time>
      </trkpt>
      <trkpt lat="46.113853" lon="8.985586">
        <ele>955.618</ele>
        <time>2020-08-22T08:46:02Z</time>
      </trkpt>
      <trkpt lat="46.113844" lon="8.985608">
        <ele>955.667</ele>
        <time>2020-08-22T08:46:03Z</time>
      </trkpt>
      <trkpt lat="46.113781" lon="8.985729">
        <ele>952.387</ele>
        <time>2020-08-22T08:46:09Z</time>
      </trkpt>
      <trkpt lat="46.113765" lon="8.985752">
        <ele>952.324</ele>
        <time>2020-08-22T08:46:10Z</time>
      </trkpt>
      <trkpt lat="46.113697" lon="8.985821">
        <ele>951.336</ele>
        <time>2020-08-22T08:46:13Z</time>
      </trkpt>
      <trkpt lat="46.113686" lon="8.985849">
        <ele>951.334</ele>
        <time>2020-08-22T08:46:14Z</time>
      </trkpt>
      <trkpt lat="46.113680" lon="8.985874">
        <ele>950.811</ele>
        <time>2020-08-22T08:46:15Z</time>
      </trkpt>
      <trkpt lat="46.113644" lon="8.986062">
        <ele>948.051</ele>
        <time>2020-08-22T08:46:22Z</time>
      </trkpt>
      <trkpt lat="46.113556" lon="8.986242">
        <ele>945.501</ele>
        <time>2020-08-22T08:46:30Z</time>
      </trkpt>
      <trkpt lat="46.113530" lon="8.986604">
        <ele>944.111</ele>
        <time>2020-08-22T08:46:39Z</time>
      </trkpt>
      <trkpt lat="46.113545" lon="8.986626">
        <ele>944.108</ele>
        <time>2020-08-22T08:46:42Z</time>
      </trkpt>
      <trkpt lat="46.113555" lon="8.986637">
        <ele>944.120</ele>
        <time>2020-08-22T08:46:43Z</time>
      </trkpt>
      <trkpt lat="46.113572" lon="8.986648">
        <ele>944.120</ele>
        <time>2020-08-22T08:46:44Z</time>
      </trkpt>
      <trkpt lat="46.113594" lon="8.986648">
        <ele>944.119</ele>
        <time>2020-08-22T08:46:45Z</time>
      </trkpt>
      <trkpt lat="46.113614" lon="8.986628">
        <ele>944.129</ele>
        <time>2020-08-22T08:46:46Z</time>
      </trkpt>
      <trkpt lat="46.113630" lon="8.986597">
        <ele>943.676</ele>
        <time>2020-08-22T08:46:47Z</time>
      </trkpt>
      <trkpt lat="46.113664" lon="8.986539">
        <ele>943.118</ele>
        <time>2020-08-22T08:46:55Z</time>
      </trkpt>
      <trkpt lat="46.113681" lon="8.986527">
        <ele>944.126</ele>
        <time>2020-08-22T08:47:01Z</time>
      </trkpt>
      <trkpt lat="46.113793" lon="8.986451">
        <ele>945.563</ele>
        <time>2020-08-22T08:47:16Z</time>
      </trkpt>
      <trkpt lat="46.113829" lon="8.986436">
        <ele>946.092</ele>
        <time>2020-08-22T08:47:20Z</time>
      </trkpt>
      <trkpt lat="46.113923" lon="8.986398">
        <ele>948.073</ele>
        <time>2020-08-22T08:47:34Z</time>
      </trkpt>
      <trkpt lat="46.114057" lon="8.986368">
        <ele>948.420</ele>
        <time>2020-08-22T08:47:46Z</time>
      </trkpt>
      <trkpt lat="46.114267" lon="8.986501">
        <ele>947.008</ele>
        <time>2020-08-22T08:47:55Z</time>
      </trkpt>
      <trkpt lat="46.114406" lon="8.986624">
        <ele>947.024</ele>
        <time>2020-08-22T08:48:02Z</time>
      </trkpt>
      <trkpt lat="46.114425" lon="8.986630">
        <ele>947.084</ele>
        <time>2020-08-22T08:48:03Z</time>
      </trkpt>
      <trkpt lat="46.114444" lon="8.986636">
        <ele>947.033</ele>
        <time>2020-08-22T08:48:04Z</time>
      </trkpt>
      <trkpt lat="46.114601" lon="8.986679">
        <ele>948.453</ele>
        <time>2020-08-22T08:48:14Z</time>
      </trkpt>
      <trkpt lat="46.114804" lon="8.986777">
        <ele>950.870</ele>
        <time>2020-08-22T08:48:28Z</time>
      </trkpt>
      <trkpt lat="46.114809" lon="8.986793">
        <ele>950.862</ele>
        <time>2020-08-22T08:48:29Z</time>
      </trkpt>
      <trkpt lat="46.114811" lon="8.986812">
        <ele>950.820</ele>
        <time>2020-08-22T08:48:30Z</time>
      </trkpt>
      <trkpt lat="46.114811" lon="8.986841">
        <ele>950.427</ele>
        <time>2020-08-22T08:48:31Z</time>
      </trkpt>
      <trkpt lat="46.114814" lon="8.986859">
        <ele>950.873</ele>
        <time>2020-08-22T08:48:32Z</time>
      </trkpt>
      <trkpt lat="46.114814" lon="8.986885">
        <ele>950.885</ele>
        <time>2020-08-22T08:48:33Z</time>
      </trkpt>
      <trkpt lat="46.114810" lon="8.986907">
        <ele>950.813</ele>
        <time>2020-08-22T08:48:34Z</time>
      </trkpt>
      <trkpt lat="46.114806" lon="8.986928">
        <ele>950.808</ele>
        <time>2020-08-22T08:48:35Z</time>
      </trkpt>
      <trkpt lat="46.114799" lon="8.986952">
        <ele>950.882</ele>
        <time>2020-08-22T08:48:36Z</time>
      </trkpt>
      <trkpt lat="46.114791" lon="8.986975">
        <ele>950.812</ele>
        <time>2020-08-22T08:48:37Z</time>
      </trkpt>
      <trkpt lat="46.114784" lon="8.987000">
        <ele>951.311</ele>
        <time>2020-08-22T08:48:38Z</time>
      </trkpt>
      <trkpt lat="46.114778" lon="8.987026">
        <ele>950.841</ele>
        <time>2020-08-22T08:48:39Z</time>
      </trkpt>
      <trkpt lat="46.114773" lon="8.987047">
        <ele>950.888</ele>
        <time>2020-08-22T08:48:40Z</time>
      </trkpt>
      <trkpt lat="46.114768" lon="8.987065">
        <ele>951.310</ele>
        <time>2020-08-22T08:48:41Z</time>
      </trkpt>
      <trkpt lat="46.114764" lon="8.987081">
        <ele>951.368</ele>
        <time>2020-08-22T08:48:42Z</time>
      </trkpt>
      <trkpt lat="46.114761" lon="8.987099">
        <ele>951.325</ele>
        <time>2020-08-22T08:48:43Z</time>
      </trkpt>
      <trkpt lat="46.114757" lon="8.987118">
        <ele>951.337</ele>
        <time>2020-08-22T08:48:44Z</time>
      </trkpt>
      <trkpt lat="46.114755" lon="8.987183">
        <ele>952.349</ele>
        <time>2020-08-22T08:48:47Z</time>
      </trkpt>
      <trkpt lat="46.114753" lon="8.987204">
        <ele>952.313</ele>
        <time>2020-08-22T08:48:48Z</time>
      </trkpt>
      <trkpt lat="46.114751" lon="8.987227">
        <ele>952.308</ele>
        <time>2020-08-22T08:48:49Z</time>
      </trkpt>
      <trkpt lat="46.114754" lon="8.987244">
        <ele>952.398</ele>
        <time>2020-08-22T08:48:50Z</time>
      </trkpt>
      <trkpt lat="46.114761" lon="8.987266">
        <ele>952.858</ele>
        <time>2020-08-22T08:48:51Z</time>
      </trkpt>
      <trkpt lat="46.114765" lon="8.987274">
        <ele>952.847</ele>
        <time>2020-08-22T08:48:52Z</time>
      </trkpt>
      <trkpt lat="46.114813" lon="8.987340">
        <ele>953.287</ele>
        <time>2020-08-22T08:48:57Z</time>
      </trkpt>
      <trkpt lat="46.114827" lon="8.987335">
        <ele>953.274</ele>
        <time>2020-08-22T08:48:58Z</time>
      </trkpt>
      <trkpt lat="46.114840" lon="8.987327">
        <ele>953.226</ele>
        <time>2020-08-22T08:48:59Z</time>
      </trkpt>
      <trkpt lat="46.114851" lon="8.987321">
        <ele>953.284</ele>
        <time>2020-08-22T08:49:00Z</time>
      </trkpt>
      <trkpt lat="46.114863" lon="8.987314">
        <ele>953.221</ele>
        <time>2020-08-22T08:49:01Z</time>
      </trkpt>
      <trkpt lat="46.114878" lon="8.987308">
        <ele>953.267</ele>
        <time>2020-08-22T08:49:12Z</time>
      </trkpt>
      <trkpt lat="46.114909" lon="8.987338">
        <ele>952.881</ele>
        <time>2020-08-22T08:49:30Z</time>
      </trkpt>
      <trkpt lat="46.114922" lon="8.987335">
        <ele>952.819</ele>
        <time>2020-08-22T08:49:43Z</time>
      </trkpt>
      <trkpt lat="46.114979" lon="8.987294">
        <ele>952.808</ele>
        <time>2020-08-22T08:50:06Z</time>
      </trkpt>
      <trkpt lat="46.115086" lon="8.987279">
        <ele>953.281</ele>
        <time>2020-08-22T08:50:22Z</time>
      </trkpt>
      <trkpt lat="46.115290" lon="8.987296">
        <ele>954.221</ele>
        <time>2020-08-22T08:50:35Z</time>
      </trkpt>
      <trkpt lat="46.115506" lon="8.987454">
        <ele>956.170</ele>
        <time>2020-08-22T08:50:51Z</time>
      </trkpt>
      <trkpt lat="46.115733" lon="8.987683">
        <ele>956.150</ele>
        <time>2020-08-22T08:51:06Z</time>
      </trkpt>
      <trkpt lat="46.115923" lon="8.987890">
        <ele>957.677</ele>
        <time>2020-08-22T08:51:21Z</time>
      </trkpt>
      <trkpt lat="46.116124" lon="8.988051">
        <ele>958.599</ele>
        <time>2020-08-22T08:51:34Z</time>
      </trkpt>
      <trkpt lat="46.116215" lon="8.988206">
        <ele>958.517</ele>
        <time>2020-08-22T08:51:43Z</time>
      </trkpt>
      <trkpt lat="46.116232" lon="8.988219">
        <ele>958.544</ele>
        <time>2020-08-22T08:51:44Z</time>
      </trkpt>
      <trkpt lat="46.116249" lon="8.988231">
        <ele>958.599</ele>
        <time>2020-08-22T08:51:45Z</time>
      </trkpt>
      <trkpt lat="46.116269" lon="8.988241">
        <ele>958.507</ele>
        <time>2020-08-22T08:51:46Z</time>
      </trkpt>
      <trkpt lat="46.116287" lon="8.988256">
        <ele>958.527</ele>
        <time>2020-08-22T08:51:47Z</time>
      </trkpt>
      <trkpt lat="46.116300" lon="8.988271">
        <ele>958.508</ele>
        <time>2020-08-22T08:51:48Z</time>
      </trkpt>
      <trkpt lat="46.116312" lon="8.988290">
        <ele>958.514</ele>
        <time>2020-08-22T08:51:49Z</time>
      </trkpt>
      <trkpt lat="46.116324" lon="8.988317">
        <ele>958.544</ele>
        <time>2020-08-22T08:51:50Z</time>
      </trkpt>
      <trkpt lat="46.116331" lon="8.988330">
        <ele>958.593</ele>
        <time>2020-08-22T08:51:51Z</time>
      </trkpt>
      <trkpt lat="46.116344" lon="8.988350">
        <ele>958.553</ele>
        <time>2020-08-22T08:51:52Z</time>
      </trkpt>
      <trkpt lat="46.116392" lon="8.988391">
        <ele>958.520</ele>
        <time>2020-08-22T08:51:55Z</time>
      </trkpt>
      <trkpt lat="46.116415" lon="8.988393">
        <ele>958.512</ele>
        <time>2020-08-22T08:51:56Z</time>
      </trkpt>
      <trkpt lat="46.116435" lon="8.988393">
        <ele>958.530</ele>
        <time>2020-08-22T08:51:57Z</time>
      </trkpt>
      <trkpt lat="46.116456" lon="8.988390">
        <ele>958.547</ele>
        <time>2020-08-22T08:51:58Z</time>
      </trkpt>
      <trkpt lat="46.116478" lon="8.988391">
        <ele>958.584</ele>
        <time>2020-08-22T08:51:59Z</time>
      </trkpt>
      <trkpt lat="46.116499" lon="8.988396">
        <ele>958.507</ele>
        <time>2020-08-22T08:52:00Z</time>
      </trkpt>
      <trkpt lat="46.116517" lon="8.988409">
        <ele>958.517</ele>
        <time>2020-08-22T08:52:01Z</time>
      </trkpt>
      <trkpt lat="46.116535" lon="8.988425">
        <ele>958.508</ele>
        <time>2020-08-22T08:52:02Z</time>
      </trkpt>
      <trkpt lat="46.116554" lon="8.988439">
        <ele>958.513</ele>
        <time>2020-08-22T08:52:03Z</time>
      </trkpt>
      <trkpt lat="46.116836" lon="8.988684">
        <ele>959.583</ele>
        <time>2020-08-22T08:52:20Z</time>
      </trkpt>
      <trkpt lat="46.116890" lon="8.988713">
        <ele>960.912</ele>
        <time>2020-08-22T08:52:25Z</time>
      </trkpt>
      <trkpt lat="46.116902" lon="8.988715">
        <ele>960.922</ele>
        <time>2020-08-22T08:52:26Z</time>
      </trkpt>
      <trkpt lat="46.116981" lon="8.988797">
        <ele>963.319</ele>
        <time>2020-08-22T08:52:34Z</time>
      </trkpt>
      <trkpt lat="46.116993" lon="8.988800">
        <ele>963.381</ele>
        <time>2020-08-22T08:52:35Z</time>
      </trkpt>
      <trkpt lat="46.117007" lon="8.988800">
        <ele>963.369</ele>
        <time>2020-08-22T08:52:36Z</time>
      </trkpt>
      <trkpt lat="46.117020" lon="8.988795">
        <ele>963.856</ele>
        <time>2020-08-22T08:52:37Z</time>
      </trkpt>
      <trkpt lat="46.117269" lon="8.988769">
        <ele>964.874</ele>
        <time>2020-08-22T08:52:48Z</time>
      </trkpt>
      <trkpt lat="46.117337" lon="8.988789">
        <ele>963.356</ele>
        <time>2020-08-22T08:52:50Z</time>
      </trkpt>
      <trkpt lat="46.117697" lon="8.988839">
        <ele>963.321</ele>
        <time>2020-08-22T08:53:03Z</time>
      </trkpt>
      <trkpt lat="46.118062" lon="8.988714">
        <ele>962.408</ele>
        <time>2020-08-22T08:53:17Z</time>
      </trkpt>
      <trkpt lat="46.118317" lon="8.988775">
        <ele>961.432</ele>
        <time>2020-08-22T08:53:29Z</time>
      </trkpt>
      <trkpt lat="46.118746" lon="8.988781">
        <ele>958.082</ele>
        <time>2020-08-22T08:53:36Z</time>
      </trkpt>
      <trkpt lat="46.119462" lon="8.988871">
        <ele>956.661</ele>
        <time>2020-08-22T08:53:47Z</time>
      </trkpt>
      <trkpt lat="46.120055" lon="8.989173">
        <ele>956.161</ele>
        <time>2020-08-22T08:54:00Z</time>
      </trkpt>
      <trkpt lat="46.120489" lon="8.989456">
        <ele>956.158</ele>
        <time>2020-08-22T08:54:13Z</time>
      </trkpt>
      <trkpt lat="46.120569" lon="8.989511">
        <ele>956.150</ele>
        <time>2020-08-22T08:54:15Z</time>
      </trkpt>
      <trkpt lat="46.120664" lon="8.989553">
        <ele>956.188</ele>
        <time>2020-08-22T08:54:17Z</time>
      </trkpt>
      <trkpt lat="46.121130" lon="8.989782">
        <ele>952.825</ele>
        <time>2020-08-22T08:54:24Z</time>
      </trkpt>
      <trkpt lat="46.121197" lon="8.989824">
        <ele>952.365</ele>
        <time>2020-08-22T08:54:25Z</time>
      </trkpt>
      <trkpt lat="46.121346" lon="8.989933">
        <ele>950.468</ele>
        <time>2020-08-22T08:54:27Z</time>
      </trkpt>
      <trkpt lat="46.121433" lon="8.989976">
        <ele>949.414</ele>
        <time>2020-08-22T08:54:28Z</time>
      </trkpt>
      <trkpt lat="46.121524" lon="8.989998">
        <ele>948.908</ele>
        <time>2020-08-22T08:54:29Z</time>
      </trkpt>
      <trkpt lat="46.121814" lon="8.990057">
        <ele>946.051</ele>
        <time>2020-08-22T08:54:32Z</time>
      </trkpt>
      <trkpt lat="46.121914" lon="8.990099">
        <ele>945.151</ele>
        <time>2020-08-22T08:54:33Z</time>
      </trkpt>
      <trkpt lat="46.122018" lon="8.990157">
        <ele>943.610</ele>
        <time>2020-08-22T08:54:34Z</time>
      </trkpt>
      <trkpt lat="46.122113" lon="8.990226">
        <ele>942.710</ele>
        <time>2020-08-22T08:54:35Z</time>
      </trkpt>
      <trkpt lat="46.122202" lon="8.990302">
        <ele>941.777</ele>
        <time>2020-08-22T08:54:36Z</time>
      </trkpt>
      <trkpt lat="46.122466" lon="8.990526">
        <ele>938.399</ele>
        <time>2020-08-22T08:54:39Z</time>
      </trkpt>
      <trkpt lat="46.122563" lon="8.990585">
        <ele>937.447</ele>
        <time>2020-08-22T08:54:40Z</time>
      </trkpt>
      <trkpt lat="46.122665" lon="8.990630">
        <ele>935.974</ele>
        <time>2020-08-22T08:54:41Z</time>
      </trkpt>
      <trkpt lat="46.122957" lon="8.990719">
        <ele>932.677</ele>
        <time>2020-08-22T08:54:44Z</time>
      </trkpt>
      <trkpt lat="46.123127" lon="8.990756">
        <ele>930.661</ele>
        <time>2020-08-22T08:54:46Z</time>
      </trkpt>
      <trkpt lat="46.123227" lon="8.990796">
        <ele>930.227</ele>
        <time>2020-08-22T08:54:47Z</time>
      </trkpt>
      <trkpt lat="46.123319" lon="8.990843">
        <ele>928.708</ele>
        <time>2020-08-22T08:54:48Z</time>
      </trkpt>
      <trkpt lat="46.123537" lon="8.990948">
        <ele>925.412</ele>
        <time>2020-08-22T08:54:51Z</time>
      </trkpt>
      <trkpt lat="46.123598" lon="8.990940">
        <ele>924.922</ele>
        <time>2020-08-22T08:54:52Z</time>
      </trkpt>
      <trkpt lat="46.123651" lon="8.990911">
        <ele>923.961</ele>
        <time>2020-08-22T08:54:53Z</time>
      </trkpt>
      <trkpt lat="46.123690" lon="8.990876">
        <ele>923.411</ele>
        <time>2020-08-22T08:54:54Z</time>
      </trkpt>
      <trkpt lat="46.123716" lon="8.990843">
        <ele>923.078</ele>
        <time>2020-08-22T08:54:55Z</time>
      </trkpt>
      <trkpt lat="46.123732" lon="8.990819">
        <ele>922.520</ele>
        <time>2020-08-22T08:54:56Z</time>
      </trkpt>
      <trkpt lat="46.123743" lon="8.990801">
        <ele>923.038</ele>
        <time>2020-08-22T08:54:57Z</time>
      </trkpt>
      <trkpt lat="46.123773" lon="8.990730">
        <ele>922.075</ele>
        <time>2020-08-22T08:55:10Z</time>
      </trkpt>
      <trkpt lat="46.123779" lon="8.990723">
        <ele>916.781</ele>
        <time>2020-08-22T08:55:28Z</time>
      </trkpt>
      <trkpt lat="46.123779" lon="8.990720">
        <ele>924.461</ele>
        <time>2020-08-22T08:55:29Z</time>
      </trkpt>
      <trkpt lat="46.123777" lon="8.990720">
        <ele>923.417</ele>
        <time>2020-08-22T08:55:30Z</time>
      </trkpt>
      <trkpt lat="46.123775" lon="8.990724">
        <ele>912.408</ele>
        <time>2020-08-22T08:55:31Z</time>
      </trkpt>
      <trkpt lat="46.123776" lon="8.990727">
        <ele>909.073</ele>
        <time>2020-08-22T08:55:32Z</time>
      </trkpt>
      <trkpt lat="46.123775" lon="8.990729">
        <ele>912.413</ele>
        <time>2020-08-22T08:55:33Z</time>
      </trkpt>
      <trkpt lat="46.123773" lon="8.990740">
        <ele>935.082</ele>
        <time>2020-08-22T08:55:35Z</time>
      </trkpt>
      <trkpt lat="46.123771" lon="8.990765">
        <ele>932.652</ele>
        <time>2020-08-22T08:55:36Z</time>
      </trkpt>
      <trkpt lat="46.123775" lon="8.990752">
        <ele>929.229</ele>
        <time>2020-08-22T08:55:37Z</time>
      </trkpt>
      <trkpt lat="46.123777" lon="8.990751">
        <ele>921.531</ele>
        <time>2020-08-22T08:55:38Z</time>
      </trkpt>
      <trkpt lat="46.123778" lon="8.990751">
        <ele>921.579</ele>
        <time>2020-08-22T08:55:39Z</time>
      </trkpt>
      <trkpt lat="46.123778" lon="8.990751">
        <ele>925.426</ele>
        <time>2020-08-22T08:55:40Z</time>
      </trkpt>
      <trkpt lat="46.123778" lon="8.990753">
        <ele>920.152</ele>
        <time>2020-08-22T08:55:41Z</time>
      </trkpt>
      <trkpt lat="46.123777" lon="8.990753">
        <ele>926.853</ele>
        <time>2020-08-22T08:55:42Z</time>
      </trkpt>
      <trkpt lat="46.123778" lon="8.990753">
        <ele>923.008</ele>
        <time>2020-08-22T08:55:43Z</time>
      </trkpt>
      <trkpt lat="46.123785" lon="8.990762">
        <ele>921.508</ele>
        <time>2020-08-22T08:55:45Z</time>
      </trkpt>
      <trkpt lat="46.123800" lon="8.990757">
        <ele>922.060</ele>
        <time>2020-08-22T08:56:01Z</time>
      </trkpt>
      <trkpt lat="46.123806" lon="8.990746">
        <ele>921.580</ele>
        <time>2020-08-22T08:56:29Z</time>
      </trkpt>
      <trkpt lat="46.123906" lon="8.990629">
        <ele>923.079</ele>
        <time>2020-08-22T08:56:38Z</time>
      </trkpt>
      <trkpt lat="46.123930" lon="8.990609">
        <ele>923.039</ele>
        <time>2020-08-22T08:56:39Z</time>
      </trkpt>
      <trkpt lat="46.124098" lon="8.990603">
        <ele>921.546</ele>
        <time>2020-08-22T08:56:44Z</time>
      </trkpt>
      <trkpt lat="46.124167" lon="8.990664">
        <ele>921.528</ele>
        <time>2020-08-22T08:56:46Z</time>
      </trkpt>
      <trkpt lat="46.124203" lon="8.990704">
        <ele>921.576</ele>
        <time>2020-08-22T08:56:47Z</time>
      </trkpt>
      <trkpt lat="46.124246" lon="8.990753">
        <ele>921.023</ele>
        <time>2020-08-22T08:56:48Z</time>
      </trkpt>
      <trkpt lat="46.124453" lon="8.990965">
        <ele>919.622</ele>
        <time>2020-08-22T08:56:52Z</time>
      </trkpt>
      <trkpt lat="46.124511" lon="8.991019">
        <ele>918.662</ele>
        <time>2020-08-22T08:56:53Z</time>
      </trkpt>
      <trkpt lat="46.124712" lon="8.991205">
        <ele>916.208</ele>
        <time>2020-08-22T08:56:56Z</time>
      </trkpt>
      <trkpt lat="46.124785" lon="8.991262">
        <ele>915.308</ele>
        <time>2020-08-22T08:56:57Z</time>
      </trkpt>
      <trkpt lat="46.124855" lon="8.991327">
        <ele>915.347</ele>
        <time>2020-08-22T08:56:58Z</time>
      </trkpt>
      <trkpt lat="46.124923" lon="8.991404">
        <ele>913.897</ele>
        <time>2020-08-22T08:56:59Z</time>
      </trkpt>
      <trkpt lat="46.124990" lon="8.991484">
        <ele>913.336</ele>
        <time>2020-08-22T08:57:00Z</time>
      </trkpt>
      <trkpt lat="46.125184" lon="8.991730">
        <ele>910.916</ele>
        <time>2020-08-22T08:57:03Z</time>
      </trkpt>
      <trkpt lat="46.125279" lon="8.991888">
        <ele>909.023</ele>
        <time>2020-08-22T08:57:05Z</time>
      </trkpt>
      <trkpt lat="46.125323" lon="8.991935">
        <ele>908.535</ele>
        <time>2020-08-22T08:57:06Z</time>
      </trkpt>
      <trkpt lat="46.125366" lon="8.991945">
        <ele>908.123</ele>
        <time>2020-08-22T08:57:07Z</time>
      </trkpt>
      <trkpt lat="46.125402" lon="8.991917">
        <ele>907.680</ele>
        <time>2020-08-22T08:57:08Z</time>
      </trkpt>
      <trkpt lat="46.125414" lon="8.991868">
        <ele>907.661</ele>
        <time>2020-08-22T08:57:09Z</time>
      </trkpt>
      <trkpt lat="46.125400" lon="8.991799">
        <ele>906.621</ele>
        <time>2020-08-22T08:57:10Z</time>
      </trkpt>
      <trkpt lat="46.125372" lon="8.991731">
        <ele>906.113</ele>
        <time>2020-08-22T08:57:11Z</time>
      </trkpt>
      <trkpt lat="46.125335" lon="8.991648">
        <ele>906.108</ele>
        <time>2020-08-22T08:57:12Z</time>
      </trkpt>
      <trkpt lat="46.125303" lon="8.991565">
        <ele>905.231</ele>
        <time>2020-08-22T08:57:13Z</time>
      </trkpt>
      <trkpt lat="46.125274" lon="8.991485">
        <ele>904.791</ele>
        <time>2020-08-22T08:57:14Z</time>
      </trkpt>
      <trkpt lat="46.125208" lon="8.991309">
        <ele>903.360</ele>
        <time>2020-08-22T08:57:16Z</time>
      </trkpt>
      <trkpt lat="46.125182" lon="8.991214">
        <ele>902.880</ele>
        <time>2020-08-22T08:57:17Z</time>
      </trkpt>
      <trkpt lat="46.125152" lon="8.991108">
        <ele>902.337</ele>
        <time>2020-08-22T08:57:18Z</time>
      </trkpt>
      <trkpt lat="46.124973" lon="8.990661">
        <ele>898.039</ele>
        <time>2020-08-22T08:57:22Z</time>
      </trkpt>
      <trkpt lat="46.124864" lon="8.990443">
        <ele>896.537</ele>
        <time>2020-08-22T08:57:24Z</time>
      </trkpt>
      <trkpt lat="46.124810" lon="8.990362">
        <ele>895.674</ele>
        <time>2020-08-22T08:57:25Z</time>
      </trkpt>
      <trkpt lat="46.124733" lon="8.990261">
        <ele>894.185</ele>
        <time>2020-08-22T08:57:26Z</time>
      </trkpt>
      <trkpt lat="46.124595" lon="8.990116">
        <ele>892.789</ele>
        <time>2020-08-22T08:57:28Z</time>
      </trkpt>
      <trkpt lat="46.124493" lon="8.990036">
        <ele>891.217</ele>
        <time>2020-08-22T08:57:29Z</time>
      </trkpt>
      <trkpt lat="46.124181" lon="8.989771">
        <ele>887.908</ele>
        <time>2020-08-22T08:57:33Z</time>
      </trkpt>
      <trkpt lat="46.124118" lon="8.989681">
        <ele>886.993</ele>
        <time>2020-08-22T08:57:34Z</time>
      </trkpt>
      <trkpt lat="46.123919" lon="8.989379">
        <ele>884.093</ele>
        <time>2020-08-22T08:57:37Z</time>
      </trkpt>
      <trkpt lat="46.123589" lon="8.989026">
        <ele>879.772</ele>
        <time>2020-08-22T08:57:41Z</time>
      </trkpt>
      <trkpt lat="46.123523" lon="8.988943">
        <ele>878.792</ele>
        <time>2020-08-22T08:57:42Z</time>
      </trkpt>
      <trkpt lat="46.123387" lon="8.988787">
        <ele>876.319</ele>
        <time>2020-08-22T08:57:44Z</time>
      </trkpt>
      <trkpt lat="46.123318" lon="8.988737">
        <ele>875.491</ele>
        <time>2020-08-22T08:57:45Z</time>
      </trkpt>
      <trkpt lat="46.123255" lon="8.988690">
        <ele>874.479</ele>
        <time>2020-08-22T08:57:46Z</time>
      </trkpt>
      <trkpt lat="46.123201" lon="8.988626">
        <ele>873.926</ele>
        <time>2020-08-22T08:57:47Z</time>
      </trkpt>
      <trkpt lat="46.123166" lon="8.988550">
        <ele>873.079</ele>
        <time>2020-08-22T08:57:48Z</time>
      </trkpt>
      <trkpt lat="46.123147" lon="8.988467">
        <ele>872.005</ele>
        <time>2020-08-22T08:57:49Z</time>
      </trkpt>
      <trkpt lat="46.123134" lon="8.988371">
        <ele>871.525</ele>
        <time>2020-08-22T08:57:50Z</time>
      </trkpt>
      <trkpt lat="46.123127" lon="8.988282">
        <ele>870.608</ele>
        <time>2020-08-22T08:57:51Z</time>
      </trkpt>
      <trkpt lat="46.123113" lon="8.988190">
        <ele>870.622</ele>
        <time>2020-08-22T08:57:52Z</time>
      </trkpt>
      <trkpt lat="46.123082" lon="8.988121">
        <ele>869.622</ele>
        <time>2020-08-22T08:57:53Z</time>
      </trkpt>
      <trkpt lat="46.123038" lon="8.988065">
        <ele>868.611</ele>
        <time>2020-08-22T08:57:54Z</time>
      </trkpt>
      <trkpt lat="46.123018" lon="8.988011">
        <ele>868.231</ele>
        <time>2020-08-22T08:57:55Z</time>
      </trkpt>
      <trkpt lat="46.123029" lon="8.987948">
        <ele>868.298</ele>
        <time>2020-08-22T08:57:56Z</time>
      </trkpt>
      <trkpt lat="46.123053" lon="8.987926">
        <ele>867.730</ele>
        <time>2020-08-22T08:57:57Z</time>
      </trkpt>
      <trkpt lat="46.123097" lon="8.987933">
        <ele>867.228</ele>
        <time>2020-08-22T08:57:58Z</time>
      </trkpt>
      <trkpt lat="46.123127" lon="8.987960">
        <ele>866.795</ele>
        <time>2020-08-22T08:57:59Z</time>
      </trkpt>
      <trkpt lat="46.123162" lon="8.988008">
        <ele>866.773</ele>
        <time>2020-08-22T08:58:00Z</time>
      </trkpt>
      <trkpt lat="46.123199" lon="8.988089">
        <ele>866.785</ele>
        <time>2020-08-22T08:58:01Z</time>
      </trkpt>
      <trkpt lat="46.123208" lon="8.988136">
        <ele>866.213</ele>
        <time>2020-08-22T08:58:02Z</time>
      </trkpt>
      <trkpt lat="46.123209" lon="8.988215">
        <ele>865.808</ele>
        <time>2020-08-22T08:58:03Z</time>
      </trkpt>
      <trkpt lat="46.123210" lon="8.988280">
        <ele>865.882</ele>
        <time>2020-08-22T08:58:04Z</time>
      </trkpt>
      <trkpt lat="46.123226" lon="8.988345">
        <ele>864.882</ele>
        <time>2020-08-22T08:58:05Z</time>
      </trkpt>
      <trkpt lat="46.123253" lon="8.988378">
        <ele>864.361</ele>
        <time>2020-08-22T08:58:06Z</time>
      </trkpt>
      <trkpt lat="46.123296" lon="8.988387">
        <ele>863.861</ele>
        <time>2020-08-22T08:58:07Z</time>
      </trkpt>
      <trkpt lat="46.123346" lon="8.988376">
        <ele>863.888</ele>
        <time>2020-08-22T08:58:08Z</time>
      </trkpt>
      <trkpt lat="46.123396" lon="8.988358">
        <ele>862.960</ele>
        <time>2020-08-22T08:58:09Z</time>
      </trkpt>
      <trkpt lat="46.123455" lon="8.988352">
        <ele>862.418</ele>
        <time>2020-08-22T08:58:10Z</time>
      </trkpt>
      <trkpt lat="46.123704" lon="8.988339">
        <ele>860.535</ele>
        <time>2020-08-22T08:58:13Z</time>
      </trkpt>
      <trkpt lat="46.123788" lon="8.988307">
        <ele>860.042</ele>
        <time>2020-08-22T08:58:14Z</time>
      </trkpt>
      <trkpt lat="46.123875" lon="8.988266">
        <ele>858.522</ele>
        <time>2020-08-22T08:58:15Z</time>
      </trkpt>
      <trkpt lat="46.123959" lon="8.988227">
        <ele>858.114</ele>
        <time>2020-08-22T08:58:16Z</time>
      </trkpt>
      <trkpt lat="46.124051" lon="8.988196">
        <ele>857.108</ele>
        <time>2020-08-22T08:58:17Z</time>
      </trkpt>
      <trkpt lat="46.124156" lon="8.988168">
        <ele>855.739</ele>
        <time>2020-08-22T08:58:18Z</time>
      </trkpt>
      <trkpt lat="46.124324" lon="8.988131">
        <ele>853.789</ele>
        <time>2020-08-22T08:58:20Z</time>
      </trkpt>
      <trkpt lat="46.124406" lon="8.988133">
        <ele>852.868</ele>
        <time>2020-08-22T08:58:21Z</time>
      </trkpt>
      <trkpt lat="46.124490" lon="8.988160">
        <ele>851.888</ele>
        <time>2020-08-22T08:58:22Z</time>
      </trkpt>
      <trkpt lat="46.124860" lon="8.988356">
        <ele>848.915</ele>
        <time>2020-08-22T08:58:26Z</time>
      </trkpt>
      <trkpt lat="46.125124" lon="8.988497">
        <ele>845.187</ele>
        <time>2020-08-22T08:58:29Z</time>
      </trkpt>
      <trkpt lat="46.125296" lon="8.988595">
        <ele>843.285</ele>
        <time>2020-08-22T08:58:31Z</time>
      </trkpt>
      <trkpt lat="46.125632" lon="8.988813">
        <ele>839.392</ele>
        <time>2020-08-22T08:58:35Z</time>
      </trkpt>
      <trkpt lat="46.126004" lon="8.989071">
        <ele>835.529</ele>
        <time>2020-08-22T08:58:39Z</time>
      </trkpt>
      <trkpt lat="46.126353" lon="8.989347">
        <ele>832.100</ele>
        <time>2020-08-22T08:58:43Z</time>
      </trkpt>
      <trkpt lat="46.126566" lon="8.989546">
        <ele>828.720</ele>
        <time>2020-08-22T08:58:46Z</time>
      </trkpt>
      <trkpt lat="46.126685" lon="8.989666">
        <ele>826.308</ele>
        <time>2020-08-22T08:58:48Z</time>
      </trkpt>
      <trkpt lat="46.126792" lon="8.989767">
        <ele>824.937</ele>
        <time>2020-08-22T08:58:50Z</time>
      </trkpt>
      <trkpt lat="46.126835" lon="8.989835">
        <ele>823.947</ele>
        <time>2020-08-22T08:58:51Z</time>
      </trkpt>
      <trkpt lat="46.126861" lon="8.989916">
        <ele>823.916</ele>
        <time>2020-08-22T08:58:52Z</time>
      </trkpt>
      <trkpt lat="46.126868" lon="8.990007">
        <ele>822.516</ele>
        <time>2020-08-22T08:58:53Z</time>
      </trkpt>
      <trkpt lat="46.126857" lon="8.990106">
        <ele>822.023</ele>
        <time>2020-08-22T08:58:54Z</time>
      </trkpt>
      <trkpt lat="46.126836" lon="8.990205">
        <ele>821.555</ele>
        <time>2020-08-22T08:58:55Z</time>
      </trkpt>
      <trkpt lat="46.126823" lon="8.990294">
        <ele>821.153</ele>
        <time>2020-08-22T08:58:56Z</time>
      </trkpt>
      <trkpt lat="46.126823" lon="8.990397">
        <ele>820.180</ele>
        <time>2020-08-22T08:58:57Z</time>
      </trkpt>
      <trkpt lat="46.126835" lon="8.990479">
        <ele>819.618</ele>
        <time>2020-08-22T08:58:58Z</time>
      </trkpt>
      <trkpt lat="46.126856" lon="8.990558">
        <ele>818.298</ele>
        <time>2020-08-22T08:58:59Z</time>
      </trkpt>
      <trkpt lat="46.126884" lon="8.990616">
        <ele>817.717</ele>
        <time>2020-08-22T08:59:00Z</time>
      </trkpt>
      <trkpt lat="46.126923" lon="8.990647">
        <ele>816.308</ele>
        <time>2020-08-22T08:59:01Z</time>
      </trkpt>
      <trkpt lat="46.126975" lon="8.990651">
        <ele>815.846</ele>
        <time>2020-08-22T08:59:02Z</time>
      </trkpt>
      <trkpt lat="46.127035" lon="8.990637">
        <ele>815.376</ele>
        <time>2020-08-22T08:59:03Z</time>
      </trkpt>
      <trkpt lat="46.127086" lon="8.990615">
        <ele>814.855</ele>
        <time>2020-08-22T08:59:04Z</time>
      </trkpt>
      <trkpt lat="46.127241" lon="8.990503">
        <ele>811.915</ele>
        <time>2020-08-22T08:59:07Z</time>
      </trkpt>
      <trkpt lat="46.127290" lon="8.990496">
        <ele>811.452</ele>
        <time>2020-08-22T08:59:08Z</time>
      </trkpt>
      <trkpt lat="46.127337" lon="8.990513">
        <ele>811.084</ele>
        <time>2020-08-22T08:59:09Z</time>
      </trkpt>
      <trkpt lat="46.127385" lon="8.990563">
        <ele>810.592</ele>
        <time>2020-08-22T08:59:10Z</time>
      </trkpt>
      <trkpt lat="46.127410" lon="8.990633">
        <ele>809.539</ele>
        <time>2020-08-22T08:59:11Z</time>
      </trkpt>
      <trkpt lat="46.127418" lon="8.990704">
        <ele>809.065</ele>
        <time>2020-08-22T08:59:12Z</time>
      </trkpt>
      <trkpt lat="46.127427" lon="8.990770">
        <ele>808.668</ele>
        <time>2020-08-22T08:59:13Z</time>
      </trkpt>
      <trkpt lat="46.127448" lon="8.990823">
        <ele>807.614</ele>
        <time>2020-08-22T08:59:14Z</time>
      </trkpt>
      <trkpt lat="46.127482" lon="8.990855">
        <ele>807.108</ele>
        <time>2020-08-22T08:59:15Z</time>
      </trkpt>
      <trkpt lat="46.127532" lon="8.990873">
        <ele>806.291</ele>
        <time>2020-08-22T08:59:16Z</time>
      </trkpt>
      <trkpt lat="46.127593" lon="8.990896">
        <ele>805.721</ele>
        <time>2020-08-22T08:59:17Z</time>
      </trkpt>
      <trkpt lat="46.127658" lon="8.990951">
        <ele>804.750</ele>
        <time>2020-08-22T08:59:18Z</time>
      </trkpt>
      <trkpt lat="46.127708" lon="8.991017">
        <ele>804.240</ele>
        <time>2020-08-22T08:59:19Z</time>
      </trkpt>
      <trkpt lat="46.127756" lon="8.991099">
        <ele>803.327</ele>
        <time>2020-08-22T08:59:20Z</time>
      </trkpt>
      <trkpt lat="46.127802" lon="8.991187">
        <ele>802.889</ele>
        <time>2020-08-22T08:59:21Z</time>
      </trkpt>
      <trkpt lat="46.127840" lon="8.991281">
        <ele>801.867</ele>
        <time>2020-08-22T08:59:22Z</time>
      </trkpt>
      <trkpt lat="46.127869" lon="8.991379">
        <ele>800.984</ele>
        <time>2020-08-22T08:59:23Z</time>
      </trkpt>
      <trkpt lat="46.127894" lon="8.991490">
        <ele>799.971</ele>
        <time>2020-08-22T08:59:24Z</time>
      </trkpt>
      <trkpt lat="46.127975" lon="8.991805">
        <ele>797.041</ele>
        <time>2020-08-22T08:59:27Z</time>
      </trkpt>
      <trkpt lat="46.128019" lon="8.991892">
        <ele>796.515</ele>
        <time>2020-08-22T08:59:28Z</time>
      </trkpt>
      <trkpt lat="46.128121" lon="8.992042">
        <ele>794.608</ele>
        <time>2020-08-22T08:59:30Z</time>
      </trkpt>
      <trkpt lat="46.128239" lon="8.992133">
        <ele>792.732</ele>
        <time>2020-08-22T08:59:32Z</time>
      </trkpt>
      <trkpt lat="46.128292" lon="8.992149">
        <ele>792.232</ele>
        <time>2020-08-22T08:59:33Z</time>
      </trkpt>
      <trkpt lat="46.128340" lon="8.992142">
        <ele>791.391</ele>
        <time>2020-08-22T08:59:34Z</time>
      </trkpt>
      <trkpt lat="46.128382" lon="8.992111">
        <ele>790.381</ele>
        <time>2020-08-22T08:59:35Z</time>
      </trkpt>
      <trkpt lat="46.128417" lon="8.992057">
        <ele>789.868</ele>
        <time>2020-08-22T08:59:36Z</time>
      </trkpt>
      <trkpt lat="46.128449" lon="8.991981">
        <ele>788.980</ele>
        <time>2020-08-22T08:59:37Z</time>
      </trkpt>
      <trkpt lat="46.128478" lon="8.991894">
        <ele>787.948</ele>
        <time>2020-08-22T08:59:38Z</time>
      </trkpt>
      <trkpt lat="46.128501" lon="8.991799">
        <ele>787.465</ele>
        <time>2020-08-22T08:59:39Z</time>
      </trkpt>
      <trkpt lat="46.128508" lon="8.991709">
        <ele>786.514</ele>
        <time>2020-08-22T08:59:40Z</time>
      </trkpt>
      <trkpt lat="46.128490" lon="8.991630">
        <ele>785.554</ele>
        <time>2020-08-22T08:59:41Z</time>
      </trkpt>
      <trkpt lat="46.128455" lon="8.991569">
        <ele>784.509</ele>
        <time>2020-08-22T08:59:42Z</time>
      </trkpt>
      <trkpt lat="46.128407" lon="8.991539">
        <ele>783.608</ele>
        <time>2020-08-22T08:59:43Z</time>
      </trkpt>
      <trkpt lat="46.128364" lon="8.991552">
        <ele>782.686</ele>
        <time>2020-08-22T08:59:44Z</time>
      </trkpt>
      <trkpt lat="46.128323" lon="8.991602">
        <ele>782.176</ele>
        <time>2020-08-22T08:59:45Z</time>
      </trkpt>
      <trkpt lat="46.128289" lon="8.991651">
        <ele>781.215</ele>
        <time>2020-08-22T08:59:46Z</time>
      </trkpt>
      <trkpt lat="46.128247" lon="8.991673">
        <ele>780.795</ele>
        <time>2020-08-22T08:59:47Z</time>
      </trkpt>
      <trkpt lat="46.128209" lon="8.991663">
        <ele>779.722</ele>
        <time>2020-08-22T08:59:48Z</time>
      </trkpt>
      <trkpt lat="46.128187" lon="8.991630">
        <ele>779.284</ele>
        <time>2020-08-22T08:59:49Z</time>
      </trkpt>
      <trkpt lat="46.128170" lon="8.991569">
        <ele>778.862</ele>
        <time>2020-08-22T08:59:50Z</time>
      </trkpt>
      <trkpt lat="46.128160" lon="8.991489">
        <ele>778.379</ele>
        <time>2020-08-22T08:59:51Z</time>
      </trkpt>
      <trkpt lat="46.128162" lon="8.991389">
        <ele>777.319</ele>
        <time>2020-08-22T08:59:52Z</time>
      </trkpt>
      <trkpt lat="46.128184" lon="8.991281">
        <ele>776.409</ele>
        <time>2020-08-22T08:59:53Z</time>
      </trkpt>
      <trkpt lat="46.128228" lon="8.991173">
        <ele>774.919</ele>
        <time>2020-08-22T08:59:54Z</time>
      </trkpt>
      <trkpt lat="46.128283" lon="8.991061">
        <ele>773.508</ele>
        <time>2020-08-22T08:59:55Z</time>
      </trkpt>
      <trkpt lat="46.128340" lon="8.990939">
        <ele>772.086</ele>
        <time>2020-08-22T08:59:56Z</time>
      </trkpt>
      <trkpt lat="46.128379" lon="8.990833">
        <ele>770.636</ele>
        <time>2020-08-22T08:59:57Z</time>
      </trkpt>
      <trkpt lat="46.128462" lon="8.990617">
        <ele>768.285</ele>
        <time>2020-08-22T08:59:59Z</time>
      </trkpt>
      <trkpt lat="46.128566" lon="8.990456">
        <ele>765.865</ele>
        <time>2020-08-22T09:00:01Z</time>
      </trkpt>
      <trkpt lat="46.128610" lon="8.990424">
        <ele>764.862</ele>
        <time>2020-08-22T09:00:02Z</time>
      </trkpt>
      <trkpt lat="46.128674" lon="8.990400">
        <ele>762.924</ele>
        <time>2020-08-22T09:00:03Z</time>
      </trkpt>
      <trkpt lat="46.128708" lon="8.990426">
        <ele>761.912</ele>
        <time>2020-08-22T09:00:04Z</time>
      </trkpt>
      <trkpt lat="46.128741" lon="8.990477">
        <ele>761.589</ele>
        <time>2020-08-22T09:00:05Z</time>
      </trkpt>
      <trkpt lat="46.128763" lon="8.990513">
        <ele>760.576</ele>
        <time>2020-08-22T09:00:06Z</time>
      </trkpt>
      <trkpt lat="46.128786" lon="8.990510">
        <ele>760.590</ele>
        <time>2020-08-22T09:00:07Z</time>
      </trkpt>
      <trkpt lat="46.128798" lon="8.990475">
        <ele>760.019</ele>
        <time>2020-08-22T09:00:08Z</time>
      </trkpt>
      <trkpt lat="46.128799" lon="8.990432">
        <ele>759.508</ele>
        <time>2020-08-22T09:00:09Z</time>
      </trkpt>
      <trkpt lat="46.128797" lon="8.990405">
        <ele>759.562</ele>
        <time>2020-08-22T09:00:10Z</time>
      </trkpt>
      <trkpt lat="46.128795" lon="8.990373">
        <ele>759.132</ele>
        <time>2020-08-22T09:00:11Z</time>
      </trkpt>
      <trkpt lat="46.128801" lon="8.990337">
        <ele>759.181</ele>
        <time>2020-08-22T09:00:12Z</time>
      </trkpt>
      <trkpt lat="46.128820" lon="8.990307">
        <ele>759.161</ele>
        <time>2020-08-22T09:00:13Z</time>
      </trkpt>
      <trkpt lat="46.128845" lon="8.990299">
        <ele>758.698</ele>
        <time>2020-08-22T09:00:14Z</time>
      </trkpt>
      <trkpt lat="46.128871" lon="8.990313">
        <ele>758.140</ele>
        <time>2020-08-22T09:00:15Z</time>
      </trkpt>
      <trkpt lat="46.128884" lon="8.990345">
        <ele>758.168</ele>
        <time>2020-08-22T09:00:16Z</time>
      </trkpt>
      <trkpt lat="46.128890" lon="8.990393">
        <ele>758.145</ele>
        <time>2020-08-22T09:00:17Z</time>
      </trkpt>
      <trkpt lat="46.128890" lon="8.990448">
        <ele>757.655</ele>
        <time>2020-08-22T09:00:18Z</time>
      </trkpt>
      <trkpt lat="46.128893" lon="8.990509">
        <ele>757.607</ele>
        <time>2020-08-22T09:00:19Z</time>
      </trkpt>
      <trkpt lat="46.128899" lon="8.990575">
        <ele>757.617</ele>
        <time>2020-08-22T09:00:20Z</time>
      </trkpt>
      <trkpt lat="46.128913" lon="8.990672">
        <ele>757.108</ele>
        <time>2020-08-22T09:00:21Z</time>
      </trkpt>
      <trkpt lat="46.128931" lon="8.990729">
        <ele>757.690</ele>
        <time>2020-08-22T09:00:22Z</time>
      </trkpt>
      <trkpt lat="46.128962" lon="8.990810">
        <ele>756.660</ele>
        <time>2020-08-22T09:00:23Z</time>
      </trkpt>
      <trkpt lat="46.128993" lon="8.990879">
        <ele>756.289</ele>
        <time>2020-08-22T09:00:24Z</time>
      </trkpt>
      <trkpt lat="46.129029" lon="8.990937">
        <ele>755.789</ele>
        <time>2020-08-22T09:00:25Z</time>
      </trkpt>
      <trkpt lat="46.129068" lon="8.990981">
        <ele>755.286</ele>
        <time>2020-08-22T09:00:26Z</time>
      </trkpt>
      <trkpt lat="46.129119" lon="8.991013">
        <ele>754.778</ele>
        <time>2020-08-22T09:00:27Z</time>
      </trkpt>
      <trkpt lat="46.129172" lon="8.991020">
        <ele>754.716</ele>
        <time>2020-08-22T09:00:28Z</time>
      </trkpt>
      <trkpt lat="46.129232" lon="8.991000">
        <ele>754.293</ele>
        <time>2020-08-22T09:00:29Z</time>
      </trkpt>
      <trkpt lat="46.129290" lon="8.990937">
        <ele>753.878</ele>
        <time>2020-08-22T09:00:30Z</time>
      </trkpt>
      <trkpt lat="46.129318" lon="8.990870">
        <ele>753.333</ele>
        <time>2020-08-22T09:00:31Z</time>
      </trkpt>
      <trkpt lat="46.129343" lon="8.990791">
        <ele>753.326</ele>
        <time>2020-08-22T09:00:32Z</time>
      </trkpt>
      <trkpt lat="46.129365" lon="8.990709">
        <ele>753.308</ele>
        <time>2020-08-22T09:00:33Z</time>
      </trkpt>
      <trkpt lat="46.129417" lon="8.990482">
        <ele>753.322</ele>
        <time>2020-08-22T09:00:36Z</time>
      </trkpt>
      <trkpt lat="46.129424" lon="8.990416">
        <ele>753.312</ele>
        <time>2020-08-22T09:00:37Z</time>
      </trkpt>
      <trkpt lat="46.129426" lon="8.990355">
        <ele>753.341</ele>
        <time>2020-08-22T09:00:38Z</time>
      </trkpt>
      <trkpt lat="46.129426" lon="8.990304">
        <ele>753.341</ele>
        <time>2020-08-22T09:00:39Z</time>
      </trkpt>
      <trkpt lat="46.129425" lon="8.990259">
        <ele>753.328</ele>
        <time>2020-08-22T09:00:40Z</time>
      </trkpt>
      <trkpt lat="46.129423" lon="8.990118">
        <ele>754.760</ele>
        <time>2020-08-22T09:00:44Z</time>
      </trkpt>
      <trkpt lat="46.129448" lon="8.989674">
        <ele>758.168</ele>
        <time>2020-08-22T09:01:01Z</time>
      </trkpt>
      <trkpt lat="46.129466" lon="8.989327">
        <ele>760.545</ele>
        <time>2020-08-22T09:01:16Z</time>
      </trkpt>
      <trkpt lat="46.129491" lon="8.988981">
        <ele>761.971</ele>
        <time>2020-08-22T09:01:33Z</time>
      </trkpt>
      <trkpt lat="46.129486" lon="8.988633">
        <ele>763.941</ele>
        <time>2020-08-22T09:01:47Z</time>
      </trkpt>
      <trkpt lat="46.129400" lon="8.988165">
        <ele>765.315</ele>
        <time>2020-08-22T09:02:05Z</time>
      </trkpt>
      <trkpt lat="46.129313" lon="8.987722">
        <ele>767.208</ele>
        <time>2020-08-22T09:02:23Z</time>
      </trkpt>
      <trkpt lat="46.129286" lon="8.987334">
        <ele>768.782</ele>
        <time>2020-08-22T09:02:39Z</time>
      </trkpt>
      <trkpt lat="46.129290" lon="8.987260">
        <ele>768.712</ele>
        <time>2020-08-22T09:02:42Z</time>
      </trkpt>
      <trkpt lat="46.129295" lon="8.987236">
        <ele>769.161</ele>
        <time>2020-08-22T09:02:43Z</time>
      </trkpt>
      <trkpt lat="46.129296" lon="8.987210">
        <ele>769.181</ele>
        <time>2020-08-22T09:02:44Z</time>
      </trkpt>
      <trkpt lat="46.129300" lon="8.987183">
        <ele>769.628</ele>
        <time>2020-08-22T09:02:45Z</time>
      </trkpt>
      <trkpt lat="46.129301" lon="8.987165">
        <ele>769.120</ele>
        <time>2020-08-22T09:02:46Z</time>
      </trkpt>
      <trkpt lat="46.129303" lon="8.987139">
        <ele>769.678</ele>
        <time>2020-08-22T09:02:47Z</time>
      </trkpt>
      <trkpt lat="46.129398" lon="8.986853">
        <ele>771.675</ele>
        <time>2020-08-22T09:03:03Z</time>
      </trkpt>
      <trkpt lat="46.129436" lon="8.986826">
        <ele>772.014</ele>
        <time>2020-08-22T09:03:07Z</time>
      </trkpt>
      <trkpt lat="46.129447" lon="8.986835">
        <ele>772.554</ele>
        <time>2020-08-22T09:03:08Z</time>
      </trkpt>
      <trkpt lat="46.129454" lon="8.986852">
        <ele>772.509</ele>
        <time>2020-08-22T09:03:09Z</time>
      </trkpt>
      <trkpt lat="46.129472" lon="8.986906">
        <ele>772.508</ele>
        <time>2020-08-22T09:03:12Z</time>
      </trkpt>
      <trkpt lat="46.129480" lon="8.986924">
        <ele>773.086</ele>
        <time>2020-08-22T09:03:13Z</time>
      </trkpt>
      <trkpt lat="46.129613" lon="8.987227">
        <ele>775.456</ele>
        <time>2020-08-22T09:03:30Z</time>
      </trkpt>
      <trkpt lat="46.129791" lon="8.987544">
        <ele>776.845</ele>
        <time>2020-08-22T09:03:49Z</time>
      </trkpt>
      <trkpt lat="46.129974" lon="8.987874">
        <ele>778.885</ele>
        <time>2020-08-22T09:04:08Z</time>
      </trkpt>
      <trkpt lat="46.130124" lon="8.988081">
        <ele>781.292</ele>
        <time>2020-08-22T09:04:24Z</time>
      </trkpt>
      <trkpt lat="46.130301" lon="8.988260">
        <ele>783.664</ele>
        <time>2020-08-22T09:04:42Z</time>
      </trkpt>
      <trkpt lat="46.130385" lon="8.988393">
        <ele>786.522</ele>
        <time>2020-08-22T09:04:53Z</time>
      </trkpt>
      <trkpt lat="46.130392" lon="8.988406">
        <ele>786.589</ele>
        <time>2020-08-22T09:04:54Z</time>
      </trkpt>
      <trkpt lat="46.130400" lon="8.988421">
        <ele>786.544</ele>
        <time>2020-08-22T09:04:55Z</time>
      </trkpt>
      <trkpt lat="46.130432" lon="8.988478">
        <ele>787.405</ele>
        <time>2020-08-22T09:04:59Z</time>
      </trkpt>
      <trkpt lat="46.130437" lon="8.988495">
        <ele>787.415</ele>
        <time>2020-08-22T09:05:00Z</time>
      </trkpt>
      <trkpt lat="46.130441" lon="8.988512">
        <ele>787.408</ele>
        <time>2020-08-22T09:05:01Z</time>
      </trkpt>
      <trkpt lat="46.130458" lon="8.988575">
        <ele>787.979</ele>
        <time>2020-08-22T09:05:05Z</time>
      </trkpt>
      <trkpt lat="46.130465" lon="8.988592">
        <ele>787.989</ele>
        <time>2020-08-22T09:05:06Z</time>
      </trkpt>
      <trkpt lat="46.130468" lon="8.988606">
        <ele>787.928</ele>
        <time>2020-08-22T09:05:07Z</time>
      </trkpt>
      <trkpt lat="46.130542" lon="8.988897">
        <ele>790.868</ele>
        <time>2020-08-22T09:05:25Z</time>
      </trkpt>
      <trkpt lat="46.130593" lon="8.989001">
        <ele>791.775</ele>
        <time>2020-08-22T09:05:33Z</time>
      </trkpt>
      <trkpt lat="46.130759" lon="8.989224">
        <ele>793.757</ele>
        <time>2020-08-22T09:05:51Z</time>
      </trkpt>
      <trkpt lat="46.130821" lon="8.989274">
        <ele>794.685</ele>
        <time>2020-08-22T09:05:57Z</time>
      </trkpt>
      <trkpt lat="46.130832" lon="8.989283">
        <ele>794.672</ele>
        <time>2020-08-22T09:05:58Z</time>
      </trkpt>
      <trkpt lat="46.130843" lon="8.989290">
        <ele>795.153</ele>
        <time>2020-08-22T09:05:59Z</time>
      </trkpt>
      <trkpt lat="46.131040" lon="8.989444">
        <ele>797.004</ele>
        <time>2020-08-22T09:06:17Z</time>
      </trkpt>
      <trkpt lat="46.131114" lon="8.989492">
        <ele>798.014</ele>
        <time>2020-08-22T09:06:24Z</time>
      </trkpt>
      <trkpt lat="46.131252" lon="8.989558">
        <ele>798.908</ele>
        <time>2020-08-22T09:06:35Z</time>
      </trkpt>
      <trkpt lat="46.131266" lon="8.989540">
        <ele>798.910</ele>
        <time>2020-08-22T09:06:37Z</time>
      </trkpt>
      <trkpt lat="46.131286" lon="8.989472">
        <ele>799.920</ele>
        <time>2020-08-22T09:06:41Z</time>
      </trkpt>
      <trkpt lat="46.131280" lon="8.989451">
        <ele>799.919</ele>
        <time>2020-08-22T09:06:42Z</time>
      </trkpt>
      <trkpt lat="46.131272" lon="8.989434">
        <ele>799.969</ele>
        <time>2020-08-22T09:06:43Z</time>
      </trkpt>
      <trkpt lat="46.131101" lon="8.989292">
        <ele>801.426</ele>
        <time>2020-08-22T09:06:58Z</time>
      </trkpt>
      <trkpt lat="46.130950" lon="8.989029">
        <ele>802.858</ele>
        <time>2020-08-22T09:07:16Z</time>
      </trkpt>
      <trkpt lat="46.130923" lon="8.988904">
        <ele>804.246</ele>
        <time>2020-08-22T09:07:23Z</time>
      </trkpt>
      <trkpt lat="46.130919" lon="8.988886">
        <ele>804.263</ele>
        <time>2020-08-22T09:07:24Z</time>
      </trkpt>
      <trkpt lat="46.130917" lon="8.988872">
        <ele>804.716</ele>
        <time>2020-08-22T09:07:25Z</time>
      </trkpt>
      <trkpt lat="46.130914" lon="8.988847">
        <ele>804.776</ele>
        <time>2020-08-22T09:07:26Z</time>
      </trkpt>
      <trkpt lat="46.130912" lon="8.988836">
        <ele>804.713</ele>
        <time>2020-08-22T09:07:27Z</time>
      </trkpt>
      <trkpt lat="46.130908" lon="8.988815">
        <ele>804.708</ele>
        <time>2020-08-22T09:07:28Z</time>
      </trkpt>
      <trkpt lat="46.130907" lon="8.988797">
        <ele>804.756</ele>
        <time>2020-08-22T09:07:29Z</time>
      </trkpt>
      <trkpt lat="46.130869" lon="8.988408">
        <ele>806.636</ele>
        <time>2020-08-22T09:07:50Z</time>
      </trkpt>
      <trkpt lat="46.130889" lon="8.988089">
        <ele>808.615</ele>
        <time>2020-08-22T09:08:06Z</time>
      </trkpt>
      <trkpt lat="46.130889" lon="8.987930">
        <ele>810.075</ele>
        <time>2020-08-22T09:08:14Z</time>
      </trkpt>
      <trkpt lat="46.130933" lon="8.987645">
        <ele>811.952</ele>
        <time>2020-08-22T09:08:28Z</time>
      </trkpt>
      <trkpt lat="46.130943" lon="8.987300">
        <ele>814.894</ele>
        <time>2020-08-22T09:08:44Z</time>
      </trkpt>
      <trkpt lat="46.130948" lon="8.987221">
        <ele>815.392</ele>
        <time>2020-08-22T09:08:48Z</time>
      </trkpt>
      <trkpt lat="46.130947" lon="8.987202">
        <ele>815.389</ele>
        <time>2020-08-22T09:08:49Z</time>
      </trkpt>
      <trkpt lat="46.130956" lon="8.987000">
        <ele>816.798</ele>
        <time>2020-08-22T09:09:05Z</time>
      </trkpt>
      <trkpt lat="46.130927" lon="8.986752">
        <ele>818.215</ele>
        <time>2020-08-22T09:09:19Z</time>
      </trkpt>
      <trkpt lat="46.130924" lon="8.986733">
        <ele>818.726</ele>
        <time>2020-08-22T09:09:20Z</time>
      </trkpt>
      <trkpt lat="46.130923" lon="8.986640">
        <ele>819.108</ele>
        <time>2020-08-22T09:09:25Z</time>
      </trkpt>
      <trkpt lat="46.130920" lon="8.986621">
        <ele>819.164</ele>
        <time>2020-08-22T09:09:26Z</time>
      </trkpt>
      <trkpt lat="46.130919" lon="8.986606">
        <ele>819.654</ele>
        <time>2020-08-22T09:09:27Z</time>
      </trkpt>
      <trkpt lat="46.130919" lon="8.986587">
        <ele>819.113</ele>
        <time>2020-08-22T09:09:28Z</time>
      </trkpt>
      <trkpt lat="46.130919" lon="8.986570">
        <ele>819.693</ele>
        <time>2020-08-22T09:09:29Z</time>
      </trkpt>
      <trkpt lat="46.130910" lon="8.986271">
        <ele>821.520</ele>
        <time>2020-08-22T09:09:44Z</time>
      </trkpt>
      <trkpt lat="46.130922" lon="8.986034">
        <ele>823.522</ele>
        <time>2020-08-22T09:09:56Z</time>
      </trkpt>
      <trkpt lat="46.130933" lon="8.986023">
        <ele>823.530</ele>
        <time>2020-08-22T09:09:57Z</time>
      </trkpt>
      <trkpt lat="46.130945" lon="8.986018">
        <ele>823.567</ele>
        <time>2020-08-22T09:09:58Z</time>
      </trkpt>
      <trkpt lat="46.130958" lon="8.986019">
        <ele>823.545</ele>
        <time>2020-08-22T09:09:59Z</time>
      </trkpt>
      <trkpt lat="46.130968" lon="8.986028">
        <ele>823.947</ele>
        <time>2020-08-22T09:10:00Z</time>
      </trkpt>
      <trkpt lat="46.130977" lon="8.986039">
        <ele>823.911</ele>
        <time>2020-08-22T09:10:01Z</time>
      </trkpt>
      <trkpt lat="46.130983" lon="8.986055">
        <ele>824.908</ele>
        <time>2020-08-22T09:10:02Z</time>
      </trkpt>
      <trkpt lat="46.130982" lon="8.986072">
        <ele>824.999</ele>
        <time>2020-08-22T09:10:03Z</time>
      </trkpt>
      <trkpt lat="46.130981" lon="8.986089">
        <ele>824.969</ele>
        <time>2020-08-22T09:10:04Z</time>
      </trkpt>
      <trkpt lat="46.130981" lon="8.986106">
        <ele>824.938</ele>
        <time>2020-08-22T09:10:05Z</time>
      </trkpt>
      <trkpt lat="46.131005" lon="8.986472">
        <ele>827.878</ele>
        <time>2020-08-22T09:10:24Z</time>
      </trkpt>
      <trkpt lat="46.131101" lon="8.986774">
        <ele>830.235</ele>
        <time>2020-08-22T09:10:40Z</time>
      </trkpt>
      <trkpt lat="46.131111" lon="8.986787">
        <ele>830.247</ele>
        <time>2020-08-22T09:10:41Z</time>
      </trkpt>
      <trkpt lat="46.131255" lon="8.987069">
        <ele>832.665</ele>
        <time>2020-08-22T09:10:58Z</time>
      </trkpt>
      <trkpt lat="46.131337" lon="8.987375">
        <ele>835.072</ele>
        <time>2020-08-22T09:11:14Z</time>
      </trkpt>
      <trkpt lat="46.131339" lon="8.987627">
        <ele>836.925</ele>
        <time>2020-08-22T09:11:27Z</time>
      </trkpt>
      <trkpt lat="46.131346" lon="8.987641">
        <ele>837.926</ele>
        <time>2020-08-22T09:11:28Z</time>
      </trkpt>
      <trkpt lat="46.131351" lon="8.987658">
        <ele>836.408</ele>
        <time>2020-08-22T09:11:29Z</time>
      </trkpt>
      <trkpt lat="46.131357" lon="8.987676">
        <ele>838.408</ele>
        <time>2020-08-22T09:11:30Z</time>
      </trkpt>
      <trkpt lat="46.131361" lon="8.987695">
        <ele>838.467</ele>
        <time>2020-08-22T09:11:31Z</time>
      </trkpt>
      <trkpt lat="46.131366" lon="8.987717">
        <ele>838.467</ele>
        <time>2020-08-22T09:11:32Z</time>
      </trkpt>
      <trkpt lat="46.131422" lon="8.987884">
        <ele>839.346</ele>
        <time>2020-08-22T09:11:42Z</time>
      </trkpt>
      <trkpt lat="46.131429" lon="8.987899">
        <ele>839.366</ele>
        <time>2020-08-22T09:11:43Z</time>
      </trkpt>
      <trkpt lat="46.131571" lon="8.988155">
        <ele>841.753</ele>
        <time>2020-08-22T09:11:59Z</time>
      </trkpt>
      <trkpt lat="46.131658" lon="8.988422">
        <ele>843.695</ele>
        <time>2020-08-22T09:12:14Z</time>
      </trkpt>
      <trkpt lat="46.131737" lon="8.988701">
        <ele>847.063</ele>
        <time>2020-08-22T09:12:30Z</time>
      </trkpt>
      <trkpt lat="46.131771" lon="8.988774">
        <ele>847.590</ele>
        <time>2020-08-22T09:12:35Z</time>
      </trkpt>
      <trkpt lat="46.131782" lon="8.988786">
        <ele>847.581</ele>
        <time>2020-08-22T09:12:36Z</time>
      </trkpt>
      <trkpt lat="46.131791" lon="8.988800">
        <ele>847.561</ele>
        <time>2020-08-22T09:12:37Z</time>
      </trkpt>
      <trkpt lat="46.131797" lon="8.988815">
        <ele>847.517</ele>
        <time>2020-08-22T09:12:38Z</time>
      </trkpt>
      <trkpt lat="46.131805" lon="8.988829">
        <ele>848.508</ele>
        <time>2020-08-22T09:12:39Z</time>
      </trkpt>
      <trkpt lat="46.131816" lon="8.988841">
        <ele>848.573</ele>
        <time>2020-08-22T09:12:40Z</time>
      </trkpt>
      <trkpt lat="46.131827" lon="8.988847">
        <ele>848.593</ele>
        <time>2020-08-22T09:12:41Z</time>
      </trkpt>
      <trkpt lat="46.131838" lon="8.988851">
        <ele>848.932</ele>
        <time>2020-08-22T09:12:42Z</time>
      </trkpt>
      <trkpt lat="46.131852" lon="8.988855">
        <ele>848.942</ele>
        <time>2020-08-22T09:12:43Z</time>
      </trkpt>
      <trkpt lat="46.131866" lon="8.988853">
        <ele>848.939</ele>
        <time>2020-08-22T09:12:44Z</time>
      </trkpt>
      <trkpt lat="46.131878" lon="8.988845">
        <ele>848.921</ele>
        <time>2020-08-22T09:12:45Z</time>
      </trkpt>
      <trkpt lat="46.131888" lon="8.988833">
        <ele>848.929</ele>
        <time>2020-08-22T09:12:46Z</time>
      </trkpt>
      <trkpt lat="46.131894" lon="8.988816">
        <ele>848.996</ele>
        <time>2020-08-22T09:12:47Z</time>
      </trkpt>
      <trkpt lat="46.131898" lon="8.988794">
        <ele>848.953</ele>
        <time>2020-08-22T09:12:48Z</time>
      </trkpt>
      <trkpt lat="46.131897" lon="8.988731">
        <ele>849.404</ele>
        <time>2020-08-22T09:12:51Z</time>
      </trkpt>
      <trkpt lat="46.131888" lon="8.988711">
        <ele>849.414</ele>
        <time>2020-08-22T09:12:52Z</time>
      </trkpt>
      <trkpt lat="46.131883" lon="8.988696">
        <ele>849.408</ele>
        <time>2020-08-22T09:12:53Z</time>
      </trkpt>
      <trkpt lat="46.131875" lon="8.988680">
        <ele>849.920</ele>
        <time>2020-08-22T09:12:54Z</time>
      </trkpt>
      <trkpt lat="46.131867" lon="8.988662">
        <ele>849.940</ele>
        <time>2020-08-22T09:12:55Z</time>
      </trkpt>
      <trkpt lat="46.131859" lon="8.988646">
        <ele>849.979</ele>
        <time>2020-08-22T09:12:56Z</time>
      </trkpt>
      <trkpt lat="46.131852" lon="8.988629">
        <ele>849.979</ele>
        <time>2020-08-22T09:12:57Z</time>
      </trkpt>
      <trkpt lat="46.131847" lon="8.988615">
        <ele>849.956</ele>
        <time>2020-08-22T09:12:58Z</time>
      </trkpt>
      <trkpt lat="46.131841" lon="8.988598">
        <ele>849.968</ele>
        <time>2020-08-22T09:12:59Z</time>
      </trkpt>
      <trkpt lat="46.131837" lon="8.988580">
        <ele>850.416</ele>
        <time>2020-08-22T09:13:00Z</time>
      </trkpt>
      <trkpt lat="46.131824" lon="8.988311">
        <ele>853.713</ele>
        <time>2020-08-22T09:13:16Z</time>
      </trkpt>
      <trkpt lat="46.131823" lon="8.988129">
        <ele>854.237</ele>
        <time>2020-08-22T09:13:27Z</time>
      </trkpt>
      <trkpt lat="46.131821" lon="8.988078">
        <ele>854.749</ele>
        <time>2020-08-22T09:13:31Z</time>
      </trkpt>
      <trkpt lat="46.131819" lon="8.988065">
        <ele>855.213</ele>
        <time>2020-08-22T09:13:32Z</time>
      </trkpt>
      <trkpt lat="46.131823" lon="8.987888">
        <ele>856.608</ele>
        <time>2020-08-22T09:13:42Z</time>
      </trkpt>
      <trkpt lat="46.131822" lon="8.987871">
        <ele>856.628</ele>
        <time>2020-08-22T09:13:43Z</time>
      </trkpt>
      <trkpt lat="46.131816" lon="8.987857">
        <ele>856.628</ele>
        <time>2020-08-22T09:13:44Z</time>
      </trkpt>
      <trkpt lat="46.131797" lon="8.987786">
        <ele>857.177</ele>
        <time>2020-08-22T09:13:48Z</time>
      </trkpt>
      <trkpt lat="46.131797" lon="8.987738">
        <ele>857.157</ele>
        <time>2020-08-22T09:13:51Z</time>
      </trkpt>
      <trkpt lat="46.131756" lon="8.987472">
        <ele>859.054</ele>
        <time>2020-08-22T09:14:06Z</time>
      </trkpt>
      <trkpt lat="46.131740" lon="8.987341">
        <ele>860.566</ele>
        <time>2020-08-22T09:14:13Z</time>
      </trkpt>
      <trkpt lat="46.131745" lon="8.987322">
        <ele>860.524</ele>
        <time>2020-08-22T09:14:14Z</time>
      </trkpt>
      <trkpt lat="46.131748" lon="8.987302">
        <ele>860.591</ele>
        <time>2020-08-22T09:14:15Z</time>
      </trkpt>
      <trkpt lat="46.131770" lon="8.987287">
        <ele>860.597</ele>
        <time>2020-08-22T09:14:17Z</time>
      </trkpt>
      <trkpt lat="46.131784" lon="8.987292">
        <ele>860.523</ele>
        <time>2020-08-22T09:14:18Z</time>
      </trkpt>
      <trkpt lat="46.131795" lon="8.987305">
        <ele>860.525</ele>
        <time>2020-08-22T09:14:19Z</time>
      </trkpt>
      <trkpt lat="46.131804" lon="8.987317">
        <ele>861.008</ele>
        <time>2020-08-22T09:14:20Z</time>
      </trkpt>
      <trkpt lat="46.131809" lon="8.987333">
        <ele>861.024</ele>
        <time>2020-08-22T09:14:21Z</time>
      </trkpt>
      <trkpt lat="46.131815" lon="8.987345">
        <ele>861.064</ele>
        <time>2020-08-22T09:14:22Z</time>
      </trkpt>
      <trkpt lat="46.131821" lon="8.987359">
        <ele>861.023</ele>
        <time>2020-08-22T09:14:23Z</time>
      </trkpt>
      <trkpt lat="46.131827" lon="8.987374">
        <ele>861.463</ele>
        <time>2020-08-22T09:14:24Z</time>
      </trkpt>
      <trkpt lat="46.131901" lon="8.987554">
        <ele>862.910</ele>
        <time>2020-08-22T09:14:35Z</time>
      </trkpt>
      <trkpt lat="46.131905" lon="8.987575">
        <ele>862.972</ele>
        <time>2020-08-22T09:14:36Z</time>
      </trkpt>
      <trkpt lat="46.131911" lon="8.987602">
        <ele>863.440</ele>
        <time>2020-08-22T09:14:37Z</time>
      </trkpt>
      <trkpt lat="46.132026" lon="8.987965">
        <ele>865.817</ele>
        <time>2020-08-22T09:14:53Z</time>
      </trkpt>
      <trkpt lat="46.132104" lon="8.988259">
        <ele>867.799</ele>
        <time>2020-08-22T09:15:07Z</time>
      </trkpt>
      <trkpt lat="46.132188" lon="8.988539">
        <ele>870.107</ele>
        <time>2020-08-22T09:15:22Z</time>
      </trkpt>
      <trkpt lat="46.132193" lon="8.988556">
        <ele>870.127</ele>
        <time>2020-08-22T09:15:23Z</time>
      </trkpt>
      <trkpt lat="46.132197" lon="8.988576">
        <ele>870.108</ele>
        <time>2020-08-22T09:15:24Z</time>
      </trkpt>
      <trkpt lat="46.132201" lon="8.988597">
        <ele>870.134</ele>
        <time>2020-08-22T09:15:25Z</time>
      </trkpt>
      <trkpt lat="46.132207" lon="8.988617">
        <ele>871.054</ele>
        <time>2020-08-22T09:15:26Z</time>
      </trkpt>
      <trkpt lat="46.132213" lon="8.988637">
        <ele>870.613</ele>
        <time>2020-08-22T09:15:27Z</time>
      </trkpt>
      <trkpt lat="46.132220" lon="8.988656">
        <ele>871.073</ele>
        <time>2020-08-22T09:15:28Z</time>
      </trkpt>
      <trkpt lat="46.132387" lon="8.988837">
        <ele>873.030</ele>
        <time>2020-08-22T09:15:46Z</time>
      </trkpt>
      <trkpt lat="46.132544" lon="8.988933">
        <ele>875.952</ele>
        <time>2020-08-22T09:16:00Z</time>
      </trkpt>
      <trkpt lat="46.132691" lon="8.989022">
        <ele>877.840</ele>
        <time>2020-08-22T09:16:13Z</time>
      </trkpt>
      <trkpt lat="46.132841" lon="8.989192">
        <ele>879.727</ele>
        <time>2020-08-22T09:16:29Z</time>
      </trkpt>
      <trkpt lat="46.132903" lon="8.989248">
        <ele>880.797</ele>
        <time>2020-08-22T09:16:36Z</time>
      </trkpt>
      <trkpt lat="46.132929" lon="8.989287">
        <ele>881.623</ele>
        <time>2020-08-22T09:16:39Z</time>
      </trkpt>
      <trkpt lat="46.133076" lon="8.989502">
        <ele>884.025</ele>
        <time>2020-08-22T09:16:56Z</time>
      </trkpt>
      <trkpt lat="46.133138" lon="8.989557">
        <ele>884.508</ele>
        <time>2020-08-22T09:17:02Z</time>
      </trkpt>
      <trkpt lat="46.133151" lon="8.989559">
        <ele>884.534</ele>
        <time>2020-08-22T09:17:03Z</time>
      </trkpt>
      <trkpt lat="46.133162" lon="8.989557">
        <ele>884.574</ele>
        <time>2020-08-22T09:17:04Z</time>
      </trkpt>
      <trkpt lat="46.133189" lon="8.989427">
        <ele>885.073</ele>
        <time>2020-08-22T09:17:12Z</time>
      </trkpt>
      <trkpt lat="46.133176" lon="8.989404">
        <ele>885.093</ele>
        <time>2020-08-22T09:17:13Z</time>
      </trkpt>
      <trkpt lat="46.133013" lon="8.989104">
        <ele>886.990</ele>
        <time>2020-08-22T09:17:28Z</time>
      </trkpt>
      <trkpt lat="46.132966" lon="8.989002">
        <ele>887.932</ele>
        <time>2020-08-22T09:17:34Z</time>
      </trkpt>
      <trkpt lat="46.132957" lon="8.988987">
        <ele>887.910</ele>
        <time>2020-08-22T09:17:35Z</time>
      </trkpt>
      <trkpt lat="46.132949" lon="8.988975">
        <ele>887.917</ele>
        <time>2020-08-22T09:17:36Z</time>
      </trkpt>
      <trkpt lat="46.132871" lon="8.988875">
        <ele>889.341</ele>
        <time>2020-08-22T09:17:44Z</time>
      </trkpt>
      <trkpt lat="46.132862" lon="8.988863">
        <ele>889.381</ele>
        <time>2020-08-22T09:17:45Z</time>
      </trkpt>
      <trkpt lat="46.132855" lon="8.988849">
        <ele>889.309</ele>
        <time>2020-08-22T09:17:46Z</time>
      </trkpt>
      <trkpt lat="46.132841" lon="8.988825">
        <ele>889.808</ele>
        <time>2020-08-22T09:17:48Z</time>
      </trkpt>
      <trkpt lat="46.132821" lon="8.988803">
        <ele>889.819</ele>
        <time>2020-08-22T09:17:50Z</time>
      </trkpt>
      <trkpt lat="46.132815" lon="8.988786">
        <ele>890.819</ele>
        <time>2020-08-22T09:17:51Z</time>
      </trkpt>
      <trkpt lat="46.132810" lon="8.988774">
        <ele>890.388</ele>
        <time>2020-08-22T09:17:52Z</time>
      </trkpt>
      <trkpt lat="46.132805" lon="8.988760">
        <ele>890.348</ele>
        <time>2020-08-22T09:17:53Z</time>
      </trkpt>
      <trkpt lat="46.132802" lon="8.988743">
        <ele>890.835</ele>
        <time>2020-08-22T09:17:54Z</time>
      </trkpt>
      <trkpt lat="46.132681" lon="8.988488">
        <ele>893.617</ele>
        <time>2020-08-22T09:18:11Z</time>
      </trkpt>
      <trkpt lat="46.132606" lon="8.988240">
        <ele>895.195</ele>
        <time>2020-08-22T09:18:25Z</time>
      </trkpt>
      <trkpt lat="46.132619" lon="8.987919">
        <ele>896.592</ele>
        <time>2020-08-22T09:18:42Z</time>
      </trkpt>
      <trkpt lat="46.132577" lon="8.987654">
        <ele>899.421</ele>
        <time>2020-08-22T09:18:58Z</time>
      </trkpt>
      <trkpt lat="46.132515" lon="8.987348">
        <ele>901.841</ele>
        <time>2020-08-22T09:19:15Z</time>
      </trkpt>
      <trkpt lat="46.132429" lon="8.987121">
        <ele>904.205</ele>
        <time>2020-08-22T09:19:29Z</time>
      </trkpt>
      <trkpt lat="46.132334" lon="8.986898">
        <ele>905.708</ele>
        <time>2020-08-22T09:19:43Z</time>
      </trkpt>
      <trkpt lat="46.132287" lon="8.986658">
        <ele>907.627</ele>
        <time>2020-08-22T09:19:55Z</time>
      </trkpt>
      <trkpt lat="46.132291" lon="8.986599">
        <ele>908.177</ele>
        <time>2020-08-22T09:19:58Z</time>
      </trkpt>
      <trkpt lat="46.132303" lon="8.986587">
        <ele>908.156</ele>
        <time>2020-08-22T09:19:59Z</time>
      </trkpt>
      <trkpt lat="46.132316" lon="8.986587">
        <ele>908.546</ele>
        <time>2020-08-22T09:20:00Z</time>
      </trkpt>
      <trkpt lat="46.132331" lon="8.986596">
        <ele>908.583</ele>
        <time>2020-08-22T09:20:01Z</time>
      </trkpt>
      <trkpt lat="46.132347" lon="8.986610">
        <ele>908.555</ele>
        <time>2020-08-22T09:20:02Z</time>
      </trkpt>
      <trkpt lat="46.132360" lon="8.986628">
        <ele>908.553</ele>
        <time>2020-08-22T09:20:03Z</time>
      </trkpt>
      <trkpt lat="46.132372" lon="8.986645">
        <ele>908.520</ele>
        <time>2020-08-22T09:20:04Z</time>
      </trkpt>
      <trkpt lat="46.132382" lon="8.986668">
        <ele>908.565</ele>
        <time>2020-08-22T09:20:05Z</time>
      </trkpt>
      <trkpt lat="46.132389" lon="8.986688">
        <ele>909.068</ele>
        <time>2020-08-22T09:20:06Z</time>
      </trkpt>
      <trkpt lat="46.132399" lon="8.986706">
        <ele>909.014</ele>
        <time>2020-08-22T09:20:07Z</time>
      </trkpt>
      <trkpt lat="46.132411" lon="8.986728">
        <ele>909.008</ele>
        <time>2020-08-22T09:20:08Z</time>
      </trkpt>
      <trkpt lat="46.132549" lon="8.986994">
        <ele>910.931</ele>
        <time>2020-08-22T09:20:22Z</time>
      </trkpt>
      <trkpt lat="46.132682" lon="8.987373">
        <ele>913.841</ele>
        <time>2020-08-22T09:20:38Z</time>
      </trkpt>
      <trkpt lat="46.132810" lon="8.987647">
        <ele>916.760</ele>
        <time>2020-08-22T09:20:53Z</time>
      </trkpt>
      <trkpt lat="46.132960" lon="8.987880">
        <ele>919.160</ele>
        <time>2020-08-22T09:21:06Z</time>
      </trkpt>
      <trkpt lat="46.133003" lon="8.987971">
        <ele>919.637</ele>
        <time>2020-08-22T09:21:12Z</time>
      </trkpt>
      <trkpt lat="46.133079" lon="8.988152">
        <ele>921.549</ele>
        <time>2020-08-22T09:21:23Z</time>
      </trkpt>
      <trkpt lat="46.133091" lon="8.988169">
        <ele>921.577</ele>
        <time>2020-08-22T09:21:24Z</time>
      </trkpt>
      <trkpt lat="46.133099" lon="8.988183">
        <ele>921.564</ele>
        <time>2020-08-22T09:21:25Z</time>
      </trkpt>
      <trkpt lat="46.133144" lon="8.988268">
        <ele>922.588</ele>
        <time>2020-08-22T09:21:30Z</time>
      </trkpt>
      <trkpt lat="46.133157" lon="8.988282">
        <ele>922.524</ele>
        <time>2020-08-22T09:21:31Z</time>
      </trkpt>
      <trkpt lat="46.133165" lon="8.988296">
        <ele>923.026</ele>
        <time>2020-08-22T09:21:32Z</time>
      </trkpt>
      <trkpt lat="46.133172" lon="8.988311">
        <ele>923.008</ele>
        <time>2020-08-22T09:21:33Z</time>
      </trkpt>
      <trkpt lat="46.133178" lon="8.988329">
        <ele>923.053</ele>
        <time>2020-08-22T09:21:34Z</time>
      </trkpt>
      <trkpt lat="46.133183" lon="8.988350">
        <ele>923.483</ele>
        <time>2020-08-22T09:21:35Z</time>
      </trkpt>
      <trkpt lat="46.133317" lon="8.988429">
        <ele>924.942</ele>
        <time>2020-08-22T09:21:47Z</time>
      </trkpt>
      <trkpt lat="46.133321" lon="8.988409">
        <ele>925.482</ele>
        <time>2020-08-22T09:21:48Z</time>
      </trkpt>
      <trkpt lat="46.133323" lon="8.988387">
        <ele>925.499</ele>
        <time>2020-08-22T09:21:49Z</time>
      </trkpt>
      <trkpt lat="46.133321" lon="8.988362">
        <ele>925.481</ele>
        <time>2020-08-22T09:21:50Z</time>
      </trkpt>
      <trkpt lat="46.133316" lon="8.988334">
        <ele>925.429</ele>
        <time>2020-08-22T09:21:51Z</time>
      </trkpt>
      <trkpt lat="46.133310" lon="8.988313">
        <ele>925.846</ele>
        <time>2020-08-22T09:21:52Z</time>
      </trkpt>
      <trkpt lat="46.133301" lon="8.988293">
        <ele>925.899</ele>
        <time>2020-08-22T09:21:53Z</time>
      </trkpt>
      <trkpt lat="46.133290" lon="8.988273">
        <ele>925.807</ele>
        <time>2020-08-22T09:21:54Z</time>
      </trkpt>
      <trkpt lat="46.133280" lon="8.988258">
        <ele>925.827</ele>
        <time>2020-08-22T09:21:55Z</time>
      </trkpt>
      <trkpt lat="46.133174" lon="8.987943">
        <ele>929.208</ele>
        <time>2020-08-22T09:22:10Z</time>
      </trkpt>
      <trkpt lat="46.133100" lon="8.987666">
        <ele>931.644</ele>
        <time>2020-08-22T09:22:22Z</time>
      </trkpt>
      <trkpt lat="46.133092" lon="8.987637">
        <ele>932.154</ele>
        <time>2020-08-22T09:22:24Z</time>
      </trkpt>
      <trkpt lat="46.133085" lon="8.987622">
        <ele>932.163</ele>
        <time>2020-08-22T09:22:25Z</time>
      </trkpt>
      <trkpt lat="46.133078" lon="8.987608">
        <ele>932.193</ele>
        <time>2020-08-22T09:22:26Z</time>
      </trkpt>
      <trkpt lat="46.133071" lon="8.987594">
        <ele>932.630</ele>
        <time>2020-08-22T09:22:27Z</time>
      </trkpt>
      <trkpt lat="46.133065" lon="8.987575">
        <ele>932.682</ele>
        <time>2020-08-22T09:22:28Z</time>
      </trkpt>
      <trkpt lat="46.132992" lon="8.987344">
        <ele>935.080</ele>
        <time>2020-08-22T09:22:41Z</time>
      </trkpt>
      <trkpt lat="46.132962" lon="8.987028">
        <ele>936.447</ele>
        <time>2020-08-22T09:22:57Z</time>
      </trkpt>
      <trkpt lat="46.132984" lon="8.986734">
        <ele>938.362</ele>
        <time>2020-08-22T09:23:12Z</time>
      </trkpt>
      <trkpt lat="46.132903" lon="8.986438">
        <ele>941.783</ele>
        <time>2020-08-22T09:23:28Z</time>
      </trkpt>
      <trkpt lat="46.132907" lon="8.986092">
        <ele>944.111</ele>
        <time>2020-08-22T09:23:44Z</time>
      </trkpt>
      <trkpt lat="46.132953" lon="8.985792">
        <ele>946.508</ele>
        <time>2020-08-22T09:24:02Z</time>
      </trkpt>
      <trkpt lat="46.133000" lon="8.985634">
        <ele>948.931</ele>
        <time>2020-08-22T09:24:12Z</time>
      </trkpt>
      <trkpt lat="46.133045" lon="8.985403">
        <ele>949.911</ele>
        <time>2020-08-22T09:24:25Z</time>
      </trkpt>
      <trkpt lat="46.132995" lon="8.985150">
        <ele>951.340</ele>
        <time>2020-08-22T09:24:39Z</time>
      </trkpt>
      <trkpt lat="46.132979" lon="8.985042">
        <ele>951.860</ele>
        <time>2020-08-22T09:24:45Z</time>
      </trkpt>
      <trkpt lat="46.132977" lon="8.985021">
        <ele>952.397</ele>
        <time>2020-08-22T09:24:46Z</time>
      </trkpt>
      <trkpt lat="46.132966" lon="8.984904">
        <ele>953.289</ele>
        <time>2020-08-22T09:24:52Z</time>
      </trkpt>
      <trkpt lat="46.132972" lon="8.984889">
        <ele>953.257</ele>
        <time>2020-08-22T09:24:53Z</time>
      </trkpt>
      <trkpt lat="46.132977" lon="8.984871">
        <ele>953.264</ele>
        <time>2020-08-22T09:24:54Z</time>
      </trkpt>
      <trkpt lat="46.132980" lon="8.984853">
        <ele>953.717</ele>
        <time>2020-08-22T09:24:55Z</time>
      </trkpt>
      <trkpt lat="46.132983" lon="8.984833">
        <ele>953.787</ele>
        <time>2020-08-22T09:24:56Z</time>
      </trkpt>
      <trkpt lat="46.132989" lon="8.984815">
        <ele>953.715</ele>
        <time>2020-08-22T09:24:57Z</time>
      </trkpt>
      <trkpt lat="46.132996" lon="8.984796">
        <ele>953.708</ele>
        <time>2020-08-22T09:24:58Z</time>
      </trkpt>
      <trkpt lat="46.133000" lon="8.984778">
        <ele>954.286</ele>
        <time>2020-08-22T09:24:59Z</time>
      </trkpt>
      <trkpt lat="46.133001" lon="8.984760">
        <ele>954.226</ele>
        <time>2020-08-22T09:25:00Z</time>
      </trkpt>
      <trkpt lat="46.133004" lon="8.984742">
        <ele>954.275</ele>
        <time>2020-08-22T09:25:01Z</time>
      </trkpt>
      <trkpt lat="46.133009" lon="8.984722">
        <ele>954.225</ele>
        <time>2020-08-22T09:25:02Z</time>
      </trkpt>
      <trkpt lat="46.133022" lon="8.984651">
        <ele>954.732</ele>
        <time>2020-08-22T09:25:06Z</time>
      </trkpt>
      <trkpt lat="46.133027" lon="8.984636">
        <ele>954.714</ele>
        <time>2020-08-22T09:25:07Z</time>
      </trkpt>
      <trkpt lat="46.133033" lon="8.984621">
        <ele>954.722</ele>
        <time>2020-08-22T09:25:08Z</time>
      </trkpt>
      <trkpt lat="46.133038" lon="8.984605">
        <ele>955.279</ele>
        <time>2020-08-22T09:25:09Z</time>
      </trkpt>
      <trkpt lat="46.133043" lon="8.984587">
        <ele>955.266</ele>
        <time>2020-08-22T09:25:10Z</time>
      </trkpt>
      <trkpt lat="46.133048" lon="8.984568">
        <ele>955.229</ele>
        <time>2020-08-22T09:25:11Z</time>
      </trkpt>
      <trkpt lat="46.133050" lon="8.984548">
        <ele>955.221</ele>
        <time>2020-08-22T09:25:12Z</time>
      </trkpt>
      <trkpt lat="46.133053" lon="8.984531">
        <ele>955.208</ele>
        <time>2020-08-22T09:25:13Z</time>
      </trkpt>
      <trkpt lat="46.133053" lon="8.984509">
        <ele>955.691</ele>
        <time>2020-08-22T09:25:14Z</time>
      </trkpt>
      <trkpt lat="46.133053" lon="8.984138">
        <ele>958.031</ele>
        <time>2020-08-22T09:25:34Z</time>
      </trkpt>
      <trkpt lat="46.133056" lon="8.983836">
        <ele>960.060</ele>
        <time>2020-08-22T09:25:51Z</time>
      </trkpt>
      <trkpt lat="46.133086" lon="8.983548">
        <ele>962.480</ele>
        <time>2020-08-22T09:26:06Z</time>
      </trkpt>
      <trkpt lat="46.133084" lon="8.983331">
        <ele>964.337</ele>
        <time>2020-08-22T09:26:20Z</time>
      </trkpt>
      <trkpt lat="46.133073" lon="8.983299">
        <ele>964.339</ele>
        <time>2020-08-22T09:26:22Z</time>
      </trkpt>
      <trkpt lat="46.133041" lon="8.983133">
        <ele>965.727</ele>
        <time>2020-08-22T09:26:31Z</time>
      </trkpt>
      <trkpt lat="46.133038" lon="8.983114">
        <ele>965.794</ele>
        <time>2020-08-22T09:26:32Z</time>
      </trkpt>
      <trkpt lat="46.133005" lon="8.982996">
        <ele>966.772</ele>
        <time>2020-08-22T09:26:39Z</time>
      </trkpt>
      <trkpt lat="46.133003" lon="8.982978">
        <ele>966.713</ele>
        <time>2020-08-22T09:26:40Z</time>
      </trkpt>
      <trkpt lat="46.133000" lon="8.982957">
        <ele>966.714</ele>
        <time>2020-08-22T09:26:41Z</time>
      </trkpt>
      <trkpt lat="46.132943" lon="8.982722">
        <ele>969.108</ele>
        <time>2020-08-22T09:26:54Z</time>
      </trkpt>
      <trkpt lat="46.132930" lon="8.982340">
        <ele>971.522</ele>
        <time>2020-08-22T09:27:12Z</time>
      </trkpt>
      <trkpt lat="46.132975" lon="8.982027">
        <ele>972.982</ele>
        <time>2020-08-22T09:27:27Z</time>
      </trkpt>
      <trkpt lat="46.132939" lon="8.981717">
        <ele>974.931</ele>
        <time>2020-08-22T09:27:43Z</time>
      </trkpt>
      <trkpt lat="46.132946" lon="8.981704">
        <ele>975.391</ele>
        <time>2020-08-22T09:27:44Z</time>
      </trkpt>
      <trkpt lat="46.132971" lon="8.981700">
        <ele>975.378</ele>
        <time>2020-08-22T09:27:57Z</time>
      </trkpt>
      <trkpt lat="46.132976" lon="8.981708">
        <ele>975.340</ele>
        <time>2020-08-22T09:28:24Z</time>
      </trkpt>
      <trkpt lat="46.132985" lon="8.981729">
        <ele>975.338</ele>
        <time>2020-08-22T09:28:46Z</time>
      </trkpt>
      <trkpt lat="46.132990" lon="8.981742">
        <ele>975.385</ele>
        <time>2020-08-22T09:28:47Z</time>
      </trkpt>
      <trkpt lat="46.133036" lon="8.981806">
        <ele>975.351</ele>
        <time>2020-08-22T09:28:59Z</time>
      </trkpt>
      <trkpt lat="46.133040" lon="8.981799">
        <ele>969.101</ele>
        <time>2020-08-22T09:29:05Z</time>
      </trkpt>
      <trkpt lat="46.133040" lon="8.981798">
        <ele>975.311</ele>
        <time>2020-08-22T09:29:06Z</time>
      </trkpt>
      <trkpt lat="46.133040" lon="8.981795">
        <ele>975.308</ele>
        <time>2020-08-22T09:29:07Z</time>
      </trkpt>
      <trkpt lat="46.133039" lon="8.981794">
        <ele>979.720</ele>
        <time>2020-08-22T09:29:08Z</time>
      </trkpt>
      <trkpt lat="46.133040" lon="8.981800">
        <ele>975.880</ele>
        <time>2020-08-22T09:29:10Z</time>
      </trkpt>
      <trkpt lat="46.133033" lon="8.981807">
        <ele>975.339</ele>
        <time>2020-08-22T09:29:12Z</time>
      </trkpt>
      <trkpt lat="46.133028" lon="8.981796">
        <ele>975.329</ele>
        <time>2020-08-22T09:29:36Z</time>
      </trkpt>
      <trkpt lat="46.133067" lon="8.981881">
        <ele>975.336</ele>
        <time>2020-08-22T09:29:52Z</time>
      </trkpt>
      <trkpt lat="46.133072" lon="8.981891">
        <ele>975.358</ele>
        <time>2020-08-22T09:29:53Z</time>
      </trkpt>
      <trkpt lat="46.133073" lon="8.981914">
        <ele>975.376</ele>
        <time>2020-08-22T09:29:54Z</time>
      </trkpt>
      <trkpt lat="46.133072" lon="8.981936">
        <ele>975.323</ele>
        <time>2020-08-22T09:29:55Z</time>
      </trkpt>
      <trkpt lat="46.133071" lon="8.981957">
        <ele>975.325</ele>
        <time>2020-08-22T09:29:56Z</time>
      </trkpt>
      <trkpt lat="46.133072" lon="8.981981">
        <ele>975.326</ele>
        <time>2020-08-22T09:29:57Z</time>
      </trkpt>
      <trkpt lat="46.133071" lon="8.982061">
        <ele>977.308</ele>
        <time>2020-08-22T09:30:01Z</time>
      </trkpt>
      <trkpt lat="46.133135" lon="8.982364">
        <ele>979.208</ele>
        <time>2020-08-22T09:30:18Z</time>
      </trkpt>
      <trkpt lat="46.133184" lon="8.982581">
        <ele>980.287</ele>
        <time>2020-08-22T09:30:31Z</time>
      </trkpt>
      <trkpt lat="46.133189" lon="8.982598">
        <ele>980.617</ele>
        <time>2020-08-22T09:30:32Z</time>
      </trkpt>
      <trkpt lat="46.133320" lon="8.982951">
        <ele>983.066</ele>
        <time>2020-08-22T09:30:51Z</time>
      </trkpt>
      <trkpt lat="46.133423" lon="8.983220">
        <ele>985.466</ele>
        <time>2020-08-22T09:31:06Z</time>
      </trkpt>
      <trkpt lat="46.133528" lon="8.983496">
        <ele>987.833</ele>
        <time>2020-08-22T09:31:22Z</time>
      </trkpt>
      <trkpt lat="46.133605" lon="8.983795">
        <ele>990.355</ele>
        <time>2020-08-22T09:31:38Z</time>
      </trkpt>
      <trkpt lat="46.133655" lon="8.984115">
        <ele>992.743</ele>
        <time>2020-08-22T09:31:54Z</time>
      </trkpt>
      <trkpt lat="46.133670" lon="8.984311">
        <ele>994.690</ele>
        <time>2020-08-22T09:32:03Z</time>
      </trkpt>
      <trkpt lat="46.133681" lon="8.984777">
        <ele>995.199</ele>
        <time>2020-08-22T09:32:20Z</time>
      </trkpt>
      <trkpt lat="46.133728" lon="8.985399">
        <ele>996.507</ele>
        <time>2020-08-22T09:32:38Z</time>
      </trkpt>
      <trkpt lat="46.133715" lon="8.985839">
        <ele>997.527</ele>
        <time>2020-08-22T09:32:51Z</time>
      </trkpt>
      <trkpt lat="46.133723" lon="8.986439">
        <ele>998.408</ele>
        <time>2020-08-22T09:33:08Z</time>
      </trkpt>
      <trkpt lat="46.133958" lon="8.986883">
        <ele>999.424</ele>
        <time>2020-08-22T09:33:23Z</time>
      </trkpt>
      <trkpt lat="46.134169" lon="8.987381">
        <ele>1000.844</ele>
        <time>2020-08-22T09:33:38Z</time>
      </trkpt>
      <trkpt lat="46.134283" lon="8.987631">
        <ele>1002.353</ele>
        <time>2020-08-22T09:33:49Z</time>
      </trkpt>
      <trkpt lat="46.134302" lon="8.987644">
        <ele>1002.763</ele>
        <time>2020-08-22T09:33:50Z</time>
      </trkpt>
      <trkpt lat="46.134315" lon="8.987658">
        <ele>1002.770</ele>
        <time>2020-08-22T09:33:51Z</time>
      </trkpt>
      <trkpt lat="46.134329" lon="8.987677">
        <ele>1002.722</ele>
        <time>2020-08-22T09:33:52Z</time>
      </trkpt>
      <trkpt lat="46.134341" lon="8.987695">
        <ele>1002.710</ele>
        <time>2020-08-22T09:33:53Z</time>
      </trkpt>
      <trkpt lat="46.134353" lon="8.987712">
        <ele>1002.797</ele>
        <time>2020-08-22T09:33:54Z</time>
      </trkpt>
      <trkpt lat="46.134366" lon="8.987729">
        <ele>1003.275</ele>
        <time>2020-08-22T09:33:55Z</time>
      </trkpt>
      <trkpt lat="46.134545" lon="8.988085">
        <ele>1005.228</ele>
        <time>2020-08-22T09:34:11Z</time>
      </trkpt>
      <trkpt lat="46.134633" lon="8.988271">
        <ele>1007.120</ele>
        <time>2020-08-22T09:34:22Z</time>
      </trkpt>
      <trkpt lat="46.134780" lon="8.988506">
        <ele>1009.008</ele>
        <time>2020-08-22T09:34:37Z</time>
      </trkpt>
      <trkpt lat="46.134932" lon="8.988697">
        <ele>1010.962</ele>
        <time>2020-08-22T09:34:51Z</time>
      </trkpt>
      <trkpt lat="46.134952" lon="8.988725">
        <ele>1011.422</ele>
        <time>2020-08-22T09:34:53Z</time>
      </trkpt>
      <trkpt lat="46.135107" lon="8.988889">
        <ele>1012.891</ele>
        <time>2020-08-22T09:35:06Z</time>
      </trkpt>
      <trkpt lat="46.135124" lon="8.988911">
        <ele>1012.821</ele>
        <time>2020-08-22T09:35:08Z</time>
      </trkpt>
      <trkpt lat="46.135255" lon="8.989025">
        <ele>1014.868</ele>
        <time>2020-08-22T09:35:19Z</time>
      </trkpt>
      <trkpt lat="46.135491" lon="8.989095">
        <ele>1016.790</ele>
        <time>2020-08-22T09:35:34Z</time>
      </trkpt>
      <trkpt lat="46.135650" lon="8.989080">
        <ele>1018.158</ele>
        <time>2020-08-22T09:35:45Z</time>
      </trkpt>
      <trkpt lat="46.135665" lon="8.989081">
        <ele>1018.625</ele>
        <time>2020-08-22T09:35:46Z</time>
      </trkpt>
      <trkpt lat="46.135682" lon="8.989077">
        <ele>1018.635</ele>
        <time>2020-08-22T09:35:47Z</time>
      </trkpt>
      <trkpt lat="46.135924" lon="8.988997">
        <ele>1020.586</ele>
        <time>2020-08-22T09:36:03Z</time>
      </trkpt>
      <trkpt lat="46.135939" lon="8.988989">
        <ele>1020.514</ele>
        <time>2020-08-22T09:36:04Z</time>
      </trkpt>
      <trkpt lat="46.135959" lon="8.988982">
        <ele>1020.508</ele>
        <time>2020-08-22T09:36:05Z</time>
      </trkpt>
      <trkpt lat="46.135979" lon="8.988986">
        <ele>1020.528</ele>
        <time>2020-08-22T09:36:06Z</time>
      </trkpt>
      <trkpt lat="46.136228" lon="8.989208">
        <ele>1022.018</ele>
        <time>2020-08-22T09:36:20Z</time>
      </trkpt>
      <trkpt lat="46.136440" lon="8.989592">
        <ele>1023.457</ele>
        <time>2020-08-22T09:36:36Z</time>
      </trkpt>
      <trkpt lat="46.136663" lon="8.989803">
        <ele>1024.487</ele>
        <time>2020-08-22T09:36:51Z</time>
      </trkpt>
      <trkpt lat="46.136903" lon="8.989785">
        <ele>1027.344</ele>
        <time>2020-08-22T09:37:08Z</time>
      </trkpt>
      <trkpt lat="46.136942" lon="8.989760">
        <ele>1028.226</ele>
        <time>2020-08-22T09:37:11Z</time>
      </trkpt>
      <trkpt lat="46.136951" lon="8.989745">
        <ele>1028.264</ele>
        <time>2020-08-22T09:37:12Z</time>
      </trkpt>
      <trkpt lat="46.136962" lon="8.989731">
        <ele>1028.211</ele>
        <time>2020-08-22T09:37:13Z</time>
      </trkpt>
      <trkpt lat="46.136974" lon="8.989718">
        <ele>1028.295</ele>
        <time>2020-08-22T09:37:14Z</time>
      </trkpt>
      <trkpt lat="46.136985" lon="8.989706">
        <ele>1028.749</ele>
        <time>2020-08-22T09:37:15Z</time>
      </trkpt>
      <trkpt lat="46.136996" lon="8.989693">
        <ele>1028.723</ele>
        <time>2020-08-22T09:37:16Z</time>
      </trkpt>
      <trkpt lat="46.137211" lon="8.989500">
        <ele>1031.608</ele>
        <time>2020-08-22T09:37:34Z</time>
      </trkpt>
      <trkpt lat="46.137324" lon="8.989322">
        <ele>1036.484</ele>
        <time>2020-08-22T09:37:46Z</time>
      </trkpt>
      <trkpt lat="46.137531" lon="8.989007">
        <ele>1034.014</ele>
        <time>2020-08-22T09:38:04Z</time>
      </trkpt>
      <trkpt lat="46.137623" lon="8.988870">
        <ele>1035.473</ele>
        <time>2020-08-22T09:38:13Z</time>
      </trkpt>
      <trkpt lat="46.137774" lon="8.988608">
        <ele>1037.873</ele>
        <time>2020-08-22T09:38:32Z</time>
      </trkpt>
      <trkpt lat="46.137862" lon="8.988460">
        <ele>1040.260</ele>
        <time>2020-08-22T09:38:44Z</time>
      </trkpt>
      <trkpt lat="46.137862" lon="8.988444">
        <ele>1040.272</ele>
        <time>2020-08-22T09:38:45Z</time>
      </trkpt>
      <trkpt lat="46.137868" lon="8.988430">
        <ele>1040.270</ele>
        <time>2020-08-22T09:38:46Z</time>
      </trkpt>
      <trkpt lat="46.137877" lon="8.988426">
        <ele>1041.257</ele>
        <time>2020-08-22T09:38:47Z</time>
      </trkpt>
      <trkpt lat="46.137908" lon="8.988391">
        <ele>1041.266</ele>
        <time>2020-08-22T09:38:59Z</time>
      </trkpt>
      <trkpt lat="46.137914" lon="8.988361">
        <ele>1041.729</ele>
        <time>2020-08-22T09:39:01Z</time>
      </trkpt>
      <trkpt lat="46.137917" lon="8.988343">
        <ele>1041.721</ele>
        <time>2020-08-22T09:39:02Z</time>
      </trkpt>
      <trkpt lat="46.137923" lon="8.988325">
        <ele>1041.708</ele>
        <time>2020-08-22T09:39:03Z</time>
      </trkpt>
      <trkpt lat="46.137929" lon="8.988311">
        <ele>1041.791</ele>
        <time>2020-08-22T09:39:04Z</time>
      </trkpt>
      <trkpt lat="46.137937" lon="8.988297">
        <ele>1041.711</ele>
        <time>2020-08-22T09:39:05Z</time>
      </trkpt>
      <trkpt lat="46.137944" lon="8.988283">
        <ele>1041.720</ele>
        <time>2020-08-22T09:39:06Z</time>
      </trkpt>
      <trkpt lat="46.137950" lon="8.988265">
        <ele>1041.760</ele>
        <time>2020-08-22T09:39:07Z</time>
      </trkpt>
      <trkpt lat="46.138046" lon="8.987931">
        <ele>1043.687</ele>
        <time>2020-08-22T09:39:27Z</time>
      </trkpt>
      <trkpt lat="46.138097" lon="8.987726">
        <ele>1046.059</ele>
        <time>2020-08-22T09:39:41Z</time>
      </trkpt>
      <trkpt lat="46.138099" lon="8.987711">
        <ele>1046.527</ele>
        <time>2020-08-22T09:39:42Z</time>
      </trkpt>
      <trkpt lat="46.138101" lon="8.987695">
        <ele>1046.584</ele>
        <time>2020-08-22T09:39:43Z</time>
      </trkpt>
      <trkpt lat="46.138124" lon="8.987435">
        <ele>1048.948</ele>
        <time>2020-08-22T09:39:59Z</time>
      </trkpt>
      <trkpt lat="46.138120" lon="8.987418">
        <ele>1048.961</ele>
        <time>2020-08-22T09:40:00Z</time>
      </trkpt>
      <trkpt lat="46.138084" lon="8.987377">
        <ele>1050.317</ele>
        <time>2020-08-22T09:40:13Z</time>
      </trkpt>
      <trkpt lat="46.138100" lon="8.987402">
        <ele>1050.308</ele>
        <time>2020-08-22T09:40:15Z</time>
      </trkpt>
      <trkpt lat="46.138114" lon="8.987441">
        <ele>1050.349</ele>
        <time>2020-08-22T09:40:16Z</time>
      </trkpt>
      <trkpt lat="46.138117" lon="8.987463">
        <ele>1048.929</ele>
        <time>2020-08-22T09:40:17Z</time>
      </trkpt>
      <trkpt lat="46.138114" lon="8.987484">
        <ele>1048.978</ele>
        <time>2020-08-22T09:40:18Z</time>
      </trkpt>
      <trkpt lat="46.138113" lon="8.987507">
        <ele>1048.478</ele>
        <time>2020-08-22T09:40:19Z</time>
      </trkpt>
      <trkpt lat="46.138112" lon="8.987532">
        <ele>1048.485</ele>
        <time>2020-08-22T09:40:20Z</time>
      </trkpt>
      <trkpt lat="46.138081" lon="8.987805">
        <ele>1046.047</ele>
        <time>2020-08-22T09:40:31Z</time>
      </trkpt>
      <trkpt lat="46.138089" lon="8.987819">
        <ele>1045.545</ele>
        <time>2020-08-22T09:40:32Z</time>
      </trkpt>
      <trkpt lat="46.138103" lon="8.987822">
        <ele>1045.562</ele>
        <time>2020-08-22T09:40:33Z</time>
      </trkpt>
      <trkpt lat="46.138119" lon="8.987804">
        <ele>1045.597</ele>
        <time>2020-08-22T09:40:34Z</time>
      </trkpt>
      <trkpt lat="46.138123" lon="8.987792">
        <ele>1045.523</ele>
        <time>2020-08-22T09:40:35Z</time>
      </trkpt>
      <trkpt lat="46.138129" lon="8.987771">
        <ele>1045.025</ele>
        <time>2020-08-22T09:40:36Z</time>
      </trkpt>
      <trkpt lat="46.138132" lon="8.987750">
        <ele>1045.008</ele>
        <time>2020-08-22T09:40:37Z</time>
      </trkpt>
      <trkpt lat="46.138166" lon="8.987560">
        <ele>1046.524</ele>
        <time>2020-08-22T09:40:46Z</time>
      </trkpt>
      <trkpt lat="46.138238" lon="8.987236">
        <ele>1047.954</ele>
        <time>2020-08-22T09:41:03Z</time>
      </trkpt>
      <trkpt lat="46.138249" lon="8.987220">
        <ele>1047.953</ele>
        <time>2020-08-22T09:41:04Z</time>
      </trkpt>
      <trkpt lat="46.138260" lon="8.987202">
        <ele>1047.973</ele>
        <time>2020-08-22T09:41:05Z</time>
      </trkpt>
      <trkpt lat="46.138272" lon="8.987186">
        <ele>1047.990</ele>
        <time>2020-08-22T09:41:06Z</time>
      </trkpt>
      <trkpt lat="46.138284" lon="8.987171">
        <ele>1047.932</ele>
        <time>2020-08-22T09:41:07Z</time>
      </trkpt>
      <trkpt lat="46.138442" lon="8.986969">
        <ele>1049.420</ele>
        <time>2020-08-22T09:41:21Z</time>
      </trkpt>
      <trkpt lat="46.138592" lon="8.986717">
        <ele>1050.327</ele>
        <time>2020-08-22T09:41:36Z</time>
      </trkpt>
      <trkpt lat="46.138617" lon="8.986669">
        <ele>1050.835</ele>
        <time>2020-08-22T09:41:40Z</time>
      </trkpt>
      <trkpt lat="46.138627" lon="8.986647">
        <ele>1051.886</ele>
        <time>2020-08-22T09:41:42Z</time>
      </trkpt>
      <trkpt lat="46.138668" lon="8.986582">
        <ele>1052.314</ele>
        <time>2020-08-22T09:41:52Z</time>
      </trkpt>
      <trkpt lat="46.138690" lon="8.986543">
        <ele>1053.208</ele>
        <time>2020-08-22T09:42:04Z</time>
      </trkpt>
      <trkpt lat="46.138716" lon="8.986502">
        <ele>1052.798</ele>
        <time>2020-08-22T09:42:19Z</time>
      </trkpt>
      <trkpt lat="46.138739" lon="8.986479">
        <ele>1053.288</ele>
        <time>2020-08-22T09:42:39Z</time>
      </trkpt>
      <trkpt lat="46.138743" lon="8.986476">
        <ele>1053.267</ele>
        <time>2020-08-22T09:42:45Z</time>
      </trkpt>
      <trkpt lat="46.138758" lon="8.986381">
        <ele>1054.717</ele>
        <time>2020-08-22T09:42:55Z</time>
      </trkpt>
      <trkpt lat="46.138810" lon="8.986152">
        <ele>1056.654</ele>
        <time>2020-08-22T09:43:09Z</time>
      </trkpt>
      <trkpt lat="46.138814" lon="8.986123">
        <ele>1057.116</ele>
        <time>2020-08-22T09:43:11Z</time>
      </trkpt>
      <trkpt lat="46.138815" lon="8.986107">
        <ele>1057.164</ele>
        <time>2020-08-22T09:43:12Z</time>
      </trkpt>
      <trkpt lat="46.138816" lon="8.986092">
        <ele>1057.181</ele>
        <time>2020-08-22T09:43:13Z</time>
      </trkpt>
      <trkpt lat="46.138811" lon="8.985863">
        <ele>1059.523</ele>
        <time>2020-08-22T09:43:28Z</time>
      </trkpt>
      <trkpt lat="46.138801" lon="8.985704">
        <ele>1060.983</ele>
        <time>2020-08-22T09:43:38Z</time>
      </trkpt>
      <trkpt lat="46.138797" lon="8.985679">
        <ele>1060.911</ele>
        <time>2020-08-22T09:43:39Z</time>
      </trkpt>
      <trkpt lat="46.138793" lon="8.985589">
        <ele>1061.908</ele>
        <time>2020-08-22T09:43:45Z</time>
      </trkpt>
      <trkpt lat="46.138894" lon="8.985192">
        <ele>1062.327</ele>
        <time>2020-08-22T09:43:59Z</time>
      </trkpt>
      <trkpt lat="46.138883" lon="8.984714">
        <ele>1061.477</ele>
        <time>2020-08-22T09:44:15Z</time>
      </trkpt>
      <trkpt lat="46.138816" lon="8.984379">
        <ele>1062.366</ele>
        <time>2020-08-22T09:44:29Z</time>
      </trkpt>
      <trkpt lat="46.138732" lon="8.984059">
        <ele>1064.876</ele>
        <time>2020-08-22T09:44:44Z</time>
      </trkpt>
      <trkpt lat="46.138625" lon="8.983717">
        <ele>1066.293</ele>
        <time>2020-08-22T09:45:00Z</time>
      </trkpt>
      <trkpt lat="46.138519" lon="8.983495">
        <ele>1067.215</ele>
        <time>2020-08-22T09:45:12Z</time>
      </trkpt>
      <trkpt lat="46.138484" lon="8.983253">
        <ele>1068.653</ele>
        <time>2020-08-22T09:45:23Z</time>
      </trkpt>
      <trkpt lat="46.138482" lon="8.983233">
        <ele>1068.680</ele>
        <time>2020-08-22T09:45:24Z</time>
      </trkpt>
      <trkpt lat="46.138482" lon="8.983205">
        <ele>1068.684</ele>
        <time>2020-08-22T09:45:25Z</time>
      </trkpt>
      <trkpt lat="46.138481" lon="8.983189">
        <ele>1068.607</ele>
        <time>2020-08-22T09:45:26Z</time>
      </trkpt>
      <trkpt lat="46.138477" lon="8.983160">
        <ele>1068.617</ele>
        <time>2020-08-22T09:45:27Z</time>
      </trkpt>
      <trkpt lat="46.138474" lon="8.983142">
        <ele>1069.108</ele>
        <time>2020-08-22T09:45:28Z</time>
      </trkpt>
      <trkpt lat="46.138444" lon="8.982794">
        <ele>1070.523</ele>
        <time>2020-08-22T09:45:43Z</time>
      </trkpt>
      <trkpt lat="46.138325" lon="8.982396">
        <ele>1071.513</ele>
        <time>2020-08-22T09:46:00Z</time>
      </trkpt>
      <trkpt lat="46.138252" lon="8.982114">
        <ele>1071.512</ele>
        <time>2020-08-22T09:46:11Z</time>
      </trkpt>
      <trkpt lat="46.138250" lon="8.981620">
        <ele>1072.012</ele>
        <time>2020-08-22T09:46:24Z</time>
      </trkpt>
      <trkpt lat="46.138190" lon="8.981067">
        <ele>1072.419</ele>
        <time>2020-08-22T09:46:38Z</time>
      </trkpt>
      <trkpt lat="46.138170" lon="8.980845">
        <ele>1072.471</ele>
        <time>2020-08-22T09:46:49Z</time>
      </trkpt>
      <trkpt lat="46.138173" lon="8.980757">
        <ele>1072.029</ele>
        <time>2020-08-22T09:46:59Z</time>
      </trkpt>
      <trkpt lat="46.138167" lon="8.980737">
        <ele>1072.036</ele>
        <time>2020-08-22T09:47:00Z</time>
      </trkpt>
      <trkpt lat="46.138162" lon="8.980719">
        <ele>1071.535</ele>
        <time>2020-08-22T09:47:01Z</time>
      </trkpt>
      <trkpt lat="46.138159" lon="8.980696">
        <ele>1071.586</ele>
        <time>2020-08-22T09:47:02Z</time>
      </trkpt>
      <trkpt lat="46.138157" lon="8.980672">
        <ele>1071.514</ele>
        <time>2020-08-22T09:47:03Z</time>
      </trkpt>
      <trkpt lat="46.138110" lon="8.980341">
        <ele>1071.508</ele>
        <time>2020-08-22T09:47:16Z</time>
      </trkpt>
      <trkpt lat="46.137937" lon="8.980026">
        <ele>1071.588</ele>
        <time>2020-08-22T09:47:29Z</time>
      </trkpt>
      <trkpt lat="46.137926" lon="8.980004">
        <ele>1072.938</ele>
        <time>2020-08-22T09:47:30Z</time>
      </trkpt>
      <trkpt lat="46.137912" lon="8.979974">
        <ele>1072.997</ele>
        <time>2020-08-22T09:47:31Z</time>
      </trkpt>
      <trkpt lat="46.137897" lon="8.979937">
        <ele>1072.987</ele>
        <time>2020-08-22T09:47:32Z</time>
      </trkpt>
      <trkpt lat="46.137874" lon="8.979809">
        <ele>1072.974</ele>
        <time>2020-08-22T09:47:36Z</time>
      </trkpt>
      <trkpt lat="46.137921" lon="8.979273">
        <ele>1073.926</ele>
        <time>2020-08-22T09:47:50Z</time>
      </trkpt>
      <trkpt lat="46.137973" lon="8.978635">
        <ele>1073.914</ele>
        <time>2020-08-22T09:48:05Z</time>
      </trkpt>
      <trkpt lat="46.137921" lon="8.978194">
        <ele>1073.991</ele>
        <time>2020-08-22T09:48:16Z</time>
      </trkpt>
      <trkpt lat="46.137867" lon="8.977657">
        <ele>1073.932</ele>
        <time>2020-08-22T09:48:28Z</time>
      </trkpt>
      <trkpt lat="46.137692" lon="8.976848">
        <ele>1072.492</ele>
        <time>2020-08-22T09:48:45Z</time>
      </trkpt>
      <trkpt lat="46.137518" lon="8.976446">
        <ele>1073.911</ele>
        <time>2020-08-22T09:48:58Z</time>
      </trkpt>
      <trkpt lat="46.137350" lon="8.976253">
        <ele>1075.808</ele>
        <time>2020-08-22T09:49:09Z</time>
      </trkpt>
      <trkpt lat="46.137201" lon="8.976038">
        <ele>1078.288</ele>
        <time>2020-08-22T09:49:23Z</time>
      </trkpt>
      <trkpt lat="46.137148" lon="8.975952">
        <ele>1079.268</ele>
        <time>2020-08-22T09:49:29Z</time>
      </trkpt>
      <trkpt lat="46.137140" lon="8.975931">
        <ele>1080.687</ele>
        <time>2020-08-22T09:49:30Z</time>
      </trkpt>
      <trkpt lat="46.137134" lon="8.975914">
        <ele>1080.667</ele>
        <time>2020-08-22T09:49:31Z</time>
      </trkpt>
      <trkpt lat="46.137128" lon="8.975899">
        <ele>1079.264</ele>
        <time>2020-08-22T09:49:32Z</time>
      </trkpt>
      <trkpt lat="46.137119" lon="8.975883">
        <ele>1079.256</ele>
        <time>2020-08-22T09:49:33Z</time>
      </trkpt>
      <trkpt lat="46.136980" lon="8.975664">
        <ele>1081.614</ele>
        <time>2020-08-22T09:49:48Z</time>
      </trkpt>
      <trkpt lat="46.136872" lon="8.975469">
        <ele>1083.531</ele>
        <time>2020-08-22T09:50:01Z</time>
      </trkpt>
      <trkpt lat="46.136697" lon="8.975276">
        <ele>1085.432</ele>
        <time>2020-08-22T09:50:16Z</time>
      </trkpt>
      <trkpt lat="46.136546" lon="8.974983">
        <ele>1085.992</ele>
        <time>2020-08-22T09:50:29Z</time>
      </trkpt>
      <trkpt lat="46.136255" lon="8.974835">
        <ele>1085.911</ele>
        <time>2020-08-22T09:50:41Z</time>
      </trkpt>
      <trkpt lat="46.135991" lon="8.975140">
        <ele>1087.308</ele>
        <time>2020-08-22T09:50:55Z</time>
      </trkpt>
      <trkpt lat="46.135903" lon="8.975352">
        <ele>1086.488</ele>
        <time>2020-08-22T09:51:01Z</time>
      </trkpt>
      <trkpt lat="46.135777" lon="8.975662">
        <ele>1088.388</ele>
        <time>2020-08-22T09:51:13Z</time>
      </trkpt>
      <trkpt lat="46.135649" lon="8.975956">
        <ele>1089.797</ele>
        <time>2020-08-22T09:51:28Z</time>
      </trkpt>
      <trkpt lat="46.135413" lon="8.976066">
        <ele>1091.717</ele>
        <time>2020-08-22T09:51:44Z</time>
      </trkpt>
      <trkpt lat="46.135172" lon="8.976090">
        <ele>1093.144</ele>
        <time>2020-08-22T09:51:58Z</time>
      </trkpt>
      <trkpt lat="46.134982" lon="8.975941">
        <ele>1094.666</ele>
        <time>2020-08-22T09:52:12Z</time>
      </trkpt>
      <trkpt lat="46.134789" lon="8.975674">
        <ele>1096.044</ele>
        <time>2020-08-22T09:52:27Z</time>
      </trkpt>
      <trkpt lat="46.134670" lon="8.975401">
        <ele>1097.071</ele>
        <time>2020-08-22T09:52:40Z</time>
      </trkpt>
      <trkpt lat="46.134528" lon="8.975149">
        <ele>1098.455</ele>
        <time>2020-08-22T09:52:53Z</time>
      </trkpt>
      <trkpt lat="46.134306" lon="8.975084">
        <ele>1100.307</ele>
        <time>2020-08-22T09:53:07Z</time>
      </trkpt>
      <trkpt lat="46.134141" lon="8.974827">
        <ele>1101.817</ele>
        <time>2020-08-22T09:53:20Z</time>
      </trkpt>
      <trkpt lat="46.134064" lon="8.974484">
        <ele>1102.708</ele>
        <time>2020-08-22T09:53:33Z</time>
      </trkpt>
      <trkpt lat="46.134055" lon="8.974375">
        <ele>1101.320</ele>
        <time>2020-08-22T09:53:35Z</time>
      </trkpt>
      <trkpt lat="46.134050" lon="8.974236">
        <ele>1100.890</ele>
        <time>2020-08-22T09:53:37Z</time>
      </trkpt>
      <trkpt lat="46.134066" lon="8.974081">
        <ele>1098.419</ele>
        <time>2020-08-22T09:53:39Z</time>
      </trkpt>
      <trkpt lat="46.134089" lon="8.973998">
        <ele>1098.439</ele>
        <time>2020-08-22T09:53:40Z</time>
      </trkpt>
      <trkpt lat="46.134150" lon="8.973777">
        <ele>1095.556</ele>
        <time>2020-08-22T09:53:43Z</time>
      </trkpt>
      <trkpt lat="46.134161" lon="8.973690">
        <ele>1094.148</ele>
        <time>2020-08-22T09:53:44Z</time>
      </trkpt>
      <trkpt lat="46.134168" lon="8.973596">
        <ele>1093.116</ele>
        <time>2020-08-22T09:53:45Z</time>
      </trkpt>
      <trkpt lat="46.134170" lon="8.973515">
        <ele>1091.743</ele>
        <time>2020-08-22T09:53:46Z</time>
      </trkpt>
      <trkpt lat="46.134170" lon="8.973435">
        <ele>1090.745</ele>
        <time>2020-08-22T09:53:47Z</time>
      </trkpt>
      <trkpt lat="46.134165" lon="8.973361">
        <ele>1089.347</ele>
        <time>2020-08-22T09:53:48Z</time>
      </trkpt>
      <trkpt lat="46.134160" lon="8.973296">
        <ele>1088.311</ele>
        <time>2020-08-22T09:53:49Z</time>
      </trkpt>
      <trkpt lat="46.134156" lon="8.973234">
        <ele>1087.308</ele>
        <time>2020-08-22T09:53:50Z</time>
      </trkpt>
      <trkpt lat="46.134143" lon="8.973109">
        <ele>1085.979</ele>
        <time>2020-08-22T09:53:52Z</time>
      </trkpt>
      <trkpt lat="46.134124" lon="8.972928">
        <ele>1084.599</ele>
        <time>2020-08-22T09:53:55Z</time>
      </trkpt>
      <trkpt lat="46.134077" lon="8.972700">
        <ele>1080.658</ele>
        <time>2020-08-22T09:53:59Z</time>
      </trkpt>
      <trkpt lat="46.133980" lon="8.972417">
        <ele>1077.768</ele>
        <time>2020-08-22T09:54:04Z</time>
      </trkpt>
      <trkpt lat="46.133963" lon="8.972352">
        <ele>1076.885</ele>
        <time>2020-08-22T09:54:05Z</time>
      </trkpt>
      <trkpt lat="46.133949" lon="8.972274">
        <ele>1075.827</ele>
        <time>2020-08-22T09:54:06Z</time>
      </trkpt>
      <trkpt lat="46.133940" lon="8.972201">
        <ele>1075.825</ele>
        <time>2020-08-22T09:54:07Z</time>
      </trkpt>
      <trkpt lat="46.133933" lon="8.972122">
        <ele>1074.842</ele>
        <time>2020-08-22T09:54:08Z</time>
      </trkpt>
      <trkpt lat="46.133928" lon="8.972045">
        <ele>1073.481</ele>
        <time>2020-08-22T09:54:09Z</time>
      </trkpt>
      <trkpt lat="46.133911" lon="8.971806">
        <ele>1071.061</ele>
        <time>2020-08-22T09:54:12Z</time>
      </trkpt>
      <trkpt lat="46.133899" lon="8.971723">
        <ele>1070.517</ele>
        <time>2020-08-22T09:54:13Z</time>
      </trkpt>
      <trkpt lat="46.133884" lon="8.971657">
        <ele>1069.608</ele>
        <time>2020-08-22T09:54:14Z</time>
      </trkpt>
      <trkpt lat="46.133846" lon="8.971509">
        <ele>1068.183</ele>
        <time>2020-08-22T09:54:16Z</time>
      </trkpt>
      <trkpt lat="46.133842" lon="8.971459">
        <ele>1067.253</ele>
        <time>2020-08-22T09:54:17Z</time>
      </trkpt>
      <trkpt lat="46.133841" lon="8.971422">
        <ele>1066.752</ele>
        <time>2020-08-22T09:54:18Z</time>
      </trkpt>
      <trkpt lat="46.133844" lon="8.971381">
        <ele>1065.732</ele>
        <time>2020-08-22T09:54:19Z</time>
      </trkpt>
      <trkpt lat="46.133851" lon="8.971345">
        <ele>1065.229</ele>
        <time>2020-08-22T09:54:20Z</time>
      </trkpt>
      <trkpt lat="46.133858" lon="8.971321">
        <ele>1065.241</ele>
        <time>2020-08-22T09:54:21Z</time>
      </trkpt>
      <trkpt lat="46.133865" lon="8.971299">
        <ele>1064.839</ele>
        <time>2020-08-22T09:54:22Z</time>
      </trkpt>
      <trkpt lat="46.133885" lon="8.971185">
        <ele>1063.826</ele>
        <time>2020-08-22T09:54:36Z</time>
      </trkpt>
      <trkpt lat="46.133880" lon="8.971198">
        <ele>1063.859</ele>
        <time>2020-08-22T09:54:53Z</time>
      </trkpt>
      <trkpt lat="46.133874" lon="8.971182">
        <ele>1063.803</ele>
        <time>2020-08-22T09:55:05Z</time>
      </trkpt>
      <trkpt lat="46.133871" lon="8.971142">
        <ele>1063.823</ele>
        <time>2020-08-22T09:55:06Z</time>
      </trkpt>
      <trkpt lat="46.133830" lon="8.970854">
        <ele>1061.408</ele>
        <time>2020-08-22T09:55:10Z</time>
      </trkpt>
      <trkpt lat="46.133814" lon="8.970781">
        <ele>1060.940</ele>
        <time>2020-08-22T09:55:11Z</time>
      </trkpt>
      <trkpt lat="46.133803" lon="8.970698">
        <ele>1059.980</ele>
        <time>2020-08-22T09:55:12Z</time>
      </trkpt>
      <trkpt lat="46.133805" lon="8.970604">
        <ele>1059.029</ele>
        <time>2020-08-22T09:55:13Z</time>
      </trkpt>
      <trkpt lat="46.133820" lon="8.970507">
        <ele>1058.059</ele>
        <time>2020-08-22T09:55:14Z</time>
      </trkpt>
      <trkpt lat="46.133838" lon="8.970429">
        <ele>1057.556</ele>
        <time>2020-08-22T09:55:15Z</time>
      </trkpt>
      <trkpt lat="46.133862" lon="8.970342">
        <ele>1057.178</ele>
        <time>2020-08-22T09:55:16Z</time>
      </trkpt>
      <trkpt lat="46.133943" lon="8.970082">
        <ele>1053.796</ele>
        <time>2020-08-22T09:55:19Z</time>
      </trkpt>
      <trkpt lat="46.133966" lon="8.970010">
        <ele>1052.763</ele>
        <time>2020-08-22T09:55:20Z</time>
      </trkpt>
      <trkpt lat="46.133981" lon="8.969947">
        <ele>1051.866</ele>
        <time>2020-08-22T09:55:21Z</time>
      </trkpt>
      <trkpt lat="46.133988" lon="8.969886">
        <ele>1050.829</ele>
        <time>2020-08-22T09:55:22Z</time>
      </trkpt>
      <trkpt lat="46.133991" lon="8.969822">
        <ele>1050.821</ele>
        <time>2020-08-22T09:55:23Z</time>
      </trkpt>
      <trkpt lat="46.133990" lon="8.969754">
        <ele>1050.308</ele>
        <time>2020-08-22T09:55:24Z</time>
      </trkpt>
      <trkpt lat="46.133980" lon="8.969689">
        <ele>1050.371</ele>
        <time>2020-08-22T09:55:25Z</time>
      </trkpt>
      <trkpt lat="46.133960" lon="8.969625">
        <ele>1049.971</ele>
        <time>2020-08-22T09:55:26Z</time>
      </trkpt>
      <trkpt lat="46.133938" lon="8.969564">
        <ele>1049.910</ele>
        <time>2020-08-22T09:55:27Z</time>
      </trkpt>
      <trkpt lat="46.133922" lon="8.969503">
        <ele>1049.960</ele>
        <time>2020-08-22T09:55:28Z</time>
      </trkpt>
      <trkpt lat="46.133908" lon="8.969444">
        <ele>1049.997</ele>
        <time>2020-08-22T09:55:29Z</time>
      </trkpt>
      <trkpt lat="46.133894" lon="8.969392">
        <ele>1049.419</ele>
        <time>2020-08-22T09:55:30Z</time>
      </trkpt>
      <trkpt lat="46.133881" lon="8.969341">
        <ele>1049.467</ele>
        <time>2020-08-22T09:55:31Z</time>
      </trkpt>
      <trkpt lat="46.133868" lon="8.969295">
        <ele>1049.474</ele>
        <time>2020-08-22T09:55:32Z</time>
      </trkpt>
      <trkpt lat="46.133701" lon="8.968872">
        <ele>1049.949</ele>
        <time>2020-08-22T09:55:45Z</time>
      </trkpt>
      <trkpt lat="46.133793" lon="8.968443">
        <ele>1049.902</ele>
        <time>2020-08-22T09:55:57Z</time>
      </trkpt>
      <trkpt lat="46.133956" lon="8.968097">
        <ele>1050.822</ele>
        <time>2020-08-22T09:56:08Z</time>
      </trkpt>
      <trkpt lat="46.134014" lon="8.967834">
        <ele>1050.808</ele>
        <time>2020-08-22T09:56:14Z</time>
      </trkpt>
      <trkpt lat="46.134004" lon="8.967761">
        <ele>1050.879</ele>
        <time>2020-08-22T09:56:15Z</time>
      </trkpt>
      <trkpt lat="46.133989" lon="8.967687">
        <ele>1049.429</ele>
        <time>2020-08-22T09:56:16Z</time>
      </trkpt>
      <trkpt lat="46.133974" lon="8.967605">
        <ele>1049.448</ele>
        <time>2020-08-22T09:56:17Z</time>
      </trkpt>
      <trkpt lat="46.133973" lon="8.967525">
        <ele>1048.938</ele>
        <time>2020-08-22T09:56:18Z</time>
      </trkpt>
      <trkpt lat="46.133987" lon="8.967450">
        <ele>1048.975</ele>
        <time>2020-08-22T09:56:19Z</time>
      </trkpt>
      <trkpt lat="46.134007" lon="8.967385">
        <ele>1048.937</ele>
        <time>2020-08-22T09:56:20Z</time>
      </trkpt>
      <trkpt lat="46.134031" lon="8.967322">
        <ele>1048.495</ele>
        <time>2020-08-22T09:56:21Z</time>
      </trkpt>
      <trkpt lat="46.134053" lon="8.967266">
        <ele>1048.982</ele>
        <time>2020-08-22T09:56:22Z</time>
      </trkpt>
      <trkpt lat="46.134071" lon="8.967211">
        <ele>1048.947</ele>
        <time>2020-08-22T09:56:23Z</time>
      </trkpt>
      <trkpt lat="46.134085" lon="8.967156">
        <ele>1048.929</ele>
        <time>2020-08-22T09:56:24Z</time>
      </trkpt>
      <trkpt lat="46.134094" lon="8.967097">
        <ele>1048.921</ele>
        <time>2020-08-22T09:56:25Z</time>
      </trkpt>
      <trkpt lat="46.134096" lon="8.967032">
        <ele>1048.908</ele>
        <time>2020-08-22T09:56:26Z</time>
      </trkpt>
      <trkpt lat="46.134090" lon="8.966961">
        <ele>1047.949</ele>
        <time>2020-08-22T09:56:27Z</time>
      </trkpt>
      <trkpt lat="46.134080" lon="8.966886">
        <ele>1047.959</ele>
        <time>2020-08-22T09:56:28Z</time>
      </trkpt>
      <trkpt lat="46.133981" lon="8.966379">
        <ele>1047.088</ele>
        <time>2020-08-22T09:56:35Z</time>
      </trkpt>
      <trkpt lat="46.133975" lon="8.966299">
        <ele>1047.078</ele>
        <time>2020-08-22T09:56:36Z</time>
      </trkpt>
      <trkpt lat="46.133979" lon="8.966222">
        <ele>1046.595</ele>
        <time>2020-08-22T09:56:37Z</time>
      </trkpt>
      <trkpt lat="46.134008" lon="8.965913">
        <ele>1045.597</ele>
        <time>2020-08-22T09:56:41Z</time>
      </trkpt>
      <trkpt lat="46.134015" lon="8.965835">
        <ele>1045.595</ele>
        <time>2020-08-22T09:56:42Z</time>
      </trkpt>
      <trkpt lat="46.134022" lon="8.965762">
        <ele>1045.032</ele>
        <time>2020-08-22T09:56:43Z</time>
      </trkpt>
      <trkpt lat="46.134037" lon="8.965696">
        <ele>1045.078</ele>
        <time>2020-08-22T09:56:44Z</time>
      </trkpt>
      <trkpt lat="46.134060" lon="8.965638">
        <ele>1044.133</ele>
        <time>2020-08-22T09:56:45Z</time>
      </trkpt>
      <trkpt lat="46.134089" lon="8.965581">
        <ele>1043.626</ele>
        <time>2020-08-22T09:56:46Z</time>
      </trkpt>
      <trkpt lat="46.134116" lon="8.965519">
        <ele>1043.108</ele>
        <time>2020-08-22T09:56:47Z</time>
      </trkpt>
      <trkpt lat="46.134133" lon="8.965451">
        <ele>1043.142</ele>
        <time>2020-08-22T09:56:48Z</time>
      </trkpt>
      <trkpt lat="46.134136" lon="8.965376">
        <ele>1043.112</ele>
        <time>2020-08-22T09:56:49Z</time>
      </trkpt>
      <trkpt lat="46.134123" lon="8.965233">
        <ele>1042.631</ele>
        <time>2020-08-22T09:56:51Z</time>
      </trkpt>
      <trkpt lat="46.134112" lon="8.965163">
        <ele>1042.651</ele>
        <time>2020-08-22T09:56:52Z</time>
      </trkpt>
      <trkpt lat="46.134055" lon="8.964651">
        <ele>1041.778</ele>
        <time>2020-08-22T09:56:59Z</time>
      </trkpt>
      <trkpt lat="46.134048" lon="8.964578">
        <ele>1041.790</ele>
        <time>2020-08-22T09:57:00Z</time>
      </trkpt>
      <trkpt lat="46.134046" lon="8.964503">
        <ele>1041.768</ele>
        <time>2020-08-22T09:57:01Z</time>
      </trkpt>
      <trkpt lat="46.134047" lon="8.964428">
        <ele>1041.795</ele>
        <time>2020-08-22T09:57:02Z</time>
      </trkpt>
      <trkpt lat="46.134050" lon="8.964359">
        <ele>1041.732</ele>
        <time>2020-08-22T09:57:03Z</time>
      </trkpt>
      <trkpt lat="46.134055" lon="8.964294">
        <ele>1041.792</ele>
        <time>2020-08-22T09:57:04Z</time>
      </trkpt>
      <trkpt lat="46.134113" lon="8.963700">
        <ele>1043.111</ele>
        <time>2020-08-22T09:57:17Z</time>
      </trkpt>
      <trkpt lat="46.134137" lon="8.963420">
        <ele>1044.108</ele>
        <time>2020-08-22T09:57:29Z</time>
      </trkpt>
      <trkpt lat="46.134202" lon="8.963267">
        <ele>1042.278</ele>
        <time>2020-08-22T09:57:43Z</time>
      </trkpt>
      <trkpt lat="46.134338" lon="8.963139">
        <ele>1041.248</ele>
        <time>2020-08-22T09:57:56Z</time>
      </trkpt>
      <trkpt lat="46.134580" lon="8.962973">
        <ele>1038.387</ele>
        <time>2020-08-22T09:58:05Z</time>
      </trkpt>
      <trkpt lat="46.134615" lon="8.962935">
        <ele>1037.467</ele>
        <time>2020-08-22T09:58:07Z</time>
      </trkpt>
      <trkpt lat="46.134680" lon="8.962811">
        <ele>1035.914</ele>
        <time>2020-08-22T09:58:18Z</time>
      </trkpt>
      <trkpt lat="46.134732" lon="8.962541">
        <ele>1034.056</ele>
        <time>2020-08-22T09:58:24Z</time>
      </trkpt>
      <trkpt lat="46.134756" lon="8.962381">
        <ele>1032.194</ele>
        <time>2020-08-22T09:58:27Z</time>
      </trkpt>
      <trkpt lat="46.134839" lon="8.961918">
        <ele>1029.241</ele>
        <time>2020-08-22T09:58:37Z</time>
      </trkpt>
      <trkpt lat="46.134786" lon="8.961943">
        <ele>1028.773</ele>
        <time>2020-08-22T09:58:50Z</time>
      </trkpt>
      <trkpt lat="46.134784" lon="8.961933">
        <ele>1028.785</ele>
        <time>2020-08-22T09:59:16Z</time>
      </trkpt>
      <trkpt lat="46.134797" lon="8.961919">
        <ele>1028.713</ele>
        <time>2020-08-22T09:59:37Z</time>
      </trkpt>
      <trkpt lat="46.134782" lon="8.961915">
        <ele>1028.708</ele>
        <time>2020-08-22T09:59:59Z</time>
      </trkpt>
      <trkpt lat="46.134755" lon="8.961909">
        <ele>1028.712</ele>
        <time>2020-08-22T10:00:08Z</time>
      </trkpt>
      <trkpt lat="46.134741" lon="8.961917">
        <ele>1028.772</ele>
        <time>2020-08-22T10:00:22Z</time>
      </trkpt>
      <trkpt lat="46.134764" lon="8.961925">
        <ele>1028.241</ele>
        <time>2020-08-22T10:00:52Z</time>
      </trkpt>
      <trkpt lat="46.134756" lon="8.961906">
        <ele>1028.271</ele>
        <time>2020-08-22T10:01:10Z</time>
      </trkpt>
      <trkpt lat="46.134765" lon="8.961911">
        <ele>1028.278</ele>
        <time>2020-08-22T10:01:33Z</time>
      </trkpt>
      <trkpt lat="46.134766" lon="8.961917">
        <ele>1028.270</ele>
        <time>2020-08-22T10:01:48Z</time>
      </trkpt>
      <trkpt lat="46.134888" lon="8.961469">
        <ele>1026.858</ele>
        <time>2020-08-22T10:02:01Z</time>
      </trkpt>
      <trkpt lat="46.134983" lon="8.961122">
        <ele>1025.895</ele>
        <time>2020-08-22T10:02:07Z</time>
      </trkpt>
      <trkpt lat="46.135043" lon="8.960802">
        <ele>1023.974</ele>
        <time>2020-08-22T10:02:12Z</time>
      </trkpt>
      <trkpt lat="46.135091" lon="8.960588">
        <ele>1022.056</ele>
        <time>2020-08-22T10:02:15Z</time>
      </trkpt>
      <trkpt lat="46.135145" lon="8.960395">
        <ele>1020.121</ele>
        <time>2020-08-22T10:02:18Z</time>
      </trkpt>
      <trkpt lat="46.135160" lon="8.960333">
        <ele>1019.608</ele>
        <time>2020-08-22T10:02:19Z</time>
      </trkpt>
      <trkpt lat="46.135201" lon="8.960209">
        <ele>1018.682</ele>
        <time>2020-08-22T10:02:21Z</time>
      </trkpt>
      <trkpt lat="46.135314" lon="8.959887">
        <ele>1015.752</ele>
        <time>2020-08-22T10:02:26Z</time>
      </trkpt>
      <trkpt lat="46.135361" lon="8.959624">
        <ele>1012.891</ele>
        <time>2020-08-22T10:02:31Z</time>
      </trkpt>
      <trkpt lat="46.135372" lon="8.959451">
        <ele>1011.451</ele>
        <time>2020-08-22T10:02:34Z</time>
      </trkpt>
      <trkpt lat="46.135390" lon="8.959250">
        <ele>1010.448</ele>
        <time>2020-08-22T10:02:37Z</time>
      </trkpt>
      <trkpt lat="46.135394" lon="8.959181">
        <ele>1009.590</ele>
        <time>2020-08-22T10:02:38Z</time>
      </trkpt>
      <trkpt lat="46.135411" lon="8.959043">
        <ele>1008.058</ele>
        <time>2020-08-22T10:02:40Z</time>
      </trkpt>
      <trkpt lat="46.135427" lon="8.958981">
        <ele>1007.615</ele>
        <time>2020-08-22T10:02:41Z</time>
      </trkpt>
      <trkpt lat="46.135443" lon="8.958927">
        <ele>1007.648</ele>
        <time>2020-08-22T10:02:42Z</time>
      </trkpt>
      <trkpt lat="46.135483" lon="8.958767">
        <ele>1005.261</ele>
        <time>2020-08-22T10:02:45Z</time>
      </trkpt>
      <trkpt lat="46.135493" lon="8.958464">
        <ele>1002.317</ele>
        <time>2020-08-22T10:02:51Z</time>
      </trkpt>
      <trkpt lat="46.135322" lon="8.958129">
        <ele>998.908</ele>
        <time>2020-08-22T10:03:00Z</time>
      </trkpt>
      <trkpt lat="46.135254" lon="8.958027">
        <ele>998.459</ele>
        <time>2020-08-22T10:03:03Z</time>
      </trkpt>
      <trkpt lat="46.135262" lon="8.957988">
        <ele>997.539</ele>
        <time>2020-08-22T10:03:04Z</time>
      </trkpt>
      <trkpt lat="46.135284" lon="8.957959">
        <ele>997.548</ele>
        <time>2020-08-22T10:03:05Z</time>
      </trkpt>
      <trkpt lat="46.135306" lon="8.957951">
        <ele>997.068</ele>
        <time>2020-08-22T10:03:06Z</time>
      </trkpt>
      <trkpt lat="46.135331" lon="8.957964">
        <ele>997.075</ele>
        <time>2020-08-22T10:03:07Z</time>
      </trkpt>
      <trkpt lat="46.135357" lon="8.957992">
        <ele>997.097</ele>
        <time>2020-08-22T10:03:08Z</time>
      </trkpt>
      <trkpt lat="46.135384" lon="8.958025">
        <ele>996.065</ele>
        <time>2020-08-22T10:03:09Z</time>
      </trkpt>
      <trkpt lat="46.135413" lon="8.958054">
        <ele>996.042</ele>
        <time>2020-08-22T10:03:10Z</time>
      </trkpt>
      <trkpt lat="46.135441" lon="8.958070">
        <ele>995.528</ele>
        <time>2020-08-22T10:03:11Z</time>
      </trkpt>
      <trkpt lat="46.135473" lon="8.958088">
        <ele>995.189</ele>
        <time>2020-08-22T10:03:12Z</time>
      </trkpt>
      <trkpt lat="46.135504" lon="8.958109">
        <ele>995.117</ele>
        <time>2020-08-22T10:03:13Z</time>
      </trkpt>
      <trkpt lat="46.135534" lon="8.958130">
        <ele>994.608</ele>
        <time>2020-08-22T10:03:14Z</time>
      </trkpt>
      <trkpt lat="46.135559" lon="8.958151">
        <ele>994.617</ele>
        <time>2020-08-22T10:03:15Z</time>
      </trkpt>
      <trkpt lat="46.135585" lon="8.958175">
        <ele>993.667</ele>
        <time>2020-08-22T10:03:16Z</time>
      </trkpt>
      <trkpt lat="46.135611" lon="8.958198">
        <ele>993.616</ele>
        <time>2020-08-22T10:03:17Z</time>
      </trkpt>
      <trkpt lat="46.135794" lon="8.958471">
        <ele>990.386</ele>
        <time>2020-08-22T10:03:25Z</time>
      </trkpt>
      <trkpt lat="46.135835" lon="8.958665">
        <ele>988.323</ele>
        <time>2020-08-22T10:03:29Z</time>
      </trkpt>
      <trkpt lat="46.135968" lon="8.958997">
        <ele>985.495</ele>
        <time>2020-08-22T10:03:37Z</time>
      </trkpt>
      <trkpt lat="46.135992" lon="8.959385">
        <ele>982.133</ele>
        <time>2020-08-22T10:03:45Z</time>
      </trkpt>
      <trkpt lat="46.135959" lon="8.959821">
        <ele>978.770</ele>
        <time>2020-08-22T10:03:53Z</time>
      </trkpt>
      <trkpt lat="46.135924" lon="8.960266">
        <ele>975.367</ele>
        <time>2020-08-22T10:04:01Z</time>
      </trkpt>
      <trkpt lat="46.135842" lon="8.960674">
        <ele>972.081</ele>
        <time>2020-08-22T10:04:09Z</time>
      </trkpt>
      <trkpt lat="46.135835" lon="8.960793">
        <ele>971.519</ele>
        <time>2020-08-22T10:04:11Z</time>
      </trkpt>
      <trkpt lat="46.135830" lon="8.961013">
        <ele>969.608</ele>
        <time>2020-08-22T10:04:15Z</time>
      </trkpt>
      <trkpt lat="46.135830" lon="8.961074">
        <ele>969.191</ele>
        <time>2020-08-22T10:04:16Z</time>
      </trkpt>
      <trkpt lat="46.135828" lon="8.961196">
        <ele>968.661</ele>
        <time>2020-08-22T10:04:18Z</time>
      </trkpt>
      <trkpt lat="46.135872" lon="8.961574">
        <ele>966.780</ele>
        <time>2020-08-22T10:04:24Z</time>
      </trkpt>
      <trkpt lat="46.135985" lon="8.962065">
        <ele>963.310</ele>
        <time>2020-08-22T10:04:34Z</time>
      </trkpt>
      <trkpt lat="46.135912" lon="8.962708">
        <ele>960.417</ele>
        <time>2020-08-22T10:04:46Z</time>
      </trkpt>
      <trkpt lat="46.135889" lon="8.962882">
        <ele>959.579</ele>
        <time>2020-08-22T10:04:50Z</time>
      </trkpt>
      <trkpt lat="46.135924" lon="8.962922">
        <ele>959.087</ele>
        <time>2020-08-22T10:04:52Z</time>
      </trkpt>
      <trkpt lat="46.135948" lon="8.962913">
        <ele>958.544</ele>
        <time>2020-08-22T10:04:53Z</time>
      </trkpt>
      <trkpt lat="46.135966" lon="8.962883">
        <ele>958.034</ele>
        <time>2020-08-22T10:04:54Z</time>
      </trkpt>
      <trkpt lat="46.136085" lon="8.962494">
        <ele>955.255</ele>
        <time>2020-08-22T10:05:03Z</time>
      </trkpt>
      <trkpt lat="46.136242" lon="8.962202">
        <ele>951.810</ele>
        <time>2020-08-22T10:05:11Z</time>
      </trkpt>
      <trkpt lat="46.136341" lon="8.961836">
        <ele>948.908</ele>
        <time>2020-08-22T10:05:19Z</time>
      </trkpt>
      <trkpt lat="46.136409" lon="8.961495">
        <ele>945.528</ele>
        <time>2020-08-22T10:05:26Z</time>
      </trkpt>
      <trkpt lat="46.136455" lon="8.961235">
        <ele>943.138</ele>
        <time>2020-08-22T10:05:32Z</time>
      </trkpt>
      <trkpt lat="46.136478" lon="8.960999">
        <ele>941.787</ele>
        <time>2020-08-22T10:05:37Z</time>
      </trkpt>
      <trkpt lat="46.136487" lon="8.960955">
        <ele>941.297</ele>
        <time>2020-08-22T10:05:38Z</time>
      </trkpt>
      <trkpt lat="46.136528" lon="8.960736">
        <ele>939.814</ele>
        <time>2020-08-22T10:05:43Z</time>
      </trkpt>
      <trkpt lat="46.136538" lon="8.960666">
        <ele>939.346</ele>
        <time>2020-08-22T10:05:45Z</time>
      </trkpt>
      <trkpt lat="46.136559" lon="8.960660">
        <ele>938.824</ele>
        <time>2020-08-22T10:05:46Z</time>
      </trkpt>
      <trkpt lat="46.136578" lon="8.960675">
        <ele>938.841</ele>
        <time>2020-08-22T10:05:47Z</time>
      </trkpt>
      <trkpt lat="46.136586" lon="8.960701">
        <ele>938.365</ele>
        <time>2020-08-22T10:05:48Z</time>
      </trkpt>
      <trkpt lat="46.136587" lon="8.960746">
        <ele>937.968</ele>
        <time>2020-08-22T10:05:49Z</time>
      </trkpt>
      <trkpt lat="46.136584" lon="8.960764">
        <ele>937.914</ele>
        <time>2020-08-22T10:05:50Z</time>
      </trkpt>
      <trkpt lat="46.136576" lon="8.960804">
        <ele>937.408</ele>
        <time>2020-08-22T10:05:51Z</time>
      </trkpt>
      <trkpt lat="46.136572" lon="8.960840">
        <ele>937.461</ele>
        <time>2020-08-22T10:05:52Z</time>
      </trkpt>
      <trkpt lat="46.136570" lon="8.960883">
        <ele>936.931</ele>
        <time>2020-08-22T10:05:53Z</time>
      </trkpt>
      <trkpt lat="46.136649" lon="8.961217">
        <ele>935.040</ele>
        <time>2020-08-22T10:06:01Z</time>
      </trkpt>
      <trkpt lat="46.136662" lon="8.961268">
        <ele>934.570</ele>
        <time>2020-08-22T10:06:02Z</time>
      </trkpt>
      <trkpt lat="46.136675" lon="8.961319">
        <ele>933.557</ele>
        <time>2020-08-22T10:06:03Z</time>
      </trkpt>
      <trkpt lat="46.136687" lon="8.961378">
        <ele>933.129</ele>
        <time>2020-08-22T10:06:04Z</time>
      </trkpt>
      <trkpt lat="46.136695" lon="8.961426">
        <ele>933.177</ele>
        <time>2020-08-22T10:06:05Z</time>
      </trkpt>
      <trkpt lat="46.136700" lon="8.961489">
        <ele>932.154</ele>
        <time>2020-08-22T10:06:06Z</time>
      </trkpt>
      <trkpt lat="46.136700" lon="8.961547">
        <ele>931.183</ele>
        <time>2020-08-22T10:06:07Z</time>
      </trkpt>
      <trkpt lat="46.136678" lon="8.961917">
        <ele>928.225</ele>
        <time>2020-08-22T10:06:15Z</time>
      </trkpt>
      <trkpt lat="46.136618" lon="8.962266">
        <ele>924.917</ele>
        <time>2020-08-22T10:06:23Z</time>
      </trkpt>
      <trkpt lat="46.136514" lon="8.962682">
        <ele>921.508</ele>
        <time>2020-08-22T10:06:32Z</time>
      </trkpt>
      <trkpt lat="46.136464" lon="8.963053">
        <ele>918.683</ele>
        <time>2020-08-22T10:06:40Z</time>
      </trkpt>
      <trkpt lat="46.136455" lon="8.963385">
        <ele>915.333</ele>
        <time>2020-08-22T10:06:48Z</time>
      </trkpt>
      <trkpt lat="46.136521" lon="8.963768">
        <ele>911.932</ele>
        <time>2020-08-22T10:06:56Z</time>
      </trkpt>
      <trkpt lat="46.136470" lon="8.964185">
        <ele>908.552</ele>
        <time>2020-08-22T10:07:05Z</time>
      </trkpt>
      <trkpt lat="46.136454" lon="8.964421">
        <ele>906.689</ele>
        <time>2020-08-22T10:07:10Z</time>
      </trkpt>
      <trkpt lat="46.136408" lon="8.964953">
        <ele>903.311</ele>
        <time>2020-08-22T10:07:21Z</time>
      </trkpt>
      <trkpt lat="46.136368" lon="8.965306">
        <ele>899.949</ele>
        <time>2020-08-22T10:07:28Z</time>
      </trkpt>
      <trkpt lat="46.136374" lon="8.965756">
        <ele>897.076</ele>
        <time>2020-08-22T10:07:38Z</time>
      </trkpt>
      <trkpt lat="46.136346" lon="8.965997">
        <ele>895.694</ele>
        <time>2020-08-22T10:07:44Z</time>
      </trkpt>
      <trkpt lat="46.136368" lon="8.966021">
        <ele>895.657</ele>
        <time>2020-08-22T10:07:45Z</time>
      </trkpt>
      <trkpt lat="46.136391" lon="8.966022">
        <ele>894.622</ele>
        <time>2020-08-22T10:07:46Z</time>
      </trkpt>
      <trkpt lat="46.136414" lon="8.966003">
        <ele>894.608</ele>
        <time>2020-08-22T10:07:47Z</time>
      </trkpt>
      <trkpt lat="46.136429" lon="8.965969">
        <ele>894.124</ele>
        <time>2020-08-22T10:07:48Z</time>
      </trkpt>
      <trkpt lat="46.136453" lon="8.965796">
        <ele>893.294</ele>
        <time>2020-08-22T10:07:53Z</time>
      </trkpt>
      <trkpt lat="46.136554" lon="8.965419">
        <ele>889.843</ele>
        <time>2020-08-22T10:08:02Z</time>
      </trkpt>
      <trkpt lat="46.136706" lon="8.965037">
        <ele>885.913</ele>
        <time>2020-08-22T10:08:13Z</time>
      </trkpt>
      <trkpt lat="46.136843" lon="8.964654">
        <ele>882.650</ele>
        <time>2020-08-22T10:08:22Z</time>
      </trkpt>
      <trkpt lat="46.136948" lon="8.964201">
        <ele>878.762</ele>
        <time>2020-08-22T10:08:33Z</time>
      </trkpt>
      <trkpt lat="46.136954" lon="8.964147">
        <ele>878.780</ele>
        <time>2020-08-22T10:08:34Z</time>
      </trkpt>
      <trkpt lat="46.136998" lon="8.963791">
        <ele>876.327</ele>
        <time>2020-08-22T10:08:41Z</time>
      </trkpt>
      <trkpt lat="46.137120" lon="8.963260">
        <ele>872.598</ele>
        <time>2020-08-22T10:08:47Z</time>
      </trkpt>
      <trkpt lat="46.137146" lon="8.963161">
        <ele>872.015</ele>
        <time>2020-08-22T10:08:48Z</time>
      </trkpt>
      <trkpt lat="46.137182" lon="8.963071">
        <ele>870.626</ele>
        <time>2020-08-22T10:08:49Z</time>
      </trkpt>
      <trkpt lat="46.137226" lon="8.962991">
        <ele>870.108</ele>
        <time>2020-08-22T10:08:50Z</time>
      </trkpt>
      <trkpt lat="46.137382" lon="8.962756">
        <ele>867.264</ele>
        <time>2020-08-22T10:08:53Z</time>
      </trkpt>
      <trkpt lat="46.137429" lon="8.962702">
        <ele>866.244</ele>
        <time>2020-08-22T10:08:54Z</time>
      </trkpt>
      <trkpt lat="46.137474" lon="8.962653">
        <ele>864.863</ele>
        <time>2020-08-22T10:08:55Z</time>
      </trkpt>
      <trkpt lat="46.137510" lon="8.962626">
        <ele>863.873</ele>
        <time>2020-08-22T10:08:56Z</time>
      </trkpt>
      <trkpt lat="46.137681" lon="8.962405">
        <ele>860.040</ele>
        <time>2020-08-22T10:09:04Z</time>
      </trkpt>
      <trkpt lat="46.137702" lon="8.962367">
        <ele>860.512</ele>
        <time>2020-08-22T10:09:05Z</time>
      </trkpt>
      <trkpt lat="46.137822" lon="8.962119">
        <ele>857.130</ele>
        <time>2020-08-22T10:09:11Z</time>
      </trkpt>
      <trkpt lat="46.137978" lon="8.961809">
        <ele>853.747</ele>
        <time>2020-08-22T10:09:19Z</time>
      </trkpt>
      <trkpt lat="46.138145" lon="8.961550">
        <ele>850.913</ele>
        <time>2020-08-22T10:09:26Z</time>
      </trkpt>
      <trkpt lat="46.138269" lon="8.961142">
        <ele>847.543</ele>
        <time>2020-08-22T10:09:34Z</time>
      </trkpt>
      <trkpt lat="46.138292" lon="8.960970">
        <ele>846.107</ele>
        <time>2020-08-22T10:09:38Z</time>
      </trkpt>
      <trkpt lat="46.138310" lon="8.960958">
        <ele>845.608</ele>
        <time>2020-08-22T10:09:39Z</time>
      </trkpt>
      <trkpt lat="46.138333" lon="8.960966">
        <ele>845.666</ele>
        <time>2020-08-22T10:09:40Z</time>
      </trkpt>
      <trkpt lat="46.138347" lon="8.960992">
        <ele>845.116</ele>
        <time>2020-08-22T10:09:41Z</time>
      </trkpt>
      <trkpt lat="46.138352" lon="8.961026">
        <ele>844.625</ele>
        <time>2020-08-22T10:09:42Z</time>
      </trkpt>
      <trkpt lat="46.138354" lon="8.961069">
        <ele>844.695</ele>
        <time>2020-08-22T10:09:43Z</time>
      </trkpt>
      <trkpt lat="46.138353" lon="8.961114">
        <ele>844.612</ele>
        <time>2020-08-22T10:09:44Z</time>
      </trkpt>
      <trkpt lat="46.138349" lon="8.961161">
        <ele>843.654</ele>
        <time>2020-08-22T10:09:45Z</time>
      </trkpt>
      <trkpt lat="46.138347" lon="8.961208">
        <ele>843.662</ele>
        <time>2020-08-22T10:09:46Z</time>
      </trkpt>
      <trkpt lat="46.138347" lon="8.961259">
        <ele>843.239</ele>
        <time>2020-08-22T10:09:47Z</time>
      </trkpt>
      <trkpt lat="46.138344" lon="8.961471">
        <ele>841.228</ele>
        <time>2020-08-22T10:09:51Z</time>
      </trkpt>
      <trkpt lat="46.138323" lon="8.961813">
        <ele>837.989</ele>
        <time>2020-08-22T10:09:57Z</time>
      </trkpt>
      <trkpt lat="46.138302" lon="8.962226">
        <ele>834.517</ele>
        <time>2020-08-22T10:10:04Z</time>
      </trkpt>
      <trkpt lat="46.138256" lon="8.962544">
        <ele>831.608</ele>
        <time>2020-08-22T10:10:10Z</time>
      </trkpt>
      <trkpt lat="46.138241" lon="8.962593">
        <ele>831.637</ele>
        <time>2020-08-22T10:10:11Z</time>
      </trkpt>
      <trkpt lat="46.138117" lon="8.962892">
        <ele>828.397</ele>
        <time>2020-08-22T10:10:18Z</time>
      </trkpt>
      <trkpt lat="46.138095" lon="8.963008">
        <ele>826.866</ele>
        <time>2020-08-22T10:10:22Z</time>
      </trkpt>
      <trkpt lat="46.138086" lon="8.963027">
        <ele>826.326</ele>
        <time>2020-08-22T10:10:23Z</time>
      </trkpt>
      <trkpt lat="46.137927" lon="8.963199">
        <ele>825.433</ele>
        <time>2020-08-22T10:10:30Z</time>
      </trkpt>
      <trkpt lat="46.137917" lon="8.963254">
        <ele>824.935</ele>
        <time>2020-08-22T10:10:31Z</time>
      </trkpt>
      <trkpt lat="46.137934" lon="8.963295">
        <ele>824.473</ele>
        <time>2020-08-22T10:10:32Z</time>
      </trkpt>
      <trkpt lat="46.137966" lon="8.963301">
        <ele>824.430</ele>
        <time>2020-08-22T10:10:33Z</time>
      </trkpt>
      <trkpt lat="46.138009" lon="8.963279">
        <ele>823.993</ele>
        <time>2020-08-22T10:10:34Z</time>
      </trkpt>
      <trkpt lat="46.138047" lon="8.963245">
        <ele>823.565</ele>
        <time>2020-08-22T10:10:35Z</time>
      </trkpt>
      <trkpt lat="46.138089" lon="8.963196">
        <ele>823.021</ele>
        <time>2020-08-22T10:10:36Z</time>
      </trkpt>
      <trkpt lat="46.138248" lon="8.963016">
        <ele>820.608</ele>
        <time>2020-08-22T10:10:39Z</time>
      </trkpt>
      <trkpt lat="46.138314" lon="8.962976">
        <ele>820.154</ele>
        <time>2020-08-22T10:10:40Z</time>
      </trkpt>
      <trkpt lat="46.138381" lon="8.962954">
        <ele>818.754</ele>
        <time>2020-08-22T10:10:41Z</time>
      </trkpt>
      <trkpt lat="46.138510" lon="8.962901">
        <ele>816.793</ele>
        <time>2020-08-22T10:10:43Z</time>
      </trkpt>
      <trkpt lat="46.138572" lon="8.962856">
        <ele>815.863</ele>
        <time>2020-08-22T10:10:44Z</time>
      </trkpt>
      <trkpt lat="46.138632" lon="8.962792">
        <ele>814.870</ele>
        <time>2020-08-22T10:10:45Z</time>
      </trkpt>
      <trkpt lat="46.138689" lon="8.962698">
        <ele>813.432</ele>
        <time>2020-08-22T10:10:46Z</time>
      </trkpt>
      <trkpt lat="46.138720" lon="8.962623">
        <ele>812.960</ele>
        <time>2020-08-22T10:10:47Z</time>
      </trkpt>
      <trkpt lat="46.138832" lon="8.962207">
        <ele>809.077</ele>
        <time>2020-08-22T10:10:51Z</time>
      </trkpt>
      <trkpt lat="46.138853" lon="8.962099">
        <ele>807.669</ele>
        <time>2020-08-22T10:10:52Z</time>
      </trkpt>
      <trkpt lat="46.138897" lon="8.961907">
        <ele>805.204</ele>
        <time>2020-08-22T10:10:54Z</time>
      </trkpt>
      <trkpt lat="46.138943" lon="8.961810">
        <ele>804.224</ele>
        <time>2020-08-22T10:10:55Z</time>
      </trkpt>
      <trkpt lat="46.139032" lon="8.961656">
        <ele>802.308</ele>
        <time>2020-08-22T10:10:57Z</time>
      </trkpt>
      <trkpt lat="46.139075" lon="8.961567">
        <ele>801.461</ele>
        <time>2020-08-22T10:10:58Z</time>
      </trkpt>
      <trkpt lat="46.139107" lon="8.961468">
        <ele>799.941</ele>
        <time>2020-08-22T10:10:59Z</time>
      </trkpt>
      <trkpt lat="46.139134" lon="8.961365">
        <ele>798.950</ele>
        <time>2020-08-22T10:11:00Z</time>
      </trkpt>
      <trkpt lat="46.139169" lon="8.961264">
        <ele>798.040</ele>
        <time>2020-08-22T10:11:01Z</time>
      </trkpt>
      <trkpt lat="46.139205" lon="8.961164">
        <ele>797.027</ele>
        <time>2020-08-22T10:11:02Z</time>
      </trkpt>
      <trkpt lat="46.139234" lon="8.961066">
        <ele>795.659</ele>
        <time>2020-08-22T10:11:03Z</time>
      </trkpt>
      <trkpt lat="46.139277" lon="8.960868">
        <ele>793.787</ele>
        <time>2020-08-22T10:11:05Z</time>
      </trkpt>
      <trkpt lat="46.139313" lon="8.960776">
        <ele>792.224</ele>
        <time>2020-08-22T10:11:06Z</time>
      </trkpt>
      <trkpt lat="46.139354" lon="8.960711">
        <ele>791.741</ele>
        <time>2020-08-22T10:11:07Z</time>
      </trkpt>
      <trkpt lat="46.139400" lon="8.960620">
        <ele>790.881</ele>
        <time>2020-08-22T10:11:08Z</time>
      </trkpt>
      <trkpt lat="46.139429" lon="8.960516">
        <ele>789.309</ele>
        <time>2020-08-22T10:11:09Z</time>
      </trkpt>
      <trkpt lat="46.139445" lon="8.960418">
        <ele>788.908</ele>
        <time>2020-08-22T10:11:10Z</time>
      </trkpt>
      <trkpt lat="46.139508" lon="8.960099">
        <ele>785.529</ele>
        <time>2020-08-22T10:11:13Z</time>
      </trkpt>
      <trkpt lat="46.139543" lon="8.960018">
        <ele>784.519</ele>
        <time>2020-08-22T10:11:14Z</time>
      </trkpt>
      <trkpt lat="46.139575" lon="8.959948">
        <ele>783.628</ele>
        <time>2020-08-22T10:11:15Z</time>
      </trkpt>
      <trkpt lat="46.139631" lon="8.959777">
        <ele>780.758</ele>
        <time>2020-08-22T10:11:18Z</time>
      </trkpt>
      <trkpt lat="46.139621" lon="8.959749">
        <ele>779.715</ele>
        <time>2020-08-22T10:11:19Z</time>
      </trkpt>
      <trkpt lat="46.139616" lon="8.959734">
        <ele>779.777</ele>
        <time>2020-08-22T10:11:20Z</time>
      </trkpt>
      <trkpt lat="46.139588" lon="8.959715">
        <ele>779.255</ele>
        <time>2020-08-22T10:11:33Z</time>
      </trkpt>
      <trkpt lat="46.139545" lon="8.959700">
        <ele>778.852</ele>
        <time>2020-08-22T10:11:58Z</time>
      </trkpt>
      <trkpt lat="46.139522" lon="8.959724">
        <ele>778.882</ele>
        <time>2020-08-22T10:12:19Z</time>
      </trkpt>
      <trkpt lat="46.139523" lon="8.959727">
        <ele>779.743</ele>
        <time>2020-08-22T10:12:42Z</time>
      </trkpt>
      <trkpt lat="46.139494" lon="8.959441">
        <ele>777.817</ele>
        <time>2020-08-22T10:12:48Z</time>
      </trkpt>
      <trkpt lat="46.139505" lon="8.959353">
        <ele>777.308</ele>
        <time>2020-08-22T10:12:49Z</time>
      </trkpt>
      <trkpt lat="46.139527" lon="8.959287">
        <ele>776.433</ele>
        <time>2020-08-22T10:12:50Z</time>
      </trkpt>
      <trkpt lat="46.139563" lon="8.959225">
        <ele>776.443</ele>
        <time>2020-08-22T10:12:51Z</time>
      </trkpt>
      <trkpt lat="46.139606" lon="8.959201">
        <ele>774.922</ele>
        <time>2020-08-22T10:12:52Z</time>
      </trkpt>
      <trkpt lat="46.139662" lon="8.959196">
        <ele>774.092</ele>
        <time>2020-08-22T10:12:53Z</time>
      </trkpt>
      <trkpt lat="46.139721" lon="8.959224">
        <ele>773.089</ele>
        <time>2020-08-22T10:12:54Z</time>
      </trkpt>
      <trkpt lat="46.139776" lon="8.959274">
        <ele>772.591</ele>
        <time>2020-08-22T10:12:55Z</time>
      </trkpt>
      <trkpt lat="46.139827" lon="8.959340">
        <ele>772.029</ele>
        <time>2020-08-22T10:12:56Z</time>
      </trkpt>
      <trkpt lat="46.139865" lon="8.959413">
        <ele>771.146</ele>
        <time>2020-08-22T10:12:57Z</time>
      </trkpt>
      <trkpt lat="46.139890" lon="8.959498">
        <ele>770.148</ele>
        <time>2020-08-22T10:12:58Z</time>
      </trkpt>
      <trkpt lat="46.139910" lon="8.959581">
        <ele>769.161</ele>
        <time>2020-08-22T10:12:59Z</time>
      </trkpt>
      <trkpt lat="46.139978" lon="8.959723">
        <ele>766.717</ele>
        <time>2020-08-22T10:13:02Z</time>
      </trkpt>
      <trkpt lat="46.140014" lon="8.959709">
        <ele>766.708</ele>
        <time>2020-08-22T10:13:03Z</time>
      </trkpt>
      <trkpt lat="46.140035" lon="8.959660">
        <ele>766.349</ele>
        <time>2020-08-22T10:13:04Z</time>
      </trkpt>
      <trkpt lat="46.140037" lon="8.959592">
        <ele>765.829</ele>
        <time>2020-08-22T10:13:05Z</time>
      </trkpt>
      <trkpt lat="46.140028" lon="8.959515">
        <ele>765.318</ele>
        <time>2020-08-22T10:13:06Z</time>
      </trkpt>
      <trkpt lat="46.140009" lon="8.959436">
        <ele>764.338</ele>
        <time>2020-08-22T10:13:07Z</time>
      </trkpt>
      <trkpt lat="46.139982" lon="8.959344">
        <ele>764.325</ele>
        <time>2020-08-22T10:13:08Z</time>
      </trkpt>
      <trkpt lat="46.139915" lon="8.959120">
        <ele>761.947</ele>
        <time>2020-08-22T10:13:11Z</time>
      </trkpt>
      <trkpt lat="46.139897" lon="8.959063">
        <ele>761.535</ele>
        <time>2020-08-22T10:13:12Z</time>
      </trkpt>
      <trkpt lat="46.139893" lon="8.959006">
        <ele>761.022</ele>
        <time>2020-08-22T10:13:13Z</time>
      </trkpt>
      <trkpt lat="46.139915" lon="8.958970">
        <ele>760.519</ele>
        <time>2020-08-22T10:13:14Z</time>
      </trkpt>
      <trkpt lat="46.139950" lon="8.958972">
        <ele>760.009</ele>
        <time>2020-08-22T10:13:15Z</time>
      </trkpt>
      <trkpt lat="46.139983" lon="8.959017">
        <ele>759.519</ele>
        <time>2020-08-22T10:13:16Z</time>
      </trkpt>
      <trkpt lat="46.140009" lon="8.959089">
        <ele>759.108</ele>
        <time>2020-08-22T10:13:17Z</time>
      </trkpt>
      <trkpt lat="46.140038" lon="8.959168">
        <ele>758.166</ele>
        <time>2020-08-22T10:13:18Z</time>
      </trkpt>
      <trkpt lat="46.140076" lon="8.959239">
        <ele>757.616</ele>
        <time>2020-08-22T10:13:19Z</time>
      </trkpt>
      <trkpt lat="46.140115" lon="8.959307">
        <ele>757.155</ele>
        <time>2020-08-22T10:13:20Z</time>
      </trkpt>
      <trkpt lat="46.140236" lon="8.959540">
        <ele>754.755</ele>
        <time>2020-08-22T10:13:23Z</time>
      </trkpt>
      <trkpt lat="46.140280" lon="8.959647">
        <ele>753.872</ele>
        <time>2020-08-22T10:13:24Z</time>
      </trkpt>
      <trkpt lat="46.140303" lon="8.959723">
        <ele>753.324</ele>
        <time>2020-08-22T10:13:25Z</time>
      </trkpt>
      <trkpt lat="46.140326" lon="8.959835">
        <ele>752.382</ele>
        <time>2020-08-22T10:13:26Z</time>
      </trkpt>
      <trkpt lat="46.140336" lon="8.959937">
        <ele>750.959</ele>
        <time>2020-08-22T10:13:27Z</time>
      </trkpt>
      <trkpt lat="46.140343" lon="8.960080">
        <ele>750.488</ele>
        <time>2020-08-22T10:13:28Z</time>
      </trkpt>
      <trkpt lat="46.140347" lon="8.960561">
        <ele>745.624</ele>
        <time>2020-08-22T10:13:32Z</time>
      </trkpt>
      <trkpt lat="46.140353" lon="8.960734">
        <ele>743.726</ele>
        <time>2020-08-22T10:13:34Z</time>
      </trkpt>
      <trkpt lat="46.140360" lon="8.960803">
        <ele>742.708</ele>
        <time>2020-08-22T10:13:35Z</time>
      </trkpt>
      <trkpt lat="46.140381" lon="8.960841">
        <ele>742.283</ele>
        <time>2020-08-22T10:13:36Z</time>
      </trkpt>
      <trkpt lat="46.140413" lon="8.960837">
        <ele>741.363</ele>
        <time>2020-08-22T10:13:37Z</time>
      </trkpt>
      <trkpt lat="46.140440" lon="8.960797">
        <ele>741.362</ele>
        <time>2020-08-22T10:13:38Z</time>
      </trkpt>
      <trkpt lat="46.140453" lon="8.960738">
        <ele>740.812</ele>
        <time>2020-08-22T10:13:39Z</time>
      </trkpt>
      <trkpt lat="46.140463" lon="8.960665">
        <ele>740.339</ele>
        <time>2020-08-22T10:13:40Z</time>
      </trkpt>
      <trkpt lat="46.140499" lon="8.960394">
        <ele>738.971</ele>
        <time>2020-08-22T10:13:43Z</time>
      </trkpt>
      <trkpt lat="46.140527" lon="8.960309">
        <ele>738.499</ele>
        <time>2020-08-22T10:13:44Z</time>
      </trkpt>
      <trkpt lat="46.140613" lon="8.960105">
        <ele>736.086</ele>
        <time>2020-08-22T10:13:46Z</time>
      </trkpt>
      <trkpt lat="46.140659" lon="8.959986">
        <ele>735.556</ele>
        <time>2020-08-22T10:13:47Z</time>
      </trkpt>
      <trkpt lat="46.140686" lon="8.959887">
        <ele>734.559</ele>
        <time>2020-08-22T10:13:48Z</time>
      </trkpt>
      <trkpt lat="46.140729" lon="8.959633">
        <ele>731.714</ele>
        <time>2020-08-22T10:13:50Z</time>
      </trkpt>
      <trkpt lat="46.140736" lon="8.959507">
        <ele>730.708</ele>
        <time>2020-08-22T10:13:51Z</time>
      </trkpt>
      <trkpt lat="46.140735" lon="8.959378">
        <ele>729.730</ele>
        <time>2020-08-22T10:13:52Z</time>
      </trkpt>
      <trkpt lat="46.140727" lon="8.959249">
        <ele>728.810</ele>
        <time>2020-08-22T10:13:53Z</time>
      </trkpt>
      <trkpt lat="46.140715" lon="8.959117">
        <ele>727.369</ele>
        <time>2020-08-22T10:13:54Z</time>
      </trkpt>
      <trkpt lat="46.140655" lon="8.958778">
        <ele>724.049</ele>
        <time>2020-08-22T10:13:57Z</time>
      </trkpt>
      <trkpt lat="46.140618" lon="8.958696">
        <ele>723.076</ele>
        <time>2020-08-22T10:13:58Z</time>
      </trkpt>
      <trkpt lat="46.140521" lon="8.958508">
        <ele>720.648</ele>
        <time>2020-08-22T10:14:00Z</time>
      </trkpt>
      <trkpt lat="46.140496" lon="8.958432">
        <ele>720.186</ele>
        <time>2020-08-22T10:14:01Z</time>
      </trkpt>
      <trkpt lat="46.140476" lon="8.958311">
        <ele>719.263</ele>
        <time>2020-08-22T10:14:02Z</time>
      </trkpt>
      <trkpt lat="46.140433" lon="8.957959">
        <ele>715.869</ele>
        <time>2020-08-22T10:14:05Z</time>
      </trkpt>
      <trkpt lat="46.140420" lon="8.957846">
        <ele>714.804</ele>
        <time>2020-08-22T10:14:06Z</time>
      </trkpt>
      <trkpt lat="46.140418" lon="8.957728">
        <ele>713.924</ele>
        <time>2020-08-22T10:14:07Z</time>
      </trkpt>
      <trkpt lat="46.140426" lon="8.957605">
        <ele>712.408</ele>
        <time>2020-08-22T10:14:08Z</time>
      </trkpt>
      <trkpt lat="46.140462" lon="8.957249">
        <ele>709.161</ele>
        <time>2020-08-22T10:14:11Z</time>
      </trkpt>
      <trkpt lat="46.140472" lon="8.957029">
        <ele>707.141</ele>
        <time>2020-08-22T10:14:13Z</time>
      </trkpt>
      <trkpt lat="46.140460" lon="8.956919">
        <ele>705.730</ele>
        <time>2020-08-22T10:14:14Z</time>
      </trkpt>
      <trkpt lat="46.140390" lon="8.956538">
        <ele>701.970</ele>
        <time>2020-08-22T10:14:17Z</time>
      </trkpt>
      <trkpt lat="46.140306" lon="8.956205">
        <ele>698.557</ele>
        <time>2020-08-22T10:14:20Z</time>
      </trkpt>
      <trkpt lat="46.140261" lon="8.956109">
        <ele>697.049</ele>
        <time>2020-08-22T10:14:21Z</time>
      </trkpt>
      <trkpt lat="46.140198" lon="8.956031">
        <ele>695.637</ele>
        <time>2020-08-22T10:14:22Z</time>
      </trkpt>
      <trkpt lat="46.140141" lon="8.955993">
        <ele>694.634</ele>
        <time>2020-08-22T10:14:23Z</time>
      </trkpt>
      <trkpt lat="46.140080" lon="8.955972">
        <ele>693.743</ele>
        <time>2020-08-22T10:14:24Z</time>
      </trkpt>
      <trkpt lat="46.140022" lon="8.955953">
        <ele>692.764</ele>
        <time>2020-08-22T10:14:25Z</time>
      </trkpt>
      <trkpt lat="46.139977" lon="8.955912">
        <ele>692.210</ele>
        <time>2020-08-22T10:14:26Z</time>
      </trkpt>
      <trkpt lat="46.139950" lon="8.955844">
        <ele>690.808</ele>
        <time>2020-08-22T10:14:27Z</time>
      </trkpt>
      <trkpt lat="46.139936" lon="8.955759">
        <ele>690.319</ele>
        <time>2020-08-22T10:14:28Z</time>
      </trkpt>
      <trkpt lat="46.139927" lon="8.955702">
        <ele>689.479</ele>
        <time>2020-08-22T10:14:29Z</time>
      </trkpt>
      <trkpt lat="46.139896" lon="8.955533">
        <ele>687.418</ele>
        <time>2020-08-22T10:14:31Z</time>
      </trkpt>
      <trkpt lat="46.139874" lon="8.955459">
        <ele>687.018</ele>
        <time>2020-08-22T10:14:32Z</time>
      </trkpt>
      <trkpt lat="46.139850" lon="8.955392">
        <ele>686.025</ele>
        <time>2020-08-22T10:14:33Z</time>
      </trkpt>
      <trkpt lat="46.139825" lon="8.955331">
        <ele>685.027</ele>
        <time>2020-08-22T10:14:34Z</time>
      </trkpt>
      <trkpt lat="46.139811" lon="8.955254">
        <ele>684.685</ele>
        <time>2020-08-22T10:14:35Z</time>
      </trkpt>
      <trkpt lat="46.139811" lon="8.955204">
        <ele>684.192</ele>
        <time>2020-08-22T10:14:36Z</time>
      </trkpt>
      <trkpt lat="46.139835" lon="8.955163">
        <ele>683.639</ele>
        <time>2020-08-22T10:14:37Z</time>
      </trkpt>
      <trkpt lat="46.139886" lon="8.955141">
        <ele>682.601</ele>
        <time>2020-08-22T10:14:38Z</time>
      </trkpt>
      <trkpt lat="46.139938" lon="8.955134">
        <ele>682.121</ele>
        <time>2020-08-22T10:14:39Z</time>
      </trkpt>
      <trkpt lat="46.139997" lon="8.955130">
        <ele>681.708</ele>
        <time>2020-08-22T10:14:40Z</time>
      </trkpt>
      <trkpt lat="46.140067" lon="8.955129">
        <ele>680.298</ele>
        <time>2020-08-22T10:14:41Z</time>
      </trkpt>
      <trkpt lat="46.140118" lon="8.955134">
        <ele>680.248</ele>
        <time>2020-08-22T10:14:42Z</time>
      </trkpt>
      <trkpt lat="46.140183" lon="8.955158">
        <ele>679.727</ele>
        <time>2020-08-22T10:14:43Z</time>
      </trkpt>
      <trkpt lat="46.140240" lon="8.955198">
        <ele>679.347</ele>
        <time>2020-08-22T10:14:44Z</time>
      </trkpt>
      <trkpt lat="46.140289" lon="8.955257">
        <ele>679.394</ele>
        <time>2020-08-22T10:14:45Z</time>
      </trkpt>
      <trkpt lat="46.140332" lon="8.955328">
        <ele>678.386</ele>
        <time>2020-08-22T10:14:46Z</time>
      </trkpt>
      <trkpt lat="46.140371" lon="8.955412">
        <ele>678.334</ele>
        <time>2020-08-22T10:14:47Z</time>
      </trkpt>
      <trkpt lat="46.140482" lon="8.955680">
        <ele>675.411</ele>
        <time>2020-08-22T10:14:50Z</time>
      </trkpt>
      <trkpt lat="46.140550" lon="8.955843">
        <ele>673.529</ele>
        <time>2020-08-22T10:14:52Z</time>
      </trkpt>
      <trkpt lat="46.140590" lon="8.955918">
        <ele>672.100</ele>
        <time>2020-08-22T10:14:53Z</time>
      </trkpt>
      <trkpt lat="46.140608" lon="8.955951">
        <ele>672.120</ele>
        <time>2020-08-22T10:14:54Z</time>
      </trkpt>
      <trkpt lat="46.140641" lon="8.955988">
        <ele>671.108</ele>
        <time>2020-08-22T10:14:55Z</time>
      </trkpt>
      <trkpt lat="46.140679" lon="8.956001">
        <ele>670.177</ele>
        <time>2020-08-22T10:14:56Z</time>
      </trkpt>
      <trkpt lat="46.140707" lon="8.955978">
        <ele>670.187</ele>
        <time>2020-08-22T10:14:57Z</time>
      </trkpt>
      <trkpt lat="46.140730" lon="8.955917">
        <ele>669.246</ele>
        <time>2020-08-22T10:14:58Z</time>
      </trkpt>
      <trkpt lat="46.140733" lon="8.955862">
        <ele>668.736</ele>
        <time>2020-08-22T10:14:59Z</time>
      </trkpt>
      <trkpt lat="46.140729" lon="8.955804">
        <ele>668.793</ele>
        <time>2020-08-22T10:15:00Z</time>
      </trkpt>
      <trkpt lat="46.140734" lon="8.955615">
        <ele>666.355</ele>
        <time>2020-08-22T10:15:04Z</time>
      </trkpt>
      <trkpt lat="46.140751" lon="8.955595">
        <ele>665.883</ele>
        <time>2020-08-22T10:15:05Z</time>
      </trkpt>
      <trkpt lat="46.140777" lon="8.955594">
        <ele>665.880</ele>
        <time>2020-08-22T10:15:06Z</time>
      </trkpt>
      <trkpt lat="46.140806" lon="8.955612">
        <ele>664.855</ele>
        <time>2020-08-22T10:15:07Z</time>
      </trkpt>
      <trkpt lat="46.140837" lon="8.955640">
        <ele>664.807</ele>
        <time>2020-08-22T10:15:08Z</time>
      </trkpt>
      <trkpt lat="46.140866" lon="8.955677">
        <ele>664.417</ele>
        <time>2020-08-22T10:15:09Z</time>
      </trkpt>
      <trkpt lat="46.140892" lon="8.955723">
        <ele>664.408</ele>
        <time>2020-08-22T10:15:10Z</time>
      </trkpt>
      <trkpt lat="46.140920" lon="8.955775">
        <ele>663.940</ele>
        <time>2020-08-22T10:15:11Z</time>
      </trkpt>
      <trkpt lat="46.140943" lon="8.955821">
        <ele>663.960</ele>
        <time>2020-08-22T10:15:12Z</time>
      </trkpt>
      <trkpt lat="46.140978" lon="8.955850">
        <ele>663.449</ele>
        <time>2020-08-22T10:15:13Z</time>
      </trkpt>
      <trkpt lat="46.141009" lon="8.955849">
        <ele>663.419</ele>
        <time>2020-08-22T10:15:14Z</time>
      </trkpt>
      <trkpt lat="46.141032" lon="8.955825">
        <ele>663.436</ele>
        <time>2020-08-22T10:15:15Z</time>
      </trkpt>
      <trkpt lat="46.141039" lon="8.955776">
        <ele>662.448</ele>
        <time>2020-08-22T10:15:16Z</time>
      </trkpt>
      <trkpt lat="46.141034" lon="8.955727">
        <ele>662.026</ele>
        <time>2020-08-22T10:15:17Z</time>
      </trkpt>
      <trkpt lat="46.141023" lon="8.955680">
        <ele>662.083</ele>
        <time>2020-08-22T10:15:18Z</time>
      </trkpt>
      <trkpt lat="46.141006" lon="8.955630">
        <ele>661.074</ele>
        <time>2020-08-22T10:15:19Z</time>
      </trkpt>
      <trkpt lat="46.140986" lon="8.955583">
        <ele>660.056</ele>
        <time>2020-08-22T10:15:20Z</time>
      </trkpt>
      <trkpt lat="46.140956" lon="8.955495">
        <ele>659.621</ele>
        <time>2020-08-22T10:15:22Z</time>
      </trkpt>
      <trkpt lat="46.140887" lon="8.955374">
        <ele>658.108</ele>
        <time>2020-08-22T10:15:25Z</time>
      </trkpt>
      <trkpt lat="46.140850" lon="8.955337">
        <ele>657.242</ele>
        <time>2020-08-22T10:15:26Z</time>
      </trkpt>
      <trkpt lat="46.140607" lon="8.955110">
        <ele>653.342</ele>
        <time>2020-08-22T10:15:31Z</time>
      </trkpt>
      <trkpt lat="46.140574" lon="8.955065">
        <ele>652.331</ele>
        <time>2020-08-22T10:15:32Z</time>
      </trkpt>
      <trkpt lat="46.140567" lon="8.955020">
        <ele>651.931</ele>
        <time>2020-08-22T10:15:33Z</time>
      </trkpt>
      <trkpt lat="46.140584" lon="8.954982">
        <ele>650.978</ele>
        <time>2020-08-22T10:15:34Z</time>
      </trkpt>
      <trkpt lat="46.140620" lon="8.954965">
        <ele>650.980</ele>
        <time>2020-08-22T10:15:35Z</time>
      </trkpt>
      <trkpt lat="46.140669" lon="8.954967">
        <ele>650.428</ele>
        <time>2020-08-22T10:15:36Z</time>
      </trkpt>
      <trkpt lat="46.140735" lon="8.954970">
        <ele>649.545</ele>
        <time>2020-08-22T10:15:37Z</time>
      </trkpt>
      <trkpt lat="46.140809" lon="8.954968">
        <ele>649.089</ele>
        <time>2020-08-22T10:15:38Z</time>
      </trkpt>
      <trkpt lat="46.140861" lon="8.954976">
        <ele>648.506</ele>
        <time>2020-08-22T10:15:39Z</time>
      </trkpt>
      <trkpt lat="46.140922" lon="8.955013">
        <ele>647.526</ele>
        <time>2020-08-22T10:15:40Z</time>
      </trkpt>
      <trkpt lat="46.140981" lon="8.955080">
        <ele>646.608</ele>
        <time>2020-08-22T10:15:41Z</time>
      </trkpt>
      <trkpt lat="46.141023" lon="8.955161">
        <ele>645.133</ele>
        <time>2020-08-22T10:15:42Z</time>
      </trkpt>
      <trkpt lat="46.141041" lon="8.955197">
        <ele>644.733</ele>
        <time>2020-08-22T10:15:43Z</time>
      </trkpt>
      <trkpt lat="46.141069" lon="8.955228">
        <ele>644.752</ele>
        <time>2020-08-22T10:15:44Z</time>
      </trkpt>
      <trkpt lat="46.141104" lon="8.955218">
        <ele>643.222</ele>
        <time>2020-08-22T10:15:45Z</time>
      </trkpt>
      <trkpt lat="46.141124" lon="8.955178">
        <ele>643.239</ele>
        <time>2020-08-22T10:15:46Z</time>
      </trkpt>
      <trkpt lat="46.141122" lon="8.955114">
        <ele>642.381</ele>
        <time>2020-08-22T10:15:47Z</time>
      </trkpt>
      <trkpt lat="46.141108" lon="8.955053">
        <ele>641.869</ele>
        <time>2020-08-22T10:15:48Z</time>
      </trkpt>
      <trkpt lat="46.141086" lon="8.954977">
        <ele>641.876</ele>
        <time>2020-08-22T10:15:49Z</time>
      </trkpt>
      <trkpt lat="46.140990" lon="8.954712">
        <ele>639.491</ele>
        <time>2020-08-22T10:15:52Z</time>
      </trkpt>
      <trkpt lat="46.140964" lon="8.954614">
        <ele>638.981</ele>
        <time>2020-08-22T10:15:53Z</time>
      </trkpt>
      <trkpt lat="46.140865" lon="8.954243">
        <ele>635.519</ele>
        <time>2020-08-22T10:15:57Z</time>
      </trkpt>
      <trkpt lat="46.140818" lon="8.954186">
        <ele>635.008</ele>
        <time>2020-08-22T10:15:58Z</time>
      </trkpt>
      <trkpt lat="46.140714" lon="8.954087">
        <ele>633.144</ele>
        <time>2020-08-22T10:16:00Z</time>
      </trkpt>
      <trkpt lat="46.140668" lon="8.954000">
        <ele>632.624</ele>
        <time>2020-08-22T10:16:01Z</time>
      </trkpt>
      <trkpt lat="46.140641" lon="8.953890">
        <ele>631.243</ele>
        <time>2020-08-22T10:16:02Z</time>
      </trkpt>
      <trkpt lat="46.140630" lon="8.953803">
        <ele>630.763</ele>
        <time>2020-08-22T10:16:03Z</time>
      </trkpt>
      <trkpt lat="46.140621" lon="8.953666">
        <ele>629.860</ele>
        <time>2020-08-22T10:16:04Z</time>
      </trkpt>
      <trkpt lat="46.140586" lon="8.953367">
        <ele>626.942</ele>
        <time>2020-08-22T10:16:07Z</time>
      </trkpt>
      <trkpt lat="46.140517" lon="8.953072">
        <ele>623.030</ele>
        <time>2020-08-22T10:16:10Z</time>
      </trkpt>
      <trkpt lat="46.140490" lon="8.953004">
        <ele>622.147</ele>
        <time>2020-08-22T10:16:11Z</time>
      </trkpt>
      <trkpt lat="46.140447" lon="8.952949">
        <ele>621.134</ele>
        <time>2020-08-22T10:16:12Z</time>
      </trkpt>
      <trkpt lat="46.140391" lon="8.952898">
        <ele>620.155</ele>
        <time>2020-08-22T10:16:13Z</time>
      </trkpt>
      <trkpt lat="46.140334" lon="8.952827">
        <ele>620.110</ele>
        <time>2020-08-22T10:16:14Z</time>
      </trkpt>
      <trkpt lat="46.140292" lon="8.952741">
        <ele>618.708</ele>
        <time>2020-08-22T10:16:15Z</time>
      </trkpt>
      <trkpt lat="46.140264" lon="8.952646">
        <ele>618.298</ele>
        <time>2020-08-22T10:16:16Z</time>
      </trkpt>
      <trkpt lat="46.140243" lon="8.952557">
        <ele>617.318</ele>
        <time>2020-08-22T10:16:17Z</time>
      </trkpt>
      <trkpt lat="46.140215" lon="8.952417">
        <ele>615.357</ele>
        <time>2020-08-22T10:16:19Z</time>
      </trkpt>
      <trkpt lat="46.140218" lon="8.952364">
        <ele>614.957</ele>
        <time>2020-08-22T10:16:20Z</time>
      </trkpt>
      <trkpt lat="46.140226" lon="8.952331">
        <ele>613.984</ele>
        <time>2020-08-22T10:16:21Z</time>
      </trkpt>
      <trkpt lat="46.140232" lon="8.952315">
        <ele>613.986</ele>
        <time>2020-08-22T10:16:22Z</time>
      </trkpt>
      <trkpt lat="46.140246" lon="8.952298">
        <ele>613.454</ele>
        <time>2020-08-22T10:16:26Z</time>
      </trkpt>
      <trkpt lat="46.140235" lon="8.952273">
        <ele>612.921</ele>
        <time>2020-08-22T10:16:27Z</time>
      </trkpt>
      <trkpt lat="46.140212" lon="8.952239">
        <ele>612.599</ele>
        <time>2020-08-22T10:16:28Z</time>
      </trkpt>
      <trkpt lat="46.140176" lon="8.952211">
        <ele>612.507</ele>
        <time>2020-08-22T10:16:29Z</time>
      </trkpt>
      <trkpt lat="46.140142" lon="8.952190">
        <ele>612.527</ele>
        <time>2020-08-22T10:16:30Z</time>
      </trkpt>
      <trkpt lat="46.139996" lon="8.952090">
        <ele>612.908</ele>
        <time>2020-08-22T10:16:34Z</time>
      </trkpt>
      <trkpt lat="46.139983" lon="8.952043">
        <ele>612.554</ele>
        <time>2020-08-22T10:16:35Z</time>
      </trkpt>
      <trkpt lat="46.139981" lon="8.951985">
        <ele>612.534</ele>
        <time>2020-08-22T10:16:36Z</time>
      </trkpt>
      <trkpt lat="46.139986" lon="8.951948">
        <ele>612.593</ele>
        <time>2020-08-22T10:16:37Z</time>
      </trkpt>
      <trkpt lat="46.139994" lon="8.951902">
        <ele>612.943</ele>
        <time>2020-08-22T10:16:38Z</time>
      </trkpt>
      <trkpt lat="46.140001" lon="8.951856">
        <ele>612.530</ele>
        <time>2020-08-22T10:16:39Z</time>
      </trkpt>
      <trkpt lat="46.140010" lon="8.951811">
        <ele>612.542</ele>
        <time>2020-08-22T10:16:40Z</time>
      </trkpt>
      <trkpt lat="46.140028" lon="8.951188">
        <ele>612.010</ele>
        <time>2020-08-22T10:16:52Z</time>
      </trkpt>
      <trkpt lat="46.139967" lon="8.950526">
        <ele>610.557</ele>
        <time>2020-08-22T10:17:01Z</time>
      </trkpt>
      <trkpt lat="46.139971" lon="8.950207">
        <ele>608.155</ele>
        <time>2020-08-22T10:17:04Z</time>
      </trkpt>
      <trkpt lat="46.139980" lon="8.950078">
        <ele>607.207</ele>
        <time>2020-08-22T10:17:05Z</time>
      </trkpt>
      <trkpt lat="46.140007" lon="8.949695">
        <ele>604.317</ele>
        <time>2020-08-22T10:17:08Z</time>
      </trkpt>
      <trkpt lat="46.140013" lon="8.949583">
        <ele>602.808</ele>
        <time>2020-08-22T10:17:09Z</time>
      </trkpt>
      <trkpt lat="46.140007" lon="8.949474">
        <ele>601.480</ele>
        <time>2020-08-22T10:17:10Z</time>
      </trkpt>
      <trkpt lat="46.139988" lon="8.949374">
        <ele>600.430</ele>
        <time>2020-08-22T10:17:11Z</time>
      </trkpt>
      <trkpt lat="46.139955" lon="8.949188">
        <ele>597.649</ele>
        <time>2020-08-22T10:17:13Z</time>
      </trkpt>
      <trkpt lat="46.139968" lon="8.949101">
        <ele>597.159</ele>
        <time>2020-08-22T10:17:14Z</time>
      </trkpt>
      <trkpt lat="46.139998" lon="8.949034">
        <ele>596.176</ele>
        <time>2020-08-22T10:17:15Z</time>
      </trkpt>
      <trkpt lat="46.140068" lon="8.948887">
        <ele>594.258</ele>
        <time>2020-08-22T10:17:17Z</time>
      </trkpt>
      <trkpt lat="46.140095" lon="8.948802">
        <ele>592.786</ele>
        <time>2020-08-22T10:17:18Z</time>
      </trkpt>
      <trkpt lat="46.140166" lon="8.948652">
        <ele>590.393</ele>
        <time>2020-08-22T10:17:21Z</time>
      </trkpt>
      <trkpt lat="46.140195" lon="8.948682">
        <ele>590.339</ele>
        <time>2020-08-22T10:17:22Z</time>
      </trkpt>
      <trkpt lat="46.140207" lon="8.948744">
        <ele>589.901</ele>
        <time>2020-08-22T10:17:23Z</time>
      </trkpt>
      <trkpt lat="46.140200" lon="8.948815">
        <ele>589.421</ele>
        <time>2020-08-22T10:17:24Z</time>
      </trkpt>
      <trkpt lat="46.140196" lon="8.948894">
        <ele>588.408</ele>
        <time>2020-08-22T10:17:25Z</time>
      </trkpt>
      <trkpt lat="46.140198" lon="8.948980">
        <ele>587.988</ele>
        <time>2020-08-22T10:17:26Z</time>
      </trkpt>
      <trkpt lat="46.140207" lon="8.949066">
        <ele>587.598</ele>
        <time>2020-08-22T10:17:27Z</time>
      </trkpt>
      <trkpt lat="46.140227" lon="8.949144">
        <ele>587.057</ele>
        <time>2020-08-22T10:17:28Z</time>
      </trkpt>
      <trkpt lat="46.140263" lon="8.949209">
        <ele>586.027</ele>
        <time>2020-08-22T10:17:29Z</time>
      </trkpt>
      <trkpt lat="46.140314" lon="8.949260">
        <ele>585.594</ele>
        <time>2020-08-22T10:17:30Z</time>
      </trkpt>
      <trkpt lat="46.140369" lon="8.949309">
        <ele>585.196</ele>
        <time>2020-08-22T10:17:31Z</time>
      </trkpt>
      <trkpt lat="46.140420" lon="8.949372">
        <ele>585.184</ele>
        <time>2020-08-22T10:17:32Z</time>
      </trkpt>
      <trkpt lat="46.140478" lon="8.949463">
        <ele>584.131</ele>
        <time>2020-08-22T10:17:33Z</time>
      </trkpt>
      <trkpt lat="46.140733" lon="8.949912">
        <ele>580.286</ele>
        <time>2020-08-22T10:17:38Z</time>
      </trkpt>
      <trkpt lat="46.140857" lon="8.950139">
        <ele>576.960</ele>
        <time>2020-08-22T10:17:41Z</time>
      </trkpt>
      <trkpt lat="46.140899" lon="8.950191">
        <ele>575.926</ele>
        <time>2020-08-22T10:17:42Z</time>
      </trkpt>
      <trkpt lat="46.140945" lon="8.950216">
        <ele>575.408</ele>
        <time>2020-08-22T10:17:43Z</time>
      </trkpt>
      <trkpt lat="46.140991" lon="8.950202">
        <ele>574.513</ele>
        <time>2020-08-22T10:17:44Z</time>
      </trkpt>
      <trkpt lat="46.141025" lon="8.950149">
        <ele>574.553</ele>
        <time>2020-08-22T10:17:45Z</time>
      </trkpt>
      <trkpt lat="46.141043" lon="8.950071">
        <ele>573.562</ele>
        <time>2020-08-22T10:17:46Z</time>
      </trkpt>
      <trkpt lat="46.141050" lon="8.949978">
        <ele>573.072</ele>
        <time>2020-08-22T10:17:47Z</time>
      </trkpt>
      <trkpt lat="46.141052" lon="8.949871">
        <ele>572.669</ele>
        <time>2020-08-22T10:17:48Z</time>
      </trkpt>
      <trkpt lat="46.141046" lon="8.949757">
        <ele>572.151</ele>
        <time>2020-08-22T10:17:49Z</time>
      </trkpt>
      <trkpt lat="46.140997" lon="8.949206">
        <ele>568.259</ele>
        <time>2020-08-22T10:17:53Z</time>
      </trkpt>
      <trkpt lat="46.140976" lon="8.948914">
        <ele>565.356</ele>
        <time>2020-08-22T10:17:55Z</time>
      </trkpt>
      <trkpt lat="46.140980" lon="8.948779">
        <ele>563.941</ele>
        <time>2020-08-22T10:17:56Z</time>
      </trkpt>
      <trkpt lat="46.140995" lon="8.948650">
        <ele>562.581</ele>
        <time>2020-08-22T10:17:57Z</time>
      </trkpt>
      <trkpt lat="46.141055" lon="8.948321">
        <ele>558.609</ele>
        <time>2020-08-22T10:18:00Z</time>
      </trkpt>
      <trkpt lat="46.141069" lon="8.948121">
        <ele>556.708</ele>
        <time>2020-08-22T10:18:02Z</time>
      </trkpt>
      <trkpt lat="46.141056" lon="8.948037">
        <ele>555.799</ele>
        <time>2020-08-22T10:18:03Z</time>
      </trkpt>
      <trkpt lat="46.141019" lon="8.947967">
        <ele>554.319</ele>
        <time>2020-08-22T10:18:04Z</time>
      </trkpt>
      <trkpt lat="46.140995" lon="8.947942">
        <ele>553.848</ele>
        <time>2020-08-22T10:18:05Z</time>
      </trkpt>
      <trkpt lat="46.140970" lon="8.947930">
        <ele>552.918</ele>
        <time>2020-08-22T10:18:06Z</time>
      </trkpt>
      <trkpt lat="46.140943" lon="8.947937">
        <ele>552.445</ele>
        <time>2020-08-22T10:18:07Z</time>
      </trkpt>
      <trkpt lat="46.140891" lon="8.947947">
        <ele>551.437</ele>
        <time>2020-08-22T10:18:08Z</time>
      </trkpt>
      <trkpt lat="46.140830" lon="8.947936">
        <ele>550.075</ele>
        <time>2020-08-22T10:18:09Z</time>
      </trkpt>
      <trkpt lat="46.140775" lon="8.947898">
        <ele>549.562</ele>
        <time>2020-08-22T10:18:10Z</time>
      </trkpt>
      <trkpt lat="46.140744" lon="8.947837">
        <ele>548.533</ele>
        <time>2020-08-22T10:18:11Z</time>
      </trkpt>
      <trkpt lat="46.140739" lon="8.947764">
        <ele>547.623</ele>
        <time>2020-08-22T10:18:12Z</time>
      </trkpt>
      <trkpt lat="46.140753" lon="8.947687">
        <ele>547.115</ele>
        <time>2020-08-22T10:18:13Z</time>
      </trkpt>
      <trkpt lat="46.140785" lon="8.947622">
        <ele>547.108</ele>
        <time>2020-08-22T10:18:14Z</time>
      </trkpt>
      <trkpt lat="46.140836" lon="8.947571">
        <ele>546.688</ele>
        <time>2020-08-22T10:18:15Z</time>
      </trkpt>
      <trkpt lat="46.140893" lon="8.947533">
        <ele>547.118</ele>
        <time>2020-08-22T10:18:16Z</time>
      </trkpt>
      <trkpt lat="46.140954" lon="8.947507">
        <ele>547.167</ele>
        <time>2020-08-22T10:18:17Z</time>
      </trkpt>
      <trkpt lat="46.141015" lon="8.947496">
        <ele>546.687</ele>
        <time>2020-08-22T10:18:18Z</time>
      </trkpt>
      <trkpt lat="46.141078" lon="8.947497">
        <ele>546.624</ele>
        <time>2020-08-22T10:18:19Z</time>
      </trkpt>
      <trkpt lat="46.141144" lon="8.947501">
        <ele>546.676</ele>
        <time>2020-08-22T10:18:20Z</time>
      </trkpt>
      <trkpt lat="46.141212" lon="8.947498">
        <ele>546.174</ele>
        <time>2020-08-22T10:18:21Z</time>
      </trkpt>
      <trkpt lat="46.141264" lon="8.947488">
        <ele>546.161</ele>
        <time>2020-08-22T10:18:22Z</time>
      </trkpt>
      <trkpt lat="46.141376" lon="8.947441">
        <ele>544.727</ele>
        <time>2020-08-22T10:18:24Z</time>
      </trkpt>
      <trkpt lat="46.141421" lon="8.947393">
        <ele>544.768</ele>
        <time>2020-08-22T10:18:25Z</time>
      </trkpt>
      <trkpt lat="46.141452" lon="8.947327">
        <ele>543.714</ele>
        <time>2020-08-22T10:18:26Z</time>
      </trkpt>
      <trkpt lat="46.141478" lon="8.947244">
        <ele>543.208</ele>
        <time>2020-08-22T10:18:27Z</time>
      </trkpt>
      <trkpt lat="46.141496" lon="8.947164">
        <ele>542.847</ele>
        <time>2020-08-22T10:18:28Z</time>
      </trkpt>
      <trkpt lat="46.141522" lon="8.947068">
        <ele>541.877</ele>
        <time>2020-08-22T10:18:29Z</time>
      </trkpt>
      <trkpt lat="46.141619" lon="8.946612">
        <ele>537.936</ele>
        <time>2020-08-22T10:18:33Z</time>
      </trkpt>
      <trkpt lat="46.141721" lon="8.946269">
        <ele>534.146</ele>
        <time>2020-08-22T10:18:36Z</time>
      </trkpt>
      <trkpt lat="46.141882" lon="8.945926">
        <ele>529.843</ele>
        <time>2020-08-22T10:18:40Z</time>
      </trkpt>
      <trkpt lat="46.141991" lon="8.945710">
        <ele>527.435</ele>
        <time>2020-08-22T10:18:43Z</time>
      </trkpt>
      <trkpt lat="46.142027" lon="8.945680">
        <ele>526.423</ele>
        <time>2020-08-22T10:18:44Z</time>
      </trkpt>
      <trkpt lat="46.142061" lon="8.945696">
        <ele>525.960</ele>
        <time>2020-08-22T10:18:45Z</time>
      </trkpt>
      <trkpt lat="46.142081" lon="8.945757">
        <ele>525.513</ele>
        <time>2020-08-22T10:18:46Z</time>
      </trkpt>
      <trkpt lat="46.142078" lon="8.945825">
        <ele>525.043</ele>
        <time>2020-08-22T10:18:47Z</time>
      </trkpt>
      <trkpt lat="46.142067" lon="8.945912">
        <ele>525.007</ele>
        <time>2020-08-22T10:18:48Z</time>
      </trkpt>
      <trkpt lat="46.142009" lon="8.946269">
        <ele>521.608</ele>
        <time>2020-08-22T10:18:52Z</time>
      </trkpt>
      <trkpt lat="46.141998" lon="8.946340">
        <ele>521.176</ele>
        <time>2020-08-22T10:18:53Z</time>
      </trkpt>
      <trkpt lat="46.141997" lon="8.946400">
        <ele>520.276</ele>
        <time>2020-08-22T10:18:54Z</time>
      </trkpt>
      <trkpt lat="46.142016" lon="8.946445">
        <ele>519.775</ele>
        <time>2020-08-22T10:18:55Z</time>
      </trkpt>
      <trkpt lat="46.142048" lon="8.946454">
        <ele>519.785</ele>
        <time>2020-08-22T10:18:56Z</time>
      </trkpt>
      <trkpt lat="46.142092" lon="8.946420">
        <ele>519.732</ele>
        <time>2020-08-22T10:18:57Z</time>
      </trkpt>
      <trkpt lat="46.142119" lon="8.946365">
        <ele>519.714</ele>
        <time>2020-08-22T10:18:58Z</time>
      </trkpt>
      <trkpt lat="46.142132" lon="8.946324">
        <ele>519.272</ele>
        <time>2020-08-22T10:18:59Z</time>
      </trkpt>
      <trkpt lat="46.142149" lon="8.946262">
        <ele>519.279</ele>
        <time>2020-08-22T10:19:00Z</time>
      </trkpt>
      <trkpt lat="46.142164" lon="8.946198">
        <ele>518.731</ele>
        <time>2020-08-22T10:19:01Z</time>
      </trkpt>
      <trkpt lat="46.142180" lon="8.946148">
        <ele>518.761</ele>
        <time>2020-08-22T10:19:02Z</time>
      </trkpt>
      <trkpt lat="46.142217" lon="8.946105">
        <ele>518.707</ele>
        <time>2020-08-22T10:19:03Z</time>
      </trkpt>
      <trkpt lat="46.142256" lon="8.946089">
        <ele>517.808</ele>
        <time>2020-08-22T10:19:04Z</time>
      </trkpt>
      <trkpt lat="46.142306" lon="8.946087">
        <ele>517.898</ele>
        <time>2020-08-22T10:19:05Z</time>
      </trkpt>
      <trkpt lat="46.142336" lon="8.946082">
        <ele>516.878</ele>
        <time>2020-08-22T10:19:06Z</time>
      </trkpt>
      <trkpt lat="46.142371" lon="8.946064">
        <ele>516.327</ele>
        <time>2020-08-22T10:19:07Z</time>
      </trkpt>
      <trkpt lat="46.142406" lon="8.946022">
        <ele>516.337</ele>
        <time>2020-08-22T10:19:08Z</time>
      </trkpt>
      <trkpt lat="46.142433" lon="8.945961">
        <ele>515.854</ele>
        <time>2020-08-22T10:19:09Z</time>
      </trkpt>
      <trkpt lat="46.142451" lon="8.945894">
        <ele>515.886</ele>
        <time>2020-08-22T10:19:10Z</time>
      </trkpt>
      <trkpt lat="46.142472" lon="8.945827">
        <ele>515.894</ele>
        <time>2020-08-22T10:19:11Z</time>
      </trkpt>
      <trkpt lat="46.142498" lon="8.945767">
        <ele>515.421</ele>
        <time>2020-08-22T10:19:12Z</time>
      </trkpt>
      <trkpt lat="46.142530" lon="8.945708">
        <ele>514.983</ele>
        <time>2020-08-22T10:19:13Z</time>
      </trkpt>
      <trkpt lat="46.142563" lon="8.945645">
        <ele>514.425</ele>
        <time>2020-08-22T10:19:14Z</time>
      </trkpt>
      <trkpt lat="46.142592" lon="8.945572">
        <ele>514.417</ele>
        <time>2020-08-22T10:19:15Z</time>
      </trkpt>
      <trkpt lat="46.142616" lon="8.945494">
        <ele>513.008</ele>
        <time>2020-08-22T10:19:16Z</time>
      </trkpt>
      <trkpt lat="46.142635" lon="8.945406">
        <ele>512.013</ele>
        <time>2020-08-22T10:19:17Z</time>
      </trkpt>
      <trkpt lat="46.142641" lon="8.945364">
        <ele>511.563</ele>
        <time>2020-08-22T10:19:18Z</time>
      </trkpt>
      <trkpt lat="46.142633" lon="8.944993">
        <ele>509.692</ele>
        <time>2020-08-22T10:19:21Z</time>
      </trkpt>
      <trkpt lat="46.142626" lon="8.943967">
        <ele>506.772</ele>
        <time>2020-08-22T10:19:29Z</time>
      </trkpt>
      <trkpt lat="46.142633" lon="8.943786">
        <ele>506.269</ele>
        <time>2020-08-22T10:19:31Z</time>
      </trkpt>
      <trkpt lat="46.142665" lon="8.943694">
        <ele>505.761</ele>
        <time>2020-08-22T10:19:32Z</time>
      </trkpt>
      <trkpt lat="46.142717" lon="8.943622">
        <ele>505.729</ele>
        <time>2020-08-22T10:19:33Z</time>
      </trkpt>
      <trkpt lat="46.142783" lon="8.943577">
        <ele>505.776</ele>
        <time>2020-08-22T10:19:34Z</time>
      </trkpt>
      <trkpt lat="46.142867" lon="8.943557">
        <ele>504.873</ele>
        <time>2020-08-22T10:19:35Z</time>
      </trkpt>
      <trkpt lat="46.142939" lon="8.943561">
        <ele>504.885</ele>
        <time>2020-08-22T10:19:36Z</time>
      </trkpt>
      <trkpt lat="46.143017" lon="8.943565">
        <ele>504.813</ele>
        <time>2020-08-22T10:19:37Z</time>
      </trkpt>
      <trkpt lat="46.143095" lon="8.943541">
        <ele>503.808</ele>
        <time>2020-08-22T10:19:38Z</time>
      </trkpt>
      <trkpt lat="46.143160" lon="8.943485">
        <ele>503.882</ele>
        <time>2020-08-22T10:19:39Z</time>
      </trkpt>
      <trkpt lat="46.143219" lon="8.943393">
        <ele>504.312</ele>
        <time>2020-08-22T10:19:40Z</time>
      </trkpt>
      <trkpt lat="46.143251" lon="8.943316">
        <ele>503.861</ele>
        <time>2020-08-22T10:19:41Z</time>
      </trkpt>
      <trkpt lat="46.143283" lon="8.943217">
        <ele>503.391</ele>
        <time>2020-08-22T10:19:42Z</time>
      </trkpt>
      <trkpt lat="46.143314" lon="8.943109">
        <ele>503.328</ele>
        <time>2020-08-22T10:19:43Z</time>
      </trkpt>
      <trkpt lat="46.143419" lon="8.942693">
        <ele>501.970</ele>
        <time>2020-08-22T10:19:47Z</time>
      </trkpt>
      <trkpt lat="46.143436" lon="8.942568">
        <ele>501.468</ele>
        <time>2020-08-22T10:19:48Z</time>
      </trkpt>
      <trkpt lat="46.143441" lon="8.942448">
        <ele>500.515</ele>
        <time>2020-08-22T10:19:49Z</time>
      </trkpt>
      <trkpt lat="46.143479" lon="8.941007">
        <ele>497.127</ele>
        <time>2020-08-22T10:20:01Z</time>
      </trkpt>
      <trkpt lat="46.143492" lon="8.940518">
        <ele>495.768</ele>
        <time>2020-08-22T10:20:05Z</time>
      </trkpt>
      <trkpt lat="46.143517" lon="8.940400">
        <ele>495.214</ele>
        <time>2020-08-22T10:20:06Z</time>
      </trkpt>
      <trkpt lat="46.143581" lon="8.940186">
        <ele>493.208</ele>
        <time>2020-08-22T10:20:08Z</time>
      </trkpt>
      <trkpt lat="46.143602" lon="8.940067">
        <ele>492.837</ele>
        <time>2020-08-22T10:20:09Z</time>
      </trkpt>
      <trkpt lat="46.143613" lon="8.939940">
        <ele>491.887</ele>
        <time>2020-08-22T10:20:10Z</time>
      </trkpt>
      <trkpt lat="46.143613" lon="8.939830">
        <ele>490.816</ele>
        <time>2020-08-22T10:20:11Z</time>
      </trkpt>
      <trkpt lat="46.143611" lon="8.939680">
        <ele>489.466</ele>
        <time>2020-08-22T10:20:12Z</time>
      </trkpt>
      <trkpt lat="46.143619" lon="8.939569">
        <ele>488.423</ele>
        <time>2020-08-22T10:20:13Z</time>
      </trkpt>
      <trkpt lat="46.143635" lon="8.939479">
        <ele>487.565</ele>
        <time>2020-08-22T10:20:14Z</time>
      </trkpt>
      <trkpt lat="46.143692" lon="8.939131">
        <ele>485.653</ele>
        <time>2020-08-22T10:20:17Z</time>
      </trkpt>
      <trkpt lat="46.143697" lon="8.938985">
        <ele>484.670</ele>
        <time>2020-08-22T10:20:18Z</time>
      </trkpt>
      <trkpt lat="46.143696" lon="8.938879">
        <ele>483.618</ele>
        <time>2020-08-22T10:20:19Z</time>
      </trkpt>
      <trkpt lat="46.143689" lon="8.938487">
        <ele>480.398</ele>
        <time>2020-08-22T10:20:22Z</time>
      </trkpt>
      <trkpt lat="46.143726" lon="8.937962">
        <ele>476.917</ele>
        <time>2020-08-22T10:20:26Z</time>
      </trkpt>
      <trkpt lat="46.143724" lon="8.937817">
        <ele>475.908</ele>
        <time>2020-08-22T10:20:27Z</time>
      </trkpt>
      <trkpt lat="46.143705" lon="8.937654">
        <ele>474.516</ele>
        <time>2020-08-22T10:20:28Z</time>
      </trkpt>
      <trkpt lat="46.143623" lon="8.937245">
        <ele>471.166</ele>
        <time>2020-08-22T10:20:31Z</time>
      </trkpt>
      <trkpt lat="46.143558" lon="8.936970">
        <ele>468.325</ele>
        <time>2020-08-22T10:20:34Z</time>
      </trkpt>
      <trkpt lat="46.143551" lon="8.936898">
        <ele>467.325</ele>
        <time>2020-08-22T10:20:35Z</time>
      </trkpt>
      <trkpt lat="46.143557" lon="8.936837">
        <ele>465.972</ele>
        <time>2020-08-22T10:20:36Z</time>
      </trkpt>
      <trkpt lat="46.143583" lon="8.936797">
        <ele>465.464</ele>
        <time>2020-08-22T10:20:37Z</time>
      </trkpt>
      <trkpt lat="46.143616" lon="8.936793">
        <ele>465.462</ele>
        <time>2020-08-22T10:20:38Z</time>
      </trkpt>
      <trkpt lat="46.143643" lon="8.936814">
        <ele>464.999</ele>
        <time>2020-08-22T10:20:39Z</time>
      </trkpt>
      <trkpt lat="46.143668" lon="8.936855">
        <ele>464.956</ele>
        <time>2020-08-22T10:20:40Z</time>
      </trkpt>
      <trkpt lat="46.143683" lon="8.936897">
        <ele>464.459</ele>
        <time>2020-08-22T10:20:41Z</time>
      </trkpt>
      <trkpt lat="46.143699" lon="8.936952">
        <ele>463.914</ele>
        <time>2020-08-22T10:20:42Z</time>
      </trkpt>
      <trkpt lat="46.143714" lon="8.937014">
        <ele>463.908</ele>
        <time>2020-08-22T10:20:43Z</time>
      </trkpt>
      <trkpt lat="46.143807" lon="8.937311">
        <ele>463.030</ele>
        <time>2020-08-22T10:20:47Z</time>
      </trkpt>
      <trkpt lat="46.144010" lon="8.937839">
        <ele>459.620</ele>
        <time>2020-08-22T10:20:53Z</time>
      </trkpt>
      <trkpt lat="46.144101" lon="8.938054">
        <ele>459.129</ele>
        <time>2020-08-22T10:20:55Z</time>
      </trkpt>
      <trkpt lat="46.144229" lon="8.938301">
        <ele>457.749</ele>
        <time>2020-08-22T10:20:57Z</time>
      </trkpt>
      <trkpt lat="46.144273" lon="8.938397">
        <ele>457.286</ele>
        <time>2020-08-22T10:20:58Z</time>
      </trkpt>
      <trkpt lat="46.144329" lon="8.938544">
        <ele>457.248</ele>
        <time>2020-08-22T10:20:59Z</time>
      </trkpt>
      <trkpt lat="46.144363" lon="8.938651">
        <ele>455.876</ele>
        <time>2020-08-22T10:21:00Z</time>
      </trkpt>
      <trkpt lat="46.144439" lon="8.938929">
        <ele>454.833</ele>
        <time>2020-08-22T10:21:02Z</time>
      </trkpt>
      <trkpt lat="46.144607" lon="8.939670">
        <ele>451.431</ele>
        <time>2020-08-22T10:21:07Z</time>
      </trkpt>
      <trkpt lat="46.144657" lon="8.939975">
        <ele>450.561</ele>
        <time>2020-08-22T10:21:09Z</time>
      </trkpt>
      <trkpt lat="46.144671" lon="8.940133">
        <ele>449.007</ele>
        <time>2020-08-22T10:21:10Z</time>
      </trkpt>
      <trkpt lat="46.144676" lon="8.940295">
        <ele>448.508</ele>
        <time>2020-08-22T10:21:11Z</time>
      </trkpt>
      <trkpt lat="46.144671" lon="8.940459">
        <ele>448.188</ele>
        <time>2020-08-22T10:21:12Z</time>
      </trkpt>
      <trkpt lat="46.144655" lon="8.940622">
        <ele>447.158</ele>
        <time>2020-08-22T10:21:13Z</time>
      </trkpt>
      <trkpt lat="46.144627" lon="8.940798">
        <ele>446.667</ele>
        <time>2020-08-22T10:21:14Z</time>
      </trkpt>
      <trkpt lat="46.144601" lon="8.940930">
        <ele>446.157</ele>
        <time>2020-08-22T10:21:15Z</time>
      </trkpt>
      <trkpt lat="46.144558" lon="8.941188">
        <ele>445.284</ele>
        <time>2020-08-22T10:21:17Z</time>
      </trkpt>
      <trkpt lat="46.144562" lon="8.941298">
        <ele>444.766</ele>
        <time>2020-08-22T10:21:18Z</time>
      </trkpt>
      <trkpt lat="46.144595" lon="8.941404">
        <ele>444.774</ele>
        <time>2020-08-22T10:21:19Z</time>
      </trkpt>
      <trkpt lat="46.144641" lon="8.941470">
        <ele>444.221</ele>
        <time>2020-08-22T10:21:20Z</time>
      </trkpt>
      <trkpt lat="46.144709" lon="8.941518">
        <ele>444.285</ele>
        <time>2020-08-22T10:21:21Z</time>
      </trkpt>
      <trkpt lat="46.144781" lon="8.941532">
        <ele>443.789</ele>
        <time>2020-08-22T10:21:22Z</time>
      </trkpt>
      <trkpt lat="46.144856" lon="8.941518">
        <ele>443.717</ele>
        <time>2020-08-22T10:21:23Z</time>
      </trkpt>
      <trkpt lat="46.144925" lon="8.941473">
        <ele>443.708</ele>
        <time>2020-08-22T10:21:24Z</time>
      </trkpt>
      <trkpt lat="46.144981" lon="8.941403">
        <ele>443.783</ele>
        <time>2020-08-22T10:21:25Z</time>
      </trkpt>
      <trkpt lat="46.145024" lon="8.941315">
        <ele>443.333</ele>
        <time>2020-08-22T10:21:26Z</time>
      </trkpt>
      <trkpt lat="46.145063" lon="8.941221">
        <ele>443.352</ele>
        <time>2020-08-22T10:21:27Z</time>
      </trkpt>
      <trkpt lat="46.145157" lon="8.940905">
        <ele>441.832</ele>
        <time>2020-08-22T10:21:30Z</time>
      </trkpt>
      <trkpt lat="46.145171" lon="8.940800">
        <ele>441.849</ele>
        <time>2020-08-22T10:21:31Z</time>
      </trkpt>
      <trkpt lat="46.145177" lon="8.940730">
        <ele>440.981</ele>
        <time>2020-08-22T10:21:32Z</time>
      </trkpt>
      <trkpt lat="46.145223" lon="8.940470">
        <ele>439.439</ele>
        <time>2020-08-22T10:21:37Z</time>
      </trkpt>
      <trkpt lat="46.145224" lon="8.940448">
        <ele>439.466</ele>
        <time>2020-08-22T10:21:38Z</time>
      </trkpt>
      <trkpt lat="46.145217" lon="8.940438">
        <ele>438.992</ele>
        <time>2020-08-22T10:21:51Z</time>
      </trkpt>
      <trkpt lat="46.145212" lon="8.940427">
        <ele>438.073</ele>
        <time>2020-08-22T10:22:19Z</time>
      </trkpt>
      <trkpt lat="46.145210" lon="8.940409">
        <ele>438.020</ele>
        <time>2020-08-22T10:22:28Z</time>
      </trkpt>
      <trkpt lat="46.145201" lon="8.940393">
        <ele>438.008</ele>
        <time>2020-08-22T10:22:29Z</time>
      </trkpt>
      <trkpt lat="46.145193" lon="8.940371">
        <ele>438.074</ele>
        <time>2020-08-22T10:22:30Z</time>
      </trkpt>
      <trkpt lat="46.145185" lon="8.940337">
        <ele>437.534</ele>
        <time>2020-08-22T10:22:31Z</time>
      </trkpt>
      <trkpt lat="46.145181" lon="8.940303">
        <ele>437.093</ele>
        <time>2020-08-22T10:22:32Z</time>
      </trkpt>
      <trkpt lat="46.145175" lon="8.940251">
        <ele>437.093</ele>
        <time>2020-08-22T10:22:33Z</time>
      </trkpt>
      <trkpt lat="46.145146" lon="8.939953">
        <ele>436.140</ele>
        <time>2020-08-22T10:22:38Z</time>
      </trkpt>
      <trkpt lat="46.145144" lon="8.939876">
        <ele>436.132</ele>
        <time>2020-08-22T10:22:39Z</time>
      </trkpt>
      <trkpt lat="46.145094" lon="8.938705">
        <ele>432.280</ele>
        <time>2020-08-22T10:22:51Z</time>
      </trkpt>
      <trkpt lat="46.144996" lon="8.937607">
        <ele>429.367</ele>
        <time>2020-08-22T10:23:00Z</time>
      </trkpt>
      <trkpt lat="46.144936" lon="8.936962">
        <ele>426.919</ele>
        <time>2020-08-22T10:23:05Z</time>
      </trkpt>
      <trkpt lat="46.144874" lon="8.936293">
        <ele>424.009</ele>
        <time>2020-08-22T10:23:10Z</time>
      </trkpt>
      <trkpt lat="46.144848" lon="8.935460">
        <ele>420.719</ele>
        <time>2020-08-22T10:23:16Z</time>
      </trkpt>
      <trkpt lat="46.144939" lon="8.934599">
        <ele>417.808</ele>
        <time>2020-08-22T10:23:22Z</time>
      </trkpt>
      <trkpt lat="46.144980" lon="8.934298">
        <ele>416.846</ele>
        <time>2020-08-22T10:23:24Z</time>
      </trkpt>
      <trkpt lat="46.145015" lon="8.934003">
        <ele>415.956</ele>
        <time>2020-08-22T10:23:26Z</time>
      </trkpt>
      <trkpt lat="46.145027" lon="8.933734">
        <ele>413.995</ele>
        <time>2020-08-22T10:23:28Z</time>
      </trkpt>
      <trkpt lat="46.145018" lon="8.933604">
        <ele>413.525</ele>
        <time>2020-08-22T10:23:29Z</time>
      </trkpt>
      <trkpt lat="46.145000" lon="8.933464">
        <ele>412.552</ele>
        <time>2020-08-22T10:23:30Z</time>
      </trkpt>
      <trkpt lat="46.144975" lon="8.933343">
        <ele>412.034</ele>
        <time>2020-08-22T10:23:31Z</time>
      </trkpt>
      <trkpt lat="46.144948" lon="8.933235">
        <ele>410.682</ele>
        <time>2020-08-22T10:23:32Z</time>
      </trkpt>
      <trkpt lat="46.144924" lon="8.933143">
        <ele>410.129</ele>
        <time>2020-08-22T10:23:33Z</time>
      </trkpt>
      <trkpt lat="46.144910" lon="8.933052">
        <ele>409.178</ele>
        <time>2020-08-22T10:23:34Z</time>
      </trkpt>
      <trkpt lat="46.144919" lon="8.932964">
        <ele>408.233</ele>
        <time>2020-08-22T10:23:35Z</time>
      </trkpt>
      <trkpt lat="46.144955" lon="8.932892">
        <ele>407.726</ele>
        <time>2020-08-22T10:23:36Z</time>
      </trkpt>
      <trkpt lat="46.145018" lon="8.932856">
        <ele>407.208</ele>
        <time>2020-08-22T10:23:37Z</time>
      </trkpt>
      <trkpt lat="46.145088" lon="8.932877">
        <ele>406.282</ele>
        <time>2020-08-22T10:23:38Z</time>
      </trkpt>
      <trkpt lat="46.145146" lon="8.932947">
        <ele>405.842</ele>
        <time>2020-08-22T10:23:39Z</time>
      </trkpt>
      <trkpt lat="46.145185" lon="8.933043">
        <ele>405.351</ele>
        <time>2020-08-22T10:23:40Z</time>
      </trkpt>
      <trkpt lat="46.145218" lon="8.933160">
        <ele>404.871</ele>
        <time>2020-08-22T10:23:41Z</time>
      </trkpt>
      <trkpt lat="46.145254" lon="8.933298">
        <ele>403.838</ele>
        <time>2020-08-22T10:23:42Z</time>
      </trkpt>
      <trkpt lat="46.145346" lon="8.933945">
        <ele>401.490</ele>
        <time>2020-08-22T10:23:47Z</time>
      </trkpt>
      <trkpt lat="46.145355" lon="8.934566">
        <ele>398.148</ele>
        <time>2020-08-22T10:23:51Z</time>
      </trkpt>
      <trkpt lat="46.145385" lon="8.934885">
        <ele>396.285</ele>
        <time>2020-08-22T10:23:53Z</time>
      </trkpt>
      <trkpt lat="46.145414" lon="8.935047">
        <ele>395.259</ele>
        <time>2020-08-22T10:23:54Z</time>
      </trkpt>
      <trkpt lat="46.145536" lon="8.935530">
        <ele>392.303</ele>
        <time>2020-08-22T10:23:57Z</time>
      </trkpt>
      <trkpt lat="46.145664" lon="8.936052">
        <ele>389.423</ele>
        <time>2020-08-22T10:24:00Z</time>
      </trkpt>
      <trkpt lat="46.145724" lon="8.936628">
        <ele>386.108</ele>
        <time>2020-08-22T10:24:03Z</time>
      </trkpt>
      <trkpt lat="46.145770" lon="8.937411">
        <ele>382.720</ele>
        <time>2020-08-22T10:24:07Z</time>
      </trkpt>
      <trkpt lat="46.145927" lon="8.938168">
        <ele>378.490</ele>
        <time>2020-08-22T10:24:11Z</time>
      </trkpt>
      <trkpt lat="46.146050" lon="8.938944">
        <ele>374.599</ele>
        <time>2020-08-22T10:24:15Z</time>
      </trkpt>
      <trkpt lat="46.146116" lon="8.939720">
        <ele>371.689</ele>
        <time>2020-08-22T10:24:19Z</time>
      </trkpt>
      <trkpt lat="46.146141" lon="8.939909">
        <ele>371.286</ele>
        <time>2020-08-22T10:24:20Z</time>
      </trkpt>
      <trkpt lat="46.146214" lon="8.940475">
        <ele>368.358</ele>
        <time>2020-08-22T10:24:23Z</time>
      </trkpt>
      <trkpt lat="46.146322" lon="8.941283">
        <ele>364.486</ele>
        <time>2020-08-22T10:24:27Z</time>
      </trkpt>
      <trkpt lat="46.146417" lon="8.941965">
        <ele>361.543</ele>
        <time>2020-08-22T10:24:31Z</time>
      </trkpt>
      <trkpt lat="46.146605" lon="8.942672">
        <ele>357.758</ele>
        <time>2020-08-22T10:24:35Z</time>
      </trkpt>
      <trkpt lat="46.146809" lon="8.943384">
        <ele>353.952</ele>
        <time>2020-08-22T10:24:39Z</time>
      </trkpt>
      <trkpt lat="46.147017" lon="8.944101">
        <ele>350.517</ele>
        <time>2020-08-22T10:24:43Z</time>
      </trkpt>
      <trkpt lat="46.147151" lon="8.944622">
        <ele>346.608</ele>
        <time>2020-08-22T10:24:46Z</time>
      </trkpt>
      <trkpt lat="46.147181" lon="8.944803">
        <ele>345.780</ele>
        <time>2020-08-22T10:24:47Z</time>
      </trkpt>
      <trkpt lat="46.147235" lon="8.945562">
        <ele>341.820</ele>
        <time>2020-08-22T10:24:51Z</time>
      </trkpt>
      <trkpt lat="46.147250" lon="8.946140">
        <ele>338.079</ele>
        <time>2020-08-22T10:24:54Z</time>
      </trkpt>
      <trkpt lat="46.147299" lon="8.946706">
        <ele>334.669</ele>
        <time>2020-08-22T10:24:57Z</time>
      </trkpt>
      <trkpt lat="46.147379" lon="8.947269">
        <ele>330.856</ele>
        <time>2020-08-22T10:25:00Z</time>
      </trkpt>
      <trkpt lat="46.147443" lon="8.947819">
        <ele>326.558</ele>
        <time>2020-08-22T10:25:03Z</time>
      </trkpt>
      <trkpt lat="46.147440" lon="8.948204">
        <ele>324.186</ele>
        <time>2020-08-22T10:25:05Z</time>
      </trkpt>
      <trkpt lat="46.147421" lon="8.948408">
        <ele>323.173</ele>
        <time>2020-08-22T10:25:06Z</time>
      </trkpt>
      <trkpt lat="46.147389" lon="8.948599">
        <ele>321.735</ele>
        <time>2020-08-22T10:25:07Z</time>
      </trkpt>
      <trkpt lat="46.147348" lon="8.948788">
        <ele>320.286</ele>
        <time>2020-08-22T10:25:08Z</time>
      </trkpt>
      <trkpt lat="46.147300" lon="8.948971">
        <ele>319.314</ele>
        <time>2020-08-22T10:25:09Z</time>
      </trkpt>
      <trkpt lat="46.147146" lon="8.949533">
        <ele>315.408</ele>
        <time>2020-08-22T10:25:12Z</time>
      </trkpt>
      <trkpt lat="46.147043" lon="8.949899">
        <ele>312.538</ele>
        <time>2020-08-22T10:25:14Z</time>
      </trkpt>
      <trkpt lat="46.146964" lon="8.950214">
        <ele>309.238</ele>
        <time>2020-08-22T10:25:17Z</time>
      </trkpt>
      <trkpt lat="46.146968" lon="8.950307">
        <ele>308.217</ele>
        <time>2020-08-22T10:25:18Z</time>
      </trkpt>
      <trkpt lat="46.147002" lon="8.950389">
        <ele>307.717</ele>
        <time>2020-08-22T10:25:19Z</time>
      </trkpt>
      <trkpt lat="46.147056" lon="8.950438">
        <ele>307.254</ele>
        <time>2020-08-22T10:25:20Z</time>
      </trkpt>
      <trkpt lat="46.147123" lon="8.950441">
        <ele>307.246</ele>
        <time>2020-08-22T10:25:21Z</time>
      </trkpt>
      <trkpt lat="46.147188" lon="8.950396">
        <ele>307.254</ele>
        <time>2020-08-22T10:25:22Z</time>
      </trkpt>
      <trkpt lat="46.147235" lon="8.950316">
        <ele>306.871</ele>
        <time>2020-08-22T10:25:23Z</time>
      </trkpt>
      <trkpt lat="46.147269" lon="8.950221">
        <ele>306.891</ele>
        <time>2020-08-22T10:25:24Z</time>
      </trkpt>
      <trkpt lat="46.147303" lon="8.950113">
        <ele>305.881</ele>
        <time>2020-08-22T10:25:25Z</time>
      </trkpt>
      <trkpt lat="46.147511" lon="8.949394">
        <ele>301.919</ele>
        <time>2020-08-22T10:25:31Z</time>
      </trkpt>
      <trkpt lat="46.147622" lon="8.948872">
        <ele>298.608</ele>
        <time>2020-08-22T10:25:35Z</time>
      </trkpt>
      <trkpt lat="46.147664" lon="8.948670">
        <ele>296.274</ele>
        <time>2020-08-22T10:25:37Z</time>
      </trkpt>
      <trkpt lat="46.147700" lon="8.948613">
        <ele>295.714</ele>
        <time>2020-08-22T10:25:38Z</time>
      </trkpt>
      <trkpt lat="46.147762" lon="8.948608">
        <ele>295.213</ele>
        <time>2020-08-22T10:25:39Z</time>
      </trkpt>
      <trkpt lat="46.147800" lon="8.948663">
        <ele>294.733</ele>
        <time>2020-08-22T10:25:40Z</time>
      </trkpt>
      <trkpt lat="46.147812" lon="8.948754">
        <ele>294.320</ele>
        <time>2020-08-22T10:25:41Z</time>
      </trkpt>
      <trkpt lat="46.147790" lon="8.948846">
        <ele>293.892</ele>
        <time>2020-08-22T10:25:42Z</time>
      </trkpt>
      <trkpt lat="46.147750" lon="8.948936">
        <ele>293.820</ele>
        <time>2020-08-22T10:25:43Z</time>
      </trkpt>
      <trkpt lat="46.147721" lon="8.949011">
        <ele>293.867</ele>
        <time>2020-08-22T10:25:44Z</time>
      </trkpt>
      <trkpt lat="46.147694" lon="8.949104">
        <ele>292.819</ele>
        <time>2020-08-22T10:25:45Z</time>
      </trkpt>
      <trkpt lat="46.147670" lon="8.949202">
        <ele>292.809</ele>
        <time>2020-08-22T10:25:46Z</time>
      </trkpt>
      <trkpt lat="46.147648" lon="8.949312">
        <ele>292.319</ele>
        <time>2020-08-22T10:25:47Z</time>
      </trkpt>
      <trkpt lat="46.147633" lon="8.949426">
        <ele>291.908</ele>
        <time>2020-08-22T10:25:48Z</time>
      </trkpt>
      <trkpt lat="46.147624" lon="8.949557">
        <ele>291.446</ele>
        <time>2020-08-22T10:25:49Z</time>
      </trkpt>
      <trkpt lat="46.147623" lon="8.949685">
        <ele>290.486</ele>
        <time>2020-08-22T10:25:50Z</time>
      </trkpt>
      <trkpt lat="46.147625" lon="8.949826">
        <ele>289.965</ele>
        <time>2020-08-22T10:25:51Z</time>
      </trkpt>
      <trkpt lat="46.147657" lon="8.950442">
        <ele>286.165</ele>
        <time>2020-08-22T10:25:56Z</time>
      </trkpt>
      <trkpt lat="46.147694" lon="8.950706">
        <ele>284.222</ele>
        <time>2020-08-22T10:25:59Z</time>
      </trkpt>
      <trkpt lat="46.147718" lon="8.950769">
        <ele>283.294</ele>
        <time>2020-08-22T10:26:00Z</time>
      </trkpt>
      <trkpt lat="46.147735" lon="8.950788">
        <ele>282.772</ele>
        <time>2020-08-22T10:26:01Z</time>
      </trkpt>
      <trkpt lat="46.147851" lon="8.950913">
        <ele>282.729</ele>
        <time>2020-08-22T10:26:05Z</time>
      </trkpt>
      <trkpt lat="46.147898" lon="8.950939">
        <ele>281.871</ele>
        <time>2020-08-22T10:26:06Z</time>
      </trkpt>
      <trkpt lat="46.148036" lon="8.950985">
        <ele>281.341</ele>
        <time>2020-08-22T10:26:08Z</time>
      </trkpt>
      <trkpt lat="46.148101" lon="8.950991">
        <ele>281.315</ele>
        <time>2020-08-22T10:26:09Z</time>
      </trkpt>
      <trkpt lat="46.148174" lon="8.950991">
        <ele>280.308</ele>
        <time>2020-08-22T10:26:10Z</time>
      </trkpt>
      <trkpt lat="46.148241" lon="8.950980">
        <ele>279.472</ele>
        <time>2020-08-22T10:26:11Z</time>
      </trkpt>
      <trkpt lat="46.148319" lon="8.950952">
        <ele>279.482</ele>
        <time>2020-08-22T10:26:12Z</time>
      </trkpt>
      <trkpt lat="46.148413" lon="8.950893">
        <ele>278.451</ele>
        <time>2020-08-22T10:26:13Z</time>
      </trkpt>
      <trkpt lat="46.148457" lon="8.950845">
        <ele>278.441</ele>
        <time>2020-08-22T10:26:14Z</time>
      </trkpt>
      <trkpt lat="46.148520" lon="8.950760">
        <ele>277.468</ele>
        <time>2020-08-22T10:26:15Z</time>
      </trkpt>
      <trkpt lat="46.148563" lon="8.950681">
        <ele>277.030</ele>
        <time>2020-08-22T10:26:16Z</time>
      </trkpt>
      <trkpt lat="46.148613" lon="8.950561">
        <ele>275.578</ele>
        <time>2020-08-22T10:26:17Z</time>
      </trkpt>
      <trkpt lat="46.148646" lon="8.950463">
        <ele>275.525</ele>
        <time>2020-08-22T10:26:18Z</time>
      </trkpt>
      <trkpt lat="46.148681" lon="8.950353">
        <ele>274.583</ele>
        <time>2020-08-22T10:26:19Z</time>
      </trkpt>
      <trkpt lat="46.148843" lon="8.949919">
        <ele>270.725</ele>
        <time>2020-08-22T10:26:23Z</time>
      </trkpt>
      <trkpt lat="46.148945" lon="8.949734">
        <ele>269.717</ele>
        <time>2020-08-22T10:26:25Z</time>
      </trkpt>
      <trkpt lat="46.149000" lon="8.949655">
        <ele>269.308</ele>
        <time>2020-08-22T10:26:26Z</time>
      </trkpt>
      <trkpt lat="46.149077" lon="8.949562">
        <ele>269.343</ele>
        <time>2020-08-22T10:26:27Z</time>
      </trkpt>
      <trkpt lat="46.149145" lon="8.949490">
        <ele>268.363</ele>
        <time>2020-08-22T10:26:28Z</time>
      </trkpt>
      <trkpt lat="46.149229" lon="8.949417">
        <ele>267.362</ele>
        <time>2020-08-22T10:26:29Z</time>
      </trkpt>
      <trkpt lat="46.149320" lon="8.949345">
        <ele>266.982</ele>
        <time>2020-08-22T10:26:30Z</time>
      </trkpt>
      <trkpt lat="46.149409" lon="8.949279">
        <ele>266.479</ele>
        <time>2020-08-22T10:26:31Z</time>
      </trkpt>
      <trkpt lat="46.149755" lon="8.949025">
        <ele>263.061</ele>
        <time>2020-08-22T10:26:35Z</time>
      </trkpt>
      <trkpt lat="46.150112" lon="8.948762">
        <ele>260.169</ele>
        <time>2020-08-22T10:26:39Z</time>
      </trkpt>
      <trkpt lat="46.150562" lon="8.948422">
        <ele>256.346</ele>
        <time>2020-08-22T10:26:44Z</time>
      </trkpt>
      <trkpt lat="46.150819" lon="8.948227">
        <ele>254.848</ele>
        <time>2020-08-22T10:26:47Z</time>
      </trkpt>
      <trkpt lat="46.151269" lon="8.947810">
        <ele>252.461</ele>
        <time>2020-08-22T10:26:53Z</time>
      </trkpt>
      <trkpt lat="46.151433" lon="8.947589">
        <ele>251.017</ele>
        <time>2020-08-22T10:26:56Z</time>
      </trkpt>
      <trkpt lat="46.151633" lon="8.947235">
        <ele>248.108</ele>
        <time>2020-08-22T10:27:04Z</time>
      </trkpt>
      <trkpt lat="46.151726" lon="8.947071">
        <ele>247.689</ele>
        <time>2020-08-22T10:27:15Z</time>
      </trkpt>
      <trkpt lat="46.151846" lon="8.946870">
        <ele>247.249</ele>
        <time>2020-08-22T10:27:28Z</time>
      </trkpt>
      <trkpt lat="46.151884" lon="8.946839">
        <ele>247.288</ele>
        <time>2020-08-22T10:27:30Z</time>
      </trkpt>
      <trkpt lat="46.151907" lon="8.946835">
        <ele>247.268</ele>
        <time>2020-08-22T10:27:32Z</time>
      </trkpt>
      <trkpt lat="46.151933" lon="8.946850">
        <ele>247.265</ele>
        <time>2020-08-22T10:27:33Z</time>
      </trkpt>
      <trkpt lat="46.151936" lon="8.946858">
        <ele>247.237</ele>
        <time>2020-08-22T10:27:34Z</time>
      </trkpt>
      <trkpt lat="46.151967" lon="8.946938">
        <ele>246.755</ele>
        <time>2020-08-22T10:27:46Z</time>
      </trkpt>
      <trkpt lat="46.151980" lon="8.947417">
        <ele>247.632</ele>
        <time>2020-08-22T10:27:58Z</time>
      </trkpt>
      <trkpt lat="46.151952" lon="8.948114">
        <ele>249.189</ele>
        <time>2020-08-22T10:28:13Z</time>
      </trkpt>
      <trkpt lat="46.151963" lon="8.948669">
        <ele>249.106</ele>
        <time>2020-08-22T10:28:24Z</time>
      </trkpt>
      <trkpt lat="46.151982" lon="8.948911">
        <ele>249.626</ele>
        <time>2020-08-22T10:28:30Z</time>
      </trkpt>
      <trkpt lat="46.152009" lon="8.948956">
        <ele>250.008</ele>
        <time>2020-08-22T10:28:31Z</time>
      </trkpt>
      <trkpt lat="46.152033" lon="8.948972">
        <ele>250.093</ele>
        <time>2020-08-22T10:28:32Z</time>
      </trkpt>
      <trkpt lat="46.152064" lon="8.948986">
        <ele>250.013</ele>
        <time>2020-08-22T10:28:33Z</time>
      </trkpt>
      <trkpt lat="46.152109" lon="8.948993">
        <ele>250.532</ele>
        <time>2020-08-22T10:28:34Z</time>
      </trkpt>
      <trkpt lat="46.152143" lon="8.948988">
        <ele>250.532</ele>
        <time>2020-08-22T10:28:35Z</time>
      </trkpt>
      <trkpt lat="46.152179" lon="8.948975">
        <ele>250.519</ele>
        <time>2020-08-22T10:28:36Z</time>
      </trkpt>
      <trkpt lat="46.152208" lon="8.948961">
        <ele>250.561</ele>
        <time>2020-08-22T10:28:37Z</time>
      </trkpt>
      <trkpt lat="46.152580" lon="8.948829">
        <ele>252.979</ele>
        <time>2020-08-22T10:28:52Z</time>
      </trkpt>
      <trkpt lat="46.152721" lon="8.948778">
        <ele>251.546</ele>
        <time>2020-08-22T10:28:57Z</time>
      </trkpt>
      <trkpt lat="46.152906" lon="8.948723">
        <ele>251.057</ele>
        <time>2020-08-22T10:29:08Z</time>
      </trkpt>
      <trkpt lat="46.152902" lon="8.948725">
        <ele>250.000</ele>
        <time>2020-08-22T10:29:10Z</time>
      </trkpt>
      <trkpt lat="46.152899" lon="8.948698">
        <ele>251.520</ele>
        <time>2020-08-22T10:29:40Z</time>
      </trkpt>
      <trkpt lat="46.153104" lon="8.948651">
        <ele>249.608</ele>
        <time>2020-08-22T10:29:51Z</time>
      </trkpt>
      <trkpt lat="46.153361" lon="8.948548">
        <ele>248.120</ele>
        <time>2020-08-22T10:29:57Z</time>
      </trkpt>
      <trkpt lat="46.153759" lon="8.948354">
        <ele>244.780</ele>
        <time>2020-08-22T10:30:06Z</time>
      </trkpt>
      <trkpt lat="46.154796" lon="8.947885">
        <ele>243.389</ele>
        <time>2020-08-22T10:30:26Z</time>
      </trkpt>
      <trkpt lat="46.155683" lon="8.947574">
        <ele>242.379</ele>
        <time>2020-08-22T10:30:44Z</time>
      </trkpt>
      <trkpt lat="46.156650" lon="8.947219">
        <ele>241.956</ele>
        <time>2020-08-22T10:31:05Z</time>
      </trkpt>
      <trkpt lat="46.157729" lon="8.946814">
        <ele>241.428</ele>
        <time>2020-08-22T10:31:28Z</time>
      </trkpt>
      <trkpt lat="46.158764" lon="8.946440">
        <ele>240.916</ele>
        <time>2020-08-22T10:31:50Z</time>
      </trkpt>
      <trkpt lat="46.159543" lon="8.946152">
        <ele>240.473</ele>
        <time>2020-08-22T10:32:07Z</time>
      </trkpt>
      <trkpt lat="46.160271" lon="8.945889">
        <ele>241.434</ele>
        <time>2020-08-22T10:32:23Z</time>
      </trkpt>
      <trkpt lat="46.161060" lon="8.945601">
        <ele>241.455</ele>
        <time>2020-08-22T10:32:41Z</time>
      </trkpt>
      <trkpt lat="46.161180" lon="8.945537">
        <ele>239.910</ele>
        <time>2020-08-22T10:32:45Z</time>
      </trkpt>
      <trkpt lat="46.161188" lon="8.945502">
        <ele>238.508</ele>
        <time>2020-08-22T10:32:46Z</time>
      </trkpt>
      <trkpt lat="46.161186" lon="8.945469">
        <ele>241.468</ele>
        <time>2020-08-22T10:32:47Z</time>
      </trkpt>
      <trkpt lat="46.161177" lon="8.945441">
        <ele>241.418</ele>
        <time>2020-08-22T10:32:48Z</time>
      </trkpt>
      <trkpt lat="46.161162" lon="8.945414">
        <ele>241.487</ele>
        <time>2020-08-22T10:32:49Z</time>
      </trkpt>
      <trkpt lat="46.161143" lon="8.945389">
        <ele>241.427</ele>
        <time>2020-08-22T10:32:50Z</time>
      </trkpt>
      <trkpt lat="46.161128" lon="8.945358">
        <ele>241.414</ele>
        <time>2020-08-22T10:32:51Z</time>
      </trkpt>
      <trkpt lat="46.161115" lon="8.945317">
        <ele>239.956</ele>
        <time>2020-08-22T10:32:52Z</time>
      </trkpt>
      <trkpt lat="46.161106" lon="8.945274">
        <ele>239.954</ele>
        <time>2020-08-22T10:32:53Z</time>
      </trkpt>
      <trkpt lat="46.160946" lon="8.944411">
        <ele>239.991</ele>
        <time>2020-08-22T10:33:09Z</time>
      </trkpt>
      <trkpt lat="46.160928" lon="8.944301">
        <ele>239.512</ele>
        <time>2020-08-22T10:33:11Z</time>
      </trkpt>
      <trkpt lat="46.160730" lon="8.943172">
        <ele>239.532</ele>
        <time>2020-08-22T10:33:28Z</time>
      </trkpt>
      <trkpt lat="46.160713" lon="8.943104">
        <ele>239.505</ele>
        <time>2020-08-22T10:33:29Z</time>
      </trkpt>
      <trkpt lat="46.160531" lon="8.942022">
        <ele>239.008</ele>
        <time>2020-08-22T10:33:45Z</time>
      </trkpt>
      <trkpt lat="46.160313" lon="8.940767">
        <ele>238.596</ele>
        <time>2020-08-22T10:34:03Z</time>
      </trkpt>
      <trkpt lat="46.160094" lon="8.939514">
        <ele>237.576</ele>
        <time>2020-08-22T10:34:21Z</time>
      </trkpt>
      <trkpt lat="46.159878" lon="8.938246">
        <ele>237.115</ele>
        <time>2020-08-22T10:34:39Z</time>
      </trkpt>
      <trkpt lat="46.159674" lon="8.937063">
        <ele>236.695</ele>
        <time>2020-08-22T10:34:56Z</time>
      </trkpt>
      <trkpt lat="46.159416" lon="8.935571">
        <ele>236.132</ele>
        <time>2020-08-22T10:35:17Z</time>
      </trkpt>
      <trkpt lat="46.159380" lon="8.935368">
        <ele>236.114</ele>
        <time>2020-08-22T10:35:20Z</time>
      </trkpt>
      <trkpt lat="46.159371" lon="8.935301">
        <ele>236.142</ele>
        <time>2020-08-22T10:35:21Z</time>
      </trkpt>
      <trkpt lat="46.159158" lon="8.934044">
        <ele>235.669</ele>
        <time>2020-08-22T10:35:40Z</time>
      </trkpt>
      <trkpt lat="46.159043" lon="8.933310">
        <ele>235.691</ele>
        <time>2020-08-22T10:35:51Z</time>
      </trkpt>
      <trkpt lat="46.159050" lon="8.933236">
        <ele>235.681</ele>
        <time>2020-08-22T10:35:52Z</time>
      </trkpt>
      <trkpt lat="46.159063" lon="8.933170">
        <ele>235.619</ele>
        <time>2020-08-22T10:35:53Z</time>
      </trkpt>
      <trkpt lat="46.159079" lon="8.933115">
        <ele>235.608</ele>
        <time>2020-08-22T10:35:54Z</time>
      </trkpt>
      <trkpt lat="46.159100" lon="8.933053">
        <ele>235.664</ele>
        <time>2020-08-22T10:35:55Z</time>
      </trkpt>
      <trkpt lat="46.159125" lon="8.932991">
        <ele>235.674</ele>
        <time>2020-08-22T10:35:56Z</time>
      </trkpt>
      <trkpt lat="46.159697" lon="8.931643">
        <ele>234.773</ele>
        <time>2020-08-22T10:36:19Z</time>
      </trkpt>
      <trkpt lat="46.160049" lon="8.930810">
        <ele>233.783</ele>
        <time>2020-08-22T10:36:33Z</time>
      </trkpt>
      <trkpt lat="46.160086" lon="8.930769">
        <ele>233.750</ele>
        <time>2020-08-22T10:36:34Z</time>
      </trkpt>
      <trkpt lat="46.160124" lon="8.930745">
        <ele>233.772</ele>
        <time>2020-08-22T10:36:35Z</time>
      </trkpt>
      <trkpt lat="46.160238" lon="8.930722">
        <ele>233.750</ele>
        <time>2020-08-22T10:36:38Z</time>
      </trkpt>
      <trkpt lat="46.160273" lon="8.930742">
        <ele>233.777</ele>
        <time>2020-08-22T10:36:39Z</time>
      </trkpt>
      <trkpt lat="46.160308" lon="8.930770">
        <ele>233.749</ele>
        <time>2020-08-22T10:36:40Z</time>
      </trkpt>
      <trkpt lat="46.160345" lon="8.930800">
        <ele>233.702</ele>
        <time>2020-08-22T10:36:41Z</time>
      </trkpt>
      <trkpt lat="46.160383" lon="8.930826">
        <ele>233.722</ele>
        <time>2020-08-22T10:36:42Z</time>
      </trkpt>
      <trkpt lat="46.160657" lon="8.931033">
        <ele>233.708</ele>
        <time>2020-08-22T10:36:49Z</time>
      </trkpt>
      <trkpt lat="46.161363" lon="8.931884">
        <ele>233.759</ele>
        <time>2020-08-22T10:37:08Z</time>
      </trkpt>
      <trkpt lat="46.161807" lon="8.932424">
        <ele>233.219</ele>
        <time>2020-08-22T10:37:20Z</time>
      </trkpt>
      <trkpt lat="46.161842" lon="8.932445">
        <ele>233.248</ele>
        <time>2020-08-22T10:37:21Z</time>
      </trkpt>
      <trkpt lat="46.161911" lon="8.932464">
        <ele>233.248</ele>
        <time>2020-08-22T10:37:22Z</time>
      </trkpt>
      <trkpt lat="46.161946" lon="8.932457">
        <ele>233.255</ele>
        <time>2020-08-22T10:37:23Z</time>
      </trkpt>
      <trkpt lat="46.161992" lon="8.932446">
        <ele>233.227</ele>
        <time>2020-08-22T10:37:24Z</time>
      </trkpt>
      <trkpt lat="46.162023" lon="8.932432">
        <ele>233.285</ele>
        <time>2020-08-22T10:37:25Z</time>
      </trkpt>
      <trkpt lat="46.162062" lon="8.932407">
        <ele>233.262</ele>
        <time>2020-08-22T10:37:26Z</time>
      </trkpt>
      <trkpt lat="46.162100" lon="8.932386">
        <ele>233.233</ele>
        <time>2020-08-22T10:37:27Z</time>
      </trkpt>
      <trkpt lat="46.162137" lon="8.932366">
        <ele>233.223</ele>
        <time>2020-08-22T10:37:28Z</time>
      </trkpt>
      <trkpt lat="46.162174" lon="8.932345">
        <ele>233.215</ele>
        <time>2020-08-22T10:37:29Z</time>
      </trkpt>
      <trkpt lat="46.162372" lon="8.932278">
        <ele>233.208</ele>
        <time>2020-08-22T10:37:34Z</time>
      </trkpt>
      <trkpt lat="46.162412" lon="8.932268">
        <ele>233.228</ele>
        <time>2020-08-22T10:37:35Z</time>
      </trkpt>
      <trkpt lat="46.162907" lon="8.932085">
        <ele>234.228</ele>
        <time>2020-08-22T10:37:50Z</time>
      </trkpt>
      <trkpt lat="46.163464" lon="8.931872">
        <ele>233.757</ele>
        <time>2020-08-22T10:38:04Z</time>
      </trkpt>
      <trkpt lat="46.164123" lon="8.931594">
        <ele>234.217</ele>
        <time>2020-08-22T10:38:20Z</time>
      </trkpt>
      <trkpt lat="46.164764" lon="8.931356">
        <ele>233.734</ele>
        <time>2020-08-22T10:38:35Z</time>
      </trkpt>
      <trkpt lat="46.165347" lon="8.931130">
        <ele>233.736</ele>
        <time>2020-08-22T10:38:49Z</time>
      </trkpt>
      <trkpt lat="46.165431" lon="8.931093">
        <ele>233.714</ele>
        <time>2020-08-22T10:38:51Z</time>
      </trkpt>
      <trkpt lat="46.165971" lon="8.930865">
        <ele>233.271</ele>
        <time>2020-08-22T10:39:04Z</time>
      </trkpt>
      <trkpt lat="46.166083" lon="8.930813">
        <ele>233.256</ele>
        <time>2020-08-22T10:39:07Z</time>
      </trkpt>
      <trkpt lat="46.166531" lon="8.930638">
        <ele>233.259</ele>
        <time>2020-08-22T10:39:18Z</time>
      </trkpt>
      <trkpt lat="46.166747" lon="8.930514">
        <ele>234.714</ele>
        <time>2020-08-22T10:39:25Z</time>
      </trkpt>
      <trkpt lat="46.166757" lon="8.930490">
        <ele>234.708</ele>
        <time>2020-08-22T10:39:26Z</time>
      </trkpt>
      <trkpt lat="46.166761" lon="8.930459">
        <ele>234.740</ele>
        <time>2020-08-22T10:39:27Z</time>
      </trkpt>
      <trkpt lat="46.166763" lon="8.930429">
        <ele>234.730</ele>
        <time>2020-08-22T10:39:28Z</time>
      </trkpt>
      <trkpt lat="46.166764" lon="8.930403">
        <ele>234.739</ele>
        <time>2020-08-22T10:39:29Z</time>
      </trkpt>
      <trkpt lat="46.166760" lon="8.930371">
        <ele>234.769</ele>
        <time>2020-08-22T10:39:30Z</time>
      </trkpt>
      <trkpt lat="46.166758" lon="8.930347">
        <ele>234.746</ele>
        <time>2020-08-22T10:39:31Z</time>
      </trkpt>
      <trkpt lat="46.166756" lon="8.930315">
        <ele>234.718</ele>
        <time>2020-08-22T10:39:32Z</time>
      </trkpt>
      <trkpt lat="46.166753" lon="8.930285">
        <ele>234.736</ele>
        <time>2020-08-22T10:39:33Z</time>
      </trkpt>
      <trkpt lat="46.166664" lon="8.929638">
        <ele>234.773</ele>
        <time>2020-08-22T10:39:48Z</time>
      </trkpt>
      <trkpt lat="46.166498" lon="8.928712">
        <ele>234.257</ele>
        <time>2020-08-22T10:40:04Z</time>
      </trkpt>
      <trkpt lat="46.166295" lon="8.927524">
        <ele>234.200</ele>
        <time>2020-08-22T10:40:23Z</time>
      </trkpt>
      <trkpt lat="46.166139" lon="8.926632">
        <ele>233.720</ele>
        <time>2020-08-22T10:40:37Z</time>
      </trkpt>
      <trkpt lat="46.165997" lon="8.925789">
        <ele>233.708</ele>
        <time>2020-08-22T10:40:50Z</time>
      </trkpt>
      <trkpt lat="46.165985" lon="8.925727">
        <ele>233.760</ele>
        <time>2020-08-22T10:40:51Z</time>
      </trkpt>
      <trkpt lat="46.165829" lon="8.924805">
        <ele>233.260</ele>
        <time>2020-08-22T10:41:06Z</time>
      </trkpt>
      <trkpt lat="46.165626" lon="8.923662">
        <ele>233.289</ele>
        <time>2020-08-22T10:41:24Z</time>
      </trkpt>
      <trkpt lat="46.165563" lon="8.923310">
        <ele>232.739</ele>
        <time>2020-08-22T10:41:30Z</time>
      </trkpt>
      <trkpt lat="46.165512" lon="8.923082">
        <ele>232.726</ele>
        <time>2020-08-22T10:41:34Z</time>
      </trkpt>
      <trkpt lat="46.165355" lon="8.922151">
        <ele>232.318</ele>
        <time>2020-08-22T10:41:49Z</time>
      </trkpt>
      <trkpt lat="46.165246" lon="8.921633">
        <ele>232.366</ele>
        <time>2020-08-22T10:41:58Z</time>
      </trkpt>
      <trkpt lat="46.165217" lon="8.921387">
        <ele>232.393</ele>
        <time>2020-08-22T10:42:02Z</time>
      </trkpt>
      <trkpt lat="46.165204" lon="8.921330">
        <ele>232.331</ele>
        <time>2020-08-22T10:42:03Z</time>
      </trkpt>
      <trkpt lat="46.165192" lon="8.921274">
        <ele>232.361</ele>
        <time>2020-08-22T10:42:04Z</time>
      </trkpt>
      <trkpt lat="46.164974" lon="8.920212">
        <ele>231.807</ele>
        <time>2020-08-22T10:42:21Z</time>
      </trkpt>
      <trkpt lat="46.164778" lon="8.919278">
        <ele>231.808</ele>
        <time>2020-08-22T10:42:36Z</time>
      </trkpt>
      <trkpt lat="46.164537" lon="8.918190">
        <ele>229.878</ele>
        <time>2020-08-22T10:42:53Z</time>
      </trkpt>
      <trkpt lat="46.164356" lon="8.917403">
        <ele>229.848</ele>
        <time>2020-08-22T10:43:06Z</time>
      </trkpt>
      <trkpt lat="46.164228" lon="8.916887">
        <ele>229.887</ele>
        <time>2020-08-22T10:43:14Z</time>
      </trkpt>
      <trkpt lat="46.163970" lon="8.915846">
        <ele>229.857</ele>
        <time>2020-08-22T10:43:31Z</time>
      </trkpt>
      <trkpt lat="46.163683" lon="8.914801">
        <ele>229.414</ele>
        <time>2020-08-22T10:43:48Z</time>
      </trkpt>
      <trkpt lat="46.163370" lon="8.913755">
        <ele>229.456</ele>
        <time>2020-08-22T10:44:05Z</time>
      </trkpt>
      <trkpt lat="46.163147" lon="8.913052">
        <ele>228.964</ele>
        <time>2020-08-22T10:44:17Z</time>
      </trkpt>
      <trkpt lat="46.163107" lon="8.912706">
        <ele>230.351</ele>
        <time>2020-08-22T10:44:26Z</time>
      </trkpt>
      <trkpt lat="46.162997" lon="8.912176">
        <ele>230.853</ele>
        <time>2020-08-22T10:44:39Z</time>
      </trkpt>
      <trkpt lat="46.162964" lon="8.912067">
        <ele>230.304</ele>
        <time>2020-08-22T10:44:41Z</time>
      </trkpt>
      <trkpt lat="46.162946" lon="8.912011">
        <ele>230.314</ele>
        <time>2020-08-22T10:44:42Z</time>
      </trkpt>
      <trkpt lat="46.162884" lon="8.911786">
        <ele>229.408</ele>
        <time>2020-08-22T10:44:46Z</time>
      </trkpt>
      <trkpt lat="46.162642" lon="8.910895">
        <ele>227.970</ele>
        <time>2020-08-22T10:45:01Z</time>
      </trkpt>
      <trkpt lat="46.162563" lon="8.910474">
        <ele>227.410</ele>
        <time>2020-08-22T10:45:08Z</time>
      </trkpt>
      <trkpt lat="46.162391" lon="8.909941">
        <ele>227.459</ele>
        <time>2020-08-22T10:45:19Z</time>
      </trkpt>
      <trkpt lat="46.162188" lon="8.909281">
        <ele>227.019</ele>
        <time>2020-08-22T10:45:31Z</time>
      </trkpt>
      <trkpt lat="46.161987" lon="8.908670">
        <ele>227.026</ele>
        <time>2020-08-22T10:45:43Z</time>
      </trkpt>
      <trkpt lat="46.161806" lon="8.908167">
        <ele>227.038</ele>
        <time>2020-08-22T10:45:54Z</time>
      </trkpt>
      <trkpt lat="46.161747" lon="8.907995">
        <ele>227.956</ele>
        <time>2020-08-22T10:45:58Z</time>
      </trkpt>
      <trkpt lat="46.161742" lon="8.907962">
        <ele>227.913</ele>
        <time>2020-08-22T10:45:59Z</time>
      </trkpt>
      <trkpt lat="46.161561" lon="8.907464">
        <ele>228.976</ele>
        <time>2020-08-22T10:46:11Z</time>
      </trkpt>
      <trkpt lat="46.161268" lon="8.906796">
        <ele>229.490</ele>
        <time>2020-08-22T10:46:24Z</time>
      </trkpt>
      <trkpt lat="46.161092" lon="8.906312">
        <ele>229.419</ele>
        <time>2020-08-22T10:46:33Z</time>
      </trkpt>
      <trkpt lat="46.160861" lon="8.905582">
        <ele>229.408</ele>
        <time>2020-08-22T10:46:46Z</time>
      </trkpt>
      <trkpt lat="46.160748" lon="8.905261">
        <ele>229.482</ele>
        <time>2020-08-22T10:46:52Z</time>
      </trkpt>
      <trkpt lat="46.160726" lon="8.905205">
        <ele>229.482</ele>
        <time>2020-08-22T10:46:53Z</time>
      </trkpt>
      <trkpt lat="46.160616" lon="8.904859">
        <ele>229.411</ele>
        <time>2020-08-22T10:46:59Z</time>
      </trkpt>
      <trkpt lat="46.160466" lon="8.904322">
        <ele>229.451</ele>
        <time>2020-08-22T10:47:09Z</time>
      </trkpt>
      <trkpt lat="46.160444" lon="8.904268">
        <ele>229.498</ele>
        <time>2020-08-22T10:47:10Z</time>
      </trkpt>
      <trkpt lat="46.160424" lon="8.904211">
        <ele>229.460</ele>
        <time>2020-08-22T10:47:11Z</time>
      </trkpt>
      <trkpt lat="46.160409" lon="8.904153">
        <ele>229.478</ele>
        <time>2020-08-22T10:47:12Z</time>
      </trkpt>
      <trkpt lat="46.160222" lon="8.903508">
        <ele>229.435</ele>
        <time>2020-08-22T10:47:23Z</time>
      </trkpt>
      <trkpt lat="46.160035" lon="8.902797">
        <ele>229.451</ele>
        <time>2020-08-22T10:47:35Z</time>
      </trkpt>
      <trkpt lat="46.160019" lon="8.902740">
        <ele>229.401</ele>
        <time>2020-08-22T10:47:36Z</time>
      </trkpt>
      <trkpt lat="46.160006" lon="8.902682">
        <ele>228.911</ele>
        <time>2020-08-22T10:47:37Z</time>
      </trkpt>
      <trkpt lat="46.159818" lon="8.901883">
        <ele>228.908</ele>
        <time>2020-08-22T10:47:51Z</time>
      </trkpt>
      <trkpt lat="46.159591" lon="8.901026">
        <ele>228.950</ele>
        <time>2020-08-22T10:48:06Z</time>
      </trkpt>
      <trkpt lat="46.159577" lon="8.900968">
        <ele>228.960</ele>
        <time>2020-08-22T10:48:07Z</time>
      </trkpt>
      <trkpt lat="46.159358" lon="8.900068">
        <ele>229.429</ele>
        <time>2020-08-22T10:48:22Z</time>
      </trkpt>
      <trkpt lat="46.159252" lon="8.899597">
        <ele>229.459</ele>
        <time>2020-08-22T10:48:30Z</time>
      </trkpt>
      <trkpt lat="46.159083" lon="8.898850">
        <ele>228.996</ele>
        <time>2020-08-22T10:48:42Z</time>
      </trkpt>
      <trkpt lat="46.159069" lon="8.898791">
        <ele>228.918</ele>
        <time>2020-08-22T10:48:43Z</time>
      </trkpt>
      <trkpt lat="46.159057" lon="8.898735">
        <ele>228.986</ele>
        <time>2020-08-22T10:48:44Z</time>
      </trkpt>
      <trkpt lat="46.158902" lon="8.898080">
        <ele>228.993</ele>
        <time>2020-08-22T10:48:56Z</time>
      </trkpt>
      <trkpt lat="46.158732" lon="8.897415">
        <ele>228.938</ele>
        <time>2020-08-22T10:49:07Z</time>
      </trkpt>
      <trkpt lat="46.158678" lon="8.897232">
        <ele>228.970</ele>
        <time>2020-08-22T10:49:10Z</time>
      </trkpt>
      <trkpt lat="46.158660" lon="8.897169">
        <ele>228.917</ele>
        <time>2020-08-22T10:49:11Z</time>
      </trkpt>
      <trkpt lat="46.158615" lon="8.896998">
        <ele>228.908</ele>
        <time>2020-08-22T10:49:14Z</time>
      </trkpt>
      <trkpt lat="46.158364" lon="8.895978">
        <ele>228.958</ele>
        <time>2020-08-22T10:49:31Z</time>
      </trkpt>
      <trkpt lat="46.158231" lon="8.895484">
        <ele>228.978</ele>
        <time>2020-08-22T10:49:39Z</time>
      </trkpt>
      <trkpt lat="46.158070" lon="8.894870">
        <ele>227.467</ele>
        <time>2020-08-22T10:49:49Z</time>
      </trkpt>
      <trkpt lat="46.157793" lon="8.893799">
        <ele>227.497</ele>
        <time>2020-08-22T10:50:06Z</time>
      </trkpt>
      <trkpt lat="46.157507" lon="8.892664">
        <ele>227.414</ele>
        <time>2020-08-22T10:50:23Z</time>
      </trkpt>
      <trkpt lat="46.157386" lon="8.892122">
        <ele>227.456</ele>
        <time>2020-08-22T10:50:31Z</time>
      </trkpt>
      <trkpt lat="46.157379" lon="8.892080">
        <ele>227.434</ele>
        <time>2020-08-22T10:50:32Z</time>
      </trkpt>
      <trkpt lat="46.157351" lon="8.891965">
        <ele>227.471</ele>
        <time>2020-08-22T10:50:34Z</time>
      </trkpt>
      <trkpt lat="46.157295" lon="8.891769">
        <ele>227.479</ele>
        <time>2020-08-22T10:50:37Z</time>
      </trkpt>
      <trkpt lat="46.157205" lon="8.891396">
        <ele>227.005</ele>
        <time>2020-08-22T10:50:43Z</time>
      </trkpt>
      <trkpt lat="46.157189" lon="8.891340">
        <ele>227.025</ele>
        <time>2020-08-22T10:50:44Z</time>
      </trkpt>
      <trkpt lat="46.157044" lon="8.890724">
        <ele>227.008</ele>
        <time>2020-08-22T10:50:57Z</time>
      </trkpt>
      <trkpt lat="46.156867" lon="8.889956">
        <ele>227.062</ele>
        <time>2020-08-22T10:51:12Z</time>
      </trkpt>
      <trkpt lat="46.156804" lon="8.889727">
        <ele>227.052</ele>
        <time>2020-08-22T10:51:17Z</time>
      </trkpt>
      <trkpt lat="46.156821" lon="8.889697">
        <ele>227.041</ele>
        <time>2020-08-22T10:51:18Z</time>
      </trkpt>
      <trkpt lat="46.156838" lon="8.889679">
        <ele>227.081</ele>
        <time>2020-08-22T10:51:19Z</time>
      </trkpt>
      <trkpt lat="46.156857" lon="8.889666">
        <ele>227.038</ele>
        <time>2020-08-22T10:51:20Z</time>
      </trkpt>
      <trkpt lat="46.156881" lon="8.889655">
        <ele>227.010</ele>
        <time>2020-08-22T10:51:21Z</time>
      </trkpt>
      <trkpt lat="46.156903" lon="8.889643">
        <ele>227.078</ele>
        <time>2020-08-22T10:51:22Z</time>
      </trkpt>
      <trkpt lat="46.157011" lon="8.889596">
        <ele>227.975</ele>
        <time>2020-08-22T10:51:26Z</time>
      </trkpt>
      <trkpt lat="46.157666" lon="8.889264">
        <ele>228.957</ele>
        <time>2020-08-22T10:51:44Z</time>
      </trkpt>
      <trkpt lat="46.158569" lon="8.888810">
        <ele>229.400</ele>
        <time>2020-08-22T10:52:06Z</time>
      </trkpt>
      <trkpt lat="46.159589" lon="8.888297">
        <ele>227.920</ele>
        <time>2020-08-22T10:52:26Z</time>
      </trkpt>
      <trkpt lat="46.160675" lon="8.887781">
        <ele>225.008</ele>
        <time>2020-08-22T10:52:43Z</time>
      </trkpt>
      <trkpt lat="46.161944" lon="8.887182">
        <ele>222.630</ele>
        <time>2020-08-22T10:53:01Z</time>
      </trkpt>
      <trkpt lat="46.163043" lon="8.886694">
        <ele>222.270</ele>
        <time>2020-08-22T10:53:19Z</time>
      </trkpt>
      <trkpt lat="46.164257" lon="8.886131">
        <ele>221.229</ele>
        <time>2020-08-22T10:53:41Z</time>
      </trkpt>
      <trkpt lat="46.165316" lon="8.885944">
        <ele>220.779</ele>
        <time>2020-08-22T10:54:00Z</time>
      </trkpt>
      <trkpt lat="46.166601" lon="8.885932">
        <ele>220.726</ele>
        <time>2020-08-22T10:54:23Z</time>
      </trkpt>
      <trkpt lat="46.167661" lon="8.885928">
        <ele>220.248</ele>
        <time>2020-08-22T10:54:42Z</time>
      </trkpt>
      <trkpt lat="46.168621" lon="8.885920">
        <ele>220.256</ele>
        <time>2020-08-22T10:54:59Z</time>
      </trkpt>
      <trkpt lat="46.169740" lon="8.885919">
        <ele>221.263</ele>
        <time>2020-08-22T10:55:19Z</time>
      </trkpt>
      <trkpt lat="46.170897" lon="8.885910">
        <ele>221.215</ele>
        <time>2020-08-22T10:55:39Z</time>
      </trkpt>
      <trkpt lat="46.172049" lon="8.885905">
        <ele>220.765</ele>
        <time>2020-08-22T10:55:58Z</time>
      </trkpt>
      <trkpt lat="46.173353" lon="8.885887">
        <ele>220.711</ele>
        <time>2020-08-22T10:56:21Z</time>
      </trkpt>
      <trkpt lat="46.173464" lon="8.885900">
        <ele>220.708</ele>
        <time>2020-08-22T10:56:23Z</time>
      </trkpt>
      <trkpt lat="46.173505" lon="8.885922">
        <ele>220.256</ele>
        <time>2020-08-22T10:56:24Z</time>
      </trkpt>
      <trkpt lat="46.173540" lon="8.885959">
        <ele>220.246</ele>
        <time>2020-08-22T10:56:25Z</time>
      </trkpt>
      <trkpt lat="46.173573" lon="8.886009">
        <ele>219.335</ele>
        <time>2020-08-22T10:56:26Z</time>
      </trkpt>
      <trkpt lat="46.173605" lon="8.886061">
        <ele>219.355</ele>
        <time>2020-08-22T10:56:27Z</time>
      </trkpt>
      <trkpt lat="46.173635" lon="8.886088">
        <ele>219.352</ele>
        <time>2020-08-22T10:56:28Z</time>
      </trkpt>
      <trkpt lat="46.173671" lon="8.886106">
        <ele>219.364</ele>
        <time>2020-08-22T10:56:29Z</time>
      </trkpt>
      <trkpt lat="46.173719" lon="8.886112">
        <ele>219.332</ele>
        <time>2020-08-22T10:56:30Z</time>
      </trkpt>
      <trkpt lat="46.173749" lon="8.886106">
        <ele>219.379</ele>
        <time>2020-08-22T10:56:31Z</time>
      </trkpt>
      <trkpt lat="46.173788" lon="8.886082">
        <ele>219.331</ele>
        <time>2020-08-22T10:56:32Z</time>
      </trkpt>
      <trkpt lat="46.173814" lon="8.886052">
        <ele>219.361</ele>
        <time>2020-08-22T10:56:33Z</time>
      </trkpt>
      <trkpt lat="46.173842" lon="8.886006">
        <ele>219.307</ele>
        <time>2020-08-22T10:56:34Z</time>
      </trkpt>
      <trkpt lat="46.173862" lon="8.885969">
        <ele>219.308</ele>
        <time>2020-08-22T10:56:35Z</time>
      </trkpt>
      <trkpt lat="46.173884" lon="8.885934">
        <ele>219.368</ele>
        <time>2020-08-22T10:56:36Z</time>
      </trkpt>
      <trkpt lat="46.173906" lon="8.885909">
        <ele>219.378</ele>
        <time>2020-08-22T10:56:37Z</time>
      </trkpt>
      <trkpt lat="46.173928" lon="8.885893">
        <ele>219.317</ele>
        <time>2020-08-22T10:56:38Z</time>
      </trkpt>
      <trkpt lat="46.173946" lon="8.885884">
        <ele>219.317</ele>
        <time>2020-08-22T10:56:39Z</time>
      </trkpt>
      <trkpt lat="46.173964" lon="8.885883">
        <ele>219.314</ele>
        <time>2020-08-22T10:56:40Z</time>
      </trkpt>
      <trkpt lat="46.173976" lon="8.885884">
        <ele>219.326</ele>
        <time>2020-08-22T10:56:41Z</time>
      </trkpt>
      <trkpt lat="46.173987" lon="8.885890">
        <ele>219.344</ele>
        <time>2020-08-22T10:56:42Z</time>
      </trkpt>
      <trkpt lat="46.173997" lon="8.885900">
        <ele>219.351</ele>
        <time>2020-08-22T10:56:43Z</time>
      </trkpt>
      <trkpt lat="46.174006" lon="8.885898">
        <ele>219.314</ele>
        <time>2020-08-22T10:56:44Z</time>
      </trkpt>
      <trkpt lat="46.174010" lon="8.885884">
        <ele>219.354</ele>
        <time>2020-08-22T10:56:45Z</time>
      </trkpt>
      <trkpt lat="46.173999" lon="8.885879">
        <ele>219.309</ele>
        <time>2020-08-22T10:56:46Z</time>
      </trkpt>
      <trkpt lat="46.173981" lon="8.885887">
        <ele>219.308</ele>
        <time>2020-08-22T10:56:47Z</time>
      </trkpt>
      <trkpt lat="46.173946" lon="8.885893">
        <ele>219.376</ele>
        <time>2020-08-22T10:56:49Z</time>
      </trkpt>
      <trkpt lat="46.173937" lon="8.885882">
        <ele>219.396</ele>
        <time>2020-08-22T10:56:50Z</time>
      </trkpt>
      <trkpt lat="46.173921" lon="8.885841">
        <ele>218.815</ele>
        <time>2020-08-22T10:57:05Z</time>
      </trkpt>
      <trkpt lat="46.173899" lon="8.885788">
        <ele>218.825</ele>
        <time>2020-08-22T10:57:07Z</time>
      </trkpt>
      <trkpt lat="46.173874" lon="8.885763">
        <ele>218.842</ele>
        <time>2020-08-22T10:57:08Z</time>
      </trkpt>
      <trkpt lat="46.173850" lon="8.885743">
        <ele>218.844</ele>
        <time>2020-08-22T10:57:09Z</time>
      </trkpt>
      <trkpt lat="46.173830" lon="8.885717">
        <ele>218.832</ele>
        <time>2020-08-22T10:57:10Z</time>
      </trkpt>
      <trkpt lat="46.173813" lon="8.885675">
        <ele>218.849</ele>
        <time>2020-08-22T10:57:11Z</time>
      </trkpt>
      <trkpt lat="46.173803" lon="8.885626">
        <ele>218.842</ele>
        <time>2020-08-22T10:57:12Z</time>
      </trkpt>
      <trkpt lat="46.173798" lon="8.885567">
        <ele>218.822</ele>
        <time>2020-08-22T10:57:13Z</time>
      </trkpt>
      <trkpt lat="46.173798" lon="8.885516">
        <ele>218.814</ele>
        <time>2020-08-22T10:57:14Z</time>
      </trkpt>
      <trkpt lat="46.173801" lon="8.885452">
        <ele>218.808</ele>
        <time>2020-08-22T10:57:15Z</time>
      </trkpt>
      <trkpt lat="46.173807" lon="8.885400">
        <ele>218.889</ele>
        <time>2020-08-22T10:57:16Z</time>
      </trkpt>
      <trkpt lat="46.173819" lon="8.885332">
        <ele>218.819</ele>
        <time>2020-08-22T10:57:17Z</time>
      </trkpt>
      <trkpt lat="46.173829" lon="8.885283">
        <ele>218.838</ele>
        <time>2020-08-22T10:57:18Z</time>
      </trkpt>
      <trkpt lat="46.174002" lon="8.884285">
        <ele>217.478</ele>
        <time>2020-08-22T10:57:37Z</time>
      </trkpt>
      <trkpt lat="46.174137" lon="8.883566">
        <ele>217.425</ele>
        <time>2020-08-22T10:57:52Z</time>
      </trkpt>
      <trkpt lat="46.174162" lon="8.883413">
        <ele>217.417</ele>
        <time>2020-08-22T10:58:01Z</time>
      </trkpt>
      <trkpt lat="46.174172" lon="8.883407">
        <ele>216.965</ele>
        <time>2020-08-22T10:58:22Z</time>
      </trkpt>
      <trkpt lat="46.174180" lon="8.883389">
        <ele>216.962</ele>
        <time>2020-08-22T10:58:41Z</time>
      </trkpt>
      <trkpt lat="46.174218" lon="8.883117">
        <ele>216.945</ele>
        <time>2020-08-22T10:58:54Z</time>
      </trkpt>
      <trkpt lat="46.174375" lon="8.882285">
        <ele>216.447</ele>
        <time>2020-08-22T10:59:08Z</time>
      </trkpt>
      <trkpt lat="46.174384" lon="8.882219">
        <ele>216.411</ele>
        <time>2020-08-22T10:59:09Z</time>
      </trkpt>
      <trkpt lat="46.174623" lon="8.880860">
        <ele>216.408</ele>
        <time>2020-08-22T10:59:29Z</time>
      </trkpt>
      <trkpt lat="46.174747" lon="8.880258">
        <ele>216.489</ele>
        <time>2020-08-22T10:59:38Z</time>
      </trkpt>
      <trkpt lat="46.174758" lon="8.880199">
        <ele>216.479</ele>
        <time>2020-08-22T10:59:39Z</time>
      </trkpt>
      <trkpt lat="46.174978" lon="8.879068">
        <ele>215.918</ele>
        <time>2020-08-22T10:59:55Z</time>
      </trkpt>
      <trkpt lat="46.175216" lon="8.877832">
        <ele>215.948</ele>
        <time>2020-08-22T11:00:13Z</time>
      </trkpt>
      <trkpt lat="46.175535" lon="8.876207">
        <ele>215.935</ele>
        <time>2020-08-22T11:00:36Z</time>
      </trkpt>
      <trkpt lat="46.175799" lon="8.874839">
        <ele>215.477</ele>
        <time>2020-08-22T11:00:55Z</time>
      </trkpt>
      <trkpt lat="46.176041" lon="8.873621">
        <ele>215.475</ele>
        <time>2020-08-22T11:01:12Z</time>
      </trkpt>
      <trkpt lat="46.176291" lon="8.872352">
        <ele>214.582</ele>
        <time>2020-08-22T11:01:29Z</time>
      </trkpt>
      <trkpt lat="46.176572" lon="8.870872">
        <ele>214.581</ele>
        <time>2020-08-22T11:01:50Z</time>
      </trkpt>
      <trkpt lat="46.176820" lon="8.869584">
        <ele>215.461</ele>
        <time>2020-08-22T11:02:10Z</time>
      </trkpt>
      <trkpt lat="46.176876" lon="8.869438">
        <ele>215.917</ele>
        <time>2020-08-22T11:02:14Z</time>
      </trkpt>
      <trkpt lat="46.176901" lon="8.869419">
        <ele>216.408</ele>
        <time>2020-08-22T11:02:15Z</time>
      </trkpt>
      <trkpt lat="46.176926" lon="8.869411">
        <ele>216.923</ele>
        <time>2020-08-22T11:02:16Z</time>
      </trkpt>
      <trkpt lat="46.176852" lon="8.869257">
        <ele>216.473</ele>
        <time>2020-08-22T11:04:12Z</time>
      </trkpt>
      <trkpt lat="46.176865" lon="8.869210">
        <ele>215.982</ele>
        <time>2020-08-22T11:04:13Z</time>
      </trkpt>
      <trkpt lat="46.176904" lon="8.869176">
        <ele>215.962</ele>
        <time>2020-08-22T11:04:14Z</time>
      </trkpt>
      <trkpt lat="46.176974" lon="8.869178">
        <ele>215.999</ele>
        <time>2020-08-22T11:04:16Z</time>
      </trkpt>
      <trkpt lat="46.177638" lon="8.869361">
        <ele>215.951</ele>
        <time>2020-08-22T11:04:32Z</time>
      </trkpt>
      <trkpt lat="46.178138" lon="8.869497">
        <ele>215.949</ele>
        <time>2020-08-22T11:04:44Z</time>
      </trkpt>
      <trkpt lat="46.178179" lon="8.869490">
        <ele>216.966</ele>
        <time>2020-08-22T11:04:45Z</time>
      </trkpt>
      <trkpt lat="46.178222" lon="8.869458">
        <ele>216.994</ele>
        <time>2020-08-22T11:04:46Z</time>
      </trkpt>
      <trkpt lat="46.178254" lon="8.869409">
        <ele>216.957</ele>
        <time>2020-08-22T11:04:47Z</time>
      </trkpt>
      <trkpt lat="46.178280" lon="8.869355">
        <ele>216.922</ele>
        <time>2020-08-22T11:04:48Z</time>
      </trkpt>
      <trkpt lat="46.178300" lon="8.869288">
        <ele>216.908</ele>
        <time>2020-08-22T11:04:49Z</time>
      </trkpt>
      <trkpt lat="46.178314" lon="8.869224">
        <ele>216.964</ele>
        <time>2020-08-22T11:04:50Z</time>
      </trkpt>
      <trkpt lat="46.178536" lon="8.867996">
        <ele>216.964</ele>
        <time>2020-08-22T11:05:08Z</time>
      </trkpt>
      <trkpt lat="46.178718" lon="8.867035">
        <ele>217.443</ele>
        <time>2020-08-22T11:05:22Z</time>
      </trkpt>
      <trkpt lat="46.178915" lon="8.866000">
        <ele>218.343</ele>
        <time>2020-08-22T11:05:40Z</time>
      </trkpt>
      <trkpt lat="46.179010" lon="8.865318">
        <ele>220.770</ele>
        <time>2020-08-22T11:05:56Z</time>
      </trkpt>
      <trkpt lat="46.179146" lon="8.864544">
        <ele>222.262</ele>
        <time>2020-08-22T11:06:14Z</time>
      </trkpt>
      <trkpt lat="46.179253" lon="8.863800">
        <ele>224.610</ele>
        <time>2020-08-22T11:06:32Z</time>
      </trkpt>
      <trkpt lat="46.179316" lon="8.863529">
        <ele>226.067</ele>
        <time>2020-08-22T11:06:41Z</time>
      </trkpt>
      <trkpt lat="46.179333" lon="8.863516">
        <ele>226.567</ele>
        <time>2020-08-22T11:06:42Z</time>
      </trkpt>
      <trkpt lat="46.179359" lon="8.863510">
        <ele>226.581</ele>
        <time>2020-08-22T11:06:43Z</time>
      </trkpt>
      <trkpt lat="46.179792" lon="8.863611">
        <ele>227.419</ele>
        <time>2020-08-22T11:06:58Z</time>
      </trkpt>
      <trkpt lat="46.180318" lon="8.863544">
        <ele>229.408</ele>
        <time>2020-08-22T11:07:14Z</time>
      </trkpt>
      <trkpt lat="46.180659" lon="8.863478">
        <ele>232.311</ele>
        <time>2020-08-22T11:07:28Z</time>
      </trkpt>
      <trkpt lat="46.180668" lon="8.863482">
        <ele>232.391</ele>
        <time>2020-08-22T11:07:29Z</time>
      </trkpt>
      <trkpt lat="46.180706" lon="8.863521">
        <ele>232.760</ele>
        <time>2020-08-22T11:07:34Z</time>
      </trkpt>
      <trkpt lat="46.180719" lon="8.863531">
        <ele>232.350</ele>
        <time>2020-08-22T11:07:46Z</time>
      </trkpt>
      <trkpt lat="46.180715" lon="8.863567">
        <ele>232.367</ele>
        <time>2020-08-22T11:07:56Z</time>
      </trkpt>
      <trkpt lat="46.180712" lon="8.863586">
        <ele>232.359</ele>
        <time>2020-08-22T11:07:57Z</time>
      </trkpt>
      <trkpt lat="46.180709" lon="8.863610">
        <ele>232.357</ele>
        <time>2020-08-22T11:07:58Z</time>
      </trkpt>
      <trkpt lat="46.180716" lon="8.863691">
        <ele>232.394</ele>
        <time>2020-08-22T11:08:04Z</time>
      </trkpt>
      <trkpt lat="46.180730" lon="8.863694">
        <ele>232.361</ele>
        <time>2020-08-22T11:08:05Z</time>
      </trkpt>
      <trkpt lat="46.180746" lon="8.863690">
        <ele>232.321</ele>
        <time>2020-08-22T11:08:06Z</time>
      </trkpt>
      <trkpt lat="46.180765" lon="8.863672">
        <ele>232.313</ele>
        <time>2020-08-22T11:08:07Z</time>
      </trkpt>
      <trkpt lat="46.180778" lon="8.863632">
        <ele>232.308</ele>
        <time>2020-08-22T11:08:08Z</time>
      </trkpt>
      <trkpt lat="46.180781" lon="8.863601">
        <ele>232.331</ele>
        <time>2020-08-22T11:08:09Z</time>
      </trkpt>
      <trkpt lat="46.180783" lon="8.863558">
        <ele>232.361</ele>
        <time>2020-08-22T11:08:10Z</time>
      </trkpt>
      <trkpt lat="46.180783" lon="8.863523">
        <ele>232.320</ele>
        <time>2020-08-22T11:08:11Z</time>
      </trkpt>
      <trkpt lat="46.180792" lon="8.862931">
        <ele>234.280</ele>
        <time>2020-08-22T11:08:27Z</time>
      </trkpt>
      <trkpt lat="46.180843" lon="8.862125">
        <ele>234.797</ele>
        <time>2020-08-22T11:08:46Z</time>
      </trkpt>
      <trkpt lat="46.180924" lon="8.861026">
        <ele>235.189</ele>
        <time>2020-08-22T11:09:05Z</time>
      </trkpt>
      <trkpt lat="46.180996" lon="8.860104">
        <ele>235.617</ele>
        <time>2020-08-22T11:09:20Z</time>
      </trkpt>
      <trkpt lat="46.181057" lon="8.859814">
        <ele>235.614</ele>
        <time>2020-08-22T11:09:25Z</time>
      </trkpt>
      <trkpt lat="46.181267" lon="8.859248">
        <ele>236.188</ele>
        <time>2020-08-22T11:09:35Z</time>
      </trkpt>
      <trkpt lat="46.181289" lon="8.859209">
        <ele>236.124</ele>
        <time>2020-08-22T11:09:36Z</time>
      </trkpt>
      <trkpt lat="46.181496" lon="8.858711">
        <ele>236.126</ele>
        <time>2020-08-22T11:09:45Z</time>
      </trkpt>
      <trkpt lat="46.181529" lon="8.858672">
        <ele>236.108</ele>
        <time>2020-08-22T11:09:46Z</time>
      </trkpt>
      <trkpt lat="46.181562" lon="8.858633">
        <ele>236.143</ele>
        <time>2020-08-22T11:09:47Z</time>
      </trkpt>
      <trkpt lat="46.181595" lon="8.858577">
        <ele>236.123</ele>
        <time>2020-08-22T11:09:48Z</time>
      </trkpt>
      <trkpt lat="46.181613" lon="8.858537">
        <ele>236.152</ele>
        <time>2020-08-22T11:09:49Z</time>
      </trkpt>
      <trkpt lat="46.181742" lon="8.858229">
        <ele>237.142</ele>
        <time>2020-08-22T11:09:55Z</time>
      </trkpt>
      <trkpt lat="46.181829" lon="8.858022">
        <ele>237.199</ele>
        <time>2020-08-22T11:09:59Z</time>
      </trkpt>
      <trkpt lat="46.182047" lon="8.857455">
        <ele>237.181</ele>
        <time>2020-08-22T11:10:10Z</time>
      </trkpt>
      <trkpt lat="46.182056" lon="8.857384">
        <ele>237.149</ele>
        <time>2020-08-22T11:10:11Z</time>
      </trkpt>
      <trkpt lat="46.182143" lon="8.856569">
        <ele>238.076</ele>
        <time>2020-08-22T11:10:25Z</time>
      </trkpt>
      <trkpt lat="46.182318" lon="8.855560">
        <ele>238.595</ele>
        <time>2020-08-22T11:10:42Z</time>
      </trkpt>
      <trkpt lat="46.182390" lon="8.854480">
        <ele>239.049</ele>
        <time>2020-08-22T11:10:59Z</time>
      </trkpt>
      <trkpt lat="46.182293" lon="8.853299">
        <ele>239.023</ele>
        <time>2020-08-22T11:11:16Z</time>
      </trkpt>
      <trkpt lat="46.182215" lon="8.852590">
        <ele>237.508</ele>
        <time>2020-08-22T11:11:25Z</time>
      </trkpt>
      <trkpt lat="46.182202" lon="8.852545">
        <ele>237.514</ele>
        <time>2020-08-22T11:11:26Z</time>
      </trkpt>
      <trkpt lat="46.182175" lon="8.852471">
        <ele>237.124</ele>
        <time>2020-08-22T11:11:27Z</time>
      </trkpt>
      <trkpt lat="46.182143" lon="8.852398">
        <ele>237.173</ele>
        <time>2020-08-22T11:11:28Z</time>
      </trkpt>
      <trkpt lat="46.182110" lon="8.852328">
        <ele>237.143</ele>
        <time>2020-08-22T11:11:29Z</time>
      </trkpt>
      <trkpt lat="46.181684" lon="8.851456">
        <ele>233.750</ele>
        <time>2020-08-22T11:11:39Z</time>
      </trkpt>
      <trkpt lat="46.181541" lon="8.851153">
        <ele>232.732</ele>
        <time>2020-08-22T11:11:42Z</time>
      </trkpt>
      <trkpt lat="46.181120" lon="8.850260">
        <ele>229.460</ele>
        <time>2020-08-22T11:11:51Z</time>
      </trkpt>
      <trkpt lat="46.180635" lon="8.849208">
        <ele>227.947</ele>
        <time>2020-08-22T11:12:04Z</time>
      </trkpt>
      <trkpt lat="46.180589" lon="8.849089">
        <ele>227.923</ele>
        <time>2020-08-22T11:12:06Z</time>
      </trkpt>
      <trkpt lat="46.180568" lon="8.849022">
        <ele>228.483</ele>
        <time>2020-08-22T11:12:07Z</time>
      </trkpt>
      <trkpt lat="46.180537" lon="8.848949">
        <ele>228.411</ele>
        <time>2020-08-22T11:12:08Z</time>
      </trkpt>
      <trkpt lat="46.180507" lon="8.848894">
        <ele>227.908</ele>
        <time>2020-08-22T11:12:09Z</time>
      </trkpt>
      <trkpt lat="46.180477" lon="8.848845">
        <ele>228.427</ele>
        <time>2020-08-22T11:12:10Z</time>
      </trkpt>
      <trkpt lat="46.180413" lon="8.848732">
        <ele>228.487</ele>
        <time>2020-08-22T11:12:12Z</time>
      </trkpt>
      <trkpt lat="46.179978" lon="8.847730">
        <ele>229.456</ele>
        <time>2020-08-22T11:12:29Z</time>
      </trkpt>
      <trkpt lat="46.179699" lon="8.847159">
        <ele>229.846</ele>
        <time>2020-08-22T11:12:40Z</time>
      </trkpt>
      <trkpt lat="46.179562" lon="8.846089">
        <ele>230.393</ele>
        <time>2020-08-22T11:12:55Z</time>
      </trkpt>
      <trkpt lat="46.179533" lon="8.845315">
        <ele>226.575</ele>
        <time>2020-08-22T11:13:03Z</time>
      </trkpt>
      <trkpt lat="46.179525" lon="8.845123">
        <ele>226.083</ele>
        <time>2020-08-22T11:13:05Z</time>
      </trkpt>
      <trkpt lat="46.179489" lon="8.844292">
        <ele>222.650</ele>
        <time>2020-08-22T11:13:12Z</time>
      </trkpt>
      <trkpt lat="46.179462" lon="8.843581">
        <ele>219.365</ele>
        <time>2020-08-22T11:13:17Z</time>
      </trkpt>
      <trkpt lat="46.179437" lon="8.842959">
        <ele>216.468</ele>
        <time>2020-08-22T11:13:21Z</time>
      </trkpt>
      <trkpt lat="46.179443" lon="8.841905">
        <ele>213.514</ele>
        <time>2020-08-22T11:13:28Z</time>
      </trkpt>
      <trkpt lat="46.179512" lon="8.840969">
        <ele>214.008</ele>
        <time>2020-08-22T11:13:37Z</time>
      </trkpt>
      <trkpt lat="46.179521" lon="8.840838">
        <ele>214.531</ele>
        <time>2020-08-22T11:13:39Z</time>
      </trkpt>
      <trkpt lat="46.179527" lon="8.840779">
        <ele>214.551</ele>
        <time>2020-08-22T11:13:40Z</time>
      </trkpt>
      <trkpt lat="46.179506" lon="8.840023">
        <ele>215.450</ele>
        <time>2020-08-22T11:13:54Z</time>
      </trkpt>
      <trkpt lat="46.179412" lon="8.838794">
        <ele>216.430</ele>
        <time>2020-08-22T11:14:13Z</time>
      </trkpt>
      <trkpt lat="46.179425" lon="8.837461">
        <ele>217.457</ele>
        <time>2020-08-22T11:14:33Z</time>
      </trkpt>
      <trkpt lat="46.179648" lon="8.836164">
        <ele>217.469</ele>
        <time>2020-08-22T11:14:51Z</time>
      </trkpt>
      <trkpt lat="46.180101" lon="8.835045">
        <ele>217.857</ele>
        <time>2020-08-22T11:15:08Z</time>
      </trkpt>
      <trkpt lat="46.180344" lon="8.834427">
        <ele>220.214</ele>
        <time>2020-08-22T11:15:23Z</time>
      </trkpt>
      <trkpt lat="46.180389" lon="8.834323">
        <ele>220.231</ele>
        <time>2020-08-22T11:16:05Z</time>
      </trkpt>
      <trkpt lat="46.180388" lon="8.834387">
        <ele>218.361</ele>
        <time>2020-08-22T11:16:12Z</time>
      </trkpt>
      <trkpt lat="46.180387" lon="8.834357">
        <ele>215.907</ele>
        <time>2020-08-22T11:16:26Z</time>
      </trkpt>
      <trkpt lat="46.180333" lon="8.834146">
        <ele>214.908</ele>
        <time>2020-08-22T11:16:41Z</time>
      </trkpt>
      <trkpt lat="46.180110" lon="8.834192">
        <ele>214.918</ele>
        <time>2020-08-22T11:16:54Z</time>
      </trkpt>
      <trkpt lat="46.180090" lon="8.834195">
        <ele>214.928</ele>
        <time>2020-08-22T11:17:04Z</time>
      </trkpt>
      <trkpt lat="46.180096" lon="8.834091">
        <ele>214.537</ele>
        <time>2020-08-22T11:17:09Z</time>
      </trkpt>
      <trkpt lat="46.180097" lon="8.834057">
        <ele>214.027</ele>
        <time>2020-08-22T11:17:10Z</time>
      </trkpt>
      <trkpt lat="46.180098" lon="8.834044">
        <ele>214.054</ele>
        <time>2020-08-22T11:17:11Z</time>
      </trkpt>
      <trkpt lat="46.180068" lon="8.833935">
        <ele>212.116</ele>
        <time>2020-08-22T11:17:22Z</time>
      </trkpt>
      <trkpt lat="46.180047" lon="8.833773">
        <ele>210.114</ele>
        <time>2020-08-22T11:17:33Z</time>
      </trkpt>
      <trkpt lat="46.180035" lon="8.833675">
        <ele>209.291</ele>
        <time>2020-08-22T11:17:37Z</time>
      </trkpt>
      <trkpt lat="46.179981" lon="8.832794">
        <ele>209.225</ele>
        <time>2020-08-22T11:17:53Z</time>
      </trkpt>
      <trkpt lat="46.179782" lon="8.832294">
        <ele>208.726</ele>
        <time>2020-08-22T11:18:02Z</time>
      </trkpt>
      <trkpt lat="46.179732" lon="8.832190">
        <ele>208.708</ele>
        <time>2020-08-22T11:18:04Z</time>
      </trkpt>
      <trkpt lat="46.179595" lon="8.831943">
        <ele>208.708</ele>
        <time>2020-08-22T11:18:09Z</time>
      </trkpt>
      <trkpt lat="46.179565" lon="8.831895">
        <ele>208.767</ele>
        <time>2020-08-22T11:18:10Z</time>
      </trkpt>
      <trkpt lat="46.179429" lon="8.831649">
        <ele>208.787</ele>
        <time>2020-08-22T11:18:15Z</time>
      </trkpt>
      <trkpt lat="46.179398" lon="8.831601">
        <ele>208.786</ele>
        <time>2020-08-22T11:18:16Z</time>
      </trkpt>
      <trkpt lat="46.179032" lon="8.830860">
        <ele>208.786</ele>
        <time>2020-08-22T11:18:30Z</time>
      </trkpt>
      <trkpt lat="46.178536" lon="8.830221">
        <ele>208.763</ele>
        <time>2020-08-22T11:18:44Z</time>
      </trkpt>
      <trkpt lat="46.178039" lon="8.829589">
        <ele>208.725</ele>
        <time>2020-08-22T11:18:58Z</time>
      </trkpt>
      <trkpt lat="46.177782" lon="8.829290">
        <ele>208.723</ele>
        <time>2020-08-22T11:19:05Z</time>
      </trkpt>
      <trkpt lat="46.177741" lon="8.829258">
        <ele>208.740</ele>
        <time>2020-08-22T11:19:06Z</time>
      </trkpt>
      <trkpt lat="46.177698" lon="8.829233">
        <ele>208.762</ele>
        <time>2020-08-22T11:19:07Z</time>
      </trkpt>
      <trkpt lat="46.177511" lon="8.829148">
        <ele>208.783</ele>
        <time>2020-08-22T11:19:11Z</time>
      </trkpt>
      <trkpt lat="46.177471" lon="8.829122">
        <ele>208.711</ele>
        <time>2020-08-22T11:19:12Z</time>
      </trkpt>
      <trkpt lat="46.177421" lon="8.829080">
        <ele>208.708</ele>
        <time>2020-08-22T11:19:13Z</time>
      </trkpt>
      <trkpt lat="46.177389" lon="8.829048">
        <ele>208.721</ele>
        <time>2020-08-22T11:19:14Z</time>
      </trkpt>
      <trkpt lat="46.177347" lon="8.828999">
        <ele>208.721</ele>
        <time>2020-08-22T11:19:15Z</time>
      </trkpt>
      <trkpt lat="46.177242" lon="8.828868">
        <ele>208.740</ele>
        <time>2020-08-22T11:19:18Z</time>
      </trkpt>
      <trkpt lat="46.177210" lon="8.828817">
        <ele>208.770</ele>
        <time>2020-08-22T11:19:19Z</time>
      </trkpt>
      <trkpt lat="46.177154" lon="8.828728">
        <ele>208.757</ele>
        <time>2020-08-22T11:19:21Z</time>
      </trkpt>
      <trkpt lat="46.177120" lon="8.828690">
        <ele>208.799</ele>
        <time>2020-08-22T11:19:22Z</time>
      </trkpt>
      <trkpt lat="46.176776" lon="8.828305">
        <ele>208.287</ele>
        <time>2020-08-22T11:19:32Z</time>
      </trkpt>
      <trkpt lat="46.176742" lon="8.828270">
        <ele>208.214</ele>
        <time>2020-08-22T11:19:33Z</time>
      </trkpt>
      <trkpt lat="46.176570" lon="8.828108">
        <ele>208.291</ele>
        <time>2020-08-22T11:19:38Z</time>
      </trkpt>
      <trkpt lat="46.176064" lon="8.827563">
        <ele>209.781</ele>
        <time>2020-08-22T11:19:53Z</time>
      </trkpt>
      <trkpt lat="46.175629" lon="8.826923">
        <ele>209.719</ele>
        <time>2020-08-22T11:20:07Z</time>
      </trkpt>
      <trkpt lat="46.175430" lon="8.826576">
        <ele>209.708</ele>
        <time>2020-08-22T11:20:14Z</time>
      </trkpt>
      <trkpt lat="46.175407" lon="8.826520">
        <ele>209.774</ele>
        <time>2020-08-22T11:20:15Z</time>
      </trkpt>
      <trkpt lat="46.175387" lon="8.826466">
        <ele>209.734</ele>
        <time>2020-08-22T11:20:16Z</time>
      </trkpt>
      <trkpt lat="46.175371" lon="8.826409">
        <ele>209.773</ele>
        <time>2020-08-22T11:20:17Z</time>
      </trkpt>
      <trkpt lat="46.175357" lon="8.826344">
        <ele>209.713</ele>
        <time>2020-08-22T11:20:18Z</time>
      </trkpt>
      <trkpt lat="46.175349" lon="8.826285">
        <ele>209.780</ele>
        <time>2020-08-22T11:20:19Z</time>
      </trkpt>
      <trkpt lat="46.175341" lon="8.826222">
        <ele>209.752</ele>
        <time>2020-08-22T11:20:20Z</time>
      </trkpt>
      <trkpt lat="46.175305" lon="8.825629">
        <ele>209.780</ele>
        <time>2020-08-22T11:20:29Z</time>
      </trkpt>
      <trkpt lat="46.175307" lon="8.825560">
        <ele>209.767</ele>
        <time>2020-08-22T11:20:30Z</time>
      </trkpt>
      <trkpt lat="46.175427" lon="8.824321">
        <ele>209.744</ele>
        <time>2020-08-22T11:20:46Z</time>
      </trkpt>
      <trkpt lat="46.175428" lon="8.824239">
        <ele>209.705</ele>
        <time>2020-08-22T11:20:47Z</time>
      </trkpt>
      <trkpt lat="46.175424" lon="8.824165">
        <ele>209.715</ele>
        <time>2020-08-22T11:20:48Z</time>
      </trkpt>
      <trkpt lat="46.175415" lon="8.824090">
        <ele>209.708</ele>
        <time>2020-08-22T11:20:49Z</time>
      </trkpt>
      <trkpt lat="46.175404" lon="8.824025">
        <ele>209.729</ele>
        <time>2020-08-22T11:20:50Z</time>
      </trkpt>
      <trkpt lat="46.175386" lon="8.823954">
        <ele>209.749</ele>
        <time>2020-08-22T11:20:51Z</time>
      </trkpt>
      <trkpt lat="46.175366" lon="8.823885">
        <ele>209.738</ele>
        <time>2020-08-22T11:20:52Z</time>
      </trkpt>
      <trkpt lat="46.175342" lon="8.823817">
        <ele>209.218</ele>
        <time>2020-08-22T11:20:53Z</time>
      </trkpt>
      <trkpt lat="46.175017" lon="8.822806">
        <ele>209.765</ele>
        <time>2020-08-22T11:21:08Z</time>
      </trkpt>
      <trkpt lat="46.174908" lon="8.822564">
        <ele>209.747</ele>
        <time>2020-08-22T11:21:12Z</time>
      </trkpt>
      <trkpt lat="46.174872" lon="8.822510">
        <ele>209.735</ele>
        <time>2020-08-22T11:21:13Z</time>
      </trkpt>
      <trkpt lat="46.174263" lon="8.821571">
        <ele>209.712</ele>
        <time>2020-08-22T11:21:30Z</time>
      </trkpt>
      <trkpt lat="46.174168" lon="8.821419">
        <ele>210.114</ele>
        <time>2020-08-22T11:21:33Z</time>
      </trkpt>
      <trkpt lat="46.173766" lon="8.820645">
        <ele>210.154</ele>
        <time>2020-08-22T11:21:48Z</time>
      </trkpt>
      <trkpt lat="46.173571" lon="8.819860">
        <ele>210.109</ele>
        <time>2020-08-22T11:22:01Z</time>
      </trkpt>
      <trkpt lat="46.173284" lon="8.819022">
        <ele>209.708</ele>
        <time>2020-08-22T11:22:14Z</time>
      </trkpt>
      <trkpt lat="46.173270" lon="8.818969">
        <ele>209.786</ele>
        <time>2020-08-22T11:22:15Z</time>
      </trkpt>
      <trkpt lat="46.173179" lon="8.818684">
        <ele>209.796</ele>
        <time>2020-08-22T11:22:20Z</time>
      </trkpt>
      <trkpt lat="46.173132" lon="8.818442">
        <ele>209.735</ele>
        <time>2020-08-22T11:22:24Z</time>
      </trkpt>
      <trkpt lat="46.173067" lon="8.817737">
        <ele>209.755</ele>
        <time>2020-08-22T11:22:35Z</time>
      </trkpt>
      <trkpt lat="46.173052" lon="8.817672">
        <ele>209.732</ele>
        <time>2020-08-22T11:22:36Z</time>
      </trkpt>
      <trkpt lat="46.173028" lon="8.817599">
        <ele>209.774</ele>
        <time>2020-08-22T11:22:37Z</time>
      </trkpt>
      <trkpt lat="46.172824" lon="8.817096">
        <ele>208.272</ele>
        <time>2020-08-22T11:22:46Z</time>
      </trkpt>
      <trkpt lat="46.172711" lon="8.816661">
        <ele>208.249</ele>
        <time>2020-08-22T11:22:53Z</time>
      </trkpt>
      <trkpt lat="46.172542" lon="8.815580">
        <ele>208.297</ele>
        <time>2020-08-22T11:23:08Z</time>
      </trkpt>
      <trkpt lat="46.172517" lon="8.815212">
        <ele>208.223</ele>
        <time>2020-08-22T11:23:13Z</time>
      </trkpt>
      <trkpt lat="46.172512" lon="8.815144">
        <ele>208.225</ele>
        <time>2020-08-22T11:23:14Z</time>
      </trkpt>
      <trkpt lat="46.172498" lon="8.815027">
        <ele>208.208</ele>
        <time>2020-08-22T11:23:16Z</time>
      </trkpt>
      <trkpt lat="46.172481" lon="8.814969">
        <ele>208.254</ele>
        <time>2020-08-22T11:23:17Z</time>
      </trkpt>
      <trkpt lat="46.172467" lon="8.814908">
        <ele>208.214</ele>
        <time>2020-08-22T11:23:18Z</time>
      </trkpt>
      <trkpt lat="46.172459" lon="8.814846">
        <ele>208.283</ele>
        <time>2020-08-22T11:23:19Z</time>
      </trkpt>
      <trkpt lat="46.172454" lon="8.814780">
        <ele>208.213</ele>
        <time>2020-08-22T11:23:20Z</time>
      </trkpt>
      <trkpt lat="46.172386" lon="8.814324">
        <ele>208.250</ele>
        <time>2020-08-22T11:23:27Z</time>
      </trkpt>
      <trkpt lat="46.172307" lon="8.814023">
        <ele>208.212</ele>
        <time>2020-08-22T11:23:32Z</time>
      </trkpt>
      <trkpt lat="46.172262" lon="8.813557">
        <ele>208.280</ele>
        <time>2020-08-22T11:23:40Z</time>
      </trkpt>
      <trkpt lat="46.172312" lon="8.812768">
        <ele>207.767</ele>
        <time>2020-08-22T11:23:52Z</time>
      </trkpt>
      <trkpt lat="46.172131" lon="8.811728">
        <ele>209.299</ele>
        <time>2020-08-22T11:24:08Z</time>
      </trkpt>
      <trkpt lat="46.172104" lon="8.811593">
        <ele>209.207</ele>
        <time>2020-08-22T11:24:10Z</time>
      </trkpt>
      <trkpt lat="46.171865" lon="8.810773">
        <ele>208.727</ele>
        <time>2020-08-22T11:24:22Z</time>
      </trkpt>
      <trkpt lat="46.171647" lon="8.810096">
        <ele>209.708</ele>
        <time>2020-08-22T11:24:35Z</time>
      </trkpt>
      <trkpt lat="46.171605" lon="8.809938">
        <ele>209.764</ele>
        <time>2020-08-22T11:24:39Z</time>
      </trkpt>
      <trkpt lat="46.171543" lon="8.809955">
        <ele>209.724</ele>
        <time>2020-08-22T11:24:48Z</time>
      </trkpt>
      <trkpt lat="46.171550" lon="8.809962">
        <ele>209.783</ele>
        <time>2020-08-22T11:25:12Z</time>
      </trkpt>
      <trkpt lat="46.171566" lon="8.810086">
        <ele>209.753</ele>
        <time>2020-08-22T11:25:27Z</time>
      </trkpt>
      <trkpt lat="46.171570" lon="8.810107">
        <ele>209.220</ele>
        <time>2020-08-22T11:25:56Z</time>
      </trkpt>
      <trkpt lat="46.171601" lon="8.810060">
        <ele>209.272</ele>
        <time>2020-08-22T11:26:01Z</time>
      </trkpt>
      <trkpt lat="46.171586" lon="8.809572">
        <ele>209.240</ele>
        <time>2020-08-22T11:26:14Z</time>
      </trkpt>
      <trkpt lat="46.171422" lon="8.808505">
        <ele>209.797</ele>
        <time>2020-08-22T11:26:31Z</time>
      </trkpt>
      <trkpt lat="46.171373" lon="8.807529">
        <ele>210.163</ele>
        <time>2020-08-22T11:26:47Z</time>
      </trkpt>
      <trkpt lat="46.171381" lon="8.807465">
        <ele>210.144</ele>
        <time>2020-08-22T11:26:48Z</time>
      </trkpt>
      <trkpt lat="46.171397" lon="8.807404">
        <ele>210.118</ele>
        <time>2020-08-22T11:26:49Z</time>
      </trkpt>
      <trkpt lat="46.171418" lon="8.807344">
        <ele>210.108</ele>
        <time>2020-08-22T11:26:50Z</time>
      </trkpt>
      <trkpt lat="46.171567" lon="8.806756">
        <ele>209.281</ele>
        <time>2020-08-22T11:26:59Z</time>
      </trkpt>
      <trkpt lat="46.171606" lon="8.805996">
        <ele>209.261</ele>
        <time>2020-08-22T11:27:10Z</time>
      </trkpt>
      <trkpt lat="46.171595" lon="8.804741">
        <ele>208.780</ele>
        <time>2020-08-22T11:27:28Z</time>
      </trkpt>
      <trkpt lat="46.171681" lon="8.803857">
        <ele>208.760</ele>
        <time>2020-08-22T11:27:41Z</time>
      </trkpt>
      <trkpt lat="46.171696" lon="8.803786">
        <ele>208.797</ele>
        <time>2020-08-22T11:27:42Z</time>
      </trkpt>
      <trkpt lat="46.171709" lon="8.803718">
        <ele>208.779</ele>
        <time>2020-08-22T11:27:43Z</time>
      </trkpt>
      <trkpt lat="46.171716" lon="8.803642">
        <ele>208.757</ele>
        <time>2020-08-22T11:27:44Z</time>
      </trkpt>
      <trkpt lat="46.171721" lon="8.803532">
        <ele>208.774</ele>
        <time>2020-08-22T11:27:45Z</time>
      </trkpt>
      <trkpt lat="46.171705" lon="8.802577">
        <ele>208.737</ele>
        <time>2020-08-22T11:27:58Z</time>
      </trkpt>
      <trkpt lat="46.171609" lon="8.802089">
        <ele>208.749</ele>
        <time>2020-08-22T11:28:05Z</time>
      </trkpt>
      <trkpt lat="46.171593" lon="8.802022">
        <ele>208.713</ele>
        <time>2020-08-22T11:28:06Z</time>
      </trkpt>
      <trkpt lat="46.171292" lon="8.801306">
        <ele>209.708</ele>
        <time>2020-08-22T11:28:21Z</time>
      </trkpt>
      <trkpt lat="46.171295" lon="8.801232">
        <ele>209.768</ele>
        <time>2020-08-22T11:28:26Z</time>
      </trkpt>
      <trkpt lat="46.171306" lon="8.801233">
        <ele>209.798</ele>
        <time>2020-08-22T11:28:27Z</time>
      </trkpt>
      <trkpt lat="46.171312" lon="8.801252">
        <ele>209.757</ele>
        <time>2020-08-22T11:28:28Z</time>
      </trkpt>
      <trkpt lat="46.171305" lon="8.801284">
        <ele>209.737</ele>
        <time>2020-08-22T11:28:29Z</time>
      </trkpt>
      <trkpt lat="46.171291" lon="8.801301">
        <ele>209.774</ele>
        <time>2020-08-22T11:28:30Z</time>
      </trkpt>
      <trkpt lat="46.171265" lon="8.801325">
        <ele>209.736</ele>
        <time>2020-08-22T11:28:31Z</time>
      </trkpt>
      <trkpt lat="46.171235" lon="8.801360">
        <ele>209.764</ele>
        <time>2020-08-22T11:28:32Z</time>
      </trkpt>
      <trkpt lat="46.171140" lon="8.801407">
        <ele>209.711</ele>
        <time>2020-08-22T11:28:35Z</time>
      </trkpt>
      <trkpt lat="46.171109" lon="8.801396">
        <ele>209.777</ele>
        <time>2020-08-22T11:28:36Z</time>
      </trkpt>
      <trkpt lat="46.171078" lon="8.801381">
        <ele>209.761</ele>
        <time>2020-08-22T11:28:37Z</time>
      </trkpt>
      <trkpt lat="46.170606" lon="8.800981">
        <ele>209.727</ele>
        <time>2020-08-22T11:28:53Z</time>
      </trkpt>
      <trkpt lat="46.170492" lon="8.800783">
        <ele>209.708</ele>
        <time>2020-08-22T11:29:06Z</time>
      </trkpt>
      <trkpt lat="46.170505" lon="8.800790">
        <ele>208.242</ele>
        <time>2020-08-22T11:29:18Z</time>
      </trkpt>
      <trkpt lat="46.170486" lon="8.800766">
        <ele>208.272</ele>
        <time>2020-08-22T11:29:25Z</time>
      </trkpt>
      <trkpt lat="46.170476" lon="8.800745">
        <ele>208.251</ele>
        <time>2020-08-22T11:29:26Z</time>
      </trkpt>
      <trkpt lat="46.170467" lon="8.800712">
        <ele>208.271</ele>
        <time>2020-08-22T11:29:27Z</time>
      </trkpt>
      <trkpt lat="46.170465" lon="8.800680">
        <ele>208.288</ele>
        <time>2020-08-22T11:29:28Z</time>
      </trkpt>
      <trkpt lat="46.170477" lon="8.800632">
        <ele>208.240</ele>
        <time>2020-08-22T11:29:29Z</time>
      </trkpt>
      <trkpt lat="46.170497" lon="8.800603">
        <ele>208.258</ele>
        <time>2020-08-22T11:29:30Z</time>
      </trkpt>
      <trkpt lat="46.170518" lon="8.800581">
        <ele>208.245</ele>
        <time>2020-08-22T11:29:31Z</time>
      </trkpt>
      <trkpt lat="46.170538" lon="8.800560">
        <ele>208.291</ele>
        <time>2020-08-22T11:29:32Z</time>
      </trkpt>
      <trkpt lat="46.170711" lon="8.800378">
        <ele>209.781</ele>
        <time>2020-08-22T11:29:39Z</time>
      </trkpt>
      <trkpt lat="46.171102" lon="8.799961">
        <ele>212.519</ele>
        <time>2020-08-22T11:29:56Z</time>
      </trkpt>
      <trkpt lat="46.171484" lon="8.800065">
        <ele>214.008</ele>
        <time>2020-08-22T11:30:11Z</time>
      </trkpt>
      <trkpt lat="46.171888" lon="8.800421">
        <ele>214.574</ele>
        <time>2020-08-22T11:30:25Z</time>
      </trkpt>
      <trkpt lat="46.172123" lon="8.801063">
        <ele>214.984</ele>
        <time>2020-08-22T11:30:42Z</time>
      </trkpt>
      <trkpt lat="46.172213" lon="8.801274">
        <ele>215.433</ele>
        <time>2020-08-22T11:30:54Z</time>
      </trkpt>
      <trkpt lat="46.172218" lon="8.801321">
        <ele>215.993</ele>
        <time>2020-08-22T11:31:10Z</time>
      </trkpt>
      <trkpt lat="46.172228" lon="8.801387">
        <ele>215.990</ele>
        <time>2020-08-22T11:31:27Z</time>
      </trkpt>
      <trkpt lat="46.172233" lon="8.801400">
        <ele>215.962</ele>
        <time>2020-08-22T11:31:44Z</time>
      </trkpt>
      <trkpt lat="46.172221" lon="8.801384">
        <ele>216.490</ele>
        <time>2020-08-22T11:32:05Z</time>
      </trkpt>
      <trkpt lat="46.172645" lon="8.801772">
        <ele>195.227</ele>
        <time>2020-08-22T11:59:29Z</time>
      </trkpt>
      <trkpt lat="46.172644" lon="8.801794">
        <ele>193.894</ele>
        <time>2020-08-22T11:59:42Z</time>
      </trkpt>
      <trkpt lat="46.136424" lon="8.460623">
        <ele>806.257</ele>
        <time>2020-08-22T15:21:09Z</time>
      </trkpt>
      <trkpt lat="46.136423" lon="8.460623">
        <ele>806.222</ele>
        <time>2020-08-22T15:21:10Z</time>
      </trkpt>
      <trkpt lat="46.136426" lon="8.460651">
        <ele>836.408</ele>
        <time>2020-08-22T15:25:30Z</time>
      </trkpt>
      <trkpt lat="46.136423" lon="8.460653">
        <ele>837.464</ele>
        <time>2020-08-22T15:25:34Z</time>
      </trkpt>
      <trkpt lat="46.136430" lon="8.460717">
        <ele>837.414</ele>
        <time>2020-08-22T15:25:53Z</time>
      </trkpt>
      <trkpt lat="46.136324" lon="8.460706">
        <ele>837.423</ele>
        <time>2020-08-22T15:26:00Z</time>
      </trkpt>
      <trkpt lat="46.136303" lon="8.460693">
        <ele>837.413</ele>
        <time>2020-08-22T15:26:01Z</time>
      </trkpt>
      <trkpt lat="46.136267" lon="8.460714">
        <ele>837.480</ele>
        <time>2020-08-22T15:26:03Z</time>
      </trkpt>
      <trkpt lat="46.136268" lon="8.460743">
        <ele>837.472</ele>
        <time>2020-08-22T15:26:04Z</time>
      </trkpt>
      <trkpt lat="46.136277" lon="8.460770">
        <ele>837.480</ele>
        <time>2020-08-22T15:26:05Z</time>
      </trkpt>
      <trkpt lat="46.136292" lon="8.460796">
        <ele>837.457</ele>
        <time>2020-08-22T15:26:06Z</time>
      </trkpt>
      <trkpt lat="46.136308" lon="8.460822">
        <ele>837.452</ele>
        <time>2020-08-22T15:26:07Z</time>
      </trkpt>
      <trkpt lat="46.136320" lon="8.460856">
        <ele>837.453</ele>
        <time>2020-08-22T15:26:08Z</time>
      </trkpt>
      <trkpt lat="46.136329" lon="8.460890">
        <ele>837.408</ele>
        <time>2020-08-22T15:26:09Z</time>
      </trkpt>
      <trkpt lat="46.136398" lon="8.461406">
        <ele>837.408</ele>
        <time>2020-08-22T15:26:23Z</time>
      </trkpt>
      <trkpt lat="46.136474" lon="8.461925">
        <ele>836.990</ele>
        <time>2020-08-22T15:26:35Z</time>
      </trkpt>
      <trkpt lat="46.136466" lon="8.461966">
        <ele>836.920</ele>
        <time>2020-08-22T15:26:36Z</time>
      </trkpt>
      <trkpt lat="46.136446" lon="8.462007">
        <ele>836.959</ele>
        <time>2020-08-22T15:26:37Z</time>
      </trkpt>
      <trkpt lat="46.136417" lon="8.462024">
        <ele>836.489</ele>
        <time>2020-08-22T15:26:39Z</time>
      </trkpt>
      <trkpt lat="46.136368" lon="8.462018">
        <ele>836.036</ele>
        <time>2020-08-22T15:26:40Z</time>
      </trkpt>
      <trkpt lat="46.136328" lon="8.462006">
        <ele>836.078</ele>
        <time>2020-08-22T15:26:41Z</time>
      </trkpt>
      <trkpt lat="46.136009" lon="8.461945">
        <ele>835.076</ele>
        <time>2020-08-22T15:26:48Z</time>
      </trkpt>
      <trkpt lat="46.135344" lon="8.461837">
        <ele>833.183</ele>
        <time>2020-08-22T15:27:00Z</time>
      </trkpt>
      <trkpt lat="46.134589" lon="8.461706">
        <ele>829.747</ele>
        <time>2020-08-22T15:27:13Z</time>
      </trkpt>
      <trkpt lat="46.134379" lon="8.461676">
        <ele>828.729</ele>
        <time>2020-08-22T15:27:17Z</time>
      </trkpt>
      <trkpt lat="46.134334" lon="8.461654">
        <ele>828.321</ele>
        <time>2020-08-22T15:27:18Z</time>
      </trkpt>
      <trkpt lat="46.134300" lon="8.461613">
        <ele>828.308</ele>
        <time>2020-08-22T15:27:19Z</time>
      </trkpt>
      <trkpt lat="46.134280" lon="8.461551">
        <ele>828.349</ele>
        <time>2020-08-22T15:27:20Z</time>
      </trkpt>
      <trkpt lat="46.134269" lon="8.461496">
        <ele>828.319</ele>
        <time>2020-08-22T15:27:21Z</time>
      </trkpt>
      <trkpt lat="46.134258" lon="8.461431">
        <ele>828.398</ele>
        <time>2020-08-22T15:27:22Z</time>
      </trkpt>
      <trkpt lat="46.134230" lon="8.461313">
        <ele>828.368</ele>
        <time>2020-08-22T15:27:24Z</time>
      </trkpt>
      <trkpt lat="46.134214" lon="8.461251">
        <ele>828.375</ele>
        <time>2020-08-22T15:27:25Z</time>
      </trkpt>
      <trkpt lat="46.134036" lon="8.460200">
        <ele>826.817</ele>
        <time>2020-08-22T15:27:40Z</time>
      </trkpt>
      <trkpt lat="46.133902" lon="8.459031">
        <ele>826.885</ele>
        <time>2020-08-22T15:27:56Z</time>
      </trkpt>
      <trkpt lat="46.133829" lon="8.457679">
        <ele>826.392</ele>
        <time>2020-08-22T15:28:15Z</time>
      </trkpt>
      <trkpt lat="46.133897" lon="8.456623">
        <ele>824.979</ele>
        <time>2020-08-22T15:28:29Z</time>
      </trkpt>
      <trkpt lat="46.134035" lon="8.455295">
        <ele>824.405</ele>
        <time>2020-08-22T15:28:45Z</time>
      </trkpt>
      <trkpt lat="46.134190" lon="8.453762">
        <ele>823.025</ele>
        <time>2020-08-22T15:29:03Z</time>
      </trkpt>
      <trkpt lat="46.134329" lon="8.452346">
        <ele>823.008</ele>
        <time>2020-08-22T15:29:23Z</time>
      </trkpt>
      <trkpt lat="46.134377" lon="8.451825">
        <ele>824.452</ele>
        <time>2020-08-22T15:29:35Z</time>
      </trkpt>
      <trkpt lat="46.134405" lon="8.451476">
        <ele>824.432</ele>
        <time>2020-08-22T15:29:47Z</time>
      </trkpt>
      <trkpt lat="46.134394" lon="8.451460">
        <ele>824.411</ele>
        <time>2020-08-22T15:29:53Z</time>
      </trkpt>
      <trkpt lat="46.134382" lon="8.451442">
        <ele>824.441</ele>
        <time>2020-08-22T15:29:54Z</time>
      </trkpt>
      <trkpt lat="46.134326" lon="8.451172">
        <ele>824.468</ele>
        <time>2020-08-22T15:30:03Z</time>
      </trkpt>
      <trkpt lat="46.134472" lon="8.450462">
        <ele>824.930</ele>
        <time>2020-08-22T15:30:20Z</time>
      </trkpt>
      <trkpt lat="46.134475" lon="8.450415">
        <ele>824.928</ele>
        <time>2020-08-22T15:30:29Z</time>
      </trkpt>
      <trkpt lat="46.134456" lon="8.450406">
        <ele>824.985</ele>
        <time>2020-08-22T15:30:33Z</time>
      </trkpt>
      <trkpt lat="46.134436" lon="8.450397">
        <ele>824.924</ele>
        <time>2020-08-22T15:30:34Z</time>
      </trkpt>
      <trkpt lat="46.134397" lon="8.450390">
        <ele>824.904</ele>
        <time>2020-08-22T15:30:35Z</time>
      </trkpt>
      <trkpt lat="46.134320" lon="8.450379">
        <ele>823.514</ele>
        <time>2020-08-22T15:30:37Z</time>
      </trkpt>
      <trkpt lat="46.133533" lon="8.450124">
        <ele>821.108</ele>
        <time>2020-08-22T15:30:53Z</time>
      </trkpt>
      <trkpt lat="46.132742" lon="8.449936">
        <ele>819.637</ele>
        <time>2020-08-22T15:31:09Z</time>
      </trkpt>
      <trkpt lat="46.132573" lon="8.449906">
        <ele>819.177</ele>
        <time>2020-08-22T15:31:13Z</time>
      </trkpt>
      <trkpt lat="46.132131" lon="8.449859">
        <ele>818.746</ele>
        <time>2020-08-22T15:31:26Z</time>
      </trkpt>
      <trkpt lat="46.131733" lon="8.449738">
        <ele>818.716</ele>
        <time>2020-08-22T15:31:39Z</time>
      </trkpt>
      <trkpt lat="46.131374" lon="8.449068">
        <ele>820.683</ele>
        <time>2020-08-22T15:31:55Z</time>
      </trkpt>
      <trkpt lat="46.130950" lon="8.448254">
        <ele>820.685</ele>
        <time>2020-08-22T15:32:13Z</time>
      </trkpt>
      <trkpt lat="46.130463" lon="8.447547">
        <ele>821.513</ele>
        <time>2020-08-22T15:32:30Z</time>
      </trkpt>
      <trkpt lat="46.130033" lon="8.446855">
        <ele>822.030</ele>
        <time>2020-08-22T15:32:46Z</time>
      </trkpt>
      <trkpt lat="46.129705" lon="8.446218">
        <ele>823.074</ele>
        <time>2020-08-22T15:33:01Z</time>
      </trkpt>
      <trkpt lat="46.129620" lon="8.445733">
        <ele>823.056</ele>
        <time>2020-08-22T15:33:10Z</time>
      </trkpt>
      <trkpt lat="46.129530" lon="8.445156">
        <ele>823.521</ele>
        <time>2020-08-22T15:33:21Z</time>
      </trkpt>
      <trkpt lat="46.129499" lon="8.444938">
        <ele>824.908</ele>
        <time>2020-08-22T15:33:28Z</time>
      </trkpt>
      <trkpt lat="46.129502" lon="8.444914">
        <ele>824.992</ele>
        <time>2020-08-22T15:33:29Z</time>
      </trkpt>
      <trkpt lat="46.129508" lon="8.444894">
        <ele>824.962</ele>
        <time>2020-08-22T15:33:30Z</time>
      </trkpt>
      <trkpt lat="46.129515" lon="8.444874">
        <ele>825.911</ele>
        <time>2020-08-22T15:33:31Z</time>
      </trkpt>
      <trkpt lat="46.129518" lon="8.444851">
        <ele>825.951</ele>
        <time>2020-08-22T15:33:32Z</time>
      </trkpt>
      <trkpt lat="46.129537" lon="8.444704">
        <ele>827.898</ele>
        <time>2020-08-22T15:33:39Z</time>
      </trkpt>
      <trkpt lat="46.129532" lon="8.444685">
        <ele>828.320</ele>
        <time>2020-08-22T15:33:40Z</time>
      </trkpt>
      <trkpt lat="46.129524" lon="8.444666">
        <ele>828.368</ele>
        <time>2020-08-22T15:33:41Z</time>
      </trkpt>
      <trkpt lat="46.129512" lon="8.444643">
        <ele>828.735</ele>
        <time>2020-08-22T15:33:42Z</time>
      </trkpt>
      <trkpt lat="46.129517" lon="8.444616">
        <ele>828.711</ele>
        <time>2020-08-22T15:33:43Z</time>
      </trkpt>
      <trkpt lat="46.129511" lon="8.444586">
        <ele>829.221</ele>
        <time>2020-08-22T15:33:44Z</time>
      </trkpt>
      <trkpt lat="46.129475" lon="8.444262">
        <ele>830.203</ele>
        <time>2020-08-22T15:33:58Z</time>
      </trkpt>
      <trkpt lat="46.129466" lon="8.444206">
        <ele>830.208</ele>
        <time>2020-08-22T15:34:00Z</time>
      </trkpt>
      <trkpt lat="46.129468" lon="8.444178">
        <ele>830.216</ele>
        <time>2020-08-22T15:34:01Z</time>
      </trkpt>
      <trkpt lat="46.129538" lon="8.443784">
        <ele>828.716</ele>
        <time>2020-08-22T15:34:09Z</time>
      </trkpt>
      <trkpt lat="46.129797" lon="8.443339">
        <ele>830.215</ele>
        <time>2020-08-22T15:34:20Z</time>
      </trkpt>
      <trkpt lat="46.129819" lon="8.443303">
        <ele>830.235</ele>
        <time>2020-08-22T15:34:21Z</time>
      </trkpt>
      <trkpt lat="46.130065" lon="8.442703">
        <ele>830.252</ele>
        <time>2020-08-22T15:34:34Z</time>
      </trkpt>
      <trkpt lat="46.130099" lon="8.442574">
        <ele>830.294</ele>
        <time>2020-08-22T15:34:36Z</time>
      </trkpt>
      <trkpt lat="46.130112" lon="8.442503">
        <ele>828.732</ele>
        <time>2020-08-22T15:34:37Z</time>
      </trkpt>
      <trkpt lat="46.130121" lon="8.442428">
        <ele>828.349</ele>
        <time>2020-08-22T15:34:38Z</time>
      </trkpt>
      <trkpt lat="46.130134" lon="8.442284">
        <ele>828.326</ele>
        <time>2020-08-22T15:34:40Z</time>
      </trkpt>
      <trkpt lat="46.130319" lon="8.441199">
        <ele>827.347</ele>
        <time>2020-08-22T15:34:52Z</time>
      </trkpt>
      <trkpt lat="46.130337" lon="8.441131">
        <ele>827.311</ele>
        <time>2020-08-22T15:34:53Z</time>
      </trkpt>
      <trkpt lat="46.130368" lon="8.441051">
        <ele>827.308</ele>
        <time>2020-08-22T15:34:54Z</time>
      </trkpt>
      <trkpt lat="46.130398" lon="8.440995">
        <ele>827.367</ele>
        <time>2020-08-22T15:34:55Z</time>
      </trkpt>
      <trkpt lat="46.130890" lon="8.440418">
        <ele>826.867</ele>
        <time>2020-08-22T15:35:10Z</time>
      </trkpt>
      <trkpt lat="46.131383" lon="8.440059">
        <ele>826.816</ele>
        <time>2020-08-22T15:35:26Z</time>
      </trkpt>
      <trkpt lat="46.131828" lon="8.439766">
        <ele>826.896</ele>
        <time>2020-08-22T15:35:39Z</time>
      </trkpt>
      <trkpt lat="46.131841" lon="8.439724">
        <ele>826.853</ele>
        <time>2020-08-22T15:35:40Z</time>
      </trkpt>
      <trkpt lat="46.131845" lon="8.439683">
        <ele>826.835</ele>
        <time>2020-08-22T15:35:41Z</time>
      </trkpt>
      <trkpt lat="46.131954" lon="8.439183">
        <ele>828.313</ele>
        <time>2020-08-22T15:35:52Z</time>
      </trkpt>
      <trkpt lat="46.132197" lon="8.438441">
        <ele>829.280</ele>
        <time>2020-08-22T15:36:07Z</time>
      </trkpt>
      <trkpt lat="46.132287" lon="8.437642">
        <ele>829.261</ele>
        <time>2020-08-22T15:36:21Z</time>
      </trkpt>
      <trkpt lat="46.132391" lon="8.436876">
        <ele>830.221</ele>
        <time>2020-08-22T15:36:36Z</time>
      </trkpt>
      <trkpt lat="46.132250" lon="8.436441">
        <ele>830.713</ele>
        <time>2020-08-22T15:36:48Z</time>
      </trkpt>
      <trkpt lat="46.132029" lon="8.435680">
        <ele>832.108</ele>
        <time>2020-08-22T15:37:05Z</time>
      </trkpt>
      <trkpt lat="46.131997" lon="8.435419">
        <ele>833.671</ele>
        <time>2020-08-22T15:37:13Z</time>
      </trkpt>
      <trkpt lat="46.131996" lon="8.435403">
        <ele>833.611</ele>
        <time>2020-08-22T15:37:14Z</time>
      </trkpt>
      <trkpt lat="46.132006" lon="8.435321">
        <ele>833.680</ele>
        <time>2020-08-22T15:37:29Z</time>
      </trkpt>
      <trkpt lat="46.131997" lon="8.435321">
        <ele>833.650</ele>
        <time>2020-08-22T15:37:46Z</time>
      </trkpt>
      <trkpt lat="46.131990" lon="8.435301">
        <ele>833.647</ele>
        <time>2020-08-22T15:37:47Z</time>
      </trkpt>
      <trkpt lat="46.131982" lon="8.435284">
        <ele>833.679</ele>
        <time>2020-08-22T15:37:48Z</time>
      </trkpt>
      <trkpt lat="46.131971" lon="8.435260">
        <ele>833.667</ele>
        <time>2020-08-22T15:37:49Z</time>
      </trkpt>
      <trkpt lat="46.131959" lon="8.435234">
        <ele>833.694</ele>
        <time>2020-08-22T15:37:50Z</time>
      </trkpt>
      <trkpt lat="46.131946" lon="8.435196">
        <ele>833.612</ele>
        <time>2020-08-22T15:37:51Z</time>
      </trkpt>
      <trkpt lat="46.131939" lon="8.435154">
        <ele>833.632</ele>
        <time>2020-08-22T15:37:52Z</time>
      </trkpt>
      <trkpt lat="46.131941" lon="8.435115">
        <ele>833.605</ele>
        <time>2020-08-22T15:37:53Z</time>
      </trkpt>
      <trkpt lat="46.131949" lon="8.435075">
        <ele>833.608</ele>
        <time>2020-08-22T15:37:54Z</time>
      </trkpt>
      <trkpt lat="46.131958" lon="8.435034">
        <ele>833.616</ele>
        <time>2020-08-22T15:37:55Z</time>
      </trkpt>
      <trkpt lat="46.132146" lon="8.434770">
        <ele>833.626</ele>
        <time>2020-08-22T15:38:03Z</time>
      </trkpt>
      <trkpt lat="46.132190" lon="8.434762">
        <ele>833.665</ele>
        <time>2020-08-22T15:38:04Z</time>
      </trkpt>
      <trkpt lat="46.132239" lon="8.434762">
        <ele>833.685</ele>
        <time>2020-08-22T15:38:05Z</time>
      </trkpt>
      <trkpt lat="46.132500" lon="8.434765">
        <ele>831.642</ele>
        <time>2020-08-22T15:38:10Z</time>
      </trkpt>
      <trkpt lat="46.132864" lon="8.434765">
        <ele>831.214</ele>
        <time>2020-08-22T15:38:18Z</time>
      </trkpt>
      <trkpt lat="46.132888" lon="8.434734">
        <ele>831.232</ele>
        <time>2020-08-22T15:38:19Z</time>
      </trkpt>
      <trkpt lat="46.132906" lon="8.434690">
        <ele>831.289</ele>
        <time>2020-08-22T15:38:20Z</time>
      </trkpt>
      <trkpt lat="46.132914" lon="8.434654">
        <ele>831.299</ele>
        <time>2020-08-22T15:38:21Z</time>
      </trkpt>
      <trkpt lat="46.132923" lon="8.434605">
        <ele>831.207</ele>
        <time>2020-08-22T15:38:22Z</time>
      </trkpt>
      <trkpt lat="46.132959" lon="8.433826">
        <ele>830.727</ele>
        <time>2020-08-22T15:38:35Z</time>
      </trkpt>
      <trkpt lat="46.132967" lon="8.433765">
        <ele>830.708</ele>
        <time>2020-08-22T15:38:36Z</time>
      </trkpt>
      <trkpt lat="46.133050" lon="8.432677">
        <ele>830.784</ele>
        <time>2020-08-22T15:38:52Z</time>
      </trkpt>
      <trkpt lat="46.132933" lon="8.431464">
        <ele>830.234</ele>
        <time>2020-08-22T15:39:09Z</time>
      </trkpt>
      <trkpt lat="46.133042" lon="8.431235">
        <ele>830.773</ele>
        <time>2020-08-22T15:42:02Z</time>
      </trkpt>
      <trkpt lat="46.133436" lon="8.430965">
        <ele>832.643</ele>
        <time>2020-08-22T15:42:19Z</time>
      </trkpt>
      <trkpt lat="46.133653" lon="8.430848">
        <ele>833.650</ele>
        <time>2020-08-22T15:42:33Z</time>
      </trkpt>
      <trkpt lat="46.133683" lon="8.430811">
        <ele>833.642</ele>
        <time>2020-08-22T15:42:37Z</time>
      </trkpt>
      <trkpt lat="46.133684" lon="8.430786">
        <ele>833.640</ele>
        <time>2020-08-22T15:42:38Z</time>
      </trkpt>
      <trkpt lat="46.133680" lon="8.430744">
        <ele>833.667</ele>
        <time>2020-08-22T15:42:39Z</time>
      </trkpt>
      <trkpt lat="46.133666" lon="8.430688">
        <ele>833.618</ele>
        <time>2020-08-22T15:42:40Z</time>
      </trkpt>
      <trkpt lat="46.133644" lon="8.430634">
        <ele>833.698</ele>
        <time>2020-08-22T15:42:41Z</time>
      </trkpt>
      <trkpt lat="46.133619" lon="8.430581">
        <ele>833.617</ele>
        <time>2020-08-22T15:42:42Z</time>
      </trkpt>
      <trkpt lat="46.133362" lon="8.430002">
        <ele>832.108</ele>
        <time>2020-08-22T15:42:51Z</time>
      </trkpt>
      <trkpt lat="46.132760" lon="8.428654">
        <ele>830.246</ele>
        <time>2020-08-22T15:43:09Z</time>
      </trkpt>
      <trkpt lat="46.132052" lon="8.426826">
        <ele>828.746</ele>
        <time>2020-08-22T15:43:30Z</time>
      </trkpt>
      <trkpt lat="46.131735" lon="8.424595">
        <ele>825.935</ele>
        <time>2020-08-22T15:43:52Z</time>
      </trkpt>
      <trkpt lat="46.131676" lon="8.424130">
        <ele>823.935</ele>
        <time>2020-08-22T15:43:56Z</time>
      </trkpt>
      <trkpt lat="46.131633" lon="8.423735">
        <ele>822.552</ele>
        <time>2020-08-22T15:43:59Z</time>
      </trkpt>
      <trkpt lat="46.131629" lon="8.423596">
        <ele>821.554</ele>
        <time>2020-08-22T15:44:00Z</time>
      </trkpt>
      <trkpt lat="46.131678" lon="8.422906">
        <ele>819.192</ele>
        <time>2020-08-22T15:44:05Z</time>
      </trkpt>
      <trkpt lat="46.131846" lon="8.422165">
        <ele>815.869</ele>
        <time>2020-08-22T15:44:10Z</time>
      </trkpt>
      <trkpt lat="46.131973" lon="8.421687">
        <ele>812.996</ele>
        <time>2020-08-22T15:44:13Z</time>
      </trkpt>
      <trkpt lat="46.132138" lon="8.420994">
        <ele>809.531</ele>
        <time>2020-08-22T15:44:17Z</time>
      </trkpt>
      <trkpt lat="46.132159" lon="8.420810">
        <ele>808.124</ele>
        <time>2020-08-22T15:44:18Z</time>
      </trkpt>
      <trkpt lat="46.132169" lon="8.420621">
        <ele>807.108</ele>
        <time>2020-08-22T15:44:19Z</time>
      </trkpt>
      <trkpt lat="46.132163" lon="8.420411">
        <ele>805.734</ele>
        <time>2020-08-22T15:44:20Z</time>
      </trkpt>
      <trkpt lat="46.132142" lon="8.420237">
        <ele>804.714</ele>
        <time>2020-08-22T15:44:21Z</time>
      </trkpt>
      <trkpt lat="46.132109" lon="8.420038">
        <ele>803.313</ele>
        <time>2020-08-22T15:44:22Z</time>
      </trkpt>
      <trkpt lat="46.132066" lon="8.419850">
        <ele>803.333</ele>
        <time>2020-08-22T15:44:23Z</time>
      </trkpt>
      <trkpt lat="46.132014" lon="8.419661">
        <ele>801.820</ele>
        <time>2020-08-22T15:44:24Z</time>
      </trkpt>
      <trkpt lat="46.131859" lon="8.419073">
        <ele>797.092</ele>
        <time>2020-08-22T15:44:27Z</time>
      </trkpt>
      <trkpt lat="46.131692" lon="8.418450">
        <ele>792.750</ele>
        <time>2020-08-22T15:44:30Z</time>
      </trkpt>
      <trkpt lat="46.131589" lon="8.417986">
        <ele>789.887</ele>
        <time>2020-08-22T15:44:32Z</time>
      </trkpt>
      <trkpt lat="46.131565" lon="8.417812">
        <ele>789.365</ele>
        <time>2020-08-22T15:44:33Z</time>
      </trkpt>
      <trkpt lat="46.131544" lon="8.417569">
        <ele>787.468</ele>
        <time>2020-08-22T15:44:34Z</time>
      </trkpt>
      <trkpt lat="46.131536" lon="8.417356">
        <ele>786.014</ele>
        <time>2020-08-22T15:44:35Z</time>
      </trkpt>
      <trkpt lat="46.131537" lon="8.417127">
        <ele>784.008</ele>
        <time>2020-08-22T15:44:36Z</time>
      </trkpt>
      <trkpt lat="46.131548" lon="8.416899">
        <ele>783.141</ele>
        <time>2020-08-22T15:44:37Z</time>
      </trkpt>
      <trkpt lat="46.131568" lon="8.416669">
        <ele>782.111</ele>
        <time>2020-08-22T15:44:38Z</time>
      </trkpt>
      <trkpt lat="46.131612" lon="8.416207">
        <ele>778.880</ele>
        <time>2020-08-22T15:44:40Z</time>
      </trkpt>
      <trkpt lat="46.131671" lon="8.415505">
        <ele>774.980</ele>
        <time>2020-08-22T15:44:43Z</time>
      </trkpt>
      <trkpt lat="46.131717" lon="8.414839">
        <ele>771.687</ele>
        <time>2020-08-22T15:44:46Z</time>
      </trkpt>
      <trkpt lat="46.131723" lon="8.414190">
        <ele>767.769</ele>
        <time>2020-08-22T15:44:49Z</time>
      </trkpt>
      <trkpt lat="46.131695" lon="8.413372">
        <ele>764.337</ele>
        <time>2020-08-22T15:44:53Z</time>
      </trkpt>
      <trkpt lat="46.131657" lon="8.412609">
        <ele>761.994</ele>
        <time>2020-08-22T15:44:57Z</time>
      </trkpt>
      <trkpt lat="46.131634" lon="8.412435">
        <ele>761.014</ele>
        <time>2020-08-22T15:44:58Z</time>
      </trkpt>
      <trkpt lat="46.131593" lon="8.412275">
        <ele>760.554</ele>
        <time>2020-08-22T15:44:59Z</time>
      </trkpt>
      <trkpt lat="46.131533" lon="8.412115">
        <ele>760.509</ele>
        <time>2020-08-22T15:45:00Z</time>
      </trkpt>
      <trkpt lat="46.131387" lon="8.411708">
        <ele>759.508</ele>
        <time>2020-08-22T15:45:03Z</time>
      </trkpt>
      <trkpt lat="46.131358" lon="8.411570">
        <ele>759.146</ele>
        <time>2020-08-22T15:45:04Z</time>
      </trkpt>
      <trkpt lat="46.131207" lon="8.410198">
        <ele>755.786</ele>
        <time>2020-08-22T15:45:14Z</time>
      </trkpt>
      <trkpt lat="46.131206" lon="8.410059">
        <ele>755.285</ele>
        <time>2020-08-22T15:45:15Z</time>
      </trkpt>
      <trkpt lat="46.131221" lon="8.409908">
        <ele>754.755</ele>
        <time>2020-08-22T15:45:16Z</time>
      </trkpt>
      <trkpt lat="46.131252" lon="8.409770">
        <ele>754.782</ele>
        <time>2020-08-22T15:45:17Z</time>
      </trkpt>
      <trkpt lat="46.131292" lon="8.409640">
        <ele>753.874</ele>
        <time>2020-08-22T15:45:18Z</time>
      </trkpt>
      <trkpt lat="46.131332" lon="8.409499">
        <ele>753.842</ele>
        <time>2020-08-22T15:45:19Z</time>
      </trkpt>
      <trkpt lat="46.131357" lon="8.409354">
        <ele>753.329</ele>
        <time>2020-08-22T15:45:20Z</time>
      </trkpt>
      <trkpt lat="46.131362" lon="8.409248">
        <ele>752.832</ele>
        <time>2020-08-22T15:45:21Z</time>
      </trkpt>
      <trkpt lat="46.131359" lon="8.409100">
        <ele>752.892</ele>
        <time>2020-08-22T15:45:22Z</time>
      </trkpt>
      <trkpt lat="46.131353" lon="8.408957">
        <ele>752.311</ele>
        <time>2020-08-22T15:45:23Z</time>
      </trkpt>
      <trkpt lat="46.131309" lon="8.408510">
        <ele>749.408</ele>
        <time>2020-08-22T15:45:26Z</time>
      </trkpt>
      <trkpt lat="46.131274" lon="8.408363">
        <ele>748.578</ele>
        <time>2020-08-22T15:45:27Z</time>
      </trkpt>
      <trkpt lat="46.131220" lon="8.408221">
        <ele>748.028</ele>
        <time>2020-08-22T15:45:28Z</time>
      </trkpt>
      <trkpt lat="46.131166" lon="8.408088">
        <ele>748.037</ele>
        <time>2020-08-22T15:45:29Z</time>
      </trkpt>
      <trkpt lat="46.131114" lon="8.407953">
        <ele>747.057</ele>
        <time>2020-08-22T15:45:30Z</time>
      </trkpt>
      <trkpt lat="46.131074" lon="8.407812">
        <ele>746.664</ele>
        <time>2020-08-22T15:45:31Z</time>
      </trkpt>
      <trkpt lat="46.131053" lon="8.407668">
        <ele>746.146</ele>
        <time>2020-08-22T15:45:32Z</time>
      </trkpt>
      <trkpt lat="46.131051" lon="8.407507">
        <ele>746.194</ele>
        <time>2020-08-22T15:45:33Z</time>
      </trkpt>
      <trkpt lat="46.131164" lon="8.406180">
        <ele>745.671</ele>
        <time>2020-08-22T15:45:44Z</time>
      </trkpt>
      <trkpt lat="46.131217" lon="8.405808">
        <ele>747.042</ele>
        <time>2020-08-22T15:45:48Z</time>
      </trkpt>
      <trkpt lat="46.131235" lon="8.405734">
        <ele>747.022</ele>
        <time>2020-08-22T15:45:49Z</time>
      </trkpt>
      <trkpt lat="46.131300" lon="8.405527">
        <ele>747.014</ele>
        <time>2020-08-22T15:45:52Z</time>
      </trkpt>
      <trkpt lat="46.131311" lon="8.405469">
        <ele>747.008</ele>
        <time>2020-08-22T15:45:53Z</time>
      </trkpt>
      <trkpt lat="46.131310" lon="8.405411">
        <ele>747.049</ele>
        <time>2020-08-22T15:45:54Z</time>
      </trkpt>
      <trkpt lat="46.131297" lon="8.405357">
        <ele>747.059</ele>
        <time>2020-08-22T15:45:55Z</time>
      </trkpt>
      <trkpt lat="46.131278" lon="8.405299">
        <ele>747.018</ele>
        <time>2020-08-22T15:45:56Z</time>
      </trkpt>
      <trkpt lat="46.131253" lon="8.405240">
        <ele>747.558</ele>
        <time>2020-08-22T15:45:57Z</time>
      </trkpt>
      <trkpt lat="46.131048" lon="8.404740">
        <ele>747.515</ele>
        <time>2020-08-22T15:46:05Z</time>
      </trkpt>
      <trkpt lat="46.130922" lon="8.404248">
        <ele>744.297</ele>
        <time>2020-08-22T15:46:11Z</time>
      </trkpt>
      <trkpt lat="46.130617" lon="8.403396">
        <ele>741.315</ele>
        <time>2020-08-22T15:46:19Z</time>
      </trkpt>
      <trkpt lat="46.130587" lon="8.403259">
        <ele>740.392</ele>
        <time>2020-08-22T15:46:20Z</time>
      </trkpt>
      <trkpt lat="46.130570" lon="8.403122">
        <ele>739.815</ele>
        <time>2020-08-22T15:46:21Z</time>
      </trkpt>
      <trkpt lat="46.130558" lon="8.402973">
        <ele>738.965</ele>
        <time>2020-08-22T15:46:22Z</time>
      </trkpt>
      <trkpt lat="46.130496" lon="8.402182">
        <ele>735.511</ele>
        <time>2020-08-22T15:46:27Z</time>
      </trkpt>
      <trkpt lat="46.130452" lon="8.402032">
        <ele>734.508</ele>
        <time>2020-08-22T15:46:28Z</time>
      </trkpt>
      <trkpt lat="46.130398" lon="8.401894">
        <ele>733.676</ele>
        <time>2020-08-22T15:46:29Z</time>
      </trkpt>
      <trkpt lat="46.130283" lon="8.401603">
        <ele>731.216</ele>
        <time>2020-08-22T15:46:31Z</time>
      </trkpt>
      <trkpt lat="46.130249" lon="8.401431">
        <ele>730.275</ele>
        <time>2020-08-22T15:46:32Z</time>
      </trkpt>
      <trkpt lat="46.130240" lon="8.401268">
        <ele>729.325</ele>
        <time>2020-08-22T15:46:33Z</time>
      </trkpt>
      <trkpt lat="46.130256" lon="8.401065">
        <ele>728.392</ele>
        <time>2020-08-22T15:46:34Z</time>
      </trkpt>
      <trkpt lat="46.130279" lon="8.400911">
        <ele>727.894</ele>
        <time>2020-08-22T15:46:35Z</time>
      </trkpt>
      <trkpt lat="46.130327" lon="8.400368">
        <ele>725.442</ele>
        <time>2020-08-22T15:46:38Z</time>
      </trkpt>
      <trkpt lat="46.130277" lon="8.399660">
        <ele>722.059</ele>
        <time>2020-08-22T15:46:42Z</time>
      </trkpt>
      <trkpt lat="46.130183" lon="8.398674">
        <ele>718.767</ele>
        <time>2020-08-22T15:46:48Z</time>
      </trkpt>
      <trkpt lat="46.130168" lon="8.398517">
        <ele>718.781</ele>
        <time>2020-08-22T15:46:49Z</time>
      </trkpt>
      <trkpt lat="46.129974" lon="8.396842">
        <ele>716.319</ele>
        <time>2020-08-22T15:47:01Z</time>
      </trkpt>
      <trkpt lat="46.129943" lon="8.396735">
        <ele>716.308</ele>
        <time>2020-08-22T15:47:02Z</time>
      </trkpt>
      <trkpt lat="46.129415" lon="8.395518">
        <ele>715.311</ele>
        <time>2020-08-22T15:47:15Z</time>
      </trkpt>
      <trkpt lat="46.128878" lon="8.394419">
        <ele>712.991</ele>
        <time>2020-08-22T15:47:27Z</time>
      </trkpt>
      <trkpt lat="46.128819" lon="8.394352">
        <ele>712.970</ele>
        <time>2020-08-22T15:47:28Z</time>
      </trkpt>
      <trkpt lat="46.128747" lon="8.394279">
        <ele>712.450</ele>
        <time>2020-08-22T15:47:29Z</time>
      </trkpt>
      <trkpt lat="46.128682" lon="8.394224">
        <ele>712.447</ele>
        <time>2020-08-22T15:47:30Z</time>
      </trkpt>
      <trkpt lat="46.128606" lon="8.394167">
        <ele>712.469</ele>
        <time>2020-08-22T15:47:31Z</time>
      </trkpt>
      <trkpt lat="46.128143" lon="8.393798">
        <ele>710.047</ele>
        <time>2020-08-22T15:47:37Z</time>
      </trkpt>
      <trkpt lat="46.128070" lon="8.393715">
        <ele>709.514</ele>
        <time>2020-08-22T15:47:38Z</time>
      </trkpt>
      <trkpt lat="46.128000" lon="8.393618">
        <ele>709.595</ele>
        <time>2020-08-22T15:47:39Z</time>
      </trkpt>
      <trkpt lat="46.127936" lon="8.393506">
        <ele>708.649</ele>
        <time>2020-08-22T15:47:40Z</time>
      </trkpt>
      <trkpt lat="46.127881" lon="8.393377">
        <ele>708.623</ele>
        <time>2020-08-22T15:47:41Z</time>
      </trkpt>
      <trkpt lat="46.127836" lon="8.393228">
        <ele>707.608</ele>
        <time>2020-08-22T15:47:42Z</time>
      </trkpt>
      <trkpt lat="46.127808" lon="8.393087">
        <ele>706.734</ele>
        <time>2020-08-22T15:47:43Z</time>
      </trkpt>
      <trkpt lat="46.127787" lon="8.392921">
        <ele>706.284</ele>
        <time>2020-08-22T15:47:44Z</time>
      </trkpt>
      <trkpt lat="46.127774" lon="8.392784">
        <ele>706.263</ele>
        <time>2020-08-22T15:47:45Z</time>
      </trkpt>
      <trkpt lat="46.127710" lon="8.392283">
        <ele>704.313</ele>
        <time>2020-08-22T15:47:48Z</time>
      </trkpt>
      <trkpt lat="46.127681" lon="8.392162">
        <ele>703.830</ele>
        <time>2020-08-22T15:47:49Z</time>
      </trkpt>
      <trkpt lat="46.127625" lon="8.391987">
        <ele>703.322</ele>
        <time>2020-08-22T15:47:50Z</time>
      </trkpt>
      <trkpt lat="46.127472" lon="8.391584">
        <ele>702.390</ele>
        <time>2020-08-22T15:47:53Z</time>
      </trkpt>
      <trkpt lat="46.127431" lon="8.391428">
        <ele>701.427</ele>
        <time>2020-08-22T15:47:54Z</time>
      </trkpt>
      <trkpt lat="46.127406" lon="8.391259">
        <ele>700.997</ele>
        <time>2020-08-22T15:47:55Z</time>
      </trkpt>
      <trkpt lat="46.127396" lon="8.391092">
        <ele>700.423</ele>
        <time>2020-08-22T15:47:56Z</time>
      </trkpt>
      <trkpt lat="46.127394" lon="8.390924">
        <ele>699.925</ele>
        <time>2020-08-22T15:47:57Z</time>
      </trkpt>
      <trkpt lat="46.127401" lon="8.390398">
        <ele>696.608</ele>
        <time>2020-08-22T15:48:00Z</time>
      </trkpt>
      <trkpt lat="46.127411" lon="8.390031">
        <ele>694.654</ele>
        <time>2020-08-22T15:48:02Z</time>
      </trkpt>
      <trkpt lat="46.127435" lon="8.389851">
        <ele>694.294</ele>
        <time>2020-08-22T15:48:03Z</time>
      </trkpt>
      <trkpt lat="46.127480" lon="8.389678">
        <ele>693.293</ele>
        <time>2020-08-22T15:48:04Z</time>
      </trkpt>
      <trkpt lat="46.127540" lon="8.389513">
        <ele>692.273</ele>
        <time>2020-08-22T15:48:05Z</time>
      </trkpt>
      <trkpt lat="46.127618" lon="8.389353">
        <ele>690.840</ele>
        <time>2020-08-22T15:48:06Z</time>
      </trkpt>
      <trkpt lat="46.127726" lon="8.389175">
        <ele>689.492</ele>
        <time>2020-08-22T15:48:07Z</time>
      </trkpt>
      <trkpt lat="46.127802" lon="8.389048">
        <ele>688.470</ele>
        <time>2020-08-22T15:48:08Z</time>
      </trkpt>
      <trkpt lat="46.128058" lon="8.388575">
        <ele>685.577</ele>
        <time>2020-08-22T15:48:11Z</time>
      </trkpt>
      <trkpt lat="46.128124" lon="8.388403">
        <ele>684.686</ele>
        <time>2020-08-22T15:48:12Z</time>
      </trkpt>
      <trkpt lat="46.128171" lon="8.388217">
        <ele>682.660</ele>
        <time>2020-08-22T15:48:13Z</time>
      </trkpt>
      <trkpt lat="46.128198" lon="8.388022">
        <ele>681.226</ele>
        <time>2020-08-22T15:48:14Z</time>
      </trkpt>
      <trkpt lat="46.128210" lon="8.387812">
        <ele>680.208</ele>
        <time>2020-08-22T15:48:15Z</time>
      </trkpt>
      <trkpt lat="46.128209" lon="8.387610">
        <ele>679.383</ele>
        <time>2020-08-22T15:48:16Z</time>
      </trkpt>
      <trkpt lat="46.128204" lon="8.387410">
        <ele>678.333</ele>
        <time>2020-08-22T15:48:17Z</time>
      </trkpt>
      <trkpt lat="46.128182" lon="8.387017">
        <ele>675.912</ele>
        <time>2020-08-22T15:48:19Z</time>
      </trkpt>
      <trkpt lat="46.128141" lon="8.386791">
        <ele>674.062</ele>
        <time>2020-08-22T15:48:20Z</time>
      </trkpt>
      <trkpt lat="46.128098" lon="8.386649">
        <ele>673.549</ele>
        <time>2020-08-22T15:48:21Z</time>
      </trkpt>
      <trkpt lat="46.128028" lon="8.386472">
        <ele>671.651</ele>
        <time>2020-08-22T15:48:22Z</time>
      </trkpt>
      <trkpt lat="46.127952" lon="8.386310">
        <ele>670.119</ele>
        <time>2020-08-22T15:48:23Z</time>
      </trkpt>
      <trkpt lat="46.127738" lon="8.385777">
        <ele>666.856</ele>
        <time>2020-08-22T15:48:26Z</time>
      </trkpt>
      <trkpt lat="46.127625" lon="8.385250">
        <ele>663.444</ele>
        <time>2020-08-22T15:48:29Z</time>
      </trkpt>
      <trkpt lat="46.127537" lon="8.384670">
        <ele>659.605</ele>
        <time>2020-08-22T15:48:32Z</time>
      </trkpt>
      <trkpt lat="46.127476" lon="8.384075">
        <ele>656.215</ele>
        <time>2020-08-22T15:48:35Z</time>
      </trkpt>
      <trkpt lat="46.127478" lon="8.383859">
        <ele>655.208</ele>
        <time>2020-08-22T15:48:36Z</time>
      </trkpt>
      <trkpt lat="46.127494" lon="8.383258">
        <ele>651.479</ele>
        <time>2020-08-22T15:48:39Z</time>
      </trkpt>
      <trkpt lat="46.127497" lon="8.382879">
        <ele>649.049</ele>
        <time>2020-08-22T15:48:41Z</time>
      </trkpt>
      <trkpt lat="46.127478" lon="8.382695">
        <ele>647.538</ele>
        <time>2020-08-22T15:48:42Z</time>
      </trkpt>
      <trkpt lat="46.127433" lon="8.382512">
        <ele>646.668</ele>
        <time>2020-08-22T15:48:43Z</time>
      </trkpt>
      <trkpt lat="46.127372" lon="8.382350">
        <ele>645.155</ele>
        <time>2020-08-22T15:48:44Z</time>
      </trkpt>
      <trkpt lat="46.127298" lon="8.382195">
        <ele>643.757</ele>
        <time>2020-08-22T15:48:45Z</time>
      </trkpt>
      <trkpt lat="46.127217" lon="8.382048">
        <ele>642.395</ele>
        <time>2020-08-22T15:48:46Z</time>
      </trkpt>
      <trkpt lat="46.126906" lon="8.381404">
        <ele>638.492</ele>
        <time>2020-08-22T15:48:50Z</time>
      </trkpt>
      <trkpt lat="46.126847" lon="8.381209">
        <ele>636.581</ele>
        <time>2020-08-22T15:48:51Z</time>
      </trkpt>
      <trkpt lat="46.126804" lon="8.381017">
        <ele>636.061</ele>
        <time>2020-08-22T15:48:52Z</time>
      </trkpt>
      <trkpt lat="46.126770" lon="8.380801">
        <ele>634.617</ele>
        <time>2020-08-22T15:48:53Z</time>
      </trkpt>
      <trkpt lat="46.126756" lon="8.380626">
        <ele>633.108</ele>
        <time>2020-08-22T15:48:54Z</time>
      </trkpt>
      <trkpt lat="46.126751" lon="8.380419">
        <ele>632.213</ele>
        <time>2020-08-22T15:48:55Z</time>
      </trkpt>
      <trkpt lat="46.126762" lon="8.380210">
        <ele>631.223</ele>
        <time>2020-08-22T15:48:56Z</time>
      </trkpt>
      <trkpt lat="46.126790" lon="8.379987">
        <ele>629.392</ele>
        <time>2020-08-22T15:48:57Z</time>
      </trkpt>
      <trkpt lat="46.126826" lon="8.379780">
        <ele>628.852</ele>
        <time>2020-08-22T15:48:58Z</time>
      </trkpt>
      <trkpt lat="46.126914" lon="8.379368">
        <ele>625.999</ele>
        <time>2020-08-22T15:49:00Z</time>
      </trkpt>
      <trkpt lat="46.127045" lon="8.378970">
        <ele>623.071</ele>
        <time>2020-08-22T15:49:02Z</time>
      </trkpt>
      <trkpt lat="46.127276" lon="8.378375">
        <ele>620.189</ele>
        <time>2020-08-22T15:49:05Z</time>
      </trkpt>
      <trkpt lat="46.127336" lon="8.378172">
        <ele>618.796</ele>
        <time>2020-08-22T15:49:06Z</time>
      </trkpt>
      <trkpt lat="46.127379" lon="8.377965">
        <ele>617.719</ele>
        <time>2020-08-22T15:49:07Z</time>
      </trkpt>
      <trkpt lat="46.127486" lon="8.377329">
        <ele>614.409</ele>
        <time>2020-08-22T15:49:10Z</time>
      </trkpt>
      <trkpt lat="46.127557" lon="8.376927">
        <ele>613.419</ele>
        <time>2020-08-22T15:49:12Z</time>
      </trkpt>
      <trkpt lat="46.127617" lon="8.376541">
        <ele>611.508</ele>
        <time>2020-08-22T15:49:14Z</time>
      </trkpt>
      <trkpt lat="46.127653" lon="8.375601">
        <ele>611.536</ele>
        <time>2020-08-22T15:49:21Z</time>
      </trkpt>
      <trkpt lat="46.127652" lon="8.374678">
        <ele>611.046</ele>
        <time>2020-08-22T15:49:31Z</time>
      </trkpt>
      <trkpt lat="46.127662" lon="8.374217">
        <ele>608.125</ele>
        <time>2020-08-22T15:49:37Z</time>
      </trkpt>
      <trkpt lat="46.127670" lon="8.373857">
        <ele>604.865</ele>
        <time>2020-08-22T15:49:42Z</time>
      </trkpt>
      <trkpt lat="46.127672" lon="8.373755">
        <ele>601.472</ele>
        <time>2020-08-22T15:49:43Z</time>
      </trkpt>
      <trkpt lat="46.127674" lon="8.373685">
        <ele>600.944</ele>
        <time>2020-08-22T15:49:44Z</time>
      </trkpt>
      <trkpt lat="46.127679" lon="8.373450">
        <ele>597.662</ele>
        <time>2020-08-22T15:49:47Z</time>
      </trkpt>
      <trkpt lat="46.127684" lon="8.373223">
        <ele>593.719</ele>
        <time>2020-08-22T15:49:50Z</time>
      </trkpt>
      <trkpt lat="46.127687" lon="8.373067">
        <ele>590.329</ele>
        <time>2020-08-22T15:49:52Z</time>
      </trkpt>
      <trkpt lat="46.127692" lon="8.372840">
        <ele>586.500</ele>
        <time>2020-08-22T15:49:55Z</time>
      </trkpt>
      <trkpt lat="46.127697" lon="8.372613">
        <ele>583.120</ele>
        <time>2020-08-22T15:49:58Z</time>
      </trkpt>
      <trkpt lat="46.127701" lon="8.372448">
        <ele>580.208</ele>
        <time>2020-08-22T15:50:00Z</time>
      </trkpt>
      <trkpt lat="46.125026" lon="8.356591">
        <ele>495.297</ele>
        <time>2020-08-22T15:50:55Z</time>
      </trkpt>
      <trkpt lat="46.125065" lon="8.356259">
        <ele>492.817</ele>
        <time>2020-08-22T15:50:57Z</time>
      </trkpt>
      <trkpt lat="46.125069" lon="8.356066">
        <ele>491.826</ele>
        <time>2020-08-22T15:50:58Z</time>
      </trkpt>
      <trkpt lat="46.125060" lon="8.355861">
        <ele>490.856</ele>
        <time>2020-08-22T15:50:59Z</time>
      </trkpt>
      <trkpt lat="46.125021" lon="8.355468">
        <ele>489.433</ele>
        <time>2020-08-22T15:51:01Z</time>
      </trkpt>
      <trkpt lat="46.125025" lon="8.355281">
        <ele>488.065</ele>
        <time>2020-08-22T15:51:02Z</time>
      </trkpt>
      <trkpt lat="46.125049" lon="8.355090">
        <ele>488.033</ele>
        <time>2020-08-22T15:51:03Z</time>
      </trkpt>
      <trkpt lat="46.125206" lon="8.354365">
        <ele>484.660</ele>
        <time>2020-08-22T15:51:07Z</time>
      </trkpt>
      <trkpt lat="46.125259" lon="8.354200">
        <ele>484.181</ele>
        <time>2020-08-22T15:51:08Z</time>
      </trkpt>
      <trkpt lat="46.125321" lon="8.354048">
        <ele>483.661</ele>
        <time>2020-08-22T15:51:09Z</time>
      </trkpt>
      <trkpt lat="46.125500" lon="8.353620">
        <ele>483.217</ele>
        <time>2020-08-22T15:51:12Z</time>
      </trkpt>
      <trkpt lat="46.125530" lon="8.353475">
        <ele>483.208</ele>
        <time>2020-08-22T15:51:13Z</time>
      </trkpt>
      <trkpt lat="46.125535" lon="8.353329">
        <ele>482.783</ele>
        <time>2020-08-22T15:51:14Z</time>
      </trkpt>
      <trkpt lat="46.125524" lon="8.353189">
        <ele>482.723</ele>
        <time>2020-08-22T15:51:15Z</time>
      </trkpt>
      <trkpt lat="46.125501" lon="8.353058">
        <ele>482.712</ele>
        <time>2020-08-22T15:51:16Z</time>
      </trkpt>
      <trkpt lat="46.125466" lon="8.352924">
        <ele>482.712</ele>
        <time>2020-08-22T15:51:17Z</time>
      </trkpt>
      <trkpt lat="46.125420" lon="8.352810">
        <ele>482.729</ele>
        <time>2020-08-22T15:51:18Z</time>
      </trkpt>
      <trkpt lat="46.125373" lon="8.352703">
        <ele>482.751</ele>
        <time>2020-08-22T15:51:19Z</time>
      </trkpt>
      <trkpt lat="46.125244" lon="8.352367">
        <ele>482.719</ele>
        <time>2020-08-22T15:51:22Z</time>
      </trkpt>
      <trkpt lat="46.124657" lon="8.351103">
        <ele>482.296</ele>
        <time>2020-08-22T15:51:37Z</time>
      </trkpt>
      <trkpt lat="46.124590" lon="8.350942">
        <ele>482.248</ele>
        <time>2020-08-22T15:51:39Z</time>
      </trkpt>
      <trkpt lat="46.124566" lon="8.350851">
        <ele>482.261</ele>
        <time>2020-08-22T15:51:40Z</time>
      </trkpt>
      <trkpt lat="46.124548" lon="8.350752">
        <ele>481.217</ele>
        <time>2020-08-22T15:51:41Z</time>
      </trkpt>
      <trkpt lat="46.124540" lon="8.350649">
        <ele>480.808</ele>
        <time>2020-08-22T15:51:42Z</time>
      </trkpt>
      <trkpt lat="46.124542" lon="8.350543">
        <ele>480.819</ele>
        <time>2020-08-22T15:51:43Z</time>
      </trkpt>
      <trkpt lat="46.124559" lon="8.350431">
        <ele>480.389</ele>
        <time>2020-08-22T15:51:44Z</time>
      </trkpt>
      <trkpt lat="46.124587" lon="8.350324">
        <ele>479.828</ele>
        <time>2020-08-22T15:51:45Z</time>
      </trkpt>
      <trkpt lat="46.124628" lon="8.350224">
        <ele>479.818</ele>
        <time>2020-08-22T15:51:46Z</time>
      </trkpt>
      <trkpt lat="46.124678" lon="8.350129">
        <ele>479.345</ele>
        <time>2020-08-22T15:51:47Z</time>
      </trkpt>
      <trkpt lat="46.124735" lon="8.350021">
        <ele>478.817</ele>
        <time>2020-08-22T15:51:48Z</time>
      </trkpt>
      <trkpt lat="46.124776" lon="8.349921">
        <ele>478.825</ele>
        <time>2020-08-22T15:51:49Z</time>
      </trkpt>
      <trkpt lat="46.124812" lon="8.349789">
        <ele>477.942</ele>
        <time>2020-08-22T15:51:50Z</time>
      </trkpt>
      <trkpt lat="46.124835" lon="8.349654">
        <ele>476.971</ele>
        <time>2020-08-22T15:51:51Z</time>
      </trkpt>
      <trkpt lat="46.124851" lon="8.349511">
        <ele>475.541</ele>
        <time>2020-08-22T15:51:52Z</time>
      </trkpt>
      <trkpt lat="46.124859" lon="8.349359">
        <ele>475.015</ele>
        <time>2020-08-22T15:51:53Z</time>
      </trkpt>
      <trkpt lat="46.124849" lon="8.348890">
        <ele>473.108</ele>
        <time>2020-08-22T15:51:56Z</time>
      </trkpt>
      <trkpt lat="46.124829" lon="8.348738">
        <ele>472.172</ele>
        <time>2020-08-22T15:51:57Z</time>
      </trkpt>
      <trkpt lat="46.124809" lon="8.348584">
        <ele>471.182</ele>
        <time>2020-08-22T15:51:58Z</time>
      </trkpt>
      <trkpt lat="46.124801" lon="8.348422">
        <ele>470.281</ele>
        <time>2020-08-22T15:51:59Z</time>
      </trkpt>
      <trkpt lat="46.124813" lon="8.348259">
        <ele>469.271</ele>
        <time>2020-08-22T15:52:00Z</time>
      </trkpt>
      <trkpt lat="46.124841" lon="8.348094">
        <ele>468.388</ele>
        <time>2020-08-22T15:52:01Z</time>
      </trkpt>
      <trkpt lat="46.124883" lon="8.347937">
        <ele>467.360</ele>
        <time>2020-08-22T15:52:02Z</time>
      </trkpt>
      <trkpt lat="46.124948" lon="8.347771">
        <ele>466.398</ele>
        <time>2020-08-22T15:52:03Z</time>
      </trkpt>
      <trkpt lat="46.125025" lon="8.347629">
        <ele>465.445</ele>
        <time>2020-08-22T15:52:04Z</time>
      </trkpt>
      <trkpt lat="46.125121" lon="8.347506">
        <ele>464.472</ele>
        <time>2020-08-22T15:52:05Z</time>
      </trkpt>
      <trkpt lat="46.125228" lon="8.347405">
        <ele>462.513</ele>
        <time>2020-08-22T15:52:06Z</time>
      </trkpt>
      <trkpt lat="46.125343" lon="8.347325">
        <ele>461.514</ele>
        <time>2020-08-22T15:52:07Z</time>
      </trkpt>
      <trkpt lat="46.125454" lon="8.347245">
        <ele>460.108</ele>
        <time>2020-08-22T15:52:08Z</time>
      </trkpt>
      <trkpt lat="46.125553" lon="8.347128">
        <ele>459.172</ele>
        <time>2020-08-22T15:52:09Z</time>
      </trkpt>
      <trkpt lat="46.125632" lon="8.346986">
        <ele>457.732</ele>
        <time>2020-08-22T15:52:10Z</time>
      </trkpt>
      <trkpt lat="46.125703" lon="8.346800">
        <ele>456.271</ele>
        <time>2020-08-22T15:52:11Z</time>
      </trkpt>
      <trkpt lat="46.125758" lon="8.346642">
        <ele>455.871</ele>
        <time>2020-08-22T15:52:12Z</time>
      </trkpt>
      <trkpt lat="46.125925" lon="8.346094">
        <ele>452.458</ele>
        <time>2020-08-22T15:52:15Z</time>
      </trkpt>
      <trkpt lat="46.126036" lon="8.345708">
        <ele>449.070</ele>
        <time>2020-08-22T15:52:17Z</time>
      </trkpt>
      <trkpt lat="46.126074" lon="8.345519">
        <ele>447.668</ele>
        <time>2020-08-22T15:52:18Z</time>
      </trkpt>
      <trkpt lat="46.126127" lon="8.345121">
        <ele>445.745</ele>
        <time>2020-08-22T15:52:20Z</time>
      </trkpt>
      <trkpt lat="46.126194" lon="8.344600">
        <ele>442.852</ele>
        <time>2020-08-22T15:52:23Z</time>
      </trkpt>
      <trkpt lat="46.126457" lon="8.343950">
        <ele>438.553</ele>
        <time>2020-08-22T15:52:26Z</time>
      </trkpt>
      <trkpt lat="46.126589" lon="8.343388">
        <ele>436.108</ele>
        <time>2020-08-22T15:52:29Z</time>
      </trkpt>
      <trkpt lat="46.126590" lon="8.343183">
        <ele>435.108</ele>
        <time>2020-08-22T15:52:30Z</time>
      </trkpt>
      <trkpt lat="46.126575" lon="8.342996">
        <ele>433.230</ele>
        <time>2020-08-22T15:52:31Z</time>
      </trkpt>
      <trkpt lat="46.126540" lon="8.342817">
        <ele>432.280</ele>
        <time>2020-08-22T15:52:32Z</time>
      </trkpt>
      <trkpt lat="46.126496" lon="8.342619">
        <ele>430.889</ele>
        <time>2020-08-22T15:52:33Z</time>
      </trkpt>
      <trkpt lat="46.126442" lon="8.342265">
        <ele>428.479</ele>
        <time>2020-08-22T15:52:35Z</time>
      </trkpt>
      <trkpt lat="46.126447" lon="8.342065">
        <ele>426.956</ele>
        <time>2020-08-22T15:52:36Z</time>
      </trkpt>
      <trkpt lat="46.126476" lon="8.341866">
        <ele>426.418</ele>
        <time>2020-08-22T15:52:37Z</time>
      </trkpt>
      <trkpt lat="46.126539" lon="8.341673">
        <ele>425.536</ele>
        <time>2020-08-22T15:52:38Z</time>
      </trkpt>
      <trkpt lat="46.126617" lon="8.341505">
        <ele>424.563</ele>
        <time>2020-08-22T15:52:39Z</time>
      </trkpt>
      <trkpt lat="46.126683" lon="8.341351">
        <ele>423.636</ele>
        <time>2020-08-22T15:52:40Z</time>
      </trkpt>
      <trkpt lat="46.126728" lon="8.341212">
        <ele>422.617</ele>
        <time>2020-08-22T15:52:41Z</time>
      </trkpt>
      <trkpt lat="46.126757" lon="8.341094">
        <ele>421.118</ele>
        <time>2020-08-22T15:52:42Z</time>
      </trkpt>
      <trkpt lat="46.126775" lon="8.340987">
        <ele>419.208</ele>
        <time>2020-08-22T15:52:43Z</time>
      </trkpt>
      <trkpt lat="46.126838" lon="8.340711">
        <ele>416.838</ele>
        <time>2020-08-22T15:52:46Z</time>
      </trkpt>
      <trkpt lat="46.126861" lon="8.340636">
        <ele>415.968</ele>
        <time>2020-08-22T15:52:47Z</time>
      </trkpt>
      <trkpt lat="46.126883" lon="8.340571">
        <ele>415.477</ele>
        <time>2020-08-22T15:52:48Z</time>
      </trkpt>
      <trkpt lat="46.126939" lon="8.340433">
        <ele>414.437</ele>
        <time>2020-08-22T15:52:56Z</time>
      </trkpt>
      <trkpt lat="46.126963" lon="8.340455">
        <ele>413.564</ele>
        <time>2020-08-22T15:53:17Z</time>
      </trkpt>
      <trkpt lat="46.126973" lon="8.340463">
        <ele>413.016</ele>
        <time>2020-08-22T15:53:43Z</time>
      </trkpt>
      <trkpt lat="46.126965" lon="8.340478">
        <ele>413.074</ele>
        <time>2020-08-22T15:54:01Z</time>
      </trkpt>
      <trkpt lat="46.126950" lon="8.340499">
        <ele>412.591</ele>
        <time>2020-08-22T15:54:29Z</time>
      </trkpt>
      <trkpt lat="46.127022" lon="8.340302">
        <ele>412.038</ele>
        <time>2020-08-22T15:54:39Z</time>
      </trkpt>
      <trkpt lat="46.127232" lon="8.339769">
        <ele>409.170</ele>
        <time>2020-08-22T15:54:46Z</time>
      </trkpt>
      <trkpt lat="46.127358" lon="8.339422">
        <ele>405.317</ele>
        <time>2020-08-22T15:54:50Z</time>
      </trkpt>
      <trkpt lat="46.127478" lon="8.339089">
        <ele>401.908</ele>
        <time>2020-08-22T15:54:54Z</time>
      </trkpt>
      <trkpt lat="46.127574" lon="8.338825">
        <ele>398.698</ele>
        <time>2020-08-22T15:54:57Z</time>
      </trkpt>
      <trkpt lat="46.127664" lon="8.338578">
        <ele>395.298</ele>
        <time>2020-08-22T15:55:00Z</time>
      </trkpt>
      <trkpt lat="46.127760" lon="8.338313">
        <ele>391.837</ele>
        <time>2020-08-22T15:55:03Z</time>
      </trkpt>
      <trkpt lat="46.127853" lon="8.338057">
        <ele>388.547</ele>
        <time>2020-08-22T15:55:06Z</time>
      </trkpt>
      <trkpt lat="46.127943" lon="8.337810">
        <ele>385.174</ele>
        <time>2020-08-22T15:55:09Z</time>
      </trkpt>
      <trkpt lat="46.128039" lon="8.337546">
        <ele>381.716</ele>
        <time>2020-08-22T15:55:12Z</time>
      </trkpt>
      <trkpt lat="46.128166" lon="8.337196">
        <ele>378.424</ele>
        <time>2020-08-22T15:55:16Z</time>
      </trkpt>
      <trkpt lat="46.128560" lon="8.336035">
        <ele>374.021</ele>
        <time>2020-08-22T15:55:24Z</time>
      </trkpt>
      <trkpt lat="46.128485" lon="8.335315">
        <ele>370.217</ele>
        <time>2020-08-22T15:55:28Z</time>
      </trkpt>
      <trkpt lat="46.128516" lon="8.335093">
        <ele>369.787</ele>
        <time>2020-08-22T15:55:29Z</time>
      </trkpt>
      <trkpt lat="46.128542" lon="8.334907">
        <ele>368.315</ele>
        <time>2020-08-22T15:55:30Z</time>
      </trkpt>
      <trkpt lat="46.128548" lon="8.334751">
        <ele>367.808</ele>
        <time>2020-08-22T15:55:31Z</time>
      </trkpt>
      <trkpt lat="46.128554" lon="8.334625">
        <ele>367.326</ele>
        <time>2020-08-22T15:55:32Z</time>
      </trkpt>
      <trkpt lat="46.128695" lon="8.334435">
        <ele>366.846</ele>
        <time>2020-08-22T15:55:33Z</time>
      </trkpt>
      <trkpt lat="46.128804" lon="8.334292">
        <ele>365.985</ele>
        <time>2020-08-22T15:55:34Z</time>
      </trkpt>
      <trkpt lat="46.128901" lon="8.334165">
        <ele>364.465</ele>
        <time>2020-08-22T15:55:35Z</time>
      </trkpt>
      <trkpt lat="46.128992" lon="8.334057">
        <ele>364.432</ele>
        <time>2020-08-22T15:55:36Z</time>
      </trkpt>
      <trkpt lat="46.129091" lon="8.333980">
        <ele>363.514</ele>
        <time>2020-08-22T15:55:37Z</time>
      </trkpt>
      <trkpt lat="46.129194" lon="8.333932">
        <ele>363.082</ele>
        <time>2020-08-22T15:55:38Z</time>
      </trkpt>
      <trkpt lat="46.129306" lon="8.333895">
        <ele>362.539</ele>
        <time>2020-08-22T15:55:39Z</time>
      </trkpt>
      <trkpt lat="46.129963" lon="8.333728">
        <ele>359.192</ele>
        <time>2020-08-22T15:55:45Z</time>
      </trkpt>
      <trkpt lat="46.131462" lon="8.333421">
        <ele>355.873</ele>
        <time>2020-08-22T15:56:00Z</time>
      </trkpt>
      <trkpt lat="46.132438" lon="8.332893">
        <ele>353.920</ele>
        <time>2020-08-22T15:56:12Z</time>
      </trkpt>
      <trkpt lat="46.132845" lon="8.332577">
        <ele>351.908</ele>
        <time>2020-08-22T15:56:18Z</time>
      </trkpt>
      <trkpt lat="46.132897" lon="8.332499">
        <ele>351.994</ele>
        <time>2020-08-22T15:56:19Z</time>
      </trkpt>
      <trkpt lat="46.132940" lon="8.332424">
        <ele>351.954</ele>
        <time>2020-08-22T15:56:20Z</time>
      </trkpt>
      <trkpt lat="46.132977" lon="8.332364">
        <ele>351.923</ele>
        <time>2020-08-22T15:56:21Z</time>
      </trkpt>
      <trkpt lat="46.133013" lon="8.332323">
        <ele>351.973</ele>
        <time>2020-08-22T15:56:22Z</time>
      </trkpt>
      <trkpt lat="46.133040" lon="8.332301">
        <ele>351.970</ele>
        <time>2020-08-22T15:56:23Z</time>
      </trkpt>
      <trkpt lat="46.133055" lon="8.332280">
        <ele>351.542</ele>
        <time>2020-08-22T15:56:24Z</time>
      </trkpt>
      <trkpt lat="46.133064" lon="8.332261">
        <ele>351.510</ele>
        <time>2020-08-22T15:56:25Z</time>
      </trkpt>
      <trkpt lat="46.133073" lon="8.332244">
        <ele>351.557</ele>
        <time>2020-08-22T15:56:26Z</time>
      </trkpt>
      <trkpt lat="46.133081" lon="8.332232">
        <ele>351.545</ele>
        <time>2020-08-22T15:56:27Z</time>
      </trkpt>
      <trkpt lat="46.133089" lon="8.332217">
        <ele>351.047</ele>
        <time>2020-08-22T15:56:28Z</time>
      </trkpt>
      <trkpt lat="46.133100" lon="8.332200">
        <ele>351.011</ele>
        <time>2020-08-22T15:56:29Z</time>
      </trkpt>
      <trkpt lat="46.133114" lon="8.332186">
        <ele>351.008</ele>
        <time>2020-08-22T15:56:30Z</time>
      </trkpt>
      <trkpt lat="46.133130" lon="8.332166">
        <ele>351.029</ele>
        <time>2020-08-22T15:56:31Z</time>
      </trkpt>
      <trkpt lat="46.133141" lon="8.332145">
        <ele>351.029</ele>
        <time>2020-08-22T15:56:32Z</time>
      </trkpt>
      <trkpt lat="46.133194" lon="8.332027">
        <ele>351.068</ele>
        <time>2020-08-22T15:56:43Z</time>
      </trkpt>
      <trkpt lat="46.133185" lon="8.331989">
        <ele>350.588</ele>
        <time>2020-08-22T15:56:57Z</time>
      </trkpt>
      <trkpt lat="46.133192" lon="8.332006">
        <ele>350.025</ele>
        <time>2020-08-22T15:57:26Z</time>
      </trkpt>
      <trkpt lat="46.133202" lon="8.332024">
        <ele>349.567</ele>
        <time>2020-08-22T15:57:51Z</time>
      </trkpt>
      <trkpt lat="46.133189" lon="8.332032">
        <ele>349.175</ele>
        <time>2020-08-22T15:58:17Z</time>
      </trkpt>
      <trkpt lat="46.133210" lon="8.332029">
        <ele>349.162</ele>
        <time>2020-08-22T15:58:41Z</time>
      </trkpt>
      <trkpt lat="46.133217" lon="8.332027">
        <ele>348.617</ele>
        <time>2020-08-22T15:59:10Z</time>
      </trkpt>
      <trkpt lat="46.133211" lon="8.332023">
        <ele>348.187</ele>
        <time>2020-08-22T15:59:34Z</time>
      </trkpt>
      <trkpt lat="46.133191" lon="8.332007">
        <ele>348.115</ele>
        <time>2020-08-22T15:59:52Z</time>
      </trkpt>
      <trkpt lat="46.133310" lon="8.331764">
        <ele>347.608</ele>
        <time>2020-08-22T16:00:04Z</time>
      </trkpt>
      <trkpt lat="46.133479" lon="8.331576">
        <ele>347.656</ele>
        <time>2020-08-22T16:00:09Z</time>
      </trkpt>
      <trkpt lat="46.133854" lon="8.331062">
        <ele>344.766</ele>
        <time>2020-08-22T16:00:17Z</time>
      </trkpt>
      <trkpt lat="46.134067" lon="8.330562">
        <ele>343.395</ele>
        <time>2020-08-22T16:00:23Z</time>
      </trkpt>
      <trkpt lat="46.134085" lon="8.330477">
        <ele>343.335</ele>
        <time>2020-08-22T16:00:24Z</time>
      </trkpt>
      <trkpt lat="46.134093" lon="8.330385">
        <ele>343.382</ele>
        <time>2020-08-22T16:00:25Z</time>
      </trkpt>
      <trkpt lat="46.134092" lon="8.330306">
        <ele>343.384</ele>
        <time>2020-08-22T16:00:26Z</time>
      </trkpt>
      <trkpt lat="46.134084" lon="8.330222">
        <ele>342.882</ele>
        <time>2020-08-22T16:00:27Z</time>
      </trkpt>
      <trkpt lat="46.134069" lon="8.330142">
        <ele>341.859</ele>
        <time>2020-08-22T16:00:28Z</time>
      </trkpt>
      <trkpt lat="46.134050" lon="8.330067">
        <ele>343.376</ele>
        <time>2020-08-22T16:00:29Z</time>
      </trkpt>
      <trkpt lat="46.134028" lon="8.329996">
        <ele>343.390</ele>
        <time>2020-08-22T16:00:30Z</time>
      </trkpt>
      <trkpt lat="46.134002" lon="8.329925">
        <ele>343.319</ele>
        <time>2020-08-22T16:00:31Z</time>
      </trkpt>
      <trkpt lat="46.133976" lon="8.329856">
        <ele>343.308</ele>
        <time>2020-08-22T16:00:32Z</time>
      </trkpt>
      <trkpt lat="46.133948" lon="8.329765">
        <ele>342.862</ele>
        <time>2020-08-22T16:00:33Z</time>
      </trkpt>
      <trkpt lat="46.133934" lon="8.329709">
        <ele>343.322</ele>
        <time>2020-08-22T16:00:34Z</time>
      </trkpt>
      <trkpt lat="46.133919" lon="8.329633">
        <ele>343.331</ele>
        <time>2020-08-22T16:00:35Z</time>
      </trkpt>
      <trkpt lat="46.133781" lon="8.328826">
        <ele>341.481</ele>
        <time>2020-08-22T16:00:45Z</time>
      </trkpt>
      <trkpt lat="46.133780" lon="8.328731">
        <ele>340.478</ele>
        <time>2020-08-22T16:00:46Z</time>
      </trkpt>
      <trkpt lat="46.133790" lon="8.328631">
        <ele>339.930</ele>
        <time>2020-08-22T16:00:47Z</time>
      </trkpt>
      <trkpt lat="46.133892" lon="8.327807">
        <ele>338.538</ele>
        <time>2020-08-22T16:00:57Z</time>
      </trkpt>
      <trkpt lat="46.133909" lon="8.327744">
        <ele>338.565</ele>
        <time>2020-08-22T16:00:58Z</time>
      </trkpt>
      <trkpt lat="46.133929" lon="8.327680">
        <ele>338.523</ele>
        <time>2020-08-22T16:00:59Z</time>
      </trkpt>
      <trkpt lat="46.133957" lon="8.327619">
        <ele>338.583</ele>
        <time>2020-08-22T16:01:00Z</time>
      </trkpt>
      <trkpt lat="46.133987" lon="8.327558">
        <ele>338.511</ele>
        <time>2020-08-22T16:01:01Z</time>
      </trkpt>
      <trkpt lat="46.134009" lon="8.327488">
        <ele>338.008</ele>
        <time>2020-08-22T16:01:02Z</time>
      </trkpt>
      <trkpt lat="46.134023" lon="8.327408">
        <ele>338.057</ele>
        <time>2020-08-22T16:01:03Z</time>
      </trkpt>
      <trkpt lat="46.134034" lon="8.327322">
        <ele>338.087</ele>
        <time>2020-08-22T16:01:04Z</time>
      </trkpt>
      <trkpt lat="46.134244" lon="8.326427">
        <ele>335.626</ele>
        <time>2020-08-22T16:01:14Z</time>
      </trkpt>
      <trkpt lat="46.134290" lon="8.326362">
        <ele>335.626</ele>
        <time>2020-08-22T16:01:15Z</time>
      </trkpt>
      <trkpt lat="46.134326" lon="8.326335">
        <ele>335.653</ele>
        <time>2020-08-22T16:01:16Z</time>
      </trkpt>
      <trkpt lat="46.134389" lon="8.326312">
        <ele>334.615</ele>
        <time>2020-08-22T16:01:17Z</time>
      </trkpt>
      <trkpt lat="46.134429" lon="8.326306">
        <ele>334.233</ele>
        <time>2020-08-22T16:01:18Z</time>
      </trkpt>
      <trkpt lat="46.134475" lon="8.326300">
        <ele>334.210</ele>
        <time>2020-08-22T16:01:19Z</time>
      </trkpt>
      <trkpt lat="46.135399" lon="8.326237">
        <ele>333.767</ele>
        <time>2020-08-22T16:01:36Z</time>
      </trkpt>
      <trkpt lat="46.136348" lon="8.326159">
        <ele>333.781</ele>
        <time>2020-08-22T16:01:53Z</time>
      </trkpt>
      <trkpt lat="46.137250" lon="8.326001">
        <ele>333.219</ele>
        <time>2020-08-22T16:02:09Z</time>
      </trkpt>
      <trkpt lat="46.138211" lon="8.325526">
        <ele>334.208</ele>
        <time>2020-08-22T16:02:28Z</time>
      </trkpt>
      <trkpt lat="46.138959" lon="8.325185">
        <ele>336.611</ele>
        <time>2020-08-22T16:02:46Z</time>
      </trkpt>
      <trkpt lat="46.139601" lon="8.324859">
        <ele>338.041</ele>
        <time>2020-08-22T16:03:03Z</time>
      </trkpt>
      <trkpt lat="46.140292" lon="8.324512">
        <ele>339.910</ele>
        <time>2020-08-22T16:03:23Z</time>
      </trkpt>
      <trkpt lat="46.140983" lon="8.324171">
        <ele>341.470</ele>
        <time>2020-08-22T16:03:42Z</time>
      </trkpt>
      <trkpt lat="46.141543" lon="8.323903">
        <ele>342.887</ele>
        <time>2020-08-22T16:03:58Z</time>
      </trkpt>
      <trkpt lat="46.142303" lon="8.323526">
        <ele>344.769</ele>
        <time>2020-08-22T16:04:19Z</time>
      </trkpt>
      <trkpt lat="46.142993" lon="8.323183">
        <ele>346.647</ele>
        <time>2020-08-22T16:04:38Z</time>
      </trkpt>
      <trkpt lat="46.143600" lon="8.322883">
        <ele>348.194</ele>
        <time>2020-08-22T16:04:55Z</time>
      </trkpt>
      <trkpt lat="46.144251" lon="8.322531">
        <ele>350.525</ele>
        <time>2020-08-22T16:05:14Z</time>
      </trkpt>
      <trkpt lat="46.144846" lon="8.322338">
        <ele>351.026</ele>
        <time>2020-08-22T16:05:30Z</time>
      </trkpt>
      <trkpt lat="46.145434" lon="8.322425">
        <ele>352.408</ele>
        <time>2020-08-22T16:05:46Z</time>
      </trkpt>
      <trkpt lat="46.145767" lon="8.322644">
        <ele>354.308</ele>
        <time>2020-08-22T16:06:01Z</time>
      </trkpt>
      <trkpt lat="46.145826" lon="8.322629">
        <ele>353.927</ele>
        <time>2020-08-22T16:06:29Z</time>
      </trkpt>
      <trkpt lat="46.145850" lon="8.322653">
        <ele>353.967</ele>
        <time>2020-08-22T16:06:49Z</time>
      </trkpt>
      <trkpt lat="46.145863" lon="8.322650">
        <ele>353.986</ele>
        <time>2020-08-22T16:06:50Z</time>
      </trkpt>
      <trkpt lat="46.145877" lon="8.322659">
        <ele>353.946</ele>
        <time>2020-08-22T16:06:51Z</time>
      </trkpt>
      <trkpt lat="46.146243" lon="8.322938">
        <ele>355.363</ele>
        <time>2020-08-22T16:07:05Z</time>
      </trkpt>
      <trkpt lat="46.146816" lon="8.323350">
        <ele>356.715</ele>
        <time>2020-08-22T16:07:24Z</time>
      </trkpt>
      <trkpt lat="46.147361" lon="8.323722">
        <ele>359.183</ele>
        <time>2020-08-22T16:07:42Z</time>
      </trkpt>
      <trkpt lat="46.147878" lon="8.324052">
        <ele>361.130</ele>
        <time>2020-08-22T16:07:59Z</time>
      </trkpt>
      <trkpt lat="46.148296" lon="8.323972">
        <ele>363.599</ele>
        <time>2020-08-22T16:08:14Z</time>
      </trkpt>
      <trkpt lat="46.148949" lon="8.323524">
        <ele>364.007</ele>
        <time>2020-08-22T16:08:35Z</time>
      </trkpt>
      <trkpt lat="46.149465" lon="8.323148">
        <ele>364.427</ele>
        <time>2020-08-22T16:08:51Z</time>
      </trkpt>
      <trkpt lat="46.149492" lon="8.323107">
        <ele>364.408</ele>
        <time>2020-08-22T16:08:52Z</time>
      </trkpt>
      <trkpt lat="46.149519" lon="8.323050">
        <ele>364.474</ele>
        <time>2020-08-22T16:08:53Z</time>
      </trkpt>
      <trkpt lat="46.149535" lon="8.322985">
        <ele>364.434</ele>
        <time>2020-08-22T16:08:54Z</time>
      </trkpt>
      <trkpt lat="46.149543" lon="8.322891">
        <ele>364.493</ele>
        <time>2020-08-22T16:08:55Z</time>
      </trkpt>
      <trkpt lat="46.149542" lon="8.322842">
        <ele>364.413</ele>
        <time>2020-08-22T16:08:56Z</time>
      </trkpt>
      <trkpt lat="46.149534" lon="8.322760">
        <ele>364.480</ele>
        <time>2020-08-22T16:08:57Z</time>
      </trkpt>
      <trkpt lat="46.149522" lon="8.322680">
        <ele>364.492</ele>
        <time>2020-08-22T16:08:58Z</time>
      </trkpt>
      <trkpt lat="46.149508" lon="8.322599">
        <ele>363.080</ele>
        <time>2020-08-22T16:08:59Z</time>
      </trkpt>
      <trkpt lat="46.149295" lon="8.321451">
        <ele>359.697</ele>
        <time>2020-08-22T16:09:12Z</time>
      </trkpt>
      <trkpt lat="46.149231" lon="8.320979">
        <ele>358.242</ele>
        <time>2020-08-22T16:09:17Z</time>
      </trkpt>
      <trkpt lat="46.149238" lon="8.320884">
        <ele>358.222</ele>
        <time>2020-08-22T16:09:18Z</time>
      </trkpt>
      <trkpt lat="46.149260" lon="8.320779">
        <ele>358.214</ele>
        <time>2020-08-22T16:09:19Z</time>
      </trkpt>
      <trkpt lat="46.149289" lon="8.320699">
        <ele>357.708</ele>
        <time>2020-08-22T16:09:20Z</time>
      </trkpt>
      <trkpt lat="46.149326" lon="8.320618">
        <ele>357.749</ele>
        <time>2020-08-22T16:09:21Z</time>
      </trkpt>
      <trkpt lat="46.149369" lon="8.320530">
        <ele>357.269</ele>
        <time>2020-08-22T16:09:22Z</time>
      </trkpt>
      <trkpt lat="46.149774" lon="8.319753">
        <ele>355.348</ele>
        <time>2020-08-22T16:09:32Z</time>
      </trkpt>
      <trkpt lat="46.149804" lon="8.319658">
        <ele>355.378</ele>
        <time>2020-08-22T16:09:33Z</time>
      </trkpt>
      <trkpt lat="46.149825" lon="8.319557">
        <ele>354.875</ele>
        <time>2020-08-22T16:09:34Z</time>
      </trkpt>
      <trkpt lat="46.149963" lon="8.318563">
        <ele>351.527</ele>
        <time>2020-08-22T16:09:43Z</time>
      </trkpt>
      <trkpt lat="46.150133" lon="8.317220">
        <ele>348.185</ele>
        <time>2020-08-22T16:09:54Z</time>
      </trkpt>
      <trkpt lat="46.150275" lon="8.316154">
        <ele>345.262</ele>
        <time>2020-08-22T16:10:03Z</time>
      </trkpt>
      <trkpt lat="46.150318" lon="8.315797">
        <ele>343.333</ele>
        <time>2020-08-22T16:10:11Z</time>
      </trkpt>
      <trkpt lat="46.150328" lon="8.315773">
        <ele>342.823</ele>
        <time>2020-08-22T16:10:28Z</time>
      </trkpt>
      <trkpt lat="46.150404" lon="8.315243">
        <ele>342.315</ele>
        <time>2020-08-22T16:10:38Z</time>
      </trkpt>
      <trkpt lat="46.150552" lon="8.314037">
        <ele>339.908</ele>
        <time>2020-08-22T16:10:51Z</time>
      </trkpt>
      <trkpt lat="46.150763" lon="8.312500">
        <ele>336.688</ele>
        <time>2020-08-22T16:11:06Z</time>
      </trkpt>
      <trkpt lat="46.150838" lon="8.312044">
        <ele>335.168</ele>
        <time>2020-08-22T16:11:10Z</time>
      </trkpt>
      <trkpt lat="46.151045" lon="8.310184">
        <ele>332.237</ele>
        <time>2020-08-22T16:11:26Z</time>
      </trkpt>
      <trkpt lat="46.151011" lon="8.309137">
        <ele>332.237</ele>
        <time>2020-08-22T16:11:38Z</time>
      </trkpt>
      <trkpt lat="46.150895" lon="8.308278">
        <ele>331.774</ele>
        <time>2020-08-22T16:11:49Z</time>
      </trkpt>
      <trkpt lat="46.150897" lon="8.308192">
        <ele>331.756</ele>
        <time>2020-08-22T16:11:50Z</time>
      </trkpt>
      <trkpt lat="46.150906" lon="8.308107">
        <ele>331.784</ele>
        <time>2020-08-22T16:11:51Z</time>
      </trkpt>
      <trkpt lat="46.150924" lon="8.308021">
        <ele>331.771</ele>
        <time>2020-08-22T16:11:52Z</time>
      </trkpt>
      <trkpt lat="46.150945" lon="8.307948">
        <ele>331.748</ele>
        <time>2020-08-22T16:11:53Z</time>
      </trkpt>
      <trkpt lat="46.150974" lon="8.307875">
        <ele>331.761</ele>
        <time>2020-08-22T16:11:54Z</time>
      </trkpt>
      <trkpt lat="46.151008" lon="8.307804">
        <ele>331.717</ele>
        <time>2020-08-22T16:11:55Z</time>
      </trkpt>
      <trkpt lat="46.151605" lon="8.306696">
        <ele>331.308</ele>
        <time>2020-08-22T16:12:12Z</time>
      </trkpt>
      <trkpt lat="46.152218" lon="8.305547">
        <ele>330.899</ele>
        <time>2020-08-22T16:12:31Z</time>
      </trkpt>
      <trkpt lat="46.152835" lon="8.304386">
        <ele>332.769</ele>
        <time>2020-08-22T16:12:52Z</time>
      </trkpt>
      <trkpt lat="46.153047" lon="8.304012">
        <ele>332.788</ele>
        <time>2020-08-22T16:12:59Z</time>
      </trkpt>
      <trkpt lat="46.153117" lon="8.303912">
        <ele>332.798</ele>
        <time>2020-08-22T16:13:01Z</time>
      </trkpt>
      <trkpt lat="46.153135" lon="8.303857">
        <ele>332.795</ele>
        <time>2020-08-22T16:13:02Z</time>
      </trkpt>
      <trkpt lat="46.153133" lon="8.303787">
        <ele>332.787</ele>
        <time>2020-08-22T16:13:03Z</time>
      </trkpt>
      <trkpt lat="46.153110" lon="8.303732">
        <ele>333.265</ele>
        <time>2020-08-22T16:13:04Z</time>
      </trkpt>
      <trkpt lat="46.153073" lon="8.303694">
        <ele>333.222</ele>
        <time>2020-08-22T16:13:05Z</time>
      </trkpt>
      <trkpt lat="46.153035" lon="8.303663">
        <ele>333.286</ele>
        <time>2020-08-22T16:13:06Z</time>
      </trkpt>
      <trkpt lat="46.152554" lon="8.303142">
        <ele>334.260</ele>
        <time>2020-08-22T16:13:21Z</time>
      </trkpt>
      <trkpt lat="46.152080" lon="8.302606">
        <ele>337.026</ele>
        <time>2020-08-22T16:13:39Z</time>
      </trkpt>
      <trkpt lat="46.151512" lon="8.301976">
        <ele>339.408</ele>
        <time>2020-08-22T16:14:01Z</time>
      </trkpt>
      <trkpt lat="46.150968" lon="8.301371">
        <ele>338.023</ele>
        <time>2020-08-22T16:14:17Z</time>
      </trkpt>
      <trkpt lat="46.150351" lon="8.300684">
        <ele>334.683</ele>
        <time>2020-08-22T16:14:28Z</time>
      </trkpt>
      <trkpt lat="46.150226" lon="8.300545">
        <ele>333.772</ele>
        <time>2020-08-22T16:14:30Z</time>
      </trkpt>
      <trkpt lat="46.149822" lon="8.299967">
        <ele>331.342</ele>
        <time>2020-08-22T16:14:37Z</time>
      </trkpt>
      <trkpt lat="46.149268" lon="8.298881">
        <ele>328.419</ele>
        <time>2020-08-22T16:14:49Z</time>
      </trkpt>
      <trkpt lat="46.148650" lon="8.297600">
        <ele>325.041</ele>
        <time>2020-08-22T16:15:03Z</time>
      </trkpt>
      <trkpt lat="46.148389" lon="8.297057">
        <ele>324.569</ele>
        <time>2020-08-22T16:15:10Z</time>
      </trkpt>
      <trkpt lat="46.148369" lon="8.296980">
        <ele>324.566</ele>
        <time>2020-08-22T16:15:11Z</time>
      </trkpt>
      <trkpt lat="46.148362" lon="8.296901">
        <ele>324.557</ele>
        <time>2020-08-22T16:15:12Z</time>
      </trkpt>
      <trkpt lat="46.148363" lon="8.296823">
        <ele>324.500</ele>
        <time>2020-08-22T16:15:13Z</time>
      </trkpt>
      <trkpt lat="46.148362" lon="8.296750">
        <ele>324.520</ele>
        <time>2020-08-22T16:15:14Z</time>
      </trkpt>
      <trkpt lat="46.148340" lon="8.296668">
        <ele>324.508</ele>
        <time>2020-08-22T16:15:15Z</time>
      </trkpt>
      <trkpt lat="46.148306" lon="8.296622">
        <ele>324.580</ele>
        <time>2020-08-22T16:15:16Z</time>
      </trkpt>
      <trkpt lat="46.148259" lon="8.296591">
        <ele>324.520</ele>
        <time>2020-08-22T16:15:17Z</time>
      </trkpt>
      <trkpt lat="46.148208" lon="8.296578">
        <ele>324.579</ele>
        <time>2020-08-22T16:15:18Z</time>
      </trkpt>
      <trkpt lat="46.148158" lon="8.296571">
        <ele>324.599</ele>
        <time>2020-08-22T16:15:19Z</time>
      </trkpt>
      <trkpt lat="46.148103" lon="8.296552">
        <ele>324.536</ele>
        <time>2020-08-22T16:15:20Z</time>
      </trkpt>
      <trkpt lat="46.148056" lon="8.296525">
        <ele>324.548</ele>
        <time>2020-08-22T16:15:21Z</time>
      </trkpt>
      <trkpt lat="46.147959" lon="8.296473">
        <ele>324.526</ele>
        <time>2020-08-22T16:15:23Z</time>
      </trkpt>
      <trkpt lat="46.147846" lon="8.296441">
        <ele>324.523</ele>
        <time>2020-08-22T16:15:25Z</time>
      </trkpt>
      <trkpt lat="46.147802" lon="8.296437">
        <ele>324.548</ele>
        <time>2020-08-22T16:15:26Z</time>
      </trkpt>
      <trkpt lat="46.147041" lon="8.296325">
        <ele>322.661</ele>
        <time>2020-08-22T16:15:41Z</time>
      </trkpt>
      <trkpt lat="46.146137" lon="8.296224">
        <ele>320.717</ele>
        <time>2020-08-22T16:15:58Z</time>
      </trkpt>
      <trkpt lat="46.145349" lon="8.296106">
        <ele>318.808</ele>
        <time>2020-08-22T16:16:13Z</time>
      </trkpt>
      <trkpt lat="46.144282" lon="8.295961">
        <ele>317.389</ele>
        <time>2020-08-22T16:16:31Z</time>
      </trkpt>
      <trkpt lat="46.143727" lon="8.295908">
        <ele>315.949</ele>
        <time>2020-08-22T16:16:40Z</time>
      </trkpt>
      <trkpt lat="46.142795" lon="8.295782">
        <ele>314.068</ele>
        <time>2020-08-22T16:16:55Z</time>
      </trkpt>
      <trkpt lat="46.141828" lon="8.295638">
        <ele>312.088</ele>
        <time>2020-08-22T16:17:11Z</time>
      </trkpt>
      <trkpt lat="46.140722" lon="8.295493">
        <ele>310.195</ele>
        <time>2020-08-22T16:17:29Z</time>
      </trkpt>
      <trkpt lat="46.139486" lon="8.295335">
        <ele>308.757</ele>
        <time>2020-08-22T16:17:49Z</time>
      </trkpt>
      <trkpt lat="46.138577" lon="8.295199">
        <ele>307.795</ele>
        <time>2020-08-22T16:18:04Z</time>
      </trkpt>
      <trkpt lat="46.137417" lon="8.295062">
        <ele>306.822</ele>
        <time>2020-08-22T16:18:25Z</time>
      </trkpt>
      <trkpt lat="46.136519" lon="8.294942">
        <ele>305.844</ele>
        <time>2020-08-22T16:18:42Z</time>
      </trkpt>
      <trkpt lat="46.135714" lon="8.294820">
        <ele>304.805</ele>
        <time>2020-08-22T16:18:59Z</time>
      </trkpt>
      <trkpt lat="46.135591" lon="8.294802">
        <ele>304.315</ele>
        <time>2020-08-22T16:19:09Z</time>
      </trkpt>
      <trkpt lat="46.135468" lon="8.294789">
        <ele>303.908</ele>
        <time>2020-08-22T16:19:22Z</time>
      </trkpt>
      <trkpt lat="46.134806" lon="8.294706">
        <ele>303.439</ele>
        <time>2020-08-22T16:19:37Z</time>
      </trkpt>
      <trkpt lat="46.133977" lon="8.294587">
        <ele>302.439</ele>
        <time>2020-08-22T16:19:53Z</time>
      </trkpt>
      <trkpt lat="46.133430" lon="8.294503">
        <ele>301.998</ele>
        <time>2020-08-22T16:20:04Z</time>
      </trkpt>
      <trkpt lat="46.133389" lon="8.294475">
        <ele>301.938</ele>
        <time>2020-08-22T16:20:05Z</time>
      </trkpt>
      <trkpt lat="46.133351" lon="8.294434">
        <ele>301.985</ele>
        <time>2020-08-22T16:20:06Z</time>
      </trkpt>
      <trkpt lat="46.133317" lon="8.294383">
        <ele>301.517</ele>
        <time>2020-08-22T16:20:07Z</time>
      </trkpt>
      <trkpt lat="46.133286" lon="8.294330">
        <ele>301.515</ele>
        <time>2020-08-22T16:20:08Z</time>
      </trkpt>
      <trkpt lat="46.133251" lon="8.294284">
        <ele>301.532</ele>
        <time>2020-08-22T16:20:09Z</time>
      </trkpt>
      <trkpt lat="46.133210" lon="8.294250">
        <ele>301.532</ele>
        <time>2020-08-22T16:20:10Z</time>
      </trkpt>
      <trkpt lat="46.133166" lon="8.294242">
        <ele>301.592</ele>
        <time>2020-08-22T16:20:11Z</time>
      </trkpt>
      <trkpt lat="46.133119" lon="8.294261">
        <ele>301.511</ele>
        <time>2020-08-22T16:20:12Z</time>
      </trkpt>
      <trkpt lat="46.133070" lon="8.294309">
        <ele>301.508</ele>
        <time>2020-08-22T16:20:13Z</time>
      </trkpt>
      <trkpt lat="46.133053" lon="8.294330">
        <ele>301.528</ele>
        <time>2020-08-22T16:20:14Z</time>
      </trkpt>
      <trkpt lat="46.133016" lon="8.294371">
        <ele>301.588</ele>
        <time>2020-08-22T16:20:15Z</time>
      </trkpt>
      <trkpt lat="46.132983" lon="8.294400">
        <ele>301.547</ele>
        <time>2020-08-22T16:20:16Z</time>
      </trkpt>
      <trkpt lat="46.132941" lon="8.294423">
        <ele>301.577</ele>
        <time>2020-08-22T16:20:17Z</time>
      </trkpt>
      <trkpt lat="46.132899" lon="8.294435">
        <ele>301.574</ele>
        <time>2020-08-22T16:20:18Z</time>
      </trkpt>
      <trkpt lat="46.132856" lon="8.294435">
        <ele>301.586</ele>
        <time>2020-08-22T16:20:19Z</time>
      </trkpt>
      <trkpt lat="46.132813" lon="8.294429">
        <ele>301.594</ele>
        <time>2020-08-22T16:20:20Z</time>
      </trkpt>
      <trkpt lat="46.132129" lon="8.294332">
        <ele>301.051</ele>
        <time>2020-08-22T16:20:38Z</time>
      </trkpt>
      <trkpt lat="46.131533" lon="8.294267">
        <ele>300.546</ele>
        <time>2020-08-22T16:20:55Z</time>
      </trkpt>
      <trkpt lat="46.131106" lon="8.294205">
        <ele>301.988</ele>
        <time>2020-08-22T16:21:05Z</time>
      </trkpt>
      <trkpt lat="46.130232" lon="8.294110">
        <ele>302.416</ele>
        <time>2020-08-22T16:21:25Z</time>
      </trkpt>
      <trkpt lat="46.130082" lon="8.293950">
        <ele>301.908</ele>
        <time>2020-08-22T16:21:32Z</time>
      </trkpt>
      <trkpt lat="46.129782" lon="8.293990">
        <ele>301.989</ele>
        <time>2020-08-22T16:21:40Z</time>
      </trkpt>
      <trkpt lat="46.129698" lon="8.294022">
        <ele>301.989</ele>
        <time>2020-08-22T16:21:42Z</time>
      </trkpt>
      <trkpt lat="46.129653" lon="8.294017">
        <ele>301.968</ele>
        <time>2020-08-22T16:21:43Z</time>
      </trkpt>
      <trkpt lat="46.129609" lon="8.294011">
        <ele>301.918</ele>
        <time>2020-08-22T16:21:44Z</time>
      </trkpt>
      <trkpt lat="46.128542" lon="8.293876">
        <ele>301.915</ele>
        <time>2020-08-22T16:22:06Z</time>
      </trkpt>
      <trkpt lat="46.127495" lon="8.293734">
        <ele>301.567</ele>
        <time>2020-08-22T16:22:28Z</time>
      </trkpt>
      <trkpt lat="46.126596" lon="8.293624">
        <ele>301.595</ele>
        <time>2020-08-22T16:22:49Z</time>
      </trkpt>
      <trkpt lat="46.125745" lon="8.293496">
        <ele>301.912</ele>
        <time>2020-08-22T16:23:10Z</time>
      </trkpt>
      <trkpt lat="46.125467" lon="8.293465">
        <ele>302.415</ele>
        <time>2020-08-22T16:23:17Z</time>
      </trkpt>
      <trkpt lat="46.124813" lon="8.293397">
        <ele>302.965</ele>
        <time>2020-08-22T16:23:34Z</time>
      </trkpt>
      <trkpt lat="46.124408" lon="8.293312">
        <ele>303.411</ele>
        <time>2020-08-22T16:23:48Z</time>
      </trkpt>
      <trkpt lat="46.124307" lon="8.293285">
        <ele>301.908</ele>
        <time>2020-08-22T16:23:52Z</time>
      </trkpt>
      <trkpt lat="46.124006" lon="8.293233">
        <ele>301.976</ele>
        <time>2020-08-22T16:24:07Z</time>
      </trkpt>
      <trkpt lat="46.124004" lon="8.293200">
        <ele>301.916</ele>
        <time>2020-08-22T16:24:18Z</time>
      </trkpt>
      <trkpt lat="46.123985" lon="8.293187">
        <ele>300.535</ele>
        <time>2020-08-22T16:24:43Z</time>
      </trkpt>
      <trkpt lat="46.123908" lon="8.293345">
        <ele>272.695</ele>
        <time>2020-08-23T05:32:44Z</time>
      </trkpt>
      <trkpt lat="46.123908" lon="8.293347">
        <ele>272.682</ele>
        <time>2020-08-23T05:32:45Z</time>
      </trkpt>
      <trkpt lat="46.124039" lon="8.293359">
        <ele>276.524</ele>
        <time>2020-08-23T05:33:02Z</time>
      </trkpt>
      <trkpt lat="46.124028" lon="8.293363">
        <ele>279.432</ele>
        <time>2020-08-23T05:33:05Z</time>
      </trkpt>
      <trkpt lat="46.124013" lon="8.293352">
        <ele>282.739</ele>
        <time>2020-08-23T05:33:08Z</time>
      </trkpt>
      <trkpt lat="46.123992" lon="8.293339">
        <ele>286.118</ele>
        <time>2020-08-23T05:33:12Z</time>
      </trkpt>
      <trkpt lat="46.123982" lon="8.293325">
        <ele>289.498</ele>
        <time>2020-08-23T05:33:17Z</time>
      </trkpt>
      <trkpt lat="46.123980" lon="8.293307">
        <ele>292.817</ele>
        <time>2020-08-23T05:33:25Z</time>
      </trkpt>
      <trkpt lat="46.123966" lon="8.293265">
        <ele>294.308</ele>
        <time>2020-08-23T05:33:56Z</time>
      </trkpt>
      <trkpt lat="46.123957" lon="8.293284">
        <ele>294.356</ele>
        <time>2020-08-23T05:34:10Z</time>
      </trkpt>
      <trkpt lat="46.123967" lon="8.293280">
        <ele>291.486</ele>
        <time>2020-08-23T05:34:31Z</time>
      </trkpt>
      <trkpt lat="46.123968" lon="8.293278">
        <ele>291.465</ele>
        <time>2020-08-23T05:34:32Z</time>
      </trkpt>
      <trkpt lat="46.123985" lon="8.293341">
        <ele>291.455</ele>
        <time>2020-08-23T05:35:01Z</time>
      </trkpt>
      <trkpt lat="46.123980" lon="8.293342">
        <ele>292.882</ele>
        <time>2020-08-23T05:35:07Z</time>
      </trkpt>
      <trkpt lat="46.123989" lon="8.293316">
        <ele>291.984</ele>
        <time>2020-08-23T05:35:11Z</time>
      </trkpt>
      <trkpt lat="46.123929" lon="8.293294">
        <ele>291.942</ele>
        <time>2020-08-23T05:35:16Z</time>
      </trkpt>
      <trkpt lat="46.123901" lon="8.293285">
        <ele>291.979</ele>
        <time>2020-08-23T05:35:17Z</time>
      </trkpt>
      <trkpt lat="46.123851" lon="8.293275">
        <ele>291.966</ele>
        <time>2020-08-23T05:35:19Z</time>
      </trkpt>
      <trkpt lat="46.123826" lon="8.293268">
        <ele>291.929</ele>
        <time>2020-08-23T05:35:20Z</time>
      </trkpt>
      <trkpt lat="46.123787" lon="8.293267">
        <ele>291.921</ele>
        <time>2020-08-23T05:35:21Z</time>
      </trkpt>
      <trkpt lat="46.123720" lon="8.293262">
        <ele>291.908</ele>
        <time>2020-08-23T05:35:23Z</time>
      </trkpt>
      <trkpt lat="46.123627" lon="8.293248">
        <ele>291.961</ele>
        <time>2020-08-23T05:35:26Z</time>
      </trkpt>
      <trkpt lat="46.123045" lon="8.293180">
        <ele>291.911</ele>
        <time>2020-08-23T05:35:40Z</time>
      </trkpt>
      <trkpt lat="46.122999" lon="8.293191">
        <ele>291.960</ele>
        <time>2020-08-23T05:35:41Z</time>
      </trkpt>
      <trkpt lat="46.122425" lon="8.293082">
        <ele>292.820</ele>
        <time>2020-08-23T05:35:56Z</time>
      </trkpt>
      <trkpt lat="46.122297" lon="8.293047">
        <ele>292.867</ele>
        <time>2020-08-23T05:35:59Z</time>
      </trkpt>
      <trkpt lat="46.122264" lon="8.293045">
        <ele>292.849</ele>
        <time>2020-08-23T05:36:00Z</time>
      </trkpt>
      <trkpt lat="46.121584" lon="8.292966">
        <ele>292.837</ele>
        <time>2020-08-23T05:36:17Z</time>
      </trkpt>
      <trkpt lat="46.121043" lon="8.292892">
        <ele>293.334</ele>
        <time>2020-08-23T05:36:31Z</time>
      </trkpt>
      <trkpt lat="46.120562" lon="8.292834">
        <ele>292.888</ele>
        <time>2020-08-23T05:36:43Z</time>
      </trkpt>
      <trkpt lat="46.120390" lon="8.292814">
        <ele>292.824</ele>
        <time>2020-08-23T05:36:47Z</time>
      </trkpt>
      <trkpt lat="46.120343" lon="8.292802">
        <ele>292.826</ele>
        <time>2020-08-23T05:36:48Z</time>
      </trkpt>
      <trkpt lat="46.119923" lon="8.292791">
        <ele>292.808</ele>
        <time>2020-08-23T05:36:59Z</time>
      </trkpt>
      <trkpt lat="46.119498" lon="8.292667">
        <ele>292.853</ele>
        <time>2020-08-23T05:37:10Z</time>
      </trkpt>
      <trkpt lat="46.118926" lon="8.292646">
        <ele>292.853</ele>
        <time>2020-08-23T05:37:24Z</time>
      </trkpt>
      <trkpt lat="46.118511" lon="8.292627">
        <ele>292.872</ele>
        <time>2020-08-23T05:37:34Z</time>
      </trkpt>
      <trkpt lat="46.117940" lon="8.292541">
        <ele>291.422</ele>
        <time>2020-08-23T05:37:49Z</time>
      </trkpt>
      <trkpt lat="46.117655" lon="8.292489">
        <ele>291.449</ele>
        <time>2020-08-23T05:37:56Z</time>
      </trkpt>
      <trkpt lat="46.117169" lon="8.292549">
        <ele>289.941</ele>
        <time>2020-08-23T05:38:09Z</time>
      </trkpt>
      <trkpt lat="46.117152" lon="8.292598">
        <ele>289.419</ele>
        <time>2020-08-23T05:38:10Z</time>
      </trkpt>
      <trkpt lat="46.117142" lon="8.292661">
        <ele>289.416</ele>
        <time>2020-08-23T05:38:11Z</time>
      </trkpt>
      <trkpt lat="46.117138" lon="8.292700">
        <ele>289.494</ele>
        <time>2020-08-23T05:38:12Z</time>
      </trkpt>
      <trkpt lat="46.117134" lon="8.292741">
        <ele>289.957</ele>
        <time>2020-08-23T05:38:13Z</time>
      </trkpt>
      <trkpt lat="46.117042" lon="8.293444">
        <ele>290.422</ele>
        <time>2020-08-23T05:38:26Z</time>
      </trkpt>
      <trkpt lat="46.116871" lon="8.294505">
        <ele>287.508</ele>
        <time>2020-08-23T05:38:41Z</time>
      </trkpt>
      <trkpt lat="46.116802" lon="8.294907">
        <ele>286.654</ele>
        <time>2020-08-23T05:38:50Z</time>
      </trkpt>
      <trkpt lat="46.116791" lon="8.295022">
        <ele>286.134</ele>
        <time>2020-08-23T05:38:52Z</time>
      </trkpt>
      <trkpt lat="46.116784" lon="8.295088">
        <ele>286.193</ele>
        <time>2020-08-23T05:38:53Z</time>
      </trkpt>
      <trkpt lat="46.116643" lon="8.295986">
        <ele>282.793</ele>
        <time>2020-08-23T05:39:04Z</time>
      </trkpt>
      <trkpt lat="46.116630" lon="8.296075">
        <ele>282.720</ele>
        <time>2020-08-23T05:39:05Z</time>
      </trkpt>
      <trkpt lat="46.116590" lon="8.296211">
        <ele>281.882</ele>
        <time>2020-08-23T05:39:07Z</time>
      </trkpt>
      <trkpt lat="46.116544" lon="8.296244">
        <ele>281.860</ele>
        <time>2020-08-23T05:39:08Z</time>
      </trkpt>
      <trkpt lat="46.116488" lon="8.296255">
        <ele>282.227</ele>
        <time>2020-08-23T05:39:09Z</time>
      </trkpt>
      <trkpt lat="46.116429" lon="8.296257">
        <ele>282.263</ele>
        <time>2020-08-23T05:39:10Z</time>
      </trkpt>
      <trkpt lat="46.116377" lon="8.296261">
        <ele>281.844</ele>
        <time>2020-08-23T05:39:11Z</time>
      </trkpt>
      <trkpt lat="46.115448" lon="8.295979">
        <ele>282.218</ele>
        <time>2020-08-23T05:39:30Z</time>
      </trkpt>
      <trkpt lat="46.115319" lon="8.295978">
        <ele>282.208</ele>
        <time>2020-08-23T05:39:33Z</time>
      </trkpt>
      <trkpt lat="46.115016" lon="8.296088">
        <ele>281.831</ele>
        <time>2020-08-23T05:39:40Z</time>
      </trkpt>
      <trkpt lat="46.114935" lon="8.296099">
        <ele>281.811</ele>
        <time>2020-08-23T05:39:42Z</time>
      </trkpt>
      <trkpt lat="46.114305" lon="8.296061">
        <ele>281.850</ele>
        <time>2020-08-23T05:39:56Z</time>
      </trkpt>
      <trkpt lat="46.113862" lon="8.296093">
        <ele>281.890</ele>
        <time>2020-08-23T05:40:05Z</time>
      </trkpt>
      <trkpt lat="46.113812" lon="8.296091">
        <ele>281.867</ele>
        <time>2020-08-23T05:40:06Z</time>
      </trkpt>
      <trkpt lat="46.113761" lon="8.296090">
        <ele>281.319</ele>
        <time>2020-08-23T05:40:07Z</time>
      </trkpt>
      <trkpt lat="46.113108" lon="8.296166">
        <ele>278.927</ele>
        <time>2020-08-23T05:40:17Z</time>
      </trkpt>
      <trkpt lat="46.113040" lon="8.296151">
        <ele>278.924</ele>
        <time>2020-08-23T05:40:18Z</time>
      </trkpt>
      <trkpt lat="46.112971" lon="8.296127">
        <ele>278.984</ele>
        <time>2020-08-23T05:40:19Z</time>
      </trkpt>
      <trkpt lat="46.112617" lon="8.295990">
        <ele>277.007</ele>
        <time>2020-08-23T05:40:26Z</time>
      </trkpt>
      <trkpt lat="46.112502" lon="8.296149">
        <ele>276.517</ele>
        <time>2020-08-23T05:40:31Z</time>
      </trkpt>
      <trkpt lat="46.112295" lon="8.297074">
        <ele>276.508</ele>
        <time>2020-08-23T05:40:45Z</time>
      </trkpt>
      <trkpt lat="46.112323" lon="8.298250">
        <ele>276.583</ele>
        <time>2020-08-23T05:41:01Z</time>
      </trkpt>
      <trkpt lat="46.112310" lon="8.298372">
        <ele>276.523</ele>
        <time>2020-08-23T05:41:03Z</time>
      </trkpt>
      <trkpt lat="46.112285" lon="8.298422">
        <ele>276.592</ele>
        <time>2020-08-23T05:41:04Z</time>
      </trkpt>
      <trkpt lat="46.112244" lon="8.298449">
        <ele>276.592</ele>
        <time>2020-08-23T05:41:05Z</time>
      </trkpt>
      <trkpt lat="46.112197" lon="8.298460">
        <ele>276.549</ele>
        <time>2020-08-23T05:41:06Z</time>
      </trkpt>
      <trkpt lat="46.112148" lon="8.298463">
        <ele>276.551</ele>
        <time>2020-08-23T05:41:07Z</time>
      </trkpt>
      <trkpt lat="46.112104" lon="8.298454">
        <ele>276.589</ele>
        <time>2020-08-23T05:41:08Z</time>
      </trkpt>
      <trkpt lat="46.111968" lon="8.298415">
        <ele>276.066</ele>
        <time>2020-08-23T05:41:11Z</time>
      </trkpt>
      <trkpt lat="46.111531" lon="8.298370">
        <ele>276.058</ele>
        <time>2020-08-23T05:41:23Z</time>
      </trkpt>
      <trkpt lat="46.111298" lon="8.298905">
        <ele>275.052</ele>
        <time>2020-08-23T05:41:32Z</time>
      </trkpt>
      <trkpt lat="46.110882" lon="8.300110">
        <ele>273.117</ele>
        <time>2020-08-23T05:41:48Z</time>
      </trkpt>
      <trkpt lat="46.110707" lon="8.300668">
        <ele>272.108</ele>
        <time>2020-08-23T05:41:55Z</time>
      </trkpt>
      <trkpt lat="46.110682" lon="8.300745">
        <ele>272.120</ele>
        <time>2020-08-23T05:41:56Z</time>
      </trkpt>
      <trkpt lat="46.110617" lon="8.300977">
        <ele>271.720</ele>
        <time>2020-08-23T05:41:59Z</time>
      </trkpt>
      <trkpt lat="46.110433" lon="8.301568">
        <ele>270.229</ele>
        <time>2020-08-23T05:42:07Z</time>
      </trkpt>
      <trkpt lat="46.110414" lon="8.301645">
        <ele>270.219</ele>
        <time>2020-08-23T05:42:08Z</time>
      </trkpt>
      <trkpt lat="46.110401" lon="8.301713">
        <ele>270.266</ele>
        <time>2020-08-23T05:42:09Z</time>
      </trkpt>
      <trkpt lat="46.110384" lon="8.301864">
        <ele>270.298</ele>
        <time>2020-08-23T05:42:11Z</time>
      </trkpt>
      <trkpt lat="46.110380" lon="8.301937">
        <ele>270.226</ele>
        <time>2020-08-23T05:42:12Z</time>
      </trkpt>
      <trkpt lat="46.110292" lon="8.302898">
        <ele>269.723</ele>
        <time>2020-08-23T05:42:26Z</time>
      </trkpt>
      <trkpt lat="46.110215" lon="8.303936">
        <ele>269.791</ele>
        <time>2020-08-23T05:42:41Z</time>
      </trkpt>
      <trkpt lat="46.110118" lon="8.304968">
        <ele>269.381</ele>
        <time>2020-08-23T05:42:56Z</time>
      </trkpt>
      <trkpt lat="46.110081" lon="8.305265">
        <ele>269.319</ele>
        <time>2020-08-23T05:43:01Z</time>
      </trkpt>
      <trkpt lat="46.110069" lon="8.305319">
        <ele>269.308</ele>
        <time>2020-08-23T05:43:02Z</time>
      </trkpt>
      <trkpt lat="46.110046" lon="8.305371">
        <ele>269.394</ele>
        <time>2020-08-23T05:43:03Z</time>
      </trkpt>
      <trkpt lat="46.110003" lon="8.305410">
        <ele>269.354</ele>
        <time>2020-08-23T05:43:04Z</time>
      </trkpt>
      <trkpt lat="46.109976" lon="8.305424">
        <ele>269.323</ele>
        <time>2020-08-23T05:43:05Z</time>
      </trkpt>
      <trkpt lat="46.109935" lon="8.305438">
        <ele>269.313</ele>
        <time>2020-08-23T05:43:06Z</time>
      </trkpt>
      <trkpt lat="46.109897" lon="8.305445">
        <ele>269.380</ele>
        <time>2020-08-23T05:43:07Z</time>
      </trkpt>
      <trkpt lat="46.109858" lon="8.305450">
        <ele>269.342</ele>
        <time>2020-08-23T05:43:08Z</time>
      </trkpt>
      <trkpt lat="46.109825" lon="8.305453">
        <ele>269.310</ele>
        <time>2020-08-23T05:43:09Z</time>
      </trkpt>
      <trkpt lat="46.109796" lon="8.305445">
        <ele>269.317</ele>
        <time>2020-08-23T05:43:10Z</time>
      </trkpt>
      <trkpt lat="46.109773" lon="8.305436">
        <ele>269.395</ele>
        <time>2020-08-23T05:43:11Z</time>
      </trkpt>
      <trkpt lat="46.109758" lon="8.305427">
        <ele>269.349</ele>
        <time>2020-08-23T05:43:12Z</time>
      </trkpt>
      <trkpt lat="46.109748" lon="8.305418">
        <ele>269.323</ele>
        <time>2020-08-23T05:43:13Z</time>
      </trkpt>
      <trkpt lat="46.109739" lon="8.305413">
        <ele>269.308</ele>
        <time>2020-08-23T05:43:14Z</time>
      </trkpt>
      <trkpt lat="46.109731" lon="8.305409">
        <ele>269.344</ele>
        <time>2020-08-23T05:43:15Z</time>
      </trkpt>
      <trkpt lat="46.109409" lon="8.305318">
        <ele>269.344</ele>
        <time>2020-08-23T05:43:26Z</time>
      </trkpt>
      <trkpt lat="46.108875" lon="8.305111">
        <ele>269.313</ele>
        <time>2020-08-23T05:43:40Z</time>
      </trkpt>
      <trkpt lat="46.108591" lon="8.305057">
        <ele>269.393</ele>
        <time>2020-08-23T05:43:51Z</time>
      </trkpt>
      <trkpt lat="46.108593" lon="8.305050">
        <ele>268.820</ele>
        <time>2020-08-23T05:44:19Z</time>
      </trkpt>
      <trkpt lat="46.108493" lon="8.305030">
        <ele>268.852</ele>
        <time>2020-08-23T05:44:44Z</time>
      </trkpt>
      <trkpt lat="46.108228" lon="8.304955">
        <ele>268.330</ele>
        <time>2020-08-23T05:45:01Z</time>
      </trkpt>
      <trkpt lat="46.107871" lon="8.304766">
        <ele>268.367</ele>
        <time>2020-08-23T05:45:21Z</time>
      </trkpt>
      <trkpt lat="46.107598" lon="8.304625">
        <ele>267.395</ele>
        <time>2020-08-23T05:45:37Z</time>
      </trkpt>
      <trkpt lat="46.107515" lon="8.304605">
        <ele>268.849</ele>
        <time>2020-08-23T05:45:42Z</time>
      </trkpt>
      <trkpt lat="46.107272" lon="8.304548">
        <ele>267.823</ele>
        <time>2020-08-23T05:45:57Z</time>
      </trkpt>
      <trkpt lat="46.107256" lon="8.304544">
        <ele>267.808</ele>
        <time>2020-08-23T05:45:58Z</time>
      </trkpt>
      <trkpt lat="46.106961" lon="8.304492">
        <ele>267.874</ele>
        <time>2020-08-23T05:46:14Z</time>
      </trkpt>
      <trkpt lat="46.106740" lon="8.304436">
        <ele>267.364</ele>
        <time>2020-08-23T05:46:21Z</time>
      </trkpt>
      <trkpt lat="46.106237" lon="8.304327">
        <ele>266.943</ele>
        <time>2020-08-23T05:46:35Z</time>
      </trkpt>
      <trkpt lat="46.105515" lon="8.304150">
        <ele>266.933</ele>
        <time>2020-08-23T05:46:51Z</time>
      </trkpt>
      <trkpt lat="46.105472" lon="8.304128">
        <ele>266.940</ele>
        <time>2020-08-23T05:46:52Z</time>
      </trkpt>
      <trkpt lat="46.104955" lon="8.303932">
        <ele>265.432</ele>
        <time>2020-08-23T05:47:01Z</time>
      </trkpt>
      <trkpt lat="46.104902" lon="8.303932">
        <ele>264.920</ele>
        <time>2020-08-23T05:47:02Z</time>
      </trkpt>
      <trkpt lat="46.103951" lon="8.304017">
        <ele>263.027</ele>
        <time>2020-08-23T05:47:18Z</time>
      </trkpt>
      <trkpt lat="46.103052" lon="8.304180">
        <ele>262.535</ele>
        <time>2020-08-23T05:47:34Z</time>
      </trkpt>
      <trkpt lat="46.102095" lon="8.304323">
        <ele>262.586</ele>
        <time>2020-08-23T05:47:53Z</time>
      </trkpt>
      <trkpt lat="46.101737" lon="8.304345">
        <ele>262.514</ele>
        <time>2020-08-23T05:48:00Z</time>
      </trkpt>
      <trkpt lat="46.100753" lon="8.304452">
        <ele>262.108</ele>
        <time>2020-08-23T05:48:19Z</time>
      </trkpt>
      <trkpt lat="46.099666" lon="8.304445">
        <ele>260.698</ele>
        <time>2020-08-23T05:48:39Z</time>
      </trkpt>
      <trkpt lat="46.098602" lon="8.304404">
        <ele>260.168</ele>
        <time>2020-08-23T05:48:58Z</time>
      </trkpt>
      <trkpt lat="46.097676" lon="8.304324">
        <ele>259.277</ele>
        <time>2020-08-23T05:49:16Z</time>
      </trkpt>
      <trkpt lat="46.097249" lon="8.304347">
        <ele>261.687</ele>
        <time>2020-08-23T05:49:30Z</time>
      </trkpt>
      <trkpt lat="46.096730" lon="8.304191">
        <ele>262.164</ele>
        <time>2020-08-23T05:49:45Z</time>
      </trkpt>
      <trkpt lat="46.096035" lon="8.303960">
        <ele>262.186</ele>
        <time>2020-08-23T05:50:02Z</time>
      </trkpt>
      <trkpt lat="46.095373" lon="8.303677">
        <ele>261.624</ele>
        <time>2020-08-23T05:50:18Z</time>
      </trkpt>
      <trkpt lat="46.094934" lon="8.303424">
        <ele>260.621</ele>
        <time>2020-08-23T05:50:28Z</time>
      </trkpt>
      <trkpt lat="46.094141" lon="8.302855">
        <ele>257.747</ele>
        <time>2020-08-23T05:50:42Z</time>
      </trkpt>
      <trkpt lat="46.094088" lon="8.302788">
        <ele>257.229</ele>
        <time>2020-08-23T05:50:43Z</time>
      </trkpt>
      <trkpt lat="46.094054" lon="8.302717">
        <ele>257.221</ele>
        <time>2020-08-23T05:50:44Z</time>
      </trkpt>
      <trkpt lat="46.094027" lon="8.302637">
        <ele>257.208</ele>
        <time>2020-08-23T05:50:45Z</time>
      </trkpt>
      <trkpt lat="46.094003" lon="8.302557">
        <ele>257.269</ele>
        <time>2020-08-23T05:50:46Z</time>
      </trkpt>
      <trkpt lat="46.093872" lon="8.302077">
        <ele>256.839</ele>
        <time>2020-08-23T05:50:52Z</time>
      </trkpt>
      <trkpt lat="46.093839" lon="8.302038">
        <ele>256.878</ele>
        <time>2020-08-23T05:50:53Z</time>
      </trkpt>
      <trkpt lat="46.093597" lon="8.301595">
        <ele>256.318</ele>
        <time>2020-08-23T05:51:02Z</time>
      </trkpt>
      <trkpt lat="46.093548" lon="8.301301">
        <ele>256.395</ele>
        <time>2020-08-23T05:51:07Z</time>
      </trkpt>
      <trkpt lat="46.093546" lon="8.301239">
        <ele>256.387</ele>
        <time>2020-08-23T05:51:08Z</time>
      </trkpt>
      <trkpt lat="46.093552" lon="8.299951">
        <ele>256.325</ele>
        <time>2020-08-23T05:51:28Z</time>
      </trkpt>
      <trkpt lat="46.093559" lon="8.299095">
        <ele>256.352</ele>
        <time>2020-08-23T05:51:40Z</time>
      </trkpt>
      <trkpt lat="46.093549" lon="8.299027">
        <ele>256.348</ele>
        <time>2020-08-23T05:51:41Z</time>
      </trkpt>
      <trkpt lat="46.093529" lon="8.298967">
        <ele>255.861</ele>
        <time>2020-08-23T05:51:42Z</time>
      </trkpt>
      <trkpt lat="46.093502" lon="8.298914">
        <ele>255.817</ele>
        <time>2020-08-23T05:51:43Z</time>
      </trkpt>
      <trkpt lat="46.093472" lon="8.298866">
        <ele>255.808</ele>
        <time>2020-08-23T05:51:44Z</time>
      </trkpt>
      <trkpt lat="46.093440" lon="8.298826">
        <ele>255.839</ele>
        <time>2020-08-23T05:51:45Z</time>
      </trkpt>
      <trkpt lat="46.093420" lon="8.298795">
        <ele>255.879</ele>
        <time>2020-08-23T05:51:46Z</time>
      </trkpt>
      <trkpt lat="46.093413" lon="8.298781">
        <ele>255.838</ele>
        <time>2020-08-23T05:51:47Z</time>
      </trkpt>
      <trkpt lat="46.093379" lon="8.298744">
        <ele>255.388</ele>
        <time>2020-08-23T05:51:52Z</time>
      </trkpt>
      <trkpt lat="46.093367" lon="8.298734">
        <ele>255.395</ele>
        <time>2020-08-23T05:51:53Z</time>
      </trkpt>
      <trkpt lat="46.093356" lon="8.298723">
        <ele>255.377</ele>
        <time>2020-08-23T05:51:54Z</time>
      </trkpt>
      <trkpt lat="46.093342" lon="8.298709">
        <ele>254.885</ele>
        <time>2020-08-23T05:51:55Z</time>
      </trkpt>
      <trkpt lat="46.093327" lon="8.298696">
        <ele>254.862</ele>
        <time>2020-08-23T05:51:56Z</time>
      </trkpt>
      <trkpt lat="46.093313" lon="8.298679">
        <ele>254.822</ele>
        <time>2020-08-23T05:51:57Z</time>
      </trkpt>
      <trkpt lat="46.093297" lon="8.298657">
        <ele>254.862</ele>
        <time>2020-08-23T05:51:58Z</time>
      </trkpt>
      <trkpt lat="46.093283" lon="8.298640">
        <ele>254.808</ele>
        <time>2020-08-23T05:51:59Z</time>
      </trkpt>
      <trkpt lat="46.093263" lon="8.298616">
        <ele>254.808</ele>
        <time>2020-08-23T05:52:00Z</time>
      </trkpt>
      <trkpt lat="46.093244" lon="8.298592">
        <ele>254.827</ele>
        <time>2020-08-23T05:52:01Z</time>
      </trkpt>
      <trkpt lat="46.092889" lon="8.298161">
        <ele>254.437</ele>
        <time>2020-08-23T05:52:14Z</time>
      </trkpt>
      <trkpt lat="46.092475" lon="8.297701">
        <ele>253.966</ele>
        <time>2020-08-23T05:52:28Z</time>
      </trkpt>
      <trkpt lat="46.092365" lon="8.297608">
        <ele>253.966</ele>
        <time>2020-08-23T05:52:31Z</time>
      </trkpt>
      <trkpt lat="46.091743" lon="8.297285">
        <ele>253.993</ele>
        <time>2020-08-23T05:52:48Z</time>
      </trkpt>
      <trkpt lat="46.091654" lon="8.297270">
        <ele>253.915</ele>
        <time>2020-08-23T05:52:50Z</time>
      </trkpt>
      <trkpt lat="46.091605" lon="8.297274">
        <ele>253.933</ele>
        <time>2020-08-23T05:52:51Z</time>
      </trkpt>
      <trkpt lat="46.091558" lon="8.297293">
        <ele>253.990</ele>
        <time>2020-08-23T05:52:52Z</time>
      </trkpt>
      <trkpt lat="46.091517" lon="8.297329">
        <ele>253.979</ele>
        <time>2020-08-23T05:52:53Z</time>
      </trkpt>
      <trkpt lat="46.091485" lon="8.297373">
        <ele>253.905</ele>
        <time>2020-08-23T05:52:54Z</time>
      </trkpt>
      <trkpt lat="46.091459" lon="8.297419">
        <ele>253.925</ele>
        <time>2020-08-23T05:52:55Z</time>
      </trkpt>
      <trkpt lat="46.091432" lon="8.297460">
        <ele>253.908</ele>
        <time>2020-08-23T05:52:56Z</time>
      </trkpt>
      <trkpt lat="46.091402" lon="8.297494">
        <ele>253.952</ele>
        <time>2020-08-23T05:52:57Z</time>
      </trkpt>
      <trkpt lat="46.091370" lon="8.297524">
        <ele>253.932</ele>
        <time>2020-08-23T05:52:58Z</time>
      </trkpt>
      <trkpt lat="46.091343" lon="8.297545">
        <ele>253.951</ele>
        <time>2020-08-23T05:52:59Z</time>
      </trkpt>
      <trkpt lat="46.091313" lon="8.297567">
        <ele>253.991</ele>
        <time>2020-08-23T05:53:00Z</time>
      </trkpt>
      <trkpt lat="46.091288" lon="8.297586">
        <ele>253.998</ele>
        <time>2020-08-23T05:53:01Z</time>
      </trkpt>
      <trkpt lat="46.091259" lon="8.297610">
        <ele>253.970</ele>
        <time>2020-08-23T05:53:02Z</time>
      </trkpt>
      <trkpt lat="46.091227" lon="8.297637">
        <ele>253.998</ele>
        <time>2020-08-23T05:53:03Z</time>
      </trkpt>
      <trkpt lat="46.091196" lon="8.297662">
        <ele>252.945</ele>
        <time>2020-08-23T05:53:04Z</time>
      </trkpt>
      <trkpt lat="46.090814" lon="8.297892">
        <ele>253.968</ele>
        <time>2020-08-23T05:53:16Z</time>
      </trkpt>
      <trkpt lat="46.090455" lon="8.297919">
        <ele>254.442</ele>
        <time>2020-08-23T05:53:29Z</time>
      </trkpt>
      <trkpt lat="46.090084" lon="8.297471">
        <ele>254.826</ele>
        <time>2020-08-23T05:53:42Z</time>
      </trkpt>
      <trkpt lat="46.089668" lon="8.296742">
        <ele>252.408</ele>
        <time>2020-08-23T05:53:56Z</time>
      </trkpt>
      <trkpt lat="46.089549" lon="8.296120">
        <ele>251.071</ele>
        <time>2020-08-23T05:54:09Z</time>
      </trkpt>
      <trkpt lat="46.089568" lon="8.296008">
        <ele>252.491</ele>
        <time>2020-08-23T05:54:13Z</time>
      </trkpt>
      <trkpt lat="46.089427" lon="8.295601">
        <ele>252.990</ele>
        <time>2020-08-23T05:54:24Z</time>
      </trkpt>
      <trkpt lat="46.089296" lon="8.295248">
        <ele>252.930</ele>
        <time>2020-08-23T05:54:33Z</time>
      </trkpt>
      <trkpt lat="46.089294" lon="8.295086">
        <ele>251.097</ele>
        <time>2020-08-23T05:54:36Z</time>
      </trkpt>
      <trkpt lat="46.089264" lon="8.294608">
        <ele>249.699</ele>
        <time>2020-08-23T05:54:46Z</time>
      </trkpt>
      <trkpt lat="46.089250" lon="8.294340">
        <ele>249.647</ele>
        <time>2020-08-23T05:54:54Z</time>
      </trkpt>
      <trkpt lat="46.089242" lon="8.294310">
        <ele>249.614</ele>
        <time>2020-08-23T05:54:55Z</time>
      </trkpt>
      <trkpt lat="46.089241" lon="8.294279">
        <ele>249.641</ele>
        <time>2020-08-23T05:54:56Z</time>
      </trkpt>
      <trkpt lat="46.089244" lon="8.294245">
        <ele>249.681</ele>
        <time>2020-08-23T05:54:57Z</time>
      </trkpt>
      <trkpt lat="46.089243" lon="8.294209">
        <ele>249.609</ele>
        <time>2020-08-23T05:54:58Z</time>
      </trkpt>
      <trkpt lat="46.089244" lon="8.294183">
        <ele>249.608</ele>
        <time>2020-08-23T05:54:59Z</time>
      </trkpt>
      <trkpt lat="46.089248" lon="8.294160">
        <ele>249.619</ele>
        <time>2020-08-23T05:55:00Z</time>
      </trkpt>
      <trkpt lat="46.089248" lon="8.293882">
        <ele>249.659</ele>
        <time>2020-08-23T05:55:10Z</time>
      </trkpt>
      <trkpt lat="46.089178" lon="8.293445">
        <ele>249.698</ele>
        <time>2020-08-23T05:55:21Z</time>
      </trkpt>
      <trkpt lat="46.089169" lon="8.293232">
        <ele>251.028</ele>
        <time>2020-08-23T05:55:28Z</time>
      </trkpt>
      <trkpt lat="46.089165" lon="8.293131">
        <ele>252.025</ele>
        <time>2020-08-23T05:55:33Z</time>
      </trkpt>
      <trkpt lat="46.089162" lon="8.293107">
        <ele>252.017</ele>
        <time>2020-08-23T05:55:34Z</time>
      </trkpt>
      <trkpt lat="46.089156" lon="8.292524">
        <ele>252.095</ele>
        <time>2020-08-23T05:55:47Z</time>
      </trkpt>
      <trkpt lat="46.089131" lon="8.291998">
        <ele>252.092</ele>
        <time>2020-08-23T05:55:58Z</time>
      </trkpt>
      <trkpt lat="46.089103" lon="8.291419">
        <ele>252.016</ele>
        <time>2020-08-23T05:56:09Z</time>
      </trkpt>
      <trkpt lat="46.089099" lon="8.290894">
        <ele>252.076</ele>
        <time>2020-08-23T05:56:20Z</time>
      </trkpt>
      <trkpt lat="46.089172" lon="8.290706">
        <ele>253.913</ele>
        <time>2020-08-23T05:56:29Z</time>
      </trkpt>
      <trkpt lat="46.089178" lon="8.290677">
        <ele>253.908</ele>
        <time>2020-08-23T05:56:30Z</time>
      </trkpt>
      <trkpt lat="46.089185" lon="8.290650">
        <ele>253.976</ele>
        <time>2020-08-23T05:56:31Z</time>
      </trkpt>
      <trkpt lat="46.089191" lon="8.290622">
        <ele>253.926</ele>
        <time>2020-08-23T05:56:32Z</time>
      </trkpt>
      <trkpt lat="46.089192" lon="8.290578">
        <ele>253.985</ele>
        <time>2020-08-23T05:56:33Z</time>
      </trkpt>
      <trkpt lat="46.089188" lon="8.290532">
        <ele>254.455</ele>
        <time>2020-08-23T05:56:34Z</time>
      </trkpt>
      <trkpt lat="46.089183" lon="8.290486">
        <ele>254.462</ele>
        <time>2020-08-23T05:56:35Z</time>
      </trkpt>
      <trkpt lat="46.089174" lon="8.290431">
        <ele>254.434</ele>
        <time>2020-08-23T05:56:36Z</time>
      </trkpt>
      <trkpt lat="46.089083" lon="8.289641">
        <ele>254.422</ele>
        <time>2020-08-23T05:56:50Z</time>
      </trkpt>
      <trkpt lat="46.088994" lon="8.289159">
        <ele>254.469</ele>
        <time>2020-08-23T05:56:58Z</time>
      </trkpt>
      <trkpt lat="46.088979" lon="8.289100">
        <ele>254.417</ele>
        <time>2020-08-23T05:56:59Z</time>
      </trkpt>
      <trkpt lat="46.088736" lon="8.288238">
        <ele>252.987</ele>
        <time>2020-08-23T05:57:13Z</time>
      </trkpt>
      <trkpt lat="46.088310" lon="8.287317">
        <ele>252.915</ele>
        <time>2020-08-23T05:57:29Z</time>
      </trkpt>
      <trkpt lat="46.087890" lon="8.286806">
        <ele>252.408</ele>
        <time>2020-08-23T05:57:40Z</time>
      </trkpt>
      <trkpt lat="46.087452" lon="8.286378">
        <ele>252.096</ele>
        <time>2020-08-23T05:57:51Z</time>
      </trkpt>
      <trkpt lat="46.087413" lon="8.286353">
        <ele>252.036</ele>
        <time>2020-08-23T05:57:52Z</time>
      </trkpt>
      <trkpt lat="46.087370" lon="8.286333">
        <ele>252.025</ele>
        <time>2020-08-23T05:57:53Z</time>
      </trkpt>
      <trkpt lat="46.086789" lon="8.286043">
        <ele>251.595</ele>
        <time>2020-08-23T05:58:06Z</time>
      </trkpt>
      <trkpt lat="46.086163" lon="8.285607">
        <ele>251.542</ele>
        <time>2020-08-23T05:58:21Z</time>
      </trkpt>
      <trkpt lat="46.085627" lon="8.285196">
        <ele>251.094</ele>
        <time>2020-08-23T05:58:34Z</time>
      </trkpt>
      <trkpt lat="46.085545" lon="8.285127">
        <ele>251.052</ele>
        <time>2020-08-23T05:58:36Z</time>
      </trkpt>
      <trkpt lat="46.084972" lon="8.284760">
        <ele>251.019</ele>
        <time>2020-08-23T05:58:49Z</time>
      </trkpt>
      <trkpt lat="46.084099" lon="8.284186">
        <ele>250.543</ele>
        <time>2020-08-23T05:59:08Z</time>
      </trkpt>
      <trkpt lat="46.083764" lon="8.283955">
        <ele>251.564</ele>
        <time>2020-08-23T05:59:16Z</time>
      </trkpt>
      <trkpt lat="46.083729" lon="8.283915">
        <ele>251.510</ele>
        <time>2020-08-23T05:59:17Z</time>
      </trkpt>
      <trkpt lat="46.083688" lon="8.283853">
        <ele>251.508</ele>
        <time>2020-08-23T05:59:18Z</time>
      </trkpt>
      <trkpt lat="46.083656" lon="8.283788">
        <ele>250.599</ele>
        <time>2020-08-23T05:59:19Z</time>
      </trkpt>
      <trkpt lat="46.083621" lon="8.283705">
        <ele>250.099</ele>
        <time>2020-08-23T05:59:20Z</time>
      </trkpt>
      <trkpt lat="46.083587" lon="8.283621">
        <ele>249.658</ele>
        <time>2020-08-23T05:59:21Z</time>
      </trkpt>
      <trkpt lat="46.083543" lon="8.283544">
        <ele>249.638</ele>
        <time>2020-08-23T05:59:22Z</time>
      </trkpt>
      <trkpt lat="46.083494" lon="8.283487">
        <ele>249.625</ele>
        <time>2020-08-23T05:59:23Z</time>
      </trkpt>
      <trkpt lat="46.083439" lon="8.283446">
        <ele>249.627</ele>
        <time>2020-08-23T05:59:24Z</time>
      </trkpt>
      <trkpt lat="46.082572" lon="8.282889">
        <ele>248.655</ele>
        <time>2020-08-23T05:59:41Z</time>
      </trkpt>
      <trkpt lat="46.082375" lon="8.282756">
        <ele>248.192</ele>
        <time>2020-08-23T05:59:45Z</time>
      </trkpt>
      <trkpt lat="46.081584" lon="8.281807">
        <ele>247.219</ele>
        <time>2020-08-23T06:00:04Z</time>
      </trkpt>
      <trkpt lat="46.081263" lon="8.281428">
        <ele>248.109</ele>
        <time>2020-08-23T06:00:14Z</time>
      </trkpt>
      <trkpt lat="46.081085" lon="8.281115">
        <ele>249.119</ele>
        <time>2020-08-23T06:00:24Z</time>
      </trkpt>
      <trkpt lat="46.081067" lon="8.281042">
        <ele>249.108</ele>
        <time>2020-08-23T06:00:25Z</time>
      </trkpt>
      <trkpt lat="46.081034" lon="8.280867">
        <ele>247.626</ele>
        <time>2020-08-23T06:00:27Z</time>
      </trkpt>
      <trkpt lat="46.080852" lon="8.280007">
        <ele>245.756</ele>
        <time>2020-08-23T06:00:37Z</time>
      </trkpt>
      <trkpt lat="46.080676" lon="8.279436">
        <ele>245.735</ele>
        <time>2020-08-23T06:00:46Z</time>
      </trkpt>
      <trkpt lat="46.080650" lon="8.279380">
        <ele>245.735</ele>
        <time>2020-08-23T06:00:47Z</time>
      </trkpt>
      <trkpt lat="46.080616" lon="8.279323">
        <ele>245.792</ele>
        <time>2020-08-23T06:00:48Z</time>
      </trkpt>
      <trkpt lat="46.080585" lon="8.279282">
        <ele>245.764</ele>
        <time>2020-08-23T06:00:49Z</time>
      </trkpt>
      <trkpt lat="46.080544" lon="8.279237">
        <ele>245.792</ele>
        <time>2020-08-23T06:00:50Z</time>
      </trkpt>
      <trkpt lat="46.080502" lon="8.279195">
        <ele>245.759</ele>
        <time>2020-08-23T06:00:51Z</time>
      </trkpt>
      <trkpt lat="46.080418" lon="8.279098">
        <ele>245.761</ele>
        <time>2020-08-23T06:00:53Z</time>
      </trkpt>
      <trkpt lat="46.080385" lon="8.279044">
        <ele>245.721</ele>
        <time>2020-08-23T06:00:54Z</time>
      </trkpt>
      <trkpt lat="46.080181" lon="8.278472">
        <ele>244.713</ele>
        <time>2020-08-23T06:01:02Z</time>
      </trkpt>
      <trkpt lat="46.080186" lon="8.278398">
        <ele>244.708</ele>
        <time>2020-08-23T06:01:03Z</time>
      </trkpt>
      <trkpt lat="46.080210" lon="8.278327">
        <ele>244.741</ele>
        <time>2020-08-23T06:01:04Z</time>
      </trkpt>
      <trkpt lat="46.080231" lon="8.278293">
        <ele>244.791</ele>
        <time>2020-08-23T06:01:05Z</time>
      </trkpt>
      <trkpt lat="46.080263" lon="8.278259">
        <ele>244.790</ele>
        <time>2020-08-23T06:01:06Z</time>
      </trkpt>
      <trkpt lat="46.080280" lon="8.278243">
        <ele>244.720</ele>
        <time>2020-08-23T06:01:07Z</time>
      </trkpt>
      <trkpt lat="46.080303" lon="8.278227">
        <ele>244.727</ele>
        <time>2020-08-23T06:01:08Z</time>
      </trkpt>
      <trkpt lat="46.080323" lon="8.278216">
        <ele>246.279</ele>
        <time>2020-08-23T06:01:09Z</time>
      </trkpt>
      <trkpt lat="46.080361" lon="8.278204">
        <ele>246.777</ele>
        <time>2020-08-23T06:01:11Z</time>
      </trkpt>
      <trkpt lat="46.080785" lon="8.278157">
        <ele>246.784</ele>
        <time>2020-08-23T06:01:24Z</time>
      </trkpt>
      <trkpt lat="46.081034" lon="8.278093">
        <ele>246.721</ele>
        <time>2020-08-23T06:01:30Z</time>
      </trkpt>
      <trkpt lat="46.081077" lon="8.278088">
        <ele>246.741</ele>
        <time>2020-08-23T06:01:31Z</time>
      </trkpt>
      <trkpt lat="46.081506" lon="8.278108">
        <ele>247.205</ele>
        <time>2020-08-23T06:01:43Z</time>
      </trkpt>
      <trkpt lat="46.081514" lon="8.278077">
        <ele>247.208</ele>
        <time>2020-08-23T06:01:44Z</time>
      </trkpt>
      <trkpt lat="46.081511" lon="8.278043">
        <ele>247.257</ele>
        <time>2020-08-23T06:01:45Z</time>
      </trkpt>
      <trkpt lat="46.081377" lon="8.277382">
        <ele>247.297</ele>
        <time>2020-08-23T06:01:59Z</time>
      </trkpt>
      <trkpt lat="46.081304" lon="8.276942">
        <ele>247.296</ele>
        <time>2020-08-23T06:02:07Z</time>
      </trkpt>
      <trkpt lat="46.081267" lon="8.276914">
        <ele>247.226</ele>
        <time>2020-08-23T06:02:08Z</time>
      </trkpt>
      <trkpt lat="46.081235" lon="8.276908">
        <ele>247.233</ele>
        <time>2020-08-23T06:02:09Z</time>
      </trkpt>
      <trkpt lat="46.081220" lon="8.276909">
        <ele>247.275</ele>
        <time>2020-08-23T06:02:10Z</time>
      </trkpt>
      <trkpt lat="46.081208" lon="8.276935">
        <ele>245.793</ele>
        <time>2020-08-23T06:02:24Z</time>
      </trkpt>
      <trkpt lat="46.081214" lon="8.276915">
        <ele>245.770</ele>
        <time>2020-08-23T06:02:59Z</time>
      </trkpt>
      <trkpt lat="46.081207" lon="8.276920">
        <ele>245.795</ele>
        <time>2020-08-23T06:03:30Z</time>
      </trkpt>
      <trkpt lat="46.081024" lon="8.276973">
        <ele>245.749</ele>
        <time>2020-08-23T06:03:44Z</time>
      </trkpt>
      <trkpt lat="46.080323" lon="8.277133">
        <ele>245.723</ele>
        <time>2020-08-23T06:04:00Z</time>
      </trkpt>
      <trkpt lat="46.079990" lon="8.277198">
        <ele>245.708</ele>
        <time>2020-08-23T06:04:07Z</time>
      </trkpt>
      <trkpt lat="46.079943" lon="8.277223">
        <ele>245.734</ele>
        <time>2020-08-23T06:04:08Z</time>
      </trkpt>
      <trkpt lat="46.079901" lon="8.277259">
        <ele>245.784</ele>
        <time>2020-08-23T06:04:09Z</time>
      </trkpt>
      <trkpt lat="46.079328" lon="8.277807">
        <ele>245.763</ele>
        <time>2020-08-23T06:04:23Z</time>
      </trkpt>
      <trkpt lat="46.078976" lon="8.278084">
        <ele>245.763</ele>
        <time>2020-08-23T06:04:31Z</time>
      </trkpt>
      <trkpt lat="46.078924" lon="8.278099">
        <ele>245.790</ele>
        <time>2020-08-23T06:04:32Z</time>
      </trkpt>
      <trkpt lat="46.078870" lon="8.278092">
        <ele>245.772</ele>
        <time>2020-08-23T06:04:33Z</time>
      </trkpt>
      <trkpt lat="46.078817" lon="8.278068">
        <ele>245.730</ele>
        <time>2020-08-23T06:04:34Z</time>
      </trkpt>
      <trkpt lat="46.078768" lon="8.278033">
        <ele>245.717</ele>
        <time>2020-08-23T06:04:35Z</time>
      </trkpt>
      <trkpt lat="46.078723" lon="8.277990">
        <ele>245.715</ele>
        <time>2020-08-23T06:04:36Z</time>
      </trkpt>
      <trkpt lat="46.078680" lon="8.277936">
        <ele>245.265</ele>
        <time>2020-08-23T06:04:37Z</time>
      </trkpt>
      <trkpt lat="46.078644" lon="8.277878">
        <ele>245.211</ele>
        <time>2020-08-23T06:04:38Z</time>
      </trkpt>
      <trkpt lat="46.078609" lon="8.277816">
        <ele>245.208</ele>
        <time>2020-08-23T06:04:39Z</time>
      </trkpt>
      <trkpt lat="46.078395" lon="8.277394">
        <ele>245.276</ele>
        <time>2020-08-23T06:04:46Z</time>
      </trkpt>
      <trkpt lat="46.078043" lon="8.276826">
        <ele>245.266</ele>
        <time>2020-08-23T06:04:56Z</time>
      </trkpt>
      <trkpt lat="46.078005" lon="8.276787">
        <ele>245.245</ele>
        <time>2020-08-23T06:04:57Z</time>
      </trkpt>
      <trkpt lat="46.077954" lon="8.276744">
        <ele>245.225</ele>
        <time>2020-08-23T06:04:58Z</time>
      </trkpt>
      <trkpt lat="46.077910" lon="8.276714">
        <ele>245.232</ele>
        <time>2020-08-23T06:04:59Z</time>
      </trkpt>
      <trkpt lat="46.077861" lon="8.276689">
        <ele>245.294</ele>
        <time>2020-08-23T06:05:00Z</time>
      </trkpt>
      <trkpt lat="46.077813" lon="8.276667">
        <ele>245.292</ele>
        <time>2020-08-23T06:05:01Z</time>
      </trkpt>
      <trkpt lat="46.077539" lon="8.276513">
        <ele>245.269</ele>
        <time>2020-08-23T06:05:07Z</time>
      </trkpt>
      <trkpt lat="46.077500" lon="8.276468">
        <ele>245.295</ele>
        <time>2020-08-23T06:05:08Z</time>
      </trkpt>
      <trkpt lat="46.077236" lon="8.276054">
        <ele>245.249</ele>
        <time>2020-08-23T06:05:16Z</time>
      </trkpt>
      <trkpt lat="46.077205" lon="8.275987">
        <ele>245.223</ele>
        <time>2020-08-23T06:05:17Z</time>
      </trkpt>
      <trkpt lat="46.077181" lon="8.275914">
        <ele>245.208</ele>
        <time>2020-08-23T06:05:18Z</time>
      </trkpt>
      <trkpt lat="46.077161" lon="8.275840">
        <ele>244.764</ele>
        <time>2020-08-23T06:05:19Z</time>
      </trkpt>
      <trkpt lat="46.077147" lon="8.275764">
        <ele>244.774</ele>
        <time>2020-08-23T06:05:20Z</time>
      </trkpt>
      <trkpt lat="46.077134" lon="8.275689">
        <ele>244.713</ele>
        <time>2020-08-23T06:05:21Z</time>
      </trkpt>
      <trkpt lat="46.077118" lon="8.275618">
        <ele>244.783</ele>
        <time>2020-08-23T06:05:22Z</time>
      </trkpt>
      <trkpt lat="46.077080" lon="8.275494">
        <ele>244.730</ele>
        <time>2020-08-23T06:05:24Z</time>
      </trkpt>
      <trkpt lat="46.077047" lon="8.275456">
        <ele>244.752</ele>
        <time>2020-08-23T06:05:25Z</time>
      </trkpt>
      <trkpt lat="46.077007" lon="8.275435">
        <ele>244.760</ele>
        <time>2020-08-23T06:05:26Z</time>
      </trkpt>
      <trkpt lat="46.076963" lon="8.275436">
        <ele>244.767</ele>
        <time>2020-08-23T06:05:27Z</time>
      </trkpt>
      <trkpt lat="46.076927" lon="8.275443">
        <ele>244.719</ele>
        <time>2020-08-23T06:05:28Z</time>
      </trkpt>
      <trkpt lat="46.076883" lon="8.275447">
        <ele>244.709</ele>
        <time>2020-08-23T06:05:29Z</time>
      </trkpt>
      <trkpt lat="46.076844" lon="8.275441">
        <ele>244.719</ele>
        <time>2020-08-23T06:05:30Z</time>
      </trkpt>
      <trkpt lat="46.076804" lon="8.275423">
        <ele>246.208</ele>
        <time>2020-08-23T06:05:31Z</time>
      </trkpt>
      <trkpt lat="46.076766" lon="8.275391">
        <ele>246.276</ele>
        <time>2020-08-23T06:05:32Z</time>
      </trkpt>
      <trkpt lat="46.076731" lon="8.275351">
        <ele>246.256</ele>
        <time>2020-08-23T06:05:33Z</time>
      </trkpt>
      <trkpt lat="46.076700" lon="8.275288">
        <ele>246.225</ele>
        <time>2020-08-23T06:05:34Z</time>
      </trkpt>
      <trkpt lat="46.076687" lon="8.275230">
        <ele>246.235</ele>
        <time>2020-08-23T06:05:35Z</time>
      </trkpt>
      <trkpt lat="46.076681" lon="8.275168">
        <ele>246.212</ele>
        <time>2020-08-23T06:05:36Z</time>
      </trkpt>
      <trkpt lat="46.076679" lon="8.275099">
        <ele>246.244</ele>
        <time>2020-08-23T06:05:37Z</time>
      </trkpt>
      <trkpt lat="46.076679" lon="8.275033">
        <ele>246.252</ele>
        <time>2020-08-23T06:05:38Z</time>
      </trkpt>
      <trkpt lat="46.076617" lon="8.274569">
        <ele>247.299</ele>
        <time>2020-08-23T06:05:49Z</time>
      </trkpt>
      <trkpt lat="46.076509" lon="8.274359">
        <ele>247.696</ele>
        <time>2020-08-23T06:05:55Z</time>
      </trkpt>
      <trkpt lat="46.076455" lon="8.274340">
        <ele>247.631</ele>
        <time>2020-08-23T06:05:56Z</time>
      </trkpt>
      <trkpt lat="46.076413" lon="8.274348">
        <ele>247.224</ele>
        <time>2020-08-23T06:05:57Z</time>
      </trkpt>
      <trkpt lat="46.076364" lon="8.274375">
        <ele>247.208</ele>
        <time>2020-08-23T06:05:58Z</time>
      </trkpt>
      <trkpt lat="46.076323" lon="8.274412">
        <ele>247.274</ele>
        <time>2020-08-23T06:05:59Z</time>
      </trkpt>
      <trkpt lat="46.076285" lon="8.274454">
        <ele>247.294</ele>
        <time>2020-08-23T06:06:00Z</time>
      </trkpt>
      <trkpt lat="46.076249" lon="8.274497">
        <ele>247.213</ele>
        <time>2020-08-23T06:06:01Z</time>
      </trkpt>
      <trkpt lat="46.076177" lon="8.274589">
        <ele>246.233</ele>
        <time>2020-08-23T06:06:03Z</time>
      </trkpt>
      <trkpt lat="46.075483" lon="8.275301">
        <ele>245.740</ele>
        <time>2020-08-23T06:06:21Z</time>
      </trkpt>
      <trkpt lat="46.074980" lon="8.275720">
        <ele>245.762</ele>
        <time>2020-08-23T06:06:33Z</time>
      </trkpt>
      <trkpt lat="46.074944" lon="8.275735">
        <ele>245.770</ele>
        <time>2020-08-23T06:06:34Z</time>
      </trkpt>
      <trkpt lat="46.074900" lon="8.275747">
        <ele>245.797</ele>
        <time>2020-08-23T06:06:35Z</time>
      </trkpt>
      <trkpt lat="46.074308" lon="8.275896">
        <ele>246.712</ele>
        <time>2020-08-23T06:06:49Z</time>
      </trkpt>
      <trkpt lat="46.074283" lon="8.275891">
        <ele>246.732</ele>
        <time>2020-08-23T06:06:50Z</time>
      </trkpt>
      <trkpt lat="46.074258" lon="8.275883">
        <ele>246.705</ele>
        <time>2020-08-23T06:06:51Z</time>
      </trkpt>
      <trkpt lat="46.074231" lon="8.275886">
        <ele>247.208</ele>
        <time>2020-08-23T06:06:52Z</time>
      </trkpt>
      <trkpt lat="46.074204" lon="8.275891">
        <ele>247.266</ele>
        <time>2020-08-23T06:06:53Z</time>
      </trkpt>
      <trkpt lat="46.074174" lon="8.275901">
        <ele>247.236</ele>
        <time>2020-08-23T06:06:54Z</time>
      </trkpt>
      <trkpt lat="46.074143" lon="8.275913">
        <ele>247.615</ele>
        <time>2020-08-23T06:06:55Z</time>
      </trkpt>
      <trkpt lat="46.073653" lon="8.276041">
        <ele>247.655</ele>
        <time>2020-08-23T06:07:07Z</time>
      </trkpt>
      <trkpt lat="46.073194" lon="8.276115">
        <ele>247.642</ele>
        <time>2020-08-23T06:07:20Z</time>
      </trkpt>
      <trkpt lat="46.073173" lon="8.276127">
        <ele>247.654</ele>
        <time>2020-08-23T06:07:22Z</time>
      </trkpt>
      <trkpt lat="46.073023" lon="8.276178">
        <ele>247.672</ele>
        <time>2020-08-23T06:07:30Z</time>
      </trkpt>
      <trkpt lat="46.072943" lon="8.276206">
        <ele>247.669</ele>
        <time>2020-08-23T06:07:32Z</time>
      </trkpt>
      <trkpt lat="46.072898" lon="8.276219">
        <ele>247.619</ele>
        <time>2020-08-23T06:07:33Z</time>
      </trkpt>
      <trkpt lat="46.072775" lon="8.276254">
        <ele>247.609</ele>
        <time>2020-08-23T06:07:36Z</time>
      </trkpt>
      <trkpt lat="46.072733" lon="8.276268">
        <ele>247.619</ele>
        <time>2020-08-23T06:07:37Z</time>
      </trkpt>
      <trkpt lat="46.072372" lon="8.276370">
        <ele>247.608</ele>
        <time>2020-08-23T06:07:45Z</time>
      </trkpt>
      <trkpt lat="46.072180" lon="8.276385">
        <ele>247.646</ele>
        <time>2020-08-23T06:07:49Z</time>
      </trkpt>
      <trkpt lat="46.071902" lon="8.276296">
        <ele>247.656</ele>
        <time>2020-08-23T06:07:55Z</time>
      </trkpt>
      <trkpt lat="46.071408" lon="8.275930">
        <ele>247.685</ele>
        <time>2020-08-23T06:08:06Z</time>
      </trkpt>
      <trkpt lat="46.070967" lon="8.275568">
        <ele>249.615</ele>
        <time>2020-08-23T06:08:20Z</time>
      </trkpt>
      <trkpt lat="46.070820" lon="8.275049">
        <ele>250.012</ele>
        <time>2020-08-23T06:08:33Z</time>
      </trkpt>
      <trkpt lat="46.070754" lon="8.274734">
        <ele>250.054</ele>
        <time>2020-08-23T06:08:39Z</time>
      </trkpt>
      <trkpt lat="46.070721" lon="8.274715">
        <ele>250.022</ele>
        <time>2020-08-23T06:08:40Z</time>
      </trkpt>
      <trkpt lat="46.070692" lon="8.274716">
        <ele>250.079</ele>
        <time>2020-08-23T06:08:41Z</time>
      </trkpt>
      <trkpt lat="46.070661" lon="8.274730">
        <ele>250.046</ele>
        <time>2020-08-23T06:08:42Z</time>
      </trkpt>
      <trkpt lat="46.070621" lon="8.274754">
        <ele>250.088</ele>
        <time>2020-08-23T06:08:43Z</time>
      </trkpt>
      <trkpt lat="46.070175" lon="8.274899">
        <ele>250.016</ele>
        <time>2020-08-23T06:08:55Z</time>
      </trkpt>
      <trkpt lat="46.069663" lon="8.274501">
        <ele>252.408</ele>
        <time>2020-08-23T06:09:13Z</time>
      </trkpt>
      <trkpt lat="46.069204" lon="8.274154">
        <ele>255.339</ele>
        <time>2020-08-23T06:09:31Z</time>
      </trkpt>
      <trkpt lat="46.068566" lon="8.273725">
        <ele>255.359</ele>
        <time>2020-08-23T06:09:50Z</time>
      </trkpt>
      <trkpt lat="46.067792" lon="8.273487">
        <ele>253.438</ele>
        <time>2020-08-23T06:10:06Z</time>
      </trkpt>
      <trkpt lat="46.067021" lon="8.273374">
        <ele>250.588</ele>
        <time>2020-08-23T06:10:17Z</time>
      </trkpt>
      <trkpt lat="46.065851" lon="8.273199">
        <ele>249.175</ele>
        <time>2020-08-23T06:10:35Z</time>
      </trkpt>
      <trkpt lat="46.065411" lon="8.273115">
        <ele>249.117</ele>
        <time>2020-08-23T06:10:43Z</time>
      </trkpt>
      <trkpt lat="46.065277" lon="8.273104">
        <ele>248.625</ele>
        <time>2020-08-23T06:10:47Z</time>
      </trkpt>
      <trkpt lat="46.065250" lon="8.273175">
        <ele>248.612</ele>
        <time>2020-08-23T06:10:49Z</time>
      </trkpt>
      <trkpt lat="46.065229" lon="8.273193">
        <ele>248.614</ele>
        <time>2020-08-23T06:10:50Z</time>
      </trkpt>
      <trkpt lat="46.065201" lon="8.273194">
        <ele>248.654</ele>
        <time>2020-08-23T06:10:51Z</time>
      </trkpt>
      <trkpt lat="46.065170" lon="8.273187">
        <ele>248.609</ele>
        <time>2020-08-23T06:10:52Z</time>
      </trkpt>
      <trkpt lat="46.065135" lon="8.273173">
        <ele>248.608</ele>
        <time>2020-08-23T06:10:53Z</time>
      </trkpt>
      <trkpt lat="46.064714" lon="8.273084">
        <ele>248.616</ele>
        <time>2020-08-23T06:11:05Z</time>
      </trkpt>
      <trkpt lat="46.064694" lon="8.273099">
        <ele>248.696</ele>
        <time>2020-08-23T06:11:06Z</time>
      </trkpt>
      <trkpt lat="46.064679" lon="8.273126">
        <ele>248.685</ele>
        <time>2020-08-23T06:11:07Z</time>
      </trkpt>
      <trkpt lat="46.064669" lon="8.273163">
        <ele>248.665</ele>
        <time>2020-08-23T06:11:08Z</time>
      </trkpt>
      <trkpt lat="46.064661" lon="8.273207">
        <ele>248.162</ele>
        <time>2020-08-23T06:11:09Z</time>
      </trkpt>
      <trkpt lat="46.064657" lon="8.273250">
        <ele>247.664</ele>
        <time>2020-08-23T06:11:10Z</time>
      </trkpt>
      <trkpt lat="46.064658" lon="8.273282">
        <ele>247.652</ele>
        <time>2020-08-23T06:11:11Z</time>
      </trkpt>
      <trkpt lat="46.064659" lon="8.273315">
        <ele>247.659</ele>
        <time>2020-08-23T06:11:12Z</time>
      </trkpt>
      <trkpt lat="46.064658" lon="8.273343">
        <ele>248.121</ele>
        <time>2020-08-23T06:11:13Z</time>
      </trkpt>
      <trkpt lat="46.064703" lon="8.273455">
        <ele>247.641</ele>
        <time>2020-08-23T06:11:19Z</time>
      </trkpt>
      <trkpt lat="46.064714" lon="8.273456">
        <ele>247.605</ele>
        <time>2020-08-23T06:11:20Z</time>
      </trkpt>
      <trkpt lat="46.064727" lon="8.273456">
        <ele>247.608</ele>
        <time>2020-08-23T06:11:21Z</time>
      </trkpt>
      <trkpt lat="46.064738" lon="8.273454">
        <ele>247.677</ele>
        <time>2020-08-23T06:11:22Z</time>
      </trkpt>
      <trkpt lat="46.064750" lon="8.273448">
        <ele>247.677</ele>
        <time>2020-08-23T06:11:23Z</time>
      </trkpt>
      <trkpt lat="46.064759" lon="8.273440">
        <ele>247.626</ele>
        <time>2020-08-23T06:11:24Z</time>
      </trkpt>
      <trkpt lat="46.064766" lon="8.273472">
        <ele>247.616</ele>
        <time>2020-08-23T06:11:28Z</time>
      </trkpt>
      <trkpt lat="46.064756" lon="8.273471">
        <ele>247.673</ele>
        <time>2020-08-23T06:11:29Z</time>
      </trkpt>
      <trkpt lat="46.064741" lon="8.273466">
        <ele>247.625</ele>
        <time>2020-08-23T06:11:30Z</time>
      </trkpt>
      <trkpt lat="46.064728" lon="8.273456">
        <ele>247.613</ele>
        <time>2020-08-23T06:11:31Z</time>
      </trkpt>
      <trkpt lat="46.064713" lon="8.273434">
        <ele>247.610</ele>
        <time>2020-08-23T06:11:32Z</time>
      </trkpt>
      <trkpt lat="46.064701" lon="8.273417">
        <ele>247.627</ele>
        <time>2020-08-23T06:11:33Z</time>
      </trkpt>
      <trkpt lat="46.064684" lon="8.273397">
        <ele>247.668</ele>
        <time>2020-08-23T06:11:34Z</time>
      </trkpt>
      <trkpt lat="46.064670" lon="8.273101">
        <ele>247.614</ele>
        <time>2020-08-23T06:11:45Z</time>
      </trkpt>
      <trkpt lat="46.064674" lon="8.273087">
        <ele>247.608</ele>
        <time>2020-08-23T06:12:05Z</time>
      </trkpt>
      <trkpt lat="46.064661" lon="8.273075">
        <ele>247.667</ele>
        <time>2020-08-23T06:12:31Z</time>
      </trkpt>
      <trkpt lat="46.064700" lon="8.273066">
        <ele>247.217</ele>
        <time>2020-08-23T06:12:48Z</time>
      </trkpt>
      <trkpt lat="46.064710" lon="8.273086">
        <ele>248.616</ele>
        <time>2020-08-23T06:12:56Z</time>
      </trkpt>
      <trkpt lat="46.064700" lon="8.273111">
        <ele>248.636</ele>
        <time>2020-08-23T06:13:02Z</time>
      </trkpt>
      <trkpt lat="46.064689" lon="8.273400">
        <ele>247.693</ele>
        <time>2020-08-23T06:13:10Z</time>
      </trkpt>
      <trkpt lat="46.064705" lon="8.273421">
        <ele>247.615</ele>
        <time>2020-08-23T06:13:11Z</time>
      </trkpt>
      <trkpt lat="46.064734" lon="8.273442">
        <ele>247.673</ele>
        <time>2020-08-23T06:13:12Z</time>
      </trkpt>
      <trkpt lat="46.064760" lon="8.273451">
        <ele>247.690</ele>
        <time>2020-08-23T06:13:13Z</time>
      </trkpt>
      <trkpt lat="46.064800" lon="8.273454">
        <ele>247.687</ele>
        <time>2020-08-23T06:13:14Z</time>
      </trkpt>
      <trkpt lat="46.064827" lon="8.273453">
        <ele>247.642</ele>
        <time>2020-08-23T06:13:15Z</time>
      </trkpt>
      <trkpt lat="46.064862" lon="8.273451">
        <ele>247.626</ele>
        <time>2020-08-23T06:13:16Z</time>
      </trkpt>
      <trkpt lat="46.064899" lon="8.273453">
        <ele>247.608</ele>
        <time>2020-08-23T06:13:17Z</time>
      </trkpt>
      <trkpt lat="46.064937" lon="8.273466">
        <ele>247.693</ele>
        <time>2020-08-23T06:13:18Z</time>
      </trkpt>
      <trkpt lat="46.064977" lon="8.273490">
        <ele>247.693</ele>
        <time>2020-08-23T06:13:19Z</time>
      </trkpt>
      <trkpt lat="46.065017" lon="8.273528">
        <ele>247.612</ele>
        <time>2020-08-23T06:13:20Z</time>
      </trkpt>
      <trkpt lat="46.065051" lon="8.273569">
        <ele>247.662</ele>
        <time>2020-08-23T06:13:21Z</time>
      </trkpt>
      <trkpt lat="46.065080" lon="8.273616">
        <ele>247.639</ele>
        <time>2020-08-23T06:13:22Z</time>
      </trkpt>
      <trkpt lat="46.065103" lon="8.273669">
        <ele>247.641</ele>
        <time>2020-08-23T06:13:23Z</time>
      </trkpt>
      <trkpt lat="46.065120" lon="8.273724">
        <ele>247.649</ele>
        <time>2020-08-23T06:13:24Z</time>
      </trkpt>
      <trkpt lat="46.065133" lon="8.273788">
        <ele>247.626</ele>
        <time>2020-08-23T06:13:25Z</time>
      </trkpt>
      <trkpt lat="46.065141" lon="8.273860">
        <ele>247.274</ele>
        <time>2020-08-23T06:13:26Z</time>
      </trkpt>
      <trkpt lat="46.065145" lon="8.273937">
        <ele>247.256</ele>
        <time>2020-08-23T06:13:27Z</time>
      </trkpt>
      <trkpt lat="46.065165" lon="8.274297">
        <ele>246.721</ele>
        <time>2020-08-23T06:13:32Z</time>
      </trkpt>
      <trkpt lat="46.065174" lon="8.274366">
        <ele>246.708</ele>
        <time>2020-08-23T06:13:33Z</time>
      </trkpt>
      <trkpt lat="46.065204" lon="8.274834">
        <ele>245.772</ele>
        <time>2020-08-23T06:13:40Z</time>
      </trkpt>
      <trkpt lat="46.065218" lon="8.274890">
        <ele>245.722</ele>
        <time>2020-08-23T06:13:41Z</time>
      </trkpt>
      <trkpt lat="46.065239" lon="8.274937">
        <ele>245.711</ele>
        <time>2020-08-23T06:13:42Z</time>
      </trkpt>
      <trkpt lat="46.065264" lon="8.274975">
        <ele>245.731</ele>
        <time>2020-08-23T06:13:43Z</time>
      </trkpt>
      <trkpt lat="46.065296" lon="8.275013">
        <ele>245.798</ele>
        <time>2020-08-23T06:13:44Z</time>
      </trkpt>
      <trkpt lat="46.065672" lon="8.275077">
        <ele>245.220</ele>
        <time>2020-08-23T06:13:55Z</time>
      </trkpt>
      <trkpt lat="46.066145" lon="8.275045">
        <ele>245.238</ele>
        <time>2020-08-23T06:14:08Z</time>
      </trkpt>
      <trkpt lat="46.066581" lon="8.275052">
        <ele>247.235</ele>
        <time>2020-08-23T06:14:21Z</time>
      </trkpt>
      <trkpt lat="46.066680" lon="8.275203">
        <ele>247.238</ele>
        <time>2020-08-23T06:14:25Z</time>
      </trkpt>
      <trkpt lat="46.066685" lon="8.275267">
        <ele>247.270</ele>
        <time>2020-08-23T06:14:26Z</time>
      </trkpt>
      <trkpt lat="46.066681" lon="8.275317">
        <ele>247.217</ele>
        <time>2020-08-23T06:14:27Z</time>
      </trkpt>
      <trkpt lat="46.066670" lon="8.275372">
        <ele>247.208</ele>
        <time>2020-08-23T06:14:28Z</time>
      </trkpt>
      <trkpt lat="46.066655" lon="8.275429">
        <ele>247.288</ele>
        <time>2020-08-23T06:14:29Z</time>
      </trkpt>
      <trkpt lat="46.066636" lon="8.275487">
        <ele>247.298</ele>
        <time>2020-08-23T06:14:30Z</time>
      </trkpt>
      <trkpt lat="46.066616" lon="8.275548">
        <ele>247.277</ele>
        <time>2020-08-23T06:14:31Z</time>
      </trkpt>
      <trkpt lat="46.066486" lon="8.276395">
        <ele>244.767</ele>
        <time>2020-08-23T06:14:42Z</time>
      </trkpt>
      <trkpt lat="46.066340" lon="8.276942">
        <ele>244.384</ele>
        <time>2020-08-23T06:14:54Z</time>
      </trkpt>
      <trkpt lat="46.066337" lon="8.276988">
        <ele>244.386</ele>
        <time>2020-08-23T06:14:55Z</time>
      </trkpt>
      <trkpt lat="46.066321" lon="8.277043">
        <ele>244.374</ele>
        <time>2020-08-23T06:14:56Z</time>
      </trkpt>
      <trkpt lat="46.066278" lon="8.277217">
        <ele>245.781</ele>
        <time>2020-08-23T06:15:00Z</time>
      </trkpt>
      <trkpt lat="46.066292" lon="8.277240">
        <ele>245.743</ele>
        <time>2020-08-23T06:15:01Z</time>
      </trkpt>
      <trkpt lat="46.066316" lon="8.277262">
        <ele>245.764</ele>
        <time>2020-08-23T06:15:02Z</time>
      </trkpt>
      <trkpt lat="46.066347" lon="8.277281">
        <ele>245.710</ele>
        <time>2020-08-23T06:15:03Z</time>
      </trkpt>
      <trkpt lat="46.066387" lon="8.277300">
        <ele>245.708</ele>
        <time>2020-08-23T06:15:04Z</time>
      </trkpt>
      <trkpt lat="46.066426" lon="8.277313">
        <ele>245.799</ele>
        <time>2020-08-23T06:15:05Z</time>
      </trkpt>
      <trkpt lat="46.066460" lon="8.277341">
        <ele>244.399</ele>
        <time>2020-08-23T06:15:06Z</time>
      </trkpt>
      <trkpt lat="46.066484" lon="8.277386">
        <ele>244.358</ele>
        <time>2020-08-23T06:15:07Z</time>
      </trkpt>
      <trkpt lat="46.066492" lon="8.277443">
        <ele>242.898</ele>
        <time>2020-08-23T06:15:08Z</time>
      </trkpt>
      <trkpt lat="46.066483" lon="8.277503">
        <ele>242.855</ele>
        <time>2020-08-23T06:15:09Z</time>
      </trkpt>
      <trkpt lat="46.066461" lon="8.277561">
        <ele>242.837</ele>
        <time>2020-08-23T06:15:10Z</time>
      </trkpt>
      <trkpt lat="46.066431" lon="8.277607">
        <ele>242.835</ele>
        <time>2020-08-23T06:15:11Z</time>
      </trkpt>
      <trkpt lat="46.066399" lon="8.277647">
        <ele>242.872</ele>
        <time>2020-08-23T06:15:12Z</time>
      </trkpt>
      <trkpt lat="46.066184" lon="8.278022">
        <ele>242.399</ele>
        <time>2020-08-23T06:15:23Z</time>
      </trkpt>
      <trkpt lat="46.066066" lon="8.278235">
        <ele>242.307</ele>
        <time>2020-08-23T06:15:28Z</time>
      </trkpt>
      <trkpt lat="46.065990" lon="8.278299">
        <ele>241.927</ele>
        <time>2020-08-23T06:15:30Z</time>
      </trkpt>
      <trkpt lat="46.065813" lon="8.278421">
        <ele>241.908</ele>
        <time>2020-08-23T06:15:35Z</time>
      </trkpt>
      <trkpt lat="46.065730" lon="8.278542">
        <ele>241.974</ele>
        <time>2020-08-23T06:15:38Z</time>
      </trkpt>
      <trkpt lat="46.065690" lon="8.278572">
        <ele>241.994</ele>
        <time>2020-08-23T06:15:39Z</time>
      </trkpt>
      <trkpt lat="46.065646" lon="8.278591">
        <ele>241.943</ele>
        <time>2020-08-23T06:15:40Z</time>
      </trkpt>
      <trkpt lat="46.065603" lon="8.278599">
        <ele>241.423</ele>
        <time>2020-08-23T06:15:41Z</time>
      </trkpt>
      <trkpt lat="46.065560" lon="8.278601">
        <ele>241.460</ele>
        <time>2020-08-23T06:15:42Z</time>
      </trkpt>
      <trkpt lat="46.065519" lon="8.278600">
        <ele>241.492</ele>
        <time>2020-08-23T06:15:43Z</time>
      </trkpt>
      <trkpt lat="46.065474" lon="8.278597">
        <ele>241.410</ele>
        <time>2020-08-23T06:15:44Z</time>
      </trkpt>
      <trkpt lat="46.065036" lon="8.278707">
        <ele>240.917</ele>
        <time>2020-08-23T06:15:56Z</time>
      </trkpt>
      <trkpt lat="46.064943" lon="8.278722">
        <ele>240.987</ele>
        <time>2020-08-23T06:15:59Z</time>
      </trkpt>
      <trkpt lat="46.064922" lon="8.278685">
        <ele>240.942</ele>
        <time>2020-08-23T06:16:00Z</time>
      </trkpt>
      <trkpt lat="46.064909" lon="8.278646">
        <ele>240.926</ele>
        <time>2020-08-23T06:16:01Z</time>
      </trkpt>
      <trkpt lat="46.064895" lon="8.278600">
        <ele>240.908</ele>
        <time>2020-08-23T06:16:02Z</time>
      </trkpt>
      <trkpt lat="46.064876" lon="8.278559">
        <ele>240.953</ele>
        <time>2020-08-23T06:16:03Z</time>
      </trkpt>
      <trkpt lat="46.064850" lon="8.278524">
        <ele>240.923</ele>
        <time>2020-08-23T06:16:04Z</time>
      </trkpt>
      <trkpt lat="46.064819" lon="8.278496">
        <ele>240.992</ele>
        <time>2020-08-23T06:16:05Z</time>
      </trkpt>
      <trkpt lat="46.064784" lon="8.278475">
        <ele>240.962</ele>
        <time>2020-08-23T06:16:06Z</time>
      </trkpt>
      <trkpt lat="46.064745" lon="8.278450">
        <ele>240.999</ele>
        <time>2020-08-23T06:16:07Z</time>
      </trkpt>
      <trkpt lat="46.064708" lon="8.278427">
        <ele>240.991</ele>
        <time>2020-08-23T06:16:08Z</time>
      </trkpt>
      <trkpt lat="46.064553" lon="8.278347">
        <ele>240.969</ele>
        <time>2020-08-23T06:16:12Z</time>
      </trkpt>
      <trkpt lat="46.063835" lon="8.278145">
        <ele>240.496</ele>
        <time>2020-08-23T06:16:28Z</time>
      </trkpt>
      <trkpt lat="46.063493" lon="8.277683">
        <ele>239.945</ele>
        <time>2020-08-23T06:16:41Z</time>
      </trkpt>
      <trkpt lat="46.063581" lon="8.277260">
        <ele>241.947</ele>
        <time>2020-08-23T06:16:53Z</time>
      </trkpt>
      <trkpt lat="46.063603" lon="8.276797">
        <ele>243.311</ele>
        <time>2020-08-23T06:17:06Z</time>
      </trkpt>
      <trkpt lat="46.063574" lon="8.276741">
        <ele>243.308</ele>
        <time>2020-08-23T06:17:09Z</time>
      </trkpt>
      <trkpt lat="46.063555" lon="8.276732">
        <ele>243.879</ele>
        <time>2020-08-23T06:17:10Z</time>
      </trkpt>
      <trkpt lat="46.063528" lon="8.276731">
        <ele>243.859</ele>
        <time>2020-08-23T06:17:11Z</time>
      </trkpt>
      <trkpt lat="46.063496" lon="8.276726">
        <ele>243.838</ele>
        <time>2020-08-23T06:17:12Z</time>
      </trkpt>
      <trkpt lat="46.063466" lon="8.276716">
        <ele>243.838</ele>
        <time>2020-08-23T06:17:13Z</time>
      </trkpt>
      <trkpt lat="46.063436" lon="8.276704">
        <ele>243.815</ele>
        <time>2020-08-23T06:17:14Z</time>
      </trkpt>
      <trkpt lat="46.063400" lon="8.276692">
        <ele>243.847</ele>
        <time>2020-08-23T06:17:15Z</time>
      </trkpt>
      <trkpt lat="46.062581" lon="8.276427">
        <ele>243.895</ele>
        <time>2020-08-23T06:17:35Z</time>
      </trkpt>
      <trkpt lat="46.061902" lon="8.276248">
        <ele>243.882</ele>
        <time>2020-08-23T06:17:50Z</time>
      </trkpt>
      <trkpt lat="46.061117" lon="8.276140">
        <ele>243.886</ele>
        <time>2020-08-23T06:18:07Z</time>
      </trkpt>
      <trkpt lat="46.060377" lon="8.276149">
        <ele>243.860</ele>
        <time>2020-08-23T06:18:23Z</time>
      </trkpt>
      <trkpt lat="46.059882" lon="8.276156">
        <ele>243.826</ele>
        <time>2020-08-23T06:18:33Z</time>
      </trkpt>
      <trkpt lat="46.059229" lon="8.276093">
        <ele>242.308</ele>
        <time>2020-08-23T06:18:46Z</time>
      </trkpt>
      <trkpt lat="46.059182" lon="8.276075">
        <ele>242.383</ele>
        <time>2020-08-23T06:18:47Z</time>
      </trkpt>
      <trkpt lat="46.058360" lon="8.275640">
        <ele>242.343</ele>
        <time>2020-08-23T06:19:05Z</time>
      </trkpt>
      <trkpt lat="46.058006" lon="8.275385">
        <ele>242.352</ele>
        <time>2020-08-23T06:19:13Z</time>
      </trkpt>
      <trkpt lat="46.057833" lon="8.275215">
        <ele>242.322</ele>
        <time>2020-08-23T06:19:17Z</time>
      </trkpt>
      <trkpt lat="46.057270" lon="8.274560">
        <ele>242.379</ele>
        <time>2020-08-23T06:19:31Z</time>
      </trkpt>
      <trkpt lat="46.057154" lon="8.274430">
        <ele>242.371</ele>
        <time>2020-08-23T06:19:34Z</time>
      </trkpt>
      <trkpt lat="46.056479" lon="8.273675">
        <ele>241.939</ele>
        <time>2020-08-23T06:19:51Z</time>
      </trkpt>
      <trkpt lat="46.055946" lon="8.273109">
        <ele>241.996</ele>
        <time>2020-08-23T06:20:05Z</time>
      </trkpt>
      <trkpt lat="46.055866" lon="8.273025">
        <ele>241.948</ele>
        <time>2020-08-23T06:20:07Z</time>
      </trkpt>
      <trkpt lat="46.055824" lon="8.272981">
        <ele>241.961</ele>
        <time>2020-08-23T06:20:08Z</time>
      </trkpt>
      <trkpt lat="46.055248" lon="8.272426">
        <ele>241.417</ele>
        <time>2020-08-23T06:20:21Z</time>
      </trkpt>
      <trkpt lat="46.054510" lon="8.271960">
        <ele>240.908</ele>
        <time>2020-08-23T06:20:37Z</time>
      </trkpt>
      <trkpt lat="46.054033" lon="8.271619">
        <ele>240.919</ele>
        <time>2020-08-23T06:20:50Z</time>
      </trkpt>
      <trkpt lat="46.053637" lon="8.271361">
        <ele>240.419</ele>
        <time>2020-08-23T06:21:02Z</time>
      </trkpt>
      <trkpt lat="46.053099" lon="8.270990">
        <ele>240.438</ele>
        <time>2020-08-23T06:21:16Z</time>
      </trkpt>
      <trkpt lat="46.052357" lon="8.270659">
        <ele>240.448</ele>
        <time>2020-08-23T06:21:33Z</time>
      </trkpt>
      <trkpt lat="46.051668" lon="8.270414">
        <ele>240.445</ele>
        <time>2020-08-23T06:21:48Z</time>
      </trkpt>
      <trkpt lat="46.050819" lon="8.270077">
        <ele>240.497</ele>
        <time>2020-08-23T06:22:06Z</time>
      </trkpt>
      <trkpt lat="46.050221" lon="8.269787">
        <ele>240.495</ele>
        <time>2020-08-23T06:22:20Z</time>
      </trkpt>
      <trkpt lat="46.049629" lon="8.269362">
        <ele>240.432</ele>
        <time>2020-08-23T06:22:35Z</time>
      </trkpt>
      <trkpt lat="46.049390" lon="8.269178">
        <ele>240.422</ele>
        <time>2020-08-23T06:22:41Z</time>
      </trkpt>
      <trkpt lat="46.049352" lon="8.269142">
        <ele>240.462</ele>
        <time>2020-08-23T06:22:42Z</time>
      </trkpt>
      <trkpt lat="46.048748" lon="8.268549">
        <ele>240.408</ele>
        <time>2020-08-23T06:22:58Z</time>
      </trkpt>
      <trkpt lat="46.048239" lon="8.267941">
        <ele>240.408</ele>
        <time>2020-08-23T06:23:12Z</time>
      </trkpt>
      <trkpt lat="46.047707" lon="8.267312">
        <ele>240.447</ele>
        <time>2020-08-23T06:23:26Z</time>
      </trkpt>
      <trkpt lat="46.047124" lon="8.266647">
        <ele>240.487</ele>
        <time>2020-08-23T06:23:41Z</time>
      </trkpt>
      <trkpt lat="46.046639" lon="8.266071">
        <ele>240.486</ele>
        <time>2020-08-23T06:23:55Z</time>
      </trkpt>
      <trkpt lat="46.046357" lon="8.265477">
        <ele>238.566</ele>
        <time>2020-08-23T06:24:08Z</time>
      </trkpt>
      <trkpt lat="46.046342" lon="8.265400">
        <ele>238.023</ele>
        <time>2020-08-23T06:24:09Z</time>
      </trkpt>
      <trkpt lat="46.046337" lon="8.265310">
        <ele>238.085</ele>
        <time>2020-08-23T06:24:10Z</time>
      </trkpt>
      <trkpt lat="46.046354" lon="8.265139">
        <ele>237.543</ele>
        <time>2020-08-23T06:24:12Z</time>
      </trkpt>
      <trkpt lat="46.046411" lon="8.264894">
        <ele>237.160</ele>
        <time>2020-08-23T06:24:15Z</time>
      </trkpt>
      <trkpt lat="46.046412" lon="8.264809">
        <ele>237.149</ele>
        <time>2020-08-23T06:24:16Z</time>
      </trkpt>
      <trkpt lat="46.046392" lon="8.264735">
        <ele>237.102</ele>
        <time>2020-08-23T06:24:17Z</time>
      </trkpt>
      <trkpt lat="46.046353" lon="8.264676">
        <ele>237.122</ele>
        <time>2020-08-23T06:24:18Z</time>
      </trkpt>
      <trkpt lat="46.046312" lon="8.264630">
        <ele>237.108</ele>
        <time>2020-08-23T06:24:19Z</time>
      </trkpt>
      <trkpt lat="46.046266" lon="8.264592">
        <ele>237.119</ele>
        <time>2020-08-23T06:24:20Z</time>
      </trkpt>
      <trkpt lat="46.046218" lon="8.264560">
        <ele>237.149</ele>
        <time>2020-08-23T06:24:21Z</time>
      </trkpt>
      <trkpt lat="46.046129" lon="8.264503">
        <ele>237.128</ele>
        <time>2020-08-23T06:24:23Z</time>
      </trkpt>
      <trkpt lat="46.045340" lon="8.264165">
        <ele>236.658</ele>
        <time>2020-08-23T06:24:39Z</time>
      </trkpt>
      <trkpt lat="46.044427" lon="8.264017">
        <ele>236.635</ele>
        <time>2020-08-23T06:24:56Z</time>
      </trkpt>
      <trkpt lat="46.043847" lon="8.264084">
        <ele>236.677</ele>
        <time>2020-08-23T06:25:07Z</time>
      </trkpt>
      <trkpt lat="46.043800" lon="8.264055">
        <ele>236.635</ele>
        <time>2020-08-23T06:25:08Z</time>
      </trkpt>
      <trkpt lat="46.043774" lon="8.264011">
        <ele>236.672</ele>
        <time>2020-08-23T06:25:09Z</time>
      </trkpt>
      <trkpt lat="46.043756" lon="8.263951">
        <ele>236.666</ele>
        <time>2020-08-23T06:25:10Z</time>
      </trkpt>
      <trkpt lat="46.043746" lon="8.263888">
        <ele>236.629</ele>
        <time>2020-08-23T06:25:11Z</time>
      </trkpt>
      <trkpt lat="46.043742" lon="8.263824">
        <ele>236.621</ele>
        <time>2020-08-23T06:25:12Z</time>
      </trkpt>
      <trkpt lat="46.043739" lon="8.263757">
        <ele>236.608</ele>
        <time>2020-08-23T06:25:13Z</time>
      </trkpt>
      <trkpt lat="46.043731" lon="8.263689">
        <ele>236.661</ele>
        <time>2020-08-23T06:25:14Z</time>
      </trkpt>
      <trkpt lat="46.043657" lon="8.262974">
        <ele>236.131</ele>
        <time>2020-08-23T06:25:24Z</time>
      </trkpt>
      <trkpt lat="46.043660" lon="8.262895">
        <ele>236.150</ele>
        <time>2020-08-23T06:25:25Z</time>
      </trkpt>
      <trkpt lat="46.043673" lon="8.262819">
        <ele>236.170</ele>
        <time>2020-08-23T06:25:26Z</time>
      </trkpt>
      <trkpt lat="46.043693" lon="8.262750">
        <ele>236.177</ele>
        <time>2020-08-23T06:25:27Z</time>
      </trkpt>
      <trkpt lat="46.043719" lon="8.262685">
        <ele>236.129</ele>
        <time>2020-08-23T06:25:28Z</time>
      </trkpt>
      <trkpt lat="46.043748" lon="8.262622">
        <ele>236.157</ele>
        <time>2020-08-23T06:25:29Z</time>
      </trkpt>
      <trkpt lat="46.043776" lon="8.262570">
        <ele>236.194</ele>
        <time>2020-08-23T06:25:30Z</time>
      </trkpt>
      <trkpt lat="46.044078" lon="8.262056">
        <ele>237.551</ele>
        <time>2020-08-23T06:25:42Z</time>
      </trkpt>
      <trkpt lat="46.044082" lon="8.261999">
        <ele>237.501</ele>
        <time>2020-08-23T06:25:43Z</time>
      </trkpt>
      <trkpt lat="46.044070" lon="8.261926">
        <ele>237.511</ele>
        <time>2020-08-23T06:25:44Z</time>
      </trkpt>
      <trkpt lat="46.044050" lon="8.261873">
        <ele>237.508</ele>
        <time>2020-08-23T06:25:45Z</time>
      </trkpt>
      <trkpt lat="46.044017" lon="8.261807">
        <ele>236.670</ele>
        <time>2020-08-23T06:25:46Z</time>
      </trkpt>
      <trkpt lat="46.043983" lon="8.261743">
        <ele>236.190</ele>
        <time>2020-08-23T06:25:47Z</time>
      </trkpt>
      <trkpt lat="46.043853" lon="8.261497">
        <ele>236.189</ele>
        <time>2020-08-23T06:25:51Z</time>
      </trkpt>
      <trkpt lat="46.043811" lon="8.261457">
        <ele>236.179</ele>
        <time>2020-08-23T06:25:52Z</time>
      </trkpt>
      <trkpt lat="46.043753" lon="8.261451">
        <ele>236.156</ele>
        <time>2020-08-23T06:25:53Z</time>
      </trkpt>
      <trkpt lat="46.043710" lon="8.261471">
        <ele>236.188</ele>
        <time>2020-08-23T06:25:54Z</time>
      </trkpt>
      <trkpt lat="46.043673" lon="8.261500">
        <ele>235.696</ele>
        <time>2020-08-23T06:25:55Z</time>
      </trkpt>
      <trkpt lat="46.043634" lon="8.261536">
        <ele>235.663</ele>
        <time>2020-08-23T06:25:56Z</time>
      </trkpt>
      <trkpt lat="46.043595" lon="8.261574">
        <ele>235.628</ele>
        <time>2020-08-23T06:25:57Z</time>
      </trkpt>
      <trkpt lat="46.043260" lon="8.261789">
        <ele>235.689</ele>
        <time>2020-08-23T06:26:05Z</time>
      </trkpt>
      <trkpt lat="46.043215" lon="8.261797">
        <ele>235.617</ele>
        <time>2020-08-23T06:26:06Z</time>
      </trkpt>
      <trkpt lat="46.042408" lon="8.261926">
        <ele>236.608</ele>
        <time>2020-08-23T06:26:23Z</time>
      </trkpt>
      <trkpt lat="46.041716" lon="8.262052">
        <ele>236.667</ele>
        <time>2020-08-23T06:26:37Z</time>
      </trkpt>
      <trkpt lat="46.040715" lon="8.262207">
        <ele>237.167</ele>
        <time>2020-08-23T06:26:56Z</time>
      </trkpt>
      <trkpt lat="46.039924" lon="8.262320">
        <ele>237.146</ele>
        <time>2020-08-23T06:27:11Z</time>
      </trkpt>
      <trkpt lat="46.039177" lon="8.262092">
        <ele>237.126</ele>
        <time>2020-08-23T06:27:25Z</time>
      </trkpt>
      <trkpt lat="46.038464" lon="8.261764">
        <ele>237.173</ele>
        <time>2020-08-23T06:27:40Z</time>
      </trkpt>
      <trkpt lat="46.038367" lon="8.261720">
        <ele>236.175</ele>
        <time>2020-08-23T06:27:42Z</time>
      </trkpt>
      <trkpt lat="46.038329" lon="8.261713">
        <ele>236.113</ele>
        <time>2020-08-23T06:27:43Z</time>
      </trkpt>
      <trkpt lat="46.038278" lon="8.261705">
        <ele>236.150</ele>
        <time>2020-08-23T06:27:44Z</time>
      </trkpt>
      <trkpt lat="46.037329" lon="8.261450">
        <ele>236.148</ele>
        <time>2020-08-23T06:28:03Z</time>
      </trkpt>
      <trkpt lat="46.037015" lon="8.261367">
        <ele>236.161</ele>
        <time>2020-08-23T06:28:09Z</time>
      </trkpt>
      <trkpt lat="46.036962" lon="8.261368">
        <ele>236.117</ele>
        <time>2020-08-23T06:28:10Z</time>
      </trkpt>
      <trkpt lat="46.036909" lon="8.261383">
        <ele>236.108</ele>
        <time>2020-08-23T06:28:11Z</time>
      </trkpt>
      <trkpt lat="46.036030" lon="8.261660">
        <ele>235.659</ele>
        <time>2020-08-23T06:28:28Z</time>
      </trkpt>
      <trkpt lat="46.035178" lon="8.261900">
        <ele>237.159</ele>
        <time>2020-08-23T06:28:45Z</time>
      </trkpt>
      <trkpt lat="46.034405" lon="8.262127">
        <ele>238.568</ele>
        <time>2020-08-23T06:29:01Z</time>
      </trkpt>
      <trkpt lat="46.033651" lon="8.262274">
        <ele>239.528</ele>
        <time>2020-08-23T06:29:18Z</time>
      </trkpt>
      <trkpt lat="46.033266" lon="8.262288">
        <ele>239.565</ele>
        <time>2020-08-23T06:29:27Z</time>
      </trkpt>
      <trkpt lat="46.032555" lon="8.262182">
        <ele>240.457</ele>
        <time>2020-08-23T06:29:42Z</time>
      </trkpt>
      <trkpt lat="46.031695" lon="8.261889">
        <ele>241.435</ele>
        <time>2020-08-23T06:30:00Z</time>
      </trkpt>
      <trkpt lat="46.030886" lon="8.261568">
        <ele>241.432</ele>
        <time>2020-08-23T06:30:17Z</time>
      </trkpt>
      <trkpt lat="46.030063" lon="8.261245">
        <ele>242.344</ele>
        <time>2020-08-23T06:30:36Z</time>
      </trkpt>
      <trkpt lat="46.029576" lon="8.261039">
        <ele>242.805</ele>
        <time>2020-08-23T06:30:47Z</time>
      </trkpt>
      <trkpt lat="46.029068" lon="8.260838">
        <ele>243.815</ele>
        <time>2020-08-23T06:30:59Z</time>
      </trkpt>
      <trkpt lat="46.029036" lon="8.260824">
        <ele>243.808</ele>
        <time>2020-08-23T06:31:00Z</time>
      </trkpt>
      <trkpt lat="46.028352" lon="8.260651">
        <ele>244.789</ele>
        <time>2020-08-23T06:31:16Z</time>
      </trkpt>
      <trkpt lat="46.027469" lon="8.260678">
        <ele>246.239</ele>
        <time>2020-08-23T06:31:36Z</time>
      </trkpt>
      <trkpt lat="46.026795" lon="8.260862">
        <ele>247.298</ele>
        <time>2020-08-23T06:31:53Z</time>
      </trkpt>
      <trkpt lat="46.026362" lon="8.260965">
        <ele>247.228</ele>
        <time>2020-08-23T06:32:04Z</time>
      </trkpt>
      <trkpt lat="46.025518" lon="8.261157">
        <ele>248.625</ele>
        <time>2020-08-23T06:32:24Z</time>
      </trkpt>
      <trkpt lat="46.024596" lon="8.261385">
        <ele>249.647</ele>
        <time>2020-08-23T06:32:45Z</time>
      </trkpt>
      <trkpt lat="46.023802" lon="8.261577">
        <ele>250.565</ele>
        <time>2020-08-23T06:33:02Z</time>
      </trkpt>
      <trkpt lat="46.023382" lon="8.261776">
        <ele>250.532</ele>
        <time>2020-08-23T06:33:14Z</time>
      </trkpt>
      <trkpt lat="46.023212" lon="8.261879">
        <ele>250.559</ele>
        <time>2020-08-23T06:33:19Z</time>
      </trkpt>
      <trkpt lat="46.023170" lon="8.261849">
        <ele>250.503</ele>
        <time>2020-08-23T06:33:20Z</time>
      </trkpt>
      <trkpt lat="46.023136" lon="8.261788">
        <ele>250.523</ele>
        <time>2020-08-23T06:33:22Z</time>
      </trkpt>
      <trkpt lat="46.022813" lon="8.260994">
        <ele>251.008</ele>
        <time>2020-08-23T06:33:37Z</time>
      </trkpt>
      <trkpt lat="46.022454" lon="8.260244">
        <ele>252.060</ele>
        <time>2020-08-23T06:33:52Z</time>
      </trkpt>
      <trkpt lat="46.022264" lon="8.259775">
        <ele>252.450</ele>
        <time>2020-08-23T06:34:01Z</time>
      </trkpt>
      <trkpt lat="46.021870" lon="8.258944">
        <ele>252.979</ele>
        <time>2020-08-23T06:34:17Z</time>
      </trkpt>
      <trkpt lat="46.021718" lon="8.258643">
        <ele>253.929</ele>
        <time>2020-08-23T06:34:23Z</time>
      </trkpt>
      <trkpt lat="46.021340" lon="8.257796">
        <ele>254.836</ele>
        <time>2020-08-23T06:34:39Z</time>
      </trkpt>
      <trkpt lat="46.021315" lon="8.257750">
        <ele>254.878</ele>
        <time>2020-08-23T06:34:40Z</time>
      </trkpt>
      <trkpt lat="46.021297" lon="8.257708">
        <ele>254.876</ele>
        <time>2020-08-23T06:34:41Z</time>
      </trkpt>
      <trkpt lat="46.021279" lon="8.257655">
        <ele>254.863</ele>
        <time>2020-08-23T06:34:42Z</time>
      </trkpt>
      <trkpt lat="46.021262" lon="8.257597">
        <ele>254.837</ele>
        <time>2020-08-23T06:34:43Z</time>
      </trkpt>
      <trkpt lat="46.020985" lon="8.257108">
        <ele>256.349</ele>
        <time>2020-08-23T06:34:56Z</time>
      </trkpt>
      <trkpt lat="46.020960" lon="8.257063">
        <ele>256.813</ele>
        <time>2020-08-23T06:35:05Z</time>
      </trkpt>
      <trkpt lat="46.020947" lon="8.257049">
        <ele>256.808</ele>
        <time>2020-08-23T06:35:07Z</time>
      </trkpt>
      <trkpt lat="46.020930" lon="8.257044">
        <ele>256.888</ele>
        <time>2020-08-23T06:35:08Z</time>
      </trkpt>
      <trkpt lat="46.020914" lon="8.257036">
        <ele>256.898</ele>
        <time>2020-08-23T06:35:09Z</time>
      </trkpt>
      <trkpt lat="46.020874" lon="8.257032">
        <ele>256.827</ele>
        <time>2020-08-23T06:35:11Z</time>
      </trkpt>
      <trkpt lat="46.020850" lon="8.257058">
        <ele>256.887</ele>
        <time>2020-08-23T06:35:12Z</time>
      </trkpt>
      <trkpt lat="46.020829" lon="8.257086">
        <ele>257.214</ele>
        <time>2020-08-23T06:35:13Z</time>
      </trkpt>
      <trkpt lat="46.020808" lon="8.257110">
        <ele>257.216</ele>
        <time>2020-08-23T06:35:14Z</time>
      </trkpt>
      <trkpt lat="46.020768" lon="8.257151">
        <ele>257.224</ele>
        <time>2020-08-23T06:35:15Z</time>
      </trkpt>
      <trkpt lat="46.020325" lon="8.257645">
        <ele>257.751</ele>
        <time>2020-08-23T06:35:30Z</time>
      </trkpt>
      <trkpt lat="46.020319" lon="8.257663">
        <ele>257.733</ele>
        <time>2020-08-23T06:35:31Z</time>
      </trkpt>
      <trkpt lat="46.020318" lon="8.257689">
        <ele>257.723</ele>
        <time>2020-08-23T06:35:32Z</time>
      </trkpt>
      <trkpt lat="46.020341" lon="8.257817">
        <ele>256.315</ele>
        <time>2020-08-23T06:35:39Z</time>
      </trkpt>
      <trkpt lat="46.020353" lon="8.257823">
        <ele>256.308</ele>
        <time>2020-08-23T06:35:40Z</time>
      </trkpt>
      <trkpt lat="46.020365" lon="8.257813">
        <ele>256.348</ele>
        <time>2020-08-23T06:35:41Z</time>
      </trkpt>
      <trkpt lat="46.020367" lon="8.257792">
        <ele>256.338</ele>
        <time>2020-08-23T06:35:42Z</time>
      </trkpt>
      <trkpt lat="46.020353" lon="8.257769">
        <ele>256.357</ele>
        <time>2020-08-23T06:35:43Z</time>
      </trkpt>
      <trkpt lat="46.020342" lon="8.257759">
        <ele>256.377</ele>
        <time>2020-08-23T06:35:44Z</time>
      </trkpt>
      <trkpt lat="46.020323" lon="8.257740">
        <ele>256.334</ele>
        <time>2020-08-23T06:35:45Z</time>
      </trkpt>
      <trkpt lat="46.020315" lon="8.257727">
        <ele>256.316</ele>
        <time>2020-08-23T06:35:46Z</time>
      </trkpt>
      <trkpt lat="46.020311" lon="8.257697">
        <ele>256.314</ele>
        <time>2020-08-23T06:35:48Z</time>
      </trkpt>
      <trkpt lat="46.020316" lon="8.257665">
        <ele>256.371</ele>
        <time>2020-08-23T06:35:49Z</time>
      </trkpt>
      <trkpt lat="46.020321" lon="8.257651">
        <ele>256.389</ele>
        <time>2020-08-23T06:35:50Z</time>
      </trkpt>
      <trkpt lat="46.020328" lon="8.257646">
        <ele>257.706</ele>
        <time>2020-08-23T06:35:53Z</time>
      </trkpt>
      <trkpt lat="46.020340" lon="8.257639">
        <ele>257.726</ele>
        <time>2020-08-23T06:36:10Z</time>
      </trkpt>
      <trkpt lat="46.020327" lon="8.257647">
        <ele>258.208</ele>
        <time>2020-08-23T06:36:26Z</time>
      </trkpt>
      <trkpt lat="46.020328" lon="8.257652">
        <ele>258.293</ele>
        <time>2020-08-23T06:36:48Z</time>
      </trkpt>
      <trkpt lat="46.020342" lon="8.257627">
        <ele>258.263</ele>
        <time>2020-08-23T06:37:13Z</time>
      </trkpt>
      <trkpt lat="46.020355" lon="8.257634">
        <ele>258.282</ele>
        <time>2020-08-23T06:37:36Z</time>
      </trkpt>
      <trkpt lat="46.020356" lon="8.257648">
        <ele>258.252</ele>
        <time>2020-08-23T06:38:05Z</time>
      </trkpt>
      <trkpt lat="46.020329" lon="8.257681">
        <ele>258.259</ele>
        <time>2020-08-23T06:38:13Z</time>
      </trkpt>
      <trkpt lat="46.020316" lon="8.257701">
        <ele>258.271</ele>
        <time>2020-08-23T06:38:14Z</time>
      </trkpt>
      <trkpt lat="46.020293" lon="8.257711">
        <ele>258.279</ele>
        <time>2020-08-23T06:38:15Z</time>
      </trkpt>
      <trkpt lat="46.020065" lon="8.257981">
        <ele>256.836</ele>
        <time>2020-08-23T06:38:24Z</time>
      </trkpt>
      <trkpt lat="46.019738" lon="8.258497">
        <ele>255.836</ele>
        <time>2020-08-23T06:38:33Z</time>
      </trkpt>
      <trkpt lat="46.019625" lon="8.258680">
        <ele>255.317</ele>
        <time>2020-08-23T06:38:36Z</time>
      </trkpt>
      <trkpt lat="46.019593" lon="8.258745">
        <ele>255.318</ele>
        <time>2020-08-23T06:38:37Z</time>
      </trkpt>
      <trkpt lat="46.019565" lon="8.258814">
        <ele>255.308</ele>
        <time>2020-08-23T06:38:38Z</time>
      </trkpt>
      <trkpt lat="46.019189" lon="8.259752">
        <ele>253.448</ele>
        <time>2020-08-23T06:38:50Z</time>
      </trkpt>
      <trkpt lat="46.019125" lon="8.259838">
        <ele>252.978</ele>
        <time>2020-08-23T06:38:51Z</time>
      </trkpt>
      <trkpt lat="46.019079" lon="8.259892">
        <ele>252.917</ele>
        <time>2020-08-23T06:38:52Z</time>
      </trkpt>
      <trkpt lat="46.018998" lon="8.259967">
        <ele>252.037</ele>
        <time>2020-08-23T06:38:53Z</time>
      </trkpt>
      <trkpt lat="46.018950" lon="8.259999">
        <ele>251.574</ele>
        <time>2020-08-23T06:38:54Z</time>
      </trkpt>
      <trkpt lat="46.018878" lon="8.260043">
        <ele>251.086</ele>
        <time>2020-08-23T06:38:55Z</time>
      </trkpt>
      <trkpt lat="46.018255" lon="8.260312">
        <ele>249.624</ele>
        <time>2020-08-23T06:39:05Z</time>
      </trkpt>
      <trkpt lat="46.018249" lon="8.260339">
        <ele>249.691</ele>
        <time>2020-08-23T06:39:06Z</time>
      </trkpt>
      <trkpt lat="46.018258" lon="8.260360">
        <ele>249.686</ele>
        <time>2020-08-23T06:39:07Z</time>
      </trkpt>
      <trkpt lat="46.018278" lon="8.260365">
        <ele>249.660</ele>
        <time>2020-08-23T06:39:08Z</time>
      </trkpt>
      <trkpt lat="46.018300" lon="8.260363">
        <ele>249.626</ele>
        <time>2020-08-23T06:39:09Z</time>
      </trkpt>
      <trkpt lat="46.018321" lon="8.260353">
        <ele>249.608</ele>
        <time>2020-08-23T06:39:10Z</time>
      </trkpt>
      <trkpt lat="46.018779" lon="8.260156">
        <ele>250.523</ele>
        <time>2020-08-23T06:39:24Z</time>
      </trkpt>
      <trkpt lat="46.019160" lon="8.259896">
        <ele>252.043</ele>
        <time>2020-08-23T06:39:36Z</time>
      </trkpt>
      <trkpt lat="46.019177" lon="8.259921">
        <ele>252.092</ele>
        <time>2020-08-23T06:39:37Z</time>
      </trkpt>
      <trkpt lat="46.019187" lon="8.259967">
        <ele>252.022</ele>
        <time>2020-08-23T06:39:38Z</time>
      </trkpt>
      <trkpt lat="46.019346" lon="8.260509">
        <ele>252.429</ele>
        <time>2020-08-23T06:39:49Z</time>
      </trkpt>
      <trkpt lat="46.019414" lon="8.260697">
        <ele>252.431</ele>
        <time>2020-08-23T06:39:53Z</time>
      </trkpt>
      <trkpt lat="46.019420" lon="8.260758">
        <ele>252.499</ele>
        <time>2020-08-23T06:39:54Z</time>
      </trkpt>
      <trkpt lat="46.019416" lon="8.260823">
        <ele>252.476</ele>
        <time>2020-08-23T06:39:55Z</time>
      </trkpt>
      <trkpt lat="46.019404" lon="8.260895">
        <ele>251.055</ele>
        <time>2020-08-23T06:39:56Z</time>
      </trkpt>
      <trkpt lat="46.019388" lon="8.260972">
        <ele>251.007</ele>
        <time>2020-08-23T06:39:57Z</time>
      </trkpt>
      <trkpt lat="46.019301" lon="8.261500">
        <ele>250.017</ele>
        <time>2020-08-23T06:40:05Z</time>
      </trkpt>
      <trkpt lat="46.019227" lon="8.261806">
        <ele>250.008</ele>
        <time>2020-08-23T06:40:10Z</time>
      </trkpt>
      <trkpt lat="46.019186" lon="8.261854">
        <ele>250.040</ele>
        <time>2020-08-23T06:40:11Z</time>
      </trkpt>
      <trkpt lat="46.019141" lon="8.261870">
        <ele>250.050</ele>
        <time>2020-08-23T06:40:12Z</time>
      </trkpt>
      <trkpt lat="46.019100" lon="8.261875">
        <ele>250.039</ele>
        <time>2020-08-23T06:40:13Z</time>
      </trkpt>
      <trkpt lat="46.019053" lon="8.261881">
        <ele>250.049</ele>
        <time>2020-08-23T06:40:14Z</time>
      </trkpt>
      <trkpt lat="46.019006" lon="8.261896">
        <ele>249.666</ele>
        <time>2020-08-23T06:40:15Z</time>
      </trkpt>
      <trkpt lat="46.018957" lon="8.261918">
        <ele>249.688</ele>
        <time>2020-08-23T06:40:16Z</time>
      </trkpt>
      <trkpt lat="46.018909" lon="8.261945">
        <ele>249.646</ele>
        <time>2020-08-23T06:40:17Z</time>
      </trkpt>
      <trkpt lat="46.018861" lon="8.261980">
        <ele>249.623</ele>
        <time>2020-08-23T06:40:18Z</time>
      </trkpt>
      <trkpt lat="46.018814" lon="8.262018">
        <ele>249.655</ele>
        <time>2020-08-23T06:40:19Z</time>
      </trkpt>
      <trkpt lat="46.017936" lon="8.262766">
        <ele>249.107</ele>
        <time>2020-08-23T06:40:37Z</time>
      </trkpt>
      <trkpt lat="46.017898" lon="8.262823">
        <ele>249.117</ele>
        <time>2020-08-23T06:40:38Z</time>
      </trkpt>
      <trkpt lat="46.017868" lon="8.262896">
        <ele>249.108</ele>
        <time>2020-08-23T06:40:39Z</time>
      </trkpt>
      <trkpt lat="46.017854" lon="8.262963">
        <ele>249.110</ele>
        <time>2020-08-23T06:40:40Z</time>
      </trkpt>
      <trkpt lat="46.017848" lon="8.263050">
        <ele>248.670</ele>
        <time>2020-08-23T06:40:41Z</time>
      </trkpt>
      <trkpt lat="46.017851" lon="8.263140">
        <ele>248.619</ele>
        <time>2020-08-23T06:40:42Z</time>
      </trkpt>
      <trkpt lat="46.017856" lon="8.263218">
        <ele>248.619</ele>
        <time>2020-08-23T06:40:43Z</time>
      </trkpt>
      <trkpt lat="46.017874" lon="8.263736">
        <ele>247.236</ele>
        <time>2020-08-23T06:40:49Z</time>
      </trkpt>
      <trkpt lat="46.017860" lon="8.263825">
        <ele>247.228</ele>
        <time>2020-08-23T06:40:50Z</time>
      </trkpt>
      <trkpt lat="46.017834" lon="8.263908">
        <ele>247.256</ele>
        <time>2020-08-23T06:40:51Z</time>
      </trkpt>
      <trkpt lat="46.017796" lon="8.263981">
        <ele>246.763</ele>
        <time>2020-08-23T06:40:52Z</time>
      </trkpt>
      <trkpt lat="46.017750" lon="8.264046">
        <ele>246.722</ele>
        <time>2020-08-23T06:40:53Z</time>
      </trkpt>
      <trkpt lat="46.017697" lon="8.264101">
        <ele>246.762</ele>
        <time>2020-08-23T06:40:54Z</time>
      </trkpt>
      <trkpt lat="46.017641" lon="8.264150">
        <ele>246.708</ele>
        <time>2020-08-23T06:40:55Z</time>
      </trkpt>
      <trkpt lat="46.017583" lon="8.264197">
        <ele>246.708</ele>
        <time>2020-08-23T06:40:56Z</time>
      </trkpt>
      <trkpt lat="46.016747" lon="8.264948">
        <ele>245.237</ele>
        <time>2020-08-23T06:41:10Z</time>
      </trkpt>
      <trkpt lat="46.015625" lon="8.265942">
        <ele>242.397</ele>
        <time>2020-08-23T06:41:28Z</time>
      </trkpt>
      <trkpt lat="46.015088" lon="8.266429">
        <ele>240.976</ele>
        <time>2020-08-23T06:41:36Z</time>
      </trkpt>
      <trkpt lat="46.014949" lon="8.266553">
        <ele>242.386</ele>
        <time>2020-08-23T06:41:38Z</time>
      </trkpt>
      <trkpt lat="46.013729" lon="8.267486">
        <ele>240.473</ele>
        <time>2020-08-23T06:41:55Z</time>
      </trkpt>
      <trkpt lat="46.013525" lon="8.267665">
        <ele>239.555</ele>
        <time>2020-08-23T06:41:58Z</time>
      </trkpt>
      <trkpt lat="46.012702" lon="8.268554">
        <ele>238.033</ele>
        <time>2020-08-23T06:42:12Z</time>
      </trkpt>
      <trkpt lat="46.012427" lon="8.268786">
        <ele>237.530</ele>
        <time>2020-08-23T06:42:17Z</time>
      </trkpt>
      <trkpt lat="46.012396" lon="8.268802">
        <ele>236.658</ele>
        <time>2020-08-23T06:42:18Z</time>
      </trkpt>
      <trkpt lat="46.012352" lon="8.268812">
        <ele>236.152</ele>
        <time>2020-08-23T06:42:19Z</time>
      </trkpt>
      <trkpt lat="46.012321" lon="8.268815">
        <ele>236.117</ele>
        <time>2020-08-23T06:42:20Z</time>
      </trkpt>
      <trkpt lat="46.012240" lon="8.268822">
        <ele>236.108</ele>
        <time>2020-08-23T06:42:22Z</time>
      </trkpt>
      <trkpt lat="46.012202" lon="8.268839">
        <ele>235.610</ele>
        <time>2020-08-23T06:42:23Z</time>
      </trkpt>
      <trkpt lat="46.012009" lon="8.268941">
        <ele>235.670</ele>
        <time>2020-08-23T06:42:28Z</time>
      </trkpt>
      <trkpt lat="46.011968" lon="8.268946">
        <ele>235.659</ele>
        <time>2020-08-23T06:42:29Z</time>
      </trkpt>
      <trkpt lat="46.011928" lon="8.268943">
        <ele>235.639</ele>
        <time>2020-08-23T06:42:30Z</time>
      </trkpt>
      <trkpt lat="46.011891" lon="8.268931">
        <ele>235.686</ele>
        <time>2020-08-23T06:42:31Z</time>
      </trkpt>
      <trkpt lat="46.011853" lon="8.268915">
        <ele>235.698</ele>
        <time>2020-08-23T06:42:32Z</time>
      </trkpt>
      <trkpt lat="46.011559" lon="8.268745">
        <ele>235.626</ele>
        <time>2020-08-23T06:42:40Z</time>
      </trkpt>
      <trkpt lat="46.011515" lon="8.268737">
        <ele>235.663</ele>
        <time>2020-08-23T06:42:41Z</time>
      </trkpt>
      <trkpt lat="46.011460" lon="8.268738">
        <ele>235.634</ele>
        <time>2020-08-23T06:42:42Z</time>
      </trkpt>
      <trkpt lat="46.011420" lon="8.268746">
        <ele>235.655</ele>
        <time>2020-08-23T06:42:43Z</time>
      </trkpt>
      <trkpt lat="46.011370" lon="8.268757">
        <ele>235.610</ele>
        <time>2020-08-23T06:42:44Z</time>
      </trkpt>
      <trkpt lat="46.011275" lon="8.268781">
        <ele>235.108</ele>
        <time>2020-08-23T06:42:46Z</time>
      </trkpt>
      <trkpt lat="46.011138" lon="8.268808">
        <ele>235.118</ele>
        <time>2020-08-23T06:42:49Z</time>
      </trkpt>
      <trkpt lat="46.010474" lon="8.268984">
        <ele>234.258</ele>
        <time>2020-08-23T06:43:06Z</time>
      </trkpt>
      <trkpt lat="46.010196" lon="8.268808">
        <ele>234.227</ele>
        <time>2020-08-23T06:43:16Z</time>
      </trkpt>
      <trkpt lat="46.009880" lon="8.268460">
        <ele>236.127</ele>
        <time>2020-08-23T06:43:29Z</time>
      </trkpt>
      <trkpt lat="46.009875" lon="8.268418">
        <ele>236.184</ele>
        <time>2020-08-23T06:43:30Z</time>
      </trkpt>
      <trkpt lat="46.009834" lon="8.268039">
        <ele>234.746</ele>
        <time>2020-08-23T06:43:38Z</time>
      </trkpt>
      <trkpt lat="46.009832" lon="8.267947">
        <ele>237.524</ele>
        <time>2020-08-23T06:43:40Z</time>
      </trkpt>
      <trkpt lat="46.009779" lon="8.267600">
        <ele>238.571</ele>
        <time>2020-08-23T06:43:48Z</time>
      </trkpt>
      <trkpt lat="46.009464" lon="8.266982">
        <ele>239.548</ele>
        <time>2020-08-23T06:44:05Z</time>
      </trkpt>
      <trkpt lat="46.009223" lon="8.266543">
        <ele>240.461</ele>
        <time>2020-08-23T06:44:18Z</time>
      </trkpt>
      <trkpt lat="46.008891" lon="8.265991">
        <ele>243.817</ele>
        <time>2020-08-23T06:44:37Z</time>
      </trkpt>
      <trkpt lat="46.008596" lon="8.265604">
        <ele>245.708</ele>
        <time>2020-08-23T06:44:54Z</time>
      </trkpt>
      <trkpt lat="46.008300" lon="8.265566">
        <ele>246.799</ele>
        <time>2020-08-23T06:45:08Z</time>
      </trkpt>
      <trkpt lat="46.007947" lon="8.266140">
        <ele>246.779</ele>
        <time>2020-08-23T06:45:23Z</time>
      </trkpt>
      <trkpt lat="46.007878" lon="8.266223">
        <ele>246.728</ele>
        <time>2020-08-23T06:45:25Z</time>
      </trkpt>
      <trkpt lat="46.007845" lon="8.266255">
        <ele>246.718</ele>
        <time>2020-08-23T06:45:26Z</time>
      </trkpt>
      <trkpt lat="46.007765" lon="8.266329">
        <ele>246.735</ele>
        <time>2020-08-23T06:45:28Z</time>
      </trkpt>
      <trkpt lat="46.007622" lon="8.266478">
        <ele>246.727</ele>
        <time>2020-08-23T06:45:32Z</time>
      </trkpt>
      <trkpt lat="46.007580" lon="8.266506">
        <ele>246.715</ele>
        <time>2020-08-23T06:45:33Z</time>
      </trkpt>
      <trkpt lat="46.007359" lon="8.266701">
        <ele>246.752</ele>
        <time>2020-08-23T06:45:39Z</time>
      </trkpt>
      <trkpt lat="46.007331" lon="8.266740">
        <ele>246.727</ele>
        <time>2020-08-23T06:45:40Z</time>
      </trkpt>
      <trkpt lat="46.007314" lon="8.266782">
        <ele>246.768</ele>
        <time>2020-08-23T06:45:41Z</time>
      </trkpt>
      <trkpt lat="46.007308" lon="8.266827">
        <ele>246.714</ele>
        <time>2020-08-23T06:45:42Z</time>
      </trkpt>
      <trkpt lat="46.007308" lon="8.266855">
        <ele>246.708</ele>
        <time>2020-08-23T06:45:43Z</time>
      </trkpt>
      <trkpt lat="46.007303" lon="8.266883">
        <ele>246.757</ele>
        <time>2020-08-23T06:45:44Z</time>
      </trkpt>
      <trkpt lat="46.007296" lon="8.266893">
        <ele>246.777</ele>
        <time>2020-08-23T06:45:45Z</time>
      </trkpt>
      <trkpt lat="46.007283" lon="8.266907">
        <ele>246.726</ele>
        <time>2020-08-23T06:45:46Z</time>
      </trkpt>
      <trkpt lat="46.007274" lon="8.266912">
        <ele>246.786</ele>
        <time>2020-08-23T06:45:47Z</time>
      </trkpt>
      <trkpt lat="46.007266" lon="8.266903">
        <ele>246.733</ele>
        <time>2020-08-23T06:45:48Z</time>
      </trkpt>
      <trkpt lat="46.007268" lon="8.266883">
        <ele>246.725</ele>
        <time>2020-08-23T06:45:49Z</time>
      </trkpt>
      <trkpt lat="46.007282" lon="8.266865">
        <ele>246.743</ele>
        <time>2020-08-23T06:45:50Z</time>
      </trkpt>
      <trkpt lat="46.007302" lon="8.266850">
        <ele>246.780</ele>
        <time>2020-08-23T06:45:51Z</time>
      </trkpt>
      <trkpt lat="46.007323" lon="8.266836">
        <ele>246.738</ele>
        <time>2020-08-23T06:45:52Z</time>
      </trkpt>
      <trkpt lat="46.007471" lon="8.266726">
        <ele>246.770</ele>
        <time>2020-08-23T06:45:59Z</time>
      </trkpt>
      <trkpt lat="46.007483" lon="8.266737">
        <ele>246.717</ele>
        <time>2020-08-23T06:46:00Z</time>
      </trkpt>
      <trkpt lat="46.007464" lon="8.266762">
        <ele>246.708</ele>
        <time>2020-08-23T06:46:15Z</time>
      </trkpt>
      <trkpt lat="46.007437" lon="8.266718">
        <ele>246.798</ele>
        <time>2020-08-23T06:46:38Z</time>
      </trkpt>
      <trkpt lat="46.007429" lon="8.266697">
        <ele>246.748</ele>
        <time>2020-08-23T06:46:40Z</time>
      </trkpt>
      <trkpt lat="46.007413" lon="8.266692">
        <ele>247.227</ele>
        <time>2020-08-23T06:46:41Z</time>
      </trkpt>
      <trkpt lat="46.007401" lon="8.266695">
        <ele>246.777</ele>
        <time>2020-08-23T06:46:42Z</time>
      </trkpt>
      <trkpt lat="46.007382" lon="8.266702">
        <ele>247.274</ele>
        <time>2020-08-23T06:46:43Z</time>
      </trkpt>
      <trkpt lat="46.007359" lon="8.266713">
        <ele>247.226</ele>
        <time>2020-08-23T06:46:44Z</time>
      </trkpt>
      <trkpt lat="46.006919" lon="8.267081">
        <ele>246.764</ele>
        <time>2020-08-23T06:46:58Z</time>
      </trkpt>
      <trkpt lat="46.006644" lon="8.267318">
        <ele>247.221</ele>
        <time>2020-08-23T06:47:06Z</time>
      </trkpt>
      <trkpt lat="46.006181" lon="8.267642">
        <ele>248.161</ele>
        <time>2020-08-23T06:47:18Z</time>
      </trkpt>
      <trkpt lat="46.006131" lon="8.267662">
        <ele>248.121</ele>
        <time>2020-08-23T06:47:19Z</time>
      </trkpt>
      <trkpt lat="46.006100" lon="8.267685">
        <ele>248.113</ele>
        <time>2020-08-23T06:47:20Z</time>
      </trkpt>
      <trkpt lat="46.005822" lon="8.267924">
        <ele>248.108</ele>
        <time>2020-08-23T06:47:28Z</time>
      </trkpt>
      <trkpt lat="46.005789" lon="8.267951">
        <ele>248.141</ele>
        <time>2020-08-23T06:47:29Z</time>
      </trkpt>
      <trkpt lat="46.005741" lon="8.267997">
        <ele>248.151</ele>
        <time>2020-08-23T06:47:30Z</time>
      </trkpt>
      <trkpt lat="46.005071" lon="8.268514">
        <ele>248.190</ele>
        <time>2020-08-23T06:47:45Z</time>
      </trkpt>
      <trkpt lat="46.004977" lon="8.268547">
        <ele>246.750</ele>
        <time>2020-08-23T06:47:47Z</time>
      </trkpt>
      <trkpt lat="46.004591" lon="8.268641">
        <ele>246.717</ele>
        <time>2020-08-23T06:47:55Z</time>
      </trkpt>
      <trkpt lat="46.004426" lon="8.268723">
        <ele>246.719</ele>
        <time>2020-08-23T06:47:59Z</time>
      </trkpt>
      <trkpt lat="46.004388" lon="8.268750">
        <ele>246.717</ele>
        <time>2020-08-23T06:48:00Z</time>
      </trkpt>
      <trkpt lat="46.004349" lon="8.268780">
        <ele>246.764</ele>
        <time>2020-08-23T06:48:01Z</time>
      </trkpt>
      <trkpt lat="46.004309" lon="8.268818">
        <ele>246.727</ele>
        <time>2020-08-23T06:48:02Z</time>
      </trkpt>
      <trkpt lat="46.004266" lon="8.268865">
        <ele>246.768</ele>
        <time>2020-08-23T06:48:03Z</time>
      </trkpt>
      <trkpt lat="46.004103" lon="8.269098">
        <ele>246.714</ele>
        <time>2020-08-23T06:48:07Z</time>
      </trkpt>
      <trkpt lat="46.003867" lon="8.269741">
        <ele>244.308</ele>
        <time>2020-08-23T06:48:14Z</time>
      </trkpt>
      <trkpt lat="46.003829" lon="8.269822">
        <ele>244.387</ele>
        <time>2020-08-23T06:48:15Z</time>
      </trkpt>
      <trkpt lat="46.003774" lon="8.269919">
        <ele>243.847</ele>
        <time>2020-08-23T06:48:16Z</time>
      </trkpt>
      <trkpt lat="46.003732" lon="8.269981">
        <ele>243.896</ele>
        <time>2020-08-23T06:48:17Z</time>
      </trkpt>
      <trkpt lat="46.003661" lon="8.270064">
        <ele>243.346</ele>
        <time>2020-08-23T06:48:18Z</time>
      </trkpt>
      <trkpt lat="46.003600" lon="8.270126">
        <ele>243.343</ele>
        <time>2020-08-23T06:48:19Z</time>
      </trkpt>
      <trkpt lat="46.003084" lon="8.270519">
        <ele>239.945</ele>
        <time>2020-08-23T06:48:26Z</time>
      </trkpt>
      <trkpt lat="46.002377" lon="8.271039">
        <ele>237.123</ele>
        <time>2020-08-23T06:48:35Z</time>
      </trkpt>
      <trkpt lat="46.001620" lon="8.271577">
        <ele>233.730</ele>
        <time>2020-08-23T06:48:45Z</time>
      </trkpt>
      <trkpt lat="46.000792" lon="8.272176">
        <ele>231.888</ele>
        <time>2020-08-23T06:48:57Z</time>
      </trkpt>
      <trkpt lat="46.000584" lon="8.272404">
        <ele>232.324</ele>
        <time>2020-08-23T06:49:01Z</time>
      </trkpt>
      <trkpt lat="46.000543" lon="8.272468">
        <ele>232.326</ele>
        <time>2020-08-23T06:49:02Z</time>
      </trkpt>
      <trkpt lat="46.000442" lon="8.272667">
        <ele>232.308</ele>
        <time>2020-08-23T06:49:05Z</time>
      </trkpt>
      <trkpt lat="46.000416" lon="8.272736">
        <ele>232.323</ele>
        <time>2020-08-23T06:49:06Z</time>
      </trkpt>
      <trkpt lat="46.000271" lon="8.273406">
        <ele>233.223</ele>
        <time>2020-08-23T06:49:16Z</time>
      </trkpt>
      <trkpt lat="46.000177" lon="8.274457">
        <ele>234.782</ele>
        <time>2020-08-23T06:49:32Z</time>
      </trkpt>
      <trkpt lat="46.000155" lon="8.274593">
        <ele>234.792</ele>
        <time>2020-08-23T06:49:34Z</time>
      </trkpt>
      <trkpt lat="46.000143" lon="8.274659">
        <ele>234.719</ele>
        <time>2020-08-23T06:49:35Z</time>
      </trkpt>
      <trkpt lat="46.000130" lon="8.274733">
        <ele>234.791</ele>
        <time>2020-08-23T06:49:36Z</time>
      </trkpt>
      <trkpt lat="45.999944" lon="8.275397">
        <ele>233.229</ele>
        <time>2020-08-23T06:49:44Z</time>
      </trkpt>
      <trkpt lat="45.999517" lon="8.276885">
        <ele>230.396</ele>
        <time>2020-08-23T06:50:00Z</time>
      </trkpt>
      <trkpt lat="45.999134" lon="8.278360">
        <ele>229.867</ele>
        <time>2020-08-23T06:50:18Z</time>
      </trkpt>
      <trkpt lat="45.999034" lon="8.279679">
        <ele>229.881</ele>
        <time>2020-08-23T06:50:34Z</time>
      </trkpt>
      <trkpt lat="45.998996" lon="8.280467">
        <ele>228.919</ele>
        <time>2020-08-23T06:50:43Z</time>
      </trkpt>
      <trkpt lat="45.998979" lon="8.280552">
        <ele>228.908</ele>
        <time>2020-08-23T06:50:44Z</time>
      </trkpt>
      <trkpt lat="45.998956" lon="8.280628">
        <ele>228.951</ele>
        <time>2020-08-23T06:50:45Z</time>
      </trkpt>
      <trkpt lat="45.998933" lon="8.280695">
        <ele>228.921</ele>
        <time>2020-08-23T06:50:46Z</time>
      </trkpt>
      <trkpt lat="45.998914" lon="8.280742">
        <ele>228.960</ele>
        <time>2020-08-23T06:50:47Z</time>
      </trkpt>
      <trkpt lat="45.998868" lon="8.280807">
        <ele>228.980</ele>
        <time>2020-08-23T06:50:48Z</time>
      </trkpt>
      <trkpt lat="45.998817" lon="8.280861">
        <ele>228.447</ele>
        <time>2020-08-23T06:50:49Z</time>
      </trkpt>
      <trkpt lat="45.997982" lon="8.281770">
        <ele>227.919</ele>
        <time>2020-08-23T06:51:06Z</time>
      </trkpt>
      <trkpt lat="45.997793" lon="8.281994">
        <ele>227.927</ele>
        <time>2020-08-23T06:51:10Z</time>
      </trkpt>
      <trkpt lat="45.997169" lon="8.282716">
        <ele>227.954</ele>
        <time>2020-08-23T06:51:24Z</time>
      </trkpt>
      <trkpt lat="45.996375" lon="8.283608">
        <ele>227.433</ele>
        <time>2020-08-23T06:51:41Z</time>
      </trkpt>
      <trkpt lat="45.995401" lon="8.284725">
        <ele>227.023</ele>
        <time>2020-08-23T06:52:03Z</time>
      </trkpt>
      <trkpt lat="45.995094" lon="8.285080">
        <ele>227.015</ele>
        <time>2020-08-23T06:52:11Z</time>
      </trkpt>
      <trkpt lat="45.994985" lon="8.285204">
        <ele>228.408</ele>
        <time>2020-08-23T06:52:14Z</time>
      </trkpt>
      <trkpt lat="45.994553" lon="8.285739">
        <ele>229.888</ele>
        <time>2020-08-23T06:52:27Z</time>
      </trkpt>
      <trkpt lat="45.994533" lon="8.285787">
        <ele>229.888</ele>
        <time>2020-08-23T06:52:28Z</time>
      </trkpt>
      <trkpt lat="45.994512" lon="8.285845">
        <ele>229.817</ele>
        <time>2020-08-23T06:52:29Z</time>
      </trkpt>
      <trkpt lat="45.994457" lon="8.286006">
        <ele>229.897</ele>
        <time>2020-08-23T06:52:32Z</time>
      </trkpt>
      <trkpt lat="45.994277" lon="8.286771">
        <ele>231.374</ele>
        <time>2020-08-23T06:52:47Z</time>
      </trkpt>
      <trkpt lat="45.994008" lon="8.287854">
        <ele>234.276</ele>
        <time>2020-08-23T06:53:10Z</time>
      </trkpt>
      <trkpt lat="45.993822" lon="8.288609">
        <ele>235.164</ele>
        <time>2020-08-23T06:53:25Z</time>
      </trkpt>
      <trkpt lat="45.993665" lon="8.289322">
        <ele>236.611</ele>
        <time>2020-08-23T06:53:40Z</time>
      </trkpt>
      <trkpt lat="45.993440" lon="8.290207">
        <ele>238.558</ele>
        <time>2020-08-23T06:53:57Z</time>
      </trkpt>
      <trkpt lat="45.993290" lon="8.290797">
        <ele>239.952</ele>
        <time>2020-08-23T06:54:09Z</time>
      </trkpt>
      <trkpt lat="45.993107" lon="8.291511">
        <ele>241.917</ele>
        <time>2020-08-23T06:54:24Z</time>
      </trkpt>
      <trkpt lat="45.992945" lon="8.292255">
        <ele>243.808</ele>
        <time>2020-08-23T06:54:40Z</time>
      </trkpt>
      <trkpt lat="45.992676" lon="8.293358">
        <ele>242.350</ele>
        <time>2020-08-23T06:54:58Z</time>
      </trkpt>
      <trkpt lat="45.992360" lon="8.294586">
        <ele>239.520</ele>
        <time>2020-08-23T06:55:11Z</time>
      </trkpt>
      <trkpt lat="45.992159" lon="8.295510">
        <ele>237.129</ele>
        <time>2020-08-23T06:55:20Z</time>
      </trkpt>
      <trkpt lat="45.992157" lon="8.295637">
        <ele>237.189</ele>
        <time>2020-08-23T06:55:21Z</time>
      </trkpt>
      <trkpt lat="45.992222" lon="8.296541">
        <ele>234.736</ele>
        <time>2020-08-23T06:55:29Z</time>
      </trkpt>
      <trkpt lat="45.992243" lon="8.296659">
        <ele>234.218</ele>
        <time>2020-08-23T06:55:30Z</time>
      </trkpt>
      <trkpt lat="45.992271" lon="8.296769">
        <ele>234.226</ele>
        <time>2020-08-23T06:55:31Z</time>
      </trkpt>
      <trkpt lat="45.992307" lon="8.296877">
        <ele>233.763</ele>
        <time>2020-08-23T06:55:32Z</time>
      </trkpt>
      <trkpt lat="45.992349" lon="8.296989">
        <ele>233.779</ele>
        <time>2020-08-23T06:55:33Z</time>
      </trkpt>
      <trkpt lat="45.992802" lon="8.298282">
        <ele>230.305</ele>
        <time>2020-08-23T06:55:45Z</time>
      </trkpt>
      <trkpt lat="45.992862" lon="8.298623">
        <ele>229.825</ele>
        <time>2020-08-23T06:55:48Z</time>
      </trkpt>
      <trkpt lat="45.992864" lon="8.298747">
        <ele>229.808</ele>
        <time>2020-08-23T06:55:49Z</time>
      </trkpt>
      <trkpt lat="45.992854" lon="8.298865">
        <ele>228.922</ele>
        <time>2020-08-23T06:55:50Z</time>
      </trkpt>
      <trkpt lat="45.992836" lon="8.298981">
        <ele>228.922</ele>
        <time>2020-08-23T06:55:51Z</time>
      </trkpt>
      <trkpt lat="45.992814" lon="8.299109">
        <ele>228.461</ele>
        <time>2020-08-23T06:55:52Z</time>
      </trkpt>
      <trkpt lat="45.992767" lon="8.300675">
        <ele>227.081</ele>
        <time>2020-08-23T06:56:05Z</time>
      </trkpt>
      <trkpt lat="45.992921" lon="8.302142">
        <ele>225.038</ele>
        <time>2020-08-23T06:56:17Z</time>
      </trkpt>
      <trkpt lat="45.992829" lon="8.303574">
        <ele>224.610</ele>
        <time>2020-08-23T06:56:31Z</time>
      </trkpt>
      <trkpt lat="45.992837" lon="8.303834">
        <ele>224.678</ele>
        <time>2020-08-23T06:56:34Z</time>
      </trkpt>
      <trkpt lat="45.992905" lon="8.304715">
        <ele>224.625</ele>
        <time>2020-08-23T06:56:43Z</time>
      </trkpt>
      <trkpt lat="45.992895" lon="8.304822">
        <ele>224.625</ele>
        <time>2020-08-23T06:56:44Z</time>
      </trkpt>
      <trkpt lat="45.992880" lon="8.304914">
        <ele>224.626</ele>
        <time>2020-08-23T06:56:45Z</time>
      </trkpt>
      <trkpt lat="45.992862" lon="8.305009">
        <ele>224.608</ele>
        <time>2020-08-23T06:56:46Z</time>
      </trkpt>
      <trkpt lat="45.992839" lon="8.305101">
        <ele>224.608</ele>
        <time>2020-08-23T06:56:47Z</time>
      </trkpt>
      <trkpt lat="45.992812" lon="8.305190">
        <ele>223.657</ele>
        <time>2020-08-23T06:56:48Z</time>
      </trkpt>
      <trkpt lat="45.992663" lon="8.305702">
        <ele>223.687</ele>
        <time>2020-08-23T06:56:54Z</time>
      </trkpt>
      <trkpt lat="45.992366" lon="8.306632">
        <ele>223.676</ele>
        <time>2020-08-23T06:57:06Z</time>
      </trkpt>
      <trkpt lat="45.992331" lon="8.306685">
        <ele>224.176</ele>
        <time>2020-08-23T06:57:07Z</time>
      </trkpt>
      <trkpt lat="45.992285" lon="8.306720">
        <ele>223.663</ele>
        <time>2020-08-23T06:57:08Z</time>
      </trkpt>
      <trkpt lat="45.992257" lon="8.306731">
        <ele>223.675</ele>
        <time>2020-08-23T06:57:09Z</time>
      </trkpt>
      <trkpt lat="45.992216" lon="8.306745">
        <ele>223.673</ele>
        <time>2020-08-23T06:57:10Z</time>
      </trkpt>
      <trkpt lat="45.992199" lon="8.306756">
        <ele>223.680</ele>
        <time>2020-08-23T06:57:11Z</time>
      </trkpt>
      <trkpt lat="45.992179" lon="8.306788">
        <ele>223.684</ele>
        <time>2020-08-23T06:57:21Z</time>
      </trkpt>
      <trkpt lat="45.992158" lon="8.306767">
        <ele>225.007</ele>
        <time>2020-08-23T06:57:51Z</time>
      </trkpt>
      <trkpt lat="45.992159" lon="8.306777">
        <ele>225.017</ele>
        <time>2020-08-23T06:58:26Z</time>
      </trkpt>
      <trkpt lat="45.992183" lon="8.306835">
        <ele>225.008</ele>
        <time>2020-08-23T06:58:47Z</time>
      </trkpt>
      <trkpt lat="45.992186" lon="8.306851">
        <ele>225.023</ele>
        <time>2020-08-23T06:58:48Z</time>
      </trkpt>
      <trkpt lat="45.992216" lon="8.307084">
        <ele>225.553</ele>
        <time>2020-08-23T06:58:56Z</time>
      </trkpt>
      <trkpt lat="45.992206" lon="8.307118">
        <ele>225.592</ele>
        <time>2020-08-23T06:58:57Z</time>
      </trkpt>
      <trkpt lat="45.992187" lon="8.307163">
        <ele>225.552</ele>
        <time>2020-08-23T06:58:58Z</time>
      </trkpt>
      <trkpt lat="45.992169" lon="8.307204">
        <ele>225.519</ele>
        <time>2020-08-23T06:58:59Z</time>
      </trkpt>
      <trkpt lat="45.992145" lon="8.307255">
        <ele>226.021</ele>
        <time>2020-08-23T06:59:00Z</time>
      </trkpt>
      <trkpt lat="45.992117" lon="8.307310">
        <ele>226.059</ele>
        <time>2020-08-23T06:59:01Z</time>
      </trkpt>
      <trkpt lat="45.991883" lon="8.307678">
        <ele>224.626</ele>
        <time>2020-08-23T06:59:07Z</time>
      </trkpt>
      <trkpt lat="45.991235" lon="8.308629">
        <ele>224.152</ele>
        <time>2020-08-23T06:59:22Z</time>
      </trkpt>
      <trkpt lat="45.990732" lon="8.309669">
        <ele>223.653</ele>
        <time>2020-08-23T06:59:36Z</time>
      </trkpt>
      <trkpt lat="45.990714" lon="8.309751">
        <ele>223.608</ele>
        <time>2020-08-23T06:59:37Z</time>
      </trkpt>
      <trkpt lat="45.990700" lon="8.309834">
        <ele>223.608</ele>
        <time>2020-08-23T06:59:38Z</time>
      </trkpt>
      <trkpt lat="45.990392" lon="8.311185">
        <ele>223.190</ele>
        <time>2020-08-23T06:59:54Z</time>
      </trkpt>
      <trkpt lat="45.990019" lon="8.312531">
        <ele>223.160</ele>
        <time>2020-08-23T07:00:10Z</time>
      </trkpt>
      <trkpt lat="45.989967" lon="8.313146">
        <ele>224.659</ele>
        <time>2020-08-23T07:00:17Z</time>
      </trkpt>
      <trkpt lat="45.989873" lon="8.314271">
        <ele>225.549</ele>
        <time>2020-08-23T07:00:32Z</time>
      </trkpt>
      <trkpt lat="45.989811" lon="8.315457">
        <ele>227.426</ele>
        <time>2020-08-23T07:00:52Z</time>
      </trkpt>
      <trkpt lat="45.989789" lon="8.316345">
        <ele>229.458</ele>
        <time>2020-08-23T07:01:08Z</time>
      </trkpt>
      <trkpt lat="45.989735" lon="8.317346">
        <ele>230.846</ele>
        <time>2020-08-23T07:01:26Z</time>
      </trkpt>
      <trkpt lat="45.989725" lon="8.317690">
        <ele>231.863</ele>
        <time>2020-08-23T07:01:32Z</time>
      </trkpt>
      <trkpt lat="45.989681" lon="8.318896">
        <ele>232.721</ele>
        <time>2020-08-23T07:01:52Z</time>
      </trkpt>
      <trkpt lat="45.989635" lon="8.320191">
        <ele>230.841</ele>
        <time>2020-08-23T07:02:08Z</time>
      </trkpt>
      <trkpt lat="45.989634" lon="8.321071">
        <ele>227.905</ele>
        <time>2020-08-23T07:02:16Z</time>
      </trkpt>
      <trkpt lat="45.989737" lon="8.322250">
        <ele>224.608</ele>
        <time>2020-08-23T07:02:26Z</time>
      </trkpt>
      <trkpt lat="45.989912" lon="8.324019">
        <ele>222.667</ele>
        <time>2020-08-23T07:02:43Z</time>
      </trkpt>
      <trkpt lat="45.989853" lon="8.325627">
        <ele>222.247</ele>
        <time>2020-08-23T07:03:00Z</time>
      </trkpt>
      <trkpt lat="45.989599" lon="8.327514">
        <ele>221.776</ele>
        <time>2020-08-23T07:03:22Z</time>
      </trkpt>
      <trkpt lat="45.989640" lon="8.329031">
        <ele>221.766</ele>
        <time>2020-08-23T07:03:40Z</time>
      </trkpt>
      <trkpt lat="45.989616" lon="8.330899">
        <ele>221.793</ele>
        <time>2020-08-23T07:04:02Z</time>
      </trkpt>
      <trkpt lat="45.989586" lon="8.332473">
        <ele>221.235</ele>
        <time>2020-08-23T07:04:20Z</time>
      </trkpt>
      <trkpt lat="45.989583" lon="8.334140">
        <ele>221.223</ele>
        <time>2020-08-23T07:04:39Z</time>
      </trkpt>
      <trkpt lat="45.989577" lon="8.334225">
        <ele>221.250</ele>
        <time>2020-08-23T07:04:40Z</time>
      </trkpt>
      <trkpt lat="45.989505" lon="8.335890">
        <ele>220.799</ele>
        <time>2020-08-23T07:04:59Z</time>
      </trkpt>
      <trkpt lat="45.989296" lon="8.337334">
        <ele>220.707</ele>
        <time>2020-08-23T07:05:17Z</time>
      </trkpt>
      <trkpt lat="45.989253" lon="8.337691">
        <ele>220.727</ele>
        <time>2020-08-23T07:05:22Z</time>
      </trkpt>
      <trkpt lat="45.989080" lon="8.338686">
        <ele>222.608</ele>
        <time>2020-08-23T07:05:37Z</time>
      </trkpt>
      <trkpt lat="45.989044" lon="8.339022">
        <ele>224.614</ele>
        <time>2020-08-23T07:05:42Z</time>
      </trkpt>
      <trkpt lat="45.989039" lon="8.339097">
        <ele>224.684</ele>
        <time>2020-08-23T07:05:43Z</time>
      </trkpt>
      <trkpt lat="45.989146" lon="8.340148">
        <ele>226.093</ele>
        <time>2020-08-23T07:06:01Z</time>
      </trkpt>
      <trkpt lat="45.989423" lon="8.341405">
        <ele>225.043</ele>
        <time>2020-08-23T07:06:20Z</time>
      </trkpt>
      <trkpt lat="45.989439" lon="8.341482">
        <ele>225.020</ele>
        <time>2020-08-23T07:06:21Z</time>
      </trkpt>
      <trkpt lat="45.989688" lon="8.342648">
        <ele>223.672</ele>
        <time>2020-08-23T07:06:35Z</time>
      </trkpt>
      <trkpt lat="45.989937" lon="8.344039">
        <ele>222.620</ele>
        <time>2020-08-23T07:06:52Z</time>
      </trkpt>
      <trkpt lat="45.990006" lon="8.344650">
        <ele>222.287</ele>
        <time>2020-08-23T07:06:59Z</time>
      </trkpt>
      <trkpt lat="45.990005" lon="8.344741">
        <ele>222.216</ele>
        <time>2020-08-23T07:07:00Z</time>
      </trkpt>
      <trkpt lat="45.989997" lon="8.344830">
        <ele>222.276</ele>
        <time>2020-08-23T07:07:01Z</time>
      </trkpt>
      <trkpt lat="45.989933" lon="8.345372">
        <ele>221.713</ele>
        <time>2020-08-23T07:07:07Z</time>
      </trkpt>
      <trkpt lat="45.989896" lon="8.345553">
        <ele>221.708</ele>
        <time>2020-08-23T07:07:09Z</time>
      </trkpt>
      <trkpt lat="45.989868" lon="8.345649">
        <ele>221.766</ele>
        <time>2020-08-23T07:07:10Z</time>
      </trkpt>
      <trkpt lat="45.989470" lon="8.346977">
        <ele>220.276</ele>
        <time>2020-08-23T07:07:25Z</time>
      </trkpt>
      <trkpt lat="45.989308" lon="8.348404">
        <ele>219.815</ele>
        <time>2020-08-23T07:07:41Z</time>
      </trkpt>
      <trkpt lat="45.989147" lon="8.349751">
        <ele>219.385</ele>
        <time>2020-08-23T07:07:58Z</time>
      </trkpt>
      <trkpt lat="45.989138" lon="8.349825">
        <ele>219.372</ele>
        <time>2020-08-23T07:07:59Z</time>
      </trkpt>
      <trkpt lat="45.989001" lon="8.351038">
        <ele>218.874</ele>
        <time>2020-08-23T07:08:14Z</time>
      </trkpt>
      <trkpt lat="45.988855" lon="8.351925">
        <ele>218.862</ele>
        <time>2020-08-23T07:08:25Z</time>
      </trkpt>
      <trkpt lat="45.988811" lon="8.352078">
        <ele>218.819</ele>
        <time>2020-08-23T07:08:27Z</time>
      </trkpt>
      <trkpt lat="45.988800" lon="8.352161">
        <ele>218.844</ele>
        <time>2020-08-23T07:08:28Z</time>
      </trkpt>
      <trkpt lat="45.988799" lon="8.352244">
        <ele>218.805</ele>
        <time>2020-08-23T07:08:29Z</time>
      </trkpt>
      <trkpt lat="45.988804" lon="8.352327">
        <ele>218.815</ele>
        <time>2020-08-23T07:08:30Z</time>
      </trkpt>
      <trkpt lat="45.988808" lon="8.352409">
        <ele>218.808</ele>
        <time>2020-08-23T07:08:31Z</time>
      </trkpt>
      <trkpt lat="45.988807" lon="8.352493">
        <ele>218.879</ele>
        <time>2020-08-23T07:08:32Z</time>
      </trkpt>
      <trkpt lat="45.988802" lon="8.352580">
        <ele>218.889</ele>
        <time>2020-08-23T07:08:33Z</time>
      </trkpt>
      <trkpt lat="45.988794" lon="8.352671">
        <ele>218.878</ele>
        <time>2020-08-23T07:08:34Z</time>
      </trkpt>
      <trkpt lat="45.988714" lon="8.353477">
        <ele>218.858</ele>
        <time>2020-08-23T07:08:44Z</time>
      </trkpt>
      <trkpt lat="45.988700" lon="8.353556">
        <ele>218.865</ele>
        <time>2020-08-23T07:08:45Z</time>
      </trkpt>
      <trkpt lat="45.988406" lon="8.354762">
        <ele>218.847</ele>
        <time>2020-08-23T07:09:00Z</time>
      </trkpt>
      <trkpt lat="45.988078" lon="8.356033">
        <ele>218.865</ele>
        <time>2020-08-23T07:09:16Z</time>
      </trkpt>
      <trkpt lat="45.987747" lon="8.357386">
        <ele>218.862</ele>
        <time>2020-08-23T07:09:34Z</time>
      </trkpt>
      <trkpt lat="45.987387" lon="8.358813">
        <ele>218.834</ele>
        <time>2020-08-23T07:09:53Z</time>
      </trkpt>
      <trkpt lat="45.987035" lon="8.360278">
        <ele>218.855</ele>
        <time>2020-08-23T07:10:12Z</time>
      </trkpt>
      <trkpt lat="45.986559" lon="8.362203">
        <ele>218.810</ele>
        <time>2020-08-23T07:10:37Z</time>
      </trkpt>
      <trkpt lat="45.986193" lon="8.363656">
        <ele>218.308</ele>
        <time>2020-08-23T07:10:56Z</time>
      </trkpt>
      <trkpt lat="45.985819" lon="8.365145">
        <ele>218.328</ele>
        <time>2020-08-23T07:11:15Z</time>
      </trkpt>
      <trkpt lat="45.985479" lon="8.366471">
        <ele>218.398</ele>
        <time>2020-08-23T07:11:32Z</time>
      </trkpt>
      <trkpt lat="45.985232" lon="8.367579">
        <ele>217.887</ele>
        <time>2020-08-23T07:11:46Z</time>
      </trkpt>
      <trkpt lat="45.985137" lon="8.368961">
        <ele>217.877</ele>
        <time>2020-08-23T07:12:03Z</time>
      </trkpt>
      <trkpt lat="45.985080" lon="8.370330">
        <ele>217.824</ele>
        <time>2020-08-23T07:12:20Z</time>
      </trkpt>
      <trkpt lat="45.985061" lon="8.370733">
        <ele>217.826</ele>
        <time>2020-08-23T07:12:26Z</time>
      </trkpt>
      <trkpt lat="45.985048" lon="8.370793">
        <ele>217.834</ele>
        <time>2020-08-23T07:12:27Z</time>
      </trkpt>
      <trkpt lat="45.985023" lon="8.370842">
        <ele>217.891</ele>
        <time>2020-08-23T07:12:28Z</time>
      </trkpt>
      <trkpt lat="45.984981" lon="8.370878">
        <ele>217.417</ele>
        <time>2020-08-23T07:12:29Z</time>
      </trkpt>
      <trkpt lat="45.984932" lon="8.370890">
        <ele>217.487</ele>
        <time>2020-08-23T07:12:30Z</time>
      </trkpt>
      <trkpt lat="45.984893" lon="8.370894">
        <ele>217.415</ele>
        <time>2020-08-23T07:12:31Z</time>
      </trkpt>
      <trkpt lat="45.984844" lon="8.370896">
        <ele>217.408</ele>
        <time>2020-08-23T07:12:32Z</time>
      </trkpt>
      <trkpt lat="45.984796" lon="8.370896">
        <ele>217.456</ele>
        <time>2020-08-23T07:12:33Z</time>
      </trkpt>
      <trkpt lat="45.983985" lon="8.370842">
        <ele>217.436</ele>
        <time>2020-08-23T07:12:48Z</time>
      </trkpt>
      <trkpt lat="45.983630" lon="8.370779">
        <ele>218.855</ele>
        <time>2020-08-23T07:12:56Z</time>
      </trkpt>
      <trkpt lat="45.983567" lon="8.370796">
        <ele>218.855</ele>
        <time>2020-08-23T07:12:58Z</time>
      </trkpt>
      <trkpt lat="45.983545" lon="8.370824">
        <ele>219.832</ele>
        <time>2020-08-23T07:12:59Z</time>
      </trkpt>
      <trkpt lat="45.983535" lon="8.370850">
        <ele>219.844</ele>
        <time>2020-08-23T07:13:00Z</time>
      </trkpt>
      <trkpt lat="45.983526" lon="8.370894">
        <ele>219.892</ele>
        <time>2020-08-23T07:13:01Z</time>
      </trkpt>
      <trkpt lat="45.983520" lon="8.370946">
        <ele>219.819</ele>
        <time>2020-08-23T07:13:02Z</time>
      </trkpt>
      <trkpt lat="45.983504" lon="8.371111">
        <ele>220.289</ele>
        <time>2020-08-23T07:13:05Z</time>
      </trkpt>
      <trkpt lat="45.983449" lon="8.371547">
        <ele>220.206</ele>
        <time>2020-08-23T07:13:12Z</time>
      </trkpt>
      <trkpt lat="45.983473" lon="8.371899">
        <ele>220.226</ele>
        <time>2020-08-23T07:13:17Z</time>
      </trkpt>
      <trkpt lat="45.983485" lon="8.371985">
        <ele>220.208</ele>
        <time>2020-08-23T07:13:18Z</time>
      </trkpt>
      <trkpt lat="45.983524" lon="8.372360">
        <ele>218.873</ele>
        <time>2020-08-23T07:13:23Z</time>
      </trkpt>
      <trkpt lat="45.983310" lon="8.373545">
        <ele>218.363</ele>
        <time>2020-08-23T07:13:38Z</time>
      </trkpt>
      <trkpt lat="45.983312" lon="8.374514">
        <ele>218.342</ele>
        <time>2020-08-23T07:13:51Z</time>
      </trkpt>
      <trkpt lat="45.983307" lon="8.374584">
        <ele>219.862</ele>
        <time>2020-08-23T07:13:52Z</time>
      </trkpt>
      <trkpt lat="45.983160" lon="8.375467">
        <ele>221.239</ele>
        <time>2020-08-23T07:14:07Z</time>
      </trkpt>
      <trkpt lat="45.983149" lon="8.375535">
        <ele>221.271</ele>
        <time>2020-08-23T07:14:08Z</time>
      </trkpt>
      <trkpt lat="45.983070" lon="8.375956">
        <ele>219.369</ele>
        <time>2020-08-23T07:14:13Z</time>
      </trkpt>
      <trkpt lat="45.982885" lon="8.377033">
        <ele>217.876</ele>
        <time>2020-08-23T07:14:25Z</time>
      </trkpt>
      <trkpt lat="45.982858" lon="8.377100">
        <ele>217.882</ele>
        <time>2020-08-23T07:14:26Z</time>
      </trkpt>
      <trkpt lat="45.982832" lon="8.377133">
        <ele>217.443</ele>
        <time>2020-08-23T07:14:27Z</time>
      </trkpt>
      <trkpt lat="45.982800" lon="8.377169">
        <ele>217.417</ele>
        <time>2020-08-23T07:14:28Z</time>
      </trkpt>
      <trkpt lat="45.982767" lon="8.377217">
        <ele>217.408</ele>
        <time>2020-08-23T07:14:29Z</time>
      </trkpt>
      <trkpt lat="45.982739" lon="8.377261">
        <ele>217.433</ele>
        <time>2020-08-23T07:14:30Z</time>
      </trkpt>
      <trkpt lat="45.982721" lon="8.377298">
        <ele>217.483</ele>
        <time>2020-08-23T07:14:31Z</time>
      </trkpt>
      <trkpt lat="45.982698" lon="8.377356">
        <ele>217.412</ele>
        <time>2020-08-23T07:14:32Z</time>
      </trkpt>
      <trkpt lat="45.982646" lon="8.377467">
        <ele>217.472</ele>
        <time>2020-08-23T07:14:34Z</time>
      </trkpt>
      <trkpt lat="45.982613" lon="8.377521">
        <ele>217.439</ele>
        <time>2020-08-23T07:14:35Z</time>
      </trkpt>
      <trkpt lat="45.982581" lon="8.377579">
        <ele>216.961</ele>
        <time>2020-08-23T07:14:36Z</time>
      </trkpt>
      <trkpt lat="45.982553" lon="8.377644">
        <ele>216.939</ele>
        <time>2020-08-23T07:14:37Z</time>
      </trkpt>
      <trkpt lat="45.982530" lon="8.377711">
        <ele>216.926</ele>
        <time>2020-08-23T07:14:38Z</time>
      </trkpt>
      <trkpt lat="45.982508" lon="8.377780">
        <ele>216.926</ele>
        <time>2020-08-23T07:14:39Z</time>
      </trkpt>
      <trkpt lat="45.982475" lon="8.377930">
        <ele>216.947</ele>
        <time>2020-08-23T07:14:41Z</time>
      </trkpt>
      <trkpt lat="45.982464" lon="8.378004">
        <ele>216.911</ele>
        <time>2020-08-23T07:14:42Z</time>
      </trkpt>
      <trkpt lat="45.982398" lon="8.378652">
        <ele>216.908</ele>
        <time>2020-08-23T07:14:51Z</time>
      </trkpt>
      <trkpt lat="45.982387" lon="8.378709">
        <ele>216.957</ele>
        <time>2020-08-23T07:14:52Z</time>
      </trkpt>
      <trkpt lat="45.982374" lon="8.378766">
        <ele>216.917</ele>
        <time>2020-08-23T07:14:53Z</time>
      </trkpt>
      <trkpt lat="45.982370" lon="8.378805">
        <ele>216.946</ele>
        <time>2020-08-23T07:14:54Z</time>
      </trkpt>
      <trkpt lat="45.982370" lon="8.378826">
        <ele>216.936</ele>
        <time>2020-08-23T07:14:55Z</time>
      </trkpt>
      <trkpt lat="45.982393" lon="8.378857">
        <ele>216.913</ele>
        <time>2020-08-23T07:15:09Z</time>
      </trkpt>
      <trkpt lat="45.982404" lon="8.378865">
        <ele>216.985</ele>
        <time>2020-08-23T07:15:10Z</time>
      </trkpt>
      <trkpt lat="45.982419" lon="8.378882">
        <ele>216.993</ele>
        <time>2020-08-23T07:15:11Z</time>
      </trkpt>
      <trkpt lat="45.982432" lon="8.378908">
        <ele>216.990</ele>
        <time>2020-08-23T07:15:12Z</time>
      </trkpt>
      <trkpt lat="45.982444" lon="8.378940">
        <ele>216.958</ele>
        <time>2020-08-23T07:15:13Z</time>
      </trkpt>
      <trkpt lat="45.982453" lon="8.378977">
        <ele>216.952</ele>
        <time>2020-08-23T07:15:14Z</time>
      </trkpt>
      <trkpt lat="45.982459" lon="8.379020">
        <ele>216.917</ele>
        <time>2020-08-23T07:15:15Z</time>
      </trkpt>
      <trkpt lat="45.982467" lon="8.379062">
        <ele>216.908</ele>
        <time>2020-08-23T07:15:16Z</time>
      </trkpt>
      <trkpt lat="45.982564" lon="8.379572">
        <ele>215.960</ele>
        <time>2020-08-23T07:15:26Z</time>
      </trkpt>
      <trkpt lat="45.982721" lon="8.380096">
        <ele>215.460</ele>
        <time>2020-08-23T07:15:35Z</time>
      </trkpt>
      <trkpt lat="45.982810" lon="8.380390">
        <ele>215.499</ele>
        <time>2020-08-23T07:15:41Z</time>
      </trkpt>
      <trkpt lat="45.982856" lon="8.380501">
        <ele>215.499</ele>
        <time>2020-08-23T07:15:43Z</time>
      </trkpt>
      <trkpt lat="45.982911" lon="8.380665">
        <ele>215.446</ele>
        <time>2020-08-23T07:15:46Z</time>
      </trkpt>
      <trkpt lat="45.983119" lon="8.381718">
        <ele>215.458</ele>
        <time>2020-08-23T07:16:02Z</time>
      </trkpt>
      <trkpt lat="45.983206" lon="8.382731">
        <ele>215.426</ele>
        <time>2020-08-23T07:16:16Z</time>
      </trkpt>
      <trkpt lat="45.983224" lon="8.383004">
        <ele>215.483</ele>
        <time>2020-08-23T07:16:20Z</time>
      </trkpt>
      <trkpt lat="45.983235" lon="8.383075">
        <ele>215.472</ele>
        <time>2020-08-23T07:16:21Z</time>
      </trkpt>
      <trkpt lat="45.983445" lon="8.384146">
        <ele>215.413</ele>
        <time>2020-08-23T07:16:39Z</time>
      </trkpt>
      <trkpt lat="45.983425" lon="8.384178">
        <ele>215.414</ele>
        <time>2020-08-23T07:16:40Z</time>
      </trkpt>
      <trkpt lat="45.983391" lon="8.384197">
        <ele>215.408</ele>
        <time>2020-08-23T07:16:41Z</time>
      </trkpt>
      <trkpt lat="45.983358" lon="8.384205">
        <ele>215.452</ele>
        <time>2020-08-23T07:16:42Z</time>
      </trkpt>
      <trkpt lat="45.983318" lon="8.384210">
        <ele>215.472</ele>
        <time>2020-08-23T07:16:43Z</time>
      </trkpt>
      <trkpt lat="45.983276" lon="8.384211">
        <ele>215.471</ele>
        <time>2020-08-23T07:16:44Z</time>
      </trkpt>
      <trkpt lat="45.983141" lon="8.384209">
        <ele>215.411</ele>
        <time>2020-08-23T07:16:47Z</time>
      </trkpt>
      <trkpt lat="45.983097" lon="8.384230">
        <ele>215.428</ele>
        <time>2020-08-23T07:16:48Z</time>
      </trkpt>
      <trkpt lat="45.983068" lon="8.384267">
        <ele>215.430</ele>
        <time>2020-08-23T07:16:49Z</time>
      </trkpt>
      <trkpt lat="45.983054" lon="8.384325">
        <ele>215.498</ele>
        <time>2020-08-23T07:16:50Z</time>
      </trkpt>
      <trkpt lat="45.983052" lon="8.384388">
        <ele>215.445</ele>
        <time>2020-08-23T07:16:51Z</time>
      </trkpt>
      <trkpt lat="45.983058" lon="8.384441">
        <ele>215.437</ele>
        <time>2020-08-23T07:16:52Z</time>
      </trkpt>
      <trkpt lat="45.983067" lon="8.384499">
        <ele>215.449</ele>
        <time>2020-08-23T07:16:53Z</time>
      </trkpt>
      <trkpt lat="45.983079" lon="8.384567">
        <ele>215.413</ele>
        <time>2020-08-23T07:16:54Z</time>
      </trkpt>
      <trkpt lat="45.983352" lon="8.385607">
        <ele>215.408</ele>
        <time>2020-08-23T07:17:09Z</time>
      </trkpt>
      <trkpt lat="45.983406" lon="8.385805">
        <ele>214.938</ele>
        <time>2020-08-23T07:17:12Z</time>
      </trkpt>
      <trkpt lat="45.983427" lon="8.385866">
        <ele>215.448</ele>
        <time>2020-08-23T07:17:13Z</time>
      </trkpt>
      <trkpt lat="45.983445" lon="8.385935">
        <ele>215.497</ele>
        <time>2020-08-23T07:17:14Z</time>
      </trkpt>
      <trkpt lat="45.983525" lon="8.386267">
        <ele>214.997</ele>
        <time>2020-08-23T07:17:19Z</time>
      </trkpt>
      <trkpt lat="45.983544" lon="8.386332">
        <ele>214.964</ele>
        <time>2020-08-23T07:17:20Z</time>
      </trkpt>
      <trkpt lat="45.983611" lon="8.386681">
        <ele>214.916</ele>
        <time>2020-08-23T07:17:25Z</time>
      </trkpt>
      <trkpt lat="45.983625" lon="8.386751">
        <ele>214.984</ele>
        <time>2020-08-23T07:17:26Z</time>
      </trkpt>
      <trkpt lat="45.983795" lon="8.387821">
        <ele>214.961</ele>
        <time>2020-08-23T07:17:42Z</time>
      </trkpt>
      <trkpt lat="45.983881" lon="8.388923">
        <ele>216.454</ele>
        <time>2020-08-23T07:17:59Z</time>
      </trkpt>
      <trkpt lat="45.983985" lon="8.389584">
        <ele>217.456</ele>
        <time>2020-08-23T07:18:10Z</time>
      </trkpt>
      <trkpt lat="45.984243" lon="8.390476">
        <ele>216.411</ele>
        <time>2020-08-23T07:18:22Z</time>
      </trkpt>
      <trkpt lat="45.984744" lon="8.391686">
        <ele>214.908</ele>
        <time>2020-08-23T07:18:38Z</time>
      </trkpt>
      <trkpt lat="45.985262" lon="8.392592">
        <ele>214.930</ele>
        <time>2020-08-23T07:18:53Z</time>
      </trkpt>
      <trkpt lat="45.985548" lon="8.392885">
        <ele>214.910</ele>
        <time>2020-08-23T07:19:00Z</time>
      </trkpt>
      <trkpt lat="45.985638" lon="8.392956">
        <ele>214.969</ele>
        <time>2020-08-23T07:19:02Z</time>
      </trkpt>
      <trkpt lat="45.985681" lon="8.392998">
        <ele>214.989</ele>
        <time>2020-08-23T07:19:03Z</time>
      </trkpt>
      <trkpt lat="45.986366" lon="8.393650">
        <ele>214.566</ele>
        <time>2020-08-23T07:19:19Z</time>
      </trkpt>
      <trkpt lat="45.986816" lon="8.393948">
        <ele>214.528</ele>
        <time>2020-08-23T07:19:28Z</time>
      </trkpt>
      <trkpt lat="45.986857" lon="8.393993">
        <ele>214.536</ele>
        <time>2020-08-23T07:19:29Z</time>
      </trkpt>
      <trkpt lat="45.986892" lon="8.394044">
        <ele>214.563</ele>
        <time>2020-08-23T07:19:30Z</time>
      </trkpt>
      <trkpt lat="45.986920" lon="8.394104">
        <ele>214.563</ele>
        <time>2020-08-23T07:19:31Z</time>
      </trkpt>
      <trkpt lat="45.986938" lon="8.394170">
        <ele>214.544</ele>
        <time>2020-08-23T07:19:32Z</time>
      </trkpt>
      <trkpt lat="45.986948" lon="8.394242">
        <ele>214.518</ele>
        <time>2020-08-23T07:19:33Z</time>
      </trkpt>
      <trkpt lat="45.986954" lon="8.394596">
        <ele>214.508</ele>
        <time>2020-08-23T07:19:38Z</time>
      </trkpt>
      <trkpt lat="45.986924" lon="8.394759">
        <ele>215.921</ele>
        <time>2020-08-23T07:19:40Z</time>
      </trkpt>
      <trkpt lat="45.986680" lon="8.396031">
        <ele>215.951</ele>
        <time>2020-08-23T07:19:57Z</time>
      </trkpt>
      <trkpt lat="45.986386" lon="8.397575">
        <ele>215.930</ele>
        <time>2020-08-23T07:20:17Z</time>
      </trkpt>
      <trkpt lat="45.986365" lon="8.397664">
        <ele>214.970</ele>
        <time>2020-08-23T07:20:24Z</time>
      </trkpt>
      <trkpt lat="45.986354" lon="8.397650">
        <ele>214.937</ele>
        <time>2020-08-23T07:20:26Z</time>
      </trkpt>
      <trkpt lat="45.986339" lon="8.397664">
        <ele>214.949</ele>
        <time>2020-08-23T07:20:27Z</time>
      </trkpt>
      <trkpt lat="45.986209" lon="8.398130">
        <ele>214.987</ele>
        <time>2020-08-23T07:20:38Z</time>
      </trkpt>
      <trkpt lat="45.985984" lon="8.399277">
        <ele>214.094</ele>
        <time>2020-08-23T07:20:53Z</time>
      </trkpt>
      <trkpt lat="45.985807" lon="8.400127">
        <ele>214.026</ele>
        <time>2020-08-23T07:21:05Z</time>
      </trkpt>
      <trkpt lat="45.985770" lon="8.400589">
        <ele>214.947</ele>
        <time>2020-08-23T07:21:14Z</time>
      </trkpt>
      <trkpt lat="45.985747" lon="8.400643">
        <ele>214.911</ele>
        <time>2020-08-23T07:21:15Z</time>
      </trkpt>
      <trkpt lat="45.985715" lon="8.400701">
        <ele>214.908</ele>
        <time>2020-08-23T07:21:16Z</time>
      </trkpt>
      <trkpt lat="45.985625" lon="8.400838">
        <ele>215.457</ele>
        <time>2020-08-23T07:21:19Z</time>
      </trkpt>
      <trkpt lat="45.985370" lon="8.401113">
        <ele>215.477</ele>
        <time>2020-08-23T07:21:30Z</time>
      </trkpt>
      <trkpt lat="45.985336" lon="8.401125">
        <ele>214.056</ele>
        <time>2020-08-23T07:21:44Z</time>
      </trkpt>
      <trkpt lat="45.985166" lon="8.401282">
        <ele>214.016</ele>
        <time>2020-08-23T07:21:56Z</time>
      </trkpt>
      <trkpt lat="45.984954" lon="8.401447">
        <ele>213.513</ele>
        <time>2020-08-23T07:22:06Z</time>
      </trkpt>
      <trkpt lat="45.984893" lon="8.401513">
        <ele>214.985</ele>
        <time>2020-08-23T07:22:12Z</time>
      </trkpt>
      <trkpt lat="45.984636" lon="8.401737">
        <ele>214.913</ele>
        <time>2020-08-23T07:22:20Z</time>
      </trkpt>
      <trkpt lat="45.984563" lon="8.401809">
        <ele>215.450</ele>
        <time>2020-08-23T07:22:22Z</time>
      </trkpt>
      <trkpt lat="45.983762" lon="8.402497">
        <ele>214.027</ele>
        <time>2020-08-23T07:22:41Z</time>
      </trkpt>
      <trkpt lat="45.983013" lon="8.403181">
        <ele>214.068</ele>
        <time>2020-08-23T07:22:57Z</time>
      </trkpt>
      <trkpt lat="45.982038" lon="8.404057">
        <ele>214.014</ele>
        <time>2020-08-23T07:23:17Z</time>
      </trkpt>
      <trkpt lat="45.981556" lon="8.404498">
        <ele>213.508</ele>
        <time>2020-08-23T07:23:27Z</time>
      </trkpt>
      <trkpt lat="45.981375" lon="8.404666">
        <ele>214.087</ele>
        <time>2020-08-23T07:23:31Z</time>
      </trkpt>
      <trkpt lat="45.980395" lon="8.405532">
        <ele>213.587</ele>
        <time>2020-08-23T07:23:52Z</time>
      </trkpt>
      <trkpt lat="45.979545" lon="8.406280">
        <ele>213.596</ele>
        <time>2020-08-23T07:24:10Z</time>
      </trkpt>
      <trkpt lat="45.978614" lon="8.407108">
        <ele>213.596</ele>
        <time>2020-08-23T07:24:29Z</time>
      </trkpt>
      <trkpt lat="45.978039" lon="8.407629">
        <ele>213.063</ele>
        <time>2020-08-23T07:24:41Z</time>
      </trkpt>
      <trkpt lat="45.977992" lon="8.407670">
        <ele>213.085</ele>
        <time>2020-08-23T07:24:42Z</time>
      </trkpt>
      <trkpt lat="45.977129" lon="8.408453">
        <ele>212.163</ele>
        <time>2020-08-23T07:25:01Z</time>
      </trkpt>
      <trkpt lat="45.976469" lon="8.409034">
        <ele>212.160</ele>
        <time>2020-08-23T07:25:16Z</time>
      </trkpt>
      <trkpt lat="45.976147" lon="8.409317">
        <ele>212.186</ele>
        <time>2020-08-23T07:25:23Z</time>
      </trkpt>
      <trkpt lat="45.976099" lon="8.409336">
        <ele>212.160</ele>
        <time>2020-08-23T07:25:24Z</time>
      </trkpt>
      <trkpt lat="45.976052" lon="8.409356">
        <ele>212.126</ele>
        <time>2020-08-23T07:25:25Z</time>
      </trkpt>
      <trkpt lat="45.976005" lon="8.409390">
        <ele>212.108</ele>
        <time>2020-08-23T07:25:26Z</time>
      </trkpt>
      <trkpt lat="45.975962" lon="8.409432">
        <ele>212.183</ele>
        <time>2020-08-23T07:25:27Z</time>
      </trkpt>
      <trkpt lat="45.975925" lon="8.409481">
        <ele>212.133</ele>
        <time>2020-08-23T07:25:28Z</time>
      </trkpt>
      <trkpt lat="45.975888" lon="8.409532">
        <ele>212.152</ele>
        <time>2020-08-23T07:25:29Z</time>
      </trkpt>
      <trkpt lat="45.975854" lon="8.409575">
        <ele>212.192</ele>
        <time>2020-08-23T07:25:30Z</time>
      </trkpt>
      <trkpt lat="45.975779" lon="8.409661">
        <ele>212.159</ele>
        <time>2020-08-23T07:25:32Z</time>
      </trkpt>
      <trkpt lat="45.975737" lon="8.409695">
        <ele>212.161</ele>
        <time>2020-08-23T07:25:33Z</time>
      </trkpt>
      <trkpt lat="45.975326" lon="8.410067">
        <ele>213.549</ele>
        <time>2020-08-23T07:25:43Z</time>
      </trkpt>
      <trkpt lat="45.975038" lon="8.410345">
        <ele>212.526</ele>
        <time>2020-08-23T07:25:55Z</time>
      </trkpt>
      <trkpt lat="45.975018" lon="8.410366">
        <ele>212.535</ele>
        <time>2020-08-23T07:26:11Z</time>
      </trkpt>
      <trkpt lat="45.974991" lon="8.410364">
        <ele>212.586</ele>
        <time>2020-08-23T07:26:24Z</time>
      </trkpt>
      <trkpt lat="45.974977" lon="8.410355">
        <ele>212.514</ele>
        <time>2020-08-23T07:26:25Z</time>
      </trkpt>
      <trkpt lat="45.974960" lon="8.410337">
        <ele>212.508</ele>
        <time>2020-08-23T07:26:26Z</time>
      </trkpt>
      <trkpt lat="45.974946" lon="8.410316">
        <ele>212.528</ele>
        <time>2020-08-23T07:26:27Z</time>
      </trkpt>
      <trkpt lat="45.974926" lon="8.410279">
        <ele>212.588</ele>
        <time>2020-08-23T07:26:28Z</time>
      </trkpt>
      <trkpt lat="45.974913" lon="8.410249">
        <ele>212.567</ele>
        <time>2020-08-23T07:26:29Z</time>
      </trkpt>
      <trkpt lat="45.974895" lon="8.410208">
        <ele>212.597</ele>
        <time>2020-08-23T07:26:30Z</time>
      </trkpt>
      <trkpt lat="45.974874" lon="8.410166">
        <ele>212.534</ele>
        <time>2020-08-23T07:26:31Z</time>
      </trkpt>
      <trkpt lat="45.974851" lon="8.410125">
        <ele>212.576</ele>
        <time>2020-08-23T07:26:32Z</time>
      </trkpt>
      <trkpt lat="45.974776" lon="8.409981">
        <ele>213.514</ele>
        <time>2020-08-23T07:26:35Z</time>
      </trkpt>
      <trkpt lat="45.974754" lon="8.409920">
        <ele>213.571</ele>
        <time>2020-08-23T07:26:36Z</time>
      </trkpt>
      <trkpt lat="45.974712" lon="8.409815">
        <ele>213.548</ele>
        <time>2020-08-23T07:26:38Z</time>
      </trkpt>
      <trkpt lat="45.974678" lon="8.409773">
        <ele>213.561</ele>
        <time>2020-08-23T07:26:39Z</time>
      </trkpt>
      <trkpt lat="45.974635" lon="8.409749">
        <ele>213.517</ele>
        <time>2020-08-23T07:26:40Z</time>
      </trkpt>
      <trkpt lat="45.974588" lon="8.409743">
        <ele>213.508</ele>
        <time>2020-08-23T07:26:41Z</time>
      </trkpt>
      <trkpt lat="45.974538" lon="8.409755">
        <ele>213.539</ele>
        <time>2020-08-23T07:26:42Z</time>
      </trkpt>
      <trkpt lat="45.974499" lon="8.409769">
        <ele>213.519</ele>
        <time>2020-08-23T07:26:43Z</time>
      </trkpt>
      <trkpt lat="45.973787" lon="8.409938">
        <ele>215.448</ele>
        <time>2020-08-23T07:27:00Z</time>
      </trkpt>
      <trkpt lat="45.973300" lon="8.409926">
        <ele>217.478</ele>
        <time>2020-08-23T07:27:13Z</time>
      </trkpt>
      <trkpt lat="45.972690" lon="8.409775">
        <ele>219.375</ele>
        <time>2020-08-23T07:27:31Z</time>
      </trkpt>
      <trkpt lat="45.972337" lon="8.409571">
        <ele>220.797</ele>
        <time>2020-08-23T07:27:46Z</time>
      </trkpt>
      <trkpt lat="45.972325" lon="8.409569">
        <ele>220.765</ele>
        <time>2020-08-23T07:27:47Z</time>
      </trkpt>
      <trkpt lat="45.972298" lon="8.409593">
        <ele>221.292</ele>
        <time>2020-08-23T07:27:50Z</time>
      </trkpt>
      <trkpt lat="45.972291" lon="8.409641">
        <ele>221.251</ele>
        <time>2020-08-23T07:27:54Z</time>
      </trkpt>
      <trkpt lat="45.972452" lon="8.410083">
        <ele>220.701</ele>
        <time>2020-08-23T07:28:04Z</time>
      </trkpt>
      <trkpt lat="45.972661" lon="8.410763">
        <ele>219.311</ele>
        <time>2020-08-23T07:28:17Z</time>
      </trkpt>
      <trkpt lat="45.972717" lon="8.410883">
        <ele>218.808</ele>
        <time>2020-08-23T07:28:21Z</time>
      </trkpt>
      <trkpt lat="45.972706" lon="8.410930">
        <ele>218.870</ele>
        <time>2020-08-23T07:28:22Z</time>
      </trkpt>
      <trkpt lat="45.972675" lon="8.410975">
        <ele>218.870</ele>
        <time>2020-08-23T07:28:23Z</time>
      </trkpt>
      <trkpt lat="45.972622" lon="8.411017">
        <ele>218.859</ele>
        <time>2020-08-23T07:28:25Z</time>
      </trkpt>
      <trkpt lat="45.972341" lon="8.411256">
        <ele>218.849</ele>
        <time>2020-08-23T07:28:37Z</time>
      </trkpt>
      <trkpt lat="45.972250" lon="8.411311">
        <ele>220.286</ele>
        <time>2020-08-23T07:28:41Z</time>
      </trkpt>
      <trkpt lat="45.972236" lon="8.411306">
        <ele>220.238</ele>
        <time>2020-08-23T07:28:42Z</time>
      </trkpt>
      <trkpt lat="45.972228" lon="8.411295">
        <ele>220.736</ele>
        <time>2020-08-23T07:28:43Z</time>
      </trkpt>
      <trkpt lat="45.972220" lon="8.411273">
        <ele>220.763</ele>
        <time>2020-08-23T07:28:44Z</time>
      </trkpt>
      <trkpt lat="45.972213" lon="8.411253">
        <ele>220.716</ele>
        <time>2020-08-23T07:28:45Z</time>
      </trkpt>
      <trkpt lat="45.972203" lon="8.411229">
        <ele>220.776</ele>
        <time>2020-08-23T07:28:46Z</time>
      </trkpt>
      <trkpt lat="45.972196" lon="8.411208">
        <ele>221.213</ele>
        <time>2020-08-23T07:28:47Z</time>
      </trkpt>
      <trkpt lat="45.972184" lon="8.411189">
        <ele>221.208</ele>
        <time>2020-08-23T07:28:48Z</time>
      </trkpt>
      <trkpt lat="45.972168" lon="8.411172">
        <ele>221.736</ele>
        <time>2020-08-23T07:28:49Z</time>
      </trkpt>
      <trkpt lat="45.972151" lon="8.411153">
        <ele>222.266</ele>
        <time>2020-08-23T07:28:50Z</time>
      </trkpt>
      <trkpt lat="45.971835" lon="8.410826">
        <ele>224.195</ele>
        <time>2020-08-23T07:29:04Z</time>
      </trkpt>
      <trkpt lat="45.971435" lon="8.410700">
        <ele>227.045</ele>
        <time>2020-08-23T07:29:20Z</time>
      </trkpt>
      <trkpt lat="45.971147" lon="8.410790">
        <ele>228.472</ele>
        <time>2020-08-23T07:29:34Z</time>
      </trkpt>
      <trkpt lat="45.971203" lon="8.411269">
        <ele>228.984</ele>
        <time>2020-08-23T07:29:46Z</time>
      </trkpt>
      <trkpt lat="45.971238" lon="8.411782">
        <ele>227.462</ele>
        <time>2020-08-23T07:29:55Z</time>
      </trkpt>
      <trkpt lat="45.971273" lon="8.412170">
        <ele>227.029</ele>
        <time>2020-08-23T07:30:01Z</time>
      </trkpt>
      <trkpt lat="45.971273" lon="8.412430">
        <ele>226.515</ele>
        <time>2020-08-23T07:30:05Z</time>
      </trkpt>
      <trkpt lat="45.971356" lon="8.412958">
        <ele>225.565</ele>
        <time>2020-08-23T07:30:13Z</time>
      </trkpt>
      <trkpt lat="45.971373" lon="8.413017">
        <ele>225.511</ele>
        <time>2020-08-23T07:30:14Z</time>
      </trkpt>
      <trkpt lat="45.971469" lon="8.413238">
        <ele>225.008</ele>
        <time>2020-08-23T07:30:18Z</time>
      </trkpt>
      <trkpt lat="45.971508" lon="8.413295">
        <ele>225.086</ele>
        <time>2020-08-23T07:30:19Z</time>
      </trkpt>
      <trkpt lat="45.971819" lon="8.413669">
        <ele>223.626</ele>
        <time>2020-08-23T07:30:30Z</time>
      </trkpt>
      <trkpt lat="45.971812" lon="8.413686">
        <ele>224.135</ele>
        <time>2020-08-23T07:30:33Z</time>
      </trkpt>
      <trkpt lat="45.971806" lon="8.413709">
        <ele>224.185</ele>
        <time>2020-08-23T07:30:34Z</time>
      </trkpt>
      <trkpt lat="45.971793" lon="8.413733">
        <ele>224.172</ele>
        <time>2020-08-23T07:30:35Z</time>
      </trkpt>
      <trkpt lat="45.971775" lon="8.413765">
        <ele>224.144</ele>
        <time>2020-08-23T07:30:36Z</time>
      </trkpt>
      <trkpt lat="45.971763" lon="8.413797">
        <ele>224.182</ele>
        <time>2020-08-23T07:30:37Z</time>
      </trkpt>
      <trkpt lat="45.971755" lon="8.413847">
        <ele>224.119</ele>
        <time>2020-08-23T07:30:38Z</time>
      </trkpt>
      <trkpt lat="45.971757" lon="8.413888">
        <ele>224.151</ele>
        <time>2020-08-23T07:30:39Z</time>
      </trkpt>
      <trkpt lat="45.971773" lon="8.413945">
        <ele>224.101</ele>
        <time>2020-08-23T07:30:40Z</time>
      </trkpt>
      <trkpt lat="45.971791" lon="8.413978">
        <ele>224.111</ele>
        <time>2020-08-23T07:30:41Z</time>
      </trkpt>
      <trkpt lat="45.971817" lon="8.414015">
        <ele>223.608</ele>
        <time>2020-08-23T07:30:42Z</time>
      </trkpt>
      <trkpt lat="45.971845" lon="8.414049">
        <ele>223.610</ele>
        <time>2020-08-23T07:30:43Z</time>
      </trkpt>
      <trkpt lat="45.971872" lon="8.414082">
        <ele>223.690</ele>
        <time>2020-08-23T07:30:44Z</time>
      </trkpt>
      <trkpt lat="45.972244" lon="8.414597">
        <ele>222.219</ele>
        <time>2020-08-23T07:30:57Z</time>
      </trkpt>
      <trkpt lat="45.972405" lon="8.414843">
        <ele>218.829</ele>
        <time>2020-08-23T07:31:01Z</time>
      </trkpt>
      <trkpt lat="45.972445" lon="8.414912">
        <ele>222.296</ele>
        <time>2020-08-23T07:31:02Z</time>
      </trkpt>
      <trkpt lat="45.972713" lon="8.415484">
        <ele>218.398</ele>
        <time>2020-08-23T07:31:09Z</time>
      </trkpt>
      <trkpt lat="45.973083" lon="8.416887">
        <ele>215.456</ele>
        <time>2020-08-23T07:31:23Z</time>
      </trkpt>
      <trkpt lat="45.973424" lon="8.418615">
        <ele>212.533</ele>
        <time>2020-08-23T07:31:41Z</time>
      </trkpt>
      <trkpt lat="45.973449" lon="8.418951">
        <ele>212.118</ele>
        <time>2020-08-23T07:31:45Z</time>
      </trkpt>
      <trkpt lat="45.973442" lon="8.419112">
        <ele>212.198</ele>
        <time>2020-08-23T07:31:47Z</time>
      </trkpt>
      <trkpt lat="45.973453" lon="8.419191">
        <ele>211.617</ele>
        <time>2020-08-23T07:31:48Z</time>
      </trkpt>
      <trkpt lat="45.973475" lon="8.419267">
        <ele>211.608</ele>
        <time>2020-08-23T07:31:49Z</time>
      </trkpt>
      <trkpt lat="45.973498" lon="8.419326">
        <ele>211.616</ele>
        <time>2020-08-23T07:31:50Z</time>
      </trkpt>
      <trkpt lat="45.973525" lon="8.419390">
        <ele>211.636</ele>
        <time>2020-08-23T07:31:51Z</time>
      </trkpt>
      <trkpt lat="45.973910" lon="8.420189">
        <ele>213.075</ele>
        <time>2020-08-23T07:32:07Z</time>
      </trkpt>
      <trkpt lat="45.973947" lon="8.420265">
        <ele>213.555</ele>
        <time>2020-08-23T07:32:10Z</time>
      </trkpt>
      <trkpt lat="45.973947" lon="8.420283">
        <ele>213.592</ele>
        <time>2020-08-23T07:32:11Z</time>
      </trkpt>
      <trkpt lat="45.973954" lon="8.420302">
        <ele>213.574</ele>
        <time>2020-08-23T07:32:12Z</time>
      </trkpt>
      <trkpt lat="45.973963" lon="8.420319">
        <ele>213.512</ele>
        <time>2020-08-23T07:32:13Z</time>
      </trkpt>
      <trkpt lat="45.973974" lon="8.420340">
        <ele>213.529</ele>
        <time>2020-08-23T07:32:14Z</time>
      </trkpt>
      <trkpt lat="45.973985" lon="8.420361">
        <ele>214.059</ele>
        <time>2020-08-23T07:32:15Z</time>
      </trkpt>
      <trkpt lat="45.974202" lon="8.420758">
        <ele>215.403</ele>
        <time>2020-08-23T07:32:31Z</time>
      </trkpt>
      <trkpt lat="45.974245" lon="8.420842">
        <ele>215.923</ele>
        <time>2020-08-23T07:32:44Z</time>
      </trkpt>
      <trkpt lat="45.974246" lon="8.420863">
        <ele>215.908</ele>
        <time>2020-08-23T07:33:12Z</time>
      </trkpt>
      <trkpt lat="45.974448" lon="8.421231">
        <ele>216.970</ele>
        <time>2020-08-23T07:33:24Z</time>
      </trkpt>
      <trkpt lat="45.974543" lon="8.421387">
        <ele>216.940</ele>
        <time>2020-08-23T07:33:36Z</time>
      </trkpt>
      <trkpt lat="45.974577" lon="8.421430">
        <ele>216.439</ele>
        <time>2020-08-23T07:33:55Z</time>
      </trkpt>
      <trkpt lat="45.974584" lon="8.421446">
        <ele>216.419</ele>
        <time>2020-08-23T07:33:56Z</time>
      </trkpt>
      <trkpt lat="45.974589" lon="8.421459">
        <ele>216.486</ele>
        <time>2020-08-23T07:33:57Z</time>
      </trkpt>
      <trkpt lat="45.974598" lon="8.421481">
        <ele>216.488</ele>
        <time>2020-08-23T07:33:58Z</time>
      </trkpt>
      <trkpt lat="45.974611" lon="8.421505">
        <ele>216.476</ele>
        <time>2020-08-23T07:33:59Z</time>
      </trkpt>
      <trkpt lat="45.974622" lon="8.421530">
        <ele>216.433</ele>
        <time>2020-08-23T07:34:00Z</time>
      </trkpt>
      <trkpt lat="45.974639" lon="8.421563">
        <ele>216.411</ele>
        <time>2020-08-23T07:34:01Z</time>
      </trkpt>
      <trkpt lat="45.974659" lon="8.421599">
        <ele>216.421</ele>
        <time>2020-08-23T07:34:02Z</time>
      </trkpt>
      <trkpt lat="45.975000" lon="8.422255">
        <ele>216.403</ele>
        <time>2020-08-23T07:34:16Z</time>
      </trkpt>
      <trkpt lat="45.975186" lon="8.422544">
        <ele>213.508</ele>
        <time>2020-08-23T07:34:24Z</time>
      </trkpt>
      <trkpt lat="45.975201" lon="8.422606">
        <ele>212.546</ele>
        <time>2020-08-23T07:34:35Z</time>
      </trkpt>
      <trkpt lat="45.975191" lon="8.422593">
        <ele>212.576</ele>
        <time>2020-08-23T07:34:36Z</time>
      </trkpt>
      <trkpt lat="45.974973" lon="8.422431">
        <ele>212.175</ele>
        <time>2020-08-23T07:34:46Z</time>
      </trkpt>
      <trkpt lat="45.974939" lon="8.422431">
        <ele>212.175</ele>
        <time>2020-08-23T07:35:01Z</time>
      </trkpt>
      <trkpt lat="45.974934" lon="8.422435">
        <ele>211.692</ele>
        <time>2020-08-23T07:35:28Z</time>
      </trkpt>
      <trkpt lat="45.974942" lon="8.422452">
        <ele>211.614</ele>
        <time>2020-08-23T07:35:57Z</time>
      </trkpt>
      <trkpt lat="45.974949" lon="8.422465">
        <ele>213.072</ele>
        <time>2020-08-23T07:36:29Z</time>
      </trkpt>
      <trkpt lat="45.974918" lon="8.422489">
        <ele>211.619</ele>
        <time>2020-08-23T07:36:47Z</time>
      </trkpt>
      <trkpt lat="45.974904" lon="8.422502">
        <ele>211.615</ele>
        <time>2020-08-23T07:36:48Z</time>
      </trkpt>
      <trkpt lat="45.974779" lon="8.422670">
        <ele>211.665</ele>
        <time>2020-08-23T07:36:54Z</time>
      </trkpt>
      <trkpt lat="45.974504" lon="8.422962">
        <ele>213.011</ele>
        <time>2020-08-23T07:37:04Z</time>
      </trkpt>
      <trkpt lat="45.974059" lon="8.423539">
        <ele>213.008</ele>
        <time>2020-08-23T07:37:18Z</time>
      </trkpt>
      <trkpt lat="45.973440" lon="8.424216">
        <ele>213.036</ele>
        <time>2020-08-23T07:37:34Z</time>
      </trkpt>
      <trkpt lat="45.972816" lon="8.424763">
        <ele>212.136</ele>
        <time>2020-08-23T07:37:49Z</time>
      </trkpt>
      <trkpt lat="45.972611" lon="8.424925">
        <ele>212.195</ele>
        <time>2020-08-23T07:37:54Z</time>
      </trkpt>
      <trkpt lat="45.972579" lon="8.424973">
        <ele>212.135</ele>
        <time>2020-08-23T07:37:55Z</time>
      </trkpt>
      <trkpt lat="45.972560" lon="8.425025">
        <ele>212.122</ele>
        <time>2020-08-23T07:37:56Z</time>
      </trkpt>
      <trkpt lat="45.972549" lon="8.425087">
        <ele>212.164</ele>
        <time>2020-08-23T07:37:57Z</time>
      </trkpt>
      <trkpt lat="45.972546" lon="8.425151">
        <ele>212.182</ele>
        <time>2020-08-23T07:37:58Z</time>
      </trkpt>
      <trkpt lat="45.972551" lon="8.425234">
        <ele>212.179</ele>
        <time>2020-08-23T07:37:59Z</time>
      </trkpt>
      <trkpt lat="45.972554" lon="8.425279">
        <ele>212.189</ele>
        <time>2020-08-23T07:38:00Z</time>
      </trkpt>
      <trkpt lat="45.972559" lon="8.425341">
        <ele>212.106</ele>
        <time>2020-08-23T07:38:01Z</time>
      </trkpt>
      <trkpt lat="45.972567" lon="8.425394">
        <ele>212.126</ele>
        <time>2020-08-23T07:38:02Z</time>
      </trkpt>
      <trkpt lat="45.972574" lon="8.425440">
        <ele>212.108</ele>
        <time>2020-08-23T07:38:03Z</time>
      </trkpt>
      <trkpt lat="45.972583" lon="8.425491">
        <ele>212.183</ele>
        <time>2020-08-23T07:38:04Z</time>
      </trkpt>
      <trkpt lat="45.972598" lon="8.425554">
        <ele>212.123</ele>
        <time>2020-08-23T07:38:05Z</time>
      </trkpt>
      <trkpt lat="45.972613" lon="8.425616">
        <ele>212.172</ele>
        <time>2020-08-23T07:38:06Z</time>
      </trkpt>
      <trkpt lat="45.972656" lon="8.425949">
        <ele>212.162</ele>
        <time>2020-08-23T07:38:11Z</time>
      </trkpt>
      <trkpt lat="45.972651" lon="8.426012">
        <ele>212.139</ele>
        <time>2020-08-23T07:38:12Z</time>
      </trkpt>
      <trkpt lat="45.972640" lon="8.426072">
        <ele>212.131</ele>
        <time>2020-08-23T07:38:13Z</time>
      </trkpt>
      <trkpt lat="45.972627" lon="8.426130">
        <ele>212.169</ele>
        <time>2020-08-23T07:38:14Z</time>
      </trkpt>
      <trkpt lat="45.972611" lon="8.426188">
        <ele>212.116</ele>
        <time>2020-08-23T07:38:15Z</time>
      </trkpt>
      <trkpt lat="45.972462" lon="8.426722">
        <ele>213.078</ele>
        <time>2020-08-23T07:38:24Z</time>
      </trkpt>
      <trkpt lat="45.972417" lon="8.426788">
        <ele>213.033</ele>
        <time>2020-08-23T07:38:25Z</time>
      </trkpt>
      <trkpt lat="45.972396" lon="8.426815">
        <ele>213.026</ele>
        <time>2020-08-23T07:38:26Z</time>
      </trkpt>
      <trkpt lat="45.971889" lon="8.427293">
        <ele>213.008</ele>
        <time>2020-08-23T07:38:38Z</time>
      </trkpt>
      <trkpt lat="45.971240" lon="8.427870">
        <ele>212.182</ele>
        <time>2020-08-23T07:38:53Z</time>
      </trkpt>
      <trkpt lat="45.970498" lon="8.428594">
        <ele>212.192</ele>
        <time>2020-08-23T07:39:11Z</time>
      </trkpt>
      <trkpt lat="45.970354" lon="8.428788">
        <ele>212.161</ele>
        <time>2020-08-23T07:39:15Z</time>
      </trkpt>
      <trkpt lat="45.970312" lon="8.428828">
        <ele>211.611</ele>
        <time>2020-08-23T07:39:16Z</time>
      </trkpt>
      <trkpt lat="45.970268" lon="8.428860">
        <ele>211.688</ele>
        <time>2020-08-23T07:39:17Z</time>
      </trkpt>
      <trkpt lat="45.970181" lon="8.428915">
        <ele>211.660</ele>
        <time>2020-08-23T07:39:19Z</time>
      </trkpt>
      <trkpt lat="45.969790" lon="8.429263">
        <ele>213.028</ele>
        <time>2020-08-23T07:39:30Z</time>
      </trkpt>
      <trkpt lat="45.969596" lon="8.429432">
        <ele>213.025</ele>
        <time>2020-08-23T07:39:35Z</time>
      </trkpt>
      <trkpt lat="45.969211" lon="8.429763">
        <ele>213.087</ele>
        <time>2020-08-23T07:39:45Z</time>
      </trkpt>
      <trkpt lat="45.968469" lon="8.430360">
        <ele>213.042</ele>
        <time>2020-08-23T07:40:03Z</time>
      </trkpt>
      <trkpt lat="45.967579" lon="8.431060">
        <ele>213.026</ele>
        <time>2020-08-23T07:40:24Z</time>
      </trkpt>
      <trkpt lat="45.967008" lon="8.431524">
        <ele>213.008</ele>
        <time>2020-08-23T07:40:37Z</time>
      </trkpt>
      <trkpt lat="45.966932" lon="8.431597">
        <ele>213.093</ele>
        <time>2020-08-23T07:40:39Z</time>
      </trkpt>
      <trkpt lat="45.966173" lon="8.432195">
        <ele>211.693</ele>
        <time>2020-08-23T07:40:57Z</time>
      </trkpt>
      <trkpt lat="45.965501" lon="8.432852">
        <ele>211.112</ele>
        <time>2020-08-23T07:41:13Z</time>
      </trkpt>
      <trkpt lat="45.964798" lon="8.433665">
        <ele>211.182</ele>
        <time>2020-08-23T07:41:31Z</time>
      </trkpt>
      <trkpt lat="45.964216" lon="8.434528">
        <ele>211.159</ele>
        <time>2020-08-23T07:41:47Z</time>
      </trkpt>
      <trkpt lat="45.963678" lon="8.435349">
        <ele>211.171</ele>
        <time>2020-08-23T07:42:02Z</time>
      </trkpt>
      <trkpt lat="45.963632" lon="8.435370">
        <ele>211.199</ele>
        <time>2020-08-23T07:42:03Z</time>
      </trkpt>
      <trkpt lat="45.963590" lon="8.435359">
        <ele>211.176</ele>
        <time>2020-08-23T07:42:04Z</time>
      </trkpt>
      <trkpt lat="45.963550" lon="8.435332">
        <ele>211.187</ele>
        <time>2020-08-23T07:42:05Z</time>
      </trkpt>
      <trkpt lat="45.963509" lon="8.435302">
        <ele>211.142</ele>
        <time>2020-08-23T07:42:06Z</time>
      </trkpt>
      <trkpt lat="45.962906" lon="8.434869">
        <ele>211.126</ele>
        <time>2020-08-23T07:42:20Z</time>
      </trkpt>
      <trkpt lat="45.962869" lon="8.434856">
        <ele>211.108</ele>
        <time>2020-08-23T07:42:21Z</time>
      </trkpt>
      <trkpt lat="45.962827" lon="8.434860">
        <ele>211.173</ele>
        <time>2020-08-23T07:42:22Z</time>
      </trkpt>
      <trkpt lat="45.962796" lon="8.434879">
        <ele>211.173</ele>
        <time>2020-08-23T07:42:23Z</time>
      </trkpt>
      <trkpt lat="45.962761" lon="8.434908">
        <ele>211.132</ele>
        <time>2020-08-23T07:42:24Z</time>
      </trkpt>
      <trkpt lat="45.962726" lon="8.434939">
        <ele>211.182</ele>
        <time>2020-08-23T07:42:25Z</time>
      </trkpt>
      <trkpt lat="45.962649" lon="8.435013">
        <ele>211.159</ele>
        <time>2020-08-23T07:42:27Z</time>
      </trkpt>
      <trkpt lat="45.962060" lon="8.435441">
        <ele>210.681</ele>
        <time>2020-08-23T07:42:38Z</time>
      </trkpt>
      <trkpt lat="45.961968" lon="8.435483">
        <ele>210.699</ele>
        <time>2020-08-23T07:42:40Z</time>
      </trkpt>
      <trkpt lat="45.961928" lon="8.435494">
        <ele>210.686</ele>
        <time>2020-08-23T07:42:41Z</time>
      </trkpt>
      <trkpt lat="45.961639" lon="8.435532">
        <ele>212.183</ele>
        <time>2020-08-23T07:42:48Z</time>
      </trkpt>
      <trkpt lat="45.960948" lon="8.435598">
        <ele>212.525</ele>
        <time>2020-08-23T07:43:03Z</time>
      </trkpt>
      <trkpt lat="45.960844" lon="8.435594">
        <ele>212.517</ele>
        <time>2020-08-23T07:43:05Z</time>
      </trkpt>
      <trkpt lat="45.960523" lon="8.435570">
        <ele>212.508</ele>
        <time>2020-08-23T07:43:11Z</time>
      </trkpt>
      <trkpt lat="45.960140" lon="8.435643">
        <ele>212.543</ele>
        <time>2020-08-23T07:43:18Z</time>
      </trkpt>
      <trkpt lat="45.960087" lon="8.435675">
        <ele>212.543</ele>
        <time>2020-08-23T07:43:19Z</time>
      </trkpt>
      <trkpt lat="45.960046" lon="8.435718">
        <ele>212.592</ele>
        <time>2020-08-23T07:43:20Z</time>
      </trkpt>
      <trkpt lat="45.960008" lon="8.435779">
        <ele>212.522</ele>
        <time>2020-08-23T07:43:21Z</time>
      </trkpt>
      <trkpt lat="45.959988" lon="8.435837">
        <ele>212.599</ele>
        <time>2020-08-23T07:43:22Z</time>
      </trkpt>
      <trkpt lat="45.959976" lon="8.435905">
        <ele>212.591</ele>
        <time>2020-08-23T07:43:23Z</time>
      </trkpt>
      <trkpt lat="45.959969" lon="8.435969">
        <ele>212.579</ele>
        <time>2020-08-23T07:43:24Z</time>
      </trkpt>
      <trkpt lat="45.959890" lon="8.436349">
        <ele>212.566</ele>
        <time>2020-08-23T07:43:30Z</time>
      </trkpt>
      <trkpt lat="45.959869" lon="8.436408">
        <ele>212.533</ele>
        <time>2020-08-23T07:43:31Z</time>
      </trkpt>
      <trkpt lat="45.959612" lon="8.437065">
        <ele>212.523</ele>
        <time>2020-08-23T07:43:41Z</time>
      </trkpt>
      <trkpt lat="45.959595" lon="8.437134">
        <ele>212.515</ele>
        <time>2020-08-23T07:43:42Z</time>
      </trkpt>
      <trkpt lat="45.959572" lon="8.437274">
        <ele>212.508</ele>
        <time>2020-08-23T07:43:44Z</time>
      </trkpt>
      <trkpt lat="45.959570" lon="8.437347">
        <ele>212.578</ele>
        <time>2020-08-23T07:43:45Z</time>
      </trkpt>
      <trkpt lat="45.959574" lon="8.437419">
        <ele>212.598</ele>
        <time>2020-08-23T07:43:46Z</time>
      </trkpt>
      <trkpt lat="45.959626" lon="8.437839">
        <ele>212.537</ele>
        <time>2020-08-23T07:43:52Z</time>
      </trkpt>
      <trkpt lat="45.959643" lon="8.437904">
        <ele>212.597</ele>
        <time>2020-08-23T07:43:53Z</time>
      </trkpt>
      <trkpt lat="45.959661" lon="8.437968">
        <ele>212.564</ele>
        <time>2020-08-23T07:43:54Z</time>
      </trkpt>
      <trkpt lat="45.959681" lon="8.438038">
        <ele>212.586</ele>
        <time>2020-08-23T07:43:55Z</time>
      </trkpt>
      <trkpt lat="45.959700" lon="8.438098">
        <ele>212.524</ele>
        <time>2020-08-23T07:43:56Z</time>
      </trkpt>
      <trkpt lat="45.959766" lon="8.438286">
        <ele>212.541</ele>
        <time>2020-08-23T07:43:59Z</time>
      </trkpt>
      <trkpt lat="45.959794" lon="8.438342">
        <ele>212.566</ele>
        <time>2020-08-23T07:44:00Z</time>
      </trkpt>
      <trkpt lat="45.959827" lon="8.438390">
        <ele>212.529</ele>
        <time>2020-08-23T07:44:01Z</time>
      </trkpt>
      <trkpt lat="45.960008" lon="8.438584">
        <ele>212.521</ele>
        <time>2020-08-23T07:44:06Z</time>
      </trkpt>
      <trkpt lat="45.960049" lon="8.438620">
        <ele>212.508</ele>
        <time>2020-08-23T07:44:07Z</time>
      </trkpt>
      <trkpt lat="45.960089" lon="8.438660">
        <ele>212.531</ele>
        <time>2020-08-23T07:44:08Z</time>
      </trkpt>
      <trkpt lat="45.960125" lon="8.438708">
        <ele>212.581</ele>
        <time>2020-08-23T07:44:09Z</time>
      </trkpt>
      <trkpt lat="45.960158" lon="8.438758">
        <ele>212.510</ele>
        <time>2020-08-23T07:44:10Z</time>
      </trkpt>
      <trkpt lat="45.960187" lon="8.438813">
        <ele>212.560</ele>
        <time>2020-08-23T07:44:11Z</time>
      </trkpt>
      <trkpt lat="45.960211" lon="8.438873">
        <ele>212.557</ele>
        <time>2020-08-23T07:44:12Z</time>
      </trkpt>
      <trkpt lat="45.960226" lon="8.438938">
        <ele>212.549</ele>
        <time>2020-08-23T07:44:13Z</time>
      </trkpt>
      <trkpt lat="45.960257" lon="8.439075">
        <ele>212.547</ele>
        <time>2020-08-23T07:44:15Z</time>
      </trkpt>
      <trkpt lat="45.960276" lon="8.439136">
        <ele>212.524</ele>
        <time>2020-08-23T07:44:16Z</time>
      </trkpt>
      <trkpt lat="45.960302" lon="8.439201">
        <ele>212.525</ele>
        <time>2020-08-23T07:44:17Z</time>
      </trkpt>
      <trkpt lat="45.960335" lon="8.439259">
        <ele>212.526</ele>
        <time>2020-08-23T07:44:18Z</time>
      </trkpt>
      <trkpt lat="45.960373" lon="8.439303">
        <ele>212.508</ele>
        <time>2020-08-23T07:44:19Z</time>
      </trkpt>
      <trkpt lat="45.960412" lon="8.439346">
        <ele>212.508</ele>
        <time>2020-08-23T07:44:20Z</time>
      </trkpt>
      <trkpt lat="45.960450" lon="8.439389">
        <ele>212.547</ele>
        <time>2020-08-23T07:44:21Z</time>
      </trkpt>
      <trkpt lat="45.960515" lon="8.439481">
        <ele>212.597</ele>
        <time>2020-08-23T07:44:23Z</time>
      </trkpt>
      <trkpt lat="45.960540" lon="8.439535">
        <ele>212.516</ele>
        <time>2020-08-23T07:44:24Z</time>
      </trkpt>
      <trkpt lat="45.960556" lon="8.439597">
        <ele>212.596</ele>
        <time>2020-08-23T07:44:25Z</time>
      </trkpt>
      <trkpt lat="45.960563" lon="8.439665">
        <ele>212.513</ele>
        <time>2020-08-23T07:44:26Z</time>
      </trkpt>
      <trkpt lat="45.960558" lon="8.439737">
        <ele>212.545</ele>
        <time>2020-08-23T07:44:27Z</time>
      </trkpt>
      <trkpt lat="45.960542" lon="8.439805">
        <ele>212.563</ele>
        <time>2020-08-23T07:44:28Z</time>
      </trkpt>
      <trkpt lat="45.960516" lon="8.439870">
        <ele>212.590</ele>
        <time>2020-08-23T07:44:29Z</time>
      </trkpt>
      <trkpt lat="45.960488" lon="8.439926">
        <ele>212.589</ele>
        <time>2020-08-23T07:44:30Z</time>
      </trkpt>
      <trkpt lat="45.960447" lon="8.440038">
        <ele>212.506</ele>
        <time>2020-08-23T07:44:32Z</time>
      </trkpt>
      <trkpt lat="45.960438" lon="8.440112">
        <ele>212.526</ele>
        <time>2020-08-23T07:44:33Z</time>
      </trkpt>
      <trkpt lat="45.960439" lon="8.440176">
        <ele>212.508</ele>
        <time>2020-08-23T07:44:34Z</time>
      </trkpt>
      <trkpt lat="45.960445" lon="8.440253">
        <ele>212.593</ele>
        <time>2020-08-23T07:44:35Z</time>
      </trkpt>
      <trkpt lat="45.960455" lon="8.440316">
        <ele>212.553</ele>
        <time>2020-08-23T07:44:36Z</time>
      </trkpt>
      <trkpt lat="45.960470" lon="8.440389">
        <ele>212.532</ele>
        <time>2020-08-23T07:44:37Z</time>
      </trkpt>
      <trkpt lat="45.960490" lon="8.440457">
        <ele>212.542</ele>
        <time>2020-08-23T07:44:38Z</time>
      </trkpt>
      <trkpt lat="45.960511" lon="8.440524">
        <ele>212.589</ele>
        <time>2020-08-23T07:44:39Z</time>
      </trkpt>
      <trkpt lat="45.960670" lon="8.441274">
        <ele>212.531</ele>
        <time>2020-08-23T07:44:50Z</time>
      </trkpt>
      <trkpt lat="45.960688" lon="8.441342">
        <ele>212.569</ele>
        <time>2020-08-23T07:44:51Z</time>
      </trkpt>
      <trkpt lat="45.960700" lon="8.441407">
        <ele>212.586</ele>
        <time>2020-08-23T07:44:52Z</time>
      </trkpt>
      <trkpt lat="45.960762" lon="8.441729">
        <ele>212.513</ele>
        <time>2020-08-23T07:44:57Z</time>
      </trkpt>
      <trkpt lat="45.960761" lon="8.441791">
        <ele>212.543</ele>
        <time>2020-08-23T07:44:58Z</time>
      </trkpt>
      <trkpt lat="45.960752" lon="8.441851">
        <ele>212.507</ele>
        <time>2020-08-23T07:44:59Z</time>
      </trkpt>
      <trkpt lat="45.960740" lon="8.441912">
        <ele>212.508</ele>
        <time>2020-08-23T07:45:00Z</time>
      </trkpt>
      <trkpt lat="45.960720" lon="8.441972">
        <ele>212.586</ele>
        <time>2020-08-23T07:45:01Z</time>
      </trkpt>
      <trkpt lat="45.960695" lon="8.442029">
        <ele>212.576</ele>
        <time>2020-08-23T07:45:02Z</time>
      </trkpt>
      <trkpt lat="45.960669" lon="8.442087">
        <ele>212.585</ele>
        <time>2020-08-23T07:45:03Z</time>
      </trkpt>
      <trkpt lat="45.960616" lon="8.442204">
        <ele>212.555</ele>
        <time>2020-08-23T07:45:05Z</time>
      </trkpt>
      <trkpt lat="45.960231" lon="8.443027">
        <ele>211.662</ele>
        <time>2020-08-23T07:45:20Z</time>
      </trkpt>
      <trkpt lat="45.960172" lon="8.443123">
        <ele>211.124</ele>
        <time>2020-08-23T07:45:26Z</time>
      </trkpt>
      <trkpt lat="45.960166" lon="8.443139">
        <ele>211.112</ele>
        <time>2020-08-23T07:45:27Z</time>
      </trkpt>
      <trkpt lat="45.960161" lon="8.443157">
        <ele>211.189</ele>
        <time>2020-08-23T07:45:28Z</time>
      </trkpt>
      <trkpt lat="45.960159" lon="8.443177">
        <ele>211.131</ele>
        <time>2020-08-23T07:45:29Z</time>
      </trkpt>
      <trkpt lat="45.960164" lon="8.443203">
        <ele>211.161</ele>
        <time>2020-08-23T07:45:30Z</time>
      </trkpt>
      <trkpt lat="45.960171" lon="8.443233">
        <ele>211.107</ele>
        <time>2020-08-23T07:45:31Z</time>
      </trkpt>
      <trkpt lat="45.960182" lon="8.443267">
        <ele>211.108</ele>
        <time>2020-08-23T07:45:32Z</time>
      </trkpt>
      <trkpt lat="45.960203" lon="8.443304">
        <ele>211.148</ele>
        <time>2020-08-23T07:45:33Z</time>
      </trkpt>
      <trkpt lat="45.960231" lon="8.443330">
        <ele>211.188</ele>
        <time>2020-08-23T07:45:34Z</time>
      </trkpt>
      <trkpt lat="45.960258" lon="8.443356">
        <ele>211.197</ele>
        <time>2020-08-23T07:45:35Z</time>
      </trkpt>
      <trkpt lat="45.960281" lon="8.443386">
        <ele>211.177</ele>
        <time>2020-08-23T07:45:36Z</time>
      </trkpt>
      <trkpt lat="45.960344" lon="8.443446">
        <ele>211.154</ele>
        <time>2020-08-23T07:45:38Z</time>
      </trkpt>
      <trkpt lat="45.961028" lon="8.444039">
        <ele>211.146</ele>
        <time>2020-08-23T07:45:54Z</time>
      </trkpt>
      <trkpt lat="45.961304" lon="8.444298">
        <ele>212.144</ele>
        <time>2020-08-23T07:46:02Z</time>
      </trkpt>
      <trkpt lat="45.961570" lon="8.444576">
        <ele>212.131</ele>
        <time>2020-08-23T07:46:09Z</time>
      </trkpt>
      <trkpt lat="45.961606" lon="8.444634">
        <ele>212.112</ele>
        <time>2020-08-23T07:46:10Z</time>
      </trkpt>
      <trkpt lat="45.961635" lon="8.444701">
        <ele>212.132</ele>
        <time>2020-08-23T07:46:11Z</time>
      </trkpt>
      <trkpt lat="45.961654" lon="8.444770">
        <ele>212.105</ele>
        <time>2020-08-23T07:46:12Z</time>
      </trkpt>
      <trkpt lat="45.961659" lon="8.444837">
        <ele>212.108</ele>
        <time>2020-08-23T07:46:13Z</time>
      </trkpt>
      <trkpt lat="45.961657" lon="8.444893">
        <ele>212.176</ele>
        <time>2020-08-23T07:46:14Z</time>
      </trkpt>
      <trkpt lat="45.961648" lon="8.444943">
        <ele>212.116</ele>
        <time>2020-08-23T07:46:15Z</time>
      </trkpt>
      <trkpt lat="45.961636" lon="8.444996">
        <ele>212.165</ele>
        <time>2020-08-23T07:46:16Z</time>
      </trkpt>
      <trkpt lat="45.961619" lon="8.445046">
        <ele>212.165</ele>
        <time>2020-08-23T07:46:17Z</time>
      </trkpt>
      <trkpt lat="45.961599" lon="8.445111">
        <ele>212.132</ele>
        <time>2020-08-23T07:46:18Z</time>
      </trkpt>
      <trkpt lat="45.961482" lon="8.445527">
        <ele>212.134</ele>
        <time>2020-08-23T07:46:25Z</time>
      </trkpt>
      <trkpt lat="45.961390" lon="8.445837">
        <ele>212.152</ele>
        <time>2020-08-23T07:46:30Z</time>
      </trkpt>
      <trkpt lat="45.961373" lon="8.445902">
        <ele>212.149</ele>
        <time>2020-08-23T07:46:31Z</time>
      </trkpt>
      <trkpt lat="45.961263" lon="8.446294">
        <ele>213.056</ele>
        <time>2020-08-23T07:46:37Z</time>
      </trkpt>
      <trkpt lat="45.961236" lon="8.446438">
        <ele>213.059</ele>
        <time>2020-08-23T07:46:39Z</time>
      </trkpt>
      <trkpt lat="45.961226" lon="8.446518">
        <ele>213.014</ele>
        <time>2020-08-23T07:46:40Z</time>
      </trkpt>
      <trkpt lat="45.961207" lon="8.446790">
        <ele>213.008</ele>
        <time>2020-08-23T07:46:44Z</time>
      </trkpt>
      <trkpt lat="45.961198" lon="8.446857">
        <ele>213.040</ele>
        <time>2020-08-23T07:46:45Z</time>
      </trkpt>
      <trkpt lat="45.961164" lon="8.447057">
        <ele>213.030</ele>
        <time>2020-08-23T07:46:48Z</time>
      </trkpt>
      <trkpt lat="45.961145" lon="8.447114">
        <ele>213.079</ele>
        <time>2020-08-23T07:46:49Z</time>
      </trkpt>
      <trkpt lat="45.961106" lon="8.447224">
        <ele>213.039</ele>
        <time>2020-08-23T07:46:57Z</time>
      </trkpt>
      <trkpt lat="45.961108" lon="8.447211">
        <ele>213.066</ele>
        <time>2020-08-23T07:47:18Z</time>
      </trkpt>
      <trkpt lat="45.961109" lon="8.447213">
        <ele>213.088</ele>
        <time>2020-08-23T07:47:40Z</time>
      </trkpt>
      <trkpt lat="45.961117" lon="8.447226">
        <ele>213.026</ele>
        <time>2020-08-23T07:48:10Z</time>
      </trkpt>
      <trkpt lat="45.961119" lon="8.447221">
        <ele>213.033</ele>
        <time>2020-08-23T07:48:38Z</time>
      </trkpt>
      <trkpt lat="45.961045" lon="8.447420">
        <ele>213.574</ele>
        <time>2020-08-23T07:48:49Z</time>
      </trkpt>
      <trkpt lat="45.961030" lon="8.447482">
        <ele>213.556</ele>
        <time>2020-08-23T07:48:50Z</time>
      </trkpt>
      <trkpt lat="45.961011" lon="8.447560">
        <ele>213.521</ele>
        <time>2020-08-23T07:48:51Z</time>
      </trkpt>
      <trkpt lat="45.960991" lon="8.447627">
        <ele>213.508</ele>
        <time>2020-08-23T07:48:52Z</time>
      </trkpt>
      <trkpt lat="45.960964" lon="8.447703">
        <ele>214.052</ele>
        <time>2020-08-23T07:48:53Z</time>
      </trkpt>
      <trkpt lat="45.960752" lon="8.448272">
        <ele>214.022</ele>
        <time>2020-08-23T07:49:01Z</time>
      </trkpt>
      <trkpt lat="45.960723" lon="8.448343">
        <ele>212.561</ele>
        <time>2020-08-23T07:49:02Z</time>
      </trkpt>
      <trkpt lat="45.960691" lon="8.448401">
        <ele>212.151</ele>
        <time>2020-08-23T07:49:03Z</time>
      </trkpt>
      <trkpt lat="45.960652" lon="8.448481">
        <ele>212.188</ele>
        <time>2020-08-23T07:49:04Z</time>
      </trkpt>
      <trkpt lat="45.960612" lon="8.448559">
        <ele>211.110</ele>
        <time>2020-08-23T07:49:05Z</time>
      </trkpt>
      <trkpt lat="45.960575" lon="8.448627">
        <ele>210.118</ele>
        <time>2020-08-23T07:49:06Z</time>
      </trkpt>
      <trkpt lat="45.960550" lon="8.448672">
        <ele>210.125</ele>
        <time>2020-08-23T07:49:07Z</time>
      </trkpt>
      <trkpt lat="45.960460" lon="8.448846">
        <ele>208.775</ele>
        <time>2020-08-23T07:49:10Z</time>
      </trkpt>
      <trkpt lat="45.960440" lon="8.448900">
        <ele>208.728</ele>
        <time>2020-08-23T07:49:11Z</time>
      </trkpt>
      <trkpt lat="45.960363" lon="8.449108">
        <ele>207.320</ele>
        <time>2020-08-23T07:49:18Z</time>
      </trkpt>
      <trkpt lat="45.960365" lon="8.449131">
        <ele>206.808</ele>
        <time>2020-08-23T07:49:19Z</time>
      </trkpt>
      <trkpt lat="45.960370" lon="8.449146">
        <ele>206.892</ele>
        <time>2020-08-23T07:49:20Z</time>
      </trkpt>
      <trkpt lat="45.960377" lon="8.449167">
        <ele>206.852</ele>
        <time>2020-08-23T07:49:21Z</time>
      </trkpt>
      <trkpt lat="45.960386" lon="8.449183">
        <ele>206.891</ele>
        <time>2020-08-23T07:49:22Z</time>
      </trkpt>
      <trkpt lat="45.960397" lon="8.449198">
        <ele>206.811</ele>
        <time>2020-08-23T07:49:23Z</time>
      </trkpt>
      <trkpt lat="45.960405" lon="8.449213">
        <ele>206.878</ele>
        <time>2020-08-23T07:49:24Z</time>
      </trkpt>
      <trkpt lat="45.960398" lon="8.449264">
        <ele>207.310</ele>
        <time>2020-08-23T07:49:34Z</time>
      </trkpt>
      <trkpt lat="45.960387" lon="8.449268">
        <ele>206.838</ele>
        <time>2020-08-23T07:50:05Z</time>
      </trkpt>
      <trkpt lat="45.960433" lon="8.449273">
        <ele>206.815</ele>
        <time>2020-08-23T07:50:22Z</time>
      </trkpt>
      <trkpt lat="45.960551" lon="8.449438">
        <ele>206.874</ele>
        <time>2020-08-23T07:50:31Z</time>
      </trkpt>
      <trkpt lat="45.960570" lon="8.449471">
        <ele>206.856</ele>
        <time>2020-08-23T07:50:43Z</time>
      </trkpt>
      <trkpt lat="45.960692" lon="8.449660">
        <ele>206.821</ele>
        <time>2020-08-23T07:50:52Z</time>
      </trkpt>
      <trkpt lat="45.960710" lon="8.449696">
        <ele>206.808</ele>
        <time>2020-08-23T07:50:53Z</time>
      </trkpt>
      <trkpt lat="45.961045" lon="8.450374">
        <ele>206.822</ele>
        <time>2020-08-23T07:51:08Z</time>
      </trkpt>
      <trkpt lat="45.961209" lon="8.450931">
        <ele>208.212</ele>
        <time>2020-08-23T07:51:18Z</time>
      </trkpt>
      <trkpt lat="45.961337" lon="8.451830">
        <ele>208.281</ele>
        <time>2020-08-23T07:51:32Z</time>
      </trkpt>
      <trkpt lat="45.961326" lon="8.451960">
        <ele>208.281</ele>
        <time>2020-08-23T07:51:34Z</time>
      </trkpt>
      <trkpt lat="45.961206" lon="8.452841">
        <ele>208.258</ele>
        <time>2020-08-23T07:51:47Z</time>
      </trkpt>
      <trkpt lat="45.961167" lon="8.453121">
        <ele>208.290</ele>
        <time>2020-08-23T07:51:51Z</time>
      </trkpt>
      <trkpt lat="45.961260" lon="8.454138">
        <ele>208.728</ele>
        <time>2020-08-23T07:52:05Z</time>
      </trkpt>
      <trkpt lat="45.961420" lon="8.455375">
        <ele>208.795</ele>
        <time>2020-08-23T07:52:22Z</time>
      </trkpt>
      <trkpt lat="45.961386" lon="8.456751">
        <ele>208.759</ele>
        <time>2020-08-23T07:52:40Z</time>
      </trkpt>
      <trkpt lat="45.961453" lon="8.458036">
        <ele>208.703</ele>
        <time>2020-08-23T07:52:57Z</time>
      </trkpt>
      <trkpt lat="45.961477" lon="8.458105">
        <ele>208.723</ele>
        <time>2020-08-23T07:52:58Z</time>
      </trkpt>
      <trkpt lat="45.961949" lon="8.459332">
        <ele>208.708</ele>
        <time>2020-08-23T07:53:16Z</time>
      </trkpt>
      <trkpt lat="45.961959" lon="8.459417">
        <ele>208.710</ele>
        <time>2020-08-23T07:53:17Z</time>
      </trkpt>
      <trkpt lat="45.961961" lon="8.459489">
        <ele>208.710</ele>
        <time>2020-08-23T07:53:18Z</time>
      </trkpt>
      <trkpt lat="45.961956" lon="8.459569">
        <ele>208.749</ele>
        <time>2020-08-23T07:53:19Z</time>
      </trkpt>
      <trkpt lat="45.961804" lon="8.460312">
        <ele>208.779</ele>
        <time>2020-08-23T07:53:29Z</time>
      </trkpt>
      <trkpt lat="45.961797" lon="8.460386">
        <ele>208.776</ele>
        <time>2020-08-23T07:53:30Z</time>
      </trkpt>
      <trkpt lat="45.961793" lon="8.460461">
        <ele>208.728</ele>
        <time>2020-08-23T07:53:31Z</time>
      </trkpt>
      <trkpt lat="45.961794" lon="8.460537">
        <ele>208.716</ele>
        <time>2020-08-23T07:53:32Z</time>
      </trkpt>
      <trkpt lat="45.961795" lon="8.460613">
        <ele>208.763</ele>
        <time>2020-08-23T07:53:33Z</time>
      </trkpt>
      <trkpt lat="45.961811" lon="8.460768">
        <ele>208.743</ele>
        <time>2020-08-23T07:53:35Z</time>
      </trkpt>
      <trkpt lat="45.961824" lon="8.460835">
        <ele>208.764</ele>
        <time>2020-08-23T07:53:36Z</time>
      </trkpt>
      <trkpt lat="45.961984" lon="8.461587">
        <ele>208.710</ele>
        <time>2020-08-23T07:53:46Z</time>
      </trkpt>
      <trkpt lat="45.961983" lon="8.461668">
        <ele>208.708</ele>
        <time>2020-08-23T07:53:47Z</time>
      </trkpt>
      <trkpt lat="45.961949" lon="8.461977">
        <ele>208.759</ele>
        <time>2020-08-23T07:53:51Z</time>
      </trkpt>
      <trkpt lat="45.961929" lon="8.462047">
        <ele>208.749</ele>
        <time>2020-08-23T07:53:52Z</time>
      </trkpt>
      <trkpt lat="45.961520" lon="8.463348">
        <ele>208.778</ele>
        <time>2020-08-23T07:54:10Z</time>
      </trkpt>
      <trkpt lat="45.961104" lon="8.464661">
        <ele>208.788</ele>
        <time>2020-08-23T07:54:28Z</time>
      </trkpt>
      <trkpt lat="45.960817" lon="8.465982">
        <ele>208.735</ele>
        <time>2020-08-23T07:54:45Z</time>
      </trkpt>
      <trkpt lat="45.960495" lon="8.467039">
        <ele>208.747</ele>
        <time>2020-08-23T07:54:59Z</time>
      </trkpt>
      <trkpt lat="45.959865" lon="8.468401">
        <ele>209.295</ele>
        <time>2020-08-23T07:55:19Z</time>
      </trkpt>
      <trkpt lat="45.959418" lon="8.469356">
        <ele>209.282</ele>
        <time>2020-08-23T07:55:33Z</time>
      </trkpt>
      <trkpt lat="45.959277" lon="8.469616">
        <ele>209.777</ele>
        <time>2020-08-23T07:55:37Z</time>
      </trkpt>
      <trkpt lat="45.958755" lon="8.470454">
        <ele>210.661</ele>
        <time>2020-08-23T07:55:51Z</time>
      </trkpt>
      <trkpt lat="45.958695" lon="8.470592">
        <ele>210.627</ele>
        <time>2020-08-23T07:55:53Z</time>
      </trkpt>
      <trkpt lat="45.958671" lon="8.470667">
        <ele>210.608</ele>
        <time>2020-08-23T07:55:54Z</time>
      </trkpt>
      <trkpt lat="45.958653" lon="8.470743">
        <ele>211.192</ele>
        <time>2020-08-23T07:55:55Z</time>
      </trkpt>
      <trkpt lat="45.958638" lon="8.470822">
        <ele>211.142</ele>
        <time>2020-08-23T07:55:56Z</time>
      </trkpt>
      <trkpt lat="45.958623" lon="8.470904">
        <ele>211.131</ele>
        <time>2020-08-23T07:55:57Z</time>
      </trkpt>
      <trkpt lat="45.958459" lon="8.471649">
        <ele>209.761</ele>
        <time>2020-08-23T07:56:06Z</time>
      </trkpt>
      <trkpt lat="45.958419" lon="8.471732">
        <ele>209.728</ele>
        <time>2020-08-23T07:56:07Z</time>
      </trkpt>
      <trkpt lat="45.957704" lon="8.472716">
        <ele>209.220</ele>
        <time>2020-08-23T07:56:23Z</time>
      </trkpt>
      <trkpt lat="45.956898" lon="8.473494">
        <ele>209.228</ele>
        <time>2020-08-23T07:56:38Z</time>
      </trkpt>
      <trkpt lat="45.956856" lon="8.473547">
        <ele>209.265</ele>
        <time>2020-08-23T07:56:39Z</time>
      </trkpt>
      <trkpt lat="45.956176" lon="8.474541">
        <ele>209.278</ele>
        <time>2020-08-23T07:56:54Z</time>
      </trkpt>
      <trkpt lat="45.956087" lon="8.474687">
        <ele>209.233</ele>
        <time>2020-08-23T07:56:56Z</time>
      </trkpt>
      <trkpt lat="45.956040" lon="8.474750">
        <ele>209.226</ele>
        <time>2020-08-23T07:56:57Z</time>
      </trkpt>
      <trkpt lat="45.955449" lon="8.475250">
        <ele>209.208</ele>
        <time>2020-08-23T07:57:09Z</time>
      </trkpt>
      <trkpt lat="45.955358" lon="8.475332">
        <ele>209.222</ele>
        <time>2020-08-23T07:57:12Z</time>
      </trkpt>
      <trkpt lat="45.955336" lon="8.475326">
        <ele>209.292</ele>
        <time>2020-08-23T07:57:13Z</time>
      </trkpt>
      <trkpt lat="45.955317" lon="8.475324">
        <ele>209.251</ele>
        <time>2020-08-23T07:57:14Z</time>
      </trkpt>
      <trkpt lat="45.955296" lon="8.475334">
        <ele>209.241</ele>
        <time>2020-08-23T07:57:15Z</time>
      </trkpt>
      <trkpt lat="45.955274" lon="8.475355">
        <ele>209.238</ele>
        <time>2020-08-23T07:57:16Z</time>
      </trkpt>
      <trkpt lat="45.955255" lon="8.475382">
        <ele>209.290</ele>
        <time>2020-08-23T07:57:17Z</time>
      </trkpt>
      <trkpt lat="45.955236" lon="8.475410">
        <ele>209.248</ele>
        <time>2020-08-23T07:57:18Z</time>
      </trkpt>
      <trkpt lat="45.955217" lon="8.475446">
        <ele>209.295</ele>
        <time>2020-08-23T07:57:19Z</time>
      </trkpt>
      <trkpt lat="45.955198" lon="8.475489">
        <ele>209.223</ele>
        <time>2020-08-23T07:57:20Z</time>
      </trkpt>
      <trkpt lat="45.955180" lon="8.475539">
        <ele>209.283</ele>
        <time>2020-08-23T07:57:21Z</time>
      </trkpt>
      <trkpt lat="45.954984" lon="8.476290">
        <ele>208.711</ele>
        <time>2020-08-23T07:57:36Z</time>
      </trkpt>
      <trkpt lat="45.954524" lon="8.476906">
        <ele>208.708</ele>
        <time>2020-08-23T07:57:50Z</time>
      </trkpt>
      <trkpt lat="45.954356" lon="8.476976">
        <ele>208.737</ele>
        <time>2020-08-23T07:57:54Z</time>
      </trkpt>
      <trkpt lat="45.953858" lon="8.477320">
        <ele>208.737</ele>
        <time>2020-08-23T07:58:06Z</time>
      </trkpt>
      <trkpt lat="45.953813" lon="8.477371">
        <ele>208.716</ele>
        <time>2020-08-23T07:58:07Z</time>
      </trkpt>
      <trkpt lat="45.953774" lon="8.477425">
        <ele>207.726</ele>
        <time>2020-08-23T07:58:08Z</time>
      </trkpt>
      <trkpt lat="45.953737" lon="8.477488">
        <ele>207.733</ele>
        <time>2020-08-23T07:58:09Z</time>
      </trkpt>
      <trkpt lat="45.953706" lon="8.477553">
        <ele>207.345</ele>
        <time>2020-08-23T07:58:10Z</time>
      </trkpt>
      <trkpt lat="45.953676" lon="8.477624">
        <ele>207.393</ele>
        <time>2020-08-23T07:58:11Z</time>
      </trkpt>
      <trkpt lat="45.953581" lon="8.477898">
        <ele>207.310</ele>
        <time>2020-08-23T07:58:15Z</time>
      </trkpt>
      <trkpt lat="45.953550" lon="8.477967">
        <ele>207.365</ele>
        <time>2020-08-23T07:58:16Z</time>
      </trkpt>
      <trkpt lat="45.953515" lon="8.478035">
        <ele>207.368</ele>
        <time>2020-08-23T07:58:17Z</time>
      </trkpt>
      <trkpt lat="45.953057" lon="8.478705">
        <ele>206.814</ele>
        <time>2020-08-23T07:58:31Z</time>
      </trkpt>
      <trkpt lat="45.952747" lon="8.479154">
        <ele>206.808</ele>
        <time>2020-08-23T07:58:45Z</time>
      </trkpt>
      <trkpt lat="45.952435" lon="8.479581">
        <ele>206.881</ele>
        <time>2020-08-23T07:59:02Z</time>
      </trkpt>
      <trkpt lat="45.952240" lon="8.479526">
        <ele>206.891</ele>
        <time>2020-08-23T07:59:14Z</time>
      </trkpt>
      <trkpt lat="45.952133" lon="8.479392">
        <ele>206.830</ele>
        <time>2020-08-23T07:59:23Z</time>
      </trkpt>
      <trkpt lat="45.952131" lon="8.479366">
        <ele>206.860</ele>
        <time>2020-08-23T07:59:30Z</time>
      </trkpt>
      <trkpt lat="45.952179" lon="8.479455">
        <ele>206.817</ele>
        <time>2020-08-23T07:59:38Z</time>
      </trkpt>
      <trkpt lat="45.952211" lon="8.479490">
        <ele>206.819</ele>
        <time>2020-08-23T07:59:40Z</time>
      </trkpt>
      <trkpt lat="45.952236" lon="8.479510">
        <ele>206.847</ele>
        <time>2020-08-23T07:59:41Z</time>
      </trkpt>
      <trkpt lat="45.952254" lon="8.479528">
        <ele>206.854</ele>
        <time>2020-08-23T07:59:42Z</time>
      </trkpt>
      <trkpt lat="45.952277" lon="8.479554">
        <ele>206.824</ele>
        <time>2020-08-23T07:59:43Z</time>
      </trkpt>
      <trkpt lat="45.952346" lon="8.479751">
        <ele>206.804</ele>
        <time>2020-08-23T07:59:48Z</time>
      </trkpt>
      <trkpt lat="45.952333" lon="8.479771">
        <ele>206.814</ele>
        <time>2020-08-23T07:59:49Z</time>
      </trkpt>
      <trkpt lat="45.952314" lon="8.479805">
        <ele>206.808</ele>
        <time>2020-08-23T07:59:50Z</time>
      </trkpt>
      <trkpt lat="45.951874" lon="8.480467">
        <ele>207.727</ele>
        <time>2020-08-23T08:00:05Z</time>
      </trkpt>
      <trkpt lat="45.951431" lon="8.481586">
        <ele>207.757</ele>
        <time>2020-08-23T08:00:22Z</time>
      </trkpt>
      <trkpt lat="45.950985" lon="8.482857">
        <ele>208.256</ele>
        <time>2020-08-23T08:00:40Z</time>
      </trkpt>
      <trkpt lat="45.950107" lon="8.484061">
        <ele>208.226</ele>
        <time>2020-08-23T08:01:01Z</time>
      </trkpt>
      <trkpt lat="45.949779" lon="8.484511">
        <ele>208.283</ele>
        <time>2020-08-23T08:01:09Z</time>
      </trkpt>
      <trkpt lat="45.949745" lon="8.484574">
        <ele>208.255</ele>
        <time>2020-08-23T08:01:10Z</time>
      </trkpt>
      <trkpt lat="45.949714" lon="8.484640">
        <ele>208.273</ele>
        <time>2020-08-23T08:01:11Z</time>
      </trkpt>
      <trkpt lat="45.949453" lon="8.485593">
        <ele>208.710</ele>
        <time>2020-08-23T08:01:24Z</time>
      </trkpt>
      <trkpt lat="45.948953" lon="8.486513">
        <ele>208.717</ele>
        <time>2020-08-23T08:01:38Z</time>
      </trkpt>
      <trkpt lat="45.948297" lon="8.487524">
        <ele>208.787</ele>
        <time>2020-08-23T08:01:54Z</time>
      </trkpt>
      <trkpt lat="45.947611" lon="8.488270">
        <ele>208.715</ele>
        <time>2020-08-23T08:02:08Z</time>
      </trkpt>
      <trkpt lat="45.946780" lon="8.489176">
        <ele>208.708</ele>
        <time>2020-08-23T08:02:27Z</time>
      </trkpt>
      <trkpt lat="45.946112" lon="8.489901">
        <ele>208.796</ele>
        <time>2020-08-23T08:02:45Z</time>
      </trkpt>
      <trkpt lat="45.945967" lon="8.490038">
        <ele>209.296</ele>
        <time>2020-08-23T08:02:52Z</time>
      </trkpt>
      <trkpt lat="45.945958" lon="8.490015">
        <ele>209.255</ele>
        <time>2020-08-23T08:02:53Z</time>
      </trkpt>
      <trkpt lat="45.945950" lon="8.489988">
        <ele>209.245</ele>
        <time>2020-08-23T08:02:54Z</time>
      </trkpt>
      <trkpt lat="45.945944" lon="8.489952">
        <ele>209.272</ele>
        <time>2020-08-23T08:02:55Z</time>
      </trkpt>
      <trkpt lat="45.945939" lon="8.489910">
        <ele>209.784</ele>
        <time>2020-08-23T08:02:56Z</time>
      </trkpt>
      <trkpt lat="45.945939" lon="8.489873">
        <ele>209.722</ele>
        <time>2020-08-23T08:02:57Z</time>
      </trkpt>
      <trkpt lat="45.945937" lon="8.489826">
        <ele>209.759</ele>
        <time>2020-08-23T08:02:58Z</time>
      </trkpt>
      <trkpt lat="45.945932" lon="8.489776">
        <ele>209.758</ele>
        <time>2020-08-23T08:02:59Z</time>
      </trkpt>
      <trkpt lat="45.945899" lon="8.489218">
        <ele>209.252</ele>
        <time>2020-08-23T08:03:10Z</time>
      </trkpt>
      <trkpt lat="45.945919" lon="8.489179">
        <ele>209.217</ele>
        <time>2020-08-23T08:03:11Z</time>
      </trkpt>
      <trkpt lat="45.945977" lon="8.489076">
        <ele>209.208</ele>
        <time>2020-08-23T08:03:13Z</time>
      </trkpt>
      <trkpt lat="45.946008" lon="8.489019">
        <ele>209.210</ele>
        <time>2020-08-23T08:03:14Z</time>
      </trkpt>
      <trkpt lat="45.946028" lon="8.488967">
        <ele>209.230</ele>
        <time>2020-08-23T08:03:15Z</time>
      </trkpt>
      <trkpt lat="45.946042" lon="8.488898">
        <ele>209.219</ele>
        <time>2020-08-23T08:03:16Z</time>
      </trkpt>
      <trkpt lat="45.946045" lon="8.488824">
        <ele>209.279</ele>
        <time>2020-08-23T08:03:17Z</time>
      </trkpt>
      <trkpt lat="45.946044" lon="8.488757">
        <ele>208.266</ele>
        <time>2020-08-23T08:03:18Z</time>
      </trkpt>
      <trkpt lat="45.946036" lon="8.488684">
        <ele>208.288</ele>
        <time>2020-08-23T08:03:19Z</time>
      </trkpt>
      <trkpt lat="45.946019" lon="8.488618">
        <ele>208.256</ele>
        <time>2020-08-23T08:03:20Z</time>
      </trkpt>
      <trkpt lat="45.945994" lon="8.488565">
        <ele>208.293</ele>
        <time>2020-08-23T08:03:21Z</time>
      </trkpt>
      <trkpt lat="45.945962" lon="8.488517">
        <ele>207.796</ele>
        <time>2020-08-23T08:03:22Z</time>
      </trkpt>
      <trkpt lat="45.945919" lon="8.488465">
        <ele>207.731</ele>
        <time>2020-08-23T08:03:23Z</time>
      </trkpt>
      <trkpt lat="45.945884" lon="8.488425">
        <ele>207.724</ele>
        <time>2020-08-23T08:03:24Z</time>
      </trkpt>
      <trkpt lat="45.945566" lon="8.488531">
        <ele>207.308</ele>
        <time>2020-08-23T08:10:19Z</time>
      </trkpt>
      <trkpt lat="45.945547" lon="8.488573">
        <ele>207.374</ele>
        <time>2020-08-23T08:10:20Z</time>
      </trkpt>
      <trkpt lat="45.945526" lon="8.488608">
        <ele>207.334</ele>
        <time>2020-08-23T08:10:21Z</time>
      </trkpt>
      <trkpt lat="45.945501" lon="8.488638">
        <ele>207.323</ele>
        <time>2020-08-23T08:10:22Z</time>
      </trkpt>
      <trkpt lat="45.945473" lon="8.488665">
        <ele>207.313</ele>
        <time>2020-08-23T08:10:23Z</time>
      </trkpt>
      <trkpt lat="45.945434" lon="8.488684">
        <ele>207.310</ele>
        <time>2020-08-23T08:10:24Z</time>
      </trkpt>
      <trkpt lat="45.945398" lon="8.488689">
        <ele>207.322</ele>
        <time>2020-08-23T08:10:25Z</time>
      </trkpt>
      <trkpt lat="45.945355" lon="8.488684">
        <ele>207.350</ele>
        <time>2020-08-23T08:10:26Z</time>
      </trkpt>
      <trkpt lat="45.945313" lon="8.488669">
        <ele>207.327</ele>
        <time>2020-08-23T08:10:27Z</time>
      </trkpt>
      <trkpt lat="45.945272" lon="8.488646">
        <ele>207.373</ele>
        <time>2020-08-23T08:10:28Z</time>
      </trkpt>
      <trkpt lat="45.945233" lon="8.488615">
        <ele>207.785</ele>
        <time>2020-08-23T08:10:29Z</time>
      </trkpt>
      <trkpt lat="45.945194" lon="8.488581">
        <ele>207.713</ele>
        <time>2020-08-23T08:10:30Z</time>
      </trkpt>
      <trkpt lat="45.944442" lon="8.487934">
        <ele>207.708</ele>
        <time>2020-08-23T08:10:48Z</time>
      </trkpt>
      <trkpt lat="45.943548" lon="8.487210">
        <ele>208.212</ele>
        <time>2020-08-23T08:11:08Z</time>
      </trkpt>
      <trkpt lat="45.942834" lon="8.486717">
        <ele>208.212</ele>
        <time>2020-08-23T08:11:23Z</time>
      </trkpt>
      <trkpt lat="45.941987" lon="8.486129">
        <ele>210.631</ele>
        <time>2020-08-23T08:11:42Z</time>
      </trkpt>
      <trkpt lat="45.941156" lon="8.485611">
        <ele>211.631</ele>
        <time>2020-08-23T08:12:01Z</time>
      </trkpt>
      <trkpt lat="45.940076" lon="8.484938">
        <ele>212.168</ele>
        <time>2020-08-23T08:12:24Z</time>
      </trkpt>
      <trkpt lat="45.939108" lon="8.484361">
        <ele>211.180</ele>
        <time>2020-08-23T08:12:43Z</time>
      </trkpt>
      <trkpt lat="45.938876" lon="8.484211">
        <ele>210.668</ele>
        <time>2020-08-23T08:12:47Z</time>
      </trkpt>
      <trkpt lat="45.938811" lon="8.484144">
        <ele>210.665</ele>
        <time>2020-08-23T08:12:48Z</time>
      </trkpt>
      <trkpt lat="45.938769" lon="8.484084">
        <ele>210.626</ele>
        <time>2020-08-23T08:12:49Z</time>
      </trkpt>
      <trkpt lat="45.938726" lon="8.484011">
        <ele>209.747</ele>
        <time>2020-08-23T08:12:50Z</time>
      </trkpt>
      <trkpt lat="45.938689" lon="8.483937">
        <ele>209.711</ele>
        <time>2020-08-23T08:12:51Z</time>
      </trkpt>
      <trkpt lat="45.938349" lon="8.483207">
        <ele>206.808</ele>
        <time>2020-08-23T08:12:59Z</time>
      </trkpt>
      <trkpt lat="45.937823" lon="8.481960">
        <ele>205.857</ele>
        <time>2020-08-23T08:13:13Z</time>
      </trkpt>
      <trkpt lat="45.937232" lon="8.480552">
        <ele>205.887</ele>
        <time>2020-08-23T08:13:31Z</time>
      </trkpt>
      <trkpt lat="45.936665" lon="8.479173">
        <ele>205.336</ele>
        <time>2020-08-23T08:13:49Z</time>
      </trkpt>
      <trkpt lat="45.936486" lon="8.478726">
        <ele>204.966</ele>
        <time>2020-08-23T08:13:59Z</time>
      </trkpt>
      <trkpt lat="45.936480" lon="8.478745">
        <ele>203.953</ele>
        <time>2020-08-23T08:14:26Z</time>
      </trkpt>
      <trkpt lat="45.936487" lon="8.478749">
        <ele>204.925</ele>
        <time>2020-08-23T08:14:40Z</time>
      </trkpt>
      <trkpt lat="45.936478" lon="8.478735">
        <ele>203.983</ele>
        <time>2020-08-23T08:14:54Z</time>
      </trkpt>
      <trkpt lat="45.936476" lon="8.478739">
        <ele>203.440</ele>
        <time>2020-08-23T08:15:00Z</time>
      </trkpt>
      <trkpt lat="45.936491" lon="8.478733">
        <ele>203.977</ele>
        <time>2020-08-23T08:15:16Z</time>
      </trkpt>
      <trkpt lat="45.936505" lon="8.478735">
        <ele>203.961</ele>
        <time>2020-08-23T08:15:17Z</time>
      </trkpt>
      <trkpt lat="45.936524" lon="8.478733">
        <ele>203.927</ele>
        <time>2020-08-23T08:15:18Z</time>
      </trkpt>
      <trkpt lat="45.936493" lon="8.478727">
        <ele>202.908</ele>
        <time>2020-08-23T08:24:10Z</time>
      </trkpt>
      <trkpt lat="45.936477" lon="8.478706">
        <ele>202.922</ele>
        <time>2020-08-23T08:24:11Z</time>
      </trkpt>
      <trkpt lat="45.936461" lon="8.478679">
        <ele>202.962</ele>
        <time>2020-08-23T08:24:12Z</time>
      </trkpt>
      <trkpt lat="45.936448" lon="8.478649">
        <ele>202.931</ele>
        <time>2020-08-23T08:24:13Z</time>
      </trkpt>
      <trkpt lat="45.936433" lon="8.478609">
        <ele>202.981</ele>
        <time>2020-08-23T08:24:14Z</time>
      </trkpt>
      <trkpt lat="45.936088" lon="8.477797">
        <ele>203.438</ele>
        <time>2020-08-23T08:24:32Z</time>
      </trkpt>
      <trkpt lat="45.935765" lon="8.477006">
        <ele>203.920</ele>
        <time>2020-08-23T08:24:48Z</time>
      </trkpt>
      <trkpt lat="45.935434" lon="8.476369">
        <ele>203.968</ele>
        <time>2020-08-23T08:25:01Z</time>
      </trkpt>
      <trkpt lat="45.934906" lon="8.475628">
        <ele>203.915</ele>
        <time>2020-08-23T08:25:18Z</time>
      </trkpt>
      <trkpt lat="45.934236" lon="8.475031">
        <ele>203.997</ele>
        <time>2020-08-23T08:25:35Z</time>
      </trkpt>
      <trkpt lat="45.933327" lon="8.474223">
        <ele>203.923</ele>
        <time>2020-08-23T08:25:58Z</time>
      </trkpt>
      <trkpt lat="45.932866" lon="8.473872">
        <ele>203.925</ele>
        <time>2020-08-23T08:26:09Z</time>
      </trkpt>
      <trkpt lat="45.932819" lon="8.473860">
        <ele>203.908</ele>
        <time>2020-08-23T08:26:10Z</time>
      </trkpt>
      <trkpt lat="45.932772" lon="8.473855">
        <ele>203.944</ele>
        <time>2020-08-23T08:26:11Z</time>
      </trkpt>
      <trkpt lat="45.932583" lon="8.473864">
        <ele>203.964</ele>
        <time>2020-08-23T08:26:15Z</time>
      </trkpt>
      <trkpt lat="45.932397" lon="8.473849">
        <ele>203.943</ele>
        <time>2020-08-23T08:26:19Z</time>
      </trkpt>
      <trkpt lat="45.932352" lon="8.473836">
        <ele>203.963</ele>
        <time>2020-08-23T08:26:20Z</time>
      </trkpt>
      <trkpt lat="45.932309" lon="8.473811">
        <ele>203.970</ele>
        <time>2020-08-23T08:26:21Z</time>
      </trkpt>
      <trkpt lat="45.932268" lon="8.473775">
        <ele>203.982</ele>
        <time>2020-08-23T08:26:22Z</time>
      </trkpt>
      <trkpt lat="45.932233" lon="8.473728">
        <ele>203.920</ele>
        <time>2020-08-23T08:26:23Z</time>
      </trkpt>
      <trkpt lat="45.932206" lon="8.473674">
        <ele>203.997</ele>
        <time>2020-08-23T08:26:24Z</time>
      </trkpt>
      <trkpt lat="45.932183" lon="8.473615">
        <ele>202.911</ele>
        <time>2020-08-23T08:26:25Z</time>
      </trkpt>
      <trkpt lat="45.932166" lon="8.473551">
        <ele>202.921</ele>
        <time>2020-08-23T08:26:26Z</time>
      </trkpt>
      <trkpt lat="45.932156" lon="8.473484">
        <ele>202.903</ele>
        <time>2020-08-23T08:26:27Z</time>
      </trkpt>
      <trkpt lat="45.932152" lon="8.473433">
        <ele>202.908</ele>
        <time>2020-08-23T08:26:28Z</time>
      </trkpt>
      <trkpt lat="45.932146" lon="8.473365">
        <ele>202.976</ele>
        <time>2020-08-23T08:26:29Z</time>
      </trkpt>
      <trkpt lat="45.932137" lon="8.473311">
        <ele>202.996</ele>
        <time>2020-08-23T08:26:30Z</time>
      </trkpt>
      <trkpt lat="45.932124" lon="8.473255">
        <ele>202.935</ele>
        <time>2020-08-23T08:26:31Z</time>
      </trkpt>
      <trkpt lat="45.932123" lon="8.473172">
        <ele>202.925</ele>
        <time>2020-08-23T08:26:33Z</time>
      </trkpt>
      <trkpt lat="45.932142" lon="8.473080">
        <ele>202.932</ele>
        <time>2020-08-23T08:26:44Z</time>
      </trkpt>
      <trkpt lat="45.932135" lon="8.473073">
        <ele>202.964</ele>
        <time>2020-08-23T08:27:16Z</time>
      </trkpt>
      <trkpt lat="45.932146" lon="8.473118">
        <ele>202.472</ele>
        <time>2020-08-23T08:27:49Z</time>
      </trkpt>
      <trkpt lat="45.932139" lon="8.473085">
        <ele>202.469</ele>
        <time>2020-08-23T08:27:57Z</time>
      </trkpt>
      <trkpt lat="45.932124" lon="8.473076">
        <ele>202.473</ele>
        <time>2020-08-23T08:27:58Z</time>
      </trkpt>
      <trkpt lat="45.932108" lon="8.473076">
        <ele>202.485</ele>
        <time>2020-08-23T08:27:59Z</time>
      </trkpt>
      <trkpt lat="45.932099" lon="8.473080">
        <ele>202.413</ele>
        <time>2020-08-23T08:28:00Z</time>
      </trkpt>
      <trkpt lat="45.932081" lon="8.473086">
        <ele>202.408</ele>
        <time>2020-08-23T08:28:01Z</time>
      </trkpt>
      <trkpt lat="45.932061" lon="8.473093">
        <ele>202.482</ele>
        <time>2020-08-23T08:28:02Z</time>
      </trkpt>
      <trkpt lat="45.931994" lon="8.473085">
        <ele>202.462</ele>
        <time>2020-08-23T08:28:05Z</time>
      </trkpt>
      <trkpt lat="45.931416" lon="8.472571">
        <ele>202.421</ele>
        <time>2020-08-23T08:28:21Z</time>
      </trkpt>
      <trkpt lat="45.930747" lon="8.471974">
        <ele>203.961</ele>
        <time>2020-08-23T08:28:38Z</time>
      </trkpt>
      <trkpt lat="45.929918" lon="8.471258">
        <ele>203.958</ele>
        <time>2020-08-23T08:28:58Z</time>
      </trkpt>
      <trkpt lat="45.929879" lon="8.471222">
        <ele>203.940</ele>
        <time>2020-08-23T08:28:59Z</time>
      </trkpt>
      <trkpt lat="45.929172" lon="8.470614">
        <ele>203.928</ele>
        <time>2020-08-23T08:29:16Z</time>
      </trkpt>
      <trkpt lat="45.928502" lon="8.470018">
        <ele>203.935</ele>
        <time>2020-08-23T08:29:32Z</time>
      </trkpt>
      <trkpt lat="45.927798" lon="8.469384">
        <ele>203.983</ele>
        <time>2020-08-23T08:29:49Z</time>
      </trkpt>
      <trkpt lat="45.927402" lon="8.469026">
        <ele>203.925</ele>
        <time>2020-08-23T08:30:00Z</time>
      </trkpt>
      <trkpt lat="45.926884" lon="8.468579">
        <ele>205.817</ele>
        <time>2020-08-23T08:30:15Z</time>
      </trkpt>
      <trkpt lat="45.926283" lon="8.468066">
        <ele>203.908</ele>
        <time>2020-08-23T08:30:28Z</time>
      </trkpt>
      <trkpt lat="45.925838" lon="8.467641">
        <ele>203.973</ele>
        <time>2020-08-23T08:30:40Z</time>
      </trkpt>
      <trkpt lat="45.925774" lon="8.467132">
        <ele>203.963</ele>
        <time>2020-08-23T08:30:50Z</time>
      </trkpt>
      <trkpt lat="45.925681" lon="8.465920">
        <ele>203.922</ele>
        <time>2020-08-23T08:31:08Z</time>
      </trkpt>
      <trkpt lat="45.925582" lon="8.464625">
        <ele>204.932</ele>
        <time>2020-08-23T08:31:26Z</time>
      </trkpt>
      <trkpt lat="45.925538" lon="8.464052">
        <ele>204.929</ele>
        <time>2020-08-23T08:31:34Z</time>
      </trkpt>
      <trkpt lat="45.925530" lon="8.463983">
        <ele>204.971</ele>
        <time>2020-08-23T08:31:35Z</time>
      </trkpt>
      <trkpt lat="45.925440" lon="8.462797">
        <ele>205.889</ele>
        <time>2020-08-23T08:31:51Z</time>
      </trkpt>
      <trkpt lat="45.925309" lon="8.461130">
        <ele>205.826</ele>
        <time>2020-08-23T08:32:13Z</time>
      </trkpt>
      <trkpt lat="45.925182" lon="8.459453">
        <ele>206.392</ele>
        <time>2020-08-23T08:32:36Z</time>
      </trkpt>
      <trkpt lat="45.925080" lon="8.458200">
        <ele>206.373</ele>
        <time>2020-08-23T08:32:54Z</time>
      </trkpt>
      <trkpt lat="45.924992" lon="8.456994">
        <ele>206.320</ele>
        <time>2020-08-23T08:33:11Z</time>
      </trkpt>
      <trkpt lat="45.924874" lon="8.455428">
        <ele>206.308</ele>
        <time>2020-08-23T08:33:33Z</time>
      </trkpt>
      <trkpt lat="45.924791" lon="8.454365">
        <ele>206.324</ele>
        <time>2020-08-23T08:33:50Z</time>
      </trkpt>
      <trkpt lat="45.924689" lon="8.452967">
        <ele>206.334</ele>
        <time>2020-08-23T08:34:11Z</time>
      </trkpt>
      <trkpt lat="45.924666" lon="8.452373">
        <ele>206.393</ele>
        <time>2020-08-23T08:34:24Z</time>
      </trkpt>
      <trkpt lat="45.924668" lon="8.452385">
        <ele>207.313</ele>
        <time>2020-08-23T08:34:32Z</time>
      </trkpt>
      <trkpt lat="45.924673" lon="8.452400">
        <ele>207.740</ele>
        <time>2020-08-23T08:34:46Z</time>
      </trkpt>
      <trkpt lat="45.924681" lon="8.452416">
        <ele>206.862</ele>
        <time>2020-08-23T08:35:07Z</time>
      </trkpt>
      <trkpt lat="45.924682" lon="8.452389">
        <ele>206.860</ele>
        <time>2020-08-23T08:35:10Z</time>
      </trkpt>
      <trkpt lat="45.924680" lon="8.452362">
        <ele>206.877</ele>
        <time>2020-08-23T08:35:11Z</time>
      </trkpt>
      <trkpt lat="45.924671" lon="8.452332">
        <ele>206.818</ele>
        <time>2020-08-23T08:35:12Z</time>
      </trkpt>
      <trkpt lat="45.924597" lon="8.451745">
        <ele>206.898</ele>
        <time>2020-08-23T08:35:25Z</time>
      </trkpt>
      <trkpt lat="45.924514" lon="8.450670">
        <ele>207.717</ele>
        <time>2020-08-23T08:35:41Z</time>
      </trkpt>
      <trkpt lat="45.924495" lon="8.450182">
        <ele>207.708</ele>
        <time>2020-08-23T08:35:47Z</time>
      </trkpt>
      <trkpt lat="45.924511" lon="8.450096">
        <ele>207.796</ele>
        <time>2020-08-23T08:35:48Z</time>
      </trkpt>
      <trkpt lat="45.924540" lon="8.450025">
        <ele>207.726</ele>
        <time>2020-08-23T08:35:49Z</time>
      </trkpt>
      <trkpt lat="45.924583" lon="8.449969">
        <ele>207.785</ele>
        <time>2020-08-23T08:35:50Z</time>
      </trkpt>
      <trkpt lat="45.924623" lon="8.449921">
        <ele>207.775</ele>
        <time>2020-08-23T08:35:51Z</time>
      </trkpt>
      <trkpt lat="45.924662" lon="8.449861">
        <ele>207.712</ele>
        <time>2020-08-23T08:35:52Z</time>
      </trkpt>
      <trkpt lat="45.924692" lon="8.449788">
        <ele>207.784</ele>
        <time>2020-08-23T08:35:53Z</time>
      </trkpt>
      <trkpt lat="45.924710" lon="8.449706">
        <ele>207.742</ele>
        <time>2020-08-23T08:35:54Z</time>
      </trkpt>
      <trkpt lat="45.924709" lon="8.449620">
        <ele>207.759</ele>
        <time>2020-08-23T08:35:55Z</time>
      </trkpt>
      <trkpt lat="45.924688" lon="8.449536">
        <ele>207.711</ele>
        <time>2020-08-23T08:35:56Z</time>
      </trkpt>
      <trkpt lat="45.924654" lon="8.449469">
        <ele>207.721</ele>
        <time>2020-08-23T08:35:57Z</time>
      </trkpt>
      <trkpt lat="45.924609" lon="8.449410">
        <ele>207.703</ele>
        <time>2020-08-23T08:35:58Z</time>
      </trkpt>
      <trkpt lat="45.924560" lon="8.449357">
        <ele>207.708</ele>
        <time>2020-08-23T08:35:59Z</time>
      </trkpt>
      <trkpt lat="45.924508" lon="8.449299">
        <ele>207.716</ele>
        <time>2020-08-23T08:36:00Z</time>
      </trkpt>
      <trkpt lat="45.924466" lon="8.449222">
        <ele>207.766</ele>
        <time>2020-08-23T08:36:01Z</time>
      </trkpt>
      <trkpt lat="45.924443" lon="8.449155">
        <ele>207.735</ele>
        <time>2020-08-23T08:36:02Z</time>
      </trkpt>
      <trkpt lat="45.924419" lon="8.449070">
        <ele>207.765</ele>
        <time>2020-08-23T08:36:03Z</time>
      </trkpt>
      <trkpt lat="45.924402" lon="8.448993">
        <ele>207.792</ele>
        <time>2020-08-23T08:36:04Z</time>
      </trkpt>
      <trkpt lat="45.924389" lon="8.448909">
        <ele>207.724</ele>
        <time>2020-08-23T08:36:05Z</time>
      </trkpt>
      <trkpt lat="45.924277" lon="8.447676">
        <ele>207.782</ele>
        <time>2020-08-23T08:36:19Z</time>
      </trkpt>
      <trkpt lat="45.924150" lon="8.445832">
        <ele>207.719</ele>
        <time>2020-08-23T08:36:40Z</time>
      </trkpt>
      <trkpt lat="45.924066" lon="8.444652">
        <ele>207.773</ele>
        <time>2020-08-23T08:36:55Z</time>
      </trkpt>
      <trkpt lat="45.923988" lon="8.443590">
        <ele>207.385</ele>
        <time>2020-08-23T08:37:09Z</time>
      </trkpt>
      <trkpt lat="45.923976" lon="8.443441">
        <ele>208.713</ele>
        <time>2020-08-23T08:37:11Z</time>
      </trkpt>
      <trkpt lat="45.923974" lon="8.443334">
        <ele>208.708</ele>
        <time>2020-08-23T08:37:13Z</time>
      </trkpt>
      <trkpt lat="45.923982" lon="8.443270">
        <ele>208.762</ele>
        <time>2020-08-23T08:37:14Z</time>
      </trkpt>
      <trkpt lat="45.924007" lon="8.443205">
        <ele>208.272</ele>
        <time>2020-08-23T08:37:15Z</time>
      </trkpt>
      <trkpt lat="45.924031" lon="8.443168">
        <ele>208.731</ele>
        <time>2020-08-23T08:37:16Z</time>
      </trkpt>
      <trkpt lat="45.924072" lon="8.443124">
        <ele>208.791</ele>
        <time>2020-08-23T08:37:17Z</time>
      </trkpt>
      <trkpt lat="45.924100" lon="8.443092">
        <ele>209.728</ele>
        <time>2020-08-23T08:37:18Z</time>
      </trkpt>
      <trkpt lat="45.924139" lon="8.443042">
        <ele>208.740</ele>
        <time>2020-08-23T08:37:19Z</time>
      </trkpt>
      <trkpt lat="45.924166" lon="8.442994">
        <ele>208.778</ele>
        <time>2020-08-23T08:37:20Z</time>
      </trkpt>
      <trkpt lat="45.924186" lon="8.442914">
        <ele>208.795</ele>
        <time>2020-08-23T08:37:21Z</time>
      </trkpt>
      <trkpt lat="45.924183" lon="8.442845">
        <ele>208.791</ele>
        <time>2020-08-23T08:37:22Z</time>
      </trkpt>
      <trkpt lat="45.924169" lon="8.442786">
        <ele>208.781</ele>
        <time>2020-08-23T08:37:23Z</time>
      </trkpt>
      <trkpt lat="45.924109" lon="8.442659">
        <ele>208.719</ele>
        <time>2020-08-23T08:37:25Z</time>
      </trkpt>
      <trkpt lat="45.923992" lon="8.442319">
        <ele>208.708</ele>
        <time>2020-08-23T08:37:30Z</time>
      </trkpt>
      <trkpt lat="45.923979" lon="8.442240">
        <ele>208.734</ele>
        <time>2020-08-23T08:37:31Z</time>
      </trkpt>
      <trkpt lat="45.923965" lon="8.442169">
        <ele>208.784</ele>
        <time>2020-08-23T08:37:32Z</time>
      </trkpt>
      <trkpt lat="45.923772" lon="8.440826">
        <ele>208.763</ele>
        <time>2020-08-23T08:37:49Z</time>
      </trkpt>
      <trkpt lat="45.923719" lon="8.440048">
        <ele>210.153</ele>
        <time>2020-08-23T08:38:00Z</time>
      </trkpt>
      <trkpt lat="45.923658" lon="8.439146">
        <ele>211.650</ele>
        <time>2020-08-23T08:38:15Z</time>
      </trkpt>
      <trkpt lat="45.923721" lon="8.438276">
        <ele>213.092</ele>
        <time>2020-08-23T08:38:30Z</time>
      </trkpt>
      <trkpt lat="45.923796" lon="8.437978">
        <ele>211.660</ele>
        <time>2020-08-23T08:38:35Z</time>
      </trkpt>
      <trkpt lat="45.923836" lon="8.437868">
        <ele>214.567</ele>
        <time>2020-08-23T08:38:37Z</time>
      </trkpt>
      <trkpt lat="45.923858" lon="8.437816">
        <ele>214.586</ele>
        <time>2020-08-23T08:38:38Z</time>
      </trkpt>
      <trkpt lat="45.923902" lon="8.437707">
        <ele>213.060</ele>
        <time>2020-08-23T08:38:40Z</time>
      </trkpt>
      <trkpt lat="45.923926" lon="8.437653">
        <ele>213.026</ele>
        <time>2020-08-23T08:38:41Z</time>
      </trkpt>
      <trkpt lat="45.923949" lon="8.437601">
        <ele>213.008</ele>
        <time>2020-08-23T08:38:42Z</time>
      </trkpt>
      <trkpt lat="45.924473" lon="8.436878">
        <ele>215.453</ele>
        <time>2020-08-23T08:39:00Z</time>
      </trkpt>
      <trkpt lat="45.924912" lon="8.436361">
        <ele>216.993</ele>
        <time>2020-08-23T08:39:14Z</time>
      </trkpt>
      <trkpt lat="45.925492" lon="8.435680">
        <ele>218.342</ele>
        <time>2020-08-23T08:39:32Z</time>
      </trkpt>
      <trkpt lat="45.925930" lon="8.435223">
        <ele>218.892</ele>
        <time>2020-08-23T08:39:45Z</time>
      </trkpt>
      <trkpt lat="45.926666" lon="8.434407">
        <ele>220.219</ele>
        <time>2020-08-23T08:40:07Z</time>
      </trkpt>
      <trkpt lat="45.926854" lon="8.434205">
        <ele>221.771</ele>
        <time>2020-08-23T08:40:12Z</time>
      </trkpt>
      <trkpt lat="45.926924" lon="8.434122">
        <ele>220.269</ele>
        <time>2020-08-23T08:40:14Z</time>
      </trkpt>
      <trkpt lat="45.927420" lon="8.433561">
        <ele>219.896</ele>
        <time>2020-08-23T08:40:27Z</time>
      </trkpt>
      <trkpt lat="45.927738" lon="8.433197">
        <ele>218.374</ele>
        <time>2020-08-23T08:40:34Z</time>
      </trkpt>
      <trkpt lat="45.928117" lon="8.432770">
        <ele>217.456</ele>
        <time>2020-08-23T08:40:42Z</time>
      </trkpt>
      <trkpt lat="45.928168" lon="8.432733">
        <ele>217.421</ele>
        <time>2020-08-23T08:40:43Z</time>
      </trkpt>
      <trkpt lat="45.928346" lon="8.432562">
        <ele>216.908</ele>
        <time>2020-08-23T08:40:49Z</time>
      </trkpt>
      <trkpt lat="45.928340" lon="8.432491">
        <ele>216.952</ele>
        <time>2020-08-23T08:40:50Z</time>
      </trkpt>
      <trkpt lat="45.928318" lon="8.432456">
        <ele>216.972</ele>
        <time>2020-08-23T08:40:51Z</time>
      </trkpt>
      <trkpt lat="45.928277" lon="8.432417">
        <ele>216.951</ele>
        <time>2020-08-23T08:40:52Z</time>
      </trkpt>
      <trkpt lat="45.928232" lon="8.432385">
        <ele>216.961</ele>
        <time>2020-08-23T08:40:53Z</time>
      </trkpt>
      <trkpt lat="45.928195" lon="8.432366">
        <ele>215.918</ele>
        <time>2020-08-23T08:40:54Z</time>
      </trkpt>
      <trkpt lat="45.928149" lon="8.432345">
        <ele>215.940</ele>
        <time>2020-08-23T08:40:55Z</time>
      </trkpt>
      <trkpt lat="45.927374" lon="8.431956">
        <ele>216.498</ele>
        <time>2020-08-23T08:41:12Z</time>
      </trkpt>
      <trkpt lat="45.926909" lon="8.431707">
        <ele>217.455</ele>
        <time>2020-08-23T08:41:22Z</time>
      </trkpt>
      <trkpt lat="45.926863" lon="8.431684">
        <ele>217.432</ele>
        <time>2020-08-23T08:41:23Z</time>
      </trkpt>
      <trkpt lat="45.926007" lon="8.431192">
        <ele>219.392</ele>
        <time>2020-08-23T08:41:42Z</time>
      </trkpt>
      <trkpt lat="45.925830" lon="8.431106">
        <ele>219.311</ele>
        <time>2020-08-23T08:41:46Z</time>
      </trkpt>
      <trkpt lat="45.925084" lon="8.430704">
        <ele>220.208</ele>
        <time>2020-08-23T08:42:03Z</time>
      </trkpt>
      <trkpt lat="45.924274" lon="8.430252">
        <ele>221.268</ele>
        <time>2020-08-23T08:42:21Z</time>
      </trkpt>
      <trkpt lat="45.923497" lon="8.429833">
        <ele>224.188</ele>
        <time>2020-08-23T08:42:39Z</time>
      </trkpt>
      <trkpt lat="45.922812" lon="8.429472">
        <ele>226.047</ele>
        <time>2020-08-23T08:42:57Z</time>
      </trkpt>
      <trkpt lat="45.922395" lon="8.429229">
        <ele>228.447</ele>
        <time>2020-08-23T08:43:11Z</time>
      </trkpt>
      <trkpt lat="45.921869" lon="8.428961">
        <ele>230.864</ele>
        <time>2020-08-23T08:43:28Z</time>
      </trkpt>
      <trkpt lat="45.921317" lon="8.428661">
        <ele>233.716</ele>
        <time>2020-08-23T08:43:47Z</time>
      </trkpt>
      <trkpt lat="45.920759" lon="8.428349">
        <ele>237.544</ele>
        <time>2020-08-23T08:44:04Z</time>
      </trkpt>
      <trkpt lat="45.920169" lon="8.428040">
        <ele>240.481</ele>
        <time>2020-08-23T08:44:22Z</time>
      </trkpt>
      <trkpt lat="45.919549" lon="8.427699">
        <ele>243.365</ele>
        <time>2020-08-23T08:44:42Z</time>
      </trkpt>
      <trkpt lat="45.919139" lon="8.427366">
        <ele>245.768</ele>
        <time>2020-08-23T08:44:56Z</time>
      </trkpt>
      <trkpt lat="45.918740" lon="8.426777">
        <ele>249.114</ele>
        <time>2020-08-23T08:45:14Z</time>
      </trkpt>
      <trkpt lat="45.918365" lon="8.426547">
        <ele>250.508</ele>
        <time>2020-08-23T08:45:27Z</time>
      </trkpt>
      <trkpt lat="45.918331" lon="8.426506">
        <ele>250.521</ele>
        <time>2020-08-23T08:45:28Z</time>
      </trkpt>
      <trkpt lat="45.918303" lon="8.426452">
        <ele>250.531</ele>
        <time>2020-08-23T08:45:29Z</time>
      </trkpt>
      <trkpt lat="45.917810" lon="8.425677">
        <ele>250.540</ele>
        <time>2020-08-23T08:45:44Z</time>
      </trkpt>
      <trkpt lat="45.917765" lon="8.425642">
        <ele>250.560</ele>
        <time>2020-08-23T08:45:45Z</time>
      </trkpt>
      <trkpt lat="45.917258" lon="8.425353">
        <ele>251.087</ele>
        <time>2020-08-23T08:45:56Z</time>
      </trkpt>
      <trkpt lat="45.917209" lon="8.425342">
        <ele>251.549</ele>
        <time>2020-08-23T08:45:57Z</time>
      </trkpt>
      <trkpt lat="45.916592" lon="8.425193">
        <ele>254.887</ele>
        <time>2020-08-23T08:46:12Z</time>
      </trkpt>
      <trkpt lat="45.915912" lon="8.424965">
        <ele>258.794</ele>
        <time>2020-08-23T08:46:29Z</time>
      </trkpt>
      <trkpt lat="45.915365" lon="8.424715">
        <ele>261.132</ele>
        <time>2020-08-23T08:46:45Z</time>
      </trkpt>
      <trkpt lat="45.915020" lon="8.424337">
        <ele>264.092</ele>
        <time>2020-08-23T08:46:59Z</time>
      </trkpt>
      <trkpt lat="45.914679" lon="8.424214">
        <ele>266.911</ele>
        <time>2020-08-23T08:47:12Z</time>
      </trkpt>
      <trkpt lat="45.914084" lon="8.424282">
        <ele>267.308</ele>
        <time>2020-08-23T08:47:26Z</time>
      </trkpt>
      <trkpt lat="45.913286" lon="8.424209">
        <ele>264.068</ele>
        <time>2020-08-23T08:47:37Z</time>
      </trkpt>
      <trkpt lat="45.913203" lon="8.424149">
        <ele>264.098</ele>
        <time>2020-08-23T08:47:38Z</time>
      </trkpt>
      <trkpt lat="45.912882" lon="8.423793">
        <ele>263.537</ele>
        <time>2020-08-23T08:47:43Z</time>
      </trkpt>
      <trkpt lat="45.912827" lon="8.423725">
        <ele>263.597</ele>
        <time>2020-08-23T08:47:44Z</time>
      </trkpt>
      <trkpt lat="45.912721" lon="8.423585">
        <ele>263.594</ele>
        <time>2020-08-23T08:47:46Z</time>
      </trkpt>
      <trkpt lat="45.912327" lon="8.423177">
        <ele>263.086</ele>
        <time>2020-08-23T08:47:53Z</time>
      </trkpt>
      <trkpt lat="45.912279" lon="8.423101">
        <ele>263.064</ele>
        <time>2020-08-23T08:47:54Z</time>
      </trkpt>
      <trkpt lat="45.912239" lon="8.423020">
        <ele>263.071</ele>
        <time>2020-08-23T08:47:55Z</time>
      </trkpt>
      <trkpt lat="45.912210" lon="8.422928">
        <ele>263.087</ele>
        <time>2020-08-23T08:47:56Z</time>
      </trkpt>
      <trkpt lat="45.912193" lon="8.422850">
        <ele>263.042</ele>
        <time>2020-08-23T08:47:57Z</time>
      </trkpt>
      <trkpt lat="45.912176" lon="8.422767">
        <ele>264.526</ele>
        <time>2020-08-23T08:47:58Z</time>
      </trkpt>
      <trkpt lat="45.912160" lon="8.422688">
        <ele>264.508</ele>
        <time>2020-08-23T08:47:59Z</time>
      </trkpt>
      <trkpt lat="45.912027" lon="8.422114">
        <ele>268.313</ele>
        <time>2020-08-23T08:48:07Z</time>
      </trkpt>
      <trkpt lat="45.911869" lon="8.421577">
        <ele>271.243</ele>
        <time>2020-08-23T08:48:17Z</time>
      </trkpt>
      <trkpt lat="45.911831" lon="8.421488">
        <ele>271.262</ele>
        <time>2020-08-23T08:48:19Z</time>
      </trkpt>
      <trkpt lat="45.911802" lon="8.421432">
        <ele>271.212</ele>
        <time>2020-08-23T08:48:20Z</time>
      </trkpt>
      <trkpt lat="45.911777" lon="8.421396">
        <ele>271.279</ele>
        <time>2020-08-23T08:48:21Z</time>
      </trkpt>
      <trkpt lat="45.911277" lon="8.420847">
        <ele>271.241</ele>
        <time>2020-08-23T08:48:34Z</time>
      </trkpt>
      <trkpt lat="45.911231" lon="8.420809">
        <ele>271.259</ele>
        <time>2020-08-23T08:48:35Z</time>
      </trkpt>
      <trkpt lat="45.911184" lon="8.420770">
        <ele>271.216</ele>
        <time>2020-08-23T08:48:36Z</time>
      </trkpt>
      <trkpt lat="45.911138" lon="8.420724">
        <ele>271.294</ele>
        <time>2020-08-23T08:48:37Z</time>
      </trkpt>
      <trkpt lat="45.911096" lon="8.420674">
        <ele>269.757</ele>
        <time>2020-08-23T08:48:38Z</time>
      </trkpt>
      <trkpt lat="45.911056" lon="8.420622">
        <ele>269.722</ele>
        <time>2020-08-23T08:48:39Z</time>
      </trkpt>
      <trkpt lat="45.910963" lon="8.420511">
        <ele>269.308</ele>
        <time>2020-08-23T08:48:46Z</time>
      </trkpt>
      <trkpt lat="45.910966" lon="8.420499">
        <ele>268.344</ele>
        <time>2020-08-23T08:49:07Z</time>
      </trkpt>
      <trkpt lat="45.910816" lon="8.420321">
        <ele>268.384</ele>
        <time>2020-08-23T08:49:19Z</time>
      </trkpt>
      <trkpt lat="45.910787" lon="8.420319">
        <ele>268.353</ele>
        <time>2020-08-23T08:49:20Z</time>
      </trkpt>
      <trkpt lat="45.910757" lon="8.420338">
        <ele>268.383</ele>
        <time>2020-08-23T08:49:21Z</time>
      </trkpt>
      <trkpt lat="45.910725" lon="8.420371">
        <ele>267.820</ele>
        <time>2020-08-23T08:49:22Z</time>
      </trkpt>
      <trkpt lat="45.910621" lon="8.420517">
        <ele>266.432</ele>
        <time>2020-08-23T08:49:25Z</time>
      </trkpt>
      <trkpt lat="45.910300" lon="8.421056">
        <ele>263.060</ele>
        <time>2020-08-23T08:49:33Z</time>
      </trkpt>
      <trkpt lat="45.910100" lon="8.421304">
        <ele>260.657</ele>
        <time>2020-08-23T08:49:37Z</time>
      </trkpt>
      <trkpt lat="45.910045" lon="8.421341">
        <ele>260.197</ele>
        <time>2020-08-23T08:49:38Z</time>
      </trkpt>
      <trkpt lat="45.909900" lon="8.421423">
        <ele>259.223</ele>
        <time>2020-08-23T08:49:40Z</time>
      </trkpt>
      <trkpt lat="45.909806" lon="8.421503">
        <ele>258.225</ele>
        <time>2020-08-23T08:49:42Z</time>
      </trkpt>
      <trkpt lat="45.909694" lon="8.421611">
        <ele>257.708</ele>
        <time>2020-08-23T08:49:44Z</time>
      </trkpt>
      <trkpt lat="45.909521" lon="8.421731">
        <ele>256.844</ele>
        <time>2020-08-23T08:49:47Z</time>
      </trkpt>
      <trkpt lat="45.909463" lon="8.421730">
        <ele>256.814</ele>
        <time>2020-08-23T08:49:48Z</time>
      </trkpt>
      <trkpt lat="45.909347" lon="8.421705">
        <ele>256.833</ele>
        <time>2020-08-23T08:49:50Z</time>
      </trkpt>
      <trkpt lat="45.909294" lon="8.421681">
        <ele>256.373</ele>
        <time>2020-08-23T08:49:51Z</time>
      </trkpt>
      <trkpt lat="45.909188" lon="8.421619">
        <ele>256.380</ele>
        <time>2020-08-23T08:49:53Z</time>
      </trkpt>
      <trkpt lat="45.908971" lon="8.421463">
        <ele>255.332</ele>
        <time>2020-08-23T08:49:57Z</time>
      </trkpt>
      <trkpt lat="45.908662" lon="8.421168">
        <ele>252.910</ele>
        <time>2020-08-23T08:50:04Z</time>
      </trkpt>
      <trkpt lat="45.908641" lon="8.421141">
        <ele>252.937</ele>
        <time>2020-08-23T08:50:05Z</time>
      </trkpt>
      <trkpt lat="45.908624" lon="8.421132">
        <ele>252.451</ele>
        <time>2020-08-23T08:50:06Z</time>
      </trkpt>
      <trkpt lat="45.908595" lon="8.421110">
        <ele>252.401</ele>
        <time>2020-08-23T08:50:07Z</time>
      </trkpt>
      <trkpt lat="45.908575" lon="8.421098">
        <ele>252.411</ele>
        <time>2020-08-23T08:50:08Z</time>
      </trkpt>
      <trkpt lat="45.908542" lon="8.421083">
        <ele>252.408</ele>
        <time>2020-08-23T08:50:09Z</time>
      </trkpt>
      <trkpt lat="45.908511" lon="8.421068">
        <ele>252.430</ele>
        <time>2020-08-23T08:50:10Z</time>
      </trkpt>
      <trkpt lat="45.908479" lon="8.421047">
        <ele>252.480</ele>
        <time>2020-08-23T08:50:11Z</time>
      </trkpt>
      <trkpt lat="45.908445" lon="8.421024">
        <ele>252.459</ele>
        <time>2020-08-23T08:50:12Z</time>
      </trkpt>
      <trkpt lat="45.907829" lon="8.420530">
        <ele>252.449</ele>
        <time>2020-08-23T08:50:27Z</time>
      </trkpt>
      <trkpt lat="45.907279" lon="8.420125">
        <ele>252.066</ele>
        <time>2020-08-23T08:50:40Z</time>
      </trkpt>
      <trkpt lat="45.906673" lon="8.419673">
        <ele>252.068</ele>
        <time>2020-08-23T08:50:56Z</time>
      </trkpt>
      <trkpt lat="45.906668" lon="8.419657">
        <ele>252.046</ele>
        <time>2020-08-23T08:50:57Z</time>
      </trkpt>
      <trkpt lat="45.906671" lon="8.419634">
        <ele>252.023</ele>
        <time>2020-08-23T08:50:58Z</time>
      </trkpt>
      <trkpt lat="45.906676" lon="8.419619">
        <ele>252.039</ele>
        <time>2020-08-23T08:50:59Z</time>
      </trkpt>
      <trkpt lat="45.906687" lon="8.419599">
        <ele>252.001</ele>
        <time>2020-08-23T08:51:00Z</time>
      </trkpt>
      <trkpt lat="45.906701" lon="8.419580">
        <ele>252.021</ele>
        <time>2020-08-23T08:51:01Z</time>
      </trkpt>
      <trkpt lat="45.906718" lon="8.419550">
        <ele>252.008</ele>
        <time>2020-08-23T08:51:02Z</time>
      </trkpt>
      <trkpt lat="45.906917" lon="8.419028">
        <ele>253.458</ele>
        <time>2020-08-23T08:51:14Z</time>
      </trkpt>
      <trkpt lat="45.907106" lon="8.418478">
        <ele>255.368</ele>
        <time>2020-08-23T08:51:24Z</time>
      </trkpt>
      <trkpt lat="45.907284" lon="8.417919">
        <ele>256.877</ele>
        <time>2020-08-23T08:51:37Z</time>
      </trkpt>
      <trkpt lat="45.907280" lon="8.417877">
        <ele>257.287</ele>
        <time>2020-08-23T08:51:38Z</time>
      </trkpt>
      <trkpt lat="45.907262" lon="8.417839">
        <ele>257.284</ele>
        <time>2020-08-23T08:51:39Z</time>
      </trkpt>
      <trkpt lat="45.907233" lon="8.417810">
        <ele>257.226</ele>
        <time>2020-08-23T08:51:40Z</time>
      </trkpt>
      <trkpt lat="45.907205" lon="8.417794">
        <ele>257.244</ele>
        <time>2020-08-23T08:51:41Z</time>
      </trkpt>
      <trkpt lat="45.907175" lon="8.417776">
        <ele>257.271</ele>
        <time>2020-08-23T08:51:42Z</time>
      </trkpt>
      <trkpt lat="45.907145" lon="8.417754">
        <ele>257.229</ele>
        <time>2020-08-23T08:51:43Z</time>
      </trkpt>
      <trkpt lat="45.907055" lon="8.417369">
        <ele>258.200</ele>
        <time>2020-08-23T08:51:52Z</time>
      </trkpt>
      <trkpt lat="45.907128" lon="8.416755">
        <ele>262.120</ele>
        <time>2020-08-23T08:52:05Z</time>
      </trkpt>
      <trkpt lat="45.907080" lon="8.416443">
        <ele>260.108</ele>
        <time>2020-08-23T08:52:11Z</time>
      </trkpt>
      <trkpt lat="45.907059" lon="8.416431">
        <ele>260.127</ele>
        <time>2020-08-23T08:52:12Z</time>
      </trkpt>
      <trkpt lat="45.907020" lon="8.416420">
        <ele>260.157</ele>
        <time>2020-08-23T08:52:13Z</time>
      </trkpt>
      <trkpt lat="45.906981" lon="8.416419">
        <ele>260.176</ele>
        <time>2020-08-23T08:52:14Z</time>
      </trkpt>
      <trkpt lat="45.906938" lon="8.416420">
        <ele>260.196</ele>
        <time>2020-08-23T08:52:15Z</time>
      </trkpt>
      <trkpt lat="45.906473" lon="8.416436">
        <ele>261.683</ele>
        <time>2020-08-23T08:52:26Z</time>
      </trkpt>
      <trkpt lat="45.905811" lon="8.416450">
        <ele>262.575</ele>
        <time>2020-08-23T08:52:40Z</time>
      </trkpt>
      <trkpt lat="45.905769" lon="8.416435">
        <ele>262.513</ele>
        <time>2020-08-23T08:52:41Z</time>
      </trkpt>
      <trkpt lat="45.905728" lon="8.416412">
        <ele>264.530</ele>
        <time>2020-08-23T08:52:42Z</time>
      </trkpt>
      <trkpt lat="45.905687" lon="8.416379">
        <ele>263.021</ele>
        <time>2020-08-23T08:52:43Z</time>
      </trkpt>
      <trkpt lat="45.905645" lon="8.416341">
        <ele>262.541</ele>
        <time>2020-08-23T08:52:44Z</time>
      </trkpt>
      <trkpt lat="45.905602" lon="8.416310">
        <ele>262.505</ele>
        <time>2020-08-23T08:52:45Z</time>
      </trkpt>
      <trkpt lat="45.905559" lon="8.416284">
        <ele>262.508</ele>
        <time>2020-08-23T08:52:46Z</time>
      </trkpt>
      <trkpt lat="45.905512" lon="8.416266">
        <ele>262.577</ele>
        <time>2020-08-23T08:52:47Z</time>
      </trkpt>
      <trkpt lat="45.905461" lon="8.416254">
        <ele>262.517</ele>
        <time>2020-08-23T08:52:48Z</time>
      </trkpt>
      <trkpt lat="45.905416" lon="8.416251">
        <ele>262.566</ele>
        <time>2020-08-23T08:52:49Z</time>
      </trkpt>
      <trkpt lat="45.905364" lon="8.416251">
        <ele>262.526</ele>
        <time>2020-08-23T08:52:50Z</time>
      </trkpt>
      <trkpt lat="45.905112" lon="8.416268">
        <ele>264.013</ele>
        <time>2020-08-23T08:52:55Z</time>
      </trkpt>
      <trkpt lat="45.904827" lon="8.416289">
        <ele>264.955</ele>
        <time>2020-08-23T08:53:01Z</time>
      </trkpt>
      <trkpt lat="45.904779" lon="8.416300">
        <ele>264.933</ele>
        <time>2020-08-23T08:53:02Z</time>
      </trkpt>
      <trkpt lat="45.903969" lon="8.416330">
        <ele>267.310</ele>
        <time>2020-08-23T08:53:20Z</time>
      </trkpt>
      <trkpt lat="45.903314" lon="8.416256">
        <ele>269.774</ele>
        <time>2020-08-23T08:53:36Z</time>
      </trkpt>
      <trkpt lat="45.902860" lon="8.416063">
        <ele>271.756</ele>
        <time>2020-08-23T08:53:51Z</time>
      </trkpt>
      <trkpt lat="45.902214" lon="8.416043">
        <ele>273.121</ele>
        <time>2020-08-23T08:54:08Z</time>
      </trkpt>
      <trkpt lat="45.902002" lon="8.416077">
        <ele>273.108</ele>
        <time>2020-08-23T08:54:12Z</time>
      </trkpt>
      <trkpt lat="45.901782" lon="8.416076">
        <ele>271.752</ele>
        <time>2020-08-23T08:54:16Z</time>
      </trkpt>
      <trkpt lat="45.901728" lon="8.416087">
        <ele>271.752</ele>
        <time>2020-08-23T08:54:17Z</time>
      </trkpt>
      <trkpt lat="45.901677" lon="8.416109">
        <ele>271.251</ele>
        <time>2020-08-23T08:54:18Z</time>
      </trkpt>
      <trkpt lat="45.901569" lon="8.416155">
        <ele>271.211</ele>
        <time>2020-08-23T08:54:20Z</time>
      </trkpt>
      <trkpt lat="45.901524" lon="8.416155">
        <ele>271.288</ele>
        <time>2020-08-23T08:54:21Z</time>
      </trkpt>
      <trkpt lat="45.901468" lon="8.416133">
        <ele>271.210</ele>
        <time>2020-08-23T08:54:22Z</time>
      </trkpt>
      <trkpt lat="45.901426" lon="8.416103">
        <ele>271.268</ele>
        <time>2020-08-23T08:54:23Z</time>
      </trkpt>
      <trkpt lat="45.901373" lon="8.416056">
        <ele>271.295</ele>
        <time>2020-08-23T08:54:24Z</time>
      </trkpt>
      <trkpt lat="45.901250" lon="8.415962">
        <ele>271.224</ele>
        <time>2020-08-23T08:54:27Z</time>
      </trkpt>
      <trkpt lat="45.901207" lon="8.415945">
        <ele>271.204</ele>
        <time>2020-08-23T08:54:28Z</time>
      </trkpt>
      <trkpt lat="45.901174" lon="8.415936">
        <ele>271.214</ele>
        <time>2020-08-23T08:54:29Z</time>
      </trkpt>
      <trkpt lat="45.901147" lon="8.415936">
        <ele>271.208</ele>
        <time>2020-08-23T08:54:30Z</time>
      </trkpt>
      <trkpt lat="45.901127" lon="8.415949">
        <ele>270.717</ele>
        <time>2020-08-23T08:54:31Z</time>
      </trkpt>
      <trkpt lat="45.901111" lon="8.415973">
        <ele>270.787</ele>
        <time>2020-08-23T08:54:32Z</time>
      </trkpt>
      <trkpt lat="45.901097" lon="8.416006">
        <ele>270.786</ele>
        <time>2020-08-23T08:54:33Z</time>
      </trkpt>
      <trkpt lat="45.901087" lon="8.416047">
        <ele>269.776</ele>
        <time>2020-08-23T08:54:34Z</time>
      </trkpt>
      <trkpt lat="45.901083" lon="8.416094">
        <ele>269.743</ele>
        <time>2020-08-23T08:54:35Z</time>
      </trkpt>
      <trkpt lat="45.901078" lon="8.416147">
        <ele>269.735</ele>
        <time>2020-08-23T08:54:36Z</time>
      </trkpt>
      <trkpt lat="45.901065" lon="8.416259">
        <ele>268.863</ele>
        <time>2020-08-23T08:54:38Z</time>
      </trkpt>
      <trkpt lat="45.901052" lon="8.416301">
        <ele>271.720</ele>
        <time>2020-08-23T08:54:39Z</time>
      </trkpt>
      <trkpt lat="45.901012" lon="8.416352">
        <ele>268.876</ele>
        <time>2020-08-23T08:54:41Z</time>
      </trkpt>
      <trkpt lat="45.900985" lon="8.416346">
        <ele>268.890</ele>
        <time>2020-08-23T08:54:42Z</time>
      </trkpt>
      <trkpt lat="45.900951" lon="8.416323">
        <ele>268.819</ele>
        <time>2020-08-23T08:54:43Z</time>
      </trkpt>
      <trkpt lat="45.900923" lon="8.416300">
        <ele>268.808</ele>
        <time>2020-08-23T08:54:44Z</time>
      </trkpt>
      <trkpt lat="45.900881" lon="8.416268">
        <ele>268.812</ele>
        <time>2020-08-23T08:54:45Z</time>
      </trkpt>
      <trkpt lat="45.900844" lon="8.416239">
        <ele>268.812</ele>
        <time>2020-08-23T08:54:46Z</time>
      </trkpt>
      <trkpt lat="45.900660" lon="8.416055">
        <ele>268.351</ele>
        <time>2020-08-23T08:54:51Z</time>
      </trkpt>
      <trkpt lat="45.900596" lon="8.415981">
        <ele>267.821</ele>
        <time>2020-08-23T08:54:53Z</time>
      </trkpt>
      <trkpt lat="45.900559" lon="8.415979">
        <ele>267.858</ele>
        <time>2020-08-23T08:54:54Z</time>
      </trkpt>
      <trkpt lat="45.900516" lon="8.415999">
        <ele>266.960</ele>
        <time>2020-08-23T08:54:55Z</time>
      </trkpt>
      <trkpt lat="45.900468" lon="8.416036">
        <ele>266.938</ele>
        <time>2020-08-23T08:54:56Z</time>
      </trkpt>
      <trkpt lat="45.900430" lon="8.416075">
        <ele>266.485</ele>
        <time>2020-08-23T08:54:57Z</time>
      </trkpt>
      <trkpt lat="45.900397" lon="8.416135">
        <ele>266.497</ele>
        <time>2020-08-23T08:54:58Z</time>
      </trkpt>
      <trkpt lat="45.900373" lon="8.416209">
        <ele>265.923</ele>
        <time>2020-08-23T08:54:59Z</time>
      </trkpt>
      <trkpt lat="45.900307" lon="8.416321">
        <ele>265.425</ele>
        <time>2020-08-23T08:55:02Z</time>
      </trkpt>
      <trkpt lat="45.900285" lon="8.416314">
        <ele>264.908</ele>
        <time>2020-08-23T08:55:03Z</time>
      </trkpt>
      <trkpt lat="45.900259" lon="8.416297">
        <ele>264.914</ele>
        <time>2020-08-23T08:55:04Z</time>
      </trkpt>
      <trkpt lat="45.900049" lon="8.416146">
        <ele>264.984</ele>
        <time>2020-08-23T08:55:10Z</time>
      </trkpt>
      <trkpt lat="45.899721" lon="8.415912">
        <ele>264.533</ele>
        <time>2020-08-23T08:55:23Z</time>
      </trkpt>
      <trkpt lat="45.899712" lon="8.415903">
        <ele>264.513</ele>
        <time>2020-08-23T08:55:51Z</time>
      </trkpt>
      <trkpt lat="45.899699" lon="8.415903">
        <ele>264.530</ele>
        <time>2020-08-23T08:55:52Z</time>
      </trkpt>
      <trkpt lat="45.899612" lon="8.415887">
        <ele>264.542</ele>
        <time>2020-08-23T08:55:58Z</time>
      </trkpt>
      <trkpt lat="45.899597" lon="8.415901">
        <ele>264.560</ele>
        <time>2020-08-23T08:55:59Z</time>
      </trkpt>
      <trkpt lat="45.899597" lon="8.415933">
        <ele>264.927</ele>
        <time>2020-08-23T08:56:00Z</time>
      </trkpt>
      <trkpt lat="45.899612" lon="8.415963">
        <ele>264.519</ele>
        <time>2020-08-23T08:56:01Z</time>
      </trkpt>
      <trkpt lat="45.899632" lon="8.415992">
        <ele>264.909</ele>
        <time>2020-08-23T08:56:02Z</time>
      </trkpt>
      <trkpt lat="45.899649" lon="8.416025">
        <ele>264.519</ele>
        <time>2020-08-23T08:56:03Z</time>
      </trkpt>
      <trkpt lat="45.899661" lon="8.416071">
        <ele>264.908</ele>
        <time>2020-08-23T08:56:04Z</time>
      </trkpt>
      <trkpt lat="45.899667" lon="8.416118">
        <ele>264.916</ele>
        <time>2020-08-23T08:56:05Z</time>
      </trkpt>
      <trkpt lat="45.899754" lon="8.416467">
        <ele>264.516</ele>
        <time>2020-08-23T08:56:15Z</time>
      </trkpt>
      <trkpt lat="45.899729" lon="8.416533">
        <ele>264.045</ele>
        <time>2020-08-23T08:57:02Z</time>
      </trkpt>
      <trkpt lat="45.899591" lon="8.416480">
        <ele>264.045</ele>
        <time>2020-08-23T08:57:07Z</time>
      </trkpt>
      <trkpt lat="45.899557" lon="8.416493">
        <ele>264.082</ele>
        <time>2020-08-23T08:57:08Z</time>
      </trkpt>
      <trkpt lat="45.899531" lon="8.416506">
        <ele>264.054</ele>
        <time>2020-08-23T08:57:09Z</time>
      </trkpt>
      <trkpt lat="45.899236" lon="8.416993">
        <ele>264.582</ele>
        <time>2020-08-23T08:57:21Z</time>
      </trkpt>
      <trkpt lat="45.899151" lon="8.417216">
        <ele>264.569</ele>
        <time>2020-08-23T08:57:25Z</time>
      </trkpt>
      <trkpt lat="45.899123" lon="8.417265">
        <ele>264.573</ele>
        <time>2020-08-23T08:57:26Z</time>
      </trkpt>
      <trkpt lat="45.899089" lon="8.417305">
        <ele>264.585</ele>
        <time>2020-08-23T08:57:27Z</time>
      </trkpt>
      <trkpt lat="45.899049" lon="8.417327">
        <ele>264.513</ele>
        <time>2020-08-23T08:57:28Z</time>
      </trkpt>
      <trkpt lat="45.899004" lon="8.417329">
        <ele>264.508</ele>
        <time>2020-08-23T08:57:29Z</time>
      </trkpt>
      <trkpt lat="45.898965" lon="8.417321">
        <ele>264.512</ele>
        <time>2020-08-23T08:57:30Z</time>
      </trkpt>
      <trkpt lat="45.898922" lon="8.417305">
        <ele>264.522</ele>
        <time>2020-08-23T08:57:31Z</time>
      </trkpt>
      <trkpt lat="45.898875" lon="8.417285">
        <ele>264.581</ele>
        <time>2020-08-23T08:57:32Z</time>
      </trkpt>
      <trkpt lat="45.898844" lon="8.417270">
        <ele>264.571</ele>
        <time>2020-08-23T08:57:33Z</time>
      </trkpt>
      <trkpt lat="45.898808" lon="8.417243">
        <ele>264.588</ele>
        <time>2020-08-23T08:57:34Z</time>
      </trkpt>
      <trkpt lat="45.898770" lon="8.417208">
        <ele>264.550</ele>
        <time>2020-08-23T08:57:35Z</time>
      </trkpt>
      <trkpt lat="45.898739" lon="8.417185">
        <ele>264.588</ele>
        <time>2020-08-23T08:57:36Z</time>
      </trkpt>
      <trkpt lat="45.898701" lon="8.417165">
        <ele>264.545</ele>
        <time>2020-08-23T08:57:37Z</time>
      </trkpt>
      <trkpt lat="45.898663" lon="8.417144">
        <ele>264.565</ele>
        <time>2020-08-23T08:57:38Z</time>
      </trkpt>
      <trkpt lat="45.898626" lon="8.417115">
        <ele>264.568</ele>
        <time>2020-08-23T08:57:39Z</time>
      </trkpt>
      <trkpt lat="45.898596" lon="8.417076">
        <ele>264.514</ele>
        <time>2020-08-23T08:57:40Z</time>
      </trkpt>
      <trkpt lat="45.898575" lon="8.417028">
        <ele>264.508</ele>
        <time>2020-08-23T08:57:41Z</time>
      </trkpt>
      <trkpt lat="45.898563" lon="8.416967">
        <ele>264.521</ele>
        <time>2020-08-23T08:57:42Z</time>
      </trkpt>
      <trkpt lat="45.898552" lon="8.416908">
        <ele>264.541</ele>
        <time>2020-08-23T08:57:43Z</time>
      </trkpt>
      <trkpt lat="45.898532" lon="8.416850">
        <ele>264.560</ele>
        <time>2020-08-23T08:57:44Z</time>
      </trkpt>
      <trkpt lat="45.898501" lon="8.416800">
        <ele>264.570</ele>
        <time>2020-08-23T08:57:45Z</time>
      </trkpt>
      <trkpt lat="45.898457" lon="8.416757">
        <ele>264.517</ele>
        <time>2020-08-23T08:57:46Z</time>
      </trkpt>
      <trkpt lat="45.898414" lon="8.416733">
        <ele>264.549</ele>
        <time>2020-08-23T08:57:47Z</time>
      </trkpt>
      <trkpt lat="45.898370" lon="8.416714">
        <ele>264.537</ele>
        <time>2020-08-23T08:57:48Z</time>
      </trkpt>
      <trkpt lat="45.898102" lon="8.416626">
        <ele>265.484</ele>
        <time>2020-08-23T08:57:54Z</time>
      </trkpt>
      <trkpt lat="45.898060" lon="8.416641">
        <ele>265.484</ele>
        <time>2020-08-23T08:57:55Z</time>
      </trkpt>
      <trkpt lat="45.898021" lon="8.416670">
        <ele>265.407</ele>
        <time>2020-08-23T08:57:56Z</time>
      </trkpt>
      <trkpt lat="45.897987" lon="8.416706">
        <ele>265.917</ele>
        <time>2020-08-23T08:57:57Z</time>
      </trkpt>
      <trkpt lat="45.897958" lon="8.416750">
        <ele>265.908</ele>
        <time>2020-08-23T08:57:58Z</time>
      </trkpt>
      <trkpt lat="45.897934" lon="8.416798">
        <ele>265.913</ele>
        <time>2020-08-23T08:57:59Z</time>
      </trkpt>
      <trkpt lat="45.897917" lon="8.416851">
        <ele>265.943</ele>
        <time>2020-08-23T08:58:00Z</time>
      </trkpt>
      <trkpt lat="45.897899" lon="8.416905">
        <ele>265.982</ele>
        <time>2020-08-23T08:58:01Z</time>
      </trkpt>
      <trkpt lat="45.897875" lon="8.416963">
        <ele>265.912</ele>
        <time>2020-08-23T08:58:02Z</time>
      </trkpt>
      <trkpt lat="45.897616" lon="8.417622">
        <ele>266.479</ele>
        <time>2020-08-23T08:58:14Z</time>
      </trkpt>
      <trkpt lat="45.897578" lon="8.417737">
        <ele>266.461</ele>
        <time>2020-08-23T08:58:16Z</time>
      </trkpt>
      <trkpt lat="45.897546" lon="8.417780">
        <ele>266.449</ele>
        <time>2020-08-23T08:58:17Z</time>
      </trkpt>
      <trkpt lat="45.897494" lon="8.417796">
        <ele>266.466</ele>
        <time>2020-08-23T08:58:18Z</time>
      </trkpt>
      <trkpt lat="45.897460" lon="8.417781">
        <ele>266.412</ele>
        <time>2020-08-23T08:58:19Z</time>
      </trkpt>
      <trkpt lat="45.897430" lon="8.417756">
        <ele>266.432</ele>
        <time>2020-08-23T08:58:20Z</time>
      </trkpt>
      <trkpt lat="45.897398" lon="8.417724">
        <ele>266.405</ele>
        <time>2020-08-23T08:58:21Z</time>
      </trkpt>
      <trkpt lat="45.897365" lon="8.417696">
        <ele>266.408</ele>
        <time>2020-08-23T08:58:22Z</time>
      </trkpt>
      <trkpt lat="45.897136" lon="8.417547">
        <ele>267.336</ele>
        <time>2020-08-23T08:58:30Z</time>
      </trkpt>
      <trkpt lat="45.897117" lon="8.417563">
        <ele>267.356</ele>
        <time>2020-08-23T08:58:31Z</time>
      </trkpt>
      <trkpt lat="45.897095" lon="8.417585">
        <ele>267.315</ele>
        <time>2020-08-23T08:58:32Z</time>
      </trkpt>
      <trkpt lat="45.897068" lon="8.417597">
        <ele>267.335</ele>
        <time>2020-08-23T08:58:33Z</time>
      </trkpt>
      <trkpt lat="45.897037" lon="8.417600">
        <ele>267.372</ele>
        <time>2020-08-23T08:58:34Z</time>
      </trkpt>
      <trkpt lat="45.897005" lon="8.417600">
        <ele>267.344</ele>
        <time>2020-08-23T08:58:35Z</time>
      </trkpt>
      <trkpt lat="45.896196" lon="8.417639">
        <ele>269.352</ele>
        <time>2020-08-23T08:58:55Z</time>
      </trkpt>
      <trkpt lat="45.896152" lon="8.417635">
        <ele>269.369</ele>
        <time>2020-08-23T08:58:56Z</time>
      </trkpt>
      <trkpt lat="45.895384" lon="8.417239">
        <ele>270.289</ele>
        <time>2020-08-23T08:59:14Z</time>
      </trkpt>
      <trkpt lat="45.894672" lon="8.416768">
        <ele>272.106</ele>
        <time>2020-08-23T08:59:32Z</time>
      </trkpt>
      <trkpt lat="45.893910" lon="8.416202">
        <ele>272.126</ele>
        <time>2020-08-23T08:59:48Z</time>
      </trkpt>
      <trkpt lat="45.893041" lon="8.415665">
        <ele>272.108</ele>
        <time>2020-08-23T09:00:05Z</time>
      </trkpt>
      <trkpt lat="45.892104" lon="8.415594">
        <ele>273.673</ele>
        <time>2020-08-23T09:00:24Z</time>
      </trkpt>
      <trkpt lat="45.891089" lon="8.415327">
        <ele>274.513</ele>
        <time>2020-08-23T09:00:46Z</time>
      </trkpt>
      <trkpt lat="45.890318" lon="8.415155">
        <ele>275.552</ele>
        <time>2020-08-23T09:01:04Z</time>
      </trkpt>
      <trkpt lat="45.889538" lon="8.414836">
        <ele>276.012</ele>
        <time>2020-08-23T09:01:21Z</time>
      </trkpt>
      <trkpt lat="45.888811" lon="8.414331">
        <ele>278.939</ele>
        <time>2020-08-23T09:01:40Z</time>
      </trkpt>
      <trkpt lat="45.888206" lon="8.413880">
        <ele>281.311</ele>
        <time>2020-08-23T09:01:58Z</time>
      </trkpt>
      <trkpt lat="45.887708" lon="8.413490">
        <ele>283.799</ele>
        <time>2020-08-23T09:02:13Z</time>
      </trkpt>
      <trkpt lat="45.887143" lon="8.413005">
        <ele>285.696</ele>
        <time>2020-08-23T09:02:30Z</time>
      </trkpt>
      <trkpt lat="45.886555" lon="8.412440">
        <ele>288.054</ele>
        <time>2020-08-23T09:02:48Z</time>
      </trkpt>
      <trkpt lat="45.885770" lon="8.411727">
        <ele>288.556</ele>
        <time>2020-08-23T09:03:08Z</time>
      </trkpt>
      <trkpt lat="45.885080" lon="8.411268">
        <ele>290.411</ele>
        <time>2020-08-23T09:03:26Z</time>
      </trkpt>
      <trkpt lat="45.884217" lon="8.411056">
        <ele>293.808</ele>
        <time>2020-08-23T09:03:48Z</time>
      </trkpt>
      <trkpt lat="45.883668" lon="8.410983">
        <ele>294.780</ele>
        <time>2020-08-23T09:04:03Z</time>
      </trkpt>
      <trkpt lat="45.883188" lon="8.410930">
        <ele>294.740</ele>
        <time>2020-08-23T09:04:17Z</time>
      </trkpt>
      <trkpt lat="45.883021" lon="8.410731">
        <ele>294.749</ele>
        <time>2020-08-23T09:04:22Z</time>
      </trkpt>
      <trkpt lat="45.882994" lon="8.410690">
        <ele>294.779</ele>
        <time>2020-08-23T09:04:23Z</time>
      </trkpt>
      <trkpt lat="45.882875" lon="8.410526">
        <ele>294.746</ele>
        <time>2020-08-23T09:04:27Z</time>
      </trkpt>
      <trkpt lat="45.882485" lon="8.410043">
        <ele>292.828</ele>
        <time>2020-08-23T09:04:38Z</time>
      </trkpt>
      <trkpt lat="45.882460" lon="8.409979">
        <ele>292.846</ele>
        <time>2020-08-23T09:04:39Z</time>
      </trkpt>
      <trkpt lat="45.882443" lon="8.409906">
        <ele>292.893</ele>
        <time>2020-08-23T09:04:40Z</time>
      </trkpt>
      <trkpt lat="45.882439" lon="8.409846">
        <ele>292.859</ele>
        <time>2020-08-23T09:04:41Z</time>
      </trkpt>
      <trkpt lat="45.882451" lon="8.409780">
        <ele>292.803</ele>
        <time>2020-08-23T09:04:42Z</time>
      </trkpt>
      <trkpt lat="45.882478" lon="8.409733">
        <ele>292.823</ele>
        <time>2020-08-23T09:04:43Z</time>
      </trkpt>
      <trkpt lat="45.882523" lon="8.409686">
        <ele>292.808</ele>
        <time>2020-08-23T09:04:44Z</time>
      </trkpt>
      <trkpt lat="45.882662" lon="8.409527">
        <ele>292.810</ele>
        <time>2020-08-23T09:04:48Z</time>
      </trkpt>
      <trkpt lat="45.882727" lon="8.409446">
        <ele>292.820</ele>
        <time>2020-08-23T09:04:50Z</time>
      </trkpt>
      <trkpt lat="45.882835" lon="8.409334">
        <ele>292.879</ele>
        <time>2020-08-23T09:04:53Z</time>
      </trkpt>
      <trkpt lat="45.882986" lon="8.409216">
        <ele>292.849</ele>
        <time>2020-08-23T09:04:57Z</time>
      </trkpt>
      <trkpt lat="45.883032" lon="8.409194">
        <ele>291.936</ele>
        <time>2020-08-23T09:04:58Z</time>
      </trkpt>
      <trkpt lat="45.883122" lon="8.409136">
        <ele>291.998</ele>
        <time>2020-08-23T09:05:00Z</time>
      </trkpt>
      <trkpt lat="45.883143" lon="8.409074">
        <ele>291.986</ele>
        <time>2020-08-23T09:05:01Z</time>
      </trkpt>
      <trkpt lat="45.883131" lon="8.408989">
        <ele>291.913</ele>
        <time>2020-08-23T09:05:02Z</time>
      </trkpt>
      <trkpt lat="45.883110" lon="8.408952">
        <ele>291.978</ele>
        <time>2020-08-23T09:05:03Z</time>
      </trkpt>
      <trkpt lat="45.883068" lon="8.408912">
        <ele>291.433</ele>
        <time>2020-08-23T09:05:04Z</time>
      </trkpt>
      <trkpt lat="45.883018" lon="8.408887">
        <ele>291.426</ele>
        <time>2020-08-23T09:05:05Z</time>
      </trkpt>
      <trkpt lat="45.882960" lon="8.408876">
        <ele>291.408</ele>
        <time>2020-08-23T09:05:06Z</time>
      </trkpt>
      <trkpt lat="45.882910" lon="8.408866">
        <ele>291.422</ele>
        <time>2020-08-23T09:05:07Z</time>
      </trkpt>
      <trkpt lat="45.882858" lon="8.408838">
        <ele>291.412</ele>
        <time>2020-08-23T09:05:08Z</time>
      </trkpt>
      <trkpt lat="45.882815" lon="8.408795">
        <ele>290.911</ele>
        <time>2020-08-23T09:05:09Z</time>
      </trkpt>
      <trkpt lat="45.882778" lon="8.408746">
        <ele>290.941</ele>
        <time>2020-08-23T09:05:10Z</time>
      </trkpt>
      <trkpt lat="45.882748" lon="8.408691">
        <ele>290.968</ele>
        <time>2020-08-23T09:05:11Z</time>
      </trkpt>
      <trkpt lat="45.882722" lon="8.408632">
        <ele>290.950</ele>
        <time>2020-08-23T09:05:12Z</time>
      </trkpt>
      <trkpt lat="45.882699" lon="8.408570">
        <ele>290.998</ele>
        <time>2020-08-23T09:05:13Z</time>
      </trkpt>
      <trkpt lat="45.882680" lon="8.408509">
        <ele>290.995</ele>
        <time>2020-08-23T09:05:14Z</time>
      </trkpt>
      <trkpt lat="45.882465" lon="8.407673">
        <ele>290.986</ele>
        <time>2020-08-23T09:05:29Z</time>
      </trkpt>
      <trkpt lat="45.882430" lon="8.407519">
        <ele>294.760</ele>
        <time>2020-08-23T09:05:32Z</time>
      </trkpt>
      <trkpt lat="45.882221" lon="8.406735">
        <ele>295.226</ele>
        <time>2020-08-23T09:05:50Z</time>
      </trkpt>
      <trkpt lat="45.882117" lon="8.406428">
        <ele>299.108</ele>
        <time>2020-08-23T09:06:02Z</time>
      </trkpt>
      <trkpt lat="45.882082" lon="8.406323">
        <ele>300.023</ele>
        <time>2020-08-23T09:06:07Z</time>
      </trkpt>
      <trkpt lat="45.882090" lon="8.406259">
        <ele>300.533</ele>
        <time>2020-08-23T09:06:10Z</time>
      </trkpt>
      <trkpt lat="45.882107" lon="8.406213">
        <ele>301.552</ele>
        <time>2020-08-23T09:06:13Z</time>
      </trkpt>
      <trkpt lat="45.882100" lon="8.406199">
        <ele>301.552</ele>
        <time>2020-08-23T09:06:14Z</time>
      </trkpt>
      <trkpt lat="45.882079" lon="8.406171">
        <ele>301.579</ele>
        <time>2020-08-23T09:06:17Z</time>
      </trkpt>
      <trkpt lat="45.882079" lon="8.406149">
        <ele>301.511</ele>
        <time>2020-08-23T09:06:18Z</time>
      </trkpt>
      <trkpt lat="45.882078" lon="8.406121">
        <ele>301.539</ele>
        <time>2020-08-23T09:06:19Z</time>
      </trkpt>
      <trkpt lat="45.881899" lon="8.405812">
        <ele>302.426</ele>
        <time>2020-08-23T09:06:32Z</time>
      </trkpt>
      <trkpt lat="45.881852" lon="8.405754">
        <ele>302.995</ele>
        <time>2020-08-23T09:06:45Z</time>
      </trkpt>
      <trkpt lat="45.881861" lon="8.405758">
        <ele>301.549</ele>
        <time>2020-08-23T09:06:54Z</time>
      </trkpt>
      <trkpt lat="45.881871" lon="8.405759">
        <ele>302.923</ele>
        <time>2020-08-23T09:07:04Z</time>
      </trkpt>
      <trkpt lat="45.881855" lon="8.405741">
        <ele>302.908</ele>
        <time>2020-08-23T09:07:14Z</time>
      </trkpt>
      <trkpt lat="45.881839" lon="8.405730">
        <ele>302.954</ele>
        <time>2020-08-23T09:07:15Z</time>
      </trkpt>
      <trkpt lat="45.881823" lon="8.405716">
        <ele>302.944</ele>
        <time>2020-08-23T09:07:16Z</time>
      </trkpt>
      <trkpt lat="45.881807" lon="8.405696">
        <ele>302.973</ele>
        <time>2020-08-23T09:07:17Z</time>
      </trkpt>
      <trkpt lat="45.881790" lon="8.405674">
        <ele>302.993</ele>
        <time>2020-08-23T09:07:18Z</time>
      </trkpt>
      <trkpt lat="45.881769" lon="8.405650">
        <ele>302.910</ele>
        <time>2020-08-23T09:07:19Z</time>
      </trkpt>
      <trkpt lat="45.881456" lon="8.405297">
        <ele>304.852</ele>
        <time>2020-08-23T09:07:34Z</time>
      </trkpt>
      <trkpt lat="45.881104" lon="8.404871">
        <ele>307.230</ele>
        <time>2020-08-23T09:07:52Z</time>
      </trkpt>
      <trkpt lat="45.881040" lon="8.404813">
        <ele>307.727</ele>
        <time>2020-08-23T09:07:56Z</time>
      </trkpt>
      <trkpt lat="45.881012" lon="8.404815">
        <ele>307.779</ele>
        <time>2020-08-23T09:07:57Z</time>
      </trkpt>
      <trkpt lat="45.880983" lon="8.404837">
        <ele>307.705</ele>
        <time>2020-08-23T09:07:58Z</time>
      </trkpt>
      <trkpt lat="45.880961" lon="8.404860">
        <ele>307.725</ele>
        <time>2020-08-23T09:07:59Z</time>
      </trkpt>
      <trkpt lat="45.880940" lon="8.404887">
        <ele>307.708</ele>
        <time>2020-08-23T09:08:00Z</time>
      </trkpt>
      <trkpt lat="45.880567" lon="8.405392">
        <ele>307.732</ele>
        <time>2020-08-23T09:08:15Z</time>
      </trkpt>
      <trkpt lat="45.880019" lon="8.406072">
        <ele>307.732</ele>
        <time>2020-08-23T09:08:33Z</time>
      </trkpt>
      <trkpt lat="45.879486" lon="8.406750">
        <ele>308.281</ele>
        <time>2020-08-23T09:08:50Z</time>
      </trkpt>
      <trkpt lat="45.879034" lon="8.407299">
        <ele>308.231</ele>
        <time>2020-08-23T09:09:03Z</time>
      </trkpt>
      <trkpt lat="45.878797" lon="8.407591">
        <ele>306.838</ele>
        <time>2020-08-23T09:09:09Z</time>
      </trkpt>
      <trkpt lat="45.878031" lon="8.408552">
        <ele>303.980</ele>
        <time>2020-08-23T09:09:26Z</time>
      </trkpt>
      <trkpt lat="45.877569" lon="8.409129">
        <ele>301.998</ele>
        <time>2020-08-23T09:09:36Z</time>
      </trkpt>
      <trkpt lat="45.877528" lon="8.409146">
        <ele>301.585</ele>
        <time>2020-08-23T09:09:37Z</time>
      </trkpt>
      <trkpt lat="45.877485" lon="8.409143">
        <ele>301.585</ele>
        <time>2020-08-23T09:09:38Z</time>
      </trkpt>
      <trkpt lat="45.877447" lon="8.409140">
        <ele>301.589</ele>
        <time>2020-08-23T09:09:39Z</time>
      </trkpt>
      <trkpt lat="45.877406" lon="8.409161">
        <ele>301.517</ele>
        <time>2020-08-23T09:09:40Z</time>
      </trkpt>
      <trkpt lat="45.877374" lon="8.409203">
        <ele>301.008</ele>
        <time>2020-08-23T09:09:41Z</time>
      </trkpt>
      <trkpt lat="45.877352" lon="8.409255">
        <ele>301.053</ele>
        <time>2020-08-23T09:09:42Z</time>
      </trkpt>
      <trkpt lat="45.877334" lon="8.409307">
        <ele>300.593</ele>
        <time>2020-08-23T09:09:43Z</time>
      </trkpt>
      <trkpt lat="45.877318" lon="8.409347">
        <ele>300.522</ele>
        <time>2020-08-23T09:09:44Z</time>
      </trkpt>
      <trkpt lat="45.877242" lon="8.409542">
        <ele>298.672</ele>
        <time>2020-08-23T09:09:53Z</time>
      </trkpt>
      <trkpt lat="45.877255" lon="8.409555">
        <ele>298.699</ele>
        <time>2020-08-23T09:10:09Z</time>
      </trkpt>
      <trkpt lat="45.877258" lon="8.409554">
        <ele>300.551</ele>
        <time>2020-08-23T09:10:11Z</time>
      </trkpt>
      <trkpt lat="45.877250" lon="8.409538">
        <ele>300.519</ele>
        <time>2020-08-23T09:10:34Z</time>
      </trkpt>
      <trkpt lat="45.877229" lon="8.409552">
        <ele>300.576</ele>
        <time>2020-08-23T09:10:47Z</time>
      </trkpt>
      <trkpt lat="45.877220" lon="8.409620">
        <ele>300.539</ele>
        <time>2020-08-23T09:10:50Z</time>
      </trkpt>
      <trkpt lat="45.877207" lon="8.409660">
        <ele>300.501</ele>
        <time>2020-08-23T09:10:51Z</time>
      </trkpt>
      <trkpt lat="45.877191" lon="8.409701">
        <ele>300.521</ele>
        <time>2020-08-23T09:10:52Z</time>
      </trkpt>
      <trkpt lat="45.877175" lon="8.409755">
        <ele>300.508</ele>
        <time>2020-08-23T09:10:53Z</time>
      </trkpt>
      <trkpt lat="45.877165" lon="8.409820">
        <ele>300.538</ele>
        <time>2020-08-23T09:10:54Z</time>
      </trkpt>
      <trkpt lat="45.877166" lon="8.409881">
        <ele>300.538</ele>
        <time>2020-08-23T09:10:55Z</time>
      </trkpt>
      <trkpt lat="45.877182" lon="8.409959">
        <ele>300.587</ele>
        <time>2020-08-23T09:10:56Z</time>
      </trkpt>
      <trkpt lat="45.877192" lon="8.409996">
        <ele>300.567</ele>
        <time>2020-08-23T09:10:57Z</time>
      </trkpt>
      <trkpt lat="45.877188" lon="8.410042">
        <ele>300.584</ele>
        <time>2020-08-23T09:10:58Z</time>
      </trkpt>
      <trkpt lat="45.877166" lon="8.410092">
        <ele>300.546</ele>
        <time>2020-08-23T09:10:59Z</time>
      </trkpt>
      <trkpt lat="45.877149" lon="8.410121">
        <ele>300.534</ele>
        <time>2020-08-23T09:11:00Z</time>
      </trkpt>
      <trkpt lat="45.877122" lon="8.410159">
        <ele>300.561</ele>
        <time>2020-08-23T09:11:01Z</time>
      </trkpt>
      <trkpt lat="45.877095" lon="8.410190">
        <ele>300.556</ele>
        <time>2020-08-23T09:11:02Z</time>
      </trkpt>
      <trkpt lat="45.876699" lon="8.410614">
        <ele>301.059</ele>
        <time>2020-08-23T09:11:14Z</time>
      </trkpt>
      <trkpt lat="45.876678" lon="8.410648">
        <ele>301.014</ele>
        <time>2020-08-23T09:11:15Z</time>
      </trkpt>
      <trkpt lat="45.876231" lon="8.411140">
        <ele>302.908</ele>
        <time>2020-08-23T09:11:29Z</time>
      </trkpt>
      <trkpt lat="45.876048" lon="8.411300">
        <ele>302.950</ele>
        <time>2020-08-23T09:11:34Z</time>
      </trkpt>
      <trkpt lat="45.875992" lon="8.411309">
        <ele>302.930</ele>
        <time>2020-08-23T09:11:35Z</time>
      </trkpt>
      <trkpt lat="45.875936" lon="8.411310">
        <ele>302.989</ele>
        <time>2020-08-23T09:11:36Z</time>
      </trkpt>
      <trkpt lat="45.875884" lon="8.411314">
        <ele>302.989</ele>
        <time>2020-08-23T09:11:37Z</time>
      </trkpt>
      <trkpt lat="45.875836" lon="8.411319">
        <ele>302.976</ele>
        <time>2020-08-23T09:11:38Z</time>
      </trkpt>
      <trkpt lat="45.875379" lon="8.411358">
        <ele>302.988</ele>
        <time>2020-08-23T09:11:47Z</time>
      </trkpt>
      <trkpt lat="45.874864" lon="8.411393">
        <ele>301.576</ele>
        <time>2020-08-23T09:11:56Z</time>
      </trkpt>
      <trkpt lat="45.874806" lon="8.411379">
        <ele>301.593</ele>
        <time>2020-08-23T09:11:57Z</time>
      </trkpt>
      <trkpt lat="45.874742" lon="8.411352">
        <ele>301.541</ele>
        <time>2020-08-23T09:11:58Z</time>
      </trkpt>
      <trkpt lat="45.874699" lon="8.411321">
        <ele>301.081</ele>
        <time>2020-08-23T09:11:59Z</time>
      </trkpt>
      <trkpt lat="45.874660" lon="8.411276">
        <ele>300.509</ele>
        <time>2020-08-23T09:12:00Z</time>
      </trkpt>
      <trkpt lat="45.874628" lon="8.411219">
        <ele>300.508</ele>
        <time>2020-08-23T09:12:01Z</time>
      </trkpt>
      <trkpt lat="45.874602" lon="8.411159">
        <ele>300.099</ele>
        <time>2020-08-23T09:12:02Z</time>
      </trkpt>
      <trkpt lat="45.874552" lon="8.411044">
        <ele>300.059</ele>
        <time>2020-08-23T09:12:04Z</time>
      </trkpt>
      <trkpt lat="45.874525" lon="8.410985">
        <ele>300.058</ele>
        <time>2020-08-23T09:12:05Z</time>
      </trkpt>
      <trkpt lat="45.874417" lon="8.410725">
        <ele>297.678</ele>
        <time>2020-08-23T09:12:09Z</time>
      </trkpt>
      <trkpt lat="45.874357" lon="8.410530">
        <ele>295.785</ele>
        <time>2020-08-23T09:12:17Z</time>
      </trkpt>
      <trkpt lat="45.874330" lon="8.410468">
        <ele>295.797</ele>
        <time>2020-08-23T09:12:22Z</time>
      </trkpt>
      <trkpt lat="45.874310" lon="8.410466">
        <ele>295.765</ele>
        <time>2020-08-23T09:12:23Z</time>
      </trkpt>
      <trkpt lat="45.874291" lon="8.410481">
        <ele>295.722</ele>
        <time>2020-08-23T09:12:24Z</time>
      </trkpt>
      <trkpt lat="45.873915" lon="8.410783">
        <ele>295.777</ele>
        <time>2020-08-23T09:12:37Z</time>
      </trkpt>
      <trkpt lat="45.873800" lon="8.410824">
        <ele>295.761</ele>
        <time>2020-08-23T09:12:40Z</time>
      </trkpt>
      <trkpt lat="45.873403" lon="8.410870">
        <ele>297.127</ele>
        <time>2020-08-23T09:12:50Z</time>
      </trkpt>
      <trkpt lat="45.872958" lon="8.411024">
        <ele>296.208</ele>
        <time>2020-08-23T09:13:02Z</time>
      </trkpt>
      <trkpt lat="45.872933" lon="8.410982">
        <ele>295.792</ele>
        <time>2020-08-23T09:13:04Z</time>
      </trkpt>
      <trkpt lat="45.872864" lon="8.411006">
        <ele>295.792</ele>
        <time>2020-08-23T09:13:14Z</time>
      </trkpt>
      <trkpt lat="45.872873" lon="8.411014">
        <ele>296.221</ele>
        <time>2020-08-23T09:13:28Z</time>
      </trkpt>
      <trkpt lat="45.872864" lon="8.411015">
        <ele>296.241</ele>
        <time>2020-08-23T09:13:49Z</time>
      </trkpt>
      <trkpt lat="45.872948" lon="8.411054">
        <ele>296.268</ele>
        <time>2020-08-23T09:14:30Z</time>
      </trkpt>
      <trkpt lat="45.872966" lon="8.411044">
        <ele>296.220</ele>
        <time>2020-08-23T09:15:10Z</time>
      </trkpt>
      <trkpt lat="45.872910" lon="8.410977">
        <ele>296.298</ele>
        <time>2020-08-23T09:15:36Z</time>
      </trkpt>
      <trkpt lat="45.872896" lon="8.410970">
        <ele>296.225</ele>
        <time>2020-08-23T09:15:41Z</time>
      </trkpt>
      <trkpt lat="45.872919" lon="8.410971">
        <ele>296.289</ele>
        <time>2020-08-23T09:15:44Z</time>
      </trkpt>
      <trkpt lat="45.872976" lon="8.411057">
        <ele>296.206</ele>
        <time>2020-08-23T09:15:51Z</time>
      </trkpt>
      <trkpt lat="45.872950" lon="8.411131">
        <ele>296.226</ele>
        <time>2020-08-23T09:15:54Z</time>
      </trkpt>
      <trkpt lat="45.872705" lon="8.411569">
        <ele>296.208</ele>
        <time>2020-08-23T09:16:05Z</time>
      </trkpt>
      <trkpt lat="45.872674" lon="8.411615">
        <ele>296.283</ele>
        <time>2020-08-23T09:16:06Z</time>
      </trkpt>
      <trkpt lat="45.872643" lon="8.411662">
        <ele>296.263</ele>
        <time>2020-08-23T09:16:07Z</time>
      </trkpt>
      <trkpt lat="45.872615" lon="8.411710">
        <ele>296.232</ele>
        <time>2020-08-23T09:16:08Z</time>
      </trkpt>
      <trkpt lat="45.872586" lon="8.411762">
        <ele>296.252</ele>
        <time>2020-08-23T09:16:09Z</time>
      </trkpt>
      <trkpt lat="45.872382" lon="8.412376">
        <ele>299.129</ele>
        <time>2020-08-23T09:16:22Z</time>
      </trkpt>
      <trkpt lat="45.872332" lon="8.412768">
        <ele>301.541</ele>
        <time>2020-08-23T09:16:32Z</time>
      </trkpt>
      <trkpt lat="45.872292" lon="8.412775">
        <ele>302.429</ele>
        <time>2020-08-23T09:16:33Z</time>
      </trkpt>
      <trkpt lat="45.872274" lon="8.412769">
        <ele>302.486</ele>
        <time>2020-08-23T09:16:34Z</time>
      </trkpt>
      <trkpt lat="45.871610" lon="8.412593">
        <ele>302.495</ele>
        <time>2020-08-23T09:16:50Z</time>
      </trkpt>
      <trkpt lat="45.870815" lon="8.412397">
        <ele>302.449</ele>
        <time>2020-08-23T09:17:06Z</time>
      </trkpt>
      <trkpt lat="45.870455" lon="8.412300">
        <ele>302.423</ele>
        <time>2020-08-23T09:17:13Z</time>
      </trkpt>
      <trkpt lat="45.870404" lon="8.412285">
        <ele>302.408</ele>
        <time>2020-08-23T09:17:14Z</time>
      </trkpt>
      <trkpt lat="45.869518" lon="8.412128">
        <ele>302.984</ele>
        <time>2020-08-23T09:17:30Z</time>
      </trkpt>
      <trkpt lat="45.868686" lon="8.412402">
        <ele>302.984</ele>
        <time>2020-08-23T09:17:45Z</time>
      </trkpt>
      <trkpt lat="45.868095" lon="8.412915">
        <ele>302.953</ele>
        <time>2020-08-23T09:17:57Z</time>
      </trkpt>
      <trkpt lat="45.868050" lon="8.412965">
        <ele>302.913</ele>
        <time>2020-08-23T09:17:58Z</time>
      </trkpt>
      <trkpt lat="45.867191" lon="8.413742">
        <ele>302.920</ele>
        <time>2020-08-23T09:18:16Z</time>
      </trkpt>
      <trkpt lat="45.866479" lon="8.413882">
        <ele>302.992</ele>
        <time>2020-08-23T09:18:29Z</time>
      </trkpt>
      <trkpt lat="45.865607" lon="8.413541">
        <ele>303.460</ele>
        <time>2020-08-23T09:18:45Z</time>
      </trkpt>
      <trkpt lat="45.864543" lon="8.413102">
        <ele>303.487</ele>
        <time>2020-08-23T09:19:04Z</time>
      </trkpt>
      <trkpt lat="45.863605" lon="8.412734">
        <ele>303.951</ele>
        <time>2020-08-23T09:19:21Z</time>
      </trkpt>
      <trkpt lat="45.863275" lon="8.412603">
        <ele>303.901</ele>
        <time>2020-08-23T09:19:27Z</time>
      </trkpt>
      <trkpt lat="45.862365" lon="8.412192">
        <ele>303.911</ele>
        <time>2020-08-23T09:19:44Z</time>
      </trkpt>
      <trkpt lat="45.861395" lon="8.411479">
        <ele>304.308</ele>
        <time>2020-08-23T09:20:03Z</time>
      </trkpt>
      <trkpt lat="45.860618" lon="8.410619">
        <ele>304.330</ele>
        <time>2020-08-23T09:20:20Z</time>
      </trkpt>
      <trkpt lat="45.859886" lon="8.409837">
        <ele>304.330</ele>
        <time>2020-08-23T09:20:37Z</time>
      </trkpt>
      <trkpt lat="45.858947" lon="8.409204">
        <ele>304.399</ele>
        <time>2020-08-23T09:20:55Z</time>
      </trkpt>
      <trkpt lat="45.858546" lon="8.408965">
        <ele>304.389</ele>
        <time>2020-08-23T09:21:03Z</time>
      </trkpt>
      <trkpt lat="45.858137" lon="8.408594">
        <ele>304.326</ele>
        <time>2020-08-23T09:21:11Z</time>
      </trkpt>
      <trkpt lat="45.858085" lon="8.408566">
        <ele>304.328</ele>
        <time>2020-08-23T09:21:12Z</time>
      </trkpt>
      <trkpt lat="45.858026" lon="8.408543">
        <ele>304.336</ele>
        <time>2020-08-23T09:21:13Z</time>
      </trkpt>
      <trkpt lat="45.857729" lon="8.408461">
        <ele>304.353</ele>
        <time>2020-08-23T09:21:18Z</time>
      </trkpt>
      <trkpt lat="45.856791" lon="8.407897">
        <ele>304.399</ele>
        <time>2020-08-23T09:21:35Z</time>
      </trkpt>
      <trkpt lat="45.855803" lon="8.407313">
        <ele>304.307</ele>
        <time>2020-08-23T09:21:53Z</time>
      </trkpt>
      <trkpt lat="45.854905" lon="8.407264">
        <ele>304.327</ele>
        <time>2020-08-23T09:22:07Z</time>
      </trkpt>
      <trkpt lat="45.853893" lon="8.407365">
        <ele>303.408</ele>
        <time>2020-08-23T09:22:23Z</time>
      </trkpt>
      <trkpt lat="45.852857" lon="8.406941">
        <ele>303.454</ele>
        <time>2020-08-23T09:22:40Z</time>
      </trkpt>
      <trkpt lat="45.851890" lon="8.406794">
        <ele>303.994</ele>
        <time>2020-08-23T09:22:56Z</time>
      </trkpt>
      <trkpt lat="45.851582" lon="8.406811">
        <ele>303.993</ele>
        <time>2020-08-23T09:23:01Z</time>
      </trkpt>
      <trkpt lat="45.850547" lon="8.406485">
        <ele>303.943</ele>
        <time>2020-08-23T09:23:18Z</time>
      </trkpt>
      <trkpt lat="45.849668" lon="8.406205">
        <ele>303.910</ele>
        <time>2020-08-23T09:23:33Z</time>
      </trkpt>
      <trkpt lat="45.848621" lon="8.406098">
        <ele>303.982</ele>
        <time>2020-08-23T09:23:52Z</time>
      </trkpt>
      <trkpt lat="45.847794" lon="8.406083">
        <ele>303.980</ele>
        <time>2020-08-23T09:24:07Z</time>
      </trkpt>
      <trkpt lat="45.846842" lon="8.405788">
        <ele>302.977</ele>
        <time>2020-08-23T09:24:24Z</time>
      </trkpt>
      <trkpt lat="45.845654" lon="8.405433">
        <ele>302.943</ele>
        <time>2020-08-23T09:24:46Z</time>
      </trkpt>
      <trkpt lat="45.844628" lon="8.405144">
        <ele>302.964</ele>
        <time>2020-08-23T09:25:05Z</time>
      </trkpt>
      <trkpt lat="45.843708" lon="8.404787">
        <ele>304.310</ele>
        <time>2020-08-23T09:25:22Z</time>
      </trkpt>
      <trkpt lat="45.842580" lon="8.404053">
        <ele>304.308</ele>
        <time>2020-08-23T09:25:43Z</time>
      </trkpt>
      <trkpt lat="45.841420" lon="8.403485">
        <ele>304.329</ele>
        <time>2020-08-23T09:26:03Z</time>
      </trkpt>
      <trkpt lat="45.840566" lon="8.402776">
        <ele>304.379</ele>
        <time>2020-08-23T09:26:19Z</time>
      </trkpt>
      <trkpt lat="45.840032" lon="8.402297">
        <ele>302.978</ele>
        <time>2020-08-23T09:26:29Z</time>
      </trkpt>
      <trkpt lat="45.839040" lon="8.401365">
        <ele>302.468</ele>
        <time>2020-08-23T09:26:48Z</time>
      </trkpt>
      <trkpt lat="45.838568" lon="8.400494">
        <ele>302.465</ele>
        <time>2020-08-23T09:27:01Z</time>
      </trkpt>
      <trkpt lat="45.838423" lon="8.400252">
        <ele>302.477</ele>
        <time>2020-08-23T09:27:05Z</time>
      </trkpt>
      <trkpt lat="45.838340" lon="8.400158">
        <ele>302.495</ele>
        <time>2020-08-23T09:27:07Z</time>
      </trkpt>
      <trkpt lat="45.838292" lon="8.400120">
        <ele>302.432</ele>
        <time>2020-08-23T09:27:08Z</time>
      </trkpt>
      <trkpt lat="45.838241" lon="8.400090">
        <ele>302.471</ele>
        <time>2020-08-23T09:27:09Z</time>
      </trkpt>
      <trkpt lat="45.837230" lon="8.399796">
        <ele>302.441</ele>
        <time>2020-08-23T09:27:27Z</time>
      </trkpt>
      <trkpt lat="45.836371" lon="8.399830">
        <ele>301.915</ele>
        <time>2020-08-23T09:27:41Z</time>
      </trkpt>
      <trkpt lat="45.835327" lon="8.399279">
        <ele>301.508</ele>
        <time>2020-08-23T09:27:59Z</time>
      </trkpt>
      <trkpt lat="45.834617" lon="8.398673">
        <ele>301.522</ele>
        <time>2020-08-23T09:28:12Z</time>
      </trkpt>
      <trkpt lat="45.833794" lon="8.398337">
        <ele>301.542</ele>
        <time>2020-08-23T09:28:26Z</time>
      </trkpt>
      <trkpt lat="45.833461" lon="8.398197">
        <ele>301.571</ele>
        <time>2020-08-23T09:28:32Z</time>
      </trkpt>
      <trkpt lat="45.832777" lon="8.397521">
        <ele>301.041</ele>
        <time>2020-08-23T09:28:46Z</time>
      </trkpt>
      <trkpt lat="45.832525" lon="8.397036">
        <ele>301.018</ele>
        <time>2020-08-23T09:28:55Z</time>
      </trkpt>
      <trkpt lat="45.832533" lon="8.396994">
        <ele>300.590</ele>
        <time>2020-08-23T09:29:04Z</time>
      </trkpt>
      <trkpt lat="45.832536" lon="8.397001">
        <ele>300.068</ele>
        <time>2020-08-23T09:29:38Z</time>
      </trkpt>
      <trkpt lat="45.832542" lon="8.397011">
        <ele>300.015</ele>
        <time>2020-08-23T09:30:02Z</time>
      </trkpt>
      <trkpt lat="45.832536" lon="8.397010">
        <ele>300.098</ele>
        <time>2020-08-23T09:30:32Z</time>
      </trkpt>
      <trkpt lat="45.832532" lon="8.397005">
        <ele>300.015</ele>
        <time>2020-08-23T09:30:55Z</time>
      </trkpt>
      <trkpt lat="45.832531" lon="8.397007">
        <ele>300.026</ele>
        <time>2020-08-23T09:31:25Z</time>
      </trkpt>
      <trkpt lat="45.832531" lon="8.397014">
        <ele>300.008</ele>
        <time>2020-08-23T09:31:50Z</time>
      </trkpt>
      <trkpt lat="45.832491" lon="8.397018">
        <ele>300.044</ele>
        <time>2020-08-23T09:32:14Z</time>
      </trkpt>
      <trkpt lat="45.832485" lon="8.397003">
        <ele>300.034</ele>
        <time>2020-08-23T09:32:22Z</time>
      </trkpt>
      <trkpt lat="45.832476" lon="8.396990">
        <ele>300.013</ele>
        <time>2020-08-23T09:32:23Z</time>
      </trkpt>
      <trkpt lat="45.832464" lon="8.396976">
        <ele>300.053</ele>
        <time>2020-08-23T09:32:24Z</time>
      </trkpt>
      <trkpt lat="45.832450" lon="8.396964">
        <ele>300.040</ele>
        <time>2020-08-23T09:32:25Z</time>
      </trkpt>
      <trkpt lat="45.832436" lon="8.396945">
        <ele>300.022</ele>
        <time>2020-08-23T09:32:26Z</time>
      </trkpt>
      <trkpt lat="45.832420" lon="8.396921">
        <ele>300.060</ele>
        <time>2020-08-23T09:32:27Z</time>
      </trkpt>
      <trkpt lat="45.832004" lon="8.396465">
        <ele>300.017</ele>
        <time>2020-08-23T09:32:40Z</time>
      </trkpt>
      <trkpt lat="45.831338" lon="8.395809">
        <ele>300.065</ele>
        <time>2020-08-23T09:32:55Z</time>
      </trkpt>
      <trkpt lat="45.830556" lon="8.395492">
        <ele>300.068</ele>
        <time>2020-08-23T09:33:09Z</time>
      </trkpt>
      <trkpt lat="45.829664" lon="8.395244">
        <ele>300.014</ele>
        <time>2020-08-23T09:33:25Z</time>
      </trkpt>
      <trkpt lat="45.829606" lon="8.395260">
        <ele>300.008</ele>
        <time>2020-08-23T09:33:26Z</time>
      </trkpt>
      <trkpt lat="45.829549" lon="8.395287">
        <ele>300.081</ele>
        <time>2020-08-23T09:33:27Z</time>
      </trkpt>
      <trkpt lat="45.829494" lon="8.395322">
        <ele>300.081</ele>
        <time>2020-08-23T09:33:28Z</time>
      </trkpt>
      <trkpt lat="45.829444" lon="8.395367">
        <ele>300.030</ele>
        <time>2020-08-23T09:33:29Z</time>
      </trkpt>
      <trkpt lat="45.829397" lon="8.395425">
        <ele>300.050</ele>
        <time>2020-08-23T09:33:30Z</time>
      </trkpt>
      <trkpt lat="45.829357" lon="8.395489">
        <ele>300.037</ele>
        <time>2020-08-23T09:33:31Z</time>
      </trkpt>
      <trkpt lat="45.829322" lon="8.395569">
        <ele>300.079</ele>
        <time>2020-08-23T09:33:32Z</time>
      </trkpt>
      <trkpt lat="45.829294" lon="8.395679">
        <ele>300.077</ele>
        <time>2020-08-23T09:33:34Z</time>
      </trkpt>
      <trkpt lat="45.829281" lon="8.395799">
        <ele>300.044</ele>
        <time>2020-08-23T09:33:35Z</time>
      </trkpt>
      <trkpt lat="45.829280" lon="8.395887">
        <ele>300.013</ele>
        <time>2020-08-23T09:33:36Z</time>
      </trkpt>
      <trkpt lat="45.829283" lon="8.395968">
        <ele>300.043</ele>
        <time>2020-08-23T09:33:37Z</time>
      </trkpt>
      <trkpt lat="45.829159" lon="8.396957">
        <ele>299.507</ele>
        <time>2020-08-23T09:33:49Z</time>
      </trkpt>
      <trkpt lat="45.829131" lon="8.397010">
        <ele>299.508</ele>
        <time>2020-08-23T09:33:50Z</time>
      </trkpt>
      <trkpt lat="45.829087" lon="8.397078">
        <ele>299.566</ele>
        <time>2020-08-23T09:33:51Z</time>
      </trkpt>
      <trkpt lat="45.829046" lon="8.397125">
        <ele>299.556</ele>
        <time>2020-08-23T09:33:52Z</time>
      </trkpt>
      <trkpt lat="45.828998" lon="8.397169">
        <ele>299.565</ele>
        <time>2020-08-23T09:33:53Z</time>
      </trkpt>
      <trkpt lat="45.828950" lon="8.397205">
        <ele>299.565</ele>
        <time>2020-08-23T09:33:54Z</time>
      </trkpt>
      <trkpt lat="45.828902" lon="8.397234">
        <ele>299.562</ele>
        <time>2020-08-23T09:33:55Z</time>
      </trkpt>
      <trkpt lat="45.828848" lon="8.397262">
        <ele>299.514</ele>
        <time>2020-08-23T09:33:56Z</time>
      </trkpt>
      <trkpt lat="45.828803" lon="8.397284">
        <ele>299.592</ele>
        <time>2020-08-23T09:33:57Z</time>
      </trkpt>
      <trkpt lat="45.828481" lon="8.397517">
        <ele>301.089</ele>
        <time>2020-08-23T09:34:04Z</time>
      </trkpt>
      <trkpt lat="45.827753" lon="8.398323">
        <ele>301.096</ele>
        <time>2020-08-23T09:34:21Z</time>
      </trkpt>
      <trkpt lat="45.826961" lon="8.399133">
        <ele>301.531</ele>
        <time>2020-08-23T09:34:39Z</time>
      </trkpt>
      <trkpt lat="45.826623" lon="8.399530">
        <ele>301.524</ele>
        <time>2020-08-23T09:34:47Z</time>
      </trkpt>
      <trkpt lat="45.826570" lon="8.399564">
        <ele>301.508</ele>
        <time>2020-08-23T09:34:48Z</time>
      </trkpt>
      <trkpt lat="45.825692" lon="8.399808">
        <ele>301.564</ele>
        <time>2020-08-23T09:35:04Z</time>
      </trkpt>
      <trkpt lat="45.824917" lon="8.400107">
        <ele>301.544</ele>
        <time>2020-08-23T09:35:18Z</time>
      </trkpt>
      <trkpt lat="45.824608" lon="8.400265">
        <ele>301.573</ele>
        <time>2020-08-23T09:35:24Z</time>
      </trkpt>
      <trkpt lat="45.824561" lon="8.400294">
        <ele>301.563</ele>
        <time>2020-08-23T09:35:25Z</time>
      </trkpt>
      <trkpt lat="45.823750" lon="8.400705">
        <ele>301.970</ele>
        <time>2020-08-23T09:35:41Z</time>
      </trkpt>
      <trkpt lat="45.822845" lon="8.401241">
        <ele>302.432</ele>
        <time>2020-08-23T09:35:59Z</time>
      </trkpt>
      <trkpt lat="45.822094" lon="8.402167">
        <ele>302.460</ele>
        <time>2020-08-23T09:36:17Z</time>
      </trkpt>
      <trkpt lat="45.821364" lon="8.403124">
        <ele>302.927</ele>
        <time>2020-08-23T09:36:35Z</time>
      </trkpt>
      <trkpt lat="45.820486" lon="8.404287">
        <ele>302.972</ele>
        <time>2020-08-23T09:36:56Z</time>
      </trkpt>
      <trkpt lat="45.819781" lon="8.405223">
        <ele>303.913</ele>
        <time>2020-08-23T09:37:14Z</time>
      </trkpt>
      <trkpt lat="45.819017" lon="8.406218">
        <ele>305.314</ele>
        <time>2020-08-23T09:37:33Z</time>
      </trkpt>
      <trkpt lat="45.818277" lon="8.407197">
        <ele>306.808</ele>
        <time>2020-08-23T09:37:52Z</time>
      </trkpt>
      <trkpt lat="45.817494" lon="8.408034">
        <ele>308.252</ele>
        <time>2020-08-23T09:38:10Z</time>
      </trkpt>
      <trkpt lat="45.816831" lon="8.408446">
        <ele>308.772</ele>
        <time>2020-08-23T09:38:23Z</time>
      </trkpt>
      <trkpt lat="45.815709" lon="8.409148">
        <ele>307.231</ele>
        <time>2020-08-23T09:38:43Z</time>
      </trkpt>
      <trkpt lat="45.814543" lon="8.409879">
        <ele>305.891</ele>
        <time>2020-08-23T09:39:03Z</time>
      </trkpt>
      <trkpt lat="45.813277" lon="8.410677">
        <ele>304.858</ele>
        <time>2020-08-23T09:39:24Z</time>
      </trkpt>
      <trkpt lat="45.812070" lon="8.411439">
        <ele>303.460</ele>
        <time>2020-08-23T09:39:44Z</time>
      </trkpt>
      <trkpt lat="45.810998" lon="8.411954">
        <ele>302.478</ele>
        <time>2020-08-23T09:40:00Z</time>
      </trkpt>
      <trkpt lat="45.809964" lon="8.412377">
        <ele>301.925</ele>
        <time>2020-08-23T09:40:16Z</time>
      </trkpt>
      <trkpt lat="45.809506" lon="8.412850">
        <ele>301.518</ele>
        <time>2020-08-23T09:40:25Z</time>
      </trkpt>
      <trkpt lat="45.809149" lon="8.413085">
        <ele>301.598</ele>
        <time>2020-08-23T09:40:32Z</time>
      </trkpt>
      <trkpt lat="45.809114" lon="8.413132">
        <ele>301.517</ele>
        <time>2020-08-23T09:40:33Z</time>
      </trkpt>
      <trkpt lat="45.808921" lon="8.413434">
        <ele>301.008</ele>
        <time>2020-08-23T09:40:39Z</time>
      </trkpt>
      <trkpt lat="45.808260" lon="8.414417">
        <ele>301.026</ele>
        <time>2020-08-23T09:40:55Z</time>
      </trkpt>
      <trkpt lat="45.807406" lon="8.415389">
        <ele>301.046</ele>
        <time>2020-08-23T09:41:11Z</time>
      </trkpt>
      <trkpt lat="45.806310" lon="8.416633">
        <ele>301.025</ele>
        <time>2020-08-23T09:41:31Z</time>
      </trkpt>
      <trkpt lat="45.805349" lon="8.417871">
        <ele>301.025</ele>
        <time>2020-08-23T09:41:50Z</time>
      </trkpt>
      <trkpt lat="45.804571" lon="8.419032">
        <ele>301.052</ele>
        <time>2020-08-23T09:42:06Z</time>
      </trkpt>
      <trkpt lat="45.803830" lon="8.419601">
        <ele>301.014</ele>
        <time>2020-08-23T09:42:19Z</time>
      </trkpt>
      <trkpt lat="45.802791" lon="8.420135">
        <ele>301.022</ele>
        <time>2020-08-23T09:42:35Z</time>
      </trkpt>
      <trkpt lat="45.801917" lon="8.420570">
        <ele>301.099</ele>
        <time>2020-08-23T09:42:51Z</time>
      </trkpt>
      <trkpt lat="45.801516" lon="8.420758">
        <ele>301.093</ele>
        <time>2020-08-23T09:42:59Z</time>
      </trkpt>
      <trkpt lat="45.801117" lon="8.420791">
        <ele>301.065</ele>
        <time>2020-08-23T09:43:07Z</time>
      </trkpt>
      <trkpt lat="45.801034" lon="8.420763">
        <ele>301.921</ele>
        <time>2020-08-23T09:43:09Z</time>
      </trkpt>
      <trkpt lat="45.800571" lon="8.420422">
        <ele>304.308</ele>
        <time>2020-08-23T09:43:24Z</time>
      </trkpt>
      <trkpt lat="45.800059" lon="8.419968">
        <ele>307.744</ele>
        <time>2020-08-23T09:43:43Z</time>
      </trkpt>
      <trkpt lat="45.799644" lon="8.419625">
        <ele>309.684</ele>
        <time>2020-08-23T09:43:58Z</time>
      </trkpt>
      <trkpt lat="45.799188" lon="8.419245">
        <ele>312.093</ele>
        <time>2020-08-23T09:44:15Z</time>
      </trkpt>
      <trkpt lat="45.798658" lon="8.418787">
        <ele>314.453</ele>
        <time>2020-08-23T09:44:33Z</time>
      </trkpt>
      <trkpt lat="45.798275" lon="8.418475">
        <ele>316.430</ele>
        <time>2020-08-23T09:44:47Z</time>
      </trkpt>
      <trkpt lat="45.797809" lon="8.418037">
        <ele>318.872</ele>
        <time>2020-08-23T09:45:04Z</time>
      </trkpt>
      <trkpt lat="45.797262" lon="8.417564">
        <ele>321.270</ele>
        <time>2020-08-23T09:45:24Z</time>
      </trkpt>
      <trkpt lat="45.796845" lon="8.417193">
        <ele>324.177</ele>
        <time>2020-08-23T09:45:39Z</time>
      </trkpt>
      <trkpt lat="45.796603" lon="8.416884">
        <ele>325.032</ele>
        <time>2020-08-23T09:45:53Z</time>
      </trkpt>
      <trkpt lat="45.796568" lon="8.416833">
        <ele>325.592</ele>
        <time>2020-08-23T09:46:05Z</time>
      </trkpt>
      <trkpt lat="45.796563" lon="8.416798">
        <ele>325.511</ele>
        <time>2020-08-23T09:46:08Z</time>
      </trkpt>
      <trkpt lat="45.796562" lon="8.416782">
        <ele>325.508</ele>
        <time>2020-08-23T09:46:09Z</time>
      </trkpt>
      <trkpt lat="45.796564" lon="8.416763">
        <ele>325.558</ele>
        <time>2020-08-23T09:46:10Z</time>
      </trkpt>
      <trkpt lat="45.796614" lon="8.416622">
        <ele>326.078</ele>
        <time>2020-08-23T09:46:26Z</time>
      </trkpt>
      <trkpt lat="45.796617" lon="8.416620">
        <ele>326.057</ele>
        <time>2020-08-23T09:46:56Z</time>
      </trkpt>
      <trkpt lat="45.796635" lon="8.416549">
        <ele>326.037</ele>
        <time>2020-08-23T09:47:09Z</time>
      </trkpt>
      <trkpt lat="45.796623" lon="8.416530">
        <ele>326.054</ele>
        <time>2020-08-23T09:47:10Z</time>
      </trkpt>
      <trkpt lat="45.796598" lon="8.416525">
        <ele>326.056</ele>
        <time>2020-08-23T09:47:11Z</time>
      </trkpt>
      <trkpt lat="45.796579" lon="8.416545">
        <ele>326.074</ele>
        <time>2020-08-23T09:47:12Z</time>
      </trkpt>
      <trkpt lat="45.796560" lon="8.416580">
        <ele>326.011</ele>
        <time>2020-08-23T09:47:13Z</time>
      </trkpt>
      <trkpt lat="45.796542" lon="8.416613">
        <ele>326.064</ele>
        <time>2020-08-23T09:47:14Z</time>
      </trkpt>
      <trkpt lat="45.796211" lon="8.416673">
        <ele>326.506</ele>
        <time>2020-08-23T09:47:25Z</time>
      </trkpt>
      <trkpt lat="45.795928" lon="8.416456">
        <ele>326.516</ele>
        <time>2020-08-23T09:47:33Z</time>
      </trkpt>
      <trkpt lat="45.795889" lon="8.416432">
        <ele>326.508</ele>
        <time>2020-08-23T09:47:34Z</time>
      </trkpt>
      <trkpt lat="45.795547" lon="8.416332">
        <ele>325.531</ele>
        <time>2020-08-23T09:47:41Z</time>
      </trkpt>
      <trkpt lat="45.795493" lon="8.416335">
        <ele>325.511</ele>
        <time>2020-08-23T09:47:42Z</time>
      </trkpt>
      <trkpt lat="45.795305" lon="8.416394">
        <ele>324.170</ele>
        <time>2020-08-23T09:47:45Z</time>
      </trkpt>
      <trkpt lat="45.795245" lon="8.416425">
        <ele>324.150</ele>
        <time>2020-08-23T09:47:46Z</time>
      </trkpt>
      <trkpt lat="45.795179" lon="8.416466">
        <ele>324.167</ele>
        <time>2020-08-23T09:47:47Z</time>
      </trkpt>
      <trkpt lat="45.794534" lon="8.416939">
        <ele>320.279</ele>
        <time>2020-08-23T09:47:56Z</time>
      </trkpt>
      <trkpt lat="45.793832" lon="8.417480">
        <ele>317.367</ele>
        <time>2020-08-23T09:48:05Z</time>
      </trkpt>
      <trkpt lat="45.793659" lon="8.417574">
        <ele>315.974</ele>
        <time>2020-08-23T09:48:07Z</time>
      </trkpt>
      <trkpt lat="45.793567" lon="8.417593">
        <ele>315.991</ele>
        <time>2020-08-23T09:48:08Z</time>
      </trkpt>
      <trkpt lat="45.793475" lon="8.417592">
        <ele>315.481</ele>
        <time>2020-08-23T09:48:09Z</time>
      </trkpt>
      <trkpt lat="45.793388" lon="8.417568">
        <ele>315.419</ele>
        <time>2020-08-23T09:48:10Z</time>
      </trkpt>
      <trkpt lat="45.793307" lon="8.417535">
        <ele>314.908</ele>
        <time>2020-08-23T09:48:11Z</time>
      </trkpt>
      <trkpt lat="45.793233" lon="8.417504">
        <ele>314.484</ele>
        <time>2020-08-23T09:48:12Z</time>
      </trkpt>
      <trkpt lat="45.793103" lon="8.417468">
        <ele>314.064</ele>
        <time>2020-08-23T09:48:14Z</time>
      </trkpt>
      <trkpt lat="45.792992" lon="8.417463">
        <ele>313.543</ele>
        <time>2020-08-23T09:48:16Z</time>
      </trkpt>
      <trkpt lat="45.792851" lon="8.417489">
        <ele>313.013</ele>
        <time>2020-08-23T09:48:19Z</time>
      </trkpt>
      <trkpt lat="45.792805" lon="8.417506">
        <ele>312.070</ele>
        <time>2020-08-23T09:48:20Z</time>
      </trkpt>
      <trkpt lat="45.792759" lon="8.417528">
        <ele>312.022</ele>
        <time>2020-08-23T09:48:21Z</time>
      </trkpt>
      <trkpt lat="45.792506" lon="8.417650">
        <ele>310.650</ele>
        <time>2020-08-23T09:48:28Z</time>
      </trkpt>
      <trkpt lat="45.792492" lon="8.417630">
        <ele>310.127</ele>
        <time>2020-08-23T09:48:29Z</time>
      </trkpt>
      <trkpt lat="45.792484" lon="8.417607">
        <ele>310.141</ele>
        <time>2020-08-23T09:48:30Z</time>
      </trkpt>
      <trkpt lat="45.792488" lon="8.417587">
        <ele>309.681</ele>
        <time>2020-08-23T09:48:44Z</time>
      </trkpt>
      <trkpt lat="45.792496" lon="8.417570">
        <ele>309.609</ele>
        <time>2020-08-23T09:49:16Z</time>
      </trkpt>
      <trkpt lat="45.792512" lon="8.417586">
        <ele>309.608</ele>
        <time>2020-08-23T09:49:26Z</time>
      </trkpt>
      <trkpt lat="45.792482" lon="8.417677">
        <ele>310.149</ele>
        <time>2020-08-23T09:49:34Z</time>
      </trkpt>
      <trkpt lat="45.792180" lon="8.417891">
        <ele>309.659</ele>
        <time>2020-08-23T09:49:43Z</time>
      </trkpt>
      <trkpt lat="45.791412" lon="8.418394">
        <ele>306.818</ele>
        <time>2020-08-23T09:49:56Z</time>
      </trkpt>
      <trkpt lat="45.790648" lon="8.418894">
        <ele>303.948</ele>
        <time>2020-08-23T09:50:07Z</time>
      </trkpt>
      <trkpt lat="45.790279" lon="8.419132">
        <ele>302.455</ele>
        <time>2020-08-23T09:50:12Z</time>
      </trkpt>
      <trkpt lat="45.789542" lon="8.419617">
        <ele>300.537</ele>
        <time>2020-08-23T09:50:22Z</time>
      </trkpt>
      <trkpt lat="45.789466" lon="8.419656">
        <ele>300.585</ele>
        <time>2020-08-23T09:50:23Z</time>
      </trkpt>
      <trkpt lat="45.789401" lon="8.419712">
        <ele>300.512</ele>
        <time>2020-08-23T09:50:24Z</time>
      </trkpt>
      <trkpt lat="45.789343" lon="8.419775">
        <ele>300.538</ele>
        <time>2020-08-23T09:50:25Z</time>
      </trkpt>
      <trkpt lat="45.789291" lon="8.419838">
        <ele>300.570</ele>
        <time>2020-08-23T09:50:26Z</time>
      </trkpt>
      <trkpt lat="45.788985" lon="8.420243">
        <ele>300.517</ele>
        <time>2020-08-23T09:50:32Z</time>
      </trkpt>
      <trkpt lat="45.788916" lon="8.420300">
        <ele>300.008</ele>
        <time>2020-08-23T09:50:33Z</time>
      </trkpt>
      <trkpt lat="45.788865" lon="8.420332">
        <ele>300.068</ele>
        <time>2020-08-23T09:50:34Z</time>
      </trkpt>
      <trkpt lat="45.788792" lon="8.420369">
        <ele>300.088</ele>
        <time>2020-08-23T09:50:35Z</time>
      </trkpt>
      <trkpt lat="45.788734" lon="8.420393">
        <ele>300.097</ele>
        <time>2020-08-23T09:50:36Z</time>
      </trkpt>
      <trkpt lat="45.787939" lon="8.420703">
        <ele>300.067</ele>
        <time>2020-08-23T09:50:49Z</time>
      </trkpt>
      <trkpt lat="45.787833" lon="8.420761">
        <ele>300.034</ele>
        <time>2020-08-23T09:50:51Z</time>
      </trkpt>
      <trkpt lat="45.787785" lon="8.420796">
        <ele>300.086</ele>
        <time>2020-08-23T09:50:52Z</time>
      </trkpt>
      <trkpt lat="45.787734" lon="8.420839">
        <ele>300.084</ele>
        <time>2020-08-23T09:50:53Z</time>
      </trkpt>
      <trkpt lat="45.787681" lon="8.420897">
        <ele>300.071</ele>
        <time>2020-08-23T09:50:54Z</time>
      </trkpt>
      <trkpt lat="45.787644" lon="8.420947">
        <ele>300.066</ele>
        <time>2020-08-23T09:50:55Z</time>
      </trkpt>
      <trkpt lat="45.787599" lon="8.421017">
        <ele>300.029</ele>
        <time>2020-08-23T09:50:56Z</time>
      </trkpt>
      <trkpt lat="45.787569" lon="8.421071">
        <ele>300.021</ele>
        <time>2020-08-23T09:50:57Z</time>
      </trkpt>
      <trkpt lat="45.787536" lon="8.421139">
        <ele>300.008</ele>
        <time>2020-08-23T09:50:58Z</time>
      </trkpt>
      <trkpt lat="45.787508" lon="8.421209">
        <ele>300.031</ele>
        <time>2020-08-23T09:50:59Z</time>
      </trkpt>
      <trkpt lat="45.787481" lon="8.421280">
        <ele>300.091</ele>
        <time>2020-08-23T09:51:00Z</time>
      </trkpt>
      <trkpt lat="45.787225" lon="8.421921">
        <ele>300.070</ele>
        <time>2020-08-23T09:51:09Z</time>
      </trkpt>
      <trkpt lat="45.787187" lon="8.421981">
        <ele>300.060</ele>
        <time>2020-08-23T09:51:10Z</time>
      </trkpt>
      <trkpt lat="45.787143" lon="8.422036">
        <ele>300.087</ele>
        <time>2020-08-23T09:51:11Z</time>
      </trkpt>
      <trkpt lat="45.787096" lon="8.422084">
        <ele>300.059</ele>
        <time>2020-08-23T09:51:12Z</time>
      </trkpt>
      <trkpt lat="45.787046" lon="8.422119">
        <ele>300.057</ele>
        <time>2020-08-23T09:51:13Z</time>
      </trkpt>
      <trkpt lat="45.786993" lon="8.422147">
        <ele>300.044</ele>
        <time>2020-08-23T09:51:14Z</time>
      </trkpt>
      <trkpt lat="45.786890" lon="8.422184">
        <ele>300.033</ele>
        <time>2020-08-23T09:51:16Z</time>
      </trkpt>
      <trkpt lat="45.786840" lon="8.422191">
        <ele>300.023</ele>
        <time>2020-08-23T09:51:17Z</time>
      </trkpt>
      <trkpt lat="45.786786" lon="8.422193">
        <ele>300.015</ele>
        <time>2020-08-23T09:51:18Z</time>
      </trkpt>
      <trkpt lat="45.786603" lon="8.422191">
        <ele>300.008</ele>
        <time>2020-08-23T09:51:21Z</time>
      </trkpt>
      <trkpt lat="45.786443" lon="8.422237">
        <ele>300.098</ele>
        <time>2020-08-23T09:51:24Z</time>
      </trkpt>
      <trkpt lat="45.786390" lon="8.422270">
        <ele>300.088</ele>
        <time>2020-08-23T09:51:25Z</time>
      </trkpt>
      <trkpt lat="45.785678" lon="8.422919">
        <ele>301.527</ele>
        <time>2020-08-23T09:51:41Z</time>
      </trkpt>
      <trkpt lat="45.784946" lon="8.423638">
        <ele>302.937</ele>
        <time>2020-08-23T09:51:59Z</time>
      </trkpt>
      <trkpt lat="45.784091" lon="8.424257">
        <ele>301.514</ele>
        <time>2020-08-23T09:52:16Z</time>
      </trkpt>
      <trkpt lat="45.783153" lon="8.424873">
        <ele>301.016</ele>
        <time>2020-08-23T09:52:34Z</time>
      </trkpt>
      <trkpt lat="45.782434" lon="8.425564">
        <ele>301.034</ele>
        <time>2020-08-23T09:52:51Z</time>
      </trkpt>
      <trkpt lat="45.781787" lon="8.425952">
        <ele>301.071</ele>
        <time>2020-08-23T09:53:04Z</time>
      </trkpt>
      <trkpt lat="45.781625" lon="8.425970">
        <ele>301.024</ele>
        <time>2020-08-23T09:53:07Z</time>
      </trkpt>
      <trkpt lat="45.781517" lon="8.425961">
        <ele>301.004</ele>
        <time>2020-08-23T09:53:09Z</time>
      </trkpt>
      <trkpt lat="45.781208" lon="8.425958">
        <ele>301.014</ele>
        <time>2020-08-23T09:53:15Z</time>
      </trkpt>
      <trkpt lat="45.780184" lon="8.426134">
        <ele>301.008</ele>
        <time>2020-08-23T09:53:33Z</time>
      </trkpt>
      <trkpt lat="45.779291" lon="8.426395">
        <ele>301.037</ele>
        <time>2020-08-23T09:53:49Z</time>
      </trkpt>
      <trkpt lat="45.778229" lon="8.426880">
        <ele>301.097</ele>
        <time>2020-08-23T09:54:08Z</time>
      </trkpt>
      <trkpt lat="45.777160" lon="8.427396">
        <ele>301.096</ele>
        <time>2020-08-23T09:54:27Z</time>
      </trkpt>
      <trkpt lat="45.776580" lon="8.427982">
        <ele>301.036</ele>
        <time>2020-08-23T09:54:39Z</time>
      </trkpt>
      <trkpt lat="45.775779" lon="8.428987">
        <ele>301.033</ele>
        <time>2020-08-23T09:54:58Z</time>
      </trkpt>
      <trkpt lat="45.775224" lon="8.429805">
        <ele>301.025</ele>
        <time>2020-08-23T09:55:13Z</time>
      </trkpt>
      <trkpt lat="45.774934" lon="8.430275">
        <ele>300.513</ele>
        <time>2020-08-23T09:55:21Z</time>
      </trkpt>
      <trkpt lat="45.774338" lon="8.430817">
        <ele>300.540</ele>
        <time>2020-08-23T09:55:34Z</time>
      </trkpt>
      <trkpt lat="45.774282" lon="8.430837">
        <ele>300.596</ele>
        <time>2020-08-23T09:55:35Z</time>
      </trkpt>
      <trkpt lat="45.774222" lon="8.430848">
        <ele>300.531</ele>
        <time>2020-08-23T09:55:36Z</time>
      </trkpt>
      <trkpt lat="45.774165" lon="8.430852">
        <ele>300.524</ele>
        <time>2020-08-23T09:55:37Z</time>
      </trkpt>
      <trkpt lat="45.774109" lon="8.430849">
        <ele>300.008</ele>
        <time>2020-08-23T09:55:38Z</time>
      </trkpt>
      <trkpt lat="45.774056" lon="8.430837">
        <ele>300.044</ele>
        <time>2020-08-23T09:55:39Z</time>
      </trkpt>
      <trkpt lat="45.773992" lon="8.430815">
        <ele>300.054</ele>
        <time>2020-08-23T09:55:40Z</time>
      </trkpt>
      <trkpt lat="45.773950" lon="8.430793">
        <ele>300.083</ele>
        <time>2020-08-23T09:55:41Z</time>
      </trkpt>
      <trkpt lat="45.773896" lon="8.430755">
        <ele>300.083</ele>
        <time>2020-08-23T09:55:42Z</time>
      </trkpt>
      <trkpt lat="45.773594" lon="8.430441">
        <ele>300.040</ele>
        <time>2020-08-23T09:55:49Z</time>
      </trkpt>
      <trkpt lat="45.773505" lon="8.430273">
        <ele>300.082</ele>
        <time>2020-08-23T09:55:52Z</time>
      </trkpt>
      <trkpt lat="45.773482" lon="8.430213">
        <ele>300.030</ele>
        <time>2020-08-23T09:55:53Z</time>
      </trkpt>
      <trkpt lat="45.773435" lon="8.430052">
        <ele>300.057</ele>
        <time>2020-08-23T09:55:56Z</time>
      </trkpt>
      <trkpt lat="45.773236" lon="8.428806">
        <ele>301.543</ele>
        <time>2020-08-23T09:56:15Z</time>
      </trkpt>
      <trkpt lat="45.773179" lon="8.428436">
        <ele>301.564</ele>
        <time>2020-08-23T09:56:20Z</time>
      </trkpt>
      <trkpt lat="45.773168" lon="8.428298">
        <ele>301.510</ele>
        <time>2020-08-23T09:56:22Z</time>
      </trkpt>
      <trkpt lat="45.773173" lon="8.428098">
        <ele>301.508</ele>
        <time>2020-08-23T09:56:25Z</time>
      </trkpt>
      <trkpt lat="45.773184" lon="8.428031">
        <ele>301.549</ele>
        <time>2020-08-23T09:56:26Z</time>
      </trkpt>
      <trkpt lat="45.773363" lon="8.427385">
        <ele>301.589</ele>
        <time>2020-08-23T09:56:36Z</time>
      </trkpt>
      <trkpt lat="45.773377" lon="8.427319">
        <ele>301.918</ele>
        <time>2020-08-23T09:56:37Z</time>
      </trkpt>
      <trkpt lat="45.773398" lon="8.427189">
        <ele>301.518</ele>
        <time>2020-08-23T09:56:39Z</time>
      </trkpt>
      <trkpt lat="45.773372" lon="8.426755">
        <ele>301.545</ele>
        <time>2020-08-23T09:56:49Z</time>
      </trkpt>
      <trkpt lat="45.773243" lon="8.426299">
        <ele>301.577</ele>
        <time>2020-08-23T09:56:57Z</time>
      </trkpt>
      <trkpt lat="45.773097" lon="8.425882">
        <ele>301.585</ele>
        <time>2020-08-23T09:57:06Z</time>
      </trkpt>
      <trkpt lat="45.773096" lon="8.425859">
        <ele>301.542</ele>
        <time>2020-08-23T09:57:07Z</time>
      </trkpt>
      <trkpt lat="45.773084" lon="8.425830">
        <ele>301.597</ele>
        <time>2020-08-23T09:57:17Z</time>
      </trkpt>
      <trkpt lat="45.773077" lon="8.425827">
        <ele>301.523</ele>
        <time>2020-08-23T09:57:46Z</time>
      </trkpt>
      <trkpt lat="45.773085" lon="8.425824">
        <ele>301.525</ele>
        <time>2020-08-23T09:58:03Z</time>
      </trkpt>
      <trkpt lat="45.773096" lon="8.425832">
        <ele>301.508</ele>
        <time>2020-08-23T09:58:26Z</time>
      </trkpt>
      <trkpt lat="45.773097" lon="8.425842">
        <ele>301.564</ele>
        <time>2020-08-23T09:58:48Z</time>
      </trkpt>
      <trkpt lat="45.773100" lon="8.425842">
        <ele>301.544</ele>
        <time>2020-08-23T09:59:07Z</time>
      </trkpt>
      <trkpt lat="45.773104" lon="8.425834">
        <ele>301.513</ele>
        <time>2020-08-23T09:59:30Z</time>
      </trkpt>
      <trkpt lat="45.773075" lon="8.425809">
        <ele>301.573</ele>
        <time>2020-08-23T09:59:41Z</time>
      </trkpt>
      <trkpt lat="45.773068" lon="8.425790">
        <ele>301.540</ele>
        <time>2020-08-23T09:59:42Z</time>
      </trkpt>
      <trkpt lat="45.773060" lon="8.425771">
        <ele>301.522</ele>
        <time>2020-08-23T09:59:43Z</time>
      </trkpt>
      <trkpt lat="45.773049" lon="8.425742">
        <ele>301.590</ele>
        <time>2020-08-23T09:59:44Z</time>
      </trkpt>
      <trkpt lat="45.773037" lon="8.425709">
        <ele>301.537</ele>
        <time>2020-08-23T09:59:45Z</time>
      </trkpt>
      <trkpt lat="45.772789" lon="8.425383">
        <ele>301.994</ele>
        <time>2020-08-23T09:59:55Z</time>
      </trkpt>
      <trkpt lat="45.772710" lon="8.425354">
        <ele>301.957</ele>
        <time>2020-08-23T09:59:57Z</time>
      </trkpt>
      <trkpt lat="45.772668" lon="8.425351">
        <ele>301.922</ele>
        <time>2020-08-23T09:59:58Z</time>
      </trkpt>
      <trkpt lat="45.772623" lon="8.425352">
        <ele>301.908</ele>
        <time>2020-08-23T09:59:59Z</time>
      </trkpt>
      <trkpt lat="45.771814" lon="8.425445">
        <ele>302.424</ele>
        <time>2020-08-23T10:00:16Z</time>
      </trkpt>
      <trkpt lat="45.770835" lon="8.425436">
        <ele>302.484</ele>
        <time>2020-08-23T10:00:35Z</time>
      </trkpt>
      <trkpt lat="45.770194" lon="8.425543">
        <ele>301.983</ele>
        <time>2020-08-23T10:00:47Z</time>
      </trkpt>
      <trkpt lat="45.770139" lon="8.425567">
        <ele>301.993</ele>
        <time>2020-08-23T10:00:48Z</time>
      </trkpt>
      <trkpt lat="45.770098" lon="8.425598">
        <ele>301.950</ele>
        <time>2020-08-23T10:00:49Z</time>
      </trkpt>
      <trkpt lat="45.770057" lon="8.425642">
        <ele>301.962</ele>
        <time>2020-08-23T10:00:50Z</time>
      </trkpt>
      <trkpt lat="45.770020" lon="8.425693">
        <ele>301.940</ele>
        <time>2020-08-23T10:00:51Z</time>
      </trkpt>
      <trkpt lat="45.769988" lon="8.425750">
        <ele>302.437</ele>
        <time>2020-08-23T10:00:52Z</time>
      </trkpt>
      <trkpt lat="45.769967" lon="8.425815">
        <ele>302.454</ele>
        <time>2020-08-23T10:00:53Z</time>
      </trkpt>
      <trkpt lat="45.769954" lon="8.425886">
        <ele>302.456</ele>
        <time>2020-08-23T10:00:54Z</time>
      </trkpt>
      <trkpt lat="45.769948" lon="8.425962">
        <ele>302.411</ele>
        <time>2020-08-23T10:00:55Z</time>
      </trkpt>
      <trkpt lat="45.769950" lon="8.426040">
        <ele>302.408</ele>
        <time>2020-08-23T10:00:56Z</time>
      </trkpt>
      <trkpt lat="45.769956" lon="8.426119">
        <ele>302.440</ele>
        <time>2020-08-23T10:00:57Z</time>
      </trkpt>
      <trkpt lat="45.769964" lon="8.426202">
        <ele>302.480</ele>
        <time>2020-08-23T10:00:58Z</time>
      </trkpt>
      <trkpt lat="45.769968" lon="8.426284">
        <ele>302.479</ele>
        <time>2020-08-23T10:00:59Z</time>
      </trkpt>
      <trkpt lat="45.769965" lon="8.426368">
        <ele>302.459</ele>
        <time>2020-08-23T10:01:00Z</time>
      </trkpt>
      <trkpt lat="45.769959" lon="8.426451">
        <ele>302.426</ele>
        <time>2020-08-23T10:01:01Z</time>
      </trkpt>
      <trkpt lat="45.769935" lon="8.426616">
        <ele>302.428</ele>
        <time>2020-08-23T10:01:03Z</time>
      </trkpt>
      <trkpt lat="45.769917" lon="8.426692">
        <ele>302.436</ele>
        <time>2020-08-23T10:01:04Z</time>
      </trkpt>
      <trkpt lat="45.769894" lon="8.426765">
        <ele>302.473</ele>
        <time>2020-08-23T10:01:05Z</time>
      </trkpt>
      <trkpt lat="45.769333" lon="8.427841">
        <ele>302.957</ele>
        <time>2020-08-23T10:01:22Z</time>
      </trkpt>
      <trkpt lat="45.768589" lon="8.428754">
        <ele>303.400</ele>
        <time>2020-08-23T10:01:41Z</time>
      </trkpt>
      <trkpt lat="45.768502" lon="8.428847">
        <ele>303.420</ele>
        <time>2020-08-23T10:01:43Z</time>
      </trkpt>
      <trkpt lat="45.768454" lon="8.428882">
        <ele>303.408</ele>
        <time>2020-08-23T10:01:44Z</time>
      </trkpt>
      <trkpt lat="45.768402" lon="8.428907">
        <ele>303.420</ele>
        <time>2020-08-23T10:01:45Z</time>
      </trkpt>
      <trkpt lat="45.768296" lon="8.428940">
        <ele>303.470</ele>
        <time>2020-08-23T10:01:47Z</time>
      </trkpt>
      <trkpt lat="45.768242" lon="8.428941">
        <ele>303.489</ele>
        <time>2020-08-23T10:01:48Z</time>
      </trkpt>
      <trkpt lat="45.767573" lon="8.428886">
        <ele>304.399</ele>
        <time>2020-08-23T10:02:02Z</time>
      </trkpt>
      <trkpt lat="45.767113" lon="8.429003">
        <ele>307.786</ele>
        <time>2020-08-23T10:02:15Z</time>
      </trkpt>
      <trkpt lat="45.766708" lon="8.429288">
        <ele>310.198</ele>
        <time>2020-08-23T10:02:27Z</time>
      </trkpt>
      <trkpt lat="45.766218" lon="8.429437">
        <ele>312.596</ele>
        <time>2020-08-23T10:02:40Z</time>
      </trkpt>
      <trkpt lat="45.765761" lon="8.429776">
        <ele>314.973</ele>
        <time>2020-08-23T10:02:57Z</time>
      </trkpt>
      <trkpt lat="45.765278" lon="8.430090">
        <ele>317.359</ele>
        <time>2020-08-23T10:03:15Z</time>
      </trkpt>
      <trkpt lat="45.764826" lon="8.430366">
        <ele>320.703</ele>
        <time>2020-08-23T10:03:31Z</time>
      </trkpt>
      <trkpt lat="45.764263" lon="8.430624">
        <ele>323.123</ele>
        <time>2020-08-23T10:03:47Z</time>
      </trkpt>
      <trkpt lat="45.763846" lon="8.430363">
        <ele>326.508</ele>
        <time>2020-08-23T10:04:00Z</time>
      </trkpt>
      <trkpt lat="45.763537" lon="8.430032">
        <ele>328.410</ele>
        <time>2020-08-23T10:04:13Z</time>
      </trkpt>
      <trkpt lat="45.763225" lon="8.429558">
        <ele>330.310</ele>
        <time>2020-08-23T10:04:28Z</time>
      </trkpt>
      <trkpt lat="45.763004" lon="8.428825">
        <ele>333.249</ele>
        <time>2020-08-23T10:04:45Z</time>
      </trkpt>
      <trkpt lat="45.762702" lon="8.428539">
        <ele>335.659</ele>
        <time>2020-08-23T10:04:58Z</time>
      </trkpt>
      <trkpt lat="45.762325" lon="8.428751">
        <ele>337.066</ele>
        <time>2020-08-23T10:05:12Z</time>
      </trkpt>
      <trkpt lat="45.762083" lon="8.429461">
        <ele>339.498</ele>
        <time>2020-08-23T10:05:29Z</time>
      </trkpt>
      <trkpt lat="45.761665" lon="8.429730">
        <ele>342.886</ele>
        <time>2020-08-23T10:05:43Z</time>
      </trkpt>
      <trkpt lat="45.761262" lon="8.429912">
        <ele>344.793</ele>
        <time>2020-08-23T10:05:57Z</time>
      </trkpt>
      <trkpt lat="45.760769" lon="8.430153">
        <ele>347.659</ele>
        <time>2020-08-23T10:06:14Z</time>
      </trkpt>
      <trkpt lat="45.760265" lon="8.430115">
        <ele>350.503</ele>
        <time>2020-08-23T10:06:31Z</time>
      </trkpt>
      <trkpt lat="45.759789" lon="8.430190">
        <ele>352.423</ele>
        <time>2020-08-23T10:06:48Z</time>
      </trkpt>
      <trkpt lat="45.759278" lon="8.430466">
        <ele>355.308</ele>
        <time>2020-08-23T10:07:08Z</time>
      </trkpt>
      <trkpt lat="45.758945" lon="8.430748">
        <ele>356.320</ele>
        <time>2020-08-23T10:07:21Z</time>
      </trkpt>
      <trkpt lat="45.758344" lon="8.431171">
        <ele>358.260</ele>
        <time>2020-08-23T10:07:41Z</time>
      </trkpt>
      <trkpt lat="45.757737" lon="8.431579">
        <ele>360.189</ele>
        <time>2020-08-23T10:07:59Z</time>
      </trkpt>
      <trkpt lat="45.757076" lon="8.431865">
        <ele>362.569</ele>
        <time>2020-08-23T10:08:18Z</time>
      </trkpt>
      <trkpt lat="45.756489" lon="8.431800">
        <ele>364.426</ele>
        <time>2020-08-23T10:08:35Z</time>
      </trkpt>
      <trkpt lat="45.755897" lon="8.431653">
        <ele>365.418</ele>
        <time>2020-08-23T10:08:50Z</time>
      </trkpt>
      <trkpt lat="45.755221" lon="8.431559">
        <ele>364.056</ele>
        <time>2020-08-23T10:09:02Z</time>
      </trkpt>
      <trkpt lat="45.754213" lon="8.431486">
        <ele>361.553</ele>
        <time>2020-08-23T10:09:17Z</time>
      </trkpt>
      <trkpt lat="45.753531" lon="8.431550">
        <ele>361.134</ele>
        <time>2020-08-23T10:09:28Z</time>
      </trkpt>
      <trkpt lat="45.753476" lon="8.431581">
        <ele>361.155</ele>
        <time>2020-08-23T10:09:29Z</time>
      </trkpt>
      <trkpt lat="45.752392" lon="8.432240">
        <ele>359.610</ele>
        <time>2020-08-23T10:09:48Z</time>
      </trkpt>
      <trkpt lat="45.751791" lon="8.432600">
        <ele>358.708</ele>
        <time>2020-08-23T10:09:58Z</time>
      </trkpt>
      <trkpt lat="45.751729" lon="8.432611">
        <ele>358.758</ele>
        <time>2020-08-23T10:09:59Z</time>
      </trkpt>
      <trkpt lat="45.751666" lon="8.432609">
        <ele>358.778</ele>
        <time>2020-08-23T10:10:00Z</time>
      </trkpt>
      <trkpt lat="45.751602" lon="8.432594">
        <ele>358.747</ele>
        <time>2020-08-23T10:10:01Z</time>
      </trkpt>
      <trkpt lat="45.751538" lon="8.432566">
        <ele>357.787</ele>
        <time>2020-08-23T10:10:02Z</time>
      </trkpt>
      <trkpt lat="45.751479" lon="8.432527">
        <ele>357.724</ele>
        <time>2020-08-23T10:10:03Z</time>
      </trkpt>
      <trkpt lat="45.751424" lon="8.432481">
        <ele>357.766</ele>
        <time>2020-08-23T10:10:04Z</time>
      </trkpt>
      <trkpt lat="45.751367" lon="8.432420">
        <ele>357.754</ele>
        <time>2020-08-23T10:10:05Z</time>
      </trkpt>
      <trkpt lat="45.751321" lon="8.432364">
        <ele>357.781</ele>
        <time>2020-08-23T10:10:06Z</time>
      </trkpt>
      <trkpt lat="45.750921" lon="8.431877">
        <ele>356.785</ele>
        <time>2020-08-23T10:10:14Z</time>
      </trkpt>
      <trkpt lat="45.750882" lon="8.431778">
        <ele>357.289</ele>
        <time>2020-08-23T10:10:15Z</time>
      </trkpt>
      <trkpt lat="45.750834" lon="8.431631">
        <ele>357.217</ele>
        <time>2020-08-23T10:10:17Z</time>
      </trkpt>
      <trkpt lat="45.750789" lon="8.431578">
        <ele>357.208</ele>
        <time>2020-08-23T10:10:18Z</time>
      </trkpt>
      <trkpt lat="45.750730" lon="8.431550">
        <ele>357.283</ele>
        <time>2020-08-23T10:10:19Z</time>
      </trkpt>
      <trkpt lat="45.750679" lon="8.431541">
        <ele>357.283</ele>
        <time>2020-08-23T10:10:20Z</time>
      </trkpt>
      <trkpt lat="45.750626" lon="8.431534">
        <ele>357.222</ele>
        <time>2020-08-23T10:10:21Z</time>
      </trkpt>
      <trkpt lat="45.750568" lon="8.431522">
        <ele>357.262</ele>
        <time>2020-08-23T10:10:22Z</time>
      </trkpt>
      <trkpt lat="45.750518" lon="8.431502">
        <ele>357.289</ele>
        <time>2020-08-23T10:10:23Z</time>
      </trkpt>
      <trkpt lat="45.750469" lon="8.431472">
        <ele>357.281</ele>
        <time>2020-08-23T10:10:24Z</time>
      </trkpt>
      <trkpt lat="45.750424" lon="8.431436">
        <ele>357.229</ele>
        <time>2020-08-23T10:10:25Z</time>
      </trkpt>
      <trkpt lat="45.750381" lon="8.431397">
        <ele>357.286</ele>
        <time>2020-08-23T10:10:26Z</time>
      </trkpt>
      <trkpt lat="45.749592" lon="8.430757">
        <ele>359.659</ele>
        <time>2020-08-23T10:10:45Z</time>
      </trkpt>
      <trkpt lat="45.748701" lon="8.430032">
        <ele>359.603</ele>
        <time>2020-08-23T10:11:03Z</time>
      </trkpt>
      <trkpt lat="45.747633" lon="8.429529">
        <ele>358.223</ele>
        <time>2020-08-23T10:11:20Z</time>
      </trkpt>
      <trkpt lat="45.746598" lon="8.429620">
        <ele>356.708</ele>
        <time>2020-08-23T10:11:35Z</time>
      </trkpt>
      <trkpt lat="45.745589" lon="8.430275">
        <ele>355.820</ele>
        <time>2020-08-23T10:11:52Z</time>
      </trkpt>
      <trkpt lat="45.745256" lon="8.430554">
        <ele>353.950</ele>
        <time>2020-08-23T10:12:01Z</time>
      </trkpt>
      <trkpt lat="45.745116" lon="8.430591">
        <ele>353.929</ele>
        <time>2020-08-23T10:12:05Z</time>
      </trkpt>
      <trkpt lat="45.745084" lon="8.430639">
        <ele>353.989</ele>
        <time>2020-08-23T10:12:06Z</time>
      </trkpt>
      <trkpt lat="45.745064" lon="8.430691">
        <ele>353.996</ele>
        <time>2020-08-23T10:12:07Z</time>
      </trkpt>
      <trkpt lat="45.745050" lon="8.430759">
        <ele>353.938</ele>
        <time>2020-08-23T10:12:08Z</time>
      </trkpt>
      <trkpt lat="45.745042" lon="8.430834">
        <ele>353.966</ele>
        <time>2020-08-23T10:12:09Z</time>
      </trkpt>
      <trkpt lat="45.745032" lon="8.430909">
        <ele>353.923</ele>
        <time>2020-08-23T10:12:10Z</time>
      </trkpt>
      <trkpt lat="45.745014" lon="8.430990">
        <ele>353.935</ele>
        <time>2020-08-23T10:12:11Z</time>
      </trkpt>
      <trkpt lat="45.744989" lon="8.431065">
        <ele>353.986</ele>
        <time>2020-08-23T10:12:12Z</time>
      </trkpt>
      <trkpt lat="45.744894" lon="8.431300">
        <ele>353.914</ele>
        <time>2020-08-23T10:12:15Z</time>
      </trkpt>
      <trkpt lat="45.744854" lon="8.431376">
        <ele>353.908</ele>
        <time>2020-08-23T10:12:16Z</time>
      </trkpt>
      <trkpt lat="45.744001" lon="8.432945">
        <ele>352.498</ele>
        <time>2020-08-23T10:12:36Z</time>
      </trkpt>
      <trkpt lat="45.743071" lon="8.434551">
        <ele>351.588</ele>
        <time>2020-08-23T10:12:57Z</time>
      </trkpt>
      <trkpt lat="45.742431" lon="8.435792">
        <ele>351.527</ele>
        <time>2020-08-23T10:13:15Z</time>
      </trkpt>
      <trkpt lat="45.741761" lon="8.437122">
        <ele>351.017</ele>
        <time>2020-08-23T10:13:34Z</time>
      </trkpt>
      <trkpt lat="45.741499" lon="8.437634">
        <ele>350.534</ele>
        <time>2020-08-23T10:13:47Z</time>
      </trkpt>
      <trkpt lat="45.741512" lon="8.437634">
        <ele>350.026</ele>
        <time>2020-08-23T10:14:04Z</time>
      </trkpt>
      <trkpt lat="45.741362" lon="8.437853">
        <ele>350.064</ele>
        <time>2020-08-23T10:14:14Z</time>
      </trkpt>
      <trkpt lat="45.741329" lon="8.437889">
        <ele>350.011</ele>
        <time>2020-08-23T10:14:15Z</time>
      </trkpt>
      <trkpt lat="45.740680" lon="8.438285">
        <ele>350.041</ele>
        <time>2020-08-23T10:14:30Z</time>
      </trkpt>
      <trkpt lat="45.740151" lon="8.438509">
        <ele>351.581</ele>
        <time>2020-08-23T10:14:40Z</time>
      </trkpt>
      <trkpt lat="45.739218" lon="8.438814">
        <ele>351.509</ele>
        <time>2020-08-23T10:14:56Z</time>
      </trkpt>
      <trkpt lat="45.738017" lon="8.439266">
        <ele>350.008</ele>
        <time>2020-08-23T10:15:15Z</time>
      </trkpt>
      <trkpt lat="45.736743" lon="8.439768">
        <ele>349.129</ele>
        <time>2020-08-23T10:15:35Z</time>
      </trkpt>
      <trkpt lat="45.735908" lon="8.440071">
        <ele>349.199</ele>
        <time>2020-08-23T10:15:49Z</time>
      </trkpt>
      <trkpt lat="45.735854" lon="8.440069">
        <ele>349.158</ele>
        <time>2020-08-23T10:15:50Z</time>
      </trkpt>
      <trkpt lat="45.735794" lon="8.440052">
        <ele>349.148</ele>
        <time>2020-08-23T10:15:51Z</time>
      </trkpt>
      <trkpt lat="45.735682" lon="8.440022">
        <ele>349.145</ele>
        <time>2020-08-23T10:15:53Z</time>
      </trkpt>
      <trkpt lat="45.735636" lon="8.440025">
        <ele>349.157</ele>
        <time>2020-08-23T10:15:54Z</time>
      </trkpt>
      <trkpt lat="45.735582" lon="8.440042">
        <ele>349.195</ele>
        <time>2020-08-23T10:15:55Z</time>
      </trkpt>
      <trkpt lat="45.735531" lon="8.440076">
        <ele>349.112</ele>
        <time>2020-08-23T10:15:56Z</time>
      </trkpt>
      <trkpt lat="45.735486" lon="8.440124">
        <ele>349.169</ele>
        <time>2020-08-23T10:15:57Z</time>
      </trkpt>
      <trkpt lat="45.735448" lon="8.440186">
        <ele>349.104</ele>
        <time>2020-08-23T10:15:58Z</time>
      </trkpt>
      <trkpt lat="45.735410" lon="8.440257">
        <ele>349.124</ele>
        <time>2020-08-23T10:15:59Z</time>
      </trkpt>
      <trkpt lat="45.735365" lon="8.440323">
        <ele>349.108</ele>
        <time>2020-08-23T10:16:00Z</time>
      </trkpt>
      <trkpt lat="45.735326" lon="8.440364">
        <ele>349.111</ele>
        <time>2020-08-23T10:16:01Z</time>
      </trkpt>
      <trkpt lat="45.735275" lon="8.440402">
        <ele>349.181</ele>
        <time>2020-08-23T10:16:02Z</time>
      </trkpt>
      <trkpt lat="45.735222" lon="8.440433">
        <ele>349.110</ele>
        <time>2020-08-23T10:16:03Z</time>
      </trkpt>
      <trkpt lat="45.735169" lon="8.440463">
        <ele>349.120</ele>
        <time>2020-08-23T10:16:04Z</time>
      </trkpt>
      <trkpt lat="45.734664" lon="8.440727">
        <ele>348.677</ele>
        <time>2020-08-23T10:16:13Z</time>
      </trkpt>
      <trkpt lat="45.734604" lon="8.440755">
        <ele>348.639</ele>
        <time>2020-08-23T10:16:14Z</time>
      </trkpt>
      <trkpt lat="45.733549" lon="8.441482">
        <ele>347.157</ele>
        <time>2020-08-23T10:16:33Z</time>
      </trkpt>
      <trkpt lat="45.732551" lon="8.442173">
        <ele>345.274</ele>
        <time>2020-08-23T10:16:51Z</time>
      </trkpt>
      <trkpt lat="45.732497" lon="8.442215">
        <ele>345.279</ele>
        <time>2020-08-23T10:16:52Z</time>
      </trkpt>
      <trkpt lat="45.731387" lon="8.443001">
        <ele>345.205</ele>
        <time>2020-08-23T10:17:12Z</time>
      </trkpt>
      <trkpt lat="45.730438" lon="8.443560">
        <ele>344.225</ele>
        <time>2020-08-23T10:17:28Z</time>
      </trkpt>
      <trkpt lat="45.729345" lon="8.443928">
        <ele>343.808</ele>
        <time>2020-08-23T10:17:46Z</time>
      </trkpt>
      <trkpt lat="45.728201" lon="8.444341">
        <ele>343.352</ele>
        <time>2020-08-23T10:18:05Z</time>
      </trkpt>
      <trkpt lat="45.727131" lon="8.444787">
        <ele>342.322</ele>
        <time>2020-08-23T10:18:23Z</time>
      </trkpt>
      <trkpt lat="45.725795" lon="8.445366">
        <ele>340.451</ele>
        <time>2020-08-23T10:18:45Z</time>
      </trkpt>
      <trkpt lat="45.724707" lon="8.446058">
        <ele>338.551</ele>
        <time>2020-08-23T10:19:02Z</time>
      </trkpt>
      <trkpt lat="45.723437" lon="8.446969">
        <ele>337.588</ele>
        <time>2020-08-23T10:19:22Z</time>
      </trkpt>
      <trkpt lat="45.723383" lon="8.446992">
        <ele>337.570</ele>
        <time>2020-08-23T10:19:23Z</time>
      </trkpt>
      <trkpt lat="45.723322" lon="8.447005">
        <ele>337.018</ele>
        <time>2020-08-23T10:19:24Z</time>
      </trkpt>
      <trkpt lat="45.723272" lon="8.447007">
        <ele>337.035</ele>
        <time>2020-08-23T10:19:25Z</time>
      </trkpt>
      <trkpt lat="45.723220" lon="8.446999">
        <ele>337.038</ele>
        <time>2020-08-23T10:19:26Z</time>
      </trkpt>
      <trkpt lat="45.723168" lon="8.446981">
        <ele>337.070</ele>
        <time>2020-08-23T10:19:27Z</time>
      </trkpt>
      <trkpt lat="45.723118" lon="8.446958">
        <ele>337.017</ele>
        <time>2020-08-23T10:19:28Z</time>
      </trkpt>
      <trkpt lat="45.723065" lon="8.446937">
        <ele>337.008</ele>
        <time>2020-08-23T10:19:29Z</time>
      </trkpt>
      <trkpt lat="45.723011" lon="8.446930">
        <ele>337.098</ele>
        <time>2020-08-23T10:19:30Z</time>
      </trkpt>
      <trkpt lat="45.722956" lon="8.446936">
        <ele>337.088</ele>
        <time>2020-08-23T10:19:31Z</time>
      </trkpt>
      <trkpt lat="45.722896" lon="8.446958">
        <ele>337.057</ele>
        <time>2020-08-23T10:19:32Z</time>
      </trkpt>
      <trkpt lat="45.722851" lon="8.446988">
        <ele>337.087</ele>
        <time>2020-08-23T10:19:33Z</time>
      </trkpt>
      <trkpt lat="45.722806" lon="8.447035">
        <ele>337.014</ele>
        <time>2020-08-23T10:19:34Z</time>
      </trkpt>
      <trkpt lat="45.722768" lon="8.447093">
        <ele>337.086</ele>
        <time>2020-08-23T10:19:35Z</time>
      </trkpt>
      <trkpt lat="45.722735" lon="8.447161">
        <ele>337.064</ele>
        <time>2020-08-23T10:19:36Z</time>
      </trkpt>
      <trkpt lat="45.722707" lon="8.447229">
        <ele>337.021</ele>
        <time>2020-08-23T10:19:37Z</time>
      </trkpt>
      <trkpt lat="45.722681" lon="8.447306">
        <ele>337.014</ele>
        <time>2020-08-23T10:19:38Z</time>
      </trkpt>
      <trkpt lat="45.722656" lon="8.447383">
        <ele>337.054</ele>
        <time>2020-08-23T10:19:39Z</time>
      </trkpt>
      <trkpt lat="45.722625" lon="8.447459">
        <ele>337.009</ele>
        <time>2020-08-23T10:19:40Z</time>
      </trkpt>
      <trkpt lat="45.722594" lon="8.447516">
        <ele>337.008</ele>
        <time>2020-08-23T10:19:41Z</time>
      </trkpt>
      <trkpt lat="45.722563" lon="8.447565">
        <ele>337.026</ele>
        <time>2020-08-23T10:19:42Z</time>
      </trkpt>
      <trkpt lat="45.722507" lon="8.447635">
        <ele>337.036</ele>
        <time>2020-08-23T10:19:43Z</time>
      </trkpt>
      <trkpt lat="45.722462" lon="8.447678">
        <ele>337.025</ele>
        <time>2020-08-23T10:19:44Z</time>
      </trkpt>
      <trkpt lat="45.722416" lon="8.447717">
        <ele>336.125</ele>
        <time>2020-08-23T10:19:45Z</time>
      </trkpt>
      <trkpt lat="45.722365" lon="8.447756">
        <ele>336.142</ele>
        <time>2020-08-23T10:19:46Z</time>
      </trkpt>
      <trkpt lat="45.721432" lon="8.448443">
        <ele>336.114</ele>
        <time>2020-08-23T10:20:04Z</time>
      </trkpt>
      <trkpt lat="45.720430" lon="8.449163">
        <ele>335.692</ele>
        <time>2020-08-23T10:20:22Z</time>
      </trkpt>
      <trkpt lat="45.719098" lon="8.449877">
        <ele>332.799</ele>
        <time>2020-08-23T10:20:43Z</time>
      </trkpt>
      <trkpt lat="45.718294" lon="8.450228">
        <ele>332.263</ele>
        <time>2020-08-23T10:20:55Z</time>
      </trkpt>
      <trkpt lat="45.718231" lon="8.450223">
        <ele>332.244</ele>
        <time>2020-08-23T10:20:56Z</time>
      </trkpt>
      <trkpt lat="45.718173" lon="8.450202">
        <ele>331.718</ele>
        <time>2020-08-23T10:20:57Z</time>
      </trkpt>
      <trkpt lat="45.718064" lon="8.450154">
        <ele>331.708</ele>
        <time>2020-08-23T10:20:59Z</time>
      </trkpt>
      <trkpt lat="45.718014" lon="8.450152">
        <ele>331.781</ele>
        <time>2020-08-23T10:21:00Z</time>
      </trkpt>
      <trkpt lat="45.717959" lon="8.450167">
        <ele>331.731</ele>
        <time>2020-08-23T10:21:01Z</time>
      </trkpt>
      <trkpt lat="45.717911" lon="8.450202">
        <ele>331.770</ele>
        <time>2020-08-23T10:21:02Z</time>
      </trkpt>
      <trkpt lat="45.717868" lon="8.450260">
        <ele>331.790</ele>
        <time>2020-08-23T10:21:03Z</time>
      </trkpt>
      <trkpt lat="45.717835" lon="8.450323">
        <ele>331.727</ele>
        <time>2020-08-23T10:21:04Z</time>
      </trkpt>
      <trkpt lat="45.717805" lon="8.450390">
        <ele>331.729</ele>
        <time>2020-08-23T10:21:05Z</time>
      </trkpt>
      <trkpt lat="45.717729" lon="8.450518">
        <ele>331.387</ele>
        <time>2020-08-23T10:21:07Z</time>
      </trkpt>
      <trkpt lat="45.717684" lon="8.450560">
        <ele>331.364</ele>
        <time>2020-08-23T10:21:08Z</time>
      </trkpt>
      <trkpt lat="45.717625" lon="8.450596">
        <ele>331.371</ele>
        <time>2020-08-23T10:21:09Z</time>
      </trkpt>
      <trkpt lat="45.716518" lon="8.451136">
        <ele>329.841</ele>
        <time>2020-08-23T10:21:28Z</time>
      </trkpt>
      <trkpt lat="45.715376" lon="8.451687">
        <ele>329.815</ele>
        <time>2020-08-23T10:21:48Z</time>
      </trkpt>
      <trkpt lat="45.714283" lon="8.452181">
        <ele>329.308</ele>
        <time>2020-08-23T10:22:07Z</time>
      </trkpt>
      <trkpt lat="45.713938" lon="8.452343">
        <ele>328.932</ele>
        <time>2020-08-23T10:22:13Z</time>
      </trkpt>
      <trkpt lat="45.712878" lon="8.452897">
        <ele>326.992</ele>
        <time>2020-08-23T10:22:32Z</time>
      </trkpt>
      <trkpt lat="45.712819" lon="8.452901">
        <ele>326.951</ele>
        <time>2020-08-23T10:22:33Z</time>
      </trkpt>
      <trkpt lat="45.712761" lon="8.452890">
        <ele>326.921</ele>
        <time>2020-08-23T10:22:34Z</time>
      </trkpt>
      <trkpt lat="45.712704" lon="8.452876">
        <ele>326.938</ele>
        <time>2020-08-23T10:22:35Z</time>
      </trkpt>
      <trkpt lat="45.712644" lon="8.452874">
        <ele>326.520</ele>
        <time>2020-08-23T10:22:36Z</time>
      </trkpt>
      <trkpt lat="45.712589" lon="8.452885">
        <ele>326.528</ele>
        <time>2020-08-23T10:22:37Z</time>
      </trkpt>
      <trkpt lat="45.712525" lon="8.452909">
        <ele>326.565</ele>
        <time>2020-08-23T10:22:38Z</time>
      </trkpt>
      <trkpt lat="45.712474" lon="8.452929">
        <ele>326.548</ele>
        <time>2020-08-23T10:22:39Z</time>
      </trkpt>
      <trkpt lat="45.712127" lon="8.453001">
        <ele>325.561</ele>
        <time>2020-08-23T10:22:46Z</time>
      </trkpt>
      <trkpt lat="45.712087" lon="8.452995">
        <ele>325.517</ele>
        <time>2020-08-23T10:22:47Z</time>
      </trkpt>
      <trkpt lat="45.712057" lon="8.452990">
        <ele>325.508</ele>
        <time>2020-08-23T10:22:48Z</time>
      </trkpt>
      <trkpt lat="45.712048" lon="8.452977">
        <ele>325.529</ele>
        <time>2020-08-23T10:22:58Z</time>
      </trkpt>
      <trkpt lat="45.712045" lon="8.452992">
        <ele>325.579</ele>
        <time>2020-08-23T10:23:39Z</time>
      </trkpt>
      <trkpt lat="45.711930" lon="8.453024">
        <ele>325.068</ele>
        <time>2020-08-23T10:24:01Z</time>
      </trkpt>
      <trkpt lat="45.711668" lon="8.453062">
        <ele>325.088</ele>
        <time>2020-08-23T10:24:08Z</time>
      </trkpt>
      <trkpt lat="45.711575" lon="8.453090">
        <ele>325.095</ele>
        <time>2020-08-23T10:24:10Z</time>
      </trkpt>
      <trkpt lat="45.710316" lon="8.453290">
        <ele>324.527</ele>
        <time>2020-08-23T10:24:34Z</time>
      </trkpt>
      <trkpt lat="45.709304" lon="8.453661">
        <ele>323.635</ele>
        <time>2020-08-23T10:24:52Z</time>
      </trkpt>
      <trkpt lat="45.708959" lon="8.453893">
        <ele>323.172</ele>
        <time>2020-08-23T10:24:58Z</time>
      </trkpt>
      <trkpt lat="45.708917" lon="8.453907">
        <ele>323.118</ele>
        <time>2020-08-23T10:24:59Z</time>
      </trkpt>
      <trkpt lat="45.708801" lon="8.453951">
        <ele>323.198</ele>
        <time>2020-08-23T10:25:01Z</time>
      </trkpt>
      <trkpt lat="45.708749" lon="8.453999">
        <ele>323.117</ele>
        <time>2020-08-23T10:25:02Z</time>
      </trkpt>
      <trkpt lat="45.708714" lon="8.454052">
        <ele>323.108</ele>
        <time>2020-08-23T10:25:03Z</time>
      </trkpt>
      <trkpt lat="45.708631" lon="8.454188">
        <ele>322.626</ele>
        <time>2020-08-23T10:25:05Z</time>
      </trkpt>
      <trkpt lat="45.708586" lon="8.454232">
        <ele>322.666</ele>
        <time>2020-08-23T10:25:06Z</time>
      </trkpt>
      <trkpt lat="45.707616" lon="8.455045">
        <ele>321.755</ele>
        <time>2020-08-23T10:25:24Z</time>
      </trkpt>
      <trkpt lat="45.706719" lon="8.455776">
        <ele>320.245</ele>
        <time>2020-08-23T10:25:40Z</time>
      </trkpt>
      <trkpt lat="45.705952" lon="8.456462">
        <ele>319.352</ele>
        <time>2020-08-23T10:25:55Z</time>
      </trkpt>
      <trkpt lat="45.705227" lon="8.457005">
        <ele>318.834</ele>
        <time>2020-08-23T10:26:08Z</time>
      </trkpt>
      <trkpt lat="45.704638" lon="8.457515">
        <ele>317.892</ele>
        <time>2020-08-23T10:26:19Z</time>
      </trkpt>
      <trkpt lat="45.704461" lon="8.457664">
        <ele>317.379</ele>
        <time>2020-08-23T10:26:26Z</time>
      </trkpt>
      <trkpt lat="45.704434" lon="8.457655">
        <ele>316.874</ele>
        <time>2020-08-23T10:26:42Z</time>
      </trkpt>
      <trkpt lat="45.704435" lon="8.457672">
        <ele>317.356</ele>
        <time>2020-08-23T10:27:03Z</time>
      </trkpt>
      <trkpt lat="45.704411" lon="8.457690">
        <ele>317.321</ele>
        <time>2020-08-23T10:27:13Z</time>
      </trkpt>
      <trkpt lat="45.704391" lon="8.457708">
        <ele>317.308</ele>
        <time>2020-08-23T10:27:14Z</time>
      </trkpt>
      <trkpt lat="45.704241" lon="8.457796">
        <ele>317.382</ele>
        <time>2020-08-23T10:27:19Z</time>
      </trkpt>
      <trkpt lat="45.704208" lon="8.457819">
        <ele>317.392</ele>
        <time>2020-08-23T10:27:20Z</time>
      </trkpt>
      <trkpt lat="45.704089" lon="8.457916">
        <ele>317.371</ele>
        <time>2020-08-23T10:27:23Z</time>
      </trkpt>
      <trkpt lat="45.703342" lon="8.458588">
        <ele>316.891</ele>
        <time>2020-08-23T10:27:39Z</time>
      </trkpt>
      <trkpt lat="45.702415" lon="8.459363">
        <ele>315.948</ele>
        <time>2020-08-23T10:27:57Z</time>
      </trkpt>
      <trkpt lat="45.701848" lon="8.459804">
        <ele>315.910</ele>
        <time>2020-08-23T10:28:09Z</time>
      </trkpt>
      <trkpt lat="45.701607" lon="8.459983">
        <ele>315.418</ele>
        <time>2020-08-23T10:28:15Z</time>
      </trkpt>
      <trkpt lat="45.701579" lon="8.460038">
        <ele>315.415</ele>
        <time>2020-08-23T10:28:16Z</time>
      </trkpt>
      <trkpt lat="45.701573" lon="8.460104">
        <ele>314.995</ele>
        <time>2020-08-23T10:28:17Z</time>
      </trkpt>
      <trkpt lat="45.701584" lon="8.460182">
        <ele>314.949</ele>
        <time>2020-08-23T10:28:18Z</time>
      </trkpt>
      <trkpt lat="45.701606" lon="8.460244">
        <ele>314.923</ele>
        <time>2020-08-23T10:28:19Z</time>
      </trkpt>
      <trkpt lat="45.701634" lon="8.460297">
        <ele>314.908</ele>
        <time>2020-08-23T10:28:20Z</time>
      </trkpt>
      <trkpt lat="45.701660" lon="8.460344">
        <ele>314.964</ele>
        <time>2020-08-23T10:28:21Z</time>
      </trkpt>
      <trkpt lat="45.701682" lon="8.460393">
        <ele>314.944</ele>
        <time>2020-08-23T10:28:22Z</time>
      </trkpt>
      <trkpt lat="45.701699" lon="8.460447">
        <ele>314.923</ele>
        <time>2020-08-23T10:28:23Z</time>
      </trkpt>
      <trkpt lat="45.701717" lon="8.460499">
        <ele>314.993</ele>
        <time>2020-08-23T10:28:24Z</time>
      </trkpt>
      <trkpt lat="45.701776" lon="8.460658">
        <ele>314.970</ele>
        <time>2020-08-23T10:28:27Z</time>
      </trkpt>
      <trkpt lat="45.701799" lon="8.460703">
        <ele>314.922</ele>
        <time>2020-08-23T10:28:28Z</time>
      </trkpt>
      <trkpt lat="45.701823" lon="8.460748">
        <ele>314.910</ele>
        <time>2020-08-23T10:28:29Z</time>
      </trkpt>
      <trkpt lat="45.701850" lon="8.460796">
        <ele>314.927</ele>
        <time>2020-08-23T10:28:30Z</time>
      </trkpt>
      <trkpt lat="45.701876" lon="8.460838">
        <ele>314.945</ele>
        <time>2020-08-23T10:28:31Z</time>
      </trkpt>
      <trkpt lat="45.702123" lon="8.461268">
        <ele>314.947</ele>
        <time>2020-08-23T10:28:41Z</time>
      </trkpt>
      <trkpt lat="45.702217" lon="8.461453">
        <ele>314.911</ele>
        <time>2020-08-23T10:28:45Z</time>
      </trkpt>
      <trkpt lat="45.702237" lon="8.461505">
        <ele>314.908</ele>
        <time>2020-08-23T10:28:46Z</time>
      </trkpt>
      <trkpt lat="45.702505" lon="8.461974">
        <ele>314.999</ele>
        <time>2020-08-23T10:28:56Z</time>
      </trkpt>
      <trkpt lat="45.702532" lon="8.462024">
        <ele>314.989</ele>
        <time>2020-08-23T10:28:57Z</time>
      </trkpt>
      <trkpt lat="45.702566" lon="8.462071">
        <ele>314.978</ele>
        <time>2020-08-23T10:28:58Z</time>
      </trkpt>
      <trkpt lat="45.702641" lon="8.462168">
        <ele>314.968</ele>
        <time>2020-08-23T10:29:00Z</time>
      </trkpt>
      <trkpt lat="45.702673" lon="8.462199">
        <ele>314.935</ele>
        <time>2020-08-23T10:29:01Z</time>
      </trkpt>
      <trkpt lat="45.703313" lon="8.462763">
        <ele>314.947</ele>
        <time>2020-08-23T10:29:17Z</time>
      </trkpt>
      <trkpt lat="45.703506" lon="8.462931">
        <ele>314.975</ele>
        <time>2020-08-23T10:29:22Z</time>
      </trkpt>
      <trkpt lat="45.703993" lon="8.463372">
        <ele>315.992</ele>
        <time>2020-08-23T10:29:36Z</time>
      </trkpt>
      <trkpt lat="45.704651" lon="8.464082">
        <ele>316.822</ele>
        <time>2020-08-23T10:29:55Z</time>
      </trkpt>
      <trkpt lat="45.704922" lon="8.464482">
        <ele>318.362</ele>
        <time>2020-08-23T10:30:08Z</time>
      </trkpt>
      <trkpt lat="45.705194" lon="8.465200">
        <ele>318.808</ele>
        <time>2020-08-23T10:30:27Z</time>
      </trkpt>
      <trkpt lat="45.705341" lon="8.465491">
        <ele>318.808</ele>
        <time>2020-08-23T10:30:39Z</time>
      </trkpt>
      <trkpt lat="45.705343" lon="8.465486">
        <ele>318.837</ele>
        <time>2020-08-23T10:30:56Z</time>
      </trkpt>
      <trkpt lat="45.705372" lon="8.465489">
        <ele>318.857</ele>
        <time>2020-08-23T10:31:13Z</time>
      </trkpt>
      <trkpt lat="45.705388" lon="8.465485">
        <ele>318.856</ele>
        <time>2020-08-23T10:31:14Z</time>
      </trkpt>
      <trkpt lat="45.705398" lon="8.465468">
        <ele>318.816</ele>
        <time>2020-08-23T10:31:15Z</time>
      </trkpt>
      <trkpt lat="45.705396" lon="8.465438">
        <ele>318.813</ele>
        <time>2020-08-23T10:31:16Z</time>
      </trkpt>
      <trkpt lat="45.705381" lon="8.465402">
        <ele>318.895</ele>
        <time>2020-08-23T10:31:17Z</time>
      </trkpt>
      <trkpt lat="45.705361" lon="8.465376">
        <ele>318.893</ele>
        <time>2020-08-23T10:31:18Z</time>
      </trkpt>
      <trkpt lat="45.705338" lon="8.465346">
        <ele>318.890</ele>
        <time>2020-08-23T10:31:19Z</time>
      </trkpt>
      <trkpt lat="45.705316" lon="8.465308">
        <ele>318.846</ele>
        <time>2020-08-23T10:31:20Z</time>
      </trkpt>
      <trkpt lat="45.705293" lon="8.465268">
        <ele>318.888</ele>
        <time>2020-08-23T10:31:21Z</time>
      </trkpt>
      <trkpt lat="45.705265" lon="8.465226">
        <ele>318.816</ele>
        <time>2020-08-23T10:31:22Z</time>
      </trkpt>
      <trkpt lat="45.705016" lon="8.464625">
        <ele>318.808</ele>
        <time>2020-08-23T10:31:35Z</time>
      </trkpt>
      <trkpt lat="45.704851" lon="8.464271">
        <ele>317.899</ele>
        <time>2020-08-23T10:31:42Z</time>
      </trkpt>
      <trkpt lat="45.704820" lon="8.464222">
        <ele>317.319</ele>
        <time>2020-08-23T10:31:43Z</time>
      </trkpt>
      <trkpt lat="45.704787" lon="8.464176">
        <ele>317.878</ele>
        <time>2020-08-23T10:31:44Z</time>
      </trkpt>
      <trkpt lat="45.704748" lon="8.464136">
        <ele>317.378</ele>
        <time>2020-08-23T10:31:45Z</time>
      </trkpt>
      <trkpt lat="45.704704" lon="8.464102">
        <ele>316.815</ele>
        <time>2020-08-23T10:31:46Z</time>
      </trkpt>
      <trkpt lat="45.704650" lon="8.464082">
        <ele>316.867</ele>
        <time>2020-08-23T10:31:47Z</time>
      </trkpt>
      <trkpt lat="45.704597" lon="8.464081">
        <ele>316.815</ele>
        <time>2020-08-23T10:31:48Z</time>
      </trkpt>
      <trkpt lat="45.704530" lon="8.464108">
        <ele>316.842</ele>
        <time>2020-08-23T10:31:49Z</time>
      </trkpt>
      <trkpt lat="45.704494" lon="8.464130">
        <ele>316.459</ele>
        <time>2020-08-23T10:31:50Z</time>
      </trkpt>
      <trkpt lat="45.704448" lon="8.464162">
        <ele>316.403</ele>
        <time>2020-08-23T10:31:51Z</time>
      </trkpt>
      <trkpt lat="45.703664" lon="8.464471">
        <ele>315.423</ele>
        <time>2020-08-23T10:32:07Z</time>
      </trkpt>
      <trkpt lat="45.702973" lon="8.464729">
        <ele>314.908</ele>
        <time>2020-08-23T10:32:24Z</time>
      </trkpt>
      <trkpt lat="45.702336" lon="8.464903">
        <ele>314.930</ele>
        <time>2020-08-23T10:32:40Z</time>
      </trkpt>
      <trkpt lat="45.702310" lon="8.464924">
        <ele>314.410</ele>
        <time>2020-08-23T10:32:50Z</time>
      </trkpt>
      <trkpt lat="45.702303" lon="8.464944">
        <ele>314.039</ele>
        <time>2020-08-23T10:33:24Z</time>
      </trkpt>
      <trkpt lat="45.702280" lon="8.464964">
        <ele>314.049</ele>
        <time>2020-08-23T10:33:39Z</time>
      </trkpt>
      <trkpt lat="45.702276" lon="8.464981">
        <ele>314.026</ele>
        <time>2020-08-23T10:33:40Z</time>
      </trkpt>
      <trkpt lat="45.702269" lon="8.464999">
        <ele>314.078</ele>
        <time>2020-08-23T10:33:41Z</time>
      </trkpt>
      <trkpt lat="45.702006" lon="8.465418">
        <ele>314.046</ele>
        <time>2020-08-23T10:33:54Z</time>
      </trkpt>
      <trkpt lat="45.701419" lon="8.466279">
        <ele>314.073</ele>
        <time>2020-08-23T10:34:14Z</time>
      </trkpt>
      <trkpt lat="45.701163" lon="8.466610">
        <ele>314.092</ele>
        <time>2020-08-23T10:34:24Z</time>
      </trkpt>
      <trkpt lat="45.700737" lon="8.466941">
        <ele>314.073</ele>
        <time>2020-08-23T10:34:37Z</time>
      </trkpt>
      <trkpt lat="45.700692" lon="8.466980">
        <ele>314.020</ele>
        <time>2020-08-23T10:34:47Z</time>
      </trkpt>
      <trkpt lat="45.700597" lon="8.467107">
        <ele>313.508</ele>
        <time>2020-08-23T10:34:56Z</time>
      </trkpt>
      <trkpt lat="45.700605" lon="8.467130">
        <ele>313.574</ele>
        <time>2020-08-23T10:34:57Z</time>
      </trkpt>
      <trkpt lat="45.700620" lon="8.467148">
        <ele>313.524</ele>
        <time>2020-08-23T10:34:58Z</time>
      </trkpt>
      <trkpt lat="45.700637" lon="8.467168">
        <ele>313.553</ele>
        <time>2020-08-23T10:34:59Z</time>
      </trkpt>
      <trkpt lat="45.700650" lon="8.467194">
        <ele>313.523</ele>
        <time>2020-08-23T10:35:00Z</time>
      </trkpt>
      <trkpt lat="45.700658" lon="8.467225">
        <ele>313.560</ele>
        <time>2020-08-23T10:35:01Z</time>
      </trkpt>
      <trkpt lat="45.700664" lon="8.467262">
        <ele>313.552</ele>
        <time>2020-08-23T10:35:02Z</time>
      </trkpt>
      <trkpt lat="45.700826" lon="8.467695">
        <ele>314.430</ele>
        <time>2020-08-23T10:35:14Z</time>
      </trkpt>
      <trkpt lat="45.700842" lon="8.467699">
        <ele>314.497</ele>
        <time>2020-08-23T10:35:15Z</time>
      </trkpt>
      <trkpt lat="45.700862" lon="8.467698">
        <ele>314.444</ele>
        <time>2020-08-23T10:35:16Z</time>
      </trkpt>
      <trkpt lat="45.700881" lon="8.467691">
        <ele>314.405</ele>
        <time>2020-08-23T10:35:17Z</time>
      </trkpt>
      <trkpt lat="45.700901" lon="8.467682">
        <ele>314.415</ele>
        <time>2020-08-23T10:35:18Z</time>
      </trkpt>
      <trkpt lat="45.700917" lon="8.467673">
        <ele>314.408</ele>
        <time>2020-08-23T10:35:19Z</time>
      </trkpt>
      <trkpt lat="45.700931" lon="8.467655">
        <ele>314.939</ele>
        <time>2020-08-23T10:35:29Z</time>
      </trkpt>
      <trkpt lat="45.700924" lon="8.467639">
        <ele>313.069</ele>
        <time>2020-08-23T10:35:42Z</time>
      </trkpt>
    </trkseg>
  </trk>
</gpx>
